<?xml version="1.0" encoding="UTF-8" standalone="no" ?>
<gpx xmlns="http://www.topografix.com/GPX/1/1" xmlns:xsi="http://www.w3.org/2001/XMLSchema-instance" xsi:schemaLocation="http://www.topografix.com/GPX/1/1 http://www.topografix.com/GPX/1/1/gpx.xsd" version="1.1" creator="VisuGPX - https://www.visugpx.com">
  <metadata>
    <name>Rejoindre départ 7 majeurs</name>
  </metadata>
  <trk>
    <name><![CDATA[Rejoindre départ 7 majeurs]]></name>
    <extensions>
      <line xmlns="http://www.topografix.com/GPX/gpx_style/0/2">
        <color>0000FF</color>
        <width>4</width>
      </line>
    </extensions>
    <trkseg>
      <trkpt lat="45.61854" lon="6.27683">
        <ele>410.4</ele>
        <time>2022-07-17T03:55:53Z</time>
      </trkpt>
      <trkpt lat="45.61847" lon="6.27684">
        <ele>432.8</ele>
        <time>2022-07-17T03:56:26Z</time>
      </trkpt>
      <trkpt lat="45.61846" lon="6.27685">
        <ele>432.8</ele>
        <time>2022-07-17T03:56:27Z</time>
      </trkpt>
      <trkpt lat="45.61843" lon="6.27687">
        <ele>432.6</ele>
        <time>2022-07-17T03:56:28Z</time>
      </trkpt>
      <trkpt lat="45.61841" lon="6.27688">
        <ele>432.6</ele>
        <time>2022-07-17T03:56:29Z</time>
      </trkpt>
      <trkpt lat="45.61837" lon="6.2769">
        <ele>432.2</ele>
        <time>2022-07-17T03:56:30Z</time>
      </trkpt>
      <trkpt lat="45.61833" lon="6.27692">
        <ele>432.2</ele>
        <time>2022-07-17T03:56:31Z</time>
      </trkpt>
      <trkpt lat="45.61828" lon="6.27694">
        <ele>431.8</ele>
        <time>2022-07-17T03:56:32Z</time>
      </trkpt>
      <trkpt lat="45.61823" lon="6.27696">
        <ele>431.6</ele>
        <time>2022-07-17T03:56:33Z</time>
      </trkpt>
      <trkpt lat="45.61818" lon="6.27698">
        <ele>431.2</ele>
        <time>2022-07-17T03:56:34Z</time>
      </trkpt>
      <trkpt lat="45.61813" lon="6.27699">
        <ele>430.8</ele>
        <time>2022-07-17T03:56:35Z</time>
      </trkpt>
      <trkpt lat="45.61808" lon="6.27701">
        <ele>430.4</ele>
        <time>2022-07-17T03:56:36Z</time>
      </trkpt>
      <trkpt lat="45.61803" lon="6.27702">
        <ele>430.2</ele>
        <time>2022-07-17T03:56:37Z</time>
      </trkpt>
      <trkpt lat="45.61798" lon="6.27704">
        <ele>429.8</ele>
        <time>2022-07-17T03:56:38Z</time>
      </trkpt>
      <trkpt lat="45.61794" lon="6.27705">
        <ele>429.4</ele>
        <time>2022-07-17T03:56:39Z</time>
      </trkpt>
      <trkpt lat="45.61789" lon="6.27707">
        <ele>428.8</ele>
        <time>2022-07-17T03:56:40Z</time>
      </trkpt>
      <trkpt lat="45.61785" lon="6.27711">
        <ele>428.6</ele>
        <time>2022-07-17T03:56:41Z</time>
      </trkpt>
      <trkpt lat="45.61782" lon="6.27716">
        <ele>428.2</ele>
        <time>2022-07-17T03:56:42Z</time>
      </trkpt>
      <trkpt lat="45.6178" lon="6.27723">
        <ele>427.8</ele>
        <time>2022-07-17T03:56:43Z</time>
      </trkpt>
      <trkpt lat="45.61777" lon="6.2773">
        <ele>427.2</ele>
        <time>2022-07-17T03:56:44Z</time>
      </trkpt>
      <trkpt lat="45.61775" lon="6.27738">
        <ele>426.6</ele>
        <time>2022-07-17T03:56:45Z</time>
      </trkpt>
      <trkpt lat="45.61773" lon="6.27746">
        <ele>426</ele>
        <time>2022-07-17T03:56:46Z</time>
      </trkpt>
      <trkpt lat="45.6177" lon="6.27753">
        <ele>425.4</ele>
        <time>2022-07-17T03:56:47Z</time>
      </trkpt>
      <trkpt lat="45.61767" lon="6.27762">
        <ele>424.8</ele>
        <time>2022-07-17T03:56:48Z</time>
      </trkpt>
      <trkpt lat="45.61765" lon="6.2777">
        <ele>424.2</ele>
        <time>2022-07-17T03:56:49Z</time>
      </trkpt>
      <trkpt lat="45.61762" lon="6.27778">
        <ele>423.6</ele>
        <time>2022-07-17T03:56:50Z</time>
      </trkpt>
      <trkpt lat="45.61759" lon="6.27785">
        <ele>423.2</ele>
        <time>2022-07-17T03:56:51Z</time>
      </trkpt>
      <trkpt lat="45.61757" lon="6.27792">
        <ele>422.6</ele>
        <time>2022-07-17T03:56:52Z</time>
      </trkpt>
      <trkpt lat="45.61754" lon="6.27801">
        <ele>422</ele>
        <time>2022-07-17T03:56:53Z</time>
      </trkpt>
      <trkpt lat="45.61751" lon="6.27809">
        <ele>421.6</ele>
        <time>2022-07-17T03:56:54Z</time>
      </trkpt>
      <trkpt lat="45.61747" lon="6.27817">
        <ele>421.4</ele>
        <time>2022-07-17T03:56:55Z</time>
      </trkpt>
      <trkpt lat="45.61743" lon="6.27824">
        <ele>421</ele>
        <time>2022-07-17T03:56:56Z</time>
      </trkpt>
      <trkpt lat="45.61739" lon="6.27831">
        <ele>420.8</ele>
        <time>2022-07-17T03:56:57Z</time>
      </trkpt>
      <trkpt lat="45.61734" lon="6.27837">
        <ele>420.4</ele>
        <time>2022-07-17T03:56:58Z</time>
      </trkpt>
      <trkpt lat="45.61728" lon="6.27842">
        <ele>420.2</ele>
        <time>2022-07-17T03:56:59Z</time>
      </trkpt>
      <trkpt lat="45.61722" lon="6.27846">
        <ele>420.2</ele>
        <time>2022-07-17T03:57:00Z</time>
      </trkpt>
      <trkpt lat="45.61716" lon="6.2785">
        <ele>420</ele>
        <time>2022-07-17T03:57:01Z</time>
      </trkpt>
      <trkpt lat="45.6171" lon="6.27853">
        <ele>420</ele>
        <time>2022-07-17T03:57:02Z</time>
      </trkpt>
      <trkpt lat="45.61703" lon="6.27857">
        <ele>419.6</ele>
        <time>2022-07-17T03:57:03Z</time>
      </trkpt>
      <trkpt lat="45.61697" lon="6.27861">
        <ele>419.6</ele>
        <time>2022-07-17T03:57:04Z</time>
      </trkpt>
      <trkpt lat="45.61691" lon="6.27864">
        <ele>419.4</ele>
        <time>2022-07-17T03:57:05Z</time>
      </trkpt>
      <trkpt lat="45.61685" lon="6.27868">
        <ele>419.4</ele>
        <time>2022-07-17T03:57:06Z</time>
      </trkpt>
      <trkpt lat="45.6168" lon="6.27871">
        <ele>419.4</ele>
        <time>2022-07-17T03:57:07Z</time>
      </trkpt>
      <trkpt lat="45.61677" lon="6.27873">
        <ele>419.2</ele>
        <time>2022-07-17T03:57:08Z</time>
      </trkpt>
      <trkpt lat="45.61674" lon="6.27876">
        <ele>419.2</ele>
        <time>2022-07-17T03:57:09Z</time>
      </trkpt>
      <trkpt lat="45.61671" lon="6.27878">
        <ele>419.2</ele>
        <time>2022-07-17T03:57:10Z</time>
      </trkpt>
      <trkpt lat="45.61668" lon="6.27881">
        <ele>419.2</ele>
        <time>2022-07-17T03:57:11Z</time>
      </trkpt>
      <trkpt lat="45.61664" lon="6.27883">
        <ele>419.2</ele>
        <time>2022-07-17T03:57:12Z</time>
      </trkpt>
      <trkpt lat="45.61661" lon="6.27885">
        <ele>419.2</ele>
        <time>2022-07-17T03:57:13Z</time>
      </trkpt>
      <trkpt lat="45.61658" lon="6.27888">
        <ele>419.2</ele>
        <time>2022-07-17T03:57:14Z</time>
      </trkpt>
      <trkpt lat="45.61654" lon="6.27889">
        <ele>419.2</ele>
        <time>2022-07-17T03:57:15Z</time>
      </trkpt>
      <trkpt lat="45.6165" lon="6.2789">
        <ele>419.2</ele>
        <time>2022-07-17T03:57:16Z</time>
      </trkpt>
      <trkpt lat="45.61646" lon="6.27891">
        <ele>419.2</ele>
        <time>2022-07-17T03:57:17Z</time>
      </trkpt>
      <trkpt lat="45.61642" lon="6.27893">
        <ele>419.2</ele>
        <time>2022-07-17T03:57:18Z</time>
      </trkpt>
      <trkpt lat="45.61638" lon="6.27896">
        <ele>419.2</ele>
        <time>2022-07-17T03:57:19Z</time>
      </trkpt>
      <trkpt lat="45.61634" lon="6.27897">
        <ele>419.2</ele>
        <time>2022-07-17T03:57:20Z</time>
      </trkpt>
      <trkpt lat="45.6163" lon="6.27899">
        <ele>418.8</ele>
        <time>2022-07-17T03:57:21Z</time>
      </trkpt>
      <trkpt lat="45.61626" lon="6.27902">
        <ele>418.8</ele>
        <time>2022-07-17T03:57:22Z</time>
      </trkpt>
      <trkpt lat="45.61622" lon="6.27904">
        <ele>418.4</ele>
        <time>2022-07-17T03:57:23Z</time>
      </trkpt>
      <trkpt lat="45.61617" lon="6.27906">
        <ele>418.4</ele>
        <time>2022-07-17T03:57:24Z</time>
      </trkpt>
      <trkpt lat="45.61613" lon="6.27906">
        <ele>418.2</ele>
        <time>2022-07-17T03:57:25Z</time>
      </trkpt>
      <trkpt lat="45.61608" lon="6.27906">
        <ele>418.2</ele>
        <time>2022-07-17T03:57:26Z</time>
      </trkpt>
      <trkpt lat="45.61604" lon="6.27904">
        <ele>417.8</ele>
        <time>2022-07-17T03:57:27Z</time>
      </trkpt>
      <trkpt lat="45.616" lon="6.279">
        <ele>417.8</ele>
        <time>2022-07-17T03:57:28Z</time>
      </trkpt>
      <trkpt lat="45.61596" lon="6.27896">
        <ele>417.8</ele>
        <time>2022-07-17T03:57:29Z</time>
      </trkpt>
      <trkpt lat="45.61592" lon="6.27891">
        <ele>417.8</ele>
        <time>2022-07-17T03:57:30Z</time>
      </trkpt>
      <trkpt lat="45.61588" lon="6.27889">
        <ele>417.6</ele>
        <time>2022-07-17T03:57:31Z</time>
      </trkpt>
      <trkpt lat="45.61584" lon="6.27888">
        <ele>417.6</ele>
        <time>2022-07-17T03:57:32Z</time>
      </trkpt>
      <trkpt lat="45.61579" lon="6.27889">
        <ele>417.6</ele>
        <time>2022-07-17T03:57:33Z</time>
      </trkpt>
      <trkpt lat="45.61574" lon="6.27892">
        <ele>417.4</ele>
        <time>2022-07-17T03:57:34Z</time>
      </trkpt>
      <trkpt lat="45.61569" lon="6.27897">
        <ele>417.4</ele>
        <time>2022-07-17T03:57:35Z</time>
      </trkpt>
      <trkpt lat="45.61564" lon="6.27901">
        <ele>417</ele>
        <time>2022-07-17T03:57:36Z</time>
      </trkpt>
      <trkpt lat="45.61559" lon="6.27904">
        <ele>416.8</ele>
        <time>2022-07-17T03:57:37Z</time>
      </trkpt>
      <trkpt lat="45.61553" lon="6.27903">
        <ele>416.6</ele>
        <time>2022-07-17T03:57:38Z</time>
      </trkpt>
      <trkpt lat="45.61547" lon="6.279">
        <ele>416.2</ele>
        <time>2022-07-17T03:57:39Z</time>
      </trkpt>
      <trkpt lat="45.61541" lon="6.27894">
        <ele>415.8</ele>
        <time>2022-07-17T03:57:40Z</time>
      </trkpt>
      <trkpt lat="45.61535" lon="6.27887">
        <ele>415.4</ele>
        <time>2022-07-17T03:57:41Z</time>
      </trkpt>
      <trkpt lat="45.6153" lon="6.27879">
        <ele>415</ele>
        <time>2022-07-17T03:57:42Z</time>
      </trkpt>
      <trkpt lat="45.61525" lon="6.27871">
        <ele>414.8</ele>
        <time>2022-07-17T03:57:43Z</time>
      </trkpt>
      <trkpt lat="45.61521" lon="6.27863">
        <ele>414.6</ele>
        <time>2022-07-17T03:57:44Z</time>
      </trkpt>
      <trkpt lat="45.61516" lon="6.27855">
        <ele>414.2</ele>
        <time>2022-07-17T03:57:45Z</time>
      </trkpt>
      <trkpt lat="45.6151" lon="6.27848">
        <ele>413.8</ele>
        <time>2022-07-17T03:57:46Z</time>
      </trkpt>
      <trkpt lat="45.61506" lon="6.2784">
        <ele>413.4</ele>
        <time>2022-07-17T03:57:47Z</time>
      </trkpt>
      <trkpt lat="45.61501" lon="6.27831">
        <ele>413</ele>
        <time>2022-07-17T03:57:48Z</time>
      </trkpt>
      <trkpt lat="45.61495" lon="6.27822">
        <ele>412.8</ele>
        <time>2022-07-17T03:57:49Z</time>
      </trkpt>
      <trkpt lat="45.61489" lon="6.27813">
        <ele>412.4</ele>
        <time>2022-07-17T03:57:50Z</time>
      </trkpt>
      <trkpt lat="45.61483" lon="6.27804">
        <ele>411.8</ele>
        <time>2022-07-17T03:57:51Z</time>
      </trkpt>
      <trkpt lat="45.61477" lon="6.27794">
        <ele>411.4</ele>
        <time>2022-07-17T03:57:52Z</time>
      </trkpt>
      <trkpt lat="45.6147" lon="6.27784">
        <ele>410.8</ele>
        <time>2022-07-17T03:57:53Z</time>
      </trkpt>
      <trkpt lat="45.61463" lon="6.27774">
        <ele>410.4</ele>
        <time>2022-07-17T03:57:54Z</time>
      </trkpt>
      <trkpt lat="45.61456" lon="6.27765">
        <ele>409.8</ele>
        <time>2022-07-17T03:57:55Z</time>
      </trkpt>
      <trkpt lat="45.61447" lon="6.27755">
        <ele>409.2</ele>
        <time>2022-07-17T03:57:56Z</time>
      </trkpt>
      <trkpt lat="45.61439" lon="6.27746">
        <ele>408.6</ele>
        <time>2022-07-17T03:57:57Z</time>
      </trkpt>
      <trkpt lat="45.61431" lon="6.27737">
        <ele>407.8</ele>
        <time>2022-07-17T03:57:58Z</time>
      </trkpt>
      <trkpt lat="45.61422" lon="6.27728">
        <ele>407.2</ele>
        <time>2022-07-17T03:57:59Z</time>
      </trkpt>
      <trkpt lat="45.61415" lon="6.27716">
        <ele>406.6</ele>
        <time>2022-07-17T03:58:00Z</time>
      </trkpt>
      <trkpt lat="45.61408" lon="6.27705">
        <ele>406</ele>
        <time>2022-07-17T03:58:01Z</time>
      </trkpt>
      <trkpt lat="45.61402" lon="6.27692">
        <ele>405.2</ele>
        <time>2022-07-17T03:58:02Z</time>
      </trkpt>
      <trkpt lat="45.61396" lon="6.27679">
        <ele>404.4</ele>
        <time>2022-07-17T03:58:03Z</time>
      </trkpt>
      <trkpt lat="45.61389" lon="6.27667">
        <ele>403.8</ele>
        <time>2022-07-17T03:58:04Z</time>
      </trkpt>
      <trkpt lat="45.61383" lon="6.27656">
        <ele>403.2</ele>
        <time>2022-07-17T03:58:05Z</time>
      </trkpt>
      <trkpt lat="45.61377" lon="6.27645">
        <ele>402.6</ele>
        <time>2022-07-17T03:58:06Z</time>
      </trkpt>
      <trkpt lat="45.6137" lon="6.27635">
        <ele>402</ele>
        <time>2022-07-17T03:58:07Z</time>
      </trkpt>
      <trkpt lat="45.61364" lon="6.27625">
        <ele>401.4</ele>
        <time>2022-07-17T03:58:08Z</time>
      </trkpt>
      <trkpt lat="45.61358" lon="6.27615">
        <ele>401</ele>
        <time>2022-07-17T03:58:09Z</time>
      </trkpt>
      <trkpt lat="45.61352" lon="6.27606">
        <ele>400.6</ele>
        <time>2022-07-17T03:58:10Z</time>
      </trkpt>
      <trkpt lat="45.61346" lon="6.27597">
        <ele>400.2</ele>
        <time>2022-07-17T03:58:11Z</time>
      </trkpt>
      <trkpt lat="45.6134" lon="6.27588">
        <ele>399.6</ele>
        <time>2022-07-17T03:58:12Z</time>
      </trkpt>
      <trkpt lat="45.61332" lon="6.27578">
        <ele>399.4</ele>
        <time>2022-07-17T03:58:13Z</time>
      </trkpt>
      <trkpt lat="45.61325" lon="6.27571">
        <ele>398.8</ele>
        <time>2022-07-17T03:58:14Z</time>
      </trkpt>
      <trkpt lat="45.61317" lon="6.27564">
        <ele>398.6</ele>
        <time>2022-07-17T03:58:15Z</time>
      </trkpt>
      <trkpt lat="45.61308" lon="6.27557">
        <ele>398.4</ele>
        <time>2022-07-17T03:58:16Z</time>
      </trkpt>
      <trkpt lat="45.613" lon="6.2755">
        <ele>398</ele>
        <time>2022-07-17T03:58:17Z</time>
      </trkpt>
      <trkpt lat="45.61293" lon="6.27541">
        <ele>397.8</ele>
        <time>2022-07-17T03:58:18Z</time>
      </trkpt>
      <trkpt lat="45.61286" lon="6.2753">
        <ele>397.8</ele>
        <time>2022-07-17T03:58:19Z</time>
      </trkpt>
      <trkpt lat="45.61279" lon="6.27521">
        <ele>397.4</ele>
        <time>2022-07-17T03:58:20Z</time>
      </trkpt>
      <trkpt lat="45.61271" lon="6.27512">
        <ele>397.2</ele>
        <time>2022-07-17T03:58:21Z</time>
      </trkpt>
      <trkpt lat="45.61263" lon="6.27503">
        <ele>397</ele>
        <time>2022-07-17T03:58:22Z</time>
      </trkpt>
      <trkpt lat="45.61255" lon="6.27497">
        <ele>397</ele>
        <time>2022-07-17T03:58:23Z</time>
      </trkpt>
      <trkpt lat="45.61247" lon="6.27489">
        <ele>396.8</ele>
        <time>2022-07-17T03:58:24Z</time>
      </trkpt>
      <trkpt lat="45.6124" lon="6.27483">
        <ele>396.8</ele>
        <time>2022-07-17T03:58:25Z</time>
      </trkpt>
      <trkpt lat="45.61232" lon="6.27477">
        <ele>396.8</ele>
        <time>2022-07-17T03:58:26Z</time>
      </trkpt>
      <trkpt lat="45.61225" lon="6.27471">
        <ele>396.6</ele>
        <time>2022-07-17T03:58:27Z</time>
      </trkpt>
      <trkpt lat="45.61219" lon="6.27466">
        <ele>396.6</ele>
        <time>2022-07-17T03:58:28Z</time>
      </trkpt>
      <trkpt lat="45.61212" lon="6.27461">
        <ele>396.6</ele>
        <time>2022-07-17T03:58:29Z</time>
      </trkpt>
      <trkpt lat="45.61206" lon="6.27456">
        <ele>396.6</ele>
        <time>2022-07-17T03:58:30Z</time>
      </trkpt>
      <trkpt lat="45.61201" lon="6.2745">
        <ele>396.6</ele>
        <time>2022-07-17T03:58:31Z</time>
      </trkpt>
      <trkpt lat="45.61196" lon="6.27444">
        <ele>396.8</ele>
        <time>2022-07-17T03:58:32Z</time>
      </trkpt>
      <trkpt lat="45.61191" lon="6.27438">
        <ele>396.8</ele>
        <time>2022-07-17T03:58:33Z</time>
      </trkpt>
      <trkpt lat="45.61186" lon="6.27432">
        <ele>397.2</ele>
        <time>2022-07-17T03:58:34Z</time>
      </trkpt>
      <trkpt lat="45.61182" lon="6.27426">
        <ele>397.2</ele>
        <time>2022-07-17T03:58:35Z</time>
      </trkpt>
      <trkpt lat="45.61178" lon="6.2742">
        <ele>397.6</ele>
        <time>2022-07-17T03:58:36Z</time>
      </trkpt>
      <trkpt lat="45.61173" lon="6.27415">
        <ele>397.8</ele>
        <time>2022-07-17T03:58:37Z</time>
      </trkpt>
      <trkpt lat="45.61169" lon="6.27409">
        <ele>398</ele>
        <time>2022-07-17T03:58:38Z</time>
      </trkpt>
      <trkpt lat="45.61166" lon="6.27403">
        <ele>398</ele>
        <time>2022-07-17T03:58:39Z</time>
      </trkpt>
      <trkpt lat="45.61162" lon="6.27398">
        <ele>398.4</ele>
        <time>2022-07-17T03:58:40Z</time>
      </trkpt>
      <trkpt lat="45.61158" lon="6.27393">
        <ele>398.6</ele>
        <time>2022-07-17T03:58:41Z</time>
      </trkpt>
      <trkpt lat="45.61155" lon="6.27388">
        <ele>399</ele>
        <time>2022-07-17T03:58:42Z</time>
      </trkpt>
      <trkpt lat="45.61151" lon="6.27384">
        <ele>399.2</ele>
        <time>2022-07-17T03:58:43Z</time>
      </trkpt>
      <trkpt lat="45.61148" lon="6.27379">
        <ele>399.4</ele>
        <time>2022-07-17T03:58:44Z</time>
      </trkpt>
      <trkpt lat="45.61145" lon="6.27375">
        <ele>399.8</ele>
        <time>2022-07-17T03:58:45Z</time>
      </trkpt>
      <trkpt lat="45.61142" lon="6.27371">
        <ele>399.8</ele>
        <time>2022-07-17T03:58:46Z</time>
      </trkpt>
      <trkpt lat="45.61138" lon="6.27366">
        <ele>400</ele>
        <time>2022-07-17T03:58:47Z</time>
      </trkpt>
      <trkpt lat="45.61135" lon="6.27362">
        <ele>400.4</ele>
        <time>2022-07-17T03:58:48Z</time>
      </trkpt>
      <trkpt lat="45.61133" lon="6.27357">
        <ele>400.4</ele>
        <time>2022-07-17T03:58:49Z</time>
      </trkpt>
      <trkpt lat="45.6113" lon="6.27353">
        <ele>400.8</ele>
        <time>2022-07-17T03:58:50Z</time>
      </trkpt>
      <trkpt lat="45.61127" lon="6.27348">
        <ele>400.8</ele>
        <time>2022-07-17T03:58:51Z</time>
      </trkpt>
      <trkpt lat="45.61124" lon="6.27343">
        <ele>401.2</ele>
        <time>2022-07-17T03:58:52Z</time>
      </trkpt>
      <trkpt lat="45.61121" lon="6.27338">
        <ele>401.4</ele>
        <time>2022-07-17T03:58:54Z</time>
      </trkpt>
      <trkpt lat="45.61118" lon="6.27333">
        <ele>401.4</ele>
        <time>2022-07-17T03:58:55Z</time>
      </trkpt>
      <trkpt lat="45.61115" lon="6.27327">
        <ele>401.6</ele>
        <time>2022-07-17T03:58:56Z</time>
      </trkpt>
      <trkpt lat="45.61112" lon="6.27321">
        <ele>401.6</ele>
        <time>2022-07-17T03:58:57Z</time>
      </trkpt>
      <trkpt lat="45.6111" lon="6.27314">
        <ele>401.6</ele>
        <time>2022-07-17T03:58:58Z</time>
      </trkpt>
      <trkpt lat="45.61108" lon="6.27308">
        <ele>401.8</ele>
        <time>2022-07-17T03:58:59Z</time>
      </trkpt>
      <trkpt lat="45.61105" lon="6.27301">
        <ele>401.8</ele>
        <time>2022-07-17T03:59:00Z</time>
      </trkpt>
      <trkpt lat="45.61103" lon="6.27295">
        <ele>401.8</ele>
        <time>2022-07-17T03:59:01Z</time>
      </trkpt>
      <trkpt lat="45.61101" lon="6.27288">
        <ele>401.8</ele>
        <time>2022-07-17T03:59:02Z</time>
      </trkpt>
      <trkpt lat="45.61098" lon="6.27282">
        <ele>402</ele>
        <time>2022-07-17T03:59:03Z</time>
      </trkpt>
      <trkpt lat="45.61096" lon="6.27276">
        <ele>402</ele>
        <time>2022-07-17T03:59:04Z</time>
      </trkpt>
      <trkpt lat="45.61094" lon="6.27269">
        <ele>402</ele>
        <time>2022-07-17T03:59:05Z</time>
      </trkpt>
      <trkpt lat="45.61092" lon="6.27263">
        <ele>402.2</ele>
        <time>2022-07-17T03:59:06Z</time>
      </trkpt>
      <trkpt lat="45.6109" lon="6.27257">
        <ele>402.2</ele>
        <time>2022-07-17T03:59:07Z</time>
      </trkpt>
      <trkpt lat="45.61088" lon="6.27251">
        <ele>402.2</ele>
        <time>2022-07-17T03:59:08Z</time>
      </trkpt>
      <trkpt lat="45.61086" lon="6.27245">
        <ele>402.6</ele>
        <time>2022-07-17T03:59:09Z</time>
      </trkpt>
      <trkpt lat="45.61084" lon="6.27239">
        <ele>402.6</ele>
        <time>2022-07-17T03:59:10Z</time>
      </trkpt>
      <trkpt lat="45.61082" lon="6.27233">
        <ele>402.6</ele>
        <time>2022-07-17T03:59:11Z</time>
      </trkpt>
      <trkpt lat="45.6108" lon="6.27227">
        <ele>402.8</ele>
        <time>2022-07-17T03:59:12Z</time>
      </trkpt>
      <trkpt lat="45.61078" lon="6.27221">
        <ele>402.8</ele>
        <time>2022-07-17T03:59:13Z</time>
      </trkpt>
      <trkpt lat="45.61076" lon="6.27215">
        <ele>403.2</ele>
        <time>2022-07-17T03:59:14Z</time>
      </trkpt>
      <trkpt lat="45.61074" lon="6.2721">
        <ele>403.2</ele>
        <time>2022-07-17T03:59:15Z</time>
      </trkpt>
      <trkpt lat="45.61073" lon="6.27204">
        <ele>403.6</ele>
        <time>2022-07-17T03:59:16Z</time>
      </trkpt>
      <trkpt lat="45.61071" lon="6.27199">
        <ele>403.6</ele>
        <time>2022-07-17T03:59:17Z</time>
      </trkpt>
      <trkpt lat="45.61069" lon="6.27193">
        <ele>404</ele>
        <time>2022-07-17T03:59:18Z</time>
      </trkpt>
      <trkpt lat="45.61067" lon="6.27188">
        <ele>404</ele>
        <time>2022-07-17T03:59:19Z</time>
      </trkpt>
      <trkpt lat="45.61065" lon="6.27183">
        <ele>404.2</ele>
        <time>2022-07-17T03:59:20Z</time>
      </trkpt>
      <trkpt lat="45.61063" lon="6.27178">
        <ele>404.2</ele>
        <time>2022-07-17T03:59:21Z</time>
      </trkpt>
      <trkpt lat="45.61061" lon="6.27172">
        <ele>404.6</ele>
        <time>2022-07-17T03:59:22Z</time>
      </trkpt>
      <trkpt lat="45.61059" lon="6.27167">
        <ele>404.6</ele>
        <time>2022-07-17T03:59:23Z</time>
      </trkpt>
      <trkpt lat="45.61058" lon="6.27162">
        <ele>405</ele>
        <time>2022-07-17T03:59:24Z</time>
      </trkpt>
      <trkpt lat="45.61056" lon="6.27157">
        <ele>405.2</ele>
        <time>2022-07-17T03:59:25Z</time>
      </trkpt>
      <trkpt lat="45.61054" lon="6.27151">
        <ele>405.2</ele>
        <time>2022-07-17T03:59:26Z</time>
      </trkpt>
      <trkpt lat="45.61052" lon="6.27146">
        <ele>405.6</ele>
        <time>2022-07-17T03:59:27Z</time>
      </trkpt>
      <trkpt lat="45.61051" lon="6.27141">
        <ele>405.8</ele>
        <time>2022-07-17T03:59:28Z</time>
      </trkpt>
      <trkpt lat="45.61048" lon="6.27136">
        <ele>406</ele>
        <time>2022-07-17T03:59:29Z</time>
      </trkpt>
      <trkpt lat="45.61046" lon="6.27131">
        <ele>406.2</ele>
        <time>2022-07-17T03:59:30Z</time>
      </trkpt>
      <trkpt lat="45.61044" lon="6.27126">
        <ele>406.4</ele>
        <time>2022-07-17T03:59:31Z</time>
      </trkpt>
      <trkpt lat="45.61043" lon="6.2712">
        <ele>406.8</ele>
        <time>2022-07-17T03:59:32Z</time>
      </trkpt>
      <trkpt lat="45.61041" lon="6.27115">
        <ele>407</ele>
        <time>2022-07-17T03:59:33Z</time>
      </trkpt>
      <trkpt lat="45.6104" lon="6.2711">
        <ele>407.2</ele>
        <time>2022-07-17T03:59:34Z</time>
      </trkpt>
      <trkpt lat="45.61038" lon="6.27105">
        <ele>407.6</ele>
        <time>2022-07-17T03:59:35Z</time>
      </trkpt>
      <trkpt lat="45.61037" lon="6.271">
        <ele>407.8</ele>
        <time>2022-07-17T03:59:36Z</time>
      </trkpt>
      <trkpt lat="45.61036" lon="6.27096">
        <ele>408</ele>
        <time>2022-07-17T03:59:37Z</time>
      </trkpt>
      <trkpt lat="45.61034" lon="6.27091">
        <ele>408.2</ele>
        <time>2022-07-17T03:59:38Z</time>
      </trkpt>
      <trkpt lat="45.61033" lon="6.27086">
        <ele>408.2</ele>
        <time>2022-07-17T03:59:39Z</time>
      </trkpt>
      <trkpt lat="45.61031" lon="6.27081">
        <ele>408.6</ele>
        <time>2022-07-17T03:59:40Z</time>
      </trkpt>
      <trkpt lat="45.61029" lon="6.27076">
        <ele>408.6</ele>
        <time>2022-07-17T03:59:41Z</time>
      </trkpt>
      <trkpt lat="45.61027" lon="6.2707">
        <ele>408.6</ele>
        <time>2022-07-17T03:59:42Z</time>
      </trkpt>
      <trkpt lat="45.61024" lon="6.27064">
        <ele>408.6</ele>
        <time>2022-07-17T03:59:43Z</time>
      </trkpt>
      <trkpt lat="45.61022" lon="6.27058">
        <ele>408.6</ele>
        <time>2022-07-17T03:59:44Z</time>
      </trkpt>
      <trkpt lat="45.61019" lon="6.27051">
        <ele>408.6</ele>
        <time>2022-07-17T03:59:45Z</time>
      </trkpt>
      <trkpt lat="45.61016" lon="6.27045">
        <ele>408.6</ele>
        <time>2022-07-17T03:59:46Z</time>
      </trkpt>
      <trkpt lat="45.61013" lon="6.27038">
        <ele>408.6</ele>
        <time>2022-07-17T03:59:47Z</time>
      </trkpt>
      <trkpt lat="45.61009" lon="6.27032">
        <ele>408.6</ele>
        <time>2022-07-17T03:59:48Z</time>
      </trkpt>
      <trkpt lat="45.61006" lon="6.27025">
        <ele>408.6</ele>
        <time>2022-07-17T03:59:49Z</time>
      </trkpt>
      <trkpt lat="45.61003" lon="6.27019">
        <ele>408.6</ele>
        <time>2022-07-17T03:59:50Z</time>
      </trkpt>
      <trkpt lat="45.61" lon="6.27012">
        <ele>408.4</ele>
        <time>2022-07-17T03:59:51Z</time>
      </trkpt>
      <trkpt lat="45.60997" lon="6.27006">
        <ele>408.4</ele>
        <time>2022-07-17T03:59:52Z</time>
      </trkpt>
      <trkpt lat="45.60994" lon="6.27">
        <ele>408.4</ele>
        <time>2022-07-17T03:59:53Z</time>
      </trkpt>
      <trkpt lat="45.60991" lon="6.26993">
        <ele>408.4</ele>
        <time>2022-07-17T03:59:54Z</time>
      </trkpt>
      <trkpt lat="45.60989" lon="6.26987">
        <ele>408.4</ele>
        <time>2022-07-17T03:59:55Z</time>
      </trkpt>
      <trkpt lat="45.60986" lon="6.2698">
        <ele>408.4</ele>
        <time>2022-07-17T03:59:56Z</time>
      </trkpt>
      <trkpt lat="45.60983" lon="6.26974">
        <ele>408.4</ele>
        <time>2022-07-17T03:59:57Z</time>
      </trkpt>
      <trkpt lat="45.60981" lon="6.26967">
        <ele>408.4</ele>
        <time>2022-07-17T03:59:58Z</time>
      </trkpt>
      <trkpt lat="45.60979" lon="6.26961">
        <ele>408.4</ele>
        <time>2022-07-17T03:59:59Z</time>
      </trkpt>
      <trkpt lat="45.60976" lon="6.26954">
        <ele>408.4</ele>
        <time>2022-07-17T04:00:00Z</time>
      </trkpt>
      <trkpt lat="45.60974" lon="6.26947">
        <ele>408.4</ele>
        <time>2022-07-17T04:00:01Z</time>
      </trkpt>
      <trkpt lat="45.60972" lon="6.2694">
        <ele>408.4</ele>
        <time>2022-07-17T04:00:02Z</time>
      </trkpt>
      <trkpt lat="45.6097" lon="6.26933">
        <ele>408.6</ele>
        <time>2022-07-17T04:00:03Z</time>
      </trkpt>
      <trkpt lat="45.60968" lon="6.26927">
        <ele>408.6</ele>
        <time>2022-07-17T04:00:04Z</time>
      </trkpt>
      <trkpt lat="45.60966" lon="6.2692">
        <ele>408.6</ele>
        <time>2022-07-17T04:00:05Z</time>
      </trkpt>
      <trkpt lat="45.60964" lon="6.26913">
        <ele>408.6</ele>
        <time>2022-07-17T04:00:06Z</time>
      </trkpt>
      <trkpt lat="45.60962" lon="6.26907">
        <ele>408.6</ele>
        <time>2022-07-17T04:00:07Z</time>
      </trkpt>
      <trkpt lat="45.60959" lon="6.269">
        <ele>408.8</ele>
        <time>2022-07-17T04:00:08Z</time>
      </trkpt>
      <trkpt lat="45.60957" lon="6.26894">
        <ele>408.8</ele>
        <time>2022-07-17T04:00:09Z</time>
      </trkpt>
      <trkpt lat="45.60955" lon="6.26888">
        <ele>409.2</ele>
        <time>2022-07-17T04:00:10Z</time>
      </trkpt>
      <trkpt lat="45.60952" lon="6.26882">
        <ele>409.2</ele>
        <time>2022-07-17T04:00:11Z</time>
      </trkpt>
      <trkpt lat="45.6095" lon="6.26876">
        <ele>409.4</ele>
        <time>2022-07-17T04:00:12Z</time>
      </trkpt>
      <trkpt lat="45.60948" lon="6.26871">
        <ele>409.4</ele>
        <time>2022-07-17T04:00:13Z</time>
      </trkpt>
      <trkpt lat="45.60946" lon="6.26865">
        <ele>409.6</ele>
        <time>2022-07-17T04:00:14Z</time>
      </trkpt>
      <trkpt lat="45.60944" lon="6.26859">
        <ele>409.6</ele>
        <time>2022-07-17T04:00:15Z</time>
      </trkpt>
      <trkpt lat="45.60942" lon="6.26853">
        <ele>410</ele>
        <time>2022-07-17T04:00:16Z</time>
      </trkpt>
      <trkpt lat="45.60939" lon="6.26848">
        <ele>410</ele>
        <time>2022-07-17T04:00:17Z</time>
      </trkpt>
      <trkpt lat="45.60937" lon="6.26842">
        <ele>410.2</ele>
        <time>2022-07-17T04:00:18Z</time>
      </trkpt>
      <trkpt lat="45.60934" lon="6.26837">
        <ele>410.2</ele>
        <time>2022-07-17T04:00:19Z</time>
      </trkpt>
      <trkpt lat="45.60932" lon="6.26832">
        <ele>410.6</ele>
        <time>2022-07-17T04:00:20Z</time>
      </trkpt>
      <trkpt lat="45.60929" lon="6.26827">
        <ele>410.6</ele>
        <time>2022-07-17T04:00:21Z</time>
      </trkpt>
      <trkpt lat="45.60927" lon="6.26822">
        <ele>411</ele>
        <time>2022-07-17T04:00:22Z</time>
      </trkpt>
      <trkpt lat="45.60924" lon="6.26817">
        <ele>411</ele>
        <time>2022-07-17T04:00:23Z</time>
      </trkpt>
      <trkpt lat="45.60922" lon="6.26812">
        <ele>411.4</ele>
        <time>2022-07-17T04:00:24Z</time>
      </trkpt>
      <trkpt lat="45.60919" lon="6.26807">
        <ele>411.4</ele>
        <time>2022-07-17T04:00:25Z</time>
      </trkpt>
      <trkpt lat="45.60917" lon="6.26802">
        <ele>411.6</ele>
        <time>2022-07-17T04:00:26Z</time>
      </trkpt>
      <trkpt lat="45.60914" lon="6.26798">
        <ele>411.8</ele>
        <time>2022-07-17T04:00:27Z</time>
      </trkpt>
      <trkpt lat="45.60911" lon="6.26793">
        <ele>411.8</ele>
        <time>2022-07-17T04:00:28Z</time>
      </trkpt>
      <trkpt lat="45.60909" lon="6.26788">
        <ele>412.2</ele>
        <time>2022-07-17T04:00:29Z</time>
      </trkpt>
      <trkpt lat="45.60906" lon="6.26784">
        <ele>412.2</ele>
        <time>2022-07-17T04:00:30Z</time>
      </trkpt>
      <trkpt lat="45.60903" lon="6.26779">
        <ele>412.4</ele>
        <time>2022-07-17T04:00:31Z</time>
      </trkpt>
      <trkpt lat="45.60901" lon="6.26774">
        <ele>412.4</ele>
        <time>2022-07-17T04:00:32Z</time>
      </trkpt>
      <trkpt lat="45.60898" lon="6.26769">
        <ele>412.6</ele>
        <time>2022-07-17T04:00:33Z</time>
      </trkpt>
      <trkpt lat="45.60895" lon="6.26764">
        <ele>412.6</ele>
        <time>2022-07-17T04:00:34Z</time>
      </trkpt>
      <trkpt lat="45.60893" lon="6.26759">
        <ele>413.2</ele>
        <time>2022-07-17T04:00:35Z</time>
      </trkpt>
      <trkpt lat="45.6089" lon="6.26754">
        <ele>413.2</ele>
        <time>2022-07-17T04:00:36Z</time>
      </trkpt>
      <trkpt lat="45.60887" lon="6.26749">
        <ele>413.4</ele>
        <time>2022-07-17T04:00:37Z</time>
      </trkpt>
      <trkpt lat="45.60884" lon="6.26744">
        <ele>413.4</ele>
        <time>2022-07-17T04:00:38Z</time>
      </trkpt>
      <trkpt lat="45.60881" lon="6.26739">
        <ele>413.8</ele>
        <time>2022-07-17T04:00:39Z</time>
      </trkpt>
      <trkpt lat="45.60878" lon="6.26734">
        <ele>413.8</ele>
        <time>2022-07-17T04:00:40Z</time>
      </trkpt>
      <trkpt lat="45.60876" lon="6.2673">
        <ele>414.2</ele>
        <time>2022-07-17T04:00:41Z</time>
      </trkpt>
      <trkpt lat="45.60873" lon="6.26725">
        <ele>414.2</ele>
        <time>2022-07-17T04:00:42Z</time>
      </trkpt>
      <trkpt lat="45.60871" lon="6.26719">
        <ele>414.6</ele>
        <time>2022-07-17T04:00:43Z</time>
      </trkpt>
      <trkpt lat="45.60868" lon="6.26714">
        <ele>414.8</ele>
        <time>2022-07-17T04:00:44Z</time>
      </trkpt>
      <trkpt lat="45.60866" lon="6.26709">
        <ele>414.8</ele>
        <time>2022-07-17T04:00:45Z</time>
      </trkpt>
      <trkpt lat="45.60863" lon="6.26704">
        <ele>415</ele>
        <time>2022-07-17T04:00:46Z</time>
      </trkpt>
      <trkpt lat="45.60861" lon="6.26699">
        <ele>415</ele>
        <time>2022-07-17T04:00:47Z</time>
      </trkpt>
      <trkpt lat="45.60858" lon="6.26694">
        <ele>415.4</ele>
        <time>2022-07-17T04:00:48Z</time>
      </trkpt>
      <trkpt lat="45.60856" lon="6.26689">
        <ele>415.4</ele>
        <time>2022-07-17T04:00:49Z</time>
      </trkpt>
      <trkpt lat="45.60853" lon="6.26684">
        <ele>415.6</ele>
        <time>2022-07-17T04:00:50Z</time>
      </trkpt>
      <trkpt lat="45.60851" lon="6.26678">
        <ele>415.6</ele>
        <time>2022-07-17T04:00:51Z</time>
      </trkpt>
      <trkpt lat="45.60848" lon="6.26673">
        <ele>416</ele>
        <time>2022-07-17T04:00:52Z</time>
      </trkpt>
      <trkpt lat="45.60845" lon="6.26668">
        <ele>416</ele>
        <time>2022-07-17T04:00:53Z</time>
      </trkpt>
      <trkpt lat="45.60843" lon="6.26662">
        <ele>416.2</ele>
        <time>2022-07-17T04:00:54Z</time>
      </trkpt>
      <trkpt lat="45.6084" lon="6.26656">
        <ele>416.6</ele>
        <time>2022-07-17T04:00:55Z</time>
      </trkpt>
      <trkpt lat="45.60838" lon="6.26651">
        <ele>416.8</ele>
        <time>2022-07-17T04:00:56Z</time>
      </trkpt>
      <trkpt lat="45.60836" lon="6.26645">
        <ele>417</ele>
        <time>2022-07-17T04:00:57Z</time>
      </trkpt>
      <trkpt lat="45.60833" lon="6.2664">
        <ele>417</ele>
        <time>2022-07-17T04:00:58Z</time>
      </trkpt>
      <trkpt lat="45.60831" lon="6.26635">
        <ele>417.4</ele>
        <time>2022-07-17T04:00:59Z</time>
      </trkpt>
      <trkpt lat="45.60829" lon="6.2663">
        <ele>417.4</ele>
        <time>2022-07-17T04:01:00Z</time>
      </trkpt>
      <trkpt lat="45.60827" lon="6.26625">
        <ele>417.8</ele>
        <time>2022-07-17T04:01:01Z</time>
      </trkpt>
      <trkpt lat="45.60825" lon="6.26619">
        <ele>417.8</ele>
        <time>2022-07-17T04:01:02Z</time>
      </trkpt>
      <trkpt lat="45.60823" lon="6.26614">
        <ele>418.2</ele>
        <time>2022-07-17T04:01:03Z</time>
      </trkpt>
      <trkpt lat="45.60822" lon="6.26609">
        <ele>418.2</ele>
        <time>2022-07-17T04:01:04Z</time>
      </trkpt>
      <trkpt lat="45.6082" lon="6.26604">
        <ele>418.4</ele>
        <time>2022-07-17T04:01:05Z</time>
      </trkpt>
      <trkpt lat="45.60818" lon="6.26598">
        <ele>418.6</ele>
        <time>2022-07-17T04:01:06Z</time>
      </trkpt>
      <trkpt lat="45.60816" lon="6.26593">
        <ele>418.6</ele>
        <time>2022-07-17T04:01:07Z</time>
      </trkpt>
      <trkpt lat="45.60814" lon="6.26588">
        <ele>419</ele>
        <time>2022-07-17T04:01:08Z</time>
      </trkpt>
      <trkpt lat="45.60812" lon="6.26583">
        <ele>419</ele>
        <time>2022-07-17T04:01:09Z</time>
      </trkpt>
      <trkpt lat="45.60809" lon="6.26578">
        <ele>419.2</ele>
        <time>2022-07-17T04:01:10Z</time>
      </trkpt>
      <trkpt lat="45.60807" lon="6.26573">
        <ele>419.2</ele>
        <time>2022-07-17T04:01:11Z</time>
      </trkpt>
      <trkpt lat="45.60805" lon="6.26568">
        <ele>419.6</ele>
        <time>2022-07-17T04:01:12Z</time>
      </trkpt>
      <trkpt lat="45.60803" lon="6.26563">
        <ele>420</ele>
        <time>2022-07-17T04:01:13Z</time>
      </trkpt>
      <trkpt lat="45.60801" lon="6.26558">
        <ele>420.2</ele>
        <time>2022-07-17T04:01:14Z</time>
      </trkpt>
      <trkpt lat="45.60799" lon="6.26553">
        <ele>420.4</ele>
        <time>2022-07-17T04:01:15Z</time>
      </trkpt>
      <trkpt lat="45.60797" lon="6.26549">
        <ele>420.8</ele>
        <time>2022-07-17T04:01:16Z</time>
      </trkpt>
      <trkpt lat="45.60795" lon="6.26545">
        <ele>421</ele>
        <time>2022-07-17T04:01:17Z</time>
      </trkpt>
      <trkpt lat="45.60793" lon="6.2654">
        <ele>421.4</ele>
        <time>2022-07-17T04:01:18Z</time>
      </trkpt>
      <trkpt lat="45.60791" lon="6.26536">
        <ele>421.6</ele>
        <time>2022-07-17T04:01:19Z</time>
      </trkpt>
      <trkpt lat="45.60789" lon="6.26531">
        <ele>421.8</ele>
        <time>2022-07-17T04:01:20Z</time>
      </trkpt>
      <trkpt lat="45.60787" lon="6.26528">
        <ele>422.2</ele>
        <time>2022-07-17T04:01:21Z</time>
      </trkpt>
      <trkpt lat="45.60785" lon="6.26524">
        <ele>422.4</ele>
        <time>2022-07-17T04:01:22Z</time>
      </trkpt>
      <trkpt lat="45.60782" lon="6.2652">
        <ele>422.6</ele>
        <time>2022-07-17T04:01:23Z</time>
      </trkpt>
      <trkpt lat="45.6078" lon="6.26516">
        <ele>422.8</ele>
        <time>2022-07-17T04:01:24Z</time>
      </trkpt>
      <trkpt lat="45.60777" lon="6.26512">
        <ele>423</ele>
        <time>2022-07-17T04:01:25Z</time>
      </trkpt>
      <trkpt lat="45.60774" lon="6.26507">
        <ele>423.4</ele>
        <time>2022-07-17T04:01:26Z</time>
      </trkpt>
      <trkpt lat="45.60772" lon="6.26503">
        <ele>423.4</ele>
        <time>2022-07-17T04:01:27Z</time>
      </trkpt>
      <trkpt lat="45.60769" lon="6.26499">
        <ele>423.8</ele>
        <time>2022-07-17T04:01:28Z</time>
      </trkpt>
      <trkpt lat="45.60767" lon="6.26495">
        <ele>424</ele>
        <time>2022-07-17T04:01:29Z</time>
      </trkpt>
      <trkpt lat="45.60764" lon="6.26491">
        <ele>424.2</ele>
        <time>2022-07-17T04:01:30Z</time>
      </trkpt>
      <trkpt lat="45.60762" lon="6.26487">
        <ele>424.6</ele>
        <time>2022-07-17T04:01:31Z</time>
      </trkpt>
      <trkpt lat="45.60759" lon="6.26483">
        <ele>424.6</ele>
        <time>2022-07-17T04:01:32Z</time>
      </trkpt>
      <trkpt lat="45.60757" lon="6.26479">
        <ele>424.8</ele>
        <time>2022-07-17T04:01:33Z</time>
      </trkpt>
      <trkpt lat="45.60754" lon="6.26475">
        <ele>424.8</ele>
        <time>2022-07-17T04:01:34Z</time>
      </trkpt>
      <trkpt lat="45.60752" lon="6.26471">
        <ele>425.2</ele>
        <time>2022-07-17T04:01:35Z</time>
      </trkpt>
      <trkpt lat="45.6075" lon="6.26467">
        <ele>425.2</ele>
        <time>2022-07-17T04:01:36Z</time>
      </trkpt>
      <trkpt lat="45.60747" lon="6.26462">
        <ele>425.4</ele>
        <time>2022-07-17T04:01:37Z</time>
      </trkpt>
      <trkpt lat="45.60745" lon="6.26458">
        <ele>425.4</ele>
        <time>2022-07-17T04:01:38Z</time>
      </trkpt>
      <trkpt lat="45.60742" lon="6.26453">
        <ele>425.4</ele>
        <time>2022-07-17T04:01:39Z</time>
      </trkpt>
      <trkpt lat="45.60739" lon="6.26448">
        <ele>425.4</ele>
        <time>2022-07-17T04:01:40Z</time>
      </trkpt>
      <trkpt lat="45.60737" lon="6.26443">
        <ele>425.4</ele>
        <time>2022-07-17T04:01:41Z</time>
      </trkpt>
      <trkpt lat="45.60733" lon="6.26438">
        <ele>425.4</ele>
        <time>2022-07-17T04:01:42Z</time>
      </trkpt>
      <trkpt lat="45.6073" lon="6.26433">
        <ele>425.4</ele>
        <time>2022-07-17T04:01:43Z</time>
      </trkpt>
      <trkpt lat="45.60727" lon="6.26427">
        <ele>425.2</ele>
        <time>2022-07-17T04:01:44Z</time>
      </trkpt>
      <trkpt lat="45.60724" lon="6.26422">
        <ele>425.2</ele>
        <time>2022-07-17T04:01:45Z</time>
      </trkpt>
      <trkpt lat="45.6072" lon="6.26416">
        <ele>425.2</ele>
        <time>2022-07-17T04:01:46Z</time>
      </trkpt>
      <trkpt lat="45.60717" lon="6.2641">
        <ele>424.8</ele>
        <time>2022-07-17T04:01:47Z</time>
      </trkpt>
      <trkpt lat="45.60713" lon="6.26404">
        <ele>424.8</ele>
        <time>2022-07-17T04:01:48Z</time>
      </trkpt>
      <trkpt lat="45.60709" lon="6.26398">
        <ele>424.6</ele>
        <time>2022-07-17T04:01:49Z</time>
      </trkpt>
      <trkpt lat="45.60705" lon="6.26392">
        <ele>424.6</ele>
        <time>2022-07-17T04:01:50Z</time>
      </trkpt>
      <trkpt lat="45.60702" lon="6.26385">
        <ele>424.2</ele>
        <time>2022-07-17T04:01:51Z</time>
      </trkpt>
      <trkpt lat="45.60698" lon="6.26379">
        <ele>424.2</ele>
        <time>2022-07-17T04:01:52Z</time>
      </trkpt>
      <trkpt lat="45.60694" lon="6.26372">
        <ele>423.8</ele>
        <time>2022-07-17T04:01:53Z</time>
      </trkpt>
      <trkpt lat="45.60691" lon="6.26365">
        <ele>423.8</ele>
        <time>2022-07-17T04:01:54Z</time>
      </trkpt>
      <trkpt lat="45.60687" lon="6.26357">
        <ele>423.6</ele>
        <time>2022-07-17T04:01:55Z</time>
      </trkpt>
      <trkpt lat="45.60684" lon="6.2635">
        <ele>423.6</ele>
        <time>2022-07-17T04:01:56Z</time>
      </trkpt>
      <trkpt lat="45.60681" lon="6.26341">
        <ele>423.2</ele>
        <time>2022-07-17T04:01:57Z</time>
      </trkpt>
      <trkpt lat="45.60678" lon="6.26333">
        <ele>423</ele>
        <time>2022-07-17T04:01:58Z</time>
      </trkpt>
      <trkpt lat="45.60674" lon="6.26324">
        <ele>422.6</ele>
        <time>2022-07-17T04:01:59Z</time>
      </trkpt>
      <trkpt lat="45.60671" lon="6.26315">
        <ele>422.2</ele>
        <time>2022-07-17T04:02:00Z</time>
      </trkpt>
      <trkpt lat="45.60667" lon="6.26306">
        <ele>422</ele>
        <time>2022-07-17T04:02:01Z</time>
      </trkpt>
      <trkpt lat="45.60663" lon="6.26297">
        <ele>421.6</ele>
        <time>2022-07-17T04:02:02Z</time>
      </trkpt>
      <trkpt lat="45.60659" lon="6.26287">
        <ele>421.2</ele>
        <time>2022-07-17T04:02:03Z</time>
      </trkpt>
      <trkpt lat="45.60654" lon="6.26277">
        <ele>420.8</ele>
        <time>2022-07-17T04:02:04Z</time>
      </trkpt>
      <trkpt lat="45.6065" lon="6.26267">
        <ele>420.2</ele>
        <time>2022-07-17T04:02:05Z</time>
      </trkpt>
      <trkpt lat="45.60645" lon="6.26257">
        <ele>419.8</ele>
        <time>2022-07-17T04:02:06Z</time>
      </trkpt>
      <trkpt lat="45.60641" lon="6.26247">
        <ele>419.4</ele>
        <time>2022-07-17T04:02:07Z</time>
      </trkpt>
      <trkpt lat="45.60636" lon="6.26237">
        <ele>419</ele>
        <time>2022-07-17T04:02:08Z</time>
      </trkpt>
      <trkpt lat="45.60632" lon="6.26226">
        <ele>418.4</ele>
        <time>2022-07-17T04:02:09Z</time>
      </trkpt>
      <trkpt lat="45.60627" lon="6.26214">
        <ele>417.8</ele>
        <time>2022-07-17T04:02:10Z</time>
      </trkpt>
      <trkpt lat="45.60621" lon="6.26201">
        <ele>417.4</ele>
        <time>2022-07-17T04:02:11Z</time>
      </trkpt>
      <trkpt lat="45.60616" lon="6.26188">
        <ele>416.8</ele>
        <time>2022-07-17T04:02:12Z</time>
      </trkpt>
      <trkpt lat="45.60611" lon="6.26175">
        <ele>416.2</ele>
        <time>2022-07-17T04:02:13Z</time>
      </trkpt>
      <trkpt lat="45.60606" lon="6.26164">
        <ele>415.6</ele>
        <time>2022-07-17T04:02:14Z</time>
      </trkpt>
      <trkpt lat="45.60601" lon="6.26152">
        <ele>414.8</ele>
        <time>2022-07-17T04:02:15Z</time>
      </trkpt>
      <trkpt lat="45.60594" lon="6.26141">
        <ele>414.2</ele>
        <time>2022-07-17T04:02:16Z</time>
      </trkpt>
      <trkpt lat="45.60588" lon="6.26129">
        <ele>413.4</ele>
        <time>2022-07-17T04:02:17Z</time>
      </trkpt>
      <trkpt lat="45.60582" lon="6.26117">
        <ele>412.6</ele>
        <time>2022-07-17T04:02:18Z</time>
      </trkpt>
      <trkpt lat="45.60577" lon="6.26106">
        <ele>411.8</ele>
        <time>2022-07-17T04:02:19Z</time>
      </trkpt>
      <trkpt lat="45.60573" lon="6.26093">
        <ele>411.2</ele>
        <time>2022-07-17T04:02:20Z</time>
      </trkpt>
      <trkpt lat="45.60568" lon="6.26081">
        <ele>410.4</ele>
        <time>2022-07-17T04:02:21Z</time>
      </trkpt>
      <trkpt lat="45.6056" lon="6.2607">
        <ele>409.6</ele>
        <time>2022-07-17T04:02:22Z</time>
      </trkpt>
      <trkpt lat="45.60553" lon="6.2606">
        <ele>408.8</ele>
        <time>2022-07-17T04:02:23Z</time>
      </trkpt>
      <trkpt lat="45.60544" lon="6.26049">
        <ele>408</ele>
        <time>2022-07-17T04:02:24Z</time>
      </trkpt>
      <trkpt lat="45.60536" lon="6.26038">
        <ele>407.2</ele>
        <time>2022-07-17T04:02:25Z</time>
      </trkpt>
      <trkpt lat="45.6053" lon="6.26026">
        <ele>406.2</ele>
        <time>2022-07-17T04:02:26Z</time>
      </trkpt>
      <trkpt lat="45.60524" lon="6.26013">
        <ele>405.4</ele>
        <time>2022-07-17T04:02:27Z</time>
      </trkpt>
      <trkpt lat="45.60518" lon="6.26">
        <ele>404.6</ele>
        <time>2022-07-17T04:02:28Z</time>
      </trkpt>
      <trkpt lat="45.60512" lon="6.25989">
        <ele>403.8</ele>
        <time>2022-07-17T04:02:29Z</time>
      </trkpt>
      <trkpt lat="45.60506" lon="6.25977">
        <ele>403</ele>
        <time>2022-07-17T04:02:30Z</time>
      </trkpt>
      <trkpt lat="45.60502" lon="6.25966">
        <ele>402.4</ele>
        <time>2022-07-17T04:02:31Z</time>
      </trkpt>
      <trkpt lat="45.605" lon="6.25953">
        <ele>401.8</ele>
        <time>2022-07-17T04:02:32Z</time>
      </trkpt>
      <trkpt lat="45.60501" lon="6.2594">
        <ele>401.2</ele>
        <time>2022-07-17T04:02:33Z</time>
      </trkpt>
      <trkpt lat="45.60503" lon="6.25929">
        <ele>400.4</ele>
        <time>2022-07-17T04:02:34Z</time>
      </trkpt>
      <trkpt lat="45.60504" lon="6.25917">
        <ele>400</ele>
        <time>2022-07-17T04:02:35Z</time>
      </trkpt>
      <trkpt lat="45.60503" lon="6.25906">
        <ele>399.4</ele>
        <time>2022-07-17T04:02:36Z</time>
      </trkpt>
      <trkpt lat="45.605" lon="6.25895">
        <ele>399</ele>
        <time>2022-07-17T04:02:37Z</time>
      </trkpt>
      <trkpt lat="45.60495" lon="6.25884">
        <ele>398.4</ele>
        <time>2022-07-17T04:02:38Z</time>
      </trkpt>
      <trkpt lat="45.6049" lon="6.25873">
        <ele>397.8</ele>
        <time>2022-07-17T04:02:39Z</time>
      </trkpt>
      <trkpt lat="45.60483" lon="6.25861">
        <ele>397.2</ele>
        <time>2022-07-17T04:02:40Z</time>
      </trkpt>
      <trkpt lat="45.60479" lon="6.25848">
        <ele>396.6</ele>
        <time>2022-07-17T04:02:41Z</time>
      </trkpt>
      <trkpt lat="45.60475" lon="6.25834">
        <ele>395.6</ele>
        <time>2022-07-17T04:02:42Z</time>
      </trkpt>
      <trkpt lat="45.60471" lon="6.2582">
        <ele>394.8</ele>
        <time>2022-07-17T04:02:43Z</time>
      </trkpt>
      <trkpt lat="45.60465" lon="6.25807">
        <ele>393.8</ele>
        <time>2022-07-17T04:02:44Z</time>
      </trkpt>
      <trkpt lat="45.60458" lon="6.25795">
        <ele>393</ele>
        <time>2022-07-17T04:02:45Z</time>
      </trkpt>
      <trkpt lat="45.60449" lon="6.25784">
        <ele>392.4</ele>
        <time>2022-07-17T04:02:46Z</time>
      </trkpt>
      <trkpt lat="45.6044" lon="6.25775">
        <ele>391.4</ele>
        <time>2022-07-17T04:02:47Z</time>
      </trkpt>
      <trkpt lat="45.6043" lon="6.25769">
        <ele>390.6</ele>
        <time>2022-07-17T04:02:48Z</time>
      </trkpt>
      <trkpt lat="45.6042" lon="6.25764">
        <ele>389.6</ele>
        <time>2022-07-17T04:02:49Z</time>
      </trkpt>
      <trkpt lat="45.60409" lon="6.2576">
        <ele>388.8</ele>
        <time>2022-07-17T04:02:50Z</time>
      </trkpt>
      <trkpt lat="45.60399" lon="6.25756">
        <ele>387.8</ele>
        <time>2022-07-17T04:02:51Z</time>
      </trkpt>
      <trkpt lat="45.60388" lon="6.25752">
        <ele>386.8</ele>
        <time>2022-07-17T04:02:52Z</time>
      </trkpt>
      <trkpt lat="45.60378" lon="6.25746">
        <ele>385.8</ele>
        <time>2022-07-17T04:02:53Z</time>
      </trkpt>
      <trkpt lat="45.60367" lon="6.25739">
        <ele>385.2</ele>
        <time>2022-07-17T04:02:54Z</time>
      </trkpt>
      <trkpt lat="45.60358" lon="6.25732">
        <ele>384.2</ele>
        <time>2022-07-17T04:02:55Z</time>
      </trkpt>
      <trkpt lat="45.60349" lon="6.25725">
        <ele>383.4</ele>
        <time>2022-07-17T04:02:56Z</time>
      </trkpt>
      <trkpt lat="45.60342" lon="6.25719">
        <ele>382.6</ele>
        <time>2022-07-17T04:02:57Z</time>
      </trkpt>
      <trkpt lat="45.60335" lon="6.25712">
        <ele>381.8</ele>
        <time>2022-07-17T04:02:58Z</time>
      </trkpt>
      <trkpt lat="45.6033" lon="6.25704">
        <ele>381.2</ele>
        <time>2022-07-17T04:02:59Z</time>
      </trkpt>
      <trkpt lat="45.60326" lon="6.25695">
        <ele>380.4</ele>
        <time>2022-07-17T04:03:00Z</time>
      </trkpt>
      <trkpt lat="45.60323" lon="6.25685">
        <ele>379.8</ele>
        <time>2022-07-17T04:03:01Z</time>
      </trkpt>
      <trkpt lat="45.60323" lon="6.25674">
        <ele>379.4</ele>
        <time>2022-07-17T04:03:02Z</time>
      </trkpt>
      <trkpt lat="45.60324" lon="6.25662">
        <ele>378.8</ele>
        <time>2022-07-17T04:03:03Z</time>
      </trkpt>
      <trkpt lat="45.60324" lon="6.2565">
        <ele>378.4</ele>
        <time>2022-07-17T04:03:04Z</time>
      </trkpt>
      <trkpt lat="45.60323" lon="6.25638">
        <ele>377.8</ele>
        <time>2022-07-17T04:03:05Z</time>
      </trkpt>
      <trkpt lat="45.6032" lon="6.25627">
        <ele>377.2</ele>
        <time>2022-07-17T04:03:06Z</time>
      </trkpt>
      <trkpt lat="45.60317" lon="6.25615">
        <ele>376.4</ele>
        <time>2022-07-17T04:03:07Z</time>
      </trkpt>
      <trkpt lat="45.60314" lon="6.25602">
        <ele>375.6</ele>
        <time>2022-07-17T04:03:08Z</time>
      </trkpt>
      <trkpt lat="45.6031" lon="6.2559">
        <ele>374.8</ele>
        <time>2022-07-17T04:03:09Z</time>
      </trkpt>
      <trkpt lat="45.60306" lon="6.25578">
        <ele>374.2</ele>
        <time>2022-07-17T04:03:10Z</time>
      </trkpt>
      <trkpt lat="45.60302" lon="6.25567">
        <ele>373.4</ele>
        <time>2022-07-17T04:03:11Z</time>
      </trkpt>
      <trkpt lat="45.60299" lon="6.25556">
        <ele>372.6</ele>
        <time>2022-07-17T04:03:12Z</time>
      </trkpt>
      <trkpt lat="45.60294" lon="6.25545">
        <ele>371.8</ele>
        <time>2022-07-17T04:03:13Z</time>
      </trkpt>
      <trkpt lat="45.60289" lon="6.25535">
        <ele>371</ele>
        <time>2022-07-17T04:03:14Z</time>
      </trkpt>
      <trkpt lat="45.60284" lon="6.25526">
        <ele>370.4</ele>
        <time>2022-07-17T04:03:15Z</time>
      </trkpt>
      <trkpt lat="45.60279" lon="6.25519">
        <ele>369.6</ele>
        <time>2022-07-17T04:03:16Z</time>
      </trkpt>
      <trkpt lat="45.60275" lon="6.25513">
        <ele>368.8</ele>
        <time>2022-07-17T04:03:17Z</time>
      </trkpt>
      <trkpt lat="45.60271" lon="6.25507">
        <ele>368.2</ele>
        <time>2022-07-17T04:03:18Z</time>
      </trkpt>
      <trkpt lat="45.6026" lon="6.255">
        <ele>367.6</ele>
        <time>2022-07-17T04:03:19Z</time>
      </trkpt>
      <trkpt lat="45.60254" lon="6.25497">
        <ele>367.2</ele>
        <time>2022-07-17T04:03:20Z</time>
      </trkpt>
      <trkpt lat="45.60247" lon="6.25494">
        <ele>366.4</ele>
        <time>2022-07-17T04:03:21Z</time>
      </trkpt>
      <trkpt lat="45.60241" lon="6.2549">
        <ele>366</ele>
        <time>2022-07-17T04:03:22Z</time>
      </trkpt>
      <trkpt lat="45.60234" lon="6.25484">
        <ele>365.4</ele>
        <time>2022-07-17T04:03:23Z</time>
      </trkpt>
      <trkpt lat="45.60227" lon="6.2548">
        <ele>364.6</ele>
        <time>2022-07-17T04:03:24Z</time>
      </trkpt>
      <trkpt lat="45.6022" lon="6.25474">
        <ele>364</ele>
        <time>2022-07-17T04:03:25Z</time>
      </trkpt>
      <trkpt lat="45.60212" lon="6.25466">
        <ele>363.4</ele>
        <time>2022-07-17T04:03:26Z</time>
      </trkpt>
      <trkpt lat="45.60205" lon="6.25457">
        <ele>362.8</ele>
        <time>2022-07-17T04:03:27Z</time>
      </trkpt>
      <trkpt lat="45.60199" lon="6.25448">
        <ele>362.2</ele>
        <time>2022-07-17T04:03:28Z</time>
      </trkpt>
      <trkpt lat="45.60194" lon="6.2544">
        <ele>361.6</ele>
        <time>2022-07-17T04:03:29Z</time>
      </trkpt>
      <trkpt lat="45.60188" lon="6.25432">
        <ele>361</ele>
        <time>2022-07-17T04:03:30Z</time>
      </trkpt>
      <trkpt lat="45.60182" lon="6.25424">
        <ele>360.4</ele>
        <time>2022-07-17T04:03:31Z</time>
      </trkpt>
      <trkpt lat="45.60177" lon="6.25418">
        <ele>359.6</ele>
        <time>2022-07-17T04:03:32Z</time>
      </trkpt>
      <trkpt lat="45.60171" lon="6.25413">
        <ele>359</ele>
        <time>2022-07-17T04:03:33Z</time>
      </trkpt>
      <trkpt lat="45.60166" lon="6.25408">
        <ele>358.2</ele>
        <time>2022-07-17T04:03:34Z</time>
      </trkpt>
      <trkpt lat="45.60162" lon="6.25403">
        <ele>357.6</ele>
        <time>2022-07-17T04:03:35Z</time>
      </trkpt>
      <trkpt lat="45.60158" lon="6.25399">
        <ele>357</ele>
        <time>2022-07-17T04:03:36Z</time>
      </trkpt>
      <trkpt lat="45.60157" lon="6.25398">
        <ele>356.6</ele>
        <time>2022-07-17T04:03:37Z</time>
      </trkpt>
      <trkpt lat="45.60154" lon="6.254">
        <ele>356.2</ele>
        <time>2022-07-17T04:03:38Z</time>
      </trkpt>
      <trkpt lat="45.60151" lon="6.25404">
        <ele>355.8</ele>
        <time>2022-07-17T04:03:39Z</time>
      </trkpt>
      <trkpt lat="45.60149" lon="6.2541">
        <ele>355.6</ele>
        <time>2022-07-17T04:03:40Z</time>
      </trkpt>
      <trkpt lat="45.60146" lon="6.25416">
        <ele>355.6</ele>
        <time>2022-07-17T04:03:41Z</time>
      </trkpt>
      <trkpt lat="45.60144" lon="6.25422">
        <ele>355.4</ele>
        <time>2022-07-17T04:03:42Z</time>
      </trkpt>
      <trkpt lat="45.60142" lon="6.25427">
        <ele>355.4</ele>
        <time>2022-07-17T04:03:43Z</time>
      </trkpt>
      <trkpt lat="45.60139" lon="6.25432">
        <ele>355.4</ele>
        <time>2022-07-17T04:03:44Z</time>
      </trkpt>
      <trkpt lat="45.60136" lon="6.25437">
        <ele>355.4</ele>
        <time>2022-07-17T04:03:45Z</time>
      </trkpt>
      <trkpt lat="45.60133" lon="6.25443">
        <ele>355.4</ele>
        <time>2022-07-17T04:03:46Z</time>
      </trkpt>
      <trkpt lat="45.6013" lon="6.25448">
        <ele>355.4</ele>
        <time>2022-07-17T04:03:47Z</time>
      </trkpt>
      <trkpt lat="45.60127" lon="6.25455">
        <ele>355.4</ele>
        <time>2022-07-17T04:03:48Z</time>
      </trkpt>
      <trkpt lat="45.60124" lon="6.25461">
        <ele>355.4</ele>
        <time>2022-07-17T04:03:49Z</time>
      </trkpt>
      <trkpt lat="45.60122" lon="6.25467">
        <ele>355.4</ele>
        <time>2022-07-17T04:03:50Z</time>
      </trkpt>
      <trkpt lat="45.60119" lon="6.25472">
        <ele>355.4</ele>
        <time>2022-07-17T04:03:51Z</time>
      </trkpt>
      <trkpt lat="45.60115" lon="6.25478">
        <ele>355.4</ele>
        <time>2022-07-17T04:03:52Z</time>
      </trkpt>
      <trkpt lat="45.60112" lon="6.25483">
        <ele>355.4</ele>
        <time>2022-07-17T04:03:53Z</time>
      </trkpt>
      <trkpt lat="45.60108" lon="6.25489">
        <ele>355.4</ele>
        <time>2022-07-17T04:03:54Z</time>
      </trkpt>
      <trkpt lat="45.60104" lon="6.25495">
        <ele>355.4</ele>
        <time>2022-07-17T04:03:55Z</time>
      </trkpt>
      <trkpt lat="45.601" lon="6.25502">
        <ele>355.4</ele>
        <time>2022-07-17T04:03:56Z</time>
      </trkpt>
      <trkpt lat="45.60096" lon="6.25508">
        <ele>355.4</ele>
        <time>2022-07-17T04:03:57Z</time>
      </trkpt>
      <trkpt lat="45.60092" lon="6.25516">
        <ele>355</ele>
        <time>2022-07-17T04:03:58Z</time>
      </trkpt>
      <trkpt lat="45.60089" lon="6.25525">
        <ele>354.8</ele>
        <time>2022-07-17T04:03:59Z</time>
      </trkpt>
      <trkpt lat="45.60085" lon="6.25533">
        <ele>354.6</ele>
        <time>2022-07-17T04:04:00Z</time>
      </trkpt>
      <trkpt lat="45.60082" lon="6.25541">
        <ele>354.4</ele>
        <time>2022-07-17T04:04:01Z</time>
      </trkpt>
      <trkpt lat="45.60079" lon="6.25549">
        <ele>354.2</ele>
        <time>2022-07-17T04:04:02Z</time>
      </trkpt>
      <trkpt lat="45.60074" lon="6.25556">
        <ele>354.2</ele>
        <time>2022-07-17T04:04:03Z</time>
      </trkpt>
      <trkpt lat="45.60068" lon="6.25562">
        <ele>353.8</ele>
        <time>2022-07-17T04:04:04Z</time>
      </trkpt>
      <trkpt lat="45.60062" lon="6.25568">
        <ele>353.6</ele>
        <time>2022-07-17T04:04:05Z</time>
      </trkpt>
      <trkpt lat="45.60056" lon="6.25574">
        <ele>353.2</ele>
        <time>2022-07-17T04:04:06Z</time>
      </trkpt>
      <trkpt lat="45.60049" lon="6.2558">
        <ele>352.8</ele>
        <time>2022-07-17T04:04:07Z</time>
      </trkpt>
      <trkpt lat="45.60042" lon="6.25587">
        <ele>352.2</ele>
        <time>2022-07-17T04:04:08Z</time>
      </trkpt>
      <trkpt lat="45.60035" lon="6.25593">
        <ele>351.8</ele>
        <time>2022-07-17T04:04:09Z</time>
      </trkpt>
      <trkpt lat="45.60027" lon="6.256">
        <ele>351.6</ele>
        <time>2022-07-17T04:04:10Z</time>
      </trkpt>
      <trkpt lat="45.6002" lon="6.25607">
        <ele>351.2</ele>
        <time>2022-07-17T04:04:11Z</time>
      </trkpt>
      <trkpt lat="45.60013" lon="6.25614">
        <ele>350.8</ele>
        <time>2022-07-17T04:04:12Z</time>
      </trkpt>
      <trkpt lat="45.60006" lon="6.25621">
        <ele>350.2</ele>
        <time>2022-07-17T04:04:13Z</time>
      </trkpt>
      <trkpt lat="45.59999" lon="6.25628">
        <ele>349.8</ele>
        <time>2022-07-17T04:04:14Z</time>
      </trkpt>
      <trkpt lat="45.59993" lon="6.25634">
        <ele>349.2</ele>
        <time>2022-07-17T04:04:15Z</time>
      </trkpt>
      <trkpt lat="45.59988" lon="6.2564">
        <ele>348.6</ele>
        <time>2022-07-17T04:04:16Z</time>
      </trkpt>
      <trkpt lat="45.59982" lon="6.25645">
        <ele>348.2</ele>
        <time>2022-07-17T04:04:17Z</time>
      </trkpt>
      <trkpt lat="45.59977" lon="6.2565">
        <ele>347.8</ele>
        <time>2022-07-17T04:04:18Z</time>
      </trkpt>
      <trkpt lat="45.59971" lon="6.25656">
        <ele>347.4</ele>
        <time>2022-07-17T04:04:19Z</time>
      </trkpt>
      <trkpt lat="45.59964" lon="6.25661">
        <ele>347</ele>
        <time>2022-07-17T04:04:20Z</time>
      </trkpt>
      <trkpt lat="45.59957" lon="6.25667">
        <ele>346.4</ele>
        <time>2022-07-17T04:04:21Z</time>
      </trkpt>
      <trkpt lat="45.5995" lon="6.25674">
        <ele>346</ele>
        <time>2022-07-17T04:04:22Z</time>
      </trkpt>
      <trkpt lat="45.59943" lon="6.2568">
        <ele>345.8</ele>
        <time>2022-07-17T04:04:23Z</time>
      </trkpt>
      <trkpt lat="45.59936" lon="6.25687">
        <ele>345.4</ele>
        <time>2022-07-17T04:04:24Z</time>
      </trkpt>
      <trkpt lat="45.59929" lon="6.25695">
        <ele>344.8</ele>
        <time>2022-07-17T04:04:25Z</time>
      </trkpt>
      <trkpt lat="45.59922" lon="6.25702">
        <ele>344.4</ele>
        <time>2022-07-17T04:04:26Z</time>
      </trkpt>
      <trkpt lat="45.59915" lon="6.2571">
        <ele>344</ele>
        <time>2022-07-17T04:04:27Z</time>
      </trkpt>
      <trkpt lat="45.59908" lon="6.25717">
        <ele>343.6</ele>
        <time>2022-07-17T04:04:28Z</time>
      </trkpt>
      <trkpt lat="45.59902" lon="6.25726">
        <ele>343</ele>
        <time>2022-07-17T04:04:29Z</time>
      </trkpt>
      <trkpt lat="45.59896" lon="6.25734">
        <ele>342.6</ele>
        <time>2022-07-17T04:04:30Z</time>
      </trkpt>
      <trkpt lat="45.59889" lon="6.25743">
        <ele>342</ele>
        <time>2022-07-17T04:04:31Z</time>
      </trkpt>
      <trkpt lat="45.59882" lon="6.25751">
        <ele>341.6</ele>
        <time>2022-07-17T04:04:32Z</time>
      </trkpt>
      <trkpt lat="45.59875" lon="6.25759">
        <ele>341.2</ele>
        <time>2022-07-17T04:04:33Z</time>
      </trkpt>
      <trkpt lat="45.59869" lon="6.25768">
        <ele>340.6</ele>
        <time>2022-07-17T04:04:34Z</time>
      </trkpt>
      <trkpt lat="45.59862" lon="6.25775">
        <ele>340</ele>
        <time>2022-07-17T04:04:35Z</time>
      </trkpt>
      <trkpt lat="45.59855" lon="6.2578">
        <ele>339.6</ele>
        <time>2022-07-17T04:04:36Z</time>
      </trkpt>
      <trkpt lat="45.59849" lon="6.25786">
        <ele>339</ele>
        <time>2022-07-17T04:04:37Z</time>
      </trkpt>
      <trkpt lat="45.59843" lon="6.25792">
        <ele>338.6</ele>
        <time>2022-07-17T04:04:38Z</time>
      </trkpt>
      <trkpt lat="45.59838" lon="6.25798">
        <ele>338.2</ele>
        <time>2022-07-17T04:04:39Z</time>
      </trkpt>
      <trkpt lat="45.59833" lon="6.25806">
        <ele>337.8</ele>
        <time>2022-07-17T04:04:40Z</time>
      </trkpt>
      <trkpt lat="45.59829" lon="6.25815">
        <ele>337.4</ele>
        <time>2022-07-17T04:04:41Z</time>
      </trkpt>
      <trkpt lat="45.59826" lon="6.25825">
        <ele>337</ele>
        <time>2022-07-17T04:04:42Z</time>
      </trkpt>
      <trkpt lat="45.59823" lon="6.25835">
        <ele>336.6</ele>
        <time>2022-07-17T04:04:43Z</time>
      </trkpt>
      <trkpt lat="45.5982" lon="6.25845">
        <ele>336.2</ele>
        <time>2022-07-17T04:04:44Z</time>
      </trkpt>
      <trkpt lat="45.59816" lon="6.25855">
        <ele>335.8</ele>
        <time>2022-07-17T04:04:45Z</time>
      </trkpt>
      <trkpt lat="45.5981" lon="6.25865">
        <ele>335.4</ele>
        <time>2022-07-17T04:04:46Z</time>
      </trkpt>
      <trkpt lat="45.59803" lon="6.25873">
        <ele>335</ele>
        <time>2022-07-17T04:04:47Z</time>
      </trkpt>
      <trkpt lat="45.59795" lon="6.25881">
        <ele>334.4</ele>
        <time>2022-07-17T04:04:48Z</time>
      </trkpt>
      <trkpt lat="45.59788" lon="6.25888">
        <ele>334</ele>
        <time>2022-07-17T04:04:49Z</time>
      </trkpt>
      <trkpt lat="45.59781" lon="6.25892">
        <ele>333.6</ele>
        <time>2022-07-17T04:04:50Z</time>
      </trkpt>
      <trkpt lat="45.59773" lon="6.25896">
        <ele>333.2</ele>
        <time>2022-07-17T04:04:51Z</time>
      </trkpt>
      <trkpt lat="45.59766" lon="6.25899">
        <ele>332.8</ele>
        <time>2022-07-17T04:04:52Z</time>
      </trkpt>
      <trkpt lat="45.59757" lon="6.25902">
        <ele>332.2</ele>
        <time>2022-07-17T04:04:53Z</time>
      </trkpt>
      <trkpt lat="45.59749" lon="6.25904">
        <ele>331.8</ele>
        <time>2022-07-17T04:04:54Z</time>
      </trkpt>
      <trkpt lat="45.5974" lon="6.25906">
        <ele>331.4</ele>
        <time>2022-07-17T04:04:55Z</time>
      </trkpt>
      <trkpt lat="45.59731" lon="6.25909">
        <ele>330.8</ele>
        <time>2022-07-17T04:04:56Z</time>
      </trkpt>
      <trkpt lat="45.59722" lon="6.25912">
        <ele>330.4</ele>
        <time>2022-07-17T04:04:57Z</time>
      </trkpt>
      <trkpt lat="45.59711" lon="6.25915">
        <ele>330</ele>
        <time>2022-07-17T04:04:58Z</time>
      </trkpt>
      <trkpt lat="45.59702" lon="6.25917">
        <ele>329.6</ele>
        <time>2022-07-17T04:04:59Z</time>
      </trkpt>
      <trkpt lat="45.59693" lon="6.25918">
        <ele>329.2</ele>
        <time>2022-07-17T04:05:00Z</time>
      </trkpt>
      <trkpt lat="45.59684" lon="6.25921">
        <ele>328.6</ele>
        <time>2022-07-17T04:05:01Z</time>
      </trkpt>
      <trkpt lat="45.59674" lon="6.25923">
        <ele>328.4</ele>
        <time>2022-07-17T04:05:02Z</time>
      </trkpt>
      <trkpt lat="45.59664" lon="6.25925">
        <ele>327.8</ele>
        <time>2022-07-17T04:05:03Z</time>
      </trkpt>
      <trkpt lat="45.59655" lon="6.25927">
        <ele>327.2</ele>
        <time>2022-07-17T04:05:04Z</time>
      </trkpt>
      <trkpt lat="45.59646" lon="6.25929">
        <ele>326.8</ele>
        <time>2022-07-17T04:05:05Z</time>
      </trkpt>
      <trkpt lat="45.59636" lon="6.25931">
        <ele>326.2</ele>
        <time>2022-07-17T04:05:06Z</time>
      </trkpt>
      <trkpt lat="45.59627" lon="6.25933">
        <ele>325.8</ele>
        <time>2022-07-17T04:05:07Z</time>
      </trkpt>
      <trkpt lat="45.59618" lon="6.25936">
        <ele>325.2</ele>
        <time>2022-07-17T04:05:08Z</time>
      </trkpt>
      <trkpt lat="45.59609" lon="6.25939">
        <ele>325</ele>
        <time>2022-07-17T04:05:09Z</time>
      </trkpt>
      <trkpt lat="45.596" lon="6.25944">
        <ele>324.8</ele>
        <time>2022-07-17T04:05:10Z</time>
      </trkpt>
      <trkpt lat="45.59592" lon="6.25951">
        <ele>324.2</ele>
        <time>2022-07-17T04:05:11Z</time>
      </trkpt>
      <trkpt lat="45.59585" lon="6.25956">
        <ele>323.8</ele>
        <time>2022-07-17T04:05:12Z</time>
      </trkpt>
      <trkpt lat="45.59578" lon="6.25961">
        <ele>323.2</ele>
        <time>2022-07-17T04:05:13Z</time>
      </trkpt>
      <trkpt lat="45.59571" lon="6.25965">
        <ele>322.8</ele>
        <time>2022-07-17T04:05:14Z</time>
      </trkpt>
      <trkpt lat="45.59564" lon="6.25969">
        <ele>322.2</ele>
        <time>2022-07-17T04:05:15Z</time>
      </trkpt>
      <trkpt lat="45.59558" lon="6.25973">
        <ele>321.8</ele>
        <time>2022-07-17T04:05:16Z</time>
      </trkpt>
      <trkpt lat="45.59551" lon="6.25978">
        <ele>321.4</ele>
        <time>2022-07-17T04:05:17Z</time>
      </trkpt>
      <trkpt lat="45.59544" lon="6.25983">
        <ele>320.8</ele>
        <time>2022-07-17T04:05:18Z</time>
      </trkpt>
      <trkpt lat="45.59537" lon="6.25989">
        <ele>320.4</ele>
        <time>2022-07-17T04:05:19Z</time>
      </trkpt>
      <trkpt lat="45.5953" lon="6.25996">
        <ele>320</ele>
        <time>2022-07-17T04:05:20Z</time>
      </trkpt>
      <trkpt lat="45.59523" lon="6.26004">
        <ele>319.6</ele>
        <time>2022-07-17T04:05:21Z</time>
      </trkpt>
      <trkpt lat="45.59515" lon="6.26011">
        <ele>319.2</ele>
        <time>2022-07-17T04:05:22Z</time>
      </trkpt>
      <trkpt lat="45.59508" lon="6.2602">
        <ele>318.6</ele>
        <time>2022-07-17T04:05:23Z</time>
      </trkpt>
      <trkpt lat="45.595" lon="6.26027">
        <ele>318.2</ele>
        <time>2022-07-17T04:05:24Z</time>
      </trkpt>
      <trkpt lat="45.59491" lon="6.26034">
        <ele>317.8</ele>
        <time>2022-07-17T04:05:25Z</time>
      </trkpt>
      <trkpt lat="45.59483" lon="6.26041">
        <ele>317.4</ele>
        <time>2022-07-17T04:05:26Z</time>
      </trkpt>
      <trkpt lat="45.59475" lon="6.26047">
        <ele>316.8</ele>
        <time>2022-07-17T04:05:27Z</time>
      </trkpt>
      <trkpt lat="45.59468" lon="6.26053">
        <ele>316.2</ele>
        <time>2022-07-17T04:05:28Z</time>
      </trkpt>
      <trkpt lat="45.59461" lon="6.26058">
        <ele>315.6</ele>
        <time>2022-07-17T04:05:29Z</time>
      </trkpt>
      <trkpt lat="45.59453" lon="6.26063">
        <ele>315.2</ele>
        <time>2022-07-17T04:05:30Z</time>
      </trkpt>
      <trkpt lat="45.59446" lon="6.26067">
        <ele>315</ele>
        <time>2022-07-17T04:05:31Z</time>
      </trkpt>
      <trkpt lat="45.59439" lon="6.26072">
        <ele>314.4</ele>
        <time>2022-07-17T04:05:32Z</time>
      </trkpt>
      <trkpt lat="45.59432" lon="6.26076">
        <ele>314.2</ele>
        <time>2022-07-17T04:05:33Z</time>
      </trkpt>
      <trkpt lat="45.59425" lon="6.2608">
        <ele>313.8</ele>
        <time>2022-07-17T04:05:34Z</time>
      </trkpt>
      <trkpt lat="45.59417" lon="6.26084">
        <ele>313.4</ele>
        <time>2022-07-17T04:05:35Z</time>
      </trkpt>
      <trkpt lat="45.5941" lon="6.26089">
        <ele>313.2</ele>
        <time>2022-07-17T04:05:36Z</time>
      </trkpt>
      <trkpt lat="45.59402" lon="6.26093">
        <ele>313</ele>
        <time>2022-07-17T04:05:37Z</time>
      </trkpt>
      <trkpt lat="45.59394" lon="6.26097">
        <ele>312.4</ele>
        <time>2022-07-17T04:05:38Z</time>
      </trkpt>
      <trkpt lat="45.59385" lon="6.26102">
        <ele>312.2</ele>
        <time>2022-07-17T04:05:39Z</time>
      </trkpt>
      <trkpt lat="45.59377" lon="6.26107">
        <ele>311.8</ele>
        <time>2022-07-17T04:05:40Z</time>
      </trkpt>
      <trkpt lat="45.59368" lon="6.26111">
        <ele>311.2</ele>
        <time>2022-07-17T04:05:41Z</time>
      </trkpt>
      <trkpt lat="45.5936" lon="6.26116">
        <ele>310.8</ele>
        <time>2022-07-17T04:05:42Z</time>
      </trkpt>
      <trkpt lat="45.59351" lon="6.26122">
        <ele>310.4</ele>
        <time>2022-07-17T04:05:43Z</time>
      </trkpt>
      <trkpt lat="45.59342" lon="6.26129">
        <ele>309.8</ele>
        <time>2022-07-17T04:05:44Z</time>
      </trkpt>
      <trkpt lat="45.59334" lon="6.26138">
        <ele>309.4</ele>
        <time>2022-07-17T04:05:45Z</time>
      </trkpt>
      <trkpt lat="45.59326" lon="6.26148">
        <ele>309</ele>
        <time>2022-07-17T04:05:46Z</time>
      </trkpt>
      <trkpt lat="45.5932" lon="6.26158">
        <ele>308.4</ele>
        <time>2022-07-17T04:05:47Z</time>
      </trkpt>
      <trkpt lat="45.59315" lon="6.26169">
        <ele>308</ele>
        <time>2022-07-17T04:05:48Z</time>
      </trkpt>
      <trkpt lat="45.59309" lon="6.2618">
        <ele>307.6</ele>
        <time>2022-07-17T04:05:49Z</time>
      </trkpt>
      <trkpt lat="45.59304" lon="6.26191">
        <ele>307.2</ele>
        <time>2022-07-17T04:05:50Z</time>
      </trkpt>
      <trkpt lat="45.59298" lon="6.26202">
        <ele>306.6</ele>
        <time>2022-07-17T04:05:51Z</time>
      </trkpt>
      <trkpt lat="45.59292" lon="6.26213">
        <ele>306.2</ele>
        <time>2022-07-17T04:05:52Z</time>
      </trkpt>
      <trkpt lat="45.59286" lon="6.26224">
        <ele>305.6</ele>
        <time>2022-07-17T04:05:53Z</time>
      </trkpt>
      <trkpt lat="45.5928" lon="6.26234">
        <ele>305.2</ele>
        <time>2022-07-17T04:05:54Z</time>
      </trkpt>
      <trkpt lat="45.59274" lon="6.26244">
        <ele>304.8</ele>
        <time>2022-07-17T04:05:55Z</time>
      </trkpt>
      <trkpt lat="45.59266" lon="6.26252">
        <ele>304.2</ele>
        <time>2022-07-17T04:05:56Z</time>
      </trkpt>
      <trkpt lat="45.59259" lon="6.2626">
        <ele>304</ele>
        <time>2022-07-17T04:05:57Z</time>
      </trkpt>
      <trkpt lat="45.5925" lon="6.26268">
        <ele>303.6</ele>
        <time>2022-07-17T04:05:58Z</time>
      </trkpt>
      <trkpt lat="45.59241" lon="6.26276">
        <ele>303.2</ele>
        <time>2022-07-17T04:05:59Z</time>
      </trkpt>
      <trkpt lat="45.59233" lon="6.26283">
        <ele>303.2</ele>
        <time>2022-07-17T04:06:00Z</time>
      </trkpt>
      <trkpt lat="45.59224" lon="6.2629">
        <ele>303</ele>
        <time>2022-07-17T04:06:01Z</time>
      </trkpt>
      <trkpt lat="45.59216" lon="6.26296">
        <ele>302.6</ele>
        <time>2022-07-17T04:06:02Z</time>
      </trkpt>
      <trkpt lat="45.59209" lon="6.26303">
        <ele>302.4</ele>
        <time>2022-07-17T04:06:03Z</time>
      </trkpt>
      <trkpt lat="45.59202" lon="6.26309">
        <ele>302.4</ele>
        <time>2022-07-17T04:06:04Z</time>
      </trkpt>
      <trkpt lat="45.59194" lon="6.26316">
        <ele>302</ele>
        <time>2022-07-17T04:06:05Z</time>
      </trkpt>
      <trkpt lat="45.59186" lon="6.26323">
        <ele>302</ele>
        <time>2022-07-17T04:06:06Z</time>
      </trkpt>
      <trkpt lat="45.59178" lon="6.2633">
        <ele>301.6</ele>
        <time>2022-07-17T04:06:07Z</time>
      </trkpt>
      <trkpt lat="45.5917" lon="6.26337">
        <ele>301.6</ele>
        <time>2022-07-17T04:06:08Z</time>
      </trkpt>
      <trkpt lat="45.59161" lon="6.26345">
        <ele>301.4</ele>
        <time>2022-07-17T04:06:09Z</time>
      </trkpt>
      <trkpt lat="45.59154" lon="6.26352">
        <ele>301.4</ele>
        <time>2022-07-17T04:06:10Z</time>
      </trkpt>
      <trkpt lat="45.59145" lon="6.2636">
        <ele>301.4</ele>
        <time>2022-07-17T04:06:11Z</time>
      </trkpt>
      <trkpt lat="45.59137" lon="6.26366">
        <ele>301.2</ele>
        <time>2022-07-17T04:06:12Z</time>
      </trkpt>
      <trkpt lat="45.59129" lon="6.26372">
        <ele>301.2</ele>
        <time>2022-07-17T04:06:13Z</time>
      </trkpt>
      <trkpt lat="45.59122" lon="6.26379">
        <ele>301.2</ele>
        <time>2022-07-17T04:06:14Z</time>
      </trkpt>
      <trkpt lat="45.59114" lon="6.26386">
        <ele>301.2</ele>
        <time>2022-07-17T04:06:15Z</time>
      </trkpt>
      <trkpt lat="45.59107" lon="6.26392">
        <ele>300.8</ele>
        <time>2022-07-17T04:06:16Z</time>
      </trkpt>
      <trkpt lat="45.59099" lon="6.26398">
        <ele>300.8</ele>
        <time>2022-07-17T04:06:17Z</time>
      </trkpt>
      <trkpt lat="45.59092" lon="6.26405">
        <ele>300.6</ele>
        <time>2022-07-17T04:06:18Z</time>
      </trkpt>
      <trkpt lat="45.59084" lon="6.26412">
        <ele>300.6</ele>
        <time>2022-07-17T04:06:19Z</time>
      </trkpt>
      <trkpt lat="45.59077" lon="6.26418">
        <ele>300.6</ele>
        <time>2022-07-17T04:06:20Z</time>
      </trkpt>
      <trkpt lat="45.5907" lon="6.26425">
        <ele>300.4</ele>
        <time>2022-07-17T04:06:21Z</time>
      </trkpt>
      <trkpt lat="45.59062" lon="6.26431">
        <ele>300.4</ele>
        <time>2022-07-17T04:06:22Z</time>
      </trkpt>
      <trkpt lat="45.59055" lon="6.26438">
        <ele>300.4</ele>
        <time>2022-07-17T04:06:23Z</time>
      </trkpt>
      <trkpt lat="45.59048" lon="6.26444">
        <ele>300.2</ele>
        <time>2022-07-17T04:06:24Z</time>
      </trkpt>
      <trkpt lat="45.59041" lon="6.26451">
        <ele>300.2</ele>
        <time>2022-07-17T04:06:25Z</time>
      </trkpt>
      <trkpt lat="45.59034" lon="6.26457">
        <ele>300.2</ele>
        <time>2022-07-17T04:06:26Z</time>
      </trkpt>
      <trkpt lat="45.59026" lon="6.26463">
        <ele>299.8</ele>
        <time>2022-07-17T04:06:27Z</time>
      </trkpt>
      <trkpt lat="45.59019" lon="6.2647">
        <ele>299.8</ele>
        <time>2022-07-17T04:06:28Z</time>
      </trkpt>
      <trkpt lat="45.59012" lon="6.26476">
        <ele>299.6</ele>
        <time>2022-07-17T04:06:29Z</time>
      </trkpt>
      <trkpt lat="45.59005" lon="6.26482">
        <ele>299.6</ele>
        <time>2022-07-17T04:06:30Z</time>
      </trkpt>
      <trkpt lat="45.58998" lon="6.26488">
        <ele>299.6</ele>
        <time>2022-07-17T04:06:31Z</time>
      </trkpt>
      <trkpt lat="45.58991" lon="6.26494">
        <ele>299.4</ele>
        <time>2022-07-17T04:06:32Z</time>
      </trkpt>
      <trkpt lat="45.58984" lon="6.265">
        <ele>299.4</ele>
        <time>2022-07-17T04:06:33Z</time>
      </trkpt>
      <trkpt lat="45.58977" lon="6.26506">
        <ele>299.4</ele>
        <time>2022-07-17T04:06:34Z</time>
      </trkpt>
      <trkpt lat="45.58971" lon="6.26512">
        <ele>299.4</ele>
        <time>2022-07-17T04:06:35Z</time>
      </trkpt>
      <trkpt lat="45.58964" lon="6.26518">
        <ele>299.4</ele>
        <time>2022-07-17T04:06:36Z</time>
      </trkpt>
      <trkpt lat="45.58957" lon="6.26524">
        <ele>299.4</ele>
        <time>2022-07-17T04:06:37Z</time>
      </trkpt>
      <trkpt lat="45.58951" lon="6.26529">
        <ele>299.4</ele>
        <time>2022-07-17T04:06:38Z</time>
      </trkpt>
      <trkpt lat="45.58944" lon="6.26535">
        <ele>299.4</ele>
        <time>2022-07-17T04:06:39Z</time>
      </trkpt>
      <trkpt lat="45.58938" lon="6.26541">
        <ele>299.4</ele>
        <time>2022-07-17T04:06:40Z</time>
      </trkpt>
      <trkpt lat="45.58931" lon="6.26547">
        <ele>299.4</ele>
        <time>2022-07-17T04:06:41Z</time>
      </trkpt>
      <trkpt lat="45.58924" lon="6.26553">
        <ele>299.4</ele>
        <time>2022-07-17T04:06:42Z</time>
      </trkpt>
      <trkpt lat="45.58918" lon="6.26558">
        <ele>299.4</ele>
        <time>2022-07-17T04:06:43Z</time>
      </trkpt>
      <trkpt lat="45.58911" lon="6.26564">
        <ele>299.4</ele>
        <time>2022-07-17T04:06:44Z</time>
      </trkpt>
      <trkpt lat="45.58904" lon="6.2657">
        <ele>299.4</ele>
        <time>2022-07-17T04:06:45Z</time>
      </trkpt>
      <trkpt lat="45.58898" lon="6.26576">
        <ele>299.4</ele>
        <time>2022-07-17T04:06:46Z</time>
      </trkpt>
      <trkpt lat="45.58891" lon="6.26581">
        <ele>299.2</ele>
        <time>2022-07-17T04:06:47Z</time>
      </trkpt>
      <trkpt lat="45.58884" lon="6.26587">
        <ele>299.2</ele>
        <time>2022-07-17T04:06:48Z</time>
      </trkpt>
      <trkpt lat="45.58878" lon="6.26593">
        <ele>299.2</ele>
        <time>2022-07-17T04:06:49Z</time>
      </trkpt>
      <trkpt lat="45.58871" lon="6.26599">
        <ele>299.2</ele>
        <time>2022-07-17T04:06:50Z</time>
      </trkpt>
      <trkpt lat="45.58864" lon="6.26604">
        <ele>299.2</ele>
        <time>2022-07-17T04:06:51Z</time>
      </trkpt>
      <trkpt lat="45.58858" lon="6.2661">
        <ele>299.2</ele>
        <time>2022-07-17T04:06:52Z</time>
      </trkpt>
      <trkpt lat="45.58851" lon="6.26616">
        <ele>299.2</ele>
        <time>2022-07-17T04:06:53Z</time>
      </trkpt>
      <trkpt lat="45.58845" lon="6.26621">
        <ele>299.2</ele>
        <time>2022-07-17T04:06:54Z</time>
      </trkpt>
      <trkpt lat="45.58838" lon="6.26627">
        <ele>299.2</ele>
        <time>2022-07-17T04:06:55Z</time>
      </trkpt>
      <trkpt lat="45.58832" lon="6.26632">
        <ele>299.2</ele>
        <time>2022-07-17T04:06:56Z</time>
      </trkpt>
      <trkpt lat="45.58825" lon="6.26638">
        <ele>299.2</ele>
        <time>2022-07-17T04:06:57Z</time>
      </trkpt>
      <trkpt lat="45.58819" lon="6.26643">
        <ele>299</ele>
        <time>2022-07-17T04:06:58Z</time>
      </trkpt>
      <trkpt lat="45.58813" lon="6.26649">
        <ele>299</ele>
        <time>2022-07-17T04:06:59Z</time>
      </trkpt>
      <trkpt lat="45.58806" lon="6.26654">
        <ele>299</ele>
        <time>2022-07-17T04:07:00Z</time>
      </trkpt>
      <trkpt lat="45.588" lon="6.26658">
        <ele>299</ele>
        <time>2022-07-17T04:07:01Z</time>
      </trkpt>
      <trkpt lat="45.58794" lon="6.26662">
        <ele>299</ele>
        <time>2022-07-17T04:07:02Z</time>
      </trkpt>
      <trkpt lat="45.58787" lon="6.26667">
        <ele>299</ele>
        <time>2022-07-17T04:07:03Z</time>
      </trkpt>
      <trkpt lat="45.58781" lon="6.26671">
        <ele>299</ele>
        <time>2022-07-17T04:07:04Z</time>
      </trkpt>
      <trkpt lat="45.58774" lon="6.26674">
        <ele>299</ele>
        <time>2022-07-17T04:07:05Z</time>
      </trkpt>
      <trkpt lat="45.58768" lon="6.26678">
        <ele>299</ele>
        <time>2022-07-17T04:07:06Z</time>
      </trkpt>
      <trkpt lat="45.58761" lon="6.26682">
        <ele>299</ele>
        <time>2022-07-17T04:07:07Z</time>
      </trkpt>
      <trkpt lat="45.58755" lon="6.26685">
        <ele>299</ele>
        <time>2022-07-17T04:07:08Z</time>
      </trkpt>
      <trkpt lat="45.58748" lon="6.26689">
        <ele>299</ele>
        <time>2022-07-17T04:07:09Z</time>
      </trkpt>
      <trkpt lat="45.58742" lon="6.26692">
        <ele>299</ele>
        <time>2022-07-17T04:07:10Z</time>
      </trkpt>
      <trkpt lat="45.58736" lon="6.26695">
        <ele>299</ele>
        <time>2022-07-17T04:07:11Z</time>
      </trkpt>
      <trkpt lat="45.58729" lon="6.26699">
        <ele>299</ele>
        <time>2022-07-17T04:07:12Z</time>
      </trkpt>
      <trkpt lat="45.58722" lon="6.26702">
        <ele>299</ele>
        <time>2022-07-17T04:07:13Z</time>
      </trkpt>
      <trkpt lat="45.58716" lon="6.26705">
        <ele>299</ele>
        <time>2022-07-17T04:07:14Z</time>
      </trkpt>
      <trkpt lat="45.58709" lon="6.26708">
        <ele>299</ele>
        <time>2022-07-17T04:07:15Z</time>
      </trkpt>
      <trkpt lat="45.58702" lon="6.26712">
        <ele>298.8</ele>
        <time>2022-07-17T04:07:16Z</time>
      </trkpt>
      <trkpt lat="45.58696" lon="6.26715">
        <ele>298.8</ele>
        <time>2022-07-17T04:07:18Z</time>
      </trkpt>
      <trkpt lat="45.58689" lon="6.26718">
        <ele>298.8</ele>
        <time>2022-07-17T04:07:19Z</time>
      </trkpt>
      <trkpt lat="45.58682" lon="6.26722">
        <ele>298.8</ele>
        <time>2022-07-17T04:07:20Z</time>
      </trkpt>
      <trkpt lat="45.58676" lon="6.26725">
        <ele>298.8</ele>
        <time>2022-07-17T04:07:21Z</time>
      </trkpt>
      <trkpt lat="45.58669" lon="6.26728">
        <ele>298.8</ele>
        <time>2022-07-17T04:07:22Z</time>
      </trkpt>
      <trkpt lat="45.58662" lon="6.26732">
        <ele>298.4</ele>
        <time>2022-07-17T04:07:23Z</time>
      </trkpt>
      <trkpt lat="45.58656" lon="6.26735">
        <ele>298.4</ele>
        <time>2022-07-17T04:07:24Z</time>
      </trkpt>
      <trkpt lat="45.58649" lon="6.26738">
        <ele>298.4</ele>
        <time>2022-07-17T04:07:25Z</time>
      </trkpt>
      <trkpt lat="45.58642" lon="6.26742">
        <ele>298.4</ele>
        <time>2022-07-17T04:07:26Z</time>
      </trkpt>
      <trkpt lat="45.58636" lon="6.26745">
        <ele>298.4</ele>
        <time>2022-07-17T04:07:27Z</time>
      </trkpt>
      <trkpt lat="45.58629" lon="6.26748">
        <ele>298.4</ele>
        <time>2022-07-17T04:07:28Z</time>
      </trkpt>
      <trkpt lat="45.58623" lon="6.26752">
        <ele>298.4</ele>
        <time>2022-07-17T04:07:29Z</time>
      </trkpt>
      <trkpt lat="45.58616" lon="6.26755">
        <ele>298.4</ele>
        <time>2022-07-17T04:07:30Z</time>
      </trkpt>
      <trkpt lat="45.5861" lon="6.26758">
        <ele>298.4</ele>
        <time>2022-07-17T04:07:31Z</time>
      </trkpt>
      <trkpt lat="45.58603" lon="6.26761">
        <ele>298.4</ele>
        <time>2022-07-17T04:07:32Z</time>
      </trkpt>
      <trkpt lat="45.58596" lon="6.26765">
        <ele>298.4</ele>
        <time>2022-07-17T04:07:33Z</time>
      </trkpt>
      <trkpt lat="45.5859" lon="6.26768">
        <ele>298.4</ele>
        <time>2022-07-17T04:07:34Z</time>
      </trkpt>
      <trkpt lat="45.58583" lon="6.26771">
        <ele>298.4</ele>
        <time>2022-07-17T04:07:35Z</time>
      </trkpt>
      <trkpt lat="45.58576" lon="6.26774">
        <ele>298.4</ele>
        <time>2022-07-17T04:07:36Z</time>
      </trkpt>
      <trkpt lat="45.5857" lon="6.26778">
        <ele>298.4</ele>
        <time>2022-07-17T04:07:37Z</time>
      </trkpt>
      <trkpt lat="45.58563" lon="6.26781">
        <ele>298.4</ele>
        <time>2022-07-17T04:07:38Z</time>
      </trkpt>
      <trkpt lat="45.58557" lon="6.26784">
        <ele>298.4</ele>
        <time>2022-07-17T04:07:39Z</time>
      </trkpt>
      <trkpt lat="45.5855" lon="6.26788">
        <ele>298.2</ele>
        <time>2022-07-17T04:07:40Z</time>
      </trkpt>
      <trkpt lat="45.58544" lon="6.26792">
        <ele>298.2</ele>
        <time>2022-07-17T04:07:41Z</time>
      </trkpt>
      <trkpt lat="45.58537" lon="6.26796">
        <ele>298.2</ele>
        <time>2022-07-17T04:07:42Z</time>
      </trkpt>
      <trkpt lat="45.58531" lon="6.268">
        <ele>298.2</ele>
        <time>2022-07-17T04:07:43Z</time>
      </trkpt>
      <trkpt lat="45.58525" lon="6.26805">
        <ele>298.2</ele>
        <time>2022-07-17T04:07:44Z</time>
      </trkpt>
      <trkpt lat="45.58518" lon="6.2681">
        <ele>298.2</ele>
        <time>2022-07-17T04:07:45Z</time>
      </trkpt>
      <trkpt lat="45.58512" lon="6.26815">
        <ele>298.4</ele>
        <time>2022-07-17T04:07:46Z</time>
      </trkpt>
      <trkpt lat="45.58506" lon="6.26821">
        <ele>298.4</ele>
        <time>2022-07-17T04:07:47Z</time>
      </trkpt>
      <trkpt lat="45.585" lon="6.26826">
        <ele>298.4</ele>
        <time>2022-07-17T04:07:48Z</time>
      </trkpt>
      <trkpt lat="45.58495" lon="6.26832">
        <ele>298.4</ele>
        <time>2022-07-17T04:07:49Z</time>
      </trkpt>
      <trkpt lat="45.58489" lon="6.26839">
        <ele>298.4</ele>
        <time>2022-07-17T04:07:50Z</time>
      </trkpt>
      <trkpt lat="45.58484" lon="6.26845">
        <ele>298.4</ele>
        <time>2022-07-17T04:07:51Z</time>
      </trkpt>
      <trkpt lat="45.58479" lon="6.26852">
        <ele>298.8</ele>
        <time>2022-07-17T04:07:52Z</time>
      </trkpt>
      <trkpt lat="45.58475" lon="6.26858">
        <ele>298.8</ele>
        <time>2022-07-17T04:07:53Z</time>
      </trkpt>
      <trkpt lat="45.5847" lon="6.26865">
        <ele>299.2</ele>
        <time>2022-07-17T04:07:54Z</time>
      </trkpt>
      <trkpt lat="45.58466" lon="6.26872">
        <ele>299.2</ele>
        <time>2022-07-17T04:07:55Z</time>
      </trkpt>
      <trkpt lat="45.58461" lon="6.26878">
        <ele>299.6</ele>
        <time>2022-07-17T04:07:56Z</time>
      </trkpt>
      <trkpt lat="45.58457" lon="6.26885">
        <ele>299.6</ele>
        <time>2022-07-17T04:07:57Z</time>
      </trkpt>
      <trkpt lat="45.58454" lon="6.26891">
        <ele>299.8</ele>
        <time>2022-07-17T04:07:58Z</time>
      </trkpt>
      <trkpt lat="45.5845" lon="6.26898">
        <ele>300</ele>
        <time>2022-07-17T04:07:59Z</time>
      </trkpt>
      <trkpt lat="45.58446" lon="6.26904">
        <ele>300</ele>
        <time>2022-07-17T04:08:00Z</time>
      </trkpt>
      <trkpt lat="45.58442" lon="6.2691">
        <ele>300.4</ele>
        <time>2022-07-17T04:08:01Z</time>
      </trkpt>
      <trkpt lat="45.58438" lon="6.26916">
        <ele>300.4</ele>
        <time>2022-07-17T04:08:02Z</time>
      </trkpt>
      <trkpt lat="45.58433" lon="6.26922">
        <ele>300.8</ele>
        <time>2022-07-17T04:08:03Z</time>
      </trkpt>
      <trkpt lat="45.58429" lon="6.26926">
        <ele>300.8</ele>
        <time>2022-07-17T04:08:04Z</time>
      </trkpt>
      <trkpt lat="45.58424" lon="6.26931">
        <ele>301.2</ele>
        <time>2022-07-17T04:08:05Z</time>
      </trkpt>
      <trkpt lat="45.58421" lon="6.26937">
        <ele>301.2</ele>
        <time>2022-07-17T04:08:06Z</time>
      </trkpt>
      <trkpt lat="45.58418" lon="6.26943">
        <ele>301.4</ele>
        <time>2022-07-17T04:08:07Z</time>
      </trkpt>
      <trkpt lat="45.58417" lon="6.26951">
        <ele>301.4</ele>
        <time>2022-07-17T04:08:08Z</time>
      </trkpt>
      <trkpt lat="45.58416" lon="6.26959">
        <ele>301.4</ele>
        <time>2022-07-17T04:08:09Z</time>
      </trkpt>
      <trkpt lat="45.58415" lon="6.26967">
        <ele>301.8</ele>
        <time>2022-07-17T04:08:10Z</time>
      </trkpt>
      <trkpt lat="45.58413" lon="6.26974">
        <ele>301.8</ele>
        <time>2022-07-17T04:08:11Z</time>
      </trkpt>
      <trkpt lat="45.58409" lon="6.26981">
        <ele>301.8</ele>
        <time>2022-07-17T04:08:12Z</time>
      </trkpt>
      <trkpt lat="45.58405" lon="6.26988">
        <ele>301.8</ele>
        <time>2022-07-17T04:08:13Z</time>
      </trkpt>
      <trkpt lat="45.58402" lon="6.26995">
        <ele>301.8</ele>
        <time>2022-07-17T04:08:14Z</time>
      </trkpt>
      <trkpt lat="45.58398" lon="6.27001">
        <ele>301.8</ele>
        <time>2022-07-17T04:08:15Z</time>
      </trkpt>
      <trkpt lat="45.58394" lon="6.27008">
        <ele>302</ele>
        <time>2022-07-17T04:08:16Z</time>
      </trkpt>
      <trkpt lat="45.5839" lon="6.27015">
        <ele>302</ele>
        <time>2022-07-17T04:08:17Z</time>
      </trkpt>
      <trkpt lat="45.58387" lon="6.27022">
        <ele>302</ele>
        <time>2022-07-17T04:08:18Z</time>
      </trkpt>
      <trkpt lat="45.58384" lon="6.2703">
        <ele>302</ele>
        <time>2022-07-17T04:08:19Z</time>
      </trkpt>
      <trkpt lat="45.5838" lon="6.27037">
        <ele>302</ele>
        <time>2022-07-17T04:08:20Z</time>
      </trkpt>
      <trkpt lat="45.58377" lon="6.27044">
        <ele>302</ele>
        <time>2022-07-17T04:08:21Z</time>
      </trkpt>
      <trkpt lat="45.58373" lon="6.27052">
        <ele>302</ele>
        <time>2022-07-17T04:08:22Z</time>
      </trkpt>
      <trkpt lat="45.58369" lon="6.27059">
        <ele>302</ele>
        <time>2022-07-17T04:08:23Z</time>
      </trkpt>
      <trkpt lat="45.58365" lon="6.27067">
        <ele>302</ele>
        <time>2022-07-17T04:08:24Z</time>
      </trkpt>
      <trkpt lat="45.58362" lon="6.27075">
        <ele>302</ele>
        <time>2022-07-17T04:08:25Z</time>
      </trkpt>
      <trkpt lat="45.58357" lon="6.27083">
        <ele>302</ele>
        <time>2022-07-17T04:08:26Z</time>
      </trkpt>
      <trkpt lat="45.58353" lon="6.27091">
        <ele>302</ele>
        <time>2022-07-17T04:08:27Z</time>
      </trkpt>
      <trkpt lat="45.58349" lon="6.27099">
        <ele>301.8</ele>
        <time>2022-07-17T04:08:28Z</time>
      </trkpt>
      <trkpt lat="45.58345" lon="6.27108">
        <ele>301.8</ele>
        <time>2022-07-17T04:08:29Z</time>
      </trkpt>
      <trkpt lat="45.5834" lon="6.27116">
        <ele>301.8</ele>
        <time>2022-07-17T04:08:30Z</time>
      </trkpt>
      <trkpt lat="45.58336" lon="6.27124">
        <ele>301.4</ele>
        <time>2022-07-17T04:08:31Z</time>
      </trkpt>
      <trkpt lat="45.58332" lon="6.27133">
        <ele>301.4</ele>
        <time>2022-07-17T04:08:32Z</time>
      </trkpt>
      <trkpt lat="45.58327" lon="6.27142">
        <ele>301.4</ele>
        <time>2022-07-17T04:08:33Z</time>
      </trkpt>
      <trkpt lat="45.58323" lon="6.27151">
        <ele>301.2</ele>
        <time>2022-07-17T04:08:34Z</time>
      </trkpt>
      <trkpt lat="45.58319" lon="6.27159">
        <ele>301.2</ele>
        <time>2022-07-17T04:08:35Z</time>
      </trkpt>
      <trkpt lat="45.58314" lon="6.27168">
        <ele>300.8</ele>
        <time>2022-07-17T04:08:36Z</time>
      </trkpt>
      <trkpt lat="45.58309" lon="6.27176">
        <ele>300.8</ele>
        <time>2022-07-17T04:08:37Z</time>
      </trkpt>
      <trkpt lat="45.58305" lon="6.27185">
        <ele>300.6</ele>
        <time>2022-07-17T04:08:38Z</time>
      </trkpt>
      <trkpt lat="45.58301" lon="6.27194">
        <ele>300.6</ele>
        <time>2022-07-17T04:08:39Z</time>
      </trkpt>
      <trkpt lat="45.58297" lon="6.27203">
        <ele>300.6</ele>
        <time>2022-07-17T04:08:40Z</time>
      </trkpt>
      <trkpt lat="45.58292" lon="6.27211">
        <ele>300.6</ele>
        <time>2022-07-17T04:08:41Z</time>
      </trkpt>
      <trkpt lat="45.58288" lon="6.2722">
        <ele>300.6</ele>
        <time>2022-07-17T04:08:42Z</time>
      </trkpt>
      <trkpt lat="45.58284" lon="6.27229">
        <ele>300.6</ele>
        <time>2022-07-17T04:08:43Z</time>
      </trkpt>
      <trkpt lat="45.5828" lon="6.27237">
        <ele>300.4</ele>
        <time>2022-07-17T04:08:44Z</time>
      </trkpt>
      <trkpt lat="45.58275" lon="6.27246">
        <ele>300.4</ele>
        <time>2022-07-17T04:08:45Z</time>
      </trkpt>
      <trkpt lat="45.58271" lon="6.27255">
        <ele>300.4</ele>
        <time>2022-07-17T04:08:46Z</time>
      </trkpt>
      <trkpt lat="45.58266" lon="6.27263">
        <ele>300.4</ele>
        <time>2022-07-17T04:08:47Z</time>
      </trkpt>
      <trkpt lat="45.58261" lon="6.27272">
        <ele>300.2</ele>
        <time>2022-07-17T04:08:48Z</time>
      </trkpt>
      <trkpt lat="45.58257" lon="6.2728">
        <ele>300.2</ele>
        <time>2022-07-17T04:08:49Z</time>
      </trkpt>
      <trkpt lat="45.58252" lon="6.27289">
        <ele>300.2</ele>
        <time>2022-07-17T04:08:50Z</time>
      </trkpt>
      <trkpt lat="45.58248" lon="6.27297">
        <ele>299.8</ele>
        <time>2022-07-17T04:08:51Z</time>
      </trkpt>
      <trkpt lat="45.58244" lon="6.27306">
        <ele>299.8</ele>
        <time>2022-07-17T04:08:52Z</time>
      </trkpt>
      <trkpt lat="45.58239" lon="6.27315">
        <ele>299.4</ele>
        <time>2022-07-17T04:08:53Z</time>
      </trkpt>
      <trkpt lat="45.58235" lon="6.27323">
        <ele>299.2</ele>
        <time>2022-07-17T04:08:54Z</time>
      </trkpt>
      <trkpt lat="45.5823" lon="6.27332">
        <ele>299.2</ele>
        <time>2022-07-17T04:08:55Z</time>
      </trkpt>
      <trkpt lat="45.58226" lon="6.2734">
        <ele>299.2</ele>
        <time>2022-07-17T04:08:56Z</time>
      </trkpt>
      <trkpt lat="45.58222" lon="6.27349">
        <ele>299</ele>
        <time>2022-07-17T04:08:57Z</time>
      </trkpt>
      <trkpt lat="45.58218" lon="6.27357">
        <ele>299</ele>
        <time>2022-07-17T04:08:58Z</time>
      </trkpt>
      <trkpt lat="45.58214" lon="6.27365">
        <ele>298.8</ele>
        <time>2022-07-17T04:08:59Z</time>
      </trkpt>
      <trkpt lat="45.5821" lon="6.27374">
        <ele>298.8</ele>
        <time>2022-07-17T04:09:00Z</time>
      </trkpt>
      <trkpt lat="45.58206" lon="6.27381">
        <ele>298.8</ele>
        <time>2022-07-17T04:09:01Z</time>
      </trkpt>
      <trkpt lat="45.58202" lon="6.27388">
        <ele>298.4</ele>
        <time>2022-07-17T04:09:02Z</time>
      </trkpt>
      <trkpt lat="45.58197" lon="6.27394">
        <ele>298.4</ele>
        <time>2022-07-17T04:09:03Z</time>
      </trkpt>
      <trkpt lat="45.58192" lon="6.27397">
        <ele>298.4</ele>
        <time>2022-07-17T04:09:04Z</time>
      </trkpt>
      <trkpt lat="45.58187" lon="6.27398">
        <ele>298.2</ele>
        <time>2022-07-17T04:09:05Z</time>
      </trkpt>
      <trkpt lat="45.58182" lon="6.27397">
        <ele>298.2</ele>
        <time>2022-07-17T04:09:06Z</time>
      </trkpt>
      <trkpt lat="45.58177" lon="6.27394">
        <ele>298.2</ele>
        <time>2022-07-17T04:09:07Z</time>
      </trkpt>
      <trkpt lat="45.58172" lon="6.27389">
        <ele>298.2</ele>
        <time>2022-07-17T04:09:08Z</time>
      </trkpt>
      <trkpt lat="45.58168" lon="6.27383">
        <ele>298.2</ele>
        <time>2022-07-17T04:09:09Z</time>
      </trkpt>
      <trkpt lat="45.58163" lon="6.27378">
        <ele>298.2</ele>
        <time>2022-07-17T04:09:10Z</time>
      </trkpt>
      <trkpt lat="45.58158" lon="6.27373">
        <ele>298.2</ele>
        <time>2022-07-17T04:09:11Z</time>
      </trkpt>
      <trkpt lat="45.58153" lon="6.27368">
        <ele>298.2</ele>
        <time>2022-07-17T04:09:12Z</time>
      </trkpt>
      <trkpt lat="45.58148" lon="6.27362">
        <ele>298.2</ele>
        <time>2022-07-17T04:09:13Z</time>
      </trkpt>
      <trkpt lat="45.58142" lon="6.27356">
        <ele>298.2</ele>
        <time>2022-07-17T04:09:14Z</time>
      </trkpt>
      <trkpt lat="45.58137" lon="6.27351">
        <ele>298.2</ele>
        <time>2022-07-17T04:09:15Z</time>
      </trkpt>
      <trkpt lat="45.58131" lon="6.27345">
        <ele>298.2</ele>
        <time>2022-07-17T04:09:16Z</time>
      </trkpt>
      <trkpt lat="45.58126" lon="6.27339">
        <ele>298.2</ele>
        <time>2022-07-17T04:09:17Z</time>
      </trkpt>
      <trkpt lat="45.5812" lon="6.27333">
        <ele>298</ele>
        <time>2022-07-17T04:09:18Z</time>
      </trkpt>
      <trkpt lat="45.58114" lon="6.27327">
        <ele>298</ele>
        <time>2022-07-17T04:09:19Z</time>
      </trkpt>
      <trkpt lat="45.58108" lon="6.27321">
        <ele>298</ele>
        <time>2022-07-17T04:09:20Z</time>
      </trkpt>
      <trkpt lat="45.58103" lon="6.27315">
        <ele>298</ele>
        <time>2022-07-17T04:09:21Z</time>
      </trkpt>
      <trkpt lat="45.58097" lon="6.27309">
        <ele>298</ele>
        <time>2022-07-17T04:09:22Z</time>
      </trkpt>
      <trkpt lat="45.58091" lon="6.27303">
        <ele>298</ele>
        <time>2022-07-17T04:09:23Z</time>
      </trkpt>
      <trkpt lat="45.58085" lon="6.27297">
        <ele>298</ele>
        <time>2022-07-17T04:09:24Z</time>
      </trkpt>
      <trkpt lat="45.58079" lon="6.27291">
        <ele>298</ele>
        <time>2022-07-17T04:09:25Z</time>
      </trkpt>
      <trkpt lat="45.58073" lon="6.27285">
        <ele>298</ele>
        <time>2022-07-17T04:09:26Z</time>
      </trkpt>
      <trkpt lat="45.58068" lon="6.27279">
        <ele>298</ele>
        <time>2022-07-17T04:09:27Z</time>
      </trkpt>
      <trkpt lat="45.58062" lon="6.27273">
        <ele>298</ele>
        <time>2022-07-17T04:09:28Z</time>
      </trkpt>
      <trkpt lat="45.58056" lon="6.27267">
        <ele>298</ele>
        <time>2022-07-17T04:09:29Z</time>
      </trkpt>
      <trkpt lat="45.5805" lon="6.27261">
        <ele>298</ele>
        <time>2022-07-17T04:09:30Z</time>
      </trkpt>
      <trkpt lat="45.58044" lon="6.27255">
        <ele>298</ele>
        <time>2022-07-17T04:09:31Z</time>
      </trkpt>
      <trkpt lat="45.58038" lon="6.27249">
        <ele>298</ele>
        <time>2022-07-17T04:09:32Z</time>
      </trkpt>
      <trkpt lat="45.58032" lon="6.27243">
        <ele>298</ele>
        <time>2022-07-17T04:09:33Z</time>
      </trkpt>
      <trkpt lat="45.58026" lon="6.27237">
        <ele>298</ele>
        <time>2022-07-17T04:09:34Z</time>
      </trkpt>
      <trkpt lat="45.58019" lon="6.27231">
        <ele>298</ele>
        <time>2022-07-17T04:09:35Z</time>
      </trkpt>
      <trkpt lat="45.58013" lon="6.27224">
        <ele>298</ele>
        <time>2022-07-17T04:09:36Z</time>
      </trkpt>
      <trkpt lat="45.58007" lon="6.27218">
        <ele>298</ele>
        <time>2022-07-17T04:09:37Z</time>
      </trkpt>
      <trkpt lat="45.58001" lon="6.27212">
        <ele>298</ele>
        <time>2022-07-17T04:09:38Z</time>
      </trkpt>
      <trkpt lat="45.57995" lon="6.27206">
        <ele>298</ele>
        <time>2022-07-17T04:09:39Z</time>
      </trkpt>
      <trkpt lat="45.57988" lon="6.27199">
        <ele>298</ele>
        <time>2022-07-17T04:09:40Z</time>
      </trkpt>
      <trkpt lat="45.57982" lon="6.27193">
        <ele>298</ele>
        <time>2022-07-17T04:09:41Z</time>
      </trkpt>
      <trkpt lat="45.57976" lon="6.27187">
        <ele>298</ele>
        <time>2022-07-17T04:09:42Z</time>
      </trkpt>
      <trkpt lat="45.57969" lon="6.27181">
        <ele>298</ele>
        <time>2022-07-17T04:09:43Z</time>
      </trkpt>
      <trkpt lat="45.57963" lon="6.27174">
        <ele>298</ele>
        <time>2022-07-17T04:09:44Z</time>
      </trkpt>
      <trkpt lat="45.57957" lon="6.27168">
        <ele>298</ele>
        <time>2022-07-17T04:09:45Z</time>
      </trkpt>
      <trkpt lat="45.5795" lon="6.27163">
        <ele>298</ele>
        <time>2022-07-17T04:09:46Z</time>
      </trkpt>
      <trkpt lat="45.57944" lon="6.27156">
        <ele>298</ele>
        <time>2022-07-17T04:09:47Z</time>
      </trkpt>
      <trkpt lat="45.57938" lon="6.2715">
        <ele>298</ele>
        <time>2022-07-17T04:09:48Z</time>
      </trkpt>
      <trkpt lat="45.57931" lon="6.27144">
        <ele>297.8</ele>
        <time>2022-07-17T04:09:49Z</time>
      </trkpt>
      <trkpt lat="45.57925" lon="6.27138">
        <ele>297.8</ele>
        <time>2022-07-17T04:09:50Z</time>
      </trkpt>
      <trkpt lat="45.57918" lon="6.27132">
        <ele>297.8</ele>
        <time>2022-07-17T04:09:51Z</time>
      </trkpt>
      <trkpt lat="45.57912" lon="6.27126">
        <ele>297.8</ele>
        <time>2022-07-17T04:09:52Z</time>
      </trkpt>
      <trkpt lat="45.57906" lon="6.2712">
        <ele>297.8</ele>
        <time>2022-07-17T04:09:53Z</time>
      </trkpt>
      <trkpt lat="45.579" lon="6.27114">
        <ele>297.8</ele>
        <time>2022-07-17T04:09:54Z</time>
      </trkpt>
      <trkpt lat="45.57894" lon="6.27107">
        <ele>297.8</ele>
        <time>2022-07-17T04:09:55Z</time>
      </trkpt>
      <trkpt lat="45.57888" lon="6.27101">
        <ele>297.8</ele>
        <time>2022-07-17T04:09:56Z</time>
      </trkpt>
      <trkpt lat="45.57881" lon="6.27094">
        <ele>297.8</ele>
        <time>2022-07-17T04:09:57Z</time>
      </trkpt>
      <trkpt lat="45.57875" lon="6.27088">
        <ele>297.8</ele>
        <time>2022-07-17T04:09:58Z</time>
      </trkpt>
      <trkpt lat="45.57868" lon="6.27082">
        <ele>297.8</ele>
        <time>2022-07-17T04:09:59Z</time>
      </trkpt>
      <trkpt lat="45.57862" lon="6.27075">
        <ele>297.8</ele>
        <time>2022-07-17T04:10:00Z</time>
      </trkpt>
      <trkpt lat="45.57856" lon="6.27069">
        <ele>297.8</ele>
        <time>2022-07-17T04:10:01Z</time>
      </trkpt>
      <trkpt lat="45.57849" lon="6.27063">
        <ele>297.8</ele>
        <time>2022-07-17T04:10:02Z</time>
      </trkpt>
      <trkpt lat="45.57843" lon="6.27057">
        <ele>297.8</ele>
        <time>2022-07-17T04:10:03Z</time>
      </trkpt>
      <trkpt lat="45.57837" lon="6.27051">
        <ele>297.8</ele>
        <time>2022-07-17T04:10:04Z</time>
      </trkpt>
      <trkpt lat="45.57831" lon="6.27045">
        <ele>297.8</ele>
        <time>2022-07-17T04:10:05Z</time>
      </trkpt>
      <trkpt lat="45.57825" lon="6.27039">
        <ele>297.8</ele>
        <time>2022-07-17T04:10:06Z</time>
      </trkpt>
      <trkpt lat="45.57819" lon="6.27033">
        <ele>297.8</ele>
        <time>2022-07-17T04:10:07Z</time>
      </trkpt>
      <trkpt lat="45.57813" lon="6.27026">
        <ele>297.8</ele>
        <time>2022-07-17T04:10:08Z</time>
      </trkpt>
      <trkpt lat="45.57807" lon="6.2702">
        <ele>297.8</ele>
        <time>2022-07-17T04:10:09Z</time>
      </trkpt>
      <trkpt lat="45.578" lon="6.27014">
        <ele>297.8</ele>
        <time>2022-07-17T04:10:10Z</time>
      </trkpt>
      <trkpt lat="45.57794" lon="6.27008">
        <ele>297.8</ele>
        <time>2022-07-17T04:10:11Z</time>
      </trkpt>
      <trkpt lat="45.57788" lon="6.27002">
        <ele>297.6</ele>
        <time>2022-07-17T04:10:12Z</time>
      </trkpt>
      <trkpt lat="45.57782" lon="6.26996">
        <ele>297.6</ele>
        <time>2022-07-17T04:10:13Z</time>
      </trkpt>
      <trkpt lat="45.57775" lon="6.2699">
        <ele>297.6</ele>
        <time>2022-07-17T04:10:14Z</time>
      </trkpt>
      <trkpt lat="45.57769" lon="6.26984">
        <ele>297.6</ele>
        <time>2022-07-17T04:10:15Z</time>
      </trkpt>
      <trkpt lat="45.57763" lon="6.26977">
        <ele>297.6</ele>
        <time>2022-07-17T04:10:16Z</time>
      </trkpt>
      <trkpt lat="45.57756" lon="6.26971">
        <ele>297.6</ele>
        <time>2022-07-17T04:10:17Z</time>
      </trkpt>
      <trkpt lat="45.5775" lon="6.26965">
        <ele>297.6</ele>
        <time>2022-07-17T04:10:18Z</time>
      </trkpt>
      <trkpt lat="45.57744" lon="6.26959">
        <ele>297.6</ele>
        <time>2022-07-17T04:10:19Z</time>
      </trkpt>
      <trkpt lat="45.57737" lon="6.26953">
        <ele>297.6</ele>
        <time>2022-07-17T04:10:20Z</time>
      </trkpt>
      <trkpt lat="45.57731" lon="6.26947">
        <ele>297.4</ele>
        <time>2022-07-17T04:10:21Z</time>
      </trkpt>
      <trkpt lat="45.57725" lon="6.26941">
        <ele>297.4</ele>
        <time>2022-07-17T04:10:22Z</time>
      </trkpt>
      <trkpt lat="45.57719" lon="6.26935">
        <ele>297.4</ele>
        <time>2022-07-17T04:10:23Z</time>
      </trkpt>
      <trkpt lat="45.57713" lon="6.26928">
        <ele>297.4</ele>
        <time>2022-07-17T04:10:24Z</time>
      </trkpt>
      <trkpt lat="45.57707" lon="6.26922">
        <ele>297.4</ele>
        <time>2022-07-17T04:10:25Z</time>
      </trkpt>
      <trkpt lat="45.57701" lon="6.26917">
        <ele>297.4</ele>
        <time>2022-07-17T04:10:26Z</time>
      </trkpt>
      <trkpt lat="45.57695" lon="6.26911">
        <ele>297.4</ele>
        <time>2022-07-17T04:10:27Z</time>
      </trkpt>
      <trkpt lat="45.57689" lon="6.26905">
        <ele>297.4</ele>
        <time>2022-07-17T04:10:28Z</time>
      </trkpt>
      <trkpt lat="45.57683" lon="6.26899">
        <ele>297.4</ele>
        <time>2022-07-17T04:10:29Z</time>
      </trkpt>
      <trkpt lat="45.57677" lon="6.26893">
        <ele>297.4</ele>
        <time>2022-07-17T04:10:30Z</time>
      </trkpt>
      <trkpt lat="45.57671" lon="6.26887">
        <ele>297.4</ele>
        <time>2022-07-17T04:10:31Z</time>
      </trkpt>
      <trkpt lat="45.57665" lon="6.26881">
        <ele>297.4</ele>
        <time>2022-07-17T04:10:32Z</time>
      </trkpt>
      <trkpt lat="45.57659" lon="6.26876">
        <ele>297.4</ele>
        <time>2022-07-17T04:10:33Z</time>
      </trkpt>
      <trkpt lat="45.57653" lon="6.2687">
        <ele>297.4</ele>
        <time>2022-07-17T04:10:34Z</time>
      </trkpt>
      <trkpt lat="45.57647" lon="6.26864">
        <ele>297.4</ele>
        <time>2022-07-17T04:10:35Z</time>
      </trkpt>
      <trkpt lat="45.57642" lon="6.26858">
        <ele>297.4</ele>
        <time>2022-07-17T04:10:36Z</time>
      </trkpt>
      <trkpt lat="45.57636" lon="6.26852">
        <ele>297.4</ele>
        <time>2022-07-17T04:10:37Z</time>
      </trkpt>
      <trkpt lat="45.5763" lon="6.26847">
        <ele>297.4</ele>
        <time>2022-07-17T04:10:38Z</time>
      </trkpt>
      <trkpt lat="45.57624" lon="6.26841">
        <ele>297.4</ele>
        <time>2022-07-17T04:10:39Z</time>
      </trkpt>
      <trkpt lat="45.57619" lon="6.26835">
        <ele>297.4</ele>
        <time>2022-07-17T04:10:40Z</time>
      </trkpt>
      <trkpt lat="45.57613" lon="6.26829">
        <ele>297.4</ele>
        <time>2022-07-17T04:10:41Z</time>
      </trkpt>
      <trkpt lat="45.57607" lon="6.26824">
        <ele>297.4</ele>
        <time>2022-07-17T04:10:42Z</time>
      </trkpt>
      <trkpt lat="45.57601" lon="6.26818">
        <ele>297.4</ele>
        <time>2022-07-17T04:10:43Z</time>
      </trkpt>
      <trkpt lat="45.57595" lon="6.26812">
        <ele>297.4</ele>
        <time>2022-07-17T04:10:44Z</time>
      </trkpt>
      <trkpt lat="45.5759" lon="6.26807">
        <ele>297.4</ele>
        <time>2022-07-17T04:10:45Z</time>
      </trkpt>
      <trkpt lat="45.57584" lon="6.26801">
        <ele>297.4</ele>
        <time>2022-07-17T04:10:46Z</time>
      </trkpt>
      <trkpt lat="45.57578" lon="6.26796">
        <ele>297.4</ele>
        <time>2022-07-17T04:10:47Z</time>
      </trkpt>
      <trkpt lat="45.57573" lon="6.2679">
        <ele>297.4</ele>
        <time>2022-07-17T04:10:48Z</time>
      </trkpt>
      <trkpt lat="45.57567" lon="6.26785">
        <ele>297.4</ele>
        <time>2022-07-17T04:10:49Z</time>
      </trkpt>
      <trkpt lat="45.57562" lon="6.2678">
        <ele>297.4</ele>
        <time>2022-07-17T04:10:50Z</time>
      </trkpt>
      <trkpt lat="45.57556" lon="6.26774">
        <ele>297.4</ele>
        <time>2022-07-17T04:10:51Z</time>
      </trkpt>
      <trkpt lat="45.57551" lon="6.26769">
        <ele>297.4</ele>
        <time>2022-07-17T04:10:52Z</time>
      </trkpt>
      <trkpt lat="45.57546" lon="6.26763">
        <ele>297.4</ele>
        <time>2022-07-17T04:10:53Z</time>
      </trkpt>
      <trkpt lat="45.5754" lon="6.26758">
        <ele>297.4</ele>
        <time>2022-07-17T04:10:54Z</time>
      </trkpt>
      <trkpt lat="45.57535" lon="6.26753">
        <ele>297.4</ele>
        <time>2022-07-17T04:10:55Z</time>
      </trkpt>
      <trkpt lat="45.57529" lon="6.26747">
        <ele>297.4</ele>
        <time>2022-07-17T04:10:56Z</time>
      </trkpt>
      <trkpt lat="45.57524" lon="6.26742">
        <ele>297.4</ele>
        <time>2022-07-17T04:10:57Z</time>
      </trkpt>
      <trkpt lat="45.57518" lon="6.26737">
        <ele>297.4</ele>
        <time>2022-07-17T04:10:58Z</time>
      </trkpt>
      <trkpt lat="45.57513" lon="6.26731">
        <ele>297.4</ele>
        <time>2022-07-17T04:10:59Z</time>
      </trkpt>
      <trkpt lat="45.57508" lon="6.26726">
        <ele>297.4</ele>
        <time>2022-07-17T04:11:00Z</time>
      </trkpt>
      <trkpt lat="45.57502" lon="6.26721">
        <ele>297.4</ele>
        <time>2022-07-17T04:11:01Z</time>
      </trkpt>
      <trkpt lat="45.57497" lon="6.26715">
        <ele>297.4</ele>
        <time>2022-07-17T04:11:02Z</time>
      </trkpt>
      <trkpt lat="45.57491" lon="6.2671">
        <ele>297.4</ele>
        <time>2022-07-17T04:11:03Z</time>
      </trkpt>
      <trkpt lat="45.57486" lon="6.26705">
        <ele>297.2</ele>
        <time>2022-07-17T04:11:04Z</time>
      </trkpt>
      <trkpt lat="45.5748" lon="6.26699">
        <ele>297.2</ele>
        <time>2022-07-17T04:11:05Z</time>
      </trkpt>
      <trkpt lat="45.57475" lon="6.26694">
        <ele>297.2</ele>
        <time>2022-07-17T04:11:06Z</time>
      </trkpt>
      <trkpt lat="45.57469" lon="6.26688">
        <ele>297.2</ele>
        <time>2022-07-17T04:11:07Z</time>
      </trkpt>
      <trkpt lat="45.57463" lon="6.26683">
        <ele>297.2</ele>
        <time>2022-07-17T04:11:08Z</time>
      </trkpt>
      <trkpt lat="45.57458" lon="6.26678">
        <ele>297.2</ele>
        <time>2022-07-17T04:11:09Z</time>
      </trkpt>
      <trkpt lat="45.57452" lon="6.26672">
        <ele>297.2</ele>
        <time>2022-07-17T04:11:10Z</time>
      </trkpt>
      <trkpt lat="45.57446" lon="6.26667">
        <ele>297.2</ele>
        <time>2022-07-17T04:11:11Z</time>
      </trkpt>
      <trkpt lat="45.57441" lon="6.26661">
        <ele>297.2</ele>
        <time>2022-07-17T04:11:12Z</time>
      </trkpt>
      <trkpt lat="45.57435" lon="6.26656">
        <ele>297.2</ele>
        <time>2022-07-17T04:11:13Z</time>
      </trkpt>
      <trkpt lat="45.57429" lon="6.26651">
        <ele>297.2</ele>
        <time>2022-07-17T04:11:14Z</time>
      </trkpt>
      <trkpt lat="45.57424" lon="6.26645">
        <ele>297.2</ele>
        <time>2022-07-17T04:11:15Z</time>
      </trkpt>
      <trkpt lat="45.57418" lon="6.2664">
        <ele>297.2</ele>
        <time>2022-07-17T04:11:16Z</time>
      </trkpt>
      <trkpt lat="45.57412" lon="6.26634">
        <ele>297.2</ele>
        <time>2022-07-17T04:11:17Z</time>
      </trkpt>
      <trkpt lat="45.57406" lon="6.26629">
        <ele>297.2</ele>
        <time>2022-07-17T04:11:18Z</time>
      </trkpt>
      <trkpt lat="45.57401" lon="6.26623">
        <ele>297.2</ele>
        <time>2022-07-17T04:11:19Z</time>
      </trkpt>
      <trkpt lat="45.57395" lon="6.26617">
        <ele>297.2</ele>
        <time>2022-07-17T04:11:20Z</time>
      </trkpt>
      <trkpt lat="45.57389" lon="6.26612">
        <ele>297.2</ele>
        <time>2022-07-17T04:11:21Z</time>
      </trkpt>
      <trkpt lat="45.57384" lon="6.26606">
        <ele>297.2</ele>
        <time>2022-07-17T04:11:22Z</time>
      </trkpt>
      <trkpt lat="45.57378" lon="6.26601">
        <ele>297.2</ele>
        <time>2022-07-17T04:11:23Z</time>
      </trkpt>
      <trkpt lat="45.57372" lon="6.26595">
        <ele>297.2</ele>
        <time>2022-07-17T04:11:24Z</time>
      </trkpt>
      <trkpt lat="45.57366" lon="6.2659">
        <ele>297.2</ele>
        <time>2022-07-17T04:11:25Z</time>
      </trkpt>
      <trkpt lat="45.57361" lon="6.26584">
        <ele>297.2</ele>
        <time>2022-07-17T04:11:26Z</time>
      </trkpt>
      <trkpt lat="45.57355" lon="6.26578">
        <ele>297.2</ele>
        <time>2022-07-17T04:11:27Z</time>
      </trkpt>
      <trkpt lat="45.57349" lon="6.26573">
        <ele>297.2</ele>
        <time>2022-07-17T04:11:28Z</time>
      </trkpt>
      <trkpt lat="45.57343" lon="6.26567">
        <ele>297.2</ele>
        <time>2022-07-17T04:11:29Z</time>
      </trkpt>
      <trkpt lat="45.57338" lon="6.26561">
        <ele>297.2</ele>
        <time>2022-07-17T04:11:30Z</time>
      </trkpt>
      <trkpt lat="45.57332" lon="6.26556">
        <ele>297.2</ele>
        <time>2022-07-17T04:11:31Z</time>
      </trkpt>
      <trkpt lat="45.57327" lon="6.26551">
        <ele>297</ele>
        <time>2022-07-17T04:11:32Z</time>
      </trkpt>
      <trkpt lat="45.57321" lon="6.26545">
        <ele>297</ele>
        <time>2022-07-17T04:11:33Z</time>
      </trkpt>
      <trkpt lat="45.57315" lon="6.2654">
        <ele>297</ele>
        <time>2022-07-17T04:11:34Z</time>
      </trkpt>
      <trkpt lat="45.57309" lon="6.26535">
        <ele>297</ele>
        <time>2022-07-17T04:11:35Z</time>
      </trkpt>
      <trkpt lat="45.57303" lon="6.2653">
        <ele>297</ele>
        <time>2022-07-17T04:11:36Z</time>
      </trkpt>
      <trkpt lat="45.57297" lon="6.26524">
        <ele>297</ele>
        <time>2022-07-17T04:11:37Z</time>
      </trkpt>
      <trkpt lat="45.57292" lon="6.26517">
        <ele>297</ele>
        <time>2022-07-17T04:11:38Z</time>
      </trkpt>
      <trkpt lat="45.57287" lon="6.26511">
        <ele>297</ele>
        <time>2022-07-17T04:11:39Z</time>
      </trkpt>
      <trkpt lat="45.57282" lon="6.26504">
        <ele>297</ele>
        <time>2022-07-17T04:11:40Z</time>
      </trkpt>
      <trkpt lat="45.57277" lon="6.26496">
        <ele>297</ele>
        <time>2022-07-17T04:11:41Z</time>
      </trkpt>
      <trkpt lat="45.57273" lon="6.26488">
        <ele>296.6</ele>
        <time>2022-07-17T04:11:42Z</time>
      </trkpt>
      <trkpt lat="45.57269" lon="6.26479">
        <ele>296.6</ele>
        <time>2022-07-17T04:11:43Z</time>
      </trkpt>
      <trkpt lat="45.57265" lon="6.26471">
        <ele>296.6</ele>
        <time>2022-07-17T04:11:44Z</time>
      </trkpt>
      <trkpt lat="45.57261" lon="6.26462">
        <ele>296.6</ele>
        <time>2022-07-17T04:11:45Z</time>
      </trkpt>
      <trkpt lat="45.57257" lon="6.26454">
        <ele>296.2</ele>
        <time>2022-07-17T04:11:46Z</time>
      </trkpt>
      <trkpt lat="45.57253" lon="6.26445">
        <ele>296.2</ele>
        <time>2022-07-17T04:11:47Z</time>
      </trkpt>
      <trkpt lat="45.57246" lon="6.26427">
        <ele>296.2</ele>
        <time>2022-07-17T04:11:48Z</time>
      </trkpt>
      <trkpt lat="45.57242" lon="6.26418">
        <ele>296.2</ele>
        <time>2022-07-17T04:11:49Z</time>
      </trkpt>
      <trkpt lat="45.57239" lon="6.26409">
        <ele>296.2</ele>
        <time>2022-07-17T04:11:50Z</time>
      </trkpt>
      <trkpt lat="45.57235" lon="6.264">
        <ele>296.2</ele>
        <time>2022-07-17T04:11:51Z</time>
      </trkpt>
      <trkpt lat="45.57231" lon="6.26391">
        <ele>296.2</ele>
        <time>2022-07-17T04:11:52Z</time>
      </trkpt>
      <trkpt lat="45.57228" lon="6.26382">
        <ele>296.2</ele>
        <time>2022-07-17T04:11:53Z</time>
      </trkpt>
      <trkpt lat="45.57224" lon="6.26373">
        <ele>296.2</ele>
        <time>2022-07-17T04:11:54Z</time>
      </trkpt>
      <trkpt lat="45.57221" lon="6.26364">
        <ele>296</ele>
        <time>2022-07-17T04:11:55Z</time>
      </trkpt>
      <trkpt lat="45.57217" lon="6.26355">
        <ele>296</ele>
        <time>2022-07-17T04:11:56Z</time>
      </trkpt>
      <trkpt lat="45.57213" lon="6.26346">
        <ele>296</ele>
        <time>2022-07-17T04:11:57Z</time>
      </trkpt>
      <trkpt lat="45.5721" lon="6.26337">
        <ele>296</ele>
        <time>2022-07-17T04:11:58Z</time>
      </trkpt>
      <trkpt lat="45.57206" lon="6.26328">
        <ele>296</ele>
        <time>2022-07-17T04:11:59Z</time>
      </trkpt>
      <trkpt lat="45.57203" lon="6.2632">
        <ele>296</ele>
        <time>2022-07-17T04:12:00Z</time>
      </trkpt>
      <trkpt lat="45.57199" lon="6.26311">
        <ele>296</ele>
        <time>2022-07-17T04:12:01Z</time>
      </trkpt>
      <trkpt lat="45.57196" lon="6.26302">
        <ele>296</ele>
        <time>2022-07-17T04:12:02Z</time>
      </trkpt>
      <trkpt lat="45.57192" lon="6.26294">
        <ele>296</ele>
        <time>2022-07-17T04:12:03Z</time>
      </trkpt>
      <trkpt lat="45.57189" lon="6.26285">
        <ele>296</ele>
        <time>2022-07-17T04:12:04Z</time>
      </trkpt>
      <trkpt lat="45.57185" lon="6.26277">
        <ele>296</ele>
        <time>2022-07-17T04:12:05Z</time>
      </trkpt>
      <trkpt lat="45.57182" lon="6.26268">
        <ele>296</ele>
        <time>2022-07-17T04:12:06Z</time>
      </trkpt>
      <trkpt lat="45.57178" lon="6.2626">
        <ele>296</ele>
        <time>2022-07-17T04:12:07Z</time>
      </trkpt>
      <trkpt lat="45.57175" lon="6.26251">
        <ele>296</ele>
        <time>2022-07-17T04:12:08Z</time>
      </trkpt>
      <trkpt lat="45.57171" lon="6.26242">
        <ele>296</ele>
        <time>2022-07-17T04:12:09Z</time>
      </trkpt>
      <trkpt lat="45.57168" lon="6.26234">
        <ele>296</ele>
        <time>2022-07-17T04:12:10Z</time>
      </trkpt>
      <trkpt lat="45.57164" lon="6.26225">
        <ele>295.8</ele>
        <time>2022-07-17T04:12:11Z</time>
      </trkpt>
      <trkpt lat="45.5716" lon="6.26216">
        <ele>295.8</ele>
        <time>2022-07-17T04:12:12Z</time>
      </trkpt>
      <trkpt lat="45.57157" lon="6.26208">
        <ele>295.8</ele>
        <time>2022-07-17T04:12:13Z</time>
      </trkpt>
      <trkpt lat="45.57154" lon="6.26199">
        <ele>295.8</ele>
        <time>2022-07-17T04:12:14Z</time>
      </trkpt>
      <trkpt lat="45.5715" lon="6.2619">
        <ele>295.8</ele>
        <time>2022-07-17T04:12:15Z</time>
      </trkpt>
      <trkpt lat="45.57146" lon="6.26181">
        <ele>295.8</ele>
        <time>2022-07-17T04:12:16Z</time>
      </trkpt>
      <trkpt lat="45.57143" lon="6.26172">
        <ele>295.8</ele>
        <time>2022-07-17T04:12:17Z</time>
      </trkpt>
      <trkpt lat="45.57139" lon="6.26163">
        <ele>295.8</ele>
        <time>2022-07-17T04:12:18Z</time>
      </trkpt>
      <trkpt lat="45.57135" lon="6.26155">
        <ele>295.8</ele>
        <time>2022-07-17T04:12:19Z</time>
      </trkpt>
      <trkpt lat="45.57132" lon="6.26146">
        <ele>296.2</ele>
        <time>2022-07-17T04:12:20Z</time>
      </trkpt>
      <trkpt lat="45.57128" lon="6.26137">
        <ele>296.2</ele>
        <time>2022-07-17T04:12:21Z</time>
      </trkpt>
      <trkpt lat="45.57124" lon="6.26128">
        <ele>296.2</ele>
        <time>2022-07-17T04:12:22Z</time>
      </trkpt>
      <trkpt lat="45.5712" lon="6.26119">
        <ele>296.2</ele>
        <time>2022-07-17T04:12:23Z</time>
      </trkpt>
      <trkpt lat="45.57117" lon="6.2611">
        <ele>296.2</ele>
        <time>2022-07-17T04:12:24Z</time>
      </trkpt>
      <trkpt lat="45.57113" lon="6.26101">
        <ele>296.2</ele>
        <time>2022-07-17T04:12:25Z</time>
      </trkpt>
      <trkpt lat="45.57109" lon="6.26093">
        <ele>296.2</ele>
        <time>2022-07-17T04:12:26Z</time>
      </trkpt>
      <trkpt lat="45.57105" lon="6.26084">
        <ele>296.2</ele>
        <time>2022-07-17T04:12:27Z</time>
      </trkpt>
      <trkpt lat="45.57101" lon="6.26075">
        <ele>296.2</ele>
        <time>2022-07-17T04:12:28Z</time>
      </trkpt>
      <trkpt lat="45.57098" lon="6.26066">
        <ele>296.2</ele>
        <time>2022-07-17T04:12:29Z</time>
      </trkpt>
      <trkpt lat="45.57094" lon="6.26057">
        <ele>296.2</ele>
        <time>2022-07-17T04:12:30Z</time>
      </trkpt>
      <trkpt lat="45.5709" lon="6.26048">
        <ele>296.2</ele>
        <time>2022-07-17T04:12:31Z</time>
      </trkpt>
      <trkpt lat="45.57086" lon="6.2604">
        <ele>296</ele>
        <time>2022-07-17T04:12:32Z</time>
      </trkpt>
      <trkpt lat="45.57082" lon="6.26031">
        <ele>296</ele>
        <time>2022-07-17T04:12:33Z</time>
      </trkpt>
      <trkpt lat="45.57079" lon="6.26022">
        <ele>296</ele>
        <time>2022-07-17T04:12:34Z</time>
      </trkpt>
      <trkpt lat="45.57075" lon="6.26013">
        <ele>296</ele>
        <time>2022-07-17T04:12:35Z</time>
      </trkpt>
      <trkpt lat="45.57071" lon="6.26005">
        <ele>296</ele>
        <time>2022-07-17T04:12:36Z</time>
      </trkpt>
      <trkpt lat="45.57067" lon="6.25996">
        <ele>296</ele>
        <time>2022-07-17T04:12:37Z</time>
      </trkpt>
      <trkpt lat="45.57064" lon="6.25987">
        <ele>296</ele>
        <time>2022-07-17T04:12:38Z</time>
      </trkpt>
      <trkpt lat="45.5706" lon="6.25978">
        <ele>296</ele>
        <time>2022-07-17T04:12:39Z</time>
      </trkpt>
      <trkpt lat="45.57056" lon="6.2597">
        <ele>296</ele>
        <time>2022-07-17T04:12:40Z</time>
      </trkpt>
      <trkpt lat="45.57052" lon="6.25961">
        <ele>296</ele>
        <time>2022-07-17T04:12:41Z</time>
      </trkpt>
      <trkpt lat="45.57049" lon="6.25952">
        <ele>296</ele>
        <time>2022-07-17T04:12:42Z</time>
      </trkpt>
      <trkpt lat="45.57045" lon="6.25943">
        <ele>296</ele>
        <time>2022-07-17T04:12:43Z</time>
      </trkpt>
      <trkpt lat="45.57042" lon="6.25934">
        <ele>295.6</ele>
        <time>2022-07-17T04:12:44Z</time>
      </trkpt>
      <trkpt lat="45.57038" lon="6.25925">
        <ele>295.6</ele>
        <time>2022-07-17T04:12:45Z</time>
      </trkpt>
      <trkpt lat="45.57034" lon="6.25916">
        <ele>295.6</ele>
        <time>2022-07-17T04:12:46Z</time>
      </trkpt>
      <trkpt lat="45.57031" lon="6.25907">
        <ele>295.6</ele>
        <time>2022-07-17T04:12:47Z</time>
      </trkpt>
      <trkpt lat="45.57027" lon="6.25898">
        <ele>295.6</ele>
        <time>2022-07-17T04:12:48Z</time>
      </trkpt>
      <trkpt lat="45.57024" lon="6.25889">
        <ele>295.4</ele>
        <time>2022-07-17T04:12:49Z</time>
      </trkpt>
      <trkpt lat="45.5702" lon="6.2588">
        <ele>295.4</ele>
        <time>2022-07-17T04:12:50Z</time>
      </trkpt>
      <trkpt lat="45.57017" lon="6.25871">
        <ele>295.4</ele>
        <time>2022-07-17T04:12:51Z</time>
      </trkpt>
      <trkpt lat="45.57013" lon="6.25862">
        <ele>295.4</ele>
        <time>2022-07-17T04:12:52Z</time>
      </trkpt>
      <trkpt lat="45.5701" lon="6.25852">
        <ele>295.4</ele>
        <time>2022-07-17T04:12:53Z</time>
      </trkpt>
      <trkpt lat="45.57006" lon="6.25843">
        <ele>295.4</ele>
        <time>2022-07-17T04:12:54Z</time>
      </trkpt>
      <trkpt lat="45.57002" lon="6.25834">
        <ele>295.4</ele>
        <time>2022-07-17T04:12:55Z</time>
      </trkpt>
      <trkpt lat="45.56999" lon="6.25825">
        <ele>295.4</ele>
        <time>2022-07-17T04:12:56Z</time>
      </trkpt>
      <trkpt lat="45.56996" lon="6.25816">
        <ele>295.4</ele>
        <time>2022-07-17T04:12:57Z</time>
      </trkpt>
      <trkpt lat="45.56992" lon="6.25808">
        <ele>295.4</ele>
        <time>2022-07-17T04:12:58Z</time>
      </trkpt>
      <trkpt lat="45.56989" lon="6.25799">
        <ele>295.4</ele>
        <time>2022-07-17T04:12:59Z</time>
      </trkpt>
      <trkpt lat="45.56985" lon="6.2579">
        <ele>295.4</ele>
        <time>2022-07-17T04:13:00Z</time>
      </trkpt>
      <trkpt lat="45.56981" lon="6.25782">
        <ele>295.4</ele>
        <time>2022-07-17T04:13:01Z</time>
      </trkpt>
      <trkpt lat="45.56978" lon="6.25773">
        <ele>295.6</ele>
        <time>2022-07-17T04:13:02Z</time>
      </trkpt>
      <trkpt lat="45.56974" lon="6.25764">
        <ele>295.6</ele>
        <time>2022-07-17T04:13:03Z</time>
      </trkpt>
      <trkpt lat="45.56971" lon="6.25755">
        <ele>295.6</ele>
        <time>2022-07-17T04:13:04Z</time>
      </trkpt>
      <trkpt lat="45.56967" lon="6.25747">
        <ele>295.6</ele>
        <time>2022-07-17T04:13:05Z</time>
      </trkpt>
      <trkpt lat="45.56963" lon="6.25738">
        <ele>295.6</ele>
        <time>2022-07-17T04:13:06Z</time>
      </trkpt>
      <trkpt lat="45.56959" lon="6.25729">
        <ele>295.6</ele>
        <time>2022-07-17T04:13:07Z</time>
      </trkpt>
      <trkpt lat="45.56955" lon="6.25721">
        <ele>295.6</ele>
        <time>2022-07-17T04:13:08Z</time>
      </trkpt>
      <trkpt lat="45.56951" lon="6.25713">
        <ele>295.6</ele>
        <time>2022-07-17T04:13:09Z</time>
      </trkpt>
      <trkpt lat="45.56947" lon="6.25705">
        <ele>295.6</ele>
        <time>2022-07-17T04:13:10Z</time>
      </trkpt>
      <trkpt lat="45.56942" lon="6.25698">
        <ele>296</ele>
        <time>2022-07-17T04:13:11Z</time>
      </trkpt>
      <trkpt lat="45.56938" lon="6.2569">
        <ele>296</ele>
        <time>2022-07-17T04:13:12Z</time>
      </trkpt>
      <trkpt lat="45.56933" lon="6.25683">
        <ele>296.2</ele>
        <time>2022-07-17T04:13:13Z</time>
      </trkpt>
      <trkpt lat="45.56927" lon="6.25676">
        <ele>296.2</ele>
        <time>2022-07-17T04:13:14Z</time>
      </trkpt>
      <trkpt lat="45.56922" lon="6.2567">
        <ele>296.2</ele>
        <time>2022-07-17T04:13:15Z</time>
      </trkpt>
      <trkpt lat="45.56916" lon="6.25663">
        <ele>296.2</ele>
        <time>2022-07-17T04:13:16Z</time>
      </trkpt>
      <trkpt lat="45.5691" lon="6.25657">
        <ele>296.4</ele>
        <time>2022-07-17T04:13:17Z</time>
      </trkpt>
      <trkpt lat="45.56905" lon="6.25651">
        <ele>296.4</ele>
        <time>2022-07-17T04:13:18Z</time>
      </trkpt>
      <trkpt lat="45.56899" lon="6.25644">
        <ele>296.4</ele>
        <time>2022-07-17T04:13:19Z</time>
      </trkpt>
      <trkpt lat="45.56893" lon="6.25638">
        <ele>296.4</ele>
        <time>2022-07-17T04:13:20Z</time>
      </trkpt>
      <trkpt lat="45.56887" lon="6.25632">
        <ele>296.4</ele>
        <time>2022-07-17T04:13:21Z</time>
      </trkpt>
      <trkpt lat="45.56881" lon="6.25625">
        <ele>296.4</ele>
        <time>2022-07-17T04:13:22Z</time>
      </trkpt>
      <trkpt lat="45.56874" lon="6.25619">
        <ele>296.4</ele>
        <time>2022-07-17T04:13:23Z</time>
      </trkpt>
      <trkpt lat="45.56868" lon="6.25613">
        <ele>296.4</ele>
        <time>2022-07-17T04:13:24Z</time>
      </trkpt>
      <trkpt lat="45.56862" lon="6.25606">
        <ele>296.4</ele>
        <time>2022-07-17T04:13:25Z</time>
      </trkpt>
      <trkpt lat="45.56856" lon="6.256">
        <ele>296.4</ele>
        <time>2022-07-17T04:13:26Z</time>
      </trkpt>
      <trkpt lat="45.5685" lon="6.25594">
        <ele>296.4</ele>
        <time>2022-07-17T04:13:27Z</time>
      </trkpt>
      <trkpt lat="45.56844" lon="6.25588">
        <ele>296.4</ele>
        <time>2022-07-17T04:13:28Z</time>
      </trkpt>
      <trkpt lat="45.56838" lon="6.25581">
        <ele>296.4</ele>
        <time>2022-07-17T04:13:29Z</time>
      </trkpt>
      <trkpt lat="45.56832" lon="6.25575">
        <ele>296.4</ele>
        <time>2022-07-17T04:13:30Z</time>
      </trkpt>
      <trkpt lat="45.56826" lon="6.25569">
        <ele>296.4</ele>
        <time>2022-07-17T04:13:31Z</time>
      </trkpt>
      <trkpt lat="45.5682" lon="6.25563">
        <ele>296.4</ele>
        <time>2022-07-17T04:13:32Z</time>
      </trkpt>
      <trkpt lat="45.56814" lon="6.25556">
        <ele>296.4</ele>
        <time>2022-07-17T04:13:33Z</time>
      </trkpt>
      <trkpt lat="45.56808" lon="6.2555">
        <ele>296.6</ele>
        <time>2022-07-17T04:13:34Z</time>
      </trkpt>
      <trkpt lat="45.56802" lon="6.25544">
        <ele>296.6</ele>
        <time>2022-07-17T04:13:35Z</time>
      </trkpt>
      <trkpt lat="45.56796" lon="6.25538">
        <ele>296.6</ele>
        <time>2022-07-17T04:13:36Z</time>
      </trkpt>
      <trkpt lat="45.5679" lon="6.25532">
        <ele>296.8</ele>
        <time>2022-07-17T04:13:37Z</time>
      </trkpt>
      <trkpt lat="45.56784" lon="6.25525">
        <ele>296.8</ele>
        <time>2022-07-17T04:13:38Z</time>
      </trkpt>
      <trkpt lat="45.56778" lon="6.25519">
        <ele>296.8</ele>
        <time>2022-07-17T04:13:39Z</time>
      </trkpt>
      <trkpt lat="45.56773" lon="6.25513">
        <ele>296.8</ele>
        <time>2022-07-17T04:13:40Z</time>
      </trkpt>
      <trkpt lat="45.56767" lon="6.25507">
        <ele>296.8</ele>
        <time>2022-07-17T04:13:41Z</time>
      </trkpt>
      <trkpt lat="45.56761" lon="6.25501">
        <ele>296.8</ele>
        <time>2022-07-17T04:13:42Z</time>
      </trkpt>
      <trkpt lat="45.56755" lon="6.25495">
        <ele>297</ele>
        <time>2022-07-17T04:13:43Z</time>
      </trkpt>
      <trkpt lat="45.56749" lon="6.25489">
        <ele>297</ele>
        <time>2022-07-17T04:13:44Z</time>
      </trkpt>
      <trkpt lat="45.56743" lon="6.25483">
        <ele>297</ele>
        <time>2022-07-17T04:13:45Z</time>
      </trkpt>
      <trkpt lat="45.56737" lon="6.25476">
        <ele>297</ele>
        <time>2022-07-17T04:13:46Z</time>
      </trkpt>
      <trkpt lat="45.56732" lon="6.2547">
        <ele>297</ele>
        <time>2022-07-17T04:13:47Z</time>
      </trkpt>
      <trkpt lat="45.56726" lon="6.25464">
        <ele>297</ele>
        <time>2022-07-17T04:13:48Z</time>
      </trkpt>
      <trkpt lat="45.5672" lon="6.25458">
        <ele>297</ele>
        <time>2022-07-17T04:13:49Z</time>
      </trkpt>
      <trkpt lat="45.56714" lon="6.25452">
        <ele>297.2</ele>
        <time>2022-07-17T04:13:50Z</time>
      </trkpt>
      <trkpt lat="45.56708" lon="6.25446">
        <ele>297.2</ele>
        <time>2022-07-17T04:13:51Z</time>
      </trkpt>
      <trkpt lat="45.56703" lon="6.25439">
        <ele>297.2</ele>
        <time>2022-07-17T04:13:52Z</time>
      </trkpt>
      <trkpt lat="45.56697" lon="6.25433">
        <ele>297.4</ele>
        <time>2022-07-17T04:13:53Z</time>
      </trkpt>
      <trkpt lat="45.56692" lon="6.25428">
        <ele>297.4</ele>
        <time>2022-07-17T04:13:54Z</time>
      </trkpt>
      <trkpt lat="45.56686" lon="6.25422">
        <ele>297.4</ele>
        <time>2022-07-17T04:13:55Z</time>
      </trkpt>
      <trkpt lat="45.56681" lon="6.25417">
        <ele>297.4</ele>
        <time>2022-07-17T04:13:56Z</time>
      </trkpt>
      <trkpt lat="45.56677" lon="6.25413">
        <ele>297.4</ele>
        <time>2022-07-17T04:13:57Z</time>
      </trkpt>
      <trkpt lat="45.56672" lon="6.25409">
        <ele>297.8</ele>
        <time>2022-07-17T04:13:58Z</time>
      </trkpt>
      <trkpt lat="45.56667" lon="6.25404">
        <ele>297.8</ele>
        <time>2022-07-17T04:13:59Z</time>
      </trkpt>
      <trkpt lat="45.56662" lon="6.25399">
        <ele>297.8</ele>
        <time>2022-07-17T04:14:00Z</time>
      </trkpt>
      <trkpt lat="45.56657" lon="6.25394">
        <ele>297.8</ele>
        <time>2022-07-17T04:14:01Z</time>
      </trkpt>
      <trkpt lat="45.56652" lon="6.25389">
        <ele>297.8</ele>
        <time>2022-07-17T04:14:02Z</time>
      </trkpt>
      <trkpt lat="45.56647" lon="6.25384">
        <ele>297.8</ele>
        <time>2022-07-17T04:14:03Z</time>
      </trkpt>
      <trkpt lat="45.56643" lon="6.25378">
        <ele>297.8</ele>
        <time>2022-07-17T04:14:04Z</time>
      </trkpt>
      <trkpt lat="45.56637" lon="6.25373">
        <ele>297.8</ele>
        <time>2022-07-17T04:14:05Z</time>
      </trkpt>
      <trkpt lat="45.56632" lon="6.25367">
        <ele>297.8</ele>
        <time>2022-07-17T04:14:06Z</time>
      </trkpt>
      <trkpt lat="45.56627" lon="6.25362">
        <ele>297.8</ele>
        <time>2022-07-17T04:14:07Z</time>
      </trkpt>
      <trkpt lat="45.56622" lon="6.25357">
        <ele>297.8</ele>
        <time>2022-07-17T04:14:08Z</time>
      </trkpt>
      <trkpt lat="45.56617" lon="6.25351">
        <ele>297.8</ele>
        <time>2022-07-17T04:14:09Z</time>
      </trkpt>
      <trkpt lat="45.56611" lon="6.25346">
        <ele>297.8</ele>
        <time>2022-07-17T04:14:10Z</time>
      </trkpt>
      <trkpt lat="45.56606" lon="6.2534">
        <ele>297.8</ele>
        <time>2022-07-17T04:14:11Z</time>
      </trkpt>
      <trkpt lat="45.56601" lon="6.25335">
        <ele>297.8</ele>
        <time>2022-07-17T04:14:12Z</time>
      </trkpt>
      <trkpt lat="45.56596" lon="6.25329">
        <ele>297.8</ele>
        <time>2022-07-17T04:14:13Z</time>
      </trkpt>
      <trkpt lat="45.56591" lon="6.25324">
        <ele>297.8</ele>
        <time>2022-07-17T04:14:14Z</time>
      </trkpt>
      <trkpt lat="45.56586" lon="6.25319">
        <ele>297.8</ele>
        <time>2022-07-17T04:14:15Z</time>
      </trkpt>
      <trkpt lat="45.56581" lon="6.25313">
        <ele>298</ele>
        <time>2022-07-17T04:14:16Z</time>
      </trkpt>
      <trkpt lat="45.56576" lon="6.25308">
        <ele>298</ele>
        <time>2022-07-17T04:14:17Z</time>
      </trkpt>
      <trkpt lat="45.56571" lon="6.25303">
        <ele>298.2</ele>
        <time>2022-07-17T04:14:18Z</time>
      </trkpt>
      <trkpt lat="45.56566" lon="6.25298">
        <ele>298.2</ele>
        <time>2022-07-17T04:14:19Z</time>
      </trkpt>
      <trkpt lat="45.56562" lon="6.25292">
        <ele>298.2</ele>
        <time>2022-07-17T04:14:20Z</time>
      </trkpt>
      <trkpt lat="45.56557" lon="6.25287">
        <ele>298.2</ele>
        <time>2022-07-17T04:14:21Z</time>
      </trkpt>
      <trkpt lat="45.56552" lon="6.25282">
        <ele>298.2</ele>
        <time>2022-07-17T04:14:22Z</time>
      </trkpt>
      <trkpt lat="45.56547" lon="6.25277">
        <ele>298.4</ele>
        <time>2022-07-17T04:14:23Z</time>
      </trkpt>
      <trkpt lat="45.56542" lon="6.25271">
        <ele>298.4</ele>
        <time>2022-07-17T04:14:24Z</time>
      </trkpt>
      <trkpt lat="45.56537" lon="6.25266">
        <ele>298.4</ele>
        <time>2022-07-17T04:14:25Z</time>
      </trkpt>
      <trkpt lat="45.56531" lon="6.25261">
        <ele>298.4</ele>
        <time>2022-07-17T04:14:26Z</time>
      </trkpt>
      <trkpt lat="45.56526" lon="6.25256">
        <ele>298.4</ele>
        <time>2022-07-17T04:14:27Z</time>
      </trkpt>
      <trkpt lat="45.5652" lon="6.25252">
        <ele>298.4</ele>
        <time>2022-07-17T04:14:28Z</time>
      </trkpt>
      <trkpt lat="45.56514" lon="6.25248">
        <ele>298.8</ele>
        <time>2022-07-17T04:14:29Z</time>
      </trkpt>
      <trkpt lat="45.56508" lon="6.25244">
        <ele>298.8</ele>
        <time>2022-07-17T04:14:30Z</time>
      </trkpt>
      <trkpt lat="45.56502" lon="6.25241">
        <ele>298.8</ele>
        <time>2022-07-17T04:14:31Z</time>
      </trkpt>
      <trkpt lat="45.56496" lon="6.25237">
        <ele>299</ele>
        <time>2022-07-17T04:14:32Z</time>
      </trkpt>
      <trkpt lat="45.5649" lon="6.25234">
        <ele>299</ele>
        <time>2022-07-17T04:14:33Z</time>
      </trkpt>
      <trkpt lat="45.56484" lon="6.25231">
        <ele>299</ele>
        <time>2022-07-17T04:14:34Z</time>
      </trkpt>
      <trkpt lat="45.56477" lon="6.25228">
        <ele>299</ele>
        <time>2022-07-17T04:14:35Z</time>
      </trkpt>
      <trkpt lat="45.56472" lon="6.25224">
        <ele>299</ele>
        <time>2022-07-17T04:14:36Z</time>
      </trkpt>
      <trkpt lat="45.56466" lon="6.25221">
        <ele>299</ele>
        <time>2022-07-17T04:14:37Z</time>
      </trkpt>
      <trkpt lat="45.5646" lon="6.25217">
        <ele>299.2</ele>
        <time>2022-07-17T04:14:38Z</time>
      </trkpt>
      <trkpt lat="45.56454" lon="6.25214">
        <ele>299.2</ele>
        <time>2022-07-17T04:14:39Z</time>
      </trkpt>
      <trkpt lat="45.56448" lon="6.25211">
        <ele>299.2</ele>
        <time>2022-07-17T04:14:40Z</time>
      </trkpt>
      <trkpt lat="45.56441" lon="6.25208">
        <ele>299.2</ele>
        <time>2022-07-17T04:14:41Z</time>
      </trkpt>
      <trkpt lat="45.56435" lon="6.25204">
        <ele>299.4</ele>
        <time>2022-07-17T04:14:42Z</time>
      </trkpt>
      <trkpt lat="45.56429" lon="6.25201">
        <ele>299.4</ele>
        <time>2022-07-17T04:14:43Z</time>
      </trkpt>
      <trkpt lat="45.56423" lon="6.25198">
        <ele>299.4</ele>
        <time>2022-07-17T04:14:44Z</time>
      </trkpt>
      <trkpt lat="45.56417" lon="6.25194">
        <ele>299.4</ele>
        <time>2022-07-17T04:14:45Z</time>
      </trkpt>
      <trkpt lat="45.56412" lon="6.25191">
        <ele>299.4</ele>
        <time>2022-07-17T04:14:46Z</time>
      </trkpt>
      <trkpt lat="45.56406" lon="6.25187">
        <ele>299.6</ele>
        <time>2022-07-17T04:14:47Z</time>
      </trkpt>
      <trkpt lat="45.564" lon="6.25184">
        <ele>299.6</ele>
        <time>2022-07-17T04:14:48Z</time>
      </trkpt>
      <trkpt lat="45.56394" lon="6.25181">
        <ele>299.6</ele>
        <time>2022-07-17T04:14:49Z</time>
      </trkpt>
      <trkpt lat="45.56388" lon="6.25177">
        <ele>299.6</ele>
        <time>2022-07-17T04:14:50Z</time>
      </trkpt>
      <trkpt lat="45.56382" lon="6.25174">
        <ele>299.8</ele>
        <time>2022-07-17T04:14:51Z</time>
      </trkpt>
      <trkpt lat="45.56376" lon="6.25171">
        <ele>299.8</ele>
        <time>2022-07-17T04:14:52Z</time>
      </trkpt>
      <trkpt lat="45.56371" lon="6.25168">
        <ele>299.8</ele>
        <time>2022-07-17T04:14:53Z</time>
      </trkpt>
      <trkpt lat="45.56365" lon="6.25164">
        <ele>299.8</ele>
        <time>2022-07-17T04:14:54Z</time>
      </trkpt>
      <trkpt lat="45.56359" lon="6.25161">
        <ele>299.8</ele>
        <time>2022-07-17T04:14:55Z</time>
      </trkpt>
      <trkpt lat="45.56353" lon="6.25157">
        <ele>299.8</ele>
        <time>2022-07-17T04:14:56Z</time>
      </trkpt>
      <trkpt lat="45.56347" lon="6.25154">
        <ele>299.8</ele>
        <time>2022-07-17T04:14:57Z</time>
      </trkpt>
      <trkpt lat="45.56341" lon="6.25151">
        <ele>299.8</ele>
        <time>2022-07-17T04:14:58Z</time>
      </trkpt>
      <trkpt lat="45.56335" lon="6.25148">
        <ele>299.8</ele>
        <time>2022-07-17T04:14:59Z</time>
      </trkpt>
      <trkpt lat="45.56329" lon="6.25145">
        <ele>300.2</ele>
        <time>2022-07-17T04:15:00Z</time>
      </trkpt>
      <trkpt lat="45.56323" lon="6.25142">
        <ele>300.2</ele>
        <time>2022-07-17T04:15:01Z</time>
      </trkpt>
      <trkpt lat="45.56317" lon="6.25138">
        <ele>300.2</ele>
        <time>2022-07-17T04:15:02Z</time>
      </trkpt>
      <trkpt lat="45.56311" lon="6.25135">
        <ele>300.2</ele>
        <time>2022-07-17T04:15:03Z</time>
      </trkpt>
      <trkpt lat="45.56306" lon="6.25132">
        <ele>300.4</ele>
        <time>2022-07-17T04:15:04Z</time>
      </trkpt>
      <trkpt lat="45.563" lon="6.25129">
        <ele>300.4</ele>
        <time>2022-07-17T04:15:05Z</time>
      </trkpt>
      <trkpt lat="45.56294" lon="6.25126">
        <ele>300.4</ele>
        <time>2022-07-17T04:15:06Z</time>
      </trkpt>
      <trkpt lat="45.56288" lon="6.25123">
        <ele>300.8</ele>
        <time>2022-07-17T04:15:07Z</time>
      </trkpt>
      <trkpt lat="45.56283" lon="6.2512">
        <ele>300.8</ele>
        <time>2022-07-17T04:15:08Z</time>
      </trkpt>
      <trkpt lat="45.56277" lon="6.25116">
        <ele>300.8</ele>
        <time>2022-07-17T04:15:09Z</time>
      </trkpt>
      <trkpt lat="45.56271" lon="6.25113">
        <ele>300.8</ele>
        <time>2022-07-17T04:15:10Z</time>
      </trkpt>
      <trkpt lat="45.56265" lon="6.2511">
        <ele>300.8</ele>
        <time>2022-07-17T04:15:11Z</time>
      </trkpt>
      <trkpt lat="45.56259" lon="6.25107">
        <ele>300.8</ele>
        <time>2022-07-17T04:15:12Z</time>
      </trkpt>
      <trkpt lat="45.56253" lon="6.25105">
        <ele>301</ele>
        <time>2022-07-17T04:15:13Z</time>
      </trkpt>
      <trkpt lat="45.56247" lon="6.25103">
        <ele>301</ele>
        <time>2022-07-17T04:15:14Z</time>
      </trkpt>
      <trkpt lat="45.56241" lon="6.25101">
        <ele>301</ele>
        <time>2022-07-17T04:15:15Z</time>
      </trkpt>
      <trkpt lat="45.56235" lon="6.251">
        <ele>301.2</ele>
        <time>2022-07-17T04:15:16Z</time>
      </trkpt>
      <trkpt lat="45.56229" lon="6.25099">
        <ele>301.2</ele>
        <time>2022-07-17T04:15:17Z</time>
      </trkpt>
      <trkpt lat="45.56223" lon="6.25099">
        <ele>301.2</ele>
        <time>2022-07-17T04:15:18Z</time>
      </trkpt>
      <trkpt lat="45.56217" lon="6.25099">
        <ele>301.4</ele>
        <time>2022-07-17T04:15:19Z</time>
      </trkpt>
      <trkpt lat="45.56211" lon="6.25099">
        <ele>301.4</ele>
        <time>2022-07-17T04:15:20Z</time>
      </trkpt>
      <trkpt lat="45.56205" lon="6.25099">
        <ele>301.4</ele>
        <time>2022-07-17T04:15:21Z</time>
      </trkpt>
      <trkpt lat="45.56198" lon="6.25098">
        <ele>301.4</ele>
        <time>2022-07-17T04:15:22Z</time>
      </trkpt>
      <trkpt lat="45.56192" lon="6.25098">
        <ele>301.4</ele>
        <time>2022-07-17T04:15:23Z</time>
      </trkpt>
      <trkpt lat="45.56186" lon="6.25097">
        <ele>301.4</ele>
        <time>2022-07-17T04:15:24Z</time>
      </trkpt>
      <trkpt lat="45.5618" lon="6.25097">
        <ele>301.4</ele>
        <time>2022-07-17T04:15:25Z</time>
      </trkpt>
      <trkpt lat="45.56174" lon="6.25096">
        <ele>301.4</ele>
        <time>2022-07-17T04:15:26Z</time>
      </trkpt>
      <trkpt lat="45.56168" lon="6.25095">
        <ele>301.4</ele>
        <time>2022-07-17T04:15:27Z</time>
      </trkpt>
      <trkpt lat="45.56162" lon="6.25095">
        <ele>301.4</ele>
        <time>2022-07-17T04:15:28Z</time>
      </trkpt>
      <trkpt lat="45.56155" lon="6.25094">
        <ele>301.4</ele>
        <time>2022-07-17T04:15:29Z</time>
      </trkpt>
      <trkpt lat="45.56149" lon="6.25094">
        <ele>301.4</ele>
        <time>2022-07-17T04:15:30Z</time>
      </trkpt>
      <trkpt lat="45.56143" lon="6.25093">
        <ele>301.4</ele>
        <time>2022-07-17T04:15:31Z</time>
      </trkpt>
      <trkpt lat="45.56137" lon="6.25093">
        <ele>301.4</ele>
        <time>2022-07-17T04:15:32Z</time>
      </trkpt>
      <trkpt lat="45.56131" lon="6.25092">
        <ele>301.4</ele>
        <time>2022-07-17T04:15:33Z</time>
      </trkpt>
      <trkpt lat="45.56125" lon="6.25091">
        <ele>301.4</ele>
        <time>2022-07-17T04:15:34Z</time>
      </trkpt>
      <trkpt lat="45.56119" lon="6.25091">
        <ele>301.4</ele>
        <time>2022-07-17T04:15:35Z</time>
      </trkpt>
      <trkpt lat="45.56113" lon="6.2509">
        <ele>301.4</ele>
        <time>2022-07-17T04:15:36Z</time>
      </trkpt>
      <trkpt lat="45.56106" lon="6.2509">
        <ele>301.4</ele>
        <time>2022-07-17T04:15:37Z</time>
      </trkpt>
      <trkpt lat="45.561" lon="6.25089">
        <ele>301.4</ele>
        <time>2022-07-17T04:15:38Z</time>
      </trkpt>
      <trkpt lat="45.56094" lon="6.25089">
        <ele>301.8</ele>
        <time>2022-07-17T04:15:39Z</time>
      </trkpt>
      <trkpt lat="45.56088" lon="6.25088">
        <ele>301.8</ele>
        <time>2022-07-17T04:15:41Z</time>
      </trkpt>
      <trkpt lat="45.56081" lon="6.25087">
        <ele>301.8</ele>
        <time>2022-07-17T04:15:42Z</time>
      </trkpt>
      <trkpt lat="45.56075" lon="6.25087">
        <ele>301.8</ele>
        <time>2022-07-17T04:15:43Z</time>
      </trkpt>
      <trkpt lat="45.56069" lon="6.25086">
        <ele>302</ele>
        <time>2022-07-17T04:15:44Z</time>
      </trkpt>
      <trkpt lat="45.56063" lon="6.25086">
        <ele>302</ele>
        <time>2022-07-17T04:15:45Z</time>
      </trkpt>
      <trkpt lat="45.56057" lon="6.25085">
        <ele>302</ele>
        <time>2022-07-17T04:15:46Z</time>
      </trkpt>
      <trkpt lat="45.56051" lon="6.25085">
        <ele>302</ele>
        <time>2022-07-17T04:15:47Z</time>
      </trkpt>
      <trkpt lat="45.56044" lon="6.25084">
        <ele>302.2</ele>
        <time>2022-07-17T04:15:48Z</time>
      </trkpt>
      <trkpt lat="45.56038" lon="6.25084">
        <ele>302.2</ele>
        <time>2022-07-17T04:15:49Z</time>
      </trkpt>
      <trkpt lat="45.56032" lon="6.25083">
        <ele>302.2</ele>
        <time>2022-07-17T04:15:50Z</time>
      </trkpt>
      <trkpt lat="45.56026" lon="6.25083">
        <ele>302.2</ele>
        <time>2022-07-17T04:15:51Z</time>
      </trkpt>
      <trkpt lat="45.5602" lon="6.25082">
        <ele>302.2</ele>
        <time>2022-07-17T04:15:52Z</time>
      </trkpt>
      <trkpt lat="45.56014" lon="6.25082">
        <ele>302.2</ele>
        <time>2022-07-17T04:15:53Z</time>
      </trkpt>
      <trkpt lat="45.56007" lon="6.25081">
        <ele>302.2</ele>
        <time>2022-07-17T04:15:54Z</time>
      </trkpt>
      <trkpt lat="45.56001" lon="6.2508">
        <ele>302.2</ele>
        <time>2022-07-17T04:15:55Z</time>
      </trkpt>
      <trkpt lat="45.55995" lon="6.2508">
        <ele>302.4</ele>
        <time>2022-07-17T04:15:56Z</time>
      </trkpt>
      <trkpt lat="45.55988" lon="6.25079">
        <ele>302.4</ele>
        <time>2022-07-17T04:15:57Z</time>
      </trkpt>
      <trkpt lat="45.55982" lon="6.25079">
        <ele>302.4</ele>
        <time>2022-07-17T04:15:58Z</time>
      </trkpt>
      <trkpt lat="45.55975" lon="6.25078">
        <ele>302.4</ele>
        <time>2022-07-17T04:15:59Z</time>
      </trkpt>
      <trkpt lat="45.55969" lon="6.25078">
        <ele>302.4</ele>
        <time>2022-07-17T04:16:00Z</time>
      </trkpt>
      <trkpt lat="45.55962" lon="6.25078">
        <ele>302.4</ele>
        <time>2022-07-17T04:16:01Z</time>
      </trkpt>
      <trkpt lat="45.55956" lon="6.25077">
        <ele>302.4</ele>
        <time>2022-07-17T04:16:02Z</time>
      </trkpt>
      <trkpt lat="45.5595" lon="6.25077">
        <ele>302.4</ele>
        <time>2022-07-17T04:16:03Z</time>
      </trkpt>
      <trkpt lat="45.55943" lon="6.25077">
        <ele>302.4</ele>
        <time>2022-07-17T04:16:04Z</time>
      </trkpt>
      <trkpt lat="45.55937" lon="6.25077">
        <ele>302.6</ele>
        <time>2022-07-17T04:16:05Z</time>
      </trkpt>
      <trkpt lat="45.55931" lon="6.25077">
        <ele>302.6</ele>
        <time>2022-07-17T04:16:06Z</time>
      </trkpt>
      <trkpt lat="45.55925" lon="6.25078">
        <ele>303</ele>
        <time>2022-07-17T04:16:07Z</time>
      </trkpt>
      <trkpt lat="45.55918" lon="6.25079">
        <ele>303</ele>
        <time>2022-07-17T04:16:08Z</time>
      </trkpt>
      <trkpt lat="45.55912" lon="6.2508">
        <ele>303</ele>
        <time>2022-07-17T04:16:09Z</time>
      </trkpt>
      <trkpt lat="45.55906" lon="6.25082">
        <ele>303</ele>
        <time>2022-07-17T04:16:10Z</time>
      </trkpt>
      <trkpt lat="45.559" lon="6.25084">
        <ele>303</ele>
        <time>2022-07-17T04:16:11Z</time>
      </trkpt>
      <trkpt lat="45.55894" lon="6.25086">
        <ele>303</ele>
        <time>2022-07-17T04:16:12Z</time>
      </trkpt>
      <trkpt lat="45.55888" lon="6.25089">
        <ele>303</ele>
        <time>2022-07-17T04:16:13Z</time>
      </trkpt>
      <trkpt lat="45.55882" lon="6.25092">
        <ele>303</ele>
        <time>2022-07-17T04:16:14Z</time>
      </trkpt>
      <trkpt lat="45.55876" lon="6.25096">
        <ele>303</ele>
        <time>2022-07-17T04:16:15Z</time>
      </trkpt>
      <trkpt lat="45.55871" lon="6.251">
        <ele>303.2</ele>
        <time>2022-07-17T04:16:16Z</time>
      </trkpt>
      <trkpt lat="45.55865" lon="6.25104">
        <ele>303.2</ele>
        <time>2022-07-17T04:16:17Z</time>
      </trkpt>
      <trkpt lat="45.55859" lon="6.25108">
        <ele>303.2</ele>
        <time>2022-07-17T04:16:18Z</time>
      </trkpt>
      <trkpt lat="45.55854" lon="6.25113">
        <ele>303.2</ele>
        <time>2022-07-17T04:16:19Z</time>
      </trkpt>
      <trkpt lat="45.55849" lon="6.25118">
        <ele>303.2</ele>
        <time>2022-07-17T04:16:20Z</time>
      </trkpt>
      <trkpt lat="45.55843" lon="6.25123">
        <ele>303.2</ele>
        <time>2022-07-17T04:16:21Z</time>
      </trkpt>
      <trkpt lat="45.55838" lon="6.25129">
        <ele>303.4</ele>
        <time>2022-07-17T04:16:22Z</time>
      </trkpt>
      <trkpt lat="45.55833" lon="6.25135">
        <ele>303.4</ele>
        <time>2022-07-17T04:16:23Z</time>
      </trkpt>
      <trkpt lat="45.55828" lon="6.25141">
        <ele>303.4</ele>
        <time>2022-07-17T04:16:24Z</time>
      </trkpt>
      <trkpt lat="45.55823" lon="6.25147">
        <ele>303.4</ele>
        <time>2022-07-17T04:16:25Z</time>
      </trkpt>
      <trkpt lat="45.55818" lon="6.25153">
        <ele>303.6</ele>
        <time>2022-07-17T04:16:26Z</time>
      </trkpt>
      <trkpt lat="45.55814" lon="6.25159">
        <ele>303.6</ele>
        <time>2022-07-17T04:16:27Z</time>
      </trkpt>
      <trkpt lat="45.55809" lon="6.25166">
        <ele>303.6</ele>
        <time>2022-07-17T04:16:28Z</time>
      </trkpt>
      <trkpt lat="45.55805" lon="6.25173">
        <ele>303.6</ele>
        <time>2022-07-17T04:16:29Z</time>
      </trkpt>
      <trkpt lat="45.55801" lon="6.25179">
        <ele>303.6</ele>
        <time>2022-07-17T04:16:30Z</time>
      </trkpt>
      <trkpt lat="45.55796" lon="6.25186">
        <ele>303.8</ele>
        <time>2022-07-17T04:16:31Z</time>
      </trkpt>
      <trkpt lat="45.55792" lon="6.25192">
        <ele>303.8</ele>
        <time>2022-07-17T04:16:32Z</time>
      </trkpt>
      <trkpt lat="45.55788" lon="6.25198">
        <ele>303.8</ele>
        <time>2022-07-17T04:16:33Z</time>
      </trkpt>
      <trkpt lat="45.55784" lon="6.25204">
        <ele>304</ele>
        <time>2022-07-17T04:16:34Z</time>
      </trkpt>
      <trkpt lat="45.55779" lon="6.2521">
        <ele>304</ele>
        <time>2022-07-17T04:16:35Z</time>
      </trkpt>
      <trkpt lat="45.55775" lon="6.25216">
        <ele>304</ele>
        <time>2022-07-17T04:16:36Z</time>
      </trkpt>
      <trkpt lat="45.55771" lon="6.25222">
        <ele>304</ele>
        <time>2022-07-17T04:16:37Z</time>
      </trkpt>
      <trkpt lat="45.55767" lon="6.25228">
        <ele>304</ele>
        <time>2022-07-17T04:16:38Z</time>
      </trkpt>
      <trkpt lat="45.55763" lon="6.25233">
        <ele>304.2</ele>
        <time>2022-07-17T04:16:39Z</time>
      </trkpt>
      <trkpt lat="45.55759" lon="6.25238">
        <ele>304.2</ele>
        <time>2022-07-17T04:16:40Z</time>
      </trkpt>
      <trkpt lat="45.55755" lon="6.25243">
        <ele>304.4</ele>
        <time>2022-07-17T04:16:41Z</time>
      </trkpt>
      <trkpt lat="45.5575" lon="6.25247">
        <ele>304.4</ele>
        <time>2022-07-17T04:16:42Z</time>
      </trkpt>
      <trkpt lat="45.55746" lon="6.2525">
        <ele>304.8</ele>
        <time>2022-07-17T04:16:43Z</time>
      </trkpt>
      <trkpt lat="45.55741" lon="6.25251">
        <ele>304.8</ele>
        <time>2022-07-17T04:16:44Z</time>
      </trkpt>
      <trkpt lat="45.55735" lon="6.2525">
        <ele>305</ele>
        <time>2022-07-17T04:16:45Z</time>
      </trkpt>
      <trkpt lat="45.5573" lon="6.25249">
        <ele>305</ele>
        <time>2022-07-17T04:16:46Z</time>
      </trkpt>
      <trkpt lat="45.55725" lon="6.25247">
        <ele>305</ele>
        <time>2022-07-17T04:16:47Z</time>
      </trkpt>
      <trkpt lat="45.5572" lon="6.25246">
        <ele>305.2</ele>
        <time>2022-07-17T04:16:48Z</time>
      </trkpt>
      <trkpt lat="45.55715" lon="6.25247">
        <ele>305.2</ele>
        <time>2022-07-17T04:16:49Z</time>
      </trkpt>
      <trkpt lat="45.5571" lon="6.2525">
        <ele>305.2</ele>
        <time>2022-07-17T04:16:50Z</time>
      </trkpt>
      <trkpt lat="45.55706" lon="6.25255">
        <ele>305.2</ele>
        <time>2022-07-17T04:16:51Z</time>
      </trkpt>
      <trkpt lat="45.55703" lon="6.25261">
        <ele>305.2</ele>
        <time>2022-07-17T04:16:52Z</time>
      </trkpt>
      <trkpt lat="45.55701" lon="6.25269">
        <ele>305.2</ele>
        <time>2022-07-17T04:16:53Z</time>
      </trkpt>
      <trkpt lat="45.557" lon="6.25276">
        <ele>305.2</ele>
        <time>2022-07-17T04:16:54Z</time>
      </trkpt>
      <trkpt lat="45.55701" lon="6.25284">
        <ele>305.2</ele>
        <time>2022-07-17T04:16:55Z</time>
      </trkpt>
      <trkpt lat="45.55703" lon="6.25292">
        <ele>305.2</ele>
        <time>2022-07-17T04:16:56Z</time>
      </trkpt>
      <trkpt lat="45.55705" lon="6.25301">
        <ele>305.2</ele>
        <time>2022-07-17T04:16:57Z</time>
      </trkpt>
      <trkpt lat="45.55708" lon="6.25309">
        <ele>305.4</ele>
        <time>2022-07-17T04:16:58Z</time>
      </trkpt>
      <trkpt lat="45.55709" lon="6.25319">
        <ele>305.4</ele>
        <time>2022-07-17T04:16:59Z</time>
      </trkpt>
      <trkpt lat="45.55709" lon="6.25329">
        <ele>305.4</ele>
        <time>2022-07-17T04:17:00Z</time>
      </trkpt>
      <trkpt lat="45.55709" lon="6.25339">
        <ele>305.4</ele>
        <time>2022-07-17T04:17:01Z</time>
      </trkpt>
      <trkpt lat="45.55707" lon="6.25348">
        <ele>305.4</ele>
        <time>2022-07-17T04:17:02Z</time>
      </trkpt>
      <trkpt lat="45.55705" lon="6.25358">
        <ele>305.4</ele>
        <time>2022-07-17T04:17:03Z</time>
      </trkpt>
      <trkpt lat="45.55703" lon="6.25367">
        <ele>305.4</ele>
        <time>2022-07-17T04:17:04Z</time>
      </trkpt>
      <trkpt lat="45.55699" lon="6.25376">
        <ele>305.4</ele>
        <time>2022-07-17T04:17:05Z</time>
      </trkpt>
      <trkpt lat="45.55696" lon="6.25385">
        <ele>305.8</ele>
        <time>2022-07-17T04:17:06Z</time>
      </trkpt>
      <trkpt lat="45.55693" lon="6.25392">
        <ele>305.8</ele>
        <time>2022-07-17T04:17:07Z</time>
      </trkpt>
      <trkpt lat="45.55688" lon="6.254">
        <ele>305.8</ele>
        <time>2022-07-17T04:17:08Z</time>
      </trkpt>
      <trkpt lat="45.55685" lon="6.25407">
        <ele>306</ele>
        <time>2022-07-17T04:17:09Z</time>
      </trkpt>
      <trkpt lat="45.5568" lon="6.25414">
        <ele>306</ele>
        <time>2022-07-17T04:17:10Z</time>
      </trkpt>
      <trkpt lat="45.55676" lon="6.25421">
        <ele>306</ele>
        <time>2022-07-17T04:17:11Z</time>
      </trkpt>
      <trkpt lat="45.55672" lon="6.25428">
        <ele>306.2</ele>
        <time>2022-07-17T04:17:12Z</time>
      </trkpt>
      <trkpt lat="45.55668" lon="6.25435">
        <ele>306.2</ele>
        <time>2022-07-17T04:17:13Z</time>
      </trkpt>
      <trkpt lat="45.55664" lon="6.25441">
        <ele>306.4</ele>
        <time>2022-07-17T04:17:14Z</time>
      </trkpt>
      <trkpt lat="45.5566" lon="6.25448">
        <ele>306.4</ele>
        <time>2022-07-17T04:17:15Z</time>
      </trkpt>
      <trkpt lat="45.55657" lon="6.25454">
        <ele>306.4</ele>
        <time>2022-07-17T04:17:16Z</time>
      </trkpt>
      <trkpt lat="45.55653" lon="6.25461">
        <ele>306.6</ele>
        <time>2022-07-17T04:17:17Z</time>
      </trkpt>
      <trkpt lat="45.55649" lon="6.25467">
        <ele>306.6</ele>
        <time>2022-07-17T04:17:18Z</time>
      </trkpt>
      <trkpt lat="45.55646" lon="6.25473">
        <ele>307</ele>
        <time>2022-07-17T04:17:19Z</time>
      </trkpt>
      <trkpt lat="45.55642" lon="6.25479">
        <ele>307</ele>
        <time>2022-07-17T04:17:20Z</time>
      </trkpt>
      <trkpt lat="45.55639" lon="6.25485">
        <ele>307.2</ele>
        <time>2022-07-17T04:17:21Z</time>
      </trkpt>
      <trkpt lat="45.55635" lon="6.25492">
        <ele>307.2</ele>
        <time>2022-07-17T04:17:22Z</time>
      </trkpt>
      <trkpt lat="45.55631" lon="6.25498">
        <ele>307.4</ele>
        <time>2022-07-17T04:17:23Z</time>
      </trkpt>
      <trkpt lat="45.55628" lon="6.25504">
        <ele>307.4</ele>
        <time>2022-07-17T04:17:24Z</time>
      </trkpt>
      <trkpt lat="45.55624" lon="6.2551">
        <ele>307.4</ele>
        <time>2022-07-17T04:17:25Z</time>
      </trkpt>
      <trkpt lat="45.5562" lon="6.25517">
        <ele>307.8</ele>
        <time>2022-07-17T04:17:26Z</time>
      </trkpt>
      <trkpt lat="45.55617" lon="6.25523">
        <ele>307.8</ele>
        <time>2022-07-17T04:17:27Z</time>
      </trkpt>
      <trkpt lat="45.55613" lon="6.25529">
        <ele>308</ele>
        <time>2022-07-17T04:17:28Z</time>
      </trkpt>
      <trkpt lat="45.55609" lon="6.25535">
        <ele>308</ele>
        <time>2022-07-17T04:17:29Z</time>
      </trkpt>
      <trkpt lat="45.55606" lon="6.25542">
        <ele>308</ele>
        <time>2022-07-17T04:17:30Z</time>
      </trkpt>
      <trkpt lat="45.55602" lon="6.25548">
        <ele>308</ele>
        <time>2022-07-17T04:17:31Z</time>
      </trkpt>
      <trkpt lat="45.55599" lon="6.25554">
        <ele>308</ele>
        <time>2022-07-17T04:17:32Z</time>
      </trkpt>
      <trkpt lat="45.55595" lon="6.2556">
        <ele>308</ele>
        <time>2022-07-17T04:17:33Z</time>
      </trkpt>
      <trkpt lat="45.55592" lon="6.25566">
        <ele>308</ele>
        <time>2022-07-17T04:17:34Z</time>
      </trkpt>
      <trkpt lat="45.55588" lon="6.25571">
        <ele>308</ele>
        <time>2022-07-17T04:17:35Z</time>
      </trkpt>
      <trkpt lat="45.55585" lon="6.25575">
        <ele>308</ele>
        <time>2022-07-17T04:17:36Z</time>
      </trkpt>
      <trkpt lat="45.5558" lon="6.25579">
        <ele>308</ele>
        <time>2022-07-17T04:17:37Z</time>
      </trkpt>
      <trkpt lat="45.55576" lon="6.25582">
        <ele>308</ele>
        <time>2022-07-17T04:17:38Z</time>
      </trkpt>
      <trkpt lat="45.55571" lon="6.25584">
        <ele>307.8</ele>
        <time>2022-07-17T04:17:39Z</time>
      </trkpt>
      <trkpt lat="45.55565" lon="6.25585">
        <ele>307.6</ele>
        <time>2022-07-17T04:17:40Z</time>
      </trkpt>
      <trkpt lat="45.55561" lon="6.25583">
        <ele>307.6</ele>
        <time>2022-07-17T04:17:41Z</time>
      </trkpt>
      <trkpt lat="45.55555" lon="6.25581">
        <ele>307.6</ele>
        <time>2022-07-17T04:17:42Z</time>
      </trkpt>
      <trkpt lat="45.55549" lon="6.25581">
        <ele>307.6</ele>
        <time>2022-07-17T04:17:43Z</time>
      </trkpt>
      <trkpt lat="45.55544" lon="6.25583">
        <ele>307.6</ele>
        <time>2022-07-17T04:17:44Z</time>
      </trkpt>
      <trkpt lat="45.55539" lon="6.25587">
        <ele>307.6</ele>
        <time>2022-07-17T04:17:45Z</time>
      </trkpt>
      <trkpt lat="45.55533" lon="6.25591">
        <ele>307.6</ele>
        <time>2022-07-17T04:17:46Z</time>
      </trkpt>
      <trkpt lat="45.55528" lon="6.25593">
        <ele>307.2</ele>
        <time>2022-07-17T04:17:47Z</time>
      </trkpt>
      <trkpt lat="45.55522" lon="6.25593">
        <ele>307</ele>
        <time>2022-07-17T04:17:48Z</time>
      </trkpt>
      <trkpt lat="45.55516" lon="6.25589">
        <ele>307</ele>
        <time>2022-07-17T04:17:49Z</time>
      </trkpt>
      <trkpt lat="45.55511" lon="6.25583">
        <ele>306.6</ele>
        <time>2022-07-17T04:17:50Z</time>
      </trkpt>
      <trkpt lat="45.55506" lon="6.25575">
        <ele>306.6</ele>
        <time>2022-07-17T04:17:51Z</time>
      </trkpt>
      <trkpt lat="45.55501" lon="6.25567">
        <ele>306.2</ele>
        <time>2022-07-17T04:17:52Z</time>
      </trkpt>
      <trkpt lat="45.55496" lon="6.25559">
        <ele>306.2</ele>
        <time>2022-07-17T04:17:53Z</time>
      </trkpt>
      <trkpt lat="45.5549" lon="6.25551">
        <ele>306</ele>
        <time>2022-07-17T04:17:54Z</time>
      </trkpt>
      <trkpt lat="45.55484" lon="6.25545">
        <ele>306</ele>
        <time>2022-07-17T04:17:55Z</time>
      </trkpt>
      <trkpt lat="45.55477" lon="6.25539">
        <ele>305.6</ele>
        <time>2022-07-17T04:17:56Z</time>
      </trkpt>
      <trkpt lat="45.5547" lon="6.25534">
        <ele>305.6</ele>
        <time>2022-07-17T04:17:57Z</time>
      </trkpt>
      <trkpt lat="45.55464" lon="6.25528">
        <ele>305.4</ele>
        <time>2022-07-17T04:17:58Z</time>
      </trkpt>
      <trkpt lat="45.55456" lon="6.25524">
        <ele>305.2</ele>
        <time>2022-07-17T04:17:59Z</time>
      </trkpt>
      <trkpt lat="45.5545" lon="6.25519">
        <ele>305</ele>
        <time>2022-07-17T04:18:00Z</time>
      </trkpt>
      <trkpt lat="45.55443" lon="6.25514">
        <ele>305</ele>
        <time>2022-07-17T04:18:01Z</time>
      </trkpt>
      <trkpt lat="45.55436" lon="6.2551">
        <ele>304.6</ele>
        <time>2022-07-17T04:18:02Z</time>
      </trkpt>
      <trkpt lat="45.5543" lon="6.25505">
        <ele>304.6</ele>
        <time>2022-07-17T04:18:03Z</time>
      </trkpt>
      <trkpt lat="45.55423" lon="6.25501">
        <ele>304.6</ele>
        <time>2022-07-17T04:18:04Z</time>
      </trkpt>
      <trkpt lat="45.55417" lon="6.25497">
        <ele>304.4</ele>
        <time>2022-07-17T04:18:05Z</time>
      </trkpt>
      <trkpt lat="45.55411" lon="6.25494">
        <ele>304.4</ele>
        <time>2022-07-17T04:18:06Z</time>
      </trkpt>
      <trkpt lat="45.55405" lon="6.2549">
        <ele>304.4</ele>
        <time>2022-07-17T04:18:07Z</time>
      </trkpt>
      <trkpt lat="45.55399" lon="6.25485">
        <ele>304.2</ele>
        <time>2022-07-17T04:18:08Z</time>
      </trkpt>
      <trkpt lat="45.55393" lon="6.25481">
        <ele>304.2</ele>
        <time>2022-07-17T04:18:09Z</time>
      </trkpt>
      <trkpt lat="45.55387" lon="6.25477">
        <ele>304.2</ele>
        <time>2022-07-17T04:18:10Z</time>
      </trkpt>
      <trkpt lat="45.55382" lon="6.25473">
        <ele>304.2</ele>
        <time>2022-07-17T04:18:11Z</time>
      </trkpt>
      <trkpt lat="45.55376" lon="6.25469">
        <ele>304.4</ele>
        <time>2022-07-17T04:18:12Z</time>
      </trkpt>
      <trkpt lat="45.55371" lon="6.25465">
        <ele>304.4</ele>
        <time>2022-07-17T04:18:13Z</time>
      </trkpt>
      <trkpt lat="45.55365" lon="6.25461">
        <ele>304.4</ele>
        <time>2022-07-17T04:18:14Z</time>
      </trkpt>
      <trkpt lat="45.5536" lon="6.25457">
        <ele>304.4</ele>
        <time>2022-07-17T04:18:15Z</time>
      </trkpt>
      <trkpt lat="45.55354" lon="6.25453">
        <ele>304.4</ele>
        <time>2022-07-17T04:18:16Z</time>
      </trkpt>
      <trkpt lat="45.55348" lon="6.25449">
        <ele>304.4</ele>
        <time>2022-07-17T04:18:17Z</time>
      </trkpt>
      <trkpt lat="45.55343" lon="6.25446">
        <ele>304.8</ele>
        <time>2022-07-17T04:18:18Z</time>
      </trkpt>
      <trkpt lat="45.55337" lon="6.25442">
        <ele>304.8</ele>
        <time>2022-07-17T04:18:19Z</time>
      </trkpt>
      <trkpt lat="45.55332" lon="6.25439">
        <ele>305</ele>
        <time>2022-07-17T04:18:20Z</time>
      </trkpt>
      <trkpt lat="45.55326" lon="6.25435">
        <ele>305</ele>
        <time>2022-07-17T04:18:21Z</time>
      </trkpt>
      <trkpt lat="45.55321" lon="6.25431">
        <ele>305</ele>
        <time>2022-07-17T04:18:22Z</time>
      </trkpt>
      <trkpt lat="45.55316" lon="6.25428">
        <ele>305.2</ele>
        <time>2022-07-17T04:18:23Z</time>
      </trkpt>
      <trkpt lat="45.55312" lon="6.25424">
        <ele>305.2</ele>
        <time>2022-07-17T04:18:24Z</time>
      </trkpt>
      <trkpt lat="45.55307" lon="6.25421">
        <ele>305.6</ele>
        <time>2022-07-17T04:18:25Z</time>
      </trkpt>
      <trkpt lat="45.55303" lon="6.25418">
        <ele>305.6</ele>
        <time>2022-07-17T04:18:26Z</time>
      </trkpt>
      <trkpt lat="45.553" lon="6.25415">
        <ele>305.8</ele>
        <time>2022-07-17T04:18:27Z</time>
      </trkpt>
      <trkpt lat="45.55297" lon="6.25415">
        <ele>305.8</ele>
        <time>2022-07-17T04:18:28Z</time>
      </trkpt>
      <trkpt lat="45.55294" lon="6.25418">
        <ele>305.8</ele>
        <time>2022-07-17T04:18:29Z</time>
      </trkpt>
      <trkpt lat="45.55291" lon="6.25422">
        <ele>305.8</ele>
        <time>2022-07-17T04:18:30Z</time>
      </trkpt>
      <trkpt lat="45.55288" lon="6.25428">
        <ele>305.8</ele>
        <time>2022-07-17T04:18:31Z</time>
      </trkpt>
      <trkpt lat="45.55285" lon="6.25435">
        <ele>305.8</ele>
        <time>2022-07-17T04:18:32Z</time>
      </trkpt>
      <trkpt lat="45.55282" lon="6.25442">
        <ele>305.8</ele>
        <time>2022-07-17T04:18:33Z</time>
      </trkpt>
      <trkpt lat="45.55278" lon="6.25449">
        <ele>305.8</ele>
        <time>2022-07-17T04:18:34Z</time>
      </trkpt>
      <trkpt lat="45.55274" lon="6.25455">
        <ele>305.8</ele>
        <time>2022-07-17T04:18:35Z</time>
      </trkpt>
      <trkpt lat="45.55271" lon="6.25462">
        <ele>305.8</ele>
        <time>2022-07-17T04:18:36Z</time>
      </trkpt>
      <trkpt lat="45.55267" lon="6.25467">
        <ele>306</ele>
        <time>2022-07-17T04:18:37Z</time>
      </trkpt>
      <trkpt lat="45.55262" lon="6.25472">
        <ele>306</ele>
        <time>2022-07-17T04:18:38Z</time>
      </trkpt>
      <trkpt lat="45.55257" lon="6.25477">
        <ele>306.4</ele>
        <time>2022-07-17T04:18:39Z</time>
      </trkpt>
      <trkpt lat="45.55252" lon="6.2548">
        <ele>306.4</ele>
        <time>2022-07-17T04:18:40Z</time>
      </trkpt>
      <trkpt lat="45.55247" lon="6.25483">
        <ele>306.8</ele>
        <time>2022-07-17T04:18:41Z</time>
      </trkpt>
      <trkpt lat="45.55241" lon="6.25486">
        <ele>306.8</ele>
        <time>2022-07-17T04:18:42Z</time>
      </trkpt>
      <trkpt lat="45.55236" lon="6.25488">
        <ele>307.2</ele>
        <time>2022-07-17T04:18:43Z</time>
      </trkpt>
      <trkpt lat="45.5523" lon="6.25489">
        <ele>307.2</ele>
        <time>2022-07-17T04:18:44Z</time>
      </trkpt>
      <trkpt lat="45.55225" lon="6.25489">
        <ele>307.4</ele>
        <time>2022-07-17T04:18:45Z</time>
      </trkpt>
      <trkpt lat="45.5522" lon="6.25489">
        <ele>307.6</ele>
        <time>2022-07-17T04:18:46Z</time>
      </trkpt>
      <trkpt lat="45.55214" lon="6.25488">
        <ele>308</ele>
        <time>2022-07-17T04:18:47Z</time>
      </trkpt>
      <trkpt lat="45.55209" lon="6.25488">
        <ele>308.2</ele>
        <time>2022-07-17T04:18:48Z</time>
      </trkpt>
      <trkpt lat="45.55205" lon="6.25488">
        <ele>308.2</ele>
        <time>2022-07-17T04:18:49Z</time>
      </trkpt>
      <trkpt lat="45.55201" lon="6.25487">
        <ele>308.6</ele>
        <time>2022-07-17T04:18:50Z</time>
      </trkpt>
      <trkpt lat="45.55197" lon="6.25487">
        <ele>308.8</ele>
        <time>2022-07-17T04:18:51Z</time>
      </trkpt>
      <trkpt lat="45.55194" lon="6.25487">
        <ele>309.2</ele>
        <time>2022-07-17T04:18:52Z</time>
      </trkpt>
      <trkpt lat="45.55191" lon="6.25486">
        <ele>309.2</ele>
        <time>2022-07-17T04:18:53Z</time>
      </trkpt>
      <trkpt lat="45.55188" lon="6.25486">
        <ele>309.6</ele>
        <time>2022-07-17T04:18:54Z</time>
      </trkpt>
      <trkpt lat="45.55184" lon="6.25486">
        <ele>309.8</ele>
        <time>2022-07-17T04:18:55Z</time>
      </trkpt>
      <trkpt lat="45.55181" lon="6.25485">
        <ele>309.8</ele>
        <time>2022-07-17T04:18:56Z</time>
      </trkpt>
      <trkpt lat="45.55177" lon="6.25484">
        <ele>310.2</ele>
        <time>2022-07-17T04:18:57Z</time>
      </trkpt>
      <trkpt lat="45.55175" lon="6.25484">
        <ele>310.4</ele>
        <time>2022-07-17T04:18:58Z</time>
      </trkpt>
      <trkpt lat="45.55172" lon="6.25485">
        <ele>310.4</ele>
        <time>2022-07-17T04:18:59Z</time>
      </trkpt>
      <trkpt lat="45.5517" lon="6.25488">
        <ele>310.8</ele>
        <time>2022-07-17T04:19:00Z</time>
      </trkpt>
      <trkpt lat="45.55169" lon="6.25493">
        <ele>310.8</ele>
        <time>2022-07-17T04:19:01Z</time>
      </trkpt>
      <trkpt lat="45.55168" lon="6.25498">
        <ele>311.2</ele>
        <time>2022-07-17T04:19:02Z</time>
      </trkpt>
      <trkpt lat="45.55167" lon="6.25504">
        <ele>311.2</ele>
        <time>2022-07-17T04:19:03Z</time>
      </trkpt>
      <trkpt lat="45.55169" lon="6.2551">
        <ele>311.2</ele>
        <time>2022-07-17T04:19:04Z</time>
      </trkpt>
      <trkpt lat="45.55171" lon="6.25517">
        <ele>311.2</ele>
        <time>2022-07-17T04:19:05Z</time>
      </trkpt>
      <trkpt lat="45.55172" lon="6.25525">
        <ele>310.8</ele>
        <time>2022-07-17T04:19:06Z</time>
      </trkpt>
      <trkpt lat="45.55173" lon="6.25532">
        <ele>310.8</ele>
        <time>2022-07-17T04:19:07Z</time>
      </trkpt>
      <trkpt lat="45.55174" lon="6.2554">
        <ele>310.8</ele>
        <time>2022-07-17T04:19:08Z</time>
      </trkpt>
      <trkpt lat="45.55174" lon="6.25548">
        <ele>310.8</ele>
        <time>2022-07-17T04:19:09Z</time>
      </trkpt>
      <trkpt lat="45.55174" lon="6.25555">
        <ele>310.8</ele>
        <time>2022-07-17T04:19:10Z</time>
      </trkpt>
      <trkpt lat="45.55174" lon="6.25562">
        <ele>310.8</ele>
        <time>2022-07-17T04:19:11Z</time>
      </trkpt>
      <trkpt lat="45.55175" lon="6.25569">
        <ele>310.8</ele>
        <time>2022-07-17T04:19:12Z</time>
      </trkpt>
      <trkpt lat="45.55175" lon="6.25577">
        <ele>310.8</ele>
        <time>2022-07-17T04:19:13Z</time>
      </trkpt>
      <trkpt lat="45.55176" lon="6.25583">
        <ele>310.8</ele>
        <time>2022-07-17T04:19:14Z</time>
      </trkpt>
      <trkpt lat="45.55176" lon="6.2559">
        <ele>311</ele>
        <time>2022-07-17T04:19:15Z</time>
      </trkpt>
      <trkpt lat="45.55175" lon="6.25597">
        <ele>311</ele>
        <time>2022-07-17T04:19:16Z</time>
      </trkpt>
      <trkpt lat="45.55175" lon="6.25605">
        <ele>311</ele>
        <time>2022-07-17T04:19:17Z</time>
      </trkpt>
      <trkpt lat="45.55174" lon="6.25613">
        <ele>311</ele>
        <time>2022-07-17T04:19:18Z</time>
      </trkpt>
      <trkpt lat="45.55171" lon="6.2562">
        <ele>311</ele>
        <time>2022-07-17T04:19:19Z</time>
      </trkpt>
      <trkpt lat="45.55169" lon="6.25628">
        <ele>311</ele>
        <time>2022-07-17T04:19:20Z</time>
      </trkpt>
      <trkpt lat="45.55166" lon="6.25636">
        <ele>311</ele>
        <time>2022-07-17T04:19:21Z</time>
      </trkpt>
      <trkpt lat="45.55163" lon="6.25644">
        <ele>311</ele>
        <time>2022-07-17T04:19:22Z</time>
      </trkpt>
      <trkpt lat="45.5516" lon="6.25652">
        <ele>311.4</ele>
        <time>2022-07-17T04:19:23Z</time>
      </trkpt>
      <trkpt lat="45.55157" lon="6.25659">
        <ele>311.4</ele>
        <time>2022-07-17T04:19:24Z</time>
      </trkpt>
      <trkpt lat="45.55154" lon="6.25667">
        <ele>311.4</ele>
        <time>2022-07-17T04:19:25Z</time>
      </trkpt>
      <trkpt lat="45.55152" lon="6.25674">
        <ele>311.4</ele>
        <time>2022-07-17T04:19:26Z</time>
      </trkpt>
      <trkpt lat="45.55149" lon="6.25682">
        <ele>311.6</ele>
        <time>2022-07-17T04:19:27Z</time>
      </trkpt>
      <trkpt lat="45.55146" lon="6.25689">
        <ele>311.6</ele>
        <time>2022-07-17T04:19:28Z</time>
      </trkpt>
      <trkpt lat="45.55144" lon="6.25696">
        <ele>311.6</ele>
        <time>2022-07-17T04:19:29Z</time>
      </trkpt>
      <trkpt lat="45.55141" lon="6.25702">
        <ele>311.6</ele>
        <time>2022-07-17T04:19:30Z</time>
      </trkpt>
      <trkpt lat="45.55138" lon="6.2571">
        <ele>311.6</ele>
        <time>2022-07-17T04:19:31Z</time>
      </trkpt>
      <trkpt lat="45.55136" lon="6.25717">
        <ele>311.6</ele>
        <time>2022-07-17T04:19:32Z</time>
      </trkpt>
      <trkpt lat="45.55134" lon="6.25725">
        <ele>311.6</ele>
        <time>2022-07-17T04:19:33Z</time>
      </trkpt>
      <trkpt lat="45.55131" lon="6.25732">
        <ele>311.6</ele>
        <time>2022-07-17T04:19:34Z</time>
      </trkpt>
      <trkpt lat="45.55128" lon="6.25738">
        <ele>311.6</ele>
        <time>2022-07-17T04:19:35Z</time>
      </trkpt>
      <trkpt lat="45.55126" lon="6.25745">
        <ele>311.6</ele>
        <time>2022-07-17T04:19:36Z</time>
      </trkpt>
      <trkpt lat="45.55123" lon="6.25752">
        <ele>311.6</ele>
        <time>2022-07-17T04:19:37Z</time>
      </trkpt>
      <trkpt lat="45.55119" lon="6.25759">
        <ele>311.6</ele>
        <time>2022-07-17T04:19:38Z</time>
      </trkpt>
      <trkpt lat="45.55115" lon="6.25765">
        <ele>311.4</ele>
        <time>2022-07-17T04:19:39Z</time>
      </trkpt>
      <trkpt lat="45.55111" lon="6.25772">
        <ele>311.4</ele>
        <time>2022-07-17T04:19:40Z</time>
      </trkpt>
      <trkpt lat="45.55107" lon="6.25779">
        <ele>311.2</ele>
        <time>2022-07-17T04:19:41Z</time>
      </trkpt>
      <trkpt lat="45.55103" lon="6.25786">
        <ele>311.2</ele>
        <time>2022-07-17T04:19:42Z</time>
      </trkpt>
      <trkpt lat="45.55099" lon="6.25793">
        <ele>310.8</ele>
        <time>2022-07-17T04:19:43Z</time>
      </trkpt>
      <trkpt lat="45.55096" lon="6.25801">
        <ele>310.6</ele>
        <time>2022-07-17T04:19:44Z</time>
      </trkpt>
      <trkpt lat="45.55093" lon="6.25809">
        <ele>310.4</ele>
        <time>2022-07-17T04:19:45Z</time>
      </trkpt>
      <trkpt lat="45.55091" lon="6.25819">
        <ele>310</ele>
        <time>2022-07-17T04:19:46Z</time>
      </trkpt>
      <trkpt lat="45.55089" lon="6.25829">
        <ele>309.8</ele>
        <time>2022-07-17T04:19:47Z</time>
      </trkpt>
      <trkpt lat="45.55087" lon="6.25839">
        <ele>309.4</ele>
        <time>2022-07-17T04:19:48Z</time>
      </trkpt>
      <trkpt lat="45.55085" lon="6.2585">
        <ele>309</ele>
        <time>2022-07-17T04:19:49Z</time>
      </trkpt>
      <trkpt lat="45.55084" lon="6.2586">
        <ele>308.8</ele>
        <time>2022-07-17T04:19:50Z</time>
      </trkpt>
      <trkpt lat="45.55082" lon="6.25871">
        <ele>308.6</ele>
        <time>2022-07-17T04:19:51Z</time>
      </trkpt>
      <trkpt lat="45.55081" lon="6.25881">
        <ele>308.4</ele>
        <time>2022-07-17T04:19:52Z</time>
      </trkpt>
      <trkpt lat="45.55079" lon="6.25891">
        <ele>308</ele>
        <time>2022-07-17T04:19:53Z</time>
      </trkpt>
      <trkpt lat="45.55077" lon="6.25902">
        <ele>307.8</ele>
        <time>2022-07-17T04:19:54Z</time>
      </trkpt>
      <trkpt lat="45.55076" lon="6.25912">
        <ele>307.8</ele>
        <time>2022-07-17T04:19:55Z</time>
      </trkpt>
      <trkpt lat="45.55075" lon="6.25922">
        <ele>307.6</ele>
        <time>2022-07-17T04:19:56Z</time>
      </trkpt>
      <trkpt lat="45.55075" lon="6.25933">
        <ele>307.6</ele>
        <time>2022-07-17T04:19:57Z</time>
      </trkpt>
      <trkpt lat="45.55075" lon="6.25943">
        <ele>307.4</ele>
        <time>2022-07-17T04:19:58Z</time>
      </trkpt>
      <trkpt lat="45.55076" lon="6.25954">
        <ele>307</ele>
        <time>2022-07-17T04:19:59Z</time>
      </trkpt>
      <trkpt lat="45.55076" lon="6.25964">
        <ele>306.8</ele>
        <time>2022-07-17T04:20:00Z</time>
      </trkpt>
      <trkpt lat="45.55077" lon="6.25975">
        <ele>306.6</ele>
        <time>2022-07-17T04:20:01Z</time>
      </trkpt>
      <trkpt lat="45.55077" lon="6.25987">
        <ele>306.2</ele>
        <time>2022-07-17T04:20:02Z</time>
      </trkpt>
      <trkpt lat="45.55078" lon="6.25998">
        <ele>306</ele>
        <time>2022-07-17T04:20:03Z</time>
      </trkpt>
      <trkpt lat="45.5508" lon="6.2602">
        <ele>306</ele>
        <time>2022-07-17T04:20:04Z</time>
      </trkpt>
      <trkpt lat="45.55081" lon="6.26031">
        <ele>305.6</ele>
        <time>2022-07-17T04:20:05Z</time>
      </trkpt>
      <trkpt lat="45.55082" lon="6.26041">
        <ele>305.6</ele>
        <time>2022-07-17T04:20:06Z</time>
      </trkpt>
      <trkpt lat="45.55083" lon="6.26052">
        <ele>305.6</ele>
        <time>2022-07-17T04:20:07Z</time>
      </trkpt>
      <trkpt lat="45.55085" lon="6.26062">
        <ele>305.6</ele>
        <time>2022-07-17T04:20:08Z</time>
      </trkpt>
      <trkpt lat="45.55086" lon="6.26071">
        <ele>305.6</ele>
        <time>2022-07-17T04:20:09Z</time>
      </trkpt>
      <trkpt lat="45.55088" lon="6.26081">
        <ele>305.6</ele>
        <time>2022-07-17T04:20:10Z</time>
      </trkpt>
      <trkpt lat="45.55089" lon="6.26091">
        <ele>305.6</ele>
        <time>2022-07-17T04:20:11Z</time>
      </trkpt>
      <trkpt lat="45.5509" lon="6.261">
        <ele>305.6</ele>
        <time>2022-07-17T04:20:12Z</time>
      </trkpt>
      <trkpt lat="45.55092" lon="6.2611">
        <ele>305.6</ele>
        <time>2022-07-17T04:20:13Z</time>
      </trkpt>
      <trkpt lat="45.55093" lon="6.26119">
        <ele>305.6</ele>
        <time>2022-07-17T04:20:14Z</time>
      </trkpt>
      <trkpt lat="45.55095" lon="6.26128">
        <ele>305.6</ele>
        <time>2022-07-17T04:20:15Z</time>
      </trkpt>
      <trkpt lat="45.55096" lon="6.26138">
        <ele>305.6</ele>
        <time>2022-07-17T04:20:16Z</time>
      </trkpt>
      <trkpt lat="45.55097" lon="6.26147">
        <ele>305.6</ele>
        <time>2022-07-17T04:20:17Z</time>
      </trkpt>
      <trkpt lat="45.55099" lon="6.26156">
        <ele>305.6</ele>
        <time>2022-07-17T04:20:18Z</time>
      </trkpt>
      <trkpt lat="45.551" lon="6.26165">
        <ele>305.6</ele>
        <time>2022-07-17T04:20:19Z</time>
      </trkpt>
      <trkpt lat="45.55102" lon="6.26174">
        <ele>305.6</ele>
        <time>2022-07-17T04:20:20Z</time>
      </trkpt>
      <trkpt lat="45.55103" lon="6.26183">
        <ele>305.8</ele>
        <time>2022-07-17T04:20:21Z</time>
      </trkpt>
      <trkpt lat="45.55104" lon="6.26192">
        <ele>305.8</ele>
        <time>2022-07-17T04:20:22Z</time>
      </trkpt>
      <trkpt lat="45.55106" lon="6.26201">
        <ele>305.8</ele>
        <time>2022-07-17T04:20:23Z</time>
      </trkpt>
      <trkpt lat="45.55107" lon="6.2621">
        <ele>305.8</ele>
        <time>2022-07-17T04:20:24Z</time>
      </trkpt>
      <trkpt lat="45.55108" lon="6.26218">
        <ele>305.8</ele>
        <time>2022-07-17T04:20:25Z</time>
      </trkpt>
      <trkpt lat="45.5511" lon="6.26227">
        <ele>306</ele>
        <time>2022-07-17T04:20:26Z</time>
      </trkpt>
      <trkpt lat="45.55111" lon="6.26235">
        <ele>306</ele>
        <time>2022-07-17T04:20:27Z</time>
      </trkpt>
      <trkpt lat="45.55112" lon="6.26243">
        <ele>306</ele>
        <time>2022-07-17T04:20:28Z</time>
      </trkpt>
      <trkpt lat="45.55113" lon="6.26251">
        <ele>306.2</ele>
        <time>2022-07-17T04:20:29Z</time>
      </trkpt>
      <trkpt lat="45.55114" lon="6.26259">
        <ele>306.2</ele>
        <time>2022-07-17T04:20:30Z</time>
      </trkpt>
      <trkpt lat="45.55115" lon="6.26267">
        <ele>306.6</ele>
        <time>2022-07-17T04:20:31Z</time>
      </trkpt>
      <trkpt lat="45.55116" lon="6.26274">
        <ele>306.6</ele>
        <time>2022-07-17T04:20:32Z</time>
      </trkpt>
      <trkpt lat="45.55117" lon="6.26282">
        <ele>306.8</ele>
        <time>2022-07-17T04:20:33Z</time>
      </trkpt>
      <trkpt lat="45.55118" lon="6.26289">
        <ele>306.8</ele>
        <time>2022-07-17T04:20:34Z</time>
      </trkpt>
      <trkpt lat="45.55119" lon="6.26297">
        <ele>307</ele>
        <time>2022-07-17T04:20:35Z</time>
      </trkpt>
      <trkpt lat="45.5512" lon="6.26304">
        <ele>307.4</ele>
        <time>2022-07-17T04:20:36Z</time>
      </trkpt>
      <trkpt lat="45.55121" lon="6.26311">
        <ele>307.4</ele>
        <time>2022-07-17T04:20:37Z</time>
      </trkpt>
      <trkpt lat="45.55121" lon="6.26319">
        <ele>307.8</ele>
        <time>2022-07-17T04:20:38Z</time>
      </trkpt>
      <trkpt lat="45.55122" lon="6.26326">
        <ele>308</ele>
        <time>2022-07-17T04:20:39Z</time>
      </trkpt>
      <trkpt lat="45.55123" lon="6.26333">
        <ele>308.2</ele>
        <time>2022-07-17T04:20:40Z</time>
      </trkpt>
      <trkpt lat="45.55123" lon="6.26339">
        <ele>308.6</ele>
        <time>2022-07-17T04:20:41Z</time>
      </trkpt>
      <trkpt lat="45.55125" lon="6.26346">
        <ele>308.8</ele>
        <time>2022-07-17T04:20:42Z</time>
      </trkpt>
      <trkpt lat="45.55126" lon="6.26352">
        <ele>309.2</ele>
        <time>2022-07-17T04:20:43Z</time>
      </trkpt>
      <trkpt lat="45.55127" lon="6.26359">
        <ele>309.6</ele>
        <time>2022-07-17T04:20:44Z</time>
      </trkpt>
      <trkpt lat="45.55128" lon="6.26365">
        <ele>309.8</ele>
        <time>2022-07-17T04:20:45Z</time>
      </trkpt>
      <trkpt lat="45.55128" lon="6.26371">
        <ele>310</ele>
        <time>2022-07-17T04:20:46Z</time>
      </trkpt>
      <trkpt lat="45.55129" lon="6.26377">
        <ele>310.4</ele>
        <time>2022-07-17T04:20:47Z</time>
      </trkpt>
      <trkpt lat="45.5513" lon="6.26383">
        <ele>310.6</ele>
        <time>2022-07-17T04:20:48Z</time>
      </trkpt>
      <trkpt lat="45.55131" lon="6.2639">
        <ele>311</ele>
        <time>2022-07-17T04:20:49Z</time>
      </trkpt>
      <trkpt lat="45.55131" lon="6.26396">
        <ele>311.2</ele>
        <time>2022-07-17T04:20:50Z</time>
      </trkpt>
      <trkpt lat="45.55131" lon="6.26403">
        <ele>311.2</ele>
        <time>2022-07-17T04:20:51Z</time>
      </trkpt>
      <trkpt lat="45.55131" lon="6.26411">
        <ele>311.2</ele>
        <time>2022-07-17T04:20:52Z</time>
      </trkpt>
      <trkpt lat="45.55131" lon="6.26419">
        <ele>311.2</ele>
        <time>2022-07-17T04:20:53Z</time>
      </trkpt>
      <trkpt lat="45.55131" lon="6.26427">
        <ele>311.2</ele>
        <time>2022-07-17T04:20:54Z</time>
      </trkpt>
      <trkpt lat="45.55131" lon="6.26436">
        <ele>311.2</ele>
        <time>2022-07-17T04:20:55Z</time>
      </trkpt>
      <trkpt lat="45.5513" lon="6.26445">
        <ele>311</ele>
        <time>2022-07-17T04:20:56Z</time>
      </trkpt>
      <trkpt lat="45.5513" lon="6.26454">
        <ele>311</ele>
        <time>2022-07-17T04:20:57Z</time>
      </trkpt>
      <trkpt lat="45.5513" lon="6.26464">
        <ele>310.6</ele>
        <time>2022-07-17T04:20:58Z</time>
      </trkpt>
      <trkpt lat="45.5513" lon="6.26473">
        <ele>310.6</ele>
        <time>2022-07-17T04:20:59Z</time>
      </trkpt>
      <trkpt lat="45.5513" lon="6.26482">
        <ele>310.6</ele>
        <time>2022-07-17T04:21:00Z</time>
      </trkpt>
      <trkpt lat="45.5513" lon="6.26492">
        <ele>310.4</ele>
        <time>2022-07-17T04:21:01Z</time>
      </trkpt>
      <trkpt lat="45.5513" lon="6.26501">
        <ele>310.4</ele>
        <time>2022-07-17T04:21:02Z</time>
      </trkpt>
      <trkpt lat="45.55129" lon="6.26511">
        <ele>310.2</ele>
        <time>2022-07-17T04:21:03Z</time>
      </trkpt>
      <trkpt lat="45.55129" lon="6.2652">
        <ele>310.2</ele>
        <time>2022-07-17T04:21:04Z</time>
      </trkpt>
      <trkpt lat="45.55129" lon="6.2653">
        <ele>310.2</ele>
        <time>2022-07-17T04:21:05Z</time>
      </trkpt>
      <trkpt lat="45.55129" lon="6.26539">
        <ele>310.2</ele>
        <time>2022-07-17T04:21:06Z</time>
      </trkpt>
      <trkpt lat="45.55129" lon="6.26548">
        <ele>310.2</ele>
        <time>2022-07-17T04:21:07Z</time>
      </trkpt>
      <trkpt lat="45.55128" lon="6.26557">
        <ele>310.2</ele>
        <time>2022-07-17T04:21:08Z</time>
      </trkpt>
      <trkpt lat="45.55128" lon="6.26566">
        <ele>310.2</ele>
        <time>2022-07-17T04:21:09Z</time>
      </trkpt>
      <trkpt lat="45.55128" lon="6.26575">
        <ele>310.2</ele>
        <time>2022-07-17T04:21:10Z</time>
      </trkpt>
      <trkpt lat="45.55128" lon="6.26583">
        <ele>310.2</ele>
        <time>2022-07-17T04:21:11Z</time>
      </trkpt>
      <trkpt lat="45.55128" lon="6.26592">
        <ele>310.2</ele>
        <time>2022-07-17T04:21:12Z</time>
      </trkpt>
      <trkpt lat="45.55128" lon="6.266">
        <ele>310.2</ele>
        <time>2022-07-17T04:21:13Z</time>
      </trkpt>
      <trkpt lat="45.55128" lon="6.26608">
        <ele>310.4</ele>
        <time>2022-07-17T04:21:14Z</time>
      </trkpt>
      <trkpt lat="45.55127" lon="6.26617">
        <ele>310.4</ele>
        <time>2022-07-17T04:21:15Z</time>
      </trkpt>
      <trkpt lat="45.55127" lon="6.26625">
        <ele>310.8</ele>
        <time>2022-07-17T04:21:16Z</time>
      </trkpt>
      <trkpt lat="45.55127" lon="6.26633">
        <ele>310.8</ele>
        <time>2022-07-17T04:21:17Z</time>
      </trkpt>
      <trkpt lat="45.55127" lon="6.26641">
        <ele>311</ele>
        <time>2022-07-17T04:21:18Z</time>
      </trkpt>
      <trkpt lat="45.55126" lon="6.26648">
        <ele>311</ele>
        <time>2022-07-17T04:21:19Z</time>
      </trkpt>
      <trkpt lat="45.55125" lon="6.26656">
        <ele>311.2</ele>
        <time>2022-07-17T04:21:20Z</time>
      </trkpt>
      <trkpt lat="45.55125" lon="6.26664">
        <ele>311.2</ele>
        <time>2022-07-17T04:21:21Z</time>
      </trkpt>
      <trkpt lat="45.55125" lon="6.26672">
        <ele>311.2</ele>
        <time>2022-07-17T04:21:22Z</time>
      </trkpt>
      <trkpt lat="45.55124" lon="6.2668">
        <ele>311.6</ele>
        <time>2022-07-17T04:21:23Z</time>
      </trkpt>
      <trkpt lat="45.55124" lon="6.26688">
        <ele>311.6</ele>
        <time>2022-07-17T04:21:24Z</time>
      </trkpt>
      <trkpt lat="45.55124" lon="6.26696">
        <ele>311.8</ele>
        <time>2022-07-17T04:21:25Z</time>
      </trkpt>
      <trkpt lat="45.55123" lon="6.26704">
        <ele>311.8</ele>
        <time>2022-07-17T04:21:26Z</time>
      </trkpt>
      <trkpt lat="45.55122" lon="6.26712">
        <ele>311.8</ele>
        <time>2022-07-17T04:21:27Z</time>
      </trkpt>
      <trkpt lat="45.55122" lon="6.2672">
        <ele>312</ele>
        <time>2022-07-17T04:21:28Z</time>
      </trkpt>
      <trkpt lat="45.55121" lon="6.26727">
        <ele>312</ele>
        <time>2022-07-17T04:21:29Z</time>
      </trkpt>
      <trkpt lat="45.5512" lon="6.26735">
        <ele>312</ele>
        <time>2022-07-17T04:21:30Z</time>
      </trkpt>
      <trkpt lat="45.55119" lon="6.26742">
        <ele>312.4</ele>
        <time>2022-07-17T04:21:31Z</time>
      </trkpt>
      <trkpt lat="45.55118" lon="6.2675">
        <ele>312.4</ele>
        <time>2022-07-17T04:21:32Z</time>
      </trkpt>
      <trkpt lat="45.55117" lon="6.26758">
        <ele>312.4</ele>
        <time>2022-07-17T04:21:33Z</time>
      </trkpt>
      <trkpt lat="45.55116" lon="6.26766">
        <ele>312.4</ele>
        <time>2022-07-17T04:21:34Z</time>
      </trkpt>
      <trkpt lat="45.55114" lon="6.26775">
        <ele>312.4</ele>
        <time>2022-07-17T04:21:35Z</time>
      </trkpt>
      <trkpt lat="45.55113" lon="6.26783">
        <ele>312.4</ele>
        <time>2022-07-17T04:21:36Z</time>
      </trkpt>
      <trkpt lat="45.55113" lon="6.26792">
        <ele>312.4</ele>
        <time>2022-07-17T04:21:37Z</time>
      </trkpt>
      <trkpt lat="45.55113" lon="6.26801">
        <ele>312.2</ele>
        <time>2022-07-17T04:21:38Z</time>
      </trkpt>
      <trkpt lat="45.55115" lon="6.2681">
        <ele>312.2</ele>
        <time>2022-07-17T04:21:39Z</time>
      </trkpt>
      <trkpt lat="45.55116" lon="6.26819">
        <ele>312.2</ele>
        <time>2022-07-17T04:21:40Z</time>
      </trkpt>
      <trkpt lat="45.55119" lon="6.26828">
        <ele>311.8</ele>
        <time>2022-07-17T04:21:41Z</time>
      </trkpt>
      <trkpt lat="45.55122" lon="6.26836">
        <ele>311.8</ele>
        <time>2022-07-17T04:21:42Z</time>
      </trkpt>
      <trkpt lat="45.55125" lon="6.26844">
        <ele>311.8</ele>
        <time>2022-07-17T04:21:43Z</time>
      </trkpt>
      <trkpt lat="45.55129" lon="6.26852">
        <ele>311.6</ele>
        <time>2022-07-17T04:21:44Z</time>
      </trkpt>
      <trkpt lat="45.55133" lon="6.26859">
        <ele>311.6</ele>
        <time>2022-07-17T04:21:45Z</time>
      </trkpt>
      <trkpt lat="45.55137" lon="6.26866">
        <ele>311.6</ele>
        <time>2022-07-17T04:21:46Z</time>
      </trkpt>
      <trkpt lat="45.55141" lon="6.26873">
        <ele>311.4</ele>
        <time>2022-07-17T04:21:47Z</time>
      </trkpt>
      <trkpt lat="45.55145" lon="6.2688">
        <ele>311.4</ele>
        <time>2022-07-17T04:21:48Z</time>
      </trkpt>
      <trkpt lat="45.55148" lon="6.26888">
        <ele>311.4</ele>
        <time>2022-07-17T04:21:49Z</time>
      </trkpt>
      <trkpt lat="45.55152" lon="6.26895">
        <ele>311.4</ele>
        <time>2022-07-17T04:21:50Z</time>
      </trkpt>
      <trkpt lat="45.55156" lon="6.26903">
        <ele>311.4</ele>
        <time>2022-07-17T04:21:51Z</time>
      </trkpt>
      <trkpt lat="45.55159" lon="6.26911">
        <ele>311.4</ele>
        <time>2022-07-17T04:21:52Z</time>
      </trkpt>
      <trkpt lat="45.55161" lon="6.26919">
        <ele>311.4</ele>
        <time>2022-07-17T04:21:53Z</time>
      </trkpt>
      <trkpt lat="45.55163" lon="6.26927">
        <ele>311.4</ele>
        <time>2022-07-17T04:21:54Z</time>
      </trkpt>
      <trkpt lat="45.55165" lon="6.26936">
        <ele>311.4</ele>
        <time>2022-07-17T04:21:55Z</time>
      </trkpt>
      <trkpt lat="45.55167" lon="6.26945">
        <ele>311.4</ele>
        <time>2022-07-17T04:21:56Z</time>
      </trkpt>
      <trkpt lat="45.55168" lon="6.26953">
        <ele>311.4</ele>
        <time>2022-07-17T04:21:57Z</time>
      </trkpt>
      <trkpt lat="45.5517" lon="6.26962">
        <ele>311.4</ele>
        <time>2022-07-17T04:21:58Z</time>
      </trkpt>
      <trkpt lat="45.55171" lon="6.26971">
        <ele>311.4</ele>
        <time>2022-07-17T04:21:59Z</time>
      </trkpt>
      <trkpt lat="45.55173" lon="6.2698">
        <ele>311.4</ele>
        <time>2022-07-17T04:22:00Z</time>
      </trkpt>
      <trkpt lat="45.55174" lon="6.26989">
        <ele>311.4</ele>
        <time>2022-07-17T04:22:01Z</time>
      </trkpt>
      <trkpt lat="45.55176" lon="6.26997">
        <ele>311.4</ele>
        <time>2022-07-17T04:22:02Z</time>
      </trkpt>
      <trkpt lat="45.55177" lon="6.27006">
        <ele>311.4</ele>
        <time>2022-07-17T04:22:03Z</time>
      </trkpt>
      <trkpt lat="45.55179" lon="6.27014">
        <ele>311.4</ele>
        <time>2022-07-17T04:22:04Z</time>
      </trkpt>
      <trkpt lat="45.55181" lon="6.27022">
        <ele>311.4</ele>
        <time>2022-07-17T04:22:05Z</time>
      </trkpt>
      <trkpt lat="45.55183" lon="6.2703">
        <ele>311.4</ele>
        <time>2022-07-17T04:22:06Z</time>
      </trkpt>
      <trkpt lat="45.55184" lon="6.27038">
        <ele>311.6</ele>
        <time>2022-07-17T04:22:07Z</time>
      </trkpt>
      <trkpt lat="45.55185" lon="6.27046">
        <ele>311.6</ele>
        <time>2022-07-17T04:22:08Z</time>
      </trkpt>
      <trkpt lat="45.55186" lon="6.27054">
        <ele>311.6</ele>
        <time>2022-07-17T04:22:09Z</time>
      </trkpt>
      <trkpt lat="45.55187" lon="6.27063">
        <ele>311.6</ele>
        <time>2022-07-17T04:22:10Z</time>
      </trkpt>
      <trkpt lat="45.55188" lon="6.27071">
        <ele>311.6</ele>
        <time>2022-07-17T04:22:11Z</time>
      </trkpt>
      <trkpt lat="45.55189" lon="6.2708">
        <ele>311.6</ele>
        <time>2022-07-17T04:22:12Z</time>
      </trkpt>
      <trkpt lat="45.5519" lon="6.2709">
        <ele>311.6</ele>
        <time>2022-07-17T04:22:13Z</time>
      </trkpt>
      <trkpt lat="45.5519" lon="6.27099">
        <ele>311.6</ele>
        <time>2022-07-17T04:22:14Z</time>
      </trkpt>
      <trkpt lat="45.55191" lon="6.27109">
        <ele>311.6</ele>
        <time>2022-07-17T04:22:15Z</time>
      </trkpt>
      <trkpt lat="45.55192" lon="6.27118">
        <ele>311.2</ele>
        <time>2022-07-17T04:22:16Z</time>
      </trkpt>
      <trkpt lat="45.55193" lon="6.27128">
        <ele>311.2</ele>
        <time>2022-07-17T04:22:17Z</time>
      </trkpt>
      <trkpt lat="45.55194" lon="6.27137">
        <ele>311.2</ele>
        <time>2022-07-17T04:22:18Z</time>
      </trkpt>
      <trkpt lat="45.55196" lon="6.27147">
        <ele>311.2</ele>
        <time>2022-07-17T04:22:19Z</time>
      </trkpt>
      <trkpt lat="45.55197" lon="6.27156">
        <ele>311</ele>
        <time>2022-07-17T04:22:20Z</time>
      </trkpt>
      <trkpt lat="45.55198" lon="6.27166">
        <ele>311</ele>
        <time>2022-07-17T04:22:21Z</time>
      </trkpt>
      <trkpt lat="45.55199" lon="6.27175">
        <ele>310.8</ele>
        <time>2022-07-17T04:22:22Z</time>
      </trkpt>
      <trkpt lat="45.55201" lon="6.27185">
        <ele>310.8</ele>
        <time>2022-07-17T04:22:23Z</time>
      </trkpt>
      <trkpt lat="45.55202" lon="6.27194">
        <ele>310.6</ele>
        <time>2022-07-17T04:22:24Z</time>
      </trkpt>
      <trkpt lat="45.55204" lon="6.27203">
        <ele>310.6</ele>
        <time>2022-07-17T04:22:25Z</time>
      </trkpt>
      <trkpt lat="45.55205" lon="6.27213">
        <ele>310.6</ele>
        <time>2022-07-17T04:22:26Z</time>
      </trkpt>
      <trkpt lat="45.55207" lon="6.27222">
        <ele>310.6</ele>
        <time>2022-07-17T04:22:27Z</time>
      </trkpt>
      <trkpt lat="45.55208" lon="6.27231">
        <ele>310.6</ele>
        <time>2022-07-17T04:22:28Z</time>
      </trkpt>
      <trkpt lat="45.5521" lon="6.2724">
        <ele>310.6</ele>
        <time>2022-07-17T04:22:29Z</time>
      </trkpt>
      <trkpt lat="45.55211" lon="6.2725">
        <ele>310.4</ele>
        <time>2022-07-17T04:22:30Z</time>
      </trkpt>
      <trkpt lat="45.55212" lon="6.27259">
        <ele>310.4</ele>
        <time>2022-07-17T04:22:31Z</time>
      </trkpt>
      <trkpt lat="45.55214" lon="6.27268">
        <ele>310.4</ele>
        <time>2022-07-17T04:22:32Z</time>
      </trkpt>
      <trkpt lat="45.55215" lon="6.27278">
        <ele>310</ele>
        <time>2022-07-17T04:22:33Z</time>
      </trkpt>
      <trkpt lat="45.55216" lon="6.27287">
        <ele>310</ele>
        <time>2022-07-17T04:22:34Z</time>
      </trkpt>
      <trkpt lat="45.55217" lon="6.27296">
        <ele>310</ele>
        <time>2022-07-17T04:22:35Z</time>
      </trkpt>
      <trkpt lat="45.55219" lon="6.27305">
        <ele>310</ele>
        <time>2022-07-17T04:22:36Z</time>
      </trkpt>
      <trkpt lat="45.5522" lon="6.27314">
        <ele>310</ele>
        <time>2022-07-17T04:22:37Z</time>
      </trkpt>
      <trkpt lat="45.55222" lon="6.27324">
        <ele>310</ele>
        <time>2022-07-17T04:22:38Z</time>
      </trkpt>
      <trkpt lat="45.55223" lon="6.27333">
        <ele>310</ele>
        <time>2022-07-17T04:22:39Z</time>
      </trkpt>
      <trkpt lat="45.55224" lon="6.27342">
        <ele>310</ele>
        <time>2022-07-17T04:22:40Z</time>
      </trkpt>
      <trkpt lat="45.55226" lon="6.27351">
        <ele>309.8</ele>
        <time>2022-07-17T04:22:41Z</time>
      </trkpt>
      <trkpt lat="45.55228" lon="6.27361">
        <ele>309.8</ele>
        <time>2022-07-17T04:22:42Z</time>
      </trkpt>
      <trkpt lat="45.5523" lon="6.2737">
        <ele>309.8</ele>
        <time>2022-07-17T04:22:43Z</time>
      </trkpt>
      <trkpt lat="45.55231" lon="6.27379">
        <ele>309.6</ele>
        <time>2022-07-17T04:22:44Z</time>
      </trkpt>
      <trkpt lat="45.55234" lon="6.27388">
        <ele>309.6</ele>
        <time>2022-07-17T04:22:45Z</time>
      </trkpt>
      <trkpt lat="45.55236" lon="6.27397">
        <ele>309.6</ele>
        <time>2022-07-17T04:22:46Z</time>
      </trkpt>
      <trkpt lat="45.55238" lon="6.27406">
        <ele>309.6</ele>
        <time>2022-07-17T04:22:47Z</time>
      </trkpt>
      <trkpt lat="45.5524" lon="6.27415">
        <ele>309.6</ele>
        <time>2022-07-17T04:22:48Z</time>
      </trkpt>
      <trkpt lat="45.55242" lon="6.27424">
        <ele>309.6</ele>
        <time>2022-07-17T04:22:49Z</time>
      </trkpt>
      <trkpt lat="45.55243" lon="6.27433">
        <ele>309.6</ele>
        <time>2022-07-17T04:22:50Z</time>
      </trkpt>
      <trkpt lat="45.55246" lon="6.27442">
        <ele>309.6</ele>
        <time>2022-07-17T04:22:51Z</time>
      </trkpt>
      <trkpt lat="45.55247" lon="6.27451">
        <ele>309.6</ele>
        <time>2022-07-17T04:22:52Z</time>
      </trkpt>
      <trkpt lat="45.5525" lon="6.27459">
        <ele>309.6</ele>
        <time>2022-07-17T04:22:53Z</time>
      </trkpt>
      <trkpt lat="45.55252" lon="6.27468">
        <ele>309.6</ele>
        <time>2022-07-17T04:22:54Z</time>
      </trkpt>
      <trkpt lat="45.55254" lon="6.27477">
        <ele>309.6</ele>
        <time>2022-07-17T04:22:55Z</time>
      </trkpt>
      <trkpt lat="45.55256" lon="6.27486">
        <ele>309.6</ele>
        <time>2022-07-17T04:22:56Z</time>
      </trkpt>
      <trkpt lat="45.55258" lon="6.27495">
        <ele>309.6</ele>
        <time>2022-07-17T04:22:57Z</time>
      </trkpt>
      <trkpt lat="45.5526" lon="6.27504">
        <ele>309.6</ele>
        <time>2022-07-17T04:22:58Z</time>
      </trkpt>
      <trkpt lat="45.55262" lon="6.27513">
        <ele>309.4</ele>
        <time>2022-07-17T04:22:59Z</time>
      </trkpt>
      <trkpt lat="45.55264" lon="6.27522">
        <ele>309.4</ele>
        <time>2022-07-17T04:23:00Z</time>
      </trkpt>
      <trkpt lat="45.55266" lon="6.27531">
        <ele>309.4</ele>
        <time>2022-07-17T04:23:01Z</time>
      </trkpt>
      <trkpt lat="45.55268" lon="6.2754">
        <ele>309.4</ele>
        <time>2022-07-17T04:23:02Z</time>
      </trkpt>
      <trkpt lat="45.5527" lon="6.27549">
        <ele>309.4</ele>
        <time>2022-07-17T04:23:03Z</time>
      </trkpt>
      <trkpt lat="45.55272" lon="6.27559">
        <ele>309.4</ele>
        <time>2022-07-17T04:23:04Z</time>
      </trkpt>
      <trkpt lat="45.55274" lon="6.27568">
        <ele>309.4</ele>
        <time>2022-07-17T04:23:05Z</time>
      </trkpt>
      <trkpt lat="45.55276" lon="6.27577">
        <ele>309.4</ele>
        <time>2022-07-17T04:23:06Z</time>
      </trkpt>
      <trkpt lat="45.55278" lon="6.27586">
        <ele>309.4</ele>
        <time>2022-07-17T04:23:07Z</time>
      </trkpt>
      <trkpt lat="45.5528" lon="6.27594">
        <ele>309.4</ele>
        <time>2022-07-17T04:23:08Z</time>
      </trkpt>
      <trkpt lat="45.55282" lon="6.27603">
        <ele>309.4</ele>
        <time>2022-07-17T04:23:09Z</time>
      </trkpt>
      <trkpt lat="45.55284" lon="6.27612">
        <ele>309.4</ele>
        <time>2022-07-17T04:23:10Z</time>
      </trkpt>
      <trkpt lat="45.55286" lon="6.27621">
        <ele>309.4</ele>
        <time>2022-07-17T04:23:11Z</time>
      </trkpt>
      <trkpt lat="45.55288" lon="6.2763">
        <ele>309.4</ele>
        <time>2022-07-17T04:23:12Z</time>
      </trkpt>
      <trkpt lat="45.5529" lon="6.27639">
        <ele>309.4</ele>
        <time>2022-07-17T04:23:13Z</time>
      </trkpt>
      <trkpt lat="45.55292" lon="6.27647">
        <ele>309.4</ele>
        <time>2022-07-17T04:23:14Z</time>
      </trkpt>
      <trkpt lat="45.55294" lon="6.27656">
        <ele>309.4</ele>
        <time>2022-07-17T04:23:15Z</time>
      </trkpt>
      <trkpt lat="45.55296" lon="6.27664">
        <ele>309.4</ele>
        <time>2022-07-17T04:23:16Z</time>
      </trkpt>
      <trkpt lat="45.55298" lon="6.27673">
        <ele>309.4</ele>
        <time>2022-07-17T04:23:17Z</time>
      </trkpt>
      <trkpt lat="45.553" lon="6.27681">
        <ele>309.4</ele>
        <time>2022-07-17T04:23:18Z</time>
      </trkpt>
      <trkpt lat="45.55302" lon="6.2769">
        <ele>309.4</ele>
        <time>2022-07-17T04:23:19Z</time>
      </trkpt>
      <trkpt lat="45.55304" lon="6.27698">
        <ele>309.4</ele>
        <time>2022-07-17T04:23:20Z</time>
      </trkpt>
      <trkpt lat="45.55306" lon="6.27707">
        <ele>309.4</ele>
        <time>2022-07-17T04:23:21Z</time>
      </trkpt>
      <trkpt lat="45.55308" lon="6.27715">
        <ele>309.4</ele>
        <time>2022-07-17T04:23:22Z</time>
      </trkpt>
      <trkpt lat="45.5531" lon="6.27723">
        <ele>309.4</ele>
        <time>2022-07-17T04:23:23Z</time>
      </trkpt>
      <trkpt lat="45.55311" lon="6.27732">
        <ele>309.6</ele>
        <time>2022-07-17T04:23:24Z</time>
      </trkpt>
      <trkpt lat="45.55313" lon="6.2774">
        <ele>309.6</ele>
        <time>2022-07-17T04:23:25Z</time>
      </trkpt>
      <trkpt lat="45.55315" lon="6.27748">
        <ele>309.6</ele>
        <time>2022-07-17T04:23:26Z</time>
      </trkpt>
      <trkpt lat="45.55317" lon="6.27757">
        <ele>309.6</ele>
        <time>2022-07-17T04:23:27Z</time>
      </trkpt>
      <trkpt lat="45.55319" lon="6.27765">
        <ele>309.6</ele>
        <time>2022-07-17T04:23:28Z</time>
      </trkpt>
      <trkpt lat="45.55321" lon="6.27773">
        <ele>309.6</ele>
        <time>2022-07-17T04:23:29Z</time>
      </trkpt>
      <trkpt lat="45.55323" lon="6.27782">
        <ele>309.6</ele>
        <time>2022-07-17T04:23:30Z</time>
      </trkpt>
      <trkpt lat="45.55324" lon="6.2779">
        <ele>310</ele>
        <time>2022-07-17T04:23:31Z</time>
      </trkpt>
      <trkpt lat="45.55326" lon="6.27798">
        <ele>310</ele>
        <time>2022-07-17T04:23:32Z</time>
      </trkpt>
      <trkpt lat="45.55328" lon="6.27807">
        <ele>310</ele>
        <time>2022-07-17T04:23:33Z</time>
      </trkpt>
      <trkpt lat="45.5533" lon="6.27815">
        <ele>310</ele>
        <time>2022-07-17T04:23:34Z</time>
      </trkpt>
      <trkpt lat="45.55332" lon="6.27824">
        <ele>310</ele>
        <time>2022-07-17T04:23:35Z</time>
      </trkpt>
      <trkpt lat="45.55334" lon="6.27832">
        <ele>310</ele>
        <time>2022-07-17T04:23:36Z</time>
      </trkpt>
      <trkpt lat="45.55336" lon="6.2784">
        <ele>310.2</ele>
        <time>2022-07-17T04:23:37Z</time>
      </trkpt>
      <trkpt lat="45.55337" lon="6.27849">
        <ele>310.2</ele>
        <time>2022-07-17T04:23:38Z</time>
      </trkpt>
      <trkpt lat="45.55339" lon="6.27857">
        <ele>310.2</ele>
        <time>2022-07-17T04:23:39Z</time>
      </trkpt>
      <trkpt lat="45.55341" lon="6.27866">
        <ele>310.2</ele>
        <time>2022-07-17T04:23:40Z</time>
      </trkpt>
      <trkpt lat="45.55343" lon="6.27874">
        <ele>310.2</ele>
        <time>2022-07-17T04:23:41Z</time>
      </trkpt>
      <trkpt lat="45.55345" lon="6.27882">
        <ele>310.4</ele>
        <time>2022-07-17T04:23:42Z</time>
      </trkpt>
      <trkpt lat="45.55346" lon="6.27891">
        <ele>310.4</ele>
        <time>2022-07-17T04:23:43Z</time>
      </trkpt>
      <trkpt lat="45.55348" lon="6.27899">
        <ele>310.4</ele>
        <time>2022-07-17T04:23:44Z</time>
      </trkpt>
      <trkpt lat="45.5535" lon="6.27908">
        <ele>310.4</ele>
        <time>2022-07-17T04:23:45Z</time>
      </trkpt>
      <trkpt lat="45.55352" lon="6.27916">
        <ele>310.4</ele>
        <time>2022-07-17T04:23:46Z</time>
      </trkpt>
      <trkpt lat="45.55354" lon="6.27925">
        <ele>310.4</ele>
        <time>2022-07-17T04:23:47Z</time>
      </trkpt>
      <trkpt lat="45.55356" lon="6.27933">
        <ele>310.4</ele>
        <time>2022-07-17T04:23:48Z</time>
      </trkpt>
      <trkpt lat="45.55357" lon="6.27941">
        <ele>310.4</ele>
        <time>2022-07-17T04:23:49Z</time>
      </trkpt>
      <trkpt lat="45.55359" lon="6.27949">
        <ele>310.6</ele>
        <time>2022-07-17T04:23:50Z</time>
      </trkpt>
      <trkpt lat="45.55361" lon="6.27957">
        <ele>310.6</ele>
        <time>2022-07-17T04:23:52Z</time>
      </trkpt>
      <trkpt lat="45.55362" lon="6.27966">
        <ele>310.6</ele>
        <time>2022-07-17T04:23:53Z</time>
      </trkpt>
      <trkpt lat="45.55365" lon="6.27974">
        <ele>310.6</ele>
        <time>2022-07-17T04:23:54Z</time>
      </trkpt>
      <trkpt lat="45.55367" lon="6.27982">
        <ele>310.6</ele>
        <time>2022-07-17T04:23:55Z</time>
      </trkpt>
      <trkpt lat="45.55369" lon="6.27991">
        <ele>310.6</ele>
        <time>2022-07-17T04:23:56Z</time>
      </trkpt>
      <trkpt lat="45.55371" lon="6.27999">
        <ele>310.6</ele>
        <time>2022-07-17T04:23:57Z</time>
      </trkpt>
      <trkpt lat="45.55373" lon="6.28008">
        <ele>310.6</ele>
        <time>2022-07-17T04:23:58Z</time>
      </trkpt>
      <trkpt lat="45.55375" lon="6.28016">
        <ele>310.8</ele>
        <time>2022-07-17T04:23:59Z</time>
      </trkpt>
      <trkpt lat="45.55377" lon="6.28025">
        <ele>310.8</ele>
        <time>2022-07-17T04:24:00Z</time>
      </trkpt>
      <trkpt lat="45.55378" lon="6.28033">
        <ele>310.8</ele>
        <time>2022-07-17T04:24:01Z</time>
      </trkpt>
      <trkpt lat="45.5538" lon="6.28041">
        <ele>311</ele>
        <time>2022-07-17T04:24:02Z</time>
      </trkpt>
      <trkpt lat="45.55382" lon="6.2805">
        <ele>311</ele>
        <time>2022-07-17T04:24:03Z</time>
      </trkpt>
      <trkpt lat="45.55383" lon="6.28058">
        <ele>311</ele>
        <time>2022-07-17T04:24:04Z</time>
      </trkpt>
      <trkpt lat="45.55385" lon="6.28066">
        <ele>311</ele>
        <time>2022-07-17T04:24:05Z</time>
      </trkpt>
      <trkpt lat="45.55387" lon="6.28074">
        <ele>311.2</ele>
        <time>2022-07-17T04:24:06Z</time>
      </trkpt>
      <trkpt lat="45.55389" lon="6.28082">
        <ele>311.2</ele>
        <time>2022-07-17T04:24:07Z</time>
      </trkpt>
      <trkpt lat="45.55391" lon="6.2809">
        <ele>311.6</ele>
        <time>2022-07-17T04:24:08Z</time>
      </trkpt>
      <trkpt lat="45.55392" lon="6.28098">
        <ele>311.6</ele>
        <time>2022-07-17T04:24:09Z</time>
      </trkpt>
      <trkpt lat="45.55394" lon="6.28105">
        <ele>312</ele>
        <time>2022-07-17T04:24:10Z</time>
      </trkpt>
      <trkpt lat="45.55396" lon="6.28113">
        <ele>312</ele>
        <time>2022-07-17T04:24:11Z</time>
      </trkpt>
      <trkpt lat="45.55398" lon="6.2812">
        <ele>312.2</ele>
        <time>2022-07-17T04:24:12Z</time>
      </trkpt>
      <trkpt lat="45.55399" lon="6.28127">
        <ele>312.2</ele>
        <time>2022-07-17T04:24:13Z</time>
      </trkpt>
      <trkpt lat="45.55401" lon="6.28133">
        <ele>312.4</ele>
        <time>2022-07-17T04:24:14Z</time>
      </trkpt>
      <trkpt lat="45.55402" lon="6.2814">
        <ele>312.4</ele>
        <time>2022-07-17T04:24:15Z</time>
      </trkpt>
      <trkpt lat="45.55404" lon="6.28147">
        <ele>312.4</ele>
        <time>2022-07-17T04:24:16Z</time>
      </trkpt>
      <trkpt lat="45.55405" lon="6.28155">
        <ele>312.4</ele>
        <time>2022-07-17T04:24:17Z</time>
      </trkpt>
      <trkpt lat="45.55407" lon="6.28162">
        <ele>312.6</ele>
        <time>2022-07-17T04:24:18Z</time>
      </trkpt>
      <trkpt lat="45.55409" lon="6.28169">
        <ele>312.6</ele>
        <time>2022-07-17T04:24:19Z</time>
      </trkpt>
      <trkpt lat="45.5541" lon="6.28177">
        <ele>312.6</ele>
        <time>2022-07-17T04:24:20Z</time>
      </trkpt>
      <trkpt lat="45.55412" lon="6.28184">
        <ele>312.6</ele>
        <time>2022-07-17T04:24:21Z</time>
      </trkpt>
      <trkpt lat="45.55413" lon="6.28191">
        <ele>312.6</ele>
        <time>2022-07-17T04:24:22Z</time>
      </trkpt>
      <trkpt lat="45.55415" lon="6.28198">
        <ele>312.6</ele>
        <time>2022-07-17T04:24:23Z</time>
      </trkpt>
      <trkpt lat="45.55416" lon="6.28205">
        <ele>312.6</ele>
        <time>2022-07-17T04:24:24Z</time>
      </trkpt>
      <trkpt lat="45.55418" lon="6.28211">
        <ele>312.6</ele>
        <time>2022-07-17T04:24:25Z</time>
      </trkpt>
      <trkpt lat="45.55419" lon="6.28218">
        <ele>312.6</ele>
        <time>2022-07-17T04:24:26Z</time>
      </trkpt>
      <trkpt lat="45.55421" lon="6.28224">
        <ele>312.6</ele>
        <time>2022-07-17T04:24:27Z</time>
      </trkpt>
      <trkpt lat="45.55422" lon="6.28231">
        <ele>312.6</ele>
        <time>2022-07-17T04:24:28Z</time>
      </trkpt>
      <trkpt lat="45.55423" lon="6.28237">
        <ele>312.6</ele>
        <time>2022-07-17T04:24:29Z</time>
      </trkpt>
      <trkpt lat="45.55425" lon="6.28244">
        <ele>312.6</ele>
        <time>2022-07-17T04:24:30Z</time>
      </trkpt>
      <trkpt lat="45.55426" lon="6.28251">
        <ele>312.6</ele>
        <time>2022-07-17T04:24:31Z</time>
      </trkpt>
      <trkpt lat="45.55427" lon="6.28257">
        <ele>312.6</ele>
        <time>2022-07-17T04:24:32Z</time>
      </trkpt>
      <trkpt lat="45.55429" lon="6.28263">
        <ele>312.6</ele>
        <time>2022-07-17T04:24:33Z</time>
      </trkpt>
      <trkpt lat="45.5543" lon="6.28268">
        <ele>312.6</ele>
        <time>2022-07-17T04:24:34Z</time>
      </trkpt>
      <trkpt lat="45.55432" lon="6.28274">
        <ele>312.6</ele>
        <time>2022-07-17T04:24:35Z</time>
      </trkpt>
      <trkpt lat="45.55433" lon="6.28279">
        <ele>312.6</ele>
        <time>2022-07-17T04:24:36Z</time>
      </trkpt>
      <trkpt lat="45.55434" lon="6.28284">
        <ele>312.6</ele>
        <time>2022-07-17T04:24:37Z</time>
      </trkpt>
      <trkpt lat="45.55436" lon="6.28288">
        <ele>312.6</ele>
        <time>2022-07-17T04:24:38Z</time>
      </trkpt>
      <trkpt lat="45.55437" lon="6.28291">
        <ele>312.6</ele>
        <time>2022-07-17T04:24:39Z</time>
      </trkpt>
      <trkpt lat="45.55438" lon="6.28294">
        <ele>312.4</ele>
        <time>2022-07-17T04:24:40Z</time>
      </trkpt>
      <trkpt lat="45.55439" lon="6.28295">
        <ele>312.4</ele>
        <time>2022-07-17T04:24:41Z</time>
      </trkpt>
      <trkpt lat="45.55439" lon="6.28296">
        <ele>312.4</ele>
        <time>2022-07-17T04:24:42Z</time>
      </trkpt>
      <trkpt lat="45.55439" lon="6.28297">
        <ele>312.4</ele>
        <time>2022-07-17T04:24:43Z</time>
      </trkpt>
      <trkpt lat="45.55438" lon="6.28299">
        <ele>312.4</ele>
        <time>2022-07-17T04:26:07Z</time>
      </trkpt>
      <trkpt lat="45.55438" lon="6.28302">
        <ele>312.4</ele>
        <time>2022-07-17T04:26:08Z</time>
      </trkpt>
      <trkpt lat="45.55438" lon="6.28305">
        <ele>312.4</ele>
        <time>2022-07-17T04:26:09Z</time>
      </trkpt>
      <trkpt lat="45.55438" lon="6.28308">
        <ele>312.4</ele>
        <time>2022-07-17T04:26:10Z</time>
      </trkpt>
      <trkpt lat="45.55438" lon="6.28312">
        <ele>312.4</ele>
        <time>2022-07-17T04:26:11Z</time>
      </trkpt>
      <trkpt lat="45.55437" lon="6.28317">
        <ele>312.4</ele>
        <time>2022-07-17T04:26:12Z</time>
      </trkpt>
      <trkpt lat="45.55437" lon="6.28323">
        <ele>312.4</ele>
        <time>2022-07-17T04:26:13Z</time>
      </trkpt>
      <trkpt lat="45.55436" lon="6.28329">
        <ele>312.4</ele>
        <time>2022-07-17T04:26:14Z</time>
      </trkpt>
      <trkpt lat="45.55434" lon="6.28334">
        <ele>312.4</ele>
        <time>2022-07-17T04:26:15Z</time>
      </trkpt>
      <trkpt lat="45.55433" lon="6.28341">
        <ele>312.4</ele>
        <time>2022-07-17T04:26:16Z</time>
      </trkpt>
      <trkpt lat="45.55433" lon="6.28349">
        <ele>312.4</ele>
        <time>2022-07-17T04:26:17Z</time>
      </trkpt>
      <trkpt lat="45.55433" lon="6.28357">
        <ele>312.4</ele>
        <time>2022-07-17T04:26:18Z</time>
      </trkpt>
      <trkpt lat="45.55433" lon="6.28365">
        <ele>312.4</ele>
        <time>2022-07-17T04:26:19Z</time>
      </trkpt>
      <trkpt lat="45.55433" lon="6.28374">
        <ele>312.4</ele>
        <time>2022-07-17T04:26:20Z</time>
      </trkpt>
      <trkpt lat="45.55434" lon="6.28383">
        <ele>312.4</ele>
        <time>2022-07-17T04:26:21Z</time>
      </trkpt>
      <trkpt lat="45.55435" lon="6.28392">
        <ele>312.8</ele>
        <time>2022-07-17T04:26:22Z</time>
      </trkpt>
      <trkpt lat="45.55436" lon="6.28401">
        <ele>312.8</ele>
        <time>2022-07-17T04:26:23Z</time>
      </trkpt>
      <trkpt lat="45.55438" lon="6.2841">
        <ele>312.8</ele>
        <time>2022-07-17T04:26:24Z</time>
      </trkpt>
      <trkpt lat="45.55439" lon="6.28418">
        <ele>312.8</ele>
        <time>2022-07-17T04:26:25Z</time>
      </trkpt>
      <trkpt lat="45.5544" lon="6.28427">
        <ele>313</ele>
        <time>2022-07-17T04:26:26Z</time>
      </trkpt>
      <trkpt lat="45.55441" lon="6.28436">
        <ele>313</ele>
        <time>2022-07-17T04:26:27Z</time>
      </trkpt>
      <trkpt lat="45.55441" lon="6.28445">
        <ele>313</ele>
        <time>2022-07-17T04:26:28Z</time>
      </trkpt>
      <trkpt lat="45.55441" lon="6.28454">
        <ele>313</ele>
        <time>2022-07-17T04:26:29Z</time>
      </trkpt>
      <trkpt lat="45.55441" lon="6.28463">
        <ele>313</ele>
        <time>2022-07-17T04:26:30Z</time>
      </trkpt>
      <trkpt lat="45.55441" lon="6.28472">
        <ele>313</ele>
        <time>2022-07-17T04:26:31Z</time>
      </trkpt>
      <trkpt lat="45.55441" lon="6.2848">
        <ele>313</ele>
        <time>2022-07-17T04:26:32Z</time>
      </trkpt>
      <trkpt lat="45.55442" lon="6.28489">
        <ele>313</ele>
        <time>2022-07-17T04:26:33Z</time>
      </trkpt>
      <trkpt lat="45.55442" lon="6.28498">
        <ele>313</ele>
        <time>2022-07-17T04:26:34Z</time>
      </trkpt>
      <trkpt lat="45.55442" lon="6.28507">
        <ele>313.2</ele>
        <time>2022-07-17T04:26:35Z</time>
      </trkpt>
      <trkpt lat="45.55442" lon="6.28515">
        <ele>313.2</ele>
        <time>2022-07-17T04:26:36Z</time>
      </trkpt>
      <trkpt lat="45.55442" lon="6.28524">
        <ele>313.2</ele>
        <time>2022-07-17T04:26:37Z</time>
      </trkpt>
      <trkpt lat="45.55442" lon="6.28533">
        <ele>313.2</ele>
        <time>2022-07-17T04:26:38Z</time>
      </trkpt>
      <trkpt lat="45.55441" lon="6.28542">
        <ele>313.2</ele>
        <time>2022-07-17T04:26:39Z</time>
      </trkpt>
      <trkpt lat="45.5544" lon="6.28551">
        <ele>313.2</ele>
        <time>2022-07-17T04:26:40Z</time>
      </trkpt>
      <trkpt lat="45.55439" lon="6.28559">
        <ele>313.2</ele>
        <time>2022-07-17T04:26:41Z</time>
      </trkpt>
      <trkpt lat="45.55438" lon="6.28567">
        <ele>313.2</ele>
        <time>2022-07-17T04:26:42Z</time>
      </trkpt>
      <trkpt lat="45.55436" lon="6.28575">
        <ele>313.2</ele>
        <time>2022-07-17T04:26:43Z</time>
      </trkpt>
      <trkpt lat="45.55435" lon="6.28582">
        <ele>313.2</ele>
        <time>2022-07-17T04:26:44Z</time>
      </trkpt>
      <trkpt lat="45.55434" lon="6.28589">
        <ele>313.2</ele>
        <time>2022-07-17T04:26:45Z</time>
      </trkpt>
      <trkpt lat="45.55432" lon="6.28596">
        <ele>313.2</ele>
        <time>2022-07-17T04:26:46Z</time>
      </trkpt>
      <trkpt lat="45.5543" lon="6.28603">
        <ele>313.2</ele>
        <time>2022-07-17T04:26:47Z</time>
      </trkpt>
      <trkpt lat="45.55427" lon="6.28608">
        <ele>313.2</ele>
        <time>2022-07-17T04:26:48Z</time>
      </trkpt>
      <trkpt lat="45.55424" lon="6.28613">
        <ele>313.2</ele>
        <time>2022-07-17T04:26:49Z</time>
      </trkpt>
      <trkpt lat="45.5542" lon="6.28617">
        <ele>313.2</ele>
        <time>2022-07-17T04:26:50Z</time>
      </trkpt>
      <trkpt lat="45.55417" lon="6.2862">
        <ele>313.2</ele>
        <time>2022-07-17T04:26:51Z</time>
      </trkpt>
      <trkpt lat="45.55414" lon="6.28624">
        <ele>313.4</ele>
        <time>2022-07-17T04:26:52Z</time>
      </trkpt>
      <trkpt lat="45.55411" lon="6.28627">
        <ele>313.4</ele>
        <time>2022-07-17T04:26:53Z</time>
      </trkpt>
      <trkpt lat="45.55408" lon="6.28631">
        <ele>313.8</ele>
        <time>2022-07-17T04:26:54Z</time>
      </trkpt>
      <trkpt lat="45.55405" lon="6.28635">
        <ele>313.8</ele>
        <time>2022-07-17T04:26:55Z</time>
      </trkpt>
      <trkpt lat="45.55403" lon="6.28639">
        <ele>314</ele>
        <time>2022-07-17T04:26:56Z</time>
      </trkpt>
      <trkpt lat="45.554" lon="6.28644">
        <ele>314.4</ele>
        <time>2022-07-17T04:26:57Z</time>
      </trkpt>
      <trkpt lat="45.55397" lon="6.28648">
        <ele>314.6</ele>
        <time>2022-07-17T04:26:58Z</time>
      </trkpt>
      <trkpt lat="45.55395" lon="6.28652">
        <ele>315</ele>
        <time>2022-07-17T04:26:59Z</time>
      </trkpt>
      <trkpt lat="45.55393" lon="6.28657">
        <ele>315.2</ele>
        <time>2022-07-17T04:27:00Z</time>
      </trkpt>
      <trkpt lat="45.55392" lon="6.28661">
        <ele>315.4</ele>
        <time>2022-07-17T04:27:01Z</time>
      </trkpt>
      <trkpt lat="45.55391" lon="6.28666">
        <ele>315.6</ele>
        <time>2022-07-17T04:27:02Z</time>
      </trkpt>
      <trkpt lat="45.55391" lon="6.28671">
        <ele>315.8</ele>
        <time>2022-07-17T04:27:03Z</time>
      </trkpt>
      <trkpt lat="45.5539" lon="6.28676">
        <ele>316.2</ele>
        <time>2022-07-17T04:27:04Z</time>
      </trkpt>
      <trkpt lat="45.5539" lon="6.28681">
        <ele>316.4</ele>
        <time>2022-07-17T04:27:05Z</time>
      </trkpt>
      <trkpt lat="45.55389" lon="6.28686">
        <ele>316.8</ele>
        <time>2022-07-17T04:27:06Z</time>
      </trkpt>
      <trkpt lat="45.55389" lon="6.28691">
        <ele>317</ele>
        <time>2022-07-17T04:27:07Z</time>
      </trkpt>
      <trkpt lat="45.55389" lon="6.28696">
        <ele>317.4</ele>
        <time>2022-07-17T04:27:08Z</time>
      </trkpt>
      <trkpt lat="45.55389" lon="6.28701">
        <ele>317.6</ele>
        <time>2022-07-17T04:27:09Z</time>
      </trkpt>
      <trkpt lat="45.55389" lon="6.28706">
        <ele>318</ele>
        <time>2022-07-17T04:27:10Z</time>
      </trkpt>
      <trkpt lat="45.55389" lon="6.28711">
        <ele>318.2</ele>
        <time>2022-07-17T04:27:11Z</time>
      </trkpt>
      <trkpt lat="45.55388" lon="6.28715">
        <ele>318.4</ele>
        <time>2022-07-17T04:27:12Z</time>
      </trkpt>
      <trkpt lat="45.55388" lon="6.28719">
        <ele>318.8</ele>
        <time>2022-07-17T04:27:13Z</time>
      </trkpt>
      <trkpt lat="45.55388" lon="6.28723">
        <ele>319</ele>
        <time>2022-07-17T04:27:14Z</time>
      </trkpt>
      <trkpt lat="45.55388" lon="6.28728">
        <ele>319.4</ele>
        <time>2022-07-17T04:27:15Z</time>
      </trkpt>
      <trkpt lat="45.55387" lon="6.28732">
        <ele>319.6</ele>
        <time>2022-07-17T04:27:16Z</time>
      </trkpt>
      <trkpt lat="45.55386" lon="6.28736">
        <ele>320</ele>
        <time>2022-07-17T04:27:17Z</time>
      </trkpt>
      <trkpt lat="45.55385" lon="6.2874">
        <ele>320.2</ele>
        <time>2022-07-17T04:27:18Z</time>
      </trkpt>
      <trkpt lat="45.55384" lon="6.28744">
        <ele>320.6</ele>
        <time>2022-07-17T04:27:19Z</time>
      </trkpt>
      <trkpt lat="45.55384" lon="6.28747">
        <ele>321</ele>
        <time>2022-07-17T04:27:20Z</time>
      </trkpt>
      <trkpt lat="45.55383" lon="6.2875">
        <ele>321.4</ele>
        <time>2022-07-17T04:27:21Z</time>
      </trkpt>
      <trkpt lat="45.55384" lon="6.28754">
        <ele>321.8</ele>
        <time>2022-07-17T04:27:22Z</time>
      </trkpt>
      <trkpt lat="45.55384" lon="6.28758">
        <ele>322</ele>
        <time>2022-07-17T04:27:23Z</time>
      </trkpt>
      <trkpt lat="45.55384" lon="6.28762">
        <ele>322.4</ele>
        <time>2022-07-17T04:27:24Z</time>
      </trkpt>
      <trkpt lat="45.55383" lon="6.28766">
        <ele>322.6</ele>
        <time>2022-07-17T04:27:25Z</time>
      </trkpt>
      <trkpt lat="45.55382" lon="6.28769">
        <ele>323</ele>
        <time>2022-07-17T04:27:26Z</time>
      </trkpt>
      <trkpt lat="45.55381" lon="6.28773">
        <ele>323.4</ele>
        <time>2022-07-17T04:27:27Z</time>
      </trkpt>
      <trkpt lat="45.5538" lon="6.28776">
        <ele>323.8</ele>
        <time>2022-07-17T04:27:28Z</time>
      </trkpt>
      <trkpt lat="45.55379" lon="6.2878">
        <ele>324.2</ele>
        <time>2022-07-17T04:27:29Z</time>
      </trkpt>
      <trkpt lat="45.55379" lon="6.28783">
        <ele>324.4</ele>
        <time>2022-07-17T04:27:30Z</time>
      </trkpt>
      <trkpt lat="45.55378" lon="6.28787">
        <ele>324.8</ele>
        <time>2022-07-17T04:27:31Z</time>
      </trkpt>
      <trkpt lat="45.55378" lon="6.28791">
        <ele>325</ele>
        <time>2022-07-17T04:27:32Z</time>
      </trkpt>
      <trkpt lat="45.55377" lon="6.28796">
        <ele>325.4</ele>
        <time>2022-07-17T04:27:33Z</time>
      </trkpt>
      <trkpt lat="45.55377" lon="6.28801">
        <ele>325.6</ele>
        <time>2022-07-17T04:27:34Z</time>
      </trkpt>
      <trkpt lat="45.55376" lon="6.28805">
        <ele>326</ele>
        <time>2022-07-17T04:27:35Z</time>
      </trkpt>
      <trkpt lat="45.55376" lon="6.2881">
        <ele>326.2</ele>
        <time>2022-07-17T04:27:36Z</time>
      </trkpt>
      <trkpt lat="45.55374" lon="6.28814">
        <ele>326.6</ele>
        <time>2022-07-17T04:27:37Z</time>
      </trkpt>
      <trkpt lat="45.55373" lon="6.28819">
        <ele>326.8</ele>
        <time>2022-07-17T04:27:38Z</time>
      </trkpt>
      <trkpt lat="45.55371" lon="6.28823">
        <ele>327</ele>
        <time>2022-07-17T04:27:39Z</time>
      </trkpt>
      <trkpt lat="45.55369" lon="6.28828">
        <ele>327.4</ele>
        <time>2022-07-17T04:27:40Z</time>
      </trkpt>
      <trkpt lat="45.55368" lon="6.28833">
        <ele>327.4</ele>
        <time>2022-07-17T04:27:41Z</time>
      </trkpt>
      <trkpt lat="45.55367" lon="6.28839">
        <ele>327.6</ele>
        <time>2022-07-17T04:27:42Z</time>
      </trkpt>
      <trkpt lat="45.55366" lon="6.28845">
        <ele>327.6</ele>
        <time>2022-07-17T04:27:43Z</time>
      </trkpt>
      <trkpt lat="45.55365" lon="6.28851">
        <ele>327.8</ele>
        <time>2022-07-17T04:27:44Z</time>
      </trkpt>
      <trkpt lat="45.55363" lon="6.28858">
        <ele>327.8</ele>
        <time>2022-07-17T04:27:45Z</time>
      </trkpt>
      <trkpt lat="45.55362" lon="6.28864">
        <ele>327.8</ele>
        <time>2022-07-17T04:27:46Z</time>
      </trkpt>
      <trkpt lat="45.55361" lon="6.28871">
        <ele>327.8</ele>
        <time>2022-07-17T04:27:47Z</time>
      </trkpt>
      <trkpt lat="45.5536" lon="6.28878">
        <ele>327.8</ele>
        <time>2022-07-17T04:27:48Z</time>
      </trkpt>
      <trkpt lat="45.55358" lon="6.28884">
        <ele>327.8</ele>
        <time>2022-07-17T04:27:49Z</time>
      </trkpt>
      <trkpt lat="45.55356" lon="6.28889">
        <ele>327.8</ele>
        <time>2022-07-17T04:27:50Z</time>
      </trkpt>
      <trkpt lat="45.55353" lon="6.28894">
        <ele>327.8</ele>
        <time>2022-07-17T04:27:51Z</time>
      </trkpt>
      <trkpt lat="45.5535" lon="6.28897">
        <ele>328</ele>
        <time>2022-07-17T04:27:52Z</time>
      </trkpt>
      <trkpt lat="45.55347" lon="6.289">
        <ele>328</ele>
        <time>2022-07-17T04:27:53Z</time>
      </trkpt>
      <trkpt lat="45.55344" lon="6.28903">
        <ele>328</ele>
        <time>2022-07-17T04:27:54Z</time>
      </trkpt>
      <trkpt lat="45.55341" lon="6.28906">
        <ele>328</ele>
        <time>2022-07-17T04:27:55Z</time>
      </trkpt>
      <trkpt lat="45.55338" lon="6.28909">
        <ele>328</ele>
        <time>2022-07-17T04:27:56Z</time>
      </trkpt>
      <trkpt lat="45.55335" lon="6.28913">
        <ele>328</ele>
        <time>2022-07-17T04:27:57Z</time>
      </trkpt>
      <trkpt lat="45.55333" lon="6.28917">
        <ele>327.6</ele>
        <time>2022-07-17T04:27:58Z</time>
      </trkpt>
      <trkpt lat="45.5533" lon="6.28924">
        <ele>327.4</ele>
        <time>2022-07-17T04:27:59Z</time>
      </trkpt>
      <trkpt lat="45.55327" lon="6.28932">
        <ele>326.8</ele>
        <time>2022-07-17T04:28:00Z</time>
      </trkpt>
      <trkpt lat="45.55324" lon="6.28939">
        <ele>326.4</ele>
        <time>2022-07-17T04:28:01Z</time>
      </trkpt>
      <trkpt lat="45.55321" lon="6.28947">
        <ele>325.8</ele>
        <time>2022-07-17T04:28:02Z</time>
      </trkpt>
      <trkpt lat="45.55317" lon="6.28955">
        <ele>325.2</ele>
        <time>2022-07-17T04:28:03Z</time>
      </trkpt>
      <trkpt lat="45.55312" lon="6.28963">
        <ele>324.6</ele>
        <time>2022-07-17T04:28:04Z</time>
      </trkpt>
      <trkpt lat="45.55307" lon="6.2897">
        <ele>324</ele>
        <time>2022-07-17T04:28:05Z</time>
      </trkpt>
      <trkpt lat="45.55302" lon="6.28977">
        <ele>323.6</ele>
        <time>2022-07-17T04:28:06Z</time>
      </trkpt>
      <trkpt lat="45.55295" lon="6.28983">
        <ele>323</ele>
        <time>2022-07-17T04:28:07Z</time>
      </trkpt>
      <trkpt lat="45.5529" lon="6.28988">
        <ele>322.6</ele>
        <time>2022-07-17T04:28:08Z</time>
      </trkpt>
      <trkpt lat="45.55284" lon="6.28992">
        <ele>322</ele>
        <time>2022-07-17T04:28:09Z</time>
      </trkpt>
      <trkpt lat="45.55278" lon="6.28995">
        <ele>321.4</ele>
        <time>2022-07-17T04:28:10Z</time>
      </trkpt>
      <trkpt lat="45.55272" lon="6.28998">
        <ele>321</ele>
        <time>2022-07-17T04:28:11Z</time>
      </trkpt>
      <trkpt lat="45.55266" lon="6.29">
        <ele>320.6</ele>
        <time>2022-07-17T04:28:12Z</time>
      </trkpt>
      <trkpt lat="45.55263" lon="6.29003">
        <ele>320.2</ele>
        <time>2022-07-17T04:28:13Z</time>
      </trkpt>
      <trkpt lat="45.55261" lon="6.29006">
        <ele>319.8</ele>
        <time>2022-07-17T04:28:14Z</time>
      </trkpt>
      <trkpt lat="45.55258" lon="6.29012">
        <ele>319.6</ele>
        <time>2022-07-17T04:28:15Z</time>
      </trkpt>
      <trkpt lat="45.55255" lon="6.29017">
        <ele>319.4</ele>
        <time>2022-07-17T04:28:16Z</time>
      </trkpt>
      <trkpt lat="45.5525" lon="6.29022">
        <ele>319.4</ele>
        <time>2022-07-17T04:28:17Z</time>
      </trkpt>
      <trkpt lat="45.55246" lon="6.29027">
        <ele>319</ele>
        <time>2022-07-17T04:28:18Z</time>
      </trkpt>
      <trkpt lat="45.55241" lon="6.29032">
        <ele>319</ele>
        <time>2022-07-17T04:28:19Z</time>
      </trkpt>
      <trkpt lat="45.55237" lon="6.29036">
        <ele>319</ele>
        <time>2022-07-17T04:28:20Z</time>
      </trkpt>
      <trkpt lat="45.55231" lon="6.2904">
        <ele>319</ele>
        <time>2022-07-17T04:28:21Z</time>
      </trkpt>
      <trkpt lat="45.55225" lon="6.29043">
        <ele>319</ele>
        <time>2022-07-17T04:28:22Z</time>
      </trkpt>
      <trkpt lat="45.55218" lon="6.29046">
        <ele>319</ele>
        <time>2022-07-17T04:28:23Z</time>
      </trkpt>
      <trkpt lat="45.55211" lon="6.29049">
        <ele>319</ele>
        <time>2022-07-17T04:28:24Z</time>
      </trkpt>
      <trkpt lat="45.55204" lon="6.29051">
        <ele>319</ele>
        <time>2022-07-17T04:28:25Z</time>
      </trkpt>
      <trkpt lat="45.55196" lon="6.29053">
        <ele>319</ele>
        <time>2022-07-17T04:28:26Z</time>
      </trkpt>
      <trkpt lat="45.5519" lon="6.29054">
        <ele>319</ele>
        <time>2022-07-17T04:28:27Z</time>
      </trkpt>
      <trkpt lat="45.55183" lon="6.29055">
        <ele>319</ele>
        <time>2022-07-17T04:28:28Z</time>
      </trkpt>
      <trkpt lat="45.55177" lon="6.29056">
        <ele>319.2</ele>
        <time>2022-07-17T04:28:29Z</time>
      </trkpt>
      <trkpt lat="45.55171" lon="6.29055">
        <ele>319.2</ele>
        <time>2022-07-17T04:28:30Z</time>
      </trkpt>
      <trkpt lat="45.55165" lon="6.29054">
        <ele>319.6</ele>
        <time>2022-07-17T04:28:31Z</time>
      </trkpt>
      <trkpt lat="45.5516" lon="6.29053">
        <ele>319.6</ele>
        <time>2022-07-17T04:28:32Z</time>
      </trkpt>
      <trkpt lat="45.55155" lon="6.29051">
        <ele>319.8</ele>
        <time>2022-07-17T04:28:33Z</time>
      </trkpt>
      <trkpt lat="45.55149" lon="6.29049">
        <ele>319.8</ele>
        <time>2022-07-17T04:28:34Z</time>
      </trkpt>
      <trkpt lat="45.55143" lon="6.29047">
        <ele>319.8</ele>
        <time>2022-07-17T04:28:35Z</time>
      </trkpt>
      <trkpt lat="45.55138" lon="6.29045">
        <ele>320</ele>
        <time>2022-07-17T04:28:36Z</time>
      </trkpt>
      <trkpt lat="45.55132" lon="6.29043">
        <ele>320</ele>
        <time>2022-07-17T04:28:37Z</time>
      </trkpt>
      <trkpt lat="45.55127" lon="6.2904">
        <ele>320</ele>
        <time>2022-07-17T04:28:38Z</time>
      </trkpt>
      <trkpt lat="45.55122" lon="6.29038">
        <ele>320</ele>
        <time>2022-07-17T04:28:39Z</time>
      </trkpt>
      <trkpt lat="45.55116" lon="6.29035">
        <ele>320</ele>
        <time>2022-07-17T04:28:40Z</time>
      </trkpt>
      <trkpt lat="45.5511" lon="6.29033">
        <ele>320.2</ele>
        <time>2022-07-17T04:28:41Z</time>
      </trkpt>
      <trkpt lat="45.55104" lon="6.29031">
        <ele>320.2</ele>
        <time>2022-07-17T04:28:42Z</time>
      </trkpt>
      <trkpt lat="45.55099" lon="6.29029">
        <ele>320.6</ele>
        <time>2022-07-17T04:28:43Z</time>
      </trkpt>
      <trkpt lat="45.55094" lon="6.29027">
        <ele>320.6</ele>
        <time>2022-07-17T04:28:44Z</time>
      </trkpt>
      <trkpt lat="45.55089" lon="6.29024">
        <ele>321</ele>
        <time>2022-07-17T04:28:45Z</time>
      </trkpt>
      <trkpt lat="45.55086" lon="6.29021">
        <ele>321</ele>
        <time>2022-07-17T04:28:46Z</time>
      </trkpt>
      <trkpt lat="45.55082" lon="6.29019">
        <ele>321</ele>
        <time>2022-07-17T04:28:47Z</time>
      </trkpt>
      <trkpt lat="45.55077" lon="6.29017">
        <ele>321.4</ele>
        <time>2022-07-17T04:28:48Z</time>
      </trkpt>
      <trkpt lat="45.55071" lon="6.29015">
        <ele>321.4</ele>
        <time>2022-07-17T04:28:49Z</time>
      </trkpt>
      <trkpt lat="45.55067" lon="6.29014">
        <ele>321.6</ele>
        <time>2022-07-17T04:28:50Z</time>
      </trkpt>
      <trkpt lat="45.55061" lon="6.29013">
        <ele>321.6</ele>
        <time>2022-07-17T04:28:51Z</time>
      </trkpt>
      <trkpt lat="45.55055" lon="6.29012">
        <ele>321.6</ele>
        <time>2022-07-17T04:28:52Z</time>
      </trkpt>
      <trkpt lat="45.55048" lon="6.29014">
        <ele>321.6</ele>
        <time>2022-07-17T04:28:53Z</time>
      </trkpt>
      <trkpt lat="45.5504" lon="6.29017">
        <ele>321.2</ele>
        <time>2022-07-17T04:28:54Z</time>
      </trkpt>
      <trkpt lat="45.55032" lon="6.29019">
        <ele>320.8</ele>
        <time>2022-07-17T04:28:55Z</time>
      </trkpt>
      <trkpt lat="45.55023" lon="6.2902">
        <ele>320.4</ele>
        <time>2022-07-17T04:28:56Z</time>
      </trkpt>
      <trkpt lat="45.55014" lon="6.2902">
        <ele>320</ele>
        <time>2022-07-17T04:28:57Z</time>
      </trkpt>
      <trkpt lat="45.55005" lon="6.29022">
        <ele>319.8</ele>
        <time>2022-07-17T04:28:58Z</time>
      </trkpt>
      <trkpt lat="45.54997" lon="6.29023">
        <ele>319.4</ele>
        <time>2022-07-17T04:28:59Z</time>
      </trkpt>
      <trkpt lat="45.54988" lon="6.29025">
        <ele>318.8</ele>
        <time>2022-07-17T04:29:00Z</time>
      </trkpt>
      <trkpt lat="45.5498" lon="6.29027">
        <ele>318.4</ele>
        <time>2022-07-17T04:29:01Z</time>
      </trkpt>
      <trkpt lat="45.54971" lon="6.2903">
        <ele>318.2</ele>
        <time>2022-07-17T04:29:02Z</time>
      </trkpt>
      <trkpt lat="45.54963" lon="6.29032">
        <ele>318.2</ele>
        <time>2022-07-17T04:29:03Z</time>
      </trkpt>
      <trkpt lat="45.54955" lon="6.29035">
        <ele>317.8</ele>
        <time>2022-07-17T04:29:04Z</time>
      </trkpt>
      <trkpt lat="45.54948" lon="6.29039">
        <ele>317.8</ele>
        <time>2022-07-17T04:29:05Z</time>
      </trkpt>
      <trkpt lat="45.5494" lon="6.29043">
        <ele>317.6</ele>
        <time>2022-07-17T04:29:06Z</time>
      </trkpt>
      <trkpt lat="45.54934" lon="6.2905">
        <ele>317.6</ele>
        <time>2022-07-17T04:29:07Z</time>
      </trkpt>
      <trkpt lat="45.54928" lon="6.29056">
        <ele>317.4</ele>
        <time>2022-07-17T04:29:08Z</time>
      </trkpt>
      <trkpt lat="45.54923" lon="6.29064">
        <ele>317.4</ele>
        <time>2022-07-17T04:29:09Z</time>
      </trkpt>
      <trkpt lat="45.54919" lon="6.29073">
        <ele>317.4</ele>
        <time>2022-07-17T04:29:10Z</time>
      </trkpt>
      <trkpt lat="45.54915" lon="6.29081">
        <ele>317.4</ele>
        <time>2022-07-17T04:29:11Z</time>
      </trkpt>
      <trkpt lat="45.54912" lon="6.29088">
        <ele>317.4</ele>
        <time>2022-07-17T04:29:12Z</time>
      </trkpt>
      <trkpt lat="45.5491" lon="6.29096">
        <ele>317.4</ele>
        <time>2022-07-17T04:29:13Z</time>
      </trkpt>
      <trkpt lat="45.54907" lon="6.29103">
        <ele>317.4</ele>
        <time>2022-07-17T04:29:14Z</time>
      </trkpt>
      <trkpt lat="45.54905" lon="6.2911">
        <ele>317.4</ele>
        <time>2022-07-17T04:29:15Z</time>
      </trkpt>
      <trkpt lat="45.54903" lon="6.29117">
        <ele>317.6</ele>
        <time>2022-07-17T04:29:16Z</time>
      </trkpt>
      <trkpt lat="45.54901" lon="6.29123">
        <ele>317.6</ele>
        <time>2022-07-17T04:29:17Z</time>
      </trkpt>
      <trkpt lat="45.54898" lon="6.29129">
        <ele>318</ele>
        <time>2022-07-17T04:29:18Z</time>
      </trkpt>
      <trkpt lat="45.54896" lon="6.29134">
        <ele>318.2</ele>
        <time>2022-07-17T04:29:19Z</time>
      </trkpt>
      <trkpt lat="45.54894" lon="6.2914">
        <ele>318.6</ele>
        <time>2022-07-17T04:29:20Z</time>
      </trkpt>
      <trkpt lat="45.54892" lon="6.29146">
        <ele>318.6</ele>
        <time>2022-07-17T04:29:21Z</time>
      </trkpt>
      <trkpt lat="45.5489" lon="6.29152">
        <ele>319</ele>
        <time>2022-07-17T04:29:22Z</time>
      </trkpt>
      <trkpt lat="45.54888" lon="6.29158">
        <ele>319</ele>
        <time>2022-07-17T04:29:23Z</time>
      </trkpt>
      <trkpt lat="45.54886" lon="6.29165">
        <ele>319.2</ele>
        <time>2022-07-17T04:29:24Z</time>
      </trkpt>
      <trkpt lat="45.54884" lon="6.29172">
        <ele>319.4</ele>
        <time>2022-07-17T04:29:25Z</time>
      </trkpt>
      <trkpt lat="45.54882" lon="6.29178">
        <ele>319.4</ele>
        <time>2022-07-17T04:29:26Z</time>
      </trkpt>
      <trkpt lat="45.54881" lon="6.29186">
        <ele>319.6</ele>
        <time>2022-07-17T04:29:27Z</time>
      </trkpt>
      <trkpt lat="45.54879" lon="6.29193">
        <ele>319.6</ele>
        <time>2022-07-17T04:29:28Z</time>
      </trkpt>
      <trkpt lat="45.54877" lon="6.292">
        <ele>319.8</ele>
        <time>2022-07-17T04:29:29Z</time>
      </trkpt>
      <trkpt lat="45.54876" lon="6.29208">
        <ele>319.8</ele>
        <time>2022-07-17T04:29:30Z</time>
      </trkpt>
      <trkpt lat="45.54874" lon="6.29215">
        <ele>320.2</ele>
        <time>2022-07-17T04:29:31Z</time>
      </trkpt>
      <trkpt lat="45.54872" lon="6.29222">
        <ele>320.2</ele>
        <time>2022-07-17T04:29:32Z</time>
      </trkpt>
      <trkpt lat="45.5487" lon="6.29229">
        <ele>320.2</ele>
        <time>2022-07-17T04:29:33Z</time>
      </trkpt>
      <trkpt lat="45.54868" lon="6.29235">
        <ele>320.4</ele>
        <time>2022-07-17T04:29:34Z</time>
      </trkpt>
      <trkpt lat="45.54865" lon="6.29242">
        <ele>320.4</ele>
        <time>2022-07-17T04:29:35Z</time>
      </trkpt>
      <trkpt lat="45.54862" lon="6.29247">
        <ele>320.8</ele>
        <time>2022-07-17T04:29:36Z</time>
      </trkpt>
      <trkpt lat="45.54858" lon="6.29251">
        <ele>321</ele>
        <time>2022-07-17T04:29:37Z</time>
      </trkpt>
      <trkpt lat="45.54854" lon="6.29253">
        <ele>321.2</ele>
        <time>2022-07-17T04:29:38Z</time>
      </trkpt>
      <trkpt lat="45.54849" lon="6.29252">
        <ele>321.4</ele>
        <time>2022-07-17T04:29:39Z</time>
      </trkpt>
      <trkpt lat="45.54845" lon="6.2925">
        <ele>321.8</ele>
        <time>2022-07-17T04:29:40Z</time>
      </trkpt>
      <trkpt lat="45.54841" lon="6.29247">
        <ele>322</ele>
        <time>2022-07-17T04:29:41Z</time>
      </trkpt>
      <trkpt lat="45.54837" lon="6.29244">
        <ele>322.2</ele>
        <time>2022-07-17T04:29:42Z</time>
      </trkpt>
      <trkpt lat="45.54834" lon="6.29241">
        <ele>322.4</ele>
        <time>2022-07-17T04:29:43Z</time>
      </trkpt>
      <trkpt lat="45.54831" lon="6.29237">
        <ele>322.8</ele>
        <time>2022-07-17T04:29:44Z</time>
      </trkpt>
      <trkpt lat="45.54829" lon="6.29234">
        <ele>323.2</ele>
        <time>2022-07-17T04:29:46Z</time>
      </trkpt>
      <trkpt lat="45.54826" lon="6.29231">
        <ele>323.6</ele>
        <time>2022-07-17T04:29:47Z</time>
      </trkpt>
      <trkpt lat="45.54823" lon="6.29228">
        <ele>323.8</ele>
        <time>2022-07-17T04:29:48Z</time>
      </trkpt>
      <trkpt lat="45.54821" lon="6.29225">
        <ele>324</ele>
        <time>2022-07-17T04:29:49Z</time>
      </trkpt>
      <trkpt lat="45.54818" lon="6.29222">
        <ele>324.2</ele>
        <time>2022-07-17T04:29:50Z</time>
      </trkpt>
      <trkpt lat="45.54815" lon="6.29219">
        <ele>324.6</ele>
        <time>2022-07-17T04:29:51Z</time>
      </trkpt>
      <trkpt lat="45.54812" lon="6.29216">
        <ele>324.8</ele>
        <time>2022-07-17T04:29:52Z</time>
      </trkpt>
      <trkpt lat="45.5481" lon="6.29213">
        <ele>325</ele>
        <time>2022-07-17T04:29:53Z</time>
      </trkpt>
      <trkpt lat="45.54807" lon="6.29209">
        <ele>325</ele>
        <time>2022-07-17T04:29:54Z</time>
      </trkpt>
      <trkpt lat="45.54803" lon="6.29206">
        <ele>325.2</ele>
        <time>2022-07-17T04:29:55Z</time>
      </trkpt>
      <trkpt lat="45.548" lon="6.29202">
        <ele>325.2</ele>
        <time>2022-07-17T04:29:56Z</time>
      </trkpt>
      <trkpt lat="45.54796" lon="6.29198">
        <ele>325.4</ele>
        <time>2022-07-17T04:29:57Z</time>
      </trkpt>
      <trkpt lat="45.54793" lon="6.29194">
        <ele>325.4</ele>
        <time>2022-07-17T04:29:58Z</time>
      </trkpt>
      <trkpt lat="45.5479" lon="6.2919">
        <ele>325.8</ele>
        <time>2022-07-17T04:29:59Z</time>
      </trkpt>
      <trkpt lat="45.54787" lon="6.29186">
        <ele>325.8</ele>
        <time>2022-07-17T04:30:00Z</time>
      </trkpt>
      <trkpt lat="45.54785" lon="6.29183">
        <ele>326.2</ele>
        <time>2022-07-17T04:30:01Z</time>
      </trkpt>
      <trkpt lat="45.54783" lon="6.2918">
        <ele>326.4</ele>
        <time>2022-07-17T04:30:02Z</time>
      </trkpt>
      <trkpt lat="45.5478" lon="6.29177">
        <ele>326.6</ele>
        <time>2022-07-17T04:30:03Z</time>
      </trkpt>
      <trkpt lat="45.54778" lon="6.29174">
        <ele>326.8</ele>
        <time>2022-07-17T04:30:04Z</time>
      </trkpt>
      <trkpt lat="45.54775" lon="6.29172">
        <ele>327.2</ele>
        <time>2022-07-17T04:30:05Z</time>
      </trkpt>
      <trkpt lat="45.54773" lon="6.2917">
        <ele>327.6</ele>
        <time>2022-07-17T04:30:06Z</time>
      </trkpt>
      <trkpt lat="45.5477" lon="6.29169">
        <ele>327.8</ele>
        <time>2022-07-17T04:30:07Z</time>
      </trkpt>
      <trkpt lat="45.54768" lon="6.29167">
        <ele>328</ele>
        <time>2022-07-17T04:30:08Z</time>
      </trkpt>
      <trkpt lat="45.54766" lon="6.29166">
        <ele>328.4</ele>
        <time>2022-07-17T04:30:09Z</time>
      </trkpt>
      <trkpt lat="45.54763" lon="6.29164">
        <ele>328.8</ele>
        <time>2022-07-17T04:30:10Z</time>
      </trkpt>
      <trkpt lat="45.54761" lon="6.29163">
        <ele>329</ele>
        <time>2022-07-17T04:30:11Z</time>
      </trkpt>
      <trkpt lat="45.54758" lon="6.29161">
        <ele>329.4</ele>
        <time>2022-07-17T04:30:12Z</time>
      </trkpt>
      <trkpt lat="45.54755" lon="6.29161">
        <ele>329.8</ele>
        <time>2022-07-17T04:30:13Z</time>
      </trkpt>
      <trkpt lat="45.54752" lon="6.29161">
        <ele>330</ele>
        <time>2022-07-17T04:30:14Z</time>
      </trkpt>
      <trkpt lat="45.54749" lon="6.29162">
        <ele>330</ele>
        <time>2022-07-17T04:30:15Z</time>
      </trkpt>
      <trkpt lat="45.54747" lon="6.29165">
        <ele>330.4</ele>
        <time>2022-07-17T04:30:16Z</time>
      </trkpt>
      <trkpt lat="45.54745" lon="6.29168">
        <ele>330.4</ele>
        <time>2022-07-17T04:30:17Z</time>
      </trkpt>
      <trkpt lat="45.54742" lon="6.29172">
        <ele>330.4</ele>
        <time>2022-07-17T04:30:18Z</time>
      </trkpt>
      <trkpt lat="45.54739" lon="6.29175">
        <ele>330.4</ele>
        <time>2022-07-17T04:30:19Z</time>
      </trkpt>
      <trkpt lat="45.54735" lon="6.29178">
        <ele>330</ele>
        <time>2022-07-17T04:30:20Z</time>
      </trkpt>
      <trkpt lat="45.54731" lon="6.29181">
        <ele>329.8</ele>
        <time>2022-07-17T04:30:21Z</time>
      </trkpt>
      <trkpt lat="45.54726" lon="6.29185">
        <ele>329.4</ele>
        <time>2022-07-17T04:30:22Z</time>
      </trkpt>
      <trkpt lat="45.5472" lon="6.29188">
        <ele>329.2</ele>
        <time>2022-07-17T04:30:23Z</time>
      </trkpt>
      <trkpt lat="45.54714" lon="6.29192">
        <ele>328.8</ele>
        <time>2022-07-17T04:30:24Z</time>
      </trkpt>
      <trkpt lat="45.54707" lon="6.29195">
        <ele>328.6</ele>
        <time>2022-07-17T04:30:25Z</time>
      </trkpt>
      <trkpt lat="45.547" lon="6.29198">
        <ele>328.4</ele>
        <time>2022-07-17T04:30:26Z</time>
      </trkpt>
      <trkpt lat="45.54693" lon="6.29201">
        <ele>328.2</ele>
        <time>2022-07-17T04:30:27Z</time>
      </trkpt>
      <trkpt lat="45.54686" lon="6.29205">
        <ele>327.8</ele>
        <time>2022-07-17T04:30:28Z</time>
      </trkpt>
      <trkpt lat="45.5468" lon="6.2921">
        <ele>327.4</ele>
        <time>2022-07-17T04:30:29Z</time>
      </trkpt>
      <trkpt lat="45.54674" lon="6.29216">
        <ele>327</ele>
        <time>2022-07-17T04:30:30Z</time>
      </trkpt>
      <trkpt lat="45.54668" lon="6.29222">
        <ele>326.6</ele>
        <time>2022-07-17T04:30:31Z</time>
      </trkpt>
      <trkpt lat="45.54664" lon="6.2923">
        <ele>326.2</ele>
        <time>2022-07-17T04:30:32Z</time>
      </trkpt>
      <trkpt lat="45.54659" lon="6.29239">
        <ele>326.2</ele>
        <time>2022-07-17T04:30:33Z</time>
      </trkpt>
      <trkpt lat="45.54655" lon="6.29249">
        <ele>325.8</ele>
        <time>2022-07-17T04:30:34Z</time>
      </trkpt>
      <trkpt lat="45.54651" lon="6.29258">
        <ele>325.6</ele>
        <time>2022-07-17T04:30:35Z</time>
      </trkpt>
      <trkpt lat="45.54646" lon="6.29268">
        <ele>325.6</ele>
        <time>2022-07-17T04:30:36Z</time>
      </trkpt>
      <trkpt lat="45.54641" lon="6.29277">
        <ele>325.2</ele>
        <time>2022-07-17T04:30:37Z</time>
      </trkpt>
      <trkpt lat="45.54636" lon="6.29285">
        <ele>325.2</ele>
        <time>2022-07-17T04:30:38Z</time>
      </trkpt>
      <trkpt lat="45.54631" lon="6.29293">
        <ele>325.2</ele>
        <time>2022-07-17T04:30:39Z</time>
      </trkpt>
      <trkpt lat="45.54626" lon="6.293">
        <ele>325.2</ele>
        <time>2022-07-17T04:30:40Z</time>
      </trkpt>
      <trkpt lat="45.54622" lon="6.29307">
        <ele>325.2</ele>
        <time>2022-07-17T04:30:41Z</time>
      </trkpt>
      <trkpt lat="45.54618" lon="6.29314">
        <ele>325.2</ele>
        <time>2022-07-17T04:30:42Z</time>
      </trkpt>
      <trkpt lat="45.54614" lon="6.2932">
        <ele>325.2</ele>
        <time>2022-07-17T04:30:43Z</time>
      </trkpt>
      <trkpt lat="45.5461" lon="6.29327">
        <ele>325.2</ele>
        <time>2022-07-17T04:30:44Z</time>
      </trkpt>
      <trkpt lat="45.54606" lon="6.29333">
        <ele>325.2</ele>
        <time>2022-07-17T04:30:45Z</time>
      </trkpt>
      <trkpt lat="45.54603" lon="6.29339">
        <ele>325.4</ele>
        <time>2022-07-17T04:30:46Z</time>
      </trkpt>
      <trkpt lat="45.546" lon="6.29346">
        <ele>325.4</ele>
        <time>2022-07-17T04:30:47Z</time>
      </trkpt>
      <trkpt lat="45.54596" lon="6.29352">
        <ele>325.4</ele>
        <time>2022-07-17T04:30:48Z</time>
      </trkpt>
      <trkpt lat="45.54593" lon="6.29359">
        <ele>325.6</ele>
        <time>2022-07-17T04:30:49Z</time>
      </trkpt>
      <trkpt lat="45.54591" lon="6.29366">
        <ele>325.6</ele>
        <time>2022-07-17T04:30:50Z</time>
      </trkpt>
      <trkpt lat="45.54589" lon="6.29373">
        <ele>325.6</ele>
        <time>2022-07-17T04:30:51Z</time>
      </trkpt>
      <trkpt lat="45.54588" lon="6.29381">
        <ele>325.6</ele>
        <time>2022-07-17T04:30:52Z</time>
      </trkpt>
      <trkpt lat="45.54586" lon="6.29389">
        <ele>325.6</ele>
        <time>2022-07-17T04:30:53Z</time>
      </trkpt>
      <trkpt lat="45.54585" lon="6.29397">
        <ele>325.6</ele>
        <time>2022-07-17T04:30:54Z</time>
      </trkpt>
      <trkpt lat="45.54583" lon="6.29406">
        <ele>325.6</ele>
        <time>2022-07-17T04:30:55Z</time>
      </trkpt>
      <trkpt lat="45.54582" lon="6.29415">
        <ele>325.6</ele>
        <time>2022-07-17T04:30:56Z</time>
      </trkpt>
      <trkpt lat="45.54581" lon="6.29425">
        <ele>325.4</ele>
        <time>2022-07-17T04:30:57Z</time>
      </trkpt>
      <trkpt lat="45.5458" lon="6.29435">
        <ele>325.4</ele>
        <time>2022-07-17T04:30:58Z</time>
      </trkpt>
      <trkpt lat="45.54579" lon="6.29445">
        <ele>325</ele>
        <time>2022-07-17T04:30:59Z</time>
      </trkpt>
      <trkpt lat="45.54578" lon="6.29456">
        <ele>324.8</ele>
        <time>2022-07-17T04:31:00Z</time>
      </trkpt>
      <trkpt lat="45.54576" lon="6.29466">
        <ele>324.4</ele>
        <time>2022-07-17T04:31:01Z</time>
      </trkpt>
      <trkpt lat="45.54575" lon="6.29477">
        <ele>324</ele>
        <time>2022-07-17T04:31:02Z</time>
      </trkpt>
      <trkpt lat="45.54574" lon="6.29489">
        <ele>323.6</ele>
        <time>2022-07-17T04:31:03Z</time>
      </trkpt>
      <trkpt lat="45.54572" lon="6.29501">
        <ele>323.2</ele>
        <time>2022-07-17T04:31:04Z</time>
      </trkpt>
      <trkpt lat="45.54571" lon="6.29514">
        <ele>322.6</ele>
        <time>2022-07-17T04:31:05Z</time>
      </trkpt>
      <trkpt lat="45.5457" lon="6.29527">
        <ele>322</ele>
        <time>2022-07-17T04:31:06Z</time>
      </trkpt>
      <trkpt lat="45.54569" lon="6.2954">
        <ele>321.4</ele>
        <time>2022-07-17T04:31:07Z</time>
      </trkpt>
      <trkpt lat="45.54569" lon="6.29553">
        <ele>320.8</ele>
        <time>2022-07-17T04:31:08Z</time>
      </trkpt>
      <trkpt lat="45.54569" lon="6.29567">
        <ele>320.4</ele>
        <time>2022-07-17T04:31:09Z</time>
      </trkpt>
      <trkpt lat="45.54569" lon="6.2958">
        <ele>319.8</ele>
        <time>2022-07-17T04:31:10Z</time>
      </trkpt>
      <trkpt lat="45.54569" lon="6.29593">
        <ele>319.4</ele>
        <time>2022-07-17T04:31:11Z</time>
      </trkpt>
      <trkpt lat="45.54568" lon="6.29605">
        <ele>319.2</ele>
        <time>2022-07-17T04:31:12Z</time>
      </trkpt>
      <trkpt lat="45.54567" lon="6.29617">
        <ele>319</ele>
        <time>2022-07-17T04:31:13Z</time>
      </trkpt>
      <trkpt lat="45.54564" lon="6.29628">
        <ele>318.8</ele>
        <time>2022-07-17T04:31:14Z</time>
      </trkpt>
      <trkpt lat="45.54561" lon="6.29639">
        <ele>318.4</ele>
        <time>2022-07-17T04:31:15Z</time>
      </trkpt>
      <trkpt lat="45.54557" lon="6.29649">
        <ele>318.2</ele>
        <time>2022-07-17T04:31:16Z</time>
      </trkpt>
      <trkpt lat="45.54553" lon="6.29659">
        <ele>318</ele>
        <time>2022-07-17T04:31:17Z</time>
      </trkpt>
      <trkpt lat="45.5455" lon="6.2967">
        <ele>318</ele>
        <time>2022-07-17T04:31:18Z</time>
      </trkpt>
      <trkpt lat="45.54546" lon="6.2968">
        <ele>317.6</ele>
        <time>2022-07-17T04:31:19Z</time>
      </trkpt>
      <trkpt lat="45.54542" lon="6.29689">
        <ele>317.6</ele>
        <time>2022-07-17T04:31:20Z</time>
      </trkpt>
      <trkpt lat="45.54538" lon="6.29698">
        <ele>317.4</ele>
        <time>2022-07-17T04:31:21Z</time>
      </trkpt>
      <trkpt lat="45.54534" lon="6.29708">
        <ele>317.4</ele>
        <time>2022-07-17T04:31:22Z</time>
      </trkpt>
      <trkpt lat="45.54531" lon="6.29717">
        <ele>317.4</ele>
        <time>2022-07-17T04:31:23Z</time>
      </trkpt>
      <trkpt lat="45.54527" lon="6.29727">
        <ele>317.2</ele>
        <time>2022-07-17T04:31:24Z</time>
      </trkpt>
      <trkpt lat="45.54524" lon="6.29736">
        <ele>317.2</ele>
        <time>2022-07-17T04:31:25Z</time>
      </trkpt>
      <trkpt lat="45.5452" lon="6.29745">
        <ele>317.2</ele>
        <time>2022-07-17T04:31:26Z</time>
      </trkpt>
      <trkpt lat="45.54516" lon="6.29753">
        <ele>317.2</ele>
        <time>2022-07-17T04:31:27Z</time>
      </trkpt>
      <trkpt lat="45.54513" lon="6.29762">
        <ele>317.2</ele>
        <time>2022-07-17T04:31:28Z</time>
      </trkpt>
      <trkpt lat="45.54509" lon="6.29771">
        <ele>317.2</ele>
        <time>2022-07-17T04:31:29Z</time>
      </trkpt>
      <trkpt lat="45.54506" lon="6.2978">
        <ele>317.2</ele>
        <time>2022-07-17T04:31:30Z</time>
      </trkpt>
      <trkpt lat="45.54503" lon="6.29788">
        <ele>317.2</ele>
        <time>2022-07-17T04:31:31Z</time>
      </trkpt>
      <trkpt lat="45.545" lon="6.29797">
        <ele>317.2</ele>
        <time>2022-07-17T04:31:32Z</time>
      </trkpt>
      <trkpt lat="45.54497" lon="6.29805">
        <ele>317.2</ele>
        <time>2022-07-17T04:31:33Z</time>
      </trkpt>
      <trkpt lat="45.54494" lon="6.29813">
        <ele>317.2</ele>
        <time>2022-07-17T04:31:34Z</time>
      </trkpt>
      <trkpt lat="45.54491" lon="6.29821">
        <ele>317.2</ele>
        <time>2022-07-17T04:31:35Z</time>
      </trkpt>
      <trkpt lat="45.54487" lon="6.29828">
        <ele>317.2</ele>
        <time>2022-07-17T04:31:36Z</time>
      </trkpt>
      <trkpt lat="45.54483" lon="6.29836">
        <ele>317.4</ele>
        <time>2022-07-17T04:31:37Z</time>
      </trkpt>
      <trkpt lat="45.5448" lon="6.29844">
        <ele>317.4</ele>
        <time>2022-07-17T04:31:38Z</time>
      </trkpt>
      <trkpt lat="45.54477" lon="6.29851">
        <ele>317.4</ele>
        <time>2022-07-17T04:31:39Z</time>
      </trkpt>
      <trkpt lat="45.54474" lon="6.29858">
        <ele>317.4</ele>
        <time>2022-07-17T04:31:40Z</time>
      </trkpt>
      <trkpt lat="45.54472" lon="6.29865">
        <ele>317.4</ele>
        <time>2022-07-17T04:31:41Z</time>
      </trkpt>
      <trkpt lat="45.54469" lon="6.29872">
        <ele>317.6</ele>
        <time>2022-07-17T04:31:42Z</time>
      </trkpt>
      <trkpt lat="45.54465" lon="6.29879">
        <ele>317.6</ele>
        <time>2022-07-17T04:31:43Z</time>
      </trkpt>
      <trkpt lat="45.54462" lon="6.29886">
        <ele>317.6</ele>
        <time>2022-07-17T04:31:44Z</time>
      </trkpt>
      <trkpt lat="45.54458" lon="6.29894">
        <ele>317.6</ele>
        <time>2022-07-17T04:31:45Z</time>
      </trkpt>
      <trkpt lat="45.54455" lon="6.29901">
        <ele>317.6</ele>
        <time>2022-07-17T04:31:46Z</time>
      </trkpt>
      <trkpt lat="45.54452" lon="6.29909">
        <ele>317.6</ele>
        <time>2022-07-17T04:31:47Z</time>
      </trkpt>
      <trkpt lat="45.54448" lon="6.29916">
        <ele>317.6</ele>
        <time>2022-07-17T04:31:48Z</time>
      </trkpt>
      <trkpt lat="45.54445" lon="6.29924">
        <ele>317.6</ele>
        <time>2022-07-17T04:31:49Z</time>
      </trkpt>
      <trkpt lat="45.54442" lon="6.29932">
        <ele>317.6</ele>
        <time>2022-07-17T04:31:50Z</time>
      </trkpt>
      <trkpt lat="45.54439" lon="6.2994">
        <ele>317.6</ele>
        <time>2022-07-17T04:31:51Z</time>
      </trkpt>
      <trkpt lat="45.54436" lon="6.29948">
        <ele>317.6</ele>
        <time>2022-07-17T04:31:52Z</time>
      </trkpt>
      <trkpt lat="45.54433" lon="6.29956">
        <ele>317.6</ele>
        <time>2022-07-17T04:31:53Z</time>
      </trkpt>
      <trkpt lat="45.54429" lon="6.29963">
        <ele>317.6</ele>
        <time>2022-07-17T04:31:54Z</time>
      </trkpt>
      <trkpt lat="45.54426" lon="6.29971">
        <ele>317.6</ele>
        <time>2022-07-17T04:31:55Z</time>
      </trkpt>
      <trkpt lat="45.54423" lon="6.29979">
        <ele>317.6</ele>
        <time>2022-07-17T04:31:56Z</time>
      </trkpt>
      <trkpt lat="45.5442" lon="6.29987">
        <ele>317.6</ele>
        <time>2022-07-17T04:31:57Z</time>
      </trkpt>
      <trkpt lat="45.54417" lon="6.29995">
        <ele>317.6</ele>
        <time>2022-07-17T04:31:58Z</time>
      </trkpt>
      <trkpt lat="45.54414" lon="6.30003">
        <ele>317.6</ele>
        <time>2022-07-17T04:31:59Z</time>
      </trkpt>
      <trkpt lat="45.54411" lon="6.30011">
        <ele>317.6</ele>
        <time>2022-07-17T04:32:00Z</time>
      </trkpt>
      <trkpt lat="45.54408" lon="6.30019">
        <ele>317.6</ele>
        <time>2022-07-17T04:32:01Z</time>
      </trkpt>
      <trkpt lat="45.54405" lon="6.30026">
        <ele>317.6</ele>
        <time>2022-07-17T04:32:02Z</time>
      </trkpt>
      <trkpt lat="45.54402" lon="6.30034">
        <ele>317.6</ele>
        <time>2022-07-17T04:32:03Z</time>
      </trkpt>
      <trkpt lat="45.54399" lon="6.30041">
        <ele>317.6</ele>
        <time>2022-07-17T04:32:04Z</time>
      </trkpt>
      <trkpt lat="45.54396" lon="6.30049">
        <ele>317.6</ele>
        <time>2022-07-17T04:32:05Z</time>
      </trkpt>
      <trkpt lat="45.54393" lon="6.30056">
        <ele>317.6</ele>
        <time>2022-07-17T04:32:06Z</time>
      </trkpt>
      <trkpt lat="45.5439" lon="6.30064">
        <ele>317.6</ele>
        <time>2022-07-17T04:32:07Z</time>
      </trkpt>
      <trkpt lat="45.54387" lon="6.30072">
        <ele>317.6</ele>
        <time>2022-07-17T04:32:08Z</time>
      </trkpt>
      <trkpt lat="45.54384" lon="6.3008">
        <ele>317.6</ele>
        <time>2022-07-17T04:32:09Z</time>
      </trkpt>
      <trkpt lat="45.54381" lon="6.30088">
        <ele>317.6</ele>
        <time>2022-07-17T04:32:10Z</time>
      </trkpt>
      <trkpt lat="45.54378" lon="6.30096">
        <ele>317.6</ele>
        <time>2022-07-17T04:32:11Z</time>
      </trkpt>
      <trkpt lat="45.54374" lon="6.30104">
        <ele>317.6</ele>
        <time>2022-07-17T04:32:12Z</time>
      </trkpt>
      <trkpt lat="45.54371" lon="6.30112">
        <ele>317.6</ele>
        <time>2022-07-17T04:32:13Z</time>
      </trkpt>
      <trkpt lat="45.54367" lon="6.30119">
        <ele>317.6</ele>
        <time>2022-07-17T04:32:14Z</time>
      </trkpt>
      <trkpt lat="45.54364" lon="6.30127">
        <ele>317.6</ele>
        <time>2022-07-17T04:32:15Z</time>
      </trkpt>
      <trkpt lat="45.54362" lon="6.30135">
        <ele>317.2</ele>
        <time>2022-07-17T04:32:16Z</time>
      </trkpt>
      <trkpt lat="45.54359" lon="6.30142">
        <ele>317.2</ele>
        <time>2022-07-17T04:32:17Z</time>
      </trkpt>
      <trkpt lat="45.54355" lon="6.3015">
        <ele>317.2</ele>
        <time>2022-07-17T04:32:18Z</time>
      </trkpt>
      <trkpt lat="45.54352" lon="6.30158">
        <ele>317.2</ele>
        <time>2022-07-17T04:32:19Z</time>
      </trkpt>
      <trkpt lat="45.54349" lon="6.30165">
        <ele>317.2</ele>
        <time>2022-07-17T04:32:20Z</time>
      </trkpt>
      <trkpt lat="45.54346" lon="6.30173">
        <ele>317.2</ele>
        <time>2022-07-17T04:32:21Z</time>
      </trkpt>
      <trkpt lat="45.54343" lon="6.3018">
        <ele>317.2</ele>
        <time>2022-07-17T04:32:22Z</time>
      </trkpt>
      <trkpt lat="45.54339" lon="6.30188">
        <ele>317.2</ele>
        <time>2022-07-17T04:32:23Z</time>
      </trkpt>
      <trkpt lat="45.54336" lon="6.30196">
        <ele>317.2</ele>
        <time>2022-07-17T04:32:24Z</time>
      </trkpt>
      <trkpt lat="45.54334" lon="6.30203">
        <ele>317.2</ele>
        <time>2022-07-17T04:32:25Z</time>
      </trkpt>
      <trkpt lat="45.5433" lon="6.30211">
        <ele>317.6</ele>
        <time>2022-07-17T04:32:26Z</time>
      </trkpt>
      <trkpt lat="45.54327" lon="6.30218">
        <ele>317.6</ele>
        <time>2022-07-17T04:32:27Z</time>
      </trkpt>
      <trkpt lat="45.54324" lon="6.30225">
        <ele>317.6</ele>
        <time>2022-07-17T04:32:28Z</time>
      </trkpt>
      <trkpt lat="45.54321" lon="6.30232">
        <ele>317.6</ele>
        <time>2022-07-17T04:32:29Z</time>
      </trkpt>
      <trkpt lat="45.54318" lon="6.3024">
        <ele>317.6</ele>
        <time>2022-07-17T04:32:30Z</time>
      </trkpt>
      <trkpt lat="45.54314" lon="6.30247">
        <ele>317.6</ele>
        <time>2022-07-17T04:32:31Z</time>
      </trkpt>
      <trkpt lat="45.54311" lon="6.30254">
        <ele>317.6</ele>
        <time>2022-07-17T04:32:32Z</time>
      </trkpt>
      <trkpt lat="45.54308" lon="6.30261">
        <ele>317.6</ele>
        <time>2022-07-17T04:32:33Z</time>
      </trkpt>
      <trkpt lat="45.54304" lon="6.30269">
        <ele>317.6</ele>
        <time>2022-07-17T04:32:34Z</time>
      </trkpt>
      <trkpt lat="45.54301" lon="6.30276">
        <ele>317.8</ele>
        <time>2022-07-17T04:32:35Z</time>
      </trkpt>
      <trkpt lat="45.54298" lon="6.30283">
        <ele>317.8</ele>
        <time>2022-07-17T04:32:36Z</time>
      </trkpt>
      <trkpt lat="45.54295" lon="6.3029">
        <ele>317.8</ele>
        <time>2022-07-17T04:32:37Z</time>
      </trkpt>
      <trkpt lat="45.54291" lon="6.30297">
        <ele>317.8</ele>
        <time>2022-07-17T04:32:38Z</time>
      </trkpt>
      <trkpt lat="45.54288" lon="6.30305">
        <ele>317.8</ele>
        <time>2022-07-17T04:32:39Z</time>
      </trkpt>
      <trkpt lat="45.54285" lon="6.30312">
        <ele>317.8</ele>
        <time>2022-07-17T04:32:40Z</time>
      </trkpt>
      <trkpt lat="45.54282" lon="6.30319">
        <ele>317.8</ele>
        <time>2022-07-17T04:32:41Z</time>
      </trkpt>
      <trkpt lat="45.54279" lon="6.30327">
        <ele>317.8</ele>
        <time>2022-07-17T04:32:42Z</time>
      </trkpt>
      <trkpt lat="45.54275" lon="6.30334">
        <ele>317.8</ele>
        <time>2022-07-17T04:32:43Z</time>
      </trkpt>
      <trkpt lat="45.54273" lon="6.30341">
        <ele>317.8</ele>
        <time>2022-07-17T04:32:44Z</time>
      </trkpt>
      <trkpt lat="45.5427" lon="6.30348">
        <ele>317.8</ele>
        <time>2022-07-17T04:32:45Z</time>
      </trkpt>
      <trkpt lat="45.54267" lon="6.30354">
        <ele>317.8</ele>
        <time>2022-07-17T04:32:46Z</time>
      </trkpt>
      <trkpt lat="45.54264" lon="6.30361">
        <ele>317.8</ele>
        <time>2022-07-17T04:32:47Z</time>
      </trkpt>
      <trkpt lat="45.54261" lon="6.30368">
        <ele>317.8</ele>
        <time>2022-07-17T04:32:48Z</time>
      </trkpt>
      <trkpt lat="45.54258" lon="6.30375">
        <ele>317.8</ele>
        <time>2022-07-17T04:32:49Z</time>
      </trkpt>
      <trkpt lat="45.54256" lon="6.30382">
        <ele>317.8</ele>
        <time>2022-07-17T04:32:50Z</time>
      </trkpt>
      <trkpt lat="45.54253" lon="6.30389">
        <ele>317.8</ele>
        <time>2022-07-17T04:32:51Z</time>
      </trkpt>
      <trkpt lat="45.54251" lon="6.30395">
        <ele>317.8</ele>
        <time>2022-07-17T04:32:52Z</time>
      </trkpt>
      <trkpt lat="45.54248" lon="6.30402">
        <ele>317.8</ele>
        <time>2022-07-17T04:32:53Z</time>
      </trkpt>
      <trkpt lat="45.54245" lon="6.3041">
        <ele>317.8</ele>
        <time>2022-07-17T04:32:54Z</time>
      </trkpt>
      <trkpt lat="45.54242" lon="6.30417">
        <ele>317.8</ele>
        <time>2022-07-17T04:32:55Z</time>
      </trkpt>
      <trkpt lat="45.54239" lon="6.30424">
        <ele>318</ele>
        <time>2022-07-17T04:32:56Z</time>
      </trkpt>
      <trkpt lat="45.54236" lon="6.30431">
        <ele>318</ele>
        <time>2022-07-17T04:32:57Z</time>
      </trkpt>
      <trkpt lat="45.54233" lon="6.30438">
        <ele>318</ele>
        <time>2022-07-17T04:32:58Z</time>
      </trkpt>
      <trkpt lat="45.5423" lon="6.30445">
        <ele>318</ele>
        <time>2022-07-17T04:32:59Z</time>
      </trkpt>
      <trkpt lat="45.54227" lon="6.30452">
        <ele>318</ele>
        <time>2022-07-17T04:33:00Z</time>
      </trkpt>
      <trkpt lat="45.54223" lon="6.30459">
        <ele>318</ele>
        <time>2022-07-17T04:33:01Z</time>
      </trkpt>
      <trkpt lat="45.5422" lon="6.30466">
        <ele>318</ele>
        <time>2022-07-17T04:33:02Z</time>
      </trkpt>
      <trkpt lat="45.54217" lon="6.30473">
        <ele>318</ele>
        <time>2022-07-17T04:33:03Z</time>
      </trkpt>
      <trkpt lat="45.54213" lon="6.3048">
        <ele>318.2</ele>
        <time>2022-07-17T04:33:04Z</time>
      </trkpt>
      <trkpt lat="45.5421" lon="6.30486">
        <ele>318.2</ele>
        <time>2022-07-17T04:33:05Z</time>
      </trkpt>
      <trkpt lat="45.54206" lon="6.30493">
        <ele>318.2</ele>
        <time>2022-07-17T04:33:06Z</time>
      </trkpt>
      <trkpt lat="45.54203" lon="6.305">
        <ele>318.2</ele>
        <time>2022-07-17T04:33:07Z</time>
      </trkpt>
      <trkpt lat="45.542" lon="6.30507">
        <ele>318.2</ele>
        <time>2022-07-17T04:33:08Z</time>
      </trkpt>
      <trkpt lat="45.54196" lon="6.30513">
        <ele>318.2</ele>
        <time>2022-07-17T04:33:09Z</time>
      </trkpt>
      <trkpt lat="45.54193" lon="6.3052">
        <ele>318.2</ele>
        <time>2022-07-17T04:33:10Z</time>
      </trkpt>
      <trkpt lat="45.54189" lon="6.30527">
        <ele>318.2</ele>
        <time>2022-07-17T04:33:11Z</time>
      </trkpt>
      <trkpt lat="45.54185" lon="6.30533">
        <ele>318.2</ele>
        <time>2022-07-17T04:33:12Z</time>
      </trkpt>
      <trkpt lat="45.54181" lon="6.3054">
        <ele>318.2</ele>
        <time>2022-07-17T04:33:13Z</time>
      </trkpt>
      <trkpt lat="45.54177" lon="6.30547">
        <ele>318.2</ele>
        <time>2022-07-17T04:33:14Z</time>
      </trkpt>
      <trkpt lat="45.54173" lon="6.30553">
        <ele>318.2</ele>
        <time>2022-07-17T04:33:15Z</time>
      </trkpt>
      <trkpt lat="45.54169" lon="6.3056">
        <ele>318.2</ele>
        <time>2022-07-17T04:33:16Z</time>
      </trkpt>
      <trkpt lat="45.54165" lon="6.30566">
        <ele>318.2</ele>
        <time>2022-07-17T04:33:17Z</time>
      </trkpt>
      <trkpt lat="45.54161" lon="6.30573">
        <ele>318.2</ele>
        <time>2022-07-17T04:33:18Z</time>
      </trkpt>
      <trkpt lat="45.54157" lon="6.30579">
        <ele>318.2</ele>
        <time>2022-07-17T04:33:19Z</time>
      </trkpt>
      <trkpt lat="45.54153" lon="6.30586">
        <ele>318.4</ele>
        <time>2022-07-17T04:33:20Z</time>
      </trkpt>
      <trkpt lat="45.54149" lon="6.30592">
        <ele>318.4</ele>
        <time>2022-07-17T04:33:21Z</time>
      </trkpt>
      <trkpt lat="45.54145" lon="6.30599">
        <ele>318.4</ele>
        <time>2022-07-17T04:33:22Z</time>
      </trkpt>
      <trkpt lat="45.54141" lon="6.30605">
        <ele>318.4</ele>
        <time>2022-07-17T04:33:23Z</time>
      </trkpt>
      <trkpt lat="45.54138" lon="6.30612">
        <ele>318.4</ele>
        <time>2022-07-17T04:33:24Z</time>
      </trkpt>
      <trkpt lat="45.54135" lon="6.3062">
        <ele>318.4</ele>
        <time>2022-07-17T04:33:25Z</time>
      </trkpt>
      <trkpt lat="45.54132" lon="6.30627">
        <ele>318.4</ele>
        <time>2022-07-17T04:33:26Z</time>
      </trkpt>
      <trkpt lat="45.54129" lon="6.30635">
        <ele>318.4</ele>
        <time>2022-07-17T04:33:27Z</time>
      </trkpt>
      <trkpt lat="45.54127" lon="6.30642">
        <ele>318.4</ele>
        <time>2022-07-17T04:33:28Z</time>
      </trkpt>
      <trkpt lat="45.54125" lon="6.3065">
        <ele>318.4</ele>
        <time>2022-07-17T04:33:29Z</time>
      </trkpt>
      <trkpt lat="45.54123" lon="6.30658">
        <ele>318.4</ele>
        <time>2022-07-17T04:33:30Z</time>
      </trkpt>
      <trkpt lat="45.54122" lon="6.30666">
        <ele>318.8</ele>
        <time>2022-07-17T04:33:31Z</time>
      </trkpt>
      <trkpt lat="45.54121" lon="6.30674">
        <ele>318.8</ele>
        <time>2022-07-17T04:33:32Z</time>
      </trkpt>
      <trkpt lat="45.5412" lon="6.30682">
        <ele>318.8</ele>
        <time>2022-07-17T04:33:33Z</time>
      </trkpt>
      <trkpt lat="45.54119" lon="6.3069">
        <ele>318.8</ele>
        <time>2022-07-17T04:33:34Z</time>
      </trkpt>
      <trkpt lat="45.54119" lon="6.30698">
        <ele>319</ele>
        <time>2022-07-17T04:33:35Z</time>
      </trkpt>
      <trkpt lat="45.54119" lon="6.30706">
        <ele>319</ele>
        <time>2022-07-17T04:33:36Z</time>
      </trkpt>
      <trkpt lat="45.54119" lon="6.30715">
        <ele>319</ele>
        <time>2022-07-17T04:33:37Z</time>
      </trkpt>
      <trkpt lat="45.54119" lon="6.30723">
        <ele>319</ele>
        <time>2022-07-17T04:33:38Z</time>
      </trkpt>
      <trkpt lat="45.5412" lon="6.30731">
        <ele>319.2</ele>
        <time>2022-07-17T04:33:39Z</time>
      </trkpt>
      <trkpt lat="45.54121" lon="6.3074">
        <ele>319.2</ele>
        <time>2022-07-17T04:33:40Z</time>
      </trkpt>
      <trkpt lat="45.54122" lon="6.30748">
        <ele>319.2</ele>
        <time>2022-07-17T04:33:41Z</time>
      </trkpt>
      <trkpt lat="45.54122" lon="6.30756">
        <ele>319.4</ele>
        <time>2022-07-17T04:33:42Z</time>
      </trkpt>
      <trkpt lat="45.54123" lon="6.30764">
        <ele>319.4</ele>
        <time>2022-07-17T04:33:43Z</time>
      </trkpt>
      <trkpt lat="45.54123" lon="6.30771">
        <ele>319.4</ele>
        <time>2022-07-17T04:33:44Z</time>
      </trkpt>
      <trkpt lat="45.54123" lon="6.30779">
        <ele>319.4</ele>
        <time>2022-07-17T04:33:45Z</time>
      </trkpt>
      <trkpt lat="45.54123" lon="6.30787">
        <ele>319.4</ele>
        <time>2022-07-17T04:33:46Z</time>
      </trkpt>
      <trkpt lat="45.54123" lon="6.30795">
        <ele>319.4</ele>
        <time>2022-07-17T04:33:47Z</time>
      </trkpt>
      <trkpt lat="45.54124" lon="6.30802">
        <ele>319.6</ele>
        <time>2022-07-17T04:33:48Z</time>
      </trkpt>
      <trkpt lat="45.54124" lon="6.3081">
        <ele>319.6</ele>
        <time>2022-07-17T04:33:49Z</time>
      </trkpt>
      <trkpt lat="45.54125" lon="6.30817">
        <ele>319.6</ele>
        <time>2022-07-17T04:33:50Z</time>
      </trkpt>
      <trkpt lat="45.54126" lon="6.30825">
        <ele>319.6</ele>
        <time>2022-07-17T04:33:51Z</time>
      </trkpt>
      <trkpt lat="45.54127" lon="6.30832">
        <ele>319.6</ele>
        <time>2022-07-17T04:33:52Z</time>
      </trkpt>
      <trkpt lat="45.54129" lon="6.30837">
        <ele>319.8</ele>
        <time>2022-07-17T04:33:53Z</time>
      </trkpt>
      <trkpt lat="45.54133" lon="6.3084">
        <ele>319.8</ele>
        <time>2022-07-17T04:33:54Z</time>
      </trkpt>
      <trkpt lat="45.54137" lon="6.3084">
        <ele>319.8</ele>
        <time>2022-07-17T04:33:55Z</time>
      </trkpt>
      <trkpt lat="45.54143" lon="6.30838">
        <ele>319.8</ele>
        <time>2022-07-17T04:33:56Z</time>
      </trkpt>
      <trkpt lat="45.54147" lon="6.30834">
        <ele>319.8</ele>
        <time>2022-07-17T04:33:57Z</time>
      </trkpt>
      <trkpt lat="45.54152" lon="6.30829">
        <ele>319.8</ele>
        <time>2022-07-17T04:33:58Z</time>
      </trkpt>
      <trkpt lat="45.54156" lon="6.30824">
        <ele>319.8</ele>
        <time>2022-07-17T04:33:59Z</time>
      </trkpt>
      <trkpt lat="45.5416" lon="6.30818">
        <ele>319.8</ele>
        <time>2022-07-17T04:34:00Z</time>
      </trkpt>
      <trkpt lat="45.54164" lon="6.30812">
        <ele>319.8</ele>
        <time>2022-07-17T04:34:01Z</time>
      </trkpt>
      <trkpt lat="45.54168" lon="6.30806">
        <ele>319.8</ele>
        <time>2022-07-17T04:34:02Z</time>
      </trkpt>
      <trkpt lat="45.54171" lon="6.308">
        <ele>319.8</ele>
        <time>2022-07-17T04:34:03Z</time>
      </trkpt>
      <trkpt lat="45.54176" lon="6.30794">
        <ele>319.8</ele>
        <time>2022-07-17T04:34:04Z</time>
      </trkpt>
      <trkpt lat="45.5418" lon="6.30789">
        <ele>319.8</ele>
        <time>2022-07-17T04:34:05Z</time>
      </trkpt>
      <trkpt lat="45.54185" lon="6.30786">
        <ele>319.8</ele>
        <time>2022-07-17T04:34:06Z</time>
      </trkpt>
      <trkpt lat="45.5419" lon="6.30785">
        <ele>319.8</ele>
        <time>2022-07-17T04:34:07Z</time>
      </trkpt>
      <trkpt lat="45.54196" lon="6.30787">
        <ele>319.8</ele>
        <time>2022-07-17T04:34:08Z</time>
      </trkpt>
      <trkpt lat="45.54201" lon="6.3079">
        <ele>320.2</ele>
        <time>2022-07-17T04:34:09Z</time>
      </trkpt>
      <trkpt lat="45.54206" lon="6.30794">
        <ele>320.2</ele>
        <time>2022-07-17T04:34:10Z</time>
      </trkpt>
      <trkpt lat="45.54209" lon="6.30799">
        <ele>320.6</ele>
        <time>2022-07-17T04:34:11Z</time>
      </trkpt>
      <trkpt lat="45.54213" lon="6.30804">
        <ele>320.8</ele>
        <time>2022-07-17T04:34:12Z</time>
      </trkpt>
      <trkpt lat="45.54217" lon="6.30809">
        <ele>321</ele>
        <time>2022-07-17T04:34:13Z</time>
      </trkpt>
      <trkpt lat="45.5422" lon="6.30814">
        <ele>321.4</ele>
        <time>2022-07-17T04:34:14Z</time>
      </trkpt>
      <trkpt lat="45.54227" lon="6.30823">
        <ele>321.6</ele>
        <time>2022-07-17T04:34:15Z</time>
      </trkpt>
      <trkpt lat="45.54231" lon="6.30827">
        <ele>321.8</ele>
        <time>2022-07-17T04:34:16Z</time>
      </trkpt>
      <trkpt lat="45.54234" lon="6.30832">
        <ele>322.2</ele>
        <time>2022-07-17T04:34:17Z</time>
      </trkpt>
      <trkpt lat="45.54237" lon="6.30836">
        <ele>322.4</ele>
        <time>2022-07-17T04:34:18Z</time>
      </trkpt>
      <trkpt lat="45.54241" lon="6.30841">
        <ele>322.8</ele>
        <time>2022-07-17T04:34:19Z</time>
      </trkpt>
      <trkpt lat="45.54244" lon="6.30845">
        <ele>323.2</ele>
        <time>2022-07-17T04:34:20Z</time>
      </trkpt>
      <trkpt lat="45.54248" lon="6.30849">
        <ele>323.6</ele>
        <time>2022-07-17T04:34:21Z</time>
      </trkpt>
      <trkpt lat="45.54251" lon="6.30853">
        <ele>323.8</ele>
        <time>2022-07-17T04:34:22Z</time>
      </trkpt>
      <trkpt lat="45.54254" lon="6.30857">
        <ele>324.2</ele>
        <time>2022-07-17T04:34:23Z</time>
      </trkpt>
      <trkpt lat="45.54257" lon="6.30861">
        <ele>324.6</ele>
        <time>2022-07-17T04:34:24Z</time>
      </trkpt>
      <trkpt lat="45.5426" lon="6.30865">
        <ele>325</ele>
        <time>2022-07-17T04:34:25Z</time>
      </trkpt>
      <trkpt lat="45.54262" lon="6.3087">
        <ele>325.2</ele>
        <time>2022-07-17T04:34:26Z</time>
      </trkpt>
      <trkpt lat="45.54265" lon="6.30874">
        <ele>325.2</ele>
        <time>2022-07-17T04:34:27Z</time>
      </trkpt>
      <trkpt lat="45.54268" lon="6.30878">
        <ele>325.6</ele>
        <time>2022-07-17T04:34:28Z</time>
      </trkpt>
      <trkpt lat="45.54271" lon="6.30883">
        <ele>325.8</ele>
        <time>2022-07-17T04:34:29Z</time>
      </trkpt>
      <trkpt lat="45.54274" lon="6.30887">
        <ele>325.8</ele>
        <time>2022-07-17T04:34:30Z</time>
      </trkpt>
      <trkpt lat="45.54277" lon="6.30891">
        <ele>326.2</ele>
        <time>2022-07-17T04:34:31Z</time>
      </trkpt>
      <trkpt lat="45.54281" lon="6.30895">
        <ele>326.2</ele>
        <time>2022-07-17T04:34:32Z</time>
      </trkpt>
      <trkpt lat="45.54285" lon="6.30898">
        <ele>326.2</ele>
        <time>2022-07-17T04:34:33Z</time>
      </trkpt>
      <trkpt lat="45.5429" lon="6.30899">
        <ele>326.2</ele>
        <time>2022-07-17T04:34:34Z</time>
      </trkpt>
      <trkpt lat="45.54296" lon="6.309">
        <ele>326.2</ele>
        <time>2022-07-17T04:34:35Z</time>
      </trkpt>
      <trkpt lat="45.54301" lon="6.30899">
        <ele>326.2</ele>
        <time>2022-07-17T04:34:36Z</time>
      </trkpt>
      <trkpt lat="45.54307" lon="6.30897">
        <ele>325.8</ele>
        <time>2022-07-17T04:34:37Z</time>
      </trkpt>
      <trkpt lat="45.54312" lon="6.30893">
        <ele>325.6</ele>
        <time>2022-07-17T04:34:38Z</time>
      </trkpt>
      <trkpt lat="45.54318" lon="6.30889">
        <ele>325.4</ele>
        <time>2022-07-17T04:34:39Z</time>
      </trkpt>
      <trkpt lat="45.54324" lon="6.30883">
        <ele>325.4</ele>
        <time>2022-07-17T04:34:40Z</time>
      </trkpt>
      <trkpt lat="45.5433" lon="6.30877">
        <ele>325</ele>
        <time>2022-07-17T04:34:41Z</time>
      </trkpt>
      <trkpt lat="45.54336" lon="6.30871">
        <ele>324.6</ele>
        <time>2022-07-17T04:34:42Z</time>
      </trkpt>
      <trkpt lat="45.54342" lon="6.30865">
        <ele>324.4</ele>
        <time>2022-07-17T04:34:43Z</time>
      </trkpt>
      <trkpt lat="45.54348" lon="6.30858">
        <ele>324</ele>
        <time>2022-07-17T04:34:44Z</time>
      </trkpt>
      <trkpt lat="45.54355" lon="6.30851">
        <ele>323.6</ele>
        <time>2022-07-17T04:34:45Z</time>
      </trkpt>
      <trkpt lat="45.54361" lon="6.30845">
        <ele>323.4</ele>
        <time>2022-07-17T04:34:46Z</time>
      </trkpt>
      <trkpt lat="45.54368" lon="6.30839">
        <ele>323</ele>
        <time>2022-07-17T04:34:47Z</time>
      </trkpt>
      <trkpt lat="45.54374" lon="6.30833">
        <ele>322.6</ele>
        <time>2022-07-17T04:34:48Z</time>
      </trkpt>
      <trkpt lat="45.5438" lon="6.3083">
        <ele>322.4</ele>
        <time>2022-07-17T04:34:49Z</time>
      </trkpt>
      <trkpt lat="45.54387" lon="6.3083">
        <ele>322</ele>
        <time>2022-07-17T04:34:50Z</time>
      </trkpt>
      <trkpt lat="45.54393" lon="6.30834">
        <ele>322</ele>
        <time>2022-07-17T04:34:51Z</time>
      </trkpt>
      <trkpt lat="45.54398" lon="6.3084">
        <ele>321.6</ele>
        <time>2022-07-17T04:34:52Z</time>
      </trkpt>
      <trkpt lat="45.54403" lon="6.30847">
        <ele>321.6</ele>
        <time>2022-07-17T04:34:53Z</time>
      </trkpt>
      <trkpt lat="45.54407" lon="6.30855">
        <ele>321.6</ele>
        <time>2022-07-17T04:34:54Z</time>
      </trkpt>
      <trkpt lat="45.54411" lon="6.30862">
        <ele>321.6</ele>
        <time>2022-07-17T04:34:55Z</time>
      </trkpt>
      <trkpt lat="45.54416" lon="6.30869">
        <ele>321.6</ele>
        <time>2022-07-17T04:34:56Z</time>
      </trkpt>
      <trkpt lat="45.5442" lon="6.30876">
        <ele>321.6</ele>
        <time>2022-07-17T04:34:57Z</time>
      </trkpt>
      <trkpt lat="45.54424" lon="6.30882">
        <ele>321.6</ele>
        <time>2022-07-17T04:34:58Z</time>
      </trkpt>
      <trkpt lat="45.54428" lon="6.30888">
        <ele>321.6</ele>
        <time>2022-07-17T04:34:59Z</time>
      </trkpt>
      <trkpt lat="45.54432" lon="6.30895">
        <ele>321.6</ele>
        <time>2022-07-17T04:35:00Z</time>
      </trkpt>
      <trkpt lat="45.54436" lon="6.30902">
        <ele>321.6</ele>
        <time>2022-07-17T04:35:01Z</time>
      </trkpt>
      <trkpt lat="45.54439" lon="6.30909">
        <ele>321.6</ele>
        <time>2022-07-17T04:35:02Z</time>
      </trkpt>
      <trkpt lat="45.54443" lon="6.30915">
        <ele>321.6</ele>
        <time>2022-07-17T04:35:03Z</time>
      </trkpt>
      <trkpt lat="45.54446" lon="6.30922">
        <ele>321.6</ele>
        <time>2022-07-17T04:35:04Z</time>
      </trkpt>
      <trkpt lat="45.5445" lon="6.30928">
        <ele>321.6</ele>
        <time>2022-07-17T04:35:05Z</time>
      </trkpt>
      <trkpt lat="45.54454" lon="6.30934">
        <ele>321.6</ele>
        <time>2022-07-17T04:35:06Z</time>
      </trkpt>
      <trkpt lat="45.54456" lon="6.30941">
        <ele>321.4</ele>
        <time>2022-07-17T04:35:07Z</time>
      </trkpt>
      <trkpt lat="45.54457" lon="6.30949">
        <ele>321.4</ele>
        <time>2022-07-17T04:35:08Z</time>
      </trkpt>
      <trkpt lat="45.54457" lon="6.30956">
        <ele>321.4</ele>
        <time>2022-07-17T04:35:09Z</time>
      </trkpt>
      <trkpt lat="45.54454" lon="6.30963">
        <ele>321.4</ele>
        <time>2022-07-17T04:35:10Z</time>
      </trkpt>
      <trkpt lat="45.54451" lon="6.3097">
        <ele>321.4</ele>
        <time>2022-07-17T04:35:11Z</time>
      </trkpt>
      <trkpt lat="45.54447" lon="6.30976">
        <ele>321.2</ele>
        <time>2022-07-17T04:35:12Z</time>
      </trkpt>
      <trkpt lat="45.54443" lon="6.30982">
        <ele>321.2</ele>
        <time>2022-07-17T04:35:13Z</time>
      </trkpt>
      <trkpt lat="45.54439" lon="6.30988">
        <ele>321.2</ele>
        <time>2022-07-17T04:35:14Z</time>
      </trkpt>
      <trkpt lat="45.54435" lon="6.30994">
        <ele>321.2</ele>
        <time>2022-07-17T04:35:15Z</time>
      </trkpt>
      <trkpt lat="45.54431" lon="6.31001">
        <ele>321.2</ele>
        <time>2022-07-17T04:35:16Z</time>
      </trkpt>
      <trkpt lat="45.54427" lon="6.31008">
        <ele>321.2</ele>
        <time>2022-07-17T04:35:17Z</time>
      </trkpt>
      <trkpt lat="45.54422" lon="6.31015">
        <ele>321.2</ele>
        <time>2022-07-17T04:35:18Z</time>
      </trkpt>
      <trkpt lat="45.54418" lon="6.31022">
        <ele>321.2</ele>
        <time>2022-07-17T04:35:19Z</time>
      </trkpt>
      <trkpt lat="45.54413" lon="6.3103">
        <ele>321.2</ele>
        <time>2022-07-17T04:35:20Z</time>
      </trkpt>
      <trkpt lat="45.54409" lon="6.31037">
        <ele>321.2</ele>
        <time>2022-07-17T04:35:21Z</time>
      </trkpt>
      <trkpt lat="45.54405" lon="6.31044">
        <ele>321.2</ele>
        <time>2022-07-17T04:35:22Z</time>
      </trkpt>
      <trkpt lat="45.54402" lon="6.3105">
        <ele>321.2</ele>
        <time>2022-07-17T04:35:23Z</time>
      </trkpt>
      <trkpt lat="45.54398" lon="6.31057">
        <ele>321.2</ele>
        <time>2022-07-17T04:35:24Z</time>
      </trkpt>
      <trkpt lat="45.54395" lon="6.31063">
        <ele>321.4</ele>
        <time>2022-07-17T04:35:25Z</time>
      </trkpt>
      <trkpt lat="45.54391" lon="6.3107">
        <ele>321.4</ele>
        <time>2022-07-17T04:35:26Z</time>
      </trkpt>
      <trkpt lat="45.54387" lon="6.31076">
        <ele>321.8</ele>
        <time>2022-07-17T04:35:27Z</time>
      </trkpt>
      <trkpt lat="45.54383" lon="6.31081">
        <ele>321.8</ele>
        <time>2022-07-17T04:35:28Z</time>
      </trkpt>
      <trkpt lat="45.54379" lon="6.31087">
        <ele>322.4</ele>
        <time>2022-07-17T04:35:29Z</time>
      </trkpt>
      <trkpt lat="45.54375" lon="6.31093">
        <ele>322.6</ele>
        <time>2022-07-17T04:35:30Z</time>
      </trkpt>
      <trkpt lat="45.54371" lon="6.31098">
        <ele>322.8</ele>
        <time>2022-07-17T04:35:31Z</time>
      </trkpt>
      <trkpt lat="45.54368" lon="6.31102">
        <ele>323</ele>
        <time>2022-07-17T04:35:32Z</time>
      </trkpt>
      <trkpt lat="45.54364" lon="6.31107">
        <ele>323.2</ele>
        <time>2022-07-17T04:35:33Z</time>
      </trkpt>
      <trkpt lat="45.54361" lon="6.31111">
        <ele>323.6</ele>
        <time>2022-07-17T04:35:34Z</time>
      </trkpt>
      <trkpt lat="45.54358" lon="6.31115">
        <ele>323.8</ele>
        <time>2022-07-17T04:35:35Z</time>
      </trkpt>
      <trkpt lat="45.54355" lon="6.31119">
        <ele>324</ele>
        <time>2022-07-17T04:35:36Z</time>
      </trkpt>
      <trkpt lat="45.54351" lon="6.31123">
        <ele>324.2</ele>
        <time>2022-07-17T04:35:37Z</time>
      </trkpt>
      <trkpt lat="45.54347" lon="6.31128">
        <ele>324.2</ele>
        <time>2022-07-17T04:35:38Z</time>
      </trkpt>
      <trkpt lat="45.54343" lon="6.31133">
        <ele>324.2</ele>
        <time>2022-07-17T04:35:39Z</time>
      </trkpt>
      <trkpt lat="45.54339" lon="6.31138">
        <ele>324.2</ele>
        <time>2022-07-17T04:35:40Z</time>
      </trkpt>
      <trkpt lat="45.54335" lon="6.31143">
        <ele>324.2</ele>
        <time>2022-07-17T04:35:41Z</time>
      </trkpt>
      <trkpt lat="45.5433" lon="6.31148">
        <ele>324.2</ele>
        <time>2022-07-17T04:35:42Z</time>
      </trkpt>
      <trkpt lat="45.54326" lon="6.31153">
        <ele>324.2</ele>
        <time>2022-07-17T04:35:43Z</time>
      </trkpt>
      <trkpt lat="45.5432" lon="6.31157">
        <ele>324.2</ele>
        <time>2022-07-17T04:35:44Z</time>
      </trkpt>
      <trkpt lat="45.54315" lon="6.31162">
        <ele>324.2</ele>
        <time>2022-07-17T04:35:45Z</time>
      </trkpt>
      <trkpt lat="45.54309" lon="6.31166">
        <ele>323.8</ele>
        <time>2022-07-17T04:35:46Z</time>
      </trkpt>
      <trkpt lat="45.54303" lon="6.31171">
        <ele>323.8</ele>
        <time>2022-07-17T04:35:47Z</time>
      </trkpt>
      <trkpt lat="45.54298" lon="6.31175">
        <ele>323.6</ele>
        <time>2022-07-17T04:35:48Z</time>
      </trkpt>
      <trkpt lat="45.54292" lon="6.31181">
        <ele>323.6</ele>
        <time>2022-07-17T04:35:49Z</time>
      </trkpt>
      <trkpt lat="45.54286" lon="6.31186">
        <ele>323.2</ele>
        <time>2022-07-17T04:35:50Z</time>
      </trkpt>
      <trkpt lat="45.54281" lon="6.31192">
        <ele>323</ele>
        <time>2022-07-17T04:35:51Z</time>
      </trkpt>
      <trkpt lat="45.54276" lon="6.31199">
        <ele>322.8</ele>
        <time>2022-07-17T04:35:52Z</time>
      </trkpt>
      <trkpt lat="45.54271" lon="6.31205">
        <ele>322.8</ele>
        <time>2022-07-17T04:35:53Z</time>
      </trkpt>
      <trkpt lat="45.54266" lon="6.31212">
        <ele>322.4</ele>
        <time>2022-07-17T04:35:54Z</time>
      </trkpt>
      <trkpt lat="45.54262" lon="6.3122">
        <ele>322.4</ele>
        <time>2022-07-17T04:35:55Z</time>
      </trkpt>
      <trkpt lat="45.54258" lon="6.31228">
        <ele>322.2</ele>
        <time>2022-07-17T04:35:56Z</time>
      </trkpt>
      <trkpt lat="45.54255" lon="6.31237">
        <ele>322.2</ele>
        <time>2022-07-17T04:35:57Z</time>
      </trkpt>
      <trkpt lat="45.54253" lon="6.31246">
        <ele>322</ele>
        <time>2022-07-17T04:35:58Z</time>
      </trkpt>
      <trkpt lat="45.54251" lon="6.31255">
        <ele>322</ele>
        <time>2022-07-17T04:35:59Z</time>
      </trkpt>
      <trkpt lat="45.5425" lon="6.31264">
        <ele>322</ele>
        <time>2022-07-17T04:36:00Z</time>
      </trkpt>
      <trkpt lat="45.54249" lon="6.31274">
        <ele>321.6</ele>
        <time>2022-07-17T04:36:01Z</time>
      </trkpt>
      <trkpt lat="45.54248" lon="6.31283">
        <ele>321.6</ele>
        <time>2022-07-17T04:36:02Z</time>
      </trkpt>
      <trkpt lat="45.54246" lon="6.31293">
        <ele>321.6</ele>
        <time>2022-07-17T04:36:03Z</time>
      </trkpt>
      <trkpt lat="45.54245" lon="6.31302">
        <ele>321.6</ele>
        <time>2022-07-17T04:36:04Z</time>
      </trkpt>
      <trkpt lat="45.54243" lon="6.31311">
        <ele>321.4</ele>
        <time>2022-07-17T04:36:05Z</time>
      </trkpt>
      <trkpt lat="45.54242" lon="6.31321">
        <ele>321.4</ele>
        <time>2022-07-17T04:36:06Z</time>
      </trkpt>
      <trkpt lat="45.54241" lon="6.3133">
        <ele>321.4</ele>
        <time>2022-07-17T04:36:07Z</time>
      </trkpt>
      <trkpt lat="45.5424" lon="6.31339">
        <ele>321.4</ele>
        <time>2022-07-17T04:36:08Z</time>
      </trkpt>
      <trkpt lat="45.54239" lon="6.31349">
        <ele>321.4</ele>
        <time>2022-07-17T04:36:09Z</time>
      </trkpt>
      <trkpt lat="45.54238" lon="6.31358">
        <ele>321.4</ele>
        <time>2022-07-17T04:36:10Z</time>
      </trkpt>
      <trkpt lat="45.54236" lon="6.31367">
        <ele>321.4</ele>
        <time>2022-07-17T04:36:11Z</time>
      </trkpt>
      <trkpt lat="45.54235" lon="6.31376">
        <ele>321.4</ele>
        <time>2022-07-17T04:36:12Z</time>
      </trkpt>
      <trkpt lat="45.54234" lon="6.31385">
        <ele>321.4</ele>
        <time>2022-07-17T04:36:13Z</time>
      </trkpt>
      <trkpt lat="45.54232" lon="6.31394">
        <ele>321.4</ele>
        <time>2022-07-17T04:36:14Z</time>
      </trkpt>
      <trkpt lat="45.5423" lon="6.31403">
        <ele>321.4</ele>
        <time>2022-07-17T04:36:15Z</time>
      </trkpt>
      <trkpt lat="45.54228" lon="6.31412">
        <ele>321.4</ele>
        <time>2022-07-17T04:36:16Z</time>
      </trkpt>
      <trkpt lat="45.54226" lon="6.3142">
        <ele>321.2</ele>
        <time>2022-07-17T04:36:17Z</time>
      </trkpt>
      <trkpt lat="45.54223" lon="6.31428">
        <ele>321.2</ele>
        <time>2022-07-17T04:36:18Z</time>
      </trkpt>
      <trkpt lat="45.54219" lon="6.31436">
        <ele>321.2</ele>
        <time>2022-07-17T04:36:19Z</time>
      </trkpt>
      <trkpt lat="45.54215" lon="6.31443">
        <ele>321.2</ele>
        <time>2022-07-17T04:36:20Z</time>
      </trkpt>
      <trkpt lat="45.54211" lon="6.31449">
        <ele>321.2</ele>
        <time>2022-07-17T04:36:21Z</time>
      </trkpt>
      <trkpt lat="45.54206" lon="6.31454">
        <ele>321.2</ele>
        <time>2022-07-17T04:36:22Z</time>
      </trkpt>
      <trkpt lat="45.54201" lon="6.31459">
        <ele>321.2</ele>
        <time>2022-07-17T04:36:23Z</time>
      </trkpt>
      <trkpt lat="45.54195" lon="6.31463">
        <ele>321.2</ele>
        <time>2022-07-17T04:36:24Z</time>
      </trkpt>
      <trkpt lat="45.5419" lon="6.31467">
        <ele>321.2</ele>
        <time>2022-07-17T04:36:25Z</time>
      </trkpt>
      <trkpt lat="45.54184" lon="6.31471">
        <ele>321.2</ele>
        <time>2022-07-17T04:36:26Z</time>
      </trkpt>
      <trkpt lat="45.54178" lon="6.31475">
        <ele>321.2</ele>
        <time>2022-07-17T04:36:27Z</time>
      </trkpt>
      <trkpt lat="45.54172" lon="6.31479">
        <ele>321.2</ele>
        <time>2022-07-17T04:36:28Z</time>
      </trkpt>
      <trkpt lat="45.54166" lon="6.31483">
        <ele>321.4</ele>
        <time>2022-07-17T04:36:29Z</time>
      </trkpt>
      <trkpt lat="45.54161" lon="6.31487">
        <ele>321.4</ele>
        <time>2022-07-17T04:36:30Z</time>
      </trkpt>
      <trkpt lat="45.54155" lon="6.31491">
        <ele>321.4</ele>
        <time>2022-07-17T04:36:31Z</time>
      </trkpt>
      <trkpt lat="45.54149" lon="6.31495">
        <ele>321.4</ele>
        <time>2022-07-17T04:36:32Z</time>
      </trkpt>
      <trkpt lat="45.54143" lon="6.31498">
        <ele>321.4</ele>
        <time>2022-07-17T04:36:33Z</time>
      </trkpt>
      <trkpt lat="45.54137" lon="6.31502">
        <ele>321.4</ele>
        <time>2022-07-17T04:36:34Z</time>
      </trkpt>
      <trkpt lat="45.54131" lon="6.31506">
        <ele>321.4</ele>
        <time>2022-07-17T04:36:35Z</time>
      </trkpt>
      <trkpt lat="45.54125" lon="6.31509">
        <ele>321.4</ele>
        <time>2022-07-17T04:36:36Z</time>
      </trkpt>
      <trkpt lat="45.5412" lon="6.31513">
        <ele>321.4</ele>
        <time>2022-07-17T04:36:37Z</time>
      </trkpt>
      <trkpt lat="45.54114" lon="6.31517">
        <ele>321.4</ele>
        <time>2022-07-17T04:36:38Z</time>
      </trkpt>
      <trkpt lat="45.54108" lon="6.31521">
        <ele>321.4</ele>
        <time>2022-07-17T04:36:39Z</time>
      </trkpt>
      <trkpt lat="45.54102" lon="6.31524">
        <ele>321.4</ele>
        <time>2022-07-17T04:36:40Z</time>
      </trkpt>
      <trkpt lat="45.54096" lon="6.31528">
        <ele>321.4</ele>
        <time>2022-07-17T04:36:41Z</time>
      </trkpt>
      <trkpt lat="45.5409" lon="6.31532">
        <ele>321.8</ele>
        <time>2022-07-17T04:36:42Z</time>
      </trkpt>
      <trkpt lat="45.54085" lon="6.31537">
        <ele>321.8</ele>
        <time>2022-07-17T04:36:43Z</time>
      </trkpt>
      <trkpt lat="45.54079" lon="6.31541">
        <ele>321.8</ele>
        <time>2022-07-17T04:36:44Z</time>
      </trkpt>
      <trkpt lat="45.54073" lon="6.31545">
        <ele>321.6</ele>
        <time>2022-07-17T04:36:45Z</time>
      </trkpt>
      <trkpt lat="45.54067" lon="6.31549">
        <ele>321.6</ele>
        <time>2022-07-17T04:36:46Z</time>
      </trkpt>
      <trkpt lat="45.54061" lon="6.31553">
        <ele>321.6</ele>
        <time>2022-07-17T04:36:47Z</time>
      </trkpt>
      <trkpt lat="45.54056" lon="6.31557">
        <ele>321.6</ele>
        <time>2022-07-17T04:36:48Z</time>
      </trkpt>
      <trkpt lat="45.5405" lon="6.31561">
        <ele>321.6</ele>
        <time>2022-07-17T04:36:49Z</time>
      </trkpt>
      <trkpt lat="45.54044" lon="6.31565">
        <ele>321.6</ele>
        <time>2022-07-17T04:36:50Z</time>
      </trkpt>
      <trkpt lat="45.54039" lon="6.3157">
        <ele>321.6</ele>
        <time>2022-07-17T04:36:51Z</time>
      </trkpt>
      <trkpt lat="45.54033" lon="6.31574">
        <ele>321.6</ele>
        <time>2022-07-17T04:36:52Z</time>
      </trkpt>
      <trkpt lat="45.54028" lon="6.31579">
        <ele>321.6</ele>
        <time>2022-07-17T04:36:53Z</time>
      </trkpt>
      <trkpt lat="45.54023" lon="6.31585">
        <ele>321.6</ele>
        <time>2022-07-17T04:36:54Z</time>
      </trkpt>
      <trkpt lat="45.54018" lon="6.31591">
        <ele>321.6</ele>
        <time>2022-07-17T04:36:55Z</time>
      </trkpt>
      <trkpt lat="45.54013" lon="6.31597">
        <ele>321.6</ele>
        <time>2022-07-17T04:36:56Z</time>
      </trkpt>
      <trkpt lat="45.54008" lon="6.31603">
        <ele>321.6</ele>
        <time>2022-07-17T04:36:57Z</time>
      </trkpt>
      <trkpt lat="45.54003" lon="6.3161">
        <ele>321.6</ele>
        <time>2022-07-17T04:36:58Z</time>
      </trkpt>
      <trkpt lat="45.53999" lon="6.31616">
        <ele>321.6</ele>
        <time>2022-07-17T04:36:59Z</time>
      </trkpt>
      <trkpt lat="45.53994" lon="6.31622">
        <ele>321.6</ele>
        <time>2022-07-17T04:37:00Z</time>
      </trkpt>
      <trkpt lat="45.53989" lon="6.31628">
        <ele>321.6</ele>
        <time>2022-07-17T04:37:01Z</time>
      </trkpt>
      <trkpt lat="45.53984" lon="6.31634">
        <ele>321.6</ele>
        <time>2022-07-17T04:37:02Z</time>
      </trkpt>
      <trkpt lat="45.53979" lon="6.3164">
        <ele>321.6</ele>
        <time>2022-07-17T04:37:03Z</time>
      </trkpt>
      <trkpt lat="45.53975" lon="6.31645">
        <ele>321.8</ele>
        <time>2022-07-17T04:37:04Z</time>
      </trkpt>
      <trkpt lat="45.5397" lon="6.3165">
        <ele>321.8</ele>
        <time>2022-07-17T04:37:05Z</time>
      </trkpt>
      <trkpt lat="45.53966" lon="6.31655">
        <ele>321.8</ele>
        <time>2022-07-17T04:37:06Z</time>
      </trkpt>
      <trkpt lat="45.53961" lon="6.3166">
        <ele>322.2</ele>
        <time>2022-07-17T04:37:07Z</time>
      </trkpt>
      <trkpt lat="45.53957" lon="6.31664">
        <ele>322.4</ele>
        <time>2022-07-17T04:37:08Z</time>
      </trkpt>
      <trkpt lat="45.53953" lon="6.31667">
        <ele>322.6</ele>
        <time>2022-07-17T04:37:09Z</time>
      </trkpt>
      <trkpt lat="45.53948" lon="6.3167">
        <ele>323</ele>
        <time>2022-07-17T04:37:10Z</time>
      </trkpt>
      <trkpt lat="45.53944" lon="6.31673">
        <ele>323.2</ele>
        <time>2022-07-17T04:37:11Z</time>
      </trkpt>
      <trkpt lat="45.53939" lon="6.31676">
        <ele>323.2</ele>
        <time>2022-07-17T04:37:12Z</time>
      </trkpt>
      <trkpt lat="45.53934" lon="6.31679">
        <ele>323.2</ele>
        <time>2022-07-17T04:37:13Z</time>
      </trkpt>
      <trkpt lat="45.53928" lon="6.31682">
        <ele>323.2</ele>
        <time>2022-07-17T04:37:14Z</time>
      </trkpt>
      <trkpt lat="45.53921" lon="6.31686">
        <ele>323.2</ele>
        <time>2022-07-17T04:37:15Z</time>
      </trkpt>
      <trkpt lat="45.53915" lon="6.31689">
        <ele>323.2</ele>
        <time>2022-07-17T04:37:16Z</time>
      </trkpt>
      <trkpt lat="45.53908" lon="6.31692">
        <ele>323.2</ele>
        <time>2022-07-17T04:37:17Z</time>
      </trkpt>
      <trkpt lat="45.53901" lon="6.31695">
        <ele>323.2</ele>
        <time>2022-07-17T04:37:18Z</time>
      </trkpt>
      <trkpt lat="45.53893" lon="6.31697">
        <ele>323.2</ele>
        <time>2022-07-17T04:37:19Z</time>
      </trkpt>
      <trkpt lat="45.53886" lon="6.317">
        <ele>323</ele>
        <time>2022-07-17T04:37:20Z</time>
      </trkpt>
      <trkpt lat="45.5388" lon="6.31702">
        <ele>323</ele>
        <time>2022-07-17T04:37:21Z</time>
      </trkpt>
      <trkpt lat="45.53873" lon="6.31703">
        <ele>322.6</ele>
        <time>2022-07-17T04:37:22Z</time>
      </trkpt>
      <trkpt lat="45.53866" lon="6.31704">
        <ele>322.6</ele>
        <time>2022-07-17T04:37:23Z</time>
      </trkpt>
      <trkpt lat="45.53861" lon="6.31705">
        <ele>322.4</ele>
        <time>2022-07-17T04:37:24Z</time>
      </trkpt>
      <trkpt lat="45.53854" lon="6.31706">
        <ele>322.4</ele>
        <time>2022-07-17T04:37:25Z</time>
      </trkpt>
      <trkpt lat="45.53848" lon="6.31705">
        <ele>322.4</ele>
        <time>2022-07-17T04:37:26Z</time>
      </trkpt>
      <trkpt lat="45.53842" lon="6.31704">
        <ele>322.4</ele>
        <time>2022-07-17T04:37:27Z</time>
      </trkpt>
      <trkpt lat="45.53836" lon="6.31703">
        <ele>322.4</ele>
        <time>2022-07-17T04:37:28Z</time>
      </trkpt>
      <trkpt lat="45.53831" lon="6.31702">
        <ele>322.4</ele>
        <time>2022-07-17T04:37:29Z</time>
      </trkpt>
      <trkpt lat="45.53825" lon="6.317">
        <ele>322.4</ele>
        <time>2022-07-17T04:37:30Z</time>
      </trkpt>
      <trkpt lat="45.53819" lon="6.31698">
        <ele>322.4</ele>
        <time>2022-07-17T04:37:31Z</time>
      </trkpt>
      <trkpt lat="45.53813" lon="6.31697">
        <ele>322.4</ele>
        <time>2022-07-17T04:37:32Z</time>
      </trkpt>
      <trkpt lat="45.53807" lon="6.31695">
        <ele>322.4</ele>
        <time>2022-07-17T04:37:33Z</time>
      </trkpt>
      <trkpt lat="45.53801" lon="6.31694">
        <ele>322.4</ele>
        <time>2022-07-17T04:37:34Z</time>
      </trkpt>
      <trkpt lat="45.53795" lon="6.31692">
        <ele>322.8</ele>
        <time>2022-07-17T04:37:35Z</time>
      </trkpt>
      <trkpt lat="45.53789" lon="6.31691">
        <ele>322.8</ele>
        <time>2022-07-17T04:37:36Z</time>
      </trkpt>
      <trkpt lat="45.53784" lon="6.31689">
        <ele>322.8</ele>
        <time>2022-07-17T04:37:37Z</time>
      </trkpt>
      <trkpt lat="45.53778" lon="6.31687">
        <ele>322.8</ele>
        <time>2022-07-17T04:37:38Z</time>
      </trkpt>
      <trkpt lat="45.53772" lon="6.31685">
        <ele>322.8</ele>
        <time>2022-07-17T04:37:39Z</time>
      </trkpt>
      <trkpt lat="45.53766" lon="6.31684">
        <ele>322.8</ele>
        <time>2022-07-17T04:37:40Z</time>
      </trkpt>
      <trkpt lat="45.5376" lon="6.31683">
        <ele>322.8</ele>
        <time>2022-07-17T04:37:41Z</time>
      </trkpt>
      <trkpt lat="45.53754" lon="6.31681">
        <ele>322.8</ele>
        <time>2022-07-17T04:37:42Z</time>
      </trkpt>
      <trkpt lat="45.53748" lon="6.3168">
        <ele>322.8</ele>
        <time>2022-07-17T04:37:43Z</time>
      </trkpt>
      <trkpt lat="45.53742" lon="6.31679">
        <ele>322.8</ele>
        <time>2022-07-17T04:37:44Z</time>
      </trkpt>
      <trkpt lat="45.53737" lon="6.31677">
        <ele>323</ele>
        <time>2022-07-17T04:37:45Z</time>
      </trkpt>
      <trkpt lat="45.53731" lon="6.31676">
        <ele>323</ele>
        <time>2022-07-17T04:37:46Z</time>
      </trkpt>
      <trkpt lat="45.53725" lon="6.31676">
        <ele>323</ele>
        <time>2022-07-17T04:37:47Z</time>
      </trkpt>
      <trkpt lat="45.53719" lon="6.31675">
        <ele>323</ele>
        <time>2022-07-17T04:37:48Z</time>
      </trkpt>
      <trkpt lat="45.53713" lon="6.31675">
        <ele>323</ele>
        <time>2022-07-17T04:37:49Z</time>
      </trkpt>
      <trkpt lat="45.53707" lon="6.31675">
        <ele>323</ele>
        <time>2022-07-17T04:37:50Z</time>
      </trkpt>
      <trkpt lat="45.53701" lon="6.31675">
        <ele>323</ele>
        <time>2022-07-17T04:37:51Z</time>
      </trkpt>
      <trkpt lat="45.53695" lon="6.31675">
        <ele>323</ele>
        <time>2022-07-17T04:37:52Z</time>
      </trkpt>
      <trkpt lat="45.5369" lon="6.31676">
        <ele>323</ele>
        <time>2022-07-17T04:37:53Z</time>
      </trkpt>
      <trkpt lat="45.53684" lon="6.31677">
        <ele>323</ele>
        <time>2022-07-17T04:37:54Z</time>
      </trkpt>
      <trkpt lat="45.53678" lon="6.31678">
        <ele>323.2</ele>
        <time>2022-07-17T04:37:55Z</time>
      </trkpt>
      <trkpt lat="45.53673" lon="6.31679">
        <ele>323.2</ele>
        <time>2022-07-17T04:37:56Z</time>
      </trkpt>
      <trkpt lat="45.53667" lon="6.3168">
        <ele>323.2</ele>
        <time>2022-07-17T04:37:57Z</time>
      </trkpt>
      <trkpt lat="45.53661" lon="6.31681">
        <ele>323.2</ele>
        <time>2022-07-17T04:37:58Z</time>
      </trkpt>
      <trkpt lat="45.53656" lon="6.31683">
        <ele>323.2</ele>
        <time>2022-07-17T04:38:00Z</time>
      </trkpt>
      <trkpt lat="45.5365" lon="6.31685">
        <ele>323.2</ele>
        <time>2022-07-17T04:38:01Z</time>
      </trkpt>
      <trkpt lat="45.53644" lon="6.31687">
        <ele>323.2</ele>
        <time>2022-07-17T04:38:02Z</time>
      </trkpt>
      <trkpt lat="45.53638" lon="6.31688">
        <ele>323.2</ele>
        <time>2022-07-17T04:38:03Z</time>
      </trkpt>
      <trkpt lat="45.53632" lon="6.3169">
        <ele>323.2</ele>
        <time>2022-07-17T04:38:04Z</time>
      </trkpt>
      <trkpt lat="45.53626" lon="6.31692">
        <ele>322.8</ele>
        <time>2022-07-17T04:38:05Z</time>
      </trkpt>
      <trkpt lat="45.53619" lon="6.31695">
        <ele>322.8</ele>
        <time>2022-07-17T04:38:06Z</time>
      </trkpt>
      <trkpt lat="45.53613" lon="6.31697">
        <ele>322.8</ele>
        <time>2022-07-17T04:38:07Z</time>
      </trkpt>
      <trkpt lat="45.53606" lon="6.31699">
        <ele>322.8</ele>
        <time>2022-07-17T04:38:08Z</time>
      </trkpt>
      <trkpt lat="45.536" lon="6.31701">
        <ele>322.8</ele>
        <time>2022-07-17T04:38:09Z</time>
      </trkpt>
      <trkpt lat="45.53593" lon="6.31702">
        <ele>322.6</ele>
        <time>2022-07-17T04:38:10Z</time>
      </trkpt>
      <trkpt lat="45.53587" lon="6.31704">
        <ele>322.6</ele>
        <time>2022-07-17T04:38:11Z</time>
      </trkpt>
      <trkpt lat="45.5358" lon="6.31706">
        <ele>322.6</ele>
        <time>2022-07-17T04:38:12Z</time>
      </trkpt>
      <trkpt lat="45.53574" lon="6.31708">
        <ele>322.6</ele>
        <time>2022-07-17T04:38:13Z</time>
      </trkpt>
      <trkpt lat="45.53568" lon="6.3171">
        <ele>322.6</ele>
        <time>2022-07-17T04:38:14Z</time>
      </trkpt>
      <trkpt lat="45.53562" lon="6.31711">
        <ele>322.6</ele>
        <time>2022-07-17T04:38:15Z</time>
      </trkpt>
      <trkpt lat="45.53555" lon="6.31713">
        <ele>322.6</ele>
        <time>2022-07-17T04:38:16Z</time>
      </trkpt>
      <trkpt lat="45.53549" lon="6.31715">
        <ele>322.6</ele>
        <time>2022-07-17T04:38:17Z</time>
      </trkpt>
      <trkpt lat="45.53543" lon="6.31717">
        <ele>322.6</ele>
        <time>2022-07-17T04:38:18Z</time>
      </trkpt>
      <trkpt lat="45.53536" lon="6.31718">
        <ele>322.6</ele>
        <time>2022-07-17T04:38:19Z</time>
      </trkpt>
      <trkpt lat="45.5353" lon="6.3172">
        <ele>322.6</ele>
        <time>2022-07-17T04:38:20Z</time>
      </trkpt>
      <trkpt lat="45.53524" lon="6.31722">
        <ele>322.6</ele>
        <time>2022-07-17T04:38:21Z</time>
      </trkpt>
      <trkpt lat="45.53518" lon="6.31724">
        <ele>322.6</ele>
        <time>2022-07-17T04:38:22Z</time>
      </trkpt>
      <trkpt lat="45.53512" lon="6.31725">
        <ele>322.6</ele>
        <time>2022-07-17T04:38:23Z</time>
      </trkpt>
      <trkpt lat="45.53506" lon="6.31727">
        <ele>322.6</ele>
        <time>2022-07-17T04:38:24Z</time>
      </trkpt>
      <trkpt lat="45.535" lon="6.31729">
        <ele>322.6</ele>
        <time>2022-07-17T04:38:25Z</time>
      </trkpt>
      <trkpt lat="45.53494" lon="6.31731">
        <ele>322.6</ele>
        <time>2022-07-17T04:38:26Z</time>
      </trkpt>
      <trkpt lat="45.53488" lon="6.31732">
        <ele>322.6</ele>
        <time>2022-07-17T04:38:27Z</time>
      </trkpt>
      <trkpt lat="45.53482" lon="6.31734">
        <ele>322.6</ele>
        <time>2022-07-17T04:38:28Z</time>
      </trkpt>
      <trkpt lat="45.53475" lon="6.31735">
        <ele>322.6</ele>
        <time>2022-07-17T04:38:29Z</time>
      </trkpt>
      <trkpt lat="45.53469" lon="6.31736">
        <ele>322.8</ele>
        <time>2022-07-17T04:38:30Z</time>
      </trkpt>
      <trkpt lat="45.53463" lon="6.31738">
        <ele>322.8</ele>
        <time>2022-07-17T04:38:31Z</time>
      </trkpt>
      <trkpt lat="45.53457" lon="6.31739">
        <ele>322.8</ele>
        <time>2022-07-17T04:38:32Z</time>
      </trkpt>
      <trkpt lat="45.53451" lon="6.31741">
        <ele>322.8</ele>
        <time>2022-07-17T04:38:33Z</time>
      </trkpt>
      <trkpt lat="45.53445" lon="6.31743">
        <ele>323</ele>
        <time>2022-07-17T04:38:34Z</time>
      </trkpt>
      <trkpt lat="45.53439" lon="6.31744">
        <ele>323</ele>
        <time>2022-07-17T04:38:35Z</time>
      </trkpt>
      <trkpt lat="45.53433" lon="6.31745">
        <ele>323</ele>
        <time>2022-07-17T04:38:36Z</time>
      </trkpt>
      <trkpt lat="45.53427" lon="6.31746">
        <ele>323</ele>
        <time>2022-07-17T04:38:37Z</time>
      </trkpt>
      <trkpt lat="45.53421" lon="6.31747">
        <ele>323</ele>
        <time>2022-07-17T04:38:38Z</time>
      </trkpt>
      <trkpt lat="45.53415" lon="6.31748">
        <ele>323</ele>
        <time>2022-07-17T04:38:39Z</time>
      </trkpt>
      <trkpt lat="45.53408" lon="6.31749">
        <ele>323</ele>
        <time>2022-07-17T04:38:40Z</time>
      </trkpt>
      <trkpt lat="45.53402" lon="6.3175">
        <ele>323</ele>
        <time>2022-07-17T04:38:41Z</time>
      </trkpt>
      <trkpt lat="45.53396" lon="6.31751">
        <ele>323</ele>
        <time>2022-07-17T04:38:42Z</time>
      </trkpt>
      <trkpt lat="45.53389" lon="6.31752">
        <ele>323</ele>
        <time>2022-07-17T04:38:43Z</time>
      </trkpt>
      <trkpt lat="45.53383" lon="6.31752">
        <ele>323.2</ele>
        <time>2022-07-17T04:38:44Z</time>
      </trkpt>
      <trkpt lat="45.53377" lon="6.31753">
        <ele>323.2</ele>
        <time>2022-07-17T04:38:45Z</time>
      </trkpt>
      <trkpt lat="45.5337" lon="6.31754">
        <ele>323.2</ele>
        <time>2022-07-17T04:38:46Z</time>
      </trkpt>
      <trkpt lat="45.53364" lon="6.31755">
        <ele>323.2</ele>
        <time>2022-07-17T04:38:47Z</time>
      </trkpt>
      <trkpt lat="45.53358" lon="6.31755">
        <ele>323.2</ele>
        <time>2022-07-17T04:38:48Z</time>
      </trkpt>
      <trkpt lat="45.53351" lon="6.31756">
        <ele>323.2</ele>
        <time>2022-07-17T04:38:49Z</time>
      </trkpt>
      <trkpt lat="45.53345" lon="6.31757">
        <ele>323.2</ele>
        <time>2022-07-17T04:38:50Z</time>
      </trkpt>
      <trkpt lat="45.53339" lon="6.31758">
        <ele>323.2</ele>
        <time>2022-07-17T04:38:51Z</time>
      </trkpt>
      <trkpt lat="45.53333" lon="6.31759">
        <ele>323.2</ele>
        <time>2022-07-17T04:38:52Z</time>
      </trkpt>
      <trkpt lat="45.53327" lon="6.31759">
        <ele>323.2</ele>
        <time>2022-07-17T04:38:53Z</time>
      </trkpt>
      <trkpt lat="45.53321" lon="6.3176">
        <ele>323.2</ele>
        <time>2022-07-17T04:38:54Z</time>
      </trkpt>
      <trkpt lat="45.53315" lon="6.31761">
        <ele>323.2</ele>
        <time>2022-07-17T04:38:55Z</time>
      </trkpt>
      <trkpt lat="45.53309" lon="6.31761">
        <ele>323.2</ele>
        <time>2022-07-17T04:38:56Z</time>
      </trkpt>
      <trkpt lat="45.53303" lon="6.31762">
        <ele>323.2</ele>
        <time>2022-07-17T04:38:57Z</time>
      </trkpt>
      <trkpt lat="45.53296" lon="6.31763">
        <ele>323.2</ele>
        <time>2022-07-17T04:38:58Z</time>
      </trkpt>
      <trkpt lat="45.5329" lon="6.31763">
        <ele>323.2</ele>
        <time>2022-07-17T04:38:59Z</time>
      </trkpt>
      <trkpt lat="45.53284" lon="6.31764">
        <ele>323.4</ele>
        <time>2022-07-17T04:39:00Z</time>
      </trkpt>
      <trkpt lat="45.53278" lon="6.31765">
        <ele>323.4</ele>
        <time>2022-07-17T04:39:01Z</time>
      </trkpt>
      <trkpt lat="45.53272" lon="6.31765">
        <ele>323.4</ele>
        <time>2022-07-17T04:39:02Z</time>
      </trkpt>
      <trkpt lat="45.53266" lon="6.31766">
        <ele>323.6</ele>
        <time>2022-07-17T04:39:03Z</time>
      </trkpt>
      <trkpt lat="45.5326" lon="6.31766">
        <ele>323.6</ele>
        <time>2022-07-17T04:39:04Z</time>
      </trkpt>
      <trkpt lat="45.53254" lon="6.31767">
        <ele>323.6</ele>
        <time>2022-07-17T04:39:05Z</time>
      </trkpt>
      <trkpt lat="45.53248" lon="6.31768">
        <ele>323.6</ele>
        <time>2022-07-17T04:39:06Z</time>
      </trkpt>
      <trkpt lat="45.53242" lon="6.31768">
        <ele>323.6</ele>
        <time>2022-07-17T04:39:07Z</time>
      </trkpt>
      <trkpt lat="45.53236" lon="6.31769">
        <ele>323.6</ele>
        <time>2022-07-17T04:39:08Z</time>
      </trkpt>
      <trkpt lat="45.5323" lon="6.3177">
        <ele>323.6</ele>
        <time>2022-07-17T04:39:09Z</time>
      </trkpt>
      <trkpt lat="45.53224" lon="6.3177">
        <ele>323.6</ele>
        <time>2022-07-17T04:39:10Z</time>
      </trkpt>
      <trkpt lat="45.53218" lon="6.31771">
        <ele>324</ele>
        <time>2022-07-17T04:39:11Z</time>
      </trkpt>
      <trkpt lat="45.53212" lon="6.31772">
        <ele>324</ele>
        <time>2022-07-17T04:39:12Z</time>
      </trkpt>
      <trkpt lat="45.53206" lon="6.31773">
        <ele>324</ele>
        <time>2022-07-17T04:39:13Z</time>
      </trkpt>
      <trkpt lat="45.532" lon="6.31773">
        <ele>324</ele>
        <time>2022-07-17T04:39:14Z</time>
      </trkpt>
      <trkpt lat="45.53195" lon="6.31774">
        <ele>324</ele>
        <time>2022-07-17T04:39:15Z</time>
      </trkpt>
      <trkpt lat="45.53189" lon="6.31775">
        <ele>324</ele>
        <time>2022-07-17T04:39:16Z</time>
      </trkpt>
      <trkpt lat="45.53183" lon="6.31776">
        <ele>324</ele>
        <time>2022-07-17T04:39:17Z</time>
      </trkpt>
      <trkpt lat="45.53177" lon="6.31776">
        <ele>324</ele>
        <time>2022-07-17T04:39:18Z</time>
      </trkpt>
      <trkpt lat="45.53171" lon="6.31777">
        <ele>324</ele>
        <time>2022-07-17T04:39:19Z</time>
      </trkpt>
      <trkpt lat="45.53165" lon="6.31778">
        <ele>324</ele>
        <time>2022-07-17T04:39:20Z</time>
      </trkpt>
      <trkpt lat="45.53159" lon="6.31778">
        <ele>324.2</ele>
        <time>2022-07-17T04:39:21Z</time>
      </trkpt>
      <trkpt lat="45.53153" lon="6.31779">
        <ele>324.2</ele>
        <time>2022-07-17T04:39:22Z</time>
      </trkpt>
      <trkpt lat="45.53147" lon="6.3178">
        <ele>324.2</ele>
        <time>2022-07-17T04:39:23Z</time>
      </trkpt>
      <trkpt lat="45.53141" lon="6.31781">
        <ele>324.2</ele>
        <time>2022-07-17T04:39:24Z</time>
      </trkpt>
      <trkpt lat="45.53135" lon="6.31781">
        <ele>324.2</ele>
        <time>2022-07-17T04:39:25Z</time>
      </trkpt>
      <trkpt lat="45.53129" lon="6.31782">
        <ele>324.4</ele>
        <time>2022-07-17T04:39:26Z</time>
      </trkpt>
      <trkpt lat="45.53123" lon="6.31783">
        <ele>324.4</ele>
        <time>2022-07-17T04:39:27Z</time>
      </trkpt>
      <trkpt lat="45.53117" lon="6.31784">
        <ele>324.4</ele>
        <time>2022-07-17T04:39:28Z</time>
      </trkpt>
      <trkpt lat="45.53111" lon="6.31784">
        <ele>324.6</ele>
        <time>2022-07-17T04:39:29Z</time>
      </trkpt>
      <trkpt lat="45.53105" lon="6.31784">
        <ele>324.6</ele>
        <time>2022-07-17T04:39:30Z</time>
      </trkpt>
      <trkpt lat="45.531" lon="6.31783">
        <ele>324.6</ele>
        <time>2022-07-17T04:39:31Z</time>
      </trkpt>
      <trkpt lat="45.53094" lon="6.31781">
        <ele>324.6</ele>
        <time>2022-07-17T04:39:32Z</time>
      </trkpt>
      <trkpt lat="45.53089" lon="6.3178">
        <ele>324.6</ele>
        <time>2022-07-17T04:39:33Z</time>
      </trkpt>
      <trkpt lat="45.53083" lon="6.31781">
        <ele>324.8</ele>
        <time>2022-07-17T04:39:34Z</time>
      </trkpt>
      <trkpt lat="45.53078" lon="6.31782">
        <ele>324.8</ele>
        <time>2022-07-17T04:39:35Z</time>
      </trkpt>
      <trkpt lat="45.53072" lon="6.31784">
        <ele>324.8</ele>
        <time>2022-07-17T04:39:36Z</time>
      </trkpt>
      <trkpt lat="45.53067" lon="6.31788">
        <ele>324.8</ele>
        <time>2022-07-17T04:39:37Z</time>
      </trkpt>
      <trkpt lat="45.53062" lon="6.31792">
        <ele>324.8</ele>
        <time>2022-07-17T04:39:38Z</time>
      </trkpt>
      <trkpt lat="45.53056" lon="6.31795">
        <ele>324.8</ele>
        <time>2022-07-17T04:39:39Z</time>
      </trkpt>
      <trkpt lat="45.5305" lon="6.31797">
        <ele>324.8</ele>
        <time>2022-07-17T04:39:40Z</time>
      </trkpt>
      <trkpt lat="45.53045" lon="6.31799">
        <ele>325</ele>
        <time>2022-07-17T04:39:41Z</time>
      </trkpt>
      <trkpt lat="45.53039" lon="6.31801">
        <ele>325</ele>
        <time>2022-07-17T04:39:42Z</time>
      </trkpt>
      <trkpt lat="45.53033" lon="6.31801">
        <ele>325</ele>
        <time>2022-07-17T04:39:43Z</time>
      </trkpt>
      <trkpt lat="45.53027" lon="6.31801">
        <ele>325</ele>
        <time>2022-07-17T04:39:44Z</time>
      </trkpt>
      <trkpt lat="45.53021" lon="6.318">
        <ele>325</ele>
        <time>2022-07-17T04:39:45Z</time>
      </trkpt>
      <trkpt lat="45.53016" lon="6.318">
        <ele>325</ele>
        <time>2022-07-17T04:39:46Z</time>
      </trkpt>
      <trkpt lat="45.5301" lon="6.31799">
        <ele>325</ele>
        <time>2022-07-17T04:39:47Z</time>
      </trkpt>
      <trkpt lat="45.53004" lon="6.31799">
        <ele>325.2</ele>
        <time>2022-07-17T04:39:48Z</time>
      </trkpt>
      <trkpt lat="45.52999" lon="6.31798">
        <ele>325.2</ele>
        <time>2022-07-17T04:39:49Z</time>
      </trkpt>
      <trkpt lat="45.52993" lon="6.31798">
        <ele>325.2</ele>
        <time>2022-07-17T04:39:50Z</time>
      </trkpt>
      <trkpt lat="45.52987" lon="6.31797">
        <ele>325.6</ele>
        <time>2022-07-17T04:39:51Z</time>
      </trkpt>
      <trkpt lat="45.52982" lon="6.31797">
        <ele>325.6</ele>
        <time>2022-07-17T04:39:52Z</time>
      </trkpt>
      <trkpt lat="45.52976" lon="6.31797">
        <ele>325.6</ele>
        <time>2022-07-17T04:39:53Z</time>
      </trkpt>
      <trkpt lat="45.5297" lon="6.31796">
        <ele>325.6</ele>
        <time>2022-07-17T04:39:54Z</time>
      </trkpt>
      <trkpt lat="45.52964" lon="6.31796">
        <ele>325.6</ele>
        <time>2022-07-17T04:39:55Z</time>
      </trkpt>
      <trkpt lat="45.52958" lon="6.31795">
        <ele>325.6</ele>
        <time>2022-07-17T04:39:56Z</time>
      </trkpt>
      <trkpt lat="45.52952" lon="6.31795">
        <ele>325.6</ele>
        <time>2022-07-17T04:39:57Z</time>
      </trkpt>
      <trkpt lat="45.52946" lon="6.31795">
        <ele>325.2</ele>
        <time>2022-07-17T04:39:58Z</time>
      </trkpt>
      <trkpt lat="45.52939" lon="6.31795">
        <ele>325.2</ele>
        <time>2022-07-17T04:39:59Z</time>
      </trkpt>
      <trkpt lat="45.52933" lon="6.31794">
        <ele>325.2</ele>
        <time>2022-07-17T04:40:00Z</time>
      </trkpt>
      <trkpt lat="45.52926" lon="6.31794">
        <ele>325.2</ele>
        <time>2022-07-17T04:40:01Z</time>
      </trkpt>
      <trkpt lat="45.5292" lon="6.31793">
        <ele>325.2</ele>
        <time>2022-07-17T04:40:02Z</time>
      </trkpt>
      <trkpt lat="45.52913" lon="6.31793">
        <ele>325.2</ele>
        <time>2022-07-17T04:40:03Z</time>
      </trkpt>
      <trkpt lat="45.52907" lon="6.31792">
        <ele>325.2</ele>
        <time>2022-07-17T04:40:04Z</time>
      </trkpt>
      <trkpt lat="45.52901" lon="6.31792">
        <ele>325.2</ele>
        <time>2022-07-17T04:40:05Z</time>
      </trkpt>
      <trkpt lat="45.52895" lon="6.31792">
        <ele>325.2</ele>
        <time>2022-07-17T04:40:06Z</time>
      </trkpt>
      <trkpt lat="45.52889" lon="6.31791">
        <ele>325.2</ele>
        <time>2022-07-17T04:40:07Z</time>
      </trkpt>
      <trkpt lat="45.52883" lon="6.31791">
        <ele>325.2</ele>
        <time>2022-07-17T04:40:08Z</time>
      </trkpt>
      <trkpt lat="45.52876" lon="6.31792">
        <ele>325.2</ele>
        <time>2022-07-17T04:40:09Z</time>
      </trkpt>
      <trkpt lat="45.5287" lon="6.31792">
        <ele>325.2</ele>
        <time>2022-07-17T04:40:10Z</time>
      </trkpt>
      <trkpt lat="45.52864" lon="6.31793">
        <ele>325.2</ele>
        <time>2022-07-17T04:40:11Z</time>
      </trkpt>
      <trkpt lat="45.52858" lon="6.31793">
        <ele>325.2</ele>
        <time>2022-07-17T04:40:12Z</time>
      </trkpt>
      <trkpt lat="45.52852" lon="6.31793">
        <ele>325.2</ele>
        <time>2022-07-17T04:40:13Z</time>
      </trkpt>
      <trkpt lat="45.52846" lon="6.31793">
        <ele>325.2</ele>
        <time>2022-07-17T04:40:14Z</time>
      </trkpt>
      <trkpt lat="45.5284" lon="6.31793">
        <ele>325.2</ele>
        <time>2022-07-17T04:40:15Z</time>
      </trkpt>
      <trkpt lat="45.52834" lon="6.31793">
        <ele>325.2</ele>
        <time>2022-07-17T04:40:16Z</time>
      </trkpt>
      <trkpt lat="45.52828" lon="6.31793">
        <ele>325.2</ele>
        <time>2022-07-17T04:40:17Z</time>
      </trkpt>
      <trkpt lat="45.52822" lon="6.31793">
        <ele>325.2</ele>
        <time>2022-07-17T04:40:18Z</time>
      </trkpt>
      <trkpt lat="45.52816" lon="6.31793">
        <ele>325.2</ele>
        <time>2022-07-17T04:40:19Z</time>
      </trkpt>
      <trkpt lat="45.5281" lon="6.31793">
        <ele>325.2</ele>
        <time>2022-07-17T04:40:20Z</time>
      </trkpt>
      <trkpt lat="45.52804" lon="6.31794">
        <ele>325.2</ele>
        <time>2022-07-17T04:40:21Z</time>
      </trkpt>
      <trkpt lat="45.52798" lon="6.31794">
        <ele>325.2</ele>
        <time>2022-07-17T04:40:22Z</time>
      </trkpt>
      <trkpt lat="45.52792" lon="6.31794">
        <ele>325.2</ele>
        <time>2022-07-17T04:40:23Z</time>
      </trkpt>
      <trkpt lat="45.52786" lon="6.31795">
        <ele>325.2</ele>
        <time>2022-07-17T04:40:24Z</time>
      </trkpt>
      <trkpt lat="45.52779" lon="6.31795">
        <ele>325.2</ele>
        <time>2022-07-17T04:40:25Z</time>
      </trkpt>
      <trkpt lat="45.52773" lon="6.31796">
        <ele>325.2</ele>
        <time>2022-07-17T04:40:26Z</time>
      </trkpt>
      <trkpt lat="45.52767" lon="6.31795">
        <ele>325.2</ele>
        <time>2022-07-17T04:40:27Z</time>
      </trkpt>
      <trkpt lat="45.52761" lon="6.31795">
        <ele>325.2</ele>
        <time>2022-07-17T04:40:28Z</time>
      </trkpt>
      <trkpt lat="45.52755" lon="6.31795">
        <ele>325.2</ele>
        <time>2022-07-17T04:40:29Z</time>
      </trkpt>
      <trkpt lat="45.52749" lon="6.31795">
        <ele>325.2</ele>
        <time>2022-07-17T04:40:30Z</time>
      </trkpt>
      <trkpt lat="45.52743" lon="6.31794">
        <ele>325.2</ele>
        <time>2022-07-17T04:40:31Z</time>
      </trkpt>
      <trkpt lat="45.52737" lon="6.31793">
        <ele>325.2</ele>
        <time>2022-07-17T04:40:32Z</time>
      </trkpt>
      <trkpt lat="45.52731" lon="6.31793">
        <ele>325.6</ele>
        <time>2022-07-17T04:40:33Z</time>
      </trkpt>
      <trkpt lat="45.52725" lon="6.31793">
        <ele>325.6</ele>
        <time>2022-07-17T04:40:34Z</time>
      </trkpt>
      <trkpt lat="45.52718" lon="6.31792">
        <ele>325.6</ele>
        <time>2022-07-17T04:40:35Z</time>
      </trkpt>
      <trkpt lat="45.52712" lon="6.31792">
        <ele>325.6</ele>
        <time>2022-07-17T04:40:36Z</time>
      </trkpt>
      <trkpt lat="45.52706" lon="6.31791">
        <ele>325.6</ele>
        <time>2022-07-17T04:40:37Z</time>
      </trkpt>
      <trkpt lat="45.527" lon="6.3179">
        <ele>325.6</ele>
        <time>2022-07-17T04:40:38Z</time>
      </trkpt>
      <trkpt lat="45.52693" lon="6.31789">
        <ele>325.8</ele>
        <time>2022-07-17T04:40:39Z</time>
      </trkpt>
      <trkpt lat="45.52687" lon="6.31788">
        <ele>325.8</ele>
        <time>2022-07-17T04:40:40Z</time>
      </trkpt>
      <trkpt lat="45.52681" lon="6.31788">
        <ele>325.8</ele>
        <time>2022-07-17T04:40:41Z</time>
      </trkpt>
      <trkpt lat="45.52675" lon="6.31787">
        <ele>325.8</ele>
        <time>2022-07-17T04:40:42Z</time>
      </trkpt>
      <trkpt lat="45.52669" lon="6.31786">
        <ele>325.8</ele>
        <time>2022-07-17T04:40:43Z</time>
      </trkpt>
      <trkpt lat="45.52663" lon="6.31786">
        <ele>325.8</ele>
        <time>2022-07-17T04:40:44Z</time>
      </trkpt>
      <trkpt lat="45.52657" lon="6.31785">
        <ele>325.8</ele>
        <time>2022-07-17T04:40:45Z</time>
      </trkpt>
      <trkpt lat="45.5265" lon="6.31784">
        <ele>325.8</ele>
        <time>2022-07-17T04:40:46Z</time>
      </trkpt>
      <trkpt lat="45.52644" lon="6.31784">
        <ele>325.8</ele>
        <time>2022-07-17T04:40:47Z</time>
      </trkpt>
      <trkpt lat="45.52638" lon="6.31784">
        <ele>325.8</ele>
        <time>2022-07-17T04:40:48Z</time>
      </trkpt>
      <trkpt lat="45.52632" lon="6.31783">
        <ele>325.8</ele>
        <time>2022-07-17T04:40:49Z</time>
      </trkpt>
      <trkpt lat="45.52626" lon="6.31782">
        <ele>325.8</ele>
        <time>2022-07-17T04:40:50Z</time>
      </trkpt>
      <trkpt lat="45.5262" lon="6.31782">
        <ele>325.8</ele>
        <time>2022-07-17T04:40:51Z</time>
      </trkpt>
      <trkpt lat="45.52614" lon="6.31781">
        <ele>325.8</ele>
        <time>2022-07-17T04:40:52Z</time>
      </trkpt>
      <trkpt lat="45.52607" lon="6.31781">
        <ele>325.8</ele>
        <time>2022-07-17T04:40:53Z</time>
      </trkpt>
      <trkpt lat="45.52601" lon="6.3178">
        <ele>325.8</ele>
        <time>2022-07-17T04:40:54Z</time>
      </trkpt>
      <trkpt lat="45.52595" lon="6.3178">
        <ele>325.8</ele>
        <time>2022-07-17T04:40:55Z</time>
      </trkpt>
      <trkpt lat="45.52589" lon="6.3178">
        <ele>325.8</ele>
        <time>2022-07-17T04:40:56Z</time>
      </trkpt>
      <trkpt lat="45.52583" lon="6.31779">
        <ele>325.8</ele>
        <time>2022-07-17T04:40:57Z</time>
      </trkpt>
      <trkpt lat="45.52576" lon="6.31778">
        <ele>326</ele>
        <time>2022-07-17T04:40:58Z</time>
      </trkpt>
      <trkpt lat="45.5257" lon="6.31777">
        <ele>326</ele>
        <time>2022-07-17T04:40:59Z</time>
      </trkpt>
      <trkpt lat="45.52564" lon="6.31775">
        <ele>326</ele>
        <time>2022-07-17T04:41:00Z</time>
      </trkpt>
      <trkpt lat="45.52558" lon="6.31773">
        <ele>326</ele>
        <time>2022-07-17T04:41:01Z</time>
      </trkpt>
      <trkpt lat="45.52552" lon="6.3177">
        <ele>326</ele>
        <time>2022-07-17T04:41:02Z</time>
      </trkpt>
      <trkpt lat="45.52547" lon="6.31767">
        <ele>326.2</ele>
        <time>2022-07-17T04:41:03Z</time>
      </trkpt>
      <trkpt lat="45.52541" lon="6.31764">
        <ele>326.2</ele>
        <time>2022-07-17T04:41:04Z</time>
      </trkpt>
      <trkpt lat="45.52536" lon="6.3176">
        <ele>326.2</ele>
        <time>2022-07-17T04:41:05Z</time>
      </trkpt>
      <trkpt lat="45.52531" lon="6.31756">
        <ele>326.4</ele>
        <time>2022-07-17T04:41:06Z</time>
      </trkpt>
      <trkpt lat="45.52526" lon="6.31753">
        <ele>326.4</ele>
        <time>2022-07-17T04:41:07Z</time>
      </trkpt>
      <trkpt lat="45.52521" lon="6.31749">
        <ele>326.4</ele>
        <time>2022-07-17T04:41:08Z</time>
      </trkpt>
      <trkpt lat="45.52515" lon="6.31746">
        <ele>326.4</ele>
        <time>2022-07-17T04:41:09Z</time>
      </trkpt>
      <trkpt lat="45.52509" lon="6.31742">
        <ele>326.4</ele>
        <time>2022-07-17T04:41:10Z</time>
      </trkpt>
      <trkpt lat="45.52504" lon="6.31738">
        <ele>326.4</ele>
        <time>2022-07-17T04:41:11Z</time>
      </trkpt>
      <trkpt lat="45.52499" lon="6.31734">
        <ele>326.4</ele>
        <time>2022-07-17T04:41:12Z</time>
      </trkpt>
      <trkpt lat="45.52493" lon="6.31731">
        <ele>326.8</ele>
        <time>2022-07-17T04:41:13Z</time>
      </trkpt>
      <trkpt lat="45.52488" lon="6.31727">
        <ele>326.8</ele>
        <time>2022-07-17T04:41:14Z</time>
      </trkpt>
      <trkpt lat="45.52482" lon="6.31723">
        <ele>326.8</ele>
        <time>2022-07-17T04:41:15Z</time>
      </trkpt>
      <trkpt lat="45.52477" lon="6.3172">
        <ele>326.8</ele>
        <time>2022-07-17T04:41:16Z</time>
      </trkpt>
      <trkpt lat="45.52471" lon="6.31717">
        <ele>326.8</ele>
        <time>2022-07-17T04:41:17Z</time>
      </trkpt>
      <trkpt lat="45.52465" lon="6.31713">
        <ele>326.8</ele>
        <time>2022-07-17T04:41:18Z</time>
      </trkpt>
      <trkpt lat="45.5246" lon="6.31709">
        <ele>327</ele>
        <time>2022-07-17T04:41:19Z</time>
      </trkpt>
      <trkpt lat="45.52454" lon="6.31706">
        <ele>327</ele>
        <time>2022-07-17T04:41:20Z</time>
      </trkpt>
      <trkpt lat="45.52448" lon="6.31702">
        <ele>327</ele>
        <time>2022-07-17T04:41:21Z</time>
      </trkpt>
      <trkpt lat="45.52443" lon="6.31699">
        <ele>327</ele>
        <time>2022-07-17T04:41:22Z</time>
      </trkpt>
      <trkpt lat="45.52437" lon="6.31696">
        <ele>327</ele>
        <time>2022-07-17T04:41:23Z</time>
      </trkpt>
      <trkpt lat="45.52431" lon="6.31692">
        <ele>327</ele>
        <time>2022-07-17T04:41:24Z</time>
      </trkpt>
      <trkpt lat="45.52426" lon="6.31689">
        <ele>327.2</ele>
        <time>2022-07-17T04:41:25Z</time>
      </trkpt>
      <trkpt lat="45.5242" lon="6.31686">
        <ele>327.2</ele>
        <time>2022-07-17T04:41:26Z</time>
      </trkpt>
      <trkpt lat="45.52415" lon="6.31682">
        <ele>327.2</ele>
        <time>2022-07-17T04:41:27Z</time>
      </trkpt>
      <trkpt lat="45.5241" lon="6.31679">
        <ele>327.2</ele>
        <time>2022-07-17T04:41:28Z</time>
      </trkpt>
      <trkpt lat="45.52404" lon="6.31675">
        <ele>327.2</ele>
        <time>2022-07-17T04:41:29Z</time>
      </trkpt>
      <trkpt lat="45.52399" lon="6.31672">
        <ele>327.2</ele>
        <time>2022-07-17T04:41:30Z</time>
      </trkpt>
      <trkpt lat="45.52394" lon="6.31668">
        <ele>327.2</ele>
        <time>2022-07-17T04:41:31Z</time>
      </trkpt>
      <trkpt lat="45.52388" lon="6.31665">
        <ele>327.2</ele>
        <time>2022-07-17T04:41:32Z</time>
      </trkpt>
      <trkpt lat="45.52383" lon="6.31661">
        <ele>327.2</ele>
        <time>2022-07-17T04:41:33Z</time>
      </trkpt>
      <trkpt lat="45.52377" lon="6.31657">
        <ele>327.2</ele>
        <time>2022-07-17T04:41:34Z</time>
      </trkpt>
      <trkpt lat="45.52372" lon="6.31654">
        <ele>327.2</ele>
        <time>2022-07-17T04:41:35Z</time>
      </trkpt>
      <trkpt lat="45.52366" lon="6.31651">
        <ele>327.2</ele>
        <time>2022-07-17T04:41:36Z</time>
      </trkpt>
      <trkpt lat="45.52361" lon="6.31648">
        <ele>327.2</ele>
        <time>2022-07-17T04:41:37Z</time>
      </trkpt>
      <trkpt lat="45.52355" lon="6.31647">
        <ele>327.2</ele>
        <time>2022-07-17T04:41:38Z</time>
      </trkpt>
      <trkpt lat="45.52349" lon="6.31645">
        <ele>327.2</ele>
        <time>2022-07-17T04:41:39Z</time>
      </trkpt>
      <trkpt lat="45.52343" lon="6.31644">
        <ele>327.2</ele>
        <time>2022-07-17T04:41:40Z</time>
      </trkpt>
      <trkpt lat="45.52337" lon="6.31644">
        <ele>327.4</ele>
        <time>2022-07-17T04:41:41Z</time>
      </trkpt>
      <trkpt lat="45.52331" lon="6.31644">
        <ele>327.4</ele>
        <time>2022-07-17T04:41:42Z</time>
      </trkpt>
      <trkpt lat="45.52325" lon="6.31645">
        <ele>327.4</ele>
        <time>2022-07-17T04:41:43Z</time>
      </trkpt>
      <trkpt lat="45.52319" lon="6.31646">
        <ele>327.6</ele>
        <time>2022-07-17T04:41:44Z</time>
      </trkpt>
      <trkpt lat="45.52313" lon="6.31647">
        <ele>327.6</ele>
        <time>2022-07-17T04:41:45Z</time>
      </trkpt>
      <trkpt lat="45.52306" lon="6.31648">
        <ele>327.6</ele>
        <time>2022-07-17T04:41:46Z</time>
      </trkpt>
      <trkpt lat="45.523" lon="6.31649">
        <ele>327.6</ele>
        <time>2022-07-17T04:41:47Z</time>
      </trkpt>
      <trkpt lat="45.52293" lon="6.3165">
        <ele>327.6</ele>
        <time>2022-07-17T04:41:48Z</time>
      </trkpt>
      <trkpt lat="45.52287" lon="6.31651">
        <ele>327.6</ele>
        <time>2022-07-17T04:41:49Z</time>
      </trkpt>
      <trkpt lat="45.52282" lon="6.31653">
        <ele>328</ele>
        <time>2022-07-17T04:41:50Z</time>
      </trkpt>
      <trkpt lat="45.52276" lon="6.31654">
        <ele>328</ele>
        <time>2022-07-17T04:41:51Z</time>
      </trkpt>
      <trkpt lat="45.5227" lon="6.31655">
        <ele>328</ele>
        <time>2022-07-17T04:41:52Z</time>
      </trkpt>
      <trkpt lat="45.52264" lon="6.31657">
        <ele>328.2</ele>
        <time>2022-07-17T04:41:53Z</time>
      </trkpt>
      <trkpt lat="45.52259" lon="6.31658">
        <ele>328.2</ele>
        <time>2022-07-17T04:41:54Z</time>
      </trkpt>
      <trkpt lat="45.52254" lon="6.3166">
        <ele>328.6</ele>
        <time>2022-07-17T04:41:55Z</time>
      </trkpt>
      <trkpt lat="45.52248" lon="6.31662">
        <ele>328.8</ele>
        <time>2022-07-17T04:41:56Z</time>
      </trkpt>
      <trkpt lat="45.52243" lon="6.31664">
        <ele>328.8</ele>
        <time>2022-07-17T04:41:57Z</time>
      </trkpt>
      <trkpt lat="45.52238" lon="6.31666">
        <ele>328.8</ele>
        <time>2022-07-17T04:41:58Z</time>
      </trkpt>
      <trkpt lat="45.52233" lon="6.31668">
        <ele>329</ele>
        <time>2022-07-17T04:41:59Z</time>
      </trkpt>
      <trkpt lat="45.52229" lon="6.31671">
        <ele>329</ele>
        <time>2022-07-17T04:42:00Z</time>
      </trkpt>
      <trkpt lat="45.52224" lon="6.31675">
        <ele>329.2</ele>
        <time>2022-07-17T04:42:01Z</time>
      </trkpt>
      <trkpt lat="45.52219" lon="6.31678">
        <ele>329.2</ele>
        <time>2022-07-17T04:42:02Z</time>
      </trkpt>
      <trkpt lat="45.52214" lon="6.31681">
        <ele>329.6</ele>
        <time>2022-07-17T04:42:03Z</time>
      </trkpt>
      <trkpt lat="45.52209" lon="6.31684">
        <ele>329.6</ele>
        <time>2022-07-17T04:42:04Z</time>
      </trkpt>
      <trkpt lat="45.52205" lon="6.31688">
        <ele>329.8</ele>
        <time>2022-07-17T04:42:05Z</time>
      </trkpt>
      <trkpt lat="45.522" lon="6.31691">
        <ele>329.8</ele>
        <time>2022-07-17T04:42:06Z</time>
      </trkpt>
      <trkpt lat="45.52195" lon="6.31693">
        <ele>329.8</ele>
        <time>2022-07-17T04:42:07Z</time>
      </trkpt>
      <trkpt lat="45.5219" lon="6.31696">
        <ele>330.2</ele>
        <time>2022-07-17T04:42:08Z</time>
      </trkpt>
      <trkpt lat="45.52185" lon="6.317">
        <ele>330.2</ele>
        <time>2022-07-17T04:42:09Z</time>
      </trkpt>
      <trkpt lat="45.52181" lon="6.31702">
        <ele>330.4</ele>
        <time>2022-07-17T04:42:10Z</time>
      </trkpt>
      <trkpt lat="45.52175" lon="6.31705">
        <ele>330.4</ele>
        <time>2022-07-17T04:42:11Z</time>
      </trkpt>
      <trkpt lat="45.5217" lon="6.31707">
        <ele>330.6</ele>
        <time>2022-07-17T04:42:12Z</time>
      </trkpt>
      <trkpt lat="45.52165" lon="6.31709">
        <ele>330.6</ele>
        <time>2022-07-17T04:42:13Z</time>
      </trkpt>
      <trkpt lat="45.5216" lon="6.31712">
        <ele>330.8</ele>
        <time>2022-07-17T04:42:14Z</time>
      </trkpt>
      <trkpt lat="45.52154" lon="6.31714">
        <ele>330.8</ele>
        <time>2022-07-17T04:42:15Z</time>
      </trkpt>
      <trkpt lat="45.52149" lon="6.31716">
        <ele>331.2</ele>
        <time>2022-07-17T04:42:16Z</time>
      </trkpt>
      <trkpt lat="45.52144" lon="6.31718">
        <ele>331.2</ele>
        <time>2022-07-17T04:42:17Z</time>
      </trkpt>
      <trkpt lat="45.52139" lon="6.3172">
        <ele>331.4</ele>
        <time>2022-07-17T04:42:18Z</time>
      </trkpt>
      <trkpt lat="45.52134" lon="6.31722">
        <ele>331.4</ele>
        <time>2022-07-17T04:42:19Z</time>
      </trkpt>
      <trkpt lat="45.52129" lon="6.31724">
        <ele>331.8</ele>
        <time>2022-07-17T04:42:20Z</time>
      </trkpt>
      <trkpt lat="45.52124" lon="6.31726">
        <ele>331.8</ele>
        <time>2022-07-17T04:42:21Z</time>
      </trkpt>
      <trkpt lat="45.52118" lon="6.31727">
        <ele>331.8</ele>
        <time>2022-07-17T04:42:22Z</time>
      </trkpt>
      <trkpt lat="45.52113" lon="6.31729">
        <ele>332</ele>
        <time>2022-07-17T04:42:23Z</time>
      </trkpt>
      <trkpt lat="45.52108" lon="6.3173">
        <ele>332</ele>
        <time>2022-07-17T04:42:24Z</time>
      </trkpt>
      <trkpt lat="45.52097" lon="6.31733">
        <ele>332.2</ele>
        <time>2022-07-17T04:42:25Z</time>
      </trkpt>
      <trkpt lat="45.52092" lon="6.31734">
        <ele>332.2</ele>
        <time>2022-07-17T04:42:26Z</time>
      </trkpt>
      <trkpt lat="45.52087" lon="6.31736">
        <ele>332.4</ele>
        <time>2022-07-17T04:42:27Z</time>
      </trkpt>
      <trkpt lat="45.52081" lon="6.31737">
        <ele>332.4</ele>
        <time>2022-07-17T04:42:28Z</time>
      </trkpt>
      <trkpt lat="45.52076" lon="6.31739">
        <ele>332.4</ele>
        <time>2022-07-17T04:42:29Z</time>
      </trkpt>
      <trkpt lat="45.52071" lon="6.3174">
        <ele>332.4</ele>
        <time>2022-07-17T04:42:30Z</time>
      </trkpt>
      <trkpt lat="45.52065" lon="6.31741">
        <ele>332.4</ele>
        <time>2022-07-17T04:42:31Z</time>
      </trkpt>
      <trkpt lat="45.5206" lon="6.31742">
        <ele>332.6</ele>
        <time>2022-07-17T04:42:32Z</time>
      </trkpt>
      <trkpt lat="45.52054" lon="6.31743">
        <ele>332.6</ele>
        <time>2022-07-17T04:42:33Z</time>
      </trkpt>
      <trkpt lat="45.52049" lon="6.31745">
        <ele>332.6</ele>
        <time>2022-07-17T04:42:34Z</time>
      </trkpt>
      <trkpt lat="45.52043" lon="6.31747">
        <ele>332.6</ele>
        <time>2022-07-17T04:42:35Z</time>
      </trkpt>
      <trkpt lat="45.52038" lon="6.31748">
        <ele>332.8</ele>
        <time>2022-07-17T04:42:36Z</time>
      </trkpt>
      <trkpt lat="45.52032" lon="6.3175">
        <ele>332.8</ele>
        <time>2022-07-17T04:42:37Z</time>
      </trkpt>
      <trkpt lat="45.52027" lon="6.31752">
        <ele>332.8</ele>
        <time>2022-07-17T04:42:38Z</time>
      </trkpt>
      <trkpt lat="45.52022" lon="6.31754">
        <ele>333.2</ele>
        <time>2022-07-17T04:42:39Z</time>
      </trkpt>
      <trkpt lat="45.52017" lon="6.31756">
        <ele>333.2</ele>
        <time>2022-07-17T04:42:40Z</time>
      </trkpt>
      <trkpt lat="45.52012" lon="6.31758">
        <ele>333.2</ele>
        <time>2022-07-17T04:42:41Z</time>
      </trkpt>
      <trkpt lat="45.52007" lon="6.31761">
        <ele>333.4</ele>
        <time>2022-07-17T04:42:42Z</time>
      </trkpt>
      <trkpt lat="45.52002" lon="6.31763">
        <ele>333.4</ele>
        <time>2022-07-17T04:42:43Z</time>
      </trkpt>
      <trkpt lat="45.51998" lon="6.31765">
        <ele>333.6</ele>
        <time>2022-07-17T04:42:44Z</time>
      </trkpt>
      <trkpt lat="45.51994" lon="6.31767">
        <ele>333.6</ele>
        <time>2022-07-17T04:42:45Z</time>
      </trkpt>
      <trkpt lat="45.51991" lon="6.31769">
        <ele>334</ele>
        <time>2022-07-17T04:42:46Z</time>
      </trkpt>
      <trkpt lat="45.51987" lon="6.31772">
        <ele>334</ele>
        <time>2022-07-17T04:42:47Z</time>
      </trkpt>
      <trkpt lat="45.51984" lon="6.31774">
        <ele>334.2</ele>
        <time>2022-07-17T04:42:48Z</time>
      </trkpt>
      <trkpt lat="45.51981" lon="6.31776">
        <ele>334.2</ele>
        <time>2022-07-17T04:42:49Z</time>
      </trkpt>
      <trkpt lat="45.51978" lon="6.31779">
        <ele>334.6</ele>
        <time>2022-07-17T04:42:50Z</time>
      </trkpt>
      <trkpt lat="45.51976" lon="6.31782">
        <ele>334.8</ele>
        <time>2022-07-17T04:42:51Z</time>
      </trkpt>
      <trkpt lat="45.51974" lon="6.31784">
        <ele>334.8</ele>
        <time>2022-07-17T04:42:52Z</time>
      </trkpt>
      <trkpt lat="45.51972" lon="6.31787">
        <ele>335.2</ele>
        <time>2022-07-17T04:42:53Z</time>
      </trkpt>
      <trkpt lat="45.5197" lon="6.31788">
        <ele>335.2</ele>
        <time>2022-07-17T04:42:54Z</time>
      </trkpt>
      <trkpt lat="45.51968" lon="6.3179">
        <ele>335.4</ele>
        <time>2022-07-17T04:42:55Z</time>
      </trkpt>
      <trkpt lat="45.51967" lon="6.31793">
        <ele>335.4</ele>
        <time>2022-07-17T04:42:56Z</time>
      </trkpt>
      <trkpt lat="45.51965" lon="6.31795">
        <ele>335.8</ele>
        <time>2022-07-17T04:42:57Z</time>
      </trkpt>
      <trkpt lat="45.51963" lon="6.31798">
        <ele>336</ele>
        <time>2022-07-17T04:42:58Z</time>
      </trkpt>
      <trkpt lat="45.51959" lon="6.318">
        <ele>336.4</ele>
        <time>2022-07-17T04:42:59Z</time>
      </trkpt>
      <trkpt lat="45.51955" lon="6.31803">
        <ele>336.6</ele>
        <time>2022-07-17T04:43:00Z</time>
      </trkpt>
      <trkpt lat="45.51952" lon="6.31805">
        <ele>337</ele>
        <time>2022-07-17T04:43:01Z</time>
      </trkpt>
      <trkpt lat="45.51949" lon="6.31807">
        <ele>337.2</ele>
        <time>2022-07-17T04:43:02Z</time>
      </trkpt>
      <trkpt lat="45.51945" lon="6.31809">
        <ele>337.6</ele>
        <time>2022-07-17T04:43:03Z</time>
      </trkpt>
      <trkpt lat="45.51941" lon="6.31811">
        <ele>337.8</ele>
        <time>2022-07-17T04:43:04Z</time>
      </trkpt>
      <trkpt lat="45.51938" lon="6.31812">
        <ele>338.2</ele>
        <time>2022-07-17T04:43:05Z</time>
      </trkpt>
      <trkpt lat="45.51934" lon="6.31813">
        <ele>338.6</ele>
        <time>2022-07-17T04:43:06Z</time>
      </trkpt>
      <trkpt lat="45.51931" lon="6.31813">
        <ele>338.8</ele>
        <time>2022-07-17T04:43:07Z</time>
      </trkpt>
      <trkpt lat="45.51927" lon="6.31814">
        <ele>339.2</ele>
        <time>2022-07-17T04:43:08Z</time>
      </trkpt>
      <trkpt lat="45.51923" lon="6.31815">
        <ele>339.4</ele>
        <time>2022-07-17T04:43:09Z</time>
      </trkpt>
      <trkpt lat="45.51919" lon="6.31816">
        <ele>339.8</ele>
        <time>2022-07-17T04:43:10Z</time>
      </trkpt>
      <trkpt lat="45.51915" lon="6.31817">
        <ele>340</ele>
        <time>2022-07-17T04:43:11Z</time>
      </trkpt>
      <trkpt lat="45.51911" lon="6.31818">
        <ele>340.4</ele>
        <time>2022-07-17T04:43:12Z</time>
      </trkpt>
      <trkpt lat="45.51908" lon="6.31819">
        <ele>340.6</ele>
        <time>2022-07-17T04:43:13Z</time>
      </trkpt>
      <trkpt lat="45.51905" lon="6.3182">
        <ele>340.8</ele>
        <time>2022-07-17T04:43:14Z</time>
      </trkpt>
      <trkpt lat="45.51902" lon="6.31821">
        <ele>341</ele>
        <time>2022-07-17T04:43:15Z</time>
      </trkpt>
      <trkpt lat="45.51899" lon="6.31824">
        <ele>341</ele>
        <time>2022-07-17T04:43:16Z</time>
      </trkpt>
      <trkpt lat="45.51896" lon="6.31826">
        <ele>341.4</ele>
        <time>2022-07-17T04:43:17Z</time>
      </trkpt>
      <trkpt lat="45.51893" lon="6.31829">
        <ele>341.6</ele>
        <time>2022-07-17T04:43:18Z</time>
      </trkpt>
      <trkpt lat="45.5189" lon="6.31831">
        <ele>342</ele>
        <time>2022-07-17T04:43:19Z</time>
      </trkpt>
      <trkpt lat="45.51887" lon="6.31835">
        <ele>342.2</ele>
        <time>2022-07-17T04:43:20Z</time>
      </trkpt>
      <trkpt lat="45.51885" lon="6.31838">
        <ele>342.2</ele>
        <time>2022-07-17T04:43:21Z</time>
      </trkpt>
      <trkpt lat="45.51882" lon="6.31841">
        <ele>342.6</ele>
        <time>2022-07-17T04:43:22Z</time>
      </trkpt>
      <trkpt lat="45.5188" lon="6.31844">
        <ele>342.6</ele>
        <time>2022-07-17T04:43:23Z</time>
      </trkpt>
      <trkpt lat="45.51878" lon="6.31848">
        <ele>342.8</ele>
        <time>2022-07-17T04:43:24Z</time>
      </trkpt>
      <trkpt lat="45.51876" lon="6.31852">
        <ele>343.2</ele>
        <time>2022-07-17T04:43:25Z</time>
      </trkpt>
      <trkpt lat="45.51874" lon="6.31855">
        <ele>343.4</ele>
        <time>2022-07-17T04:43:26Z</time>
      </trkpt>
      <trkpt lat="45.51872" lon="6.31859">
        <ele>343.6</ele>
        <time>2022-07-17T04:43:27Z</time>
      </trkpt>
      <trkpt lat="45.5187" lon="6.31862">
        <ele>343.6</ele>
        <time>2022-07-17T04:43:28Z</time>
      </trkpt>
      <trkpt lat="45.51869" lon="6.31866">
        <ele>344</ele>
        <time>2022-07-17T04:43:29Z</time>
      </trkpt>
      <trkpt lat="45.51867" lon="6.31869">
        <ele>344.2</ele>
        <time>2022-07-17T04:43:30Z</time>
      </trkpt>
      <trkpt lat="45.51866" lon="6.31872">
        <ele>344.2</ele>
        <time>2022-07-17T04:43:31Z</time>
      </trkpt>
      <trkpt lat="45.51866" lon="6.31876">
        <ele>344.6</ele>
        <time>2022-07-17T04:43:32Z</time>
      </trkpt>
      <trkpt lat="45.51865" lon="6.31881">
        <ele>344.8</ele>
        <time>2022-07-17T04:43:33Z</time>
      </trkpt>
      <trkpt lat="45.51865" lon="6.31886">
        <ele>344.8</ele>
        <time>2022-07-17T04:43:34Z</time>
      </trkpt>
      <trkpt lat="45.51865" lon="6.3189">
        <ele>345</ele>
        <time>2022-07-17T04:43:35Z</time>
      </trkpt>
      <trkpt lat="45.51865" lon="6.31895">
        <ele>345.2</ele>
        <time>2022-07-17T04:43:36Z</time>
      </trkpt>
      <trkpt lat="45.51864" lon="6.31899">
        <ele>345.2</ele>
        <time>2022-07-17T04:43:37Z</time>
      </trkpt>
      <trkpt lat="45.51863" lon="6.31904">
        <ele>345.6</ele>
        <time>2022-07-17T04:43:38Z</time>
      </trkpt>
      <trkpt lat="45.51862" lon="6.31909">
        <ele>345.6</ele>
        <time>2022-07-17T04:43:39Z</time>
      </trkpt>
      <trkpt lat="45.5186" lon="6.31914">
        <ele>345.8</ele>
        <time>2022-07-17T04:43:40Z</time>
      </trkpt>
      <trkpt lat="45.51858" lon="6.3192">
        <ele>345.8</ele>
        <time>2022-07-17T04:43:41Z</time>
      </trkpt>
      <trkpt lat="45.51856" lon="6.31925">
        <ele>346</ele>
        <time>2022-07-17T04:43:42Z</time>
      </trkpt>
      <trkpt lat="45.51854" lon="6.3193">
        <ele>346</ele>
        <time>2022-07-17T04:43:43Z</time>
      </trkpt>
      <trkpt lat="45.51852" lon="6.31934">
        <ele>346.4</ele>
        <time>2022-07-17T04:43:44Z</time>
      </trkpt>
      <trkpt lat="45.51849" lon="6.31938">
        <ele>346.4</ele>
        <time>2022-07-17T04:43:45Z</time>
      </trkpt>
      <trkpt lat="45.51847" lon="6.31942">
        <ele>346.6</ele>
        <time>2022-07-17T04:43:46Z</time>
      </trkpt>
      <trkpt lat="45.51843" lon="6.31946">
        <ele>346.6</ele>
        <time>2022-07-17T04:43:47Z</time>
      </trkpt>
      <trkpt lat="45.5184" lon="6.31949">
        <ele>347</ele>
        <time>2022-07-17T04:43:48Z</time>
      </trkpt>
      <trkpt lat="45.51837" lon="6.31953">
        <ele>347</ele>
        <time>2022-07-17T04:43:49Z</time>
      </trkpt>
      <trkpt lat="45.51834" lon="6.31956">
        <ele>347.4</ele>
        <time>2022-07-17T04:43:50Z</time>
      </trkpt>
      <trkpt lat="45.51831" lon="6.3196">
        <ele>347.6</ele>
        <time>2022-07-17T04:43:51Z</time>
      </trkpt>
      <trkpt lat="45.51829" lon="6.31964">
        <ele>347.6</ele>
        <time>2022-07-17T04:43:52Z</time>
      </trkpt>
      <trkpt lat="45.51826" lon="6.31968">
        <ele>348</ele>
        <time>2022-07-17T04:43:53Z</time>
      </trkpt>
      <trkpt lat="45.51823" lon="6.31972">
        <ele>348.2</ele>
        <time>2022-07-17T04:43:54Z</time>
      </trkpt>
      <trkpt lat="45.51821" lon="6.31975">
        <ele>348.6</ele>
        <time>2022-07-17T04:43:55Z</time>
      </trkpt>
      <trkpt lat="45.51819" lon="6.3198">
        <ele>348.6</ele>
        <time>2022-07-17T04:43:56Z</time>
      </trkpt>
      <trkpt lat="45.51816" lon="6.31983">
        <ele>349</ele>
        <time>2022-07-17T04:43:57Z</time>
      </trkpt>
      <trkpt lat="45.51814" lon="6.31987">
        <ele>349.2</ele>
        <time>2022-07-17T04:43:58Z</time>
      </trkpt>
      <trkpt lat="45.51811" lon="6.31991">
        <ele>349.4</ele>
        <time>2022-07-17T04:43:59Z</time>
      </trkpt>
      <trkpt lat="45.51809" lon="6.31995">
        <ele>349.4</ele>
        <time>2022-07-17T04:44:00Z</time>
      </trkpt>
      <trkpt lat="45.51806" lon="6.31998">
        <ele>349.8</ele>
        <time>2022-07-17T04:44:01Z</time>
      </trkpt>
      <trkpt lat="45.51803" lon="6.32">
        <ele>350</ele>
        <time>2022-07-17T04:44:02Z</time>
      </trkpt>
      <trkpt lat="45.518" lon="6.32003">
        <ele>350.4</ele>
        <time>2022-07-17T04:44:03Z</time>
      </trkpt>
      <trkpt lat="45.51798" lon="6.32006">
        <ele>350.6</ele>
        <time>2022-07-17T04:44:04Z</time>
      </trkpt>
      <trkpt lat="45.51795" lon="6.32009">
        <ele>350.8</ele>
        <time>2022-07-17T04:44:05Z</time>
      </trkpt>
      <trkpt lat="45.51792" lon="6.32011">
        <ele>350.8</ele>
        <time>2022-07-17T04:44:06Z</time>
      </trkpt>
      <trkpt lat="45.5179" lon="6.32014">
        <ele>351.4</ele>
        <time>2022-07-17T04:44:07Z</time>
      </trkpt>
      <trkpt lat="45.51788" lon="6.32016">
        <ele>351.8</ele>
        <time>2022-07-17T04:44:08Z</time>
      </trkpt>
      <trkpt lat="45.51786" lon="6.32018">
        <ele>352</ele>
        <time>2022-07-17T04:44:09Z</time>
      </trkpt>
      <trkpt lat="45.51784" lon="6.3202">
        <ele>352.2</ele>
        <time>2022-07-17T04:44:10Z</time>
      </trkpt>
      <trkpt lat="45.51782" lon="6.32022">
        <ele>352.4</ele>
        <time>2022-07-17T04:44:11Z</time>
      </trkpt>
      <trkpt lat="45.5178" lon="6.32024">
        <ele>352.8</ele>
        <time>2022-07-17T04:44:12Z</time>
      </trkpt>
      <trkpt lat="45.51777" lon="6.32026">
        <ele>353</ele>
        <time>2022-07-17T04:44:13Z</time>
      </trkpt>
      <trkpt lat="45.51774" lon="6.32028">
        <ele>353.4</ele>
        <time>2022-07-17T04:44:14Z</time>
      </trkpt>
      <trkpt lat="45.5177" lon="6.32029">
        <ele>353.6</ele>
        <time>2022-07-17T04:44:15Z</time>
      </trkpt>
      <trkpt lat="45.51767" lon="6.3203">
        <ele>353.6</ele>
        <time>2022-07-17T04:44:16Z</time>
      </trkpt>
      <trkpt lat="45.51763" lon="6.3203">
        <ele>354</ele>
        <time>2022-07-17T04:44:17Z</time>
      </trkpt>
      <trkpt lat="45.5176" lon="6.32031">
        <ele>354.4</ele>
        <time>2022-07-17T04:44:18Z</time>
      </trkpt>
      <trkpt lat="45.51755" lon="6.32031">
        <ele>354.8</ele>
        <time>2022-07-17T04:44:19Z</time>
      </trkpt>
      <trkpt lat="45.51751" lon="6.32031">
        <ele>355</ele>
        <time>2022-07-17T04:44:20Z</time>
      </trkpt>
      <trkpt lat="45.51748" lon="6.3203">
        <ele>355.2</ele>
        <time>2022-07-17T04:44:21Z</time>
      </trkpt>
      <trkpt lat="45.51744" lon="6.32029">
        <ele>355.2</ele>
        <time>2022-07-17T04:44:22Z</time>
      </trkpt>
      <trkpt lat="45.51741" lon="6.32029">
        <ele>355.6</ele>
        <time>2022-07-17T04:44:23Z</time>
      </trkpt>
      <trkpt lat="45.51737" lon="6.32028">
        <ele>356</ele>
        <time>2022-07-17T04:44:24Z</time>
      </trkpt>
      <trkpt lat="45.51733" lon="6.32027">
        <ele>356.2</ele>
        <time>2022-07-17T04:44:25Z</time>
      </trkpt>
      <trkpt lat="45.51729" lon="6.32027">
        <ele>356.6</ele>
        <time>2022-07-17T04:44:26Z</time>
      </trkpt>
      <trkpt lat="45.51725" lon="6.32026">
        <ele>356.8</ele>
        <time>2022-07-17T04:44:27Z</time>
      </trkpt>
      <trkpt lat="45.51722" lon="6.32025">
        <ele>357</ele>
        <time>2022-07-17T04:44:28Z</time>
      </trkpt>
      <trkpt lat="45.51718" lon="6.32025">
        <ele>357.2</ele>
        <time>2022-07-17T04:44:29Z</time>
      </trkpt>
      <trkpt lat="45.51715" lon="6.32024">
        <ele>357.4</ele>
        <time>2022-07-17T04:44:30Z</time>
      </trkpt>
      <trkpt lat="45.51711" lon="6.32023">
        <ele>357.6</ele>
        <time>2022-07-17T04:44:31Z</time>
      </trkpt>
      <trkpt lat="45.51708" lon="6.32022">
        <ele>357.6</ele>
        <time>2022-07-17T04:44:32Z</time>
      </trkpt>
      <trkpt lat="45.51704" lon="6.32021">
        <ele>358</ele>
        <time>2022-07-17T04:44:33Z</time>
      </trkpt>
      <trkpt lat="45.51701" lon="6.32021">
        <ele>358</ele>
        <time>2022-07-17T04:44:34Z</time>
      </trkpt>
      <trkpt lat="45.51697" lon="6.3202">
        <ele>358.2</ele>
        <time>2022-07-17T04:44:35Z</time>
      </trkpt>
      <trkpt lat="45.51694" lon="6.32019">
        <ele>358.2</ele>
        <time>2022-07-17T04:44:36Z</time>
      </trkpt>
      <trkpt lat="45.5169" lon="6.32018">
        <ele>358.6</ele>
        <time>2022-07-17T04:44:37Z</time>
      </trkpt>
      <trkpt lat="45.51687" lon="6.32018">
        <ele>358.6</ele>
        <time>2022-07-17T04:44:38Z</time>
      </trkpt>
      <trkpt lat="45.51683" lon="6.32017">
        <ele>359</ele>
        <time>2022-07-17T04:44:39Z</time>
      </trkpt>
      <trkpt lat="45.5168" lon="6.32016">
        <ele>359</ele>
        <time>2022-07-17T04:44:40Z</time>
      </trkpt>
      <trkpt lat="45.51676" lon="6.32015">
        <ele>359.4</ele>
        <time>2022-07-17T04:44:41Z</time>
      </trkpt>
      <trkpt lat="45.51673" lon="6.32015">
        <ele>359.6</ele>
        <time>2022-07-17T04:44:42Z</time>
      </trkpt>
      <trkpt lat="45.5167" lon="6.32014">
        <ele>359.8</ele>
        <time>2022-07-17T04:44:43Z</time>
      </trkpt>
      <trkpt lat="45.51666" lon="6.32014">
        <ele>359.8</ele>
        <time>2022-07-17T04:44:44Z</time>
      </trkpt>
      <trkpt lat="45.51663" lon="6.32013">
        <ele>360.2</ele>
        <time>2022-07-17T04:44:45Z</time>
      </trkpt>
      <trkpt lat="45.5166" lon="6.32012">
        <ele>360.4</ele>
        <time>2022-07-17T04:44:46Z</time>
      </trkpt>
      <trkpt lat="45.51656" lon="6.32011">
        <ele>360.6</ele>
        <time>2022-07-17T04:44:47Z</time>
      </trkpt>
      <trkpt lat="45.51653" lon="6.32011">
        <ele>360.8</ele>
        <time>2022-07-17T04:44:48Z</time>
      </trkpt>
      <trkpt lat="45.5165" lon="6.32011">
        <ele>360.8</ele>
        <time>2022-07-17T04:44:49Z</time>
      </trkpt>
      <trkpt lat="45.51646" lon="6.32011">
        <ele>361.2</ele>
        <time>2022-07-17T04:44:50Z</time>
      </trkpt>
      <trkpt lat="45.51643" lon="6.32012">
        <ele>361.4</ele>
        <time>2022-07-17T04:44:51Z</time>
      </trkpt>
      <trkpt lat="45.5164" lon="6.32013">
        <ele>361.6</ele>
        <time>2022-07-17T04:44:52Z</time>
      </trkpt>
      <trkpt lat="45.51636" lon="6.32014">
        <ele>361.6</ele>
        <time>2022-07-17T04:44:53Z</time>
      </trkpt>
      <trkpt lat="45.51633" lon="6.32016">
        <ele>362</ele>
        <time>2022-07-17T04:44:54Z</time>
      </trkpt>
      <trkpt lat="45.5163" lon="6.32018">
        <ele>362</ele>
        <time>2022-07-17T04:44:55Z</time>
      </trkpt>
      <trkpt lat="45.51627" lon="6.32021">
        <ele>362.4</ele>
        <time>2022-07-17T04:44:56Z</time>
      </trkpt>
      <trkpt lat="45.51624" lon="6.32023">
        <ele>362.4</ele>
        <time>2022-07-17T04:44:57Z</time>
      </trkpt>
      <trkpt lat="45.51621" lon="6.32026">
        <ele>362.6</ele>
        <time>2022-07-17T04:44:58Z</time>
      </trkpt>
      <trkpt lat="45.51617" lon="6.32029">
        <ele>362.6</ele>
        <time>2022-07-17T04:44:59Z</time>
      </trkpt>
      <trkpt lat="45.51614" lon="6.32031">
        <ele>363</ele>
        <time>2022-07-17T04:45:00Z</time>
      </trkpt>
      <trkpt lat="45.51611" lon="6.32034">
        <ele>363</ele>
        <time>2022-07-17T04:45:01Z</time>
      </trkpt>
      <trkpt lat="45.51608" lon="6.32037">
        <ele>363.2</ele>
        <time>2022-07-17T04:45:02Z</time>
      </trkpt>
      <trkpt lat="45.51605" lon="6.32039">
        <ele>363.2</ele>
        <time>2022-07-17T04:45:03Z</time>
      </trkpt>
      <trkpt lat="45.51602" lon="6.32042">
        <ele>363.6</ele>
        <time>2022-07-17T04:45:04Z</time>
      </trkpt>
      <trkpt lat="45.51599" lon="6.32044">
        <ele>363.6</ele>
        <time>2022-07-17T04:45:05Z</time>
      </trkpt>
      <trkpt lat="45.51596" lon="6.32047">
        <ele>364</ele>
        <time>2022-07-17T04:45:06Z</time>
      </trkpt>
      <trkpt lat="45.51593" lon="6.32049">
        <ele>364.4</ele>
        <time>2022-07-17T04:45:07Z</time>
      </trkpt>
      <trkpt lat="45.51589" lon="6.32051">
        <ele>364.6</ele>
        <time>2022-07-17T04:45:08Z</time>
      </trkpt>
      <trkpt lat="45.51586" lon="6.32054">
        <ele>364.6</ele>
        <time>2022-07-17T04:45:09Z</time>
      </trkpt>
      <trkpt lat="45.51583" lon="6.32056">
        <ele>365</ele>
        <time>2022-07-17T04:45:10Z</time>
      </trkpt>
      <trkpt lat="45.51579" lon="6.32058">
        <ele>365.2</ele>
        <time>2022-07-17T04:45:11Z</time>
      </trkpt>
      <trkpt lat="45.51576" lon="6.32059">
        <ele>365.4</ele>
        <time>2022-07-17T04:45:12Z</time>
      </trkpt>
      <trkpt lat="45.51572" lon="6.3206">
        <ele>365.8</ele>
        <time>2022-07-17T04:45:13Z</time>
      </trkpt>
      <trkpt lat="45.51568" lon="6.3206">
        <ele>365.8</ele>
        <time>2022-07-17T04:45:14Z</time>
      </trkpt>
      <trkpt lat="45.51564" lon="6.32061">
        <ele>366</ele>
        <time>2022-07-17T04:45:15Z</time>
      </trkpt>
      <trkpt lat="45.5156" lon="6.32062">
        <ele>366</ele>
        <time>2022-07-17T04:45:16Z</time>
      </trkpt>
      <trkpt lat="45.51556" lon="6.32062">
        <ele>366</ele>
        <time>2022-07-17T04:45:17Z</time>
      </trkpt>
      <trkpt lat="45.51552" lon="6.32063">
        <ele>366</ele>
        <time>2022-07-17T04:45:18Z</time>
      </trkpt>
      <trkpt lat="45.51548" lon="6.32064">
        <ele>366</ele>
        <time>2022-07-17T04:45:19Z</time>
      </trkpt>
      <trkpt lat="45.51543" lon="6.32064">
        <ele>366</ele>
        <time>2022-07-17T04:45:20Z</time>
      </trkpt>
      <trkpt lat="45.51538" lon="6.32064">
        <ele>366</ele>
        <time>2022-07-17T04:45:21Z</time>
      </trkpt>
      <trkpt lat="45.51533" lon="6.32063">
        <ele>366</ele>
        <time>2022-07-17T04:45:22Z</time>
      </trkpt>
      <trkpt lat="45.51528" lon="6.32062">
        <ele>366</ele>
        <time>2022-07-17T04:45:23Z</time>
      </trkpt>
      <trkpt lat="45.51523" lon="6.32061">
        <ele>366</ele>
        <time>2022-07-17T04:45:24Z</time>
      </trkpt>
      <trkpt lat="45.51518" lon="6.32058">
        <ele>365.8</ele>
        <time>2022-07-17T04:45:25Z</time>
      </trkpt>
      <trkpt lat="45.51513" lon="6.32056">
        <ele>365.8</ele>
        <time>2022-07-17T04:45:26Z</time>
      </trkpt>
      <trkpt lat="45.51508" lon="6.32053">
        <ele>365.8</ele>
        <time>2022-07-17T04:45:27Z</time>
      </trkpt>
      <trkpt lat="45.51503" lon="6.3205">
        <ele>365.8</ele>
        <time>2022-07-17T04:45:28Z</time>
      </trkpt>
      <trkpt lat="45.51498" lon="6.32047">
        <ele>365.6</ele>
        <time>2022-07-17T04:45:29Z</time>
      </trkpt>
      <trkpt lat="45.51493" lon="6.32044">
        <ele>365.6</ele>
        <time>2022-07-17T04:45:30Z</time>
      </trkpt>
      <trkpt lat="45.51488" lon="6.32041">
        <ele>365.6</ele>
        <time>2022-07-17T04:45:31Z</time>
      </trkpt>
      <trkpt lat="45.51483" lon="6.32037">
        <ele>365.6</ele>
        <time>2022-07-17T04:45:32Z</time>
      </trkpt>
      <trkpt lat="45.51478" lon="6.32035">
        <ele>365.2</ele>
        <time>2022-07-17T04:45:33Z</time>
      </trkpt>
      <trkpt lat="45.51472" lon="6.32032">
        <ele>365.2</ele>
        <time>2022-07-17T04:45:34Z</time>
      </trkpt>
      <trkpt lat="45.51467" lon="6.32029">
        <ele>365</ele>
        <time>2022-07-17T04:45:35Z</time>
      </trkpt>
      <trkpt lat="45.51461" lon="6.32025">
        <ele>365</ele>
        <time>2022-07-17T04:45:36Z</time>
      </trkpt>
      <trkpt lat="45.51455" lon="6.32022">
        <ele>364.6</ele>
        <time>2022-07-17T04:45:37Z</time>
      </trkpt>
      <trkpt lat="45.51449" lon="6.3202">
        <ele>364.2</ele>
        <time>2022-07-17T04:45:38Z</time>
      </trkpt>
      <trkpt lat="45.51443" lon="6.32016">
        <ele>363.8</ele>
        <time>2022-07-17T04:45:39Z</time>
      </trkpt>
      <trkpt lat="45.51436" lon="6.32013">
        <ele>363.6</ele>
        <time>2022-07-17T04:45:40Z</time>
      </trkpt>
      <trkpt lat="45.5143" lon="6.3201">
        <ele>363.2</ele>
        <time>2022-07-17T04:45:41Z</time>
      </trkpt>
      <trkpt lat="45.51422" lon="6.32006">
        <ele>362.8</ele>
        <time>2022-07-17T04:45:42Z</time>
      </trkpt>
      <trkpt lat="45.51415" lon="6.32002">
        <ele>362.2</ele>
        <time>2022-07-17T04:45:43Z</time>
      </trkpt>
      <trkpt lat="45.51408" lon="6.31999">
        <ele>361.8</ele>
        <time>2022-07-17T04:45:44Z</time>
      </trkpt>
      <trkpt lat="45.514" lon="6.31995">
        <ele>361.4</ele>
        <time>2022-07-17T04:45:45Z</time>
      </trkpt>
      <trkpt lat="45.51392" lon="6.31992">
        <ele>361</ele>
        <time>2022-07-17T04:45:46Z</time>
      </trkpt>
      <trkpt lat="45.51385" lon="6.31988">
        <ele>360.8</ele>
        <time>2022-07-17T04:45:47Z</time>
      </trkpt>
      <trkpt lat="45.51377" lon="6.31984">
        <ele>360.4</ele>
        <time>2022-07-17T04:45:48Z</time>
      </trkpt>
      <trkpt lat="45.5137" lon="6.3198">
        <ele>360.2</ele>
        <time>2022-07-17T04:45:49Z</time>
      </trkpt>
      <trkpt lat="45.51363" lon="6.31976">
        <ele>360</ele>
        <time>2022-07-17T04:45:50Z</time>
      </trkpt>
      <trkpt lat="45.51356" lon="6.31971">
        <ele>359.6</ele>
        <time>2022-07-17T04:45:51Z</time>
      </trkpt>
      <trkpt lat="45.51349" lon="6.31966">
        <ele>359.4</ele>
        <time>2022-07-17T04:45:52Z</time>
      </trkpt>
      <trkpt lat="45.51344" lon="6.31958">
        <ele>358.8</ele>
        <time>2022-07-17T04:45:54Z</time>
      </trkpt>
      <trkpt lat="45.5134" lon="6.3195">
        <ele>358.4</ele>
        <time>2022-07-17T04:45:55Z</time>
      </trkpt>
      <trkpt lat="45.51337" lon="6.3194">
        <ele>358</ele>
        <time>2022-07-17T04:45:56Z</time>
      </trkpt>
      <trkpt lat="45.51336" lon="6.31929">
        <ele>357.6</ele>
        <time>2022-07-17T04:45:57Z</time>
      </trkpt>
      <trkpt lat="45.51336" lon="6.31918">
        <ele>357.2</ele>
        <time>2022-07-17T04:45:58Z</time>
      </trkpt>
      <trkpt lat="45.51338" lon="6.31906">
        <ele>356.8</ele>
        <time>2022-07-17T04:45:59Z</time>
      </trkpt>
      <trkpt lat="45.5134" lon="6.31893">
        <ele>356.2</ele>
        <time>2022-07-17T04:46:00Z</time>
      </trkpt>
      <trkpt lat="45.51342" lon="6.3188">
        <ele>355.6</ele>
        <time>2022-07-17T04:46:01Z</time>
      </trkpt>
      <trkpt lat="45.51344" lon="6.31867">
        <ele>355</ele>
        <time>2022-07-17T04:46:02Z</time>
      </trkpt>
      <trkpt lat="45.51346" lon="6.31853">
        <ele>354.4</ele>
        <time>2022-07-17T04:46:03Z</time>
      </trkpt>
      <trkpt lat="45.51348" lon="6.31839">
        <ele>353.8</ele>
        <time>2022-07-17T04:46:04Z</time>
      </trkpt>
      <trkpt lat="45.5135" lon="6.31825">
        <ele>353.4</ele>
        <time>2022-07-17T04:46:05Z</time>
      </trkpt>
      <trkpt lat="45.51352" lon="6.31811">
        <ele>352.8</ele>
        <time>2022-07-17T04:46:06Z</time>
      </trkpt>
      <trkpt lat="45.51354" lon="6.31796">
        <ele>352.2</ele>
        <time>2022-07-17T04:46:07Z</time>
      </trkpt>
      <trkpt lat="45.51357" lon="6.3178">
        <ele>351.6</ele>
        <time>2022-07-17T04:46:08Z</time>
      </trkpt>
      <trkpt lat="45.51359" lon="6.31765">
        <ele>351</ele>
        <time>2022-07-17T04:46:09Z</time>
      </trkpt>
      <trkpt lat="45.51361" lon="6.31752">
        <ele>350.4</ele>
        <time>2022-07-17T04:46:10Z</time>
      </trkpt>
      <trkpt lat="45.51363" lon="6.31738">
        <ele>349.8</ele>
        <time>2022-07-17T04:46:11Z</time>
      </trkpt>
      <trkpt lat="45.51364" lon="6.31726">
        <ele>349.4</ele>
        <time>2022-07-17T04:46:12Z</time>
      </trkpt>
      <trkpt lat="45.51365" lon="6.31711">
        <ele>348.8</ele>
        <time>2022-07-17T04:46:13Z</time>
      </trkpt>
      <trkpt lat="45.51366" lon="6.31697">
        <ele>348.2</ele>
        <time>2022-07-17T04:46:14Z</time>
      </trkpt>
      <trkpt lat="45.51365" lon="6.31682">
        <ele>347.6</ele>
        <time>2022-07-17T04:46:15Z</time>
      </trkpt>
      <trkpt lat="45.51365" lon="6.31668">
        <ele>347</ele>
        <time>2022-07-17T04:46:16Z</time>
      </trkpt>
      <trkpt lat="45.51364" lon="6.31652">
        <ele>346.4</ele>
        <time>2022-07-17T04:46:17Z</time>
      </trkpt>
      <trkpt lat="45.51363" lon="6.31637">
        <ele>345.8</ele>
        <time>2022-07-17T04:46:18Z</time>
      </trkpt>
      <trkpt lat="45.51362" lon="6.31622">
        <ele>345</ele>
        <time>2022-07-17T04:46:19Z</time>
      </trkpt>
      <trkpt lat="45.51361" lon="6.31606">
        <ele>344.4</ele>
        <time>2022-07-17T04:46:20Z</time>
      </trkpt>
      <trkpt lat="45.5136" lon="6.31591">
        <ele>343.8</ele>
        <time>2022-07-17T04:46:21Z</time>
      </trkpt>
      <trkpt lat="45.51359" lon="6.31577">
        <ele>343.4</ele>
        <time>2022-07-17T04:46:22Z</time>
      </trkpt>
      <trkpt lat="45.51358" lon="6.31564">
        <ele>342.8</ele>
        <time>2022-07-17T04:46:23Z</time>
      </trkpt>
      <trkpt lat="45.51357" lon="6.31551">
        <ele>342.2</ele>
        <time>2022-07-17T04:46:24Z</time>
      </trkpt>
      <trkpt lat="45.51356" lon="6.31538">
        <ele>341.8</ele>
        <time>2022-07-17T04:46:25Z</time>
      </trkpt>
      <trkpt lat="45.51354" lon="6.31527">
        <ele>341.4</ele>
        <time>2022-07-17T04:46:26Z</time>
      </trkpt>
      <trkpt lat="45.5135" lon="6.31517">
        <ele>341.2</ele>
        <time>2022-07-17T04:46:27Z</time>
      </trkpt>
      <trkpt lat="45.51345" lon="6.31511">
        <ele>340.8</ele>
        <time>2022-07-17T04:46:28Z</time>
      </trkpt>
      <trkpt lat="45.51338" lon="6.31508">
        <ele>340.6</ele>
        <time>2022-07-17T04:46:29Z</time>
      </trkpt>
      <trkpt lat="45.5133" lon="6.31506">
        <ele>340.6</ele>
        <time>2022-07-17T04:46:30Z</time>
      </trkpt>
      <trkpt lat="45.51322" lon="6.31506">
        <ele>340.2</ele>
        <time>2022-07-17T04:46:31Z</time>
      </trkpt>
      <trkpt lat="45.51314" lon="6.31507">
        <ele>340.2</ele>
        <time>2022-07-17T04:46:32Z</time>
      </trkpt>
      <trkpt lat="45.51307" lon="6.31508">
        <ele>340</ele>
        <time>2022-07-17T04:46:33Z</time>
      </trkpt>
      <trkpt lat="45.51298" lon="6.3151">
        <ele>340</ele>
        <time>2022-07-17T04:46:34Z</time>
      </trkpt>
      <trkpt lat="45.5129" lon="6.31511">
        <ele>339.6</ele>
        <time>2022-07-17T04:46:35Z</time>
      </trkpt>
      <trkpt lat="45.51282" lon="6.31512">
        <ele>339.6</ele>
        <time>2022-07-17T04:46:36Z</time>
      </trkpt>
      <trkpt lat="45.51274" lon="6.31513">
        <ele>339.4</ele>
        <time>2022-07-17T04:46:37Z</time>
      </trkpt>
      <trkpt lat="45.51266" lon="6.31514">
        <ele>339.4</ele>
        <time>2022-07-17T04:46:38Z</time>
      </trkpt>
      <trkpt lat="45.51258" lon="6.31515">
        <ele>339.4</ele>
        <time>2022-07-17T04:46:39Z</time>
      </trkpt>
      <trkpt lat="45.5125" lon="6.31518">
        <ele>339.2</ele>
        <time>2022-07-17T04:46:40Z</time>
      </trkpt>
      <trkpt lat="45.51243" lon="6.31521">
        <ele>339.2</ele>
        <time>2022-07-17T04:46:41Z</time>
      </trkpt>
      <trkpt lat="45.51235" lon="6.31524">
        <ele>339.2</ele>
        <time>2022-07-17T04:46:42Z</time>
      </trkpt>
      <trkpt lat="45.51228" lon="6.31528">
        <ele>339.2</ele>
        <time>2022-07-17T04:46:43Z</time>
      </trkpt>
      <trkpt lat="45.5122" lon="6.31533">
        <ele>338.8</ele>
        <time>2022-07-17T04:46:44Z</time>
      </trkpt>
      <trkpt lat="45.51213" lon="6.31537">
        <ele>338.8</ele>
        <time>2022-07-17T04:46:45Z</time>
      </trkpt>
      <trkpt lat="45.51206" lon="6.31542">
        <ele>338.8</ele>
        <time>2022-07-17T04:46:46Z</time>
      </trkpt>
      <trkpt lat="45.512" lon="6.31546">
        <ele>338.6</ele>
        <time>2022-07-17T04:46:47Z</time>
      </trkpt>
      <trkpt lat="45.51193" lon="6.3155">
        <ele>338.6</ele>
        <time>2022-07-17T04:46:48Z</time>
      </trkpt>
      <trkpt lat="45.51186" lon="6.31555">
        <ele>338.6</ele>
        <time>2022-07-17T04:46:49Z</time>
      </trkpt>
      <trkpt lat="45.51179" lon="6.31559">
        <ele>338.6</ele>
        <time>2022-07-17T04:46:50Z</time>
      </trkpt>
      <trkpt lat="45.51172" lon="6.31563">
        <ele>338.2</ele>
        <time>2022-07-17T04:46:51Z</time>
      </trkpt>
      <trkpt lat="45.51165" lon="6.31567">
        <ele>338.2</ele>
        <time>2022-07-17T04:46:52Z</time>
      </trkpt>
      <trkpt lat="45.51157" lon="6.3157">
        <ele>337.8</ele>
        <time>2022-07-17T04:46:53Z</time>
      </trkpt>
      <trkpt lat="45.51149" lon="6.31572">
        <ele>337.6</ele>
        <time>2022-07-17T04:46:54Z</time>
      </trkpt>
      <trkpt lat="45.51142" lon="6.31574">
        <ele>337.4</ele>
        <time>2022-07-17T04:46:55Z</time>
      </trkpt>
      <trkpt lat="45.51134" lon="6.31575">
        <ele>337.4</ele>
        <time>2022-07-17T04:46:56Z</time>
      </trkpt>
      <trkpt lat="45.51126" lon="6.31575">
        <ele>337</ele>
        <time>2022-07-17T04:46:57Z</time>
      </trkpt>
      <trkpt lat="45.51118" lon="6.31576">
        <ele>337</ele>
        <time>2022-07-17T04:46:58Z</time>
      </trkpt>
      <trkpt lat="45.51111" lon="6.31576">
        <ele>336.8</ele>
        <time>2022-07-17T04:46:59Z</time>
      </trkpt>
      <trkpt lat="45.51103" lon="6.31577">
        <ele>336.8</ele>
        <time>2022-07-17T04:47:00Z</time>
      </trkpt>
      <trkpt lat="45.51096" lon="6.31578">
        <ele>336.6</ele>
        <time>2022-07-17T04:47:01Z</time>
      </trkpt>
      <trkpt lat="45.51088" lon="6.31579">
        <ele>336.6</ele>
        <time>2022-07-17T04:47:02Z</time>
      </trkpt>
      <trkpt lat="45.51081" lon="6.31581">
        <ele>336.6</ele>
        <time>2022-07-17T04:47:03Z</time>
      </trkpt>
      <trkpt lat="45.51074" lon="6.31583">
        <ele>336.2</ele>
        <time>2022-07-17T04:47:04Z</time>
      </trkpt>
      <trkpt lat="45.51067" lon="6.31585">
        <ele>336.2</ele>
        <time>2022-07-17T04:47:05Z</time>
      </trkpt>
      <trkpt lat="45.5106" lon="6.31588">
        <ele>336.2</ele>
        <time>2022-07-17T04:47:06Z</time>
      </trkpt>
      <trkpt lat="45.51054" lon="6.3159">
        <ele>336.2</ele>
        <time>2022-07-17T04:47:07Z</time>
      </trkpt>
      <trkpt lat="45.51047" lon="6.31593">
        <ele>336.2</ele>
        <time>2022-07-17T04:47:08Z</time>
      </trkpt>
      <trkpt lat="45.51041" lon="6.31596">
        <ele>336.2</ele>
        <time>2022-07-17T04:47:09Z</time>
      </trkpt>
      <trkpt lat="45.51035" lon="6.31599">
        <ele>336.2</ele>
        <time>2022-07-17T04:47:10Z</time>
      </trkpt>
      <trkpt lat="45.5103" lon="6.31601">
        <ele>336.2</ele>
        <time>2022-07-17T04:47:11Z</time>
      </trkpt>
      <trkpt lat="45.51025" lon="6.31603">
        <ele>336.2</ele>
        <time>2022-07-17T04:47:12Z</time>
      </trkpt>
      <trkpt lat="45.51019" lon="6.31606">
        <ele>336.4</ele>
        <time>2022-07-17T04:47:13Z</time>
      </trkpt>
      <trkpt lat="45.51013" lon="6.31609">
        <ele>336.4</ele>
        <time>2022-07-17T04:47:14Z</time>
      </trkpt>
      <trkpt lat="45.51006" lon="6.31612">
        <ele>336</ele>
        <time>2022-07-17T04:47:15Z</time>
      </trkpt>
      <trkpt lat="45.50999" lon="6.31614">
        <ele>335.8</ele>
        <time>2022-07-17T04:47:16Z</time>
      </trkpt>
      <trkpt lat="45.50993" lon="6.31617">
        <ele>335.6</ele>
        <time>2022-07-17T04:47:17Z</time>
      </trkpt>
      <trkpt lat="45.50986" lon="6.31619">
        <ele>335.4</ele>
        <time>2022-07-17T04:47:18Z</time>
      </trkpt>
      <trkpt lat="45.50979" lon="6.31621">
        <ele>335.4</ele>
        <time>2022-07-17T04:47:19Z</time>
      </trkpt>
      <trkpt lat="45.50973" lon="6.31624">
        <ele>335.2</ele>
        <time>2022-07-17T04:47:20Z</time>
      </trkpt>
      <trkpt lat="45.50966" lon="6.31626">
        <ele>335.2</ele>
        <time>2022-07-17T04:47:21Z</time>
      </trkpt>
      <trkpt lat="45.50959" lon="6.31627">
        <ele>335.2</ele>
        <time>2022-07-17T04:47:22Z</time>
      </trkpt>
      <trkpt lat="45.50953" lon="6.31629">
        <ele>334.8</ele>
        <time>2022-07-17T04:47:23Z</time>
      </trkpt>
      <trkpt lat="45.50946" lon="6.31631">
        <ele>334.8</ele>
        <time>2022-07-17T04:47:24Z</time>
      </trkpt>
      <trkpt lat="45.5094" lon="6.31632">
        <ele>334.8</ele>
        <time>2022-07-17T04:47:25Z</time>
      </trkpt>
      <trkpt lat="45.50934" lon="6.31633">
        <ele>334.8</ele>
        <time>2022-07-17T04:47:26Z</time>
      </trkpt>
      <trkpt lat="45.50927" lon="6.31634">
        <ele>334.8</ele>
        <time>2022-07-17T04:47:27Z</time>
      </trkpt>
      <trkpt lat="45.50921" lon="6.31635">
        <ele>334.8</ele>
        <time>2022-07-17T04:47:28Z</time>
      </trkpt>
      <trkpt lat="45.50914" lon="6.31635">
        <ele>334.8</ele>
        <time>2022-07-17T04:47:29Z</time>
      </trkpt>
      <trkpt lat="45.50907" lon="6.31634">
        <ele>334.8</ele>
        <time>2022-07-17T04:47:30Z</time>
      </trkpt>
      <trkpt lat="45.50901" lon="6.31634">
        <ele>334.8</ele>
        <time>2022-07-17T04:47:31Z</time>
      </trkpt>
      <trkpt lat="45.50894" lon="6.31633">
        <ele>334.8</ele>
        <time>2022-07-17T04:47:32Z</time>
      </trkpt>
      <trkpt lat="45.50887" lon="6.31633">
        <ele>334.8</ele>
        <time>2022-07-17T04:47:33Z</time>
      </trkpt>
      <trkpt lat="45.5088" lon="6.31633">
        <ele>334.8</ele>
        <time>2022-07-17T04:47:34Z</time>
      </trkpt>
      <trkpt lat="45.50874" lon="6.31632">
        <ele>335.2</ele>
        <time>2022-07-17T04:47:35Z</time>
      </trkpt>
      <trkpt lat="45.50867" lon="6.31632">
        <ele>335.2</ele>
        <time>2022-07-17T04:47:36Z</time>
      </trkpt>
      <trkpt lat="45.5086" lon="6.31632">
        <ele>335.4</ele>
        <time>2022-07-17T04:47:37Z</time>
      </trkpt>
      <trkpt lat="45.50854" lon="6.31631">
        <ele>335.4</ele>
        <time>2022-07-17T04:47:38Z</time>
      </trkpt>
      <trkpt lat="45.50847" lon="6.31631">
        <ele>335.4</ele>
        <time>2022-07-17T04:47:39Z</time>
      </trkpt>
      <trkpt lat="45.5084" lon="6.3163">
        <ele>335.4</ele>
        <time>2022-07-17T04:47:40Z</time>
      </trkpt>
      <trkpt lat="45.50834" lon="6.31629">
        <ele>335.6</ele>
        <time>2022-07-17T04:47:41Z</time>
      </trkpt>
      <trkpt lat="45.50828" lon="6.31628">
        <ele>335.6</ele>
        <time>2022-07-17T04:47:42Z</time>
      </trkpt>
      <trkpt lat="45.50822" lon="6.31627">
        <ele>335.8</ele>
        <time>2022-07-17T04:47:43Z</time>
      </trkpt>
      <trkpt lat="45.50816" lon="6.31627">
        <ele>335.8</ele>
        <time>2022-07-17T04:47:44Z</time>
      </trkpt>
      <trkpt lat="45.5081" lon="6.31626">
        <ele>336.2</ele>
        <time>2022-07-17T04:47:45Z</time>
      </trkpt>
      <trkpt lat="45.50804" lon="6.31625">
        <ele>336.2</ele>
        <time>2022-07-17T04:47:46Z</time>
      </trkpt>
      <trkpt lat="45.50798" lon="6.31624">
        <ele>336.2</ele>
        <time>2022-07-17T04:47:47Z</time>
      </trkpt>
      <trkpt lat="45.50792" lon="6.31622">
        <ele>336.4</ele>
        <time>2022-07-17T04:47:48Z</time>
      </trkpt>
      <trkpt lat="45.50786" lon="6.31618">
        <ele>336.4</ele>
        <time>2022-07-17T04:47:49Z</time>
      </trkpt>
      <trkpt lat="45.50781" lon="6.31614">
        <ele>336.4</ele>
        <time>2022-07-17T04:47:50Z</time>
      </trkpt>
      <trkpt lat="45.50776" lon="6.3161">
        <ele>336.4</ele>
        <time>2022-07-17T04:47:51Z</time>
      </trkpt>
      <trkpt lat="45.50771" lon="6.31604">
        <ele>336.6</ele>
        <time>2022-07-17T04:47:52Z</time>
      </trkpt>
      <trkpt lat="45.50766" lon="6.31599">
        <ele>336.6</ele>
        <time>2022-07-17T04:47:53Z</time>
      </trkpt>
      <trkpt lat="45.50761" lon="6.31594">
        <ele>336.6</ele>
        <time>2022-07-17T04:47:54Z</time>
      </trkpt>
      <trkpt lat="45.50756" lon="6.31588">
        <ele>336.6</ele>
        <time>2022-07-17T04:47:55Z</time>
      </trkpt>
      <trkpt lat="45.50751" lon="6.31582">
        <ele>336.6</ele>
        <time>2022-07-17T04:47:56Z</time>
      </trkpt>
      <trkpt lat="45.50746" lon="6.31577">
        <ele>336.4</ele>
        <time>2022-07-17T04:47:57Z</time>
      </trkpt>
      <trkpt lat="45.50741" lon="6.31572">
        <ele>336.4</ele>
        <time>2022-07-17T04:47:58Z</time>
      </trkpt>
      <trkpt lat="45.50735" lon="6.31567">
        <ele>336.2</ele>
        <time>2022-07-17T04:47:59Z</time>
      </trkpt>
      <trkpt lat="45.50728" lon="6.31563">
        <ele>335.8</ele>
        <time>2022-07-17T04:48:00Z</time>
      </trkpt>
      <trkpt lat="45.50722" lon="6.31558">
        <ele>335.8</ele>
        <time>2022-07-17T04:48:01Z</time>
      </trkpt>
      <trkpt lat="45.50716" lon="6.31553">
        <ele>335.6</ele>
        <time>2022-07-17T04:48:02Z</time>
      </trkpt>
      <trkpt lat="45.5071" lon="6.31548">
        <ele>335.6</ele>
        <time>2022-07-17T04:48:03Z</time>
      </trkpt>
      <trkpt lat="45.50705" lon="6.31542">
        <ele>335.6</ele>
        <time>2022-07-17T04:48:04Z</time>
      </trkpt>
      <trkpt lat="45.50699" lon="6.31537">
        <ele>335.6</ele>
        <time>2022-07-17T04:48:05Z</time>
      </trkpt>
      <trkpt lat="45.50694" lon="6.31532">
        <ele>335.6</ele>
        <time>2022-07-17T04:48:06Z</time>
      </trkpt>
      <trkpt lat="45.50688" lon="6.31527">
        <ele>335.6</ele>
        <time>2022-07-17T04:48:07Z</time>
      </trkpt>
      <trkpt lat="45.50683" lon="6.31522">
        <ele>335.6</ele>
        <time>2022-07-17T04:48:08Z</time>
      </trkpt>
      <trkpt lat="45.50678" lon="6.31517">
        <ele>335.6</ele>
        <time>2022-07-17T04:48:09Z</time>
      </trkpt>
      <trkpt lat="45.50673" lon="6.31513">
        <ele>335.6</ele>
        <time>2022-07-17T04:48:10Z</time>
      </trkpt>
      <trkpt lat="45.50668" lon="6.31509">
        <ele>335.6</ele>
        <time>2022-07-17T04:48:11Z</time>
      </trkpt>
      <trkpt lat="45.50663" lon="6.31504">
        <ele>335.6</ele>
        <time>2022-07-17T04:48:12Z</time>
      </trkpt>
      <trkpt lat="45.50657" lon="6.31501">
        <ele>335.6</ele>
        <time>2022-07-17T04:48:13Z</time>
      </trkpt>
      <trkpt lat="45.50652" lon="6.31497">
        <ele>335.6</ele>
        <time>2022-07-17T04:48:14Z</time>
      </trkpt>
      <trkpt lat="45.50645" lon="6.31493">
        <ele>335.6</ele>
        <time>2022-07-17T04:48:15Z</time>
      </trkpt>
      <trkpt lat="45.50639" lon="6.31489">
        <ele>335.6</ele>
        <time>2022-07-17T04:48:16Z</time>
      </trkpt>
      <trkpt lat="45.50633" lon="6.31485">
        <ele>335.6</ele>
        <time>2022-07-17T04:48:17Z</time>
      </trkpt>
      <trkpt lat="45.50627" lon="6.31482">
        <ele>335.6</ele>
        <time>2022-07-17T04:48:18Z</time>
      </trkpt>
      <trkpt lat="45.50621" lon="6.31478">
        <ele>335.6</ele>
        <time>2022-07-17T04:48:19Z</time>
      </trkpt>
      <trkpt lat="45.50615" lon="6.31473">
        <ele>335.6</ele>
        <time>2022-07-17T04:48:20Z</time>
      </trkpt>
      <trkpt lat="45.5061" lon="6.31469">
        <ele>335.6</ele>
        <time>2022-07-17T04:48:21Z</time>
      </trkpt>
      <trkpt lat="45.50604" lon="6.31465">
        <ele>335.6</ele>
        <time>2022-07-17T04:48:22Z</time>
      </trkpt>
      <trkpt lat="45.50598" lon="6.31461">
        <ele>335.8</ele>
        <time>2022-07-17T04:48:23Z</time>
      </trkpt>
      <trkpt lat="45.50593" lon="6.31457">
        <ele>335.8</ele>
        <time>2022-07-17T04:48:24Z</time>
      </trkpt>
      <trkpt lat="45.50587" lon="6.31452">
        <ele>335.8</ele>
        <time>2022-07-17T04:48:25Z</time>
      </trkpt>
      <trkpt lat="45.50582" lon="6.31448">
        <ele>335.8</ele>
        <time>2022-07-17T04:48:26Z</time>
      </trkpt>
      <trkpt lat="45.50576" lon="6.31444">
        <ele>335.8</ele>
        <time>2022-07-17T04:48:27Z</time>
      </trkpt>
      <trkpt lat="45.50571" lon="6.3144">
        <ele>335.8</ele>
        <time>2022-07-17T04:48:28Z</time>
      </trkpt>
      <trkpt lat="45.50566" lon="6.31435">
        <ele>336</ele>
        <time>2022-07-17T04:48:29Z</time>
      </trkpt>
      <trkpt lat="45.50561" lon="6.31431">
        <ele>336</ele>
        <time>2022-07-17T04:48:30Z</time>
      </trkpt>
      <trkpt lat="45.50555" lon="6.31427">
        <ele>336</ele>
        <time>2022-07-17T04:48:31Z</time>
      </trkpt>
      <trkpt lat="45.5055" lon="6.31423">
        <ele>336</ele>
        <time>2022-07-17T04:48:32Z</time>
      </trkpt>
      <trkpt lat="45.50545" lon="6.31418">
        <ele>336</ele>
        <time>2022-07-17T04:48:33Z</time>
      </trkpt>
      <trkpt lat="45.50539" lon="6.31414">
        <ele>336</ele>
        <time>2022-07-17T04:48:34Z</time>
      </trkpt>
      <trkpt lat="45.50534" lon="6.3141">
        <ele>336.4</ele>
        <time>2022-07-17T04:48:35Z</time>
      </trkpt>
      <trkpt lat="45.50528" lon="6.31406">
        <ele>336.4</ele>
        <time>2022-07-17T04:48:36Z</time>
      </trkpt>
      <trkpt lat="45.50523" lon="6.31402">
        <ele>336.4</ele>
        <time>2022-07-17T04:48:37Z</time>
      </trkpt>
      <trkpt lat="45.50518" lon="6.31398">
        <ele>336.4</ele>
        <time>2022-07-17T04:48:38Z</time>
      </trkpt>
      <trkpt lat="45.50513" lon="6.31394">
        <ele>336.4</ele>
        <time>2022-07-17T04:48:39Z</time>
      </trkpt>
      <trkpt lat="45.50507" lon="6.3139">
        <ele>336.4</ele>
        <time>2022-07-17T04:48:40Z</time>
      </trkpt>
      <trkpt lat="45.50502" lon="6.31386">
        <ele>336.6</ele>
        <time>2022-07-17T04:48:41Z</time>
      </trkpt>
      <trkpt lat="45.50497" lon="6.31382">
        <ele>336.6</ele>
        <time>2022-07-17T04:48:42Z</time>
      </trkpt>
      <trkpt lat="45.50492" lon="6.31378">
        <ele>337</ele>
        <time>2022-07-17T04:48:43Z</time>
      </trkpt>
      <trkpt lat="45.50487" lon="6.31374">
        <ele>337</ele>
        <time>2022-07-17T04:48:44Z</time>
      </trkpt>
      <trkpt lat="45.50482" lon="6.3137">
        <ele>337.2</ele>
        <time>2022-07-17T04:48:45Z</time>
      </trkpt>
      <trkpt lat="45.50478" lon="6.31366">
        <ele>337.2</ele>
        <time>2022-07-17T04:48:46Z</time>
      </trkpt>
      <trkpt lat="45.50473" lon="6.31362">
        <ele>337.6</ele>
        <time>2022-07-17T04:48:47Z</time>
      </trkpt>
      <trkpt lat="45.50469" lon="6.31358">
        <ele>337.6</ele>
        <time>2022-07-17T04:48:48Z</time>
      </trkpt>
      <trkpt lat="45.50464" lon="6.31354">
        <ele>338</ele>
        <time>2022-07-17T04:48:49Z</time>
      </trkpt>
      <trkpt lat="45.5046" lon="6.3135">
        <ele>338</ele>
        <time>2022-07-17T04:48:50Z</time>
      </trkpt>
      <trkpt lat="45.50455" lon="6.31346">
        <ele>338.2</ele>
        <time>2022-07-17T04:48:51Z</time>
      </trkpt>
      <trkpt lat="45.50451" lon="6.31342">
        <ele>338.2</ele>
        <time>2022-07-17T04:48:52Z</time>
      </trkpt>
      <trkpt lat="45.50447" lon="6.31338">
        <ele>338.4</ele>
        <time>2022-07-17T04:48:53Z</time>
      </trkpt>
      <trkpt lat="45.50442" lon="6.31335">
        <ele>338.4</ele>
        <time>2022-07-17T04:48:54Z</time>
      </trkpt>
      <trkpt lat="45.50438" lon="6.31331">
        <ele>338.8</ele>
        <time>2022-07-17T04:48:55Z</time>
      </trkpt>
      <trkpt lat="45.50433" lon="6.31328">
        <ele>338.8</ele>
        <time>2022-07-17T04:48:56Z</time>
      </trkpt>
      <trkpt lat="45.50428" lon="6.31324">
        <ele>339</ele>
        <time>2022-07-17T04:48:57Z</time>
      </trkpt>
      <trkpt lat="45.50424" lon="6.3132">
        <ele>339</ele>
        <time>2022-07-17T04:48:58Z</time>
      </trkpt>
      <trkpt lat="45.50419" lon="6.31317">
        <ele>339.4</ele>
        <time>2022-07-17T04:48:59Z</time>
      </trkpt>
      <trkpt lat="45.50415" lon="6.31313">
        <ele>339.4</ele>
        <time>2022-07-17T04:49:00Z</time>
      </trkpt>
      <trkpt lat="45.50411" lon="6.3131">
        <ele>339.6</ele>
        <time>2022-07-17T04:49:01Z</time>
      </trkpt>
      <trkpt lat="45.50406" lon="6.31307">
        <ele>339.6</ele>
        <time>2022-07-17T04:49:02Z</time>
      </trkpt>
      <trkpt lat="45.50402" lon="6.31303">
        <ele>340</ele>
        <time>2022-07-17T04:49:03Z</time>
      </trkpt>
      <trkpt lat="45.50398" lon="6.313">
        <ele>340.4</ele>
        <time>2022-07-17T04:49:04Z</time>
      </trkpt>
      <trkpt lat="45.50394" lon="6.31297">
        <ele>340.6</ele>
        <time>2022-07-17T04:49:05Z</time>
      </trkpt>
      <trkpt lat="45.5039" lon="6.31295">
        <ele>340.6</ele>
        <time>2022-07-17T04:49:06Z</time>
      </trkpt>
      <trkpt lat="45.50386" lon="6.31292">
        <ele>340.8</ele>
        <time>2022-07-17T04:49:07Z</time>
      </trkpt>
      <trkpt lat="45.50381" lon="6.31289">
        <ele>340.8</ele>
        <time>2022-07-17T04:49:08Z</time>
      </trkpt>
      <trkpt lat="45.50377" lon="6.31286">
        <ele>340.8</ele>
        <time>2022-07-17T04:49:09Z</time>
      </trkpt>
      <trkpt lat="45.50372" lon="6.31283">
        <ele>340.8</ele>
        <time>2022-07-17T04:49:10Z</time>
      </trkpt>
      <trkpt lat="45.50367" lon="6.31278">
        <ele>340.8</ele>
        <time>2022-07-17T04:49:11Z</time>
      </trkpt>
      <trkpt lat="45.50362" lon="6.31274">
        <ele>340.6</ele>
        <time>2022-07-17T04:49:12Z</time>
      </trkpt>
      <trkpt lat="45.50356" lon="6.31269">
        <ele>340.6</ele>
        <time>2022-07-17T04:49:13Z</time>
      </trkpt>
      <trkpt lat="45.50351" lon="6.31264">
        <ele>340.4</ele>
        <time>2022-07-17T04:49:14Z</time>
      </trkpt>
      <trkpt lat="45.50346" lon="6.31258">
        <ele>340.4</ele>
        <time>2022-07-17T04:49:15Z</time>
      </trkpt>
      <trkpt lat="45.50342" lon="6.31251">
        <ele>340</ele>
        <time>2022-07-17T04:49:16Z</time>
      </trkpt>
      <trkpt lat="45.50337" lon="6.31243">
        <ele>340</ele>
        <time>2022-07-17T04:49:17Z</time>
      </trkpt>
      <trkpt lat="45.50333" lon="6.31235">
        <ele>339.6</ele>
        <time>2022-07-17T04:49:18Z</time>
      </trkpt>
      <trkpt lat="45.50329" lon="6.31227">
        <ele>339.4</ele>
        <time>2022-07-17T04:49:19Z</time>
      </trkpt>
      <trkpt lat="45.50325" lon="6.31219">
        <ele>339.2</ele>
        <time>2022-07-17T04:49:20Z</time>
      </trkpt>
      <trkpt lat="45.50322" lon="6.31212">
        <ele>339.2</ele>
        <time>2022-07-17T04:49:21Z</time>
      </trkpt>
      <trkpt lat="45.50318" lon="6.31204">
        <ele>339.2</ele>
        <time>2022-07-17T04:49:22Z</time>
      </trkpt>
      <trkpt lat="45.50313" lon="6.31197">
        <ele>339.2</ele>
        <time>2022-07-17T04:49:23Z</time>
      </trkpt>
      <trkpt lat="45.50309" lon="6.31191">
        <ele>339.2</ele>
        <time>2022-07-17T04:49:24Z</time>
      </trkpt>
      <trkpt lat="45.50305" lon="6.31184">
        <ele>339.2</ele>
        <time>2022-07-17T04:49:25Z</time>
      </trkpt>
      <trkpt lat="45.50302" lon="6.31177">
        <ele>339.2</ele>
        <time>2022-07-17T04:49:26Z</time>
      </trkpt>
      <trkpt lat="45.50298" lon="6.31171">
        <ele>339.2</ele>
        <time>2022-07-17T04:49:27Z</time>
      </trkpt>
      <trkpt lat="45.50294" lon="6.31164">
        <ele>339.2</ele>
        <time>2022-07-17T04:49:28Z</time>
      </trkpt>
      <trkpt lat="45.5029" lon="6.31157">
        <ele>339.4</ele>
        <time>2022-07-17T04:49:29Z</time>
      </trkpt>
      <trkpt lat="45.50286" lon="6.31151">
        <ele>339.4</ele>
        <time>2022-07-17T04:49:30Z</time>
      </trkpt>
      <trkpt lat="45.50282" lon="6.31144">
        <ele>339.4</ele>
        <time>2022-07-17T04:49:31Z</time>
      </trkpt>
      <trkpt lat="45.50278" lon="6.31138">
        <ele>339.4</ele>
        <time>2022-07-17T04:49:32Z</time>
      </trkpt>
      <trkpt lat="45.50273" lon="6.31132">
        <ele>339.4</ele>
        <time>2022-07-17T04:49:33Z</time>
      </trkpt>
      <trkpt lat="45.50269" lon="6.31126">
        <ele>339.4</ele>
        <time>2022-07-17T04:49:34Z</time>
      </trkpt>
      <trkpt lat="45.50264" lon="6.3112">
        <ele>339.4</ele>
        <time>2022-07-17T04:49:35Z</time>
      </trkpt>
      <trkpt lat="45.5026" lon="6.31114">
        <ele>339.4</ele>
        <time>2022-07-17T04:49:36Z</time>
      </trkpt>
      <trkpt lat="45.50255" lon="6.31109">
        <ele>339.4</ele>
        <time>2022-07-17T04:49:37Z</time>
      </trkpt>
      <trkpt lat="45.50251" lon="6.31103">
        <ele>339.4</ele>
        <time>2022-07-17T04:49:38Z</time>
      </trkpt>
      <trkpt lat="45.50247" lon="6.31097">
        <ele>339.2</ele>
        <time>2022-07-17T04:49:39Z</time>
      </trkpt>
      <trkpt lat="45.50242" lon="6.31091">
        <ele>339.2</ele>
        <time>2022-07-17T04:49:40Z</time>
      </trkpt>
      <trkpt lat="45.50237" lon="6.31086">
        <ele>339</ele>
        <time>2022-07-17T04:49:41Z</time>
      </trkpt>
      <trkpt lat="45.50232" lon="6.3108">
        <ele>339</ele>
        <time>2022-07-17T04:49:42Z</time>
      </trkpt>
      <trkpt lat="45.50227" lon="6.31074">
        <ele>338.6</ele>
        <time>2022-07-17T04:49:43Z</time>
      </trkpt>
      <trkpt lat="45.50223" lon="6.31068">
        <ele>338.6</ele>
        <time>2022-07-17T04:49:44Z</time>
      </trkpt>
      <trkpt lat="45.50218" lon="6.31061">
        <ele>338.6</ele>
        <time>2022-07-17T04:49:45Z</time>
      </trkpt>
      <trkpt lat="45.50213" lon="6.31055">
        <ele>338.6</ele>
        <time>2022-07-17T04:49:46Z</time>
      </trkpt>
      <trkpt lat="45.50208" lon="6.3105">
        <ele>338.6</ele>
        <time>2022-07-17T04:49:47Z</time>
      </trkpt>
      <trkpt lat="45.50203" lon="6.31044">
        <ele>338.6</ele>
        <time>2022-07-17T04:49:48Z</time>
      </trkpt>
      <trkpt lat="45.50197" lon="6.3104">
        <ele>338.4</ele>
        <time>2022-07-17T04:49:49Z</time>
      </trkpt>
      <trkpt lat="45.50191" lon="6.31035">
        <ele>338.4</ele>
        <time>2022-07-17T04:49:50Z</time>
      </trkpt>
      <trkpt lat="45.50186" lon="6.31031">
        <ele>338.4</ele>
        <time>2022-07-17T04:49:51Z</time>
      </trkpt>
      <trkpt lat="45.5018" lon="6.31027">
        <ele>338.4</ele>
        <time>2022-07-17T04:49:52Z</time>
      </trkpt>
      <trkpt lat="45.50174" lon="6.31022">
        <ele>338.4</ele>
        <time>2022-07-17T04:49:53Z</time>
      </trkpt>
      <trkpt lat="45.50169" lon="6.31016">
        <ele>338.4</ele>
        <time>2022-07-17T04:49:54Z</time>
      </trkpt>
      <trkpt lat="45.50164" lon="6.31011">
        <ele>338.4</ele>
        <time>2022-07-17T04:49:55Z</time>
      </trkpt>
      <trkpt lat="45.50159" lon="6.31005">
        <ele>338.4</ele>
        <time>2022-07-17T04:49:56Z</time>
      </trkpt>
      <trkpt lat="45.50155" lon="6.30999">
        <ele>338.4</ele>
        <time>2022-07-17T04:49:57Z</time>
      </trkpt>
      <trkpt lat="45.5015" lon="6.30993">
        <ele>338.4</ele>
        <time>2022-07-17T04:49:58Z</time>
      </trkpt>
      <trkpt lat="45.50145" lon="6.30987">
        <ele>338.4</ele>
        <time>2022-07-17T04:49:59Z</time>
      </trkpt>
      <trkpt lat="45.50141" lon="6.30982">
        <ele>338.6</ele>
        <time>2022-07-17T04:50:00Z</time>
      </trkpt>
      <trkpt lat="45.50136" lon="6.30978">
        <ele>338.6</ele>
        <time>2022-07-17T04:50:01Z</time>
      </trkpt>
      <trkpt lat="45.50131" lon="6.30974">
        <ele>339</ele>
        <time>2022-07-17T04:50:02Z</time>
      </trkpt>
      <trkpt lat="45.50126" lon="6.3097">
        <ele>339</ele>
        <time>2022-07-17T04:50:03Z</time>
      </trkpt>
      <trkpt lat="45.50121" lon="6.30967">
        <ele>339.2</ele>
        <time>2022-07-17T04:50:04Z</time>
      </trkpt>
      <trkpt lat="45.50116" lon="6.30964">
        <ele>339.2</ele>
        <time>2022-07-17T04:50:05Z</time>
      </trkpt>
      <trkpt lat="45.5011" lon="6.30962">
        <ele>339.2</ele>
        <time>2022-07-17T04:50:06Z</time>
      </trkpt>
      <trkpt lat="45.50105" lon="6.3096">
        <ele>339.2</ele>
        <time>2022-07-17T04:50:07Z</time>
      </trkpt>
      <trkpt lat="45.50099" lon="6.30958">
        <ele>339.4</ele>
        <time>2022-07-17T04:50:08Z</time>
      </trkpt>
      <trkpt lat="45.50094" lon="6.30955">
        <ele>339.4</ele>
        <time>2022-07-17T04:50:09Z</time>
      </trkpt>
      <trkpt lat="45.50089" lon="6.30953">
        <ele>339.6</ele>
        <time>2022-07-17T04:50:10Z</time>
      </trkpt>
      <trkpt lat="45.50084" lon="6.3095">
        <ele>340</ele>
        <time>2022-07-17T04:50:11Z</time>
      </trkpt>
      <trkpt lat="45.5008" lon="6.30947">
        <ele>340.2</ele>
        <time>2022-07-17T04:50:12Z</time>
      </trkpt>
      <trkpt lat="45.50075" lon="6.30944">
        <ele>340.2</ele>
        <time>2022-07-17T04:50:13Z</time>
      </trkpt>
      <trkpt lat="45.5007" lon="6.30941">
        <ele>340.6</ele>
        <time>2022-07-17T04:50:14Z</time>
      </trkpt>
      <trkpt lat="45.50066" lon="6.30937">
        <ele>340.8</ele>
        <time>2022-07-17T04:50:15Z</time>
      </trkpt>
      <trkpt lat="45.50062" lon="6.30933">
        <ele>341</ele>
        <time>2022-07-17T04:50:16Z</time>
      </trkpt>
      <trkpt lat="45.50058" lon="6.3093">
        <ele>341.2</ele>
        <time>2022-07-17T04:50:17Z</time>
      </trkpt>
      <trkpt lat="45.50053" lon="6.30926">
        <ele>341.2</ele>
        <time>2022-07-17T04:50:18Z</time>
      </trkpt>
      <trkpt lat="45.50049" lon="6.30922">
        <ele>341.6</ele>
        <time>2022-07-17T04:50:19Z</time>
      </trkpt>
      <trkpt lat="45.50041" lon="6.30915">
        <ele>341.6</ele>
        <time>2022-07-17T04:50:20Z</time>
      </trkpt>
      <trkpt lat="45.50037" lon="6.30911">
        <ele>341.8</ele>
        <time>2022-07-17T04:50:21Z</time>
      </trkpt>
      <trkpt lat="45.50034" lon="6.30906">
        <ele>341.8</ele>
        <time>2022-07-17T04:50:22Z</time>
      </trkpt>
      <trkpt lat="45.5003" lon="6.30902">
        <ele>342.2</ele>
        <time>2022-07-17T04:50:23Z</time>
      </trkpt>
      <trkpt lat="45.50026" lon="6.30897">
        <ele>342.2</ele>
        <time>2022-07-17T04:50:24Z</time>
      </trkpt>
      <trkpt lat="45.50023" lon="6.30891">
        <ele>342.4</ele>
        <time>2022-07-17T04:50:25Z</time>
      </trkpt>
      <trkpt lat="45.5002" lon="6.30886">
        <ele>342.4</ele>
        <time>2022-07-17T04:50:26Z</time>
      </trkpt>
      <trkpt lat="45.50016" lon="6.30879">
        <ele>342.4</ele>
        <time>2022-07-17T04:50:27Z</time>
      </trkpt>
      <trkpt lat="45.50013" lon="6.30873">
        <ele>342.4</ele>
        <time>2022-07-17T04:50:28Z</time>
      </trkpt>
      <trkpt lat="45.50009" lon="6.30866">
        <ele>342.4</ele>
        <time>2022-07-17T04:50:29Z</time>
      </trkpt>
      <trkpt lat="45.50006" lon="6.30859">
        <ele>342.2</ele>
        <time>2022-07-17T04:50:30Z</time>
      </trkpt>
      <trkpt lat="45.50003" lon="6.30852">
        <ele>342</ele>
        <time>2022-07-17T04:50:31Z</time>
      </trkpt>
      <trkpt lat="45.49999" lon="6.30844">
        <ele>341.6</ele>
        <time>2022-07-17T04:50:32Z</time>
      </trkpt>
      <trkpt lat="45.49995" lon="6.30836">
        <ele>341.4</ele>
        <time>2022-07-17T04:50:33Z</time>
      </trkpt>
      <trkpt lat="45.4999" lon="6.30827">
        <ele>341.2</ele>
        <time>2022-07-17T04:50:34Z</time>
      </trkpt>
      <trkpt lat="45.49986" lon="6.30819">
        <ele>341</ele>
        <time>2022-07-17T04:50:35Z</time>
      </trkpt>
      <trkpt lat="45.49982" lon="6.30811">
        <ele>340.6</ele>
        <time>2022-07-17T04:50:36Z</time>
      </trkpt>
      <trkpt lat="45.49978" lon="6.30804">
        <ele>340.6</ele>
        <time>2022-07-17T04:50:37Z</time>
      </trkpt>
      <trkpt lat="45.49973" lon="6.30796">
        <ele>340.6</ele>
        <time>2022-07-17T04:50:38Z</time>
      </trkpt>
      <trkpt lat="45.49969" lon="6.30789">
        <ele>340.4</ele>
        <time>2022-07-17T04:50:39Z</time>
      </trkpt>
      <trkpt lat="45.49964" lon="6.30783">
        <ele>340.4</ele>
        <time>2022-07-17T04:50:40Z</time>
      </trkpt>
      <trkpt lat="45.49959" lon="6.30777">
        <ele>340.4</ele>
        <time>2022-07-17T04:50:41Z</time>
      </trkpt>
      <trkpt lat="45.49954" lon="6.30773">
        <ele>340.4</ele>
        <time>2022-07-17T04:50:42Z</time>
      </trkpt>
      <trkpt lat="45.49949" lon="6.30768">
        <ele>340.8</ele>
        <time>2022-07-17T04:50:43Z</time>
      </trkpt>
      <trkpt lat="45.49944" lon="6.30763">
        <ele>341</ele>
        <time>2022-07-17T04:50:44Z</time>
      </trkpt>
      <trkpt lat="45.49939" lon="6.30759">
        <ele>341</ele>
        <time>2022-07-17T04:50:45Z</time>
      </trkpt>
      <trkpt lat="45.49935" lon="6.30755">
        <ele>341.2</ele>
        <time>2022-07-17T04:50:46Z</time>
      </trkpt>
      <trkpt lat="45.4993" lon="6.3075">
        <ele>341.2</ele>
        <time>2022-07-17T04:50:47Z</time>
      </trkpt>
      <trkpt lat="45.49926" lon="6.30746">
        <ele>341.8</ele>
        <time>2022-07-17T04:50:48Z</time>
      </trkpt>
      <trkpt lat="45.49922" lon="6.30743">
        <ele>341.8</ele>
        <time>2022-07-17T04:50:49Z</time>
      </trkpt>
      <trkpt lat="45.49917" lon="6.30739">
        <ele>342</ele>
        <time>2022-07-17T04:50:50Z</time>
      </trkpt>
      <trkpt lat="45.49913" lon="6.30735">
        <ele>342</ele>
        <time>2022-07-17T04:50:51Z</time>
      </trkpt>
      <trkpt lat="45.49909" lon="6.30731">
        <ele>342.4</ele>
        <time>2022-07-17T04:50:52Z</time>
      </trkpt>
      <trkpt lat="45.49904" lon="6.30727">
        <ele>342.4</ele>
        <time>2022-07-17T04:50:53Z</time>
      </trkpt>
      <trkpt lat="45.499" lon="6.30723">
        <ele>342.4</ele>
        <time>2022-07-17T04:50:54Z</time>
      </trkpt>
      <trkpt lat="45.49895" lon="6.3072">
        <ele>342.4</ele>
        <time>2022-07-17T04:50:55Z</time>
      </trkpt>
      <trkpt lat="45.4989" lon="6.30716">
        <ele>342.4</ele>
        <time>2022-07-17T04:50:56Z</time>
      </trkpt>
      <trkpt lat="45.49885" lon="6.30712">
        <ele>342.6</ele>
        <time>2022-07-17T04:50:57Z</time>
      </trkpt>
      <trkpt lat="45.4988" lon="6.30709">
        <ele>342.6</ele>
        <time>2022-07-17T04:50:58Z</time>
      </trkpt>
      <trkpt lat="45.49875" lon="6.30706">
        <ele>343</ele>
        <time>2022-07-17T04:50:59Z</time>
      </trkpt>
      <trkpt lat="45.4987" lon="6.30703">
        <ele>343</ele>
        <time>2022-07-17T04:51:00Z</time>
      </trkpt>
      <trkpt lat="45.49865" lon="6.307">
        <ele>343.2</ele>
        <time>2022-07-17T04:51:01Z</time>
      </trkpt>
      <trkpt lat="45.4986" lon="6.30698">
        <ele>343.2</ele>
        <time>2022-07-17T04:51:02Z</time>
      </trkpt>
      <trkpt lat="45.49855" lon="6.30696">
        <ele>343.6</ele>
        <time>2022-07-17T04:51:03Z</time>
      </trkpt>
      <trkpt lat="45.4985" lon="6.30694">
        <ele>343.6</ele>
        <time>2022-07-17T04:51:04Z</time>
      </trkpt>
      <trkpt lat="45.49846" lon="6.30692">
        <ele>343.8</ele>
        <time>2022-07-17T04:51:05Z</time>
      </trkpt>
      <trkpt lat="45.49841" lon="6.3069">
        <ele>344</ele>
        <time>2022-07-17T04:51:06Z</time>
      </trkpt>
      <trkpt lat="45.49837" lon="6.30689">
        <ele>344.4</ele>
        <time>2022-07-17T04:51:07Z</time>
      </trkpt>
      <trkpt lat="45.49833" lon="6.30687">
        <ele>344.4</ele>
        <time>2022-07-17T04:51:08Z</time>
      </trkpt>
      <trkpt lat="45.49828" lon="6.30686">
        <ele>344.6</ele>
        <time>2022-07-17T04:51:09Z</time>
      </trkpt>
      <trkpt lat="45.49825" lon="6.30685">
        <ele>344.8</ele>
        <time>2022-07-17T04:51:10Z</time>
      </trkpt>
      <trkpt lat="45.49821" lon="6.30684">
        <ele>345.2</ele>
        <time>2022-07-17T04:51:11Z</time>
      </trkpt>
      <trkpt lat="45.49818" lon="6.30683">
        <ele>345.2</ele>
        <time>2022-07-17T04:51:12Z</time>
      </trkpt>
      <trkpt lat="45.49815" lon="6.30682">
        <ele>345.4</ele>
        <time>2022-07-17T04:51:13Z</time>
      </trkpt>
      <trkpt lat="45.49812" lon="6.3068">
        <ele>345.4</ele>
        <time>2022-07-17T04:51:14Z</time>
      </trkpt>
      <trkpt lat="45.49808" lon="6.30679">
        <ele>345.4</ele>
        <time>2022-07-17T04:51:15Z</time>
      </trkpt>
      <trkpt lat="45.49804" lon="6.30678">
        <ele>345.4</ele>
        <time>2022-07-17T04:51:16Z</time>
      </trkpt>
      <trkpt lat="45.498" lon="6.30677">
        <ele>345.8</ele>
        <time>2022-07-17T04:51:17Z</time>
      </trkpt>
      <trkpt lat="45.49796" lon="6.30676">
        <ele>345.8</ele>
        <time>2022-07-17T04:51:18Z</time>
      </trkpt>
      <trkpt lat="45.49792" lon="6.30675">
        <ele>346</ele>
        <time>2022-07-17T04:51:19Z</time>
      </trkpt>
      <trkpt lat="45.49788" lon="6.30673">
        <ele>346.2</ele>
        <time>2022-07-17T04:51:20Z</time>
      </trkpt>
      <trkpt lat="45.49784" lon="6.30672">
        <ele>346.2</ele>
        <time>2022-07-17T04:51:21Z</time>
      </trkpt>
      <trkpt lat="45.49779" lon="6.30672">
        <ele>346.6</ele>
        <time>2022-07-17T04:51:22Z</time>
      </trkpt>
      <trkpt lat="45.49775" lon="6.30671">
        <ele>346.6</ele>
        <time>2022-07-17T04:51:23Z</time>
      </trkpt>
      <trkpt lat="45.49771" lon="6.30671">
        <ele>347</ele>
        <time>2022-07-17T04:51:24Z</time>
      </trkpt>
      <trkpt lat="45.49768" lon="6.30671">
        <ele>347.4</ele>
        <time>2022-07-17T04:51:25Z</time>
      </trkpt>
      <trkpt lat="45.49764" lon="6.30671">
        <ele>347.6</ele>
        <time>2022-07-17T04:51:26Z</time>
      </trkpt>
      <trkpt lat="45.49761" lon="6.30672">
        <ele>347.8</ele>
        <time>2022-07-17T04:51:27Z</time>
      </trkpt>
      <trkpt lat="45.49757" lon="6.30672">
        <ele>347.8</ele>
        <time>2022-07-17T04:51:28Z</time>
      </trkpt>
      <trkpt lat="45.49753" lon="6.30673">
        <ele>348</ele>
        <time>2022-07-17T04:51:29Z</time>
      </trkpt>
      <trkpt lat="45.49748" lon="6.30673">
        <ele>348.2</ele>
        <time>2022-07-17T04:51:30Z</time>
      </trkpt>
      <trkpt lat="45.49744" lon="6.30674">
        <ele>348.2</ele>
        <time>2022-07-17T04:51:31Z</time>
      </trkpt>
      <trkpt lat="45.49741" lon="6.30674">
        <ele>348.6</ele>
        <time>2022-07-17T04:51:32Z</time>
      </trkpt>
      <trkpt lat="45.49737" lon="6.30674">
        <ele>348.6</ele>
        <time>2022-07-17T04:51:33Z</time>
      </trkpt>
      <trkpt lat="45.49732" lon="6.30674">
        <ele>349</ele>
        <time>2022-07-17T04:51:34Z</time>
      </trkpt>
      <trkpt lat="45.49727" lon="6.30674">
        <ele>349</ele>
        <time>2022-07-17T04:51:35Z</time>
      </trkpt>
      <trkpt lat="45.49722" lon="6.30674">
        <ele>349.2</ele>
        <time>2022-07-17T04:51:36Z</time>
      </trkpt>
      <trkpt lat="45.49718" lon="6.30674">
        <ele>349.2</ele>
        <time>2022-07-17T04:51:37Z</time>
      </trkpt>
      <trkpt lat="45.49713" lon="6.30674">
        <ele>349.4</ele>
        <time>2022-07-17T04:51:38Z</time>
      </trkpt>
      <trkpt lat="45.49708" lon="6.30673">
        <ele>349.4</ele>
        <time>2022-07-17T04:51:39Z</time>
      </trkpt>
      <trkpt lat="45.49704" lon="6.30673">
        <ele>349.4</ele>
        <time>2022-07-17T04:51:40Z</time>
      </trkpt>
      <trkpt lat="45.49699" lon="6.30672">
        <ele>349.4</ele>
        <time>2022-07-17T04:51:41Z</time>
      </trkpt>
      <trkpt lat="45.49695" lon="6.3067">
        <ele>349.6</ele>
        <time>2022-07-17T04:51:42Z</time>
      </trkpt>
      <trkpt lat="45.49691" lon="6.30669">
        <ele>349.6</ele>
        <time>2022-07-17T04:51:43Z</time>
      </trkpt>
      <trkpt lat="45.49687" lon="6.30667">
        <ele>350</ele>
        <time>2022-07-17T04:51:44Z</time>
      </trkpt>
      <trkpt lat="45.49683" lon="6.30666">
        <ele>350</ele>
        <time>2022-07-17T04:51:45Z</time>
      </trkpt>
      <trkpt lat="45.49679" lon="6.30664">
        <ele>350.2</ele>
        <time>2022-07-17T04:51:46Z</time>
      </trkpt>
      <trkpt lat="45.49676" lon="6.30663">
        <ele>350.2</ele>
        <time>2022-07-17T04:51:47Z</time>
      </trkpt>
      <trkpt lat="45.49672" lon="6.30662">
        <ele>350.4</ele>
        <time>2022-07-17T04:51:48Z</time>
      </trkpt>
      <trkpt lat="45.49668" lon="6.3066">
        <ele>350.4</ele>
        <time>2022-07-17T04:51:49Z</time>
      </trkpt>
      <trkpt lat="45.49664" lon="6.30659">
        <ele>350.6</ele>
        <time>2022-07-17T04:51:50Z</time>
      </trkpt>
      <trkpt lat="45.4966" lon="6.30657">
        <ele>350.8</ele>
        <time>2022-07-17T04:51:51Z</time>
      </trkpt>
      <trkpt lat="45.49656" lon="6.30656">
        <ele>350.8</ele>
        <time>2022-07-17T04:51:52Z</time>
      </trkpt>
      <trkpt lat="45.49653" lon="6.30655">
        <ele>351.2</ele>
        <time>2022-07-17T04:51:53Z</time>
      </trkpt>
      <trkpt lat="45.49649" lon="6.30654">
        <ele>351.2</ele>
        <time>2022-07-17T04:51:54Z</time>
      </trkpt>
      <trkpt lat="45.49645" lon="6.30653">
        <ele>351.4</ele>
        <time>2022-07-17T04:51:55Z</time>
      </trkpt>
      <trkpt lat="45.49641" lon="6.30652">
        <ele>351.4</ele>
        <time>2022-07-17T04:51:56Z</time>
      </trkpt>
      <trkpt lat="45.49636" lon="6.3065">
        <ele>351.4</ele>
        <time>2022-07-17T04:51:57Z</time>
      </trkpt>
      <trkpt lat="45.49632" lon="6.30649">
        <ele>351.6</ele>
        <time>2022-07-17T04:51:58Z</time>
      </trkpt>
      <trkpt lat="45.49627" lon="6.30648">
        <ele>351.6</ele>
        <time>2022-07-17T04:51:59Z</time>
      </trkpt>
      <trkpt lat="45.49622" lon="6.30647">
        <ele>351.4</ele>
        <time>2022-07-17T04:52:00Z</time>
      </trkpt>
      <trkpt lat="45.49615" lon="6.30646">
        <ele>351.2</ele>
        <time>2022-07-17T04:52:01Z</time>
      </trkpt>
      <trkpt lat="45.49609" lon="6.30645">
        <ele>351.2</ele>
        <time>2022-07-17T04:52:02Z</time>
      </trkpt>
      <trkpt lat="45.49603" lon="6.30643">
        <ele>350.8</ele>
        <time>2022-07-17T04:52:03Z</time>
      </trkpt>
      <trkpt lat="45.49596" lon="6.30642">
        <ele>350.6</ele>
        <time>2022-07-17T04:52:04Z</time>
      </trkpt>
      <trkpt lat="45.49587" lon="6.30641">
        <ele>350.6</ele>
        <time>2022-07-17T04:52:05Z</time>
      </trkpt>
      <trkpt lat="45.49578" lon="6.30641">
        <ele>350.2</ele>
        <time>2022-07-17T04:52:06Z</time>
      </trkpt>
      <trkpt lat="45.49569" lon="6.3064">
        <ele>349.8</ele>
        <time>2022-07-17T04:52:07Z</time>
      </trkpt>
      <trkpt lat="45.4956" lon="6.3064">
        <ele>349.6</ele>
        <time>2022-07-17T04:52:08Z</time>
      </trkpt>
      <trkpt lat="45.49552" lon="6.3064">
        <ele>349.2</ele>
        <time>2022-07-17T04:52:09Z</time>
      </trkpt>
      <trkpt lat="45.49544" lon="6.30641">
        <ele>349</ele>
        <time>2022-07-17T04:52:10Z</time>
      </trkpt>
      <trkpt lat="45.49536" lon="6.30641">
        <ele>348.8</ele>
        <time>2022-07-17T04:52:11Z</time>
      </trkpt>
      <trkpt lat="45.49529" lon="6.30641">
        <ele>348.8</ele>
        <time>2022-07-17T04:52:12Z</time>
      </trkpt>
      <trkpt lat="45.49521" lon="6.30641">
        <ele>348.4</ele>
        <time>2022-07-17T04:52:13Z</time>
      </trkpt>
      <trkpt lat="45.49513" lon="6.3064">
        <ele>348.4</ele>
        <time>2022-07-17T04:52:14Z</time>
      </trkpt>
      <trkpt lat="45.49505" lon="6.30639">
        <ele>348.2</ele>
        <time>2022-07-17T04:52:15Z</time>
      </trkpt>
      <trkpt lat="45.49497" lon="6.30638">
        <ele>348.2</ele>
        <time>2022-07-17T04:52:16Z</time>
      </trkpt>
      <trkpt lat="45.4949" lon="6.30637">
        <ele>348</ele>
        <time>2022-07-17T04:52:17Z</time>
      </trkpt>
      <trkpt lat="45.49483" lon="6.30635">
        <ele>348</ele>
        <time>2022-07-17T04:52:18Z</time>
      </trkpt>
      <trkpt lat="45.49475" lon="6.30633">
        <ele>348</ele>
        <time>2022-07-17T04:52:19Z</time>
      </trkpt>
      <trkpt lat="45.49468" lon="6.30632">
        <ele>348</ele>
        <time>2022-07-17T04:52:20Z</time>
      </trkpt>
      <trkpt lat="45.49461" lon="6.3063">
        <ele>348</ele>
        <time>2022-07-17T04:52:21Z</time>
      </trkpt>
      <trkpt lat="45.49453" lon="6.30629">
        <ele>348</ele>
        <time>2022-07-17T04:52:22Z</time>
      </trkpt>
      <trkpt lat="45.49446" lon="6.30628">
        <ele>348</ele>
        <time>2022-07-17T04:52:23Z</time>
      </trkpt>
      <trkpt lat="45.49439" lon="6.30628">
        <ele>348</ele>
        <time>2022-07-17T04:52:24Z</time>
      </trkpt>
      <trkpt lat="45.49432" lon="6.30628">
        <ele>348</ele>
        <time>2022-07-17T04:52:25Z</time>
      </trkpt>
      <trkpt lat="45.49425" lon="6.30628">
        <ele>348</ele>
        <time>2022-07-17T04:52:26Z</time>
      </trkpt>
      <trkpt lat="45.49418" lon="6.30628">
        <ele>348</ele>
        <time>2022-07-17T04:52:27Z</time>
      </trkpt>
      <trkpt lat="45.49412" lon="6.30629">
        <ele>348</ele>
        <time>2022-07-17T04:52:28Z</time>
      </trkpt>
      <trkpt lat="45.49405" lon="6.3063">
        <ele>348</ele>
        <time>2022-07-17T04:52:29Z</time>
      </trkpt>
      <trkpt lat="45.49398" lon="6.30631">
        <ele>348</ele>
        <time>2022-07-17T04:52:30Z</time>
      </trkpt>
      <trkpt lat="45.49391" lon="6.30632">
        <ele>348</ele>
        <time>2022-07-17T04:52:31Z</time>
      </trkpt>
      <trkpt lat="45.49385" lon="6.30633">
        <ele>348</ele>
        <time>2022-07-17T04:52:32Z</time>
      </trkpt>
      <trkpt lat="45.49379" lon="6.30635">
        <ele>348</ele>
        <time>2022-07-17T04:52:33Z</time>
      </trkpt>
      <trkpt lat="45.49372" lon="6.30636">
        <ele>348</ele>
        <time>2022-07-17T04:52:34Z</time>
      </trkpt>
      <trkpt lat="45.49366" lon="6.30637">
        <ele>348.2</ele>
        <time>2022-07-17T04:52:35Z</time>
      </trkpt>
      <trkpt lat="45.4936" lon="6.30638">
        <ele>348.2</ele>
        <time>2022-07-17T04:52:36Z</time>
      </trkpt>
      <trkpt lat="45.49354" lon="6.30639">
        <ele>348.2</ele>
        <time>2022-07-17T04:52:37Z</time>
      </trkpt>
      <trkpt lat="45.49348" lon="6.30641">
        <ele>348.2</ele>
        <time>2022-07-17T04:52:38Z</time>
      </trkpt>
      <trkpt lat="45.49342" lon="6.30642">
        <ele>348.6</ele>
        <time>2022-07-17T04:52:39Z</time>
      </trkpt>
      <trkpt lat="45.49336" lon="6.30643">
        <ele>348.6</ele>
        <time>2022-07-17T04:52:40Z</time>
      </trkpt>
      <trkpt lat="45.4933" lon="6.30644">
        <ele>348.6</ele>
        <time>2022-07-17T04:52:41Z</time>
      </trkpt>
      <trkpt lat="45.49324" lon="6.30644">
        <ele>348.6</ele>
        <time>2022-07-17T04:52:42Z</time>
      </trkpt>
      <trkpt lat="45.49319" lon="6.30645">
        <ele>348.8</ele>
        <time>2022-07-17T04:52:43Z</time>
      </trkpt>
      <trkpt lat="45.49313" lon="6.30645">
        <ele>348.8</ele>
        <time>2022-07-17T04:52:44Z</time>
      </trkpt>
      <trkpt lat="45.49307" lon="6.30646">
        <ele>349</ele>
        <time>2022-07-17T04:52:45Z</time>
      </trkpt>
      <trkpt lat="45.49302" lon="6.30646">
        <ele>349</ele>
        <time>2022-07-17T04:52:46Z</time>
      </trkpt>
      <trkpt lat="45.49296" lon="6.30647">
        <ele>349.2</ele>
        <time>2022-07-17T04:52:47Z</time>
      </trkpt>
      <trkpt lat="45.49291" lon="6.30647">
        <ele>349.2</ele>
        <time>2022-07-17T04:52:48Z</time>
      </trkpt>
      <trkpt lat="45.49286" lon="6.30647">
        <ele>349.6</ele>
        <time>2022-07-17T04:52:49Z</time>
      </trkpt>
      <trkpt lat="45.4928" lon="6.30648">
        <ele>349.6</ele>
        <time>2022-07-17T04:52:50Z</time>
      </trkpt>
      <trkpt lat="45.49275" lon="6.30648">
        <ele>350</ele>
        <time>2022-07-17T04:52:51Z</time>
      </trkpt>
      <trkpt lat="45.4927" lon="6.30647">
        <ele>350</ele>
        <time>2022-07-17T04:52:52Z</time>
      </trkpt>
      <trkpt lat="45.49265" lon="6.30647">
        <ele>350.4</ele>
        <time>2022-07-17T04:52:53Z</time>
      </trkpt>
      <trkpt lat="45.4926" lon="6.30647">
        <ele>350.4</ele>
        <time>2022-07-17T04:52:54Z</time>
      </trkpt>
      <trkpt lat="45.49256" lon="6.30646">
        <ele>350.8</ele>
        <time>2022-07-17T04:52:55Z</time>
      </trkpt>
      <trkpt lat="45.49252" lon="6.30646">
        <ele>351</ele>
        <time>2022-07-17T04:52:56Z</time>
      </trkpt>
      <trkpt lat="45.49248" lon="6.30646">
        <ele>351</ele>
        <time>2022-07-17T04:52:57Z</time>
      </trkpt>
      <trkpt lat="45.49245" lon="6.30645">
        <ele>351.2</ele>
        <time>2022-07-17T04:52:58Z</time>
      </trkpt>
      <trkpt lat="45.49242" lon="6.30644">
        <ele>351.2</ele>
        <time>2022-07-17T04:52:59Z</time>
      </trkpt>
      <trkpt lat="45.49238" lon="6.30641">
        <ele>351.2</ele>
        <time>2022-07-17T04:53:00Z</time>
      </trkpt>
      <trkpt lat="45.49234" lon="6.30638">
        <ele>351.2</ele>
        <time>2022-07-17T04:53:01Z</time>
      </trkpt>
      <trkpt lat="45.4923" lon="6.30633">
        <ele>351.2</ele>
        <time>2022-07-17T04:53:02Z</time>
      </trkpt>
      <trkpt lat="45.49225" lon="6.30628">
        <ele>351</ele>
        <time>2022-07-17T04:53:03Z</time>
      </trkpt>
      <trkpt lat="45.49219" lon="6.30623">
        <ele>351</ele>
        <time>2022-07-17T04:53:04Z</time>
      </trkpt>
      <trkpt lat="45.49213" lon="6.30618">
        <ele>350.4</ele>
        <time>2022-07-17T04:53:05Z</time>
      </trkpt>
      <trkpt lat="45.49207" lon="6.30613">
        <ele>350.2</ele>
        <time>2022-07-17T04:53:06Z</time>
      </trkpt>
      <trkpt lat="45.49199" lon="6.30608">
        <ele>350</ele>
        <time>2022-07-17T04:53:07Z</time>
      </trkpt>
      <trkpt lat="45.49192" lon="6.30603">
        <ele>349.6</ele>
        <time>2022-07-17T04:53:08Z</time>
      </trkpt>
      <trkpt lat="45.49185" lon="6.30598">
        <ele>349.4</ele>
        <time>2022-07-17T04:53:09Z</time>
      </trkpt>
      <trkpt lat="45.49177" lon="6.30593">
        <ele>349</ele>
        <time>2022-07-17T04:53:10Z</time>
      </trkpt>
      <trkpt lat="45.49169" lon="6.30587">
        <ele>348.6</ele>
        <time>2022-07-17T04:53:11Z</time>
      </trkpt>
      <trkpt lat="45.49161" lon="6.30582">
        <ele>348.2</ele>
        <time>2022-07-17T04:53:12Z</time>
      </trkpt>
      <trkpt lat="45.49153" lon="6.30576">
        <ele>347.8</ele>
        <time>2022-07-17T04:53:13Z</time>
      </trkpt>
      <trkpt lat="45.49145" lon="6.30571">
        <ele>347.6</ele>
        <time>2022-07-17T04:53:14Z</time>
      </trkpt>
      <trkpt lat="45.49137" lon="6.30566">
        <ele>347.2</ele>
        <time>2022-07-17T04:53:15Z</time>
      </trkpt>
      <trkpt lat="45.4913" lon="6.3056">
        <ele>346.8</ele>
        <time>2022-07-17T04:53:16Z</time>
      </trkpt>
      <trkpt lat="45.49122" lon="6.30556">
        <ele>346.6</ele>
        <time>2022-07-17T04:53:17Z</time>
      </trkpt>
      <trkpt lat="45.49115" lon="6.30551">
        <ele>346.2</ele>
        <time>2022-07-17T04:53:18Z</time>
      </trkpt>
      <trkpt lat="45.49108" lon="6.30546">
        <ele>346</ele>
        <time>2022-07-17T04:53:19Z</time>
      </trkpt>
      <trkpt lat="45.49101" lon="6.30542">
        <ele>346</ele>
        <time>2022-07-17T04:53:20Z</time>
      </trkpt>
      <trkpt lat="45.49094" lon="6.30538">
        <ele>345.6</ele>
        <time>2022-07-17T04:53:21Z</time>
      </trkpt>
      <trkpt lat="45.49087" lon="6.30534">
        <ele>345.6</ele>
        <time>2022-07-17T04:53:22Z</time>
      </trkpt>
      <trkpt lat="45.4908" lon="6.3053">
        <ele>345.2</ele>
        <time>2022-07-17T04:53:23Z</time>
      </trkpt>
      <trkpt lat="45.49073" lon="6.30527">
        <ele>345.2</ele>
        <time>2022-07-17T04:53:24Z</time>
      </trkpt>
      <trkpt lat="45.49066" lon="6.30523">
        <ele>345</ele>
        <time>2022-07-17T04:53:25Z</time>
      </trkpt>
      <trkpt lat="45.49059" lon="6.3052">
        <ele>345</ele>
        <time>2022-07-17T04:53:26Z</time>
      </trkpt>
      <trkpt lat="45.49052" lon="6.30516">
        <ele>344.6</ele>
        <time>2022-07-17T04:53:27Z</time>
      </trkpt>
      <trkpt lat="45.49045" lon="6.30513">
        <ele>344.6</ele>
        <time>2022-07-17T04:53:28Z</time>
      </trkpt>
      <trkpt lat="45.49038" lon="6.30509">
        <ele>344.4</ele>
        <time>2022-07-17T04:53:29Z</time>
      </trkpt>
      <trkpt lat="45.49031" lon="6.30505">
        <ele>344.2</ele>
        <time>2022-07-17T04:53:30Z</time>
      </trkpt>
      <trkpt lat="45.49024" lon="6.305">
        <ele>344</ele>
        <time>2022-07-17T04:53:31Z</time>
      </trkpt>
      <trkpt lat="45.49017" lon="6.30496">
        <ele>344</ele>
        <time>2022-07-17T04:53:32Z</time>
      </trkpt>
      <trkpt lat="45.4901" lon="6.30491">
        <ele>344</ele>
        <time>2022-07-17T04:53:33Z</time>
      </trkpt>
      <trkpt lat="45.49003" lon="6.30486">
        <ele>343.6</ele>
        <time>2022-07-17T04:53:34Z</time>
      </trkpt>
      <trkpt lat="45.48997" lon="6.30481">
        <ele>343.6</ele>
        <time>2022-07-17T04:53:35Z</time>
      </trkpt>
      <trkpt lat="45.4899" lon="6.30477">
        <ele>343.6</ele>
        <time>2022-07-17T04:53:36Z</time>
      </trkpt>
      <trkpt lat="45.48984" lon="6.30472">
        <ele>343.6</ele>
        <time>2022-07-17T04:53:37Z</time>
      </trkpt>
      <trkpt lat="45.48978" lon="6.30467">
        <ele>343.6</ele>
        <time>2022-07-17T04:53:38Z</time>
      </trkpt>
      <trkpt lat="45.48971" lon="6.30462">
        <ele>343.4</ele>
        <time>2022-07-17T04:53:39Z</time>
      </trkpt>
      <trkpt lat="45.48965" lon="6.30456">
        <ele>343.4</ele>
        <time>2022-07-17T04:53:40Z</time>
      </trkpt>
      <trkpt lat="45.4896" lon="6.30451">
        <ele>343.4</ele>
        <time>2022-07-17T04:53:41Z</time>
      </trkpt>
      <trkpt lat="45.48954" lon="6.30445">
        <ele>343.4</ele>
        <time>2022-07-17T04:53:42Z</time>
      </trkpt>
      <trkpt lat="45.48949" lon="6.30438">
        <ele>343.4</ele>
        <time>2022-07-17T04:53:43Z</time>
      </trkpt>
      <trkpt lat="45.48944" lon="6.30431">
        <ele>343</ele>
        <time>2022-07-17T04:53:44Z</time>
      </trkpt>
      <trkpt lat="45.4894" lon="6.30424">
        <ele>343</ele>
        <time>2022-07-17T04:53:45Z</time>
      </trkpt>
      <trkpt lat="45.48935" lon="6.30418">
        <ele>342.8</ele>
        <time>2022-07-17T04:53:46Z</time>
      </trkpt>
      <trkpt lat="45.48932" lon="6.30411">
        <ele>342.8</ele>
        <time>2022-07-17T04:53:47Z</time>
      </trkpt>
      <trkpt lat="45.48928" lon="6.30404">
        <ele>342.8</ele>
        <time>2022-07-17T04:53:48Z</time>
      </trkpt>
      <trkpt lat="45.48924" lon="6.30397">
        <ele>342.8</ele>
        <time>2022-07-17T04:53:49Z</time>
      </trkpt>
      <trkpt lat="45.48921" lon="6.30391">
        <ele>342.8</ele>
        <time>2022-07-17T04:53:50Z</time>
      </trkpt>
      <trkpt lat="45.48917" lon="6.30385">
        <ele>342.8</ele>
        <time>2022-07-17T04:53:51Z</time>
      </trkpt>
      <trkpt lat="45.48913" lon="6.30379">
        <ele>342.8</ele>
        <time>2022-07-17T04:53:52Z</time>
      </trkpt>
      <trkpt lat="45.4891" lon="6.30373">
        <ele>342.8</ele>
        <time>2022-07-17T04:53:53Z</time>
      </trkpt>
      <trkpt lat="45.48905" lon="6.30368">
        <ele>342.8</ele>
        <time>2022-07-17T04:53:54Z</time>
      </trkpt>
      <trkpt lat="45.48901" lon="6.30362">
        <ele>342.8</ele>
        <time>2022-07-17T04:53:55Z</time>
      </trkpt>
      <trkpt lat="45.48896" lon="6.30356">
        <ele>342.8</ele>
        <time>2022-07-17T04:53:56Z</time>
      </trkpt>
      <trkpt lat="45.48891" lon="6.30351">
        <ele>342.8</ele>
        <time>2022-07-17T04:53:57Z</time>
      </trkpt>
      <trkpt lat="45.48886" lon="6.30346">
        <ele>342.8</ele>
        <time>2022-07-17T04:53:58Z</time>
      </trkpt>
      <trkpt lat="45.48881" lon="6.30342">
        <ele>342.8</ele>
        <time>2022-07-17T04:53:59Z</time>
      </trkpt>
      <trkpt lat="45.48876" lon="6.30338">
        <ele>342.8</ele>
        <time>2022-07-17T04:54:00Z</time>
      </trkpt>
      <trkpt lat="45.48871" lon="6.30334">
        <ele>342.8</ele>
        <time>2022-07-17T04:54:01Z</time>
      </trkpt>
      <trkpt lat="45.48866" lon="6.3033">
        <ele>342.8</ele>
        <time>2022-07-17T04:54:02Z</time>
      </trkpt>
      <trkpt lat="45.48861" lon="6.30327">
        <ele>343</ele>
        <time>2022-07-17T04:54:03Z</time>
      </trkpt>
      <trkpt lat="45.48856" lon="6.30323">
        <ele>343</ele>
        <time>2022-07-17T04:54:04Z</time>
      </trkpt>
      <trkpt lat="45.4885" lon="6.30319">
        <ele>343</ele>
        <time>2022-07-17T04:54:05Z</time>
      </trkpt>
      <trkpt lat="45.48845" lon="6.30315">
        <ele>343</ele>
        <time>2022-07-17T04:54:06Z</time>
      </trkpt>
      <trkpt lat="45.48839" lon="6.30311">
        <ele>343</ele>
        <time>2022-07-17T04:54:07Z</time>
      </trkpt>
      <trkpt lat="45.48832" lon="6.30307">
        <ele>343</ele>
        <time>2022-07-17T04:54:08Z</time>
      </trkpt>
      <trkpt lat="45.48826" lon="6.30302">
        <ele>343.2</ele>
        <time>2022-07-17T04:54:09Z</time>
      </trkpt>
      <trkpt lat="45.4882" lon="6.30298">
        <ele>343.2</ele>
        <time>2022-07-17T04:54:10Z</time>
      </trkpt>
      <trkpt lat="45.48814" lon="6.30294">
        <ele>343.2</ele>
        <time>2022-07-17T04:54:11Z</time>
      </trkpt>
      <trkpt lat="45.48808" lon="6.30289">
        <ele>343.2</ele>
        <time>2022-07-17T04:54:12Z</time>
      </trkpt>
      <trkpt lat="45.48802" lon="6.30285">
        <ele>343.2</ele>
        <time>2022-07-17T04:54:13Z</time>
      </trkpt>
      <trkpt lat="45.48796" lon="6.3028">
        <ele>343.2</ele>
        <time>2022-07-17T04:54:14Z</time>
      </trkpt>
      <trkpt lat="45.4879" lon="6.30276">
        <ele>343.2</ele>
        <time>2022-07-17T04:54:15Z</time>
      </trkpt>
      <trkpt lat="45.48783" lon="6.30272">
        <ele>343.2</ele>
        <time>2022-07-17T04:54:16Z</time>
      </trkpt>
      <trkpt lat="45.48777" lon="6.30268">
        <ele>343.2</ele>
        <time>2022-07-17T04:54:17Z</time>
      </trkpt>
      <trkpt lat="45.48771" lon="6.30264">
        <ele>343.2</ele>
        <time>2022-07-17T04:54:18Z</time>
      </trkpt>
      <trkpt lat="45.48765" lon="6.3026">
        <ele>343.2</ele>
        <time>2022-07-17T04:54:19Z</time>
      </trkpt>
      <trkpt lat="45.48759" lon="6.30256">
        <ele>343.2</ele>
        <time>2022-07-17T04:54:20Z</time>
      </trkpt>
      <trkpt lat="45.48753" lon="6.30252">
        <ele>343.2</ele>
        <time>2022-07-17T04:54:21Z</time>
      </trkpt>
      <trkpt lat="45.48747" lon="6.30248">
        <ele>343.2</ele>
        <time>2022-07-17T04:54:22Z</time>
      </trkpt>
      <trkpt lat="45.48741" lon="6.30244">
        <ele>343.6</ele>
        <time>2022-07-17T04:54:23Z</time>
      </trkpt>
      <trkpt lat="45.48735" lon="6.30241">
        <ele>343.6</ele>
        <time>2022-07-17T04:54:24Z</time>
      </trkpt>
      <trkpt lat="45.48729" lon="6.30237">
        <ele>343.8</ele>
        <time>2022-07-17T04:54:26Z</time>
      </trkpt>
      <trkpt lat="45.48723" lon="6.30234">
        <ele>343.8</ele>
        <time>2022-07-17T04:54:27Z</time>
      </trkpt>
      <trkpt lat="45.48717" lon="6.30231">
        <ele>343.8</ele>
        <time>2022-07-17T04:54:28Z</time>
      </trkpt>
      <trkpt lat="45.48711" lon="6.30228">
        <ele>343.8</ele>
        <time>2022-07-17T04:54:29Z</time>
      </trkpt>
      <trkpt lat="45.48705" lon="6.30226">
        <ele>344</ele>
        <time>2022-07-17T04:54:30Z</time>
      </trkpt>
      <trkpt lat="45.48699" lon="6.30224">
        <ele>344</ele>
        <time>2022-07-17T04:54:31Z</time>
      </trkpt>
      <trkpt lat="45.48694" lon="6.30223">
        <ele>344</ele>
        <time>2022-07-17T04:54:32Z</time>
      </trkpt>
      <trkpt lat="45.48688" lon="6.30222">
        <ele>344.2</ele>
        <time>2022-07-17T04:54:33Z</time>
      </trkpt>
      <trkpt lat="45.48682" lon="6.30222">
        <ele>344.2</ele>
        <time>2022-07-17T04:54:34Z</time>
      </trkpt>
      <trkpt lat="45.48677" lon="6.30223">
        <ele>344.4</ele>
        <time>2022-07-17T04:54:35Z</time>
      </trkpt>
      <trkpt lat="45.48671" lon="6.30225">
        <ele>344.4</ele>
        <time>2022-07-17T04:54:36Z</time>
      </trkpt>
      <trkpt lat="45.48665" lon="6.30228">
        <ele>344.6</ele>
        <time>2022-07-17T04:54:37Z</time>
      </trkpt>
      <trkpt lat="45.4866" lon="6.30232">
        <ele>344.6</ele>
        <time>2022-07-17T04:54:38Z</time>
      </trkpt>
      <trkpt lat="45.48655" lon="6.30237">
        <ele>344.6</ele>
        <time>2022-07-17T04:54:39Z</time>
      </trkpt>
      <trkpt lat="45.4865" lon="6.30242">
        <ele>345</ele>
        <time>2022-07-17T04:54:40Z</time>
      </trkpt>
      <trkpt lat="45.48646" lon="6.30248">
        <ele>345</ele>
        <time>2022-07-17T04:54:41Z</time>
      </trkpt>
      <trkpt lat="45.48641" lon="6.30253">
        <ele>345.2</ele>
        <time>2022-07-17T04:54:42Z</time>
      </trkpt>
      <trkpt lat="45.48637" lon="6.30258">
        <ele>345.2</ele>
        <time>2022-07-17T04:54:43Z</time>
      </trkpt>
      <trkpt lat="45.48633" lon="6.30263">
        <ele>345.2</ele>
        <time>2022-07-17T04:54:44Z</time>
      </trkpt>
      <trkpt lat="45.4863" lon="6.30268">
        <ele>345.6</ele>
        <time>2022-07-17T04:54:45Z</time>
      </trkpt>
      <trkpt lat="45.48626" lon="6.30272">
        <ele>345.6</ele>
        <time>2022-07-17T04:54:46Z</time>
      </trkpt>
      <trkpt lat="45.48623" lon="6.30275">
        <ele>345.8</ele>
        <time>2022-07-17T04:54:47Z</time>
      </trkpt>
      <trkpt lat="45.48619" lon="6.30277">
        <ele>345.8</ele>
        <time>2022-07-17T04:54:48Z</time>
      </trkpt>
      <trkpt lat="45.48616" lon="6.30276">
        <ele>346.2</ele>
        <time>2022-07-17T04:54:49Z</time>
      </trkpt>
      <trkpt lat="45.48612" lon="6.30276">
        <ele>346.2</ele>
        <time>2022-07-17T04:54:50Z</time>
      </trkpt>
      <trkpt lat="45.48608" lon="6.30274">
        <ele>346.2</ele>
        <time>2022-07-17T04:54:51Z</time>
      </trkpt>
      <trkpt lat="45.48604" lon="6.30273">
        <ele>346.2</ele>
        <time>2022-07-17T04:54:52Z</time>
      </trkpt>
      <trkpt lat="45.48599" lon="6.30271">
        <ele>346.2</ele>
        <time>2022-07-17T04:54:53Z</time>
      </trkpt>
      <trkpt lat="45.48594" lon="6.30269">
        <ele>346.2</ele>
        <time>2022-07-17T04:54:54Z</time>
      </trkpt>
      <trkpt lat="45.48589" lon="6.30266">
        <ele>346.2</ele>
        <time>2022-07-17T04:54:55Z</time>
      </trkpt>
      <trkpt lat="45.48585" lon="6.30262">
        <ele>346.2</ele>
        <time>2022-07-17T04:54:56Z</time>
      </trkpt>
      <trkpt lat="45.4858" lon="6.30259">
        <ele>346.4</ele>
        <time>2022-07-17T04:54:57Z</time>
      </trkpt>
      <trkpt lat="45.48575" lon="6.30255">
        <ele>346.4</ele>
        <time>2022-07-17T04:54:58Z</time>
      </trkpt>
      <trkpt lat="45.4857" lon="6.30251">
        <ele>346.4</ele>
        <time>2022-07-17T04:54:59Z</time>
      </trkpt>
      <trkpt lat="45.48565" lon="6.30247">
        <ele>346.4</ele>
        <time>2022-07-17T04:55:00Z</time>
      </trkpt>
      <trkpt lat="45.4856" lon="6.30242">
        <ele>346.4</ele>
        <time>2022-07-17T04:55:01Z</time>
      </trkpt>
      <trkpt lat="45.48556" lon="6.30238">
        <ele>346.4</ele>
        <time>2022-07-17T04:55:02Z</time>
      </trkpt>
      <trkpt lat="45.48551" lon="6.30233">
        <ele>346.4</ele>
        <time>2022-07-17T04:55:03Z</time>
      </trkpt>
      <trkpt lat="45.48546" lon="6.30229">
        <ele>346.4</ele>
        <time>2022-07-17T04:55:04Z</time>
      </trkpt>
      <trkpt lat="45.48541" lon="6.30224">
        <ele>346.4</ele>
        <time>2022-07-17T04:55:05Z</time>
      </trkpt>
      <trkpt lat="45.48537" lon="6.3022">
        <ele>346.4</ele>
        <time>2022-07-17T04:55:06Z</time>
      </trkpt>
      <trkpt lat="45.48532" lon="6.30216">
        <ele>346.6</ele>
        <time>2022-07-17T04:55:07Z</time>
      </trkpt>
      <trkpt lat="45.48527" lon="6.30212">
        <ele>346.6</ele>
        <time>2022-07-17T04:55:08Z</time>
      </trkpt>
      <trkpt lat="45.48523" lon="6.30208">
        <ele>347</ele>
        <time>2022-07-17T04:55:09Z</time>
      </trkpt>
      <trkpt lat="45.48518" lon="6.30205">
        <ele>347</ele>
        <time>2022-07-17T04:55:10Z</time>
      </trkpt>
      <trkpt lat="45.48514" lon="6.30201">
        <ele>347.2</ele>
        <time>2022-07-17T04:55:11Z</time>
      </trkpt>
      <trkpt lat="45.4851" lon="6.30198">
        <ele>347.2</ele>
        <time>2022-07-17T04:55:12Z</time>
      </trkpt>
      <trkpt lat="45.48505" lon="6.30194">
        <ele>347.6</ele>
        <time>2022-07-17T04:55:13Z</time>
      </trkpt>
      <trkpt lat="45.48502" lon="6.30191">
        <ele>347.6</ele>
        <time>2022-07-17T04:55:14Z</time>
      </trkpt>
      <trkpt lat="45.48498" lon="6.30188">
        <ele>347.8</ele>
        <time>2022-07-17T04:55:15Z</time>
      </trkpt>
      <trkpt lat="45.48493" lon="6.30184">
        <ele>347.8</ele>
        <time>2022-07-17T04:55:16Z</time>
      </trkpt>
      <trkpt lat="45.48489" lon="6.30181">
        <ele>348.2</ele>
        <time>2022-07-17T04:55:17Z</time>
      </trkpt>
      <trkpt lat="45.48486" lon="6.30178">
        <ele>348.2</ele>
        <time>2022-07-17T04:55:18Z</time>
      </trkpt>
      <trkpt lat="45.48482" lon="6.30174">
        <ele>348.4</ele>
        <time>2022-07-17T04:55:19Z</time>
      </trkpt>
      <trkpt lat="45.48478" lon="6.30171">
        <ele>348.4</ele>
        <time>2022-07-17T04:55:20Z</time>
      </trkpt>
      <trkpt lat="45.48474" lon="6.30168">
        <ele>348.6</ele>
        <time>2022-07-17T04:55:21Z</time>
      </trkpt>
      <trkpt lat="45.4847" lon="6.30165">
        <ele>348.6</ele>
        <time>2022-07-17T04:55:22Z</time>
      </trkpt>
      <trkpt lat="45.48466" lon="6.30162">
        <ele>349</ele>
        <time>2022-07-17T04:55:23Z</time>
      </trkpt>
      <trkpt lat="45.48459" lon="6.30156">
        <ele>349</ele>
        <time>2022-07-17T04:55:24Z</time>
      </trkpt>
      <trkpt lat="45.48456" lon="6.30154">
        <ele>349.2</ele>
        <time>2022-07-17T04:55:25Z</time>
      </trkpt>
      <trkpt lat="45.48453" lon="6.30151">
        <ele>349.4</ele>
        <time>2022-07-17T04:55:26Z</time>
      </trkpt>
      <trkpt lat="45.4845" lon="6.30149">
        <ele>349.8</ele>
        <time>2022-07-17T04:55:27Z</time>
      </trkpt>
      <trkpt lat="45.48446" lon="6.30147">
        <ele>349.8</ele>
        <time>2022-07-17T04:55:28Z</time>
      </trkpt>
      <trkpt lat="45.48442" lon="6.30145">
        <ele>350.2</ele>
        <time>2022-07-17T04:55:29Z</time>
      </trkpt>
      <trkpt lat="45.48439" lon="6.30144">
        <ele>350.6</ele>
        <time>2022-07-17T04:55:30Z</time>
      </trkpt>
      <trkpt lat="45.48435" lon="6.30141">
        <ele>351</ele>
        <time>2022-07-17T04:55:31Z</time>
      </trkpt>
      <trkpt lat="45.48431" lon="6.3014">
        <ele>351.2</ele>
        <time>2022-07-17T04:55:32Z</time>
      </trkpt>
      <trkpt lat="45.48427" lon="6.30138">
        <ele>351.4</ele>
        <time>2022-07-17T04:55:33Z</time>
      </trkpt>
      <trkpt lat="45.48424" lon="6.30135">
        <ele>351.8</ele>
        <time>2022-07-17T04:55:34Z</time>
      </trkpt>
      <trkpt lat="45.4842" lon="6.30133">
        <ele>352</ele>
        <time>2022-07-17T04:55:35Z</time>
      </trkpt>
      <trkpt lat="45.48416" lon="6.30131">
        <ele>352.4</ele>
        <time>2022-07-17T04:55:36Z</time>
      </trkpt>
      <trkpt lat="45.48413" lon="6.30128">
        <ele>352.6</ele>
        <time>2022-07-17T04:55:37Z</time>
      </trkpt>
      <trkpt lat="45.48409" lon="6.30126">
        <ele>353</ele>
        <time>2022-07-17T04:55:38Z</time>
      </trkpt>
      <trkpt lat="45.48405" lon="6.30125">
        <ele>353.2</ele>
        <time>2022-07-17T04:55:39Z</time>
      </trkpt>
      <trkpt lat="45.48401" lon="6.30123">
        <ele>353.4</ele>
        <time>2022-07-17T04:55:40Z</time>
      </trkpt>
      <trkpt lat="45.48397" lon="6.30121">
        <ele>353.4</ele>
        <time>2022-07-17T04:55:41Z</time>
      </trkpt>
      <trkpt lat="45.48392" lon="6.30118">
        <ele>353.6</ele>
        <time>2022-07-17T04:55:42Z</time>
      </trkpt>
      <trkpt lat="45.48388" lon="6.30116">
        <ele>353.6</ele>
        <time>2022-07-17T04:55:43Z</time>
      </trkpt>
      <trkpt lat="45.48384" lon="6.30114">
        <ele>353.6</ele>
        <time>2022-07-17T04:55:44Z</time>
      </trkpt>
      <trkpt lat="45.48379" lon="6.30111">
        <ele>353.8</ele>
        <time>2022-07-17T04:55:45Z</time>
      </trkpt>
      <trkpt lat="45.48375" lon="6.30108">
        <ele>353.8</ele>
        <time>2022-07-17T04:55:46Z</time>
      </trkpt>
      <trkpt lat="45.4837" lon="6.30106">
        <ele>354.2</ele>
        <time>2022-07-17T04:55:47Z</time>
      </trkpt>
      <trkpt lat="45.48364" lon="6.30103">
        <ele>354.2</ele>
        <time>2022-07-17T04:55:48Z</time>
      </trkpt>
      <trkpt lat="45.48359" lon="6.30101">
        <ele>354.2</ele>
        <time>2022-07-17T04:55:49Z</time>
      </trkpt>
      <trkpt lat="45.48353" lon="6.30098">
        <ele>354.2</ele>
        <time>2022-07-17T04:55:50Z</time>
      </trkpt>
      <trkpt lat="45.48348" lon="6.30096">
        <ele>354.2</ele>
        <time>2022-07-17T04:55:51Z</time>
      </trkpt>
      <trkpt lat="45.48342" lon="6.30094">
        <ele>354.2</ele>
        <time>2022-07-17T04:55:52Z</time>
      </trkpt>
      <trkpt lat="45.48336" lon="6.30091">
        <ele>354.2</ele>
        <time>2022-07-17T04:55:53Z</time>
      </trkpt>
      <trkpt lat="45.48331" lon="6.30088">
        <ele>354.2</ele>
        <time>2022-07-17T04:55:54Z</time>
      </trkpt>
      <trkpt lat="45.48325" lon="6.30086">
        <ele>354.2</ele>
        <time>2022-07-17T04:55:55Z</time>
      </trkpt>
      <trkpt lat="45.48319" lon="6.30083">
        <ele>354.2</ele>
        <time>2022-07-17T04:55:56Z</time>
      </trkpt>
      <trkpt lat="45.48314" lon="6.30081">
        <ele>354.2</ele>
        <time>2022-07-17T04:55:57Z</time>
      </trkpt>
      <trkpt lat="45.48308" lon="6.30079">
        <ele>354.2</ele>
        <time>2022-07-17T04:55:58Z</time>
      </trkpt>
      <trkpt lat="45.48302" lon="6.30076">
        <ele>354.2</ele>
        <time>2022-07-17T04:56:00Z</time>
      </trkpt>
      <trkpt lat="45.48297" lon="6.30073">
        <ele>354.2</ele>
        <time>2022-07-17T04:56:01Z</time>
      </trkpt>
      <trkpt lat="45.48291" lon="6.30071">
        <ele>354.2</ele>
        <time>2022-07-17T04:56:02Z</time>
      </trkpt>
      <trkpt lat="45.48286" lon="6.30068">
        <ele>354.2</ele>
        <time>2022-07-17T04:56:03Z</time>
      </trkpt>
      <trkpt lat="45.4828" lon="6.30065">
        <ele>354.2</ele>
        <time>2022-07-17T04:56:04Z</time>
      </trkpt>
      <trkpt lat="45.48274" lon="6.30062">
        <ele>354.2</ele>
        <time>2022-07-17T04:56:05Z</time>
      </trkpt>
      <trkpt lat="45.48268" lon="6.30059">
        <ele>354</ele>
        <time>2022-07-17T04:56:06Z</time>
      </trkpt>
      <trkpt lat="45.48262" lon="6.30057">
        <ele>354</ele>
        <time>2022-07-17T04:56:07Z</time>
      </trkpt>
      <trkpt lat="45.48256" lon="6.30054">
        <ele>354</ele>
        <time>2022-07-17T04:56:08Z</time>
      </trkpt>
      <trkpt lat="45.4825" lon="6.30051">
        <ele>353.8</ele>
        <time>2022-07-17T04:56:09Z</time>
      </trkpt>
      <trkpt lat="45.48243" lon="6.30048">
        <ele>353.8</ele>
        <time>2022-07-17T04:56:10Z</time>
      </trkpt>
      <trkpt lat="45.48236" lon="6.30046">
        <ele>353.2</ele>
        <time>2022-07-17T04:56:11Z</time>
      </trkpt>
      <trkpt lat="45.48229" lon="6.30045">
        <ele>353</ele>
        <time>2022-07-17T04:56:12Z</time>
      </trkpt>
      <trkpt lat="45.48222" lon="6.30044">
        <ele>352.6</ele>
        <time>2022-07-17T04:56:13Z</time>
      </trkpt>
      <trkpt lat="45.48214" lon="6.30043">
        <ele>352.4</ele>
        <time>2022-07-17T04:56:14Z</time>
      </trkpt>
      <trkpt lat="45.48207" lon="6.30042">
        <ele>352.2</ele>
        <time>2022-07-17T04:56:15Z</time>
      </trkpt>
      <trkpt lat="45.48199" lon="6.30042">
        <ele>352.2</ele>
        <time>2022-07-17T04:56:16Z</time>
      </trkpt>
      <trkpt lat="45.48192" lon="6.3004">
        <ele>352.2</ele>
        <time>2022-07-17T04:56:17Z</time>
      </trkpt>
      <trkpt lat="45.48185" lon="6.30038">
        <ele>351.8</ele>
        <time>2022-07-17T04:56:18Z</time>
      </trkpt>
      <trkpt lat="45.48177" lon="6.30037">
        <ele>351.8</ele>
        <time>2022-07-17T04:56:19Z</time>
      </trkpt>
      <trkpt lat="45.4817" lon="6.30035">
        <ele>351.4</ele>
        <time>2022-07-17T04:56:20Z</time>
      </trkpt>
      <trkpt lat="45.48163" lon="6.30033">
        <ele>351.4</ele>
        <time>2022-07-17T04:56:21Z</time>
      </trkpt>
      <trkpt lat="45.48156" lon="6.3003">
        <ele>351.2</ele>
        <time>2022-07-17T04:56:22Z</time>
      </trkpt>
      <trkpt lat="45.48149" lon="6.30028">
        <ele>351.2</ele>
        <time>2022-07-17T04:56:23Z</time>
      </trkpt>
      <trkpt lat="45.48142" lon="6.30026">
        <ele>351.2</ele>
        <time>2022-07-17T04:56:24Z</time>
      </trkpt>
      <trkpt lat="45.48135" lon="6.30023">
        <ele>351.2</ele>
        <time>2022-07-17T04:56:25Z</time>
      </trkpt>
      <trkpt lat="45.48128" lon="6.3002">
        <ele>351.2</ele>
        <time>2022-07-17T04:56:26Z</time>
      </trkpt>
      <trkpt lat="45.48122" lon="6.30017">
        <ele>351.2</ele>
        <time>2022-07-17T04:56:27Z</time>
      </trkpt>
      <trkpt lat="45.48115" lon="6.30014">
        <ele>351.2</ele>
        <time>2022-07-17T04:56:28Z</time>
      </trkpt>
      <trkpt lat="45.48109" lon="6.30012">
        <ele>351</ele>
        <time>2022-07-17T04:56:29Z</time>
      </trkpt>
      <trkpt lat="45.48102" lon="6.30009">
        <ele>351</ele>
        <time>2022-07-17T04:56:30Z</time>
      </trkpt>
      <trkpt lat="45.48096" lon="6.30005">
        <ele>350.6</ele>
        <time>2022-07-17T04:56:31Z</time>
      </trkpt>
      <trkpt lat="45.48089" lon="6.3">
        <ele>350.4</ele>
        <time>2022-07-17T04:56:32Z</time>
      </trkpt>
      <trkpt lat="45.48082" lon="6.29996">
        <ele>350</ele>
        <time>2022-07-17T04:56:33Z</time>
      </trkpt>
      <trkpt lat="45.48075" lon="6.29991">
        <ele>349.6</ele>
        <time>2022-07-17T04:56:34Z</time>
      </trkpt>
      <trkpt lat="45.48067" lon="6.29987">
        <ele>349.4</ele>
        <time>2022-07-17T04:56:35Z</time>
      </trkpt>
      <trkpt lat="45.4806" lon="6.29982">
        <ele>349</ele>
        <time>2022-07-17T04:56:36Z</time>
      </trkpt>
      <trkpt lat="45.48053" lon="6.29977">
        <ele>348.6</ele>
        <time>2022-07-17T04:56:37Z</time>
      </trkpt>
      <trkpt lat="45.48045" lon="6.29973">
        <ele>348.4</ele>
        <time>2022-07-17T04:56:38Z</time>
      </trkpt>
      <trkpt lat="45.48038" lon="6.29969">
        <ele>348.2</ele>
        <time>2022-07-17T04:56:39Z</time>
      </trkpt>
      <trkpt lat="45.4803" lon="6.29966">
        <ele>347.8</ele>
        <time>2022-07-17T04:56:40Z</time>
      </trkpt>
      <trkpt lat="45.48022" lon="6.29964">
        <ele>347.6</ele>
        <time>2022-07-17T04:56:41Z</time>
      </trkpt>
      <trkpt lat="45.48014" lon="6.29963">
        <ele>347.4</ele>
        <time>2022-07-17T04:56:42Z</time>
      </trkpt>
      <trkpt lat="45.48006" lon="6.29962">
        <ele>347.4</ele>
        <time>2022-07-17T04:56:43Z</time>
      </trkpt>
      <trkpt lat="45.47999" lon="6.29961">
        <ele>347.4</ele>
        <time>2022-07-17T04:56:44Z</time>
      </trkpt>
      <trkpt lat="45.47992" lon="6.29961">
        <ele>347.4</ele>
        <time>2022-07-17T04:56:45Z</time>
      </trkpt>
      <trkpt lat="45.47984" lon="6.2996">
        <ele>347.4</ele>
        <time>2022-07-17T04:56:46Z</time>
      </trkpt>
      <trkpt lat="45.47976" lon="6.2996">
        <ele>347.4</ele>
        <time>2022-07-17T04:56:47Z</time>
      </trkpt>
      <trkpt lat="45.47969" lon="6.2996">
        <ele>347.4</ele>
        <time>2022-07-17T04:56:48Z</time>
      </trkpt>
      <trkpt lat="45.47961" lon="6.2996">
        <ele>347.4</ele>
        <time>2022-07-17T04:56:49Z</time>
      </trkpt>
      <trkpt lat="45.47954" lon="6.2996">
        <ele>347.4</ele>
        <time>2022-07-17T04:56:50Z</time>
      </trkpt>
      <trkpt lat="45.47946" lon="6.2996">
        <ele>347.2</ele>
        <time>2022-07-17T04:56:51Z</time>
      </trkpt>
      <trkpt lat="45.47939" lon="6.29959">
        <ele>347.2</ele>
        <time>2022-07-17T04:56:52Z</time>
      </trkpt>
      <trkpt lat="45.47932" lon="6.29959">
        <ele>347.2</ele>
        <time>2022-07-17T04:56:53Z</time>
      </trkpt>
      <trkpt lat="45.47925" lon="6.29959">
        <ele>347.2</ele>
        <time>2022-07-17T04:56:54Z</time>
      </trkpt>
      <trkpt lat="45.47918" lon="6.29958">
        <ele>347.2</ele>
        <time>2022-07-17T04:56:55Z</time>
      </trkpt>
      <trkpt lat="45.47911" lon="6.29957">
        <ele>347.2</ele>
        <time>2022-07-17T04:56:56Z</time>
      </trkpt>
      <trkpt lat="45.47904" lon="6.29957">
        <ele>347.2</ele>
        <time>2022-07-17T04:56:57Z</time>
      </trkpt>
      <trkpt lat="45.47897" lon="6.29956">
        <ele>347.2</ele>
        <time>2022-07-17T04:56:58Z</time>
      </trkpt>
      <trkpt lat="45.4789" lon="6.29955">
        <ele>347.2</ele>
        <time>2022-07-17T04:56:59Z</time>
      </trkpt>
      <trkpt lat="45.47884" lon="6.29953">
        <ele>347.2</ele>
        <time>2022-07-17T04:57:00Z</time>
      </trkpt>
      <trkpt lat="45.47877" lon="6.29951">
        <ele>347.2</ele>
        <time>2022-07-17T04:57:01Z</time>
      </trkpt>
      <trkpt lat="45.47871" lon="6.29948">
        <ele>347.2</ele>
        <time>2022-07-17T04:57:02Z</time>
      </trkpt>
      <trkpt lat="45.47865" lon="6.29944">
        <ele>347.2</ele>
        <time>2022-07-17T04:57:03Z</time>
      </trkpt>
      <trkpt lat="45.47859" lon="6.2994">
        <ele>347.2</ele>
        <time>2022-07-17T04:57:04Z</time>
      </trkpt>
      <trkpt lat="45.47853" lon="6.29936">
        <ele>347.2</ele>
        <time>2022-07-17T04:57:05Z</time>
      </trkpt>
      <trkpt lat="45.47847" lon="6.29932">
        <ele>347.2</ele>
        <time>2022-07-17T04:57:06Z</time>
      </trkpt>
      <trkpt lat="45.47841" lon="6.29927">
        <ele>347.2</ele>
        <time>2022-07-17T04:57:07Z</time>
      </trkpt>
      <trkpt lat="45.47835" lon="6.29922">
        <ele>347.2</ele>
        <time>2022-07-17T04:57:08Z</time>
      </trkpt>
      <trkpt lat="45.47829" lon="6.29917">
        <ele>347.2</ele>
        <time>2022-07-17T04:57:09Z</time>
      </trkpt>
      <trkpt lat="45.47824" lon="6.29913">
        <ele>347.2</ele>
        <time>2022-07-17T04:57:10Z</time>
      </trkpt>
      <trkpt lat="45.47818" lon="6.29908">
        <ele>347.4</ele>
        <time>2022-07-17T04:57:11Z</time>
      </trkpt>
      <trkpt lat="45.47812" lon="6.29903">
        <ele>347.4</ele>
        <time>2022-07-17T04:57:12Z</time>
      </trkpt>
      <trkpt lat="45.47806" lon="6.29899">
        <ele>347.4</ele>
        <time>2022-07-17T04:57:13Z</time>
      </trkpt>
      <trkpt lat="45.47801" lon="6.29894">
        <ele>347.4</ele>
        <time>2022-07-17T04:57:14Z</time>
      </trkpt>
      <trkpt lat="45.47796" lon="6.2989">
        <ele>347.4</ele>
        <time>2022-07-17T04:57:15Z</time>
      </trkpt>
      <trkpt lat="45.47791" lon="6.29885">
        <ele>347.4</ele>
        <time>2022-07-17T04:57:16Z</time>
      </trkpt>
      <trkpt lat="45.47786" lon="6.29881">
        <ele>347.4</ele>
        <time>2022-07-17T04:57:17Z</time>
      </trkpt>
      <trkpt lat="45.4778" lon="6.29877">
        <ele>347.4</ele>
        <time>2022-07-17T04:57:18Z</time>
      </trkpt>
      <trkpt lat="45.47775" lon="6.29872">
        <ele>347.4</ele>
        <time>2022-07-17T04:57:19Z</time>
      </trkpt>
      <trkpt lat="45.4777" lon="6.29868">
        <ele>347.4</ele>
        <time>2022-07-17T04:57:20Z</time>
      </trkpt>
      <trkpt lat="45.47765" lon="6.29863">
        <ele>347.4</ele>
        <time>2022-07-17T04:57:21Z</time>
      </trkpt>
      <trkpt lat="45.47759" lon="6.29859">
        <ele>347.8</ele>
        <time>2022-07-17T04:57:22Z</time>
      </trkpt>
      <trkpt lat="45.47754" lon="6.29854">
        <ele>347.8</ele>
        <time>2022-07-17T04:57:23Z</time>
      </trkpt>
      <trkpt lat="45.47749" lon="6.2985">
        <ele>347.8</ele>
        <time>2022-07-17T04:57:24Z</time>
      </trkpt>
      <trkpt lat="45.47744" lon="6.29846">
        <ele>347.8</ele>
        <time>2022-07-17T04:57:25Z</time>
      </trkpt>
      <trkpt lat="45.47738" lon="6.29841">
        <ele>347.8</ele>
        <time>2022-07-17T04:57:26Z</time>
      </trkpt>
      <trkpt lat="45.47733" lon="6.29837">
        <ele>347.8</ele>
        <time>2022-07-17T04:57:27Z</time>
      </trkpt>
      <trkpt lat="45.47728" lon="6.29832">
        <ele>347.8</ele>
        <time>2022-07-17T04:57:28Z</time>
      </trkpt>
      <trkpt lat="45.47723" lon="6.29828">
        <ele>348</ele>
        <time>2022-07-17T04:57:29Z</time>
      </trkpt>
      <trkpt lat="45.47718" lon="6.29824">
        <ele>348</ele>
        <time>2022-07-17T04:57:30Z</time>
      </trkpt>
      <trkpt lat="45.47713" lon="6.29819">
        <ele>348</ele>
        <time>2022-07-17T04:57:31Z</time>
      </trkpt>
      <trkpt lat="45.47708" lon="6.29814">
        <ele>348</ele>
        <time>2022-07-17T04:57:32Z</time>
      </trkpt>
      <trkpt lat="45.47703" lon="6.2981">
        <ele>348</ele>
        <time>2022-07-17T04:57:33Z</time>
      </trkpt>
      <trkpt lat="45.47698" lon="6.29805">
        <ele>348</ele>
        <time>2022-07-17T04:57:34Z</time>
      </trkpt>
      <trkpt lat="45.47692" lon="6.29801">
        <ele>348.2</ele>
        <time>2022-07-17T04:57:35Z</time>
      </trkpt>
      <trkpt lat="45.47687" lon="6.29796">
        <ele>348.2</ele>
        <time>2022-07-17T04:57:36Z</time>
      </trkpt>
      <trkpt lat="45.47682" lon="6.29791">
        <ele>348.2</ele>
        <time>2022-07-17T04:57:37Z</time>
      </trkpt>
      <trkpt lat="45.47676" lon="6.29787">
        <ele>348.2</ele>
        <time>2022-07-17T04:57:38Z</time>
      </trkpt>
      <trkpt lat="45.47671" lon="6.29782">
        <ele>348.2</ele>
        <time>2022-07-17T04:57:39Z</time>
      </trkpt>
      <trkpt lat="45.47666" lon="6.29777">
        <ele>348.2</ele>
        <time>2022-07-17T04:57:40Z</time>
      </trkpt>
      <trkpt lat="45.4766" lon="6.29773">
        <ele>348.6</ele>
        <time>2022-07-17T04:57:41Z</time>
      </trkpt>
      <trkpt lat="45.47655" lon="6.29768">
        <ele>348.6</ele>
        <time>2022-07-17T04:57:42Z</time>
      </trkpt>
      <trkpt lat="45.4765" lon="6.29764">
        <ele>348.6</ele>
        <time>2022-07-17T04:57:43Z</time>
      </trkpt>
      <trkpt lat="45.47645" lon="6.29759">
        <ele>348.6</ele>
        <time>2022-07-17T04:57:44Z</time>
      </trkpt>
      <trkpt lat="45.47639" lon="6.29755">
        <ele>348.8</ele>
        <time>2022-07-17T04:57:45Z</time>
      </trkpt>
      <trkpt lat="45.47634" lon="6.2975">
        <ele>348.8</ele>
        <time>2022-07-17T04:57:46Z</time>
      </trkpt>
      <trkpt lat="45.47629" lon="6.29745">
        <ele>348.8</ele>
        <time>2022-07-17T04:57:47Z</time>
      </trkpt>
      <trkpt lat="45.47623" lon="6.29741">
        <ele>348.8</ele>
        <time>2022-07-17T04:57:48Z</time>
      </trkpt>
      <trkpt lat="45.47618" lon="6.29736">
        <ele>348.8</ele>
        <time>2022-07-17T04:57:49Z</time>
      </trkpt>
      <trkpt lat="45.47612" lon="6.29732">
        <ele>348.8</ele>
        <time>2022-07-17T04:57:50Z</time>
      </trkpt>
      <trkpt lat="45.47607" lon="6.29727">
        <ele>348.8</ele>
        <time>2022-07-17T04:57:51Z</time>
      </trkpt>
      <trkpt lat="45.47602" lon="6.29723">
        <ele>348.8</ele>
        <time>2022-07-17T04:57:52Z</time>
      </trkpt>
      <trkpt lat="45.47596" lon="6.29718">
        <ele>348.8</ele>
        <time>2022-07-17T04:57:53Z</time>
      </trkpt>
      <trkpt lat="45.47591" lon="6.29714">
        <ele>348.8</ele>
        <time>2022-07-17T04:57:54Z</time>
      </trkpt>
      <trkpt lat="45.47586" lon="6.29709">
        <ele>348.8</ele>
        <time>2022-07-17T04:57:55Z</time>
      </trkpt>
      <trkpt lat="45.4758" lon="6.29705">
        <ele>348.8</ele>
        <time>2022-07-17T04:57:56Z</time>
      </trkpt>
      <trkpt lat="45.47575" lon="6.297">
        <ele>348.8</ele>
        <time>2022-07-17T04:57:57Z</time>
      </trkpt>
      <trkpt lat="45.4757" lon="6.29696">
        <ele>348.8</ele>
        <time>2022-07-17T04:57:58Z</time>
      </trkpt>
      <trkpt lat="45.47565" lon="6.29691">
        <ele>348.8</ele>
        <time>2022-07-17T04:57:59Z</time>
      </trkpt>
      <trkpt lat="45.47559" lon="6.29686">
        <ele>348.8</ele>
        <time>2022-07-17T04:58:00Z</time>
      </trkpt>
      <trkpt lat="45.47554" lon="6.29682">
        <ele>348.8</ele>
        <time>2022-07-17T04:58:01Z</time>
      </trkpt>
      <trkpt lat="45.47549" lon="6.29677">
        <ele>348.8</ele>
        <time>2022-07-17T04:58:02Z</time>
      </trkpt>
      <trkpt lat="45.47544" lon="6.29672">
        <ele>348.8</ele>
        <time>2022-07-17T04:58:03Z</time>
      </trkpt>
      <trkpt lat="45.47538" lon="6.29668">
        <ele>348.8</ele>
        <time>2022-07-17T04:58:04Z</time>
      </trkpt>
      <trkpt lat="45.47532" lon="6.29663">
        <ele>348.8</ele>
        <time>2022-07-17T04:58:05Z</time>
      </trkpt>
      <trkpt lat="45.47527" lon="6.29658">
        <ele>348.8</ele>
        <time>2022-07-17T04:58:06Z</time>
      </trkpt>
      <trkpt lat="45.47522" lon="6.29654">
        <ele>348.8</ele>
        <time>2022-07-17T04:58:07Z</time>
      </trkpt>
      <trkpt lat="45.47516" lon="6.29649">
        <ele>348.8</ele>
        <time>2022-07-17T04:58:08Z</time>
      </trkpt>
      <trkpt lat="45.47511" lon="6.29644">
        <ele>348.8</ele>
        <time>2022-07-17T04:58:09Z</time>
      </trkpt>
      <trkpt lat="45.47505" lon="6.29639">
        <ele>348.8</ele>
        <time>2022-07-17T04:58:10Z</time>
      </trkpt>
      <trkpt lat="45.475" lon="6.29635">
        <ele>348.8</ele>
        <time>2022-07-17T04:58:11Z</time>
      </trkpt>
      <trkpt lat="45.47494" lon="6.2963">
        <ele>348.8</ele>
        <time>2022-07-17T04:58:12Z</time>
      </trkpt>
      <trkpt lat="45.47489" lon="6.29624">
        <ele>348.8</ele>
        <time>2022-07-17T04:58:13Z</time>
      </trkpt>
      <trkpt lat="45.47484" lon="6.29619">
        <ele>348.8</ele>
        <time>2022-07-17T04:58:14Z</time>
      </trkpt>
      <trkpt lat="45.47479" lon="6.29614">
        <ele>348.8</ele>
        <time>2022-07-17T04:58:15Z</time>
      </trkpt>
      <trkpt lat="45.47474" lon="6.29608">
        <ele>348.8</ele>
        <time>2022-07-17T04:58:16Z</time>
      </trkpt>
      <trkpt lat="45.47469" lon="6.29603">
        <ele>349</ele>
        <time>2022-07-17T04:58:17Z</time>
      </trkpt>
      <trkpt lat="45.47464" lon="6.29597">
        <ele>349</ele>
        <time>2022-07-17T04:58:18Z</time>
      </trkpt>
      <trkpt lat="45.47459" lon="6.29592">
        <ele>349</ele>
        <time>2022-07-17T04:58:19Z</time>
      </trkpt>
      <trkpt lat="45.47454" lon="6.29586">
        <ele>349</ele>
        <time>2022-07-17T04:58:20Z</time>
      </trkpt>
      <trkpt lat="45.4745" lon="6.2958">
        <ele>349</ele>
        <time>2022-07-17T04:58:21Z</time>
      </trkpt>
      <trkpt lat="45.47445" lon="6.29574">
        <ele>349</ele>
        <time>2022-07-17T04:58:22Z</time>
      </trkpt>
      <trkpt lat="45.4744" lon="6.29568">
        <ele>349.2</ele>
        <time>2022-07-17T04:58:23Z</time>
      </trkpt>
      <trkpt lat="45.47436" lon="6.29561">
        <ele>349.2</ele>
        <time>2022-07-17T04:58:24Z</time>
      </trkpt>
      <trkpt lat="45.47431" lon="6.29555">
        <ele>349.2</ele>
        <time>2022-07-17T04:58:25Z</time>
      </trkpt>
      <trkpt lat="45.47427" lon="6.29548">
        <ele>349.2</ele>
        <time>2022-07-17T04:58:26Z</time>
      </trkpt>
      <trkpt lat="45.47423" lon="6.29541">
        <ele>349.2</ele>
        <time>2022-07-17T04:58:27Z</time>
      </trkpt>
      <trkpt lat="45.47419" lon="6.29534">
        <ele>349.2</ele>
        <time>2022-07-17T04:58:28Z</time>
      </trkpt>
      <trkpt lat="45.47416" lon="6.29527">
        <ele>349.2</ele>
        <time>2022-07-17T04:58:29Z</time>
      </trkpt>
      <trkpt lat="45.47413" lon="6.29519">
        <ele>349.4</ele>
        <time>2022-07-17T04:58:30Z</time>
      </trkpt>
      <trkpt lat="45.4741" lon="6.29511">
        <ele>349.4</ele>
        <time>2022-07-17T04:58:31Z</time>
      </trkpt>
      <trkpt lat="45.47407" lon="6.29503">
        <ele>349.8</ele>
        <time>2022-07-17T04:58:32Z</time>
      </trkpt>
      <trkpt lat="45.47404" lon="6.29495">
        <ele>349.8</ele>
        <time>2022-07-17T04:58:33Z</time>
      </trkpt>
      <trkpt lat="45.47402" lon="6.29487">
        <ele>349.8</ele>
        <time>2022-07-17T04:58:34Z</time>
      </trkpt>
      <trkpt lat="45.47399" lon="6.29479">
        <ele>349.8</ele>
        <time>2022-07-17T04:58:35Z</time>
      </trkpt>
      <trkpt lat="45.47396" lon="6.29471">
        <ele>349.8</ele>
        <time>2022-07-17T04:58:36Z</time>
      </trkpt>
      <trkpt lat="45.47394" lon="6.29463">
        <ele>350</ele>
        <time>2022-07-17T04:58:37Z</time>
      </trkpt>
      <trkpt lat="45.47391" lon="6.29455">
        <ele>350</ele>
        <time>2022-07-17T04:58:38Z</time>
      </trkpt>
      <trkpt lat="45.47389" lon="6.29447">
        <ele>350.2</ele>
        <time>2022-07-17T04:58:39Z</time>
      </trkpt>
      <trkpt lat="45.47386" lon="6.29439">
        <ele>350.2</ele>
        <time>2022-07-17T04:58:40Z</time>
      </trkpt>
      <trkpt lat="45.47384" lon="6.29431">
        <ele>350.2</ele>
        <time>2022-07-17T04:58:41Z</time>
      </trkpt>
      <trkpt lat="45.47381" lon="6.29422">
        <ele>350.2</ele>
        <time>2022-07-17T04:58:42Z</time>
      </trkpt>
      <trkpt lat="45.47378" lon="6.29414">
        <ele>350.2</ele>
        <time>2022-07-17T04:58:43Z</time>
      </trkpt>
      <trkpt lat="45.47376" lon="6.29406">
        <ele>350.2</ele>
        <time>2022-07-17T04:58:44Z</time>
      </trkpt>
      <trkpt lat="45.47373" lon="6.29399">
        <ele>350.4</ele>
        <time>2022-07-17T04:58:45Z</time>
      </trkpt>
      <trkpt lat="45.47371" lon="6.29391">
        <ele>350.4</ele>
        <time>2022-07-17T04:58:46Z</time>
      </trkpt>
      <trkpt lat="45.47369" lon="6.29384">
        <ele>350.8</ele>
        <time>2022-07-17T04:58:47Z</time>
      </trkpt>
      <trkpt lat="45.47366" lon="6.29377">
        <ele>350.8</ele>
        <time>2022-07-17T04:58:48Z</time>
      </trkpt>
      <trkpt lat="45.47364" lon="6.2937">
        <ele>350.8</ele>
        <time>2022-07-17T04:58:49Z</time>
      </trkpt>
      <trkpt lat="45.47361" lon="6.29363">
        <ele>350.8</ele>
        <time>2022-07-17T04:58:50Z</time>
      </trkpt>
      <trkpt lat="45.47357" lon="6.29356">
        <ele>350.8</ele>
        <time>2022-07-17T04:58:51Z</time>
      </trkpt>
      <trkpt lat="45.47353" lon="6.2935">
        <ele>350.8</ele>
        <time>2022-07-17T04:58:52Z</time>
      </trkpt>
      <trkpt lat="45.47349" lon="6.29344">
        <ele>351</ele>
        <time>2022-07-17T04:58:53Z</time>
      </trkpt>
      <trkpt lat="45.47344" lon="6.29338">
        <ele>351</ele>
        <time>2022-07-17T04:58:54Z</time>
      </trkpt>
      <trkpt lat="45.4734" lon="6.29333">
        <ele>351</ele>
        <time>2022-07-17T04:58:55Z</time>
      </trkpt>
      <trkpt lat="45.47334" lon="6.29328">
        <ele>351</ele>
        <time>2022-07-17T04:58:56Z</time>
      </trkpt>
      <trkpt lat="45.47329" lon="6.29324">
        <ele>351</ele>
        <time>2022-07-17T04:58:57Z</time>
      </trkpt>
      <trkpt lat="45.47324" lon="6.29319">
        <ele>351</ele>
        <time>2022-07-17T04:58:58Z</time>
      </trkpt>
      <trkpt lat="45.47318" lon="6.29316">
        <ele>351</ele>
        <time>2022-07-17T04:58:59Z</time>
      </trkpt>
      <trkpt lat="45.47312" lon="6.29312">
        <ele>351</ele>
        <time>2022-07-17T04:59:00Z</time>
      </trkpt>
      <trkpt lat="45.47306" lon="6.29308">
        <ele>351</ele>
        <time>2022-07-17T04:59:01Z</time>
      </trkpt>
      <trkpt lat="45.473" lon="6.29304">
        <ele>351</ele>
        <time>2022-07-17T04:59:02Z</time>
      </trkpt>
      <trkpt lat="45.47295" lon="6.29301">
        <ele>351</ele>
        <time>2022-07-17T04:59:03Z</time>
      </trkpt>
      <trkpt lat="45.47289" lon="6.29297">
        <ele>351</ele>
        <time>2022-07-17T04:59:04Z</time>
      </trkpt>
      <trkpt lat="45.47283" lon="6.29294">
        <ele>351.2</ele>
        <time>2022-07-17T04:59:05Z</time>
      </trkpt>
      <trkpt lat="45.47278" lon="6.2929">
        <ele>351.2</ele>
        <time>2022-07-17T04:59:06Z</time>
      </trkpt>
      <trkpt lat="45.47272" lon="6.29287">
        <ele>351.2</ele>
        <time>2022-07-17T04:59:07Z</time>
      </trkpt>
      <trkpt lat="45.47266" lon="6.29283">
        <ele>351.2</ele>
        <time>2022-07-17T04:59:08Z</time>
      </trkpt>
      <trkpt lat="45.47261" lon="6.2928">
        <ele>351.2</ele>
        <time>2022-07-17T04:59:09Z</time>
      </trkpt>
      <trkpt lat="45.47255" lon="6.29276">
        <ele>351.2</ele>
        <time>2022-07-17T04:59:10Z</time>
      </trkpt>
      <trkpt lat="45.47249" lon="6.29273">
        <ele>351.2</ele>
        <time>2022-07-17T04:59:11Z</time>
      </trkpt>
      <trkpt lat="45.47244" lon="6.2927">
        <ele>351.2</ele>
        <time>2022-07-17T04:59:12Z</time>
      </trkpt>
      <trkpt lat="45.47238" lon="6.29267">
        <ele>351.2</ele>
        <time>2022-07-17T04:59:13Z</time>
      </trkpt>
      <trkpt lat="45.47232" lon="6.29263">
        <ele>351.2</ele>
        <time>2022-07-17T04:59:14Z</time>
      </trkpt>
      <trkpt lat="45.47226" lon="6.2926">
        <ele>351.2</ele>
        <time>2022-07-17T04:59:15Z</time>
      </trkpt>
      <trkpt lat="45.47221" lon="6.29257">
        <ele>351.2</ele>
        <time>2022-07-17T04:59:16Z</time>
      </trkpt>
      <trkpt lat="45.47215" lon="6.29253">
        <ele>351.2</ele>
        <time>2022-07-17T04:59:17Z</time>
      </trkpt>
      <trkpt lat="45.47209" lon="6.2925">
        <ele>351.6</ele>
        <time>2022-07-17T04:59:18Z</time>
      </trkpt>
      <trkpt lat="45.47204" lon="6.29247">
        <ele>351.6</ele>
        <time>2022-07-17T04:59:19Z</time>
      </trkpt>
      <trkpt lat="45.47198" lon="6.29243">
        <ele>351.6</ele>
        <time>2022-07-17T04:59:20Z</time>
      </trkpt>
      <trkpt lat="45.47192" lon="6.2924">
        <ele>351.6</ele>
        <time>2022-07-17T04:59:21Z</time>
      </trkpt>
      <trkpt lat="45.47187" lon="6.29237">
        <ele>351.6</ele>
        <time>2022-07-17T04:59:22Z</time>
      </trkpt>
      <trkpt lat="45.47181" lon="6.29233">
        <ele>351.8</ele>
        <time>2022-07-17T04:59:23Z</time>
      </trkpt>
      <trkpt lat="45.47175" lon="6.29229">
        <ele>351.8</ele>
        <time>2022-07-17T04:59:24Z</time>
      </trkpt>
      <trkpt lat="45.47169" lon="6.29225">
        <ele>351.8</ele>
        <time>2022-07-17T04:59:25Z</time>
      </trkpt>
      <trkpt lat="45.47163" lon="6.2922">
        <ele>352</ele>
        <time>2022-07-17T04:59:26Z</time>
      </trkpt>
      <trkpt lat="45.47157" lon="6.29216">
        <ele>352</ele>
        <time>2022-07-17T04:59:27Z</time>
      </trkpt>
      <trkpt lat="45.47151" lon="6.29213">
        <ele>352</ele>
        <time>2022-07-17T04:59:28Z</time>
      </trkpt>
      <trkpt lat="45.47145" lon="6.29209">
        <ele>352</ele>
        <time>2022-07-17T04:59:29Z</time>
      </trkpt>
      <trkpt lat="45.4714" lon="6.29206">
        <ele>352.4</ele>
        <time>2022-07-17T04:59:30Z</time>
      </trkpt>
      <trkpt lat="45.47135" lon="6.29203">
        <ele>352.4</ele>
        <time>2022-07-17T04:59:31Z</time>
      </trkpt>
      <trkpt lat="45.47131" lon="6.292">
        <ele>352.4</ele>
        <time>2022-07-17T04:59:32Z</time>
      </trkpt>
      <trkpt lat="45.47126" lon="6.29198">
        <ele>352.6</ele>
        <time>2022-07-17T04:59:33Z</time>
      </trkpt>
      <trkpt lat="45.47122" lon="6.29195">
        <ele>352.6</ele>
        <time>2022-07-17T04:59:34Z</time>
      </trkpt>
      <trkpt lat="45.47118" lon="6.29192">
        <ele>352.8</ele>
        <time>2022-07-17T04:59:35Z</time>
      </trkpt>
      <trkpt lat="45.47113" lon="6.29189">
        <ele>352.8</ele>
        <time>2022-07-17T04:59:36Z</time>
      </trkpt>
      <trkpt lat="45.47109" lon="6.29187">
        <ele>352.8</ele>
        <time>2022-07-17T04:59:37Z</time>
      </trkpt>
      <trkpt lat="45.47105" lon="6.29184">
        <ele>352.8</ele>
        <time>2022-07-17T04:59:38Z</time>
      </trkpt>
      <trkpt lat="45.47101" lon="6.29182">
        <ele>352.8</ele>
        <time>2022-07-17T04:59:39Z</time>
      </trkpt>
      <trkpt lat="45.47097" lon="6.2918">
        <ele>352.8</ele>
        <time>2022-07-17T04:59:40Z</time>
      </trkpt>
      <trkpt lat="45.47093" lon="6.29177">
        <ele>352.8</ele>
        <time>2022-07-17T04:59:41Z</time>
      </trkpt>
      <trkpt lat="45.4709" lon="6.29174">
        <ele>352.8</ele>
        <time>2022-07-17T04:59:42Z</time>
      </trkpt>
      <trkpt lat="45.47088" lon="6.29169">
        <ele>352.8</ele>
        <time>2022-07-17T04:59:43Z</time>
      </trkpt>
      <trkpt lat="45.47087" lon="6.29164">
        <ele>352.8</ele>
        <time>2022-07-17T04:59:44Z</time>
      </trkpt>
      <trkpt lat="45.47087" lon="6.29159">
        <ele>352.8</ele>
        <time>2022-07-17T04:59:45Z</time>
      </trkpt>
      <trkpt lat="45.47086" lon="6.29153">
        <ele>352.8</ele>
        <time>2022-07-17T04:59:46Z</time>
      </trkpt>
      <trkpt lat="45.47086" lon="6.29148">
        <ele>352.8</ele>
        <time>2022-07-17T04:59:47Z</time>
      </trkpt>
      <trkpt lat="45.47085" lon="6.29142">
        <ele>352.8</ele>
        <time>2022-07-17T04:59:48Z</time>
      </trkpt>
      <trkpt lat="45.47085" lon="6.29137">
        <ele>352.8</ele>
        <time>2022-07-17T04:59:49Z</time>
      </trkpt>
      <trkpt lat="45.47084" lon="6.29132">
        <ele>352.8</ele>
        <time>2022-07-17T04:59:50Z</time>
      </trkpt>
      <trkpt lat="45.47082" lon="6.29128">
        <ele>352.8</ele>
        <time>2022-07-17T04:59:51Z</time>
      </trkpt>
      <trkpt lat="45.47081" lon="6.29124">
        <ele>352.8</ele>
        <time>2022-07-17T04:59:52Z</time>
      </trkpt>
      <trkpt lat="45.47079" lon="6.2912">
        <ele>352.8</ele>
        <time>2022-07-17T04:59:53Z</time>
      </trkpt>
      <trkpt lat="45.47078" lon="6.29117">
        <ele>353</ele>
        <time>2022-07-17T04:59:55Z</time>
      </trkpt>
      <trkpt lat="45.47078" lon="6.29113">
        <ele>353</ele>
        <time>2022-07-17T04:59:56Z</time>
      </trkpt>
      <trkpt lat="45.47077" lon="6.2911">
        <ele>353</ele>
        <time>2022-07-17T04:59:57Z</time>
      </trkpt>
      <trkpt lat="45.47076" lon="6.29106">
        <ele>353.4</ele>
        <time>2022-07-17T04:59:58Z</time>
      </trkpt>
      <trkpt lat="45.47074" lon="6.29097">
        <ele>353.4</ele>
        <time>2022-07-17T04:59:59Z</time>
      </trkpt>
      <trkpt lat="45.47074" lon="6.29092">
        <ele>353.4</ele>
        <time>2022-07-17T05:00:00Z</time>
      </trkpt>
      <trkpt lat="45.47073" lon="6.29088">
        <ele>353.4</ele>
        <time>2022-07-17T05:00:01Z</time>
      </trkpt>
      <trkpt lat="45.47071" lon="6.29085">
        <ele>353.6</ele>
        <time>2022-07-17T05:00:02Z</time>
      </trkpt>
      <trkpt lat="45.47068" lon="6.29083">
        <ele>353.6</ele>
        <time>2022-07-17T05:00:03Z</time>
      </trkpt>
      <trkpt lat="45.47064" lon="6.29082">
        <ele>353.6</ele>
        <time>2022-07-17T05:00:04Z</time>
      </trkpt>
      <trkpt lat="45.4706" lon="6.29083">
        <ele>353.8</ele>
        <time>2022-07-17T05:00:05Z</time>
      </trkpt>
      <trkpt lat="45.47055" lon="6.29083">
        <ele>353.8</ele>
        <time>2022-07-17T05:00:06Z</time>
      </trkpt>
      <trkpt lat="45.4705" lon="6.29083">
        <ele>353.8</ele>
        <time>2022-07-17T05:00:07Z</time>
      </trkpt>
      <trkpt lat="45.47045" lon="6.29084">
        <ele>353.8</ele>
        <time>2022-07-17T05:00:08Z</time>
      </trkpt>
      <trkpt lat="45.47039" lon="6.29085">
        <ele>353.8</ele>
        <time>2022-07-17T05:00:09Z</time>
      </trkpt>
      <trkpt lat="45.47034" lon="6.29086">
        <ele>353.8</ele>
        <time>2022-07-17T05:00:10Z</time>
      </trkpt>
      <trkpt lat="45.47028" lon="6.29087">
        <ele>353.8</ele>
        <time>2022-07-17T05:00:11Z</time>
      </trkpt>
      <trkpt lat="45.47022" lon="6.29088">
        <ele>353.8</ele>
        <time>2022-07-17T05:00:12Z</time>
      </trkpt>
      <trkpt lat="45.47016" lon="6.29089">
        <ele>353.8</ele>
        <time>2022-07-17T05:00:13Z</time>
      </trkpt>
      <trkpt lat="45.4701" lon="6.29089">
        <ele>353.8</ele>
        <time>2022-07-17T05:00:14Z</time>
      </trkpt>
      <trkpt lat="45.47004" lon="6.2909">
        <ele>353.8</ele>
        <time>2022-07-17T05:00:15Z</time>
      </trkpt>
      <trkpt lat="45.46998" lon="6.29091">
        <ele>353.8</ele>
        <time>2022-07-17T05:00:16Z</time>
      </trkpt>
      <trkpt lat="45.46992" lon="6.29092">
        <ele>353.8</ele>
        <time>2022-07-17T05:00:17Z</time>
      </trkpt>
      <trkpt lat="45.46986" lon="6.29093">
        <ele>353.8</ele>
        <time>2022-07-17T05:00:18Z</time>
      </trkpt>
      <trkpt lat="45.4698" lon="6.29094">
        <ele>354</ele>
        <time>2022-07-17T05:00:19Z</time>
      </trkpt>
      <trkpt lat="45.46974" lon="6.29094">
        <ele>354</ele>
        <time>2022-07-17T05:00:20Z</time>
      </trkpt>
      <trkpt lat="45.46968" lon="6.29095">
        <ele>354</ele>
        <time>2022-07-17T05:00:21Z</time>
      </trkpt>
      <trkpt lat="45.46962" lon="6.29096">
        <ele>354</ele>
        <time>2022-07-17T05:00:22Z</time>
      </trkpt>
      <trkpt lat="45.46956" lon="6.29097">
        <ele>354</ele>
        <time>2022-07-17T05:00:23Z</time>
      </trkpt>
      <trkpt lat="45.4695" lon="6.29098">
        <ele>354.4</ele>
        <time>2022-07-17T05:00:24Z</time>
      </trkpt>
      <trkpt lat="45.46944" lon="6.29099">
        <ele>354.4</ele>
        <time>2022-07-17T05:00:25Z</time>
      </trkpt>
      <trkpt lat="45.46938" lon="6.291">
        <ele>354.4</ele>
        <time>2022-07-17T05:00:26Z</time>
      </trkpt>
      <trkpt lat="45.46932" lon="6.29101">
        <ele>354.4</ele>
        <time>2022-07-17T05:00:27Z</time>
      </trkpt>
      <trkpt lat="45.46926" lon="6.29103">
        <ele>354.6</ele>
        <time>2022-07-17T05:00:28Z</time>
      </trkpt>
      <trkpt lat="45.4692" lon="6.29104">
        <ele>354.6</ele>
        <time>2022-07-17T05:00:29Z</time>
      </trkpt>
      <trkpt lat="45.46914" lon="6.29105">
        <ele>354.6</ele>
        <time>2022-07-17T05:00:30Z</time>
      </trkpt>
      <trkpt lat="45.46907" lon="6.29106">
        <ele>354.6</ele>
        <time>2022-07-17T05:00:31Z</time>
      </trkpt>
      <trkpt lat="45.46901" lon="6.29108">
        <ele>354.6</ele>
        <time>2022-07-17T05:00:32Z</time>
      </trkpt>
      <trkpt lat="45.46895" lon="6.29109">
        <ele>354.8</ele>
        <time>2022-07-17T05:00:33Z</time>
      </trkpt>
      <trkpt lat="45.46889" lon="6.2911">
        <ele>354.8</ele>
        <time>2022-07-17T05:00:34Z</time>
      </trkpt>
      <trkpt lat="45.46883" lon="6.29112">
        <ele>354.8</ele>
        <time>2022-07-17T05:00:35Z</time>
      </trkpt>
      <trkpt lat="45.46877" lon="6.29113">
        <ele>354.8</ele>
        <time>2022-07-17T05:00:36Z</time>
      </trkpt>
      <trkpt lat="45.46871" lon="6.29115">
        <ele>354.8</ele>
        <time>2022-07-17T05:00:37Z</time>
      </trkpt>
      <trkpt lat="45.46865" lon="6.29116">
        <ele>354.8</ele>
        <time>2022-07-17T05:00:38Z</time>
      </trkpt>
      <trkpt lat="45.46859" lon="6.29117">
        <ele>354.8</ele>
        <time>2022-07-17T05:00:39Z</time>
      </trkpt>
      <trkpt lat="45.46852" lon="6.29118">
        <ele>354.8</ele>
        <time>2022-07-17T05:00:40Z</time>
      </trkpt>
      <trkpt lat="45.46847" lon="6.29119">
        <ele>354.8</ele>
        <time>2022-07-17T05:00:41Z</time>
      </trkpt>
      <trkpt lat="45.46841" lon="6.2912">
        <ele>354.8</ele>
        <time>2022-07-17T05:00:42Z</time>
      </trkpt>
      <trkpt lat="45.46835" lon="6.29121">
        <ele>354.8</ele>
        <time>2022-07-17T05:00:43Z</time>
      </trkpt>
      <trkpt lat="45.46828" lon="6.29122">
        <ele>355</ele>
        <time>2022-07-17T05:00:44Z</time>
      </trkpt>
      <trkpt lat="45.46822" lon="6.29123">
        <ele>355</ele>
        <time>2022-07-17T05:00:45Z</time>
      </trkpt>
      <trkpt lat="45.46817" lon="6.29124">
        <ele>355</ele>
        <time>2022-07-17T05:00:46Z</time>
      </trkpt>
      <trkpt lat="45.46811" lon="6.29125">
        <ele>355</ele>
        <time>2022-07-17T05:00:47Z</time>
      </trkpt>
      <trkpt lat="45.46805" lon="6.29126">
        <ele>355</ele>
        <time>2022-07-17T05:00:48Z</time>
      </trkpt>
      <trkpt lat="45.46799" lon="6.29127">
        <ele>355</ele>
        <time>2022-07-17T05:00:49Z</time>
      </trkpt>
      <trkpt lat="45.46793" lon="6.29129">
        <ele>355</ele>
        <time>2022-07-17T05:00:50Z</time>
      </trkpt>
      <trkpt lat="45.46787" lon="6.29131">
        <ele>355</ele>
        <time>2022-07-17T05:00:51Z</time>
      </trkpt>
      <trkpt lat="45.46781" lon="6.29132">
        <ele>355.4</ele>
        <time>2022-07-17T05:00:52Z</time>
      </trkpt>
      <trkpt lat="45.46774" lon="6.29134">
        <ele>355.4</ele>
        <time>2022-07-17T05:00:53Z</time>
      </trkpt>
      <trkpt lat="45.46768" lon="6.29135">
        <ele>355.4</ele>
        <time>2022-07-17T05:00:54Z</time>
      </trkpt>
      <trkpt lat="45.46762" lon="6.29136">
        <ele>355.4</ele>
        <time>2022-07-17T05:00:55Z</time>
      </trkpt>
      <trkpt lat="45.46756" lon="6.29137">
        <ele>355.6</ele>
        <time>2022-07-17T05:00:56Z</time>
      </trkpt>
      <trkpt lat="45.4675" lon="6.29138">
        <ele>355.6</ele>
        <time>2022-07-17T05:00:57Z</time>
      </trkpt>
      <trkpt lat="45.46744" lon="6.29139">
        <ele>355.6</ele>
        <time>2022-07-17T05:00:58Z</time>
      </trkpt>
      <trkpt lat="45.46737" lon="6.2914">
        <ele>355.6</ele>
        <time>2022-07-17T05:00:59Z</time>
      </trkpt>
      <trkpt lat="45.46731" lon="6.29141">
        <ele>355.8</ele>
        <time>2022-07-17T05:01:00Z</time>
      </trkpt>
      <trkpt lat="45.46725" lon="6.29142">
        <ele>355.8</ele>
        <time>2022-07-17T05:01:01Z</time>
      </trkpt>
      <trkpt lat="45.46719" lon="6.29143">
        <ele>355.8</ele>
        <time>2022-07-17T05:01:02Z</time>
      </trkpt>
      <trkpt lat="45.46713" lon="6.29144">
        <ele>355.8</ele>
        <time>2022-07-17T05:01:03Z</time>
      </trkpt>
      <trkpt lat="45.46706" lon="6.29145">
        <ele>355.8</ele>
        <time>2022-07-17T05:01:04Z</time>
      </trkpt>
      <trkpt lat="45.467" lon="6.29147">
        <ele>355.8</ele>
        <time>2022-07-17T05:01:05Z</time>
      </trkpt>
      <trkpt lat="45.46693" lon="6.29148">
        <ele>355.8</ele>
        <time>2022-07-17T05:01:06Z</time>
      </trkpt>
      <trkpt lat="45.46687" lon="6.29149">
        <ele>355.8</ele>
        <time>2022-07-17T05:01:07Z</time>
      </trkpt>
      <trkpt lat="45.46681" lon="6.2915">
        <ele>356</ele>
        <time>2022-07-17T05:01:08Z</time>
      </trkpt>
      <trkpt lat="45.46674" lon="6.29151">
        <ele>356</ele>
        <time>2022-07-17T05:01:09Z</time>
      </trkpt>
      <trkpt lat="45.46668" lon="6.29153">
        <ele>356</ele>
        <time>2022-07-17T05:01:10Z</time>
      </trkpt>
      <trkpt lat="45.46662" lon="6.29154">
        <ele>356</ele>
        <time>2022-07-17T05:01:11Z</time>
      </trkpt>
      <trkpt lat="45.46656" lon="6.29155">
        <ele>356</ele>
        <time>2022-07-17T05:01:12Z</time>
      </trkpt>
      <trkpt lat="45.46649" lon="6.29156">
        <ele>356</ele>
        <time>2022-07-17T05:01:13Z</time>
      </trkpt>
      <trkpt lat="45.46643" lon="6.29158">
        <ele>356</ele>
        <time>2022-07-17T05:01:14Z</time>
      </trkpt>
      <trkpt lat="45.46637" lon="6.29159">
        <ele>356.2</ele>
        <time>2022-07-17T05:01:15Z</time>
      </trkpt>
      <trkpt lat="45.46631" lon="6.29161">
        <ele>356.2</ele>
        <time>2022-07-17T05:01:16Z</time>
      </trkpt>
      <trkpt lat="45.46625" lon="6.29162">
        <ele>356.2</ele>
        <time>2022-07-17T05:01:17Z</time>
      </trkpt>
      <trkpt lat="45.46618" lon="6.29163">
        <ele>356.2</ele>
        <time>2022-07-17T05:01:18Z</time>
      </trkpt>
      <trkpt lat="45.46612" lon="6.29164">
        <ele>356.2</ele>
        <time>2022-07-17T05:01:19Z</time>
      </trkpt>
      <trkpt lat="45.46606" lon="6.29165">
        <ele>356.2</ele>
        <time>2022-07-17T05:01:20Z</time>
      </trkpt>
      <trkpt lat="45.466" lon="6.29165">
        <ele>356.2</ele>
        <time>2022-07-17T05:01:21Z</time>
      </trkpt>
      <trkpt lat="45.46594" lon="6.29165">
        <ele>356.6</ele>
        <time>2022-07-17T05:01:22Z</time>
      </trkpt>
      <trkpt lat="45.46588" lon="6.29166">
        <ele>356.6</ele>
        <time>2022-07-17T05:01:23Z</time>
      </trkpt>
      <trkpt lat="45.46581" lon="6.29167">
        <ele>356.6</ele>
        <time>2022-07-17T05:01:24Z</time>
      </trkpt>
      <trkpt lat="45.46575" lon="6.29169">
        <ele>356.6</ele>
        <time>2022-07-17T05:01:25Z</time>
      </trkpt>
      <trkpt lat="45.46569" lon="6.2917">
        <ele>356.8</ele>
        <time>2022-07-17T05:01:26Z</time>
      </trkpt>
      <trkpt lat="45.46562" lon="6.29171">
        <ele>356.8</ele>
        <time>2022-07-17T05:01:27Z</time>
      </trkpt>
      <trkpt lat="45.46556" lon="6.29172">
        <ele>356.8</ele>
        <time>2022-07-17T05:01:28Z</time>
      </trkpt>
      <trkpt lat="45.4655" lon="6.29173">
        <ele>357.2</ele>
        <time>2022-07-17T05:01:29Z</time>
      </trkpt>
      <trkpt lat="45.46543" lon="6.29174">
        <ele>357.2</ele>
        <time>2022-07-17T05:01:30Z</time>
      </trkpt>
      <trkpt lat="45.46537" lon="6.29175">
        <ele>357.2</ele>
        <time>2022-07-17T05:01:31Z</time>
      </trkpt>
      <trkpt lat="45.46531" lon="6.29175">
        <ele>357.2</ele>
        <time>2022-07-17T05:01:32Z</time>
      </trkpt>
      <trkpt lat="45.46524" lon="6.29176">
        <ele>357.4</ele>
        <time>2022-07-17T05:01:33Z</time>
      </trkpt>
      <trkpt lat="45.46518" lon="6.29176">
        <ele>357.4</ele>
        <time>2022-07-17T05:01:34Z</time>
      </trkpt>
      <trkpt lat="45.46512" lon="6.29177">
        <ele>357.6</ele>
        <time>2022-07-17T05:01:35Z</time>
      </trkpt>
      <trkpt lat="45.46506" lon="6.29178">
        <ele>357.6</ele>
        <time>2022-07-17T05:01:36Z</time>
      </trkpt>
      <trkpt lat="45.46499" lon="6.29179">
        <ele>357.6</ele>
        <time>2022-07-17T05:01:37Z</time>
      </trkpt>
      <trkpt lat="45.46493" lon="6.29181">
        <ele>357.6</ele>
        <time>2022-07-17T05:01:38Z</time>
      </trkpt>
      <trkpt lat="45.46487" lon="6.29181">
        <ele>357.6</ele>
        <time>2022-07-17T05:01:39Z</time>
      </trkpt>
      <trkpt lat="45.4648" lon="6.29182">
        <ele>357.6</ele>
        <time>2022-07-17T05:01:40Z</time>
      </trkpt>
      <trkpt lat="45.46474" lon="6.29183">
        <ele>357.6</ele>
        <time>2022-07-17T05:01:41Z</time>
      </trkpt>
      <trkpt lat="45.46468" lon="6.29184">
        <ele>357.8</ele>
        <time>2022-07-17T05:01:42Z</time>
      </trkpt>
      <trkpt lat="45.46461" lon="6.29185">
        <ele>357.8</ele>
        <time>2022-07-17T05:01:43Z</time>
      </trkpt>
      <trkpt lat="45.46455" lon="6.29186">
        <ele>357.8</ele>
        <time>2022-07-17T05:01:44Z</time>
      </trkpt>
      <trkpt lat="45.46449" lon="6.29187">
        <ele>357.8</ele>
        <time>2022-07-17T05:01:45Z</time>
      </trkpt>
      <trkpt lat="45.46443" lon="6.29189">
        <ele>357.8</ele>
        <time>2022-07-17T05:01:46Z</time>
      </trkpt>
      <trkpt lat="45.46437" lon="6.29191">
        <ele>358</ele>
        <time>2022-07-17T05:01:47Z</time>
      </trkpt>
      <trkpt lat="45.46431" lon="6.29192">
        <ele>358</ele>
        <time>2022-07-17T05:01:48Z</time>
      </trkpt>
      <trkpt lat="45.46424" lon="6.29193">
        <ele>358</ele>
        <time>2022-07-17T05:01:49Z</time>
      </trkpt>
      <trkpt lat="45.46418" lon="6.29194">
        <ele>358</ele>
        <time>2022-07-17T05:01:50Z</time>
      </trkpt>
      <trkpt lat="45.46412" lon="6.29195">
        <ele>358</ele>
        <time>2022-07-17T05:01:51Z</time>
      </trkpt>
      <trkpt lat="45.46406" lon="6.29195">
        <ele>358</ele>
        <time>2022-07-17T05:01:52Z</time>
      </trkpt>
      <trkpt lat="45.46399" lon="6.29196">
        <ele>358</ele>
        <time>2022-07-17T05:01:53Z</time>
      </trkpt>
      <trkpt lat="45.46393" lon="6.29197">
        <ele>358</ele>
        <time>2022-07-17T05:01:54Z</time>
      </trkpt>
      <trkpt lat="45.46387" lon="6.29197">
        <ele>358</ele>
        <time>2022-07-17T05:01:55Z</time>
      </trkpt>
      <trkpt lat="45.4638" lon="6.29198">
        <ele>358</ele>
        <time>2022-07-17T05:01:56Z</time>
      </trkpt>
      <trkpt lat="45.46374" lon="6.29199">
        <ele>358</ele>
        <time>2022-07-17T05:01:57Z</time>
      </trkpt>
      <trkpt lat="45.46368" lon="6.292">
        <ele>358</ele>
        <time>2022-07-17T05:01:58Z</time>
      </trkpt>
      <trkpt lat="45.46362" lon="6.292">
        <ele>358</ele>
        <time>2022-07-17T05:01:59Z</time>
      </trkpt>
      <trkpt lat="45.46349" lon="6.29201">
        <ele>358</ele>
        <time>2022-07-17T05:02:00Z</time>
      </trkpt>
      <trkpt lat="45.46343" lon="6.29201">
        <ele>358</ele>
        <time>2022-07-17T05:02:01Z</time>
      </trkpt>
      <trkpt lat="45.46337" lon="6.29203">
        <ele>358</ele>
        <time>2022-07-17T05:02:02Z</time>
      </trkpt>
      <trkpt lat="45.46331" lon="6.29205">
        <ele>358</ele>
        <time>2022-07-17T05:02:03Z</time>
      </trkpt>
      <trkpt lat="45.46324" lon="6.29206">
        <ele>358</ele>
        <time>2022-07-17T05:02:04Z</time>
      </trkpt>
      <trkpt lat="45.46318" lon="6.29207">
        <ele>358.2</ele>
        <time>2022-07-17T05:02:05Z</time>
      </trkpt>
      <trkpt lat="45.46312" lon="6.29208">
        <ele>358.2</ele>
        <time>2022-07-17T05:02:06Z</time>
      </trkpt>
      <trkpt lat="45.46306" lon="6.29209">
        <ele>358.2</ele>
        <time>2022-07-17T05:02:07Z</time>
      </trkpt>
      <trkpt lat="45.463" lon="6.2921">
        <ele>358.2</ele>
        <time>2022-07-17T05:02:08Z</time>
      </trkpt>
      <trkpt lat="45.46294" lon="6.29211">
        <ele>358.2</ele>
        <time>2022-07-17T05:02:09Z</time>
      </trkpt>
      <trkpt lat="45.46288" lon="6.29212">
        <ele>358.2</ele>
        <time>2022-07-17T05:02:10Z</time>
      </trkpt>
      <trkpt lat="45.46281" lon="6.29213">
        <ele>358.4</ele>
        <time>2022-07-17T05:02:11Z</time>
      </trkpt>
      <trkpt lat="45.46275" lon="6.29214">
        <ele>358.4</ele>
        <time>2022-07-17T05:02:12Z</time>
      </trkpt>
      <trkpt lat="45.46269" lon="6.29215">
        <ele>358.4</ele>
        <time>2022-07-17T05:02:13Z</time>
      </trkpt>
      <trkpt lat="45.46263" lon="6.29216">
        <ele>358.4</ele>
        <time>2022-07-17T05:02:14Z</time>
      </trkpt>
      <trkpt lat="45.46257" lon="6.29217">
        <ele>358.4</ele>
        <time>2022-07-17T05:02:15Z</time>
      </trkpt>
      <trkpt lat="45.4625" lon="6.29219">
        <ele>358.4</ele>
        <time>2022-07-17T05:02:16Z</time>
      </trkpt>
      <trkpt lat="45.46244" lon="6.2922">
        <ele>358.4</ele>
        <time>2022-07-17T05:02:17Z</time>
      </trkpt>
      <trkpt lat="45.46239" lon="6.29221">
        <ele>358.8</ele>
        <time>2022-07-17T05:02:18Z</time>
      </trkpt>
      <trkpt lat="45.46233" lon="6.29221">
        <ele>358.8</ele>
        <time>2022-07-17T05:02:19Z</time>
      </trkpt>
      <trkpt lat="45.46227" lon="6.29222">
        <ele>358.8</ele>
        <time>2022-07-17T05:02:20Z</time>
      </trkpt>
      <trkpt lat="45.46221" lon="6.29223">
        <ele>359</ele>
        <time>2022-07-17T05:02:21Z</time>
      </trkpt>
      <trkpt lat="45.46215" lon="6.29224">
        <ele>359</ele>
        <time>2022-07-17T05:02:22Z</time>
      </trkpt>
      <trkpt lat="45.46209" lon="6.29225">
        <ele>359</ele>
        <time>2022-07-17T05:02:23Z</time>
      </trkpt>
      <trkpt lat="45.46203" lon="6.29227">
        <ele>359</ele>
        <time>2022-07-17T05:02:24Z</time>
      </trkpt>
      <trkpt lat="45.46196" lon="6.29228">
        <ele>359</ele>
        <time>2022-07-17T05:02:25Z</time>
      </trkpt>
      <trkpt lat="45.46191" lon="6.29228">
        <ele>359</ele>
        <time>2022-07-17T05:02:26Z</time>
      </trkpt>
      <trkpt lat="45.46185" lon="6.29229">
        <ele>359</ele>
        <time>2022-07-17T05:02:27Z</time>
      </trkpt>
      <trkpt lat="45.46179" lon="6.2923">
        <ele>359</ele>
        <time>2022-07-17T05:02:28Z</time>
      </trkpt>
      <trkpt lat="45.46173" lon="6.2923">
        <ele>359.2</ele>
        <time>2022-07-17T05:02:29Z</time>
      </trkpt>
      <trkpt lat="45.46168" lon="6.2923">
        <ele>359.2</ele>
        <time>2022-07-17T05:02:30Z</time>
      </trkpt>
      <trkpt lat="45.46162" lon="6.29231">
        <ele>359.2</ele>
        <time>2022-07-17T05:02:31Z</time>
      </trkpt>
      <trkpt lat="45.46156" lon="6.29231">
        <ele>359.2</ele>
        <time>2022-07-17T05:02:32Z</time>
      </trkpt>
      <trkpt lat="45.4615" lon="6.29232">
        <ele>359.2</ele>
        <time>2022-07-17T05:02:33Z</time>
      </trkpt>
      <trkpt lat="45.46144" lon="6.29232">
        <ele>359.4</ele>
        <time>2022-07-17T05:02:34Z</time>
      </trkpt>
      <trkpt lat="45.46139" lon="6.29232">
        <ele>359.4</ele>
        <time>2022-07-17T05:02:35Z</time>
      </trkpt>
      <trkpt lat="45.46133" lon="6.29232">
        <ele>359.4</ele>
        <time>2022-07-17T05:02:36Z</time>
      </trkpt>
      <trkpt lat="45.46127" lon="6.29232">
        <ele>359.6</ele>
        <time>2022-07-17T05:02:37Z</time>
      </trkpt>
      <trkpt lat="45.46121" lon="6.29231">
        <ele>359.6</ele>
        <time>2022-07-17T05:02:38Z</time>
      </trkpt>
      <trkpt lat="45.46115" lon="6.29232">
        <ele>359.6</ele>
        <time>2022-07-17T05:02:39Z</time>
      </trkpt>
      <trkpt lat="45.46109" lon="6.29232">
        <ele>359.8</ele>
        <time>2022-07-17T05:02:40Z</time>
      </trkpt>
      <trkpt lat="45.46104" lon="6.29232">
        <ele>359.8</ele>
        <time>2022-07-17T05:02:41Z</time>
      </trkpt>
      <trkpt lat="45.46099" lon="6.29232">
        <ele>359.8</ele>
        <time>2022-07-17T05:02:42Z</time>
      </trkpt>
      <trkpt lat="45.46094" lon="6.29232">
        <ele>359.8</ele>
        <time>2022-07-17T05:02:43Z</time>
      </trkpt>
      <trkpt lat="45.4609" lon="6.29232">
        <ele>360.2</ele>
        <time>2022-07-17T05:02:44Z</time>
      </trkpt>
      <trkpt lat="45.46085" lon="6.29232">
        <ele>360.4</ele>
        <time>2022-07-17T05:02:45Z</time>
      </trkpt>
      <trkpt lat="45.46081" lon="6.29233">
        <ele>360.6</ele>
        <time>2022-07-17T05:02:46Z</time>
      </trkpt>
      <trkpt lat="45.46077" lon="6.29233">
        <ele>361</ele>
        <time>2022-07-17T05:02:47Z</time>
      </trkpt>
      <trkpt lat="45.46072" lon="6.29234">
        <ele>361.4</ele>
        <time>2022-07-17T05:02:48Z</time>
      </trkpt>
      <trkpt lat="45.46068" lon="6.29234">
        <ele>361.6</ele>
        <time>2022-07-17T05:02:49Z</time>
      </trkpt>
      <trkpt lat="45.46064" lon="6.29235">
        <ele>362</ele>
        <time>2022-07-17T05:02:50Z</time>
      </trkpt>
      <trkpt lat="45.4606" lon="6.29236">
        <ele>362.4</ele>
        <time>2022-07-17T05:02:51Z</time>
      </trkpt>
      <trkpt lat="45.46056" lon="6.29236">
        <ele>362.6</ele>
        <time>2022-07-17T05:02:52Z</time>
      </trkpt>
      <trkpt lat="45.46053" lon="6.29235">
        <ele>363</ele>
        <time>2022-07-17T05:02:53Z</time>
      </trkpt>
      <trkpt lat="45.46049" lon="6.29236">
        <ele>363</ele>
        <time>2022-07-17T05:02:54Z</time>
      </trkpt>
      <trkpt lat="45.46046" lon="6.29235">
        <ele>363.4</ele>
        <time>2022-07-17T05:02:55Z</time>
      </trkpt>
      <trkpt lat="45.46043" lon="6.29236">
        <ele>363.6</ele>
        <time>2022-07-17T05:02:56Z</time>
      </trkpt>
      <trkpt lat="45.46041" lon="6.29237">
        <ele>363.8</ele>
        <time>2022-07-17T05:02:57Z</time>
      </trkpt>
      <trkpt lat="45.46039" lon="6.29239">
        <ele>364</ele>
        <time>2022-07-17T05:02:58Z</time>
      </trkpt>
      <trkpt lat="45.46037" lon="6.29242">
        <ele>364</ele>
        <time>2022-07-17T05:02:59Z</time>
      </trkpt>
      <trkpt lat="45.46035" lon="6.29246">
        <ele>364.4</ele>
        <time>2022-07-17T05:03:00Z</time>
      </trkpt>
      <trkpt lat="45.46034" lon="6.29252">
        <ele>364.4</ele>
        <time>2022-07-17T05:03:01Z</time>
      </trkpt>
      <trkpt lat="45.46035" lon="6.29259">
        <ele>364.4</ele>
        <time>2022-07-17T05:03:02Z</time>
      </trkpt>
      <trkpt lat="45.46036" lon="6.29265">
        <ele>364.6</ele>
        <time>2022-07-17T05:03:03Z</time>
      </trkpt>
      <trkpt lat="45.46037" lon="6.29271">
        <ele>364.6</ele>
        <time>2022-07-17T05:03:04Z</time>
      </trkpt>
      <trkpt lat="45.46037" lon="6.29277">
        <ele>365</ele>
        <time>2022-07-17T05:03:05Z</time>
      </trkpt>
      <trkpt lat="45.46038" lon="6.29283">
        <ele>365</ele>
        <time>2022-07-17T05:03:06Z</time>
      </trkpt>
      <trkpt lat="45.46038" lon="6.29289">
        <ele>365.2</ele>
        <time>2022-07-17T05:03:07Z</time>
      </trkpt>
      <trkpt lat="45.46038" lon="6.29295">
        <ele>365.2</ele>
        <time>2022-07-17T05:03:08Z</time>
      </trkpt>
      <trkpt lat="45.46038" lon="6.29301">
        <ele>365.6</ele>
        <time>2022-07-17T05:03:09Z</time>
      </trkpt>
      <trkpt lat="45.46037" lon="6.29306">
        <ele>365.6</ele>
        <time>2022-07-17T05:03:10Z</time>
      </trkpt>
      <trkpt lat="45.46037" lon="6.29312">
        <ele>365.8</ele>
        <time>2022-07-17T05:03:11Z</time>
      </trkpt>
      <trkpt lat="45.46036" lon="6.29319">
        <ele>365.8</ele>
        <time>2022-07-17T05:03:12Z</time>
      </trkpt>
      <trkpt lat="45.46036" lon="6.29325">
        <ele>365.8</ele>
        <time>2022-07-17T05:03:13Z</time>
      </trkpt>
      <trkpt lat="45.46036" lon="6.29333">
        <ele>365.8</ele>
        <time>2022-07-17T05:03:14Z</time>
      </trkpt>
      <trkpt lat="45.46035" lon="6.2934">
        <ele>365.8</ele>
        <time>2022-07-17T05:03:15Z</time>
      </trkpt>
      <trkpt lat="45.46034" lon="6.29348">
        <ele>365.8</ele>
        <time>2022-07-17T05:03:16Z</time>
      </trkpt>
      <trkpt lat="45.46032" lon="6.29357">
        <ele>365.8</ele>
        <time>2022-07-17T05:03:17Z</time>
      </trkpt>
      <trkpt lat="45.4603" lon="6.29366">
        <ele>365.6</ele>
        <time>2022-07-17T05:03:18Z</time>
      </trkpt>
      <trkpt lat="45.46026" lon="6.29374">
        <ele>365.4</ele>
        <time>2022-07-17T05:03:19Z</time>
      </trkpt>
      <trkpt lat="45.46021" lon="6.29383">
        <ele>365.2</ele>
        <time>2022-07-17T05:03:20Z</time>
      </trkpt>
      <trkpt lat="45.46016" lon="6.2939">
        <ele>364.8</ele>
        <time>2022-07-17T05:03:21Z</time>
      </trkpt>
      <trkpt lat="45.4601" lon="6.29396">
        <ele>364.4</ele>
        <time>2022-07-17T05:03:22Z</time>
      </trkpt>
      <trkpt lat="45.46003" lon="6.29401">
        <ele>364.2</ele>
        <time>2022-07-17T05:03:23Z</time>
      </trkpt>
      <trkpt lat="45.45995" lon="6.29403">
        <ele>363.8</ele>
        <time>2022-07-17T05:03:24Z</time>
      </trkpt>
      <trkpt lat="45.45988" lon="6.29402">
        <ele>363.6</ele>
        <time>2022-07-17T05:03:25Z</time>
      </trkpt>
      <trkpt lat="45.45981" lon="6.29398">
        <ele>363.2</ele>
        <time>2022-07-17T05:03:26Z</time>
      </trkpt>
      <trkpt lat="45.45975" lon="6.29392">
        <ele>363</ele>
        <time>2022-07-17T05:03:27Z</time>
      </trkpt>
      <trkpt lat="45.4597" lon="6.29385">
        <ele>362.8</ele>
        <time>2022-07-17T05:03:28Z</time>
      </trkpt>
      <trkpt lat="45.45965" lon="6.29378">
        <ele>362.8</ele>
        <time>2022-07-17T05:03:29Z</time>
      </trkpt>
      <trkpt lat="45.45959" lon="6.29372">
        <ele>362.8</ele>
        <time>2022-07-17T05:03:30Z</time>
      </trkpt>
      <trkpt lat="45.45954" lon="6.29366">
        <ele>362.8</ele>
        <time>2022-07-17T05:03:31Z</time>
      </trkpt>
      <trkpt lat="45.45948" lon="6.2936">
        <ele>362.8</ele>
        <time>2022-07-17T05:03:32Z</time>
      </trkpt>
      <trkpt lat="45.45942" lon="6.29355">
        <ele>362.6</ele>
        <time>2022-07-17T05:03:33Z</time>
      </trkpt>
      <trkpt lat="45.45937" lon="6.29349">
        <ele>362.4</ele>
        <time>2022-07-17T05:03:34Z</time>
      </trkpt>
      <trkpt lat="45.45931" lon="6.29343">
        <ele>362.4</ele>
        <time>2022-07-17T05:03:35Z</time>
      </trkpt>
      <trkpt lat="45.45926" lon="6.29337">
        <ele>362.2</ele>
        <time>2022-07-17T05:03:36Z</time>
      </trkpt>
      <trkpt lat="45.4592" lon="6.29331">
        <ele>362.2</ele>
        <time>2022-07-17T05:03:37Z</time>
      </trkpt>
      <trkpt lat="45.45915" lon="6.29326">
        <ele>362.2</ele>
        <time>2022-07-17T05:03:38Z</time>
      </trkpt>
      <trkpt lat="45.45909" lon="6.29321">
        <ele>361.8</ele>
        <time>2022-07-17T05:03:39Z</time>
      </trkpt>
      <trkpt lat="45.45903" lon="6.29317">
        <ele>361.8</ele>
        <time>2022-07-17T05:03:40Z</time>
      </trkpt>
      <trkpt lat="45.45898" lon="6.29314">
        <ele>361.8</ele>
        <time>2022-07-17T05:03:41Z</time>
      </trkpt>
      <trkpt lat="45.45892" lon="6.29309">
        <ele>361.6</ele>
        <time>2022-07-17T05:03:42Z</time>
      </trkpt>
      <trkpt lat="45.45886" lon="6.29305">
        <ele>361.6</ele>
        <time>2022-07-17T05:03:43Z</time>
      </trkpt>
      <trkpt lat="45.4588" lon="6.29302">
        <ele>361.6</ele>
        <time>2022-07-17T05:03:44Z</time>
      </trkpt>
      <trkpt lat="45.45874" lon="6.293">
        <ele>361.6</ele>
        <time>2022-07-17T05:03:45Z</time>
      </trkpt>
      <trkpt lat="45.45868" lon="6.29298">
        <ele>361.6</ele>
        <time>2022-07-17T05:03:46Z</time>
      </trkpt>
      <trkpt lat="45.45862" lon="6.29297">
        <ele>361.6</ele>
        <time>2022-07-17T05:03:47Z</time>
      </trkpt>
      <trkpt lat="45.45856" lon="6.29295">
        <ele>361.6</ele>
        <time>2022-07-17T05:03:48Z</time>
      </trkpt>
      <trkpt lat="45.4585" lon="6.29294">
        <ele>361.6</ele>
        <time>2022-07-17T05:03:49Z</time>
      </trkpt>
      <trkpt lat="45.45845" lon="6.29292">
        <ele>361.6</ele>
        <time>2022-07-17T05:03:50Z</time>
      </trkpt>
      <trkpt lat="45.45839" lon="6.29292">
        <ele>361.8</ele>
        <time>2022-07-17T05:03:51Z</time>
      </trkpt>
      <trkpt lat="45.45834" lon="6.2929">
        <ele>361.8</ele>
        <time>2022-07-17T05:03:52Z</time>
      </trkpt>
      <trkpt lat="45.45829" lon="6.29288">
        <ele>361.8</ele>
        <time>2022-07-17T05:03:53Z</time>
      </trkpt>
      <trkpt lat="45.45824" lon="6.29285">
        <ele>362</ele>
        <time>2022-07-17T05:03:54Z</time>
      </trkpt>
      <trkpt lat="45.45819" lon="6.29285">
        <ele>362</ele>
        <time>2022-07-17T05:03:55Z</time>
      </trkpt>
      <trkpt lat="45.45815" lon="6.29284">
        <ele>362.4</ele>
        <time>2022-07-17T05:03:56Z</time>
      </trkpt>
      <trkpt lat="45.4581" lon="6.29283">
        <ele>362.4</ele>
        <time>2022-07-17T05:03:57Z</time>
      </trkpt>
      <trkpt lat="45.45805" lon="6.29283">
        <ele>362.6</ele>
        <time>2022-07-17T05:03:58Z</time>
      </trkpt>
      <trkpt lat="45.458" lon="6.29284">
        <ele>363</ele>
        <time>2022-07-17T05:03:59Z</time>
      </trkpt>
      <trkpt lat="45.45795" lon="6.29285">
        <ele>363</ele>
        <time>2022-07-17T05:04:00Z</time>
      </trkpt>
      <trkpt lat="45.45789" lon="6.29287">
        <ele>363.2</ele>
        <time>2022-07-17T05:04:01Z</time>
      </trkpt>
      <trkpt lat="45.45784" lon="6.29288">
        <ele>363.4</ele>
        <time>2022-07-17T05:04:02Z</time>
      </trkpt>
      <trkpt lat="45.45779" lon="6.29289">
        <ele>363.6</ele>
        <time>2022-07-17T05:04:03Z</time>
      </trkpt>
      <trkpt lat="45.45774" lon="6.2929">
        <ele>363.6</ele>
        <time>2022-07-17T05:04:04Z</time>
      </trkpt>
      <trkpt lat="45.45769" lon="6.29291">
        <ele>364</ele>
        <time>2022-07-17T05:04:05Z</time>
      </trkpt>
      <trkpt lat="45.45764" lon="6.29291">
        <ele>364</ele>
        <time>2022-07-17T05:04:06Z</time>
      </trkpt>
      <trkpt lat="45.4576" lon="6.29291">
        <ele>364.4</ele>
        <time>2022-07-17T05:04:07Z</time>
      </trkpt>
      <trkpt lat="45.45755" lon="6.29291">
        <ele>364.4</ele>
        <time>2022-07-17T05:04:08Z</time>
      </trkpt>
      <trkpt lat="45.4575" lon="6.29291">
        <ele>364.8</ele>
        <time>2022-07-17T05:04:09Z</time>
      </trkpt>
      <trkpt lat="45.45745" lon="6.29292">
        <ele>364.8</ele>
        <time>2022-07-17T05:04:10Z</time>
      </trkpt>
      <trkpt lat="45.45739" lon="6.29293">
        <ele>364.8</ele>
        <time>2022-07-17T05:04:11Z</time>
      </trkpt>
      <trkpt lat="45.45734" lon="6.29294">
        <ele>364.8</ele>
        <time>2022-07-17T05:04:12Z</time>
      </trkpt>
      <trkpt lat="45.45728" lon="6.29294">
        <ele>364.8</ele>
        <time>2022-07-17T05:04:13Z</time>
      </trkpt>
      <trkpt lat="45.45723" lon="6.29295">
        <ele>364.8</ele>
        <time>2022-07-17T05:04:14Z</time>
      </trkpt>
      <trkpt lat="45.45716" lon="6.29296">
        <ele>364.8</ele>
        <time>2022-07-17T05:04:15Z</time>
      </trkpt>
      <trkpt lat="45.4571" lon="6.29297">
        <ele>364.4</ele>
        <time>2022-07-17T05:04:16Z</time>
      </trkpt>
      <trkpt lat="45.45703" lon="6.29299">
        <ele>364.4</ele>
        <time>2022-07-17T05:04:17Z</time>
      </trkpt>
      <trkpt lat="45.45697" lon="6.29301">
        <ele>363.8</ele>
        <time>2022-07-17T05:04:19Z</time>
      </trkpt>
      <trkpt lat="45.4569" lon="6.29302">
        <ele>363.6</ele>
        <time>2022-07-17T05:04:20Z</time>
      </trkpt>
      <trkpt lat="45.45677" lon="6.29305">
        <ele>363.6</ele>
        <time>2022-07-17T05:04:21Z</time>
      </trkpt>
      <trkpt lat="45.45671" lon="6.29307">
        <ele>363.2</ele>
        <time>2022-07-17T05:04:22Z</time>
      </trkpt>
      <trkpt lat="45.45664" lon="6.29308">
        <ele>363.2</ele>
        <time>2022-07-17T05:04:23Z</time>
      </trkpt>
      <trkpt lat="45.45658" lon="6.29309">
        <ele>363</ele>
        <time>2022-07-17T05:04:24Z</time>
      </trkpt>
      <trkpt lat="45.45651" lon="6.2931">
        <ele>363</ele>
        <time>2022-07-17T05:04:25Z</time>
      </trkpt>
      <trkpt lat="45.45644" lon="6.29312">
        <ele>362.6</ele>
        <time>2022-07-17T05:04:26Z</time>
      </trkpt>
      <trkpt lat="45.45638" lon="6.29313">
        <ele>362.6</ele>
        <time>2022-07-17T05:04:27Z</time>
      </trkpt>
      <trkpt lat="45.45632" lon="6.29314">
        <ele>362.2</ele>
        <time>2022-07-17T05:04:28Z</time>
      </trkpt>
      <trkpt lat="45.45625" lon="6.29315">
        <ele>362.2</ele>
        <time>2022-07-17T05:04:29Z</time>
      </trkpt>
      <trkpt lat="45.45619" lon="6.29316">
        <ele>362.2</ele>
        <time>2022-07-17T05:04:30Z</time>
      </trkpt>
      <trkpt lat="45.45612" lon="6.29317">
        <ele>362.2</ele>
        <time>2022-07-17T05:04:31Z</time>
      </trkpt>
      <trkpt lat="45.45605" lon="6.29318">
        <ele>362.2</ele>
        <time>2022-07-17T05:04:32Z</time>
      </trkpt>
      <trkpt lat="45.45599" lon="6.29319">
        <ele>362</ele>
        <time>2022-07-17T05:04:33Z</time>
      </trkpt>
      <trkpt lat="45.45593" lon="6.29319">
        <ele>362</ele>
        <time>2022-07-17T05:04:34Z</time>
      </trkpt>
      <trkpt lat="45.45587" lon="6.2932">
        <ele>362</ele>
        <time>2022-07-17T05:04:35Z</time>
      </trkpt>
      <trkpt lat="45.45582" lon="6.29321">
        <ele>362</ele>
        <time>2022-07-17T05:04:36Z</time>
      </trkpt>
      <trkpt lat="45.45576" lon="6.29321">
        <ele>362</ele>
        <time>2022-07-17T05:04:37Z</time>
      </trkpt>
      <trkpt lat="45.4557" lon="6.29322">
        <ele>362</ele>
        <time>2022-07-17T05:04:38Z</time>
      </trkpt>
      <trkpt lat="45.45564" lon="6.29323">
        <ele>362</ele>
        <time>2022-07-17T05:04:39Z</time>
      </trkpt>
      <trkpt lat="45.45558" lon="6.29324">
        <ele>362</ele>
        <time>2022-07-17T05:04:40Z</time>
      </trkpt>
      <trkpt lat="45.45551" lon="6.29325">
        <ele>362</ele>
        <time>2022-07-17T05:04:41Z</time>
      </trkpt>
      <trkpt lat="45.45545" lon="6.29325">
        <ele>362</ele>
        <time>2022-07-17T05:04:42Z</time>
      </trkpt>
      <trkpt lat="45.45539" lon="6.29326">
        <ele>362</ele>
        <time>2022-07-17T05:04:43Z</time>
      </trkpt>
      <trkpt lat="45.45534" lon="6.29327">
        <ele>362</ele>
        <time>2022-07-17T05:04:44Z</time>
      </trkpt>
      <trkpt lat="45.45528" lon="6.29327">
        <ele>362</ele>
        <time>2022-07-17T05:04:45Z</time>
      </trkpt>
      <trkpt lat="45.45522" lon="6.29328">
        <ele>362</ele>
        <time>2022-07-17T05:04:46Z</time>
      </trkpt>
      <trkpt lat="45.45516" lon="6.29328">
        <ele>362</ele>
        <time>2022-07-17T05:04:47Z</time>
      </trkpt>
      <trkpt lat="45.4551" lon="6.29329">
        <ele>362</ele>
        <time>2022-07-17T05:04:48Z</time>
      </trkpt>
      <trkpt lat="45.45505" lon="6.29329">
        <ele>362</ele>
        <time>2022-07-17T05:04:49Z</time>
      </trkpt>
      <trkpt lat="45.45499" lon="6.29329">
        <ele>362</ele>
        <time>2022-07-17T05:04:50Z</time>
      </trkpt>
      <trkpt lat="45.45493" lon="6.29329">
        <ele>362</ele>
        <time>2022-07-17T05:04:51Z</time>
      </trkpt>
      <trkpt lat="45.45487" lon="6.2933">
        <ele>361.8</ele>
        <time>2022-07-17T05:04:52Z</time>
      </trkpt>
      <trkpt lat="45.45481" lon="6.29331">
        <ele>361.8</ele>
        <time>2022-07-17T05:04:53Z</time>
      </trkpt>
      <trkpt lat="45.45476" lon="6.29334">
        <ele>361.8</ele>
        <time>2022-07-17T05:04:54Z</time>
      </trkpt>
      <trkpt lat="45.45471" lon="6.29338">
        <ele>361.8</ele>
        <time>2022-07-17T05:04:55Z</time>
      </trkpt>
      <trkpt lat="45.45466" lon="6.29341">
        <ele>361.8</ele>
        <time>2022-07-17T05:04:56Z</time>
      </trkpt>
      <trkpt lat="45.45461" lon="6.29345">
        <ele>361.8</ele>
        <time>2022-07-17T05:04:57Z</time>
      </trkpt>
      <trkpt lat="45.45457" lon="6.2935">
        <ele>361.8</ele>
        <time>2022-07-17T05:04:58Z</time>
      </trkpt>
      <trkpt lat="45.45452" lon="6.29355">
        <ele>361.8</ele>
        <time>2022-07-17T05:04:59Z</time>
      </trkpt>
      <trkpt lat="45.45448" lon="6.29361">
        <ele>361.8</ele>
        <time>2022-07-17T05:05:00Z</time>
      </trkpt>
      <trkpt lat="45.45444" lon="6.29367">
        <ele>361.8</ele>
        <time>2022-07-17T05:05:01Z</time>
      </trkpt>
      <trkpt lat="45.4544" lon="6.29373">
        <ele>361.8</ele>
        <time>2022-07-17T05:05:02Z</time>
      </trkpt>
      <trkpt lat="45.45435" lon="6.29379">
        <ele>361.8</ele>
        <time>2022-07-17T05:05:03Z</time>
      </trkpt>
      <trkpt lat="45.45432" lon="6.29384">
        <ele>362</ele>
        <time>2022-07-17T05:05:04Z</time>
      </trkpt>
      <trkpt lat="45.45428" lon="6.2939">
        <ele>362</ele>
        <time>2022-07-17T05:05:05Z</time>
      </trkpt>
      <trkpt lat="45.45424" lon="6.29396">
        <ele>362.2</ele>
        <time>2022-07-17T05:05:06Z</time>
      </trkpt>
      <trkpt lat="45.45421" lon="6.29402">
        <ele>362.2</ele>
        <time>2022-07-17T05:05:07Z</time>
      </trkpt>
      <trkpt lat="45.45419" lon="6.29408">
        <ele>362.6</ele>
        <time>2022-07-17T05:05:08Z</time>
      </trkpt>
      <trkpt lat="45.45416" lon="6.29414">
        <ele>362.6</ele>
        <time>2022-07-17T05:05:09Z</time>
      </trkpt>
      <trkpt lat="45.45414" lon="6.29421">
        <ele>362.8</ele>
        <time>2022-07-17T05:05:10Z</time>
      </trkpt>
      <trkpt lat="45.45411" lon="6.29427">
        <ele>363</ele>
        <time>2022-07-17T05:05:11Z</time>
      </trkpt>
      <trkpt lat="45.45409" lon="6.29433">
        <ele>363.2</ele>
        <time>2022-07-17T05:05:12Z</time>
      </trkpt>
      <trkpt lat="45.45406" lon="6.29438">
        <ele>363.4</ele>
        <time>2022-07-17T05:05:13Z</time>
      </trkpt>
      <trkpt lat="45.45403" lon="6.29442">
        <ele>363.8</ele>
        <time>2022-07-17T05:05:14Z</time>
      </trkpt>
      <trkpt lat="45.454" lon="6.29447">
        <ele>364.2</ele>
        <time>2022-07-17T05:05:15Z</time>
      </trkpt>
      <trkpt lat="45.45397" lon="6.29452">
        <ele>364.4</ele>
        <time>2022-07-17T05:05:16Z</time>
      </trkpt>
      <trkpt lat="45.45393" lon="6.29457">
        <ele>364.8</ele>
        <time>2022-07-17T05:05:17Z</time>
      </trkpt>
      <trkpt lat="45.45391" lon="6.29461">
        <ele>365.2</ele>
        <time>2022-07-17T05:05:18Z</time>
      </trkpt>
      <trkpt lat="45.45388" lon="6.29466">
        <ele>365.4</ele>
        <time>2022-07-17T05:05:19Z</time>
      </trkpt>
      <trkpt lat="45.45384" lon="6.29471">
        <ele>365.8</ele>
        <time>2022-07-17T05:05:20Z</time>
      </trkpt>
      <trkpt lat="45.45381" lon="6.29475">
        <ele>366</ele>
        <time>2022-07-17T05:05:21Z</time>
      </trkpt>
      <trkpt lat="45.45377" lon="6.29479">
        <ele>366</ele>
        <time>2022-07-17T05:05:22Z</time>
      </trkpt>
      <trkpt lat="45.45373" lon="6.29483">
        <ele>366.4</ele>
        <time>2022-07-17T05:05:23Z</time>
      </trkpt>
      <trkpt lat="45.45369" lon="6.29486">
        <ele>366.4</ele>
        <time>2022-07-17T05:05:24Z</time>
      </trkpt>
      <trkpt lat="45.45365" lon="6.29489">
        <ele>366.6</ele>
        <time>2022-07-17T05:05:25Z</time>
      </trkpt>
      <trkpt lat="45.45361" lon="6.29493">
        <ele>366.6</ele>
        <time>2022-07-17T05:05:26Z</time>
      </trkpt>
      <trkpt lat="45.45357" lon="6.29496">
        <ele>366.6</ele>
        <time>2022-07-17T05:05:27Z</time>
      </trkpt>
      <trkpt lat="45.45352" lon="6.29498">
        <ele>366.6</ele>
        <time>2022-07-17T05:05:28Z</time>
      </trkpt>
      <trkpt lat="45.45348" lon="6.29499">
        <ele>366.6</ele>
        <time>2022-07-17T05:05:29Z</time>
      </trkpt>
      <trkpt lat="45.45343" lon="6.295">
        <ele>366.6</ele>
        <time>2022-07-17T05:05:30Z</time>
      </trkpt>
      <trkpt lat="45.45337" lon="6.29502">
        <ele>366.4</ele>
        <time>2022-07-17T05:05:31Z</time>
      </trkpt>
      <trkpt lat="45.45331" lon="6.29505">
        <ele>366.4</ele>
        <time>2022-07-17T05:05:32Z</time>
      </trkpt>
      <trkpt lat="45.45324" lon="6.29508">
        <ele>366.4</ele>
        <time>2022-07-17T05:05:33Z</time>
      </trkpt>
      <trkpt lat="45.45316" lon="6.29509">
        <ele>366</ele>
        <time>2022-07-17T05:05:34Z</time>
      </trkpt>
      <trkpt lat="45.45307" lon="6.29508">
        <ele>366</ele>
        <time>2022-07-17T05:05:35Z</time>
      </trkpt>
      <trkpt lat="45.45301" lon="6.29508">
        <ele>365.8</ele>
        <time>2022-07-17T05:05:36Z</time>
      </trkpt>
      <trkpt lat="45.45293" lon="6.29507">
        <ele>365.8</ele>
        <time>2022-07-17T05:05:37Z</time>
      </trkpt>
      <trkpt lat="45.45287" lon="6.29505">
        <ele>365.8</ele>
        <time>2022-07-17T05:05:38Z</time>
      </trkpt>
      <trkpt lat="45.4528" lon="6.29502">
        <ele>365.6</ele>
        <time>2022-07-17T05:05:39Z</time>
      </trkpt>
      <trkpt lat="45.45272" lon="6.295">
        <ele>365.6</ele>
        <time>2022-07-17T05:05:40Z</time>
      </trkpt>
      <trkpt lat="45.45265" lon="6.29499">
        <ele>365.4</ele>
        <time>2022-07-17T05:05:41Z</time>
      </trkpt>
      <trkpt lat="45.45259" lon="6.29496">
        <ele>365.4</ele>
        <time>2022-07-17T05:05:42Z</time>
      </trkpt>
      <trkpt lat="45.45253" lon="6.29492">
        <ele>365.4</ele>
        <time>2022-07-17T05:05:43Z</time>
      </trkpt>
      <trkpt lat="45.45248" lon="6.29487">
        <ele>365</ele>
        <time>2022-07-17T05:05:44Z</time>
      </trkpt>
      <trkpt lat="45.45242" lon="6.29481">
        <ele>365</ele>
        <time>2022-07-17T05:05:45Z</time>
      </trkpt>
      <trkpt lat="45.45238" lon="6.29475">
        <ele>365</ele>
        <time>2022-07-17T05:05:46Z</time>
      </trkpt>
      <trkpt lat="45.45232" lon="6.29469">
        <ele>365</ele>
        <time>2022-07-17T05:05:47Z</time>
      </trkpt>
      <trkpt lat="45.45227" lon="6.29464">
        <ele>365</ele>
        <time>2022-07-17T05:05:48Z</time>
      </trkpt>
      <trkpt lat="45.45221" lon="6.29459">
        <ele>364.6</ele>
        <time>2022-07-17T05:05:49Z</time>
      </trkpt>
      <trkpt lat="45.45216" lon="6.29454">
        <ele>364.6</ele>
        <time>2022-07-17T05:05:50Z</time>
      </trkpt>
      <trkpt lat="45.45211" lon="6.29448">
        <ele>364.4</ele>
        <time>2022-07-17T05:05:51Z</time>
      </trkpt>
      <trkpt lat="45.45205" lon="6.29444">
        <ele>364.4</ele>
        <time>2022-07-17T05:05:52Z</time>
      </trkpt>
      <trkpt lat="45.452" lon="6.2944">
        <ele>364.2</ele>
        <time>2022-07-17T05:05:53Z</time>
      </trkpt>
      <trkpt lat="45.45195" lon="6.29436">
        <ele>363.8</ele>
        <time>2022-07-17T05:05:54Z</time>
      </trkpt>
      <trkpt lat="45.45189" lon="6.29432">
        <ele>363.6</ele>
        <time>2022-07-17T05:05:55Z</time>
      </trkpt>
      <trkpt lat="45.45184" lon="6.29429">
        <ele>363.6</ele>
        <time>2022-07-17T05:05:56Z</time>
      </trkpt>
      <trkpt lat="45.45179" lon="6.29425">
        <ele>363.6</ele>
        <time>2022-07-17T05:05:58Z</time>
      </trkpt>
      <trkpt lat="45.45175" lon="6.29421">
        <ele>363.6</ele>
        <time>2022-07-17T05:05:59Z</time>
      </trkpt>
      <trkpt lat="45.4517" lon="6.29416">
        <ele>363.4</ele>
        <time>2022-07-17T05:06:00Z</time>
      </trkpt>
      <trkpt lat="45.45165" lon="6.29412">
        <ele>363.4</ele>
        <time>2022-07-17T05:06:01Z</time>
      </trkpt>
      <trkpt lat="45.45159" lon="6.29409">
        <ele>363.4</ele>
        <time>2022-07-17T05:06:02Z</time>
      </trkpt>
      <trkpt lat="45.45154" lon="6.29406">
        <ele>363.4</ele>
        <time>2022-07-17T05:06:03Z</time>
      </trkpt>
      <trkpt lat="45.45148" lon="6.29403">
        <ele>363.4</ele>
        <time>2022-07-17T05:06:04Z</time>
      </trkpt>
      <trkpt lat="45.45143" lon="6.294">
        <ele>363.4</ele>
        <time>2022-07-17T05:06:05Z</time>
      </trkpt>
      <trkpt lat="45.45137" lon="6.29396">
        <ele>363.4</ele>
        <time>2022-07-17T05:06:06Z</time>
      </trkpt>
      <trkpt lat="45.45132" lon="6.29392">
        <ele>363.2</ele>
        <time>2022-07-17T05:06:07Z</time>
      </trkpt>
      <trkpt lat="45.45126" lon="6.29388">
        <ele>363.2</ele>
        <time>2022-07-17T05:06:08Z</time>
      </trkpt>
      <trkpt lat="45.4512" lon="6.29384">
        <ele>363.2</ele>
        <time>2022-07-17T05:06:09Z</time>
      </trkpt>
      <trkpt lat="45.45115" lon="6.2938">
        <ele>363.2</ele>
        <time>2022-07-17T05:06:10Z</time>
      </trkpt>
      <trkpt lat="45.4511" lon="6.29376">
        <ele>363.2</ele>
        <time>2022-07-17T05:06:11Z</time>
      </trkpt>
      <trkpt lat="45.45104" lon="6.29371">
        <ele>363.2</ele>
        <time>2022-07-17T05:06:12Z</time>
      </trkpt>
      <trkpt lat="45.45099" lon="6.29367">
        <ele>363.2</ele>
        <time>2022-07-17T05:06:13Z</time>
      </trkpt>
      <trkpt lat="45.45094" lon="6.29363">
        <ele>363.2</ele>
        <time>2022-07-17T05:06:14Z</time>
      </trkpt>
      <trkpt lat="45.45088" lon="6.29359">
        <ele>363.2</ele>
        <time>2022-07-17T05:06:15Z</time>
      </trkpt>
      <trkpt lat="45.45083" lon="6.29354">
        <ele>363.2</ele>
        <time>2022-07-17T05:06:16Z</time>
      </trkpt>
      <trkpt lat="45.45078" lon="6.2935">
        <ele>363.2</ele>
        <time>2022-07-17T05:06:17Z</time>
      </trkpt>
      <trkpt lat="45.45073" lon="6.29345">
        <ele>363.2</ele>
        <time>2022-07-17T05:06:18Z</time>
      </trkpt>
      <trkpt lat="45.45068" lon="6.29341">
        <ele>363.2</ele>
        <time>2022-07-17T05:06:19Z</time>
      </trkpt>
      <trkpt lat="45.45062" lon="6.29337">
        <ele>363.2</ele>
        <time>2022-07-17T05:06:20Z</time>
      </trkpt>
      <trkpt lat="45.45057" lon="6.29333">
        <ele>363.2</ele>
        <time>2022-07-17T05:06:21Z</time>
      </trkpt>
      <trkpt lat="45.45052" lon="6.29329">
        <ele>363.4</ele>
        <time>2022-07-17T05:06:22Z</time>
      </trkpt>
      <trkpt lat="45.45047" lon="6.29326">
        <ele>363.4</ele>
        <time>2022-07-17T05:06:23Z</time>
      </trkpt>
      <trkpt lat="45.45042" lon="6.29323">
        <ele>363.4</ele>
        <time>2022-07-17T05:06:24Z</time>
      </trkpt>
      <trkpt lat="45.45036" lon="6.29321">
        <ele>363.4</ele>
        <time>2022-07-17T05:06:25Z</time>
      </trkpt>
      <trkpt lat="45.4503" lon="6.2932">
        <ele>363.4</ele>
        <time>2022-07-17T05:06:26Z</time>
      </trkpt>
      <trkpt lat="45.45024" lon="6.2932">
        <ele>363.6</ele>
        <time>2022-07-17T05:06:27Z</time>
      </trkpt>
      <trkpt lat="45.45019" lon="6.29321">
        <ele>363.6</ele>
        <time>2022-07-17T05:06:28Z</time>
      </trkpt>
      <trkpt lat="45.45013" lon="6.29323">
        <ele>363.6</ele>
        <time>2022-07-17T05:06:29Z</time>
      </trkpt>
      <trkpt lat="45.45007" lon="6.29325">
        <ele>363.6</ele>
        <time>2022-07-17T05:06:30Z</time>
      </trkpt>
      <trkpt lat="45.45001" lon="6.29326">
        <ele>363.8</ele>
        <time>2022-07-17T05:06:31Z</time>
      </trkpt>
      <trkpt lat="45.44996" lon="6.29328">
        <ele>363.8</ele>
        <time>2022-07-17T05:06:32Z</time>
      </trkpt>
      <trkpt lat="45.44991" lon="6.2933">
        <ele>363.8</ele>
        <time>2022-07-17T05:06:33Z</time>
      </trkpt>
      <trkpt lat="45.44985" lon="6.29331">
        <ele>363.8</ele>
        <time>2022-07-17T05:06:34Z</time>
      </trkpt>
      <trkpt lat="45.44979" lon="6.29333">
        <ele>363.8</ele>
        <time>2022-07-17T05:06:35Z</time>
      </trkpt>
      <trkpt lat="45.44973" lon="6.29334">
        <ele>363.8</ele>
        <time>2022-07-17T05:06:36Z</time>
      </trkpt>
      <trkpt lat="45.44968" lon="6.29336">
        <ele>363.8</ele>
        <time>2022-07-17T05:06:37Z</time>
      </trkpt>
      <trkpt lat="45.44962" lon="6.29337">
        <ele>364</ele>
        <time>2022-07-17T05:06:38Z</time>
      </trkpt>
      <trkpt lat="45.44956" lon="6.29337">
        <ele>364</ele>
        <time>2022-07-17T05:06:39Z</time>
      </trkpt>
      <trkpt lat="45.44951" lon="6.29336">
        <ele>364</ele>
        <time>2022-07-17T05:06:40Z</time>
      </trkpt>
      <trkpt lat="45.44946" lon="6.29334">
        <ele>364</ele>
        <time>2022-07-17T05:06:41Z</time>
      </trkpt>
      <trkpt lat="45.44941" lon="6.29332">
        <ele>364</ele>
        <time>2022-07-17T05:06:42Z</time>
      </trkpt>
      <trkpt lat="45.44936" lon="6.2933">
        <ele>364</ele>
        <time>2022-07-17T05:06:43Z</time>
      </trkpt>
      <trkpt lat="45.44931" lon="6.29331">
        <ele>364</ele>
        <time>2022-07-17T05:06:44Z</time>
      </trkpt>
      <trkpt lat="45.44926" lon="6.29333">
        <ele>364</ele>
        <time>2022-07-17T05:06:45Z</time>
      </trkpt>
      <trkpt lat="45.44921" lon="6.29337">
        <ele>364</ele>
        <time>2022-07-17T05:06:46Z</time>
      </trkpt>
      <trkpt lat="45.44916" lon="6.29341">
        <ele>364</ele>
        <time>2022-07-17T05:06:47Z</time>
      </trkpt>
      <trkpt lat="45.4491" lon="6.29344">
        <ele>364</ele>
        <time>2022-07-17T05:06:48Z</time>
      </trkpt>
      <trkpt lat="45.44904" lon="6.29346">
        <ele>364.4</ele>
        <time>2022-07-17T05:06:49Z</time>
      </trkpt>
      <trkpt lat="45.44898" lon="6.29347">
        <ele>364.4</ele>
        <time>2022-07-17T05:06:50Z</time>
      </trkpt>
      <trkpt lat="45.44891" lon="6.29348">
        <ele>364.4</ele>
        <time>2022-07-17T05:06:51Z</time>
      </trkpt>
      <trkpt lat="45.44885" lon="6.29348">
        <ele>364.6</ele>
        <time>2022-07-17T05:06:52Z</time>
      </trkpt>
      <trkpt lat="45.44879" lon="6.29349">
        <ele>364.6</ele>
        <time>2022-07-17T05:06:53Z</time>
      </trkpt>
      <trkpt lat="45.44872" lon="6.29349">
        <ele>364.6</ele>
        <time>2022-07-17T05:06:54Z</time>
      </trkpt>
      <trkpt lat="45.44866" lon="6.2935">
        <ele>364.6</ele>
        <time>2022-07-17T05:06:55Z</time>
      </trkpt>
      <trkpt lat="45.4486" lon="6.2935">
        <ele>364.8</ele>
        <time>2022-07-17T05:06:56Z</time>
      </trkpt>
      <trkpt lat="45.44854" lon="6.2935">
        <ele>364.8</ele>
        <time>2022-07-17T05:06:57Z</time>
      </trkpt>
      <trkpt lat="45.44848" lon="6.2935">
        <ele>364.8</ele>
        <time>2022-07-17T05:06:58Z</time>
      </trkpt>
      <trkpt lat="45.44842" lon="6.2935">
        <ele>364.8</ele>
        <time>2022-07-17T05:06:59Z</time>
      </trkpt>
      <trkpt lat="45.44836" lon="6.2935">
        <ele>364.8</ele>
        <time>2022-07-17T05:07:00Z</time>
      </trkpt>
      <trkpt lat="45.4483" lon="6.2935">
        <ele>364.8</ele>
        <time>2022-07-17T05:07:01Z</time>
      </trkpt>
      <trkpt lat="45.44825" lon="6.29349">
        <ele>365</ele>
        <time>2022-07-17T05:07:02Z</time>
      </trkpt>
      <trkpt lat="45.44819" lon="6.29348">
        <ele>365.2</ele>
        <time>2022-07-17T05:07:03Z</time>
      </trkpt>
      <trkpt lat="45.44813" lon="6.29347">
        <ele>365.2</ele>
        <time>2022-07-17T05:07:04Z</time>
      </trkpt>
      <trkpt lat="45.44808" lon="6.29345">
        <ele>365.6</ele>
        <time>2022-07-17T05:07:05Z</time>
      </trkpt>
      <trkpt lat="45.44803" lon="6.29343">
        <ele>365.6</ele>
        <time>2022-07-17T05:07:06Z</time>
      </trkpt>
      <trkpt lat="45.44798" lon="6.29341">
        <ele>365.8</ele>
        <time>2022-07-17T05:07:07Z</time>
      </trkpt>
      <trkpt lat="45.44793" lon="6.29338">
        <ele>365.8</ele>
        <time>2022-07-17T05:07:08Z</time>
      </trkpt>
      <trkpt lat="45.44787" lon="6.29335">
        <ele>365.8</ele>
        <time>2022-07-17T05:07:09Z</time>
      </trkpt>
      <trkpt lat="45.44782" lon="6.29332">
        <ele>365.8</ele>
        <time>2022-07-17T05:07:10Z</time>
      </trkpt>
      <trkpt lat="45.44777" lon="6.29328">
        <ele>365.8</ele>
        <time>2022-07-17T05:07:11Z</time>
      </trkpt>
      <trkpt lat="45.44772" lon="6.29324">
        <ele>365.8</ele>
        <time>2022-07-17T05:07:12Z</time>
      </trkpt>
      <trkpt lat="45.44766" lon="6.2932">
        <ele>365.6</ele>
        <time>2022-07-17T05:07:13Z</time>
      </trkpt>
      <trkpt lat="45.4476" lon="6.29316">
        <ele>365.6</ele>
        <time>2022-07-17T05:07:14Z</time>
      </trkpt>
      <trkpt lat="45.44754" lon="6.29312">
        <ele>365.4</ele>
        <time>2022-07-17T05:07:15Z</time>
      </trkpt>
      <trkpt lat="45.44749" lon="6.29308">
        <ele>365.4</ele>
        <time>2022-07-17T05:07:16Z</time>
      </trkpt>
      <trkpt lat="45.44743" lon="6.29304">
        <ele>365.4</ele>
        <time>2022-07-17T05:07:17Z</time>
      </trkpt>
      <trkpt lat="45.44738" lon="6.293">
        <ele>365.2</ele>
        <time>2022-07-17T05:07:18Z</time>
      </trkpt>
      <trkpt lat="45.44733" lon="6.29296">
        <ele>365.2</ele>
        <time>2022-07-17T05:07:19Z</time>
      </trkpt>
      <trkpt lat="45.44727" lon="6.29292">
        <ele>365.2</ele>
        <time>2022-07-17T05:07:20Z</time>
      </trkpt>
      <trkpt lat="45.44722" lon="6.29289">
        <ele>365.2</ele>
        <time>2022-07-17T05:07:21Z</time>
      </trkpt>
      <trkpt lat="45.44717" lon="6.29285">
        <ele>365.2</ele>
        <time>2022-07-17T05:07:22Z</time>
      </trkpt>
      <trkpt lat="45.44711" lon="6.29281">
        <ele>365.2</ele>
        <time>2022-07-17T05:07:23Z</time>
      </trkpt>
      <trkpt lat="45.44706" lon="6.29277">
        <ele>365.2</ele>
        <time>2022-07-17T05:07:24Z</time>
      </trkpt>
      <trkpt lat="45.44701" lon="6.29273">
        <ele>365.2</ele>
        <time>2022-07-17T05:07:25Z</time>
      </trkpt>
      <trkpt lat="45.44695" lon="6.29269">
        <ele>365.2</ele>
        <time>2022-07-17T05:07:26Z</time>
      </trkpt>
      <trkpt lat="45.4469" lon="6.29266">
        <ele>365.2</ele>
        <time>2022-07-17T05:07:27Z</time>
      </trkpt>
      <trkpt lat="45.44685" lon="6.29262">
        <ele>365.2</ele>
        <time>2022-07-17T05:07:28Z</time>
      </trkpt>
      <trkpt lat="45.44679" lon="6.29258">
        <ele>365.2</ele>
        <time>2022-07-17T05:07:29Z</time>
      </trkpt>
      <trkpt lat="45.44674" lon="6.29254">
        <ele>365.2</ele>
        <time>2022-07-17T05:07:30Z</time>
      </trkpt>
      <trkpt lat="45.44669" lon="6.2925">
        <ele>365.2</ele>
        <time>2022-07-17T05:07:31Z</time>
      </trkpt>
      <trkpt lat="45.44664" lon="6.29247">
        <ele>365.2</ele>
        <time>2022-07-17T05:07:32Z</time>
      </trkpt>
      <trkpt lat="45.44659" lon="6.29243">
        <ele>365.2</ele>
        <time>2022-07-17T05:07:33Z</time>
      </trkpt>
      <trkpt lat="45.44654" lon="6.2924">
        <ele>365.2</ele>
        <time>2022-07-17T05:07:34Z</time>
      </trkpt>
      <trkpt lat="45.44649" lon="6.29236">
        <ele>365.2</ele>
        <time>2022-07-17T05:07:35Z</time>
      </trkpt>
      <trkpt lat="45.44644" lon="6.29232">
        <ele>365.2</ele>
        <time>2022-07-17T05:07:36Z</time>
      </trkpt>
      <trkpt lat="45.44639" lon="6.29229">
        <ele>365.2</ele>
        <time>2022-07-17T05:07:37Z</time>
      </trkpt>
      <trkpt lat="45.44633" lon="6.29225">
        <ele>365.2</ele>
        <time>2022-07-17T05:07:38Z</time>
      </trkpt>
      <trkpt lat="45.44628" lon="6.29221">
        <ele>365.2</ele>
        <time>2022-07-17T05:07:39Z</time>
      </trkpt>
      <trkpt lat="45.44623" lon="6.29217">
        <ele>365.2</ele>
        <time>2022-07-17T05:07:40Z</time>
      </trkpt>
      <trkpt lat="45.44618" lon="6.29214">
        <ele>365.2</ele>
        <time>2022-07-17T05:07:41Z</time>
      </trkpt>
      <trkpt lat="45.44613" lon="6.2921">
        <ele>365.2</ele>
        <time>2022-07-17T05:07:42Z</time>
      </trkpt>
      <trkpt lat="45.44608" lon="6.29206">
        <ele>365.2</ele>
        <time>2022-07-17T05:07:43Z</time>
      </trkpt>
      <trkpt lat="45.44603" lon="6.29202">
        <ele>365.2</ele>
        <time>2022-07-17T05:07:44Z</time>
      </trkpt>
      <trkpt lat="45.44597" lon="6.29199">
        <ele>365.2</ele>
        <time>2022-07-17T05:07:45Z</time>
      </trkpt>
      <trkpt lat="45.44592" lon="6.29195">
        <ele>365.2</ele>
        <time>2022-07-17T05:07:46Z</time>
      </trkpt>
      <trkpt lat="45.44587" lon="6.29191">
        <ele>365.2</ele>
        <time>2022-07-17T05:07:47Z</time>
      </trkpt>
      <trkpt lat="45.44582" lon="6.29187">
        <ele>365.2</ele>
        <time>2022-07-17T05:07:48Z</time>
      </trkpt>
      <trkpt lat="45.44577" lon="6.29183">
        <ele>365.2</ele>
        <time>2022-07-17T05:07:49Z</time>
      </trkpt>
      <trkpt lat="45.44571" lon="6.29179">
        <ele>365.2</ele>
        <time>2022-07-17T05:07:50Z</time>
      </trkpt>
      <trkpt lat="45.44566" lon="6.29175">
        <ele>365.2</ele>
        <time>2022-07-17T05:07:51Z</time>
      </trkpt>
      <trkpt lat="45.44561" lon="6.29171">
        <ele>365.2</ele>
        <time>2022-07-17T05:07:52Z</time>
      </trkpt>
      <trkpt lat="45.44556" lon="6.29167">
        <ele>365.4</ele>
        <time>2022-07-17T05:07:53Z</time>
      </trkpt>
      <trkpt lat="45.4455" lon="6.29164">
        <ele>365.4</ele>
        <time>2022-07-17T05:07:54Z</time>
      </trkpt>
      <trkpt lat="45.44545" lon="6.2916">
        <ele>365.4</ele>
        <time>2022-07-17T05:07:55Z</time>
      </trkpt>
      <trkpt lat="45.4454" lon="6.29156">
        <ele>365.4</ele>
        <time>2022-07-17T05:07:56Z</time>
      </trkpt>
      <trkpt lat="45.44535" lon="6.29153">
        <ele>365.6</ele>
        <time>2022-07-17T05:07:57Z</time>
      </trkpt>
      <trkpt lat="45.4453" lon="6.29149">
        <ele>365.6</ele>
        <time>2022-07-17T05:07:58Z</time>
      </trkpt>
      <trkpt lat="45.44524" lon="6.29145">
        <ele>365.6</ele>
        <time>2022-07-17T05:07:59Z</time>
      </trkpt>
      <trkpt lat="45.44519" lon="6.29142">
        <ele>365.6</ele>
        <time>2022-07-17T05:08:00Z</time>
      </trkpt>
      <trkpt lat="45.44514" lon="6.29138">
        <ele>365.8</ele>
        <time>2022-07-17T05:08:01Z</time>
      </trkpt>
      <trkpt lat="45.44509" lon="6.29134">
        <ele>365.8</ele>
        <time>2022-07-17T05:08:02Z</time>
      </trkpt>
      <trkpt lat="45.44504" lon="6.2913">
        <ele>365.8</ele>
        <time>2022-07-17T05:08:03Z</time>
      </trkpt>
      <trkpt lat="45.44499" lon="6.29127">
        <ele>365.8</ele>
        <time>2022-07-17T05:08:04Z</time>
      </trkpt>
      <trkpt lat="45.44494" lon="6.29123">
        <ele>365.8</ele>
        <time>2022-07-17T05:08:05Z</time>
      </trkpt>
      <trkpt lat="45.44489" lon="6.2912">
        <ele>365.8</ele>
        <time>2022-07-17T05:08:06Z</time>
      </trkpt>
      <trkpt lat="45.44484" lon="6.29116">
        <ele>365.8</ele>
        <time>2022-07-17T05:08:07Z</time>
      </trkpt>
      <trkpt lat="45.44479" lon="6.29112">
        <ele>365.8</ele>
        <time>2022-07-17T05:08:08Z</time>
      </trkpt>
      <trkpt lat="45.44474" lon="6.29108">
        <ele>365.8</ele>
        <time>2022-07-17T05:08:09Z</time>
      </trkpt>
      <trkpt lat="45.44469" lon="6.29104">
        <ele>365.8</ele>
        <time>2022-07-17T05:08:10Z</time>
      </trkpt>
      <trkpt lat="45.44464" lon="6.291">
        <ele>365.8</ele>
        <time>2022-07-17T05:08:11Z</time>
      </trkpt>
      <trkpt lat="45.44459" lon="6.29096">
        <ele>365.8</ele>
        <time>2022-07-17T05:08:12Z</time>
      </trkpt>
      <trkpt lat="45.44449" lon="6.29089">
        <ele>365.8</ele>
        <time>2022-07-17T05:08:13Z</time>
      </trkpt>
      <trkpt lat="45.44444" lon="6.29085">
        <ele>365.8</ele>
        <time>2022-07-17T05:08:14Z</time>
      </trkpt>
      <trkpt lat="45.44439" lon="6.29081">
        <ele>365.8</ele>
        <time>2022-07-17T05:08:15Z</time>
      </trkpt>
      <trkpt lat="45.44433" lon="6.29078">
        <ele>365.8</ele>
        <time>2022-07-17T05:08:16Z</time>
      </trkpt>
      <trkpt lat="45.44428" lon="6.29074">
        <ele>365.8</ele>
        <time>2022-07-17T05:08:17Z</time>
      </trkpt>
      <trkpt lat="45.44423" lon="6.2907">
        <ele>366</ele>
        <time>2022-07-17T05:08:18Z</time>
      </trkpt>
      <trkpt lat="45.44418" lon="6.29066">
        <ele>366</ele>
        <time>2022-07-17T05:08:19Z</time>
      </trkpt>
      <trkpt lat="45.44413" lon="6.29062">
        <ele>366</ele>
        <time>2022-07-17T05:08:20Z</time>
      </trkpt>
      <trkpt lat="45.44408" lon="6.29059">
        <ele>366</ele>
        <time>2022-07-17T05:08:21Z</time>
      </trkpt>
      <trkpt lat="45.44403" lon="6.29055">
        <ele>366</ele>
        <time>2022-07-17T05:08:22Z</time>
      </trkpt>
      <trkpt lat="45.44397" lon="6.29052">
        <ele>366</ele>
        <time>2022-07-17T05:08:23Z</time>
      </trkpt>
      <trkpt lat="45.44392" lon="6.29048">
        <ele>366</ele>
        <time>2022-07-17T05:08:24Z</time>
      </trkpt>
      <trkpt lat="45.44387" lon="6.29044">
        <ele>366</ele>
        <time>2022-07-17T05:08:25Z</time>
      </trkpt>
      <trkpt lat="45.44382" lon="6.29041">
        <ele>366</ele>
        <time>2022-07-17T05:08:26Z</time>
      </trkpt>
      <trkpt lat="45.44377" lon="6.29038">
        <ele>366</ele>
        <time>2022-07-17T05:08:27Z</time>
      </trkpt>
      <trkpt lat="45.44371" lon="6.29034">
        <ele>366</ele>
        <time>2022-07-17T05:08:28Z</time>
      </trkpt>
      <trkpt lat="45.44366" lon="6.2903">
        <ele>366</ele>
        <time>2022-07-17T05:08:29Z</time>
      </trkpt>
      <trkpt lat="45.44361" lon="6.29026">
        <ele>366</ele>
        <time>2022-07-17T05:08:30Z</time>
      </trkpt>
      <trkpt lat="45.44356" lon="6.29022">
        <ele>366</ele>
        <time>2022-07-17T05:08:31Z</time>
      </trkpt>
      <trkpt lat="45.4435" lon="6.29019">
        <ele>366</ele>
        <time>2022-07-17T05:08:32Z</time>
      </trkpt>
      <trkpt lat="45.44345" lon="6.29015">
        <ele>366</ele>
        <time>2022-07-17T05:08:33Z</time>
      </trkpt>
      <trkpt lat="45.4434" lon="6.29012">
        <ele>366.4</ele>
        <time>2022-07-17T05:08:34Z</time>
      </trkpt>
      <trkpt lat="45.44335" lon="6.29008">
        <ele>366.4</ele>
        <time>2022-07-17T05:08:35Z</time>
      </trkpt>
      <trkpt lat="45.4433" lon="6.29004">
        <ele>366.4</ele>
        <time>2022-07-17T05:08:36Z</time>
      </trkpt>
      <trkpt lat="45.44325" lon="6.29">
        <ele>366.4</ele>
        <time>2022-07-17T05:08:37Z</time>
      </trkpt>
      <trkpt lat="45.4432" lon="6.28996">
        <ele>366.4</ele>
        <time>2022-07-17T05:08:38Z</time>
      </trkpt>
      <trkpt lat="45.44315" lon="6.28993">
        <ele>366.6</ele>
        <time>2022-07-17T05:08:39Z</time>
      </trkpt>
      <trkpt lat="45.4431" lon="6.28989">
        <ele>366.6</ele>
        <time>2022-07-17T05:08:40Z</time>
      </trkpt>
      <trkpt lat="45.44305" lon="6.28985">
        <ele>366.6</ele>
        <time>2022-07-17T05:08:41Z</time>
      </trkpt>
      <trkpt lat="45.443" lon="6.28981">
        <ele>366.6</ele>
        <time>2022-07-17T05:08:42Z</time>
      </trkpt>
      <trkpt lat="45.44295" lon="6.28977">
        <ele>366.6</ele>
        <time>2022-07-17T05:08:43Z</time>
      </trkpt>
      <trkpt lat="45.4429" lon="6.28973">
        <ele>366.6</ele>
        <time>2022-07-17T05:08:44Z</time>
      </trkpt>
      <trkpt lat="45.44285" lon="6.28969">
        <ele>367</ele>
        <time>2022-07-17T05:08:45Z</time>
      </trkpt>
      <trkpt lat="45.44279" lon="6.28965">
        <ele>367</ele>
        <time>2022-07-17T05:08:46Z</time>
      </trkpt>
      <trkpt lat="45.44274" lon="6.28961">
        <ele>367</ele>
        <time>2022-07-17T05:08:47Z</time>
      </trkpt>
      <trkpt lat="45.44269" lon="6.28957">
        <ele>367</ele>
        <time>2022-07-17T05:08:48Z</time>
      </trkpt>
      <trkpt lat="45.44264" lon="6.28954">
        <ele>367</ele>
        <time>2022-07-17T05:08:49Z</time>
      </trkpt>
      <trkpt lat="45.44259" lon="6.2895">
        <ele>367</ele>
        <time>2022-07-17T05:08:50Z</time>
      </trkpt>
      <trkpt lat="45.44253" lon="6.28947">
        <ele>367</ele>
        <time>2022-07-17T05:08:51Z</time>
      </trkpt>
      <trkpt lat="45.44248" lon="6.28943">
        <ele>367</ele>
        <time>2022-07-17T05:08:52Z</time>
      </trkpt>
      <trkpt lat="45.44243" lon="6.2894">
        <ele>367</ele>
        <time>2022-07-17T05:08:53Z</time>
      </trkpt>
      <trkpt lat="45.44237" lon="6.28936">
        <ele>367</ele>
        <time>2022-07-17T05:08:54Z</time>
      </trkpt>
      <trkpt lat="45.44232" lon="6.28931">
        <ele>367</ele>
        <time>2022-07-17T05:08:55Z</time>
      </trkpt>
      <trkpt lat="45.44226" lon="6.28927">
        <ele>367</ele>
        <time>2022-07-17T05:08:56Z</time>
      </trkpt>
      <trkpt lat="45.44221" lon="6.28923">
        <ele>367</ele>
        <time>2022-07-17T05:08:57Z</time>
      </trkpt>
      <trkpt lat="45.44215" lon="6.28919">
        <ele>366.8</ele>
        <time>2022-07-17T05:08:58Z</time>
      </trkpt>
      <trkpt lat="45.4421" lon="6.28915">
        <ele>366.8</ele>
        <time>2022-07-17T05:08:59Z</time>
      </trkpt>
      <trkpt lat="45.44204" lon="6.2891">
        <ele>366.8</ele>
        <time>2022-07-17T05:09:00Z</time>
      </trkpt>
      <trkpt lat="45.44199" lon="6.28906">
        <ele>366.8</ele>
        <time>2022-07-17T05:09:01Z</time>
      </trkpt>
      <trkpt lat="45.44194" lon="6.28902">
        <ele>366.8</ele>
        <time>2022-07-17T05:09:02Z</time>
      </trkpt>
      <trkpt lat="45.44188" lon="6.28897">
        <ele>366.8</ele>
        <time>2022-07-17T05:09:03Z</time>
      </trkpt>
      <trkpt lat="45.44183" lon="6.28893">
        <ele>366.8</ele>
        <time>2022-07-17T05:09:04Z</time>
      </trkpt>
      <trkpt lat="45.44177" lon="6.28889">
        <ele>366.8</ele>
        <time>2022-07-17T05:09:05Z</time>
      </trkpt>
      <trkpt lat="45.44172" lon="6.28885">
        <ele>366.8</ele>
        <time>2022-07-17T05:09:06Z</time>
      </trkpt>
      <trkpt lat="45.44167" lon="6.28881">
        <ele>366.8</ele>
        <time>2022-07-17T05:09:07Z</time>
      </trkpt>
      <trkpt lat="45.44162" lon="6.28878">
        <ele>366.8</ele>
        <time>2022-07-17T05:09:08Z</time>
      </trkpt>
      <trkpt lat="45.44156" lon="6.28873">
        <ele>366.8</ele>
        <time>2022-07-17T05:09:09Z</time>
      </trkpt>
      <trkpt lat="45.44151" lon="6.28869">
        <ele>366.8</ele>
        <time>2022-07-17T05:09:10Z</time>
      </trkpt>
      <trkpt lat="45.44146" lon="6.28865">
        <ele>366.8</ele>
        <time>2022-07-17T05:09:11Z</time>
      </trkpt>
      <trkpt lat="45.4414" lon="6.28862">
        <ele>366.8</ele>
        <time>2022-07-17T05:09:12Z</time>
      </trkpt>
      <trkpt lat="45.44135" lon="6.28858">
        <ele>366.8</ele>
        <time>2022-07-17T05:09:13Z</time>
      </trkpt>
      <trkpt lat="45.4413" lon="6.28854">
        <ele>366.8</ele>
        <time>2022-07-17T05:09:14Z</time>
      </trkpt>
      <trkpt lat="45.44125" lon="6.2885">
        <ele>366.8</ele>
        <time>2022-07-17T05:09:15Z</time>
      </trkpt>
      <trkpt lat="45.44119" lon="6.28846">
        <ele>366.8</ele>
        <time>2022-07-17T05:09:16Z</time>
      </trkpt>
      <trkpt lat="45.44114" lon="6.28842">
        <ele>366.8</ele>
        <time>2022-07-17T05:09:17Z</time>
      </trkpt>
      <trkpt lat="45.44109" lon="6.28838">
        <ele>366.8</ele>
        <time>2022-07-17T05:09:18Z</time>
      </trkpt>
      <trkpt lat="45.44104" lon="6.28834">
        <ele>366.8</ele>
        <time>2022-07-17T05:09:19Z</time>
      </trkpt>
      <trkpt lat="45.44099" lon="6.2883">
        <ele>367</ele>
        <time>2022-07-17T05:09:20Z</time>
      </trkpt>
      <trkpt lat="45.44094" lon="6.28826">
        <ele>367</ele>
        <time>2022-07-17T05:09:21Z</time>
      </trkpt>
      <trkpt lat="45.44088" lon="6.28823">
        <ele>367</ele>
        <time>2022-07-17T05:09:22Z</time>
      </trkpt>
      <trkpt lat="45.44083" lon="6.28819">
        <ele>367</ele>
        <time>2022-07-17T05:09:23Z</time>
      </trkpt>
      <trkpt lat="45.44078" lon="6.28815">
        <ele>367.2</ele>
        <time>2022-07-17T05:09:24Z</time>
      </trkpt>
      <trkpt lat="45.44072" lon="6.28811">
        <ele>367.2</ele>
        <time>2022-07-17T05:09:25Z</time>
      </trkpt>
      <trkpt lat="45.44067" lon="6.28807">
        <ele>367.2</ele>
        <time>2022-07-17T05:09:26Z</time>
      </trkpt>
      <trkpt lat="45.44062" lon="6.28803">
        <ele>367.2</ele>
        <time>2022-07-17T05:09:27Z</time>
      </trkpt>
      <trkpt lat="45.44056" lon="6.28799">
        <ele>367.2</ele>
        <time>2022-07-17T05:09:28Z</time>
      </trkpt>
      <trkpt lat="45.44051" lon="6.28795">
        <ele>367.2</ele>
        <time>2022-07-17T05:09:29Z</time>
      </trkpt>
      <trkpt lat="45.44046" lon="6.28791">
        <ele>367.2</ele>
        <time>2022-07-17T05:09:30Z</time>
      </trkpt>
      <trkpt lat="45.4404" lon="6.28787">
        <ele>367.4</ele>
        <time>2022-07-17T05:09:31Z</time>
      </trkpt>
      <trkpt lat="45.44035" lon="6.28783">
        <ele>367.4</ele>
        <time>2022-07-17T05:09:32Z</time>
      </trkpt>
      <trkpt lat="45.4403" lon="6.28779">
        <ele>367.4</ele>
        <time>2022-07-17T05:09:33Z</time>
      </trkpt>
      <trkpt lat="45.44025" lon="6.28775">
        <ele>367.4</ele>
        <time>2022-07-17T05:09:34Z</time>
      </trkpt>
      <trkpt lat="45.44019" lon="6.28771">
        <ele>367.6</ele>
        <time>2022-07-17T05:09:35Z</time>
      </trkpt>
      <trkpt lat="45.44014" lon="6.28767">
        <ele>367.6</ele>
        <time>2022-07-17T05:09:36Z</time>
      </trkpt>
      <trkpt lat="45.44009" lon="6.28764">
        <ele>367.6</ele>
        <time>2022-07-17T05:09:37Z</time>
      </trkpt>
      <trkpt lat="45.44003" lon="6.2876">
        <ele>367.6</ele>
        <time>2022-07-17T05:09:38Z</time>
      </trkpt>
      <trkpt lat="45.43998" lon="6.28755">
        <ele>368</ele>
        <time>2022-07-17T05:09:39Z</time>
      </trkpt>
      <trkpt lat="45.43992" lon="6.2875">
        <ele>368</ele>
        <time>2022-07-17T05:09:40Z</time>
      </trkpt>
      <trkpt lat="45.43986" lon="6.28746">
        <ele>368</ele>
        <time>2022-07-17T05:09:41Z</time>
      </trkpt>
      <trkpt lat="45.4398" lon="6.28741">
        <ele>368.4</ele>
        <time>2022-07-17T05:09:42Z</time>
      </trkpt>
      <trkpt lat="45.43975" lon="6.28738">
        <ele>368.4</ele>
        <time>2022-07-17T05:09:43Z</time>
      </trkpt>
      <trkpt lat="45.4397" lon="6.28734">
        <ele>368.6</ele>
        <time>2022-07-17T05:09:44Z</time>
      </trkpt>
      <trkpt lat="45.43964" lon="6.2873">
        <ele>368.6</ele>
        <time>2022-07-17T05:09:45Z</time>
      </trkpt>
      <trkpt lat="45.43959" lon="6.28727">
        <ele>368.6</ele>
        <time>2022-07-17T05:09:46Z</time>
      </trkpt>
      <trkpt lat="45.43954" lon="6.28723">
        <ele>368.6</ele>
        <time>2022-07-17T05:09:47Z</time>
      </trkpt>
      <trkpt lat="45.43949" lon="6.2872">
        <ele>368.6</ele>
        <time>2022-07-17T05:09:48Z</time>
      </trkpt>
      <trkpt lat="45.43943" lon="6.28717">
        <ele>368.6</ele>
        <time>2022-07-17T05:09:49Z</time>
      </trkpt>
      <trkpt lat="45.43937" lon="6.28714">
        <ele>368.6</ele>
        <time>2022-07-17T05:09:50Z</time>
      </trkpt>
      <trkpt lat="45.43932" lon="6.28711">
        <ele>368.6</ele>
        <time>2022-07-17T05:09:51Z</time>
      </trkpt>
      <trkpt lat="45.43926" lon="6.28708">
        <ele>368.6</ele>
        <time>2022-07-17T05:09:52Z</time>
      </trkpt>
      <trkpt lat="45.43921" lon="6.28704">
        <ele>368.6</ele>
        <time>2022-07-17T05:09:53Z</time>
      </trkpt>
      <trkpt lat="45.43915" lon="6.28701">
        <ele>368.8</ele>
        <time>2022-07-17T05:09:54Z</time>
      </trkpt>
      <trkpt lat="45.43909" lon="6.28698">
        <ele>368.8</ele>
        <time>2022-07-17T05:09:55Z</time>
      </trkpt>
      <trkpt lat="45.43903" lon="6.28694">
        <ele>368.8</ele>
        <time>2022-07-17T05:09:56Z</time>
      </trkpt>
      <trkpt lat="45.43897" lon="6.2869">
        <ele>368.8</ele>
        <time>2022-07-17T05:09:57Z</time>
      </trkpt>
      <trkpt lat="45.43892" lon="6.28686">
        <ele>368.8</ele>
        <time>2022-07-17T05:09:58Z</time>
      </trkpt>
      <trkpt lat="45.43887" lon="6.28682">
        <ele>368.8</ele>
        <time>2022-07-17T05:09:59Z</time>
      </trkpt>
      <trkpt lat="45.43881" lon="6.28678">
        <ele>368.8</ele>
        <time>2022-07-17T05:10:00Z</time>
      </trkpt>
      <trkpt lat="45.43876" lon="6.28674">
        <ele>368.8</ele>
        <time>2022-07-17T05:10:01Z</time>
      </trkpt>
      <trkpt lat="45.43871" lon="6.2867">
        <ele>368.8</ele>
        <time>2022-07-17T05:10:02Z</time>
      </trkpt>
      <trkpt lat="45.43866" lon="6.28666">
        <ele>368.8</ele>
        <time>2022-07-17T05:10:03Z</time>
      </trkpt>
      <trkpt lat="45.43861" lon="6.28661">
        <ele>368.8</ele>
        <time>2022-07-17T05:10:04Z</time>
      </trkpt>
      <trkpt lat="45.43856" lon="6.28657">
        <ele>368.8</ele>
        <time>2022-07-17T05:10:05Z</time>
      </trkpt>
      <trkpt lat="45.43851" lon="6.28653">
        <ele>368.8</ele>
        <time>2022-07-17T05:10:06Z</time>
      </trkpt>
      <trkpt lat="45.43845" lon="6.28649">
        <ele>368.8</ele>
        <time>2022-07-17T05:10:07Z</time>
      </trkpt>
      <trkpt lat="45.4384" lon="6.28644">
        <ele>368.8</ele>
        <time>2022-07-17T05:10:08Z</time>
      </trkpt>
      <trkpt lat="45.43835" lon="6.2864">
        <ele>368.8</ele>
        <time>2022-07-17T05:10:09Z</time>
      </trkpt>
      <trkpt lat="45.4383" lon="6.28635">
        <ele>368.8</ele>
        <time>2022-07-17T05:10:10Z</time>
      </trkpt>
      <trkpt lat="45.43825" lon="6.28631">
        <ele>368.8</ele>
        <time>2022-07-17T05:10:11Z</time>
      </trkpt>
      <trkpt lat="45.4382" lon="6.28627">
        <ele>368.8</ele>
        <time>2022-07-17T05:10:12Z</time>
      </trkpt>
      <trkpt lat="45.43815" lon="6.28622">
        <ele>368.8</ele>
        <time>2022-07-17T05:10:13Z</time>
      </trkpt>
      <trkpt lat="45.4381" lon="6.28618">
        <ele>368.8</ele>
        <time>2022-07-17T05:10:14Z</time>
      </trkpt>
      <trkpt lat="45.43805" lon="6.28614">
        <ele>369</ele>
        <time>2022-07-17T05:10:15Z</time>
      </trkpt>
      <trkpt lat="45.438" lon="6.2861">
        <ele>369</ele>
        <time>2022-07-17T05:10:16Z</time>
      </trkpt>
      <trkpt lat="45.43795" lon="6.28606">
        <ele>369.2</ele>
        <time>2022-07-17T05:10:17Z</time>
      </trkpt>
      <trkpt lat="45.4379" lon="6.28602">
        <ele>369.2</ele>
        <time>2022-07-17T05:10:18Z</time>
      </trkpt>
      <trkpt lat="45.43785" lon="6.28599">
        <ele>369.4</ele>
        <time>2022-07-17T05:10:19Z</time>
      </trkpt>
      <trkpt lat="45.43781" lon="6.28595">
        <ele>369.4</ele>
        <time>2022-07-17T05:10:20Z</time>
      </trkpt>
      <trkpt lat="45.43776" lon="6.28592">
        <ele>369.6</ele>
        <time>2022-07-17T05:10:21Z</time>
      </trkpt>
      <trkpt lat="45.43771" lon="6.28588">
        <ele>369.6</ele>
        <time>2022-07-17T05:10:22Z</time>
      </trkpt>
      <trkpt lat="45.43766" lon="6.28585">
        <ele>369.6</ele>
        <time>2022-07-17T05:10:23Z</time>
      </trkpt>
      <trkpt lat="45.43761" lon="6.28582">
        <ele>369.6</ele>
        <time>2022-07-17T05:10:24Z</time>
      </trkpt>
      <trkpt lat="45.43756" lon="6.28578">
        <ele>369.8</ele>
        <time>2022-07-17T05:10:25Z</time>
      </trkpt>
      <trkpt lat="45.43751" lon="6.28575">
        <ele>369.8</ele>
        <time>2022-07-17T05:10:26Z</time>
      </trkpt>
      <trkpt lat="45.43746" lon="6.28573">
        <ele>370.2</ele>
        <time>2022-07-17T05:10:27Z</time>
      </trkpt>
      <trkpt lat="45.4374" lon="6.2857">
        <ele>370.2</ele>
        <time>2022-07-17T05:10:28Z</time>
      </trkpt>
      <trkpt lat="45.43735" lon="6.28568">
        <ele>370.6</ele>
        <time>2022-07-17T05:10:29Z</time>
      </trkpt>
      <trkpt lat="45.4373" lon="6.28565">
        <ele>370.6</ele>
        <time>2022-07-17T05:10:30Z</time>
      </trkpt>
      <trkpt lat="45.43725" lon="6.28563">
        <ele>370.6</ele>
        <time>2022-07-17T05:10:31Z</time>
      </trkpt>
      <trkpt lat="45.4372" lon="6.2856">
        <ele>370.6</ele>
        <time>2022-07-17T05:10:32Z</time>
      </trkpt>
      <trkpt lat="45.43714" lon="6.28558">
        <ele>371</ele>
        <time>2022-07-17T05:10:33Z</time>
      </trkpt>
      <trkpt lat="45.43709" lon="6.28556">
        <ele>371</ele>
        <time>2022-07-17T05:10:34Z</time>
      </trkpt>
      <trkpt lat="45.43704" lon="6.28554">
        <ele>371</ele>
        <time>2022-07-17T05:10:35Z</time>
      </trkpt>
      <trkpt lat="45.43699" lon="6.28552">
        <ele>371.2</ele>
        <time>2022-07-17T05:10:36Z</time>
      </trkpt>
      <trkpt lat="45.43694" lon="6.2855">
        <ele>371.2</ele>
        <time>2022-07-17T05:10:37Z</time>
      </trkpt>
      <trkpt lat="45.43689" lon="6.28548">
        <ele>371.6</ele>
        <time>2022-07-17T05:10:38Z</time>
      </trkpt>
      <trkpt lat="45.43684" lon="6.28547">
        <ele>371.6</ele>
        <time>2022-07-17T05:10:39Z</time>
      </trkpt>
      <trkpt lat="45.43679" lon="6.28545">
        <ele>371.8</ele>
        <time>2022-07-17T05:10:40Z</time>
      </trkpt>
      <trkpt lat="45.43674" lon="6.28543">
        <ele>371.8</ele>
        <time>2022-07-17T05:10:41Z</time>
      </trkpt>
      <trkpt lat="45.4367" lon="6.28541">
        <ele>372</ele>
        <time>2022-07-17T05:10:42Z</time>
      </trkpt>
      <trkpt lat="45.43665" lon="6.28539">
        <ele>372.4</ele>
        <time>2022-07-17T05:10:43Z</time>
      </trkpt>
      <trkpt lat="45.43661" lon="6.28537">
        <ele>372.4</ele>
        <time>2022-07-17T05:10:44Z</time>
      </trkpt>
      <trkpt lat="45.43657" lon="6.28535">
        <ele>372.6</ele>
        <time>2022-07-17T05:10:45Z</time>
      </trkpt>
      <trkpt lat="45.43653" lon="6.28534">
        <ele>372.8</ele>
        <time>2022-07-17T05:10:46Z</time>
      </trkpt>
      <trkpt lat="45.43649" lon="6.28532">
        <ele>373</ele>
        <time>2022-07-17T05:10:47Z</time>
      </trkpt>
      <trkpt lat="45.43645" lon="6.2853">
        <ele>373.4</ele>
        <time>2022-07-17T05:10:48Z</time>
      </trkpt>
      <trkpt lat="45.43641" lon="6.28528">
        <ele>373.4</ele>
        <time>2022-07-17T05:10:49Z</time>
      </trkpt>
      <trkpt lat="45.43637" lon="6.28526">
        <ele>373.6</ele>
        <time>2022-07-17T05:10:50Z</time>
      </trkpt>
      <trkpt lat="45.43634" lon="6.28525">
        <ele>374</ele>
        <time>2022-07-17T05:10:51Z</time>
      </trkpt>
      <trkpt lat="45.4363" lon="6.28524">
        <ele>374</ele>
        <time>2022-07-17T05:10:52Z</time>
      </trkpt>
      <trkpt lat="45.43627" lon="6.28523">
        <ele>374.4</ele>
        <time>2022-07-17T05:10:53Z</time>
      </trkpt>
      <trkpt lat="45.43623" lon="6.28522">
        <ele>374.6</ele>
        <time>2022-07-17T05:10:54Z</time>
      </trkpt>
      <trkpt lat="45.4362" lon="6.28521">
        <ele>374.8</ele>
        <time>2022-07-17T05:10:55Z</time>
      </trkpt>
      <trkpt lat="45.43616" lon="6.2852">
        <ele>375</ele>
        <time>2022-07-17T05:10:56Z</time>
      </trkpt>
      <trkpt lat="45.43613" lon="6.28519">
        <ele>375.2</ele>
        <time>2022-07-17T05:10:57Z</time>
      </trkpt>
      <trkpt lat="45.43609" lon="6.28518">
        <ele>375.6</ele>
        <time>2022-07-17T05:10:58Z</time>
      </trkpt>
      <trkpt lat="45.43606" lon="6.28517">
        <ele>375.6</ele>
        <time>2022-07-17T05:10:59Z</time>
      </trkpt>
      <trkpt lat="45.43602" lon="6.28516">
        <ele>376</ele>
        <time>2022-07-17T05:11:00Z</time>
      </trkpt>
      <trkpt lat="45.43599" lon="6.28516">
        <ele>376.2</ele>
        <time>2022-07-17T05:11:01Z</time>
      </trkpt>
      <trkpt lat="45.43595" lon="6.28515">
        <ele>376.4</ele>
        <time>2022-07-17T05:11:02Z</time>
      </trkpt>
      <trkpt lat="45.43592" lon="6.28514">
        <ele>376.8</ele>
        <time>2022-07-17T05:11:03Z</time>
      </trkpt>
      <trkpt lat="45.43589" lon="6.28513">
        <ele>377</ele>
        <time>2022-07-17T05:11:04Z</time>
      </trkpt>
      <trkpt lat="45.43585" lon="6.28512">
        <ele>377.2</ele>
        <time>2022-07-17T05:11:05Z</time>
      </trkpt>
      <trkpt lat="45.43582" lon="6.28512">
        <ele>377.2</ele>
        <time>2022-07-17T05:11:06Z</time>
      </trkpt>
      <trkpt lat="45.43579" lon="6.28511">
        <ele>377.6</ele>
        <time>2022-07-17T05:11:07Z</time>
      </trkpt>
      <trkpt lat="45.43576" lon="6.2851">
        <ele>378</ele>
        <time>2022-07-17T05:11:08Z</time>
      </trkpt>
      <trkpt lat="45.43573" lon="6.28509">
        <ele>378.2</ele>
        <time>2022-07-17T05:11:09Z</time>
      </trkpt>
      <trkpt lat="45.4357" lon="6.28509">
        <ele>378.4</ele>
        <time>2022-07-17T05:11:10Z</time>
      </trkpt>
      <trkpt lat="45.43566" lon="6.28508">
        <ele>378.8</ele>
        <time>2022-07-17T05:11:11Z</time>
      </trkpt>
      <trkpt lat="45.43563" lon="6.28508">
        <ele>379</ele>
        <time>2022-07-17T05:11:12Z</time>
      </trkpt>
      <trkpt lat="45.4356" lon="6.28507">
        <ele>379</ele>
        <time>2022-07-17T05:11:13Z</time>
      </trkpt>
      <trkpt lat="45.43557" lon="6.28506">
        <ele>379.4</ele>
        <time>2022-07-17T05:11:14Z</time>
      </trkpt>
      <trkpt lat="45.43554" lon="6.28504">
        <ele>379.4</ele>
        <time>2022-07-17T05:11:15Z</time>
      </trkpt>
      <trkpt lat="45.43552" lon="6.28503">
        <ele>379.8</ele>
        <time>2022-07-17T05:11:16Z</time>
      </trkpt>
      <trkpt lat="45.43549" lon="6.28502">
        <ele>380</ele>
        <time>2022-07-17T05:11:17Z</time>
      </trkpt>
      <trkpt lat="45.43546" lon="6.285">
        <ele>380</ele>
        <time>2022-07-17T05:11:18Z</time>
      </trkpt>
      <trkpt lat="45.43543" lon="6.28499">
        <ele>380.6</ele>
        <time>2022-07-17T05:11:19Z</time>
      </trkpt>
      <trkpt lat="45.43539" lon="6.28498">
        <ele>380.8</ele>
        <time>2022-07-17T05:11:20Z</time>
      </trkpt>
      <trkpt lat="45.43536" lon="6.28498">
        <ele>381</ele>
        <time>2022-07-17T05:11:21Z</time>
      </trkpt>
      <trkpt lat="45.43533" lon="6.28498">
        <ele>381.2</ele>
        <time>2022-07-17T05:11:22Z</time>
      </trkpt>
      <trkpt lat="45.4353" lon="6.28497">
        <ele>381.4</ele>
        <time>2022-07-17T05:11:23Z</time>
      </trkpt>
      <trkpt lat="45.43526" lon="6.28496">
        <ele>381.6</ele>
        <time>2022-07-17T05:11:24Z</time>
      </trkpt>
      <trkpt lat="45.43523" lon="6.28495">
        <ele>381.8</ele>
        <time>2022-07-17T05:11:25Z</time>
      </trkpt>
      <trkpt lat="45.4352" lon="6.28494">
        <ele>382.2</ele>
        <time>2022-07-17T05:11:26Z</time>
      </trkpt>
      <trkpt lat="45.43517" lon="6.28493">
        <ele>382.4</ele>
        <time>2022-07-17T05:11:27Z</time>
      </trkpt>
      <trkpt lat="45.43515" lon="6.28492">
        <ele>382.6</ele>
        <time>2022-07-17T05:11:28Z</time>
      </trkpt>
      <trkpt lat="45.43512" lon="6.28491">
        <ele>383</ele>
        <time>2022-07-17T05:11:29Z</time>
      </trkpt>
      <trkpt lat="45.43509" lon="6.2849">
        <ele>383.2</ele>
        <time>2022-07-17T05:11:30Z</time>
      </trkpt>
      <trkpt lat="45.43507" lon="6.28489">
        <ele>383.4</ele>
        <time>2022-07-17T05:11:31Z</time>
      </trkpt>
      <trkpt lat="45.43504" lon="6.28489">
        <ele>383.6</ele>
        <time>2022-07-17T05:11:32Z</time>
      </trkpt>
      <trkpt lat="45.43501" lon="6.28488">
        <ele>384</ele>
        <time>2022-07-17T05:11:33Z</time>
      </trkpt>
      <trkpt lat="45.43498" lon="6.28488">
        <ele>384.2</ele>
        <time>2022-07-17T05:11:34Z</time>
      </trkpt>
      <trkpt lat="45.43495" lon="6.28487">
        <ele>384.4</ele>
        <time>2022-07-17T05:11:35Z</time>
      </trkpt>
      <trkpt lat="45.43491" lon="6.28487">
        <ele>384.4</ele>
        <time>2022-07-17T05:11:36Z</time>
      </trkpt>
      <trkpt lat="45.43488" lon="6.28487">
        <ele>384.8</ele>
        <time>2022-07-17T05:11:37Z</time>
      </trkpt>
      <trkpt lat="45.43486" lon="6.28486">
        <ele>385</ele>
        <time>2022-07-17T05:11:38Z</time>
      </trkpt>
      <trkpt lat="45.43483" lon="6.28486">
        <ele>385.2</ele>
        <time>2022-07-17T05:11:39Z</time>
      </trkpt>
      <trkpt lat="45.4348" lon="6.28486">
        <ele>385.6</ele>
        <time>2022-07-17T05:11:40Z</time>
      </trkpt>
      <trkpt lat="45.43477" lon="6.28486">
        <ele>385.8</ele>
        <time>2022-07-17T05:11:41Z</time>
      </trkpt>
      <trkpt lat="45.43474" lon="6.28485">
        <ele>386</ele>
        <time>2022-07-17T05:11:42Z</time>
      </trkpt>
      <trkpt lat="45.43471" lon="6.28484">
        <ele>386</ele>
        <time>2022-07-17T05:11:43Z</time>
      </trkpt>
      <trkpt lat="45.43468" lon="6.28483">
        <ele>386.2</ele>
        <time>2022-07-17T05:11:44Z</time>
      </trkpt>
      <trkpt lat="45.43465" lon="6.28482">
        <ele>386.4</ele>
        <time>2022-07-17T05:11:45Z</time>
      </trkpt>
      <trkpt lat="45.43462" lon="6.2848">
        <ele>386.8</ele>
        <time>2022-07-17T05:11:46Z</time>
      </trkpt>
      <trkpt lat="45.43459" lon="6.28478">
        <ele>387</ele>
        <time>2022-07-17T05:11:47Z</time>
      </trkpt>
      <trkpt lat="45.43456" lon="6.28476">
        <ele>387.2</ele>
        <time>2022-07-17T05:11:48Z</time>
      </trkpt>
      <trkpt lat="45.43453" lon="6.28474">
        <ele>387.4</ele>
        <time>2022-07-17T05:11:49Z</time>
      </trkpt>
      <trkpt lat="45.43451" lon="6.28472">
        <ele>387.4</ele>
        <time>2022-07-17T05:11:50Z</time>
      </trkpt>
      <trkpt lat="45.43448" lon="6.28469">
        <ele>388</ele>
        <time>2022-07-17T05:11:51Z</time>
      </trkpt>
      <trkpt lat="45.43445" lon="6.28467">
        <ele>388.2</ele>
        <time>2022-07-17T05:11:52Z</time>
      </trkpt>
      <trkpt lat="45.43442" lon="6.28465">
        <ele>388.4</ele>
        <time>2022-07-17T05:11:53Z</time>
      </trkpt>
      <trkpt lat="45.43439" lon="6.28463">
        <ele>388.8</ele>
        <time>2022-07-17T05:11:54Z</time>
      </trkpt>
      <trkpt lat="45.43437" lon="6.2846">
        <ele>389</ele>
        <time>2022-07-17T05:11:55Z</time>
      </trkpt>
      <trkpt lat="45.43434" lon="6.28458">
        <ele>389.4</ele>
        <time>2022-07-17T05:11:56Z</time>
      </trkpt>
      <trkpt lat="45.43431" lon="6.28455">
        <ele>389.6</ele>
        <time>2022-07-17T05:11:57Z</time>
      </trkpt>
      <trkpt lat="45.43428" lon="6.28452">
        <ele>389.8</ele>
        <time>2022-07-17T05:11:58Z</time>
      </trkpt>
      <trkpt lat="45.43425" lon="6.28449">
        <ele>390.2</ele>
        <time>2022-07-17T05:11:59Z</time>
      </trkpt>
      <trkpt lat="45.43422" lon="6.28446">
        <ele>390.2</ele>
        <time>2022-07-17T05:12:00Z</time>
      </trkpt>
      <trkpt lat="45.43419" lon="6.28443">
        <ele>390.4</ele>
        <time>2022-07-17T05:12:01Z</time>
      </trkpt>
      <trkpt lat="45.43416" lon="6.2844">
        <ele>390.4</ele>
        <time>2022-07-17T05:12:02Z</time>
      </trkpt>
      <trkpt lat="45.43413" lon="6.28437">
        <ele>390.8</ele>
        <time>2022-07-17T05:12:03Z</time>
      </trkpt>
      <trkpt lat="45.4341" lon="6.28434">
        <ele>390.8</ele>
        <time>2022-07-17T05:12:04Z</time>
      </trkpt>
      <trkpt lat="45.43407" lon="6.28431">
        <ele>391.2</ele>
        <time>2022-07-17T05:12:05Z</time>
      </trkpt>
      <trkpt lat="45.43404" lon="6.28428">
        <ele>391.4</ele>
        <time>2022-07-17T05:12:06Z</time>
      </trkpt>
      <trkpt lat="45.434" lon="6.28425">
        <ele>391.6</ele>
        <time>2022-07-17T05:12:07Z</time>
      </trkpt>
      <trkpt lat="45.43397" lon="6.28422">
        <ele>391.8</ele>
        <time>2022-07-17T05:12:08Z</time>
      </trkpt>
      <trkpt lat="45.43394" lon="6.28419">
        <ele>392</ele>
        <time>2022-07-17T05:12:09Z</time>
      </trkpt>
      <trkpt lat="45.43391" lon="6.28416">
        <ele>392.2</ele>
        <time>2022-07-17T05:12:10Z</time>
      </trkpt>
      <trkpt lat="45.43389" lon="6.28413">
        <ele>392.2</ele>
        <time>2022-07-17T05:12:11Z</time>
      </trkpt>
      <trkpt lat="45.43386" lon="6.2841">
        <ele>392.6</ele>
        <time>2022-07-17T05:12:12Z</time>
      </trkpt>
      <trkpt lat="45.43383" lon="6.28407">
        <ele>392.6</ele>
        <time>2022-07-17T05:12:13Z</time>
      </trkpt>
      <trkpt lat="45.43381" lon="6.28403">
        <ele>392.8</ele>
        <time>2022-07-17T05:12:14Z</time>
      </trkpt>
      <trkpt lat="45.43378" lon="6.28401">
        <ele>392.8</ele>
        <time>2022-07-17T05:12:15Z</time>
      </trkpt>
      <trkpt lat="45.43376" lon="6.28398">
        <ele>393.2</ele>
        <time>2022-07-17T05:12:16Z</time>
      </trkpt>
      <trkpt lat="45.43373" lon="6.28395">
        <ele>393.4</ele>
        <time>2022-07-17T05:12:17Z</time>
      </trkpt>
      <trkpt lat="45.4337" lon="6.28393">
        <ele>393.4</ele>
        <time>2022-07-17T05:12:18Z</time>
      </trkpt>
      <trkpt lat="45.43368" lon="6.28391">
        <ele>393.8</ele>
        <time>2022-07-17T05:12:19Z</time>
      </trkpt>
      <trkpt lat="45.43365" lon="6.28388">
        <ele>394</ele>
        <time>2022-07-17T05:12:20Z</time>
      </trkpt>
      <trkpt lat="45.43362" lon="6.28386">
        <ele>394</ele>
        <time>2022-07-17T05:12:21Z</time>
      </trkpt>
      <trkpt lat="45.43359" lon="6.28384">
        <ele>394.4</ele>
        <time>2022-07-17T05:12:22Z</time>
      </trkpt>
      <trkpt lat="45.43356" lon="6.28382">
        <ele>394.8</ele>
        <time>2022-07-17T05:12:23Z</time>
      </trkpt>
      <trkpt lat="45.43353" lon="6.2838">
        <ele>394.8</ele>
        <time>2022-07-17T05:12:24Z</time>
      </trkpt>
      <trkpt lat="45.4335" lon="6.28378">
        <ele>395</ele>
        <time>2022-07-17T05:12:25Z</time>
      </trkpt>
      <trkpt lat="45.43348" lon="6.28377">
        <ele>395.4</ele>
        <time>2022-07-17T05:12:26Z</time>
      </trkpt>
      <trkpt lat="45.43345" lon="6.28375">
        <ele>395.4</ele>
        <time>2022-07-17T05:12:27Z</time>
      </trkpt>
      <trkpt lat="45.43342" lon="6.28374">
        <ele>395.8</ele>
        <time>2022-07-17T05:12:28Z</time>
      </trkpt>
      <trkpt lat="45.43339" lon="6.28373">
        <ele>396</ele>
        <time>2022-07-17T05:12:29Z</time>
      </trkpt>
      <trkpt lat="45.43336" lon="6.28372">
        <ele>396</ele>
        <time>2022-07-17T05:12:30Z</time>
      </trkpt>
      <trkpt lat="45.43333" lon="6.2837">
        <ele>396.4</ele>
        <time>2022-07-17T05:12:31Z</time>
      </trkpt>
      <trkpt lat="45.43331" lon="6.28369">
        <ele>396.4</ele>
        <time>2022-07-17T05:12:32Z</time>
      </trkpt>
      <trkpt lat="45.43328" lon="6.28367">
        <ele>396.8</ele>
        <time>2022-07-17T05:12:33Z</time>
      </trkpt>
      <trkpt lat="45.43326" lon="6.28366">
        <ele>396.8</ele>
        <time>2022-07-17T05:12:34Z</time>
      </trkpt>
      <trkpt lat="45.43323" lon="6.28365">
        <ele>397.2</ele>
        <time>2022-07-17T05:12:35Z</time>
      </trkpt>
      <trkpt lat="45.43321" lon="6.28365">
        <ele>397.4</ele>
        <time>2022-07-17T05:12:36Z</time>
      </trkpt>
      <trkpt lat="45.43318" lon="6.28364">
        <ele>397.6</ele>
        <time>2022-07-17T05:12:37Z</time>
      </trkpt>
      <trkpt lat="45.43315" lon="6.28363">
        <ele>397.8</ele>
        <time>2022-07-17T05:12:38Z</time>
      </trkpt>
      <trkpt lat="45.43313" lon="6.28361">
        <ele>398.2</ele>
        <time>2022-07-17T05:12:39Z</time>
      </trkpt>
      <trkpt lat="45.4331" lon="6.2836">
        <ele>398.4</ele>
        <time>2022-07-17T05:12:40Z</time>
      </trkpt>
      <trkpt lat="45.43308" lon="6.28359">
        <ele>398.6</ele>
        <time>2022-07-17T05:12:41Z</time>
      </trkpt>
      <trkpt lat="45.43305" lon="6.28358">
        <ele>398.8</ele>
        <time>2022-07-17T05:12:42Z</time>
      </trkpt>
      <trkpt lat="45.43303" lon="6.28357">
        <ele>399.2</ele>
        <time>2022-07-17T05:12:43Z</time>
      </trkpt>
      <trkpt lat="45.433" lon="6.28356">
        <ele>399.4</ele>
        <time>2022-07-17T05:12:44Z</time>
      </trkpt>
      <trkpt lat="45.43297" lon="6.28355">
        <ele>399.6</ele>
        <time>2022-07-17T05:12:45Z</time>
      </trkpt>
      <trkpt lat="45.43294" lon="6.28354">
        <ele>399.8</ele>
        <time>2022-07-17T05:12:46Z</time>
      </trkpt>
      <trkpt lat="45.43292" lon="6.28352">
        <ele>400</ele>
        <time>2022-07-17T05:12:47Z</time>
      </trkpt>
      <trkpt lat="45.43289" lon="6.28351">
        <ele>400.2</ele>
        <time>2022-07-17T05:12:48Z</time>
      </trkpt>
      <trkpt lat="45.43286" lon="6.28349">
        <ele>400.6</ele>
        <time>2022-07-17T05:12:49Z</time>
      </trkpt>
      <trkpt lat="45.43284" lon="6.28347">
        <ele>400.8</ele>
        <time>2022-07-17T05:12:50Z</time>
      </trkpt>
      <trkpt lat="45.43281" lon="6.28346">
        <ele>400.8</ele>
        <time>2022-07-17T05:12:51Z</time>
      </trkpt>
      <trkpt lat="45.43279" lon="6.28344">
        <ele>401.2</ele>
        <time>2022-07-17T05:12:52Z</time>
      </trkpt>
      <trkpt lat="45.43276" lon="6.28343">
        <ele>401.4</ele>
        <time>2022-07-17T05:12:53Z</time>
      </trkpt>
      <trkpt lat="45.43274" lon="6.28342">
        <ele>401.6</ele>
        <time>2022-07-17T05:12:54Z</time>
      </trkpt>
      <trkpt lat="45.43271" lon="6.2834">
        <ele>402</ele>
        <time>2022-07-17T05:12:55Z</time>
      </trkpt>
      <trkpt lat="45.43269" lon="6.28339">
        <ele>402.2</ele>
        <time>2022-07-17T05:12:56Z</time>
      </trkpt>
      <trkpt lat="45.43266" lon="6.28338">
        <ele>402.4</ele>
        <time>2022-07-17T05:12:57Z</time>
      </trkpt>
      <trkpt lat="45.43262" lon="6.28337">
        <ele>402.6</ele>
        <time>2022-07-17T05:12:58Z</time>
      </trkpt>
      <trkpt lat="45.43259" lon="6.28335">
        <ele>402.8</ele>
        <time>2022-07-17T05:12:59Z</time>
      </trkpt>
      <trkpt lat="45.43256" lon="6.28334">
        <ele>403.2</ele>
        <time>2022-07-17T05:13:00Z</time>
      </trkpt>
      <trkpt lat="45.43253" lon="6.28333">
        <ele>403.4</ele>
        <time>2022-07-17T05:13:01Z</time>
      </trkpt>
      <trkpt lat="45.4325" lon="6.28332">
        <ele>403.8</ele>
        <time>2022-07-17T05:13:02Z</time>
      </trkpt>
      <trkpt lat="45.43247" lon="6.2833">
        <ele>404</ele>
        <time>2022-07-17T05:13:03Z</time>
      </trkpt>
      <trkpt lat="45.43244" lon="6.28329">
        <ele>404.2</ele>
        <time>2022-07-17T05:13:04Z</time>
      </trkpt>
      <trkpt lat="45.43241" lon="6.28328">
        <ele>404.6</ele>
        <time>2022-07-17T05:13:05Z</time>
      </trkpt>
      <trkpt lat="45.43238" lon="6.28327">
        <ele>404.8</ele>
        <time>2022-07-17T05:13:06Z</time>
      </trkpt>
      <trkpt lat="45.43235" lon="6.28326">
        <ele>405</ele>
        <time>2022-07-17T05:13:07Z</time>
      </trkpt>
      <trkpt lat="45.43232" lon="6.28325">
        <ele>405.2</ele>
        <time>2022-07-17T05:13:08Z</time>
      </trkpt>
      <trkpt lat="45.43229" lon="6.28324">
        <ele>405.4</ele>
        <time>2022-07-17T05:13:09Z</time>
      </trkpt>
      <trkpt lat="45.43226" lon="6.28323">
        <ele>405.6</ele>
        <time>2022-07-17T05:13:10Z</time>
      </trkpt>
      <trkpt lat="45.43223" lon="6.28322">
        <ele>406</ele>
        <time>2022-07-17T05:13:11Z</time>
      </trkpt>
      <trkpt lat="45.4322" lon="6.28321">
        <ele>406.2</ele>
        <time>2022-07-17T05:13:12Z</time>
      </trkpt>
      <trkpt lat="45.43217" lon="6.28319">
        <ele>406.4</ele>
        <time>2022-07-17T05:13:13Z</time>
      </trkpt>
      <trkpt lat="45.43214" lon="6.28318">
        <ele>406.8</ele>
        <time>2022-07-17T05:13:14Z</time>
      </trkpt>
      <trkpt lat="45.43212" lon="6.28317">
        <ele>407</ele>
        <time>2022-07-17T05:13:15Z</time>
      </trkpt>
      <trkpt lat="45.43209" lon="6.28316">
        <ele>407.2</ele>
        <time>2022-07-17T05:13:16Z</time>
      </trkpt>
      <trkpt lat="45.43206" lon="6.28315">
        <ele>407.4</ele>
        <time>2022-07-17T05:13:17Z</time>
      </trkpt>
      <trkpt lat="45.43203" lon="6.28314">
        <ele>407.8</ele>
        <time>2022-07-17T05:13:18Z</time>
      </trkpt>
      <trkpt lat="45.432" lon="6.28312">
        <ele>408</ele>
        <time>2022-07-17T05:13:19Z</time>
      </trkpt>
      <trkpt lat="45.43197" lon="6.28311">
        <ele>408.2</ele>
        <time>2022-07-17T05:13:20Z</time>
      </trkpt>
      <trkpt lat="45.43194" lon="6.28309">
        <ele>408.2</ele>
        <time>2022-07-17T05:13:21Z</time>
      </trkpt>
      <trkpt lat="45.43192" lon="6.28308">
        <ele>408.6</ele>
        <time>2022-07-17T05:13:22Z</time>
      </trkpt>
      <trkpt lat="45.43189" lon="6.28306">
        <ele>409</ele>
        <time>2022-07-17T05:13:23Z</time>
      </trkpt>
      <trkpt lat="45.43186" lon="6.28305">
        <ele>409.2</ele>
        <time>2022-07-17T05:13:24Z</time>
      </trkpt>
      <trkpt lat="45.43184" lon="6.28303">
        <ele>409.6</ele>
        <time>2022-07-17T05:13:25Z</time>
      </trkpt>
      <trkpt lat="45.43181" lon="6.28302">
        <ele>409.6</ele>
        <time>2022-07-17T05:13:26Z</time>
      </trkpt>
      <trkpt lat="45.43179" lon="6.283">
        <ele>410</ele>
        <time>2022-07-17T05:13:27Z</time>
      </trkpt>
      <trkpt lat="45.43176" lon="6.28299">
        <ele>410.2</ele>
        <time>2022-07-17T05:13:28Z</time>
      </trkpt>
      <trkpt lat="45.43174" lon="6.28298">
        <ele>410.4</ele>
        <time>2022-07-17T05:13:29Z</time>
      </trkpt>
      <trkpt lat="45.43172" lon="6.28296">
        <ele>410.4</ele>
        <time>2022-07-17T05:13:30Z</time>
      </trkpt>
      <trkpt lat="45.4317" lon="6.28295">
        <ele>410.8</ele>
        <time>2022-07-17T05:13:31Z</time>
      </trkpt>
      <trkpt lat="45.43167" lon="6.28294">
        <ele>411.2</ele>
        <time>2022-07-17T05:13:32Z</time>
      </trkpt>
      <trkpt lat="45.43165" lon="6.28293">
        <ele>411.4</ele>
        <time>2022-07-17T05:13:33Z</time>
      </trkpt>
      <trkpt lat="45.43162" lon="6.28291">
        <ele>411.6</ele>
        <time>2022-07-17T05:13:34Z</time>
      </trkpt>
      <trkpt lat="45.43159" lon="6.28289">
        <ele>411.8</ele>
        <time>2022-07-17T05:13:35Z</time>
      </trkpt>
      <trkpt lat="45.43157" lon="6.28288">
        <ele>412.2</ele>
        <time>2022-07-17T05:13:36Z</time>
      </trkpt>
      <trkpt lat="45.43154" lon="6.28286">
        <ele>412.4</ele>
        <time>2022-07-17T05:13:37Z</time>
      </trkpt>
      <trkpt lat="45.43152" lon="6.28285">
        <ele>412.8</ele>
        <time>2022-07-17T05:13:38Z</time>
      </trkpt>
      <trkpt lat="45.43149" lon="6.28283">
        <ele>413</ele>
        <time>2022-07-17T05:13:39Z</time>
      </trkpt>
      <trkpt lat="45.43147" lon="6.28281">
        <ele>413.2</ele>
        <time>2022-07-17T05:13:40Z</time>
      </trkpt>
      <trkpt lat="45.43145" lon="6.28279">
        <ele>413.6</ele>
        <time>2022-07-17T05:13:41Z</time>
      </trkpt>
      <trkpt lat="45.43142" lon="6.28277">
        <ele>413.8</ele>
        <time>2022-07-17T05:13:42Z</time>
      </trkpt>
      <trkpt lat="45.4314" lon="6.28275">
        <ele>414</ele>
        <time>2022-07-17T05:13:43Z</time>
      </trkpt>
      <trkpt lat="45.43138" lon="6.28273">
        <ele>414.2</ele>
        <time>2022-07-17T05:13:44Z</time>
      </trkpt>
      <trkpt lat="45.43136" lon="6.2827">
        <ele>414.2</ele>
        <time>2022-07-17T05:13:45Z</time>
      </trkpt>
      <trkpt lat="45.43134" lon="6.28268">
        <ele>414.6</ele>
        <time>2022-07-17T05:13:46Z</time>
      </trkpt>
      <trkpt lat="45.43131" lon="6.28266">
        <ele>414.8</ele>
        <time>2022-07-17T05:13:47Z</time>
      </trkpt>
      <trkpt lat="45.43129" lon="6.28264">
        <ele>414.8</ele>
        <time>2022-07-17T05:13:48Z</time>
      </trkpt>
      <trkpt lat="45.43127" lon="6.28261">
        <ele>415.2</ele>
        <time>2022-07-17T05:13:49Z</time>
      </trkpt>
      <trkpt lat="45.43125" lon="6.28259">
        <ele>415.4</ele>
        <time>2022-07-17T05:13:50Z</time>
      </trkpt>
      <trkpt lat="45.43123" lon="6.28257">
        <ele>415.4</ele>
        <time>2022-07-17T05:13:51Z</time>
      </trkpt>
      <trkpt lat="45.4312" lon="6.28255">
        <ele>415.8</ele>
        <time>2022-07-17T05:13:52Z</time>
      </trkpt>
      <trkpt lat="45.43118" lon="6.28252">
        <ele>415.8</ele>
        <time>2022-07-17T05:13:53Z</time>
      </trkpt>
      <trkpt lat="45.43116" lon="6.28249">
        <ele>416.2</ele>
        <time>2022-07-17T05:13:54Z</time>
      </trkpt>
      <trkpt lat="45.43113" lon="6.28247">
        <ele>416.4</ele>
        <time>2022-07-17T05:13:55Z</time>
      </trkpt>
      <trkpt lat="45.4311" lon="6.28245">
        <ele>416.4</ele>
        <time>2022-07-17T05:13:56Z</time>
      </trkpt>
      <trkpt lat="45.43108" lon="6.28242">
        <ele>416.6</ele>
        <time>2022-07-17T05:13:57Z</time>
      </trkpt>
      <trkpt lat="45.43105" lon="6.2824">
        <ele>417</ele>
        <time>2022-07-17T05:13:58Z</time>
      </trkpt>
      <trkpt lat="45.43103" lon="6.28237">
        <ele>417</ele>
        <time>2022-07-17T05:13:59Z</time>
      </trkpt>
      <trkpt lat="45.431" lon="6.28234">
        <ele>417.2</ele>
        <time>2022-07-17T05:14:00Z</time>
      </trkpt>
      <trkpt lat="45.43098" lon="6.28232">
        <ele>417.4</ele>
        <time>2022-07-17T05:14:01Z</time>
      </trkpt>
      <trkpt lat="45.43095" lon="6.28229">
        <ele>417.4</ele>
        <time>2022-07-17T05:14:02Z</time>
      </trkpt>
      <trkpt lat="45.43092" lon="6.28227">
        <ele>417.8</ele>
        <time>2022-07-17T05:14:03Z</time>
      </trkpt>
      <trkpt lat="45.4309" lon="6.28224">
        <ele>417.8</ele>
        <time>2022-07-17T05:14:04Z</time>
      </trkpt>
      <trkpt lat="45.43087" lon="6.28222">
        <ele>418.2</ele>
        <time>2022-07-17T05:14:05Z</time>
      </trkpt>
      <trkpt lat="45.43085" lon="6.2822">
        <ele>418.2</ele>
        <time>2022-07-17T05:14:06Z</time>
      </trkpt>
      <trkpt lat="45.43082" lon="6.28217">
        <ele>418.6</ele>
        <time>2022-07-17T05:14:07Z</time>
      </trkpt>
      <trkpt lat="45.43079" lon="6.28215">
        <ele>418.6</ele>
        <time>2022-07-17T05:14:08Z</time>
      </trkpt>
      <trkpt lat="45.43076" lon="6.28213">
        <ele>418.6</ele>
        <time>2022-07-17T05:14:09Z</time>
      </trkpt>
      <trkpt lat="45.43073" lon="6.28211">
        <ele>419</ele>
        <time>2022-07-17T05:14:10Z</time>
      </trkpt>
      <trkpt lat="45.43071" lon="6.28208">
        <ele>419</ele>
        <time>2022-07-17T05:14:11Z</time>
      </trkpt>
      <trkpt lat="45.43068" lon="6.28206">
        <ele>419.2</ele>
        <time>2022-07-17T05:14:12Z</time>
      </trkpt>
      <trkpt lat="45.43065" lon="6.28203">
        <ele>419.2</ele>
        <time>2022-07-17T05:14:13Z</time>
      </trkpt>
      <trkpt lat="45.43062" lon="6.28201">
        <ele>419.4</ele>
        <time>2022-07-17T05:14:14Z</time>
      </trkpt>
      <trkpt lat="45.4306" lon="6.28199">
        <ele>419.8</ele>
        <time>2022-07-17T05:14:16Z</time>
      </trkpt>
      <trkpt lat="45.43057" lon="6.28196">
        <ele>419.8</ele>
        <time>2022-07-17T05:14:17Z</time>
      </trkpt>
      <trkpt lat="45.43054" lon="6.28194">
        <ele>420</ele>
        <time>2022-07-17T05:14:18Z</time>
      </trkpt>
      <trkpt lat="45.43051" lon="6.28191">
        <ele>420</ele>
        <time>2022-07-17T05:14:19Z</time>
      </trkpt>
      <trkpt lat="45.43049" lon="6.28189">
        <ele>420.4</ele>
        <time>2022-07-17T05:14:20Z</time>
      </trkpt>
      <trkpt lat="45.43046" lon="6.28187">
        <ele>420.6</ele>
        <time>2022-07-17T05:14:21Z</time>
      </trkpt>
      <trkpt lat="45.43043" lon="6.28184">
        <ele>420.8</ele>
        <time>2022-07-17T05:14:22Z</time>
      </trkpt>
      <trkpt lat="45.43041" lon="6.28182">
        <ele>421</ele>
        <time>2022-07-17T05:14:23Z</time>
      </trkpt>
      <trkpt lat="45.43038" lon="6.28179">
        <ele>421</ele>
        <time>2022-07-17T05:14:24Z</time>
      </trkpt>
      <trkpt lat="45.43035" lon="6.28176">
        <ele>421.4</ele>
        <time>2022-07-17T05:14:25Z</time>
      </trkpt>
      <trkpt lat="45.43033" lon="6.28174">
        <ele>421.4</ele>
        <time>2022-07-17T05:14:26Z</time>
      </trkpt>
      <trkpt lat="45.4303" lon="6.28171">
        <ele>421.6</ele>
        <time>2022-07-17T05:14:27Z</time>
      </trkpt>
      <trkpt lat="45.43027" lon="6.28168">
        <ele>421.6</ele>
        <time>2022-07-17T05:14:28Z</time>
      </trkpt>
      <trkpt lat="45.43025" lon="6.28164">
        <ele>421.8</ele>
        <time>2022-07-17T05:14:29Z</time>
      </trkpt>
      <trkpt lat="45.43022" lon="6.28161">
        <ele>421.8</ele>
        <time>2022-07-17T05:14:30Z</time>
      </trkpt>
      <trkpt lat="45.43019" lon="6.28158">
        <ele>422</ele>
        <time>2022-07-17T05:14:31Z</time>
      </trkpt>
      <trkpt lat="45.43017" lon="6.28154">
        <ele>422</ele>
        <time>2022-07-17T05:14:32Z</time>
      </trkpt>
      <trkpt lat="45.43014" lon="6.28151">
        <ele>422.4</ele>
        <time>2022-07-17T05:14:33Z</time>
      </trkpt>
      <trkpt lat="45.43011" lon="6.28148">
        <ele>422.4</ele>
        <time>2022-07-17T05:14:34Z</time>
      </trkpt>
      <trkpt lat="45.43009" lon="6.28144">
        <ele>422.6</ele>
        <time>2022-07-17T05:14:35Z</time>
      </trkpt>
      <trkpt lat="45.43006" lon="6.2814">
        <ele>422.6</ele>
        <time>2022-07-17T05:14:36Z</time>
      </trkpt>
      <trkpt lat="45.43003" lon="6.28137">
        <ele>422.6</ele>
        <time>2022-07-17T05:14:37Z</time>
      </trkpt>
      <trkpt lat="45.43" lon="6.28133">
        <ele>422.6</ele>
        <time>2022-07-17T05:14:38Z</time>
      </trkpt>
      <trkpt lat="45.42997" lon="6.28129">
        <ele>422.6</ele>
        <time>2022-07-17T05:14:39Z</time>
      </trkpt>
      <trkpt lat="45.42994" lon="6.28126">
        <ele>422.8</ele>
        <time>2022-07-17T05:14:40Z</time>
      </trkpt>
      <trkpt lat="45.42991" lon="6.28122">
        <ele>422.8</ele>
        <time>2022-07-17T05:14:41Z</time>
      </trkpt>
      <trkpt lat="45.42988" lon="6.28119">
        <ele>422.8</ele>
        <time>2022-07-17T05:14:42Z</time>
      </trkpt>
      <trkpt lat="45.42985" lon="6.28115">
        <ele>423</ele>
        <time>2022-07-17T05:14:43Z</time>
      </trkpt>
      <trkpt lat="45.42982" lon="6.28112">
        <ele>423</ele>
        <time>2022-07-17T05:14:44Z</time>
      </trkpt>
      <trkpt lat="45.42979" lon="6.28109">
        <ele>423.2</ele>
        <time>2022-07-17T05:14:45Z</time>
      </trkpt>
      <trkpt lat="45.42976" lon="6.28105">
        <ele>423.2</ele>
        <time>2022-07-17T05:14:46Z</time>
      </trkpt>
      <trkpt lat="45.42973" lon="6.28102">
        <ele>423.2</ele>
        <time>2022-07-17T05:14:47Z</time>
      </trkpt>
      <trkpt lat="45.42971" lon="6.28099">
        <ele>423.6</ele>
        <time>2022-07-17T05:14:48Z</time>
      </trkpt>
      <trkpt lat="45.42968" lon="6.28096">
        <ele>423.6</ele>
        <time>2022-07-17T05:14:49Z</time>
      </trkpt>
      <trkpt lat="45.42965" lon="6.28093">
        <ele>424</ele>
        <time>2022-07-17T05:14:50Z</time>
      </trkpt>
      <trkpt lat="45.42962" lon="6.2809">
        <ele>424</ele>
        <time>2022-07-17T05:14:51Z</time>
      </trkpt>
      <trkpt lat="45.42959" lon="6.28088">
        <ele>424.2</ele>
        <time>2022-07-17T05:14:52Z</time>
      </trkpt>
      <trkpt lat="45.42956" lon="6.28085">
        <ele>424.2</ele>
        <time>2022-07-17T05:14:53Z</time>
      </trkpt>
      <trkpt lat="45.42954" lon="6.28083">
        <ele>424.6</ele>
        <time>2022-07-17T05:14:54Z</time>
      </trkpt>
      <trkpt lat="45.4295" lon="6.28082">
        <ele>424.8</ele>
        <time>2022-07-17T05:14:55Z</time>
      </trkpt>
      <trkpt lat="45.42947" lon="6.2808">
        <ele>425.2</ele>
        <time>2022-07-17T05:14:56Z</time>
      </trkpt>
      <trkpt lat="45.42945" lon="6.28078">
        <ele>425.4</ele>
        <time>2022-07-17T05:14:57Z</time>
      </trkpt>
      <trkpt lat="45.42942" lon="6.28076">
        <ele>425.6</ele>
        <time>2022-07-17T05:14:58Z</time>
      </trkpt>
      <trkpt lat="45.42939" lon="6.28075">
        <ele>425.8</ele>
        <time>2022-07-17T05:14:59Z</time>
      </trkpt>
      <trkpt lat="45.42936" lon="6.28074">
        <ele>426</ele>
        <time>2022-07-17T05:15:00Z</time>
      </trkpt>
      <trkpt lat="45.42933" lon="6.28072">
        <ele>426.4</ele>
        <time>2022-07-17T05:15:01Z</time>
      </trkpt>
      <trkpt lat="45.4293" lon="6.28071">
        <ele>426.8</ele>
        <time>2022-07-17T05:15:02Z</time>
      </trkpt>
      <trkpt lat="45.42927" lon="6.2807">
        <ele>427</ele>
        <time>2022-07-17T05:15:03Z</time>
      </trkpt>
      <trkpt lat="45.42924" lon="6.28069">
        <ele>427.4</ele>
        <time>2022-07-17T05:15:04Z</time>
      </trkpt>
      <trkpt lat="45.42921" lon="6.28069">
        <ele>427.6</ele>
        <time>2022-07-17T05:15:05Z</time>
      </trkpt>
      <trkpt lat="45.42919" lon="6.28067">
        <ele>428</ele>
        <time>2022-07-17T05:15:06Z</time>
      </trkpt>
      <trkpt lat="45.42915" lon="6.28067">
        <ele>428</ele>
        <time>2022-07-17T05:15:07Z</time>
      </trkpt>
      <trkpt lat="45.42912" lon="6.28066">
        <ele>428.4</ele>
        <time>2022-07-17T05:15:08Z</time>
      </trkpt>
      <trkpt lat="45.42909" lon="6.28065">
        <ele>428.4</ele>
        <time>2022-07-17T05:15:09Z</time>
      </trkpt>
      <trkpt lat="45.42906" lon="6.28064">
        <ele>428.8</ele>
        <time>2022-07-17T05:15:10Z</time>
      </trkpt>
      <trkpt lat="45.42903" lon="6.28064">
        <ele>428.8</ele>
        <time>2022-07-17T05:15:11Z</time>
      </trkpt>
      <trkpt lat="45.429" lon="6.28064">
        <ele>429</ele>
        <time>2022-07-17T05:15:12Z</time>
      </trkpt>
      <trkpt lat="45.42897" lon="6.28064">
        <ele>429.2</ele>
        <time>2022-07-17T05:15:13Z</time>
      </trkpt>
      <trkpt lat="45.42894" lon="6.28064">
        <ele>429.6</ele>
        <time>2022-07-17T05:15:14Z</time>
      </trkpt>
      <trkpt lat="45.4289" lon="6.28064">
        <ele>429.6</ele>
        <time>2022-07-17T05:15:15Z</time>
      </trkpt>
      <trkpt lat="45.42887" lon="6.28064">
        <ele>430</ele>
        <time>2022-07-17T05:15:16Z</time>
      </trkpt>
      <trkpt lat="45.42884" lon="6.28064">
        <ele>430.2</ele>
        <time>2022-07-17T05:15:17Z</time>
      </trkpt>
      <trkpt lat="45.42881" lon="6.28064">
        <ele>430.4</ele>
        <time>2022-07-17T05:15:18Z</time>
      </trkpt>
      <trkpt lat="45.42878" lon="6.28064">
        <ele>430.8</ele>
        <time>2022-07-17T05:15:19Z</time>
      </trkpt>
      <trkpt lat="45.42875" lon="6.28064">
        <ele>431</ele>
        <time>2022-07-17T05:15:20Z</time>
      </trkpt>
      <trkpt lat="45.42871" lon="6.28063">
        <ele>431.2</ele>
        <time>2022-07-17T05:15:21Z</time>
      </trkpt>
      <trkpt lat="45.42868" lon="6.28063">
        <ele>431.6</ele>
        <time>2022-07-17T05:15:22Z</time>
      </trkpt>
      <trkpt lat="45.42865" lon="6.28062">
        <ele>431.6</ele>
        <time>2022-07-17T05:15:23Z</time>
      </trkpt>
      <trkpt lat="45.42862" lon="6.28061">
        <ele>432</ele>
        <time>2022-07-17T05:15:24Z</time>
      </trkpt>
      <trkpt lat="45.42858" lon="6.2806">
        <ele>432</ele>
        <time>2022-07-17T05:15:25Z</time>
      </trkpt>
      <trkpt lat="45.42855" lon="6.28059">
        <ele>432.4</ele>
        <time>2022-07-17T05:15:26Z</time>
      </trkpt>
      <trkpt lat="45.42852" lon="6.28058">
        <ele>432.6</ele>
        <time>2022-07-17T05:15:27Z</time>
      </trkpt>
      <trkpt lat="45.42849" lon="6.28056">
        <ele>432.8</ele>
        <time>2022-07-17T05:15:28Z</time>
      </trkpt>
      <trkpt lat="45.42845" lon="6.28055">
        <ele>433</ele>
        <time>2022-07-17T05:15:29Z</time>
      </trkpt>
      <trkpt lat="45.42842" lon="6.28054">
        <ele>433.4</ele>
        <time>2022-07-17T05:15:30Z</time>
      </trkpt>
      <trkpt lat="45.42838" lon="6.28053">
        <ele>433.6</ele>
        <time>2022-07-17T05:15:31Z</time>
      </trkpt>
      <trkpt lat="45.42835" lon="6.28052">
        <ele>434</ele>
        <time>2022-07-17T05:15:32Z</time>
      </trkpt>
      <trkpt lat="45.42832" lon="6.28051">
        <ele>434.2</ele>
        <time>2022-07-17T05:15:33Z</time>
      </trkpt>
      <trkpt lat="45.42829" lon="6.2805">
        <ele>434.4</ele>
        <time>2022-07-17T05:15:34Z</time>
      </trkpt>
      <trkpt lat="45.42826" lon="6.28049">
        <ele>434.8</ele>
        <time>2022-07-17T05:15:35Z</time>
      </trkpt>
      <trkpt lat="45.42823" lon="6.28048">
        <ele>435</ele>
        <time>2022-07-17T05:15:36Z</time>
      </trkpt>
      <trkpt lat="45.4282" lon="6.28047">
        <ele>435.2</ele>
        <time>2022-07-17T05:15:37Z</time>
      </trkpt>
      <trkpt lat="45.42817" lon="6.28046">
        <ele>435.6</ele>
        <time>2022-07-17T05:15:38Z</time>
      </trkpt>
      <trkpt lat="45.42814" lon="6.28045">
        <ele>435.8</ele>
        <time>2022-07-17T05:15:39Z</time>
      </trkpt>
      <trkpt lat="45.4281" lon="6.28044">
        <ele>436</ele>
        <time>2022-07-17T05:15:40Z</time>
      </trkpt>
      <trkpt lat="45.42807" lon="6.28044">
        <ele>436.4</ele>
        <time>2022-07-17T05:15:41Z</time>
      </trkpt>
      <trkpt lat="45.42804" lon="6.28043">
        <ele>436.6</ele>
        <time>2022-07-17T05:15:42Z</time>
      </trkpt>
      <trkpt lat="45.42801" lon="6.28043">
        <ele>436.6</ele>
        <time>2022-07-17T05:15:43Z</time>
      </trkpt>
      <trkpt lat="45.42798" lon="6.28043">
        <ele>437</ele>
        <time>2022-07-17T05:15:44Z</time>
      </trkpt>
      <trkpt lat="45.42795" lon="6.28043">
        <ele>437.2</ele>
        <time>2022-07-17T05:15:45Z</time>
      </trkpt>
      <trkpt lat="45.42791" lon="6.28043">
        <ele>437.6</ele>
        <time>2022-07-17T05:15:46Z</time>
      </trkpt>
      <trkpt lat="45.42788" lon="6.28043">
        <ele>437.8</ele>
        <time>2022-07-17T05:15:47Z</time>
      </trkpt>
      <trkpt lat="45.42785" lon="6.28043">
        <ele>437.8</ele>
        <time>2022-07-17T05:15:48Z</time>
      </trkpt>
      <trkpt lat="45.42782" lon="6.28043">
        <ele>438.2</ele>
        <time>2022-07-17T05:15:49Z</time>
      </trkpt>
      <trkpt lat="45.42779" lon="6.28043">
        <ele>438.4</ele>
        <time>2022-07-17T05:15:50Z</time>
      </trkpt>
      <trkpt lat="45.42776" lon="6.28043">
        <ele>438.8</ele>
        <time>2022-07-17T05:15:51Z</time>
      </trkpt>
      <trkpt lat="45.42773" lon="6.28043">
        <ele>439</ele>
        <time>2022-07-17T05:15:52Z</time>
      </trkpt>
      <trkpt lat="45.4277" lon="6.28043">
        <ele>439.2</ele>
        <time>2022-07-17T05:15:53Z</time>
      </trkpt>
      <trkpt lat="45.42767" lon="6.28044">
        <ele>439.6</ele>
        <time>2022-07-17T05:15:54Z</time>
      </trkpt>
      <trkpt lat="45.42764" lon="6.28044">
        <ele>439.8</ele>
        <time>2022-07-17T05:15:55Z</time>
      </trkpt>
      <trkpt lat="45.42761" lon="6.28044">
        <ele>439.8</ele>
        <time>2022-07-17T05:15:56Z</time>
      </trkpt>
      <trkpt lat="45.42758" lon="6.28044">
        <ele>440.2</ele>
        <time>2022-07-17T05:15:57Z</time>
      </trkpt>
      <trkpt lat="45.42754" lon="6.28044">
        <ele>440.4</ele>
        <time>2022-07-17T05:15:58Z</time>
      </trkpt>
      <trkpt lat="45.42751" lon="6.28044">
        <ele>440.6</ele>
        <time>2022-07-17T05:15:59Z</time>
      </trkpt>
      <trkpt lat="45.42748" lon="6.28044">
        <ele>440.6</ele>
        <time>2022-07-17T05:16:00Z</time>
      </trkpt>
      <trkpt lat="45.42745" lon="6.28043">
        <ele>441.2</ele>
        <time>2022-07-17T05:16:01Z</time>
      </trkpt>
      <trkpt lat="45.42742" lon="6.28042">
        <ele>441.4</ele>
        <time>2022-07-17T05:16:02Z</time>
      </trkpt>
      <trkpt lat="45.42739" lon="6.28042">
        <ele>441.6</ele>
        <time>2022-07-17T05:16:03Z</time>
      </trkpt>
      <trkpt lat="45.42736" lon="6.28041">
        <ele>441.8</ele>
        <time>2022-07-17T05:16:04Z</time>
      </trkpt>
      <trkpt lat="45.42733" lon="6.28041">
        <ele>442</ele>
        <time>2022-07-17T05:16:05Z</time>
      </trkpt>
      <trkpt lat="45.4273" lon="6.2804">
        <ele>442.4</ele>
        <time>2022-07-17T05:16:06Z</time>
      </trkpt>
      <trkpt lat="45.42727" lon="6.28039">
        <ele>442.6</ele>
        <time>2022-07-17T05:16:07Z</time>
      </trkpt>
      <trkpt lat="45.42724" lon="6.28038">
        <ele>442.8</ele>
        <time>2022-07-17T05:16:08Z</time>
      </trkpt>
      <trkpt lat="45.42718" lon="6.28035">
        <ele>442.8</ele>
        <time>2022-07-17T05:16:09Z</time>
      </trkpt>
      <trkpt lat="45.42716" lon="6.28033">
        <ele>443.2</ele>
        <time>2022-07-17T05:16:10Z</time>
      </trkpt>
      <trkpt lat="45.42713" lon="6.28032">
        <ele>443.2</ele>
        <time>2022-07-17T05:16:11Z</time>
      </trkpt>
      <trkpt lat="45.42711" lon="6.2803">
        <ele>443.6</ele>
        <time>2022-07-17T05:16:12Z</time>
      </trkpt>
      <trkpt lat="45.42708" lon="6.28027">
        <ele>443.6</ele>
        <time>2022-07-17T05:16:13Z</time>
      </trkpt>
      <trkpt lat="45.42705" lon="6.28024">
        <ele>443.8</ele>
        <time>2022-07-17T05:16:14Z</time>
      </trkpt>
      <trkpt lat="45.42701" lon="6.2802">
        <ele>443.8</ele>
        <time>2022-07-17T05:16:15Z</time>
      </trkpt>
      <trkpt lat="45.42698" lon="6.28017">
        <ele>444</ele>
        <time>2022-07-17T05:16:16Z</time>
      </trkpt>
      <trkpt lat="45.42694" lon="6.28014">
        <ele>444</ele>
        <time>2022-07-17T05:16:17Z</time>
      </trkpt>
      <trkpt lat="45.4269" lon="6.28011">
        <ele>444.2</ele>
        <time>2022-07-17T05:16:18Z</time>
      </trkpt>
      <trkpt lat="45.42687" lon="6.28007">
        <ele>444.2</ele>
        <time>2022-07-17T05:16:19Z</time>
      </trkpt>
      <trkpt lat="45.42683" lon="6.28004">
        <ele>444.6</ele>
        <time>2022-07-17T05:16:20Z</time>
      </trkpt>
      <trkpt lat="45.4268" lon="6.28001">
        <ele>444.6</ele>
        <time>2022-07-17T05:16:21Z</time>
      </trkpt>
      <trkpt lat="45.42676" lon="6.27998">
        <ele>444.6</ele>
        <time>2022-07-17T05:16:22Z</time>
      </trkpt>
      <trkpt lat="45.42671" lon="6.27994">
        <ele>444.8</ele>
        <time>2022-07-17T05:16:23Z</time>
      </trkpt>
      <trkpt lat="45.42667" lon="6.27991">
        <ele>444.8</ele>
        <time>2022-07-17T05:16:24Z</time>
      </trkpt>
      <trkpt lat="45.42663" lon="6.27988">
        <ele>444.8</ele>
        <time>2022-07-17T05:16:25Z</time>
      </trkpt>
      <trkpt lat="45.42659" lon="6.27984">
        <ele>445</ele>
        <time>2022-07-17T05:16:26Z</time>
      </trkpt>
      <trkpt lat="45.42655" lon="6.27981">
        <ele>445</ele>
        <time>2022-07-17T05:16:27Z</time>
      </trkpt>
      <trkpt lat="45.4265" lon="6.27977">
        <ele>445</ele>
        <time>2022-07-17T05:16:28Z</time>
      </trkpt>
      <trkpt lat="45.42646" lon="6.27974">
        <ele>445</ele>
        <time>2022-07-17T05:16:29Z</time>
      </trkpt>
      <trkpt lat="45.42641" lon="6.2797">
        <ele>445.4</ele>
        <time>2022-07-17T05:16:30Z</time>
      </trkpt>
      <trkpt lat="45.42636" lon="6.27967">
        <ele>445.4</ele>
        <time>2022-07-17T05:16:31Z</time>
      </trkpt>
      <trkpt lat="45.4263" lon="6.27964">
        <ele>445.4</ele>
        <time>2022-07-17T05:16:32Z</time>
      </trkpt>
      <trkpt lat="45.42626" lon="6.27961">
        <ele>445.4</ele>
        <time>2022-07-17T05:16:33Z</time>
      </trkpt>
      <trkpt lat="45.42621" lon="6.27958">
        <ele>445.6</ele>
        <time>2022-07-17T05:16:34Z</time>
      </trkpt>
      <trkpt lat="45.42617" lon="6.27954">
        <ele>445.6</ele>
        <time>2022-07-17T05:16:35Z</time>
      </trkpt>
      <trkpt lat="45.42613" lon="6.27951">
        <ele>445.8</ele>
        <time>2022-07-17T05:16:36Z</time>
      </trkpt>
      <trkpt lat="45.42608" lon="6.27948">
        <ele>445.8</ele>
        <time>2022-07-17T05:16:37Z</time>
      </trkpt>
      <trkpt lat="45.42604" lon="6.27945">
        <ele>446</ele>
        <time>2022-07-17T05:16:38Z</time>
      </trkpt>
      <trkpt lat="45.426" lon="6.27942">
        <ele>446</ele>
        <time>2022-07-17T05:16:39Z</time>
      </trkpt>
      <trkpt lat="45.42596" lon="6.27939">
        <ele>446.2</ele>
        <time>2022-07-17T05:16:40Z</time>
      </trkpt>
      <trkpt lat="45.42592" lon="6.27936">
        <ele>446.2</ele>
        <time>2022-07-17T05:16:41Z</time>
      </trkpt>
      <trkpt lat="45.42588" lon="6.27934">
        <ele>446.2</ele>
        <time>2022-07-17T05:16:42Z</time>
      </trkpt>
      <trkpt lat="45.42584" lon="6.27931">
        <ele>446.2</ele>
        <time>2022-07-17T05:16:43Z</time>
      </trkpt>
      <trkpt lat="45.42581" lon="6.27928">
        <ele>446.6</ele>
        <time>2022-07-17T05:16:44Z</time>
      </trkpt>
      <trkpt lat="45.42578" lon="6.27926">
        <ele>446.6</ele>
        <time>2022-07-17T05:16:45Z</time>
      </trkpt>
      <trkpt lat="45.42574" lon="6.27924">
        <ele>447</ele>
        <time>2022-07-17T05:16:46Z</time>
      </trkpt>
      <trkpt lat="45.42571" lon="6.27923">
        <ele>447.2</ele>
        <time>2022-07-17T05:16:47Z</time>
      </trkpt>
      <trkpt lat="45.42567" lon="6.27921">
        <ele>447.2</ele>
        <time>2022-07-17T05:16:48Z</time>
      </trkpt>
      <trkpt lat="45.42564" lon="6.27919">
        <ele>447.4</ele>
        <time>2022-07-17T05:16:49Z</time>
      </trkpt>
      <trkpt lat="45.42561" lon="6.27918">
        <ele>447.4</ele>
        <time>2022-07-17T05:16:50Z</time>
      </trkpt>
      <trkpt lat="45.42557" lon="6.27917">
        <ele>447.6</ele>
        <time>2022-07-17T05:16:51Z</time>
      </trkpt>
      <trkpt lat="45.42554" lon="6.27915">
        <ele>447.6</ele>
        <time>2022-07-17T05:16:52Z</time>
      </trkpt>
      <trkpt lat="45.42551" lon="6.27914">
        <ele>448</ele>
        <time>2022-07-17T05:16:53Z</time>
      </trkpt>
      <trkpt lat="45.42548" lon="6.27912">
        <ele>448</ele>
        <time>2022-07-17T05:16:54Z</time>
      </trkpt>
      <trkpt lat="45.42544" lon="6.2791">
        <ele>448.2</ele>
        <time>2022-07-17T05:16:55Z</time>
      </trkpt>
      <trkpt lat="45.4254" lon="6.27908">
        <ele>448.2</ele>
        <time>2022-07-17T05:16:56Z</time>
      </trkpt>
      <trkpt lat="45.42535" lon="6.27906">
        <ele>448.6</ele>
        <time>2022-07-17T05:16:57Z</time>
      </trkpt>
      <trkpt lat="45.4253" lon="6.27904">
        <ele>448.8</ele>
        <time>2022-07-17T05:16:59Z</time>
      </trkpt>
      <trkpt lat="45.42525" lon="6.27902">
        <ele>448.8</ele>
        <time>2022-07-17T05:17:00Z</time>
      </trkpt>
      <trkpt lat="45.42519" lon="6.279">
        <ele>449</ele>
        <time>2022-07-17T05:17:01Z</time>
      </trkpt>
      <trkpt lat="45.42513" lon="6.27898">
        <ele>449</ele>
        <time>2022-07-17T05:17:02Z</time>
      </trkpt>
      <trkpt lat="45.42509" lon="6.27895">
        <ele>449.4</ele>
        <time>2022-07-17T05:17:03Z</time>
      </trkpt>
      <trkpt lat="45.42504" lon="6.27892">
        <ele>449.4</ele>
        <time>2022-07-17T05:17:04Z</time>
      </trkpt>
      <trkpt lat="45.425" lon="6.27889">
        <ele>449.8</ele>
        <time>2022-07-17T05:17:05Z</time>
      </trkpt>
      <trkpt lat="45.42495" lon="6.27886">
        <ele>449.8</ele>
        <time>2022-07-17T05:17:06Z</time>
      </trkpt>
      <trkpt lat="45.4249" lon="6.27883">
        <ele>450</ele>
        <time>2022-07-17T05:17:07Z</time>
      </trkpt>
      <trkpt lat="45.42484" lon="6.27879">
        <ele>450</ele>
        <time>2022-07-17T05:17:08Z</time>
      </trkpt>
      <trkpt lat="45.42478" lon="6.27875">
        <ele>450.2</ele>
        <time>2022-07-17T05:17:09Z</time>
      </trkpt>
      <trkpt lat="45.42473" lon="6.27871">
        <ele>450.2</ele>
        <time>2022-07-17T05:17:10Z</time>
      </trkpt>
      <trkpt lat="45.42468" lon="6.27867">
        <ele>450.4</ele>
        <time>2022-07-17T05:17:11Z</time>
      </trkpt>
      <trkpt lat="45.42463" lon="6.27864">
        <ele>450.4</ele>
        <time>2022-07-17T05:17:12Z</time>
      </trkpt>
      <trkpt lat="45.42458" lon="6.2786">
        <ele>450.4</ele>
        <time>2022-07-17T05:17:13Z</time>
      </trkpt>
      <trkpt lat="45.42453" lon="6.27856">
        <ele>450.8</ele>
        <time>2022-07-17T05:17:14Z</time>
      </trkpt>
      <trkpt lat="45.42447" lon="6.27852">
        <ele>450.8</ele>
        <time>2022-07-17T05:17:15Z</time>
      </trkpt>
      <trkpt lat="45.42442" lon="6.27849">
        <ele>451</ele>
        <time>2022-07-17T05:17:16Z</time>
      </trkpt>
      <trkpt lat="45.42437" lon="6.27845">
        <ele>451</ele>
        <time>2022-07-17T05:17:17Z</time>
      </trkpt>
      <trkpt lat="45.42432" lon="6.27841">
        <ele>451.2</ele>
        <time>2022-07-17T05:17:18Z</time>
      </trkpt>
      <trkpt lat="45.42428" lon="6.27838">
        <ele>451.2</ele>
        <time>2022-07-17T05:17:19Z</time>
      </trkpt>
      <trkpt lat="45.42423" lon="6.27834">
        <ele>451.6</ele>
        <time>2022-07-17T05:17:20Z</time>
      </trkpt>
      <trkpt lat="45.42418" lon="6.27831">
        <ele>451.6</ele>
        <time>2022-07-17T05:17:21Z</time>
      </trkpt>
      <trkpt lat="45.42413" lon="6.27828">
        <ele>451.8</ele>
        <time>2022-07-17T05:17:22Z</time>
      </trkpt>
      <trkpt lat="45.42408" lon="6.27825">
        <ele>451.8</ele>
        <time>2022-07-17T05:17:23Z</time>
      </trkpt>
      <trkpt lat="45.42403" lon="6.27822">
        <ele>452</ele>
        <time>2022-07-17T05:17:24Z</time>
      </trkpt>
      <trkpt lat="45.42398" lon="6.27819">
        <ele>452</ele>
        <time>2022-07-17T05:17:25Z</time>
      </trkpt>
      <trkpt lat="45.42393" lon="6.27817">
        <ele>452.4</ele>
        <time>2022-07-17T05:17:26Z</time>
      </trkpt>
      <trkpt lat="45.42388" lon="6.27815">
        <ele>452.6</ele>
        <time>2022-07-17T05:17:27Z</time>
      </trkpt>
      <trkpt lat="45.42383" lon="6.27812">
        <ele>452.6</ele>
        <time>2022-07-17T05:17:28Z</time>
      </trkpt>
      <trkpt lat="45.42378" lon="6.2781">
        <ele>452.8</ele>
        <time>2022-07-17T05:17:29Z</time>
      </trkpt>
      <trkpt lat="45.42373" lon="6.27808">
        <ele>452.8</ele>
        <time>2022-07-17T05:17:30Z</time>
      </trkpt>
      <trkpt lat="45.42368" lon="6.27805">
        <ele>453.2</ele>
        <time>2022-07-17T05:17:31Z</time>
      </trkpt>
      <trkpt lat="45.42363" lon="6.27803">
        <ele>453.4</ele>
        <time>2022-07-17T05:17:32Z</time>
      </trkpt>
      <trkpt lat="45.42359" lon="6.27801">
        <ele>453.4</ele>
        <time>2022-07-17T05:17:33Z</time>
      </trkpt>
      <trkpt lat="45.42354" lon="6.278">
        <ele>453.6</ele>
        <time>2022-07-17T05:17:34Z</time>
      </trkpt>
      <trkpt lat="45.4235" lon="6.27798">
        <ele>453.6</ele>
        <time>2022-07-17T05:17:35Z</time>
      </trkpt>
      <trkpt lat="45.42345" lon="6.27796">
        <ele>454</ele>
        <time>2022-07-17T05:17:36Z</time>
      </trkpt>
      <trkpt lat="45.42341" lon="6.27793">
        <ele>454</ele>
        <time>2022-07-17T05:17:37Z</time>
      </trkpt>
      <trkpt lat="45.42337" lon="6.27791">
        <ele>454.4</ele>
        <time>2022-07-17T05:17:38Z</time>
      </trkpt>
      <trkpt lat="45.42333" lon="6.27789">
        <ele>454.4</ele>
        <time>2022-07-17T05:17:39Z</time>
      </trkpt>
      <trkpt lat="45.42329" lon="6.27787">
        <ele>454.6</ele>
        <time>2022-07-17T05:17:40Z</time>
      </trkpt>
      <trkpt lat="45.42324" lon="6.27785">
        <ele>455</ele>
        <time>2022-07-17T05:17:41Z</time>
      </trkpt>
      <trkpt lat="45.4232" lon="6.27783">
        <ele>455</ele>
        <time>2022-07-17T05:17:42Z</time>
      </trkpt>
      <trkpt lat="45.42316" lon="6.27781">
        <ele>455.2</ele>
        <time>2022-07-17T05:17:43Z</time>
      </trkpt>
      <trkpt lat="45.42312" lon="6.27779">
        <ele>455.2</ele>
        <time>2022-07-17T05:17:44Z</time>
      </trkpt>
      <trkpt lat="45.42308" lon="6.27777">
        <ele>455.2</ele>
        <time>2022-07-17T05:17:45Z</time>
      </trkpt>
      <trkpt lat="45.42304" lon="6.27775">
        <ele>455.2</ele>
        <time>2022-07-17T05:17:46Z</time>
      </trkpt>
      <trkpt lat="45.42299" lon="6.27773">
        <ele>455.6</ele>
        <time>2022-07-17T05:17:47Z</time>
      </trkpt>
      <trkpt lat="45.42295" lon="6.27772">
        <ele>455.6</ele>
        <time>2022-07-17T05:17:48Z</time>
      </trkpt>
      <trkpt lat="45.4229" lon="6.2777">
        <ele>455.6</ele>
        <time>2022-07-17T05:17:49Z</time>
      </trkpt>
      <trkpt lat="45.42285" lon="6.27768">
        <ele>455.8</ele>
        <time>2022-07-17T05:17:50Z</time>
      </trkpt>
      <trkpt lat="45.4228" lon="6.27765">
        <ele>455.8</ele>
        <time>2022-07-17T05:17:51Z</time>
      </trkpt>
      <trkpt lat="45.42275" lon="6.27763">
        <ele>455.8</ele>
        <time>2022-07-17T05:17:52Z</time>
      </trkpt>
      <trkpt lat="45.42271" lon="6.27761">
        <ele>456</ele>
        <time>2022-07-17T05:17:53Z</time>
      </trkpt>
      <trkpt lat="45.42266" lon="6.27759">
        <ele>456</ele>
        <time>2022-07-17T05:17:54Z</time>
      </trkpt>
      <trkpt lat="45.42262" lon="6.27756">
        <ele>456</ele>
        <time>2022-07-17T05:17:55Z</time>
      </trkpt>
      <trkpt lat="45.42258" lon="6.27753">
        <ele>456.2</ele>
        <time>2022-07-17T05:17:56Z</time>
      </trkpt>
      <trkpt lat="45.42253" lon="6.27753">
        <ele>456.2</ele>
        <time>2022-07-17T05:17:57Z</time>
      </trkpt>
      <trkpt lat="45.42248" lon="6.2775">
        <ele>456.2</ele>
        <time>2022-07-17T05:17:58Z</time>
      </trkpt>
      <trkpt lat="45.42243" lon="6.27748">
        <ele>456.2</ele>
        <time>2022-07-17T05:17:59Z</time>
      </trkpt>
      <trkpt lat="45.42238" lon="6.27745">
        <ele>456.2</ele>
        <time>2022-07-17T05:18:00Z</time>
      </trkpt>
      <trkpt lat="45.42233" lon="6.27743">
        <ele>456.2</ele>
        <time>2022-07-17T05:18:01Z</time>
      </trkpt>
      <trkpt lat="45.42228" lon="6.27741">
        <ele>456.2</ele>
        <time>2022-07-17T05:18:02Z</time>
      </trkpt>
      <trkpt lat="45.42223" lon="6.27738">
        <ele>456.2</ele>
        <time>2022-07-17T05:18:03Z</time>
      </trkpt>
      <trkpt lat="45.42218" lon="6.27735">
        <ele>456.2</ele>
        <time>2022-07-17T05:18:04Z</time>
      </trkpt>
      <trkpt lat="45.42213" lon="6.27733">
        <ele>456.2</ele>
        <time>2022-07-17T05:18:05Z</time>
      </trkpt>
      <trkpt lat="45.42207" lon="6.27732">
        <ele>456</ele>
        <time>2022-07-17T05:18:06Z</time>
      </trkpt>
      <trkpt lat="45.42202" lon="6.27731">
        <ele>455.8</ele>
        <time>2022-07-17T05:18:07Z</time>
      </trkpt>
      <trkpt lat="45.42196" lon="6.27729">
        <ele>455.8</ele>
        <time>2022-07-17T05:18:08Z</time>
      </trkpt>
      <trkpt lat="45.4219" lon="6.27727">
        <ele>455.6</ele>
        <time>2022-07-17T05:18:09Z</time>
      </trkpt>
      <trkpt lat="45.42184" lon="6.27725">
        <ele>455.6</ele>
        <time>2022-07-17T05:18:10Z</time>
      </trkpt>
      <trkpt lat="45.42179" lon="6.27723">
        <ele>455.2</ele>
        <time>2022-07-17T05:18:11Z</time>
      </trkpt>
      <trkpt lat="45.42173" lon="6.27721">
        <ele>455.2</ele>
        <time>2022-07-17T05:18:12Z</time>
      </trkpt>
      <trkpt lat="45.42167" lon="6.27718">
        <ele>455</ele>
        <time>2022-07-17T05:18:13Z</time>
      </trkpt>
      <trkpt lat="45.42162" lon="6.27716">
        <ele>455</ele>
        <time>2022-07-17T05:18:14Z</time>
      </trkpt>
      <trkpt lat="45.42156" lon="6.27713">
        <ele>455</ele>
        <time>2022-07-17T05:18:15Z</time>
      </trkpt>
      <trkpt lat="45.4215" lon="6.2771">
        <ele>455</ele>
        <time>2022-07-17T05:18:16Z</time>
      </trkpt>
      <trkpt lat="45.42144" lon="6.27706">
        <ele>454.6</ele>
        <time>2022-07-17T05:18:17Z</time>
      </trkpt>
      <trkpt lat="45.42138" lon="6.27703">
        <ele>454.6</ele>
        <time>2022-07-17T05:18:18Z</time>
      </trkpt>
      <trkpt lat="45.42132" lon="6.27701">
        <ele>454.2</ele>
        <time>2022-07-17T05:18:19Z</time>
      </trkpt>
      <trkpt lat="45.42126" lon="6.27699">
        <ele>454.2</ele>
        <time>2022-07-17T05:18:20Z</time>
      </trkpt>
      <trkpt lat="45.42119" lon="6.27697">
        <ele>454.2</ele>
        <time>2022-07-17T05:18:21Z</time>
      </trkpt>
      <trkpt lat="45.42112" lon="6.27696">
        <ele>454.2</ele>
        <time>2022-07-17T05:18:22Z</time>
      </trkpt>
      <trkpt lat="45.42106" lon="6.27696">
        <ele>454</ele>
        <time>2022-07-17T05:18:23Z</time>
      </trkpt>
      <trkpt lat="45.421" lon="6.27697">
        <ele>454</ele>
        <time>2022-07-17T05:18:24Z</time>
      </trkpt>
      <trkpt lat="45.42094" lon="6.27698">
        <ele>454</ele>
        <time>2022-07-17T05:18:25Z</time>
      </trkpt>
      <trkpt lat="45.42089" lon="6.27698">
        <ele>454</ele>
        <time>2022-07-17T05:18:26Z</time>
      </trkpt>
      <trkpt lat="45.42083" lon="6.27699">
        <ele>454</ele>
        <time>2022-07-17T05:18:27Z</time>
      </trkpt>
      <trkpt lat="45.42077" lon="6.277">
        <ele>454</ele>
        <time>2022-07-17T05:18:28Z</time>
      </trkpt>
      <trkpt lat="45.42071" lon="6.277">
        <ele>454</ele>
        <time>2022-07-17T05:18:29Z</time>
      </trkpt>
      <trkpt lat="45.42066" lon="6.27701">
        <ele>454</ele>
        <time>2022-07-17T05:18:30Z</time>
      </trkpt>
      <trkpt lat="45.4206" lon="6.27702">
        <ele>454</ele>
        <time>2022-07-17T05:18:31Z</time>
      </trkpt>
      <trkpt lat="45.42055" lon="6.27702">
        <ele>454</ele>
        <time>2022-07-17T05:18:32Z</time>
      </trkpt>
      <trkpt lat="45.42051" lon="6.27703">
        <ele>454</ele>
        <time>2022-07-17T05:18:33Z</time>
      </trkpt>
      <trkpt lat="45.42048" lon="6.27705">
        <ele>454</ele>
        <time>2022-07-17T05:18:34Z</time>
      </trkpt>
      <trkpt lat="45.42044" lon="6.27707">
        <ele>454</ele>
        <time>2022-07-17T05:18:35Z</time>
      </trkpt>
      <trkpt lat="45.42041" lon="6.27709">
        <ele>454</ele>
        <time>2022-07-17T05:18:36Z</time>
      </trkpt>
      <trkpt lat="45.42037" lon="6.27711">
        <ele>454</ele>
        <time>2022-07-17T05:18:37Z</time>
      </trkpt>
      <trkpt lat="45.42033" lon="6.27714">
        <ele>454</ele>
        <time>2022-07-17T05:18:38Z</time>
      </trkpt>
      <trkpt lat="45.4203" lon="6.27716">
        <ele>454</ele>
        <time>2022-07-17T05:18:39Z</time>
      </trkpt>
      <trkpt lat="45.42026" lon="6.27718">
        <ele>454</ele>
        <time>2022-07-17T05:18:40Z</time>
      </trkpt>
      <trkpt lat="45.42021" lon="6.2772">
        <ele>454</ele>
        <time>2022-07-17T05:18:41Z</time>
      </trkpt>
      <trkpt lat="45.42017" lon="6.27722">
        <ele>454</ele>
        <time>2022-07-17T05:18:42Z</time>
      </trkpt>
      <trkpt lat="45.42012" lon="6.27724">
        <ele>454</ele>
        <time>2022-07-17T05:18:43Z</time>
      </trkpt>
      <trkpt lat="45.42008" lon="6.27725">
        <ele>454</ele>
        <time>2022-07-17T05:18:44Z</time>
      </trkpt>
      <trkpt lat="45.42004" lon="6.27726">
        <ele>454</ele>
        <time>2022-07-17T05:18:45Z</time>
      </trkpt>
      <trkpt lat="45.41999" lon="6.27729">
        <ele>454</ele>
        <time>2022-07-17T05:18:46Z</time>
      </trkpt>
      <trkpt lat="45.41994" lon="6.27731">
        <ele>454</ele>
        <time>2022-07-17T05:18:47Z</time>
      </trkpt>
      <trkpt lat="45.41989" lon="6.27734">
        <ele>454</ele>
        <time>2022-07-17T05:18:48Z</time>
      </trkpt>
      <trkpt lat="45.41985" lon="6.27738">
        <ele>454.2</ele>
        <time>2022-07-17T05:18:49Z</time>
      </trkpt>
      <trkpt lat="45.41981" lon="6.27741">
        <ele>454.2</ele>
        <time>2022-07-17T05:18:50Z</time>
      </trkpt>
      <trkpt lat="45.41976" lon="6.27743">
        <ele>454.4</ele>
        <time>2022-07-17T05:18:51Z</time>
      </trkpt>
      <trkpt lat="45.41972" lon="6.27745">
        <ele>454.4</ele>
        <time>2022-07-17T05:18:52Z</time>
      </trkpt>
      <trkpt lat="45.41967" lon="6.27746">
        <ele>454.6</ele>
        <time>2022-07-17T05:18:53Z</time>
      </trkpt>
      <trkpt lat="45.41963" lon="6.27747">
        <ele>454.6</ele>
        <time>2022-07-17T05:18:54Z</time>
      </trkpt>
      <trkpt lat="45.41959" lon="6.27748">
        <ele>454.6</ele>
        <time>2022-07-17T05:18:55Z</time>
      </trkpt>
      <trkpt lat="45.41954" lon="6.27749">
        <ele>454.8</ele>
        <time>2022-07-17T05:18:56Z</time>
      </trkpt>
      <trkpt lat="45.4195" lon="6.2775">
        <ele>455.2</ele>
        <time>2022-07-17T05:18:57Z</time>
      </trkpt>
      <trkpt lat="45.41945" lon="6.27752">
        <ele>455.2</ele>
        <time>2022-07-17T05:18:58Z</time>
      </trkpt>
      <trkpt lat="45.41941" lon="6.27753">
        <ele>455.4</ele>
        <time>2022-07-17T05:18:59Z</time>
      </trkpt>
      <trkpt lat="45.41936" lon="6.27754">
        <ele>455.4</ele>
        <time>2022-07-17T05:19:00Z</time>
      </trkpt>
      <trkpt lat="45.41932" lon="6.27755">
        <ele>455.8</ele>
        <time>2022-07-17T05:19:01Z</time>
      </trkpt>
      <trkpt lat="45.41928" lon="6.27755">
        <ele>455.8</ele>
        <time>2022-07-17T05:19:02Z</time>
      </trkpt>
      <trkpt lat="45.41923" lon="6.27755">
        <ele>455.8</ele>
        <time>2022-07-17T05:19:03Z</time>
      </trkpt>
      <trkpt lat="45.41918" lon="6.27755">
        <ele>456</ele>
        <time>2022-07-17T05:19:04Z</time>
      </trkpt>
      <trkpt lat="45.41913" lon="6.27755">
        <ele>456</ele>
        <time>2022-07-17T05:19:05Z</time>
      </trkpt>
      <trkpt lat="45.41908" lon="6.27755">
        <ele>456</ele>
        <time>2022-07-17T05:19:06Z</time>
      </trkpt>
      <trkpt lat="45.41904" lon="6.27754">
        <ele>456</ele>
        <time>2022-07-17T05:19:07Z</time>
      </trkpt>
      <trkpt lat="45.41899" lon="6.27754">
        <ele>456</ele>
        <time>2022-07-17T05:19:08Z</time>
      </trkpt>
      <trkpt lat="45.41895" lon="6.27753">
        <ele>456</ele>
        <time>2022-07-17T05:19:09Z</time>
      </trkpt>
      <trkpt lat="45.4189" lon="6.27753">
        <ele>456</ele>
        <time>2022-07-17T05:19:10Z</time>
      </trkpt>
      <trkpt lat="45.41885" lon="6.27752">
        <ele>456</ele>
        <time>2022-07-17T05:19:11Z</time>
      </trkpt>
      <trkpt lat="45.4188" lon="6.27752">
        <ele>456</ele>
        <time>2022-07-17T05:19:12Z</time>
      </trkpt>
      <trkpt lat="45.41875" lon="6.27751">
        <ele>456</ele>
        <time>2022-07-17T05:19:13Z</time>
      </trkpt>
      <trkpt lat="45.4187" lon="6.27751">
        <ele>455.6</ele>
        <time>2022-07-17T05:19:14Z</time>
      </trkpt>
      <trkpt lat="45.41865" lon="6.2775">
        <ele>455.6</ele>
        <time>2022-07-17T05:19:15Z</time>
      </trkpt>
      <trkpt lat="45.4186" lon="6.2775">
        <ele>455.6</ele>
        <time>2022-07-17T05:19:16Z</time>
      </trkpt>
      <trkpt lat="45.41854" lon="6.2775">
        <ele>455.4</ele>
        <time>2022-07-17T05:19:17Z</time>
      </trkpt>
      <trkpt lat="45.41849" lon="6.27749">
        <ele>455.4</ele>
        <time>2022-07-17T05:19:18Z</time>
      </trkpt>
      <trkpt lat="45.41843" lon="6.27748">
        <ele>455</ele>
        <time>2022-07-17T05:19:19Z</time>
      </trkpt>
      <trkpt lat="45.41837" lon="6.27748">
        <ele>455</ele>
        <time>2022-07-17T05:19:20Z</time>
      </trkpt>
      <trkpt lat="45.41832" lon="6.27748">
        <ele>454.8</ele>
        <time>2022-07-17T05:19:21Z</time>
      </trkpt>
      <trkpt lat="45.41826" lon="6.27748">
        <ele>454.8</ele>
        <time>2022-07-17T05:19:22Z</time>
      </trkpt>
      <trkpt lat="45.4182" lon="6.27749">
        <ele>454.8</ele>
        <time>2022-07-17T05:19:23Z</time>
      </trkpt>
      <trkpt lat="45.41814" lon="6.2775">
        <ele>454.6</ele>
        <time>2022-07-17T05:19:24Z</time>
      </trkpt>
      <trkpt lat="45.41808" lon="6.27752">
        <ele>454.6</ele>
        <time>2022-07-17T05:19:25Z</time>
      </trkpt>
      <trkpt lat="45.41801" lon="6.27753">
        <ele>454.2</ele>
        <time>2022-07-17T05:19:26Z</time>
      </trkpt>
      <trkpt lat="45.41795" lon="6.27755">
        <ele>454.2</ele>
        <time>2022-07-17T05:19:27Z</time>
      </trkpt>
      <trkpt lat="45.41789" lon="6.27756">
        <ele>454</ele>
        <time>2022-07-17T05:19:28Z</time>
      </trkpt>
      <trkpt lat="45.41783" lon="6.27758">
        <ele>454</ele>
        <time>2022-07-17T05:19:29Z</time>
      </trkpt>
      <trkpt lat="45.41776" lon="6.27759">
        <ele>453.6</ele>
        <time>2022-07-17T05:19:30Z</time>
      </trkpt>
      <trkpt lat="45.4177" lon="6.27761">
        <ele>453.6</ele>
        <time>2022-07-17T05:19:31Z</time>
      </trkpt>
      <trkpt lat="45.41764" lon="6.27763">
        <ele>453.4</ele>
        <time>2022-07-17T05:19:32Z</time>
      </trkpt>
      <trkpt lat="45.41758" lon="6.27765">
        <ele>453.2</ele>
        <time>2022-07-17T05:19:33Z</time>
      </trkpt>
      <trkpt lat="45.41752" lon="6.27767">
        <ele>453.2</ele>
        <time>2022-07-17T05:19:34Z</time>
      </trkpt>
      <trkpt lat="45.41746" lon="6.2777">
        <ele>453</ele>
        <time>2022-07-17T05:19:35Z</time>
      </trkpt>
      <trkpt lat="45.4174" lon="6.27772">
        <ele>453</ele>
        <time>2022-07-17T05:19:36Z</time>
      </trkpt>
      <trkpt lat="45.41734" lon="6.27774">
        <ele>453</ele>
        <time>2022-07-17T05:19:37Z</time>
      </trkpt>
      <trkpt lat="45.41728" lon="6.27777">
        <ele>452.8</ele>
        <time>2022-07-17T05:19:38Z</time>
      </trkpt>
      <trkpt lat="45.41722" lon="6.27779">
        <ele>452.8</ele>
        <time>2022-07-17T05:19:39Z</time>
      </trkpt>
      <trkpt lat="45.41716" lon="6.27782">
        <ele>452.8</ele>
        <time>2022-07-17T05:19:40Z</time>
      </trkpt>
      <trkpt lat="45.4171" lon="6.27784">
        <ele>452.8</ele>
        <time>2022-07-17T05:19:41Z</time>
      </trkpt>
      <trkpt lat="45.41704" lon="6.27788">
        <ele>452.8</ele>
        <time>2022-07-17T05:19:42Z</time>
      </trkpt>
      <trkpt lat="45.41699" lon="6.27792">
        <ele>452.8</ele>
        <time>2022-07-17T05:19:43Z</time>
      </trkpt>
      <trkpt lat="45.41694" lon="6.27796">
        <ele>452.4</ele>
        <time>2022-07-17T05:19:44Z</time>
      </trkpt>
      <trkpt lat="45.41689" lon="6.27801">
        <ele>452.4</ele>
        <time>2022-07-17T05:19:45Z</time>
      </trkpt>
      <trkpt lat="45.41685" lon="6.27806">
        <ele>452.4</ele>
        <time>2022-07-17T05:19:46Z</time>
      </trkpt>
      <trkpt lat="45.4168" lon="6.27811">
        <ele>452.4</ele>
        <time>2022-07-17T05:19:47Z</time>
      </trkpt>
      <trkpt lat="45.41676" lon="6.27816">
        <ele>452.4</ele>
        <time>2022-07-17T05:19:48Z</time>
      </trkpt>
      <trkpt lat="45.41671" lon="6.27821">
        <ele>452.4</ele>
        <time>2022-07-17T05:19:49Z</time>
      </trkpt>
      <trkpt lat="45.41666" lon="6.27825">
        <ele>452.4</ele>
        <time>2022-07-17T05:19:50Z</time>
      </trkpt>
      <trkpt lat="45.41661" lon="6.27829">
        <ele>452.4</ele>
        <time>2022-07-17T05:19:51Z</time>
      </trkpt>
      <trkpt lat="45.41656" lon="6.27832">
        <ele>452.4</ele>
        <time>2022-07-17T05:19:52Z</time>
      </trkpt>
      <trkpt lat="45.41651" lon="6.27835">
        <ele>452.4</ele>
        <time>2022-07-17T05:19:53Z</time>
      </trkpt>
      <trkpt lat="45.41645" lon="6.27837">
        <ele>452.2</ele>
        <time>2022-07-17T05:19:54Z</time>
      </trkpt>
      <trkpt lat="45.41639" lon="6.27839">
        <ele>452.2</ele>
        <time>2022-07-17T05:19:55Z</time>
      </trkpt>
      <trkpt lat="45.41633" lon="6.2784">
        <ele>451.8</ele>
        <time>2022-07-17T05:19:56Z</time>
      </trkpt>
      <trkpt lat="45.41627" lon="6.27841">
        <ele>451.8</ele>
        <time>2022-07-17T05:19:57Z</time>
      </trkpt>
      <trkpt lat="45.41621" lon="6.27841">
        <ele>451.6</ele>
        <time>2022-07-17T05:19:58Z</time>
      </trkpt>
      <trkpt lat="45.41614" lon="6.27842">
        <ele>451.6</ele>
        <time>2022-07-17T05:19:59Z</time>
      </trkpt>
      <trkpt lat="45.41608" lon="6.27842">
        <ele>451.2</ele>
        <time>2022-07-17T05:20:00Z</time>
      </trkpt>
      <trkpt lat="45.41601" lon="6.27843">
        <ele>451</ele>
        <time>2022-07-17T05:20:01Z</time>
      </trkpt>
      <trkpt lat="45.41594" lon="6.27845">
        <ele>450.8</ele>
        <time>2022-07-17T05:20:02Z</time>
      </trkpt>
      <trkpt lat="45.41588" lon="6.27847">
        <ele>450.4</ele>
        <time>2022-07-17T05:20:03Z</time>
      </trkpt>
      <trkpt lat="45.41581" lon="6.27851">
        <ele>450.2</ele>
        <time>2022-07-17T05:20:04Z</time>
      </trkpt>
      <trkpt lat="45.41574" lon="6.27855">
        <ele>450</ele>
        <time>2022-07-17T05:20:05Z</time>
      </trkpt>
      <trkpt lat="45.41568" lon="6.27859">
        <ele>449.8</ele>
        <time>2022-07-17T05:20:06Z</time>
      </trkpt>
      <trkpt lat="45.41561" lon="6.27864">
        <ele>449.4</ele>
        <time>2022-07-17T05:20:07Z</time>
      </trkpt>
      <trkpt lat="45.41555" lon="6.27869">
        <ele>449.2</ele>
        <time>2022-07-17T05:20:08Z</time>
      </trkpt>
      <trkpt lat="45.41548" lon="6.27875">
        <ele>449</ele>
        <time>2022-07-17T05:20:09Z</time>
      </trkpt>
      <trkpt lat="45.41542" lon="6.2788">
        <ele>449</ele>
        <time>2022-07-17T05:20:10Z</time>
      </trkpt>
      <trkpt lat="45.41536" lon="6.27886">
        <ele>448.6</ele>
        <time>2022-07-17T05:20:11Z</time>
      </trkpt>
      <trkpt lat="45.41529" lon="6.27891">
        <ele>448.6</ele>
        <time>2022-07-17T05:20:12Z</time>
      </trkpt>
      <trkpt lat="45.41523" lon="6.27897">
        <ele>448.4</ele>
        <time>2022-07-17T05:20:13Z</time>
      </trkpt>
      <trkpt lat="45.41517" lon="6.27902">
        <ele>448.2</ele>
        <time>2022-07-17T05:20:14Z</time>
      </trkpt>
      <trkpt lat="45.41511" lon="6.27908">
        <ele>448.2</ele>
        <time>2022-07-17T05:20:15Z</time>
      </trkpt>
      <trkpt lat="45.41504" lon="6.27913">
        <ele>447.8</ele>
        <time>2022-07-17T05:20:16Z</time>
      </trkpt>
      <trkpt lat="45.41498" lon="6.27919">
        <ele>447.8</ele>
        <time>2022-07-17T05:20:17Z</time>
      </trkpt>
      <trkpt lat="45.41491" lon="6.27924">
        <ele>447.4</ele>
        <time>2022-07-17T05:20:18Z</time>
      </trkpt>
      <trkpt lat="45.41485" lon="6.27929">
        <ele>447.4</ele>
        <time>2022-07-17T05:20:19Z</time>
      </trkpt>
      <trkpt lat="45.41478" lon="6.27934">
        <ele>447</ele>
        <time>2022-07-17T05:20:20Z</time>
      </trkpt>
      <trkpt lat="45.41471" lon="6.27939">
        <ele>447</ele>
        <time>2022-07-17T05:20:21Z</time>
      </trkpt>
      <trkpt lat="45.41465" lon="6.27945">
        <ele>446.8</ele>
        <time>2022-07-17T05:20:22Z</time>
      </trkpt>
      <trkpt lat="45.41459" lon="6.2795">
        <ele>446.8</ele>
        <time>2022-07-17T05:20:23Z</time>
      </trkpt>
      <trkpt lat="45.41454" lon="6.27956">
        <ele>446.4</ele>
        <time>2022-07-17T05:20:24Z</time>
      </trkpt>
      <trkpt lat="45.41448" lon="6.27962">
        <ele>446.4</ele>
        <time>2022-07-17T05:20:25Z</time>
      </trkpt>
      <trkpt lat="45.41444" lon="6.27969">
        <ele>446.4</ele>
        <time>2022-07-17T05:20:26Z</time>
      </trkpt>
      <trkpt lat="45.41439" lon="6.27975">
        <ele>446</ele>
        <time>2022-07-17T05:20:27Z</time>
      </trkpt>
      <trkpt lat="45.41435" lon="6.27981">
        <ele>446</ele>
        <time>2022-07-17T05:20:28Z</time>
      </trkpt>
      <trkpt lat="45.41431" lon="6.27988">
        <ele>446</ele>
        <time>2022-07-17T05:20:29Z</time>
      </trkpt>
      <trkpt lat="45.41427" lon="6.27995">
        <ele>446</ele>
        <time>2022-07-17T05:20:30Z</time>
      </trkpt>
      <trkpt lat="45.41424" lon="6.28001">
        <ele>446</ele>
        <time>2022-07-17T05:20:31Z</time>
      </trkpt>
      <trkpt lat="45.4142" lon="6.28008">
        <ele>446</ele>
        <time>2022-07-17T05:20:32Z</time>
      </trkpt>
      <trkpt lat="45.41417" lon="6.28015">
        <ele>446</ele>
        <time>2022-07-17T05:20:33Z</time>
      </trkpt>
      <trkpt lat="45.41414" lon="6.28022">
        <ele>446</ele>
        <time>2022-07-17T05:20:34Z</time>
      </trkpt>
      <trkpt lat="45.41411" lon="6.28028">
        <ele>446</ele>
        <time>2022-07-17T05:20:35Z</time>
      </trkpt>
      <trkpt lat="45.41408" lon="6.28035">
        <ele>446</ele>
        <time>2022-07-17T05:20:36Z</time>
      </trkpt>
      <trkpt lat="45.41405" lon="6.28041">
        <ele>446</ele>
        <time>2022-07-17T05:20:37Z</time>
      </trkpt>
      <trkpt lat="45.41402" lon="6.28047">
        <ele>446</ele>
        <time>2022-07-17T05:20:38Z</time>
      </trkpt>
      <trkpt lat="45.41399" lon="6.28054">
        <ele>446</ele>
        <time>2022-07-17T05:20:39Z</time>
      </trkpt>
      <trkpt lat="45.41396" lon="6.2806">
        <ele>446</ele>
        <time>2022-07-17T05:20:40Z</time>
      </trkpt>
      <trkpt lat="45.41393" lon="6.28067">
        <ele>445.8</ele>
        <time>2022-07-17T05:20:41Z</time>
      </trkpt>
      <trkpt lat="45.41389" lon="6.28073">
        <ele>445.8</ele>
        <time>2022-07-17T05:20:42Z</time>
      </trkpt>
      <trkpt lat="45.41386" lon="6.2808">
        <ele>445.6</ele>
        <time>2022-07-17T05:20:43Z</time>
      </trkpt>
      <trkpt lat="45.41382" lon="6.28086">
        <ele>445.4</ele>
        <time>2022-07-17T05:20:44Z</time>
      </trkpt>
      <trkpt lat="45.41378" lon="6.28092">
        <ele>445.2</ele>
        <time>2022-07-17T05:20:45Z</time>
      </trkpt>
      <trkpt lat="45.41374" lon="6.28099">
        <ele>445</ele>
        <time>2022-07-17T05:20:46Z</time>
      </trkpt>
      <trkpt lat="45.41368" lon="6.28105">
        <ele>444.6</ele>
        <time>2022-07-17T05:20:47Z</time>
      </trkpt>
      <trkpt lat="45.41363" lon="6.28111">
        <ele>444.4</ele>
        <time>2022-07-17T05:20:48Z</time>
      </trkpt>
      <trkpt lat="45.41357" lon="6.28117">
        <ele>444</ele>
        <time>2022-07-17T05:20:49Z</time>
      </trkpt>
      <trkpt lat="45.41351" lon="6.28123">
        <ele>443.6</ele>
        <time>2022-07-17T05:20:50Z</time>
      </trkpt>
      <trkpt lat="45.41345" lon="6.2813">
        <ele>443.4</ele>
        <time>2022-07-17T05:20:51Z</time>
      </trkpt>
      <trkpt lat="45.4134" lon="6.28137">
        <ele>443.2</ele>
        <time>2022-07-17T05:20:52Z</time>
      </trkpt>
      <trkpt lat="45.41334" lon="6.28145">
        <ele>442.8</ele>
        <time>2022-07-17T05:20:53Z</time>
      </trkpt>
      <trkpt lat="45.41329" lon="6.28153">
        <ele>442.6</ele>
        <time>2022-07-17T05:20:54Z</time>
      </trkpt>
      <trkpt lat="45.41325" lon="6.28161">
        <ele>442.4</ele>
        <time>2022-07-17T05:20:55Z</time>
      </trkpt>
      <trkpt lat="45.4132" lon="6.28169">
        <ele>442.2</ele>
        <time>2022-07-17T05:20:56Z</time>
      </trkpt>
      <trkpt lat="45.41316" lon="6.28176">
        <ele>441.8</ele>
        <time>2022-07-17T05:20:57Z</time>
      </trkpt>
      <trkpt lat="45.41311" lon="6.28183">
        <ele>441.6</ele>
        <time>2022-07-17T05:20:58Z</time>
      </trkpt>
      <trkpt lat="45.41307" lon="6.28189">
        <ele>441.2</ele>
        <time>2022-07-17T05:20:59Z</time>
      </trkpt>
      <trkpt lat="45.41304" lon="6.28194">
        <ele>441</ele>
        <time>2022-07-17T05:21:00Z</time>
      </trkpt>
      <trkpt lat="45.41301" lon="6.28199">
        <ele>440.8</ele>
        <time>2022-07-17T05:21:01Z</time>
      </trkpt>
      <trkpt lat="45.41299" lon="6.28203">
        <ele>440.8</ele>
        <time>2022-07-17T05:21:02Z</time>
      </trkpt>
      <trkpt lat="45.41295" lon="6.28207">
        <ele>440.4</ele>
        <time>2022-07-17T05:21:03Z</time>
      </trkpt>
      <trkpt lat="45.41291" lon="6.28211">
        <ele>440</ele>
        <time>2022-07-17T05:21:04Z</time>
      </trkpt>
      <trkpt lat="45.41286" lon="6.28215">
        <ele>439.8</ele>
        <time>2022-07-17T05:21:05Z</time>
      </trkpt>
      <trkpt lat="45.41281" lon="6.28219">
        <ele>439.4</ele>
        <time>2022-07-17T05:21:06Z</time>
      </trkpt>
      <trkpt lat="45.41275" lon="6.28223">
        <ele>439</ele>
        <time>2022-07-17T05:21:07Z</time>
      </trkpt>
      <trkpt lat="45.41268" lon="6.28225">
        <ele>438.6</ele>
        <time>2022-07-17T05:21:08Z</time>
      </trkpt>
      <trkpt lat="45.4126" lon="6.28226">
        <ele>438.2</ele>
        <time>2022-07-17T05:21:09Z</time>
      </trkpt>
      <trkpt lat="45.41252" lon="6.28226">
        <ele>437.6</ele>
        <time>2022-07-17T05:21:10Z</time>
      </trkpt>
      <trkpt lat="45.41244" lon="6.28226">
        <ele>437.2</ele>
        <time>2022-07-17T05:21:11Z</time>
      </trkpt>
      <trkpt lat="45.41236" lon="6.28227">
        <ele>436.6</ele>
        <time>2022-07-17T05:21:12Z</time>
      </trkpt>
      <trkpt lat="45.41229" lon="6.28228">
        <ele>436.2</ele>
        <time>2022-07-17T05:21:13Z</time>
      </trkpt>
      <trkpt lat="45.41222" lon="6.28231">
        <ele>435.6</ele>
        <time>2022-07-17T05:21:14Z</time>
      </trkpt>
      <trkpt lat="45.41214" lon="6.28235">
        <ele>435</ele>
        <time>2022-07-17T05:21:15Z</time>
      </trkpt>
      <trkpt lat="45.41207" lon="6.2824">
        <ele>434.6</ele>
        <time>2022-07-17T05:21:16Z</time>
      </trkpt>
      <trkpt lat="45.41199" lon="6.28246">
        <ele>434</ele>
        <time>2022-07-17T05:21:17Z</time>
      </trkpt>
      <trkpt lat="45.41191" lon="6.28252">
        <ele>433.6</ele>
        <time>2022-07-17T05:21:18Z</time>
      </trkpt>
      <trkpt lat="45.41185" lon="6.28258">
        <ele>433</ele>
        <time>2022-07-17T05:21:19Z</time>
      </trkpt>
      <trkpt lat="45.41178" lon="6.28265">
        <ele>432.4</ele>
        <time>2022-07-17T05:21:20Z</time>
      </trkpt>
      <trkpt lat="45.41172" lon="6.28271">
        <ele>431.8</ele>
        <time>2022-07-17T05:21:21Z</time>
      </trkpt>
      <trkpt lat="45.41166" lon="6.28278">
        <ele>431.4</ele>
        <time>2022-07-17T05:21:22Z</time>
      </trkpt>
      <trkpt lat="45.41159" lon="6.28284">
        <ele>430.8</ele>
        <time>2022-07-17T05:21:23Z</time>
      </trkpt>
      <trkpt lat="45.41153" lon="6.28291">
        <ele>430.4</ele>
        <time>2022-07-17T05:21:24Z</time>
      </trkpt>
      <trkpt lat="45.41146" lon="6.28298">
        <ele>430</ele>
        <time>2022-07-17T05:21:25Z</time>
      </trkpt>
      <trkpt lat="45.41139" lon="6.28305">
        <ele>429.6</ele>
        <time>2022-07-17T05:21:26Z</time>
      </trkpt>
      <trkpt lat="45.41132" lon="6.28312">
        <ele>429.2</ele>
        <time>2022-07-17T05:21:27Z</time>
      </trkpt>
      <trkpt lat="45.41126" lon="6.28319">
        <ele>429</ele>
        <time>2022-07-17T05:21:28Z</time>
      </trkpt>
      <trkpt lat="45.41119" lon="6.28325">
        <ele>428.6</ele>
        <time>2022-07-17T05:21:29Z</time>
      </trkpt>
      <trkpt lat="45.41113" lon="6.28332">
        <ele>428.2</ele>
        <time>2022-07-17T05:21:30Z</time>
      </trkpt>
      <trkpt lat="45.41106" lon="6.28337">
        <ele>428.2</ele>
        <time>2022-07-17T05:21:31Z</time>
      </trkpt>
      <trkpt lat="45.41099" lon="6.28343">
        <ele>427.8</ele>
        <time>2022-07-17T05:21:32Z</time>
      </trkpt>
      <trkpt lat="45.4109" lon="6.28347">
        <ele>427.4</ele>
        <time>2022-07-17T05:21:33Z</time>
      </trkpt>
      <trkpt lat="45.41081" lon="6.28348">
        <ele>426.8</ele>
        <time>2022-07-17T05:21:34Z</time>
      </trkpt>
      <trkpt lat="45.41071" lon="6.28347">
        <ele>426</ele>
        <time>2022-07-17T05:21:35Z</time>
      </trkpt>
      <trkpt lat="45.41061" lon="6.28344">
        <ele>425.4</ele>
        <time>2022-07-17T05:21:36Z</time>
      </trkpt>
      <trkpt lat="45.4105" lon="6.2834">
        <ele>424.6</ele>
        <time>2022-07-17T05:21:37Z</time>
      </trkpt>
      <trkpt lat="45.4104" lon="6.28336">
        <ele>423.6</ele>
        <time>2022-07-17T05:21:38Z</time>
      </trkpt>
      <trkpt lat="45.4103" lon="6.28333">
        <ele>422.8</ele>
        <time>2022-07-17T05:21:39Z</time>
      </trkpt>
      <trkpt lat="45.41019" lon="6.2833">
        <ele>421.8</ele>
        <time>2022-07-17T05:21:40Z</time>
      </trkpt>
      <trkpt lat="45.41008" lon="6.28327">
        <ele>420.8</ele>
        <time>2022-07-17T05:21:41Z</time>
      </trkpt>
      <trkpt lat="45.40997" lon="6.28324">
        <ele>419.6</ele>
        <time>2022-07-17T05:21:42Z</time>
      </trkpt>
      <trkpt lat="45.40985" lon="6.28322">
        <ele>418.6</ele>
        <time>2022-07-17T05:21:43Z</time>
      </trkpt>
      <trkpt lat="45.40974" lon="6.28321">
        <ele>417.8</ele>
        <time>2022-07-17T05:21:44Z</time>
      </trkpt>
      <trkpt lat="45.40962" lon="6.28321">
        <ele>416.6</ele>
        <time>2022-07-17T05:21:45Z</time>
      </trkpt>
      <trkpt lat="45.40938" lon="6.28323">
        <ele>415.6</ele>
        <time>2022-07-17T05:21:46Z</time>
      </trkpt>
      <trkpt lat="45.40926" lon="6.28324">
        <ele>414.6</ele>
        <time>2022-07-17T05:21:47Z</time>
      </trkpt>
      <trkpt lat="45.40913" lon="6.28324">
        <ele>413.4</ele>
        <time>2022-07-17T05:21:48Z</time>
      </trkpt>
      <trkpt lat="45.40901" lon="6.28325">
        <ele>412.4</ele>
        <time>2022-07-17T05:21:49Z</time>
      </trkpt>
      <trkpt lat="45.40889" lon="6.28327">
        <ele>411.2</ele>
        <time>2022-07-17T05:21:50Z</time>
      </trkpt>
      <trkpt lat="45.40877" lon="6.28331">
        <ele>410.2</ele>
        <time>2022-07-17T05:21:51Z</time>
      </trkpt>
      <trkpt lat="45.40865" lon="6.28337">
        <ele>409</ele>
        <time>2022-07-17T05:21:52Z</time>
      </trkpt>
      <trkpt lat="45.40852" lon="6.28344">
        <ele>407.8</ele>
        <time>2022-07-17T05:21:53Z</time>
      </trkpt>
      <trkpt lat="45.40839" lon="6.28351">
        <ele>406.6</ele>
        <time>2022-07-17T05:21:54Z</time>
      </trkpt>
      <trkpt lat="45.40826" lon="6.28358">
        <ele>405.6</ele>
        <time>2022-07-17T05:21:55Z</time>
      </trkpt>
      <trkpt lat="45.40813" lon="6.28363">
        <ele>404.4</ele>
        <time>2022-07-17T05:21:56Z</time>
      </trkpt>
      <trkpt lat="45.408" lon="6.28365">
        <ele>403.2</ele>
        <time>2022-07-17T05:21:57Z</time>
      </trkpt>
      <trkpt lat="45.40786" lon="6.28366">
        <ele>402.2</ele>
        <time>2022-07-17T05:21:58Z</time>
      </trkpt>
      <trkpt lat="45.40773" lon="6.28364">
        <ele>401.4</ele>
        <time>2022-07-17T05:21:59Z</time>
      </trkpt>
      <trkpt lat="45.40761" lon="6.28361">
        <ele>400.8</ele>
        <time>2022-07-17T05:22:00Z</time>
      </trkpt>
      <trkpt lat="45.40749" lon="6.28357">
        <ele>400.2</ele>
        <time>2022-07-17T05:22:01Z</time>
      </trkpt>
      <trkpt lat="45.40738" lon="6.28354">
        <ele>399.8</ele>
        <time>2022-07-17T05:22:02Z</time>
      </trkpt>
      <trkpt lat="45.40728" lon="6.28352">
        <ele>399.6</ele>
        <time>2022-07-17T05:22:03Z</time>
      </trkpt>
      <trkpt lat="45.40717" lon="6.2835">
        <ele>399.4</ele>
        <time>2022-07-17T05:22:04Z</time>
      </trkpt>
      <trkpt lat="45.40708" lon="6.28348">
        <ele>399.4</ele>
        <time>2022-07-17T05:22:05Z</time>
      </trkpt>
      <trkpt lat="45.40699" lon="6.28345">
        <ele>399</ele>
        <time>2022-07-17T05:22:06Z</time>
      </trkpt>
      <trkpt lat="45.4069" lon="6.28343">
        <ele>399</ele>
        <time>2022-07-17T05:22:07Z</time>
      </trkpt>
      <trkpt lat="45.40682" lon="6.2834">
        <ele>398.6</ele>
        <time>2022-07-17T05:22:08Z</time>
      </trkpt>
      <trkpt lat="45.40674" lon="6.28338">
        <ele>398.6</ele>
        <time>2022-07-17T05:22:09Z</time>
      </trkpt>
      <trkpt lat="45.40666" lon="6.28335">
        <ele>398.6</ele>
        <time>2022-07-17T05:22:10Z</time>
      </trkpt>
      <trkpt lat="45.40659" lon="6.28333">
        <ele>398.6</ele>
        <time>2022-07-17T05:22:11Z</time>
      </trkpt>
      <trkpt lat="45.40652" lon="6.2833">
        <ele>398.6</ele>
        <time>2022-07-17T05:22:12Z</time>
      </trkpt>
      <trkpt lat="45.40645" lon="6.28328">
        <ele>398.6</ele>
        <time>2022-07-17T05:22:13Z</time>
      </trkpt>
      <trkpt lat="45.40638" lon="6.28326">
        <ele>399</ele>
        <time>2022-07-17T05:22:14Z</time>
      </trkpt>
      <trkpt lat="45.40632" lon="6.28324">
        <ele>399</ele>
        <time>2022-07-17T05:22:15Z</time>
      </trkpt>
      <trkpt lat="45.40626" lon="6.28323">
        <ele>399.2</ele>
        <time>2022-07-17T05:22:16Z</time>
      </trkpt>
      <trkpt lat="45.4062" lon="6.28321">
        <ele>399.2</ele>
        <time>2022-07-17T05:22:17Z</time>
      </trkpt>
      <trkpt lat="45.40614" lon="6.2832">
        <ele>399.6</ele>
        <time>2022-07-17T05:22:18Z</time>
      </trkpt>
      <trkpt lat="45.40608" lon="6.28318">
        <ele>399.6</ele>
        <time>2022-07-17T05:22:19Z</time>
      </trkpt>
      <trkpt lat="45.40602" lon="6.28317">
        <ele>399.6</ele>
        <time>2022-07-17T05:22:20Z</time>
      </trkpt>
      <trkpt lat="45.40597" lon="6.28317">
        <ele>399.8</ele>
        <time>2022-07-17T05:22:21Z</time>
      </trkpt>
      <trkpt lat="45.40591" lon="6.28316">
        <ele>399.8</ele>
        <time>2022-07-17T05:22:22Z</time>
      </trkpt>
      <trkpt lat="45.40585" lon="6.28315">
        <ele>399.8</ele>
        <time>2022-07-17T05:22:23Z</time>
      </trkpt>
      <trkpt lat="45.40578" lon="6.28315">
        <ele>399.8</ele>
        <time>2022-07-17T05:22:24Z</time>
      </trkpt>
      <trkpt lat="45.40572" lon="6.28315">
        <ele>399.8</ele>
        <time>2022-07-17T05:22:25Z</time>
      </trkpt>
      <trkpt lat="45.40565" lon="6.28314">
        <ele>399.8</ele>
        <time>2022-07-17T05:22:26Z</time>
      </trkpt>
      <trkpt lat="45.40559" lon="6.28314">
        <ele>399.8</ele>
        <time>2022-07-17T05:22:27Z</time>
      </trkpt>
      <trkpt lat="45.40553" lon="6.28314">
        <ele>399.4</ele>
        <time>2022-07-17T05:22:28Z</time>
      </trkpt>
      <trkpt lat="45.40547" lon="6.28312">
        <ele>399.4</ele>
        <time>2022-07-17T05:22:29Z</time>
      </trkpt>
      <trkpt lat="45.4054" lon="6.2831">
        <ele>399.2</ele>
        <time>2022-07-17T05:22:30Z</time>
      </trkpt>
      <trkpt lat="45.40534" lon="6.28308">
        <ele>399.2</ele>
        <time>2022-07-17T05:22:31Z</time>
      </trkpt>
      <trkpt lat="45.40528" lon="6.28305">
        <ele>399.2</ele>
        <time>2022-07-17T05:22:32Z</time>
      </trkpt>
      <trkpt lat="45.40521" lon="6.28302">
        <ele>399.2</ele>
        <time>2022-07-17T05:22:33Z</time>
      </trkpt>
      <trkpt lat="45.40515" lon="6.28299">
        <ele>399.2</ele>
        <time>2022-07-17T05:22:34Z</time>
      </trkpt>
      <trkpt lat="45.40509" lon="6.28295">
        <ele>399.2</ele>
        <time>2022-07-17T05:22:35Z</time>
      </trkpt>
      <trkpt lat="45.40503" lon="6.28291">
        <ele>399.2</ele>
        <time>2022-07-17T05:22:36Z</time>
      </trkpt>
      <trkpt lat="45.40497" lon="6.28286">
        <ele>399.2</ele>
        <time>2022-07-17T05:22:37Z</time>
      </trkpt>
      <trkpt lat="45.40491" lon="6.28282">
        <ele>399.2</ele>
        <time>2022-07-17T05:22:38Z</time>
      </trkpt>
      <trkpt lat="45.40486" lon="6.28277">
        <ele>399.2</ele>
        <time>2022-07-17T05:22:39Z</time>
      </trkpt>
      <trkpt lat="45.4048" lon="6.28272">
        <ele>399.2</ele>
        <time>2022-07-17T05:22:40Z</time>
      </trkpt>
      <trkpt lat="45.40475" lon="6.28267">
        <ele>399.4</ele>
        <time>2022-07-17T05:22:41Z</time>
      </trkpt>
      <trkpt lat="45.4047" lon="6.28263">
        <ele>399.4</ele>
        <time>2022-07-17T05:22:42Z</time>
      </trkpt>
      <trkpt lat="45.40465" lon="6.28259">
        <ele>399.4</ele>
        <time>2022-07-17T05:22:43Z</time>
      </trkpt>
      <trkpt lat="45.40459" lon="6.28254">
        <ele>399.4</ele>
        <time>2022-07-17T05:22:44Z</time>
      </trkpt>
      <trkpt lat="45.40454" lon="6.28249">
        <ele>399.4</ele>
        <time>2022-07-17T05:22:45Z</time>
      </trkpt>
      <trkpt lat="45.40449" lon="6.28245">
        <ele>399.4</ele>
        <time>2022-07-17T05:22:46Z</time>
      </trkpt>
      <trkpt lat="45.40444" lon="6.28241">
        <ele>399.4</ele>
        <time>2022-07-17T05:22:47Z</time>
      </trkpt>
      <trkpt lat="45.40439" lon="6.28237">
        <ele>399.4</ele>
        <time>2022-07-17T05:22:48Z</time>
      </trkpt>
      <trkpt lat="45.40434" lon="6.28233">
        <ele>399.4</ele>
        <time>2022-07-17T05:22:49Z</time>
      </trkpt>
      <trkpt lat="45.40428" lon="6.28229">
        <ele>399.6</ele>
        <time>2022-07-17T05:22:50Z</time>
      </trkpt>
      <trkpt lat="45.40423" lon="6.28225">
        <ele>399.6</ele>
        <time>2022-07-17T05:22:51Z</time>
      </trkpt>
      <trkpt lat="45.40417" lon="6.28222">
        <ele>399.6</ele>
        <time>2022-07-17T05:22:52Z</time>
      </trkpt>
      <trkpt lat="45.40412" lon="6.28218">
        <ele>399.6</ele>
        <time>2022-07-17T05:22:53Z</time>
      </trkpt>
      <trkpt lat="45.40407" lon="6.28215">
        <ele>399.6</ele>
        <time>2022-07-17T05:22:54Z</time>
      </trkpt>
      <trkpt lat="45.40402" lon="6.28212">
        <ele>399.6</ele>
        <time>2022-07-17T05:22:55Z</time>
      </trkpt>
      <trkpt lat="45.40396" lon="6.28209">
        <ele>399.6</ele>
        <time>2022-07-17T05:22:56Z</time>
      </trkpt>
      <trkpt lat="45.40391" lon="6.28206">
        <ele>399.8</ele>
        <time>2022-07-17T05:22:57Z</time>
      </trkpt>
      <trkpt lat="45.40385" lon="6.28203">
        <ele>399.8</ele>
        <time>2022-07-17T05:22:58Z</time>
      </trkpt>
      <trkpt lat="45.4038" lon="6.282">
        <ele>399.8</ele>
        <time>2022-07-17T05:22:59Z</time>
      </trkpt>
      <trkpt lat="45.40374" lon="6.28197">
        <ele>399.8</ele>
        <time>2022-07-17T05:23:00Z</time>
      </trkpt>
      <trkpt lat="45.40369" lon="6.28194">
        <ele>399.8</ele>
        <time>2022-07-17T05:23:01Z</time>
      </trkpt>
      <trkpt lat="45.40364" lon="6.28191">
        <ele>400.2</ele>
        <time>2022-07-17T05:23:02Z</time>
      </trkpt>
      <trkpt lat="45.40358" lon="6.28188">
        <ele>400.2</ele>
        <time>2022-07-17T05:23:03Z</time>
      </trkpt>
      <trkpt lat="45.40352" lon="6.28185">
        <ele>400.2</ele>
        <time>2022-07-17T05:23:04Z</time>
      </trkpt>
      <trkpt lat="45.40347" lon="6.28182">
        <ele>400.2</ele>
        <time>2022-07-17T05:23:05Z</time>
      </trkpt>
      <trkpt lat="45.40341" lon="6.28179">
        <ele>400.2</ele>
        <time>2022-07-17T05:23:06Z</time>
      </trkpt>
      <trkpt lat="45.40336" lon="6.28176">
        <ele>400.2</ele>
        <time>2022-07-17T05:23:07Z</time>
      </trkpt>
      <trkpt lat="45.4033" lon="6.28172">
        <ele>400.4</ele>
        <time>2022-07-17T05:23:08Z</time>
      </trkpt>
      <trkpt lat="45.40325" lon="6.28168">
        <ele>400.4</ele>
        <time>2022-07-17T05:23:09Z</time>
      </trkpt>
      <trkpt lat="45.40321" lon="6.28165">
        <ele>400.4</ele>
        <time>2022-07-17T05:23:10Z</time>
      </trkpt>
      <trkpt lat="45.40317" lon="6.28162">
        <ele>400.4</ele>
        <time>2022-07-17T05:23:11Z</time>
      </trkpt>
      <trkpt lat="45.40312" lon="6.2816">
        <ele>400.4</ele>
        <time>2022-07-17T05:23:12Z</time>
      </trkpt>
      <trkpt lat="45.40306" lon="6.2816">
        <ele>400.4</ele>
        <time>2022-07-17T05:23:13Z</time>
      </trkpt>
      <trkpt lat="45.40301" lon="6.28161">
        <ele>400.4</ele>
        <time>2022-07-17T05:23:14Z</time>
      </trkpt>
      <trkpt lat="45.40296" lon="6.28164">
        <ele>400.4</ele>
        <time>2022-07-17T05:23:15Z</time>
      </trkpt>
      <trkpt lat="45.4029" lon="6.28165">
        <ele>400.4</ele>
        <time>2022-07-17T05:23:16Z</time>
      </trkpt>
      <trkpt lat="45.40285" lon="6.28165">
        <ele>400.4</ele>
        <time>2022-07-17T05:23:17Z</time>
      </trkpt>
      <trkpt lat="45.40279" lon="6.28163">
        <ele>400.4</ele>
        <time>2022-07-17T05:23:18Z</time>
      </trkpt>
      <trkpt lat="45.40274" lon="6.28162">
        <ele>400.4</ele>
        <time>2022-07-17T05:23:19Z</time>
      </trkpt>
      <trkpt lat="45.40269" lon="6.28161">
        <ele>400.4</ele>
        <time>2022-07-17T05:23:20Z</time>
      </trkpt>
      <trkpt lat="45.40264" lon="6.2816">
        <ele>400.4</ele>
        <time>2022-07-17T05:23:21Z</time>
      </trkpt>
      <trkpt lat="45.40259" lon="6.2816">
        <ele>400.4</ele>
        <time>2022-07-17T05:23:22Z</time>
      </trkpt>
      <trkpt lat="45.40254" lon="6.2816">
        <ele>400.4</ele>
        <time>2022-07-17T05:23:23Z</time>
      </trkpt>
      <trkpt lat="45.40248" lon="6.28159">
        <ele>400.4</ele>
        <time>2022-07-17T05:23:24Z</time>
      </trkpt>
      <trkpt lat="45.40243" lon="6.28159">
        <ele>400.4</ele>
        <time>2022-07-17T05:23:25Z</time>
      </trkpt>
      <trkpt lat="45.40237" lon="6.28159">
        <ele>400.4</ele>
        <time>2022-07-17T05:23:26Z</time>
      </trkpt>
      <trkpt lat="45.40231" lon="6.28159">
        <ele>400.4</ele>
        <time>2022-07-17T05:23:27Z</time>
      </trkpt>
      <trkpt lat="45.40225" lon="6.28159">
        <ele>400.4</ele>
        <time>2022-07-17T05:23:28Z</time>
      </trkpt>
      <trkpt lat="45.4022" lon="6.28159">
        <ele>400.4</ele>
        <time>2022-07-17T05:23:29Z</time>
      </trkpt>
      <trkpt lat="45.40215" lon="6.28159">
        <ele>400.4</ele>
        <time>2022-07-17T05:23:30Z</time>
      </trkpt>
      <trkpt lat="45.40209" lon="6.28159">
        <ele>400.4</ele>
        <time>2022-07-17T05:23:31Z</time>
      </trkpt>
      <trkpt lat="45.40204" lon="6.28159">
        <ele>400.4</ele>
        <time>2022-07-17T05:23:32Z</time>
      </trkpt>
      <trkpt lat="45.40198" lon="6.28159">
        <ele>400.4</ele>
        <time>2022-07-17T05:23:33Z</time>
      </trkpt>
      <trkpt lat="45.40194" lon="6.28159">
        <ele>400.4</ele>
        <time>2022-07-17T05:23:34Z</time>
      </trkpt>
      <trkpt lat="45.40189" lon="6.2816">
        <ele>400.4</ele>
        <time>2022-07-17T05:23:35Z</time>
      </trkpt>
      <trkpt lat="45.40181" lon="6.28161">
        <ele>400.4</ele>
        <time>2022-07-17T05:23:36Z</time>
      </trkpt>
      <trkpt lat="45.40175" lon="6.28161">
        <ele>400.4</ele>
        <time>2022-07-17T05:23:37Z</time>
      </trkpt>
      <trkpt lat="45.4017" lon="6.28161">
        <ele>400.4</ele>
        <time>2022-07-17T05:23:38Z</time>
      </trkpt>
      <trkpt lat="45.40164" lon="6.28161">
        <ele>400.4</ele>
        <time>2022-07-17T05:23:39Z</time>
      </trkpt>
      <trkpt lat="45.40158" lon="6.28162">
        <ele>400.6</ele>
        <time>2022-07-17T05:23:40Z</time>
      </trkpt>
      <trkpt lat="45.40151" lon="6.28162">
        <ele>400.6</ele>
        <time>2022-07-17T05:23:41Z</time>
      </trkpt>
      <trkpt lat="45.40145" lon="6.28162">
        <ele>400.6</ele>
        <time>2022-07-17T05:23:42Z</time>
      </trkpt>
      <trkpt lat="45.40139" lon="6.28162">
        <ele>401</ele>
        <time>2022-07-17T05:23:43Z</time>
      </trkpt>
      <trkpt lat="45.40134" lon="6.28163">
        <ele>401</ele>
        <time>2022-07-17T05:23:44Z</time>
      </trkpt>
      <trkpt lat="45.40128" lon="6.28163">
        <ele>401</ele>
        <time>2022-07-17T05:23:45Z</time>
      </trkpt>
      <trkpt lat="45.40121" lon="6.28164">
        <ele>401</ele>
        <time>2022-07-17T05:23:46Z</time>
      </trkpt>
      <trkpt lat="45.40115" lon="6.28165">
        <ele>401.2</ele>
        <time>2022-07-17T05:23:47Z</time>
      </trkpt>
      <trkpt lat="45.40109" lon="6.28165">
        <ele>401.2</ele>
        <time>2022-07-17T05:23:48Z</time>
      </trkpt>
      <trkpt lat="45.40102" lon="6.28165">
        <ele>401.2</ele>
        <time>2022-07-17T05:23:49Z</time>
      </trkpt>
      <trkpt lat="45.40095" lon="6.28166">
        <ele>401.2</ele>
        <time>2022-07-17T05:23:50Z</time>
      </trkpt>
      <trkpt lat="45.40089" lon="6.28166">
        <ele>401.2</ele>
        <time>2022-07-17T05:23:51Z</time>
      </trkpt>
      <trkpt lat="45.40082" lon="6.28167">
        <ele>401.2</ele>
        <time>2022-07-17T05:23:52Z</time>
      </trkpt>
      <trkpt lat="45.40076" lon="6.28167">
        <ele>401.2</ele>
        <time>2022-07-17T05:23:53Z</time>
      </trkpt>
      <trkpt lat="45.4007" lon="6.28168">
        <ele>401.2</ele>
        <time>2022-07-17T05:23:54Z</time>
      </trkpt>
      <trkpt lat="45.40064" lon="6.28168">
        <ele>401.2</ele>
        <time>2022-07-17T05:23:55Z</time>
      </trkpt>
      <trkpt lat="45.40058" lon="6.28169">
        <ele>401.4</ele>
        <time>2022-07-17T05:23:56Z</time>
      </trkpt>
      <trkpt lat="45.40052" lon="6.2817">
        <ele>401.4</ele>
        <time>2022-07-17T05:23:57Z</time>
      </trkpt>
      <trkpt lat="45.40045" lon="6.28172">
        <ele>401.4</ele>
        <time>2022-07-17T05:23:58Z</time>
      </trkpt>
      <trkpt lat="45.40039" lon="6.28173">
        <ele>401.4</ele>
        <time>2022-07-17T05:23:59Z</time>
      </trkpt>
      <trkpt lat="45.40033" lon="6.28173">
        <ele>401.4</ele>
        <time>2022-07-17T05:24:00Z</time>
      </trkpt>
      <trkpt lat="45.40027" lon="6.28173">
        <ele>401.4</ele>
        <time>2022-07-17T05:24:01Z</time>
      </trkpt>
      <trkpt lat="45.4002" lon="6.28173">
        <ele>401.4</ele>
        <time>2022-07-17T05:24:02Z</time>
      </trkpt>
      <trkpt lat="45.40014" lon="6.28172">
        <ele>401.4</ele>
        <time>2022-07-17T05:24:03Z</time>
      </trkpt>
      <trkpt lat="45.40008" lon="6.2817">
        <ele>401.4</ele>
        <time>2022-07-17T05:24:04Z</time>
      </trkpt>
      <trkpt lat="45.40002" lon="6.28168">
        <ele>401.6</ele>
        <time>2022-07-17T05:24:05Z</time>
      </trkpt>
      <trkpt lat="45.39996" lon="6.28166">
        <ele>401.6</ele>
        <time>2022-07-17T05:24:06Z</time>
      </trkpt>
      <trkpt lat="45.3999" lon="6.28164">
        <ele>401.6</ele>
        <time>2022-07-17T05:24:07Z</time>
      </trkpt>
      <trkpt lat="45.39984" lon="6.28161">
        <ele>401.6</ele>
        <time>2022-07-17T05:24:08Z</time>
      </trkpt>
      <trkpt lat="45.39978" lon="6.28159">
        <ele>401.6</ele>
        <time>2022-07-17T05:24:09Z</time>
      </trkpt>
      <trkpt lat="45.39972" lon="6.28155">
        <ele>401.6</ele>
        <time>2022-07-17T05:24:10Z</time>
      </trkpt>
      <trkpt lat="45.39966" lon="6.28152">
        <ele>401.6</ele>
        <time>2022-07-17T05:24:11Z</time>
      </trkpt>
      <trkpt lat="45.39961" lon="6.28148">
        <ele>401.6</ele>
        <time>2022-07-17T05:24:12Z</time>
      </trkpt>
      <trkpt lat="45.39955" lon="6.28145">
        <ele>401.6</ele>
        <time>2022-07-17T05:24:13Z</time>
      </trkpt>
      <trkpt lat="45.39949" lon="6.28142">
        <ele>401.6</ele>
        <time>2022-07-17T05:24:14Z</time>
      </trkpt>
      <trkpt lat="45.39944" lon="6.28139">
        <ele>401.6</ele>
        <time>2022-07-17T05:24:15Z</time>
      </trkpt>
      <trkpt lat="45.39939" lon="6.28136">
        <ele>401.6</ele>
        <time>2022-07-17T05:24:16Z</time>
      </trkpt>
      <trkpt lat="45.39934" lon="6.28133">
        <ele>401.6</ele>
        <time>2022-07-17T05:24:17Z</time>
      </trkpt>
      <trkpt lat="45.39929" lon="6.28131">
        <ele>401.6</ele>
        <time>2022-07-17T05:24:18Z</time>
      </trkpt>
      <trkpt lat="45.39924" lon="6.28128">
        <ele>401.6</ele>
        <time>2022-07-17T05:24:19Z</time>
      </trkpt>
      <trkpt lat="45.39919" lon="6.28126">
        <ele>401.8</ele>
        <time>2022-07-17T05:24:20Z</time>
      </trkpt>
      <trkpt lat="45.39913" lon="6.28123">
        <ele>401.8</ele>
        <time>2022-07-17T05:24:21Z</time>
      </trkpt>
      <trkpt lat="45.39908" lon="6.2812">
        <ele>401.8</ele>
        <time>2022-07-17T05:24:22Z</time>
      </trkpt>
      <trkpt lat="45.39903" lon="6.28116">
        <ele>402.2</ele>
        <time>2022-07-17T05:24:23Z</time>
      </trkpt>
      <trkpt lat="45.39897" lon="6.28114">
        <ele>402.2</ele>
        <time>2022-07-17T05:24:24Z</time>
      </trkpt>
      <trkpt lat="45.39892" lon="6.2811">
        <ele>402.2</ele>
        <time>2022-07-17T05:24:25Z</time>
      </trkpt>
      <trkpt lat="45.39887" lon="6.28108">
        <ele>402.2</ele>
        <time>2022-07-17T05:24:26Z</time>
      </trkpt>
      <trkpt lat="45.39882" lon="6.28105">
        <ele>402.2</ele>
        <time>2022-07-17T05:24:27Z</time>
      </trkpt>
      <trkpt lat="45.39876" lon="6.28102">
        <ele>402.2</ele>
        <time>2022-07-17T05:24:28Z</time>
      </trkpt>
      <trkpt lat="45.39871" lon="6.28099">
        <ele>402.2</ele>
        <time>2022-07-17T05:24:29Z</time>
      </trkpt>
      <trkpt lat="45.39865" lon="6.28096">
        <ele>402.2</ele>
        <time>2022-07-17T05:24:30Z</time>
      </trkpt>
      <trkpt lat="45.39859" lon="6.28094">
        <ele>402.2</ele>
        <time>2022-07-17T05:24:31Z</time>
      </trkpt>
      <trkpt lat="45.39854" lon="6.28091">
        <ele>402.2</ele>
        <time>2022-07-17T05:24:32Z</time>
      </trkpt>
      <trkpt lat="45.39848" lon="6.28088">
        <ele>402.2</ele>
        <time>2022-07-17T05:24:33Z</time>
      </trkpt>
      <trkpt lat="45.39842" lon="6.28085">
        <ele>402.2</ele>
        <time>2022-07-17T05:24:34Z</time>
      </trkpt>
      <trkpt lat="45.39836" lon="6.28083">
        <ele>402.2</ele>
        <time>2022-07-17T05:24:35Z</time>
      </trkpt>
      <trkpt lat="45.3983" lon="6.28081">
        <ele>402.2</ele>
        <time>2022-07-17T05:24:36Z</time>
      </trkpt>
      <trkpt lat="45.39825" lon="6.28079">
        <ele>402.2</ele>
        <time>2022-07-17T05:24:37Z</time>
      </trkpt>
      <trkpt lat="45.39819" lon="6.28077">
        <ele>402.4</ele>
        <time>2022-07-17T05:24:38Z</time>
      </trkpt>
      <trkpt lat="45.39813" lon="6.28075">
        <ele>402.4</ele>
        <time>2022-07-17T05:24:39Z</time>
      </trkpt>
      <trkpt lat="45.39808" lon="6.28074">
        <ele>402.4</ele>
        <time>2022-07-17T05:24:40Z</time>
      </trkpt>
      <trkpt lat="45.39802" lon="6.28074">
        <ele>402.4</ele>
        <time>2022-07-17T05:24:41Z</time>
      </trkpt>
      <trkpt lat="45.39797" lon="6.28073">
        <ele>402.4</ele>
        <time>2022-07-17T05:24:42Z</time>
      </trkpt>
      <trkpt lat="45.39791" lon="6.28072">
        <ele>402.6</ele>
        <time>2022-07-17T05:24:43Z</time>
      </trkpt>
      <trkpt lat="45.39785" lon="6.28072">
        <ele>402.6</ele>
        <time>2022-07-17T05:24:44Z</time>
      </trkpt>
      <trkpt lat="45.39779" lon="6.28072">
        <ele>402.6</ele>
        <time>2022-07-17T05:24:45Z</time>
      </trkpt>
      <trkpt lat="45.39773" lon="6.28071">
        <ele>402.6</ele>
        <time>2022-07-17T05:24:46Z</time>
      </trkpt>
      <trkpt lat="45.39767" lon="6.28071">
        <ele>402.6</ele>
        <time>2022-07-17T05:24:47Z</time>
      </trkpt>
      <trkpt lat="45.39761" lon="6.2807">
        <ele>402.6</ele>
        <time>2022-07-17T05:24:48Z</time>
      </trkpt>
      <trkpt lat="45.39756" lon="6.2807">
        <ele>402.6</ele>
        <time>2022-07-17T05:24:49Z</time>
      </trkpt>
      <trkpt lat="45.3975" lon="6.2807">
        <ele>402.6</ele>
        <time>2022-07-17T05:24:50Z</time>
      </trkpt>
      <trkpt lat="45.39744" lon="6.28069">
        <ele>402.6</ele>
        <time>2022-07-17T05:24:51Z</time>
      </trkpt>
      <trkpt lat="45.39738" lon="6.2807">
        <ele>402.6</ele>
        <time>2022-07-17T05:24:52Z</time>
      </trkpt>
      <trkpt lat="45.39732" lon="6.2807">
        <ele>402.8</ele>
        <time>2022-07-17T05:24:53Z</time>
      </trkpt>
      <trkpt lat="45.39726" lon="6.28069">
        <ele>402.8</ele>
        <time>2022-07-17T05:24:54Z</time>
      </trkpt>
      <trkpt lat="45.3972" lon="6.28069">
        <ele>402.8</ele>
        <time>2022-07-17T05:24:55Z</time>
      </trkpt>
      <trkpt lat="45.39714" lon="6.28069">
        <ele>402.8</ele>
        <time>2022-07-17T05:24:56Z</time>
      </trkpt>
      <trkpt lat="45.39708" lon="6.28068">
        <ele>402.8</ele>
        <time>2022-07-17T05:24:57Z</time>
      </trkpt>
      <trkpt lat="45.39702" lon="6.28067">
        <ele>402.8</ele>
        <time>2022-07-17T05:24:58Z</time>
      </trkpt>
      <trkpt lat="45.39696" lon="6.28067">
        <ele>402.8</ele>
        <time>2022-07-17T05:24:59Z</time>
      </trkpt>
      <trkpt lat="45.3969" lon="6.28066">
        <ele>402.8</ele>
        <time>2022-07-17T05:25:01Z</time>
      </trkpt>
      <trkpt lat="45.39684" lon="6.28066">
        <ele>402.8</ele>
        <time>2022-07-17T05:25:02Z</time>
      </trkpt>
      <trkpt lat="45.39678" lon="6.28065">
        <ele>403</ele>
        <time>2022-07-17T05:25:03Z</time>
      </trkpt>
      <trkpt lat="45.39673" lon="6.28065">
        <ele>403</ele>
        <time>2022-07-17T05:25:04Z</time>
      </trkpt>
      <trkpt lat="45.39667" lon="6.28065">
        <ele>403</ele>
        <time>2022-07-17T05:25:05Z</time>
      </trkpt>
      <trkpt lat="45.39662" lon="6.28065">
        <ele>403</ele>
        <time>2022-07-17T05:25:06Z</time>
      </trkpt>
      <trkpt lat="45.39656" lon="6.28065">
        <ele>403</ele>
        <time>2022-07-17T05:25:07Z</time>
      </trkpt>
      <trkpt lat="45.3965" lon="6.28065">
        <ele>403</ele>
        <time>2022-07-17T05:25:08Z</time>
      </trkpt>
      <trkpt lat="45.39644" lon="6.28065">
        <ele>403.2</ele>
        <time>2022-07-17T05:25:09Z</time>
      </trkpt>
      <trkpt lat="45.39638" lon="6.28065">
        <ele>403.2</ele>
        <time>2022-07-17T05:25:10Z</time>
      </trkpt>
      <trkpt lat="45.39633" lon="6.28066">
        <ele>403.2</ele>
        <time>2022-07-17T05:25:11Z</time>
      </trkpt>
      <trkpt lat="45.39627" lon="6.28066">
        <ele>403.2</ele>
        <time>2022-07-17T05:25:12Z</time>
      </trkpt>
      <trkpt lat="45.39622" lon="6.28067">
        <ele>403.2</ele>
        <time>2022-07-17T05:25:13Z</time>
      </trkpt>
      <trkpt lat="45.39616" lon="6.28068">
        <ele>403.2</ele>
        <time>2022-07-17T05:25:14Z</time>
      </trkpt>
      <trkpt lat="45.39611" lon="6.28069">
        <ele>403.2</ele>
        <time>2022-07-17T05:25:15Z</time>
      </trkpt>
      <trkpt lat="45.39605" lon="6.2807">
        <ele>403.2</ele>
        <time>2022-07-17T05:25:16Z</time>
      </trkpt>
      <trkpt lat="45.39599" lon="6.28071">
        <ele>403.2</ele>
        <time>2022-07-17T05:25:17Z</time>
      </trkpt>
      <trkpt lat="45.39593" lon="6.28072">
        <ele>403.2</ele>
        <time>2022-07-17T05:25:18Z</time>
      </trkpt>
      <trkpt lat="45.39587" lon="6.28074">
        <ele>403.2</ele>
        <time>2022-07-17T05:25:19Z</time>
      </trkpt>
      <trkpt lat="45.39581" lon="6.28075">
        <ele>403.2</ele>
        <time>2022-07-17T05:25:20Z</time>
      </trkpt>
      <trkpt lat="45.39575" lon="6.28077">
        <ele>403.2</ele>
        <time>2022-07-17T05:25:21Z</time>
      </trkpt>
      <trkpt lat="45.39569" lon="6.28079">
        <ele>403.2</ele>
        <time>2022-07-17T05:25:22Z</time>
      </trkpt>
      <trkpt lat="45.39563" lon="6.28081">
        <ele>403.2</ele>
        <time>2022-07-17T05:25:23Z</time>
      </trkpt>
      <trkpt lat="45.39557" lon="6.28083">
        <ele>403.2</ele>
        <time>2022-07-17T05:25:24Z</time>
      </trkpt>
      <trkpt lat="45.39551" lon="6.28086">
        <ele>403.2</ele>
        <time>2022-07-17T05:25:25Z</time>
      </trkpt>
      <trkpt lat="45.39546" lon="6.28088">
        <ele>403.6</ele>
        <time>2022-07-17T05:25:26Z</time>
      </trkpt>
      <trkpt lat="45.3954" lon="6.28091">
        <ele>403.6</ele>
        <time>2022-07-17T05:25:27Z</time>
      </trkpt>
      <trkpt lat="45.39534" lon="6.28093">
        <ele>403.6</ele>
        <time>2022-07-17T05:25:28Z</time>
      </trkpt>
      <trkpt lat="45.39529" lon="6.28096">
        <ele>403.6</ele>
        <time>2022-07-17T05:25:29Z</time>
      </trkpt>
      <trkpt lat="45.39523" lon="6.28098">
        <ele>403.8</ele>
        <time>2022-07-17T05:25:30Z</time>
      </trkpt>
      <trkpt lat="45.39517" lon="6.28101">
        <ele>403.8</ele>
        <time>2022-07-17T05:25:31Z</time>
      </trkpt>
      <trkpt lat="45.39511" lon="6.28104">
        <ele>403.8</ele>
        <time>2022-07-17T05:25:32Z</time>
      </trkpt>
      <trkpt lat="45.39506" lon="6.28106">
        <ele>403.8</ele>
        <time>2022-07-17T05:25:33Z</time>
      </trkpt>
      <trkpt lat="45.395" lon="6.28108">
        <ele>403.8</ele>
        <time>2022-07-17T05:25:34Z</time>
      </trkpt>
      <trkpt lat="45.39494" lon="6.28111">
        <ele>403.8</ele>
        <time>2022-07-17T05:25:35Z</time>
      </trkpt>
      <trkpt lat="45.39489" lon="6.28115">
        <ele>404</ele>
        <time>2022-07-17T05:25:36Z</time>
      </trkpt>
      <trkpt lat="45.39484" lon="6.28118">
        <ele>404</ele>
        <time>2022-07-17T05:25:37Z</time>
      </trkpt>
      <trkpt lat="45.39478" lon="6.28121">
        <ele>404</ele>
        <time>2022-07-17T05:25:38Z</time>
      </trkpt>
      <trkpt lat="45.39473" lon="6.28124">
        <ele>404</ele>
        <time>2022-07-17T05:25:39Z</time>
      </trkpt>
      <trkpt lat="45.39467" lon="6.28127">
        <ele>404</ele>
        <time>2022-07-17T05:25:40Z</time>
      </trkpt>
      <trkpt lat="45.39462" lon="6.2813">
        <ele>404.2</ele>
        <time>2022-07-17T05:25:41Z</time>
      </trkpt>
      <trkpt lat="45.39456" lon="6.28133">
        <ele>404.2</ele>
        <time>2022-07-17T05:25:42Z</time>
      </trkpt>
      <trkpt lat="45.39451" lon="6.28135">
        <ele>404.2</ele>
        <time>2022-07-17T05:25:43Z</time>
      </trkpt>
      <trkpt lat="45.39445" lon="6.28138">
        <ele>404.4</ele>
        <time>2022-07-17T05:25:44Z</time>
      </trkpt>
      <trkpt lat="45.3944" lon="6.2814">
        <ele>404.4</ele>
        <time>2022-07-17T05:25:45Z</time>
      </trkpt>
      <trkpt lat="45.39434" lon="6.28143">
        <ele>404.4</ele>
        <time>2022-07-17T05:25:46Z</time>
      </trkpt>
      <trkpt lat="45.39429" lon="6.28145">
        <ele>404.4</ele>
        <time>2022-07-17T05:25:47Z</time>
      </trkpt>
      <trkpt lat="45.39423" lon="6.28147">
        <ele>404.6</ele>
        <time>2022-07-17T05:25:48Z</time>
      </trkpt>
      <trkpt lat="45.39418" lon="6.28148">
        <ele>404.6</ele>
        <time>2022-07-17T05:25:49Z</time>
      </trkpt>
      <trkpt lat="45.39412" lon="6.2815">
        <ele>405</ele>
        <time>2022-07-17T05:25:50Z</time>
      </trkpt>
      <trkpt lat="45.39407" lon="6.28152">
        <ele>405</ele>
        <time>2022-07-17T05:25:51Z</time>
      </trkpt>
      <trkpt lat="45.39402" lon="6.28153">
        <ele>405.2</ele>
        <time>2022-07-17T05:25:52Z</time>
      </trkpt>
      <trkpt lat="45.39397" lon="6.28154">
        <ele>405.2</ele>
        <time>2022-07-17T05:25:53Z</time>
      </trkpt>
      <trkpt lat="45.39393" lon="6.28155">
        <ele>405.6</ele>
        <time>2022-07-17T05:25:54Z</time>
      </trkpt>
      <trkpt lat="45.39388" lon="6.28156">
        <ele>405.6</ele>
        <time>2022-07-17T05:25:55Z</time>
      </trkpt>
      <trkpt lat="45.39383" lon="6.28156">
        <ele>406</ele>
        <time>2022-07-17T05:25:56Z</time>
      </trkpt>
      <trkpt lat="45.39379" lon="6.28156">
        <ele>406.2</ele>
        <time>2022-07-17T05:25:57Z</time>
      </trkpt>
      <trkpt lat="45.39375" lon="6.28155">
        <ele>406.6</ele>
        <time>2022-07-17T05:25:58Z</time>
      </trkpt>
      <trkpt lat="45.39371" lon="6.28155">
        <ele>406.8</ele>
        <time>2022-07-17T05:25:59Z</time>
      </trkpt>
      <trkpt lat="45.39367" lon="6.28154">
        <ele>406.8</ele>
        <time>2022-07-17T05:26:00Z</time>
      </trkpt>
      <trkpt lat="45.39363" lon="6.28152">
        <ele>407.2</ele>
        <time>2022-07-17T05:26:01Z</time>
      </trkpt>
      <trkpt lat="45.3936" lon="6.28152">
        <ele>407.6</ele>
        <time>2022-07-17T05:26:02Z</time>
      </trkpt>
      <trkpt lat="45.39357" lon="6.2815">
        <ele>407.8</ele>
        <time>2022-07-17T05:26:03Z</time>
      </trkpt>
      <trkpt lat="45.39354" lon="6.28149">
        <ele>408.2</ele>
        <time>2022-07-17T05:26:04Z</time>
      </trkpt>
      <trkpt lat="45.39352" lon="6.28147">
        <ele>408.4</ele>
        <time>2022-07-17T05:26:05Z</time>
      </trkpt>
      <trkpt lat="45.39349" lon="6.28146">
        <ele>408.8</ele>
        <time>2022-07-17T05:26:06Z</time>
      </trkpt>
      <trkpt lat="45.39346" lon="6.28145">
        <ele>409.2</ele>
        <time>2022-07-17T05:26:07Z</time>
      </trkpt>
      <trkpt lat="45.39343" lon="6.28142">
        <ele>409.4</ele>
        <time>2022-07-17T05:26:08Z</time>
      </trkpt>
      <trkpt lat="45.39339" lon="6.28141">
        <ele>409.6</ele>
        <time>2022-07-17T05:26:09Z</time>
      </trkpt>
      <trkpt lat="45.39336" lon="6.28139">
        <ele>410</ele>
        <time>2022-07-17T05:26:10Z</time>
      </trkpt>
      <trkpt lat="45.39333" lon="6.28136">
        <ele>410.2</ele>
        <time>2022-07-17T05:26:11Z</time>
      </trkpt>
      <trkpt lat="45.3933" lon="6.28134">
        <ele>410.4</ele>
        <time>2022-07-17T05:26:12Z</time>
      </trkpt>
      <trkpt lat="45.39328" lon="6.28131">
        <ele>410.6</ele>
        <time>2022-07-17T05:26:13Z</time>
      </trkpt>
      <trkpt lat="45.39325" lon="6.28129">
        <ele>411</ele>
        <time>2022-07-17T05:26:14Z</time>
      </trkpt>
      <trkpt lat="45.39322" lon="6.28126">
        <ele>411.2</ele>
        <time>2022-07-17T05:26:15Z</time>
      </trkpt>
      <trkpt lat="45.39319" lon="6.28124">
        <ele>411.4</ele>
        <time>2022-07-17T05:26:16Z</time>
      </trkpt>
      <trkpt lat="45.39316" lon="6.28121">
        <ele>411.8</ele>
        <time>2022-07-17T05:26:17Z</time>
      </trkpt>
      <trkpt lat="45.39313" lon="6.2812">
        <ele>412</ele>
        <time>2022-07-17T05:26:18Z</time>
      </trkpt>
      <trkpt lat="45.3931" lon="6.28118">
        <ele>412.2</ele>
        <time>2022-07-17T05:26:19Z</time>
      </trkpt>
      <trkpt lat="45.39306" lon="6.28117">
        <ele>412.4</ele>
        <time>2022-07-17T05:26:20Z</time>
      </trkpt>
      <trkpt lat="45.39302" lon="6.28115">
        <ele>412.8</ele>
        <time>2022-07-17T05:26:21Z</time>
      </trkpt>
      <trkpt lat="45.39298" lon="6.28113">
        <ele>413</ele>
        <time>2022-07-17T05:26:22Z</time>
      </trkpt>
      <trkpt lat="45.39295" lon="6.28112">
        <ele>413.4</ele>
        <time>2022-07-17T05:26:23Z</time>
      </trkpt>
      <trkpt lat="45.39291" lon="6.28111">
        <ele>413.8</ele>
        <time>2022-07-17T05:26:24Z</time>
      </trkpt>
      <trkpt lat="45.39287" lon="6.28109">
        <ele>414.4</ele>
        <time>2022-07-17T05:26:25Z</time>
      </trkpt>
      <trkpt lat="45.39283" lon="6.28107">
        <ele>414.6</ele>
        <time>2022-07-17T05:26:26Z</time>
      </trkpt>
      <trkpt lat="45.3928" lon="6.28106">
        <ele>415</ele>
        <time>2022-07-17T05:26:27Z</time>
      </trkpt>
      <trkpt lat="45.39276" lon="6.28104">
        <ele>415.4</ele>
        <time>2022-07-17T05:26:28Z</time>
      </trkpt>
      <trkpt lat="45.39272" lon="6.28102">
        <ele>415.6</ele>
        <time>2022-07-17T05:26:29Z</time>
      </trkpt>
      <trkpt lat="45.39268" lon="6.28099">
        <ele>416</ele>
        <time>2022-07-17T05:26:30Z</time>
      </trkpt>
      <trkpt lat="45.39265" lon="6.28096">
        <ele>416.2</ele>
        <time>2022-07-17T05:26:31Z</time>
      </trkpt>
      <trkpt lat="45.39261" lon="6.28093">
        <ele>416.4</ele>
        <time>2022-07-17T05:26:32Z</time>
      </trkpt>
      <trkpt lat="45.39258" lon="6.28091">
        <ele>416.6</ele>
        <time>2022-07-17T05:26:33Z</time>
      </trkpt>
      <trkpt lat="45.39255" lon="6.28088">
        <ele>417</ele>
        <time>2022-07-17T05:26:34Z</time>
      </trkpt>
      <trkpt lat="45.39252" lon="6.28085">
        <ele>417.2</ele>
        <time>2022-07-17T05:26:35Z</time>
      </trkpt>
      <trkpt lat="45.39249" lon="6.28082">
        <ele>417.2</ele>
        <time>2022-07-17T05:26:36Z</time>
      </trkpt>
      <trkpt lat="45.39246" lon="6.28079">
        <ele>417.8</ele>
        <time>2022-07-17T05:26:37Z</time>
      </trkpt>
      <trkpt lat="45.39241" lon="6.28077">
        <ele>418.2</ele>
        <time>2022-07-17T05:26:38Z</time>
      </trkpt>
      <trkpt lat="45.39237" lon="6.28075">
        <ele>418.2</ele>
        <time>2022-07-17T05:26:39Z</time>
      </trkpt>
      <trkpt lat="45.39232" lon="6.28074">
        <ele>418.4</ele>
        <time>2022-07-17T05:26:40Z</time>
      </trkpt>
      <trkpt lat="45.39228" lon="6.28072">
        <ele>418.4</ele>
        <time>2022-07-17T05:26:41Z</time>
      </trkpt>
      <trkpt lat="45.39223" lon="6.28071">
        <ele>418.6</ele>
        <time>2022-07-17T05:26:42Z</time>
      </trkpt>
      <trkpt lat="45.39218" lon="6.2807">
        <ele>418.6</ele>
        <time>2022-07-17T05:26:43Z</time>
      </trkpt>
      <trkpt lat="45.39213" lon="6.2807">
        <ele>418.6</ele>
        <time>2022-07-17T05:26:44Z</time>
      </trkpt>
      <trkpt lat="45.39208" lon="6.28069">
        <ele>418.8</ele>
        <time>2022-07-17T05:26:45Z</time>
      </trkpt>
      <trkpt lat="45.39204" lon="6.28068">
        <ele>418.8</ele>
        <time>2022-07-17T05:26:46Z</time>
      </trkpt>
      <trkpt lat="45.39199" lon="6.28068">
        <ele>418.8</ele>
        <time>2022-07-17T05:26:47Z</time>
      </trkpt>
      <trkpt lat="45.39194" lon="6.28068">
        <ele>418.8</ele>
        <time>2022-07-17T05:26:48Z</time>
      </trkpt>
      <trkpt lat="45.39189" lon="6.28067">
        <ele>419.2</ele>
        <time>2022-07-17T05:26:49Z</time>
      </trkpt>
      <trkpt lat="45.39184" lon="6.28067">
        <ele>419.2</ele>
        <time>2022-07-17T05:26:50Z</time>
      </trkpt>
      <trkpt lat="45.39179" lon="6.28067">
        <ele>419.2</ele>
        <time>2022-07-17T05:26:51Z</time>
      </trkpt>
      <trkpt lat="45.39174" lon="6.28067">
        <ele>419.2</ele>
        <time>2022-07-17T05:26:52Z</time>
      </trkpt>
      <trkpt lat="45.39168" lon="6.28067">
        <ele>419.2</ele>
        <time>2022-07-17T05:26:53Z</time>
      </trkpt>
      <trkpt lat="45.39163" lon="6.28067">
        <ele>419.2</ele>
        <time>2022-07-17T05:26:54Z</time>
      </trkpt>
      <trkpt lat="45.39158" lon="6.28067">
        <ele>419.2</ele>
        <time>2022-07-17T05:26:55Z</time>
      </trkpt>
      <trkpt lat="45.39153" lon="6.28066">
        <ele>419.2</ele>
        <time>2022-07-17T05:26:56Z</time>
      </trkpt>
      <trkpt lat="45.39148" lon="6.28066">
        <ele>419.2</ele>
        <time>2022-07-17T05:26:57Z</time>
      </trkpt>
      <trkpt lat="45.39143" lon="6.28065">
        <ele>419.2</ele>
        <time>2022-07-17T05:26:58Z</time>
      </trkpt>
      <trkpt lat="45.39138" lon="6.28065">
        <ele>419.2</ele>
        <time>2022-07-17T05:26:59Z</time>
      </trkpt>
      <trkpt lat="45.39133" lon="6.28064">
        <ele>419.4</ele>
        <time>2022-07-17T05:27:00Z</time>
      </trkpt>
      <trkpt lat="45.39128" lon="6.28064">
        <ele>419.4</ele>
        <time>2022-07-17T05:27:01Z</time>
      </trkpt>
      <trkpt lat="45.39123" lon="6.28063">
        <ele>419.4</ele>
        <time>2022-07-17T05:27:02Z</time>
      </trkpt>
      <trkpt lat="45.39118" lon="6.28062">
        <ele>419.4</ele>
        <time>2022-07-17T05:27:03Z</time>
      </trkpt>
      <trkpt lat="45.39113" lon="6.28062">
        <ele>419.4</ele>
        <time>2022-07-17T05:27:04Z</time>
      </trkpt>
      <trkpt lat="45.39108" lon="6.28062">
        <ele>419.6</ele>
        <time>2022-07-17T05:27:05Z</time>
      </trkpt>
      <trkpt lat="45.39103" lon="6.28062">
        <ele>419.6</ele>
        <time>2022-07-17T05:27:06Z</time>
      </trkpt>
      <trkpt lat="45.39098" lon="6.28062">
        <ele>420</ele>
        <time>2022-07-17T05:27:07Z</time>
      </trkpt>
      <trkpt lat="45.39093" lon="6.28062">
        <ele>420.2</ele>
        <time>2022-07-17T05:27:08Z</time>
      </trkpt>
      <trkpt lat="45.39088" lon="6.28061">
        <ele>420.4</ele>
        <time>2022-07-17T05:27:09Z</time>
      </trkpt>
      <trkpt lat="45.39083" lon="6.28061">
        <ele>420.6</ele>
        <time>2022-07-17T05:27:10Z</time>
      </trkpt>
      <trkpt lat="45.39079" lon="6.28061">
        <ele>420.6</ele>
        <time>2022-07-17T05:27:11Z</time>
      </trkpt>
      <trkpt lat="45.39074" lon="6.28061">
        <ele>421</ele>
        <time>2022-07-17T05:27:12Z</time>
      </trkpt>
      <trkpt lat="45.3907" lon="6.2806">
        <ele>421</ele>
        <time>2022-07-17T05:27:13Z</time>
      </trkpt>
      <trkpt lat="45.39066" lon="6.2806">
        <ele>421.4</ele>
        <time>2022-07-17T05:27:14Z</time>
      </trkpt>
      <trkpt lat="45.39063" lon="6.2806">
        <ele>421.4</ele>
        <time>2022-07-17T05:27:15Z</time>
      </trkpt>
      <trkpt lat="45.39059" lon="6.2806">
        <ele>421.8</ele>
        <time>2022-07-17T05:27:16Z</time>
      </trkpt>
      <trkpt lat="45.39055" lon="6.2806">
        <ele>421.8</ele>
        <time>2022-07-17T05:27:17Z</time>
      </trkpt>
      <trkpt lat="45.39051" lon="6.28059">
        <ele>422.2</ele>
        <time>2022-07-17T05:27:18Z</time>
      </trkpt>
      <trkpt lat="45.39046" lon="6.28059">
        <ele>422.2</ele>
        <time>2022-07-17T05:27:19Z</time>
      </trkpt>
      <trkpt lat="45.39042" lon="6.28058">
        <ele>422.6</ele>
        <time>2022-07-17T05:27:20Z</time>
      </trkpt>
      <trkpt lat="45.39037" lon="6.28058">
        <ele>422.6</ele>
        <time>2022-07-17T05:27:21Z</time>
      </trkpt>
      <trkpt lat="45.39033" lon="6.28057">
        <ele>422.8</ele>
        <time>2022-07-17T05:27:22Z</time>
      </trkpt>
      <trkpt lat="45.39029" lon="6.28056">
        <ele>422.8</ele>
        <time>2022-07-17T05:27:23Z</time>
      </trkpt>
      <trkpt lat="45.39025" lon="6.28055">
        <ele>423.2</ele>
        <time>2022-07-17T05:27:24Z</time>
      </trkpt>
      <trkpt lat="45.39021" lon="6.28054">
        <ele>423.2</ele>
        <time>2022-07-17T05:27:25Z</time>
      </trkpt>
      <trkpt lat="45.39017" lon="6.28053">
        <ele>423.2</ele>
        <time>2022-07-17T05:27:26Z</time>
      </trkpt>
      <trkpt lat="45.39012" lon="6.28053">
        <ele>423.2</ele>
        <time>2022-07-17T05:27:27Z</time>
      </trkpt>
      <trkpt lat="45.39008" lon="6.28051">
        <ele>423.4</ele>
        <time>2022-07-17T05:27:28Z</time>
      </trkpt>
      <trkpt lat="45.39004" lon="6.2805">
        <ele>423.4</ele>
        <time>2022-07-17T05:27:29Z</time>
      </trkpt>
      <trkpt lat="45.39" lon="6.28047">
        <ele>423.6</ele>
        <time>2022-07-17T05:27:30Z</time>
      </trkpt>
      <trkpt lat="45.38996" lon="6.28046">
        <ele>423.6</ele>
        <time>2022-07-17T05:27:31Z</time>
      </trkpt>
      <trkpt lat="45.38992" lon="6.28044">
        <ele>423.6</ele>
        <time>2022-07-17T05:27:32Z</time>
      </trkpt>
      <trkpt lat="45.38989" lon="6.28042">
        <ele>423.6</ele>
        <time>2022-07-17T05:27:33Z</time>
      </trkpt>
      <trkpt lat="45.38985" lon="6.2804">
        <ele>423.8</ele>
        <time>2022-07-17T05:27:34Z</time>
      </trkpt>
      <trkpt lat="45.38981" lon="6.28037">
        <ele>423.8</ele>
        <time>2022-07-17T05:27:35Z</time>
      </trkpt>
      <trkpt lat="45.38977" lon="6.28034">
        <ele>423.8</ele>
        <time>2022-07-17T05:27:36Z</time>
      </trkpt>
      <trkpt lat="45.38973" lon="6.2803">
        <ele>423.8</ele>
        <time>2022-07-17T05:27:37Z</time>
      </trkpt>
      <trkpt lat="45.38969" lon="6.28025">
        <ele>423.8</ele>
        <time>2022-07-17T05:27:38Z</time>
      </trkpt>
      <trkpt lat="45.38965" lon="6.28018">
        <ele>423.6</ele>
        <time>2022-07-17T05:27:39Z</time>
      </trkpt>
      <trkpt lat="45.38961" lon="6.28011">
        <ele>423.6</ele>
        <time>2022-07-17T05:27:40Z</time>
      </trkpt>
      <trkpt lat="45.38957" lon="6.28004">
        <ele>423.2</ele>
        <time>2022-07-17T05:27:41Z</time>
      </trkpt>
      <trkpt lat="45.38953" lon="6.27997">
        <ele>423.2</ele>
        <time>2022-07-17T05:27:42Z</time>
      </trkpt>
      <trkpt lat="45.38948" lon="6.27991">
        <ele>423.2</ele>
        <time>2022-07-17T05:27:43Z</time>
      </trkpt>
      <trkpt lat="45.38944" lon="6.27985">
        <ele>423</ele>
        <time>2022-07-17T05:27:44Z</time>
      </trkpt>
      <trkpt lat="45.38939" lon="6.27979">
        <ele>423</ele>
        <time>2022-07-17T05:27:45Z</time>
      </trkpt>
      <trkpt lat="45.38933" lon="6.27974">
        <ele>423</ele>
        <time>2022-07-17T05:27:46Z</time>
      </trkpt>
      <trkpt lat="45.38929" lon="6.2797">
        <ele>423</ele>
        <time>2022-07-17T05:27:47Z</time>
      </trkpt>
      <trkpt lat="45.38923" lon="6.27966">
        <ele>423</ele>
        <time>2022-07-17T05:27:48Z</time>
      </trkpt>
      <trkpt lat="45.38918" lon="6.27962">
        <ele>423</ele>
        <time>2022-07-17T05:27:49Z</time>
      </trkpt>
      <trkpt lat="45.38913" lon="6.27958">
        <ele>423</ele>
        <time>2022-07-17T05:27:50Z</time>
      </trkpt>
      <trkpt lat="45.38907" lon="6.27954">
        <ele>423</ele>
        <time>2022-07-17T05:27:51Z</time>
      </trkpt>
      <trkpt lat="45.38902" lon="6.27949">
        <ele>423</ele>
        <time>2022-07-17T05:27:52Z</time>
      </trkpt>
      <trkpt lat="45.38898" lon="6.27943">
        <ele>423</ele>
        <time>2022-07-17T05:27:53Z</time>
      </trkpt>
      <trkpt lat="45.38894" lon="6.27937">
        <ele>423</ele>
        <time>2022-07-17T05:27:54Z</time>
      </trkpt>
      <trkpt lat="45.38889" lon="6.2793">
        <ele>423</ele>
        <time>2022-07-17T05:27:55Z</time>
      </trkpt>
      <trkpt lat="45.38884" lon="6.27924">
        <ele>423</ele>
        <time>2022-07-17T05:27:56Z</time>
      </trkpt>
      <trkpt lat="45.38879" lon="6.27917">
        <ele>423</ele>
        <time>2022-07-17T05:27:57Z</time>
      </trkpt>
      <trkpt lat="45.38874" lon="6.2791">
        <ele>423</ele>
        <time>2022-07-17T05:27:58Z</time>
      </trkpt>
      <trkpt lat="45.38869" lon="6.27904">
        <ele>422.8</ele>
        <time>2022-07-17T05:27:59Z</time>
      </trkpt>
      <trkpt lat="45.38864" lon="6.27898">
        <ele>422.8</ele>
        <time>2022-07-17T05:28:00Z</time>
      </trkpt>
      <trkpt lat="45.38859" lon="6.27892">
        <ele>422.8</ele>
        <time>2022-07-17T05:28:01Z</time>
      </trkpt>
      <trkpt lat="45.38854" lon="6.27886">
        <ele>422.6</ele>
        <time>2022-07-17T05:28:02Z</time>
      </trkpt>
      <trkpt lat="45.38849" lon="6.2788">
        <ele>422.6</ele>
        <time>2022-07-17T05:28:03Z</time>
      </trkpt>
      <trkpt lat="45.38844" lon="6.27874">
        <ele>422.6</ele>
        <time>2022-07-17T05:28:04Z</time>
      </trkpt>
      <trkpt lat="45.38839" lon="6.27868">
        <ele>422.2</ele>
        <time>2022-07-17T05:28:05Z</time>
      </trkpt>
      <trkpt lat="45.38834" lon="6.27863">
        <ele>422.2</ele>
        <time>2022-07-17T05:28:06Z</time>
      </trkpt>
      <trkpt lat="45.3883" lon="6.27857">
        <ele>422</ele>
        <time>2022-07-17T05:28:07Z</time>
      </trkpt>
      <trkpt lat="45.38825" lon="6.27851">
        <ele>422</ele>
        <time>2022-07-17T05:28:08Z</time>
      </trkpt>
      <trkpt lat="45.38821" lon="6.27845">
        <ele>422</ele>
        <time>2022-07-17T05:28:09Z</time>
      </trkpt>
      <trkpt lat="45.38817" lon="6.27839">
        <ele>422</ele>
        <time>2022-07-17T05:28:10Z</time>
      </trkpt>
      <trkpt lat="45.38812" lon="6.27833">
        <ele>422</ele>
        <time>2022-07-17T05:28:11Z</time>
      </trkpt>
      <trkpt lat="45.38807" lon="6.27827">
        <ele>422</ele>
        <time>2022-07-17T05:28:12Z</time>
      </trkpt>
      <trkpt lat="45.38803" lon="6.27821">
        <ele>422</ele>
        <time>2022-07-17T05:28:13Z</time>
      </trkpt>
      <trkpt lat="45.38799" lon="6.27815">
        <ele>422</ele>
        <time>2022-07-17T05:28:14Z</time>
      </trkpt>
      <trkpt lat="45.38795" lon="6.27809">
        <ele>422</ele>
        <time>2022-07-17T05:28:15Z</time>
      </trkpt>
      <trkpt lat="45.3879" lon="6.27803">
        <ele>422.2</ele>
        <time>2022-07-17T05:28:16Z</time>
      </trkpt>
      <trkpt lat="45.38786" lon="6.27796">
        <ele>422.2</ele>
        <time>2022-07-17T05:28:18Z</time>
      </trkpt>
      <trkpt lat="45.38782" lon="6.2779">
        <ele>422.2</ele>
        <time>2022-07-17T05:28:19Z</time>
      </trkpt>
      <trkpt lat="45.38778" lon="6.27783">
        <ele>422.2</ele>
        <time>2022-07-17T05:28:20Z</time>
      </trkpt>
      <trkpt lat="45.38774" lon="6.27776">
        <ele>422</ele>
        <time>2022-07-17T05:28:21Z</time>
      </trkpt>
      <trkpt lat="45.3877" lon="6.27769">
        <ele>422</ele>
        <time>2022-07-17T05:28:22Z</time>
      </trkpt>
      <trkpt lat="45.38766" lon="6.27762">
        <ele>421.6</ele>
        <time>2022-07-17T05:28:23Z</time>
      </trkpt>
      <trkpt lat="45.38762" lon="6.27754">
        <ele>421.2</ele>
        <time>2022-07-17T05:28:24Z</time>
      </trkpt>
      <trkpt lat="45.38758" lon="6.27746">
        <ele>420.8</ele>
        <time>2022-07-17T05:28:25Z</time>
      </trkpt>
      <trkpt lat="45.38754" lon="6.27737">
        <ele>420.4</ele>
        <time>2022-07-17T05:28:26Z</time>
      </trkpt>
      <trkpt lat="45.38751" lon="6.27727">
        <ele>420</ele>
        <time>2022-07-17T05:28:27Z</time>
      </trkpt>
      <trkpt lat="45.38748" lon="6.27717">
        <ele>419.6</ele>
        <time>2022-07-17T05:28:28Z</time>
      </trkpt>
      <trkpt lat="45.38745" lon="6.27706">
        <ele>419.2</ele>
        <time>2022-07-17T05:28:29Z</time>
      </trkpt>
      <trkpt lat="45.38742" lon="6.27695">
        <ele>419</ele>
        <time>2022-07-17T05:28:30Z</time>
      </trkpt>
      <trkpt lat="45.3874" lon="6.27684">
        <ele>418.4</ele>
        <time>2022-07-17T05:28:31Z</time>
      </trkpt>
      <trkpt lat="45.38737" lon="6.27673">
        <ele>418.2</ele>
        <time>2022-07-17T05:28:32Z</time>
      </trkpt>
      <trkpt lat="45.38735" lon="6.27661">
        <ele>418</ele>
        <time>2022-07-17T05:28:33Z</time>
      </trkpt>
      <trkpt lat="45.38733" lon="6.2765">
        <ele>417.8</ele>
        <time>2022-07-17T05:28:34Z</time>
      </trkpt>
      <trkpt lat="45.38732" lon="6.27639">
        <ele>417.8</ele>
        <time>2022-07-17T05:28:35Z</time>
      </trkpt>
      <trkpt lat="45.3873" lon="6.27629">
        <ele>417.8</ele>
        <time>2022-07-17T05:28:36Z</time>
      </trkpt>
      <trkpt lat="45.38729" lon="6.27618">
        <ele>417.4</ele>
        <time>2022-07-17T05:28:37Z</time>
      </trkpt>
      <trkpt lat="45.38727" lon="6.27609">
        <ele>417.4</ele>
        <time>2022-07-17T05:28:38Z</time>
      </trkpt>
      <trkpt lat="45.38726" lon="6.27599">
        <ele>417.4</ele>
        <time>2022-07-17T05:28:39Z</time>
      </trkpt>
      <trkpt lat="45.38724" lon="6.2759">
        <ele>417.4</ele>
        <time>2022-07-17T05:28:40Z</time>
      </trkpt>
      <trkpt lat="45.38723" lon="6.27581">
        <ele>417.4</ele>
        <time>2022-07-17T05:28:41Z</time>
      </trkpt>
      <trkpt lat="45.38722" lon="6.27572">
        <ele>417.4</ele>
        <time>2022-07-17T05:28:42Z</time>
      </trkpt>
      <trkpt lat="45.38721" lon="6.27563">
        <ele>417.4</ele>
        <time>2022-07-17T05:28:43Z</time>
      </trkpt>
      <trkpt lat="45.3872" lon="6.27554">
        <ele>417.4</ele>
        <time>2022-07-17T05:28:44Z</time>
      </trkpt>
      <trkpt lat="45.38718" lon="6.27546">
        <ele>417.6</ele>
        <time>2022-07-17T05:28:45Z</time>
      </trkpt>
      <trkpt lat="45.38717" lon="6.27537">
        <ele>417.6</ele>
        <time>2022-07-17T05:28:46Z</time>
      </trkpt>
      <trkpt lat="45.38715" lon="6.27529">
        <ele>417.6</ele>
        <time>2022-07-17T05:28:47Z</time>
      </trkpt>
      <trkpt lat="45.38713" lon="6.2752">
        <ele>417.8</ele>
        <time>2022-07-17T05:28:48Z</time>
      </trkpt>
      <trkpt lat="45.38712" lon="6.27512">
        <ele>417.8</ele>
        <time>2022-07-17T05:28:49Z</time>
      </trkpt>
      <trkpt lat="45.3871" lon="6.27503">
        <ele>417.8</ele>
        <time>2022-07-17T05:28:50Z</time>
      </trkpt>
      <trkpt lat="45.38708" lon="6.27494">
        <ele>417.8</ele>
        <time>2022-07-17T05:28:51Z</time>
      </trkpt>
      <trkpt lat="45.38706" lon="6.27485">
        <ele>417.8</ele>
        <time>2022-07-17T05:28:52Z</time>
      </trkpt>
      <trkpt lat="45.38704" lon="6.27477">
        <ele>417.8</ele>
        <time>2022-07-17T05:28:53Z</time>
      </trkpt>
      <trkpt lat="45.38701" lon="6.27468">
        <ele>417.8</ele>
        <time>2022-07-17T05:28:54Z</time>
      </trkpt>
      <trkpt lat="45.38698" lon="6.27459">
        <ele>417.8</ele>
        <time>2022-07-17T05:28:55Z</time>
      </trkpt>
      <trkpt lat="45.38696" lon="6.2745">
        <ele>417.8</ele>
        <time>2022-07-17T05:28:56Z</time>
      </trkpt>
      <trkpt lat="45.38693" lon="6.27442">
        <ele>417.6</ele>
        <time>2022-07-17T05:28:57Z</time>
      </trkpt>
      <trkpt lat="45.3869" lon="6.27433">
        <ele>417.6</ele>
        <time>2022-07-17T05:28:58Z</time>
      </trkpt>
      <trkpt lat="45.38687" lon="6.27425">
        <ele>417.4</ele>
        <time>2022-07-17T05:28:59Z</time>
      </trkpt>
      <trkpt lat="45.38684" lon="6.27416">
        <ele>417.4</ele>
        <time>2022-07-17T05:29:00Z</time>
      </trkpt>
      <trkpt lat="45.38681" lon="6.27408">
        <ele>416.8</ele>
        <time>2022-07-17T05:29:01Z</time>
      </trkpt>
      <trkpt lat="45.38677" lon="6.274">
        <ele>416.6</ele>
        <time>2022-07-17T05:29:02Z</time>
      </trkpt>
      <trkpt lat="45.38672" lon="6.27392">
        <ele>416.4</ele>
        <time>2022-07-17T05:29:03Z</time>
      </trkpt>
      <trkpt lat="45.38668" lon="6.27384">
        <ele>416.2</ele>
        <time>2022-07-17T05:29:04Z</time>
      </trkpt>
      <trkpt lat="45.38662" lon="6.27377">
        <ele>415.8</ele>
        <time>2022-07-17T05:29:05Z</time>
      </trkpt>
      <trkpt lat="45.38657" lon="6.27371">
        <ele>415.6</ele>
        <time>2022-07-17T05:29:06Z</time>
      </trkpt>
      <trkpt lat="45.38651" lon="6.27364">
        <ele>415.2</ele>
        <time>2022-07-17T05:29:07Z</time>
      </trkpt>
      <trkpt lat="45.38644" lon="6.27358">
        <ele>414.8</ele>
        <time>2022-07-17T05:29:08Z</time>
      </trkpt>
      <trkpt lat="45.38638" lon="6.27352">
        <ele>414.4</ele>
        <time>2022-07-17T05:29:09Z</time>
      </trkpt>
      <trkpt lat="45.38632" lon="6.27345">
        <ele>414</ele>
        <time>2022-07-17T05:29:10Z</time>
      </trkpt>
      <trkpt lat="45.38625" lon="6.27338">
        <ele>413.6</ele>
        <time>2022-07-17T05:29:11Z</time>
      </trkpt>
      <trkpt lat="45.38619" lon="6.27331">
        <ele>413.2</ele>
        <time>2022-07-17T05:29:12Z</time>
      </trkpt>
      <trkpt lat="45.38613" lon="6.27322">
        <ele>412.8</ele>
        <time>2022-07-17T05:29:13Z</time>
      </trkpt>
      <trkpt lat="45.38608" lon="6.27313">
        <ele>412.4</ele>
        <time>2022-07-17T05:29:14Z</time>
      </trkpt>
      <trkpt lat="45.38603" lon="6.27304">
        <ele>412</ele>
        <time>2022-07-17T05:29:15Z</time>
      </trkpt>
      <trkpt lat="45.386" lon="6.27294">
        <ele>411.6</ele>
        <time>2022-07-17T05:29:16Z</time>
      </trkpt>
      <trkpt lat="45.38598" lon="6.27283">
        <ele>411.6</ele>
        <time>2022-07-17T05:29:17Z</time>
      </trkpt>
      <trkpt lat="45.38597" lon="6.27272">
        <ele>411.2</ele>
        <time>2022-07-17T05:29:18Z</time>
      </trkpt>
      <trkpt lat="45.38597" lon="6.27261">
        <ele>411.2</ele>
        <time>2022-07-17T05:29:19Z</time>
      </trkpt>
      <trkpt lat="45.38598" lon="6.27251">
        <ele>411</ele>
        <time>2022-07-17T05:29:20Z</time>
      </trkpt>
      <trkpt lat="45.386" lon="6.27242">
        <ele>411</ele>
        <time>2022-07-17T05:29:21Z</time>
      </trkpt>
      <trkpt lat="45.38602" lon="6.27234">
        <ele>411</ele>
        <time>2022-07-17T05:29:22Z</time>
      </trkpt>
      <trkpt lat="45.38606" lon="6.27228">
        <ele>410.8</ele>
        <time>2022-07-17T05:29:23Z</time>
      </trkpt>
      <trkpt lat="45.38611" lon="6.27223">
        <ele>410.8</ele>
        <time>2022-07-17T05:29:24Z</time>
      </trkpt>
      <trkpt lat="45.38616" lon="6.2722">
        <ele>410.8</ele>
        <time>2022-07-17T05:29:25Z</time>
      </trkpt>
      <trkpt lat="45.38622" lon="6.27217">
        <ele>410.6</ele>
        <time>2022-07-17T05:29:26Z</time>
      </trkpt>
      <trkpt lat="45.38626" lon="6.27213">
        <ele>410.6</ele>
        <time>2022-07-17T05:29:27Z</time>
      </trkpt>
      <trkpt lat="45.38629" lon="6.27208">
        <ele>410.6</ele>
        <time>2022-07-17T05:29:28Z</time>
      </trkpt>
      <trkpt lat="45.38631" lon="6.27201">
        <ele>410.6</ele>
        <time>2022-07-17T05:29:29Z</time>
      </trkpt>
      <trkpt lat="45.38632" lon="6.27195">
        <ele>410.6</ele>
        <time>2022-07-17T05:29:30Z</time>
      </trkpt>
      <trkpt lat="45.38631" lon="6.27189">
        <ele>410.6</ele>
        <time>2022-07-17T05:29:31Z</time>
      </trkpt>
      <trkpt lat="45.38628" lon="6.27184">
        <ele>410.8</ele>
        <time>2022-07-17T05:29:32Z</time>
      </trkpt>
      <trkpt lat="45.38625" lon="6.2718">
        <ele>410.8</ele>
        <time>2022-07-17T05:29:33Z</time>
      </trkpt>
      <trkpt lat="45.3862" lon="6.27177">
        <ele>411</ele>
        <time>2022-07-17T05:29:34Z</time>
      </trkpt>
      <trkpt lat="45.38609" lon="6.27177">
        <ele>411</ele>
        <time>2022-07-17T05:29:35Z</time>
      </trkpt>
      <trkpt lat="45.38603" lon="6.27179">
        <ele>411</ele>
        <time>2022-07-17T05:29:36Z</time>
      </trkpt>
      <trkpt lat="45.38598" lon="6.27181">
        <ele>411</ele>
        <time>2022-07-17T05:29:37Z</time>
      </trkpt>
      <trkpt lat="45.38592" lon="6.27183">
        <ele>411</ele>
        <time>2022-07-17T05:29:38Z</time>
      </trkpt>
      <trkpt lat="45.38586" lon="6.27185">
        <ele>411</ele>
        <time>2022-07-17T05:29:39Z</time>
      </trkpt>
      <trkpt lat="45.3858" lon="6.27186">
        <ele>411</ele>
        <time>2022-07-17T05:29:40Z</time>
      </trkpt>
      <trkpt lat="45.38573" lon="6.27189">
        <ele>411</ele>
        <time>2022-07-17T05:29:41Z</time>
      </trkpt>
      <trkpt lat="45.38567" lon="6.27193">
        <ele>411</ele>
        <time>2022-07-17T05:29:42Z</time>
      </trkpt>
      <trkpt lat="45.38561" lon="6.27198">
        <ele>411</ele>
        <time>2022-07-17T05:29:43Z</time>
      </trkpt>
      <trkpt lat="45.38555" lon="6.27203">
        <ele>411</ele>
        <time>2022-07-17T05:29:44Z</time>
      </trkpt>
      <trkpt lat="45.38549" lon="6.27209">
        <ele>411</ele>
        <time>2022-07-17T05:29:45Z</time>
      </trkpt>
      <trkpt lat="45.38544" lon="6.27214">
        <ele>411</ele>
        <time>2022-07-17T05:29:46Z</time>
      </trkpt>
      <trkpt lat="45.38538" lon="6.2722">
        <ele>411</ele>
        <time>2022-07-17T05:29:47Z</time>
      </trkpt>
      <trkpt lat="45.38532" lon="6.27227">
        <ele>410.8</ele>
        <time>2022-07-17T05:29:48Z</time>
      </trkpt>
      <trkpt lat="45.38526" lon="6.27233">
        <ele>410.8</ele>
        <time>2022-07-17T05:29:49Z</time>
      </trkpt>
      <trkpt lat="45.3852" lon="6.27239">
        <ele>410.4</ele>
        <time>2022-07-17T05:29:50Z</time>
      </trkpt>
      <trkpt lat="45.38514" lon="6.27245">
        <ele>410.4</ele>
        <time>2022-07-17T05:29:51Z</time>
      </trkpt>
      <trkpt lat="45.38508" lon="6.27251">
        <ele>410.4</ele>
        <time>2022-07-17T05:29:52Z</time>
      </trkpt>
      <trkpt lat="45.38502" lon="6.27256">
        <ele>410.2</ele>
        <time>2022-07-17T05:29:53Z</time>
      </trkpt>
      <trkpt lat="45.38496" lon="6.27261">
        <ele>410.2</ele>
        <time>2022-07-17T05:29:54Z</time>
      </trkpt>
      <trkpt lat="45.3849" lon="6.27265">
        <ele>410.2</ele>
        <time>2022-07-17T05:29:55Z</time>
      </trkpt>
      <trkpt lat="45.38483" lon="6.27269">
        <ele>410.2</ele>
        <time>2022-07-17T05:29:56Z</time>
      </trkpt>
      <trkpt lat="45.38477" lon="6.27272">
        <ele>410.2</ele>
        <time>2022-07-17T05:29:57Z</time>
      </trkpt>
      <trkpt lat="45.3847" lon="6.27275">
        <ele>410.4</ele>
        <time>2022-07-17T05:29:58Z</time>
      </trkpt>
      <trkpt lat="45.38464" lon="6.27277">
        <ele>410.4</ele>
        <time>2022-07-17T05:29:59Z</time>
      </trkpt>
      <trkpt lat="45.38457" lon="6.27279">
        <ele>410.4</ele>
        <time>2022-07-17T05:30:00Z</time>
      </trkpt>
      <trkpt lat="45.38451" lon="6.27281">
        <ele>410.4</ele>
        <time>2022-07-17T05:30:01Z</time>
      </trkpt>
      <trkpt lat="45.38444" lon="6.27282">
        <ele>410.4</ele>
        <time>2022-07-17T05:30:02Z</time>
      </trkpt>
      <trkpt lat="45.38437" lon="6.27282">
        <ele>410.4</ele>
        <time>2022-07-17T05:30:03Z</time>
      </trkpt>
      <trkpt lat="45.38431" lon="6.27282">
        <ele>410.4</ele>
        <time>2022-07-17T05:30:04Z</time>
      </trkpt>
      <trkpt lat="45.38424" lon="6.27282">
        <ele>410.4</ele>
        <time>2022-07-17T05:30:05Z</time>
      </trkpt>
      <trkpt lat="45.38418" lon="6.27282">
        <ele>410.6</ele>
        <time>2022-07-17T05:30:06Z</time>
      </trkpt>
      <trkpt lat="45.38412" lon="6.27281">
        <ele>410.6</ele>
        <time>2022-07-17T05:30:07Z</time>
      </trkpt>
      <trkpt lat="45.38405" lon="6.2728">
        <ele>410.6</ele>
        <time>2022-07-17T05:30:08Z</time>
      </trkpt>
      <trkpt lat="45.38399" lon="6.27279">
        <ele>410.6</ele>
        <time>2022-07-17T05:30:09Z</time>
      </trkpt>
      <trkpt lat="45.38392" lon="6.27278">
        <ele>410.6</ele>
        <time>2022-07-17T05:30:10Z</time>
      </trkpt>
      <trkpt lat="45.38386" lon="6.27278">
        <ele>411</ele>
        <time>2022-07-17T05:30:11Z</time>
      </trkpt>
      <trkpt lat="45.3838" lon="6.27277">
        <ele>411</ele>
        <time>2022-07-17T05:30:12Z</time>
      </trkpt>
      <trkpt lat="45.38373" lon="6.27276">
        <ele>411</ele>
        <time>2022-07-17T05:30:13Z</time>
      </trkpt>
      <trkpt lat="45.38367" lon="6.27275">
        <ele>411</ele>
        <time>2022-07-17T05:30:14Z</time>
      </trkpt>
      <trkpt lat="45.38361" lon="6.27274">
        <ele>411</ele>
        <time>2022-07-17T05:30:15Z</time>
      </trkpt>
      <trkpt lat="45.38355" lon="6.27274">
        <ele>411</ele>
        <time>2022-07-17T05:30:16Z</time>
      </trkpt>
      <trkpt lat="45.38348" lon="6.27273">
        <ele>411</ele>
        <time>2022-07-17T05:30:17Z</time>
      </trkpt>
      <trkpt lat="45.38342" lon="6.27272">
        <ele>411</ele>
        <time>2022-07-17T05:30:18Z</time>
      </trkpt>
      <trkpt lat="45.38336" lon="6.27272">
        <ele>411</ele>
        <time>2022-07-17T05:30:19Z</time>
      </trkpt>
      <trkpt lat="45.3833" lon="6.27271">
        <ele>411.2</ele>
        <time>2022-07-17T05:30:20Z</time>
      </trkpt>
      <trkpt lat="45.38324" lon="6.2727">
        <ele>411.2</ele>
        <time>2022-07-17T05:30:21Z</time>
      </trkpt>
      <trkpt lat="45.38317" lon="6.2727">
        <ele>411.2</ele>
        <time>2022-07-17T05:30:22Z</time>
      </trkpt>
      <trkpt lat="45.38311" lon="6.27269">
        <ele>411.4</ele>
        <time>2022-07-17T05:30:23Z</time>
      </trkpt>
      <trkpt lat="45.38305" lon="6.27268">
        <ele>411.4</ele>
        <time>2022-07-17T05:30:24Z</time>
      </trkpt>
      <trkpt lat="45.38299" lon="6.27268">
        <ele>411.4</ele>
        <time>2022-07-17T05:30:25Z</time>
      </trkpt>
      <trkpt lat="45.38292" lon="6.27267">
        <ele>411.4</ele>
        <time>2022-07-17T05:30:26Z</time>
      </trkpt>
      <trkpt lat="45.38286" lon="6.27266">
        <ele>411.4</ele>
        <time>2022-07-17T05:30:27Z</time>
      </trkpt>
      <trkpt lat="45.3828" lon="6.27265">
        <ele>411.4</ele>
        <time>2022-07-17T05:30:28Z</time>
      </trkpt>
      <trkpt lat="45.38274" lon="6.27263">
        <ele>411.6</ele>
        <time>2022-07-17T05:30:29Z</time>
      </trkpt>
      <trkpt lat="45.38268" lon="6.27261">
        <ele>411.6</ele>
        <time>2022-07-17T05:30:30Z</time>
      </trkpt>
      <trkpt lat="45.38262" lon="6.2726">
        <ele>411.6</ele>
        <time>2022-07-17T05:30:31Z</time>
      </trkpt>
      <trkpt lat="45.38256" lon="6.27258">
        <ele>411.6</ele>
        <time>2022-07-17T05:30:32Z</time>
      </trkpt>
      <trkpt lat="45.3825" lon="6.27255">
        <ele>411.8</ele>
        <time>2022-07-17T05:30:33Z</time>
      </trkpt>
      <trkpt lat="45.38244" lon="6.27253">
        <ele>411.8</ele>
        <time>2022-07-17T05:30:34Z</time>
      </trkpt>
      <trkpt lat="45.38238" lon="6.2725">
        <ele>411.8</ele>
        <time>2022-07-17T05:30:35Z</time>
      </trkpt>
      <trkpt lat="45.38232" lon="6.27248">
        <ele>411.8</ele>
        <time>2022-07-17T05:30:36Z</time>
      </trkpt>
      <trkpt lat="45.38226" lon="6.27245">
        <ele>411.8</ele>
        <time>2022-07-17T05:30:37Z</time>
      </trkpt>
      <trkpt lat="45.38221" lon="6.27242">
        <ele>411.8</ele>
        <time>2022-07-17T05:30:38Z</time>
      </trkpt>
      <trkpt lat="45.38215" lon="6.2724">
        <ele>411.8</ele>
        <time>2022-07-17T05:30:39Z</time>
      </trkpt>
      <trkpt lat="45.38209" lon="6.27237">
        <ele>411.8</ele>
        <time>2022-07-17T05:30:40Z</time>
      </trkpt>
      <trkpt lat="45.38203" lon="6.27234">
        <ele>411.8</ele>
        <time>2022-07-17T05:30:41Z</time>
      </trkpt>
      <trkpt lat="45.38197" lon="6.27232">
        <ele>411.8</ele>
        <time>2022-07-17T05:30:42Z</time>
      </trkpt>
      <trkpt lat="45.38191" lon="6.27229">
        <ele>411.8</ele>
        <time>2022-07-17T05:30:43Z</time>
      </trkpt>
      <trkpt lat="45.38185" lon="6.27226">
        <ele>411.8</ele>
        <time>2022-07-17T05:30:44Z</time>
      </trkpt>
      <trkpt lat="45.38179" lon="6.27224">
        <ele>412.2</ele>
        <time>2022-07-17T05:30:45Z</time>
      </trkpt>
      <trkpt lat="45.38174" lon="6.27221">
        <ele>412.2</ele>
        <time>2022-07-17T05:30:46Z</time>
      </trkpt>
      <trkpt lat="45.38168" lon="6.27219">
        <ele>412.2</ele>
        <time>2022-07-17T05:30:47Z</time>
      </trkpt>
      <trkpt lat="45.38162" lon="6.27216">
        <ele>412.2</ele>
        <time>2022-07-17T05:30:48Z</time>
      </trkpt>
      <trkpt lat="45.38156" lon="6.27213">
        <ele>412.2</ele>
        <time>2022-07-17T05:30:49Z</time>
      </trkpt>
      <trkpt lat="45.38151" lon="6.27211">
        <ele>412.4</ele>
        <time>2022-07-17T05:30:50Z</time>
      </trkpt>
      <trkpt lat="45.38145" lon="6.27208">
        <ele>412.4</ele>
        <time>2022-07-17T05:30:51Z</time>
      </trkpt>
      <trkpt lat="45.38139" lon="6.27205">
        <ele>412.6</ele>
        <time>2022-07-17T05:30:52Z</time>
      </trkpt>
      <trkpt lat="45.38133" lon="6.27203">
        <ele>412.6</ele>
        <time>2022-07-17T05:30:53Z</time>
      </trkpt>
      <trkpt lat="45.38127" lon="6.272">
        <ele>412.6</ele>
        <time>2022-07-17T05:30:54Z</time>
      </trkpt>
      <trkpt lat="45.38121" lon="6.27197">
        <ele>412.6</ele>
        <time>2022-07-17T05:30:55Z</time>
      </trkpt>
      <trkpt lat="45.38115" lon="6.27194">
        <ele>412.6</ele>
        <time>2022-07-17T05:30:56Z</time>
      </trkpt>
      <trkpt lat="45.38109" lon="6.27192">
        <ele>412.6</ele>
        <time>2022-07-17T05:30:57Z</time>
      </trkpt>
      <trkpt lat="45.38104" lon="6.2719">
        <ele>412.6</ele>
        <time>2022-07-17T05:30:58Z</time>
      </trkpt>
      <trkpt lat="45.38098" lon="6.27188">
        <ele>412.8</ele>
        <time>2022-07-17T05:30:59Z</time>
      </trkpt>
      <trkpt lat="45.38092" lon="6.27186">
        <ele>412.8</ele>
        <time>2022-07-17T05:31:00Z</time>
      </trkpt>
      <trkpt lat="45.38086" lon="6.27185">
        <ele>412.8</ele>
        <time>2022-07-17T05:31:01Z</time>
      </trkpt>
      <trkpt lat="45.3808" lon="6.27184">
        <ele>413.2</ele>
        <time>2022-07-17T05:31:02Z</time>
      </trkpt>
      <trkpt lat="45.38074" lon="6.27183">
        <ele>413.2</ele>
        <time>2022-07-17T05:31:03Z</time>
      </trkpt>
      <trkpt lat="45.38067" lon="6.27182">
        <ele>413.2</ele>
        <time>2022-07-17T05:31:04Z</time>
      </trkpt>
      <trkpt lat="45.38061" lon="6.27182">
        <ele>413.2</ele>
        <time>2022-07-17T05:31:05Z</time>
      </trkpt>
      <trkpt lat="45.38055" lon="6.27181">
        <ele>413.2</ele>
        <time>2022-07-17T05:31:06Z</time>
      </trkpt>
      <trkpt lat="45.38049" lon="6.27181">
        <ele>413.2</ele>
        <time>2022-07-17T05:31:07Z</time>
      </trkpt>
      <trkpt lat="45.38043" lon="6.2718">
        <ele>413.2</ele>
        <time>2022-07-17T05:31:08Z</time>
      </trkpt>
      <trkpt lat="45.38037" lon="6.27181">
        <ele>413.2</ele>
        <time>2022-07-17T05:31:09Z</time>
      </trkpt>
      <trkpt lat="45.38031" lon="6.27183">
        <ele>413.2</ele>
        <time>2022-07-17T05:31:10Z</time>
      </trkpt>
      <trkpt lat="45.38025" lon="6.27185">
        <ele>413.2</ele>
        <time>2022-07-17T05:31:11Z</time>
      </trkpt>
      <trkpt lat="45.38018" lon="6.27186">
        <ele>413.2</ele>
        <time>2022-07-17T05:31:12Z</time>
      </trkpt>
      <trkpt lat="45.38012" lon="6.27188">
        <ele>413.2</ele>
        <time>2022-07-17T05:31:13Z</time>
      </trkpt>
      <trkpt lat="45.38005" lon="6.2719">
        <ele>413.2</ele>
        <time>2022-07-17T05:31:14Z</time>
      </trkpt>
      <trkpt lat="45.37999" lon="6.27193">
        <ele>413.2</ele>
        <time>2022-07-17T05:31:15Z</time>
      </trkpt>
      <trkpt lat="45.37993" lon="6.27195">
        <ele>413.2</ele>
        <time>2022-07-17T05:31:16Z</time>
      </trkpt>
      <trkpt lat="45.37987" lon="6.27198">
        <ele>413.2</ele>
        <time>2022-07-17T05:31:17Z</time>
      </trkpt>
      <trkpt lat="45.37981" lon="6.272">
        <ele>413.2</ele>
        <time>2022-07-17T05:31:18Z</time>
      </trkpt>
      <trkpt lat="45.37974" lon="6.27203">
        <ele>413.2</ele>
        <time>2022-07-17T05:31:19Z</time>
      </trkpt>
      <trkpt lat="45.37968" lon="6.27206">
        <ele>413.2</ele>
        <time>2022-07-17T05:31:20Z</time>
      </trkpt>
      <trkpt lat="45.37962" lon="6.27208">
        <ele>413.2</ele>
        <time>2022-07-17T05:31:21Z</time>
      </trkpt>
      <trkpt lat="45.37956" lon="6.27211">
        <ele>413.2</ele>
        <time>2022-07-17T05:31:22Z</time>
      </trkpt>
      <trkpt lat="45.37951" lon="6.27213">
        <ele>413.2</ele>
        <time>2022-07-17T05:31:23Z</time>
      </trkpt>
      <trkpt lat="45.37945" lon="6.27215">
        <ele>413.2</ele>
        <time>2022-07-17T05:31:24Z</time>
      </trkpt>
      <trkpt lat="45.37939" lon="6.27218">
        <ele>413.2</ele>
        <time>2022-07-17T05:31:25Z</time>
      </trkpt>
      <trkpt lat="45.37933" lon="6.2722">
        <ele>413.2</ele>
        <time>2022-07-17T05:31:26Z</time>
      </trkpt>
      <trkpt lat="45.37927" lon="6.27222">
        <ele>413.4</ele>
        <time>2022-07-17T05:31:27Z</time>
      </trkpt>
      <trkpt lat="45.37921" lon="6.27225">
        <ele>413.4</ele>
        <time>2022-07-17T05:31:28Z</time>
      </trkpt>
      <trkpt lat="45.37916" lon="6.27227">
        <ele>413.4</ele>
        <time>2022-07-17T05:31:29Z</time>
      </trkpt>
      <trkpt lat="45.3791" lon="6.27229">
        <ele>413.6</ele>
        <time>2022-07-17T05:31:30Z</time>
      </trkpt>
      <trkpt lat="45.37904" lon="6.27232">
        <ele>413.6</ele>
        <time>2022-07-17T05:31:31Z</time>
      </trkpt>
      <trkpt lat="45.37899" lon="6.27234">
        <ele>413.6</ele>
        <time>2022-07-17T05:31:32Z</time>
      </trkpt>
      <trkpt lat="45.37893" lon="6.27236">
        <ele>413.6</ele>
        <time>2022-07-17T05:31:33Z</time>
      </trkpt>
      <trkpt lat="45.37887" lon="6.27238">
        <ele>413.6</ele>
        <time>2022-07-17T05:31:34Z</time>
      </trkpt>
      <trkpt lat="45.37882" lon="6.27241">
        <ele>413.6</ele>
        <time>2022-07-17T05:31:35Z</time>
      </trkpt>
      <trkpt lat="45.37876" lon="6.27244">
        <ele>413.6</ele>
        <time>2022-07-17T05:31:36Z</time>
      </trkpt>
      <trkpt lat="45.37871" lon="6.27247">
        <ele>413.6</ele>
        <time>2022-07-17T05:31:37Z</time>
      </trkpt>
      <trkpt lat="45.37866" lon="6.27251">
        <ele>413.8</ele>
        <time>2022-07-17T05:31:38Z</time>
      </trkpt>
      <trkpt lat="45.3786" lon="6.27255">
        <ele>413.8</ele>
        <time>2022-07-17T05:31:39Z</time>
      </trkpt>
      <trkpt lat="45.37855" lon="6.27259">
        <ele>413.8</ele>
        <time>2022-07-17T05:31:40Z</time>
      </trkpt>
      <trkpt lat="45.3785" lon="6.27264">
        <ele>413.8</ele>
        <time>2022-07-17T05:31:41Z</time>
      </trkpt>
      <trkpt lat="45.37846" lon="6.27269">
        <ele>413.8</ele>
        <time>2022-07-17T05:31:42Z</time>
      </trkpt>
      <trkpt lat="45.37841" lon="6.27274">
        <ele>413.8</ele>
        <time>2022-07-17T05:31:43Z</time>
      </trkpt>
      <trkpt lat="45.37836" lon="6.27279">
        <ele>413.8</ele>
        <time>2022-07-17T05:31:44Z</time>
      </trkpt>
      <trkpt lat="45.37832" lon="6.27285">
        <ele>413.8</ele>
        <time>2022-07-17T05:31:45Z</time>
      </trkpt>
      <trkpt lat="45.37827" lon="6.2729">
        <ele>413.8</ele>
        <time>2022-07-17T05:31:46Z</time>
      </trkpt>
      <trkpt lat="45.37822" lon="6.27295">
        <ele>413.8</ele>
        <time>2022-07-17T05:31:47Z</time>
      </trkpt>
      <trkpt lat="45.37817" lon="6.273">
        <ele>413.8</ele>
        <time>2022-07-17T05:31:48Z</time>
      </trkpt>
      <trkpt lat="45.37813" lon="6.27306">
        <ele>413.8</ele>
        <time>2022-07-17T05:31:49Z</time>
      </trkpt>
      <trkpt lat="45.37808" lon="6.27311">
        <ele>413.8</ele>
        <time>2022-07-17T05:31:50Z</time>
      </trkpt>
      <trkpt lat="45.37803" lon="6.27316">
        <ele>413.8</ele>
        <time>2022-07-17T05:31:51Z</time>
      </trkpt>
      <trkpt lat="45.37799" lon="6.27322">
        <ele>414</ele>
        <time>2022-07-17T05:31:52Z</time>
      </trkpt>
      <trkpt lat="45.37794" lon="6.27327">
        <ele>414</ele>
        <time>2022-07-17T05:31:53Z</time>
      </trkpt>
      <trkpt lat="45.3779" lon="6.27332">
        <ele>414</ele>
        <time>2022-07-17T05:31:54Z</time>
      </trkpt>
      <trkpt lat="45.37785" lon="6.27337">
        <ele>414.2</ele>
        <time>2022-07-17T05:31:55Z</time>
      </trkpt>
      <trkpt lat="45.3778" lon="6.27343">
        <ele>414.2</ele>
        <time>2022-07-17T05:31:56Z</time>
      </trkpt>
      <trkpt lat="45.37776" lon="6.27348">
        <ele>414.2</ele>
        <time>2022-07-17T05:31:57Z</time>
      </trkpt>
      <trkpt lat="45.37771" lon="6.27352">
        <ele>414.2</ele>
        <time>2022-07-17T05:31:58Z</time>
      </trkpt>
      <trkpt lat="45.37767" lon="6.27357">
        <ele>414.4</ele>
        <time>2022-07-17T05:31:59Z</time>
      </trkpt>
      <trkpt lat="45.37762" lon="6.27362">
        <ele>414.4</ele>
        <time>2022-07-17T05:32:00Z</time>
      </trkpt>
      <trkpt lat="45.37757" lon="6.27367">
        <ele>414.4</ele>
        <time>2022-07-17T05:32:01Z</time>
      </trkpt>
      <trkpt lat="45.37752" lon="6.27372">
        <ele>414.4</ele>
        <time>2022-07-17T05:32:02Z</time>
      </trkpt>
      <trkpt lat="45.37748" lon="6.27378">
        <ele>414.4</ele>
        <time>2022-07-17T05:32:03Z</time>
      </trkpt>
      <trkpt lat="45.37743" lon="6.27383">
        <ele>414.4</ele>
        <time>2022-07-17T05:32:04Z</time>
      </trkpt>
      <trkpt lat="45.37738" lon="6.27388">
        <ele>414.4</ele>
        <time>2022-07-17T05:32:05Z</time>
      </trkpt>
      <trkpt lat="45.37733" lon="6.27392">
        <ele>414.4</ele>
        <time>2022-07-17T05:32:06Z</time>
      </trkpt>
      <trkpt lat="45.37728" lon="6.27397">
        <ele>414.4</ele>
        <time>2022-07-17T05:32:07Z</time>
      </trkpt>
      <trkpt lat="45.37724" lon="6.27402">
        <ele>414.4</ele>
        <time>2022-07-17T05:32:08Z</time>
      </trkpt>
      <trkpt lat="45.37719" lon="6.27406">
        <ele>414.4</ele>
        <time>2022-07-17T05:32:09Z</time>
      </trkpt>
      <trkpt lat="45.37715" lon="6.27411">
        <ele>414.4</ele>
        <time>2022-07-17T05:32:10Z</time>
      </trkpt>
      <trkpt lat="45.3771" lon="6.27415">
        <ele>414.4</ele>
        <time>2022-07-17T05:32:11Z</time>
      </trkpt>
      <trkpt lat="45.37705" lon="6.2742">
        <ele>414.4</ele>
        <time>2022-07-17T05:32:12Z</time>
      </trkpt>
      <trkpt lat="45.377" lon="6.27423">
        <ele>414.4</ele>
        <time>2022-07-17T05:32:13Z</time>
      </trkpt>
      <trkpt lat="45.37694" lon="6.27425">
        <ele>414.8</ele>
        <time>2022-07-17T05:32:14Z</time>
      </trkpt>
      <trkpt lat="45.37688" lon="6.27426">
        <ele>414.8</ele>
        <time>2022-07-17T05:32:15Z</time>
      </trkpt>
      <trkpt lat="45.37682" lon="6.27426">
        <ele>414.8</ele>
        <time>2022-07-17T05:32:16Z</time>
      </trkpt>
      <trkpt lat="45.37676" lon="6.27426">
        <ele>415</ele>
        <time>2022-07-17T05:32:18Z</time>
      </trkpt>
      <trkpt lat="45.3767" lon="6.27425">
        <ele>415</ele>
        <time>2022-07-17T05:32:19Z</time>
      </trkpt>
      <trkpt lat="45.37664" lon="6.27425">
        <ele>415.2</ele>
        <time>2022-07-17T05:32:20Z</time>
      </trkpt>
      <trkpt lat="45.37658" lon="6.27424">
        <ele>415.2</ele>
        <time>2022-07-17T05:32:21Z</time>
      </trkpt>
      <trkpt lat="45.37652" lon="6.27424">
        <ele>415.2</ele>
        <time>2022-07-17T05:32:22Z</time>
      </trkpt>
      <trkpt lat="45.37646" lon="6.27423">
        <ele>415.2</ele>
        <time>2022-07-17T05:32:23Z</time>
      </trkpt>
      <trkpt lat="45.37641" lon="6.27423">
        <ele>415.2</ele>
        <time>2022-07-17T05:32:24Z</time>
      </trkpt>
      <trkpt lat="45.37635" lon="6.27423">
        <ele>415.4</ele>
        <time>2022-07-17T05:32:25Z</time>
      </trkpt>
      <trkpt lat="45.37629" lon="6.27422">
        <ele>415.4</ele>
        <time>2022-07-17T05:32:26Z</time>
      </trkpt>
      <trkpt lat="45.37623" lon="6.27423">
        <ele>415.4</ele>
        <time>2022-07-17T05:32:27Z</time>
      </trkpt>
      <trkpt lat="45.37617" lon="6.27424">
        <ele>415.4</ele>
        <time>2022-07-17T05:32:28Z</time>
      </trkpt>
      <trkpt lat="45.37611" lon="6.27425">
        <ele>415.4</ele>
        <time>2022-07-17T05:32:29Z</time>
      </trkpt>
      <trkpt lat="45.37605" lon="6.27427">
        <ele>415.4</ele>
        <time>2022-07-17T05:32:30Z</time>
      </trkpt>
      <trkpt lat="45.37599" lon="6.2743">
        <ele>415.4</ele>
        <time>2022-07-17T05:32:31Z</time>
      </trkpt>
      <trkpt lat="45.37593" lon="6.27432">
        <ele>415.4</ele>
        <time>2022-07-17T05:32:32Z</time>
      </trkpt>
      <trkpt lat="45.37587" lon="6.27435">
        <ele>415.4</ele>
        <time>2022-07-17T05:32:33Z</time>
      </trkpt>
      <trkpt lat="45.37582" lon="6.27437">
        <ele>415.4</ele>
        <time>2022-07-17T05:32:34Z</time>
      </trkpt>
      <trkpt lat="45.37576" lon="6.2744">
        <ele>415.6</ele>
        <time>2022-07-17T05:32:35Z</time>
      </trkpt>
      <trkpt lat="45.37571" lon="6.27443">
        <ele>415.6</ele>
        <time>2022-07-17T05:32:36Z</time>
      </trkpt>
      <trkpt lat="45.37565" lon="6.27446">
        <ele>415.6</ele>
        <time>2022-07-17T05:32:37Z</time>
      </trkpt>
      <trkpt lat="45.3756" lon="6.27448">
        <ele>415.6</ele>
        <time>2022-07-17T05:32:38Z</time>
      </trkpt>
      <trkpt lat="45.37554" lon="6.27451">
        <ele>415.6</ele>
        <time>2022-07-17T05:32:39Z</time>
      </trkpt>
      <trkpt lat="45.37549" lon="6.27454">
        <ele>415.6</ele>
        <time>2022-07-17T05:32:40Z</time>
      </trkpt>
      <trkpt lat="45.37543" lon="6.27458">
        <ele>415.6</ele>
        <time>2022-07-17T05:32:41Z</time>
      </trkpt>
      <trkpt lat="45.37537" lon="6.27461">
        <ele>415.6</ele>
        <time>2022-07-17T05:32:42Z</time>
      </trkpt>
      <trkpt lat="45.37532" lon="6.27464">
        <ele>415.8</ele>
        <time>2022-07-17T05:32:43Z</time>
      </trkpt>
      <trkpt lat="45.37527" lon="6.27468">
        <ele>415.8</ele>
        <time>2022-07-17T05:32:44Z</time>
      </trkpt>
      <trkpt lat="45.37521" lon="6.27472">
        <ele>415.8</ele>
        <time>2022-07-17T05:32:45Z</time>
      </trkpt>
      <trkpt lat="45.37516" lon="6.27476">
        <ele>415.8</ele>
        <time>2022-07-17T05:32:46Z</time>
      </trkpt>
      <trkpt lat="45.37511" lon="6.2748">
        <ele>416.2</ele>
        <time>2022-07-17T05:32:47Z</time>
      </trkpt>
      <trkpt lat="45.37506" lon="6.27485">
        <ele>416.2</ele>
        <time>2022-07-17T05:32:48Z</time>
      </trkpt>
      <trkpt lat="45.37501" lon="6.2749">
        <ele>416.4</ele>
        <time>2022-07-17T05:32:49Z</time>
      </trkpt>
      <trkpt lat="45.37497" lon="6.27495">
        <ele>416.4</ele>
        <time>2022-07-17T05:32:50Z</time>
      </trkpt>
      <trkpt lat="45.37492" lon="6.27501">
        <ele>416.4</ele>
        <time>2022-07-17T05:32:51Z</time>
      </trkpt>
      <trkpt lat="45.37487" lon="6.27506">
        <ele>416.4</ele>
        <time>2022-07-17T05:32:52Z</time>
      </trkpt>
      <trkpt lat="45.37482" lon="6.27511">
        <ele>416.4</ele>
        <time>2022-07-17T05:32:53Z</time>
      </trkpt>
      <trkpt lat="45.37478" lon="6.27516">
        <ele>416.4</ele>
        <time>2022-07-17T05:32:54Z</time>
      </trkpt>
      <trkpt lat="45.37473" lon="6.27521">
        <ele>416.4</ele>
        <time>2022-07-17T05:32:55Z</time>
      </trkpt>
      <trkpt lat="45.37468" lon="6.27527">
        <ele>416.4</ele>
        <time>2022-07-17T05:32:56Z</time>
      </trkpt>
      <trkpt lat="45.37463" lon="6.27532">
        <ele>416.4</ele>
        <time>2022-07-17T05:32:57Z</time>
      </trkpt>
      <trkpt lat="45.37458" lon="6.27537">
        <ele>416.6</ele>
        <time>2022-07-17T05:32:58Z</time>
      </trkpt>
      <trkpt lat="45.37453" lon="6.27541">
        <ele>416.6</ele>
        <time>2022-07-17T05:32:59Z</time>
      </trkpt>
      <trkpt lat="45.37448" lon="6.27545">
        <ele>416.6</ele>
        <time>2022-07-17T05:33:00Z</time>
      </trkpt>
      <trkpt lat="45.37443" lon="6.27549">
        <ele>416.6</ele>
        <time>2022-07-17T05:33:01Z</time>
      </trkpt>
      <trkpt lat="45.37437" lon="6.27552">
        <ele>416.6</ele>
        <time>2022-07-17T05:33:02Z</time>
      </trkpt>
      <trkpt lat="45.37432" lon="6.27555">
        <ele>416.8</ele>
        <time>2022-07-17T05:33:03Z</time>
      </trkpt>
      <trkpt lat="45.37426" lon="6.27558">
        <ele>416.8</ele>
        <time>2022-07-17T05:33:04Z</time>
      </trkpt>
      <trkpt lat="45.37421" lon="6.27561">
        <ele>416.8</ele>
        <time>2022-07-17T05:33:05Z</time>
      </trkpt>
      <trkpt lat="45.37415" lon="6.27563">
        <ele>416.8</ele>
        <time>2022-07-17T05:33:06Z</time>
      </trkpt>
      <trkpt lat="45.37409" lon="6.27564">
        <ele>417.2</ele>
        <time>2022-07-17T05:33:07Z</time>
      </trkpt>
      <trkpt lat="45.37398" lon="6.27568">
        <ele>417.2</ele>
        <time>2022-07-17T05:33:08Z</time>
      </trkpt>
      <trkpt lat="45.37392" lon="6.27569">
        <ele>417.2</ele>
        <time>2022-07-17T05:33:09Z</time>
      </trkpt>
      <trkpt lat="45.37386" lon="6.2757">
        <ele>417.2</ele>
        <time>2022-07-17T05:33:10Z</time>
      </trkpt>
      <trkpt lat="45.37381" lon="6.27571">
        <ele>417.2</ele>
        <time>2022-07-17T05:33:11Z</time>
      </trkpt>
      <trkpt lat="45.37375" lon="6.27572">
        <ele>417.4</ele>
        <time>2022-07-17T05:33:12Z</time>
      </trkpt>
      <trkpt lat="45.37369" lon="6.27573">
        <ele>417.4</ele>
        <time>2022-07-17T05:33:13Z</time>
      </trkpt>
      <trkpt lat="45.37363" lon="6.27575">
        <ele>417.4</ele>
        <time>2022-07-17T05:33:14Z</time>
      </trkpt>
      <trkpt lat="45.37358" lon="6.27576">
        <ele>417.6</ele>
        <time>2022-07-17T05:33:15Z</time>
      </trkpt>
      <trkpt lat="45.37352" lon="6.27577">
        <ele>417.6</ele>
        <time>2022-07-17T05:33:16Z</time>
      </trkpt>
      <trkpt lat="45.37346" lon="6.27579">
        <ele>417.6</ele>
        <time>2022-07-17T05:33:17Z</time>
      </trkpt>
      <trkpt lat="45.3734" lon="6.2758">
        <ele>417.6</ele>
        <time>2022-07-17T05:33:18Z</time>
      </trkpt>
      <trkpt lat="45.37334" lon="6.27582">
        <ele>417.6</ele>
        <time>2022-07-17T05:33:19Z</time>
      </trkpt>
      <trkpt lat="45.37329" lon="6.27583">
        <ele>417.6</ele>
        <time>2022-07-17T05:33:20Z</time>
      </trkpt>
      <trkpt lat="45.37323" lon="6.27584">
        <ele>417.8</ele>
        <time>2022-07-17T05:33:21Z</time>
      </trkpt>
      <trkpt lat="45.37317" lon="6.27586">
        <ele>417.8</ele>
        <time>2022-07-17T05:33:22Z</time>
      </trkpt>
      <trkpt lat="45.37312" lon="6.27588">
        <ele>417.8</ele>
        <time>2022-07-17T05:33:23Z</time>
      </trkpt>
      <trkpt lat="45.37306" lon="6.2759">
        <ele>417.8</ele>
        <time>2022-07-17T05:33:24Z</time>
      </trkpt>
      <trkpt lat="45.37301" lon="6.27592">
        <ele>417.8</ele>
        <time>2022-07-17T05:33:25Z</time>
      </trkpt>
      <trkpt lat="45.37296" lon="6.27595">
        <ele>417.8</ele>
        <time>2022-07-17T05:33:26Z</time>
      </trkpt>
      <trkpt lat="45.37291" lon="6.27598">
        <ele>418</ele>
        <time>2022-07-17T05:33:27Z</time>
      </trkpt>
      <trkpt lat="45.37285" lon="6.27601">
        <ele>418</ele>
        <time>2022-07-17T05:33:28Z</time>
      </trkpt>
      <trkpt lat="45.3728" lon="6.27604">
        <ele>418</ele>
        <time>2022-07-17T05:33:29Z</time>
      </trkpt>
      <trkpt lat="45.37276" lon="6.27608">
        <ele>418</ele>
        <time>2022-07-17T05:33:30Z</time>
      </trkpt>
      <trkpt lat="45.37271" lon="6.27611">
        <ele>418</ele>
        <time>2022-07-17T05:33:31Z</time>
      </trkpt>
      <trkpt lat="45.37266" lon="6.27615">
        <ele>418.2</ele>
        <time>2022-07-17T05:33:32Z</time>
      </trkpt>
      <trkpt lat="45.37261" lon="6.27619">
        <ele>418.2</ele>
        <time>2022-07-17T05:33:33Z</time>
      </trkpt>
      <trkpt lat="45.37255" lon="6.27623">
        <ele>418.2</ele>
        <time>2022-07-17T05:33:34Z</time>
      </trkpt>
      <trkpt lat="45.3725" lon="6.27626">
        <ele>418.2</ele>
        <time>2022-07-17T05:33:35Z</time>
      </trkpt>
      <trkpt lat="45.37245" lon="6.27629">
        <ele>418.2</ele>
        <time>2022-07-17T05:33:36Z</time>
      </trkpt>
      <trkpt lat="45.3724" lon="6.27632">
        <ele>418.2</ele>
        <time>2022-07-17T05:33:37Z</time>
      </trkpt>
      <trkpt lat="45.37234" lon="6.27634">
        <ele>418.2</ele>
        <time>2022-07-17T05:33:38Z</time>
      </trkpt>
      <trkpt lat="45.37229" lon="6.27636">
        <ele>418.2</ele>
        <time>2022-07-17T05:33:39Z</time>
      </trkpt>
      <trkpt lat="45.37223" lon="6.27638">
        <ele>418.2</ele>
        <time>2022-07-17T05:33:40Z</time>
      </trkpt>
      <trkpt lat="45.37217" lon="6.27639">
        <ele>418.6</ele>
        <time>2022-07-17T05:33:41Z</time>
      </trkpt>
      <trkpt lat="45.37212" lon="6.27641">
        <ele>418.6</ele>
        <time>2022-07-17T05:33:42Z</time>
      </trkpt>
      <trkpt lat="45.37206" lon="6.27642">
        <ele>418.6</ele>
        <time>2022-07-17T05:33:43Z</time>
      </trkpt>
      <trkpt lat="45.372" lon="6.27644">
        <ele>418.6</ele>
        <time>2022-07-17T05:33:44Z</time>
      </trkpt>
      <trkpt lat="45.37195" lon="6.27646">
        <ele>418.6</ele>
        <time>2022-07-17T05:33:45Z</time>
      </trkpt>
      <trkpt lat="45.37189" lon="6.27648">
        <ele>418.6</ele>
        <time>2022-07-17T05:33:46Z</time>
      </trkpt>
      <trkpt lat="45.37184" lon="6.2765">
        <ele>418.6</ele>
        <time>2022-07-17T05:33:47Z</time>
      </trkpt>
      <trkpt lat="45.37179" lon="6.27653">
        <ele>418.6</ele>
        <time>2022-07-17T05:33:48Z</time>
      </trkpt>
      <trkpt lat="45.37174" lon="6.27656">
        <ele>418.6</ele>
        <time>2022-07-17T05:33:49Z</time>
      </trkpt>
      <trkpt lat="45.37169" lon="6.2766">
        <ele>418.6</ele>
        <time>2022-07-17T05:33:50Z</time>
      </trkpt>
      <trkpt lat="45.37164" lon="6.27664">
        <ele>418.6</ele>
        <time>2022-07-17T05:33:51Z</time>
      </trkpt>
      <trkpt lat="45.37159" lon="6.27668">
        <ele>418.6</ele>
        <time>2022-07-17T05:33:52Z</time>
      </trkpt>
      <trkpt lat="45.37155" lon="6.27673">
        <ele>418.6</ele>
        <time>2022-07-17T05:33:53Z</time>
      </trkpt>
      <trkpt lat="45.3715" lon="6.27677">
        <ele>418.8</ele>
        <time>2022-07-17T05:33:54Z</time>
      </trkpt>
      <trkpt lat="45.37146" lon="6.27682">
        <ele>418.8</ele>
        <time>2022-07-17T05:33:55Z</time>
      </trkpt>
      <trkpt lat="45.37141" lon="6.27687">
        <ele>418.8</ele>
        <time>2022-07-17T05:33:56Z</time>
      </trkpt>
      <trkpt lat="45.37136" lon="6.27692">
        <ele>418.8</ele>
        <time>2022-07-17T05:33:57Z</time>
      </trkpt>
      <trkpt lat="45.37131" lon="6.27697">
        <ele>418.8</ele>
        <time>2022-07-17T05:33:58Z</time>
      </trkpt>
      <trkpt lat="45.37127" lon="6.27701">
        <ele>418.8</ele>
        <time>2022-07-17T05:33:59Z</time>
      </trkpt>
      <trkpt lat="45.37122" lon="6.27706">
        <ele>419</ele>
        <time>2022-07-17T05:34:00Z</time>
      </trkpt>
      <trkpt lat="45.37117" lon="6.27711">
        <ele>419</ele>
        <time>2022-07-17T05:34:01Z</time>
      </trkpt>
      <trkpt lat="45.37112" lon="6.27716">
        <ele>419</ele>
        <time>2022-07-17T05:34:02Z</time>
      </trkpt>
      <trkpt lat="45.37108" lon="6.27721">
        <ele>419</ele>
        <time>2022-07-17T05:34:03Z</time>
      </trkpt>
      <trkpt lat="45.37103" lon="6.27726">
        <ele>419</ele>
        <time>2022-07-17T05:34:04Z</time>
      </trkpt>
      <trkpt lat="45.37098" lon="6.2773">
        <ele>419</ele>
        <time>2022-07-17T05:34:05Z</time>
      </trkpt>
      <trkpt lat="45.37088" lon="6.27739">
        <ele>419</ele>
        <time>2022-07-17T05:34:06Z</time>
      </trkpt>
      <trkpt lat="45.37083" lon="6.27743">
        <ele>419</ele>
        <time>2022-07-17T05:34:07Z</time>
      </trkpt>
      <trkpt lat="45.37078" lon="6.27747">
        <ele>419.2</ele>
        <time>2022-07-17T05:34:09Z</time>
      </trkpt>
      <trkpt lat="45.37073" lon="6.27751">
        <ele>419.2</ele>
        <time>2022-07-17T05:34:10Z</time>
      </trkpt>
      <trkpt lat="45.37067" lon="6.27754">
        <ele>419.2</ele>
        <time>2022-07-17T05:34:11Z</time>
      </trkpt>
      <trkpt lat="45.37061" lon="6.27756">
        <ele>419.2</ele>
        <time>2022-07-17T05:34:12Z</time>
      </trkpt>
      <trkpt lat="45.37056" lon="6.27759">
        <ele>419.4</ele>
        <time>2022-07-17T05:34:13Z</time>
      </trkpt>
      <trkpt lat="45.3705" lon="6.27761">
        <ele>419.4</ele>
        <time>2022-07-17T05:34:14Z</time>
      </trkpt>
      <trkpt lat="45.37044" lon="6.27764">
        <ele>419.4</ele>
        <time>2022-07-17T05:34:15Z</time>
      </trkpt>
      <trkpt lat="45.37038" lon="6.27766">
        <ele>419.4</ele>
        <time>2022-07-17T05:34:16Z</time>
      </trkpt>
      <trkpt lat="45.37033" lon="6.27768">
        <ele>419.4</ele>
        <time>2022-07-17T05:34:17Z</time>
      </trkpt>
      <trkpt lat="45.37027" lon="6.27771">
        <ele>419.8</ele>
        <time>2022-07-17T05:34:18Z</time>
      </trkpt>
      <trkpt lat="45.37022" lon="6.27774">
        <ele>419.8</ele>
        <time>2022-07-17T05:34:19Z</time>
      </trkpt>
      <trkpt lat="45.37017" lon="6.27776">
        <ele>419.8</ele>
        <time>2022-07-17T05:34:20Z</time>
      </trkpt>
      <trkpt lat="45.37011" lon="6.27779">
        <ele>419.8</ele>
        <time>2022-07-17T05:34:21Z</time>
      </trkpt>
      <trkpt lat="45.37006" lon="6.27782">
        <ele>419.8</ele>
        <time>2022-07-17T05:34:22Z</time>
      </trkpt>
      <trkpt lat="45.37" lon="6.27785">
        <ele>420</ele>
        <time>2022-07-17T05:34:23Z</time>
      </trkpt>
      <trkpt lat="45.36995" lon="6.27788">
        <ele>420</ele>
        <time>2022-07-17T05:34:24Z</time>
      </trkpt>
      <trkpt lat="45.36989" lon="6.27791">
        <ele>420</ele>
        <time>2022-07-17T05:34:25Z</time>
      </trkpt>
      <trkpt lat="45.36984" lon="6.27794">
        <ele>420</ele>
        <time>2022-07-17T05:34:26Z</time>
      </trkpt>
      <trkpt lat="45.36978" lon="6.27798">
        <ele>420</ele>
        <time>2022-07-17T05:34:27Z</time>
      </trkpt>
      <trkpt lat="45.36973" lon="6.27801">
        <ele>420</ele>
        <time>2022-07-17T05:34:28Z</time>
      </trkpt>
      <trkpt lat="45.36967" lon="6.27805">
        <ele>420</ele>
        <time>2022-07-17T05:34:29Z</time>
      </trkpt>
      <trkpt lat="45.36962" lon="6.27808">
        <ele>420</ele>
        <time>2022-07-17T05:34:30Z</time>
      </trkpt>
      <trkpt lat="45.36956" lon="6.27811">
        <ele>420</ele>
        <time>2022-07-17T05:34:31Z</time>
      </trkpt>
      <trkpt lat="45.36951" lon="6.27815">
        <ele>420</ele>
        <time>2022-07-17T05:34:32Z</time>
      </trkpt>
      <trkpt lat="45.36945" lon="6.27818">
        <ele>420</ele>
        <time>2022-07-17T05:34:33Z</time>
      </trkpt>
      <trkpt lat="45.3694" lon="6.27822">
        <ele>420</ele>
        <time>2022-07-17T05:34:34Z</time>
      </trkpt>
      <trkpt lat="45.36935" lon="6.27825">
        <ele>420</ele>
        <time>2022-07-17T05:34:35Z</time>
      </trkpt>
      <trkpt lat="45.36929" lon="6.27829">
        <ele>420.2</ele>
        <time>2022-07-17T05:34:36Z</time>
      </trkpt>
      <trkpt lat="45.36924" lon="6.27832">
        <ele>420.2</ele>
        <time>2022-07-17T05:34:37Z</time>
      </trkpt>
      <trkpt lat="45.36919" lon="6.27836">
        <ele>420.2</ele>
        <time>2022-07-17T05:34:38Z</time>
      </trkpt>
      <trkpt lat="45.36914" lon="6.27841">
        <ele>420.2</ele>
        <time>2022-07-17T05:34:39Z</time>
      </trkpt>
      <trkpt lat="45.3691" lon="6.27846">
        <ele>420.4</ele>
        <time>2022-07-17T05:34:40Z</time>
      </trkpt>
      <trkpt lat="45.36905" lon="6.27851">
        <ele>420.4</ele>
        <time>2022-07-17T05:34:41Z</time>
      </trkpt>
      <trkpt lat="45.36901" lon="6.27857">
        <ele>420.4</ele>
        <time>2022-07-17T05:34:42Z</time>
      </trkpt>
      <trkpt lat="45.36896" lon="6.27862">
        <ele>420.4</ele>
        <time>2022-07-17T05:34:43Z</time>
      </trkpt>
      <trkpt lat="45.36892" lon="6.27867">
        <ele>420.4</ele>
        <time>2022-07-17T05:34:44Z</time>
      </trkpt>
      <trkpt lat="45.36887" lon="6.27872">
        <ele>420.6</ele>
        <time>2022-07-17T05:34:45Z</time>
      </trkpt>
      <trkpt lat="45.36883" lon="6.27877">
        <ele>420.6</ele>
        <time>2022-07-17T05:34:46Z</time>
      </trkpt>
      <trkpt lat="45.36878" lon="6.27882">
        <ele>420.6</ele>
        <time>2022-07-17T05:34:47Z</time>
      </trkpt>
      <trkpt lat="45.36874" lon="6.27887">
        <ele>420.6</ele>
        <time>2022-07-17T05:34:48Z</time>
      </trkpt>
      <trkpt lat="45.36869" lon="6.27893">
        <ele>420.6</ele>
        <time>2022-07-17T05:34:49Z</time>
      </trkpt>
      <trkpt lat="45.36865" lon="6.27898">
        <ele>420.8</ele>
        <time>2022-07-17T05:34:50Z</time>
      </trkpt>
      <trkpt lat="45.36861" lon="6.27903">
        <ele>420.8</ele>
        <time>2022-07-17T05:34:51Z</time>
      </trkpt>
      <trkpt lat="45.36856" lon="6.27908">
        <ele>420.8</ele>
        <time>2022-07-17T05:34:52Z</time>
      </trkpt>
      <trkpt lat="45.36852" lon="6.27913">
        <ele>420.8</ele>
        <time>2022-07-17T05:34:53Z</time>
      </trkpt>
      <trkpt lat="45.36847" lon="6.27918">
        <ele>420.8</ele>
        <time>2022-07-17T05:34:54Z</time>
      </trkpt>
      <trkpt lat="45.36843" lon="6.27923">
        <ele>420.8</ele>
        <time>2022-07-17T05:34:55Z</time>
      </trkpt>
      <trkpt lat="45.36838" lon="6.27929">
        <ele>420.8</ele>
        <time>2022-07-17T05:34:56Z</time>
      </trkpt>
      <trkpt lat="45.36834" lon="6.27934">
        <ele>420.8</ele>
        <time>2022-07-17T05:34:57Z</time>
      </trkpt>
      <trkpt lat="45.36829" lon="6.27939">
        <ele>420.8</ele>
        <time>2022-07-17T05:34:58Z</time>
      </trkpt>
      <trkpt lat="45.36825" lon="6.27944">
        <ele>420.8</ele>
        <time>2022-07-17T05:34:59Z</time>
      </trkpt>
      <trkpt lat="45.3682" lon="6.27949">
        <ele>421.2</ele>
        <time>2022-07-17T05:35:00Z</time>
      </trkpt>
      <trkpt lat="45.36816" lon="6.27954">
        <ele>421.2</ele>
        <time>2022-07-17T05:35:01Z</time>
      </trkpt>
      <trkpt lat="45.36811" lon="6.2796">
        <ele>421.2</ele>
        <time>2022-07-17T05:35:02Z</time>
      </trkpt>
      <trkpt lat="45.36807" lon="6.27965">
        <ele>421.2</ele>
        <time>2022-07-17T05:35:03Z</time>
      </trkpt>
      <trkpt lat="45.36802" lon="6.27971">
        <ele>421.2</ele>
        <time>2022-07-17T05:35:04Z</time>
      </trkpt>
      <trkpt lat="45.36798" lon="6.27976">
        <ele>421.2</ele>
        <time>2022-07-17T05:35:05Z</time>
      </trkpt>
      <trkpt lat="45.36793" lon="6.27981">
        <ele>421.4</ele>
        <time>2022-07-17T05:35:06Z</time>
      </trkpt>
      <trkpt lat="45.36788" lon="6.27986">
        <ele>421.4</ele>
        <time>2022-07-17T05:35:07Z</time>
      </trkpt>
      <trkpt lat="45.36784" lon="6.27992">
        <ele>421.4</ele>
        <time>2022-07-17T05:35:08Z</time>
      </trkpt>
      <trkpt lat="45.36779" lon="6.27997">
        <ele>421.4</ele>
        <time>2022-07-17T05:35:09Z</time>
      </trkpt>
      <trkpt lat="45.36775" lon="6.28002">
        <ele>421.8</ele>
        <time>2022-07-17T05:35:10Z</time>
      </trkpt>
      <trkpt lat="45.3677" lon="6.28008">
        <ele>421.8</ele>
        <time>2022-07-17T05:35:11Z</time>
      </trkpt>
      <trkpt lat="45.36766" lon="6.28013">
        <ele>421.8</ele>
        <time>2022-07-17T05:35:12Z</time>
      </trkpt>
      <trkpt lat="45.36762" lon="6.28018">
        <ele>422</ele>
        <time>2022-07-17T05:35:13Z</time>
      </trkpt>
      <trkpt lat="45.36757" lon="6.28024">
        <ele>422</ele>
        <time>2022-07-17T05:35:14Z</time>
      </trkpt>
      <trkpt lat="45.36753" lon="6.28029">
        <ele>422</ele>
        <time>2022-07-17T05:35:15Z</time>
      </trkpt>
      <trkpt lat="45.36748" lon="6.28035">
        <ele>422.2</ele>
        <time>2022-07-17T05:35:16Z</time>
      </trkpt>
      <trkpt lat="45.36744" lon="6.2804">
        <ele>422.2</ele>
        <time>2022-07-17T05:35:17Z</time>
      </trkpt>
      <trkpt lat="45.36739" lon="6.28046">
        <ele>422.2</ele>
        <time>2022-07-17T05:35:18Z</time>
      </trkpt>
      <trkpt lat="45.36735" lon="6.28051">
        <ele>422.4</ele>
        <time>2022-07-17T05:35:19Z</time>
      </trkpt>
      <trkpt lat="45.3673" lon="6.28056">
        <ele>422.4</ele>
        <time>2022-07-17T05:35:20Z</time>
      </trkpt>
      <trkpt lat="45.36725" lon="6.28061">
        <ele>422.4</ele>
        <time>2022-07-17T05:35:21Z</time>
      </trkpt>
      <trkpt lat="45.36721" lon="6.28067">
        <ele>422.4</ele>
        <time>2022-07-17T05:35:22Z</time>
      </trkpt>
      <trkpt lat="45.36716" lon="6.28072">
        <ele>422.4</ele>
        <time>2022-07-17T05:35:23Z</time>
      </trkpt>
      <trkpt lat="45.36712" lon="6.28078">
        <ele>422.4</ele>
        <time>2022-07-17T05:35:24Z</time>
      </trkpt>
      <trkpt lat="45.36707" lon="6.28083">
        <ele>422.4</ele>
        <time>2022-07-17T05:35:25Z</time>
      </trkpt>
      <trkpt lat="45.36703" lon="6.28088">
        <ele>422.6</ele>
        <time>2022-07-17T05:35:26Z</time>
      </trkpt>
      <trkpt lat="45.36698" lon="6.28094">
        <ele>422.6</ele>
        <time>2022-07-17T05:35:27Z</time>
      </trkpt>
      <trkpt lat="45.36694" lon="6.28099">
        <ele>422.6</ele>
        <time>2022-07-17T05:35:28Z</time>
      </trkpt>
      <trkpt lat="45.36689" lon="6.28104">
        <ele>422.6</ele>
        <time>2022-07-17T05:35:29Z</time>
      </trkpt>
      <trkpt lat="45.36685" lon="6.2811">
        <ele>422.6</ele>
        <time>2022-07-17T05:35:30Z</time>
      </trkpt>
      <trkpt lat="45.3668" lon="6.28115">
        <ele>422.6</ele>
        <time>2022-07-17T05:35:31Z</time>
      </trkpt>
      <trkpt lat="45.36676" lon="6.2812">
        <ele>422.8</ele>
        <time>2022-07-17T05:35:32Z</time>
      </trkpt>
      <trkpt lat="45.36671" lon="6.28126">
        <ele>422.8</ele>
        <time>2022-07-17T05:35:33Z</time>
      </trkpt>
      <trkpt lat="45.36666" lon="6.28131">
        <ele>422.8</ele>
        <time>2022-07-17T05:35:34Z</time>
      </trkpt>
      <trkpt lat="45.36662" lon="6.28136">
        <ele>422.8</ele>
        <time>2022-07-17T05:35:35Z</time>
      </trkpt>
      <trkpt lat="45.36657" lon="6.28141">
        <ele>422.8</ele>
        <time>2022-07-17T05:35:36Z</time>
      </trkpt>
      <trkpt lat="45.36652" lon="6.28146">
        <ele>422.8</ele>
        <time>2022-07-17T05:35:37Z</time>
      </trkpt>
      <trkpt lat="45.36647" lon="6.28151">
        <ele>422.8</ele>
        <time>2022-07-17T05:35:38Z</time>
      </trkpt>
      <trkpt lat="45.36643" lon="6.28157">
        <ele>422.8</ele>
        <time>2022-07-17T05:35:39Z</time>
      </trkpt>
      <trkpt lat="45.36638" lon="6.28162">
        <ele>422.8</ele>
        <time>2022-07-17T05:35:40Z</time>
      </trkpt>
      <trkpt lat="45.36633" lon="6.28166">
        <ele>422.8</ele>
        <time>2022-07-17T05:35:41Z</time>
      </trkpt>
      <trkpt lat="45.36629" lon="6.28171">
        <ele>423.2</ele>
        <time>2022-07-17T05:35:42Z</time>
      </trkpt>
      <trkpt lat="45.36624" lon="6.28175">
        <ele>423.2</ele>
        <time>2022-07-17T05:35:43Z</time>
      </trkpt>
      <trkpt lat="45.36619" lon="6.2818">
        <ele>423.2</ele>
        <time>2022-07-17T05:35:44Z</time>
      </trkpt>
      <trkpt lat="45.36614" lon="6.28185">
        <ele>423.4</ele>
        <time>2022-07-17T05:35:45Z</time>
      </trkpt>
      <trkpt lat="45.36609" lon="6.2819">
        <ele>423.4</ele>
        <time>2022-07-17T05:35:46Z</time>
      </trkpt>
      <trkpt lat="45.36604" lon="6.28195">
        <ele>423.4</ele>
        <time>2022-07-17T05:35:47Z</time>
      </trkpt>
      <trkpt lat="45.36599" lon="6.28199">
        <ele>423.4</ele>
        <time>2022-07-17T05:35:48Z</time>
      </trkpt>
      <trkpt lat="45.36594" lon="6.28204">
        <ele>423.4</ele>
        <time>2022-07-17T05:35:49Z</time>
      </trkpt>
      <trkpt lat="45.36589" lon="6.28208">
        <ele>423.4</ele>
        <time>2022-07-17T05:35:50Z</time>
      </trkpt>
      <trkpt lat="45.36584" lon="6.28212">
        <ele>423.4</ele>
        <time>2022-07-17T05:35:51Z</time>
      </trkpt>
      <trkpt lat="45.36579" lon="6.28217">
        <ele>423.4</ele>
        <time>2022-07-17T05:35:52Z</time>
      </trkpt>
      <trkpt lat="45.36574" lon="6.28222">
        <ele>423.6</ele>
        <time>2022-07-17T05:35:53Z</time>
      </trkpt>
      <trkpt lat="45.3657" lon="6.28227">
        <ele>423.6</ele>
        <time>2022-07-17T05:35:54Z</time>
      </trkpt>
      <trkpt lat="45.36565" lon="6.28232">
        <ele>423.6</ele>
        <time>2022-07-17T05:35:55Z</time>
      </trkpt>
      <trkpt lat="45.3656" lon="6.28236">
        <ele>423.6</ele>
        <time>2022-07-17T05:35:56Z</time>
      </trkpt>
      <trkpt lat="45.36555" lon="6.28241">
        <ele>423.8</ele>
        <time>2022-07-17T05:35:57Z</time>
      </trkpt>
      <trkpt lat="45.3655" lon="6.28246">
        <ele>423.8</ele>
        <time>2022-07-17T05:35:58Z</time>
      </trkpt>
      <trkpt lat="45.36546" lon="6.2825">
        <ele>423.8</ele>
        <time>2022-07-17T05:35:59Z</time>
      </trkpt>
      <trkpt lat="45.36541" lon="6.28254">
        <ele>423.8</ele>
        <time>2022-07-17T05:36:00Z</time>
      </trkpt>
      <trkpt lat="45.36536" lon="6.28259">
        <ele>423.8</ele>
        <time>2022-07-17T05:36:01Z</time>
      </trkpt>
      <trkpt lat="45.36531" lon="6.28263">
        <ele>423.8</ele>
        <time>2022-07-17T05:36:02Z</time>
      </trkpt>
      <trkpt lat="45.36526" lon="6.28268">
        <ele>424</ele>
        <time>2022-07-17T05:36:03Z</time>
      </trkpt>
      <trkpt lat="45.36522" lon="6.28273">
        <ele>424</ele>
        <time>2022-07-17T05:36:04Z</time>
      </trkpt>
      <trkpt lat="45.36517" lon="6.28277">
        <ele>424</ele>
        <time>2022-07-17T05:36:05Z</time>
      </trkpt>
      <trkpt lat="45.36512" lon="6.28282">
        <ele>424</ele>
        <time>2022-07-17T05:36:06Z</time>
      </trkpt>
      <trkpt lat="45.36507" lon="6.28287">
        <ele>424</ele>
        <time>2022-07-17T05:36:07Z</time>
      </trkpt>
      <trkpt lat="45.36502" lon="6.28291">
        <ele>424</ele>
        <time>2022-07-17T05:36:08Z</time>
      </trkpt>
      <trkpt lat="45.36497" lon="6.28296">
        <ele>424.2</ele>
        <time>2022-07-17T05:36:09Z</time>
      </trkpt>
      <trkpt lat="45.36492" lon="6.283">
        <ele>424.2</ele>
        <time>2022-07-17T05:36:10Z</time>
      </trkpt>
      <trkpt lat="45.36487" lon="6.28305">
        <ele>424.4</ele>
        <time>2022-07-17T05:36:11Z</time>
      </trkpt>
      <trkpt lat="45.36482" lon="6.28309">
        <ele>424.4</ele>
        <time>2022-07-17T05:36:12Z</time>
      </trkpt>
      <trkpt lat="45.36477" lon="6.28313">
        <ele>424.4</ele>
        <time>2022-07-17T05:36:13Z</time>
      </trkpt>
      <trkpt lat="45.36472" lon="6.28318">
        <ele>424.6</ele>
        <time>2022-07-17T05:36:14Z</time>
      </trkpt>
      <trkpt lat="45.36467" lon="6.28322">
        <ele>424.6</ele>
        <time>2022-07-17T05:36:15Z</time>
      </trkpt>
      <trkpt lat="45.36462" lon="6.28327">
        <ele>425</ele>
        <time>2022-07-17T05:36:16Z</time>
      </trkpt>
      <trkpt lat="45.36457" lon="6.28332">
        <ele>425</ele>
        <time>2022-07-17T05:36:17Z</time>
      </trkpt>
      <trkpt lat="45.36453" lon="6.28336">
        <ele>425</ele>
        <time>2022-07-17T05:36:18Z</time>
      </trkpt>
      <trkpt lat="45.36448" lon="6.28341">
        <ele>425</ele>
        <time>2022-07-17T05:36:19Z</time>
      </trkpt>
      <trkpt lat="45.36443" lon="6.28345">
        <ele>425</ele>
        <time>2022-07-17T05:36:20Z</time>
      </trkpt>
      <trkpt lat="45.36438" lon="6.2835">
        <ele>425</ele>
        <time>2022-07-17T05:36:21Z</time>
      </trkpt>
      <trkpt lat="45.36434" lon="6.28354">
        <ele>425.2</ele>
        <time>2022-07-17T05:36:22Z</time>
      </trkpt>
      <trkpt lat="45.36429" lon="6.28358">
        <ele>425.2</ele>
        <time>2022-07-17T05:36:23Z</time>
      </trkpt>
      <trkpt lat="45.36424" lon="6.28363">
        <ele>425.2</ele>
        <time>2022-07-17T05:36:24Z</time>
      </trkpt>
      <trkpt lat="45.36419" lon="6.28367">
        <ele>425.2</ele>
        <time>2022-07-17T05:36:25Z</time>
      </trkpt>
      <trkpt lat="45.36414" lon="6.28371">
        <ele>425.2</ele>
        <time>2022-07-17T05:36:26Z</time>
      </trkpt>
      <trkpt lat="45.3641" lon="6.28376">
        <ele>425.4</ele>
        <time>2022-07-17T05:36:27Z</time>
      </trkpt>
      <trkpt lat="45.36405" lon="6.28381">
        <ele>425.4</ele>
        <time>2022-07-17T05:36:28Z</time>
      </trkpt>
      <trkpt lat="45.364" lon="6.28385">
        <ele>425.4</ele>
        <time>2022-07-17T05:36:29Z</time>
      </trkpt>
      <trkpt lat="45.36395" lon="6.2839">
        <ele>425.4</ele>
        <time>2022-07-17T05:36:30Z</time>
      </trkpt>
      <trkpt lat="45.3639" lon="6.28394">
        <ele>425.6</ele>
        <time>2022-07-17T05:36:31Z</time>
      </trkpt>
      <trkpt lat="45.36385" lon="6.28399">
        <ele>425.6</ele>
        <time>2022-07-17T05:36:32Z</time>
      </trkpt>
      <trkpt lat="45.36381" lon="6.28404">
        <ele>425.6</ele>
        <time>2022-07-17T05:36:33Z</time>
      </trkpt>
      <trkpt lat="45.36376" lon="6.28408">
        <ele>425.6</ele>
        <time>2022-07-17T05:36:34Z</time>
      </trkpt>
      <trkpt lat="45.36371" lon="6.28413">
        <ele>425.6</ele>
        <time>2022-07-17T05:36:35Z</time>
      </trkpt>
      <trkpt lat="45.36367" lon="6.28417">
        <ele>425.6</ele>
        <time>2022-07-17T05:36:36Z</time>
      </trkpt>
      <trkpt lat="45.36362" lon="6.28422">
        <ele>426</ele>
        <time>2022-07-17T05:36:37Z</time>
      </trkpt>
      <trkpt lat="45.36357" lon="6.28426">
        <ele>426</ele>
        <time>2022-07-17T05:36:38Z</time>
      </trkpt>
      <trkpt lat="45.36353" lon="6.2843">
        <ele>426</ele>
        <time>2022-07-17T05:36:39Z</time>
      </trkpt>
      <trkpt lat="45.36348" lon="6.28434">
        <ele>426</ele>
        <time>2022-07-17T05:36:40Z</time>
      </trkpt>
      <trkpt lat="45.36344" lon="6.28439">
        <ele>426.2</ele>
        <time>2022-07-17T05:36:41Z</time>
      </trkpt>
      <trkpt lat="45.3634" lon="6.28443">
        <ele>426.2</ele>
        <time>2022-07-17T05:36:42Z</time>
      </trkpt>
      <trkpt lat="45.36335" lon="6.28448">
        <ele>426.2</ele>
        <time>2022-07-17T05:36:43Z</time>
      </trkpt>
      <trkpt lat="45.3633" lon="6.28452">
        <ele>426.4</ele>
        <time>2022-07-17T05:36:44Z</time>
      </trkpt>
      <trkpt lat="45.36326" lon="6.28456">
        <ele>426.4</ele>
        <time>2022-07-17T05:36:45Z</time>
      </trkpt>
      <trkpt lat="45.36321" lon="6.2846">
        <ele>426.6</ele>
        <time>2022-07-17T05:36:46Z</time>
      </trkpt>
      <trkpt lat="45.36317" lon="6.28464">
        <ele>426.6</ele>
        <time>2022-07-17T05:36:47Z</time>
      </trkpt>
      <trkpt lat="45.36312" lon="6.28468">
        <ele>426.6</ele>
        <time>2022-07-17T05:36:48Z</time>
      </trkpt>
      <trkpt lat="45.36308" lon="6.28471">
        <ele>426.8</ele>
        <time>2022-07-17T05:36:49Z</time>
      </trkpt>
      <trkpt lat="45.36303" lon="6.28475">
        <ele>426.8</ele>
        <time>2022-07-17T05:36:50Z</time>
      </trkpt>
      <trkpt lat="45.36298" lon="6.28478">
        <ele>426.8</ele>
        <time>2022-07-17T05:36:51Z</time>
      </trkpt>
      <trkpt lat="45.36293" lon="6.28482">
        <ele>427.2</ele>
        <time>2022-07-17T05:36:52Z</time>
      </trkpt>
      <trkpt lat="45.36289" lon="6.28484">
        <ele>427.2</ele>
        <time>2022-07-17T05:36:53Z</time>
      </trkpt>
      <trkpt lat="45.36284" lon="6.28487">
        <ele>427.4</ele>
        <time>2022-07-17T05:36:54Z</time>
      </trkpt>
      <trkpt lat="45.36279" lon="6.28489">
        <ele>427.4</ele>
        <time>2022-07-17T05:36:55Z</time>
      </trkpt>
      <trkpt lat="45.36274" lon="6.2849">
        <ele>427.4</ele>
        <time>2022-07-17T05:36:56Z</time>
      </trkpt>
      <trkpt lat="45.36269" lon="6.28492">
        <ele>427.4</ele>
        <time>2022-07-17T05:36:57Z</time>
      </trkpt>
      <trkpt lat="45.36264" lon="6.28493">
        <ele>427.8</ele>
        <time>2022-07-17T05:36:58Z</time>
      </trkpt>
      <trkpt lat="45.36259" lon="6.28494">
        <ele>427.8</ele>
        <time>2022-07-17T05:36:59Z</time>
      </trkpt>
      <trkpt lat="45.36254" lon="6.28495">
        <ele>427.8</ele>
        <time>2022-07-17T05:37:00Z</time>
      </trkpt>
      <trkpt lat="45.36249" lon="6.28495">
        <ele>428</ele>
        <time>2022-07-17T05:37:01Z</time>
      </trkpt>
      <trkpt lat="45.36244" lon="6.28496">
        <ele>428</ele>
        <time>2022-07-17T05:37:02Z</time>
      </trkpt>
      <trkpt lat="45.36239" lon="6.28496">
        <ele>428</ele>
        <time>2022-07-17T05:37:03Z</time>
      </trkpt>
      <trkpt lat="45.36234" lon="6.28496">
        <ele>428.4</ele>
        <time>2022-07-17T05:37:04Z</time>
      </trkpt>
      <trkpt lat="45.36228" lon="6.28497">
        <ele>428.4</ele>
        <time>2022-07-17T05:37:05Z</time>
      </trkpt>
      <trkpt lat="45.36223" lon="6.28497">
        <ele>428.4</ele>
        <time>2022-07-17T05:37:06Z</time>
      </trkpt>
      <trkpt lat="45.36218" lon="6.28498">
        <ele>428.4</ele>
        <time>2022-07-17T05:37:07Z</time>
      </trkpt>
      <trkpt lat="45.36213" lon="6.28498">
        <ele>428.4</ele>
        <time>2022-07-17T05:37:08Z</time>
      </trkpt>
      <trkpt lat="45.36207" lon="6.28499">
        <ele>428.4</ele>
        <time>2022-07-17T05:37:09Z</time>
      </trkpt>
      <trkpt lat="45.36201" lon="6.285">
        <ele>428.6</ele>
        <time>2022-07-17T05:37:10Z</time>
      </trkpt>
      <trkpt lat="45.36196" lon="6.28501">
        <ele>428.6</ele>
        <time>2022-07-17T05:37:11Z</time>
      </trkpt>
      <trkpt lat="45.3619" lon="6.28501">
        <ele>428.6</ele>
        <time>2022-07-17T05:37:12Z</time>
      </trkpt>
      <trkpt lat="45.36185" lon="6.28502">
        <ele>428.6</ele>
        <time>2022-07-17T05:37:13Z</time>
      </trkpt>
      <trkpt lat="45.3618" lon="6.28503">
        <ele>428.8</ele>
        <time>2022-07-17T05:37:14Z</time>
      </trkpt>
      <trkpt lat="45.36174" lon="6.28504">
        <ele>428.8</ele>
        <time>2022-07-17T05:37:15Z</time>
      </trkpt>
      <trkpt lat="45.36169" lon="6.28505">
        <ele>428.8</ele>
        <time>2022-07-17T05:37:16Z</time>
      </trkpt>
      <trkpt lat="45.36164" lon="6.28506">
        <ele>429</ele>
        <time>2022-07-17T05:37:17Z</time>
      </trkpt>
      <trkpt lat="45.36158" lon="6.28507">
        <ele>429</ele>
        <time>2022-07-17T05:37:18Z</time>
      </trkpt>
      <trkpt lat="45.36153" lon="6.28508">
        <ele>429</ele>
        <time>2022-07-17T05:37:19Z</time>
      </trkpt>
      <trkpt lat="45.36147" lon="6.28509">
        <ele>429.4</ele>
        <time>2022-07-17T05:37:20Z</time>
      </trkpt>
      <trkpt lat="45.36142" lon="6.2851">
        <ele>429.4</ele>
        <time>2022-07-17T05:37:21Z</time>
      </trkpt>
      <trkpt lat="45.36136" lon="6.28511">
        <ele>429.4</ele>
        <time>2022-07-17T05:37:22Z</time>
      </trkpt>
      <trkpt lat="45.36131" lon="6.28513">
        <ele>429.6</ele>
        <time>2022-07-17T05:37:23Z</time>
      </trkpt>
      <trkpt lat="45.36125" lon="6.28514">
        <ele>429.6</ele>
        <time>2022-07-17T05:37:24Z</time>
      </trkpt>
      <trkpt lat="45.36119" lon="6.28515">
        <ele>429.6</ele>
        <time>2022-07-17T05:37:25Z</time>
      </trkpt>
      <trkpt lat="45.36114" lon="6.28516">
        <ele>429.6</ele>
        <time>2022-07-17T05:37:26Z</time>
      </trkpt>
      <trkpt lat="45.36108" lon="6.28517">
        <ele>430</ele>
        <time>2022-07-17T05:37:27Z</time>
      </trkpt>
      <trkpt lat="45.36103" lon="6.28519">
        <ele>430</ele>
        <time>2022-07-17T05:37:28Z</time>
      </trkpt>
      <trkpt lat="45.36097" lon="6.2852">
        <ele>430</ele>
        <time>2022-07-17T05:37:29Z</time>
      </trkpt>
      <trkpt lat="45.36091" lon="6.28522">
        <ele>430</ele>
        <time>2022-07-17T05:37:30Z</time>
      </trkpt>
      <trkpt lat="45.36086" lon="6.28523">
        <ele>430</ele>
        <time>2022-07-17T05:37:31Z</time>
      </trkpt>
      <trkpt lat="45.3608" lon="6.28525">
        <ele>430.2</ele>
        <time>2022-07-17T05:37:32Z</time>
      </trkpt>
      <trkpt lat="45.36074" lon="6.28527">
        <ele>430.2</ele>
        <time>2022-07-17T05:37:33Z</time>
      </trkpt>
      <trkpt lat="45.36068" lon="6.28528">
        <ele>430.2</ele>
        <time>2022-07-17T05:37:34Z</time>
      </trkpt>
      <trkpt lat="45.36063" lon="6.2853">
        <ele>430.4</ele>
        <time>2022-07-17T05:37:35Z</time>
      </trkpt>
      <trkpt lat="45.36057" lon="6.28532">
        <ele>430.4</ele>
        <time>2022-07-17T05:37:36Z</time>
      </trkpt>
      <trkpt lat="45.36051" lon="6.28533">
        <ele>430.4</ele>
        <time>2022-07-17T05:37:37Z</time>
      </trkpt>
      <trkpt lat="45.36046" lon="6.28535">
        <ele>430.8</ele>
        <time>2022-07-17T05:37:38Z</time>
      </trkpt>
      <trkpt lat="45.3604" lon="6.28537">
        <ele>430.8</ele>
        <time>2022-07-17T05:37:39Z</time>
      </trkpt>
      <trkpt lat="45.36035" lon="6.28538">
        <ele>430.8</ele>
        <time>2022-07-17T05:37:40Z</time>
      </trkpt>
      <trkpt lat="45.36029" lon="6.2854">
        <ele>431</ele>
        <time>2022-07-17T05:37:41Z</time>
      </trkpt>
      <trkpt lat="45.36024" lon="6.28542">
        <ele>431</ele>
        <time>2022-07-17T05:37:42Z</time>
      </trkpt>
      <trkpt lat="45.36018" lon="6.28544">
        <ele>431</ele>
        <time>2022-07-17T05:37:43Z</time>
      </trkpt>
      <trkpt lat="45.36012" lon="6.28546">
        <ele>431</ele>
        <time>2022-07-17T05:37:44Z</time>
      </trkpt>
      <trkpt lat="45.36007" lon="6.28547">
        <ele>431.4</ele>
        <time>2022-07-17T05:37:45Z</time>
      </trkpt>
      <trkpt lat="45.36001" lon="6.28549">
        <ele>431.4</ele>
        <time>2022-07-17T05:37:46Z</time>
      </trkpt>
      <trkpt lat="45.35996" lon="6.28551">
        <ele>431.4</ele>
        <time>2022-07-17T05:37:47Z</time>
      </trkpt>
      <trkpt lat="45.3599" lon="6.28553">
        <ele>431.4</ele>
        <time>2022-07-17T05:37:48Z</time>
      </trkpt>
      <trkpt lat="45.35985" lon="6.28555">
        <ele>431.4</ele>
        <time>2022-07-17T05:37:49Z</time>
      </trkpt>
      <trkpt lat="45.3598" lon="6.28557">
        <ele>431.4</ele>
        <time>2022-07-17T05:37:50Z</time>
      </trkpt>
      <trkpt lat="45.35974" lon="6.28559">
        <ele>431.4</ele>
        <time>2022-07-17T05:37:51Z</time>
      </trkpt>
      <trkpt lat="45.35969" lon="6.28561">
        <ele>431.6</ele>
        <time>2022-07-17T05:37:52Z</time>
      </trkpt>
      <trkpt lat="45.35963" lon="6.28563">
        <ele>431.6</ele>
        <time>2022-07-17T05:37:53Z</time>
      </trkpt>
      <trkpt lat="45.35958" lon="6.28565">
        <ele>431.8</ele>
        <time>2022-07-17T05:37:54Z</time>
      </trkpt>
      <trkpt lat="45.35952" lon="6.28567">
        <ele>431.8</ele>
        <time>2022-07-17T05:37:55Z</time>
      </trkpt>
      <trkpt lat="45.35947" lon="6.28569">
        <ele>431.8</ele>
        <time>2022-07-17T05:37:56Z</time>
      </trkpt>
      <trkpt lat="45.35941" lon="6.28571">
        <ele>431.8</ele>
        <time>2022-07-17T05:37:57Z</time>
      </trkpt>
      <trkpt lat="45.35936" lon="6.28573">
        <ele>431.8</ele>
        <time>2022-07-17T05:37:58Z</time>
      </trkpt>
      <trkpt lat="45.3593" lon="6.28576">
        <ele>432</ele>
        <time>2022-07-17T05:37:59Z</time>
      </trkpt>
      <trkpt lat="45.35924" lon="6.28578">
        <ele>432</ele>
        <time>2022-07-17T05:38:00Z</time>
      </trkpt>
      <trkpt lat="45.35919" lon="6.28581">
        <ele>432</ele>
        <time>2022-07-17T05:38:01Z</time>
      </trkpt>
      <trkpt lat="45.35913" lon="6.28583">
        <ele>432</ele>
        <time>2022-07-17T05:38:02Z</time>
      </trkpt>
      <trkpt lat="45.35907" lon="6.28585">
        <ele>432.2</ele>
        <time>2022-07-17T05:38:03Z</time>
      </trkpt>
      <trkpt lat="45.35901" lon="6.28588">
        <ele>432.2</ele>
        <time>2022-07-17T05:38:04Z</time>
      </trkpt>
      <trkpt lat="45.35896" lon="6.2859">
        <ele>432.2</ele>
        <time>2022-07-17T05:38:05Z</time>
      </trkpt>
      <trkpt lat="45.3589" lon="6.28593">
        <ele>432.2</ele>
        <time>2022-07-17T05:38:06Z</time>
      </trkpt>
      <trkpt lat="45.35884" lon="6.28596">
        <ele>432.6</ele>
        <time>2022-07-17T05:38:07Z</time>
      </trkpt>
      <trkpt lat="45.35878" lon="6.28598">
        <ele>432.6</ele>
        <time>2022-07-17T05:38:08Z</time>
      </trkpt>
      <trkpt lat="45.35873" lon="6.28601">
        <ele>432.6</ele>
        <time>2022-07-17T05:38:09Z</time>
      </trkpt>
      <trkpt lat="45.35867" lon="6.28604">
        <ele>432.6</ele>
        <time>2022-07-17T05:38:10Z</time>
      </trkpt>
      <trkpt lat="45.35861" lon="6.28606">
        <ele>432.6</ele>
        <time>2022-07-17T05:38:11Z</time>
      </trkpt>
      <trkpt lat="45.35855" lon="6.28609">
        <ele>432.8</ele>
        <time>2022-07-17T05:38:12Z</time>
      </trkpt>
      <trkpt lat="45.35849" lon="6.28612">
        <ele>432.8</ele>
        <time>2022-07-17T05:38:13Z</time>
      </trkpt>
      <trkpt lat="45.35844" lon="6.28615">
        <ele>432.8</ele>
        <time>2022-07-17T05:38:14Z</time>
      </trkpt>
      <trkpt lat="45.35838" lon="6.28618">
        <ele>432.8</ele>
        <time>2022-07-17T05:38:15Z</time>
      </trkpt>
      <trkpt lat="45.35832" lon="6.2862">
        <ele>432.8</ele>
        <time>2022-07-17T05:38:16Z</time>
      </trkpt>
      <trkpt lat="45.35827" lon="6.28623">
        <ele>432.8</ele>
        <time>2022-07-17T05:38:17Z</time>
      </trkpt>
      <trkpt lat="45.35821" lon="6.28626">
        <ele>432.8</ele>
        <time>2022-07-17T05:38:18Z</time>
      </trkpt>
      <trkpt lat="45.35816" lon="6.28629">
        <ele>432.8</ele>
        <time>2022-07-17T05:38:19Z</time>
      </trkpt>
      <trkpt lat="45.3581" lon="6.28631">
        <ele>432.8</ele>
        <time>2022-07-17T05:38:20Z</time>
      </trkpt>
      <trkpt lat="45.35804" lon="6.28634">
        <ele>432.8</ele>
        <time>2022-07-17T05:38:21Z</time>
      </trkpt>
      <trkpt lat="45.35798" lon="6.28636">
        <ele>432.8</ele>
        <time>2022-07-17T05:38:22Z</time>
      </trkpt>
      <trkpt lat="45.35793" lon="6.28639">
        <ele>432.8</ele>
        <time>2022-07-17T05:38:23Z</time>
      </trkpt>
      <trkpt lat="45.35787" lon="6.28641">
        <ele>432.8</ele>
        <time>2022-07-17T05:38:24Z</time>
      </trkpt>
      <trkpt lat="45.35781" lon="6.28642">
        <ele>432.8</ele>
        <time>2022-07-17T05:38:25Z</time>
      </trkpt>
      <trkpt lat="45.35775" lon="6.28644">
        <ele>432.8</ele>
        <time>2022-07-17T05:38:26Z</time>
      </trkpt>
      <trkpt lat="45.35769" lon="6.28646">
        <ele>432.8</ele>
        <time>2022-07-17T05:38:27Z</time>
      </trkpt>
      <trkpt lat="45.35763" lon="6.28647">
        <ele>432.8</ele>
        <time>2022-07-17T05:38:28Z</time>
      </trkpt>
      <trkpt lat="45.35757" lon="6.28647">
        <ele>432.8</ele>
        <time>2022-07-17T05:38:29Z</time>
      </trkpt>
      <trkpt lat="45.35751" lon="6.28648">
        <ele>432.8</ele>
        <time>2022-07-17T05:38:30Z</time>
      </trkpt>
      <trkpt lat="45.35745" lon="6.28648">
        <ele>432.8</ele>
        <time>2022-07-17T05:38:31Z</time>
      </trkpt>
      <trkpt lat="45.35739" lon="6.28649">
        <ele>432.8</ele>
        <time>2022-07-17T05:38:32Z</time>
      </trkpt>
      <trkpt lat="45.35732" lon="6.28649">
        <ele>432.8</ele>
        <time>2022-07-17T05:38:33Z</time>
      </trkpt>
      <trkpt lat="45.35726" lon="6.2865">
        <ele>432.8</ele>
        <time>2022-07-17T05:38:34Z</time>
      </trkpt>
      <trkpt lat="45.3572" lon="6.2865">
        <ele>432.8</ele>
        <time>2022-07-17T05:38:35Z</time>
      </trkpt>
      <trkpt lat="45.35713" lon="6.28651">
        <ele>432.8</ele>
        <time>2022-07-17T05:38:36Z</time>
      </trkpt>
      <trkpt lat="45.35707" lon="6.28652">
        <ele>432.8</ele>
        <time>2022-07-17T05:38:37Z</time>
      </trkpt>
      <trkpt lat="45.35701" lon="6.28653">
        <ele>432.8</ele>
        <time>2022-07-17T05:38:38Z</time>
      </trkpt>
      <trkpt lat="45.35695" lon="6.28654">
        <ele>432.8</ele>
        <time>2022-07-17T05:38:39Z</time>
      </trkpt>
      <trkpt lat="45.3569" lon="6.28655">
        <ele>432.8</ele>
        <time>2022-07-17T05:38:40Z</time>
      </trkpt>
      <trkpt lat="45.35684" lon="6.28657">
        <ele>432.8</ele>
        <time>2022-07-17T05:38:41Z</time>
      </trkpt>
      <trkpt lat="45.35678" lon="6.2866">
        <ele>432.8</ele>
        <time>2022-07-17T05:38:42Z</time>
      </trkpt>
      <trkpt lat="45.35673" lon="6.28663">
        <ele>432.6</ele>
        <time>2022-07-17T05:38:43Z</time>
      </trkpt>
      <trkpt lat="45.35667" lon="6.28666">
        <ele>432.6</ele>
        <time>2022-07-17T05:38:44Z</time>
      </trkpt>
      <trkpt lat="45.35661" lon="6.28671">
        <ele>432.6</ele>
        <time>2022-07-17T05:38:45Z</time>
      </trkpt>
      <trkpt lat="45.35656" lon="6.28675">
        <ele>432.6</ele>
        <time>2022-07-17T05:38:46Z</time>
      </trkpt>
      <trkpt lat="45.35651" lon="6.2868">
        <ele>432.6</ele>
        <time>2022-07-17T05:38:47Z</time>
      </trkpt>
      <trkpt lat="45.35646" lon="6.28685">
        <ele>432.6</ele>
        <time>2022-07-17T05:38:48Z</time>
      </trkpt>
      <trkpt lat="45.3564" lon="6.2869">
        <ele>432.6</ele>
        <time>2022-07-17T05:38:49Z</time>
      </trkpt>
      <trkpt lat="45.35636" lon="6.28695">
        <ele>432.6</ele>
        <time>2022-07-17T05:38:50Z</time>
      </trkpt>
      <trkpt lat="45.35631" lon="6.287">
        <ele>432.6</ele>
        <time>2022-07-17T05:38:51Z</time>
      </trkpt>
      <trkpt lat="45.35626" lon="6.28707">
        <ele>432.4</ele>
        <time>2022-07-17T05:38:52Z</time>
      </trkpt>
      <trkpt lat="45.35622" lon="6.28713">
        <ele>432.4</ele>
        <time>2022-07-17T05:38:53Z</time>
      </trkpt>
      <trkpt lat="45.35617" lon="6.28718">
        <ele>432.4</ele>
        <time>2022-07-17T05:38:54Z</time>
      </trkpt>
      <trkpt lat="45.35611" lon="6.28721">
        <ele>432</ele>
        <time>2022-07-17T05:38:55Z</time>
      </trkpt>
      <trkpt lat="45.35606" lon="6.28722">
        <ele>432</ele>
        <time>2022-07-17T05:38:56Z</time>
      </trkpt>
      <trkpt lat="45.356" lon="6.28721">
        <ele>432</ele>
        <time>2022-07-17T05:38:57Z</time>
      </trkpt>
      <trkpt lat="45.35595" lon="6.28719">
        <ele>432</ele>
        <time>2022-07-17T05:38:58Z</time>
      </trkpt>
      <trkpt lat="45.3559" lon="6.28716">
        <ele>432.4</ele>
        <time>2022-07-17T05:38:59Z</time>
      </trkpt>
      <trkpt lat="45.35585" lon="6.28714">
        <ele>432.6</ele>
        <time>2022-07-17T05:39:00Z</time>
      </trkpt>
      <trkpt lat="45.3558" lon="6.28714">
        <ele>432.6</ele>
        <time>2022-07-17T05:39:01Z</time>
      </trkpt>
      <trkpt lat="45.35574" lon="6.28715">
        <ele>432.8</ele>
        <time>2022-07-17T05:39:02Z</time>
      </trkpt>
      <trkpt lat="45.35569" lon="6.28718">
        <ele>433</ele>
        <time>2022-07-17T05:39:03Z</time>
      </trkpt>
      <trkpt lat="45.35565" lon="6.28724">
        <ele>433</ele>
        <time>2022-07-17T05:39:04Z</time>
      </trkpt>
      <trkpt lat="45.35562" lon="6.2873">
        <ele>433.2</ele>
        <time>2022-07-17T05:39:05Z</time>
      </trkpt>
      <trkpt lat="45.35559" lon="6.28737">
        <ele>433.2</ele>
        <time>2022-07-17T05:39:06Z</time>
      </trkpt>
      <trkpt lat="45.35556" lon="6.28744">
        <ele>433.2</ele>
        <time>2022-07-17T05:39:07Z</time>
      </trkpt>
      <trkpt lat="45.35552" lon="6.28751">
        <ele>433.6</ele>
        <time>2022-07-17T05:39:08Z</time>
      </trkpt>
      <trkpt lat="45.35549" lon="6.28758">
        <ele>433.6</ele>
        <time>2022-07-17T05:39:09Z</time>
      </trkpt>
      <trkpt lat="45.35545" lon="6.28764">
        <ele>433.6</ele>
        <time>2022-07-17T05:39:10Z</time>
      </trkpt>
      <trkpt lat="45.35541" lon="6.2877">
        <ele>433.6</ele>
        <time>2022-07-17T05:39:11Z</time>
      </trkpt>
      <trkpt lat="45.35536" lon="6.28776">
        <ele>433.6</ele>
        <time>2022-07-17T05:39:12Z</time>
      </trkpt>
      <trkpt lat="45.35532" lon="6.28782">
        <ele>433.6</ele>
        <time>2022-07-17T05:39:13Z</time>
      </trkpt>
      <trkpt lat="45.35527" lon="6.28787">
        <ele>433.6</ele>
        <time>2022-07-17T05:39:14Z</time>
      </trkpt>
      <trkpt lat="45.35522" lon="6.28793">
        <ele>433.6</ele>
        <time>2022-07-17T05:39:15Z</time>
      </trkpt>
      <trkpt lat="45.35517" lon="6.28799">
        <ele>433.2</ele>
        <time>2022-07-17T05:39:16Z</time>
      </trkpt>
      <trkpt lat="45.35511" lon="6.28804">
        <ele>433.2</ele>
        <time>2022-07-17T05:39:17Z</time>
      </trkpt>
      <trkpt lat="45.35506" lon="6.28809">
        <ele>432.8</ele>
        <time>2022-07-17T05:39:18Z</time>
      </trkpt>
      <trkpt lat="45.355" lon="6.28814">
        <ele>432.8</ele>
        <time>2022-07-17T05:39:19Z</time>
      </trkpt>
      <trkpt lat="45.35494" lon="6.28818">
        <ele>432.6</ele>
        <time>2022-07-17T05:39:20Z</time>
      </trkpt>
      <trkpt lat="45.35489" lon="6.28824">
        <ele>432.6</ele>
        <time>2022-07-17T05:39:21Z</time>
      </trkpt>
      <trkpt lat="45.35483" lon="6.28829">
        <ele>432.4</ele>
        <time>2022-07-17T05:39:22Z</time>
      </trkpt>
      <trkpt lat="45.35477" lon="6.28834">
        <ele>432.4</ele>
        <time>2022-07-17T05:39:23Z</time>
      </trkpt>
      <trkpt lat="45.3547" lon="6.28839">
        <ele>432.4</ele>
        <time>2022-07-17T05:39:24Z</time>
      </trkpt>
      <trkpt lat="45.35465" lon="6.28844">
        <ele>432.2</ele>
        <time>2022-07-17T05:39:25Z</time>
      </trkpt>
      <trkpt lat="45.35459" lon="6.2885">
        <ele>432.2</ele>
        <time>2022-07-17T05:39:26Z</time>
      </trkpt>
      <trkpt lat="45.35453" lon="6.28855">
        <ele>432.2</ele>
        <time>2022-07-17T05:39:27Z</time>
      </trkpt>
      <trkpt lat="45.35448" lon="6.2886">
        <ele>432.2</ele>
        <time>2022-07-17T05:39:28Z</time>
      </trkpt>
      <trkpt lat="45.35442" lon="6.28865">
        <ele>432.2</ele>
        <time>2022-07-17T05:39:29Z</time>
      </trkpt>
      <trkpt lat="45.35437" lon="6.2887">
        <ele>432.2</ele>
        <time>2022-07-17T05:39:30Z</time>
      </trkpt>
      <trkpt lat="45.35432" lon="6.28874">
        <ele>432.2</ele>
        <time>2022-07-17T05:39:31Z</time>
      </trkpt>
      <trkpt lat="45.35427" lon="6.28879">
        <ele>432.2</ele>
        <time>2022-07-17T05:39:32Z</time>
      </trkpt>
      <trkpt lat="45.35421" lon="6.28884">
        <ele>432.2</ele>
        <time>2022-07-17T05:39:33Z</time>
      </trkpt>
      <trkpt lat="45.35416" lon="6.28889">
        <ele>432.4</ele>
        <time>2022-07-17T05:39:34Z</time>
      </trkpt>
      <trkpt lat="45.35411" lon="6.28893">
        <ele>432.4</ele>
        <time>2022-07-17T05:39:35Z</time>
      </trkpt>
      <trkpt lat="45.35405" lon="6.28898">
        <ele>432.4</ele>
        <time>2022-07-17T05:39:36Z</time>
      </trkpt>
      <trkpt lat="45.354" lon="6.28903">
        <ele>432.4</ele>
        <time>2022-07-17T05:39:37Z</time>
      </trkpt>
      <trkpt lat="45.35395" lon="6.28907">
        <ele>432.4</ele>
        <time>2022-07-17T05:39:38Z</time>
      </trkpt>
      <trkpt lat="45.3539" lon="6.28912">
        <ele>432.4</ele>
        <time>2022-07-17T05:39:39Z</time>
      </trkpt>
      <trkpt lat="45.35384" lon="6.28917">
        <ele>432.4</ele>
        <time>2022-07-17T05:39:40Z</time>
      </trkpt>
      <trkpt lat="45.35379" lon="6.28921">
        <ele>432.6</ele>
        <time>2022-07-17T05:39:41Z</time>
      </trkpt>
      <trkpt lat="45.35374" lon="6.28925">
        <ele>432.6</ele>
        <time>2022-07-17T05:39:42Z</time>
      </trkpt>
      <trkpt lat="45.35369" lon="6.28929">
        <ele>432.6</ele>
        <time>2022-07-17T05:39:43Z</time>
      </trkpt>
      <trkpt lat="45.35364" lon="6.28934">
        <ele>433</ele>
        <time>2022-07-17T05:39:44Z</time>
      </trkpt>
      <trkpt lat="45.35359" lon="6.28938">
        <ele>433</ele>
        <time>2022-07-17T05:39:45Z</time>
      </trkpt>
      <trkpt lat="45.35354" lon="6.28943">
        <ele>433.2</ele>
        <time>2022-07-17T05:39:46Z</time>
      </trkpt>
      <trkpt lat="45.35349" lon="6.28947">
        <ele>433.2</ele>
        <time>2022-07-17T05:39:47Z</time>
      </trkpt>
      <trkpt lat="45.35344" lon="6.28952">
        <ele>433.2</ele>
        <time>2022-07-17T05:39:48Z</time>
      </trkpt>
      <trkpt lat="45.35339" lon="6.28956">
        <ele>433.4</ele>
        <time>2022-07-17T05:39:49Z</time>
      </trkpt>
      <trkpt lat="45.35334" lon="6.28961">
        <ele>433.4</ele>
        <time>2022-07-17T05:39:50Z</time>
      </trkpt>
      <trkpt lat="45.35329" lon="6.28965">
        <ele>433.4</ele>
        <time>2022-07-17T05:39:51Z</time>
      </trkpt>
      <trkpt lat="45.35324" lon="6.28969">
        <ele>433.6</ele>
        <time>2022-07-17T05:39:52Z</time>
      </trkpt>
      <trkpt lat="45.35319" lon="6.28974">
        <ele>433.6</ele>
        <time>2022-07-17T05:39:53Z</time>
      </trkpt>
      <trkpt lat="45.35313" lon="6.28979">
        <ele>433.8</ele>
        <time>2022-07-17T05:39:54Z</time>
      </trkpt>
      <trkpt lat="45.35308" lon="6.28984">
        <ele>433.8</ele>
        <time>2022-07-17T05:39:55Z</time>
      </trkpt>
      <trkpt lat="45.35303" lon="6.28989">
        <ele>433.8</ele>
        <time>2022-07-17T05:39:56Z</time>
      </trkpt>
      <trkpt lat="45.35298" lon="6.28993">
        <ele>433.8</ele>
        <time>2022-07-17T05:39:57Z</time>
      </trkpt>
      <trkpt lat="45.35293" lon="6.28997">
        <ele>434.2</ele>
        <time>2022-07-17T05:39:58Z</time>
      </trkpt>
      <trkpt lat="45.35287" lon="6.29001">
        <ele>434.2</ele>
        <time>2022-07-17T05:39:59Z</time>
      </trkpt>
      <trkpt lat="45.35282" lon="6.29005">
        <ele>434.2</ele>
        <time>2022-07-17T05:40:00Z</time>
      </trkpt>
      <trkpt lat="45.35277" lon="6.2901">
        <ele>434.4</ele>
        <time>2022-07-17T05:40:01Z</time>
      </trkpt>
      <trkpt lat="45.35272" lon="6.29014">
        <ele>434.4</ele>
        <time>2022-07-17T05:40:02Z</time>
      </trkpt>
      <trkpt lat="45.35268" lon="6.29018">
        <ele>434.4</ele>
        <time>2022-07-17T05:40:03Z</time>
      </trkpt>
      <trkpt lat="45.35263" lon="6.29023">
        <ele>434.4</ele>
        <time>2022-07-17T05:40:04Z</time>
      </trkpt>
      <trkpt lat="45.35258" lon="6.29027">
        <ele>434.6</ele>
        <time>2022-07-17T05:40:05Z</time>
      </trkpt>
      <trkpt lat="45.35253" lon="6.29031">
        <ele>434.6</ele>
        <time>2022-07-17T05:40:06Z</time>
      </trkpt>
      <trkpt lat="45.35248" lon="6.29035">
        <ele>434.6</ele>
        <time>2022-07-17T05:40:07Z</time>
      </trkpt>
      <trkpt lat="45.35244" lon="6.29039">
        <ele>434.8</ele>
        <time>2022-07-17T05:40:08Z</time>
      </trkpt>
      <trkpt lat="45.35238" lon="6.29042">
        <ele>434.8</ele>
        <time>2022-07-17T05:40:09Z</time>
      </trkpt>
      <trkpt lat="45.35233" lon="6.29046">
        <ele>434.8</ele>
        <time>2022-07-17T05:40:10Z</time>
      </trkpt>
      <trkpt lat="45.35228" lon="6.29049">
        <ele>435.2</ele>
        <time>2022-07-17T05:40:11Z</time>
      </trkpt>
      <trkpt lat="45.35223" lon="6.29052">
        <ele>435.2</ele>
        <time>2022-07-17T05:40:12Z</time>
      </trkpt>
      <trkpt lat="45.35218" lon="6.29056">
        <ele>435.2</ele>
        <time>2022-07-17T05:40:13Z</time>
      </trkpt>
      <trkpt lat="45.35213" lon="6.29059">
        <ele>435.4</ele>
        <time>2022-07-17T05:40:14Z</time>
      </trkpt>
      <trkpt lat="45.35207" lon="6.29062">
        <ele>435.4</ele>
        <time>2022-07-17T05:40:15Z</time>
      </trkpt>
      <trkpt lat="45.35202" lon="6.29066">
        <ele>435.4</ele>
        <time>2022-07-17T05:40:16Z</time>
      </trkpt>
      <trkpt lat="45.35196" lon="6.29069">
        <ele>435.8</ele>
        <time>2022-07-17T05:40:17Z</time>
      </trkpt>
      <trkpt lat="45.35191" lon="6.29073">
        <ele>435.8</ele>
        <time>2022-07-17T05:40:18Z</time>
      </trkpt>
      <trkpt lat="45.35186" lon="6.29076">
        <ele>436</ele>
        <time>2022-07-17T05:40:19Z</time>
      </trkpt>
      <trkpt lat="45.3518" lon="6.29079">
        <ele>436</ele>
        <time>2022-07-17T05:40:20Z</time>
      </trkpt>
      <trkpt lat="45.35175" lon="6.29082">
        <ele>436.2</ele>
        <time>2022-07-17T05:40:21Z</time>
      </trkpt>
      <trkpt lat="45.3517" lon="6.29085">
        <ele>436.2</ele>
        <time>2022-07-17T05:40:22Z</time>
      </trkpt>
      <trkpt lat="45.35165" lon="6.29088">
        <ele>436.4</ele>
        <time>2022-07-17T05:40:23Z</time>
      </trkpt>
      <trkpt lat="45.35159" lon="6.29091">
        <ele>436.4</ele>
        <time>2022-07-17T05:40:24Z</time>
      </trkpt>
      <trkpt lat="45.35154" lon="6.29094">
        <ele>436.4</ele>
        <time>2022-07-17T05:40:25Z</time>
      </trkpt>
      <trkpt lat="45.35149" lon="6.29097">
        <ele>436.8</ele>
        <time>2022-07-17T05:40:26Z</time>
      </trkpt>
      <trkpt lat="45.35144" lon="6.29099">
        <ele>436.8</ele>
        <time>2022-07-17T05:40:27Z</time>
      </trkpt>
      <trkpt lat="45.35139" lon="6.29101">
        <ele>437</ele>
        <time>2022-07-17T05:40:28Z</time>
      </trkpt>
      <trkpt lat="45.35133" lon="6.29103">
        <ele>437.2</ele>
        <time>2022-07-17T05:40:29Z</time>
      </trkpt>
      <trkpt lat="45.35128" lon="6.29105">
        <ele>437.6</ele>
        <time>2022-07-17T05:40:30Z</time>
      </trkpt>
      <trkpt lat="45.35122" lon="6.29107">
        <ele>437.6</ele>
        <time>2022-07-17T05:40:31Z</time>
      </trkpt>
      <trkpt lat="45.35117" lon="6.29109">
        <ele>437.8</ele>
        <time>2022-07-17T05:40:32Z</time>
      </trkpt>
      <trkpt lat="45.35112" lon="6.2911">
        <ele>437.8</ele>
        <time>2022-07-17T05:40:33Z</time>
      </trkpt>
      <trkpt lat="45.35107" lon="6.2911">
        <ele>438.2</ele>
        <time>2022-07-17T05:40:34Z</time>
      </trkpt>
      <trkpt lat="45.35102" lon="6.29111">
        <ele>438.2</ele>
        <time>2022-07-17T05:40:35Z</time>
      </trkpt>
      <trkpt lat="45.35098" lon="6.2911">
        <ele>438.4</ele>
        <time>2022-07-17T05:40:36Z</time>
      </trkpt>
      <trkpt lat="45.35093" lon="6.2911">
        <ele>438.6</ele>
        <time>2022-07-17T05:40:37Z</time>
      </trkpt>
      <trkpt lat="45.35089" lon="6.2911">
        <ele>438.8</ele>
        <time>2022-07-17T05:40:38Z</time>
      </trkpt>
      <trkpt lat="45.35084" lon="6.29109">
        <ele>439.2</ele>
        <time>2022-07-17T05:40:39Z</time>
      </trkpt>
      <trkpt lat="45.3508" lon="6.29108">
        <ele>439.4</ele>
        <time>2022-07-17T05:40:40Z</time>
      </trkpt>
      <trkpt lat="45.35076" lon="6.29107">
        <ele>439.6</ele>
        <time>2022-07-17T05:40:41Z</time>
      </trkpt>
      <trkpt lat="45.35072" lon="6.29106">
        <ele>439.8</ele>
        <time>2022-07-17T05:40:42Z</time>
      </trkpt>
      <trkpt lat="45.35068" lon="6.29104">
        <ele>439.8</ele>
        <time>2022-07-17T05:40:43Z</time>
      </trkpt>
      <trkpt lat="45.35064" lon="6.29103">
        <ele>440.2</ele>
        <time>2022-07-17T05:40:44Z</time>
      </trkpt>
      <trkpt lat="45.3506" lon="6.29101">
        <ele>440.2</ele>
        <time>2022-07-17T05:40:45Z</time>
      </trkpt>
      <trkpt lat="45.35056" lon="6.29099">
        <ele>440.6</ele>
        <time>2022-07-17T05:40:46Z</time>
      </trkpt>
      <trkpt lat="45.35052" lon="6.29097">
        <ele>440.6</ele>
        <time>2022-07-17T05:40:47Z</time>
      </trkpt>
      <trkpt lat="45.35047" lon="6.29095">
        <ele>441</ele>
        <time>2022-07-17T05:40:48Z</time>
      </trkpt>
      <trkpt lat="45.35042" lon="6.29093">
        <ele>441.2</ele>
        <time>2022-07-17T05:40:49Z</time>
      </trkpt>
      <trkpt lat="45.35038" lon="6.29091">
        <ele>441.2</ele>
        <time>2022-07-17T05:40:50Z</time>
      </trkpt>
      <trkpt lat="45.35033" lon="6.29088">
        <ele>441.6</ele>
        <time>2022-07-17T05:40:51Z</time>
      </trkpt>
      <trkpt lat="45.35028" lon="6.29086">
        <ele>441.8</ele>
        <time>2022-07-17T05:40:52Z</time>
      </trkpt>
      <trkpt lat="45.35024" lon="6.29083">
        <ele>442</ele>
        <time>2022-07-17T05:40:53Z</time>
      </trkpt>
      <trkpt lat="45.35019" lon="6.29081">
        <ele>442</ele>
        <time>2022-07-17T05:40:54Z</time>
      </trkpt>
      <trkpt lat="45.35015" lon="6.29079">
        <ele>442.4</ele>
        <time>2022-07-17T05:40:55Z</time>
      </trkpt>
      <trkpt lat="45.35011" lon="6.29077">
        <ele>442.4</ele>
        <time>2022-07-17T05:40:56Z</time>
      </trkpt>
      <trkpt lat="45.35007" lon="6.29075">
        <ele>442.6</ele>
        <time>2022-07-17T05:40:57Z</time>
      </trkpt>
      <trkpt lat="45.35003" lon="6.29073">
        <ele>443</ele>
        <time>2022-07-17T05:40:58Z</time>
      </trkpt>
      <trkpt lat="45.34999" lon="6.29071">
        <ele>443.2</ele>
        <time>2022-07-17T05:40:59Z</time>
      </trkpt>
      <trkpt lat="45.34996" lon="6.29069">
        <ele>443.2</ele>
        <time>2022-07-17T05:41:00Z</time>
      </trkpt>
      <trkpt lat="45.34993" lon="6.29068">
        <ele>443.4</ele>
        <time>2022-07-17T05:41:01Z</time>
      </trkpt>
      <trkpt lat="45.34989" lon="6.29067">
        <ele>443.8</ele>
        <time>2022-07-17T05:41:02Z</time>
      </trkpt>
      <trkpt lat="45.34986" lon="6.29066">
        <ele>444</ele>
        <time>2022-07-17T05:41:03Z</time>
      </trkpt>
      <trkpt lat="45.34981" lon="6.29066">
        <ele>444.2</ele>
        <time>2022-07-17T05:41:04Z</time>
      </trkpt>
      <trkpt lat="45.34977" lon="6.29067">
        <ele>444.2</ele>
        <time>2022-07-17T05:41:05Z</time>
      </trkpt>
      <trkpt lat="45.34972" lon="6.29068">
        <ele>444.6</ele>
        <time>2022-07-17T05:41:06Z</time>
      </trkpt>
      <trkpt lat="45.34968" lon="6.2907">
        <ele>444.8</ele>
        <time>2022-07-17T05:41:07Z</time>
      </trkpt>
      <trkpt lat="45.34963" lon="6.29071">
        <ele>444.8</ele>
        <time>2022-07-17T05:41:08Z</time>
      </trkpt>
      <trkpt lat="45.34958" lon="6.29072">
        <ele>445</ele>
        <time>2022-07-17T05:41:10Z</time>
      </trkpt>
      <trkpt lat="45.34953" lon="6.29073">
        <ele>445.4</ele>
        <time>2022-07-17T05:41:11Z</time>
      </trkpt>
      <trkpt lat="45.34948" lon="6.29073">
        <ele>445.4</ele>
        <time>2022-07-17T05:41:12Z</time>
      </trkpt>
      <trkpt lat="45.34943" lon="6.29074">
        <ele>445.6</ele>
        <time>2022-07-17T05:41:13Z</time>
      </trkpt>
      <trkpt lat="45.34938" lon="6.29075">
        <ele>445.6</ele>
        <time>2022-07-17T05:41:14Z</time>
      </trkpt>
      <trkpt lat="45.34934" lon="6.29075">
        <ele>446</ele>
        <time>2022-07-17T05:41:15Z</time>
      </trkpt>
      <trkpt lat="45.34929" lon="6.29076">
        <ele>446</ele>
        <time>2022-07-17T05:41:16Z</time>
      </trkpt>
      <trkpt lat="45.34924" lon="6.29076">
        <ele>446.4</ele>
        <time>2022-07-17T05:41:17Z</time>
      </trkpt>
      <trkpt lat="45.3492" lon="6.29078">
        <ele>446.6</ele>
        <time>2022-07-17T05:41:18Z</time>
      </trkpt>
      <trkpt lat="45.34915" lon="6.29079">
        <ele>446.6</ele>
        <time>2022-07-17T05:41:19Z</time>
      </trkpt>
      <trkpt lat="45.34911" lon="6.29079">
        <ele>447</ele>
        <time>2022-07-17T05:41:20Z</time>
      </trkpt>
      <trkpt lat="45.34906" lon="6.2908">
        <ele>447</ele>
        <time>2022-07-17T05:41:21Z</time>
      </trkpt>
      <trkpt lat="45.34902" lon="6.29082">
        <ele>447.2</ele>
        <time>2022-07-17T05:41:22Z</time>
      </trkpt>
      <trkpt lat="45.34898" lon="6.29084">
        <ele>447.2</ele>
        <time>2022-07-17T05:41:23Z</time>
      </trkpt>
      <trkpt lat="45.34894" lon="6.29086">
        <ele>447.6</ele>
        <time>2022-07-17T05:41:24Z</time>
      </trkpt>
      <trkpt lat="45.3489" lon="6.29088">
        <ele>447.6</ele>
        <time>2022-07-17T05:41:25Z</time>
      </trkpt>
      <trkpt lat="45.34885" lon="6.2909">
        <ele>447.8</ele>
        <time>2022-07-17T05:41:26Z</time>
      </trkpt>
      <trkpt lat="45.34881" lon="6.29093">
        <ele>447.8</ele>
        <time>2022-07-17T05:41:27Z</time>
      </trkpt>
      <trkpt lat="45.34878" lon="6.29096">
        <ele>448</ele>
        <time>2022-07-17T05:41:28Z</time>
      </trkpt>
      <trkpt lat="45.34874" lon="6.29099">
        <ele>448</ele>
        <time>2022-07-17T05:41:29Z</time>
      </trkpt>
      <trkpt lat="45.3487" lon="6.29103">
        <ele>448.2</ele>
        <time>2022-07-17T05:41:30Z</time>
      </trkpt>
      <trkpt lat="45.34866" lon="6.29107">
        <ele>448.2</ele>
        <time>2022-07-17T05:41:31Z</time>
      </trkpt>
      <trkpt lat="45.34862" lon="6.29111">
        <ele>448.6</ele>
        <time>2022-07-17T05:41:32Z</time>
      </trkpt>
      <trkpt lat="45.34858" lon="6.29114">
        <ele>448.6</ele>
        <time>2022-07-17T05:41:33Z</time>
      </trkpt>
      <trkpt lat="45.34854" lon="6.29117">
        <ele>448.6</ele>
        <time>2022-07-17T05:41:34Z</time>
      </trkpt>
      <trkpt lat="45.3485" lon="6.29121">
        <ele>449</ele>
        <time>2022-07-17T05:41:35Z</time>
      </trkpt>
      <trkpt lat="45.34846" lon="6.29124">
        <ele>449</ele>
        <time>2022-07-17T05:41:36Z</time>
      </trkpt>
      <trkpt lat="45.34842" lon="6.29128">
        <ele>449.2</ele>
        <time>2022-07-17T05:41:37Z</time>
      </trkpt>
      <trkpt lat="45.34838" lon="6.29131">
        <ele>449.2</ele>
        <time>2022-07-17T05:41:38Z</time>
      </trkpt>
      <trkpt lat="45.34834" lon="6.29135">
        <ele>449.4</ele>
        <time>2022-07-17T05:41:39Z</time>
      </trkpt>
      <trkpt lat="45.34831" lon="6.29139">
        <ele>449.4</ele>
        <time>2022-07-17T05:41:40Z</time>
      </trkpt>
      <trkpt lat="45.34827" lon="6.29142">
        <ele>449.6</ele>
        <time>2022-07-17T05:41:41Z</time>
      </trkpt>
      <trkpt lat="45.34823" lon="6.29146">
        <ele>449.8</ele>
        <time>2022-07-17T05:41:42Z</time>
      </trkpt>
      <trkpt lat="45.34819" lon="6.2915">
        <ele>449.8</ele>
        <time>2022-07-17T05:41:43Z</time>
      </trkpt>
      <trkpt lat="45.34815" lon="6.29153">
        <ele>450.2</ele>
        <time>2022-07-17T05:41:44Z</time>
      </trkpt>
      <trkpt lat="45.34811" lon="6.29157">
        <ele>450.2</ele>
        <time>2022-07-17T05:41:45Z</time>
      </trkpt>
      <trkpt lat="45.34807" lon="6.2916">
        <ele>450.4</ele>
        <time>2022-07-17T05:41:46Z</time>
      </trkpt>
      <trkpt lat="45.34802" lon="6.29163">
        <ele>450.4</ele>
        <time>2022-07-17T05:41:47Z</time>
      </trkpt>
      <trkpt lat="45.34798" lon="6.29165">
        <ele>450.8</ele>
        <time>2022-07-17T05:41:48Z</time>
      </trkpt>
      <trkpt lat="45.34793" lon="6.29166">
        <ele>450.8</ele>
        <time>2022-07-17T05:41:49Z</time>
      </trkpt>
      <trkpt lat="45.34789" lon="6.29167">
        <ele>451</ele>
        <time>2022-07-17T05:41:50Z</time>
      </trkpt>
      <trkpt lat="45.34785" lon="6.29167">
        <ele>451</ele>
        <time>2022-07-17T05:41:51Z</time>
      </trkpt>
      <trkpt lat="45.34781" lon="6.29166">
        <ele>451.4</ele>
        <time>2022-07-17T05:41:52Z</time>
      </trkpt>
      <trkpt lat="45.34777" lon="6.29164">
        <ele>451.4</ele>
        <time>2022-07-17T05:41:53Z</time>
      </trkpt>
      <trkpt lat="45.34773" lon="6.29163">
        <ele>451.6</ele>
        <time>2022-07-17T05:41:54Z</time>
      </trkpt>
      <trkpt lat="45.34769" lon="6.29161">
        <ele>451.6</ele>
        <time>2022-07-17T05:41:55Z</time>
      </trkpt>
      <trkpt lat="45.34765" lon="6.2916">
        <ele>452</ele>
        <time>2022-07-17T05:41:56Z</time>
      </trkpt>
      <trkpt lat="45.34761" lon="6.29158">
        <ele>452</ele>
        <time>2022-07-17T05:41:57Z</time>
      </trkpt>
      <trkpt lat="45.34757" lon="6.29158">
        <ele>452.2</ele>
        <time>2022-07-17T05:41:58Z</time>
      </trkpt>
      <trkpt lat="45.34754" lon="6.29156">
        <ele>452.2</ele>
        <time>2022-07-17T05:41:59Z</time>
      </trkpt>
      <trkpt lat="45.3475" lon="6.29154">
        <ele>452.6</ele>
        <time>2022-07-17T05:42:00Z</time>
      </trkpt>
      <trkpt lat="45.34746" lon="6.29152">
        <ele>452.6</ele>
        <time>2022-07-17T05:42:01Z</time>
      </trkpt>
      <trkpt lat="45.34741" lon="6.2915">
        <ele>452.8</ele>
        <time>2022-07-17T05:42:02Z</time>
      </trkpt>
      <trkpt lat="45.34737" lon="6.29147">
        <ele>452.8</ele>
        <time>2022-07-17T05:42:03Z</time>
      </trkpt>
      <trkpt lat="45.34732" lon="6.29146">
        <ele>453</ele>
        <time>2022-07-17T05:42:04Z</time>
      </trkpt>
      <trkpt lat="45.34728" lon="6.29143">
        <ele>453</ele>
        <time>2022-07-17T05:42:05Z</time>
      </trkpt>
      <trkpt lat="45.34724" lon="6.29142">
        <ele>453.4</ele>
        <time>2022-07-17T05:42:06Z</time>
      </trkpt>
      <trkpt lat="45.34719" lon="6.2914">
        <ele>453.4</ele>
        <time>2022-07-17T05:42:07Z</time>
      </trkpt>
      <trkpt lat="45.34715" lon="6.29138">
        <ele>453.8</ele>
        <time>2022-07-17T05:42:08Z</time>
      </trkpt>
      <trkpt lat="45.34707" lon="6.29133">
        <ele>453.8</ele>
        <time>2022-07-17T05:42:09Z</time>
      </trkpt>
      <trkpt lat="45.34703" lon="6.29131">
        <ele>454.2</ele>
        <time>2022-07-17T05:42:10Z</time>
      </trkpt>
      <trkpt lat="45.34699" lon="6.29129">
        <ele>454.4</ele>
        <time>2022-07-17T05:42:11Z</time>
      </trkpt>
      <trkpt lat="45.34695" lon="6.29128">
        <ele>454.6</ele>
        <time>2022-07-17T05:42:12Z</time>
      </trkpt>
      <trkpt lat="45.34691" lon="6.29127">
        <ele>454.6</ele>
        <time>2022-07-17T05:42:13Z</time>
      </trkpt>
      <trkpt lat="45.34687" lon="6.29125">
        <ele>455</ele>
        <time>2022-07-17T05:42:14Z</time>
      </trkpt>
      <trkpt lat="45.34683" lon="6.29122">
        <ele>455</ele>
        <time>2022-07-17T05:42:15Z</time>
      </trkpt>
      <trkpt lat="45.34679" lon="6.2912">
        <ele>455.4</ele>
        <time>2022-07-17T05:42:16Z</time>
      </trkpt>
      <trkpt lat="45.34675" lon="6.2912">
        <ele>455.6</ele>
        <time>2022-07-17T05:42:17Z</time>
      </trkpt>
      <trkpt lat="45.3467" lon="6.29119">
        <ele>455.8</ele>
        <time>2022-07-17T05:42:18Z</time>
      </trkpt>
      <trkpt lat="45.34665" lon="6.29118">
        <ele>456</ele>
        <time>2022-07-17T05:42:19Z</time>
      </trkpt>
      <trkpt lat="45.3466" lon="6.29117">
        <ele>456.2</ele>
        <time>2022-07-17T05:42:20Z</time>
      </trkpt>
      <trkpt lat="45.34655" lon="6.29116">
        <ele>456.4</ele>
        <time>2022-07-17T05:42:21Z</time>
      </trkpt>
      <trkpt lat="45.3465" lon="6.29114">
        <ele>456.4</ele>
        <time>2022-07-17T05:42:22Z</time>
      </trkpt>
      <trkpt lat="45.34646" lon="6.29113">
        <ele>456.8</ele>
        <time>2022-07-17T05:42:23Z</time>
      </trkpt>
      <trkpt lat="45.34641" lon="6.29112">
        <ele>456.8</ele>
        <time>2022-07-17T05:42:24Z</time>
      </trkpt>
      <trkpt lat="45.34636" lon="6.2911">
        <ele>457.2</ele>
        <time>2022-07-17T05:42:25Z</time>
      </trkpt>
      <trkpt lat="45.34631" lon="6.29109">
        <ele>457.2</ele>
        <time>2022-07-17T05:42:26Z</time>
      </trkpt>
      <trkpt lat="45.34626" lon="6.29108">
        <ele>457.4</ele>
        <time>2022-07-17T05:42:27Z</time>
      </trkpt>
      <trkpt lat="45.34621" lon="6.29107">
        <ele>457.6</ele>
        <time>2022-07-17T05:42:28Z</time>
      </trkpt>
      <trkpt lat="45.34616" lon="6.29106">
        <ele>457.6</ele>
        <time>2022-07-17T05:42:29Z</time>
      </trkpt>
      <trkpt lat="45.34612" lon="6.29105">
        <ele>458</ele>
        <time>2022-07-17T05:42:30Z</time>
      </trkpt>
      <trkpt lat="45.34607" lon="6.29104">
        <ele>458</ele>
        <time>2022-07-17T05:42:31Z</time>
      </trkpt>
      <trkpt lat="45.34602" lon="6.29104">
        <ele>458.2</ele>
        <time>2022-07-17T05:42:32Z</time>
      </trkpt>
      <trkpt lat="45.34597" lon="6.29104">
        <ele>458.2</ele>
        <time>2022-07-17T05:42:33Z</time>
      </trkpt>
      <trkpt lat="45.34594" lon="6.29105">
        <ele>458.4</ele>
        <time>2022-07-17T05:42:34Z</time>
      </trkpt>
      <trkpt lat="45.34592" lon="6.29105">
        <ele>458.4</ele>
        <time>2022-07-17T05:42:35Z</time>
      </trkpt>
      <trkpt lat="45.34589" lon="6.29106">
        <ele>458.8</ele>
        <time>2022-07-17T05:42:36Z</time>
      </trkpt>
      <trkpt lat="45.34586" lon="6.29106">
        <ele>458.8</ele>
        <time>2022-07-17T05:42:37Z</time>
      </trkpt>
      <trkpt lat="45.34583" lon="6.29107">
        <ele>459</ele>
        <time>2022-07-17T05:42:38Z</time>
      </trkpt>
      <trkpt lat="45.3458" lon="6.29108">
        <ele>459</ele>
        <time>2022-07-17T05:42:39Z</time>
      </trkpt>
      <trkpt lat="45.34577" lon="6.29109">
        <ele>459.2</ele>
        <time>2022-07-17T05:42:40Z</time>
      </trkpt>
      <trkpt lat="45.34574" lon="6.29109">
        <ele>459.2</ele>
        <time>2022-07-17T05:42:41Z</time>
      </trkpt>
      <trkpt lat="45.34571" lon="6.29109">
        <ele>459.6</ele>
        <time>2022-07-17T05:42:42Z</time>
      </trkpt>
      <trkpt lat="45.34568" lon="6.2911">
        <ele>459.6</ele>
        <time>2022-07-17T05:42:43Z</time>
      </trkpt>
      <trkpt lat="45.34566" lon="6.2911">
        <ele>459.8</ele>
        <time>2022-07-17T05:42:44Z</time>
      </trkpt>
      <trkpt lat="45.34563" lon="6.29111">
        <ele>459.8</ele>
        <time>2022-07-17T05:42:45Z</time>
      </trkpt>
      <trkpt lat="45.34561" lon="6.29113">
        <ele>459.8</ele>
        <time>2022-07-17T05:42:46Z</time>
      </trkpt>
      <trkpt lat="45.34559" lon="6.29114">
        <ele>460</ele>
        <time>2022-07-17T05:42:47Z</time>
      </trkpt>
      <trkpt lat="45.34557" lon="6.29115">
        <ele>460</ele>
        <time>2022-07-17T05:42:48Z</time>
      </trkpt>
      <trkpt lat="45.34556" lon="6.29116">
        <ele>460</ele>
        <time>2022-07-17T05:42:49Z</time>
      </trkpt>
      <trkpt lat="45.34555" lon="6.29116">
        <ele>460</ele>
        <time>2022-07-17T05:42:50Z</time>
      </trkpt>
      <trkpt lat="45.34555" lon="6.29116">
        <ele>460</ele>
        <time>2022-07-17T05:45:14Z</time>
      </trkpt>
      <trkpt lat="45.34555" lon="6.29116">
        <ele>460.2</ele>
        <time>2022-07-17T05:48:50Z</time>
      </trkpt>
      <trkpt lat="45.34555" lon="6.29116">
        <ele>460.2</ele>
        <time>2022-07-17T05:54:21Z</time>
      </trkpt>
      <trkpt lat="45.34552" lon="6.2911">
        <ele>460.2</ele>
        <time>2022-07-17T05:55:19Z</time>
      </trkpt>
      <trkpt lat="45.3455" lon="6.29108">
        <ele>460.2</ele>
        <time>2022-07-17T05:55:20Z</time>
      </trkpt>
      <trkpt lat="45.34548" lon="6.29106">
        <ele>460.2</ele>
        <time>2022-07-17T05:55:21Z</time>
      </trkpt>
      <trkpt lat="45.34546" lon="6.29106">
        <ele>460.2</ele>
        <time>2022-07-17T05:55:22Z</time>
      </trkpt>
      <trkpt lat="45.34543" lon="6.29105">
        <ele>460.2</ele>
        <time>2022-07-17T05:55:23Z</time>
      </trkpt>
      <trkpt lat="45.34541" lon="6.29105">
        <ele>460.4</ele>
        <time>2022-07-17T05:55:24Z</time>
      </trkpt>
      <trkpt lat="45.34538" lon="6.29104">
        <ele>460.4</ele>
        <time>2022-07-17T05:55:25Z</time>
      </trkpt>
      <trkpt lat="45.34536" lon="6.29103">
        <ele>460.4</ele>
        <time>2022-07-17T05:55:26Z</time>
      </trkpt>
      <trkpt lat="45.34533" lon="6.29102">
        <ele>460.6</ele>
        <time>2022-07-17T05:55:27Z</time>
      </trkpt>
      <trkpt lat="45.3453" lon="6.29101">
        <ele>460.6</ele>
        <time>2022-07-17T05:55:28Z</time>
      </trkpt>
      <trkpt lat="45.34527" lon="6.29099">
        <ele>460.6</ele>
        <time>2022-07-17T05:55:29Z</time>
      </trkpt>
      <trkpt lat="45.34524" lon="6.29098">
        <ele>461</ele>
        <time>2022-07-17T05:55:30Z</time>
      </trkpt>
      <trkpt lat="45.34521" lon="6.29096">
        <ele>461</ele>
        <time>2022-07-17T05:55:31Z</time>
      </trkpt>
      <trkpt lat="45.34518" lon="6.29095">
        <ele>461.2</ele>
        <time>2022-07-17T05:55:32Z</time>
      </trkpt>
      <trkpt lat="45.34514" lon="6.29093">
        <ele>461.2</ele>
        <time>2022-07-17T05:55:33Z</time>
      </trkpt>
      <trkpt lat="45.3451" lon="6.29092">
        <ele>461.6</ele>
        <time>2022-07-17T05:55:34Z</time>
      </trkpt>
      <trkpt lat="45.34507" lon="6.2909">
        <ele>461.6</ele>
        <time>2022-07-17T05:55:35Z</time>
      </trkpt>
      <trkpt lat="45.34503" lon="6.29088">
        <ele>461.8</ele>
        <time>2022-07-17T05:55:36Z</time>
      </trkpt>
      <trkpt lat="45.34499" lon="6.29086">
        <ele>462</ele>
        <time>2022-07-17T05:55:37Z</time>
      </trkpt>
      <trkpt lat="45.34495" lon="6.29085">
        <ele>462</ele>
        <time>2022-07-17T05:55:38Z</time>
      </trkpt>
      <trkpt lat="45.34492" lon="6.29084">
        <ele>462.4</ele>
        <time>2022-07-17T05:55:39Z</time>
      </trkpt>
      <trkpt lat="45.34489" lon="6.29082">
        <ele>462.4</ele>
        <time>2022-07-17T05:55:40Z</time>
      </trkpt>
      <trkpt lat="45.34485" lon="6.29081">
        <ele>462.6</ele>
        <time>2022-07-17T05:55:41Z</time>
      </trkpt>
      <trkpt lat="45.34482" lon="6.2908">
        <ele>462.8</ele>
        <time>2022-07-17T05:55:42Z</time>
      </trkpt>
      <trkpt lat="45.34478" lon="6.29079">
        <ele>462.8</ele>
        <time>2022-07-17T05:55:43Z</time>
      </trkpt>
      <trkpt lat="45.34474" lon="6.29077">
        <ele>463.2</ele>
        <time>2022-07-17T05:55:44Z</time>
      </trkpt>
      <trkpt lat="45.3447" lon="6.29077">
        <ele>463.2</ele>
        <time>2022-07-17T05:55:45Z</time>
      </trkpt>
      <trkpt lat="45.34466" lon="6.29077">
        <ele>463.6</ele>
        <time>2022-07-17T05:55:46Z</time>
      </trkpt>
      <trkpt lat="45.34462" lon="6.29076">
        <ele>463.6</ele>
        <time>2022-07-17T05:55:47Z</time>
      </trkpt>
      <trkpt lat="45.34458" lon="6.29076">
        <ele>463.8</ele>
        <time>2022-07-17T05:55:48Z</time>
      </trkpt>
      <trkpt lat="45.34454" lon="6.29075">
        <ele>463.8</ele>
        <time>2022-07-17T05:55:49Z</time>
      </trkpt>
      <trkpt lat="45.3445" lon="6.29074">
        <ele>464.2</ele>
        <time>2022-07-17T05:55:50Z</time>
      </trkpt>
      <trkpt lat="45.34446" lon="6.29074">
        <ele>464.2</ele>
        <time>2022-07-17T05:55:51Z</time>
      </trkpt>
      <trkpt lat="45.34443" lon="6.29074">
        <ele>464.6</ele>
        <time>2022-07-17T05:55:52Z</time>
      </trkpt>
      <trkpt lat="45.34439" lon="6.29073">
        <ele>464.6</ele>
        <time>2022-07-17T05:55:53Z</time>
      </trkpt>
      <trkpt lat="45.34435" lon="6.29072">
        <ele>464.8</ele>
        <time>2022-07-17T05:55:54Z</time>
      </trkpt>
      <trkpt lat="45.34431" lon="6.29072">
        <ele>464.8</ele>
        <time>2022-07-17T05:55:55Z</time>
      </trkpt>
      <trkpt lat="45.34427" lon="6.29072">
        <ele>465</ele>
        <time>2022-07-17T05:55:56Z</time>
      </trkpt>
      <trkpt lat="45.34423" lon="6.29072">
        <ele>465</ele>
        <time>2022-07-17T05:55:57Z</time>
      </trkpt>
      <trkpt lat="45.34415" lon="6.29072">
        <ele>465.4</ele>
        <time>2022-07-17T05:55:58Z</time>
      </trkpt>
      <trkpt lat="45.34411" lon="6.29072">
        <ele>465.8</ele>
        <time>2022-07-17T05:55:59Z</time>
      </trkpt>
      <trkpt lat="45.34407" lon="6.29073">
        <ele>465.8</ele>
        <time>2022-07-17T05:56:00Z</time>
      </trkpt>
      <trkpt lat="45.34404" lon="6.29073">
        <ele>466</ele>
        <time>2022-07-17T05:56:01Z</time>
      </trkpt>
      <trkpt lat="45.344" lon="6.29074">
        <ele>466</ele>
        <time>2022-07-17T05:56:02Z</time>
      </trkpt>
      <trkpt lat="45.34396" lon="6.29075">
        <ele>466.2</ele>
        <time>2022-07-17T05:56:03Z</time>
      </trkpt>
      <trkpt lat="45.34393" lon="6.29075">
        <ele>466.2</ele>
        <time>2022-07-17T05:56:04Z</time>
      </trkpt>
      <trkpt lat="45.34389" lon="6.29076">
        <ele>466.4</ele>
        <time>2022-07-17T05:56:05Z</time>
      </trkpt>
      <trkpt lat="45.34385" lon="6.29077">
        <ele>466.4</ele>
        <time>2022-07-17T05:56:06Z</time>
      </trkpt>
      <trkpt lat="45.34381" lon="6.29077">
        <ele>466.4</ele>
        <time>2022-07-17T05:56:07Z</time>
      </trkpt>
      <trkpt lat="45.34377" lon="6.29077">
        <ele>466.8</ele>
        <time>2022-07-17T05:56:08Z</time>
      </trkpt>
      <trkpt lat="45.34373" lon="6.29078">
        <ele>466.8</ele>
        <time>2022-07-17T05:56:09Z</time>
      </trkpt>
      <trkpt lat="45.3437" lon="6.29078">
        <ele>467</ele>
        <time>2022-07-17T05:56:10Z</time>
      </trkpt>
      <trkpt lat="45.34366" lon="6.29079">
        <ele>467</ele>
        <time>2022-07-17T05:56:11Z</time>
      </trkpt>
      <trkpt lat="45.34362" lon="6.29079">
        <ele>467.4</ele>
        <time>2022-07-17T05:56:12Z</time>
      </trkpt>
      <trkpt lat="45.34358" lon="6.29079">
        <ele>467.4</ele>
        <time>2022-07-17T05:56:13Z</time>
      </trkpt>
      <trkpt lat="45.34354" lon="6.29079">
        <ele>467.6</ele>
        <time>2022-07-17T05:56:14Z</time>
      </trkpt>
      <trkpt lat="45.3435" lon="6.2908">
        <ele>467.6</ele>
        <time>2022-07-17T05:56:15Z</time>
      </trkpt>
      <trkpt lat="45.34347" lon="6.29081">
        <ele>468</ele>
        <time>2022-07-17T05:56:16Z</time>
      </trkpt>
      <trkpt lat="45.34343" lon="6.29083">
        <ele>468</ele>
        <time>2022-07-17T05:56:17Z</time>
      </trkpt>
      <trkpt lat="45.3434" lon="6.29086">
        <ele>468.2</ele>
        <time>2022-07-17T05:56:18Z</time>
      </trkpt>
      <trkpt lat="45.34337" lon="6.29089">
        <ele>468.2</ele>
        <time>2022-07-17T05:56:19Z</time>
      </trkpt>
      <trkpt lat="45.34334" lon="6.29091">
        <ele>468.2</ele>
        <time>2022-07-17T05:56:20Z</time>
      </trkpt>
      <trkpt lat="45.34331" lon="6.29094">
        <ele>468.6</ele>
        <time>2022-07-17T05:56:21Z</time>
      </trkpt>
      <trkpt lat="45.34328" lon="6.29097">
        <ele>468.6</ele>
        <time>2022-07-17T05:56:22Z</time>
      </trkpt>
      <trkpt lat="45.34325" lon="6.29099">
        <ele>468.8</ele>
        <time>2022-07-17T05:56:23Z</time>
      </trkpt>
      <trkpt lat="45.34322" lon="6.29101">
        <ele>468.8</ele>
        <time>2022-07-17T05:56:24Z</time>
      </trkpt>
      <trkpt lat="45.34319" lon="6.29103">
        <ele>469</ele>
        <time>2022-07-17T05:56:25Z</time>
      </trkpt>
      <trkpt lat="45.34316" lon="6.29105">
        <ele>469</ele>
        <time>2022-07-17T05:56:26Z</time>
      </trkpt>
      <trkpt lat="45.34313" lon="6.29107">
        <ele>469.2</ele>
        <time>2022-07-17T05:56:27Z</time>
      </trkpt>
      <trkpt lat="45.3431" lon="6.29109">
        <ele>469.2</ele>
        <time>2022-07-17T05:56:28Z</time>
      </trkpt>
      <trkpt lat="45.34307" lon="6.29112">
        <ele>469.4</ele>
        <time>2022-07-17T05:56:29Z</time>
      </trkpt>
      <trkpt lat="45.34304" lon="6.29115">
        <ele>469.4</ele>
        <time>2022-07-17T05:56:30Z</time>
      </trkpt>
      <trkpt lat="45.34301" lon="6.29117">
        <ele>469.8</ele>
        <time>2022-07-17T05:56:31Z</time>
      </trkpt>
      <trkpt lat="45.34297" lon="6.29119">
        <ele>470</ele>
        <time>2022-07-17T05:56:33Z</time>
      </trkpt>
      <trkpt lat="45.34294" lon="6.2912">
        <ele>470</ele>
        <time>2022-07-17T05:56:34Z</time>
      </trkpt>
      <trkpt lat="45.34291" lon="6.29121">
        <ele>470.2</ele>
        <time>2022-07-17T05:56:35Z</time>
      </trkpt>
      <trkpt lat="45.34288" lon="6.29121">
        <ele>470.6</ele>
        <time>2022-07-17T05:56:36Z</time>
      </trkpt>
      <trkpt lat="45.34285" lon="6.29122">
        <ele>470.6</ele>
        <time>2022-07-17T05:56:37Z</time>
      </trkpt>
      <trkpt lat="45.34281" lon="6.29122">
        <ele>470.8</ele>
        <time>2022-07-17T05:56:38Z</time>
      </trkpt>
      <trkpt lat="45.34278" lon="6.29121">
        <ele>471.2</ele>
        <time>2022-07-17T05:56:39Z</time>
      </trkpt>
      <trkpt lat="45.34276" lon="6.2912">
        <ele>471.4</ele>
        <time>2022-07-17T05:56:40Z</time>
      </trkpt>
      <trkpt lat="45.34273" lon="6.29118">
        <ele>471.4</ele>
        <time>2022-07-17T05:56:41Z</time>
      </trkpt>
      <trkpt lat="45.3427" lon="6.29116">
        <ele>471.8</ele>
        <time>2022-07-17T05:56:42Z</time>
      </trkpt>
      <trkpt lat="45.34266" lon="6.29115">
        <ele>472</ele>
        <time>2022-07-17T05:56:43Z</time>
      </trkpt>
      <trkpt lat="45.34263" lon="6.29113">
        <ele>472</ele>
        <time>2022-07-17T05:56:44Z</time>
      </trkpt>
      <trkpt lat="45.34259" lon="6.29112">
        <ele>472.2</ele>
        <time>2022-07-17T05:56:45Z</time>
      </trkpt>
      <trkpt lat="45.34256" lon="6.29112">
        <ele>472.6</ele>
        <time>2022-07-17T05:56:46Z</time>
      </trkpt>
      <trkpt lat="45.34253" lon="6.29112">
        <ele>472.6</ele>
        <time>2022-07-17T05:56:47Z</time>
      </trkpt>
      <trkpt lat="45.3425" lon="6.29113">
        <ele>472.8</ele>
        <time>2022-07-17T05:56:48Z</time>
      </trkpt>
      <trkpt lat="45.34248" lon="6.29115">
        <ele>473.2</ele>
        <time>2022-07-17T05:56:49Z</time>
      </trkpt>
      <trkpt lat="45.34245" lon="6.29118">
        <ele>473.2</ele>
        <time>2022-07-17T05:56:50Z</time>
      </trkpt>
      <trkpt lat="45.34243" lon="6.29121">
        <ele>473.6</ele>
        <time>2022-07-17T05:56:51Z</time>
      </trkpt>
      <trkpt lat="45.34241" lon="6.29124">
        <ele>473.6</ele>
        <time>2022-07-17T05:56:52Z</time>
      </trkpt>
      <trkpt lat="45.34239" lon="6.29125">
        <ele>473.8</ele>
        <time>2022-07-17T05:56:53Z</time>
      </trkpt>
      <trkpt lat="45.34237" lon="6.29125">
        <ele>473.8</ele>
        <time>2022-07-17T05:56:54Z</time>
      </trkpt>
      <trkpt lat="45.34235" lon="6.29125">
        <ele>474.2</ele>
        <time>2022-07-17T05:56:55Z</time>
      </trkpt>
      <trkpt lat="45.34233" lon="6.29126">
        <ele>474.2</ele>
        <time>2022-07-17T05:56:56Z</time>
      </trkpt>
      <trkpt lat="45.34231" lon="6.29128">
        <ele>474.4</ele>
        <time>2022-07-17T05:56:57Z</time>
      </trkpt>
      <trkpt lat="45.34229" lon="6.2913">
        <ele>474.4</ele>
        <time>2022-07-17T05:56:58Z</time>
      </trkpt>
      <trkpt lat="45.34227" lon="6.29134">
        <ele>474.4</ele>
        <time>2022-07-17T05:56:59Z</time>
      </trkpt>
      <trkpt lat="45.34225" lon="6.29138">
        <ele>474.4</ele>
        <time>2022-07-17T05:57:00Z</time>
      </trkpt>
      <trkpt lat="45.34224" lon="6.29143">
        <ele>474.4</ele>
        <time>2022-07-17T05:57:01Z</time>
      </trkpt>
      <trkpt lat="45.34222" lon="6.29148">
        <ele>474.6</ele>
        <time>2022-07-17T05:57:02Z</time>
      </trkpt>
      <trkpt lat="45.3422" lon="6.29154">
        <ele>474.6</ele>
        <time>2022-07-17T05:57:03Z</time>
      </trkpt>
      <trkpt lat="45.34218" lon="6.2916">
        <ele>474.6</ele>
        <time>2022-07-17T05:57:04Z</time>
      </trkpt>
      <trkpt lat="45.34216" lon="6.29166">
        <ele>474.6</ele>
        <time>2022-07-17T05:57:05Z</time>
      </trkpt>
      <trkpt lat="45.34213" lon="6.29172">
        <ele>475</ele>
        <time>2022-07-17T05:57:06Z</time>
      </trkpt>
      <trkpt lat="45.34211" lon="6.29179">
        <ele>475</ele>
        <time>2022-07-17T05:57:07Z</time>
      </trkpt>
      <trkpt lat="45.34209" lon="6.29186">
        <ele>475</ele>
        <time>2022-07-17T05:57:08Z</time>
      </trkpt>
      <trkpt lat="45.34207" lon="6.29193">
        <ele>475</ele>
        <time>2022-07-17T05:57:09Z</time>
      </trkpt>
      <trkpt lat="45.34205" lon="6.292">
        <ele>475.2</ele>
        <time>2022-07-17T05:57:10Z</time>
      </trkpt>
      <trkpt lat="45.34203" lon="6.29207">
        <ele>475.2</ele>
        <time>2022-07-17T05:57:11Z</time>
      </trkpt>
      <trkpt lat="45.34201" lon="6.29213">
        <ele>475.2</ele>
        <time>2022-07-17T05:57:12Z</time>
      </trkpt>
      <trkpt lat="45.34199" lon="6.29219">
        <ele>475.2</ele>
        <time>2022-07-17T05:57:13Z</time>
      </trkpt>
      <trkpt lat="45.34197" lon="6.29226">
        <ele>475.2</ele>
        <time>2022-07-17T05:57:14Z</time>
      </trkpt>
      <trkpt lat="45.34196" lon="6.29233">
        <ele>475.2</ele>
        <time>2022-07-17T05:57:15Z</time>
      </trkpt>
      <trkpt lat="45.34194" lon="6.29239">
        <ele>475.2</ele>
        <time>2022-07-17T05:57:16Z</time>
      </trkpt>
      <trkpt lat="45.34192" lon="6.29246">
        <ele>475.2</ele>
        <time>2022-07-17T05:57:17Z</time>
      </trkpt>
      <trkpt lat="45.3419" lon="6.29252">
        <ele>475.2</ele>
        <time>2022-07-17T05:57:18Z</time>
      </trkpt>
      <trkpt lat="45.34189" lon="6.29259">
        <ele>475.4</ele>
        <time>2022-07-17T05:57:19Z</time>
      </trkpt>
      <trkpt lat="45.34187" lon="6.29265">
        <ele>475.4</ele>
        <time>2022-07-17T05:57:20Z</time>
      </trkpt>
      <trkpt lat="45.34186" lon="6.29272">
        <ele>475.4</ele>
        <time>2022-07-17T05:57:21Z</time>
      </trkpt>
      <trkpt lat="45.34185" lon="6.29279">
        <ele>475.4</ele>
        <time>2022-07-17T05:57:22Z</time>
      </trkpt>
      <trkpt lat="45.34183" lon="6.29286">
        <ele>475.4</ele>
        <time>2022-07-17T05:57:23Z</time>
      </trkpt>
      <trkpt lat="45.34182" lon="6.29294">
        <ele>475.4</ele>
        <time>2022-07-17T05:57:24Z</time>
      </trkpt>
      <trkpt lat="45.3418" lon="6.29301">
        <ele>475.4</ele>
        <time>2022-07-17T05:57:25Z</time>
      </trkpt>
      <trkpt lat="45.34178" lon="6.29308">
        <ele>475.4</ele>
        <time>2022-07-17T05:57:26Z</time>
      </trkpt>
      <trkpt lat="45.34176" lon="6.29315">
        <ele>475.4</ele>
        <time>2022-07-17T05:57:27Z</time>
      </trkpt>
      <trkpt lat="45.34175" lon="6.29322">
        <ele>475.4</ele>
        <time>2022-07-17T05:57:28Z</time>
      </trkpt>
      <trkpt lat="45.34173" lon="6.29328">
        <ele>475.4</ele>
        <time>2022-07-17T05:57:29Z</time>
      </trkpt>
      <trkpt lat="45.34171" lon="6.29335">
        <ele>475.4</ele>
        <time>2022-07-17T05:57:30Z</time>
      </trkpt>
      <trkpt lat="45.34169" lon="6.29342">
        <ele>475.4</ele>
        <time>2022-07-17T05:57:31Z</time>
      </trkpt>
      <trkpt lat="45.34168" lon="6.2935">
        <ele>475.4</ele>
        <time>2022-07-17T05:57:32Z</time>
      </trkpt>
      <trkpt lat="45.34166" lon="6.29357">
        <ele>475.4</ele>
        <time>2022-07-17T05:57:33Z</time>
      </trkpt>
      <trkpt lat="45.34165" lon="6.29364">
        <ele>475.4</ele>
        <time>2022-07-17T05:57:34Z</time>
      </trkpt>
      <trkpt lat="45.34163" lon="6.29371">
        <ele>475.4</ele>
        <time>2022-07-17T05:57:35Z</time>
      </trkpt>
      <trkpt lat="45.34161" lon="6.29378">
        <ele>475.4</ele>
        <time>2022-07-17T05:57:36Z</time>
      </trkpt>
      <trkpt lat="45.34159" lon="6.29386">
        <ele>475.4</ele>
        <time>2022-07-17T05:57:37Z</time>
      </trkpt>
      <trkpt lat="45.34157" lon="6.29393">
        <ele>475.4</ele>
        <time>2022-07-17T05:57:38Z</time>
      </trkpt>
      <trkpt lat="45.34156" lon="6.294">
        <ele>475.4</ele>
        <time>2022-07-17T05:57:39Z</time>
      </trkpt>
      <trkpt lat="45.34154" lon="6.29407">
        <ele>475.4</ele>
        <time>2022-07-17T05:57:40Z</time>
      </trkpt>
      <trkpt lat="45.34152" lon="6.29415">
        <ele>475.4</ele>
        <time>2022-07-17T05:57:41Z</time>
      </trkpt>
      <trkpt lat="45.34151" lon="6.29422">
        <ele>475.4</ele>
        <time>2022-07-17T05:57:42Z</time>
      </trkpt>
      <trkpt lat="45.34149" lon="6.29429">
        <ele>475.4</ele>
        <time>2022-07-17T05:57:43Z</time>
      </trkpt>
      <trkpt lat="45.34147" lon="6.29436">
        <ele>475.4</ele>
        <time>2022-07-17T05:57:44Z</time>
      </trkpt>
      <trkpt lat="45.34146" lon="6.29443">
        <ele>475.4</ele>
        <time>2022-07-17T05:57:45Z</time>
      </trkpt>
      <trkpt lat="45.34144" lon="6.2945">
        <ele>475.6</ele>
        <time>2022-07-17T05:57:46Z</time>
      </trkpt>
      <trkpt lat="45.34142" lon="6.29458">
        <ele>475.6</ele>
        <time>2022-07-17T05:57:47Z</time>
      </trkpt>
      <trkpt lat="45.3414" lon="6.29465">
        <ele>475.6</ele>
        <time>2022-07-17T05:57:48Z</time>
      </trkpt>
      <trkpt lat="45.34138" lon="6.29472">
        <ele>475.6</ele>
        <time>2022-07-17T05:57:49Z</time>
      </trkpt>
      <trkpt lat="45.34137" lon="6.2948">
        <ele>476</ele>
        <time>2022-07-17T05:57:50Z</time>
      </trkpt>
      <trkpt lat="45.34135" lon="6.29487">
        <ele>476</ele>
        <time>2022-07-17T05:57:51Z</time>
      </trkpt>
      <trkpt lat="45.34133" lon="6.29494">
        <ele>476</ele>
        <time>2022-07-17T05:57:52Z</time>
      </trkpt>
      <trkpt lat="45.34132" lon="6.29501">
        <ele>476.2</ele>
        <time>2022-07-17T05:57:53Z</time>
      </trkpt>
      <trkpt lat="45.3413" lon="6.29508">
        <ele>476.2</ele>
        <time>2022-07-17T05:57:54Z</time>
      </trkpt>
      <trkpt lat="45.34129" lon="6.29515">
        <ele>476.2</ele>
        <time>2022-07-17T05:57:55Z</time>
      </trkpt>
      <trkpt lat="45.34127" lon="6.29522">
        <ele>476.2</ele>
        <time>2022-07-17T05:57:56Z</time>
      </trkpt>
      <trkpt lat="45.34125" lon="6.29529">
        <ele>476.2</ele>
        <time>2022-07-17T05:57:57Z</time>
      </trkpt>
      <trkpt lat="45.34123" lon="6.29536">
        <ele>476.2</ele>
        <time>2022-07-17T05:57:58Z</time>
      </trkpt>
      <trkpt lat="45.34122" lon="6.29544">
        <ele>476.2</ele>
        <time>2022-07-17T05:57:59Z</time>
      </trkpt>
      <trkpt lat="45.34118" lon="6.29558">
        <ele>476.2</ele>
        <time>2022-07-17T05:58:00Z</time>
      </trkpt>
      <trkpt lat="45.34117" lon="6.29566">
        <ele>476.2</ele>
        <time>2022-07-17T05:58:01Z</time>
      </trkpt>
      <trkpt lat="45.34115" lon="6.29574">
        <ele>476.2</ele>
        <time>2022-07-17T05:58:02Z</time>
      </trkpt>
      <trkpt lat="45.34113" lon="6.29582">
        <ele>476</ele>
        <time>2022-07-17T05:58:03Z</time>
      </trkpt>
      <trkpt lat="45.34112" lon="6.29591">
        <ele>476</ele>
        <time>2022-07-17T05:58:04Z</time>
      </trkpt>
      <trkpt lat="45.3411" lon="6.29599">
        <ele>476</ele>
        <time>2022-07-17T05:58:05Z</time>
      </trkpt>
      <trkpt lat="45.34108" lon="6.29607">
        <ele>475.6</ele>
        <time>2022-07-17T05:58:06Z</time>
      </trkpt>
      <trkpt lat="45.34107" lon="6.29616">
        <ele>475.6</ele>
        <time>2022-07-17T05:58:07Z</time>
      </trkpt>
      <trkpt lat="45.34106" lon="6.29625">
        <ele>475.4</ele>
        <time>2022-07-17T05:58:08Z</time>
      </trkpt>
      <trkpt lat="45.34105" lon="6.29633">
        <ele>475.2</ele>
        <time>2022-07-17T05:58:09Z</time>
      </trkpt>
      <trkpt lat="45.34104" lon="6.29642">
        <ele>475.2</ele>
        <time>2022-07-17T05:58:10Z</time>
      </trkpt>
      <trkpt lat="45.34103" lon="6.29651">
        <ele>475</ele>
        <time>2022-07-17T05:58:11Z</time>
      </trkpt>
      <trkpt lat="45.34102" lon="6.2966">
        <ele>475</ele>
        <time>2022-07-17T05:58:12Z</time>
      </trkpt>
      <trkpt lat="45.34101" lon="6.29669">
        <ele>475</ele>
        <time>2022-07-17T05:58:13Z</time>
      </trkpt>
      <trkpt lat="45.341" lon="6.29677">
        <ele>474.6</ele>
        <time>2022-07-17T05:58:14Z</time>
      </trkpt>
      <trkpt lat="45.341" lon="6.29686">
        <ele>474.6</ele>
        <time>2022-07-17T05:58:15Z</time>
      </trkpt>
      <trkpt lat="45.34098" lon="6.29694">
        <ele>474.6</ele>
        <time>2022-07-17T05:58:16Z</time>
      </trkpt>
      <trkpt lat="45.34097" lon="6.29702">
        <ele>474.4</ele>
        <time>2022-07-17T05:58:17Z</time>
      </trkpt>
      <trkpt lat="45.34096" lon="6.2971">
        <ele>474.4</ele>
        <time>2022-07-17T05:58:18Z</time>
      </trkpt>
      <trkpt lat="45.34095" lon="6.29719">
        <ele>474.2</ele>
        <time>2022-07-17T05:58:19Z</time>
      </trkpt>
      <trkpt lat="45.34094" lon="6.29727">
        <ele>474.2</ele>
        <time>2022-07-17T05:58:20Z</time>
      </trkpt>
      <trkpt lat="45.34093" lon="6.29735">
        <ele>474.2</ele>
        <time>2022-07-17T05:58:21Z</time>
      </trkpt>
      <trkpt lat="45.34092" lon="6.29743">
        <ele>474.2</ele>
        <time>2022-07-17T05:58:22Z</time>
      </trkpt>
      <trkpt lat="45.34091" lon="6.2975">
        <ele>474</ele>
        <time>2022-07-17T05:58:23Z</time>
      </trkpt>
      <trkpt lat="45.3409" lon="6.29758">
        <ele>474</ele>
        <time>2022-07-17T05:58:24Z</time>
      </trkpt>
      <trkpt lat="45.34088" lon="6.29765">
        <ele>474</ele>
        <time>2022-07-17T05:58:25Z</time>
      </trkpt>
      <trkpt lat="45.34086" lon="6.29773">
        <ele>474</ele>
        <time>2022-07-17T05:58:26Z</time>
      </trkpt>
      <trkpt lat="45.34084" lon="6.29781">
        <ele>474</ele>
        <time>2022-07-17T05:58:27Z</time>
      </trkpt>
      <trkpt lat="45.34082" lon="6.29788">
        <ele>474</ele>
        <time>2022-07-17T05:58:28Z</time>
      </trkpt>
      <trkpt lat="45.34079" lon="6.29796">
        <ele>473.8</ele>
        <time>2022-07-17T05:58:29Z</time>
      </trkpt>
      <trkpt lat="45.34076" lon="6.29803">
        <ele>473.8</ele>
        <time>2022-07-17T05:58:30Z</time>
      </trkpt>
      <trkpt lat="45.34074" lon="6.29811">
        <ele>473.6</ele>
        <time>2022-07-17T05:58:31Z</time>
      </trkpt>
      <trkpt lat="45.34071" lon="6.29819">
        <ele>473.6</ele>
        <time>2022-07-17T05:58:32Z</time>
      </trkpt>
      <trkpt lat="45.34068" lon="6.29827">
        <ele>473.2</ele>
        <time>2022-07-17T05:58:33Z</time>
      </trkpt>
      <trkpt lat="45.34065" lon="6.29835">
        <ele>473.2</ele>
        <time>2022-07-17T05:58:34Z</time>
      </trkpt>
      <trkpt lat="45.34061" lon="6.29843">
        <ele>472.6</ele>
        <time>2022-07-17T05:58:36Z</time>
      </trkpt>
      <trkpt lat="45.34058" lon="6.29851">
        <ele>472.6</ele>
        <time>2022-07-17T05:58:37Z</time>
      </trkpt>
      <trkpt lat="45.34055" lon="6.29859">
        <ele>472.2</ele>
        <time>2022-07-17T05:58:38Z</time>
      </trkpt>
      <trkpt lat="45.34051" lon="6.29867">
        <ele>472.2</ele>
        <time>2022-07-17T05:58:39Z</time>
      </trkpt>
      <trkpt lat="45.34048" lon="6.29875">
        <ele>472</ele>
        <time>2022-07-17T05:58:40Z</time>
      </trkpt>
      <trkpt lat="45.34045" lon="6.29883">
        <ele>472</ele>
        <time>2022-07-17T05:58:41Z</time>
      </trkpt>
      <trkpt lat="45.34041" lon="6.29891">
        <ele>472</ele>
        <time>2022-07-17T05:58:42Z</time>
      </trkpt>
      <trkpt lat="45.34039" lon="6.29899">
        <ele>471.8</ele>
        <time>2022-07-17T05:58:43Z</time>
      </trkpt>
      <trkpt lat="45.34036" lon="6.29907">
        <ele>471.8</ele>
        <time>2022-07-17T05:58:44Z</time>
      </trkpt>
      <trkpt lat="45.34034" lon="6.29915">
        <ele>471.8</ele>
        <time>2022-07-17T05:58:45Z</time>
      </trkpt>
      <trkpt lat="45.34031" lon="6.29922">
        <ele>471.4</ele>
        <time>2022-07-17T05:58:46Z</time>
      </trkpt>
      <trkpt lat="45.34029" lon="6.2993">
        <ele>471.4</ele>
        <time>2022-07-17T05:58:47Z</time>
      </trkpt>
      <trkpt lat="45.34027" lon="6.29939">
        <ele>471.4</ele>
        <time>2022-07-17T05:58:48Z</time>
      </trkpt>
      <trkpt lat="45.34025" lon="6.29947">
        <ele>471.2</ele>
        <time>2022-07-17T05:58:49Z</time>
      </trkpt>
      <trkpt lat="45.34023" lon="6.29956">
        <ele>471.2</ele>
        <time>2022-07-17T05:58:50Z</time>
      </trkpt>
      <trkpt lat="45.3402" lon="6.29965">
        <ele>471.2</ele>
        <time>2022-07-17T05:58:51Z</time>
      </trkpt>
      <trkpt lat="45.34018" lon="6.29974">
        <ele>471.2</ele>
        <time>2022-07-17T05:58:52Z</time>
      </trkpt>
      <trkpt lat="45.34016" lon="6.29983">
        <ele>471.2</ele>
        <time>2022-07-17T05:58:53Z</time>
      </trkpt>
      <trkpt lat="45.34013" lon="6.29991">
        <ele>471.2</ele>
        <time>2022-07-17T05:58:54Z</time>
      </trkpt>
      <trkpt lat="45.3401" lon="6.29998">
        <ele>471.2</ele>
        <time>2022-07-17T05:58:55Z</time>
      </trkpt>
      <trkpt lat="45.34006" lon="6.30006">
        <ele>471.2</ele>
        <time>2022-07-17T05:58:56Z</time>
      </trkpt>
      <trkpt lat="45.34002" lon="6.30012">
        <ele>471</ele>
        <time>2022-07-17T05:58:57Z</time>
      </trkpt>
      <trkpt lat="45.33997" lon="6.30018">
        <ele>471</ele>
        <time>2022-07-17T05:58:58Z</time>
      </trkpt>
      <trkpt lat="45.33992" lon="6.30023">
        <ele>471</ele>
        <time>2022-07-17T05:58:59Z</time>
      </trkpt>
      <trkpt lat="45.33987" lon="6.30028">
        <ele>471</ele>
        <time>2022-07-17T05:59:00Z</time>
      </trkpt>
      <trkpt lat="45.33982" lon="6.30032">
        <ele>471</ele>
        <time>2022-07-17T05:59:01Z</time>
      </trkpt>
      <trkpt lat="45.33976" lon="6.30037">
        <ele>470.8</ele>
        <time>2022-07-17T05:59:02Z</time>
      </trkpt>
      <trkpt lat="45.33971" lon="6.30042">
        <ele>470.8</ele>
        <time>2022-07-17T05:59:03Z</time>
      </trkpt>
      <trkpt lat="45.33966" lon="6.30046">
        <ele>470.8</ele>
        <time>2022-07-17T05:59:04Z</time>
      </trkpt>
      <trkpt lat="45.33961" lon="6.30051">
        <ele>470.8</ele>
        <time>2022-07-17T05:59:05Z</time>
      </trkpt>
      <trkpt lat="45.33956" lon="6.30055">
        <ele>470.8</ele>
        <time>2022-07-17T05:59:06Z</time>
      </trkpt>
      <trkpt lat="45.3395" lon="6.3006">
        <ele>470.4</ele>
        <time>2022-07-17T05:59:07Z</time>
      </trkpt>
      <trkpt lat="45.33945" lon="6.30064">
        <ele>470.4</ele>
        <time>2022-07-17T05:59:08Z</time>
      </trkpt>
      <trkpt lat="45.3394" lon="6.30068">
        <ele>470.4</ele>
        <time>2022-07-17T05:59:09Z</time>
      </trkpt>
      <trkpt lat="45.33935" lon="6.30072">
        <ele>470.4</ele>
        <time>2022-07-17T05:59:10Z</time>
      </trkpt>
      <trkpt lat="45.3393" lon="6.30077">
        <ele>470</ele>
        <time>2022-07-17T05:59:11Z</time>
      </trkpt>
      <trkpt lat="45.33924" lon="6.30081">
        <ele>470</ele>
        <time>2022-07-17T05:59:12Z</time>
      </trkpt>
      <trkpt lat="45.33919" lon="6.30087">
        <ele>469.6</ele>
        <time>2022-07-17T05:59:13Z</time>
      </trkpt>
      <trkpt lat="45.33914" lon="6.30092">
        <ele>469.4</ele>
        <time>2022-07-17T05:59:14Z</time>
      </trkpt>
      <trkpt lat="45.33908" lon="6.30099">
        <ele>469.2</ele>
        <time>2022-07-17T05:59:15Z</time>
      </trkpt>
      <trkpt lat="45.33903" lon="6.30106">
        <ele>468.8</ele>
        <time>2022-07-17T05:59:16Z</time>
      </trkpt>
      <trkpt lat="45.33899" lon="6.30114">
        <ele>468.8</ele>
        <time>2022-07-17T05:59:17Z</time>
      </trkpt>
      <trkpt lat="45.33895" lon="6.30122">
        <ele>468.4</ele>
        <time>2022-07-17T05:59:18Z</time>
      </trkpt>
      <trkpt lat="45.33891" lon="6.3013">
        <ele>468.4</ele>
        <time>2022-07-17T05:59:19Z</time>
      </trkpt>
      <trkpt lat="45.33886" lon="6.30137">
        <ele>468</ele>
        <time>2022-07-17T05:59:20Z</time>
      </trkpt>
      <trkpt lat="45.33882" lon="6.30146">
        <ele>467.8</ele>
        <time>2022-07-17T05:59:21Z</time>
      </trkpt>
      <trkpt lat="45.33878" lon="6.30154">
        <ele>467.4</ele>
        <time>2022-07-17T05:59:22Z</time>
      </trkpt>
      <trkpt lat="45.33873" lon="6.30161">
        <ele>467.2</ele>
        <time>2022-07-17T05:59:23Z</time>
      </trkpt>
      <trkpt lat="45.33867" lon="6.30169">
        <ele>466.8</ele>
        <time>2022-07-17T05:59:24Z</time>
      </trkpt>
      <trkpt lat="45.33861" lon="6.30176">
        <ele>466.4</ele>
        <time>2022-07-17T05:59:25Z</time>
      </trkpt>
      <trkpt lat="45.33853" lon="6.30182">
        <ele>465.8</ele>
        <time>2022-07-17T05:59:26Z</time>
      </trkpt>
      <trkpt lat="45.33846" lon="6.30189">
        <ele>465.4</ele>
        <time>2022-07-17T05:59:27Z</time>
      </trkpt>
      <trkpt lat="45.33838" lon="6.30196">
        <ele>465</ele>
        <time>2022-07-17T05:59:28Z</time>
      </trkpt>
      <trkpt lat="45.3383" lon="6.30203">
        <ele>464.6</ele>
        <time>2022-07-17T05:59:29Z</time>
      </trkpt>
      <trkpt lat="45.33823" lon="6.30211">
        <ele>464.2</ele>
        <time>2022-07-17T05:59:30Z</time>
      </trkpt>
      <trkpt lat="45.33815" lon="6.3022">
        <ele>463.6</ele>
        <time>2022-07-17T05:59:31Z</time>
      </trkpt>
      <trkpt lat="45.33807" lon="6.30228">
        <ele>463.2</ele>
        <time>2022-07-17T05:59:32Z</time>
      </trkpt>
      <trkpt lat="45.33798" lon="6.30236">
        <ele>462.6</ele>
        <time>2022-07-17T05:59:33Z</time>
      </trkpt>
      <trkpt lat="45.3379" lon="6.30245">
        <ele>462</ele>
        <time>2022-07-17T05:59:34Z</time>
      </trkpt>
      <trkpt lat="45.33781" lon="6.30253">
        <ele>461.4</ele>
        <time>2022-07-17T05:59:35Z</time>
      </trkpt>
      <trkpt lat="45.33771" lon="6.30261">
        <ele>460.8</ele>
        <time>2022-07-17T05:59:36Z</time>
      </trkpt>
      <trkpt lat="45.33762" lon="6.30269">
        <ele>460.2</ele>
        <time>2022-07-17T05:59:37Z</time>
      </trkpt>
      <trkpt lat="45.33752" lon="6.30276">
        <ele>459.6</ele>
        <time>2022-07-17T05:59:38Z</time>
      </trkpt>
      <trkpt lat="45.33743" lon="6.30283">
        <ele>459</ele>
        <time>2022-07-17T05:59:39Z</time>
      </trkpt>
      <trkpt lat="45.33734" lon="6.3029">
        <ele>458.6</ele>
        <time>2022-07-17T05:59:40Z</time>
      </trkpt>
      <trkpt lat="45.33725" lon="6.30297">
        <ele>458.2</ele>
        <time>2022-07-17T05:59:41Z</time>
      </trkpt>
      <trkpt lat="45.33716" lon="6.30304">
        <ele>457.8</ele>
        <time>2022-07-17T05:59:42Z</time>
      </trkpt>
      <trkpt lat="45.33707" lon="6.30311">
        <ele>457.4</ele>
        <time>2022-07-17T05:59:43Z</time>
      </trkpt>
      <trkpt lat="45.33699" lon="6.30317">
        <ele>457.2</ele>
        <time>2022-07-17T05:59:44Z</time>
      </trkpt>
      <trkpt lat="45.33691" lon="6.30324">
        <ele>456.8</ele>
        <time>2022-07-17T05:59:45Z</time>
      </trkpt>
      <trkpt lat="45.33683" lon="6.30331">
        <ele>456.4</ele>
        <time>2022-07-17T05:59:46Z</time>
      </trkpt>
      <trkpt lat="45.33675" lon="6.30338">
        <ele>456</ele>
        <time>2022-07-17T05:59:47Z</time>
      </trkpt>
      <trkpt lat="45.33667" lon="6.30345">
        <ele>455.8</ele>
        <time>2022-07-17T05:59:48Z</time>
      </trkpt>
      <trkpt lat="45.3366" lon="6.30351">
        <ele>455.6</ele>
        <time>2022-07-17T05:59:49Z</time>
      </trkpt>
      <trkpt lat="45.33652" lon="6.30358">
        <ele>455.2</ele>
        <time>2022-07-17T05:59:50Z</time>
      </trkpt>
      <trkpt lat="45.33646" lon="6.30365">
        <ele>455</ele>
        <time>2022-07-17T05:59:51Z</time>
      </trkpt>
      <trkpt lat="45.33639" lon="6.30372">
        <ele>454.8</ele>
        <time>2022-07-17T05:59:52Z</time>
      </trkpt>
      <trkpt lat="45.33633" lon="6.3038">
        <ele>454.8</ele>
        <time>2022-07-17T05:59:53Z</time>
      </trkpt>
      <trkpt lat="45.33626" lon="6.30387">
        <ele>454.8</ele>
        <time>2022-07-17T05:59:54Z</time>
      </trkpt>
      <trkpt lat="45.33619" lon="6.30393">
        <ele>454.6</ele>
        <time>2022-07-17T05:59:55Z</time>
      </trkpt>
      <trkpt lat="45.33613" lon="6.304">
        <ele>454.6</ele>
        <time>2022-07-17T05:59:56Z</time>
      </trkpt>
      <trkpt lat="45.33606" lon="6.30406">
        <ele>454.6</ele>
        <time>2022-07-17T05:59:57Z</time>
      </trkpt>
      <trkpt lat="45.33599" lon="6.30411">
        <ele>454.2</ele>
        <time>2022-07-17T05:59:58Z</time>
      </trkpt>
      <trkpt lat="45.33593" lon="6.30418">
        <ele>454</ele>
        <time>2022-07-17T05:59:59Z</time>
      </trkpt>
      <trkpt lat="45.33587" lon="6.30424">
        <ele>454</ele>
        <time>2022-07-17T06:00:00Z</time>
      </trkpt>
      <trkpt lat="45.33581" lon="6.30431">
        <ele>453.8</ele>
        <time>2022-07-17T06:00:01Z</time>
      </trkpt>
      <trkpt lat="45.33576" lon="6.30438">
        <ele>453.8</ele>
        <time>2022-07-17T06:00:02Z</time>
      </trkpt>
      <trkpt lat="45.33571" lon="6.30445">
        <ele>453.8</ele>
        <time>2022-07-17T06:00:03Z</time>
      </trkpt>
      <trkpt lat="45.33566" lon="6.30452">
        <ele>453.6</ele>
        <time>2022-07-17T06:00:04Z</time>
      </trkpt>
      <trkpt lat="45.33561" lon="6.3046">
        <ele>453.6</ele>
        <time>2022-07-17T06:00:05Z</time>
      </trkpt>
      <trkpt lat="45.33555" lon="6.30467">
        <ele>453.2</ele>
        <time>2022-07-17T06:00:06Z</time>
      </trkpt>
      <trkpt lat="45.3355" lon="6.30475">
        <ele>453.2</ele>
        <time>2022-07-17T06:00:07Z</time>
      </trkpt>
      <trkpt lat="45.33544" lon="6.30482">
        <ele>453</ele>
        <time>2022-07-17T06:00:08Z</time>
      </trkpt>
      <trkpt lat="45.33538" lon="6.30488">
        <ele>453</ele>
        <time>2022-07-17T06:00:09Z</time>
      </trkpt>
      <trkpt lat="45.33532" lon="6.30495">
        <ele>453</ele>
        <time>2022-07-17T06:00:10Z</time>
      </trkpt>
      <trkpt lat="45.33526" lon="6.30501">
        <ele>453</ele>
        <time>2022-07-17T06:00:11Z</time>
      </trkpt>
      <trkpt lat="45.33521" lon="6.30507">
        <ele>453</ele>
        <time>2022-07-17T06:00:12Z</time>
      </trkpt>
      <trkpt lat="45.33515" lon="6.30513">
        <ele>453</ele>
        <time>2022-07-17T06:00:13Z</time>
      </trkpt>
      <trkpt lat="45.3351" lon="6.30519">
        <ele>453</ele>
        <time>2022-07-17T06:00:14Z</time>
      </trkpt>
      <trkpt lat="45.33504" lon="6.30525">
        <ele>453</ele>
        <time>2022-07-17T06:00:15Z</time>
      </trkpt>
      <trkpt lat="45.33499" lon="6.3053">
        <ele>453</ele>
        <time>2022-07-17T06:00:16Z</time>
      </trkpt>
      <trkpt lat="45.33493" lon="6.30535">
        <ele>453</ele>
        <time>2022-07-17T06:00:17Z</time>
      </trkpt>
      <trkpt lat="45.33488" lon="6.3054">
        <ele>453</ele>
        <time>2022-07-17T06:00:18Z</time>
      </trkpt>
      <trkpt lat="45.33482" lon="6.30545">
        <ele>453</ele>
        <time>2022-07-17T06:00:19Z</time>
      </trkpt>
      <trkpt lat="45.33477" lon="6.3055">
        <ele>453</ele>
        <time>2022-07-17T06:00:20Z</time>
      </trkpt>
      <trkpt lat="45.33471" lon="6.30555">
        <ele>453</ele>
        <time>2022-07-17T06:00:21Z</time>
      </trkpt>
      <trkpt lat="45.33466" lon="6.30561">
        <ele>453</ele>
        <time>2022-07-17T06:00:22Z</time>
      </trkpt>
      <trkpt lat="45.33461" lon="6.30567">
        <ele>453</ele>
        <time>2022-07-17T06:00:23Z</time>
      </trkpt>
      <trkpt lat="45.33457" lon="6.30574">
        <ele>453</ele>
        <time>2022-07-17T06:00:24Z</time>
      </trkpt>
      <trkpt lat="45.33453" lon="6.30582">
        <ele>453</ele>
        <time>2022-07-17T06:00:25Z</time>
      </trkpt>
      <trkpt lat="45.3345" lon="6.30589">
        <ele>453</ele>
        <time>2022-07-17T06:00:26Z</time>
      </trkpt>
      <trkpt lat="45.33447" lon="6.30597">
        <ele>453</ele>
        <time>2022-07-17T06:00:27Z</time>
      </trkpt>
      <trkpt lat="45.33445" lon="6.30606">
        <ele>453</ele>
        <time>2022-07-17T06:00:28Z</time>
      </trkpt>
      <trkpt lat="45.33442" lon="6.30614">
        <ele>453.2</ele>
        <time>2022-07-17T06:00:29Z</time>
      </trkpt>
      <trkpt lat="45.33439" lon="6.30621">
        <ele>453.2</ele>
        <time>2022-07-17T06:00:30Z</time>
      </trkpt>
      <trkpt lat="45.33437" lon="6.30629">
        <ele>453.2</ele>
        <time>2022-07-17T06:00:31Z</time>
      </trkpt>
      <trkpt lat="45.33434" lon="6.30638">
        <ele>453.2</ele>
        <time>2022-07-17T06:00:32Z</time>
      </trkpt>
      <trkpt lat="45.33432" lon="6.30646">
        <ele>453.2</ele>
        <time>2022-07-17T06:00:33Z</time>
      </trkpt>
      <trkpt lat="45.33429" lon="6.30654">
        <ele>453.2</ele>
        <time>2022-07-17T06:00:34Z</time>
      </trkpt>
      <trkpt lat="45.33426" lon="6.30662">
        <ele>453.2</ele>
        <time>2022-07-17T06:00:35Z</time>
      </trkpt>
      <trkpt lat="45.33424" lon="6.3067">
        <ele>453.2</ele>
        <time>2022-07-17T06:00:36Z</time>
      </trkpt>
      <trkpt lat="45.33421" lon="6.30678">
        <ele>453.2</ele>
        <time>2022-07-17T06:00:37Z</time>
      </trkpt>
      <trkpt lat="45.33418" lon="6.30686">
        <ele>453.2</ele>
        <time>2022-07-17T06:00:38Z</time>
      </trkpt>
      <trkpt lat="45.33415" lon="6.30693">
        <ele>453.2</ele>
        <time>2022-07-17T06:00:39Z</time>
      </trkpt>
      <trkpt lat="45.33412" lon="6.30701">
        <ele>453.2</ele>
        <time>2022-07-17T06:00:40Z</time>
      </trkpt>
      <trkpt lat="45.33409" lon="6.30709">
        <ele>453.2</ele>
        <time>2022-07-17T06:00:41Z</time>
      </trkpt>
      <trkpt lat="45.33406" lon="6.30717">
        <ele>453.2</ele>
        <time>2022-07-17T06:00:42Z</time>
      </trkpt>
      <trkpt lat="45.33403" lon="6.30724">
        <ele>453.2</ele>
        <time>2022-07-17T06:00:43Z</time>
      </trkpt>
      <trkpt lat="45.334" lon="6.30732">
        <ele>453.6</ele>
        <time>2022-07-17T06:00:44Z</time>
      </trkpt>
      <trkpt lat="45.33397" lon="6.30739">
        <ele>453.6</ele>
        <time>2022-07-17T06:00:45Z</time>
      </trkpt>
      <trkpt lat="45.33394" lon="6.30747">
        <ele>453.6</ele>
        <time>2022-07-17T06:00:46Z</time>
      </trkpt>
      <trkpt lat="45.33391" lon="6.30755">
        <ele>453.6</ele>
        <time>2022-07-17T06:00:47Z</time>
      </trkpt>
      <trkpt lat="45.33388" lon="6.30762">
        <ele>453.6</ele>
        <time>2022-07-17T06:00:48Z</time>
      </trkpt>
      <trkpt lat="45.33385" lon="6.30769">
        <ele>453.6</ele>
        <time>2022-07-17T06:00:49Z</time>
      </trkpt>
      <trkpt lat="45.33382" lon="6.30776">
        <ele>453.6</ele>
        <time>2022-07-17T06:00:50Z</time>
      </trkpt>
      <trkpt lat="45.33378" lon="6.30783">
        <ele>453.8</ele>
        <time>2022-07-17T06:00:51Z</time>
      </trkpt>
      <trkpt lat="45.33374" lon="6.30789">
        <ele>453.8</ele>
        <time>2022-07-17T06:00:52Z</time>
      </trkpt>
      <trkpt lat="45.33371" lon="6.30796">
        <ele>453.8</ele>
        <time>2022-07-17T06:00:53Z</time>
      </trkpt>
      <trkpt lat="45.33367" lon="6.30803">
        <ele>453.8</ele>
        <time>2022-07-17T06:00:54Z</time>
      </trkpt>
      <trkpt lat="45.33362" lon="6.30809">
        <ele>453.8</ele>
        <time>2022-07-17T06:00:55Z</time>
      </trkpt>
      <trkpt lat="45.33358" lon="6.30815">
        <ele>453.8</ele>
        <time>2022-07-17T06:00:56Z</time>
      </trkpt>
      <trkpt lat="45.33353" lon="6.30821">
        <ele>453.8</ele>
        <time>2022-07-17T06:00:57Z</time>
      </trkpt>
      <trkpt lat="45.33348" lon="6.30827">
        <ele>453.8</ele>
        <time>2022-07-17T06:00:58Z</time>
      </trkpt>
      <trkpt lat="45.33343" lon="6.30831">
        <ele>453.8</ele>
        <time>2022-07-17T06:00:59Z</time>
      </trkpt>
      <trkpt lat="45.33338" lon="6.30836">
        <ele>453.8</ele>
        <time>2022-07-17T06:01:00Z</time>
      </trkpt>
      <trkpt lat="45.33333" lon="6.30841">
        <ele>453.8</ele>
        <time>2022-07-17T06:01:01Z</time>
      </trkpt>
      <trkpt lat="45.33328" lon="6.30846">
        <ele>453.8</ele>
        <time>2022-07-17T06:01:02Z</time>
      </trkpt>
      <trkpt lat="45.33322" lon="6.30851">
        <ele>453.8</ele>
        <time>2022-07-17T06:01:03Z</time>
      </trkpt>
      <trkpt lat="45.33317" lon="6.30856">
        <ele>453.8</ele>
        <time>2022-07-17T06:01:04Z</time>
      </trkpt>
      <trkpt lat="45.33312" lon="6.30862">
        <ele>453.8</ele>
        <time>2022-07-17T06:01:05Z</time>
      </trkpt>
      <trkpt lat="45.33307" lon="6.30869">
        <ele>453.8</ele>
        <time>2022-07-17T06:01:06Z</time>
      </trkpt>
      <trkpt lat="45.33302" lon="6.30875">
        <ele>453.8</ele>
        <time>2022-07-17T06:01:07Z</time>
      </trkpt>
      <trkpt lat="45.33297" lon="6.30881">
        <ele>453.6</ele>
        <time>2022-07-17T06:01:08Z</time>
      </trkpt>
      <trkpt lat="45.33291" lon="6.30887">
        <ele>453.6</ele>
        <time>2022-07-17T06:01:09Z</time>
      </trkpt>
      <trkpt lat="45.33286" lon="6.30893">
        <ele>453.6</ele>
        <time>2022-07-17T06:01:10Z</time>
      </trkpt>
      <trkpt lat="45.33281" lon="6.30899">
        <ele>453.6</ele>
        <time>2022-07-17T06:01:11Z</time>
      </trkpt>
      <trkpt lat="45.33277" lon="6.30905">
        <ele>453.6</ele>
        <time>2022-07-17T06:01:12Z</time>
      </trkpt>
      <trkpt lat="45.33272" lon="6.30911">
        <ele>453.4</ele>
        <time>2022-07-17T06:01:13Z</time>
      </trkpt>
      <trkpt lat="45.33267" lon="6.30917">
        <ele>453.4</ele>
        <time>2022-07-17T06:01:14Z</time>
      </trkpt>
      <trkpt lat="45.33262" lon="6.30923">
        <ele>453.4</ele>
        <time>2022-07-17T06:01:15Z</time>
      </trkpt>
      <trkpt lat="45.33258" lon="6.30929">
        <ele>453.4</ele>
        <time>2022-07-17T06:01:16Z</time>
      </trkpt>
      <trkpt lat="45.33254" lon="6.30935">
        <ele>453.4</ele>
        <time>2022-07-17T06:01:17Z</time>
      </trkpt>
      <trkpt lat="45.3325" lon="6.30942">
        <ele>453.4</ele>
        <time>2022-07-17T06:01:18Z</time>
      </trkpt>
      <trkpt lat="45.33246" lon="6.30948">
        <ele>453.4</ele>
        <time>2022-07-17T06:01:19Z</time>
      </trkpt>
      <trkpt lat="45.33243" lon="6.30955">
        <ele>453.4</ele>
        <time>2022-07-17T06:01:20Z</time>
      </trkpt>
      <trkpt lat="45.3324" lon="6.30962">
        <ele>453.4</ele>
        <time>2022-07-17T06:01:21Z</time>
      </trkpt>
      <trkpt lat="45.33237" lon="6.30968">
        <ele>453.4</ele>
        <time>2022-07-17T06:01:22Z</time>
      </trkpt>
      <trkpt lat="45.33234" lon="6.30975">
        <ele>453.6</ele>
        <time>2022-07-17T06:01:23Z</time>
      </trkpt>
      <trkpt lat="45.33232" lon="6.30982">
        <ele>453.6</ele>
        <time>2022-07-17T06:01:24Z</time>
      </trkpt>
      <trkpt lat="45.33229" lon="6.30988">
        <ele>454</ele>
        <time>2022-07-17T06:01:25Z</time>
      </trkpt>
      <trkpt lat="45.33227" lon="6.30995">
        <ele>454</ele>
        <time>2022-07-17T06:01:26Z</time>
      </trkpt>
      <trkpt lat="45.33224" lon="6.31002">
        <ele>454</ele>
        <time>2022-07-17T06:01:27Z</time>
      </trkpt>
      <trkpt lat="45.33222" lon="6.31009">
        <ele>454.2</ele>
        <time>2022-07-17T06:01:28Z</time>
      </trkpt>
      <trkpt lat="45.3322" lon="6.31016">
        <ele>454.2</ele>
        <time>2022-07-17T06:01:29Z</time>
      </trkpt>
      <trkpt lat="45.33217" lon="6.31022">
        <ele>454.2</ele>
        <time>2022-07-17T06:01:30Z</time>
      </trkpt>
      <trkpt lat="45.33215" lon="6.31029">
        <ele>454.4</ele>
        <time>2022-07-17T06:01:31Z</time>
      </trkpt>
      <trkpt lat="45.33213" lon="6.31037">
        <ele>454.4</ele>
        <time>2022-07-17T06:01:32Z</time>
      </trkpt>
      <trkpt lat="45.3321" lon="6.31043">
        <ele>454.4</ele>
        <time>2022-07-17T06:01:33Z</time>
      </trkpt>
      <trkpt lat="45.33207" lon="6.3105">
        <ele>454.6</ele>
        <time>2022-07-17T06:01:34Z</time>
      </trkpt>
      <trkpt lat="45.33204" lon="6.31057">
        <ele>454.6</ele>
        <time>2022-07-17T06:01:35Z</time>
      </trkpt>
      <trkpt lat="45.33202" lon="6.31063">
        <ele>455</ele>
        <time>2022-07-17T06:01:36Z</time>
      </trkpt>
      <trkpt lat="45.33199" lon="6.3107">
        <ele>455</ele>
        <time>2022-07-17T06:01:37Z</time>
      </trkpt>
      <trkpt lat="45.33196" lon="6.31077">
        <ele>455</ele>
        <time>2022-07-17T06:01:38Z</time>
      </trkpt>
      <trkpt lat="45.33193" lon="6.31083">
        <ele>455</ele>
        <time>2022-07-17T06:01:39Z</time>
      </trkpt>
      <trkpt lat="45.3319" lon="6.31089">
        <ele>455.2</ele>
        <time>2022-07-17T06:01:40Z</time>
      </trkpt>
      <trkpt lat="45.33187" lon="6.31095">
        <ele>455.2</ele>
        <time>2022-07-17T06:01:41Z</time>
      </trkpt>
      <trkpt lat="45.33183" lon="6.31099">
        <ele>455.4</ele>
        <time>2022-07-17T06:01:42Z</time>
      </trkpt>
      <trkpt lat="45.33179" lon="6.31104">
        <ele>455.4</ele>
        <time>2022-07-17T06:01:43Z</time>
      </trkpt>
      <trkpt lat="45.33174" lon="6.31108">
        <ele>455.4</ele>
        <time>2022-07-17T06:01:44Z</time>
      </trkpt>
      <trkpt lat="45.3317" lon="6.31113">
        <ele>455.4</ele>
        <time>2022-07-17T06:01:45Z</time>
      </trkpt>
      <trkpt lat="45.33166" lon="6.31117">
        <ele>455.6</ele>
        <time>2022-07-17T06:01:46Z</time>
      </trkpt>
      <trkpt lat="45.33161" lon="6.31122">
        <ele>455.6</ele>
        <time>2022-07-17T06:01:47Z</time>
      </trkpt>
      <trkpt lat="45.33157" lon="6.31126">
        <ele>456</ele>
        <time>2022-07-17T06:01:48Z</time>
      </trkpt>
      <trkpt lat="45.33152" lon="6.3113">
        <ele>456</ele>
        <time>2022-07-17T06:01:49Z</time>
      </trkpt>
      <trkpt lat="45.33148" lon="6.31133">
        <ele>456</ele>
        <time>2022-07-17T06:01:50Z</time>
      </trkpt>
      <trkpt lat="45.33143" lon="6.31137">
        <ele>456.2</ele>
        <time>2022-07-17T06:01:51Z</time>
      </trkpt>
      <trkpt lat="45.33139" lon="6.31141">
        <ele>456.2</ele>
        <time>2022-07-17T06:01:52Z</time>
      </trkpt>
      <trkpt lat="45.33135" lon="6.31146">
        <ele>456.2</ele>
        <time>2022-07-17T06:01:53Z</time>
      </trkpt>
      <trkpt lat="45.33131" lon="6.3115">
        <ele>456.4</ele>
        <time>2022-07-17T06:01:54Z</time>
      </trkpt>
      <trkpt lat="45.33126" lon="6.31155">
        <ele>456.4</ele>
        <time>2022-07-17T06:01:55Z</time>
      </trkpt>
      <trkpt lat="45.33122" lon="6.31159">
        <ele>456.6</ele>
        <time>2022-07-17T06:01:56Z</time>
      </trkpt>
      <trkpt lat="45.33118" lon="6.31164">
        <ele>456.6</ele>
        <time>2022-07-17T06:01:57Z</time>
      </trkpt>
      <trkpt lat="45.33114" lon="6.31169">
        <ele>456.6</ele>
        <time>2022-07-17T06:01:58Z</time>
      </trkpt>
      <trkpt lat="45.33111" lon="6.31174">
        <ele>456.8</ele>
        <time>2022-07-17T06:01:59Z</time>
      </trkpt>
      <trkpt lat="45.33107" lon="6.31179">
        <ele>456.8</ele>
        <time>2022-07-17T06:02:00Z</time>
      </trkpt>
      <trkpt lat="45.33103" lon="6.31184">
        <ele>456.8</ele>
        <time>2022-07-17T06:02:01Z</time>
      </trkpt>
      <trkpt lat="45.33099" lon="6.3119">
        <ele>456.8</ele>
        <time>2022-07-17T06:02:02Z</time>
      </trkpt>
      <trkpt lat="45.33095" lon="6.31195">
        <ele>456.8</ele>
        <time>2022-07-17T06:02:03Z</time>
      </trkpt>
      <trkpt lat="45.33091" lon="6.31201">
        <ele>456.8</ele>
        <time>2022-07-17T06:02:04Z</time>
      </trkpt>
      <trkpt lat="45.33087" lon="6.31207">
        <ele>457</ele>
        <time>2022-07-17T06:02:05Z</time>
      </trkpt>
      <trkpt lat="45.33083" lon="6.31212">
        <ele>457</ele>
        <time>2022-07-17T06:02:06Z</time>
      </trkpt>
      <trkpt lat="45.33078" lon="6.31218">
        <ele>457</ele>
        <time>2022-07-17T06:02:07Z</time>
      </trkpt>
      <trkpt lat="45.33074" lon="6.31223">
        <ele>457</ele>
        <time>2022-07-17T06:02:08Z</time>
      </trkpt>
      <trkpt lat="45.3307" lon="6.31229">
        <ele>457</ele>
        <time>2022-07-17T06:02:09Z</time>
      </trkpt>
      <trkpt lat="45.33066" lon="6.31235">
        <ele>457</ele>
        <time>2022-07-17T06:02:10Z</time>
      </trkpt>
      <trkpt lat="45.33062" lon="6.31241">
        <ele>457</ele>
        <time>2022-07-17T06:02:11Z</time>
      </trkpt>
      <trkpt lat="45.33058" lon="6.31247">
        <ele>457</ele>
        <time>2022-07-17T06:02:12Z</time>
      </trkpt>
      <trkpt lat="45.33054" lon="6.31253">
        <ele>457</ele>
        <time>2022-07-17T06:02:13Z</time>
      </trkpt>
      <trkpt lat="45.3305" lon="6.31259">
        <ele>457</ele>
        <time>2022-07-17T06:02:14Z</time>
      </trkpt>
      <trkpt lat="45.33046" lon="6.31265">
        <ele>457</ele>
        <time>2022-07-17T06:02:15Z</time>
      </trkpt>
      <trkpt lat="45.33042" lon="6.31271">
        <ele>457.4</ele>
        <time>2022-07-17T06:02:16Z</time>
      </trkpt>
      <trkpt lat="45.33038" lon="6.31276">
        <ele>457.4</ele>
        <time>2022-07-17T06:02:17Z</time>
      </trkpt>
      <trkpt lat="45.33034" lon="6.31282">
        <ele>457.4</ele>
        <time>2022-07-17T06:02:18Z</time>
      </trkpt>
      <trkpt lat="45.3303" lon="6.31288">
        <ele>457.4</ele>
        <time>2022-07-17T06:02:19Z</time>
      </trkpt>
      <trkpt lat="45.33025" lon="6.31293">
        <ele>457.6</ele>
        <time>2022-07-17T06:02:20Z</time>
      </trkpt>
      <trkpt lat="45.33021" lon="6.31299">
        <ele>457.6</ele>
        <time>2022-07-17T06:02:21Z</time>
      </trkpt>
      <trkpt lat="45.33017" lon="6.31304">
        <ele>457.6</ele>
        <time>2022-07-17T06:02:22Z</time>
      </trkpt>
      <trkpt lat="45.33012" lon="6.3131">
        <ele>457.8</ele>
        <time>2022-07-17T06:02:23Z</time>
      </trkpt>
      <trkpt lat="45.33008" lon="6.31315">
        <ele>457.8</ele>
        <time>2022-07-17T06:02:24Z</time>
      </trkpt>
      <trkpt lat="45.33003" lon="6.31321">
        <ele>457.8</ele>
        <time>2022-07-17T06:02:25Z</time>
      </trkpt>
      <trkpt lat="45.32999" lon="6.31326">
        <ele>457.8</ele>
        <time>2022-07-17T06:02:26Z</time>
      </trkpt>
      <trkpt lat="45.32994" lon="6.31331">
        <ele>457.8</ele>
        <time>2022-07-17T06:02:27Z</time>
      </trkpt>
      <trkpt lat="45.3299" lon="6.31337">
        <ele>457.8</ele>
        <time>2022-07-17T06:02:28Z</time>
      </trkpt>
      <trkpt lat="45.32985" lon="6.31342">
        <ele>457.8</ele>
        <time>2022-07-17T06:02:29Z</time>
      </trkpt>
      <trkpt lat="45.3298" lon="6.31347">
        <ele>457.8</ele>
        <time>2022-07-17T06:02:30Z</time>
      </trkpt>
      <trkpt lat="45.32976" lon="6.31352">
        <ele>457.8</ele>
        <time>2022-07-17T06:02:31Z</time>
      </trkpt>
      <trkpt lat="45.32971" lon="6.31357">
        <ele>458</ele>
        <time>2022-07-17T06:02:32Z</time>
      </trkpt>
      <trkpt lat="45.32966" lon="6.31362">
        <ele>458</ele>
        <time>2022-07-17T06:02:33Z</time>
      </trkpt>
      <trkpt lat="45.32962" lon="6.31367">
        <ele>458</ele>
        <time>2022-07-17T06:02:34Z</time>
      </trkpt>
      <trkpt lat="45.32957" lon="6.31371">
        <ele>458.2</ele>
        <time>2022-07-17T06:02:35Z</time>
      </trkpt>
      <trkpt lat="45.32952" lon="6.31376">
        <ele>458.2</ele>
        <time>2022-07-17T06:02:36Z</time>
      </trkpt>
      <trkpt lat="45.32947" lon="6.31381">
        <ele>458.2</ele>
        <time>2022-07-17T06:02:37Z</time>
      </trkpt>
      <trkpt lat="45.32942" lon="6.31386">
        <ele>458.2</ele>
        <time>2022-07-17T06:02:38Z</time>
      </trkpt>
      <trkpt lat="45.32938" lon="6.31391">
        <ele>458.6</ele>
        <time>2022-07-17T06:02:39Z</time>
      </trkpt>
      <trkpt lat="45.32933" lon="6.31396">
        <ele>458.6</ele>
        <time>2022-07-17T06:02:40Z</time>
      </trkpt>
      <trkpt lat="45.32928" lon="6.31402">
        <ele>458.6</ele>
        <time>2022-07-17T06:02:41Z</time>
      </trkpt>
      <trkpt lat="45.32923" lon="6.31407">
        <ele>458.6</ele>
        <time>2022-07-17T06:02:42Z</time>
      </trkpt>
      <trkpt lat="45.32919" lon="6.31411">
        <ele>458.8</ele>
        <time>2022-07-17T06:02:43Z</time>
      </trkpt>
      <trkpt lat="45.32914" lon="6.31416">
        <ele>458.8</ele>
        <time>2022-07-17T06:02:44Z</time>
      </trkpt>
      <trkpt lat="45.32909" lon="6.3142">
        <ele>458.8</ele>
        <time>2022-07-17T06:02:45Z</time>
      </trkpt>
      <trkpt lat="45.32905" lon="6.31425">
        <ele>458.8</ele>
        <time>2022-07-17T06:02:46Z</time>
      </trkpt>
      <trkpt lat="45.329" lon="6.31429">
        <ele>458.8</ele>
        <time>2022-07-17T06:02:47Z</time>
      </trkpt>
      <trkpt lat="45.32896" lon="6.31432">
        <ele>459</ele>
        <time>2022-07-17T06:02:48Z</time>
      </trkpt>
      <trkpt lat="45.32891" lon="6.31436">
        <ele>459</ele>
        <time>2022-07-17T06:02:49Z</time>
      </trkpt>
      <trkpt lat="45.32887" lon="6.3144">
        <ele>459</ele>
        <time>2022-07-17T06:02:50Z</time>
      </trkpt>
      <trkpt lat="45.32882" lon="6.31443">
        <ele>459</ele>
        <time>2022-07-17T06:02:51Z</time>
      </trkpt>
      <trkpt lat="45.32877" lon="6.31447">
        <ele>459.2</ele>
        <time>2022-07-17T06:02:52Z</time>
      </trkpt>
      <trkpt lat="45.32872" lon="6.3145">
        <ele>459.2</ele>
        <time>2022-07-17T06:02:53Z</time>
      </trkpt>
      <trkpt lat="45.32867" lon="6.31454">
        <ele>459.2</ele>
        <time>2022-07-17T06:02:54Z</time>
      </trkpt>
      <trkpt lat="45.32862" lon="6.31457">
        <ele>459.2</ele>
        <time>2022-07-17T06:02:55Z</time>
      </trkpt>
      <trkpt lat="45.32858" lon="6.31461">
        <ele>459.4</ele>
        <time>2022-07-17T06:02:56Z</time>
      </trkpt>
      <trkpt lat="45.32853" lon="6.31465">
        <ele>459.4</ele>
        <time>2022-07-17T06:02:57Z</time>
      </trkpt>
      <trkpt lat="45.32848" lon="6.31469">
        <ele>459.4</ele>
        <time>2022-07-17T06:02:58Z</time>
      </trkpt>
      <trkpt lat="45.32843" lon="6.31472">
        <ele>459.8</ele>
        <time>2022-07-17T06:02:59Z</time>
      </trkpt>
      <trkpt lat="45.32838" lon="6.31476">
        <ele>459.8</ele>
        <time>2022-07-17T06:03:00Z</time>
      </trkpt>
      <trkpt lat="45.32833" lon="6.3148">
        <ele>459.8</ele>
        <time>2022-07-17T06:03:01Z</time>
      </trkpt>
      <trkpt lat="45.32828" lon="6.31485">
        <ele>460</ele>
        <time>2022-07-17T06:03:02Z</time>
      </trkpt>
      <trkpt lat="45.32823" lon="6.31489">
        <ele>460</ele>
        <time>2022-07-17T06:03:03Z</time>
      </trkpt>
      <trkpt lat="45.32818" lon="6.31493">
        <ele>460</ele>
        <time>2022-07-17T06:03:04Z</time>
      </trkpt>
      <trkpt lat="45.32813" lon="6.31498">
        <ele>460</ele>
        <time>2022-07-17T06:03:05Z</time>
      </trkpt>
      <trkpt lat="45.32809" lon="6.31502">
        <ele>460.2</ele>
        <time>2022-07-17T06:03:06Z</time>
      </trkpt>
      <trkpt lat="45.32806" lon="6.31507">
        <ele>460.2</ele>
        <time>2022-07-17T06:03:07Z</time>
      </trkpt>
      <trkpt lat="45.32802" lon="6.31511">
        <ele>460.2</ele>
        <time>2022-07-17T06:03:08Z</time>
      </trkpt>
      <trkpt lat="45.32799" lon="6.31515">
        <ele>460.2</ele>
        <time>2022-07-17T06:03:09Z</time>
      </trkpt>
      <trkpt lat="45.32796" lon="6.3152">
        <ele>460.2</ele>
        <time>2022-07-17T06:03:10Z</time>
      </trkpt>
      <trkpt lat="45.32792" lon="6.31524">
        <ele>460.4</ele>
        <time>2022-07-17T06:03:11Z</time>
      </trkpt>
      <trkpt lat="45.32789" lon="6.31529">
        <ele>460.4</ele>
        <time>2022-07-17T06:03:12Z</time>
      </trkpt>
      <trkpt lat="45.32785" lon="6.31533">
        <ele>460.4</ele>
        <time>2022-07-17T06:03:13Z</time>
      </trkpt>
      <trkpt lat="45.32781" lon="6.31538">
        <ele>460.4</ele>
        <time>2022-07-17T06:03:14Z</time>
      </trkpt>
      <trkpt lat="45.32777" lon="6.31542">
        <ele>460.4</ele>
        <time>2022-07-17T06:03:15Z</time>
      </trkpt>
      <trkpt lat="45.32773" lon="6.31548">
        <ele>460.4</ele>
        <time>2022-07-17T06:03:16Z</time>
      </trkpt>
      <trkpt lat="45.32769" lon="6.31553">
        <ele>460.4</ele>
        <time>2022-07-17T06:03:17Z</time>
      </trkpt>
      <trkpt lat="45.32765" lon="6.31558">
        <ele>460.4</ele>
        <time>2022-07-17T06:03:18Z</time>
      </trkpt>
      <trkpt lat="45.3276" lon="6.31563">
        <ele>460.4</ele>
        <time>2022-07-17T06:03:19Z</time>
      </trkpt>
      <trkpt lat="45.32756" lon="6.31567">
        <ele>460.4</ele>
        <time>2022-07-17T06:03:20Z</time>
      </trkpt>
      <trkpt lat="45.32751" lon="6.31571">
        <ele>460.4</ele>
        <time>2022-07-17T06:03:21Z</time>
      </trkpt>
      <trkpt lat="45.32745" lon="6.31574">
        <ele>460.4</ele>
        <time>2022-07-17T06:03:22Z</time>
      </trkpt>
      <trkpt lat="45.3274" lon="6.31576">
        <ele>460.4</ele>
        <time>2022-07-17T06:03:23Z</time>
      </trkpt>
      <trkpt lat="45.32734" lon="6.31579">
        <ele>460.4</ele>
        <time>2022-07-17T06:03:24Z</time>
      </trkpt>
      <trkpt lat="45.32728" lon="6.31581">
        <ele>460.4</ele>
        <time>2022-07-17T06:03:25Z</time>
      </trkpt>
      <trkpt lat="45.32722" lon="6.31583">
        <ele>460.2</ele>
        <time>2022-07-17T06:03:26Z</time>
      </trkpt>
      <trkpt lat="45.32716" lon="6.31585">
        <ele>460.2</ele>
        <time>2022-07-17T06:03:27Z</time>
      </trkpt>
      <trkpt lat="45.32709" lon="6.31588">
        <ele>460</ele>
        <time>2022-07-17T06:03:28Z</time>
      </trkpt>
      <trkpt lat="45.32703" lon="6.31592">
        <ele>459.6</ele>
        <time>2022-07-17T06:03:29Z</time>
      </trkpt>
      <trkpt lat="45.32698" lon="6.31597">
        <ele>459.6</ele>
        <time>2022-07-17T06:03:30Z</time>
      </trkpt>
      <trkpt lat="45.32692" lon="6.31602">
        <ele>459.2</ele>
        <time>2022-07-17T06:03:31Z</time>
      </trkpt>
      <trkpt lat="45.32686" lon="6.31607">
        <ele>459.2</ele>
        <time>2022-07-17T06:03:32Z</time>
      </trkpt>
      <trkpt lat="45.32676" lon="6.3162">
        <ele>459</ele>
        <time>2022-07-17T06:03:33Z</time>
      </trkpt>
      <trkpt lat="45.32671" lon="6.31627">
        <ele>459</ele>
        <time>2022-07-17T06:03:34Z</time>
      </trkpt>
      <trkpt lat="45.32665" lon="6.31634">
        <ele>458.6</ele>
        <time>2022-07-17T06:03:35Z</time>
      </trkpt>
      <trkpt lat="45.32661" lon="6.31641">
        <ele>458.6</ele>
        <time>2022-07-17T06:03:36Z</time>
      </trkpt>
      <trkpt lat="45.32656" lon="6.31648">
        <ele>458.4</ele>
        <time>2022-07-17T06:03:37Z</time>
      </trkpt>
      <trkpt lat="45.32651" lon="6.31655">
        <ele>458.4</ele>
        <time>2022-07-17T06:03:38Z</time>
      </trkpt>
      <trkpt lat="45.32647" lon="6.31662">
        <ele>458.4</ele>
        <time>2022-07-17T06:03:39Z</time>
      </trkpt>
      <trkpt lat="45.32643" lon="6.31669">
        <ele>458.4</ele>
        <time>2022-07-17T06:03:40Z</time>
      </trkpt>
      <trkpt lat="45.32638" lon="6.31676">
        <ele>458.4</ele>
        <time>2022-07-17T06:03:41Z</time>
      </trkpt>
      <trkpt lat="45.32633" lon="6.31683">
        <ele>458.4</ele>
        <time>2022-07-17T06:03:42Z</time>
      </trkpt>
      <trkpt lat="45.32629" lon="6.31689">
        <ele>458.4</ele>
        <time>2022-07-17T06:03:43Z</time>
      </trkpt>
      <trkpt lat="45.32624" lon="6.31695">
        <ele>458.4</ele>
        <time>2022-07-17T06:03:44Z</time>
      </trkpt>
      <trkpt lat="45.32619" lon="6.31701">
        <ele>458.4</ele>
        <time>2022-07-17T06:03:45Z</time>
      </trkpt>
      <trkpt lat="45.32613" lon="6.31706">
        <ele>458.4</ele>
        <time>2022-07-17T06:03:46Z</time>
      </trkpt>
      <trkpt lat="45.32608" lon="6.31711">
        <ele>458.8</ele>
        <time>2022-07-17T06:03:47Z</time>
      </trkpt>
      <trkpt lat="45.32603" lon="6.31716">
        <ele>458.8</ele>
        <time>2022-07-17T06:03:48Z</time>
      </trkpt>
      <trkpt lat="45.32598" lon="6.31721">
        <ele>458.8</ele>
        <time>2022-07-17T06:03:49Z</time>
      </trkpt>
      <trkpt lat="45.32592" lon="6.31725">
        <ele>458.8</ele>
        <time>2022-07-17T06:03:50Z</time>
      </trkpt>
      <trkpt lat="45.32587" lon="6.31729">
        <ele>458.8</ele>
        <time>2022-07-17T06:03:51Z</time>
      </trkpt>
      <trkpt lat="45.32581" lon="6.31733">
        <ele>459</ele>
        <time>2022-07-17T06:03:52Z</time>
      </trkpt>
      <trkpt lat="45.32576" lon="6.31736">
        <ele>459</ele>
        <time>2022-07-17T06:03:53Z</time>
      </trkpt>
      <trkpt lat="45.3257" lon="6.31739">
        <ele>459</ele>
        <time>2022-07-17T06:03:54Z</time>
      </trkpt>
      <trkpt lat="45.32565" lon="6.31743">
        <ele>459</ele>
        <time>2022-07-17T06:03:55Z</time>
      </trkpt>
      <trkpt lat="45.32559" lon="6.31746">
        <ele>459.2</ele>
        <time>2022-07-17T06:03:56Z</time>
      </trkpt>
      <trkpt lat="45.32554" lon="6.31748">
        <ele>459.2</ele>
        <time>2022-07-17T06:03:57Z</time>
      </trkpt>
      <trkpt lat="45.32548" lon="6.31751">
        <ele>459.2</ele>
        <time>2022-07-17T06:03:58Z</time>
      </trkpt>
      <trkpt lat="45.32542" lon="6.31753">
        <ele>459.4</ele>
        <time>2022-07-17T06:03:59Z</time>
      </trkpt>
      <trkpt lat="45.32536" lon="6.31755">
        <ele>459.4</ele>
        <time>2022-07-17T06:04:00Z</time>
      </trkpt>
      <trkpt lat="45.3253" lon="6.31757">
        <ele>459.4</ele>
        <time>2022-07-17T06:04:01Z</time>
      </trkpt>
      <trkpt lat="45.32525" lon="6.31759">
        <ele>459.4</ele>
        <time>2022-07-17T06:04:02Z</time>
      </trkpt>
      <trkpt lat="45.32519" lon="6.31761">
        <ele>459.8</ele>
        <time>2022-07-17T06:04:03Z</time>
      </trkpt>
      <trkpt lat="45.32514" lon="6.31763">
        <ele>459.8</ele>
        <time>2022-07-17T06:04:04Z</time>
      </trkpt>
      <trkpt lat="45.32508" lon="6.31765">
        <ele>460</ele>
        <time>2022-07-17T06:04:05Z</time>
      </trkpt>
      <trkpt lat="45.32502" lon="6.31768">
        <ele>460</ele>
        <time>2022-07-17T06:04:06Z</time>
      </trkpt>
      <trkpt lat="45.32496" lon="6.3177">
        <ele>460</ele>
        <time>2022-07-17T06:04:07Z</time>
      </trkpt>
      <trkpt lat="45.32491" lon="6.31771">
        <ele>460</ele>
        <time>2022-07-17T06:04:08Z</time>
      </trkpt>
      <trkpt lat="45.32485" lon="6.31773">
        <ele>460</ele>
        <time>2022-07-17T06:04:09Z</time>
      </trkpt>
      <trkpt lat="45.3248" lon="6.31774">
        <ele>460.2</ele>
        <time>2022-07-17T06:04:10Z</time>
      </trkpt>
      <trkpt lat="45.32474" lon="6.31776">
        <ele>460.2</ele>
        <time>2022-07-17T06:04:11Z</time>
      </trkpt>
      <trkpt lat="45.32469" lon="6.31777">
        <ele>460.6</ele>
        <time>2022-07-17T06:04:12Z</time>
      </trkpt>
      <trkpt lat="45.32464" lon="6.31778">
        <ele>460.8</ele>
        <time>2022-07-17T06:04:13Z</time>
      </trkpt>
      <trkpt lat="45.32459" lon="6.3178">
        <ele>461</ele>
        <time>2022-07-17T06:04:14Z</time>
      </trkpt>
      <trkpt lat="45.32454" lon="6.31782">
        <ele>461.2</ele>
        <time>2022-07-17T06:04:15Z</time>
      </trkpt>
      <trkpt lat="45.3245" lon="6.31783">
        <ele>461.4</ele>
        <time>2022-07-17T06:04:16Z</time>
      </trkpt>
      <trkpt lat="45.32446" lon="6.31784">
        <ele>461.6</ele>
        <time>2022-07-17T06:04:17Z</time>
      </trkpt>
      <trkpt lat="45.32442" lon="6.31785">
        <ele>462</ele>
        <time>2022-07-17T06:04:18Z</time>
      </trkpt>
      <trkpt lat="45.32438" lon="6.31786">
        <ele>462.2</ele>
        <time>2022-07-17T06:04:19Z</time>
      </trkpt>
      <trkpt lat="45.32434" lon="6.31787">
        <ele>462.4</ele>
        <time>2022-07-17T06:04:20Z</time>
      </trkpt>
      <trkpt lat="45.3243" lon="6.31787">
        <ele>462.8</ele>
        <time>2022-07-17T06:04:21Z</time>
      </trkpt>
      <trkpt lat="45.32427" lon="6.31788">
        <ele>463</ele>
        <time>2022-07-17T06:04:22Z</time>
      </trkpt>
      <trkpt lat="45.32423" lon="6.31789">
        <ele>463.2</ele>
        <time>2022-07-17T06:04:23Z</time>
      </trkpt>
      <trkpt lat="45.32419" lon="6.31789">
        <ele>463.6</ele>
        <time>2022-07-17T06:04:24Z</time>
      </trkpt>
      <trkpt lat="45.32416" lon="6.3179">
        <ele>463.8</ele>
        <time>2022-07-17T06:04:25Z</time>
      </trkpt>
      <trkpt lat="45.32412" lon="6.31791">
        <ele>464.2</ele>
        <time>2022-07-17T06:04:26Z</time>
      </trkpt>
      <trkpt lat="45.32409" lon="6.31792">
        <ele>464.4</ele>
        <time>2022-07-17T06:04:27Z</time>
      </trkpt>
      <trkpt lat="45.32406" lon="6.31793">
        <ele>464.8</ele>
        <time>2022-07-17T06:04:28Z</time>
      </trkpt>
      <trkpt lat="45.32402" lon="6.31794">
        <ele>465</ele>
        <time>2022-07-17T06:04:29Z</time>
      </trkpt>
      <trkpt lat="45.32399" lon="6.31796">
        <ele>465.4</ele>
        <time>2022-07-17T06:04:30Z</time>
      </trkpt>
      <trkpt lat="45.32396" lon="6.31796">
        <ele>465.6</ele>
        <time>2022-07-17T06:04:31Z</time>
      </trkpt>
      <trkpt lat="45.32392" lon="6.31797">
        <ele>465.8</ele>
        <time>2022-07-17T06:04:32Z</time>
      </trkpt>
      <trkpt lat="45.32389" lon="6.31797">
        <ele>466.2</ele>
        <time>2022-07-17T06:04:33Z</time>
      </trkpt>
      <trkpt lat="45.32386" lon="6.31798">
        <ele>466.4</ele>
        <time>2022-07-17T06:04:34Z</time>
      </trkpt>
      <trkpt lat="45.32383" lon="6.31799">
        <ele>466.8</ele>
        <time>2022-07-17T06:04:35Z</time>
      </trkpt>
      <trkpt lat="45.32379" lon="6.31799">
        <ele>467</ele>
        <time>2022-07-17T06:04:36Z</time>
      </trkpt>
      <trkpt lat="45.32376" lon="6.318">
        <ele>467.4</ele>
        <time>2022-07-17T06:04:37Z</time>
      </trkpt>
      <trkpt lat="45.32373" lon="6.31801">
        <ele>467.6</ele>
        <time>2022-07-17T06:04:38Z</time>
      </trkpt>
      <trkpt lat="45.3237" lon="6.31801">
        <ele>468</ele>
        <time>2022-07-17T06:04:39Z</time>
      </trkpt>
      <trkpt lat="45.32367" lon="6.31802">
        <ele>468.2</ele>
        <time>2022-07-17T06:04:40Z</time>
      </trkpt>
      <trkpt lat="45.32364" lon="6.31803">
        <ele>468.4</ele>
        <time>2022-07-17T06:04:41Z</time>
      </trkpt>
      <trkpt lat="45.32361" lon="6.31803">
        <ele>468.8</ele>
        <time>2022-07-17T06:04:42Z</time>
      </trkpt>
      <trkpt lat="45.32358" lon="6.31804">
        <ele>469</ele>
        <time>2022-07-17T06:04:43Z</time>
      </trkpt>
      <trkpt lat="45.32355" lon="6.31805">
        <ele>469.4</ele>
        <time>2022-07-17T06:04:44Z</time>
      </trkpt>
      <trkpt lat="45.32351" lon="6.31805">
        <ele>469.6</ele>
        <time>2022-07-17T06:04:45Z</time>
      </trkpt>
      <trkpt lat="45.32348" lon="6.31805">
        <ele>470</ele>
        <time>2022-07-17T06:04:46Z</time>
      </trkpt>
      <trkpt lat="45.32345" lon="6.31806">
        <ele>470.2</ele>
        <time>2022-07-17T06:04:47Z</time>
      </trkpt>
      <trkpt lat="45.32342" lon="6.31806">
        <ele>470.4</ele>
        <time>2022-07-17T06:04:48Z</time>
      </trkpt>
      <trkpt lat="45.32339" lon="6.31807">
        <ele>470.8</ele>
        <time>2022-07-17T06:04:49Z</time>
      </trkpt>
      <trkpt lat="45.32336" lon="6.31807">
        <ele>471</ele>
        <time>2022-07-17T06:04:50Z</time>
      </trkpt>
      <trkpt lat="45.32334" lon="6.31808">
        <ele>471.2</ele>
        <time>2022-07-17T06:04:51Z</time>
      </trkpt>
      <trkpt lat="45.32331" lon="6.31808">
        <ele>471.6</ele>
        <time>2022-07-17T06:04:52Z</time>
      </trkpt>
      <trkpt lat="45.32328" lon="6.31809">
        <ele>471.8</ele>
        <time>2022-07-17T06:04:53Z</time>
      </trkpt>
      <trkpt lat="45.32325" lon="6.31809">
        <ele>472</ele>
        <time>2022-07-17T06:04:54Z</time>
      </trkpt>
      <trkpt lat="45.32322" lon="6.31809">
        <ele>472.2</ele>
        <time>2022-07-17T06:04:55Z</time>
      </trkpt>
      <trkpt lat="45.3232" lon="6.31809">
        <ele>472.6</ele>
        <time>2022-07-17T06:04:56Z</time>
      </trkpt>
      <trkpt lat="45.32317" lon="6.31809">
        <ele>472.8</ele>
        <time>2022-07-17T06:04:57Z</time>
      </trkpt>
      <trkpt lat="45.32314" lon="6.31809">
        <ele>473</ele>
        <time>2022-07-17T06:04:58Z</time>
      </trkpt>
      <trkpt lat="45.32311" lon="6.31809">
        <ele>473.4</ele>
        <time>2022-07-17T06:04:59Z</time>
      </trkpt>
      <trkpt lat="45.32308" lon="6.31809">
        <ele>473.6</ele>
        <time>2022-07-17T06:05:00Z</time>
      </trkpt>
      <trkpt lat="45.32305" lon="6.31809">
        <ele>473.8</ele>
        <time>2022-07-17T06:05:01Z</time>
      </trkpt>
      <trkpt lat="45.32303" lon="6.3181">
        <ele>474</ele>
        <time>2022-07-17T06:05:02Z</time>
      </trkpt>
      <trkpt lat="45.323" lon="6.3181">
        <ele>474.2</ele>
        <time>2022-07-17T06:05:03Z</time>
      </trkpt>
      <trkpt lat="45.32297" lon="6.3181">
        <ele>474.6</ele>
        <time>2022-07-17T06:05:04Z</time>
      </trkpt>
      <trkpt lat="45.32294" lon="6.3181">
        <ele>474.8</ele>
        <time>2022-07-17T06:05:05Z</time>
      </trkpt>
      <trkpt lat="45.32291" lon="6.31811">
        <ele>475</ele>
        <time>2022-07-17T06:05:06Z</time>
      </trkpt>
      <trkpt lat="45.32288" lon="6.31811">
        <ele>475.4</ele>
        <time>2022-07-17T06:05:07Z</time>
      </trkpt>
      <trkpt lat="45.32286" lon="6.31812">
        <ele>475.6</ele>
        <time>2022-07-17T06:05:08Z</time>
      </trkpt>
      <trkpt lat="45.32283" lon="6.31812">
        <ele>475.8</ele>
        <time>2022-07-17T06:05:09Z</time>
      </trkpt>
      <trkpt lat="45.3228" lon="6.31812">
        <ele>476</ele>
        <time>2022-07-17T06:05:10Z</time>
      </trkpt>
      <trkpt lat="45.32277" lon="6.31812">
        <ele>476.2</ele>
        <time>2022-07-17T06:05:11Z</time>
      </trkpt>
      <trkpt lat="45.32275" lon="6.31812">
        <ele>476.6</ele>
        <time>2022-07-17T06:05:12Z</time>
      </trkpt>
      <trkpt lat="45.32272" lon="6.31812">
        <ele>476.8</ele>
        <time>2022-07-17T06:05:13Z</time>
      </trkpt>
      <trkpt lat="45.3227" lon="6.31812">
        <ele>477</ele>
        <time>2022-07-17T06:05:14Z</time>
      </trkpt>
      <trkpt lat="45.32267" lon="6.31812">
        <ele>477.2</ele>
        <time>2022-07-17T06:05:15Z</time>
      </trkpt>
      <trkpt lat="45.32264" lon="6.31811">
        <ele>477.6</ele>
        <time>2022-07-17T06:05:16Z</time>
      </trkpt>
      <trkpt lat="45.32261" lon="6.31812">
        <ele>477.6</ele>
        <time>2022-07-17T06:05:17Z</time>
      </trkpt>
      <trkpt lat="45.32258" lon="6.31812">
        <ele>478</ele>
        <time>2022-07-17T06:05:18Z</time>
      </trkpt>
      <trkpt lat="45.32255" lon="6.31812">
        <ele>478.2</ele>
        <time>2022-07-17T06:05:19Z</time>
      </trkpt>
      <trkpt lat="45.32252" lon="6.31813">
        <ele>478.4</ele>
        <time>2022-07-17T06:05:20Z</time>
      </trkpt>
      <trkpt lat="45.32249" lon="6.31813">
        <ele>478.8</ele>
        <time>2022-07-17T06:05:21Z</time>
      </trkpt>
      <trkpt lat="45.32246" lon="6.31813">
        <ele>479</ele>
        <time>2022-07-17T06:05:22Z</time>
      </trkpt>
      <trkpt lat="45.32244" lon="6.31813">
        <ele>479.2</ele>
        <time>2022-07-17T06:05:23Z</time>
      </trkpt>
      <trkpt lat="45.32241" lon="6.31813">
        <ele>479.6</ele>
        <time>2022-07-17T06:05:24Z</time>
      </trkpt>
      <trkpt lat="45.32238" lon="6.31813">
        <ele>479.6</ele>
        <time>2022-07-17T06:05:25Z</time>
      </trkpt>
      <trkpt lat="45.32236" lon="6.31814">
        <ele>479.8</ele>
        <time>2022-07-17T06:05:26Z</time>
      </trkpt>
      <trkpt lat="45.32234" lon="6.31814">
        <ele>479.8</ele>
        <time>2022-07-17T06:05:27Z</time>
      </trkpt>
      <trkpt lat="45.32231" lon="6.31815">
        <ele>480.2</ele>
        <time>2022-07-17T06:05:28Z</time>
      </trkpt>
      <trkpt lat="45.32229" lon="6.31815">
        <ele>480.6</ele>
        <time>2022-07-17T06:05:29Z</time>
      </trkpt>
      <trkpt lat="45.32226" lon="6.31816">
        <ele>480.6</ele>
        <time>2022-07-17T06:05:30Z</time>
      </trkpt>
      <trkpt lat="45.32224" lon="6.31817">
        <ele>481</ele>
        <time>2022-07-17T06:05:31Z</time>
      </trkpt>
      <trkpt lat="45.32221" lon="6.31817">
        <ele>481.2</ele>
        <time>2022-07-17T06:05:32Z</time>
      </trkpt>
      <trkpt lat="45.32218" lon="6.31817">
        <ele>481.4</ele>
        <time>2022-07-17T06:05:33Z</time>
      </trkpt>
      <trkpt lat="45.32216" lon="6.31817">
        <ele>481.6</ele>
        <time>2022-07-17T06:05:34Z</time>
      </trkpt>
      <trkpt lat="45.32213" lon="6.31818">
        <ele>482</ele>
        <time>2022-07-17T06:05:35Z</time>
      </trkpt>
      <trkpt lat="45.32211" lon="6.31818">
        <ele>482.2</ele>
        <time>2022-07-17T06:05:36Z</time>
      </trkpt>
      <trkpt lat="45.32208" lon="6.31819">
        <ele>482.4</ele>
        <time>2022-07-17T06:05:37Z</time>
      </trkpt>
      <trkpt lat="45.32205" lon="6.31819">
        <ele>482.8</ele>
        <time>2022-07-17T06:05:38Z</time>
      </trkpt>
      <trkpt lat="45.32203" lon="6.3182">
        <ele>482.8</ele>
        <time>2022-07-17T06:05:39Z</time>
      </trkpt>
      <trkpt lat="45.322" lon="6.31821">
        <ele>483</ele>
        <time>2022-07-17T06:05:40Z</time>
      </trkpt>
      <trkpt lat="45.32198" lon="6.31821">
        <ele>483.2</ele>
        <time>2022-07-17T06:05:41Z</time>
      </trkpt>
      <trkpt lat="45.32195" lon="6.31822">
        <ele>483.4</ele>
        <time>2022-07-17T06:05:42Z</time>
      </trkpt>
      <trkpt lat="45.32193" lon="6.31822">
        <ele>483.8</ele>
        <time>2022-07-17T06:05:43Z</time>
      </trkpt>
      <trkpt lat="45.3219" lon="6.31823">
        <ele>483.8</ele>
        <time>2022-07-17T06:05:44Z</time>
      </trkpt>
      <trkpt lat="45.32188" lon="6.31824">
        <ele>484</ele>
        <time>2022-07-17T06:05:45Z</time>
      </trkpt>
      <trkpt lat="45.32185" lon="6.31825">
        <ele>484</ele>
        <time>2022-07-17T06:05:46Z</time>
      </trkpt>
      <trkpt lat="45.32182" lon="6.31825">
        <ele>484.4</ele>
        <time>2022-07-17T06:05:47Z</time>
      </trkpt>
      <trkpt lat="45.32179" lon="6.31826">
        <ele>484.6</ele>
        <time>2022-07-17T06:05:48Z</time>
      </trkpt>
      <trkpt lat="45.32177" lon="6.31827">
        <ele>485</ele>
        <time>2022-07-17T06:05:49Z</time>
      </trkpt>
      <trkpt lat="45.32174" lon="6.31828">
        <ele>485.2</ele>
        <time>2022-07-17T06:05:50Z</time>
      </trkpt>
      <trkpt lat="45.32172" lon="6.31829">
        <ele>485.4</ele>
        <time>2022-07-17T06:05:51Z</time>
      </trkpt>
      <trkpt lat="45.32169" lon="6.3183">
        <ele>485.8</ele>
        <time>2022-07-17T06:05:52Z</time>
      </trkpt>
      <trkpt lat="45.32167" lon="6.31831">
        <ele>486</ele>
        <time>2022-07-17T06:05:53Z</time>
      </trkpt>
      <trkpt lat="45.32164" lon="6.31832">
        <ele>486.2</ele>
        <time>2022-07-17T06:05:54Z</time>
      </trkpt>
      <trkpt lat="45.32161" lon="6.31833">
        <ele>486.2</ele>
        <time>2022-07-17T06:05:55Z</time>
      </trkpt>
      <trkpt lat="45.32159" lon="6.31834">
        <ele>486.8</ele>
        <time>2022-07-17T06:05:56Z</time>
      </trkpt>
      <trkpt lat="45.32156" lon="6.31835">
        <ele>487</ele>
        <time>2022-07-17T06:05:57Z</time>
      </trkpt>
      <trkpt lat="45.32154" lon="6.31836">
        <ele>487.2</ele>
        <time>2022-07-17T06:05:58Z</time>
      </trkpt>
      <trkpt lat="45.32151" lon="6.31837">
        <ele>487.4</ele>
        <time>2022-07-17T06:05:59Z</time>
      </trkpt>
      <trkpt lat="45.32149" lon="6.31838">
        <ele>487.6</ele>
        <time>2022-07-17T06:06:00Z</time>
      </trkpt>
      <trkpt lat="45.32146" lon="6.31839">
        <ele>487.8</ele>
        <time>2022-07-17T06:06:01Z</time>
      </trkpt>
      <trkpt lat="45.32143" lon="6.31841">
        <ele>488.2</ele>
        <time>2022-07-17T06:06:02Z</time>
      </trkpt>
      <trkpt lat="45.32141" lon="6.31842">
        <ele>488.4</ele>
        <time>2022-07-17T06:06:03Z</time>
      </trkpt>
      <trkpt lat="45.32138" lon="6.31843">
        <ele>488.6</ele>
        <time>2022-07-17T06:06:04Z</time>
      </trkpt>
      <trkpt lat="45.32135" lon="6.31845">
        <ele>488.8</ele>
        <time>2022-07-17T06:06:05Z</time>
      </trkpt>
      <trkpt lat="45.32133" lon="6.31847">
        <ele>489.2</ele>
        <time>2022-07-17T06:06:06Z</time>
      </trkpt>
      <trkpt lat="45.3213" lon="6.31848">
        <ele>489.4</ele>
        <time>2022-07-17T06:06:07Z</time>
      </trkpt>
      <trkpt lat="45.32128" lon="6.31849">
        <ele>489.6</ele>
        <time>2022-07-17T06:06:08Z</time>
      </trkpt>
      <trkpt lat="45.32125" lon="6.3185">
        <ele>489.8</ele>
        <time>2022-07-17T06:06:09Z</time>
      </trkpt>
      <trkpt lat="45.32122" lon="6.31852">
        <ele>490.2</ele>
        <time>2022-07-17T06:06:10Z</time>
      </trkpt>
      <trkpt lat="45.32119" lon="6.31853">
        <ele>490.4</ele>
        <time>2022-07-17T06:06:11Z</time>
      </trkpt>
      <trkpt lat="45.32117" lon="6.31855">
        <ele>490.6</ele>
        <time>2022-07-17T06:06:12Z</time>
      </trkpt>
      <trkpt lat="45.32114" lon="6.31857">
        <ele>491</ele>
        <time>2022-07-17T06:06:13Z</time>
      </trkpt>
      <trkpt lat="45.32112" lon="6.31859">
        <ele>491</ele>
        <time>2022-07-17T06:06:14Z</time>
      </trkpt>
      <trkpt lat="45.32109" lon="6.31861">
        <ele>491.4</ele>
        <time>2022-07-17T06:06:15Z</time>
      </trkpt>
      <trkpt lat="45.32107" lon="6.31862">
        <ele>491.6</ele>
        <time>2022-07-17T06:06:16Z</time>
      </trkpt>
      <trkpt lat="45.32104" lon="6.31865">
        <ele>492</ele>
        <time>2022-07-17T06:06:17Z</time>
      </trkpt>
      <trkpt lat="45.32101" lon="6.31867">
        <ele>492.2</ele>
        <time>2022-07-17T06:06:18Z</time>
      </trkpt>
      <trkpt lat="45.32099" lon="6.31869">
        <ele>492.4</ele>
        <time>2022-07-17T06:06:19Z</time>
      </trkpt>
      <trkpt lat="45.32096" lon="6.31871">
        <ele>492.6</ele>
        <time>2022-07-17T06:06:20Z</time>
      </trkpt>
      <trkpt lat="45.32094" lon="6.31874">
        <ele>492.8</ele>
        <time>2022-07-17T06:06:21Z</time>
      </trkpt>
      <trkpt lat="45.32091" lon="6.31876">
        <ele>493.2</ele>
        <time>2022-07-17T06:06:22Z</time>
      </trkpt>
      <trkpt lat="45.32088" lon="6.31878">
        <ele>493.4</ele>
        <time>2022-07-17T06:06:23Z</time>
      </trkpt>
      <trkpt lat="45.32085" lon="6.3188">
        <ele>493.6</ele>
        <time>2022-07-17T06:06:24Z</time>
      </trkpt>
      <trkpt lat="45.32083" lon="6.31883">
        <ele>493.6</ele>
        <time>2022-07-17T06:06:25Z</time>
      </trkpt>
      <trkpt lat="45.3208" lon="6.31886">
        <ele>494</ele>
        <time>2022-07-17T06:06:26Z</time>
      </trkpt>
      <trkpt lat="45.32077" lon="6.31888">
        <ele>494</ele>
        <time>2022-07-17T06:06:27Z</time>
      </trkpt>
      <trkpt lat="45.32075" lon="6.3189">
        <ele>494.4</ele>
        <time>2022-07-17T06:06:28Z</time>
      </trkpt>
      <trkpt lat="45.32072" lon="6.31892">
        <ele>494.4</ele>
        <time>2022-07-17T06:06:29Z</time>
      </trkpt>
      <trkpt lat="45.32069" lon="6.31895">
        <ele>494.8</ele>
        <time>2022-07-17T06:06:30Z</time>
      </trkpt>
      <trkpt lat="45.32066" lon="6.31898">
        <ele>495</ele>
        <time>2022-07-17T06:06:31Z</time>
      </trkpt>
      <trkpt lat="45.32063" lon="6.319">
        <ele>495</ele>
        <time>2022-07-17T06:06:32Z</time>
      </trkpt>
      <trkpt lat="45.3206" lon="6.31902">
        <ele>495.2</ele>
        <time>2022-07-17T06:06:33Z</time>
      </trkpt>
      <trkpt lat="45.32057" lon="6.31905">
        <ele>495.2</ele>
        <time>2022-07-17T06:06:34Z</time>
      </trkpt>
      <trkpt lat="45.32054" lon="6.31909">
        <ele>495.6</ele>
        <time>2022-07-17T06:06:35Z</time>
      </trkpt>
      <trkpt lat="45.32051" lon="6.31912">
        <ele>495.6</ele>
        <time>2022-07-17T06:06:36Z</time>
      </trkpt>
      <trkpt lat="45.32048" lon="6.31916">
        <ele>495.6</ele>
        <time>2022-07-17T06:06:37Z</time>
      </trkpt>
      <trkpt lat="45.32045" lon="6.31919">
        <ele>495.8</ele>
        <time>2022-07-17T06:06:38Z</time>
      </trkpt>
      <trkpt lat="45.32042" lon="6.31923">
        <ele>495.8</ele>
        <time>2022-07-17T06:06:39Z</time>
      </trkpt>
      <trkpt lat="45.32039" lon="6.31926">
        <ele>496</ele>
        <time>2022-07-17T06:06:40Z</time>
      </trkpt>
      <trkpt lat="45.32036" lon="6.3193">
        <ele>496</ele>
        <time>2022-07-17T06:06:41Z</time>
      </trkpt>
      <trkpt lat="45.32033" lon="6.31933">
        <ele>496</ele>
        <time>2022-07-17T06:06:42Z</time>
      </trkpt>
      <trkpt lat="45.3203" lon="6.31937">
        <ele>496.4</ele>
        <time>2022-07-17T06:06:43Z</time>
      </trkpt>
      <trkpt lat="45.32026" lon="6.31941">
        <ele>496.4</ele>
        <time>2022-07-17T06:06:44Z</time>
      </trkpt>
      <trkpt lat="45.32023" lon="6.31945">
        <ele>496.4</ele>
        <time>2022-07-17T06:06:45Z</time>
      </trkpt>
      <trkpt lat="45.32019" lon="6.3195">
        <ele>496.6</ele>
        <time>2022-07-17T06:06:46Z</time>
      </trkpt>
      <trkpt lat="45.32016" lon="6.31954">
        <ele>496.6</ele>
        <time>2022-07-17T06:06:47Z</time>
      </trkpt>
      <trkpt lat="45.32013" lon="6.31958">
        <ele>496.6</ele>
        <time>2022-07-17T06:06:48Z</time>
      </trkpt>
      <trkpt lat="45.32009" lon="6.31962">
        <ele>496.6</ele>
        <time>2022-07-17T06:06:49Z</time>
      </trkpt>
      <trkpt lat="45.32006" lon="6.31967">
        <ele>496.6</ele>
        <time>2022-07-17T06:06:50Z</time>
      </trkpt>
      <trkpt lat="45.32002" lon="6.31972">
        <ele>496.6</ele>
        <time>2022-07-17T06:06:51Z</time>
      </trkpt>
      <trkpt lat="45.31999" lon="6.31978">
        <ele>496.6</ele>
        <time>2022-07-17T06:06:52Z</time>
      </trkpt>
      <trkpt lat="45.31995" lon="6.31983">
        <ele>496.6</ele>
        <time>2022-07-17T06:06:53Z</time>
      </trkpt>
      <trkpt lat="45.31992" lon="6.31988">
        <ele>496.6</ele>
        <time>2022-07-17T06:06:54Z</time>
      </trkpt>
      <trkpt lat="45.31988" lon="6.31994">
        <ele>496.4</ele>
        <time>2022-07-17T06:06:55Z</time>
      </trkpt>
      <trkpt lat="45.31985" lon="6.32">
        <ele>496.4</ele>
        <time>2022-07-17T06:06:56Z</time>
      </trkpt>
      <trkpt lat="45.31982" lon="6.32006">
        <ele>496.4</ele>
        <time>2022-07-17T06:06:57Z</time>
      </trkpt>
      <trkpt lat="45.31978" lon="6.32011">
        <ele>496.4</ele>
        <time>2022-07-17T06:06:58Z</time>
      </trkpt>
      <trkpt lat="45.31975" lon="6.32017">
        <ele>496.4</ele>
        <time>2022-07-17T06:06:59Z</time>
      </trkpt>
      <trkpt lat="45.31972" lon="6.32023">
        <ele>496.4</ele>
        <time>2022-07-17T06:07:00Z</time>
      </trkpt>
      <trkpt lat="45.31968" lon="6.32029">
        <ele>496.4</ele>
        <time>2022-07-17T06:07:01Z</time>
      </trkpt>
      <trkpt lat="45.31965" lon="6.32036">
        <ele>496.4</ele>
        <time>2022-07-17T06:07:02Z</time>
      </trkpt>
      <trkpt lat="45.31961" lon="6.32042">
        <ele>496.4</ele>
        <time>2022-07-17T06:07:03Z</time>
      </trkpt>
      <trkpt lat="45.31958" lon="6.32048">
        <ele>496.4</ele>
        <time>2022-07-17T06:07:04Z</time>
      </trkpt>
      <trkpt lat="45.31954" lon="6.32054">
        <ele>496.2</ele>
        <time>2022-07-17T06:07:05Z</time>
      </trkpt>
      <trkpt lat="45.31951" lon="6.32061">
        <ele>496.2</ele>
        <time>2022-07-17T06:07:06Z</time>
      </trkpt>
      <trkpt lat="45.31947" lon="6.32067">
        <ele>496.2</ele>
        <time>2022-07-17T06:07:07Z</time>
      </trkpt>
      <trkpt lat="45.31944" lon="6.32074">
        <ele>496</ele>
        <time>2022-07-17T06:07:08Z</time>
      </trkpt>
      <trkpt lat="45.3194" lon="6.3208">
        <ele>496</ele>
        <time>2022-07-17T06:07:10Z</time>
      </trkpt>
      <trkpt lat="45.31937" lon="6.32087">
        <ele>496</ele>
        <time>2022-07-17T06:07:11Z</time>
      </trkpt>
      <trkpt lat="45.31933" lon="6.32094">
        <ele>495.6</ele>
        <time>2022-07-17T06:07:12Z</time>
      </trkpt>
      <trkpt lat="45.31929" lon="6.32101">
        <ele>495.6</ele>
        <time>2022-07-17T06:07:13Z</time>
      </trkpt>
      <trkpt lat="45.31925" lon="6.32108">
        <ele>495.6</ele>
        <time>2022-07-17T06:07:14Z</time>
      </trkpt>
      <trkpt lat="45.31922" lon="6.32115">
        <ele>495.6</ele>
        <time>2022-07-17T06:07:15Z</time>
      </trkpt>
      <trkpt lat="45.31919" lon="6.32122">
        <ele>495.4</ele>
        <time>2022-07-17T06:07:16Z</time>
      </trkpt>
      <trkpt lat="45.31915" lon="6.32128">
        <ele>495.4</ele>
        <time>2022-07-17T06:07:17Z</time>
      </trkpt>
      <trkpt lat="45.31912" lon="6.32135">
        <ele>495.4</ele>
        <time>2022-07-17T06:07:18Z</time>
      </trkpt>
      <trkpt lat="45.31908" lon="6.32142">
        <ele>495.2</ele>
        <time>2022-07-17T06:07:19Z</time>
      </trkpt>
      <trkpt lat="45.31905" lon="6.3215">
        <ele>495.2</ele>
        <time>2022-07-17T06:07:20Z</time>
      </trkpt>
      <trkpt lat="45.31901" lon="6.32158">
        <ele>494.8</ele>
        <time>2022-07-17T06:07:21Z</time>
      </trkpt>
      <trkpt lat="45.31897" lon="6.32165">
        <ele>494.8</ele>
        <time>2022-07-17T06:07:22Z</time>
      </trkpt>
      <trkpt lat="45.31893" lon="6.32174">
        <ele>494.4</ele>
        <time>2022-07-17T06:07:23Z</time>
      </trkpt>
      <trkpt lat="45.31889" lon="6.32182">
        <ele>494</ele>
        <time>2022-07-17T06:07:24Z</time>
      </trkpt>
      <trkpt lat="45.31885" lon="6.3219">
        <ele>493.6</ele>
        <time>2022-07-17T06:07:25Z</time>
      </trkpt>
      <trkpt lat="45.31881" lon="6.32199">
        <ele>493.2</ele>
        <time>2022-07-17T06:07:26Z</time>
      </trkpt>
      <trkpt lat="45.31876" lon="6.32208">
        <ele>492.6</ele>
        <time>2022-07-17T06:07:27Z</time>
      </trkpt>
      <trkpt lat="45.31871" lon="6.32217">
        <ele>492.2</ele>
        <time>2022-07-17T06:07:28Z</time>
      </trkpt>
      <trkpt lat="45.31866" lon="6.32227">
        <ele>491.6</ele>
        <time>2022-07-17T06:07:29Z</time>
      </trkpt>
      <trkpt lat="45.31861" lon="6.32237">
        <ele>491</ele>
        <time>2022-07-17T06:07:30Z</time>
      </trkpt>
      <trkpt lat="45.31855" lon="6.32247">
        <ele>490.4</ele>
        <time>2022-07-17T06:07:31Z</time>
      </trkpt>
      <trkpt lat="45.31848" lon="6.32257">
        <ele>489.6</ele>
        <time>2022-07-17T06:07:32Z</time>
      </trkpt>
      <trkpt lat="45.31841" lon="6.32267">
        <ele>488.8</ele>
        <time>2022-07-17T06:07:33Z</time>
      </trkpt>
      <trkpt lat="45.31834" lon="6.32278">
        <ele>488</ele>
        <time>2022-07-17T06:07:34Z</time>
      </trkpt>
      <trkpt lat="45.31826" lon="6.32288">
        <ele>487.2</ele>
        <time>2022-07-17T06:07:35Z</time>
      </trkpt>
      <trkpt lat="45.31818" lon="6.32299">
        <ele>486.4</ele>
        <time>2022-07-17T06:07:36Z</time>
      </trkpt>
      <trkpt lat="45.3181" lon="6.32309">
        <ele>485.6</ele>
        <time>2022-07-17T06:07:37Z</time>
      </trkpt>
      <trkpt lat="45.31802" lon="6.32319">
        <ele>484.6</ele>
        <time>2022-07-17T06:07:38Z</time>
      </trkpt>
      <trkpt lat="45.31792" lon="6.3233">
        <ele>483.8</ele>
        <time>2022-07-17T06:07:39Z</time>
      </trkpt>
      <trkpt lat="45.31783" lon="6.3234">
        <ele>483</ele>
        <time>2022-07-17T06:07:40Z</time>
      </trkpt>
      <trkpt lat="45.31772" lon="6.3235">
        <ele>482</ele>
        <time>2022-07-17T06:07:41Z</time>
      </trkpt>
      <trkpt lat="45.31762" lon="6.3236">
        <ele>481.2</ele>
        <time>2022-07-17T06:07:42Z</time>
      </trkpt>
      <trkpt lat="45.31751" lon="6.3237">
        <ele>480.4</ele>
        <time>2022-07-17T06:07:43Z</time>
      </trkpt>
      <trkpt lat="45.31741" lon="6.32379">
        <ele>479.6</ele>
        <time>2022-07-17T06:07:44Z</time>
      </trkpt>
      <trkpt lat="45.3173" lon="6.32387">
        <ele>479</ele>
        <time>2022-07-17T06:07:45Z</time>
      </trkpt>
      <trkpt lat="45.31719" lon="6.32395">
        <ele>478.6</ele>
        <time>2022-07-17T06:07:46Z</time>
      </trkpt>
      <trkpt lat="45.31708" lon="6.32402">
        <ele>478.2</ele>
        <time>2022-07-17T06:07:47Z</time>
      </trkpt>
      <trkpt lat="45.31697" lon="6.32408">
        <ele>477.8</ele>
        <time>2022-07-17T06:07:48Z</time>
      </trkpt>
      <trkpt lat="45.31687" lon="6.32414">
        <ele>477.4</ele>
        <time>2022-07-17T06:07:49Z</time>
      </trkpt>
      <trkpt lat="45.31676" lon="6.32418">
        <ele>477.2</ele>
        <time>2022-07-17T06:07:50Z</time>
      </trkpt>
      <trkpt lat="45.31666" lon="6.32421">
        <ele>477</ele>
        <time>2022-07-17T06:07:51Z</time>
      </trkpt>
      <trkpt lat="45.31655" lon="6.32424">
        <ele>476.6</ele>
        <time>2022-07-17T06:07:52Z</time>
      </trkpt>
      <trkpt lat="45.31645" lon="6.32427">
        <ele>476.2</ele>
        <time>2022-07-17T06:07:53Z</time>
      </trkpt>
      <trkpt lat="45.31636" lon="6.3243">
        <ele>476</ele>
        <time>2022-07-17T06:07:54Z</time>
      </trkpt>
      <trkpt lat="45.31627" lon="6.32434">
        <ele>475.8</ele>
        <time>2022-07-17T06:07:55Z</time>
      </trkpt>
      <trkpt lat="45.31618" lon="6.32438">
        <ele>475.6</ele>
        <time>2022-07-17T06:07:56Z</time>
      </trkpt>
      <trkpt lat="45.31609" lon="6.32444">
        <ele>475.4</ele>
        <time>2022-07-17T06:07:57Z</time>
      </trkpt>
      <trkpt lat="45.31601" lon="6.32449">
        <ele>475.2</ele>
        <time>2022-07-17T06:07:58Z</time>
      </trkpt>
      <trkpt lat="45.31593" lon="6.32456">
        <ele>474.8</ele>
        <time>2022-07-17T06:07:59Z</time>
      </trkpt>
      <trkpt lat="45.31585" lon="6.32463">
        <ele>474.4</ele>
        <time>2022-07-17T06:08:00Z</time>
      </trkpt>
      <trkpt lat="45.31577" lon="6.3247">
        <ele>474.2</ele>
        <time>2022-07-17T06:08:01Z</time>
      </trkpt>
      <trkpt lat="45.3157" lon="6.32478">
        <ele>473.8</ele>
        <time>2022-07-17T06:08:02Z</time>
      </trkpt>
      <trkpt lat="45.31562" lon="6.32486">
        <ele>473.4</ele>
        <time>2022-07-17T06:08:03Z</time>
      </trkpt>
      <trkpt lat="45.31555" lon="6.32495">
        <ele>473.2</ele>
        <time>2022-07-17T06:08:04Z</time>
      </trkpt>
      <trkpt lat="45.31549" lon="6.32504">
        <ele>473.2</ele>
        <time>2022-07-17T06:08:05Z</time>
      </trkpt>
      <trkpt lat="45.31542" lon="6.32513">
        <ele>472.8</ele>
        <time>2022-07-17T06:08:06Z</time>
      </trkpt>
      <trkpt lat="45.31536" lon="6.32521">
        <ele>472.8</ele>
        <time>2022-07-17T06:08:07Z</time>
      </trkpt>
      <trkpt lat="45.31531" lon="6.3253">
        <ele>472.8</ele>
        <time>2022-07-17T06:08:08Z</time>
      </trkpt>
      <trkpt lat="45.31527" lon="6.32538">
        <ele>472.8</ele>
        <time>2022-07-17T06:08:09Z</time>
      </trkpt>
      <trkpt lat="45.31522" lon="6.32547">
        <ele>472.8</ele>
        <time>2022-07-17T06:08:10Z</time>
      </trkpt>
      <trkpt lat="45.31519" lon="6.32556">
        <ele>472.8</ele>
        <time>2022-07-17T06:08:11Z</time>
      </trkpt>
      <trkpt lat="45.31516" lon="6.32565">
        <ele>472.8</ele>
        <time>2022-07-17T06:08:12Z</time>
      </trkpt>
      <trkpt lat="45.31513" lon="6.32574">
        <ele>472.8</ele>
        <time>2022-07-17T06:08:13Z</time>
      </trkpt>
      <trkpt lat="45.31511" lon="6.32583">
        <ele>472.8</ele>
        <time>2022-07-17T06:08:14Z</time>
      </trkpt>
      <trkpt lat="45.31509" lon="6.32592">
        <ele>473.2</ele>
        <time>2022-07-17T06:08:15Z</time>
      </trkpt>
      <trkpt lat="45.31508" lon="6.32601">
        <ele>473.2</ele>
        <time>2022-07-17T06:08:16Z</time>
      </trkpt>
      <trkpt lat="45.31507" lon="6.32611">
        <ele>473.4</ele>
        <time>2022-07-17T06:08:17Z</time>
      </trkpt>
      <trkpt lat="45.31507" lon="6.3262">
        <ele>473.4</ele>
        <time>2022-07-17T06:08:18Z</time>
      </trkpt>
      <trkpt lat="45.31507" lon="6.3263">
        <ele>473.4</ele>
        <time>2022-07-17T06:08:19Z</time>
      </trkpt>
      <trkpt lat="45.31507" lon="6.32639">
        <ele>473.4</ele>
        <time>2022-07-17T06:08:20Z</time>
      </trkpt>
      <trkpt lat="45.31508" lon="6.32648">
        <ele>473.4</ele>
        <time>2022-07-17T06:08:21Z</time>
      </trkpt>
      <trkpt lat="45.31509" lon="6.32657">
        <ele>473.4</ele>
        <time>2022-07-17T06:08:22Z</time>
      </trkpt>
      <trkpt lat="45.31511" lon="6.32666">
        <ele>473.4</ele>
        <time>2022-07-17T06:08:23Z</time>
      </trkpt>
      <trkpt lat="45.31513" lon="6.32674">
        <ele>473.4</ele>
        <time>2022-07-17T06:08:24Z</time>
      </trkpt>
      <trkpt lat="45.31515" lon="6.32683">
        <ele>473.4</ele>
        <time>2022-07-17T06:08:25Z</time>
      </trkpt>
      <trkpt lat="45.31518" lon="6.32692">
        <ele>473.4</ele>
        <time>2022-07-17T06:08:26Z</time>
      </trkpt>
      <trkpt lat="45.3152" lon="6.327">
        <ele>473.4</ele>
        <time>2022-07-17T06:08:27Z</time>
      </trkpt>
      <trkpt lat="45.31523" lon="6.32709">
        <ele>473.6</ele>
        <time>2022-07-17T06:08:28Z</time>
      </trkpt>
      <trkpt lat="45.31526" lon="6.32717">
        <ele>473.6</ele>
        <time>2022-07-17T06:08:29Z</time>
      </trkpt>
      <trkpt lat="45.3153" lon="6.32726">
        <ele>473.6</ele>
        <time>2022-07-17T06:08:30Z</time>
      </trkpt>
      <trkpt lat="45.31533" lon="6.32734">
        <ele>473.6</ele>
        <time>2022-07-17T06:08:31Z</time>
      </trkpt>
      <trkpt lat="45.31537" lon="6.32743">
        <ele>473.6</ele>
        <time>2022-07-17T06:08:32Z</time>
      </trkpt>
      <trkpt lat="45.3154" lon="6.32752">
        <ele>473.4</ele>
        <time>2022-07-17T06:08:33Z</time>
      </trkpt>
      <trkpt lat="45.31543" lon="6.32761">
        <ele>473.4</ele>
        <time>2022-07-17T06:08:34Z</time>
      </trkpt>
      <trkpt lat="45.31545" lon="6.32771">
        <ele>473.4</ele>
        <time>2022-07-17T06:08:35Z</time>
      </trkpt>
      <trkpt lat="45.31548" lon="6.32781">
        <ele>473.4</ele>
        <time>2022-07-17T06:08:36Z</time>
      </trkpt>
      <trkpt lat="45.31549" lon="6.32792">
        <ele>473</ele>
        <time>2022-07-17T06:08:37Z</time>
      </trkpt>
      <trkpt lat="45.3155" lon="6.32801">
        <ele>473</ele>
        <time>2022-07-17T06:08:38Z</time>
      </trkpt>
      <trkpt lat="45.31551" lon="6.32811">
        <ele>473</ele>
        <time>2022-07-17T06:08:39Z</time>
      </trkpt>
      <trkpt lat="45.3155" lon="6.32821">
        <ele>472.8</ele>
        <time>2022-07-17T06:08:40Z</time>
      </trkpt>
      <trkpt lat="45.31549" lon="6.3283">
        <ele>472.8</ele>
        <time>2022-07-17T06:08:41Z</time>
      </trkpt>
      <trkpt lat="45.31547" lon="6.3284">
        <ele>472.4</ele>
        <time>2022-07-17T06:08:42Z</time>
      </trkpt>
      <trkpt lat="45.31544" lon="6.32849">
        <ele>472.2</ele>
        <time>2022-07-17T06:08:43Z</time>
      </trkpt>
      <trkpt lat="45.31541" lon="6.32857">
        <ele>472</ele>
        <time>2022-07-17T06:08:44Z</time>
      </trkpt>
      <trkpt lat="45.31537" lon="6.32866">
        <ele>471.8</ele>
        <time>2022-07-17T06:08:45Z</time>
      </trkpt>
      <trkpt lat="45.31533" lon="6.32875">
        <ele>471.8</ele>
        <time>2022-07-17T06:08:46Z</time>
      </trkpt>
      <trkpt lat="45.31528" lon="6.32883">
        <ele>471.4</ele>
        <time>2022-07-17T06:08:47Z</time>
      </trkpt>
      <trkpt lat="45.31523" lon="6.32891">
        <ele>471.4</ele>
        <time>2022-07-17T06:08:48Z</time>
      </trkpt>
      <trkpt lat="45.31518" lon="6.32899">
        <ele>471.4</ele>
        <time>2022-07-17T06:08:49Z</time>
      </trkpt>
      <trkpt lat="45.31513" lon="6.32907">
        <ele>471.2</ele>
        <time>2022-07-17T06:08:50Z</time>
      </trkpt>
      <trkpt lat="45.31508" lon="6.32914">
        <ele>471.2</ele>
        <time>2022-07-17T06:08:51Z</time>
      </trkpt>
      <trkpt lat="45.31504" lon="6.32921">
        <ele>471.2</ele>
        <time>2022-07-17T06:08:52Z</time>
      </trkpt>
      <trkpt lat="45.31499" lon="6.32928">
        <ele>471.2</ele>
        <time>2022-07-17T06:08:53Z</time>
      </trkpt>
      <trkpt lat="45.31494" lon="6.32935">
        <ele>471.2</ele>
        <time>2022-07-17T06:08:54Z</time>
      </trkpt>
      <trkpt lat="45.3149" lon="6.32943">
        <ele>471.2</ele>
        <time>2022-07-17T06:08:55Z</time>
      </trkpt>
      <trkpt lat="45.31486" lon="6.3295">
        <ele>471.2</ele>
        <time>2022-07-17T06:08:56Z</time>
      </trkpt>
      <trkpt lat="45.31481" lon="6.32957">
        <ele>471.2</ele>
        <time>2022-07-17T06:08:57Z</time>
      </trkpt>
      <trkpt lat="45.31477" lon="6.32964">
        <ele>471.2</ele>
        <time>2022-07-17T06:08:58Z</time>
      </trkpt>
      <trkpt lat="45.31473" lon="6.32971">
        <ele>471.2</ele>
        <time>2022-07-17T06:08:59Z</time>
      </trkpt>
      <trkpt lat="45.31469" lon="6.32978">
        <ele>471.2</ele>
        <time>2022-07-17T06:09:00Z</time>
      </trkpt>
      <trkpt lat="45.31465" lon="6.32986">
        <ele>471.2</ele>
        <time>2022-07-17T06:09:01Z</time>
      </trkpt>
      <trkpt lat="45.31461" lon="6.32993">
        <ele>471.2</ele>
        <time>2022-07-17T06:09:02Z</time>
      </trkpt>
      <trkpt lat="45.31457" lon="6.33">
        <ele>471.2</ele>
        <time>2022-07-17T06:09:03Z</time>
      </trkpt>
      <trkpt lat="45.31454" lon="6.33008">
        <ele>471.2</ele>
        <time>2022-07-17T06:09:04Z</time>
      </trkpt>
      <trkpt lat="45.3145" lon="6.33015">
        <ele>471.2</ele>
        <time>2022-07-17T06:09:05Z</time>
      </trkpt>
      <trkpt lat="45.31447" lon="6.33023">
        <ele>471.2</ele>
        <time>2022-07-17T06:09:06Z</time>
      </trkpt>
      <trkpt lat="45.31443" lon="6.3303">
        <ele>471.2</ele>
        <time>2022-07-17T06:09:07Z</time>
      </trkpt>
      <trkpt lat="45.3144" lon="6.33038">
        <ele>471.2</ele>
        <time>2022-07-17T06:09:08Z</time>
      </trkpt>
      <trkpt lat="45.31436" lon="6.33046">
        <ele>471.4</ele>
        <time>2022-07-17T06:09:09Z</time>
      </trkpt>
      <trkpt lat="45.31433" lon="6.33054">
        <ele>471.4</ele>
        <time>2022-07-17T06:09:10Z</time>
      </trkpt>
      <trkpt lat="45.3143" lon="6.33062">
        <ele>471.4</ele>
        <time>2022-07-17T06:09:11Z</time>
      </trkpt>
      <trkpt lat="45.31427" lon="6.3307">
        <ele>471.4</ele>
        <time>2022-07-17T06:09:12Z</time>
      </trkpt>
      <trkpt lat="45.31424" lon="6.33078">
        <ele>471.4</ele>
        <time>2022-07-17T06:09:13Z</time>
      </trkpt>
      <trkpt lat="45.31421" lon="6.33086">
        <ele>471.4</ele>
        <time>2022-07-17T06:09:14Z</time>
      </trkpt>
      <trkpt lat="45.31418" lon="6.33095">
        <ele>471.4</ele>
        <time>2022-07-17T06:09:15Z</time>
      </trkpt>
      <trkpt lat="45.31416" lon="6.33103">
        <ele>471.6</ele>
        <time>2022-07-17T06:09:16Z</time>
      </trkpt>
      <trkpt lat="45.31413" lon="6.33111">
        <ele>471.6</ele>
        <time>2022-07-17T06:09:17Z</time>
      </trkpt>
      <trkpt lat="45.31411" lon="6.33119">
        <ele>471.6</ele>
        <time>2022-07-17T06:09:18Z</time>
      </trkpt>
      <trkpt lat="45.31408" lon="6.33127">
        <ele>471.8</ele>
        <time>2022-07-17T06:09:19Z</time>
      </trkpt>
      <trkpt lat="45.31405" lon="6.33135">
        <ele>471.8</ele>
        <time>2022-07-17T06:09:20Z</time>
      </trkpt>
      <trkpt lat="45.31403" lon="6.33143">
        <ele>471.8</ele>
        <time>2022-07-17T06:09:21Z</time>
      </trkpt>
      <trkpt lat="45.314" lon="6.3315">
        <ele>471.8</ele>
        <time>2022-07-17T06:09:22Z</time>
      </trkpt>
      <trkpt lat="45.31398" lon="6.33158">
        <ele>472.2</ele>
        <time>2022-07-17T06:09:23Z</time>
      </trkpt>
      <trkpt lat="45.31396" lon="6.33165">
        <ele>472.2</ele>
        <time>2022-07-17T06:09:24Z</time>
      </trkpt>
      <trkpt lat="45.31393" lon="6.33173">
        <ele>472.2</ele>
        <time>2022-07-17T06:09:25Z</time>
      </trkpt>
      <trkpt lat="45.3139" lon="6.3318">
        <ele>472.4</ele>
        <time>2022-07-17T06:09:26Z</time>
      </trkpt>
      <trkpt lat="45.31388" lon="6.33187">
        <ele>472.4</ele>
        <time>2022-07-17T06:09:27Z</time>
      </trkpt>
      <trkpt lat="45.31385" lon="6.33194">
        <ele>472.4</ele>
        <time>2022-07-17T06:09:28Z</time>
      </trkpt>
      <trkpt lat="45.31382" lon="6.33201">
        <ele>472.4</ele>
        <time>2022-07-17T06:09:29Z</time>
      </trkpt>
      <trkpt lat="45.31379" lon="6.33208">
        <ele>472.6</ele>
        <time>2022-07-17T06:09:30Z</time>
      </trkpt>
      <trkpt lat="45.31376" lon="6.33215">
        <ele>472.6</ele>
        <time>2022-07-17T06:09:31Z</time>
      </trkpt>
      <trkpt lat="45.31373" lon="6.33221">
        <ele>472.6</ele>
        <time>2022-07-17T06:09:32Z</time>
      </trkpt>
      <trkpt lat="45.3137" lon="6.33227">
        <ele>472.6</ele>
        <time>2022-07-17T06:09:33Z</time>
      </trkpt>
      <trkpt lat="45.31367" lon="6.33233">
        <ele>472.8</ele>
        <time>2022-07-17T06:09:34Z</time>
      </trkpt>
      <trkpt lat="45.31364" lon="6.33239">
        <ele>472.8</ele>
        <time>2022-07-17T06:09:35Z</time>
      </trkpt>
      <trkpt lat="45.3136" lon="6.33245">
        <ele>473</ele>
        <time>2022-07-17T06:09:36Z</time>
      </trkpt>
      <trkpt lat="45.31357" lon="6.33251">
        <ele>473</ele>
        <time>2022-07-17T06:09:37Z</time>
      </trkpt>
      <trkpt lat="45.31354" lon="6.33257">
        <ele>473.4</ele>
        <time>2022-07-17T06:09:38Z</time>
      </trkpt>
      <trkpt lat="45.3135" lon="6.33263">
        <ele>473.4</ele>
        <time>2022-07-17T06:09:39Z</time>
      </trkpt>
      <trkpt lat="45.31347" lon="6.33269">
        <ele>473.4</ele>
        <time>2022-07-17T06:09:40Z</time>
      </trkpt>
      <trkpt lat="45.31343" lon="6.33275">
        <ele>473.6</ele>
        <time>2022-07-17T06:09:41Z</time>
      </trkpt>
      <trkpt lat="45.3134" lon="6.33281">
        <ele>473.6</ele>
        <time>2022-07-17T06:09:42Z</time>
      </trkpt>
      <trkpt lat="45.31336" lon="6.33287">
        <ele>473.6</ele>
        <time>2022-07-17T06:09:43Z</time>
      </trkpt>
      <trkpt lat="45.31332" lon="6.33294">
        <ele>473.6</ele>
        <time>2022-07-17T06:09:44Z</time>
      </trkpt>
      <trkpt lat="45.31328" lon="6.333">
        <ele>473.8</ele>
        <time>2022-07-17T06:09:45Z</time>
      </trkpt>
      <trkpt lat="45.31325" lon="6.33306">
        <ele>473.8</ele>
        <time>2022-07-17T06:09:46Z</time>
      </trkpt>
      <trkpt lat="45.31321" lon="6.33312">
        <ele>473.8</ele>
        <time>2022-07-17T06:09:47Z</time>
      </trkpt>
      <trkpt lat="45.31317" lon="6.33318">
        <ele>474</ele>
        <time>2022-07-17T06:09:48Z</time>
      </trkpt>
      <trkpt lat="45.31313" lon="6.33323">
        <ele>474</ele>
        <time>2022-07-17T06:09:49Z</time>
      </trkpt>
      <trkpt lat="45.31309" lon="6.33329">
        <ele>474</ele>
        <time>2022-07-17T06:09:50Z</time>
      </trkpt>
      <trkpt lat="45.31305" lon="6.33335">
        <ele>474.2</ele>
        <time>2022-07-17T06:09:51Z</time>
      </trkpt>
      <trkpt lat="45.31301" lon="6.3334">
        <ele>474.2</ele>
        <time>2022-07-17T06:09:52Z</time>
      </trkpt>
      <trkpt lat="45.31297" lon="6.33346">
        <ele>474.2</ele>
        <time>2022-07-17T06:09:53Z</time>
      </trkpt>
      <trkpt lat="45.31293" lon="6.33351">
        <ele>474.4</ele>
        <time>2022-07-17T06:09:54Z</time>
      </trkpt>
      <trkpt lat="45.31289" lon="6.33357">
        <ele>474.4</ele>
        <time>2022-07-17T06:09:55Z</time>
      </trkpt>
      <trkpt lat="45.31286" lon="6.33363">
        <ele>474.4</ele>
        <time>2022-07-17T06:09:56Z</time>
      </trkpt>
      <trkpt lat="45.31283" lon="6.33368">
        <ele>474.6</ele>
        <time>2022-07-17T06:09:57Z</time>
      </trkpt>
      <trkpt lat="45.31279" lon="6.33374">
        <ele>474.6</ele>
        <time>2022-07-17T06:09:58Z</time>
      </trkpt>
      <trkpt lat="45.31276" lon="6.3338">
        <ele>474.6</ele>
        <time>2022-07-17T06:09:59Z</time>
      </trkpt>
      <trkpt lat="45.31274" lon="6.33385">
        <ele>474.6</ele>
        <time>2022-07-17T06:10:00Z</time>
      </trkpt>
      <trkpt lat="45.31271" lon="6.33391">
        <ele>474.8</ele>
        <time>2022-07-17T06:10:01Z</time>
      </trkpt>
      <trkpt lat="45.31269" lon="6.33396">
        <ele>474.8</ele>
        <time>2022-07-17T06:10:02Z</time>
      </trkpt>
      <trkpt lat="45.31268" lon="6.33402">
        <ele>474.8</ele>
        <time>2022-07-17T06:10:03Z</time>
      </trkpt>
      <trkpt lat="45.31266" lon="6.33409">
        <ele>475.2</ele>
        <time>2022-07-17T06:10:04Z</time>
      </trkpt>
      <trkpt lat="45.31265" lon="6.33415">
        <ele>475.2</ele>
        <time>2022-07-17T06:10:05Z</time>
      </trkpt>
      <trkpt lat="45.31265" lon="6.33422">
        <ele>475.2</ele>
        <time>2022-07-17T06:10:06Z</time>
      </trkpt>
      <trkpt lat="45.31265" lon="6.33429">
        <ele>475.4</ele>
        <time>2022-07-17T06:10:07Z</time>
      </trkpt>
      <trkpt lat="45.31266" lon="6.33437">
        <ele>475.4</ele>
        <time>2022-07-17T06:10:08Z</time>
      </trkpt>
      <trkpt lat="45.31268" lon="6.33444">
        <ele>475.6</ele>
        <time>2022-07-17T06:10:09Z</time>
      </trkpt>
      <trkpt lat="45.31271" lon="6.33451">
        <ele>475.6</ele>
        <time>2022-07-17T06:10:10Z</time>
      </trkpt>
      <trkpt lat="45.31275" lon="6.33457">
        <ele>475.6</ele>
        <time>2022-07-17T06:10:11Z</time>
      </trkpt>
      <trkpt lat="45.31279" lon="6.33462">
        <ele>475.6</ele>
        <time>2022-07-17T06:10:12Z</time>
      </trkpt>
      <trkpt lat="45.31283" lon="6.33468">
        <ele>476</ele>
        <time>2022-07-17T06:10:13Z</time>
      </trkpt>
      <trkpt lat="45.31287" lon="6.33474">
        <ele>476</ele>
        <time>2022-07-17T06:10:14Z</time>
      </trkpt>
      <trkpt lat="45.3129" lon="6.33479">
        <ele>476.2</ele>
        <time>2022-07-17T06:10:15Z</time>
      </trkpt>
      <trkpt lat="45.31294" lon="6.33484">
        <ele>476.2</ele>
        <time>2022-07-17T06:10:16Z</time>
      </trkpt>
      <trkpt lat="45.31298" lon="6.33489">
        <ele>476.6</ele>
        <time>2022-07-17T06:10:17Z</time>
      </trkpt>
      <trkpt lat="45.31303" lon="6.33495">
        <ele>476.6</ele>
        <time>2022-07-17T06:10:18Z</time>
      </trkpt>
      <trkpt lat="45.31307" lon="6.33498">
        <ele>477</ele>
        <time>2022-07-17T06:10:19Z</time>
      </trkpt>
      <trkpt lat="45.31312" lon="6.33501">
        <ele>477.4</ele>
        <time>2022-07-17T06:10:20Z</time>
      </trkpt>
      <trkpt lat="45.31316" lon="6.33504">
        <ele>477.6</ele>
        <time>2022-07-17T06:10:21Z</time>
      </trkpt>
      <trkpt lat="45.3132" lon="6.33506">
        <ele>477.8</ele>
        <time>2022-07-17T06:10:22Z</time>
      </trkpt>
      <trkpt lat="45.31323" lon="6.33508">
        <ele>478.2</ele>
        <time>2022-07-17T06:10:23Z</time>
      </trkpt>
      <trkpt lat="45.31327" lon="6.33511">
        <ele>478.4</ele>
        <time>2022-07-17T06:10:24Z</time>
      </trkpt>
      <trkpt lat="45.3133" lon="6.33515">
        <ele>478.6</ele>
        <time>2022-07-17T06:10:25Z</time>
      </trkpt>
      <trkpt lat="45.31334" lon="6.33518">
        <ele>479</ele>
        <time>2022-07-17T06:10:26Z</time>
      </trkpt>
      <trkpt lat="45.31338" lon="6.33522">
        <ele>479.2</ele>
        <time>2022-07-17T06:10:27Z</time>
      </trkpt>
      <trkpt lat="45.31342" lon="6.33525">
        <ele>479.6</ele>
        <time>2022-07-17T06:10:28Z</time>
      </trkpt>
      <trkpt lat="45.31346" lon="6.33528">
        <ele>479.8</ele>
        <time>2022-07-17T06:10:29Z</time>
      </trkpt>
      <trkpt lat="45.31349" lon="6.33531">
        <ele>480.2</ele>
        <time>2022-07-17T06:10:30Z</time>
      </trkpt>
      <trkpt lat="45.31352" lon="6.33534">
        <ele>480.4</ele>
        <time>2022-07-17T06:10:31Z</time>
      </trkpt>
      <trkpt lat="45.31356" lon="6.33537">
        <ele>480.4</ele>
        <time>2022-07-17T06:10:32Z</time>
      </trkpt>
      <trkpt lat="45.3136" lon="6.33541">
        <ele>480.8</ele>
        <time>2022-07-17T06:10:33Z</time>
      </trkpt>
      <trkpt lat="45.31364" lon="6.33544">
        <ele>480.8</ele>
        <time>2022-07-17T06:10:34Z</time>
      </trkpt>
      <trkpt lat="45.31368" lon="6.33548">
        <ele>481</ele>
        <time>2022-07-17T06:10:35Z</time>
      </trkpt>
      <trkpt lat="45.31372" lon="6.33551">
        <ele>481</ele>
        <time>2022-07-17T06:10:36Z</time>
      </trkpt>
      <trkpt lat="45.31375" lon="6.33555">
        <ele>481.4</ele>
        <time>2022-07-17T06:10:37Z</time>
      </trkpt>
      <trkpt lat="45.3138" lon="6.33559">
        <ele>481.4</ele>
        <time>2022-07-17T06:10:38Z</time>
      </trkpt>
      <trkpt lat="45.31384" lon="6.33563">
        <ele>481.6</ele>
        <time>2022-07-17T06:10:39Z</time>
      </trkpt>
      <trkpt lat="45.31388" lon="6.33566">
        <ele>481.6</ele>
        <time>2022-07-17T06:10:40Z</time>
      </trkpt>
      <trkpt lat="45.31391" lon="6.33569">
        <ele>481.6</ele>
        <time>2022-07-17T06:10:41Z</time>
      </trkpt>
      <trkpt lat="45.31395" lon="6.33572">
        <ele>481.8</ele>
        <time>2022-07-17T06:10:42Z</time>
      </trkpt>
      <trkpt lat="45.31398" lon="6.33576">
        <ele>481.8</ele>
        <time>2022-07-17T06:10:43Z</time>
      </trkpt>
      <trkpt lat="45.314" lon="6.33581">
        <ele>481.8</ele>
        <time>2022-07-17T06:10:44Z</time>
      </trkpt>
      <trkpt lat="45.31403" lon="6.33586">
        <ele>481.8</ele>
        <time>2022-07-17T06:10:45Z</time>
      </trkpt>
      <trkpt lat="45.31404" lon="6.33591">
        <ele>481.8</ele>
        <time>2022-07-17T06:10:46Z</time>
      </trkpt>
      <trkpt lat="45.31406" lon="6.33597">
        <ele>481.8</ele>
        <time>2022-07-17T06:10:47Z</time>
      </trkpt>
      <trkpt lat="45.31406" lon="6.33603">
        <ele>481.8</ele>
        <time>2022-07-17T06:10:48Z</time>
      </trkpt>
      <trkpt lat="45.31405" lon="6.33609">
        <ele>481.8</ele>
        <time>2022-07-17T06:10:49Z</time>
      </trkpt>
      <trkpt lat="45.31402" lon="6.33614">
        <ele>481.8</ele>
        <time>2022-07-17T06:10:50Z</time>
      </trkpt>
      <trkpt lat="45.31398" lon="6.33617">
        <ele>481.6</ele>
        <time>2022-07-17T06:10:51Z</time>
      </trkpt>
      <trkpt lat="45.31393" lon="6.33621">
        <ele>481.6</ele>
        <time>2022-07-17T06:10:52Z</time>
      </trkpt>
      <trkpt lat="45.31388" lon="6.33625">
        <ele>481.6</ele>
        <time>2022-07-17T06:10:53Z</time>
      </trkpt>
      <trkpt lat="45.31383" lon="6.33629">
        <ele>481.4</ele>
        <time>2022-07-17T06:10:54Z</time>
      </trkpt>
      <trkpt lat="45.31379" lon="6.33634">
        <ele>481.4</ele>
        <time>2022-07-17T06:10:55Z</time>
      </trkpt>
      <trkpt lat="45.31374" lon="6.33639">
        <ele>481.4</ele>
        <time>2022-07-17T06:10:56Z</time>
      </trkpt>
      <trkpt lat="45.3137" lon="6.33646">
        <ele>481.4</ele>
        <time>2022-07-17T06:10:57Z</time>
      </trkpt>
      <trkpt lat="45.31367" lon="6.33653">
        <ele>481.4</ele>
        <time>2022-07-17T06:10:58Z</time>
      </trkpt>
      <trkpt lat="45.31364" lon="6.33661">
        <ele>481.4</ele>
        <time>2022-07-17T06:10:59Z</time>
      </trkpt>
      <trkpt lat="45.31361" lon="6.3367">
        <ele>481.4</ele>
        <time>2022-07-17T06:11:00Z</time>
      </trkpt>
      <trkpt lat="45.31359" lon="6.33679">
        <ele>481.4</ele>
        <time>2022-07-17T06:11:01Z</time>
      </trkpt>
      <trkpt lat="45.31357" lon="6.33688">
        <ele>481.4</ele>
        <time>2022-07-17T06:11:02Z</time>
      </trkpt>
      <trkpt lat="45.31355" lon="6.33697">
        <ele>481.4</ele>
        <time>2022-07-17T06:11:03Z</time>
      </trkpt>
      <trkpt lat="45.31353" lon="6.33706">
        <ele>481.4</ele>
        <time>2022-07-17T06:11:04Z</time>
      </trkpt>
      <trkpt lat="45.31351" lon="6.33715">
        <ele>481.4</ele>
        <time>2022-07-17T06:11:05Z</time>
      </trkpt>
      <trkpt lat="45.31349" lon="6.33724">
        <ele>481.4</ele>
        <time>2022-07-17T06:11:06Z</time>
      </trkpt>
      <trkpt lat="45.31347" lon="6.33732">
        <ele>481.4</ele>
        <time>2022-07-17T06:11:07Z</time>
      </trkpt>
      <trkpt lat="45.31344" lon="6.33741">
        <ele>481.4</ele>
        <time>2022-07-17T06:11:08Z</time>
      </trkpt>
      <trkpt lat="45.31342" lon="6.3375">
        <ele>481.4</ele>
        <time>2022-07-17T06:11:09Z</time>
      </trkpt>
      <trkpt lat="45.31339" lon="6.33759">
        <ele>481.4</ele>
        <time>2022-07-17T06:11:10Z</time>
      </trkpt>
      <trkpt lat="45.31336" lon="6.33767">
        <ele>481.4</ele>
        <time>2022-07-17T06:11:11Z</time>
      </trkpt>
      <trkpt lat="45.31333" lon="6.33775">
        <ele>481.4</ele>
        <time>2022-07-17T06:11:12Z</time>
      </trkpt>
      <trkpt lat="45.3133" lon="6.33782">
        <ele>481.2</ele>
        <time>2022-07-17T06:11:13Z</time>
      </trkpt>
      <trkpt lat="45.31326" lon="6.3379">
        <ele>481.2</ele>
        <time>2022-07-17T06:11:14Z</time>
      </trkpt>
      <trkpt lat="45.31322" lon="6.33797">
        <ele>481.2</ele>
        <time>2022-07-17T06:11:15Z</time>
      </trkpt>
      <trkpt lat="45.31318" lon="6.33804">
        <ele>480.8</ele>
        <time>2022-07-17T06:11:16Z</time>
      </trkpt>
      <trkpt lat="45.31314" lon="6.33811">
        <ele>480.8</ele>
        <time>2022-07-17T06:11:17Z</time>
      </trkpt>
      <trkpt lat="45.3131" lon="6.33818">
        <ele>480.8</ele>
        <time>2022-07-17T06:11:18Z</time>
      </trkpt>
      <trkpt lat="45.31306" lon="6.33825">
        <ele>480.6</ele>
        <time>2022-07-17T06:11:19Z</time>
      </trkpt>
      <trkpt lat="45.31302" lon="6.33832">
        <ele>480.6</ele>
        <time>2022-07-17T06:11:20Z</time>
      </trkpt>
      <trkpt lat="45.31298" lon="6.33838">
        <ele>480.6</ele>
        <time>2022-07-17T06:11:21Z</time>
      </trkpt>
      <trkpt lat="45.31294" lon="6.33844">
        <ele>480.4</ele>
        <time>2022-07-17T06:11:22Z</time>
      </trkpt>
      <trkpt lat="45.3129" lon="6.3385">
        <ele>480.4</ele>
        <time>2022-07-17T06:11:23Z</time>
      </trkpt>
      <trkpt lat="45.31287" lon="6.33857">
        <ele>480.4</ele>
        <time>2022-07-17T06:11:24Z</time>
      </trkpt>
      <trkpt lat="45.31284" lon="6.33863">
        <ele>480.4</ele>
        <time>2022-07-17T06:11:25Z</time>
      </trkpt>
      <trkpt lat="45.31283" lon="6.3387">
        <ele>480.4</ele>
        <time>2022-07-17T06:11:26Z</time>
      </trkpt>
      <trkpt lat="45.31283" lon="6.33877">
        <ele>480.4</ele>
        <time>2022-07-17T06:11:27Z</time>
      </trkpt>
      <trkpt lat="45.31285" lon="6.33883">
        <ele>480.2</ele>
        <time>2022-07-17T06:11:28Z</time>
      </trkpt>
      <trkpt lat="45.31287" lon="6.33888">
        <ele>480.2</ele>
        <time>2022-07-17T06:11:29Z</time>
      </trkpt>
      <trkpt lat="45.3129" lon="6.33894">
        <ele>480.2</ele>
        <time>2022-07-17T06:11:30Z</time>
      </trkpt>
      <trkpt lat="45.31293" lon="6.33899">
        <ele>480.2</ele>
        <time>2022-07-17T06:11:31Z</time>
      </trkpt>
      <trkpt lat="45.31297" lon="6.33905">
        <ele>480.2</ele>
        <time>2022-07-17T06:11:32Z</time>
      </trkpt>
      <trkpt lat="45.31301" lon="6.33911">
        <ele>480.4</ele>
        <time>2022-07-17T06:11:33Z</time>
      </trkpt>
      <trkpt lat="45.31305" lon="6.33917">
        <ele>480.4</ele>
        <time>2022-07-17T06:11:34Z</time>
      </trkpt>
      <trkpt lat="45.31308" lon="6.33923">
        <ele>480.6</ele>
        <time>2022-07-17T06:11:35Z</time>
      </trkpt>
      <trkpt lat="45.31311" lon="6.3393">
        <ele>481</ele>
        <time>2022-07-17T06:11:36Z</time>
      </trkpt>
      <trkpt lat="45.31313" lon="6.33936">
        <ele>481.2</ele>
        <time>2022-07-17T06:11:37Z</time>
      </trkpt>
      <trkpt lat="45.31315" lon="6.33942">
        <ele>481.6</ele>
        <time>2022-07-17T06:11:38Z</time>
      </trkpt>
      <trkpt lat="45.31317" lon="6.33948">
        <ele>482</ele>
        <time>2022-07-17T06:11:39Z</time>
      </trkpt>
      <trkpt lat="45.31318" lon="6.33953">
        <ele>482.4</ele>
        <time>2022-07-17T06:11:40Z</time>
      </trkpt>
      <trkpt lat="45.31319" lon="6.33957">
        <ele>482.6</ele>
        <time>2022-07-17T06:11:41Z</time>
      </trkpt>
      <trkpt lat="45.31319" lon="6.3396">
        <ele>483</ele>
        <time>2022-07-17T06:11:42Z</time>
      </trkpt>
      <trkpt lat="45.3132" lon="6.33963">
        <ele>483.2</ele>
        <time>2022-07-17T06:11:43Z</time>
      </trkpt>
      <trkpt lat="45.31321" lon="6.33967">
        <ele>483.6</ele>
        <time>2022-07-17T06:11:44Z</time>
      </trkpt>
      <trkpt lat="45.31321" lon="6.3397">
        <ele>483.8</ele>
        <time>2022-07-17T06:11:45Z</time>
      </trkpt>
      <trkpt lat="45.31321" lon="6.33974">
        <ele>484.2</ele>
        <time>2022-07-17T06:11:46Z</time>
      </trkpt>
      <trkpt lat="45.3132" lon="6.33978">
        <ele>484.4</ele>
        <time>2022-07-17T06:11:47Z</time>
      </trkpt>
      <trkpt lat="45.31319" lon="6.33982">
        <ele>484.6</ele>
        <time>2022-07-17T06:11:48Z</time>
      </trkpt>
      <trkpt lat="45.31317" lon="6.33986">
        <ele>485</ele>
        <time>2022-07-17T06:11:49Z</time>
      </trkpt>
      <trkpt lat="45.31317" lon="6.3399">
        <ele>485.2</ele>
        <time>2022-07-17T06:11:50Z</time>
      </trkpt>
      <trkpt lat="45.31315" lon="6.33994">
        <ele>485.4</ele>
        <time>2022-07-17T06:11:51Z</time>
      </trkpt>
      <trkpt lat="45.31314" lon="6.33998">
        <ele>485.8</ele>
        <time>2022-07-17T06:11:52Z</time>
      </trkpt>
      <trkpt lat="45.31312" lon="6.34001">
        <ele>486.2</ele>
        <time>2022-07-17T06:11:53Z</time>
      </trkpt>
      <trkpt lat="45.3131" lon="6.34004">
        <ele>486.4</ele>
        <time>2022-07-17T06:11:54Z</time>
      </trkpt>
      <trkpt lat="45.31308" lon="6.34007">
        <ele>486.8</ele>
        <time>2022-07-17T06:11:55Z</time>
      </trkpt>
      <trkpt lat="45.31306" lon="6.3401">
        <ele>487.2</ele>
        <time>2022-07-17T06:11:56Z</time>
      </trkpt>
      <trkpt lat="45.31305" lon="6.34013">
        <ele>487.4</ele>
        <time>2022-07-17T06:11:57Z</time>
      </trkpt>
      <trkpt lat="45.31303" lon="6.34017">
        <ele>487.8</ele>
        <time>2022-07-17T06:11:58Z</time>
      </trkpt>
      <trkpt lat="45.31301" lon="6.3402">
        <ele>488</ele>
        <time>2022-07-17T06:11:59Z</time>
      </trkpt>
      <trkpt lat="45.31298" lon="6.34023">
        <ele>488.4</ele>
        <time>2022-07-17T06:12:00Z</time>
      </trkpt>
      <trkpt lat="45.31296" lon="6.34027">
        <ele>488.4</ele>
        <time>2022-07-17T06:12:01Z</time>
      </trkpt>
      <trkpt lat="45.31289" lon="6.34034">
        <ele>488.6</ele>
        <time>2022-07-17T06:12:02Z</time>
      </trkpt>
      <trkpt lat="45.31285" lon="6.34038">
        <ele>488.6</ele>
        <time>2022-07-17T06:12:03Z</time>
      </trkpt>
      <trkpt lat="45.31282" lon="6.3404">
        <ele>488.6</ele>
        <time>2022-07-17T06:12:04Z</time>
      </trkpt>
      <trkpt lat="45.31277" lon="6.34042">
        <ele>488.8</ele>
        <time>2022-07-17T06:12:05Z</time>
      </trkpt>
      <trkpt lat="45.31273" lon="6.34044">
        <ele>488.8</ele>
        <time>2022-07-17T06:12:06Z</time>
      </trkpt>
      <trkpt lat="45.31268" lon="6.34047">
        <ele>488.8</ele>
        <time>2022-07-17T06:12:07Z</time>
      </trkpt>
      <trkpt lat="45.31264" lon="6.34049">
        <ele>489.2</ele>
        <time>2022-07-17T06:12:08Z</time>
      </trkpt>
      <trkpt lat="45.3126" lon="6.34052">
        <ele>489.2</ele>
        <time>2022-07-17T06:12:09Z</time>
      </trkpt>
      <trkpt lat="45.31256" lon="6.34055">
        <ele>489.2</ele>
        <time>2022-07-17T06:12:10Z</time>
      </trkpt>
      <trkpt lat="45.31252" lon="6.34058">
        <ele>489.4</ele>
        <time>2022-07-17T06:12:11Z</time>
      </trkpt>
      <trkpt lat="45.31248" lon="6.3406">
        <ele>489.6</ele>
        <time>2022-07-17T06:12:12Z</time>
      </trkpt>
      <trkpt lat="45.31244" lon="6.34062">
        <ele>489.6</ele>
        <time>2022-07-17T06:12:13Z</time>
      </trkpt>
      <trkpt lat="45.3124" lon="6.34064">
        <ele>490</ele>
        <time>2022-07-17T06:12:14Z</time>
      </trkpt>
      <trkpt lat="45.31237" lon="6.34066">
        <ele>490</ele>
        <time>2022-07-17T06:12:15Z</time>
      </trkpt>
      <trkpt lat="45.31233" lon="6.34069">
        <ele>490.2</ele>
        <time>2022-07-17T06:12:16Z</time>
      </trkpt>
      <trkpt lat="45.31229" lon="6.3407">
        <ele>490.2</ele>
        <time>2022-07-17T06:12:17Z</time>
      </trkpt>
      <trkpt lat="45.31225" lon="6.34071">
        <ele>490.6</ele>
        <time>2022-07-17T06:12:18Z</time>
      </trkpt>
      <trkpt lat="45.31221" lon="6.34072">
        <ele>490.6</ele>
        <time>2022-07-17T06:12:19Z</time>
      </trkpt>
      <trkpt lat="45.31217" lon="6.34074">
        <ele>490.6</ele>
        <time>2022-07-17T06:12:20Z</time>
      </trkpt>
      <trkpt lat="45.31213" lon="6.34076">
        <ele>490.8</ele>
        <time>2022-07-17T06:12:21Z</time>
      </trkpt>
      <trkpt lat="45.3121" lon="6.34079">
        <ele>490.8</ele>
        <time>2022-07-17T06:12:22Z</time>
      </trkpt>
      <trkpt lat="45.31206" lon="6.34082">
        <ele>491</ele>
        <time>2022-07-17T06:12:23Z</time>
      </trkpt>
      <trkpt lat="45.31203" lon="6.34086">
        <ele>491</ele>
        <time>2022-07-17T06:12:24Z</time>
      </trkpt>
      <trkpt lat="45.312" lon="6.34089">
        <ele>491.2</ele>
        <time>2022-07-17T06:12:25Z</time>
      </trkpt>
      <trkpt lat="45.31196" lon="6.34092">
        <ele>491.2</ele>
        <time>2022-07-17T06:12:26Z</time>
      </trkpt>
      <trkpt lat="45.31193" lon="6.34095">
        <ele>491.8</ele>
        <time>2022-07-17T06:12:28Z</time>
      </trkpt>
      <trkpt lat="45.3119" lon="6.34097">
        <ele>491.8</ele>
        <time>2022-07-17T06:12:29Z</time>
      </trkpt>
      <trkpt lat="45.31188" lon="6.34099">
        <ele>492</ele>
        <time>2022-07-17T06:12:30Z</time>
      </trkpt>
      <trkpt lat="45.31186" lon="6.34102">
        <ele>492</ele>
        <time>2022-07-17T06:12:31Z</time>
      </trkpt>
      <trkpt lat="45.31184" lon="6.34104">
        <ele>492</ele>
        <time>2022-07-17T06:12:32Z</time>
      </trkpt>
      <trkpt lat="45.31182" lon="6.34106">
        <ele>492</ele>
        <time>2022-07-17T06:12:33Z</time>
      </trkpt>
      <trkpt lat="45.31181" lon="6.3411">
        <ele>492</ele>
        <time>2022-07-17T06:12:34Z</time>
      </trkpt>
      <trkpt lat="45.31179" lon="6.34114">
        <ele>492</ele>
        <time>2022-07-17T06:12:35Z</time>
      </trkpt>
      <trkpt lat="45.31177" lon="6.34123">
        <ele>492</ele>
        <time>2022-07-17T06:12:36Z</time>
      </trkpt>
      <trkpt lat="45.31175" lon="6.34127">
        <ele>492</ele>
        <time>2022-07-17T06:12:37Z</time>
      </trkpt>
      <trkpt lat="45.31172" lon="6.34132">
        <ele>492</ele>
        <time>2022-07-17T06:12:38Z</time>
      </trkpt>
      <trkpt lat="45.3117" lon="6.34137">
        <ele>491.8</ele>
        <time>2022-07-17T06:12:39Z</time>
      </trkpt>
      <trkpt lat="45.31167" lon="6.34142">
        <ele>491.8</ele>
        <time>2022-07-17T06:12:40Z</time>
      </trkpt>
      <trkpt lat="45.31165" lon="6.34148">
        <ele>491.8</ele>
        <time>2022-07-17T06:12:41Z</time>
      </trkpt>
      <trkpt lat="45.31162" lon="6.34153">
        <ele>491.8</ele>
        <time>2022-07-17T06:12:42Z</time>
      </trkpt>
      <trkpt lat="45.31159" lon="6.34159">
        <ele>491.8</ele>
        <time>2022-07-17T06:12:43Z</time>
      </trkpt>
      <trkpt lat="45.31156" lon="6.34164">
        <ele>491.8</ele>
        <time>2022-07-17T06:12:44Z</time>
      </trkpt>
      <trkpt lat="45.31154" lon="6.3417">
        <ele>491.8</ele>
        <time>2022-07-17T06:12:45Z</time>
      </trkpt>
      <trkpt lat="45.31151" lon="6.34175">
        <ele>492</ele>
        <time>2022-07-17T06:12:46Z</time>
      </trkpt>
      <trkpt lat="45.31148" lon="6.3418">
        <ele>492</ele>
        <time>2022-07-17T06:12:47Z</time>
      </trkpt>
      <trkpt lat="45.31145" lon="6.34185">
        <ele>492.2</ele>
        <time>2022-07-17T06:12:48Z</time>
      </trkpt>
      <trkpt lat="45.31142" lon="6.3419">
        <ele>492.2</ele>
        <time>2022-07-17T06:12:49Z</time>
      </trkpt>
      <trkpt lat="45.3114" lon="6.34195">
        <ele>492.6</ele>
        <time>2022-07-17T06:12:50Z</time>
      </trkpt>
      <trkpt lat="45.31137" lon="6.34199">
        <ele>492.6</ele>
        <time>2022-07-17T06:12:51Z</time>
      </trkpt>
      <trkpt lat="45.31135" lon="6.34204">
        <ele>492.8</ele>
        <time>2022-07-17T06:12:52Z</time>
      </trkpt>
      <trkpt lat="45.31132" lon="6.34209">
        <ele>492.8</ele>
        <time>2022-07-17T06:12:53Z</time>
      </trkpt>
      <trkpt lat="45.31129" lon="6.34213">
        <ele>493.2</ele>
        <time>2022-07-17T06:12:54Z</time>
      </trkpt>
      <trkpt lat="45.31126" lon="6.34218">
        <ele>493.2</ele>
        <time>2022-07-17T06:12:55Z</time>
      </trkpt>
      <trkpt lat="45.31122" lon="6.34222">
        <ele>493.4</ele>
        <time>2022-07-17T06:12:56Z</time>
      </trkpt>
      <trkpt lat="45.31119" lon="6.34227">
        <ele>493.4</ele>
        <time>2022-07-17T06:12:57Z</time>
      </trkpt>
      <trkpt lat="45.31116" lon="6.34231">
        <ele>493.8</ele>
        <time>2022-07-17T06:12:58Z</time>
      </trkpt>
      <trkpt lat="45.31113" lon="6.34235">
        <ele>493.8</ele>
        <time>2022-07-17T06:12:59Z</time>
      </trkpt>
      <trkpt lat="45.31109" lon="6.34239">
        <ele>494</ele>
        <time>2022-07-17T06:13:00Z</time>
      </trkpt>
      <trkpt lat="45.31106" lon="6.34243">
        <ele>494</ele>
        <time>2022-07-17T06:13:01Z</time>
      </trkpt>
      <trkpt lat="45.31102" lon="6.34248">
        <ele>494.2</ele>
        <time>2022-07-17T06:13:02Z</time>
      </trkpt>
      <trkpt lat="45.31099" lon="6.34252">
        <ele>494.2</ele>
        <time>2022-07-17T06:13:03Z</time>
      </trkpt>
      <trkpt lat="45.31095" lon="6.34257">
        <ele>494.2</ele>
        <time>2022-07-17T06:13:04Z</time>
      </trkpt>
      <trkpt lat="45.31091" lon="6.34262">
        <ele>494.6</ele>
        <time>2022-07-17T06:13:05Z</time>
      </trkpt>
      <trkpt lat="45.31088" lon="6.34266">
        <ele>494.6</ele>
        <time>2022-07-17T06:13:06Z</time>
      </trkpt>
      <trkpt lat="45.31084" lon="6.3427">
        <ele>494.8</ele>
        <time>2022-07-17T06:13:07Z</time>
      </trkpt>
      <trkpt lat="45.3108" lon="6.34274">
        <ele>494.8</ele>
        <time>2022-07-17T06:13:08Z</time>
      </trkpt>
      <trkpt lat="45.31076" lon="6.34279">
        <ele>495</ele>
        <time>2022-07-17T06:13:09Z</time>
      </trkpt>
      <trkpt lat="45.31072" lon="6.34283">
        <ele>495</ele>
        <time>2022-07-17T06:13:10Z</time>
      </trkpt>
      <trkpt lat="45.31068" lon="6.34287">
        <ele>495</ele>
        <time>2022-07-17T06:13:11Z</time>
      </trkpt>
      <trkpt lat="45.31064" lon="6.34292">
        <ele>495.2</ele>
        <time>2022-07-17T06:13:12Z</time>
      </trkpt>
      <trkpt lat="45.31061" lon="6.34296">
        <ele>495.2</ele>
        <time>2022-07-17T06:13:13Z</time>
      </trkpt>
      <trkpt lat="45.31057" lon="6.34301">
        <ele>495.6</ele>
        <time>2022-07-17T06:13:14Z</time>
      </trkpt>
      <trkpt lat="45.31054" lon="6.34306">
        <ele>495.6</ele>
        <time>2022-07-17T06:13:15Z</time>
      </trkpt>
      <trkpt lat="45.3105" lon="6.3431">
        <ele>495.8</ele>
        <time>2022-07-17T06:13:16Z</time>
      </trkpt>
      <trkpt lat="45.31046" lon="6.34315">
        <ele>495.8</ele>
        <time>2022-07-17T06:13:17Z</time>
      </trkpt>
      <trkpt lat="45.31043" lon="6.3432">
        <ele>496</ele>
        <time>2022-07-17T06:13:18Z</time>
      </trkpt>
      <trkpt lat="45.3104" lon="6.34325">
        <ele>496</ele>
        <time>2022-07-17T06:13:19Z</time>
      </trkpt>
      <trkpt lat="45.31038" lon="6.34331">
        <ele>496.4</ele>
        <time>2022-07-17T06:13:20Z</time>
      </trkpt>
      <trkpt lat="45.31035" lon="6.34336">
        <ele>496.4</ele>
        <time>2022-07-17T06:13:21Z</time>
      </trkpt>
      <trkpt lat="45.31033" lon="6.34342">
        <ele>496.4</ele>
        <time>2022-07-17T06:13:22Z</time>
      </trkpt>
      <trkpt lat="45.3103" lon="6.34348">
        <ele>496.4</ele>
        <time>2022-07-17T06:13:23Z</time>
      </trkpt>
      <trkpt lat="45.31027" lon="6.34354">
        <ele>496.4</ele>
        <time>2022-07-17T06:13:24Z</time>
      </trkpt>
      <trkpt lat="45.31024" lon="6.3436">
        <ele>496.2</ele>
        <time>2022-07-17T06:13:25Z</time>
      </trkpt>
      <trkpt lat="45.31021" lon="6.34366">
        <ele>496.2</ele>
        <time>2022-07-17T06:13:26Z</time>
      </trkpt>
      <trkpt lat="45.31017" lon="6.34373">
        <ele>495.8</ele>
        <time>2022-07-17T06:13:28Z</time>
      </trkpt>
      <trkpt lat="45.31014" lon="6.34379">
        <ele>495.8</ele>
        <time>2022-07-17T06:13:29Z</time>
      </trkpt>
      <trkpt lat="45.31011" lon="6.34386">
        <ele>495.8</ele>
        <time>2022-07-17T06:13:30Z</time>
      </trkpt>
      <trkpt lat="45.31008" lon="6.34392">
        <ele>495.6</ele>
        <time>2022-07-17T06:13:31Z</time>
      </trkpt>
      <trkpt lat="45.31004" lon="6.34399">
        <ele>495.6</ele>
        <time>2022-07-17T06:13:32Z</time>
      </trkpt>
      <trkpt lat="45.30999" lon="6.34405">
        <ele>495.2</ele>
        <time>2022-07-17T06:13:33Z</time>
      </trkpt>
      <trkpt lat="45.30995" lon="6.34412">
        <ele>495</ele>
        <time>2022-07-17T06:13:34Z</time>
      </trkpt>
      <trkpt lat="45.30991" lon="6.34419">
        <ele>494.8</ele>
        <time>2022-07-17T06:13:35Z</time>
      </trkpt>
      <trkpt lat="45.30987" lon="6.34427">
        <ele>494.4</ele>
        <time>2022-07-17T06:13:36Z</time>
      </trkpt>
      <trkpt lat="45.30983" lon="6.34436">
        <ele>494.2</ele>
        <time>2022-07-17T06:13:37Z</time>
      </trkpt>
      <trkpt lat="45.30979" lon="6.34444">
        <ele>493.8</ele>
        <time>2022-07-17T06:13:38Z</time>
      </trkpt>
      <trkpt lat="45.30975" lon="6.34453">
        <ele>493.4</ele>
        <time>2022-07-17T06:13:39Z</time>
      </trkpt>
      <trkpt lat="45.30972" lon="6.34463">
        <ele>493</ele>
        <time>2022-07-17T06:13:40Z</time>
      </trkpt>
      <trkpt lat="45.30968" lon="6.34472">
        <ele>492.8</ele>
        <time>2022-07-17T06:13:41Z</time>
      </trkpt>
      <trkpt lat="45.30964" lon="6.34481">
        <ele>492.4</ele>
        <time>2022-07-17T06:13:42Z</time>
      </trkpt>
      <trkpt lat="45.3096" lon="6.3449">
        <ele>492.2</ele>
        <time>2022-07-17T06:13:43Z</time>
      </trkpt>
      <trkpt lat="45.30957" lon="6.34499">
        <ele>491.8</ele>
        <time>2022-07-17T06:13:44Z</time>
      </trkpt>
      <trkpt lat="45.30953" lon="6.34508">
        <ele>491.8</ele>
        <time>2022-07-17T06:13:45Z</time>
      </trkpt>
      <trkpt lat="45.30949" lon="6.34516">
        <ele>491.6</ele>
        <time>2022-07-17T06:13:46Z</time>
      </trkpt>
      <trkpt lat="45.30945" lon="6.34525">
        <ele>491.6</ele>
        <time>2022-07-17T06:13:47Z</time>
      </trkpt>
      <trkpt lat="45.30941" lon="6.34533">
        <ele>491.6</ele>
        <time>2022-07-17T06:13:48Z</time>
      </trkpt>
      <trkpt lat="45.30937" lon="6.34542">
        <ele>491.6</ele>
        <time>2022-07-17T06:13:49Z</time>
      </trkpt>
      <trkpt lat="45.30933" lon="6.3455">
        <ele>491.6</ele>
        <time>2022-07-17T06:13:50Z</time>
      </trkpt>
      <trkpt lat="45.30929" lon="6.34558">
        <ele>491.6</ele>
        <time>2022-07-17T06:13:51Z</time>
      </trkpt>
      <trkpt lat="45.30925" lon="6.34567">
        <ele>491.6</ele>
        <time>2022-07-17T06:13:52Z</time>
      </trkpt>
      <trkpt lat="45.30921" lon="6.34575">
        <ele>491.6</ele>
        <time>2022-07-17T06:13:53Z</time>
      </trkpt>
      <trkpt lat="45.30918" lon="6.34583">
        <ele>491.6</ele>
        <time>2022-07-17T06:13:54Z</time>
      </trkpt>
      <trkpt lat="45.30914" lon="6.34591">
        <ele>491.6</ele>
        <time>2022-07-17T06:13:55Z</time>
      </trkpt>
      <trkpt lat="45.3091" lon="6.34599">
        <ele>491.6</ele>
        <time>2022-07-17T06:13:56Z</time>
      </trkpt>
      <trkpt lat="45.30906" lon="6.34607">
        <ele>491.6</ele>
        <time>2022-07-17T06:13:57Z</time>
      </trkpt>
      <trkpt lat="45.30903" lon="6.34615">
        <ele>491.6</ele>
        <time>2022-07-17T06:13:58Z</time>
      </trkpt>
      <trkpt lat="45.30899" lon="6.34622">
        <ele>491.6</ele>
        <time>2022-07-17T06:13:59Z</time>
      </trkpt>
      <trkpt lat="45.30896" lon="6.3463">
        <ele>491.8</ele>
        <time>2022-07-17T06:14:00Z</time>
      </trkpt>
      <trkpt lat="45.30892" lon="6.34636">
        <ele>491.8</ele>
        <time>2022-07-17T06:14:01Z</time>
      </trkpt>
      <trkpt lat="45.30888" lon="6.34643">
        <ele>492</ele>
        <time>2022-07-17T06:14:02Z</time>
      </trkpt>
      <trkpt lat="45.30885" lon="6.34649">
        <ele>492</ele>
        <time>2022-07-17T06:14:03Z</time>
      </trkpt>
      <trkpt lat="45.30881" lon="6.34656">
        <ele>492</ele>
        <time>2022-07-17T06:14:04Z</time>
      </trkpt>
      <trkpt lat="45.30877" lon="6.34662">
        <ele>492.2</ele>
        <time>2022-07-17T06:14:05Z</time>
      </trkpt>
      <trkpt lat="45.30873" lon="6.34669">
        <ele>492.2</ele>
        <time>2022-07-17T06:14:06Z</time>
      </trkpt>
      <trkpt lat="45.30869" lon="6.34675">
        <ele>492.2</ele>
        <time>2022-07-17T06:14:07Z</time>
      </trkpt>
      <trkpt lat="45.30866" lon="6.34682">
        <ele>492.6</ele>
        <time>2022-07-17T06:14:08Z</time>
      </trkpt>
      <trkpt lat="45.30862" lon="6.34688">
        <ele>492.6</ele>
        <time>2022-07-17T06:14:09Z</time>
      </trkpt>
      <trkpt lat="45.30857" lon="6.34693">
        <ele>492.6</ele>
        <time>2022-07-17T06:14:10Z</time>
      </trkpt>
      <trkpt lat="45.30853" lon="6.34699">
        <ele>492.8</ele>
        <time>2022-07-17T06:14:11Z</time>
      </trkpt>
      <trkpt lat="45.30849" lon="6.34705">
        <ele>492.8</ele>
        <time>2022-07-17T06:14:12Z</time>
      </trkpt>
      <trkpt lat="45.30845" lon="6.3471">
        <ele>493</ele>
        <time>2022-07-17T06:14:13Z</time>
      </trkpt>
      <trkpt lat="45.3084" lon="6.34715">
        <ele>493</ele>
        <time>2022-07-17T06:14:14Z</time>
      </trkpt>
      <trkpt lat="45.30836" lon="6.3472">
        <ele>493</ele>
        <time>2022-07-17T06:14:15Z</time>
      </trkpt>
      <trkpt lat="45.30832" lon="6.34725">
        <ele>493.4</ele>
        <time>2022-07-17T06:14:16Z</time>
      </trkpt>
      <trkpt lat="45.30828" lon="6.34729">
        <ele>493.4</ele>
        <time>2022-07-17T06:14:17Z</time>
      </trkpt>
      <trkpt lat="45.30824" lon="6.34734">
        <ele>493.6</ele>
        <time>2022-07-17T06:14:18Z</time>
      </trkpt>
      <trkpt lat="45.3082" lon="6.34738">
        <ele>493.6</ele>
        <time>2022-07-17T06:14:19Z</time>
      </trkpt>
      <trkpt lat="45.30815" lon="6.34742">
        <ele>494</ele>
        <time>2022-07-17T06:14:20Z</time>
      </trkpt>
      <trkpt lat="45.30811" lon="6.34745">
        <ele>494</ele>
        <time>2022-07-17T06:14:21Z</time>
      </trkpt>
      <trkpt lat="45.30807" lon="6.3475">
        <ele>494.2</ele>
        <time>2022-07-17T06:14:22Z</time>
      </trkpt>
      <trkpt lat="45.30802" lon="6.34754">
        <ele>494.2</ele>
        <time>2022-07-17T06:14:23Z</time>
      </trkpt>
      <trkpt lat="45.30798" lon="6.34759">
        <ele>494.4</ele>
        <time>2022-07-17T06:14:24Z</time>
      </trkpt>
      <trkpt lat="45.30794" lon="6.34765">
        <ele>494.4</ele>
        <time>2022-07-17T06:14:25Z</time>
      </trkpt>
      <trkpt lat="45.3079" lon="6.3477">
        <ele>494.4</ele>
        <time>2022-07-17T06:14:26Z</time>
      </trkpt>
      <trkpt lat="45.30785" lon="6.34776">
        <ele>494.4</ele>
        <time>2022-07-17T06:14:27Z</time>
      </trkpt>
      <trkpt lat="45.30781" lon="6.34782">
        <ele>494.2</ele>
        <time>2022-07-17T06:14:28Z</time>
      </trkpt>
      <trkpt lat="45.30776" lon="6.34789">
        <ele>494.2</ele>
        <time>2022-07-17T06:14:29Z</time>
      </trkpt>
      <trkpt lat="45.30771" lon="6.34795">
        <ele>494</ele>
        <time>2022-07-17T06:14:30Z</time>
      </trkpt>
      <trkpt lat="45.30765" lon="6.34802">
        <ele>493.8</ele>
        <time>2022-07-17T06:14:31Z</time>
      </trkpt>
      <trkpt lat="45.3076" lon="6.34809">
        <ele>493.4</ele>
        <time>2022-07-17T06:14:32Z</time>
      </trkpt>
      <trkpt lat="45.30755" lon="6.34816">
        <ele>493.2</ele>
        <time>2022-07-17T06:14:33Z</time>
      </trkpt>
      <trkpt lat="45.30749" lon="6.34823">
        <ele>493</ele>
        <time>2022-07-17T06:14:34Z</time>
      </trkpt>
      <trkpt lat="45.30743" lon="6.34831">
        <ele>492.8</ele>
        <time>2022-07-17T06:14:35Z</time>
      </trkpt>
      <trkpt lat="45.30737" lon="6.34838">
        <ele>492.4</ele>
        <time>2022-07-17T06:14:36Z</time>
      </trkpt>
      <trkpt lat="45.30731" lon="6.34846">
        <ele>492.2</ele>
        <time>2022-07-17T06:14:37Z</time>
      </trkpt>
      <trkpt lat="45.30725" lon="6.34854">
        <ele>492</ele>
        <time>2022-07-17T06:14:38Z</time>
      </trkpt>
      <trkpt lat="45.30719" lon="6.34862">
        <ele>491.8</ele>
        <time>2022-07-17T06:14:39Z</time>
      </trkpt>
      <trkpt lat="45.30713" lon="6.34869">
        <ele>491.8</ele>
        <time>2022-07-17T06:14:40Z</time>
      </trkpt>
      <trkpt lat="45.30707" lon="6.34877">
        <ele>491.4</ele>
        <time>2022-07-17T06:14:41Z</time>
      </trkpt>
      <trkpt lat="45.30702" lon="6.34884">
        <ele>491.4</ele>
        <time>2022-07-17T06:14:42Z</time>
      </trkpt>
      <trkpt lat="45.30696" lon="6.34891">
        <ele>491.4</ele>
        <time>2022-07-17T06:14:43Z</time>
      </trkpt>
      <trkpt lat="45.3069" lon="6.34898">
        <ele>491.2</ele>
        <time>2022-07-17T06:14:44Z</time>
      </trkpt>
      <trkpt lat="45.30684" lon="6.34905">
        <ele>491.2</ele>
        <time>2022-07-17T06:14:45Z</time>
      </trkpt>
      <trkpt lat="45.30678" lon="6.34912">
        <ele>491.2</ele>
        <time>2022-07-17T06:14:46Z</time>
      </trkpt>
      <trkpt lat="45.30672" lon="6.3492">
        <ele>491</ele>
        <time>2022-07-17T06:14:47Z</time>
      </trkpt>
      <trkpt lat="45.30666" lon="6.34927">
        <ele>491</ele>
        <time>2022-07-17T06:14:48Z</time>
      </trkpt>
      <trkpt lat="45.30659" lon="6.34933">
        <ele>491</ele>
        <time>2022-07-17T06:14:49Z</time>
      </trkpt>
      <trkpt lat="45.30653" lon="6.3494">
        <ele>491</ele>
        <time>2022-07-17T06:14:50Z</time>
      </trkpt>
      <trkpt lat="45.30647" lon="6.34946">
        <ele>491</ele>
        <time>2022-07-17T06:14:51Z</time>
      </trkpt>
      <trkpt lat="45.30641" lon="6.34953">
        <ele>491</ele>
        <time>2022-07-17T06:14:52Z</time>
      </trkpt>
      <trkpt lat="45.30635" lon="6.3496">
        <ele>491</ele>
        <time>2022-07-17T06:14:53Z</time>
      </trkpt>
      <trkpt lat="45.3063" lon="6.34966">
        <ele>491</ele>
        <time>2022-07-17T06:14:54Z</time>
      </trkpt>
      <trkpt lat="45.30624" lon="6.34973">
        <ele>491</ele>
        <time>2022-07-17T06:14:55Z</time>
      </trkpt>
      <trkpt lat="45.30618" lon="6.34979">
        <ele>490.8</ele>
        <time>2022-07-17T06:14:56Z</time>
      </trkpt>
      <trkpt lat="45.30612" lon="6.34986">
        <ele>490.8</ele>
        <time>2022-07-17T06:14:57Z</time>
      </trkpt>
      <trkpt lat="45.30607" lon="6.34992">
        <ele>490.8</ele>
        <time>2022-07-17T06:14:58Z</time>
      </trkpt>
      <trkpt lat="45.30601" lon="6.34999">
        <ele>490.8</ele>
        <time>2022-07-17T06:14:59Z</time>
      </trkpt>
      <trkpt lat="45.30595" lon="6.35006">
        <ele>490.8</ele>
        <time>2022-07-17T06:15:00Z</time>
      </trkpt>
      <trkpt lat="45.30589" lon="6.35012">
        <ele>490.8</ele>
        <time>2022-07-17T06:15:01Z</time>
      </trkpt>
      <trkpt lat="45.30583" lon="6.35019">
        <ele>490.8</ele>
        <time>2022-07-17T06:15:02Z</time>
      </trkpt>
      <trkpt lat="45.30578" lon="6.35026">
        <ele>490.8</ele>
        <time>2022-07-17T06:15:03Z</time>
      </trkpt>
      <trkpt lat="45.30572" lon="6.35033">
        <ele>490.8</ele>
        <time>2022-07-17T06:15:04Z</time>
      </trkpt>
      <trkpt lat="45.30567" lon="6.35039">
        <ele>490.8</ele>
        <time>2022-07-17T06:15:05Z</time>
      </trkpt>
      <trkpt lat="45.30561" lon="6.35045">
        <ele>490.8</ele>
        <time>2022-07-17T06:15:06Z</time>
      </trkpt>
      <trkpt lat="45.30556" lon="6.35051">
        <ele>490.8</ele>
        <time>2022-07-17T06:15:07Z</time>
      </trkpt>
      <trkpt lat="45.3055" lon="6.35058">
        <ele>490.8</ele>
        <time>2022-07-17T06:15:08Z</time>
      </trkpt>
      <trkpt lat="45.30544" lon="6.35063">
        <ele>490.8</ele>
        <time>2022-07-17T06:15:09Z</time>
      </trkpt>
      <trkpt lat="45.30538" lon="6.35068">
        <ele>490.8</ele>
        <time>2022-07-17T06:15:10Z</time>
      </trkpt>
      <trkpt lat="45.30533" lon="6.35074">
        <ele>490.8</ele>
        <time>2022-07-17T06:15:11Z</time>
      </trkpt>
      <trkpt lat="45.30527" lon="6.3508">
        <ele>490.8</ele>
        <time>2022-07-17T06:15:12Z</time>
      </trkpt>
      <trkpt lat="45.30522" lon="6.35087">
        <ele>491</ele>
        <time>2022-07-17T06:15:13Z</time>
      </trkpt>
      <trkpt lat="45.30517" lon="6.35094">
        <ele>491</ele>
        <time>2022-07-17T06:15:14Z</time>
      </trkpt>
      <trkpt lat="45.30512" lon="6.351">
        <ele>491</ele>
        <time>2022-07-17T06:15:15Z</time>
      </trkpt>
      <trkpt lat="45.30507" lon="6.35106">
        <ele>491</ele>
        <time>2022-07-17T06:15:16Z</time>
      </trkpt>
      <trkpt lat="45.30501" lon="6.35111">
        <ele>491.2</ele>
        <time>2022-07-17T06:15:17Z</time>
      </trkpt>
      <trkpt lat="45.30496" lon="6.35117">
        <ele>491.2</ele>
        <time>2022-07-17T06:15:18Z</time>
      </trkpt>
      <trkpt lat="45.3049" lon="6.35122">
        <ele>491.4</ele>
        <time>2022-07-17T06:15:19Z</time>
      </trkpt>
      <trkpt lat="45.30485" lon="6.35128">
        <ele>491.4</ele>
        <time>2022-07-17T06:15:20Z</time>
      </trkpt>
      <trkpt lat="45.3048" lon="6.35133">
        <ele>491.4</ele>
        <time>2022-07-17T06:15:21Z</time>
      </trkpt>
      <trkpt lat="45.30474" lon="6.35139">
        <ele>491.6</ele>
        <time>2022-07-17T06:15:22Z</time>
      </trkpt>
      <trkpt lat="45.30469" lon="6.35144">
        <ele>491.6</ele>
        <time>2022-07-17T06:15:23Z</time>
      </trkpt>
      <trkpt lat="45.30463" lon="6.35149">
        <ele>491.6</ele>
        <time>2022-07-17T06:15:24Z</time>
      </trkpt>
      <trkpt lat="45.30458" lon="6.35155">
        <ele>492</ele>
        <time>2022-07-17T06:15:25Z</time>
      </trkpt>
      <trkpt lat="45.30453" lon="6.3516">
        <ele>492</ele>
        <time>2022-07-17T06:15:26Z</time>
      </trkpt>
      <trkpt lat="45.30448" lon="6.35165">
        <ele>492</ele>
        <time>2022-07-17T06:15:27Z</time>
      </trkpt>
      <trkpt lat="45.30442" lon="6.3517">
        <ele>492</ele>
        <time>2022-07-17T06:15:28Z</time>
      </trkpt>
      <trkpt lat="45.30437" lon="6.35175">
        <ele>492.2</ele>
        <time>2022-07-17T06:15:29Z</time>
      </trkpt>
      <trkpt lat="45.30432" lon="6.3518">
        <ele>492.2</ele>
        <time>2022-07-17T06:15:30Z</time>
      </trkpt>
      <trkpt lat="45.30426" lon="6.35185">
        <ele>492.2</ele>
        <time>2022-07-17T06:15:31Z</time>
      </trkpt>
      <trkpt lat="45.30421" lon="6.3519">
        <ele>492.4</ele>
        <time>2022-07-17T06:15:32Z</time>
      </trkpt>
      <trkpt lat="45.30416" lon="6.35195">
        <ele>492.4</ele>
        <time>2022-07-17T06:15:33Z</time>
      </trkpt>
      <trkpt lat="45.3041" lon="6.352">
        <ele>492.6</ele>
        <time>2022-07-17T06:15:34Z</time>
      </trkpt>
      <trkpt lat="45.30404" lon="6.35204">
        <ele>492.6</ele>
        <time>2022-07-17T06:15:35Z</time>
      </trkpt>
      <trkpt lat="45.30399" lon="6.35209">
        <ele>492.6</ele>
        <time>2022-07-17T06:15:36Z</time>
      </trkpt>
      <trkpt lat="45.30393" lon="6.35213">
        <ele>492.6</ele>
        <time>2022-07-17T06:15:37Z</time>
      </trkpt>
      <trkpt lat="45.30388" lon="6.35217">
        <ele>492.6</ele>
        <time>2022-07-17T06:15:38Z</time>
      </trkpt>
      <trkpt lat="45.30382" lon="6.3522">
        <ele>492.6</ele>
        <time>2022-07-17T06:15:39Z</time>
      </trkpt>
      <trkpt lat="45.30376" lon="6.35224">
        <ele>492.6</ele>
        <time>2022-07-17T06:15:40Z</time>
      </trkpt>
      <trkpt lat="45.30371" lon="6.35228">
        <ele>492.8</ele>
        <time>2022-07-17T06:15:41Z</time>
      </trkpt>
      <trkpt lat="45.30365" lon="6.35232">
        <ele>492.8</ele>
        <time>2022-07-17T06:15:42Z</time>
      </trkpt>
      <trkpt lat="45.3036" lon="6.35235">
        <ele>492.8</ele>
        <time>2022-07-17T06:15:43Z</time>
      </trkpt>
      <trkpt lat="45.30354" lon="6.35238">
        <ele>492.8</ele>
        <time>2022-07-17T06:15:44Z</time>
      </trkpt>
      <trkpt lat="45.30348" lon="6.35241">
        <ele>493</ele>
        <time>2022-07-17T06:15:45Z</time>
      </trkpt>
      <trkpt lat="45.30342" lon="6.35243">
        <ele>493</ele>
        <time>2022-07-17T06:15:46Z</time>
      </trkpt>
      <trkpt lat="45.30336" lon="6.35246">
        <ele>493</ele>
        <time>2022-07-17T06:15:47Z</time>
      </trkpt>
      <trkpt lat="45.3033" lon="6.35248">
        <ele>493.4</ele>
        <time>2022-07-17T06:15:48Z</time>
      </trkpt>
      <trkpt lat="45.30323" lon="6.3525">
        <ele>493.4</ele>
        <time>2022-07-17T06:15:49Z</time>
      </trkpt>
      <trkpt lat="45.30318" lon="6.35252">
        <ele>493.4</ele>
        <time>2022-07-17T06:15:50Z</time>
      </trkpt>
      <trkpt lat="45.30312" lon="6.35254">
        <ele>493.6</ele>
        <time>2022-07-17T06:15:51Z</time>
      </trkpt>
      <trkpt lat="45.30306" lon="6.35256">
        <ele>493.6</ele>
        <time>2022-07-17T06:15:52Z</time>
      </trkpt>
      <trkpt lat="45.303" lon="6.35258">
        <ele>493.6</ele>
        <time>2022-07-17T06:15:53Z</time>
      </trkpt>
      <trkpt lat="45.30294" lon="6.3526">
        <ele>493.8</ele>
        <time>2022-07-17T06:15:54Z</time>
      </trkpt>
      <trkpt lat="45.30288" lon="6.35262">
        <ele>493.8</ele>
        <time>2022-07-17T06:15:55Z</time>
      </trkpt>
      <trkpt lat="45.30283" lon="6.35265">
        <ele>493.8</ele>
        <time>2022-07-17T06:15:56Z</time>
      </trkpt>
      <trkpt lat="45.30277" lon="6.35268">
        <ele>493.8</ele>
        <time>2022-07-17T06:15:57Z</time>
      </trkpt>
      <trkpt lat="45.30272" lon="6.35272">
        <ele>493.8</ele>
        <time>2022-07-17T06:15:58Z</time>
      </trkpt>
      <trkpt lat="45.30266" lon="6.35275">
        <ele>494</ele>
        <time>2022-07-17T06:15:59Z</time>
      </trkpt>
      <trkpt lat="45.30261" lon="6.35278">
        <ele>494</ele>
        <time>2022-07-17T06:16:00Z</time>
      </trkpt>
      <trkpt lat="45.30255" lon="6.35282">
        <ele>494</ele>
        <time>2022-07-17T06:16:01Z</time>
      </trkpt>
      <trkpt lat="45.3025" lon="6.35286">
        <ele>494.2</ele>
        <time>2022-07-17T06:16:02Z</time>
      </trkpt>
      <trkpt lat="45.30245" lon="6.35291">
        <ele>494.2</ele>
        <time>2022-07-17T06:16:03Z</time>
      </trkpt>
      <trkpt lat="45.3024" lon="6.35296">
        <ele>494.6</ele>
        <time>2022-07-17T06:16:04Z</time>
      </trkpt>
      <trkpt lat="45.30235" lon="6.35301">
        <ele>494.6</ele>
        <time>2022-07-17T06:16:05Z</time>
      </trkpt>
      <trkpt lat="45.30231" lon="6.35306">
        <ele>494.6</ele>
        <time>2022-07-17T06:16:06Z</time>
      </trkpt>
      <trkpt lat="45.30227" lon="6.35312">
        <ele>495</ele>
        <time>2022-07-17T06:16:07Z</time>
      </trkpt>
      <trkpt lat="45.30223" lon="6.35318">
        <ele>495</ele>
        <time>2022-07-17T06:16:08Z</time>
      </trkpt>
      <trkpt lat="45.30219" lon="6.35324">
        <ele>495.2</ele>
        <time>2022-07-17T06:16:09Z</time>
      </trkpt>
      <trkpt lat="45.30215" lon="6.3533">
        <ele>495.2</ele>
        <time>2022-07-17T06:16:10Z</time>
      </trkpt>
      <trkpt lat="45.30212" lon="6.35337">
        <ele>495.4</ele>
        <time>2022-07-17T06:16:11Z</time>
      </trkpt>
      <trkpt lat="45.30208" lon="6.35344">
        <ele>495.4</ele>
        <time>2022-07-17T06:16:12Z</time>
      </trkpt>
      <trkpt lat="45.30205" lon="6.3535">
        <ele>495.4</ele>
        <time>2022-07-17T06:16:13Z</time>
      </trkpt>
      <trkpt lat="45.30201" lon="6.35357">
        <ele>495.6</ele>
        <time>2022-07-17T06:16:14Z</time>
      </trkpt>
      <trkpt lat="45.30198" lon="6.35364">
        <ele>495.6</ele>
        <time>2022-07-17T06:16:15Z</time>
      </trkpt>
      <trkpt lat="45.30194" lon="6.3537">
        <ele>495.8</ele>
        <time>2022-07-17T06:16:16Z</time>
      </trkpt>
      <trkpt lat="45.3019" lon="6.35377">
        <ele>495.8</ele>
        <time>2022-07-17T06:16:17Z</time>
      </trkpt>
      <trkpt lat="45.30187" lon="6.35383">
        <ele>496.2</ele>
        <time>2022-07-17T06:16:18Z</time>
      </trkpt>
      <trkpt lat="45.30183" lon="6.3539">
        <ele>496.2</ele>
        <time>2022-07-17T06:16:19Z</time>
      </trkpt>
      <trkpt lat="45.3018" lon="6.35397">
        <ele>496.4</ele>
        <time>2022-07-17T06:16:20Z</time>
      </trkpt>
      <trkpt lat="45.30177" lon="6.35403">
        <ele>496.4</ele>
        <time>2022-07-17T06:16:21Z</time>
      </trkpt>
      <trkpt lat="45.30173" lon="6.3541">
        <ele>496.6</ele>
        <time>2022-07-17T06:16:22Z</time>
      </trkpt>
      <trkpt lat="45.30169" lon="6.35416">
        <ele>496.6</ele>
        <time>2022-07-17T06:16:23Z</time>
      </trkpt>
      <trkpt lat="45.30166" lon="6.35422">
        <ele>496.8</ele>
        <time>2022-07-17T06:16:24Z</time>
      </trkpt>
      <trkpt lat="45.30162" lon="6.35428">
        <ele>496.8</ele>
        <time>2022-07-17T06:16:25Z</time>
      </trkpt>
      <trkpt lat="45.30159" lon="6.35434">
        <ele>497</ele>
        <time>2022-07-17T06:16:26Z</time>
      </trkpt>
      <trkpt lat="45.30155" lon="6.3544">
        <ele>497</ele>
        <time>2022-07-17T06:16:27Z</time>
      </trkpt>
      <trkpt lat="45.30151" lon="6.35445">
        <ele>497.2</ele>
        <time>2022-07-17T06:16:28Z</time>
      </trkpt>
      <trkpt lat="45.30147" lon="6.3545">
        <ele>497.2</ele>
        <time>2022-07-17T06:16:29Z</time>
      </trkpt>
      <trkpt lat="45.30143" lon="6.35456">
        <ele>497.4</ele>
        <time>2022-07-17T06:16:30Z</time>
      </trkpt>
      <trkpt lat="45.30139" lon="6.35462">
        <ele>497.4</ele>
        <time>2022-07-17T06:16:31Z</time>
      </trkpt>
      <trkpt lat="45.30135" lon="6.35468">
        <ele>497.8</ele>
        <time>2022-07-17T06:16:32Z</time>
      </trkpt>
      <trkpt lat="45.30131" lon="6.35473">
        <ele>497.8</ele>
        <time>2022-07-17T06:16:33Z</time>
      </trkpt>
      <trkpt lat="45.30128" lon="6.35478">
        <ele>498.2</ele>
        <time>2022-07-17T06:16:34Z</time>
      </trkpt>
      <trkpt lat="45.30124" lon="6.35483">
        <ele>498.4</ele>
        <time>2022-07-17T06:16:35Z</time>
      </trkpt>
      <trkpt lat="45.3012" lon="6.35488">
        <ele>498.4</ele>
        <time>2022-07-17T06:16:36Z</time>
      </trkpt>
      <trkpt lat="45.30116" lon="6.35492">
        <ele>499</ele>
        <time>2022-07-17T06:16:37Z</time>
      </trkpt>
      <trkpt lat="45.30113" lon="6.35497">
        <ele>499.2</ele>
        <time>2022-07-17T06:16:38Z</time>
      </trkpt>
      <trkpt lat="45.30109" lon="6.35501">
        <ele>499.4</ele>
        <time>2022-07-17T06:16:39Z</time>
      </trkpt>
      <trkpt lat="45.30105" lon="6.35505">
        <ele>499.6</ele>
        <time>2022-07-17T06:16:40Z</time>
      </trkpt>
      <trkpt lat="45.30102" lon="6.35509">
        <ele>499.8</ele>
        <time>2022-07-17T06:16:41Z</time>
      </trkpt>
      <trkpt lat="45.30099" lon="6.35513">
        <ele>500.2</ele>
        <time>2022-07-17T06:16:42Z</time>
      </trkpt>
      <trkpt lat="45.30096" lon="6.35517">
        <ele>500.4</ele>
        <time>2022-07-17T06:16:43Z</time>
      </trkpt>
      <trkpt lat="45.30092" lon="6.35521">
        <ele>500.6</ele>
        <time>2022-07-17T06:16:44Z</time>
      </trkpt>
      <trkpt lat="45.30089" lon="6.35525">
        <ele>501</ele>
        <time>2022-07-17T06:16:45Z</time>
      </trkpt>
      <trkpt lat="45.30086" lon="6.35528">
        <ele>501.2</ele>
        <time>2022-07-17T06:16:46Z</time>
      </trkpt>
      <trkpt lat="45.30083" lon="6.35531">
        <ele>501.2</ele>
        <time>2022-07-17T06:16:47Z</time>
      </trkpt>
      <trkpt lat="45.30079" lon="6.35534">
        <ele>501.4</ele>
        <time>2022-07-17T06:16:48Z</time>
      </trkpt>
      <trkpt lat="45.30076" lon="6.35536">
        <ele>501.6</ele>
        <time>2022-07-17T06:16:49Z</time>
      </trkpt>
      <trkpt lat="45.30073" lon="6.35539">
        <ele>501.6</ele>
        <time>2022-07-17T06:16:50Z</time>
      </trkpt>
      <trkpt lat="45.3007" lon="6.35542">
        <ele>502</ele>
        <time>2022-07-17T06:16:51Z</time>
      </trkpt>
      <trkpt lat="45.30067" lon="6.35545">
        <ele>502.2</ele>
        <time>2022-07-17T06:16:52Z</time>
      </trkpt>
      <trkpt lat="45.30064" lon="6.35549">
        <ele>502.6</ele>
        <time>2022-07-17T06:16:53Z</time>
      </trkpt>
      <trkpt lat="45.30061" lon="6.35551">
        <ele>502.8</ele>
        <time>2022-07-17T06:16:54Z</time>
      </trkpt>
      <trkpt lat="45.30058" lon="6.35554">
        <ele>503</ele>
        <time>2022-07-17T06:16:55Z</time>
      </trkpt>
      <trkpt lat="45.30055" lon="6.35557">
        <ele>503.4</ele>
        <time>2022-07-17T06:16:56Z</time>
      </trkpt>
      <trkpt lat="45.30052" lon="6.35559">
        <ele>503.4</ele>
        <time>2022-07-17T06:16:57Z</time>
      </trkpt>
      <trkpt lat="45.30049" lon="6.35562">
        <ele>503.6</ele>
        <time>2022-07-17T06:16:58Z</time>
      </trkpt>
      <trkpt lat="45.30046" lon="6.35565">
        <ele>504</ele>
        <time>2022-07-17T06:16:59Z</time>
      </trkpt>
      <trkpt lat="45.30044" lon="6.35568">
        <ele>504.2</ele>
        <time>2022-07-17T06:17:00Z</time>
      </trkpt>
      <trkpt lat="45.30041" lon="6.35571">
        <ele>504.4</ele>
        <time>2022-07-17T06:17:01Z</time>
      </trkpt>
      <trkpt lat="45.30038" lon="6.35574">
        <ele>504.6</ele>
        <time>2022-07-17T06:17:02Z</time>
      </trkpt>
      <trkpt lat="45.30035" lon="6.35576">
        <ele>504.6</ele>
        <time>2022-07-17T06:17:03Z</time>
      </trkpt>
      <trkpt lat="45.30033" lon="6.35579">
        <ele>505</ele>
        <time>2022-07-17T06:17:04Z</time>
      </trkpt>
      <trkpt lat="45.3003" lon="6.35582">
        <ele>505.2</ele>
        <time>2022-07-17T06:17:05Z</time>
      </trkpt>
      <trkpt lat="45.30027" lon="6.35585">
        <ele>505.4</ele>
        <time>2022-07-17T06:17:06Z</time>
      </trkpt>
      <trkpt lat="45.30024" lon="6.35587">
        <ele>505.4</ele>
        <time>2022-07-17T06:17:07Z</time>
      </trkpt>
      <trkpt lat="45.30021" lon="6.3559">
        <ele>505.8</ele>
        <time>2022-07-17T06:17:08Z</time>
      </trkpt>
      <trkpt lat="45.30018" lon="6.35593">
        <ele>506</ele>
        <time>2022-07-17T06:17:09Z</time>
      </trkpt>
      <trkpt lat="45.30015" lon="6.35596">
        <ele>506.2</ele>
        <time>2022-07-17T06:17:10Z</time>
      </trkpt>
      <trkpt lat="45.30012" lon="6.35598">
        <ele>506.4</ele>
        <time>2022-07-17T06:17:11Z</time>
      </trkpt>
      <trkpt lat="45.30009" lon="6.35601">
        <ele>506.8</ele>
        <time>2022-07-17T06:17:12Z</time>
      </trkpt>
      <trkpt lat="45.30006" lon="6.35604">
        <ele>507</ele>
        <time>2022-07-17T06:17:13Z</time>
      </trkpt>
      <trkpt lat="45.30003" lon="6.35607">
        <ele>507.2</ele>
        <time>2022-07-17T06:17:14Z</time>
      </trkpt>
      <trkpt lat="45.30001" lon="6.3561">
        <ele>507.6</ele>
        <time>2022-07-17T06:17:15Z</time>
      </trkpt>
      <trkpt lat="45.29998" lon="6.35613">
        <ele>507.8</ele>
        <time>2022-07-17T06:17:16Z</time>
      </trkpt>
      <trkpt lat="45.29995" lon="6.35615">
        <ele>508</ele>
        <time>2022-07-17T06:17:17Z</time>
      </trkpt>
      <trkpt lat="45.29992" lon="6.35618">
        <ele>508.4</ele>
        <time>2022-07-17T06:17:18Z</time>
      </trkpt>
      <trkpt lat="45.2999" lon="6.3562">
        <ele>508.6</ele>
        <time>2022-07-17T06:17:19Z</time>
      </trkpt>
      <trkpt lat="45.29987" lon="6.35623">
        <ele>508.8</ele>
        <time>2022-07-17T06:17:20Z</time>
      </trkpt>
      <trkpt lat="45.29984" lon="6.35625">
        <ele>509.2</ele>
        <time>2022-07-17T06:17:21Z</time>
      </trkpt>
      <trkpt lat="45.29982" lon="6.35628">
        <ele>509.2</ele>
        <time>2022-07-17T06:17:22Z</time>
      </trkpt>
      <trkpt lat="45.29979" lon="6.3563">
        <ele>509.4</ele>
        <time>2022-07-17T06:17:23Z</time>
      </trkpt>
      <trkpt lat="45.29976" lon="6.35633">
        <ele>509.4</ele>
        <time>2022-07-17T06:17:24Z</time>
      </trkpt>
      <trkpt lat="45.29973" lon="6.35635">
        <ele>509.8</ele>
        <time>2022-07-17T06:17:25Z</time>
      </trkpt>
      <trkpt lat="45.2997" lon="6.35638">
        <ele>510.2</ele>
        <time>2022-07-17T06:17:26Z</time>
      </trkpt>
      <trkpt lat="45.29967" lon="6.3564">
        <ele>510.4</ele>
        <time>2022-07-17T06:17:27Z</time>
      </trkpt>
      <trkpt lat="45.29964" lon="6.35643">
        <ele>510.6</ele>
        <time>2022-07-17T06:17:28Z</time>
      </trkpt>
      <trkpt lat="45.2996" lon="6.35646">
        <ele>510.8</ele>
        <time>2022-07-17T06:17:29Z</time>
      </trkpt>
      <trkpt lat="45.29957" lon="6.35648">
        <ele>510.8</ele>
        <time>2022-07-17T06:17:30Z</time>
      </trkpt>
      <trkpt lat="45.29954" lon="6.3565">
        <ele>511.4</ele>
        <time>2022-07-17T06:17:31Z</time>
      </trkpt>
      <trkpt lat="45.2995" lon="6.35652">
        <ele>511.6</ele>
        <time>2022-07-17T06:17:32Z</time>
      </trkpt>
      <trkpt lat="45.29947" lon="6.35653">
        <ele>512</ele>
        <time>2022-07-17T06:17:33Z</time>
      </trkpt>
      <trkpt lat="45.29944" lon="6.35654">
        <ele>512.2</ele>
        <time>2022-07-17T06:17:34Z</time>
      </trkpt>
      <trkpt lat="45.2994" lon="6.35655">
        <ele>512.6</ele>
        <time>2022-07-17T06:17:35Z</time>
      </trkpt>
      <trkpt lat="45.29937" lon="6.35656">
        <ele>512.8</ele>
        <time>2022-07-17T06:17:36Z</time>
      </trkpt>
      <trkpt lat="45.29933" lon="6.35656">
        <ele>513</ele>
        <time>2022-07-17T06:17:37Z</time>
      </trkpt>
      <trkpt lat="45.2993" lon="6.35656">
        <ele>513.2</ele>
        <time>2022-07-17T06:17:38Z</time>
      </trkpt>
      <trkpt lat="45.29927" lon="6.35656">
        <ele>513.6</ele>
        <time>2022-07-17T06:17:39Z</time>
      </trkpt>
      <trkpt lat="45.29923" lon="6.35656">
        <ele>513.8</ele>
        <time>2022-07-17T06:17:40Z</time>
      </trkpt>
      <trkpt lat="45.2992" lon="6.35655">
        <ele>514.2</ele>
        <time>2022-07-17T06:17:41Z</time>
      </trkpt>
      <trkpt lat="45.29916" lon="6.35655">
        <ele>514.4</ele>
        <time>2022-07-17T06:17:42Z</time>
      </trkpt>
      <trkpt lat="45.29913" lon="6.35654">
        <ele>514.4</ele>
        <time>2022-07-17T06:17:43Z</time>
      </trkpt>
      <trkpt lat="45.29909" lon="6.35653">
        <ele>514.8</ele>
        <time>2022-07-17T06:17:44Z</time>
      </trkpt>
      <trkpt lat="45.29906" lon="6.35652">
        <ele>514.8</ele>
        <time>2022-07-17T06:17:45Z</time>
      </trkpt>
      <trkpt lat="45.29903" lon="6.3565">
        <ele>515.2</ele>
        <time>2022-07-17T06:17:46Z</time>
      </trkpt>
      <trkpt lat="45.29899" lon="6.35648">
        <ele>515.4</ele>
        <time>2022-07-17T06:17:47Z</time>
      </trkpt>
      <trkpt lat="45.29895" lon="6.35647">
        <ele>515.6</ele>
        <time>2022-07-17T06:17:48Z</time>
      </trkpt>
      <trkpt lat="45.29892" lon="6.35646">
        <ele>515.6</ele>
        <time>2022-07-17T06:17:49Z</time>
      </trkpt>
      <trkpt lat="45.29888" lon="6.35644">
        <ele>515.8</ele>
        <time>2022-07-17T06:17:50Z</time>
      </trkpt>
      <trkpt lat="45.29884" lon="6.35643">
        <ele>515.8</ele>
        <time>2022-07-17T06:17:51Z</time>
      </trkpt>
      <trkpt lat="45.29881" lon="6.35641">
        <ele>516.2</ele>
        <time>2022-07-17T06:17:52Z</time>
      </trkpt>
      <trkpt lat="45.29877" lon="6.35639">
        <ele>516.2</ele>
        <time>2022-07-17T06:17:53Z</time>
      </trkpt>
      <trkpt lat="45.29873" lon="6.35637">
        <ele>516.6</ele>
        <time>2022-07-17T06:17:54Z</time>
      </trkpt>
      <trkpt lat="45.29869" lon="6.35635">
        <ele>516.6</ele>
        <time>2022-07-17T06:17:55Z</time>
      </trkpt>
      <trkpt lat="45.29865" lon="6.35633">
        <ele>516.6</ele>
        <time>2022-07-17T06:17:56Z</time>
      </trkpt>
      <trkpt lat="45.2986" lon="6.35632">
        <ele>516.8</ele>
        <time>2022-07-17T06:17:57Z</time>
      </trkpt>
      <trkpt lat="45.29856" lon="6.35629">
        <ele>516.8</ele>
        <time>2022-07-17T06:17:58Z</time>
      </trkpt>
      <trkpt lat="45.29852" lon="6.35628">
        <ele>516.8</ele>
        <time>2022-07-17T06:17:59Z</time>
      </trkpt>
      <trkpt lat="45.29847" lon="6.35626">
        <ele>516.8</ele>
        <time>2022-07-17T06:18:00Z</time>
      </trkpt>
      <trkpt lat="45.29843" lon="6.35625">
        <ele>516.8</ele>
        <time>2022-07-17T06:18:01Z</time>
      </trkpt>
      <trkpt lat="45.29838" lon="6.35623">
        <ele>516.8</ele>
        <time>2022-07-17T06:18:02Z</time>
      </trkpt>
      <trkpt lat="45.29833" lon="6.35622">
        <ele>516.8</ele>
        <time>2022-07-17T06:18:03Z</time>
      </trkpt>
      <trkpt lat="45.29828" lon="6.3562">
        <ele>516.8</ele>
        <time>2022-07-17T06:18:04Z</time>
      </trkpt>
      <trkpt lat="45.29823" lon="6.35619">
        <ele>516.6</ele>
        <time>2022-07-17T06:18:05Z</time>
      </trkpt>
      <trkpt lat="45.29817" lon="6.35618">
        <ele>516.6</ele>
        <time>2022-07-17T06:18:06Z</time>
      </trkpt>
      <trkpt lat="45.29811" lon="6.35617">
        <ele>516.4</ele>
        <time>2022-07-17T06:18:07Z</time>
      </trkpt>
      <trkpt lat="45.29805" lon="6.35616">
        <ele>516.4</ele>
        <time>2022-07-17T06:18:08Z</time>
      </trkpt>
      <trkpt lat="45.29798" lon="6.35615">
        <ele>516</ele>
        <time>2022-07-17T06:18:09Z</time>
      </trkpt>
      <trkpt lat="45.29792" lon="6.35614">
        <ele>515.6</ele>
        <time>2022-07-17T06:18:10Z</time>
      </trkpt>
      <trkpt lat="45.29785" lon="6.35613">
        <ele>515.4</ele>
        <time>2022-07-17T06:18:11Z</time>
      </trkpt>
      <trkpt lat="45.29778" lon="6.35612">
        <ele>515.2</ele>
        <time>2022-07-17T06:18:12Z</time>
      </trkpt>
      <trkpt lat="45.29771" lon="6.3561">
        <ele>514.8</ele>
        <time>2022-07-17T06:18:13Z</time>
      </trkpt>
      <trkpt lat="45.29764" lon="6.35609">
        <ele>514.6</ele>
        <time>2022-07-17T06:18:14Z</time>
      </trkpt>
      <trkpt lat="45.29757" lon="6.35607">
        <ele>514.4</ele>
        <time>2022-07-17T06:18:15Z</time>
      </trkpt>
      <trkpt lat="45.2975" lon="6.35605">
        <ele>514.4</ele>
        <time>2022-07-17T06:18:16Z</time>
      </trkpt>
      <trkpt lat="45.29743" lon="6.35603">
        <ele>514</ele>
        <time>2022-07-17T06:18:17Z</time>
      </trkpt>
      <trkpt lat="45.29735" lon="6.35602">
        <ele>513.6</ele>
        <time>2022-07-17T06:18:18Z</time>
      </trkpt>
      <trkpt lat="45.29727" lon="6.356">
        <ele>513.4</ele>
        <time>2022-07-17T06:18:19Z</time>
      </trkpt>
      <trkpt lat="45.2972" lon="6.35598">
        <ele>513.2</ele>
        <time>2022-07-17T06:18:20Z</time>
      </trkpt>
      <trkpt lat="45.29712" lon="6.35597">
        <ele>513</ele>
        <time>2022-07-17T06:18:21Z</time>
      </trkpt>
      <trkpt lat="45.29704" lon="6.35596">
        <ele>513</ele>
        <time>2022-07-17T06:18:22Z</time>
      </trkpt>
      <trkpt lat="45.29697" lon="6.35595">
        <ele>512.6</ele>
        <time>2022-07-17T06:18:23Z</time>
      </trkpt>
      <trkpt lat="45.29682" lon="6.35595">
        <ele>512.6</ele>
        <time>2022-07-17T06:18:24Z</time>
      </trkpt>
      <trkpt lat="45.29675" lon="6.35596">
        <ele>512.2</ele>
        <time>2022-07-17T06:18:25Z</time>
      </trkpt>
      <trkpt lat="45.29668" lon="6.35598">
        <ele>512.2</ele>
        <time>2022-07-17T06:18:26Z</time>
      </trkpt>
      <trkpt lat="45.29661" lon="6.356">
        <ele>512</ele>
        <time>2022-07-17T06:18:27Z</time>
      </trkpt>
      <trkpt lat="45.29654" lon="6.35602">
        <ele>512</ele>
        <time>2022-07-17T06:18:28Z</time>
      </trkpt>
      <trkpt lat="45.29648" lon="6.35605">
        <ele>512</ele>
        <time>2022-07-17T06:18:29Z</time>
      </trkpt>
      <trkpt lat="45.29642" lon="6.35608">
        <ele>512</ele>
        <time>2022-07-17T06:18:30Z</time>
      </trkpt>
      <trkpt lat="45.29637" lon="6.35612">
        <ele>512</ele>
        <time>2022-07-17T06:18:31Z</time>
      </trkpt>
      <trkpt lat="45.29631" lon="6.35616">
        <ele>512</ele>
        <time>2022-07-17T06:18:32Z</time>
      </trkpt>
      <trkpt lat="45.29626" lon="6.35621">
        <ele>512</ele>
        <time>2022-07-17T06:18:33Z</time>
      </trkpt>
      <trkpt lat="45.29621" lon="6.35625">
        <ele>512.2</ele>
        <time>2022-07-17T06:18:34Z</time>
      </trkpt>
      <trkpt lat="45.29617" lon="6.3563">
        <ele>512.2</ele>
        <time>2022-07-17T06:18:35Z</time>
      </trkpt>
      <trkpt lat="45.29613" lon="6.35635">
        <ele>512.2</ele>
        <time>2022-07-17T06:18:36Z</time>
      </trkpt>
      <trkpt lat="45.29609" lon="6.35639">
        <ele>512.6</ele>
        <time>2022-07-17T06:18:37Z</time>
      </trkpt>
      <trkpt lat="45.29605" lon="6.35643">
        <ele>512.6</ele>
        <time>2022-07-17T06:18:38Z</time>
      </trkpt>
      <trkpt lat="45.29601" lon="6.35647">
        <ele>512.8</ele>
        <time>2022-07-17T06:18:39Z</time>
      </trkpt>
      <trkpt lat="45.29597" lon="6.35649">
        <ele>512.8</ele>
        <time>2022-07-17T06:18:40Z</time>
      </trkpt>
      <trkpt lat="45.29592" lon="6.3565">
        <ele>512.8</ele>
        <time>2022-07-17T06:18:41Z</time>
      </trkpt>
      <trkpt lat="45.29587" lon="6.35652">
        <ele>512.8</ele>
        <time>2022-07-17T06:18:42Z</time>
      </trkpt>
      <trkpt lat="45.29583" lon="6.35655">
        <ele>512.8</ele>
        <time>2022-07-17T06:18:43Z</time>
      </trkpt>
      <trkpt lat="45.29578" lon="6.35659">
        <ele>512.8</ele>
        <time>2022-07-17T06:18:44Z</time>
      </trkpt>
      <trkpt lat="45.29575" lon="6.35664">
        <ele>512.8</ele>
        <time>2022-07-17T06:18:45Z</time>
      </trkpt>
      <trkpt lat="45.29572" lon="6.3567">
        <ele>512.8</ele>
        <time>2022-07-17T06:18:46Z</time>
      </trkpt>
      <trkpt lat="45.29571" lon="6.35677">
        <ele>513.2</ele>
        <time>2022-07-17T06:18:47Z</time>
      </trkpt>
      <trkpt lat="45.2957" lon="6.35683">
        <ele>513.2</ele>
        <time>2022-07-17T06:18:48Z</time>
      </trkpt>
      <trkpt lat="45.29568" lon="6.35689">
        <ele>513.2</ele>
        <time>2022-07-17T06:18:49Z</time>
      </trkpt>
      <trkpt lat="45.29566" lon="6.35694">
        <ele>513.2</ele>
        <time>2022-07-17T06:18:50Z</time>
      </trkpt>
      <trkpt lat="45.29563" lon="6.357">
        <ele>513.2</ele>
        <time>2022-07-17T06:18:51Z</time>
      </trkpt>
      <trkpt lat="45.29558" lon="6.35705">
        <ele>513.2</ele>
        <time>2022-07-17T06:18:52Z</time>
      </trkpt>
      <trkpt lat="45.29553" lon="6.35709">
        <ele>513.2</ele>
        <time>2022-07-17T06:18:53Z</time>
      </trkpt>
      <trkpt lat="45.29548" lon="6.35712">
        <ele>513.2</ele>
        <time>2022-07-17T06:18:54Z</time>
      </trkpt>
      <trkpt lat="45.29542" lon="6.35715">
        <ele>513.2</ele>
        <time>2022-07-17T06:18:55Z</time>
      </trkpt>
      <trkpt lat="45.29536" lon="6.35717">
        <ele>512.8</ele>
        <time>2022-07-17T06:18:56Z</time>
      </trkpt>
      <trkpt lat="45.2953" lon="6.35719">
        <ele>512.8</ele>
        <time>2022-07-17T06:18:57Z</time>
      </trkpt>
      <trkpt lat="45.29525" lon="6.3572">
        <ele>512.8</ele>
        <time>2022-07-17T06:18:58Z</time>
      </trkpt>
      <trkpt lat="45.29519" lon="6.3572">
        <ele>512.8</ele>
        <time>2022-07-17T06:18:59Z</time>
      </trkpt>
      <trkpt lat="45.29513" lon="6.3572">
        <ele>512.8</ele>
        <time>2022-07-17T06:19:00Z</time>
      </trkpt>
      <trkpt lat="45.29508" lon="6.35719">
        <ele>512.8</ele>
        <time>2022-07-17T06:19:01Z</time>
      </trkpt>
      <trkpt lat="45.29502" lon="6.35719">
        <ele>512.8</ele>
        <time>2022-07-17T06:19:02Z</time>
      </trkpt>
      <trkpt lat="45.29496" lon="6.35718">
        <ele>512.6</ele>
        <time>2022-07-17T06:19:03Z</time>
      </trkpt>
      <trkpt lat="45.29491" lon="6.35717">
        <ele>512.6</ele>
        <time>2022-07-17T06:19:04Z</time>
      </trkpt>
      <trkpt lat="45.29486" lon="6.35715">
        <ele>512.6</ele>
        <time>2022-07-17T06:19:05Z</time>
      </trkpt>
      <trkpt lat="45.2948" lon="6.35713">
        <ele>513</ele>
        <time>2022-07-17T06:19:06Z</time>
      </trkpt>
      <trkpt lat="45.29476" lon="6.3571">
        <ele>513</ele>
        <time>2022-07-17T06:19:07Z</time>
      </trkpt>
      <trkpt lat="45.29471" lon="6.35706">
        <ele>513</ele>
        <time>2022-07-17T06:19:08Z</time>
      </trkpt>
      <trkpt lat="45.29467" lon="6.35702">
        <ele>513.2</ele>
        <time>2022-07-17T06:19:09Z</time>
      </trkpt>
      <trkpt lat="45.29463" lon="6.35697">
        <ele>513.2</ele>
        <time>2022-07-17T06:19:10Z</time>
      </trkpt>
      <trkpt lat="45.29459" lon="6.35693">
        <ele>513.2</ele>
        <time>2022-07-17T06:19:11Z</time>
      </trkpt>
      <trkpt lat="45.29454" lon="6.3569">
        <ele>513.4</ele>
        <time>2022-07-17T06:19:12Z</time>
      </trkpt>
      <trkpt lat="45.2945" lon="6.35689">
        <ele>513.4</ele>
        <time>2022-07-17T06:19:13Z</time>
      </trkpt>
      <trkpt lat="45.29446" lon="6.35689">
        <ele>513.4</ele>
        <time>2022-07-17T06:19:14Z</time>
      </trkpt>
      <trkpt lat="45.29442" lon="6.35692">
        <ele>513.4</ele>
        <time>2022-07-17T06:19:15Z</time>
      </trkpt>
      <trkpt lat="45.29438" lon="6.35696">
        <ele>513.8</ele>
        <time>2022-07-17T06:19:16Z</time>
      </trkpt>
      <trkpt lat="45.29433" lon="6.357">
        <ele>513.8</ele>
        <time>2022-07-17T06:19:17Z</time>
      </trkpt>
      <trkpt lat="45.29428" lon="6.35704">
        <ele>513.8</ele>
        <time>2022-07-17T06:19:18Z</time>
      </trkpt>
      <trkpt lat="45.29422" lon="6.35708">
        <ele>513.8</ele>
        <time>2022-07-17T06:19:19Z</time>
      </trkpt>
      <trkpt lat="45.29417" lon="6.35712">
        <ele>513.8</ele>
        <time>2022-07-17T06:19:20Z</time>
      </trkpt>
      <trkpt lat="45.29411" lon="6.35715">
        <ele>513.8</ele>
        <time>2022-07-17T06:19:21Z</time>
      </trkpt>
      <trkpt lat="45.29404" lon="6.35717">
        <ele>513.8</ele>
        <time>2022-07-17T06:19:22Z</time>
      </trkpt>
      <trkpt lat="45.29398" lon="6.35718">
        <ele>513.4</ele>
        <time>2022-07-17T06:19:23Z</time>
      </trkpt>
      <trkpt lat="45.29391" lon="6.3572">
        <ele>513.4</ele>
        <time>2022-07-17T06:19:24Z</time>
      </trkpt>
      <trkpt lat="45.29384" lon="6.3572">
        <ele>513.2</ele>
        <time>2022-07-17T06:19:25Z</time>
      </trkpt>
      <trkpt lat="45.29377" lon="6.3572">
        <ele>513</ele>
        <time>2022-07-17T06:19:26Z</time>
      </trkpt>
      <trkpt lat="45.29369" lon="6.3572">
        <ele>513</ele>
        <time>2022-07-17T06:19:27Z</time>
      </trkpt>
      <trkpt lat="45.29362" lon="6.35719">
        <ele>512.4</ele>
        <time>2022-07-17T06:19:28Z</time>
      </trkpt>
      <trkpt lat="45.29354" lon="6.35718">
        <ele>512.2</ele>
        <time>2022-07-17T06:19:29Z</time>
      </trkpt>
      <trkpt lat="45.29346" lon="6.35717">
        <ele>511.8</ele>
        <time>2022-07-17T06:19:30Z</time>
      </trkpt>
      <trkpt lat="45.29339" lon="6.35717">
        <ele>511.8</ele>
        <time>2022-07-17T06:19:31Z</time>
      </trkpt>
      <trkpt lat="45.29331" lon="6.35717">
        <ele>511.2</ele>
        <time>2022-07-17T06:19:32Z</time>
      </trkpt>
      <trkpt lat="45.29322" lon="6.35716">
        <ele>511</ele>
        <time>2022-07-17T06:19:33Z</time>
      </trkpt>
      <trkpt lat="45.29314" lon="6.35715">
        <ele>510.6</ele>
        <time>2022-07-17T06:19:34Z</time>
      </trkpt>
      <trkpt lat="45.29306" lon="6.35715">
        <ele>510.2</ele>
        <time>2022-07-17T06:19:35Z</time>
      </trkpt>
      <trkpt lat="45.29298" lon="6.35714">
        <ele>510</ele>
        <time>2022-07-17T06:19:36Z</time>
      </trkpt>
      <trkpt lat="45.2929" lon="6.35714">
        <ele>509.6</ele>
        <time>2022-07-17T06:19:37Z</time>
      </trkpt>
      <trkpt lat="45.29282" lon="6.35713">
        <ele>509.4</ele>
        <time>2022-07-17T06:19:38Z</time>
      </trkpt>
      <trkpt lat="45.29273" lon="6.35712">
        <ele>509</ele>
        <time>2022-07-17T06:19:39Z</time>
      </trkpt>
      <trkpt lat="45.29265" lon="6.35711">
        <ele>508.8</ele>
        <time>2022-07-17T06:19:40Z</time>
      </trkpt>
      <trkpt lat="45.29257" lon="6.35711">
        <ele>508.8</ele>
        <time>2022-07-17T06:19:41Z</time>
      </trkpt>
      <trkpt lat="45.29249" lon="6.35709">
        <ele>508.2</ele>
        <time>2022-07-17T06:19:42Z</time>
      </trkpt>
      <trkpt lat="45.29241" lon="6.35708">
        <ele>508.2</ele>
        <time>2022-07-17T06:19:43Z</time>
      </trkpt>
      <trkpt lat="45.29234" lon="6.35708">
        <ele>508</ele>
        <time>2022-07-17T06:19:44Z</time>
      </trkpt>
      <trkpt lat="45.29226" lon="6.35707">
        <ele>507.6</ele>
        <time>2022-07-17T06:19:45Z</time>
      </trkpt>
      <trkpt lat="45.29218" lon="6.35706">
        <ele>507.6</ele>
        <time>2022-07-17T06:19:46Z</time>
      </trkpt>
      <trkpt lat="45.29211" lon="6.35706">
        <ele>507.4</ele>
        <time>2022-07-17T06:19:47Z</time>
      </trkpt>
      <trkpt lat="45.29203" lon="6.35705">
        <ele>507.4</ele>
        <time>2022-07-17T06:19:48Z</time>
      </trkpt>
      <trkpt lat="45.29195" lon="6.35704">
        <ele>507.4</ele>
        <time>2022-07-17T06:19:49Z</time>
      </trkpt>
      <trkpt lat="45.29188" lon="6.35703">
        <ele>507.4</ele>
        <time>2022-07-17T06:19:50Z</time>
      </trkpt>
      <trkpt lat="45.29181" lon="6.35702">
        <ele>507.4</ele>
        <time>2022-07-17T06:19:51Z</time>
      </trkpt>
      <trkpt lat="45.29174" lon="6.35701">
        <ele>507.4</ele>
        <time>2022-07-17T06:19:52Z</time>
      </trkpt>
      <trkpt lat="45.29168" lon="6.357">
        <ele>507.4</ele>
        <time>2022-07-17T06:19:53Z</time>
      </trkpt>
      <trkpt lat="45.29161" lon="6.35699">
        <ele>507.4</ele>
        <time>2022-07-17T06:19:54Z</time>
      </trkpt>
      <trkpt lat="45.29155" lon="6.35697">
        <ele>507.4</ele>
        <time>2022-07-17T06:19:55Z</time>
      </trkpt>
      <trkpt lat="45.29148" lon="6.35697">
        <ele>507.4</ele>
        <time>2022-07-17T06:19:56Z</time>
      </trkpt>
      <trkpt lat="45.29142" lon="6.35696">
        <ele>507.4</ele>
        <time>2022-07-17T06:19:57Z</time>
      </trkpt>
      <trkpt lat="45.29136" lon="6.35695">
        <ele>507.4</ele>
        <time>2022-07-17T06:19:58Z</time>
      </trkpt>
      <trkpt lat="45.29129" lon="6.35693">
        <ele>507.4</ele>
        <time>2022-07-17T06:19:59Z</time>
      </trkpt>
      <trkpt lat="45.29123" lon="6.35692">
        <ele>507.4</ele>
        <time>2022-07-17T06:20:00Z</time>
      </trkpt>
      <trkpt lat="45.29116" lon="6.35691">
        <ele>507.4</ele>
        <time>2022-07-17T06:20:01Z</time>
      </trkpt>
      <trkpt lat="45.29109" lon="6.3569">
        <ele>507.4</ele>
        <time>2022-07-17T06:20:02Z</time>
      </trkpt>
      <trkpt lat="45.29102" lon="6.35689">
        <ele>507.4</ele>
        <time>2022-07-17T06:20:03Z</time>
      </trkpt>
      <trkpt lat="45.29096" lon="6.35687">
        <ele>507.4</ele>
        <time>2022-07-17T06:20:04Z</time>
      </trkpt>
      <trkpt lat="45.29089" lon="6.35685">
        <ele>507.6</ele>
        <time>2022-07-17T06:20:05Z</time>
      </trkpt>
      <trkpt lat="45.29083" lon="6.35683">
        <ele>507.6</ele>
        <time>2022-07-17T06:20:06Z</time>
      </trkpt>
      <trkpt lat="45.29076" lon="6.35681">
        <ele>507.6</ele>
        <time>2022-07-17T06:20:07Z</time>
      </trkpt>
      <trkpt lat="45.2907" lon="6.35679">
        <ele>507.8</ele>
        <time>2022-07-17T06:20:08Z</time>
      </trkpt>
      <trkpt lat="45.29064" lon="6.35676">
        <ele>507.8</ele>
        <time>2022-07-17T06:20:09Z</time>
      </trkpt>
      <trkpt lat="45.29058" lon="6.35674">
        <ele>507.8</ele>
        <time>2022-07-17T06:20:10Z</time>
      </trkpt>
      <trkpt lat="45.29053" lon="6.35672">
        <ele>508</ele>
        <time>2022-07-17T06:20:11Z</time>
      </trkpt>
      <trkpt lat="45.29047" lon="6.35669">
        <ele>508</ele>
        <time>2022-07-17T06:20:12Z</time>
      </trkpt>
      <trkpt lat="45.29041" lon="6.35666">
        <ele>508.2</ele>
        <time>2022-07-17T06:20:13Z</time>
      </trkpt>
      <trkpt lat="45.29036" lon="6.35664">
        <ele>508.2</ele>
        <time>2022-07-17T06:20:14Z</time>
      </trkpt>
      <trkpt lat="45.29031" lon="6.35661">
        <ele>508.2</ele>
        <time>2022-07-17T06:20:15Z</time>
      </trkpt>
      <trkpt lat="45.29026" lon="6.35659">
        <ele>508.4</ele>
        <time>2022-07-17T06:20:16Z</time>
      </trkpt>
      <trkpt lat="45.29021" lon="6.35656">
        <ele>508.4</ele>
        <time>2022-07-17T06:20:17Z</time>
      </trkpt>
      <trkpt lat="45.29015" lon="6.35654">
        <ele>508.8</ele>
        <time>2022-07-17T06:20:18Z</time>
      </trkpt>
      <trkpt lat="45.2901" lon="6.35651">
        <ele>508.8</ele>
        <time>2022-07-17T06:20:19Z</time>
      </trkpt>
      <trkpt lat="45.29006" lon="6.35649">
        <ele>509</ele>
        <time>2022-07-17T06:20:20Z</time>
      </trkpt>
      <trkpt lat="45.29001" lon="6.35646">
        <ele>509</ele>
        <time>2022-07-17T06:20:21Z</time>
      </trkpt>
      <trkpt lat="45.28995" lon="6.35644">
        <ele>509.2</ele>
        <time>2022-07-17T06:20:22Z</time>
      </trkpt>
      <trkpt lat="45.28991" lon="6.35641">
        <ele>509.2</ele>
        <time>2022-07-17T06:20:23Z</time>
      </trkpt>
      <trkpt lat="45.28986" lon="6.35639">
        <ele>509.4</ele>
        <time>2022-07-17T06:20:24Z</time>
      </trkpt>
      <trkpt lat="45.28981" lon="6.35636">
        <ele>509.4</ele>
        <time>2022-07-17T06:20:25Z</time>
      </trkpt>
      <trkpt lat="45.28976" lon="6.35633">
        <ele>509.8</ele>
        <time>2022-07-17T06:20:26Z</time>
      </trkpt>
      <trkpt lat="45.28971" lon="6.3563">
        <ele>510</ele>
        <time>2022-07-17T06:20:27Z</time>
      </trkpt>
      <trkpt lat="45.28965" lon="6.35628">
        <ele>510.2</ele>
        <time>2022-07-17T06:20:28Z</time>
      </trkpt>
      <trkpt lat="45.2896" lon="6.35625">
        <ele>510.2</ele>
        <time>2022-07-17T06:20:29Z</time>
      </trkpt>
      <trkpt lat="45.28955" lon="6.35622">
        <ele>510.6</ele>
        <time>2022-07-17T06:20:30Z</time>
      </trkpt>
      <trkpt lat="45.2895" lon="6.35619">
        <ele>510.6</ele>
        <time>2022-07-17T06:20:31Z</time>
      </trkpt>
      <trkpt lat="45.28944" lon="6.35616">
        <ele>510.8</ele>
        <time>2022-07-17T06:20:32Z</time>
      </trkpt>
      <trkpt lat="45.28939" lon="6.35613">
        <ele>510.8</ele>
        <time>2022-07-17T06:20:33Z</time>
      </trkpt>
      <trkpt lat="45.28933" lon="6.3561">
        <ele>511</ele>
        <time>2022-07-17T06:20:34Z</time>
      </trkpt>
      <trkpt lat="45.28928" lon="6.35607">
        <ele>511</ele>
        <time>2022-07-17T06:20:35Z</time>
      </trkpt>
      <trkpt lat="45.28922" lon="6.35604">
        <ele>511</ele>
        <time>2022-07-17T06:20:36Z</time>
      </trkpt>
      <trkpt lat="45.28917" lon="6.35601">
        <ele>511.2</ele>
        <time>2022-07-17T06:20:37Z</time>
      </trkpt>
      <trkpt lat="45.28911" lon="6.35599">
        <ele>511.2</ele>
        <time>2022-07-17T06:20:38Z</time>
      </trkpt>
      <trkpt lat="45.28906" lon="6.35596">
        <ele>511.4</ele>
        <time>2022-07-17T06:20:39Z</time>
      </trkpt>
      <trkpt lat="45.28901" lon="6.35593">
        <ele>511.4</ele>
        <time>2022-07-17T06:20:40Z</time>
      </trkpt>
      <trkpt lat="45.28895" lon="6.3559">
        <ele>511.4</ele>
        <time>2022-07-17T06:20:41Z</time>
      </trkpt>
      <trkpt lat="45.2889" lon="6.35587">
        <ele>511.4</ele>
        <time>2022-07-17T06:20:42Z</time>
      </trkpt>
      <trkpt lat="45.28885" lon="6.35584">
        <ele>511.4</ele>
        <time>2022-07-17T06:20:43Z</time>
      </trkpt>
      <trkpt lat="45.2888" lon="6.35582">
        <ele>511.4</ele>
        <time>2022-07-17T06:20:44Z</time>
      </trkpt>
      <trkpt lat="45.28875" lon="6.35579">
        <ele>511.4</ele>
        <time>2022-07-17T06:20:45Z</time>
      </trkpt>
      <trkpt lat="45.28869" lon="6.35576">
        <ele>511.8</ele>
        <time>2022-07-17T06:20:46Z</time>
      </trkpt>
      <trkpt lat="45.28864" lon="6.35573">
        <ele>511.8</ele>
        <time>2022-07-17T06:20:47Z</time>
      </trkpt>
      <trkpt lat="45.28859" lon="6.3557">
        <ele>511.8</ele>
        <time>2022-07-17T06:20:48Z</time>
      </trkpt>
      <trkpt lat="45.28854" lon="6.35567">
        <ele>511.8</ele>
        <time>2022-07-17T06:20:49Z</time>
      </trkpt>
      <trkpt lat="45.28849" lon="6.35564">
        <ele>511.8</ele>
        <time>2022-07-17T06:20:50Z</time>
      </trkpt>
      <trkpt lat="45.28844" lon="6.35562">
        <ele>511.8</ele>
        <time>2022-07-17T06:20:51Z</time>
      </trkpt>
      <trkpt lat="45.28838" lon="6.35559">
        <ele>511.8</ele>
        <time>2022-07-17T06:20:52Z</time>
      </trkpt>
      <trkpt lat="45.28833" lon="6.35556">
        <ele>511.8</ele>
        <time>2022-07-17T06:20:53Z</time>
      </trkpt>
      <trkpt lat="45.28828" lon="6.35553">
        <ele>512</ele>
        <time>2022-07-17T06:20:54Z</time>
      </trkpt>
      <trkpt lat="45.28822" lon="6.3555">
        <ele>512</ele>
        <time>2022-07-17T06:20:55Z</time>
      </trkpt>
      <trkpt lat="45.28816" lon="6.35547">
        <ele>512.2</ele>
        <time>2022-07-17T06:20:56Z</time>
      </trkpt>
      <trkpt lat="45.28811" lon="6.35544">
        <ele>512.2</ele>
        <time>2022-07-17T06:20:57Z</time>
      </trkpt>
      <trkpt lat="45.28805" lon="6.35542">
        <ele>512.2</ele>
        <time>2022-07-17T06:20:58Z</time>
      </trkpt>
      <trkpt lat="45.288" lon="6.35539">
        <ele>512.2</ele>
        <time>2022-07-17T06:20:59Z</time>
      </trkpt>
      <trkpt lat="45.28794" lon="6.35537">
        <ele>512.2</ele>
        <time>2022-07-17T06:21:00Z</time>
      </trkpt>
      <trkpt lat="45.28789" lon="6.35534">
        <ele>512.2</ele>
        <time>2022-07-17T06:21:01Z</time>
      </trkpt>
      <trkpt lat="45.28784" lon="6.35532">
        <ele>512.4</ele>
        <time>2022-07-17T06:21:02Z</time>
      </trkpt>
      <trkpt lat="45.28778" lon="6.3553">
        <ele>512.4</ele>
        <time>2022-07-17T06:21:03Z</time>
      </trkpt>
      <trkpt lat="45.28772" lon="6.35527">
        <ele>512.4</ele>
        <time>2022-07-17T06:21:04Z</time>
      </trkpt>
      <trkpt lat="45.28767" lon="6.35525">
        <ele>512.4</ele>
        <time>2022-07-17T06:21:05Z</time>
      </trkpt>
      <trkpt lat="45.28761" lon="6.35523">
        <ele>512.4</ele>
        <time>2022-07-17T06:21:06Z</time>
      </trkpt>
      <trkpt lat="45.28755" lon="6.35522">
        <ele>512.8</ele>
        <time>2022-07-17T06:21:07Z</time>
      </trkpt>
      <trkpt lat="45.28749" lon="6.3552">
        <ele>512.8</ele>
        <time>2022-07-17T06:21:08Z</time>
      </trkpt>
      <trkpt lat="45.28744" lon="6.35519">
        <ele>512.8</ele>
        <time>2022-07-17T06:21:09Z</time>
      </trkpt>
      <trkpt lat="45.28738" lon="6.35517">
        <ele>512.8</ele>
        <time>2022-07-17T06:21:10Z</time>
      </trkpt>
      <trkpt lat="45.28732" lon="6.35516">
        <ele>512.8</ele>
        <time>2022-07-17T06:21:11Z</time>
      </trkpt>
      <trkpt lat="45.28726" lon="6.35515">
        <ele>512.8</ele>
        <time>2022-07-17T06:21:12Z</time>
      </trkpt>
      <trkpt lat="45.2872" lon="6.35515">
        <ele>512.8</ele>
        <time>2022-07-17T06:21:13Z</time>
      </trkpt>
      <trkpt lat="45.28714" lon="6.35514">
        <ele>513</ele>
        <time>2022-07-17T06:21:14Z</time>
      </trkpt>
      <trkpt lat="45.28709" lon="6.35514">
        <ele>513</ele>
        <time>2022-07-17T06:21:15Z</time>
      </trkpt>
      <trkpt lat="45.28703" lon="6.35514">
        <ele>513</ele>
        <time>2022-07-17T06:21:16Z</time>
      </trkpt>
      <trkpt lat="45.28697" lon="6.35513">
        <ele>513</ele>
        <time>2022-07-17T06:21:17Z</time>
      </trkpt>
      <trkpt lat="45.28691" lon="6.35513">
        <ele>513</ele>
        <time>2022-07-17T06:21:18Z</time>
      </trkpt>
      <trkpt lat="45.28685" lon="6.35514">
        <ele>513</ele>
        <time>2022-07-17T06:21:19Z</time>
      </trkpt>
      <trkpt lat="45.28679" lon="6.35515">
        <ele>513</ele>
        <time>2022-07-17T06:21:20Z</time>
      </trkpt>
      <trkpt lat="45.28673" lon="6.35515">
        <ele>513</ele>
        <time>2022-07-17T06:21:21Z</time>
      </trkpt>
      <trkpt lat="45.28667" lon="6.35517">
        <ele>513</ele>
        <time>2022-07-17T06:21:22Z</time>
      </trkpt>
      <trkpt lat="45.28661" lon="6.35518">
        <ele>513</ele>
        <time>2022-07-17T06:21:23Z</time>
      </trkpt>
      <trkpt lat="45.28654" lon="6.35519">
        <ele>513</ele>
        <time>2022-07-17T06:21:24Z</time>
      </trkpt>
      <trkpt lat="45.28648" lon="6.3552">
        <ele>513</ele>
        <time>2022-07-17T06:21:25Z</time>
      </trkpt>
      <trkpt lat="45.28641" lon="6.35522">
        <ele>513</ele>
        <time>2022-07-17T06:21:26Z</time>
      </trkpt>
      <trkpt lat="45.28635" lon="6.35524">
        <ele>513</ele>
        <time>2022-07-17T06:21:27Z</time>
      </trkpt>
      <trkpt lat="45.28629" lon="6.35525">
        <ele>513</ele>
        <time>2022-07-17T06:21:28Z</time>
      </trkpt>
      <trkpt lat="45.28622" lon="6.35527">
        <ele>513</ele>
        <time>2022-07-17T06:21:29Z</time>
      </trkpt>
      <trkpt lat="45.28616" lon="6.35529">
        <ele>513</ele>
        <time>2022-07-17T06:21:30Z</time>
      </trkpt>
      <trkpt lat="45.28609" lon="6.35531">
        <ele>513</ele>
        <time>2022-07-17T06:21:31Z</time>
      </trkpt>
      <trkpt lat="45.28603" lon="6.35533">
        <ele>512.8</ele>
        <time>2022-07-17T06:21:32Z</time>
      </trkpt>
      <trkpt lat="45.28596" lon="6.35535">
        <ele>512.8</ele>
        <time>2022-07-17T06:21:33Z</time>
      </trkpt>
      <trkpt lat="45.2859" lon="6.35538">
        <ele>512.8</ele>
        <time>2022-07-17T06:21:34Z</time>
      </trkpt>
      <trkpt lat="45.28583" lon="6.3554">
        <ele>512.6</ele>
        <time>2022-07-17T06:21:35Z</time>
      </trkpt>
      <trkpt lat="45.28576" lon="6.35543">
        <ele>512.6</ele>
        <time>2022-07-17T06:21:36Z</time>
      </trkpt>
      <trkpt lat="45.2857" lon="6.35545">
        <ele>512.6</ele>
        <time>2022-07-17T06:21:37Z</time>
      </trkpt>
      <trkpt lat="45.28563" lon="6.35548">
        <ele>512.6</ele>
        <time>2022-07-17T06:21:38Z</time>
      </trkpt>
      <trkpt lat="45.28556" lon="6.3555">
        <ele>512.4</ele>
        <time>2022-07-17T06:21:39Z</time>
      </trkpt>
      <trkpt lat="45.2855" lon="6.35553">
        <ele>512.4</ele>
        <time>2022-07-17T06:21:40Z</time>
      </trkpt>
      <trkpt lat="45.28543" lon="6.35555">
        <ele>512.4</ele>
        <time>2022-07-17T06:21:41Z</time>
      </trkpt>
      <trkpt lat="45.28536" lon="6.35557">
        <ele>512.4</ele>
        <time>2022-07-17T06:21:42Z</time>
      </trkpt>
      <trkpt lat="45.2853" lon="6.35559">
        <ele>512.4</ele>
        <time>2022-07-17T06:21:43Z</time>
      </trkpt>
      <trkpt lat="45.28523" lon="6.35561">
        <ele>512.4</ele>
        <time>2022-07-17T06:21:44Z</time>
      </trkpt>
      <trkpt lat="45.28517" lon="6.35564">
        <ele>512.4</ele>
        <time>2022-07-17T06:21:45Z</time>
      </trkpt>
      <trkpt lat="45.28511" lon="6.35566">
        <ele>512.4</ele>
        <time>2022-07-17T06:21:46Z</time>
      </trkpt>
      <trkpt lat="45.28504" lon="6.35568">
        <ele>512.4</ele>
        <time>2022-07-17T06:21:47Z</time>
      </trkpt>
      <trkpt lat="45.28498" lon="6.35571">
        <ele>512.4</ele>
        <time>2022-07-17T06:21:48Z</time>
      </trkpt>
      <trkpt lat="45.28491" lon="6.35573">
        <ele>512.4</ele>
        <time>2022-07-17T06:21:49Z</time>
      </trkpt>
      <trkpt lat="45.28485" lon="6.35575">
        <ele>512.4</ele>
        <time>2022-07-17T06:21:50Z</time>
      </trkpt>
      <trkpt lat="45.28478" lon="6.35578">
        <ele>512.6</ele>
        <time>2022-07-17T06:21:51Z</time>
      </trkpt>
      <trkpt lat="45.28472" lon="6.3558">
        <ele>512.6</ele>
        <time>2022-07-17T06:21:53Z</time>
      </trkpt>
      <trkpt lat="45.28466" lon="6.35582">
        <ele>512.6</ele>
        <time>2022-07-17T06:21:54Z</time>
      </trkpt>
      <trkpt lat="45.28459" lon="6.35585">
        <ele>512.6</ele>
        <time>2022-07-17T06:21:55Z</time>
      </trkpt>
      <trkpt lat="45.28453" lon="6.35587">
        <ele>512.6</ele>
        <time>2022-07-17T06:21:56Z</time>
      </trkpt>
      <trkpt lat="45.28447" lon="6.35589">
        <ele>512.8</ele>
        <time>2022-07-17T06:21:57Z</time>
      </trkpt>
      <trkpt lat="45.28441" lon="6.35592">
        <ele>512.8</ele>
        <time>2022-07-17T06:21:58Z</time>
      </trkpt>
      <trkpt lat="45.28435" lon="6.35595">
        <ele>512.8</ele>
        <time>2022-07-17T06:21:59Z</time>
      </trkpt>
      <trkpt lat="45.28429" lon="6.35597">
        <ele>512.8</ele>
        <time>2022-07-17T06:22:00Z</time>
      </trkpt>
      <trkpt lat="45.28423" lon="6.356">
        <ele>513</ele>
        <time>2022-07-17T06:22:01Z</time>
      </trkpt>
      <trkpt lat="45.28417" lon="6.35603">
        <ele>513</ele>
        <time>2022-07-17T06:22:02Z</time>
      </trkpt>
      <trkpt lat="45.28411" lon="6.35607">
        <ele>513</ele>
        <time>2022-07-17T06:22:03Z</time>
      </trkpt>
      <trkpt lat="45.28405" lon="6.3561">
        <ele>513.4</ele>
        <time>2022-07-17T06:22:04Z</time>
      </trkpt>
      <trkpt lat="45.28399" lon="6.35613">
        <ele>513.4</ele>
        <time>2022-07-17T06:22:05Z</time>
      </trkpt>
      <trkpt lat="45.28393" lon="6.35617">
        <ele>513.4</ele>
        <time>2022-07-17T06:22:06Z</time>
      </trkpt>
      <trkpt lat="45.28387" lon="6.3562">
        <ele>513.4</ele>
        <time>2022-07-17T06:22:07Z</time>
      </trkpt>
      <trkpt lat="45.28381" lon="6.35623">
        <ele>513.4</ele>
        <time>2022-07-17T06:22:08Z</time>
      </trkpt>
      <trkpt lat="45.28376" lon="6.35627">
        <ele>513.6</ele>
        <time>2022-07-17T06:22:09Z</time>
      </trkpt>
      <trkpt lat="45.2837" lon="6.3563">
        <ele>513.6</ele>
        <time>2022-07-17T06:22:10Z</time>
      </trkpt>
      <trkpt lat="45.28365" lon="6.35633">
        <ele>513.8</ele>
        <time>2022-07-17T06:22:11Z</time>
      </trkpt>
      <trkpt lat="45.28359" lon="6.35636">
        <ele>513.8</ele>
        <time>2022-07-17T06:22:12Z</time>
      </trkpt>
      <trkpt lat="45.28354" lon="6.35638">
        <ele>514</ele>
        <time>2022-07-17T06:22:13Z</time>
      </trkpt>
      <trkpt lat="45.28349" lon="6.35641">
        <ele>514</ele>
        <time>2022-07-17T06:22:14Z</time>
      </trkpt>
      <trkpt lat="45.28343" lon="6.35644">
        <ele>514.2</ele>
        <time>2022-07-17T06:22:15Z</time>
      </trkpt>
      <trkpt lat="45.28338" lon="6.35646">
        <ele>514.2</ele>
        <time>2022-07-17T06:22:16Z</time>
      </trkpt>
      <trkpt lat="45.28333" lon="6.35649">
        <ele>514.6</ele>
        <time>2022-07-17T06:22:17Z</time>
      </trkpt>
      <trkpt lat="45.28328" lon="6.35652">
        <ele>514.6</ele>
        <time>2022-07-17T06:22:18Z</time>
      </trkpt>
      <trkpt lat="45.28323" lon="6.35654">
        <ele>514.8</ele>
        <time>2022-07-17T06:22:19Z</time>
      </trkpt>
      <trkpt lat="45.28318" lon="6.35658">
        <ele>514.8</ele>
        <time>2022-07-17T06:22:20Z</time>
      </trkpt>
      <trkpt lat="45.28312" lon="6.3566">
        <ele>514.8</ele>
        <time>2022-07-17T06:22:21Z</time>
      </trkpt>
      <trkpt lat="45.28307" lon="6.35663">
        <ele>515</ele>
        <time>2022-07-17T06:22:22Z</time>
      </trkpt>
      <trkpt lat="45.28302" lon="6.35666">
        <ele>515</ele>
        <time>2022-07-17T06:22:23Z</time>
      </trkpt>
      <trkpt lat="45.28296" lon="6.35668">
        <ele>515.2</ele>
        <time>2022-07-17T06:22:24Z</time>
      </trkpt>
      <trkpt lat="45.28291" lon="6.35671">
        <ele>515.2</ele>
        <time>2022-07-17T06:22:25Z</time>
      </trkpt>
      <trkpt lat="45.28285" lon="6.35674">
        <ele>515.2</ele>
        <time>2022-07-17T06:22:26Z</time>
      </trkpt>
      <trkpt lat="45.2828" lon="6.35676">
        <ele>515.4</ele>
        <time>2022-07-17T06:22:27Z</time>
      </trkpt>
      <trkpt lat="45.28274" lon="6.35679">
        <ele>515.4</ele>
        <time>2022-07-17T06:22:28Z</time>
      </trkpt>
      <trkpt lat="45.28268" lon="6.35682">
        <ele>515.4</ele>
        <time>2022-07-17T06:22:29Z</time>
      </trkpt>
      <trkpt lat="45.28262" lon="6.35685">
        <ele>515.4</ele>
        <time>2022-07-17T06:22:30Z</time>
      </trkpt>
      <trkpt lat="45.28257" lon="6.35687">
        <ele>515.4</ele>
        <time>2022-07-17T06:22:31Z</time>
      </trkpt>
      <trkpt lat="45.28251" lon="6.3569">
        <ele>515.4</ele>
        <time>2022-07-17T06:22:32Z</time>
      </trkpt>
      <trkpt lat="45.28246" lon="6.35693">
        <ele>515.8</ele>
        <time>2022-07-17T06:22:33Z</time>
      </trkpt>
      <trkpt lat="45.2824" lon="6.35696">
        <ele>515.8</ele>
        <time>2022-07-17T06:22:34Z</time>
      </trkpt>
      <trkpt lat="45.28234" lon="6.35699">
        <ele>515.8</ele>
        <time>2022-07-17T06:22:35Z</time>
      </trkpt>
      <trkpt lat="45.28229" lon="6.35702">
        <ele>516</ele>
        <time>2022-07-17T06:22:36Z</time>
      </trkpt>
      <trkpt lat="45.28223" lon="6.35705">
        <ele>516</ele>
        <time>2022-07-17T06:22:37Z</time>
      </trkpt>
      <trkpt lat="45.28218" lon="6.35708">
        <ele>516</ele>
        <time>2022-07-17T06:22:38Z</time>
      </trkpt>
      <trkpt lat="45.28212" lon="6.35711">
        <ele>516</ele>
        <time>2022-07-17T06:22:39Z</time>
      </trkpt>
      <trkpt lat="45.28206" lon="6.35715">
        <ele>516.2</ele>
        <time>2022-07-17T06:22:40Z</time>
      </trkpt>
      <trkpt lat="45.282" lon="6.35718">
        <ele>516.2</ele>
        <time>2022-07-17T06:22:41Z</time>
      </trkpt>
      <trkpt lat="45.28195" lon="6.3572">
        <ele>516.2</ele>
        <time>2022-07-17T06:22:42Z</time>
      </trkpt>
      <trkpt lat="45.28189" lon="6.35723">
        <ele>516.2</ele>
        <time>2022-07-17T06:22:43Z</time>
      </trkpt>
      <trkpt lat="45.28183" lon="6.35726">
        <ele>516.6</ele>
        <time>2022-07-17T06:22:44Z</time>
      </trkpt>
      <trkpt lat="45.28177" lon="6.35728">
        <ele>516.6</ele>
        <time>2022-07-17T06:22:45Z</time>
      </trkpt>
      <trkpt lat="45.28172" lon="6.35731">
        <ele>516.6</ele>
        <time>2022-07-17T06:22:46Z</time>
      </trkpt>
      <trkpt lat="45.28166" lon="6.35733">
        <ele>516.8</ele>
        <time>2022-07-17T06:22:47Z</time>
      </trkpt>
      <trkpt lat="45.2816" lon="6.35736">
        <ele>516.8</ele>
        <time>2022-07-17T06:22:48Z</time>
      </trkpt>
      <trkpt lat="45.28155" lon="6.35739">
        <ele>517</ele>
        <time>2022-07-17T06:22:49Z</time>
      </trkpt>
      <trkpt lat="45.28149" lon="6.35741">
        <ele>517</ele>
        <time>2022-07-17T06:22:50Z</time>
      </trkpt>
      <trkpt lat="45.28143" lon="6.35744">
        <ele>517</ele>
        <time>2022-07-17T06:22:51Z</time>
      </trkpt>
      <trkpt lat="45.28137" lon="6.35746">
        <ele>517</ele>
        <time>2022-07-17T06:22:52Z</time>
      </trkpt>
      <trkpt lat="45.28132" lon="6.35748">
        <ele>517.2</ele>
        <time>2022-07-17T06:22:53Z</time>
      </trkpt>
      <trkpt lat="45.28126" lon="6.3575">
        <ele>517.2</ele>
        <time>2022-07-17T06:22:54Z</time>
      </trkpt>
      <trkpt lat="45.2812" lon="6.35751">
        <ele>517.6</ele>
        <time>2022-07-17T06:22:55Z</time>
      </trkpt>
      <trkpt lat="45.28115" lon="6.35752">
        <ele>517.6</ele>
        <time>2022-07-17T06:22:56Z</time>
      </trkpt>
      <trkpt lat="45.2811" lon="6.35753">
        <ele>518</ele>
        <time>2022-07-17T06:22:57Z</time>
      </trkpt>
      <trkpt lat="45.28104" lon="6.35755">
        <ele>518</ele>
        <time>2022-07-17T06:22:58Z</time>
      </trkpt>
      <trkpt lat="45.28099" lon="6.35757">
        <ele>518.4</ele>
        <time>2022-07-17T06:22:59Z</time>
      </trkpt>
      <trkpt lat="45.28094" lon="6.35758">
        <ele>518.6</ele>
        <time>2022-07-17T06:23:00Z</time>
      </trkpt>
      <trkpt lat="45.2809" lon="6.35758">
        <ele>519</ele>
        <time>2022-07-17T06:23:01Z</time>
      </trkpt>
      <trkpt lat="45.28085" lon="6.35757">
        <ele>519.2</ele>
        <time>2022-07-17T06:23:02Z</time>
      </trkpt>
      <trkpt lat="45.28081" lon="6.35757">
        <ele>519.6</ele>
        <time>2022-07-17T06:23:03Z</time>
      </trkpt>
      <trkpt lat="45.28077" lon="6.35757">
        <ele>520</ele>
        <time>2022-07-17T06:23:04Z</time>
      </trkpt>
      <trkpt lat="45.28072" lon="6.35757">
        <ele>520.2</ele>
        <time>2022-07-17T06:23:05Z</time>
      </trkpt>
      <trkpt lat="45.28068" lon="6.35756">
        <ele>520.6</ele>
        <time>2022-07-17T06:23:06Z</time>
      </trkpt>
      <trkpt lat="45.28064" lon="6.35756">
        <ele>521</ele>
        <time>2022-07-17T06:23:07Z</time>
      </trkpt>
      <trkpt lat="45.2806" lon="6.35756">
        <ele>521.2</ele>
        <time>2022-07-17T06:23:08Z</time>
      </trkpt>
      <trkpt lat="45.28056" lon="6.35757">
        <ele>521.6</ele>
        <time>2022-07-17T06:23:09Z</time>
      </trkpt>
      <trkpt lat="45.28051" lon="6.35757">
        <ele>521.8</ele>
        <time>2022-07-17T06:23:10Z</time>
      </trkpt>
      <trkpt lat="45.28047" lon="6.35758">
        <ele>522</ele>
        <time>2022-07-17T06:23:11Z</time>
      </trkpt>
      <trkpt lat="45.28042" lon="6.3576">
        <ele>522</ele>
        <time>2022-07-17T06:23:12Z</time>
      </trkpt>
      <trkpt lat="45.28037" lon="6.35762">
        <ele>522.2</ele>
        <time>2022-07-17T06:23:13Z</time>
      </trkpt>
      <trkpt lat="45.28032" lon="6.35764">
        <ele>522.2</ele>
        <time>2022-07-17T06:23:14Z</time>
      </trkpt>
      <trkpt lat="45.28027" lon="6.35768">
        <ele>522.2</ele>
        <time>2022-07-17T06:23:15Z</time>
      </trkpt>
      <trkpt lat="45.28023" lon="6.35771">
        <ele>522.6</ele>
        <time>2022-07-17T06:23:16Z</time>
      </trkpt>
      <trkpt lat="45.28017" lon="6.35775">
        <ele>522.6</ele>
        <time>2022-07-17T06:23:17Z</time>
      </trkpt>
      <trkpt lat="45.28012" lon="6.3578">
        <ele>522.6</ele>
        <time>2022-07-17T06:23:18Z</time>
      </trkpt>
      <trkpt lat="45.28007" lon="6.35786">
        <ele>522.6</ele>
        <time>2022-07-17T06:23:19Z</time>
      </trkpt>
      <trkpt lat="45.28002" lon="6.35792">
        <ele>522.6</ele>
        <time>2022-07-17T06:23:20Z</time>
      </trkpt>
      <trkpt lat="45.27998" lon="6.35799">
        <ele>522.2</ele>
        <time>2022-07-17T06:23:21Z</time>
      </trkpt>
      <trkpt lat="45.27994" lon="6.35807">
        <ele>522.2</ele>
        <time>2022-07-17T06:23:22Z</time>
      </trkpt>
      <trkpt lat="45.2799" lon="6.35814">
        <ele>522</ele>
        <time>2022-07-17T06:23:23Z</time>
      </trkpt>
      <trkpt lat="45.27986" lon="6.35823">
        <ele>521.6</ele>
        <time>2022-07-17T06:23:24Z</time>
      </trkpt>
      <trkpt lat="45.27982" lon="6.35831">
        <ele>521.4</ele>
        <time>2022-07-17T06:23:25Z</time>
      </trkpt>
      <trkpt lat="45.27979" lon="6.35839">
        <ele>521.2</ele>
        <time>2022-07-17T06:23:26Z</time>
      </trkpt>
      <trkpt lat="45.27976" lon="6.35847">
        <ele>521.2</ele>
        <time>2022-07-17T06:23:27Z</time>
      </trkpt>
      <trkpt lat="45.27972" lon="6.35855">
        <ele>521</ele>
        <time>2022-07-17T06:23:28Z</time>
      </trkpt>
      <trkpt lat="45.27969" lon="6.35863">
        <ele>521</ele>
        <time>2022-07-17T06:23:29Z</time>
      </trkpt>
      <trkpt lat="45.27966" lon="6.35871">
        <ele>521</ele>
        <time>2022-07-17T06:23:30Z</time>
      </trkpt>
      <trkpt lat="45.27964" lon="6.35879">
        <ele>521</ele>
        <time>2022-07-17T06:23:31Z</time>
      </trkpt>
      <trkpt lat="45.27961" lon="6.35886">
        <ele>521</ele>
        <time>2022-07-17T06:23:32Z</time>
      </trkpt>
      <trkpt lat="45.27959" lon="6.35893">
        <ele>521</ele>
        <time>2022-07-17T06:23:33Z</time>
      </trkpt>
      <trkpt lat="45.27956" lon="6.359">
        <ele>521</ele>
        <time>2022-07-17T06:23:34Z</time>
      </trkpt>
      <trkpt lat="45.27954" lon="6.35907">
        <ele>521</ele>
        <time>2022-07-17T06:23:35Z</time>
      </trkpt>
      <trkpt lat="45.27952" lon="6.35914">
        <ele>521</ele>
        <time>2022-07-17T06:23:36Z</time>
      </trkpt>
      <trkpt lat="45.27949" lon="6.35922">
        <ele>521</ele>
        <time>2022-07-17T06:23:37Z</time>
      </trkpt>
      <trkpt lat="45.27947" lon="6.35929">
        <ele>521</ele>
        <time>2022-07-17T06:23:38Z</time>
      </trkpt>
      <trkpt lat="45.27944" lon="6.35936">
        <ele>521</ele>
        <time>2022-07-17T06:23:39Z</time>
      </trkpt>
      <trkpt lat="45.27942" lon="6.35943">
        <ele>521.2</ele>
        <time>2022-07-17T06:23:40Z</time>
      </trkpt>
      <trkpt lat="45.2794" lon="6.35951">
        <ele>521.2</ele>
        <time>2022-07-17T06:23:41Z</time>
      </trkpt>
      <trkpt lat="45.27938" lon="6.35958">
        <ele>521.2</ele>
        <time>2022-07-17T06:23:42Z</time>
      </trkpt>
      <trkpt lat="45.27936" lon="6.35965">
        <ele>521.4</ele>
        <time>2022-07-17T06:23:43Z</time>
      </trkpt>
      <trkpt lat="45.27934" lon="6.35972">
        <ele>521.4</ele>
        <time>2022-07-17T06:23:44Z</time>
      </trkpt>
      <trkpt lat="45.27931" lon="6.3598">
        <ele>521.4</ele>
        <time>2022-07-17T06:23:45Z</time>
      </trkpt>
      <trkpt lat="45.27929" lon="6.35988">
        <ele>521.4</ele>
        <time>2022-07-17T06:23:46Z</time>
      </trkpt>
      <trkpt lat="45.27928" lon="6.35997">
        <ele>521.4</ele>
        <time>2022-07-17T06:23:47Z</time>
      </trkpt>
      <trkpt lat="45.27926" lon="6.36006">
        <ele>521.2</ele>
        <time>2022-07-17T06:23:48Z</time>
      </trkpt>
      <trkpt lat="45.27924" lon="6.36015">
        <ele>521.2</ele>
        <time>2022-07-17T06:23:49Z</time>
      </trkpt>
      <trkpt lat="45.27923" lon="6.36023">
        <ele>521.2</ele>
        <time>2022-07-17T06:23:50Z</time>
      </trkpt>
      <trkpt lat="45.27921" lon="6.36032">
        <ele>521.2</ele>
        <time>2022-07-17T06:23:51Z</time>
      </trkpt>
      <trkpt lat="45.27918" lon="6.36041">
        <ele>521</ele>
        <time>2022-07-17T06:23:52Z</time>
      </trkpt>
      <trkpt lat="45.27915" lon="6.36049">
        <ele>521</ele>
        <time>2022-07-17T06:23:53Z</time>
      </trkpt>
      <trkpt lat="45.27912" lon="6.36057">
        <ele>521</ele>
        <time>2022-07-17T06:23:54Z</time>
      </trkpt>
      <trkpt lat="45.2791" lon="6.36065">
        <ele>521</ele>
        <time>2022-07-17T06:23:55Z</time>
      </trkpt>
      <trkpt lat="45.27908" lon="6.36073">
        <ele>520.6</ele>
        <time>2022-07-17T06:23:56Z</time>
      </trkpt>
      <trkpt lat="45.27906" lon="6.36082">
        <ele>520.6</ele>
        <time>2022-07-17T06:23:57Z</time>
      </trkpt>
      <trkpt lat="45.27903" lon="6.36089">
        <ele>520.6</ele>
        <time>2022-07-17T06:23:58Z</time>
      </trkpt>
      <trkpt lat="45.27901" lon="6.36097">
        <ele>520.4</ele>
        <time>2022-07-17T06:23:59Z</time>
      </trkpt>
      <trkpt lat="45.27899" lon="6.36105">
        <ele>520.4</ele>
        <time>2022-07-17T06:24:00Z</time>
      </trkpt>
      <trkpt lat="45.27896" lon="6.36113">
        <ele>520.4</ele>
        <time>2022-07-17T06:24:01Z</time>
      </trkpt>
      <trkpt lat="45.27894" lon="6.3612">
        <ele>520.4</ele>
        <time>2022-07-17T06:24:02Z</time>
      </trkpt>
      <trkpt lat="45.27891" lon="6.36128">
        <ele>520.4</ele>
        <time>2022-07-17T06:24:03Z</time>
      </trkpt>
      <trkpt lat="45.27888" lon="6.36136">
        <ele>520.4</ele>
        <time>2022-07-17T06:24:04Z</time>
      </trkpt>
      <trkpt lat="45.27885" lon="6.36143">
        <ele>520.4</ele>
        <time>2022-07-17T06:24:05Z</time>
      </trkpt>
      <trkpt lat="45.27883" lon="6.36151">
        <ele>520.4</ele>
        <time>2022-07-17T06:24:06Z</time>
      </trkpt>
      <trkpt lat="45.2788" lon="6.36158">
        <ele>520.8</ele>
        <time>2022-07-17T06:24:07Z</time>
      </trkpt>
      <trkpt lat="45.27879" lon="6.36165">
        <ele>520.8</ele>
        <time>2022-07-17T06:24:08Z</time>
      </trkpt>
      <trkpt lat="45.27877" lon="6.36172">
        <ele>520.8</ele>
        <time>2022-07-17T06:24:09Z</time>
      </trkpt>
      <trkpt lat="45.27875" lon="6.3618">
        <ele>520.8</ele>
        <time>2022-07-17T06:24:10Z</time>
      </trkpt>
      <trkpt lat="45.27873" lon="6.36188">
        <ele>521</ele>
        <time>2022-07-17T06:24:11Z</time>
      </trkpt>
      <trkpt lat="45.27872" lon="6.36197">
        <ele>521</ele>
        <time>2022-07-17T06:24:12Z</time>
      </trkpt>
      <trkpt lat="45.27869" lon="6.36205">
        <ele>521</ele>
        <time>2022-07-17T06:24:13Z</time>
      </trkpt>
      <trkpt lat="45.27867" lon="6.36213">
        <ele>521</ele>
        <time>2022-07-17T06:24:14Z</time>
      </trkpt>
      <trkpt lat="45.27864" lon="6.3622">
        <ele>521</ele>
        <time>2022-07-17T06:24:15Z</time>
      </trkpt>
      <trkpt lat="45.2786" lon="6.36227">
        <ele>521.2</ele>
        <time>2022-07-17T06:24:16Z</time>
      </trkpt>
      <trkpt lat="45.27857" lon="6.36235">
        <ele>521.2</ele>
        <time>2022-07-17T06:24:17Z</time>
      </trkpt>
      <trkpt lat="45.27853" lon="6.36242">
        <ele>521.2</ele>
        <time>2022-07-17T06:24:18Z</time>
      </trkpt>
      <trkpt lat="45.27849" lon="6.36249">
        <ele>521.4</ele>
        <time>2022-07-17T06:24:19Z</time>
      </trkpt>
      <trkpt lat="45.27845" lon="6.36256">
        <ele>521.4</ele>
        <time>2022-07-17T06:24:20Z</time>
      </trkpt>
      <trkpt lat="45.27841" lon="6.36262">
        <ele>521.4</ele>
        <time>2022-07-17T06:24:21Z</time>
      </trkpt>
      <trkpt lat="45.27837" lon="6.36268">
        <ele>521.6</ele>
        <time>2022-07-17T06:24:22Z</time>
      </trkpt>
      <trkpt lat="45.27833" lon="6.36274">
        <ele>521.6</ele>
        <time>2022-07-17T06:24:23Z</time>
      </trkpt>
      <trkpt lat="45.27829" lon="6.36279">
        <ele>521.6</ele>
        <time>2022-07-17T06:24:24Z</time>
      </trkpt>
      <trkpt lat="45.27824" lon="6.36285">
        <ele>521.6</ele>
        <time>2022-07-17T06:24:25Z</time>
      </trkpt>
      <trkpt lat="45.2782" lon="6.3629">
        <ele>522</ele>
        <time>2022-07-17T06:24:26Z</time>
      </trkpt>
      <trkpt lat="45.27815" lon="6.36296">
        <ele>522</ele>
        <time>2022-07-17T06:24:27Z</time>
      </trkpt>
      <trkpt lat="45.27811" lon="6.363">
        <ele>522.2</ele>
        <time>2022-07-17T06:24:28Z</time>
      </trkpt>
      <trkpt lat="45.27806" lon="6.36305">
        <ele>522.2</ele>
        <time>2022-07-17T06:24:29Z</time>
      </trkpt>
      <trkpt lat="45.27802" lon="6.36309">
        <ele>522.6</ele>
        <time>2022-07-17T06:24:30Z</time>
      </trkpt>
      <trkpt lat="45.27797" lon="6.36313">
        <ele>522.6</ele>
        <time>2022-07-17T06:24:31Z</time>
      </trkpt>
      <trkpt lat="45.27793" lon="6.36316">
        <ele>523</ele>
        <time>2022-07-17T06:24:32Z</time>
      </trkpt>
      <trkpt lat="45.27788" lon="6.36319">
        <ele>523.2</ele>
        <time>2022-07-17T06:24:33Z</time>
      </trkpt>
      <trkpt lat="45.27784" lon="6.36321">
        <ele>523.4</ele>
        <time>2022-07-17T06:24:34Z</time>
      </trkpt>
      <trkpt lat="45.2778" lon="6.36323">
        <ele>523.4</ele>
        <time>2022-07-17T06:24:35Z</time>
      </trkpt>
      <trkpt lat="45.27776" lon="6.36326">
        <ele>523.8</ele>
        <time>2022-07-17T06:24:36Z</time>
      </trkpt>
      <trkpt lat="45.27772" lon="6.36329">
        <ele>523.8</ele>
        <time>2022-07-17T06:24:37Z</time>
      </trkpt>
      <trkpt lat="45.27768" lon="6.36332">
        <ele>524.2</ele>
        <time>2022-07-17T06:24:38Z</time>
      </trkpt>
      <trkpt lat="45.27764" lon="6.36336">
        <ele>524.2</ele>
        <time>2022-07-17T06:24:39Z</time>
      </trkpt>
      <trkpt lat="45.27761" lon="6.3634">
        <ele>524.4</ele>
        <time>2022-07-17T06:24:40Z</time>
      </trkpt>
      <trkpt lat="45.27756" lon="6.36343">
        <ele>524.8</ele>
        <time>2022-07-17T06:24:41Z</time>
      </trkpt>
      <trkpt lat="45.27752" lon="6.36347">
        <ele>525</ele>
        <time>2022-07-17T06:24:42Z</time>
      </trkpt>
      <trkpt lat="45.27748" lon="6.3635">
        <ele>525</ele>
        <time>2022-07-17T06:24:43Z</time>
      </trkpt>
      <trkpt lat="45.27743" lon="6.36353">
        <ele>525.4</ele>
        <time>2022-07-17T06:24:44Z</time>
      </trkpt>
      <trkpt lat="45.27738" lon="6.36355">
        <ele>525.6</ele>
        <time>2022-07-17T06:24:45Z</time>
      </trkpt>
      <trkpt lat="45.27734" lon="6.36356">
        <ele>525.8</ele>
        <time>2022-07-17T06:24:46Z</time>
      </trkpt>
      <trkpt lat="45.27729" lon="6.36357">
        <ele>526</ele>
        <time>2022-07-17T06:24:47Z</time>
      </trkpt>
      <trkpt lat="45.27724" lon="6.36357">
        <ele>526.4</ele>
        <time>2022-07-17T06:24:48Z</time>
      </trkpt>
      <trkpt lat="45.27719" lon="6.36357">
        <ele>526.6</ele>
        <time>2022-07-17T06:24:49Z</time>
      </trkpt>
      <trkpt lat="45.27714" lon="6.36356">
        <ele>526.8</ele>
        <time>2022-07-17T06:24:50Z</time>
      </trkpt>
      <trkpt lat="45.27708" lon="6.36355">
        <ele>527.2</ele>
        <time>2022-07-17T06:24:51Z</time>
      </trkpt>
      <trkpt lat="45.27704" lon="6.36354">
        <ele>527.4</ele>
        <time>2022-07-17T06:24:52Z</time>
      </trkpt>
      <trkpt lat="45.27699" lon="6.36352">
        <ele>527.8</ele>
        <time>2022-07-17T06:24:53Z</time>
      </trkpt>
      <trkpt lat="45.27694" lon="6.3635">
        <ele>528.2</ele>
        <time>2022-07-17T06:24:54Z</time>
      </trkpt>
      <trkpt lat="45.2769" lon="6.36348">
        <ele>528.4</ele>
        <time>2022-07-17T06:24:55Z</time>
      </trkpt>
      <trkpt lat="45.27686" lon="6.36345">
        <ele>528.6</ele>
        <time>2022-07-17T06:24:56Z</time>
      </trkpt>
      <trkpt lat="45.27682" lon="6.36344">
        <ele>529</ele>
        <time>2022-07-17T06:24:57Z</time>
      </trkpt>
      <trkpt lat="45.27677" lon="6.36341">
        <ele>529.2</ele>
        <time>2022-07-17T06:24:58Z</time>
      </trkpt>
      <trkpt lat="45.27673" lon="6.36339">
        <ele>529.6</ele>
        <time>2022-07-17T06:24:59Z</time>
      </trkpt>
      <trkpt lat="45.27669" lon="6.36337">
        <ele>529.8</ele>
        <time>2022-07-17T06:25:00Z</time>
      </trkpt>
      <trkpt lat="45.27664" lon="6.36335">
        <ele>530</ele>
        <time>2022-07-17T06:25:01Z</time>
      </trkpt>
      <trkpt lat="45.2766" lon="6.36333">
        <ele>530.2</ele>
        <time>2022-07-17T06:25:02Z</time>
      </trkpt>
      <trkpt lat="45.27656" lon="6.36331">
        <ele>530.6</ele>
        <time>2022-07-17T06:25:03Z</time>
      </trkpt>
      <trkpt lat="45.27652" lon="6.36329">
        <ele>530.8</ele>
        <time>2022-07-17T06:25:04Z</time>
      </trkpt>
      <trkpt lat="45.27648" lon="6.36326">
        <ele>530.8</ele>
        <time>2022-07-17T06:25:05Z</time>
      </trkpt>
      <trkpt lat="45.27643" lon="6.36324">
        <ele>531.2</ele>
        <time>2022-07-17T06:25:06Z</time>
      </trkpt>
      <trkpt lat="45.27639" lon="6.36322">
        <ele>531.2</ele>
        <time>2022-07-17T06:25:07Z</time>
      </trkpt>
      <trkpt lat="45.27635" lon="6.3632">
        <ele>531.2</ele>
        <time>2022-07-17T06:25:08Z</time>
      </trkpt>
      <trkpt lat="45.27631" lon="6.36317">
        <ele>531.4</ele>
        <time>2022-07-17T06:25:09Z</time>
      </trkpt>
      <trkpt lat="45.27627" lon="6.36315">
        <ele>531.4</ele>
        <time>2022-07-17T06:25:10Z</time>
      </trkpt>
      <trkpt lat="45.27622" lon="6.36312">
        <ele>531.4</ele>
        <time>2022-07-17T06:25:11Z</time>
      </trkpt>
      <trkpt lat="45.27618" lon="6.3631">
        <ele>531.6</ele>
        <time>2022-07-17T06:25:12Z</time>
      </trkpt>
      <trkpt lat="45.27613" lon="6.36307">
        <ele>531.6</ele>
        <time>2022-07-17T06:25:13Z</time>
      </trkpt>
      <trkpt lat="45.27608" lon="6.36304">
        <ele>531.6</ele>
        <time>2022-07-17T06:25:14Z</time>
      </trkpt>
      <trkpt lat="45.27603" lon="6.36301">
        <ele>531.6</ele>
        <time>2022-07-17T06:25:15Z</time>
      </trkpt>
      <trkpt lat="45.27598" lon="6.36298">
        <ele>531.6</ele>
        <time>2022-07-17T06:25:16Z</time>
      </trkpt>
      <trkpt lat="45.27593" lon="6.36295">
        <ele>531.6</ele>
        <time>2022-07-17T06:25:17Z</time>
      </trkpt>
      <trkpt lat="45.27589" lon="6.3629">
        <ele>531.6</ele>
        <time>2022-07-17T06:25:18Z</time>
      </trkpt>
      <trkpt lat="45.27585" lon="6.36285">
        <ele>531.6</ele>
        <time>2022-07-17T06:25:19Z</time>
      </trkpt>
      <trkpt lat="45.27582" lon="6.36278">
        <ele>531.4</ele>
        <time>2022-07-17T06:25:20Z</time>
      </trkpt>
      <trkpt lat="45.27579" lon="6.3627">
        <ele>531.4</ele>
        <time>2022-07-17T06:25:21Z</time>
      </trkpt>
      <trkpt lat="45.27577" lon="6.36262">
        <ele>531</ele>
        <time>2022-07-17T06:25:22Z</time>
      </trkpt>
      <trkpt lat="45.27577" lon="6.36252">
        <ele>530.8</ele>
        <time>2022-07-17T06:25:23Z</time>
      </trkpt>
      <trkpt lat="45.27577" lon="6.36243">
        <ele>530.4</ele>
        <time>2022-07-17T06:25:24Z</time>
      </trkpt>
      <trkpt lat="45.27579" lon="6.36233">
        <ele>530.2</ele>
        <time>2022-07-17T06:25:25Z</time>
      </trkpt>
      <trkpt lat="45.27583" lon="6.36224">
        <ele>529.6</ele>
        <time>2022-07-17T06:25:26Z</time>
      </trkpt>
      <trkpt lat="45.27587" lon="6.36215">
        <ele>529.2</ele>
        <time>2022-07-17T06:25:27Z</time>
      </trkpt>
      <trkpt lat="45.27592" lon="6.36206">
        <ele>528.8</ele>
        <time>2022-07-17T06:25:28Z</time>
      </trkpt>
      <trkpt lat="45.27598" lon="6.36197">
        <ele>528.4</ele>
        <time>2022-07-17T06:25:29Z</time>
      </trkpt>
      <trkpt lat="45.27604" lon="6.36188">
        <ele>527.8</ele>
        <time>2022-07-17T06:25:30Z</time>
      </trkpt>
      <trkpt lat="45.27609" lon="6.36178">
        <ele>527.4</ele>
        <time>2022-07-17T06:25:31Z</time>
      </trkpt>
      <trkpt lat="45.27614" lon="6.36168">
        <ele>527</ele>
        <time>2022-07-17T06:25:32Z</time>
      </trkpt>
      <trkpt lat="45.27618" lon="6.36157">
        <ele>526.6</ele>
        <time>2022-07-17T06:25:33Z</time>
      </trkpt>
      <trkpt lat="45.2762" lon="6.36146">
        <ele>526.4</ele>
        <time>2022-07-17T06:25:34Z</time>
      </trkpt>
      <trkpt lat="45.27621" lon="6.36134">
        <ele>526</ele>
        <time>2022-07-17T06:25:35Z</time>
      </trkpt>
      <trkpt lat="45.27621" lon="6.36122">
        <ele>526</ele>
        <time>2022-07-17T06:25:36Z</time>
      </trkpt>
      <trkpt lat="45.27621" lon="6.3611">
        <ele>525.8</ele>
        <time>2022-07-17T06:25:37Z</time>
      </trkpt>
      <trkpt lat="45.27621" lon="6.36089">
        <ele>525.8</ele>
        <time>2022-07-17T06:25:38Z</time>
      </trkpt>
      <trkpt lat="45.27621" lon="6.36078">
        <ele>525.6</ele>
        <time>2022-07-17T06:25:39Z</time>
      </trkpt>
      <trkpt lat="45.27621" lon="6.36068">
        <ele>525.6</ele>
        <time>2022-07-17T06:25:40Z</time>
      </trkpt>
      <trkpt lat="45.2762" lon="6.36058">
        <ele>525.6</ele>
        <time>2022-07-17T06:25:41Z</time>
      </trkpt>
      <trkpt lat="45.2762" lon="6.36049">
        <ele>525.4</ele>
        <time>2022-07-17T06:25:42Z</time>
      </trkpt>
      <trkpt lat="45.27619" lon="6.36039">
        <ele>525.4</ele>
        <time>2022-07-17T06:25:43Z</time>
      </trkpt>
      <trkpt lat="45.27618" lon="6.36031">
        <ele>525.4</ele>
        <time>2022-07-17T06:25:44Z</time>
      </trkpt>
      <trkpt lat="45.27616" lon="6.36023">
        <ele>525.2</ele>
        <time>2022-07-17T06:25:45Z</time>
      </trkpt>
      <trkpt lat="45.27613" lon="6.36015">
        <ele>525.2</ele>
        <time>2022-07-17T06:25:46Z</time>
      </trkpt>
      <trkpt lat="45.27611" lon="6.36008">
        <ele>525.2</ele>
        <time>2022-07-17T06:25:47Z</time>
      </trkpt>
      <trkpt lat="45.27608" lon="6.36002">
        <ele>525</ele>
        <time>2022-07-17T06:25:48Z</time>
      </trkpt>
      <trkpt lat="45.27606" lon="6.35996">
        <ele>525</ele>
        <time>2022-07-17T06:25:49Z</time>
      </trkpt>
      <trkpt lat="45.27603" lon="6.35991">
        <ele>525</ele>
        <time>2022-07-17T06:25:50Z</time>
      </trkpt>
      <trkpt lat="45.27601" lon="6.35987">
        <ele>525</ele>
        <time>2022-07-17T06:25:51Z</time>
      </trkpt>
      <trkpt lat="45.27599" lon="6.35984">
        <ele>525</ele>
        <time>2022-07-17T06:25:52Z</time>
      </trkpt>
      <trkpt lat="45.27598" lon="6.3598">
        <ele>525</ele>
        <time>2022-07-17T06:25:53Z</time>
      </trkpt>
      <trkpt lat="45.27597" lon="6.35977">
        <ele>525</ele>
        <time>2022-07-17T06:25:54Z</time>
      </trkpt>
      <trkpt lat="45.27596" lon="6.35975">
        <ele>524.6</ele>
        <time>2022-07-17T06:25:55Z</time>
      </trkpt>
      <trkpt lat="45.27596" lon="6.35974">
        <ele>524.6</ele>
        <time>2022-07-17T06:25:56Z</time>
      </trkpt>
      <trkpt lat="45.27595" lon="6.35974">
        <ele>524.6</ele>
        <time>2022-07-17T06:25:57Z</time>
      </trkpt>
      <trkpt lat="45.27595" lon="6.35975">
        <ele>524.6</ele>
        <time>2022-07-17T06:25:58Z</time>
      </trkpt>
      <trkpt lat="45.27593" lon="6.35969">
        <ele>524.4</ele>
        <time>2022-07-17T06:26:14Z</time>
      </trkpt>
      <trkpt lat="45.27592" lon="6.35966">
        <ele>524.4</ele>
        <time>2022-07-17T06:26:15Z</time>
      </trkpt>
      <trkpt lat="45.27591" lon="6.35962">
        <ele>524.4</ele>
        <time>2022-07-17T06:26:16Z</time>
      </trkpt>
      <trkpt lat="45.2759" lon="6.35958">
        <ele>524.4</ele>
        <time>2022-07-17T06:26:17Z</time>
      </trkpt>
      <trkpt lat="45.27588" lon="6.35953">
        <ele>524.4</ele>
        <time>2022-07-17T06:26:18Z</time>
      </trkpt>
      <trkpt lat="45.27586" lon="6.35949">
        <ele>524.4</ele>
        <time>2022-07-17T06:26:19Z</time>
      </trkpt>
      <trkpt lat="45.27584" lon="6.35945">
        <ele>524.6</ele>
        <time>2022-07-17T06:26:20Z</time>
      </trkpt>
      <trkpt lat="45.27583" lon="6.3594">
        <ele>524.6</ele>
        <time>2022-07-17T06:26:21Z</time>
      </trkpt>
      <trkpt lat="45.27582" lon="6.35934">
        <ele>524.6</ele>
        <time>2022-07-17T06:26:22Z</time>
      </trkpt>
      <trkpt lat="45.27581" lon="6.35928">
        <ele>524.6</ele>
        <time>2022-07-17T06:26:23Z</time>
      </trkpt>
      <trkpt lat="45.27581" lon="6.3592">
        <ele>524.6</ele>
        <time>2022-07-17T06:26:24Z</time>
      </trkpt>
      <trkpt lat="45.27582" lon="6.35913">
        <ele>524.6</ele>
        <time>2022-07-17T06:26:25Z</time>
      </trkpt>
      <trkpt lat="45.27584" lon="6.35906">
        <ele>524.6</ele>
        <time>2022-07-17T06:26:26Z</time>
      </trkpt>
      <trkpt lat="45.27587" lon="6.35899">
        <ele>524.8</ele>
        <time>2022-07-17T06:26:27Z</time>
      </trkpt>
      <trkpt lat="45.27591" lon="6.35892">
        <ele>524.8</ele>
        <time>2022-07-17T06:26:28Z</time>
      </trkpt>
      <trkpt lat="45.27594" lon="6.35885">
        <ele>524.8</ele>
        <time>2022-07-17T06:26:29Z</time>
      </trkpt>
      <trkpt lat="45.27597" lon="6.35878">
        <ele>524.8</ele>
        <time>2022-07-17T06:26:30Z</time>
      </trkpt>
      <trkpt lat="45.276" lon="6.35872">
        <ele>524.8</ele>
        <time>2022-07-17T06:26:31Z</time>
      </trkpt>
      <trkpt lat="45.27603" lon="6.35865">
        <ele>524.8</ele>
        <time>2022-07-17T06:26:32Z</time>
      </trkpt>
      <trkpt lat="45.27606" lon="6.35858">
        <ele>524.8</ele>
        <time>2022-07-17T06:26:33Z</time>
      </trkpt>
      <trkpt lat="45.2761" lon="6.35852">
        <ele>524.8</ele>
        <time>2022-07-17T06:26:34Z</time>
      </trkpt>
      <trkpt lat="45.27613" lon="6.35845">
        <ele>524.8</ele>
        <time>2022-07-17T06:26:35Z</time>
      </trkpt>
      <trkpt lat="45.27616" lon="6.35838">
        <ele>524.8</ele>
        <time>2022-07-17T06:26:36Z</time>
      </trkpt>
      <trkpt lat="45.27619" lon="6.35831">
        <ele>524.8</ele>
        <time>2022-07-17T06:26:37Z</time>
      </trkpt>
      <trkpt lat="45.27622" lon="6.35824">
        <ele>525</ele>
        <time>2022-07-17T06:26:38Z</time>
      </trkpt>
      <trkpt lat="45.27626" lon="6.35817">
        <ele>525</ele>
        <time>2022-07-17T06:26:39Z</time>
      </trkpt>
      <trkpt lat="45.27629" lon="6.3581">
        <ele>525</ele>
        <time>2022-07-17T06:26:40Z</time>
      </trkpt>
      <trkpt lat="45.27632" lon="6.35802">
        <ele>525</ele>
        <time>2022-07-17T06:26:41Z</time>
      </trkpt>
      <trkpt lat="45.27636" lon="6.35795">
        <ele>525</ele>
        <time>2022-07-17T06:26:42Z</time>
      </trkpt>
      <trkpt lat="45.2764" lon="6.35788">
        <ele>525</ele>
        <time>2022-07-17T06:26:43Z</time>
      </trkpt>
      <trkpt lat="45.27643" lon="6.3578">
        <ele>525</ele>
        <time>2022-07-17T06:26:44Z</time>
      </trkpt>
      <trkpt lat="45.27647" lon="6.35773">
        <ele>525</ele>
        <time>2022-07-17T06:26:45Z</time>
      </trkpt>
      <trkpt lat="45.27651" lon="6.35767">
        <ele>525</ele>
        <time>2022-07-17T06:26:46Z</time>
      </trkpt>
      <trkpt lat="45.27656" lon="6.3576">
        <ele>525.2</ele>
        <time>2022-07-17T06:26:47Z</time>
      </trkpt>
      <trkpt lat="45.2766" lon="6.35753">
        <ele>525.2</ele>
        <time>2022-07-17T06:26:48Z</time>
      </trkpt>
      <trkpt lat="45.27665" lon="6.35748">
        <ele>525.2</ele>
        <time>2022-07-17T06:26:49Z</time>
      </trkpt>
      <trkpt lat="45.27669" lon="6.35742">
        <ele>525.2</ele>
        <time>2022-07-17T06:26:50Z</time>
      </trkpt>
      <trkpt lat="45.27673" lon="6.35736">
        <ele>525.2</ele>
        <time>2022-07-17T06:26:51Z</time>
      </trkpt>
      <trkpt lat="45.27678" lon="6.3573">
        <ele>525.4</ele>
        <time>2022-07-17T06:26:52Z</time>
      </trkpt>
      <trkpt lat="45.27682" lon="6.35724">
        <ele>525.4</ele>
        <time>2022-07-17T06:26:53Z</time>
      </trkpt>
      <trkpt lat="45.27687" lon="6.35718">
        <ele>525.4</ele>
        <time>2022-07-17T06:26:54Z</time>
      </trkpt>
      <trkpt lat="45.27692" lon="6.35711">
        <ele>525.2</ele>
        <time>2022-07-17T06:26:55Z</time>
      </trkpt>
      <trkpt lat="45.27697" lon="6.35705">
        <ele>525.2</ele>
        <time>2022-07-17T06:26:56Z</time>
      </trkpt>
      <trkpt lat="45.27702" lon="6.35698">
        <ele>524.8</ele>
        <time>2022-07-17T06:26:57Z</time>
      </trkpt>
      <trkpt lat="45.27707" lon="6.35691">
        <ele>524.8</ele>
        <time>2022-07-17T06:26:58Z</time>
      </trkpt>
      <trkpt lat="45.27712" lon="6.35684">
        <ele>524.4</ele>
        <time>2022-07-17T06:26:59Z</time>
      </trkpt>
      <trkpt lat="45.27716" lon="6.35676">
        <ele>524.4</ele>
        <time>2022-07-17T06:27:00Z</time>
      </trkpt>
      <trkpt lat="45.27719" lon="6.35668">
        <ele>524.2</ele>
        <time>2022-07-17T06:27:01Z</time>
      </trkpt>
      <trkpt lat="45.2772" lon="6.35659">
        <ele>523.8</ele>
        <time>2022-07-17T06:27:02Z</time>
      </trkpt>
      <trkpt lat="45.2772" lon="6.3565">
        <ele>523.4</ele>
        <time>2022-07-17T06:27:03Z</time>
      </trkpt>
      <trkpt lat="45.27719" lon="6.35641">
        <ele>523</ele>
        <time>2022-07-17T06:27:04Z</time>
      </trkpt>
      <trkpt lat="45.27715" lon="6.35631">
        <ele>522.8</ele>
        <time>2022-07-17T06:27:05Z</time>
      </trkpt>
      <trkpt lat="45.27711" lon="6.35622">
        <ele>522.4</ele>
        <time>2022-07-17T06:27:06Z</time>
      </trkpt>
      <trkpt lat="45.27706" lon="6.35614">
        <ele>522</ele>
        <time>2022-07-17T06:27:07Z</time>
      </trkpt>
      <trkpt lat="45.27701" lon="6.35608">
        <ele>522</ele>
        <time>2022-07-17T06:27:08Z</time>
      </trkpt>
      <trkpt lat="45.27695" lon="6.35602">
        <ele>521.8</ele>
        <time>2022-07-17T06:27:09Z</time>
      </trkpt>
      <trkpt lat="45.27689" lon="6.35597">
        <ele>521.8</ele>
        <time>2022-07-17T06:27:10Z</time>
      </trkpt>
      <trkpt lat="45.27683" lon="6.35593">
        <ele>521.8</ele>
        <time>2022-07-17T06:27:11Z</time>
      </trkpt>
      <trkpt lat="45.27677" lon="6.3559">
        <ele>521.8</ele>
        <time>2022-07-17T06:27:12Z</time>
      </trkpt>
      <trkpt lat="45.27672" lon="6.35587">
        <ele>522</ele>
        <time>2022-07-17T06:27:13Z</time>
      </trkpt>
      <trkpt lat="45.27667" lon="6.35586">
        <ele>522</ele>
        <time>2022-07-17T06:27:14Z</time>
      </trkpt>
      <trkpt lat="45.27662" lon="6.35584">
        <ele>522.6</ele>
        <time>2022-07-17T06:27:15Z</time>
      </trkpt>
      <trkpt lat="45.27657" lon="6.35582">
        <ele>522.8</ele>
        <time>2022-07-17T06:27:16Z</time>
      </trkpt>
      <trkpt lat="45.27653" lon="6.3558">
        <ele>523.2</ele>
        <time>2022-07-17T06:27:17Z</time>
      </trkpt>
      <trkpt lat="45.27648" lon="6.35578">
        <ele>523.6</ele>
        <time>2022-07-17T06:27:18Z</time>
      </trkpt>
      <trkpt lat="45.27644" lon="6.35576">
        <ele>523.8</ele>
        <time>2022-07-17T06:27:19Z</time>
      </trkpt>
      <trkpt lat="45.2764" lon="6.35575">
        <ele>524.2</ele>
        <time>2022-07-17T06:27:20Z</time>
      </trkpt>
      <trkpt lat="45.27636" lon="6.35574">
        <ele>524.4</ele>
        <time>2022-07-17T06:27:21Z</time>
      </trkpt>
      <trkpt lat="45.27631" lon="6.35573">
        <ele>524.8</ele>
        <time>2022-07-17T06:27:22Z</time>
      </trkpt>
      <trkpt lat="45.27627" lon="6.35572">
        <ele>525</ele>
        <time>2022-07-17T06:27:23Z</time>
      </trkpt>
      <trkpt lat="45.27623" lon="6.35571">
        <ele>525.2</ele>
        <time>2022-07-17T06:27:24Z</time>
      </trkpt>
      <trkpt lat="45.27619" lon="6.3557">
        <ele>525.6</ele>
        <time>2022-07-17T06:27:25Z</time>
      </trkpt>
      <trkpt lat="45.27615" lon="6.35569">
        <ele>526</ele>
        <time>2022-07-17T06:27:26Z</time>
      </trkpt>
      <trkpt lat="45.27611" lon="6.35568">
        <ele>526.2</ele>
        <time>2022-07-17T06:27:27Z</time>
      </trkpt>
      <trkpt lat="45.27606" lon="6.35567">
        <ele>526.6</ele>
        <time>2022-07-17T06:27:28Z</time>
      </trkpt>
      <trkpt lat="45.27602" lon="6.35566">
        <ele>526.8</ele>
        <time>2022-07-17T06:27:29Z</time>
      </trkpt>
      <trkpt lat="45.27599" lon="6.35565">
        <ele>527.2</ele>
        <time>2022-07-17T06:27:30Z</time>
      </trkpt>
      <trkpt lat="45.27595" lon="6.35564">
        <ele>527.4</ele>
        <time>2022-07-17T06:27:31Z</time>
      </trkpt>
      <trkpt lat="45.27591" lon="6.35564">
        <ele>527.8</ele>
        <time>2022-07-17T06:27:32Z</time>
      </trkpt>
      <trkpt lat="45.27587" lon="6.35564">
        <ele>528</ele>
        <time>2022-07-17T06:27:33Z</time>
      </trkpt>
      <trkpt lat="45.27583" lon="6.35563">
        <ele>528.2</ele>
        <time>2022-07-17T06:27:34Z</time>
      </trkpt>
      <trkpt lat="45.27579" lon="6.35561">
        <ele>528.4</ele>
        <time>2022-07-17T06:27:35Z</time>
      </trkpt>
      <trkpt lat="45.27576" lon="6.35558">
        <ele>528.8</ele>
        <time>2022-07-17T06:27:36Z</time>
      </trkpt>
      <trkpt lat="45.27572" lon="6.35555">
        <ele>529</ele>
        <time>2022-07-17T06:27:37Z</time>
      </trkpt>
      <trkpt lat="45.27568" lon="6.35552">
        <ele>529</ele>
        <time>2022-07-17T06:27:38Z</time>
      </trkpt>
      <trkpt lat="45.27564" lon="6.35551">
        <ele>529.2</ele>
        <time>2022-07-17T06:27:39Z</time>
      </trkpt>
      <trkpt lat="45.27559" lon="6.35552">
        <ele>529.2</ele>
        <time>2022-07-17T06:27:40Z</time>
      </trkpt>
      <trkpt lat="45.27555" lon="6.35557">
        <ele>529.2</ele>
        <time>2022-07-17T06:27:41Z</time>
      </trkpt>
      <trkpt lat="45.27551" lon="6.35564">
        <ele>529.2</ele>
        <time>2022-07-17T06:27:42Z</time>
      </trkpt>
      <trkpt lat="45.27549" lon="6.35571">
        <ele>529.6</ele>
        <time>2022-07-17T06:27:43Z</time>
      </trkpt>
      <trkpt lat="45.27547" lon="6.35579">
        <ele>529.6</ele>
        <time>2022-07-17T06:27:44Z</time>
      </trkpt>
      <trkpt lat="45.27545" lon="6.35588">
        <ele>529.6</ele>
        <time>2022-07-17T06:27:45Z</time>
      </trkpt>
      <trkpt lat="45.27542" lon="6.35596">
        <ele>529.6</ele>
        <time>2022-07-17T06:27:46Z</time>
      </trkpt>
      <trkpt lat="45.27539" lon="6.35604">
        <ele>529.4</ele>
        <time>2022-07-17T06:27:47Z</time>
      </trkpt>
      <trkpt lat="45.27536" lon="6.35613">
        <ele>529.4</ele>
        <time>2022-07-17T06:27:48Z</time>
      </trkpt>
      <trkpt lat="45.27532" lon="6.35621">
        <ele>529.4</ele>
        <time>2022-07-17T06:27:49Z</time>
      </trkpt>
      <trkpt lat="45.27528" lon="6.3563">
        <ele>529</ele>
        <time>2022-07-17T06:27:50Z</time>
      </trkpt>
      <trkpt lat="45.27524" lon="6.35639">
        <ele>529</ele>
        <time>2022-07-17T06:27:51Z</time>
      </trkpt>
      <trkpt lat="45.27521" lon="6.35648">
        <ele>529</ele>
        <time>2022-07-17T06:27:52Z</time>
      </trkpt>
      <trkpt lat="45.27517" lon="6.35656">
        <ele>529</ele>
        <time>2022-07-17T06:27:53Z</time>
      </trkpt>
      <trkpt lat="45.27512" lon="6.35664">
        <ele>529</ele>
        <time>2022-07-17T06:27:54Z</time>
      </trkpt>
      <trkpt lat="45.27508" lon="6.35672">
        <ele>529</ele>
        <time>2022-07-17T06:27:55Z</time>
      </trkpt>
      <trkpt lat="45.27504" lon="6.3568">
        <ele>528.8</ele>
        <time>2022-07-17T06:27:56Z</time>
      </trkpt>
      <trkpt lat="45.275" lon="6.35688">
        <ele>528.8</ele>
        <time>2022-07-17T06:27:57Z</time>
      </trkpt>
      <trkpt lat="45.27496" lon="6.35695">
        <ele>528.8</ele>
        <time>2022-07-17T06:27:58Z</time>
      </trkpt>
      <trkpt lat="45.27492" lon="6.35702">
        <ele>528.8</ele>
        <time>2022-07-17T06:27:59Z</time>
      </trkpt>
      <trkpt lat="45.27487" lon="6.35708">
        <ele>528.8</ele>
        <time>2022-07-17T06:28:00Z</time>
      </trkpt>
      <trkpt lat="45.27482" lon="6.35714">
        <ele>528.4</ele>
        <time>2022-07-17T06:28:01Z</time>
      </trkpt>
      <trkpt lat="45.27477" lon="6.35719">
        <ele>528.4</ele>
        <time>2022-07-17T06:28:02Z</time>
      </trkpt>
      <trkpt lat="45.27473" lon="6.35725">
        <ele>528.4</ele>
        <time>2022-07-17T06:28:03Z</time>
      </trkpt>
      <trkpt lat="45.27469" lon="6.35732">
        <ele>528.4</ele>
        <time>2022-07-17T06:28:04Z</time>
      </trkpt>
      <trkpt lat="45.27466" lon="6.3574">
        <ele>528.4</ele>
        <time>2022-07-17T06:28:05Z</time>
      </trkpt>
      <trkpt lat="45.27463" lon="6.35748">
        <ele>528.2</ele>
        <time>2022-07-17T06:28:06Z</time>
      </trkpt>
      <trkpt lat="45.27461" lon="6.35756">
        <ele>528.2</ele>
        <time>2022-07-17T06:28:07Z</time>
      </trkpt>
      <trkpt lat="45.27458" lon="6.35764">
        <ele>528.2</ele>
        <time>2022-07-17T06:28:08Z</time>
      </trkpt>
      <trkpt lat="45.27454" lon="6.35772">
        <ele>528</ele>
        <time>2022-07-17T06:28:09Z</time>
      </trkpt>
      <trkpt lat="45.27451" lon="6.3578">
        <ele>528</ele>
        <time>2022-07-17T06:28:10Z</time>
      </trkpt>
      <trkpt lat="45.27448" lon="6.35788">
        <ele>527.6</ele>
        <time>2022-07-17T06:28:11Z</time>
      </trkpt>
      <trkpt lat="45.27444" lon="6.35796">
        <ele>527.6</ele>
        <time>2022-07-17T06:28:12Z</time>
      </trkpt>
      <trkpt lat="45.27441" lon="6.35803">
        <ele>527.6</ele>
        <time>2022-07-17T06:28:13Z</time>
      </trkpt>
      <trkpt lat="45.27437" lon="6.35811">
        <ele>527.6</ele>
        <time>2022-07-17T06:28:14Z</time>
      </trkpt>
      <trkpt lat="45.27434" lon="6.35818">
        <ele>527.4</ele>
        <time>2022-07-17T06:28:15Z</time>
      </trkpt>
      <trkpt lat="45.2743" lon="6.35825">
        <ele>527.4</ele>
        <time>2022-07-17T06:28:16Z</time>
      </trkpt>
      <trkpt lat="45.27427" lon="6.35832">
        <ele>527.4</ele>
        <time>2022-07-17T06:28:17Z</time>
      </trkpt>
      <trkpt lat="45.27424" lon="6.3584">
        <ele>527.4</ele>
        <time>2022-07-17T06:28:18Z</time>
      </trkpt>
      <trkpt lat="45.27421" lon="6.35847">
        <ele>527.6</ele>
        <time>2022-07-17T06:28:19Z</time>
      </trkpt>
      <trkpt lat="45.27418" lon="6.35855">
        <ele>527.6</ele>
        <time>2022-07-17T06:28:20Z</time>
      </trkpt>
      <trkpt lat="45.27415" lon="6.35862">
        <ele>527.6</ele>
        <time>2022-07-17T06:28:21Z</time>
      </trkpt>
      <trkpt lat="45.27411" lon="6.3587">
        <ele>527.8</ele>
        <time>2022-07-17T06:28:22Z</time>
      </trkpt>
      <trkpt lat="45.27408" lon="6.35877">
        <ele>527.8</ele>
        <time>2022-07-17T06:28:23Z</time>
      </trkpt>
      <trkpt lat="45.27405" lon="6.35885">
        <ele>527.8</ele>
        <time>2022-07-17T06:28:24Z</time>
      </trkpt>
      <trkpt lat="45.27402" lon="6.35893">
        <ele>527.8</ele>
        <time>2022-07-17T06:28:25Z</time>
      </trkpt>
      <trkpt lat="45.27399" lon="6.35901">
        <ele>527.8</ele>
        <time>2022-07-17T06:28:26Z</time>
      </trkpt>
      <trkpt lat="45.27395" lon="6.35909">
        <ele>527.8</ele>
        <time>2022-07-17T06:28:27Z</time>
      </trkpt>
      <trkpt lat="45.27391" lon="6.35916">
        <ele>527.8</ele>
        <time>2022-07-17T06:28:28Z</time>
      </trkpt>
      <trkpt lat="45.27387" lon="6.35924">
        <ele>527.8</ele>
        <time>2022-07-17T06:28:29Z</time>
      </trkpt>
      <trkpt lat="45.27383" lon="6.35931">
        <ele>527.8</ele>
        <time>2022-07-17T06:28:30Z</time>
      </trkpt>
      <trkpt lat="45.27378" lon="6.35938">
        <ele>527.8</ele>
        <time>2022-07-17T06:28:31Z</time>
      </trkpt>
      <trkpt lat="45.27372" lon="6.35944">
        <ele>527.8</ele>
        <time>2022-07-17T06:28:32Z</time>
      </trkpt>
      <trkpt lat="45.27367" lon="6.3595">
        <ele>527.8</ele>
        <time>2022-07-17T06:28:33Z</time>
      </trkpt>
      <trkpt lat="45.27362" lon="6.35956">
        <ele>527.8</ele>
        <time>2022-07-17T06:28:34Z</time>
      </trkpt>
      <trkpt lat="45.27357" lon="6.35962">
        <ele>527.8</ele>
        <time>2022-07-17T06:28:35Z</time>
      </trkpt>
      <trkpt lat="45.27351" lon="6.35968">
        <ele>527.8</ele>
        <time>2022-07-17T06:28:36Z</time>
      </trkpt>
      <trkpt lat="45.27346" lon="6.35975">
        <ele>527.6</ele>
        <time>2022-07-17T06:28:37Z</time>
      </trkpt>
      <trkpt lat="45.27341" lon="6.3598">
        <ele>527.6</ele>
        <time>2022-07-17T06:28:38Z</time>
      </trkpt>
      <trkpt lat="45.27335" lon="6.35986">
        <ele>527.6</ele>
        <time>2022-07-17T06:28:39Z</time>
      </trkpt>
      <trkpt lat="45.2733" lon="6.35992">
        <ele>527.2</ele>
        <time>2022-07-17T06:28:40Z</time>
      </trkpt>
      <trkpt lat="45.27326" lon="6.35999">
        <ele>527.2</ele>
        <time>2022-07-17T06:28:41Z</time>
      </trkpt>
      <trkpt lat="45.27321" lon="6.36006">
        <ele>527.2</ele>
        <time>2022-07-17T06:28:42Z</time>
      </trkpt>
      <trkpt lat="45.27318" lon="6.36014">
        <ele>527.2</ele>
        <time>2022-07-17T06:28:43Z</time>
      </trkpt>
      <trkpt lat="45.27314" lon="6.36021">
        <ele>527.2</ele>
        <time>2022-07-17T06:28:44Z</time>
      </trkpt>
      <trkpt lat="45.2731" lon="6.36029">
        <ele>527.2</ele>
        <time>2022-07-17T06:28:45Z</time>
      </trkpt>
      <trkpt lat="45.27306" lon="6.36037">
        <ele>527</ele>
        <time>2022-07-17T06:28:46Z</time>
      </trkpt>
      <trkpt lat="45.27302" lon="6.36044">
        <ele>527</ele>
        <time>2022-07-17T06:28:47Z</time>
      </trkpt>
      <trkpt lat="45.27298" lon="6.36052">
        <ele>526.8</ele>
        <time>2022-07-17T06:28:48Z</time>
      </trkpt>
      <trkpt lat="45.27294" lon="6.3606">
        <ele>526.8</ele>
        <time>2022-07-17T06:28:49Z</time>
      </trkpt>
      <trkpt lat="45.2729" lon="6.36067">
        <ele>526.8</ele>
        <time>2022-07-17T06:28:50Z</time>
      </trkpt>
      <trkpt lat="45.27286" lon="6.36075">
        <ele>526.8</ele>
        <time>2022-07-17T06:28:51Z</time>
      </trkpt>
      <trkpt lat="45.27283" lon="6.36082">
        <ele>526.8</ele>
        <time>2022-07-17T06:28:52Z</time>
      </trkpt>
      <trkpt lat="45.27279" lon="6.36089">
        <ele>526.8</ele>
        <time>2022-07-17T06:28:53Z</time>
      </trkpt>
      <trkpt lat="45.27276" lon="6.36097">
        <ele>526.8</ele>
        <time>2022-07-17T06:28:54Z</time>
      </trkpt>
      <trkpt lat="45.27273" lon="6.36104">
        <ele>526.8</ele>
        <time>2022-07-17T06:28:55Z</time>
      </trkpt>
      <trkpt lat="45.2727" lon="6.36111">
        <ele>526.8</ele>
        <time>2022-07-17T06:28:56Z</time>
      </trkpt>
      <trkpt lat="45.27267" lon="6.36118">
        <ele>526.8</ele>
        <time>2022-07-17T06:28:57Z</time>
      </trkpt>
      <trkpt lat="45.27263" lon="6.36124">
        <ele>526.8</ele>
        <time>2022-07-17T06:28:58Z</time>
      </trkpt>
      <trkpt lat="45.27259" lon="6.3613">
        <ele>526.8</ele>
        <time>2022-07-17T06:28:59Z</time>
      </trkpt>
      <trkpt lat="45.27255" lon="6.36134">
        <ele>526.8</ele>
        <time>2022-07-17T06:29:00Z</time>
      </trkpt>
      <trkpt lat="45.2725" lon="6.36139">
        <ele>526.8</ele>
        <time>2022-07-17T06:29:01Z</time>
      </trkpt>
      <trkpt lat="45.27246" lon="6.36145">
        <ele>526.8</ele>
        <time>2022-07-17T06:29:02Z</time>
      </trkpt>
      <trkpt lat="45.27243" lon="6.36152">
        <ele>526.8</ele>
        <time>2022-07-17T06:29:03Z</time>
      </trkpt>
      <trkpt lat="45.27241" lon="6.36159">
        <ele>526.8</ele>
        <time>2022-07-17T06:29:04Z</time>
      </trkpt>
      <trkpt lat="45.27237" lon="6.36166">
        <ele>526.8</ele>
        <time>2022-07-17T06:29:05Z</time>
      </trkpt>
      <trkpt lat="45.27234" lon="6.36173">
        <ele>527</ele>
        <time>2022-07-17T06:29:06Z</time>
      </trkpt>
      <trkpt lat="45.2723" lon="6.3618">
        <ele>527</ele>
        <time>2022-07-17T06:29:07Z</time>
      </trkpt>
      <trkpt lat="45.27226" lon="6.36187">
        <ele>527</ele>
        <time>2022-07-17T06:29:08Z</time>
      </trkpt>
      <trkpt lat="45.27222" lon="6.36194">
        <ele>527</ele>
        <time>2022-07-17T06:29:09Z</time>
      </trkpt>
      <trkpt lat="45.27218" lon="6.36201">
        <ele>527</ele>
        <time>2022-07-17T06:29:10Z</time>
      </trkpt>
      <trkpt lat="45.27214" lon="6.36208">
        <ele>527</ele>
        <time>2022-07-17T06:29:11Z</time>
      </trkpt>
      <trkpt lat="45.2721" lon="6.36215">
        <ele>527.2</ele>
        <time>2022-07-17T06:29:12Z</time>
      </trkpt>
      <trkpt lat="45.27206" lon="6.36221">
        <ele>527.2</ele>
        <time>2022-07-17T06:29:13Z</time>
      </trkpt>
      <trkpt lat="45.27202" lon="6.36228">
        <ele>527.2</ele>
        <time>2022-07-17T06:29:14Z</time>
      </trkpt>
      <trkpt lat="45.27198" lon="6.36235">
        <ele>527.2</ele>
        <time>2022-07-17T06:29:15Z</time>
      </trkpt>
      <trkpt lat="45.27194" lon="6.36242">
        <ele>527.2</ele>
        <time>2022-07-17T06:29:16Z</time>
      </trkpt>
      <trkpt lat="45.2719" lon="6.36248">
        <ele>527.4</ele>
        <time>2022-07-17T06:29:17Z</time>
      </trkpt>
      <trkpt lat="45.27186" lon="6.36255">
        <ele>527.4</ele>
        <time>2022-07-17T06:29:18Z</time>
      </trkpt>
      <trkpt lat="45.27182" lon="6.36261">
        <ele>527.4</ele>
        <time>2022-07-17T06:29:19Z</time>
      </trkpt>
      <trkpt lat="45.27178" lon="6.36267">
        <ele>527.4</ele>
        <time>2022-07-17T06:29:20Z</time>
      </trkpt>
      <trkpt lat="45.27174" lon="6.36273">
        <ele>527.6</ele>
        <time>2022-07-17T06:29:21Z</time>
      </trkpt>
      <trkpt lat="45.27171" lon="6.36279">
        <ele>527.6</ele>
        <time>2022-07-17T06:29:22Z</time>
      </trkpt>
      <trkpt lat="45.27167" lon="6.36285">
        <ele>527.6</ele>
        <time>2022-07-17T06:29:23Z</time>
      </trkpt>
      <trkpt lat="45.27162" lon="6.36291">
        <ele>527.6</ele>
        <time>2022-07-17T06:29:24Z</time>
      </trkpt>
      <trkpt lat="45.27158" lon="6.36297">
        <ele>527.6</ele>
        <time>2022-07-17T06:29:25Z</time>
      </trkpt>
      <trkpt lat="45.27154" lon="6.36304">
        <ele>527.6</ele>
        <time>2022-07-17T06:29:26Z</time>
      </trkpt>
      <trkpt lat="45.2715" lon="6.3631">
        <ele>527.6</ele>
        <time>2022-07-17T06:29:27Z</time>
      </trkpt>
      <trkpt lat="45.27146" lon="6.36316">
        <ele>527.6</ele>
        <time>2022-07-17T06:29:28Z</time>
      </trkpt>
      <trkpt lat="45.27142" lon="6.36322">
        <ele>527.6</ele>
        <time>2022-07-17T06:29:29Z</time>
      </trkpt>
      <trkpt lat="45.27137" lon="6.36328">
        <ele>527.6</ele>
        <time>2022-07-17T06:29:30Z</time>
      </trkpt>
      <trkpt lat="45.27133" lon="6.36334">
        <ele>527.6</ele>
        <time>2022-07-17T06:29:31Z</time>
      </trkpt>
      <trkpt lat="45.27129" lon="6.3634">
        <ele>528</ele>
        <time>2022-07-17T06:29:33Z</time>
      </trkpt>
      <trkpt lat="45.27125" lon="6.36346">
        <ele>528</ele>
        <time>2022-07-17T06:29:34Z</time>
      </trkpt>
      <trkpt lat="45.27121" lon="6.36352">
        <ele>528</ele>
        <time>2022-07-17T06:29:35Z</time>
      </trkpt>
      <trkpt lat="45.27117" lon="6.36359">
        <ele>528.2</ele>
        <time>2022-07-17T06:29:36Z</time>
      </trkpt>
      <trkpt lat="45.27113" lon="6.36365">
        <ele>528.2</ele>
        <time>2022-07-17T06:29:37Z</time>
      </trkpt>
      <trkpt lat="45.27109" lon="6.36371">
        <ele>528.2</ele>
        <time>2022-07-17T06:29:38Z</time>
      </trkpt>
      <trkpt lat="45.27105" lon="6.36377">
        <ele>528.2</ele>
        <time>2022-07-17T06:29:39Z</time>
      </trkpt>
      <trkpt lat="45.27101" lon="6.36383">
        <ele>528.4</ele>
        <time>2022-07-17T06:29:40Z</time>
      </trkpt>
      <trkpt lat="45.27097" lon="6.36389">
        <ele>528.4</ele>
        <time>2022-07-17T06:29:41Z</time>
      </trkpt>
      <trkpt lat="45.27093" lon="6.36395">
        <ele>528.4</ele>
        <time>2022-07-17T06:29:42Z</time>
      </trkpt>
      <trkpt lat="45.27089" lon="6.36401">
        <ele>528.4</ele>
        <time>2022-07-17T06:29:43Z</time>
      </trkpt>
      <trkpt lat="45.27085" lon="6.36407">
        <ele>528.4</ele>
        <time>2022-07-17T06:29:44Z</time>
      </trkpt>
      <trkpt lat="45.27082" lon="6.36412">
        <ele>528.6</ele>
        <time>2022-07-17T06:29:45Z</time>
      </trkpt>
      <trkpt lat="45.27077" lon="6.36416">
        <ele>528.6</ele>
        <time>2022-07-17T06:29:46Z</time>
      </trkpt>
      <trkpt lat="45.27073" lon="6.36419">
        <ele>528.6</ele>
        <time>2022-07-17T06:29:47Z</time>
      </trkpt>
      <trkpt lat="45.27068" lon="6.36423">
        <ele>528.6</ele>
        <time>2022-07-17T06:29:48Z</time>
      </trkpt>
      <trkpt lat="45.27064" lon="6.36427">
        <ele>528.6</ele>
        <time>2022-07-17T06:29:49Z</time>
      </trkpt>
      <trkpt lat="45.27061" lon="6.36433">
        <ele>528.6</ele>
        <time>2022-07-17T06:29:50Z</time>
      </trkpt>
      <trkpt lat="45.27058" lon="6.3644">
        <ele>529</ele>
        <time>2022-07-17T06:29:51Z</time>
      </trkpt>
      <trkpt lat="45.27055" lon="6.36447">
        <ele>529</ele>
        <time>2022-07-17T06:29:52Z</time>
      </trkpt>
      <trkpt lat="45.27052" lon="6.36453">
        <ele>529</ele>
        <time>2022-07-17T06:29:53Z</time>
      </trkpt>
      <trkpt lat="45.27048" lon="6.3646">
        <ele>529</ele>
        <time>2022-07-17T06:29:54Z</time>
      </trkpt>
      <trkpt lat="45.27044" lon="6.36466">
        <ele>529</ele>
        <time>2022-07-17T06:29:55Z</time>
      </trkpt>
      <trkpt lat="45.2704" lon="6.36472">
        <ele>529.2</ele>
        <time>2022-07-17T06:29:56Z</time>
      </trkpt>
      <trkpt lat="45.27036" lon="6.36478">
        <ele>529.2</ele>
        <time>2022-07-17T06:29:57Z</time>
      </trkpt>
      <trkpt lat="45.27032" lon="6.36484">
        <ele>529.2</ele>
        <time>2022-07-17T06:29:58Z</time>
      </trkpt>
      <trkpt lat="45.27028" lon="6.3649">
        <ele>529.2</ele>
        <time>2022-07-17T06:29:59Z</time>
      </trkpt>
      <trkpt lat="45.27024" lon="6.36496">
        <ele>529.2</ele>
        <time>2022-07-17T06:30:00Z</time>
      </trkpt>
      <trkpt lat="45.2702" lon="6.36502">
        <ele>529.4</ele>
        <time>2022-07-17T06:30:01Z</time>
      </trkpt>
      <trkpt lat="45.27016" lon="6.36508">
        <ele>529.4</ele>
        <time>2022-07-17T06:30:02Z</time>
      </trkpt>
      <trkpt lat="45.27012" lon="6.36514">
        <ele>529.4</ele>
        <time>2022-07-17T06:30:03Z</time>
      </trkpt>
      <trkpt lat="45.27008" lon="6.36521">
        <ele>529.4</ele>
        <time>2022-07-17T06:30:04Z</time>
      </trkpt>
      <trkpt lat="45.27003" lon="6.36527">
        <ele>529.4</ele>
        <time>2022-07-17T06:30:05Z</time>
      </trkpt>
      <trkpt lat="45.26999" lon="6.36533">
        <ele>529.6</ele>
        <time>2022-07-17T06:30:06Z</time>
      </trkpt>
      <trkpt lat="45.26995" lon="6.36539">
        <ele>529.6</ele>
        <time>2022-07-17T06:30:07Z</time>
      </trkpt>
      <trkpt lat="45.26991" lon="6.36545">
        <ele>529.8</ele>
        <time>2022-07-17T06:30:08Z</time>
      </trkpt>
      <trkpt lat="45.26987" lon="6.36551">
        <ele>529.8</ele>
        <time>2022-07-17T06:30:09Z</time>
      </trkpt>
      <trkpt lat="45.26983" lon="6.36557">
        <ele>529.8</ele>
        <time>2022-07-17T06:30:10Z</time>
      </trkpt>
      <trkpt lat="45.26979" lon="6.36563">
        <ele>530</ele>
        <time>2022-07-17T06:30:11Z</time>
      </trkpt>
      <trkpt lat="45.26975" lon="6.36569">
        <ele>530</ele>
        <time>2022-07-17T06:30:12Z</time>
      </trkpt>
      <trkpt lat="45.26971" lon="6.36575">
        <ele>530</ele>
        <time>2022-07-17T06:30:13Z</time>
      </trkpt>
      <trkpt lat="45.26967" lon="6.36581">
        <ele>530.2</ele>
        <time>2022-07-17T06:30:14Z</time>
      </trkpt>
      <trkpt lat="45.26963" lon="6.36587">
        <ele>530.2</ele>
        <time>2022-07-17T06:30:15Z</time>
      </trkpt>
      <trkpt lat="45.2696" lon="6.36593">
        <ele>530.2</ele>
        <time>2022-07-17T06:30:16Z</time>
      </trkpt>
      <trkpt lat="45.26956" lon="6.36599">
        <ele>530.2</ele>
        <time>2022-07-17T06:30:17Z</time>
      </trkpt>
      <trkpt lat="45.26952" lon="6.36605">
        <ele>530.6</ele>
        <time>2022-07-17T06:30:18Z</time>
      </trkpt>
      <trkpt lat="45.26948" lon="6.3661">
        <ele>530.6</ele>
        <time>2022-07-17T06:30:19Z</time>
      </trkpt>
      <trkpt lat="45.26944" lon="6.36616">
        <ele>530.8</ele>
        <time>2022-07-17T06:30:20Z</time>
      </trkpt>
      <trkpt lat="45.2694" lon="6.36621">
        <ele>530.8</ele>
        <time>2022-07-17T06:30:21Z</time>
      </trkpt>
      <trkpt lat="45.26936" lon="6.36627">
        <ele>530.8</ele>
        <time>2022-07-17T06:30:22Z</time>
      </trkpt>
      <trkpt lat="45.26933" lon="6.36633">
        <ele>531</ele>
        <time>2022-07-17T06:30:23Z</time>
      </trkpt>
      <trkpt lat="45.26929" lon="6.36639">
        <ele>531</ele>
        <time>2022-07-17T06:30:24Z</time>
      </trkpt>
      <trkpt lat="45.26925" lon="6.36645">
        <ele>531</ele>
        <time>2022-07-17T06:30:25Z</time>
      </trkpt>
      <trkpt lat="45.26921" lon="6.36651">
        <ele>531</ele>
        <time>2022-07-17T06:30:26Z</time>
      </trkpt>
      <trkpt lat="45.26918" lon="6.36656">
        <ele>531.2</ele>
        <time>2022-07-17T06:30:27Z</time>
      </trkpt>
      <trkpt lat="45.26914" lon="6.36663">
        <ele>531.2</ele>
        <time>2022-07-17T06:30:28Z</time>
      </trkpt>
      <trkpt lat="45.26911" lon="6.36669">
        <ele>531.2</ele>
        <time>2022-07-17T06:30:29Z</time>
      </trkpt>
      <trkpt lat="45.26908" lon="6.36676">
        <ele>531.2</ele>
        <time>2022-07-17T06:30:30Z</time>
      </trkpt>
      <trkpt lat="45.26905" lon="6.36682">
        <ele>531.4</ele>
        <time>2022-07-17T06:30:31Z</time>
      </trkpt>
      <trkpt lat="45.26901" lon="6.36688">
        <ele>531.4</ele>
        <time>2022-07-17T06:30:32Z</time>
      </trkpt>
      <trkpt lat="45.26898" lon="6.36694">
        <ele>531.6</ele>
        <time>2022-07-17T06:30:33Z</time>
      </trkpt>
      <trkpt lat="45.26894" lon="6.36701">
        <ele>531.6</ele>
        <time>2022-07-17T06:30:34Z</time>
      </trkpt>
      <trkpt lat="45.26891" lon="6.36707">
        <ele>531.6</ele>
        <time>2022-07-17T06:30:35Z</time>
      </trkpt>
      <trkpt lat="45.26888" lon="6.36713">
        <ele>532</ele>
        <time>2022-07-17T06:30:36Z</time>
      </trkpt>
      <trkpt lat="45.26885" lon="6.36719">
        <ele>532</ele>
        <time>2022-07-17T06:30:37Z</time>
      </trkpt>
      <trkpt lat="45.26882" lon="6.36725">
        <ele>532</ele>
        <time>2022-07-17T06:30:38Z</time>
      </trkpt>
      <trkpt lat="45.26878" lon="6.3673">
        <ele>532.2</ele>
        <time>2022-07-17T06:30:39Z</time>
      </trkpt>
      <trkpt lat="45.26875" lon="6.36736">
        <ele>532.2</ele>
        <time>2022-07-17T06:30:40Z</time>
      </trkpt>
      <trkpt lat="45.26871" lon="6.36741">
        <ele>532.2</ele>
        <time>2022-07-17T06:30:41Z</time>
      </trkpt>
      <trkpt lat="45.26868" lon="6.36746">
        <ele>532.4</ele>
        <time>2022-07-17T06:30:42Z</time>
      </trkpt>
      <trkpt lat="45.26863" lon="6.3675">
        <ele>532.4</ele>
        <time>2022-07-17T06:30:43Z</time>
      </trkpt>
      <trkpt lat="45.26858" lon="6.36753">
        <ele>532.4</ele>
        <time>2022-07-17T06:30:44Z</time>
      </trkpt>
      <trkpt lat="45.26853" lon="6.36753">
        <ele>532.6</ele>
        <time>2022-07-17T06:30:45Z</time>
      </trkpt>
      <trkpt lat="45.26848" lon="6.36753">
        <ele>532.6</ele>
        <time>2022-07-17T06:30:46Z</time>
      </trkpt>
      <trkpt lat="45.26842" lon="6.36753">
        <ele>532.6</ele>
        <time>2022-07-17T06:30:47Z</time>
      </trkpt>
      <trkpt lat="45.26837" lon="6.36756">
        <ele>532.6</ele>
        <time>2022-07-17T06:30:48Z</time>
      </trkpt>
      <trkpt lat="45.26834" lon="6.36762">
        <ele>532.6</ele>
        <time>2022-07-17T06:30:49Z</time>
      </trkpt>
      <trkpt lat="45.26831" lon="6.36769">
        <ele>533</ele>
        <time>2022-07-17T06:30:50Z</time>
      </trkpt>
      <trkpt lat="45.2683" lon="6.36776">
        <ele>533</ele>
        <time>2022-07-17T06:30:51Z</time>
      </trkpt>
      <trkpt lat="45.2683" lon="6.36784">
        <ele>533</ele>
        <time>2022-07-17T06:30:52Z</time>
      </trkpt>
      <trkpt lat="45.2683" lon="6.36792">
        <ele>533</ele>
        <time>2022-07-17T06:30:53Z</time>
      </trkpt>
      <trkpt lat="45.26829" lon="6.36801">
        <ele>533</ele>
        <time>2022-07-17T06:30:54Z</time>
      </trkpt>
      <trkpt lat="45.26827" lon="6.36809">
        <ele>533</ele>
        <time>2022-07-17T06:30:55Z</time>
      </trkpt>
      <trkpt lat="45.26825" lon="6.36817">
        <ele>533</ele>
        <time>2022-07-17T06:30:56Z</time>
      </trkpt>
      <trkpt lat="45.26823" lon="6.36825">
        <ele>533</ele>
        <time>2022-07-17T06:30:57Z</time>
      </trkpt>
      <trkpt lat="45.26821" lon="6.36833">
        <ele>533.2</ele>
        <time>2022-07-17T06:30:58Z</time>
      </trkpt>
      <trkpt lat="45.26819" lon="6.36841">
        <ele>533.2</ele>
        <time>2022-07-17T06:30:59Z</time>
      </trkpt>
      <trkpt lat="45.26817" lon="6.3685">
        <ele>533.2</ele>
        <time>2022-07-17T06:31:00Z</time>
      </trkpt>
      <trkpt lat="45.26815" lon="6.36858">
        <ele>533.2</ele>
        <time>2022-07-17T06:31:01Z</time>
      </trkpt>
      <trkpt lat="45.26813" lon="6.36866">
        <ele>533.2</ele>
        <time>2022-07-17T06:31:02Z</time>
      </trkpt>
      <trkpt lat="45.26811" lon="6.36874">
        <ele>533.2</ele>
        <time>2022-07-17T06:31:03Z</time>
      </trkpt>
      <trkpt lat="45.2681" lon="6.36881">
        <ele>533.2</ele>
        <time>2022-07-17T06:31:04Z</time>
      </trkpt>
      <trkpt lat="45.26807" lon="6.36888">
        <ele>533.2</ele>
        <time>2022-07-17T06:31:05Z</time>
      </trkpt>
      <trkpt lat="45.26805" lon="6.36893">
        <ele>533.2</ele>
        <time>2022-07-17T06:31:06Z</time>
      </trkpt>
      <trkpt lat="45.26801" lon="6.36898">
        <ele>533</ele>
        <time>2022-07-17T06:31:07Z</time>
      </trkpt>
      <trkpt lat="45.26797" lon="6.36904">
        <ele>533</ele>
        <time>2022-07-17T06:31:08Z</time>
      </trkpt>
      <trkpt lat="45.26794" lon="6.3691">
        <ele>533</ele>
        <time>2022-07-17T06:31:09Z</time>
      </trkpt>
      <trkpt lat="45.26792" lon="6.36918">
        <ele>532.6</ele>
        <time>2022-07-17T06:31:10Z</time>
      </trkpt>
      <trkpt lat="45.26791" lon="6.36926">
        <ele>532.6</ele>
        <time>2022-07-17T06:31:11Z</time>
      </trkpt>
      <trkpt lat="45.26789" lon="6.36934">
        <ele>532.6</ele>
        <time>2022-07-17T06:31:12Z</time>
      </trkpt>
      <trkpt lat="45.26788" lon="6.36943">
        <ele>532.6</ele>
        <time>2022-07-17T06:31:13Z</time>
      </trkpt>
      <trkpt lat="45.26785" lon="6.36951">
        <ele>532.6</ele>
        <time>2022-07-17T06:31:14Z</time>
      </trkpt>
      <trkpt lat="45.26783" lon="6.36959">
        <ele>532.8</ele>
        <time>2022-07-17T06:31:15Z</time>
      </trkpt>
      <trkpt lat="45.26781" lon="6.36968">
        <ele>532.8</ele>
        <time>2022-07-17T06:31:16Z</time>
      </trkpt>
      <trkpt lat="45.26778" lon="6.36977">
        <ele>532.8</ele>
        <time>2022-07-17T06:31:17Z</time>
      </trkpt>
      <trkpt lat="45.26776" lon="6.36985">
        <ele>533.2</ele>
        <time>2022-07-17T06:31:18Z</time>
      </trkpt>
      <trkpt lat="45.26774" lon="6.36994">
        <ele>533.2</ele>
        <time>2022-07-17T06:31:19Z</time>
      </trkpt>
      <trkpt lat="45.26772" lon="6.37003">
        <ele>533.4</ele>
        <time>2022-07-17T06:31:20Z</time>
      </trkpt>
      <trkpt lat="45.2677" lon="6.37012">
        <ele>533.4</ele>
        <time>2022-07-17T06:31:21Z</time>
      </trkpt>
      <trkpt lat="45.26768" lon="6.37021">
        <ele>533.4</ele>
        <time>2022-07-17T06:31:22Z</time>
      </trkpt>
      <trkpt lat="45.26766" lon="6.3703">
        <ele>533.6</ele>
        <time>2022-07-17T06:31:23Z</time>
      </trkpt>
      <trkpt lat="45.26763" lon="6.37038">
        <ele>533.6</ele>
        <time>2022-07-17T06:31:24Z</time>
      </trkpt>
      <trkpt lat="45.26761" lon="6.37047">
        <ele>533.6</ele>
        <time>2022-07-17T06:31:25Z</time>
      </trkpt>
      <trkpt lat="45.26758" lon="6.37056">
        <ele>533.8</ele>
        <time>2022-07-17T06:31:26Z</time>
      </trkpt>
      <trkpt lat="45.26756" lon="6.37065">
        <ele>533.8</ele>
        <time>2022-07-17T06:31:27Z</time>
      </trkpt>
      <trkpt lat="45.26753" lon="6.37074">
        <ele>533.8</ele>
        <time>2022-07-17T06:31:28Z</time>
      </trkpt>
      <trkpt lat="45.2675" lon="6.37083">
        <ele>534.2</ele>
        <time>2022-07-17T06:31:29Z</time>
      </trkpt>
      <trkpt lat="45.26748" lon="6.37092">
        <ele>534.2</ele>
        <time>2022-07-17T06:31:30Z</time>
      </trkpt>
      <trkpt lat="45.26745" lon="6.37101">
        <ele>534.4</ele>
        <time>2022-07-17T06:31:31Z</time>
      </trkpt>
      <trkpt lat="45.26742" lon="6.37109">
        <ele>534.4</ele>
        <time>2022-07-17T06:31:32Z</time>
      </trkpt>
      <trkpt lat="45.2674" lon="6.37117">
        <ele>534.6</ele>
        <time>2022-07-17T06:31:33Z</time>
      </trkpt>
      <trkpt lat="45.26737" lon="6.37126">
        <ele>534.6</ele>
        <time>2022-07-17T06:31:34Z</time>
      </trkpt>
      <trkpt lat="45.26735" lon="6.37134">
        <ele>534.8</ele>
        <time>2022-07-17T06:31:35Z</time>
      </trkpt>
      <trkpt lat="45.26733" lon="6.37142">
        <ele>534.8</ele>
        <time>2022-07-17T06:31:36Z</time>
      </trkpt>
      <trkpt lat="45.26731" lon="6.3715">
        <ele>535.2</ele>
        <time>2022-07-17T06:31:37Z</time>
      </trkpt>
      <trkpt lat="45.26729" lon="6.37157">
        <ele>535.4</ele>
        <time>2022-07-17T06:31:38Z</time>
      </trkpt>
      <trkpt lat="45.26727" lon="6.37165">
        <ele>535.4</ele>
        <time>2022-07-17T06:31:39Z</time>
      </trkpt>
      <trkpt lat="45.26725" lon="6.37172">
        <ele>535.4</ele>
        <time>2022-07-17T06:31:40Z</time>
      </trkpt>
      <trkpt lat="45.26723" lon="6.3718">
        <ele>535.6</ele>
        <time>2022-07-17T06:31:41Z</time>
      </trkpt>
      <trkpt lat="45.26721" lon="6.37187">
        <ele>535.6</ele>
        <time>2022-07-17T06:31:42Z</time>
      </trkpt>
      <trkpt lat="45.26719" lon="6.37195">
        <ele>535.6</ele>
        <time>2022-07-17T06:31:43Z</time>
      </trkpt>
      <trkpt lat="45.26718" lon="6.37202">
        <ele>536</ele>
        <time>2022-07-17T06:31:44Z</time>
      </trkpt>
      <trkpt lat="45.26716" lon="6.3721">
        <ele>536</ele>
        <time>2022-07-17T06:31:45Z</time>
      </trkpt>
      <trkpt lat="45.26714" lon="6.37217">
        <ele>536</ele>
        <time>2022-07-17T06:31:46Z</time>
      </trkpt>
      <trkpt lat="45.26713" lon="6.37224">
        <ele>536</ele>
        <time>2022-07-17T06:31:47Z</time>
      </trkpt>
      <trkpt lat="45.26711" lon="6.37232">
        <ele>536.2</ele>
        <time>2022-07-17T06:31:48Z</time>
      </trkpt>
      <trkpt lat="45.2671" lon="6.37239">
        <ele>536.2</ele>
        <time>2022-07-17T06:31:49Z</time>
      </trkpt>
      <trkpt lat="45.26708" lon="6.37247">
        <ele>536.6</ele>
        <time>2022-07-17T06:31:50Z</time>
      </trkpt>
      <trkpt lat="45.26707" lon="6.37254">
        <ele>536.6</ele>
        <time>2022-07-17T06:31:51Z</time>
      </trkpt>
      <trkpt lat="45.26705" lon="6.37261">
        <ele>536.8</ele>
        <time>2022-07-17T06:31:52Z</time>
      </trkpt>
      <trkpt lat="45.26703" lon="6.37269">
        <ele>536.8</ele>
        <time>2022-07-17T06:31:53Z</time>
      </trkpt>
      <trkpt lat="45.26702" lon="6.37276">
        <ele>536.8</ele>
        <time>2022-07-17T06:31:54Z</time>
      </trkpt>
      <trkpt lat="45.267" lon="6.37284">
        <ele>536.8</ele>
        <time>2022-07-17T06:31:55Z</time>
      </trkpt>
      <trkpt lat="45.26698" lon="6.37291">
        <ele>537.2</ele>
        <time>2022-07-17T06:31:56Z</time>
      </trkpt>
      <trkpt lat="45.26697" lon="6.37299">
        <ele>537.4</ele>
        <time>2022-07-17T06:31:57Z</time>
      </trkpt>
      <trkpt lat="45.26695" lon="6.37306">
        <ele>537.4</ele>
        <time>2022-07-17T06:31:58Z</time>
      </trkpt>
      <trkpt lat="45.26693" lon="6.37314">
        <ele>537.8</ele>
        <time>2022-07-17T06:31:59Z</time>
      </trkpt>
      <trkpt lat="45.26692" lon="6.37321">
        <ele>538</ele>
        <time>2022-07-17T06:32:00Z</time>
      </trkpt>
      <trkpt lat="45.2669" lon="6.37329">
        <ele>538</ele>
        <time>2022-07-17T06:32:01Z</time>
      </trkpt>
      <trkpt lat="45.26689" lon="6.37336">
        <ele>538.2</ele>
        <time>2022-07-17T06:32:02Z</time>
      </trkpt>
      <trkpt lat="45.26687" lon="6.37343">
        <ele>538.2</ele>
        <time>2022-07-17T06:32:03Z</time>
      </trkpt>
      <trkpt lat="45.26686" lon="6.37351">
        <ele>538.2</ele>
        <time>2022-07-17T06:32:04Z</time>
      </trkpt>
      <trkpt lat="45.26684" lon="6.37358">
        <ele>538.2</ele>
        <time>2022-07-17T06:32:05Z</time>
      </trkpt>
      <trkpt lat="45.26683" lon="6.37365">
        <ele>538.6</ele>
        <time>2022-07-17T06:32:06Z</time>
      </trkpt>
      <trkpt lat="45.26681" lon="6.37373">
        <ele>538.6</ele>
        <time>2022-07-17T06:32:07Z</time>
      </trkpt>
      <trkpt lat="45.26679" lon="6.3738">
        <ele>538.6</ele>
        <time>2022-07-17T06:32:08Z</time>
      </trkpt>
      <trkpt lat="45.26678" lon="6.37387">
        <ele>538.8</ele>
        <time>2022-07-17T06:32:09Z</time>
      </trkpt>
      <trkpt lat="45.26676" lon="6.37395">
        <ele>538.8</ele>
        <time>2022-07-17T06:32:10Z</time>
      </trkpt>
      <trkpt lat="45.26674" lon="6.37402">
        <ele>538.8</ele>
        <time>2022-07-17T06:32:11Z</time>
      </trkpt>
      <trkpt lat="45.26672" lon="6.3741">
        <ele>538.8</ele>
        <time>2022-07-17T06:32:12Z</time>
      </trkpt>
      <trkpt lat="45.2667" lon="6.37418">
        <ele>539.2</ele>
        <time>2022-07-17T06:32:13Z</time>
      </trkpt>
      <trkpt lat="45.26667" lon="6.37426">
        <ele>539.2</ele>
        <time>2022-07-17T06:32:14Z</time>
      </trkpt>
      <trkpt lat="45.26665" lon="6.37434">
        <ele>539.2</ele>
        <time>2022-07-17T06:32:15Z</time>
      </trkpt>
      <trkpt lat="45.26662" lon="6.37441">
        <ele>539.2</ele>
        <time>2022-07-17T06:32:16Z</time>
      </trkpt>
      <trkpt lat="45.26659" lon="6.37448">
        <ele>539.2</ele>
        <time>2022-07-17T06:32:17Z</time>
      </trkpt>
      <trkpt lat="45.26655" lon="6.37454">
        <ele>539.2</ele>
        <time>2022-07-17T06:32:18Z</time>
      </trkpt>
      <trkpt lat="45.26652" lon="6.37458">
        <ele>539.4</ele>
        <time>2022-07-17T06:32:19Z</time>
      </trkpt>
      <trkpt lat="45.26647" lon="6.37462">
        <ele>539.4</ele>
        <time>2022-07-17T06:32:20Z</time>
      </trkpt>
      <trkpt lat="45.26642" lon="6.37465">
        <ele>539.4</ele>
        <time>2022-07-17T06:32:21Z</time>
      </trkpt>
      <trkpt lat="45.26638" lon="6.37467">
        <ele>539.4</ele>
        <time>2022-07-17T06:32:22Z</time>
      </trkpt>
      <trkpt lat="45.26633" lon="6.37469">
        <ele>539.4</ele>
        <time>2022-07-17T06:32:23Z</time>
      </trkpt>
      <trkpt lat="45.26629" lon="6.37473">
        <ele>539.4</ele>
        <time>2022-07-17T06:32:24Z</time>
      </trkpt>
      <trkpt lat="45.26626" lon="6.37478">
        <ele>539.6</ele>
        <time>2022-07-17T06:32:25Z</time>
      </trkpt>
      <trkpt lat="45.26624" lon="6.37484">
        <ele>539.6</ele>
        <time>2022-07-17T06:32:26Z</time>
      </trkpt>
      <trkpt lat="45.26623" lon="6.3749">
        <ele>539.6</ele>
        <time>2022-07-17T06:32:27Z</time>
      </trkpt>
      <trkpt lat="45.26624" lon="6.37497">
        <ele>539.6</ele>
        <time>2022-07-17T06:32:28Z</time>
      </trkpt>
      <trkpt lat="45.26627" lon="6.37503">
        <ele>539.6</ele>
        <time>2022-07-17T06:32:29Z</time>
      </trkpt>
      <trkpt lat="45.2663" lon="6.37508">
        <ele>539.6</ele>
        <time>2022-07-17T06:32:30Z</time>
      </trkpt>
      <trkpt lat="45.26634" lon="6.37512">
        <ele>539.6</ele>
        <time>2022-07-17T06:32:31Z</time>
      </trkpt>
      <trkpt lat="45.26638" lon="6.37514">
        <ele>539.6</ele>
        <time>2022-07-17T06:32:32Z</time>
      </trkpt>
      <trkpt lat="45.26643" lon="6.37516">
        <ele>539.6</ele>
        <time>2022-07-17T06:32:33Z</time>
      </trkpt>
      <trkpt lat="45.26647" lon="6.3752">
        <ele>539.2</ele>
        <time>2022-07-17T06:32:34Z</time>
      </trkpt>
      <trkpt lat="45.2665" lon="6.37525">
        <ele>539.2</ele>
        <time>2022-07-17T06:32:35Z</time>
      </trkpt>
      <trkpt lat="45.26652" lon="6.37531">
        <ele>539.2</ele>
        <time>2022-07-17T06:32:36Z</time>
      </trkpt>
      <trkpt lat="45.26654" lon="6.37538">
        <ele>539.6</ele>
        <time>2022-07-17T06:32:37Z</time>
      </trkpt>
      <trkpt lat="45.26654" lon="6.37545">
        <ele>539.6</ele>
        <time>2022-07-17T06:32:38Z</time>
      </trkpt>
      <trkpt lat="45.26654" lon="6.37551">
        <ele>540</ele>
        <time>2022-07-17T06:32:39Z</time>
      </trkpt>
      <trkpt lat="45.26654" lon="6.37558">
        <ele>540</ele>
        <time>2022-07-17T06:32:40Z</time>
      </trkpt>
      <trkpt lat="45.26653" lon="6.37565">
        <ele>540.4</ele>
        <time>2022-07-17T06:32:41Z</time>
      </trkpt>
      <trkpt lat="45.26653" lon="6.37572">
        <ele>540.8</ele>
        <time>2022-07-17T06:32:42Z</time>
      </trkpt>
      <trkpt lat="45.26652" lon="6.37579">
        <ele>541</ele>
        <time>2022-07-17T06:32:43Z</time>
      </trkpt>
      <trkpt lat="45.26651" lon="6.37585">
        <ele>541.4</ele>
        <time>2022-07-17T06:32:44Z</time>
      </trkpt>
      <trkpt lat="45.2665" lon="6.37591">
        <ele>541.6</ele>
        <time>2022-07-17T06:32:45Z</time>
      </trkpt>
      <trkpt lat="45.2665" lon="6.37597">
        <ele>542</ele>
        <time>2022-07-17T06:32:46Z</time>
      </trkpt>
      <trkpt lat="45.2665" lon="6.37602">
        <ele>542.2</ele>
        <time>2022-07-17T06:32:47Z</time>
      </trkpt>
      <trkpt lat="45.26649" lon="6.37607">
        <ele>542.4</ele>
        <time>2022-07-17T06:32:48Z</time>
      </trkpt>
      <trkpt lat="45.26649" lon="6.37612">
        <ele>542.6</ele>
        <time>2022-07-17T06:32:49Z</time>
      </trkpt>
      <trkpt lat="45.26648" lon="6.37617">
        <ele>542.8</ele>
        <time>2022-07-17T06:32:50Z</time>
      </trkpt>
      <trkpt lat="45.26648" lon="6.37623">
        <ele>543.2</ele>
        <time>2022-07-17T06:32:51Z</time>
      </trkpt>
      <trkpt lat="45.26647" lon="6.37628">
        <ele>543.4</ele>
        <time>2022-07-17T06:32:52Z</time>
      </trkpt>
      <trkpt lat="45.26647" lon="6.37634">
        <ele>543.8</ele>
        <time>2022-07-17T06:32:53Z</time>
      </trkpt>
      <trkpt lat="45.26647" lon="6.37639">
        <ele>544.2</ele>
        <time>2022-07-17T06:32:54Z</time>
      </trkpt>
      <trkpt lat="45.26647" lon="6.37645">
        <ele>544.4</ele>
        <time>2022-07-17T06:32:55Z</time>
      </trkpt>
      <trkpt lat="45.26647" lon="6.3765">
        <ele>544.6</ele>
        <time>2022-07-17T06:32:56Z</time>
      </trkpt>
      <trkpt lat="45.26647" lon="6.37655">
        <ele>544.8</ele>
        <time>2022-07-17T06:32:57Z</time>
      </trkpt>
      <trkpt lat="45.26647" lon="6.3766">
        <ele>545</ele>
        <time>2022-07-17T06:32:58Z</time>
      </trkpt>
      <trkpt lat="45.26647" lon="6.37664">
        <ele>545.4</ele>
        <time>2022-07-17T06:32:59Z</time>
      </trkpt>
      <trkpt lat="45.26647" lon="6.37669">
        <ele>545.6</ele>
        <time>2022-07-17T06:33:00Z</time>
      </trkpt>
      <trkpt lat="45.26647" lon="6.37675">
        <ele>546</ele>
        <time>2022-07-17T06:33:01Z</time>
      </trkpt>
      <trkpt lat="45.26647" lon="6.3768">
        <ele>546.2</ele>
        <time>2022-07-17T06:33:02Z</time>
      </trkpt>
      <trkpt lat="45.26647" lon="6.37685">
        <ele>546.4</ele>
        <time>2022-07-17T06:33:03Z</time>
      </trkpt>
      <trkpt lat="45.26647" lon="6.3769">
        <ele>546.4</ele>
        <time>2022-07-17T06:33:04Z</time>
      </trkpt>
      <trkpt lat="45.26647" lon="6.37695">
        <ele>546.8</ele>
        <time>2022-07-17T06:33:05Z</time>
      </trkpt>
      <trkpt lat="45.26646" lon="6.37699">
        <ele>546.8</ele>
        <time>2022-07-17T06:33:06Z</time>
      </trkpt>
      <trkpt lat="45.26646" lon="6.37704">
        <ele>547.4</ele>
        <time>2022-07-17T06:33:07Z</time>
      </trkpt>
      <trkpt lat="45.26646" lon="6.37709">
        <ele>547.6</ele>
        <time>2022-07-17T06:33:08Z</time>
      </trkpt>
      <trkpt lat="45.26646" lon="6.37714">
        <ele>547.8</ele>
        <time>2022-07-17T06:33:09Z</time>
      </trkpt>
      <trkpt lat="45.26646" lon="6.3772">
        <ele>548</ele>
        <time>2022-07-17T06:33:10Z</time>
      </trkpt>
      <trkpt lat="45.26646" lon="6.37726">
        <ele>548</ele>
        <time>2022-07-17T06:33:11Z</time>
      </trkpt>
      <trkpt lat="45.26646" lon="6.37732">
        <ele>548.2</ele>
        <time>2022-07-17T06:33:12Z</time>
      </trkpt>
      <trkpt lat="45.26647" lon="6.37737">
        <ele>548.2</ele>
        <time>2022-07-17T06:33:13Z</time>
      </trkpt>
      <trkpt lat="45.26647" lon="6.37742">
        <ele>548.6</ele>
        <time>2022-07-17T06:33:14Z</time>
      </trkpt>
      <trkpt lat="45.26646" lon="6.37747">
        <ele>548.6</ele>
        <time>2022-07-17T06:33:15Z</time>
      </trkpt>
      <trkpt lat="45.26646" lon="6.37752">
        <ele>548.8</ele>
        <time>2022-07-17T06:33:16Z</time>
      </trkpt>
      <trkpt lat="45.26646" lon="6.37758">
        <ele>548.8</ele>
        <time>2022-07-17T06:33:17Z</time>
      </trkpt>
      <trkpt lat="45.26646" lon="6.37763">
        <ele>549</ele>
        <time>2022-07-17T06:33:18Z</time>
      </trkpt>
      <trkpt lat="45.26645" lon="6.37769">
        <ele>549</ele>
        <time>2022-07-17T06:33:19Z</time>
      </trkpt>
      <trkpt lat="45.26645" lon="6.37775">
        <ele>549.4</ele>
        <time>2022-07-17T06:33:20Z</time>
      </trkpt>
      <trkpt lat="45.26645" lon="6.37781">
        <ele>549.4</ele>
        <time>2022-07-17T06:33:21Z</time>
      </trkpt>
      <trkpt lat="45.26644" lon="6.37787">
        <ele>549.6</ele>
        <time>2022-07-17T06:33:22Z</time>
      </trkpt>
      <trkpt lat="45.26644" lon="6.37793">
        <ele>549.6</ele>
        <time>2022-07-17T06:33:23Z</time>
      </trkpt>
      <trkpt lat="45.26644" lon="6.37799">
        <ele>549.8</ele>
        <time>2022-07-17T06:33:24Z</time>
      </trkpt>
      <trkpt lat="45.26644" lon="6.37806">
        <ele>549.8</ele>
        <time>2022-07-17T06:33:25Z</time>
      </trkpt>
      <trkpt lat="45.26644" lon="6.37812">
        <ele>549.8</ele>
        <time>2022-07-17T06:33:26Z</time>
      </trkpt>
      <trkpt lat="45.26644" lon="6.37819">
        <ele>549.8</ele>
        <time>2022-07-17T06:33:27Z</time>
      </trkpt>
      <trkpt lat="45.26644" lon="6.37826">
        <ele>549.8</ele>
        <time>2022-07-17T06:33:28Z</time>
      </trkpt>
      <trkpt lat="45.26644" lon="6.37833">
        <ele>549.8</ele>
        <time>2022-07-17T06:33:29Z</time>
      </trkpt>
      <trkpt lat="45.26643" lon="6.3784">
        <ele>550.2</ele>
        <time>2022-07-17T06:33:30Z</time>
      </trkpt>
      <trkpt lat="45.26643" lon="6.37847">
        <ele>550.2</ele>
        <time>2022-07-17T06:33:31Z</time>
      </trkpt>
      <trkpt lat="45.26643" lon="6.37854">
        <ele>550.2</ele>
        <time>2022-07-17T06:33:32Z</time>
      </trkpt>
      <trkpt lat="45.26643" lon="6.37861">
        <ele>550.4</ele>
        <time>2022-07-17T06:33:33Z</time>
      </trkpt>
      <trkpt lat="45.26643" lon="6.37868">
        <ele>550.4</ele>
        <time>2022-07-17T06:33:34Z</time>
      </trkpt>
      <trkpt lat="45.26643" lon="6.37875">
        <ele>550.4</ele>
        <time>2022-07-17T06:33:35Z</time>
      </trkpt>
      <trkpt lat="45.26643" lon="6.37882">
        <ele>550.6</ele>
        <time>2022-07-17T06:33:36Z</time>
      </trkpt>
      <trkpt lat="45.26643" lon="6.37889">
        <ele>550.6</ele>
        <time>2022-07-17T06:33:37Z</time>
      </trkpt>
      <trkpt lat="45.26643" lon="6.37897">
        <ele>550.6</ele>
        <time>2022-07-17T06:33:38Z</time>
      </trkpt>
      <trkpt lat="45.26643" lon="6.37904">
        <ele>550.6</ele>
        <time>2022-07-17T06:33:39Z</time>
      </trkpt>
      <trkpt lat="45.26643" lon="6.37911">
        <ele>551</ele>
        <time>2022-07-17T06:33:40Z</time>
      </trkpt>
      <trkpt lat="45.26643" lon="6.37919">
        <ele>551</ele>
        <time>2022-07-17T06:33:41Z</time>
      </trkpt>
      <trkpt lat="45.26643" lon="6.37927">
        <ele>551</ele>
        <time>2022-07-17T06:33:42Z</time>
      </trkpt>
      <trkpt lat="45.26643" lon="6.37934">
        <ele>551</ele>
        <time>2022-07-17T06:33:43Z</time>
      </trkpt>
      <trkpt lat="45.26643" lon="6.37942">
        <ele>551</ele>
        <time>2022-07-17T06:33:44Z</time>
      </trkpt>
      <trkpt lat="45.26643" lon="6.3795">
        <ele>551</ele>
        <time>2022-07-17T06:33:45Z</time>
      </trkpt>
      <trkpt lat="45.26643" lon="6.37958">
        <ele>551.2</ele>
        <time>2022-07-17T06:33:46Z</time>
      </trkpt>
      <trkpt lat="45.26643" lon="6.37966">
        <ele>551.2</ele>
        <time>2022-07-17T06:33:47Z</time>
      </trkpt>
      <trkpt lat="45.26643" lon="6.37973">
        <ele>551.2</ele>
        <time>2022-07-17T06:33:48Z</time>
      </trkpt>
      <trkpt lat="45.26643" lon="6.37981">
        <ele>551.2</ele>
        <time>2022-07-17T06:33:49Z</time>
      </trkpt>
      <trkpt lat="45.26642" lon="6.37989">
        <ele>551.2</ele>
        <time>2022-07-17T06:33:50Z</time>
      </trkpt>
      <trkpt lat="45.26642" lon="6.37996">
        <ele>551.4</ele>
        <time>2022-07-17T06:33:51Z</time>
      </trkpt>
      <trkpt lat="45.26642" lon="6.38003">
        <ele>551.4</ele>
        <time>2022-07-17T06:33:52Z</time>
      </trkpt>
      <trkpt lat="45.26641" lon="6.38011">
        <ele>551.4</ele>
        <time>2022-07-17T06:33:53Z</time>
      </trkpt>
      <trkpt lat="45.26641" lon="6.38018">
        <ele>551.4</ele>
        <time>2022-07-17T06:33:54Z</time>
      </trkpt>
      <trkpt lat="45.26641" lon="6.38026">
        <ele>551.6</ele>
        <time>2022-07-17T06:33:55Z</time>
      </trkpt>
      <trkpt lat="45.26641" lon="6.38033">
        <ele>551.6</ele>
        <time>2022-07-17T06:33:56Z</time>
      </trkpt>
      <trkpt lat="45.26641" lon="6.38041">
        <ele>551.6</ele>
        <time>2022-07-17T06:33:57Z</time>
      </trkpt>
      <trkpt lat="45.2664" lon="6.38048">
        <ele>551.6</ele>
        <time>2022-07-17T06:33:58Z</time>
      </trkpt>
      <trkpt lat="45.2664" lon="6.38056">
        <ele>551.8</ele>
        <time>2022-07-17T06:33:59Z</time>
      </trkpt>
      <trkpt lat="45.26641" lon="6.38063">
        <ele>551.8</ele>
        <time>2022-07-17T06:34:00Z</time>
      </trkpt>
      <trkpt lat="45.26642" lon="6.3807">
        <ele>551.8</ele>
        <time>2022-07-17T06:34:01Z</time>
      </trkpt>
      <trkpt lat="45.26643" lon="6.38077">
        <ele>551.8</ele>
        <time>2022-07-17T06:34:02Z</time>
      </trkpt>
      <trkpt lat="45.26644" lon="6.38083">
        <ele>552</ele>
        <time>2022-07-17T06:34:03Z</time>
      </trkpt>
      <trkpt lat="45.26646" lon="6.3809">
        <ele>552</ele>
        <time>2022-07-17T06:34:04Z</time>
      </trkpt>
      <trkpt lat="45.26647" lon="6.38096">
        <ele>552</ele>
        <time>2022-07-17T06:34:05Z</time>
      </trkpt>
      <trkpt lat="45.26648" lon="6.38103">
        <ele>552</ele>
        <time>2022-07-17T06:34:06Z</time>
      </trkpt>
      <trkpt lat="45.2665" lon="6.38109">
        <ele>552.2</ele>
        <time>2022-07-17T06:34:07Z</time>
      </trkpt>
      <trkpt lat="45.26651" lon="6.38115">
        <ele>552.2</ele>
        <time>2022-07-17T06:34:08Z</time>
      </trkpt>
      <trkpt lat="45.26653" lon="6.38122">
        <ele>552.2</ele>
        <time>2022-07-17T06:34:09Z</time>
      </trkpt>
      <trkpt lat="45.26653" lon="6.38128">
        <ele>552.6</ele>
        <time>2022-07-17T06:34:10Z</time>
      </trkpt>
      <trkpt lat="45.26652" lon="6.38135">
        <ele>552.6</ele>
        <time>2022-07-17T06:34:11Z</time>
      </trkpt>
      <trkpt lat="45.26651" lon="6.38142">
        <ele>552.6</ele>
        <time>2022-07-17T06:34:12Z</time>
      </trkpt>
      <trkpt lat="45.26649" lon="6.38149">
        <ele>553</ele>
        <time>2022-07-17T06:34:13Z</time>
      </trkpt>
      <trkpt lat="45.26648" lon="6.38156">
        <ele>553</ele>
        <time>2022-07-17T06:34:14Z</time>
      </trkpt>
      <trkpt lat="45.26648" lon="6.38163">
        <ele>553.2</ele>
        <time>2022-07-17T06:34:15Z</time>
      </trkpt>
      <trkpt lat="45.26647" lon="6.38171">
        <ele>553.2</ele>
        <time>2022-07-17T06:34:16Z</time>
      </trkpt>
      <trkpt lat="45.26645" lon="6.38178">
        <ele>553.4</ele>
        <time>2022-07-17T06:34:17Z</time>
      </trkpt>
      <trkpt lat="45.26643" lon="6.38185">
        <ele>553.4</ele>
        <time>2022-07-17T06:34:18Z</time>
      </trkpt>
      <trkpt lat="45.26642" lon="6.38193">
        <ele>553.4</ele>
        <time>2022-07-17T06:34:19Z</time>
      </trkpt>
      <trkpt lat="45.2664" lon="6.38201">
        <ele>553.4</ele>
        <time>2022-07-17T06:34:20Z</time>
      </trkpt>
      <trkpt lat="45.26639" lon="6.38209">
        <ele>553.4</ele>
        <time>2022-07-17T06:34:21Z</time>
      </trkpt>
      <trkpt lat="45.26638" lon="6.38217">
        <ele>553.4</ele>
        <time>2022-07-17T06:34:22Z</time>
      </trkpt>
      <trkpt lat="45.26637" lon="6.38225">
        <ele>553.4</ele>
        <time>2022-07-17T06:34:23Z</time>
      </trkpt>
      <trkpt lat="45.26637" lon="6.38233">
        <ele>553.6</ele>
        <time>2022-07-17T06:34:24Z</time>
      </trkpt>
      <trkpt lat="45.26636" lon="6.38241">
        <ele>553.6</ele>
        <time>2022-07-17T06:34:25Z</time>
      </trkpt>
      <trkpt lat="45.26636" lon="6.38249">
        <ele>553.6</ele>
        <time>2022-07-17T06:34:26Z</time>
      </trkpt>
      <trkpt lat="45.26636" lon="6.38257">
        <ele>553.6</ele>
        <time>2022-07-17T06:34:27Z</time>
      </trkpt>
      <trkpt lat="45.26636" lon="6.38266">
        <ele>553.6</ele>
        <time>2022-07-17T06:34:28Z</time>
      </trkpt>
      <trkpt lat="45.26636" lon="6.38274">
        <ele>553.6</ele>
        <time>2022-07-17T06:34:29Z</time>
      </trkpt>
      <trkpt lat="45.26636" lon="6.38282">
        <ele>553.6</ele>
        <time>2022-07-17T06:34:30Z</time>
      </trkpt>
      <trkpt lat="45.26636" lon="6.38299">
        <ele>553.6</ele>
        <time>2022-07-17T06:34:31Z</time>
      </trkpt>
      <trkpt lat="45.26636" lon="6.38307">
        <ele>553.6</ele>
        <time>2022-07-17T06:34:32Z</time>
      </trkpt>
      <trkpt lat="45.26636" lon="6.38316">
        <ele>553.6</ele>
        <time>2022-07-17T06:34:33Z</time>
      </trkpt>
      <trkpt lat="45.26635" lon="6.38324">
        <ele>553.6</ele>
        <time>2022-07-17T06:34:34Z</time>
      </trkpt>
      <trkpt lat="45.26635" lon="6.38332">
        <ele>553.6</ele>
        <time>2022-07-17T06:34:35Z</time>
      </trkpt>
      <trkpt lat="45.26634" lon="6.38341">
        <ele>553.6</ele>
        <time>2022-07-17T06:34:36Z</time>
      </trkpt>
      <trkpt lat="45.26633" lon="6.38349">
        <ele>553.6</ele>
        <time>2022-07-17T06:34:37Z</time>
      </trkpt>
      <trkpt lat="45.26631" lon="6.38358">
        <ele>553.6</ele>
        <time>2022-07-17T06:34:38Z</time>
      </trkpt>
      <trkpt lat="45.26629" lon="6.38366">
        <ele>553.6</ele>
        <time>2022-07-17T06:34:39Z</time>
      </trkpt>
      <trkpt lat="45.26627" lon="6.38374">
        <ele>553.6</ele>
        <time>2022-07-17T06:34:40Z</time>
      </trkpt>
      <trkpt lat="45.26624" lon="6.38382">
        <ele>553.6</ele>
        <time>2022-07-17T06:34:41Z</time>
      </trkpt>
      <trkpt lat="45.26622" lon="6.38389">
        <ele>553.6</ele>
        <time>2022-07-17T06:34:42Z</time>
      </trkpt>
      <trkpt lat="45.26619" lon="6.38397">
        <ele>553.6</ele>
        <time>2022-07-17T06:34:43Z</time>
      </trkpt>
      <trkpt lat="45.26615" lon="6.38404">
        <ele>554</ele>
        <time>2022-07-17T06:34:44Z</time>
      </trkpt>
      <trkpt lat="45.26612" lon="6.38411">
        <ele>554</ele>
        <time>2022-07-17T06:34:45Z</time>
      </trkpt>
      <trkpt lat="45.26608" lon="6.38417">
        <ele>554</ele>
        <time>2022-07-17T06:34:46Z</time>
      </trkpt>
      <trkpt lat="45.26604" lon="6.38423">
        <ele>554</ele>
        <time>2022-07-17T06:34:47Z</time>
      </trkpt>
      <trkpt lat="45.266" lon="6.38429">
        <ele>554.2</ele>
        <time>2022-07-17T06:34:48Z</time>
      </trkpt>
      <trkpt lat="45.26596" lon="6.38434">
        <ele>554.2</ele>
        <time>2022-07-17T06:34:49Z</time>
      </trkpt>
      <trkpt lat="45.26591" lon="6.38439">
        <ele>554.4</ele>
        <time>2022-07-17T06:34:50Z</time>
      </trkpt>
      <trkpt lat="45.26587" lon="6.38444">
        <ele>554.4</ele>
        <time>2022-07-17T06:34:51Z</time>
      </trkpt>
      <trkpt lat="45.26583" lon="6.38448">
        <ele>554.8</ele>
        <time>2022-07-17T06:34:52Z</time>
      </trkpt>
      <trkpt lat="45.26578" lon="6.38452">
        <ele>555</ele>
        <time>2022-07-17T06:34:53Z</time>
      </trkpt>
      <trkpt lat="45.26574" lon="6.38455">
        <ele>555</ele>
        <time>2022-07-17T06:34:54Z</time>
      </trkpt>
      <trkpt lat="45.26569" lon="6.38459">
        <ele>555.4</ele>
        <time>2022-07-17T06:34:55Z</time>
      </trkpt>
      <trkpt lat="45.26564" lon="6.38462">
        <ele>555.4</ele>
        <time>2022-07-17T06:34:56Z</time>
      </trkpt>
      <trkpt lat="45.2656" lon="6.38465">
        <ele>555.4</ele>
        <time>2022-07-17T06:34:57Z</time>
      </trkpt>
      <trkpt lat="45.26555" lon="6.38469">
        <ele>555.6</ele>
        <time>2022-07-17T06:34:58Z</time>
      </trkpt>
      <trkpt lat="45.2655" lon="6.38472">
        <ele>555.6</ele>
        <time>2022-07-17T06:34:59Z</time>
      </trkpt>
      <trkpt lat="45.26545" lon="6.38474">
        <ele>555.8</ele>
        <time>2022-07-17T06:35:00Z</time>
      </trkpt>
      <trkpt lat="45.2654" lon="6.38477">
        <ele>555.8</ele>
        <time>2022-07-17T06:35:01Z</time>
      </trkpt>
      <trkpt lat="45.26535" lon="6.3848">
        <ele>555.8</ele>
        <time>2022-07-17T06:35:02Z</time>
      </trkpt>
      <trkpt lat="45.2653" lon="6.38483">
        <ele>556.2</ele>
        <time>2022-07-17T06:35:03Z</time>
      </trkpt>
      <trkpt lat="45.26525" lon="6.38486">
        <ele>556.2</ele>
        <time>2022-07-17T06:35:04Z</time>
      </trkpt>
      <trkpt lat="45.2652" lon="6.38489">
        <ele>556.4</ele>
        <time>2022-07-17T06:35:05Z</time>
      </trkpt>
      <trkpt lat="45.26515" lon="6.38492">
        <ele>556.4</ele>
        <time>2022-07-17T06:35:06Z</time>
      </trkpt>
      <trkpt lat="45.2651" lon="6.38494">
        <ele>556.6</ele>
        <time>2022-07-17T06:35:07Z</time>
      </trkpt>
      <trkpt lat="45.26505" lon="6.38497">
        <ele>556.6</ele>
        <time>2022-07-17T06:35:08Z</time>
      </trkpt>
      <trkpt lat="45.26501" lon="6.385">
        <ele>557</ele>
        <time>2022-07-17T06:35:09Z</time>
      </trkpt>
      <trkpt lat="45.26496" lon="6.38503">
        <ele>557</ele>
        <time>2022-07-17T06:35:10Z</time>
      </trkpt>
      <trkpt lat="45.26491" lon="6.38506">
        <ele>557.2</ele>
        <time>2022-07-17T06:35:11Z</time>
      </trkpt>
      <trkpt lat="45.26487" lon="6.38508">
        <ele>557.2</ele>
        <time>2022-07-17T06:35:12Z</time>
      </trkpt>
      <trkpt lat="45.26482" lon="6.38511">
        <ele>557.4</ele>
        <time>2022-07-17T06:35:13Z</time>
      </trkpt>
      <trkpt lat="45.26477" lon="6.38513">
        <ele>557.4</ele>
        <time>2022-07-17T06:35:14Z</time>
      </trkpt>
      <trkpt lat="45.26472" lon="6.38516">
        <ele>557.6</ele>
        <time>2022-07-17T06:35:15Z</time>
      </trkpt>
      <trkpt lat="45.26467" lon="6.38519">
        <ele>557.6</ele>
        <time>2022-07-17T06:35:16Z</time>
      </trkpt>
      <trkpt lat="45.26463" lon="6.38522">
        <ele>558</ele>
        <time>2022-07-17T06:35:17Z</time>
      </trkpt>
      <trkpt lat="45.26458" lon="6.38525">
        <ele>558</ele>
        <time>2022-07-17T06:35:18Z</time>
      </trkpt>
      <trkpt lat="45.26454" lon="6.38527">
        <ele>558.4</ele>
        <time>2022-07-17T06:35:19Z</time>
      </trkpt>
      <trkpt lat="45.26449" lon="6.3853">
        <ele>558.4</ele>
        <time>2022-07-17T06:35:20Z</time>
      </trkpt>
      <trkpt lat="45.26444" lon="6.38533">
        <ele>558.8</ele>
        <time>2022-07-17T06:35:21Z</time>
      </trkpt>
      <trkpt lat="45.26439" lon="6.38535">
        <ele>558.8</ele>
        <time>2022-07-17T06:35:22Z</time>
      </trkpt>
      <trkpt lat="45.26435" lon="6.38538">
        <ele>559</ele>
        <time>2022-07-17T06:35:23Z</time>
      </trkpt>
      <trkpt lat="45.2643" lon="6.38541">
        <ele>559.2</ele>
        <time>2022-07-17T06:35:24Z</time>
      </trkpt>
      <trkpt lat="45.26426" lon="6.38544">
        <ele>559.4</ele>
        <time>2022-07-17T06:35:25Z</time>
      </trkpt>
      <trkpt lat="45.26422" lon="6.38546">
        <ele>559.4</ele>
        <time>2022-07-17T06:35:26Z</time>
      </trkpt>
      <trkpt lat="45.26417" lon="6.38549">
        <ele>559.8</ele>
        <time>2022-07-17T06:35:27Z</time>
      </trkpt>
      <trkpt lat="45.26413" lon="6.38552">
        <ele>559.8</ele>
        <time>2022-07-17T06:35:28Z</time>
      </trkpt>
      <trkpt lat="45.26409" lon="6.38554">
        <ele>560.2</ele>
        <time>2022-07-17T06:35:29Z</time>
      </trkpt>
      <trkpt lat="45.26404" lon="6.38557">
        <ele>560.4</ele>
        <time>2022-07-17T06:35:30Z</time>
      </trkpt>
      <trkpt lat="45.264" lon="6.38559">
        <ele>560.6</ele>
        <time>2022-07-17T06:35:31Z</time>
      </trkpt>
      <trkpt lat="45.26395" lon="6.38562">
        <ele>560.6</ele>
        <time>2022-07-17T06:35:32Z</time>
      </trkpt>
      <trkpt lat="45.26391" lon="6.38564">
        <ele>560.8</ele>
        <time>2022-07-17T06:35:33Z</time>
      </trkpt>
      <trkpt lat="45.26386" lon="6.38567">
        <ele>561</ele>
        <time>2022-07-17T06:35:34Z</time>
      </trkpt>
      <trkpt lat="45.26382" lon="6.38569">
        <ele>561</ele>
        <time>2022-07-17T06:35:35Z</time>
      </trkpt>
      <trkpt lat="45.26378" lon="6.38572">
        <ele>561.4</ele>
        <time>2022-07-17T06:35:36Z</time>
      </trkpt>
      <trkpt lat="45.26373" lon="6.38574">
        <ele>561.6</ele>
        <time>2022-07-17T06:35:37Z</time>
      </trkpt>
      <trkpt lat="45.26369" lon="6.38577">
        <ele>561.8</ele>
        <time>2022-07-17T06:35:38Z</time>
      </trkpt>
      <trkpt lat="45.26365" lon="6.3858">
        <ele>562</ele>
        <time>2022-07-17T06:35:39Z</time>
      </trkpt>
      <trkpt lat="45.26361" lon="6.38582">
        <ele>562</ele>
        <time>2022-07-17T06:35:40Z</time>
      </trkpt>
      <trkpt lat="45.26357" lon="6.38584">
        <ele>562.4</ele>
        <time>2022-07-17T06:35:41Z</time>
      </trkpt>
      <trkpt lat="45.26352" lon="6.38587">
        <ele>562.8</ele>
        <time>2022-07-17T06:35:42Z</time>
      </trkpt>
      <trkpt lat="45.26348" lon="6.38589">
        <ele>563</ele>
        <time>2022-07-17T06:35:43Z</time>
      </trkpt>
      <trkpt lat="45.26344" lon="6.38591">
        <ele>563</ele>
        <time>2022-07-17T06:35:44Z</time>
      </trkpt>
      <trkpt lat="45.2634" lon="6.38593">
        <ele>563.4</ele>
        <time>2022-07-17T06:35:45Z</time>
      </trkpt>
      <trkpt lat="45.26336" lon="6.38595">
        <ele>563.4</ele>
        <time>2022-07-17T06:35:46Z</time>
      </trkpt>
      <trkpt lat="45.26332" lon="6.38597">
        <ele>563.8</ele>
        <time>2022-07-17T06:35:47Z</time>
      </trkpt>
      <trkpt lat="45.26328" lon="6.38599">
        <ele>563.8</ele>
        <time>2022-07-17T06:35:48Z</time>
      </trkpt>
      <trkpt lat="45.26323" lon="6.38601">
        <ele>564.2</ele>
        <time>2022-07-17T06:35:49Z</time>
      </trkpt>
      <trkpt lat="45.26319" lon="6.38603">
        <ele>564.4</ele>
        <time>2022-07-17T06:35:50Z</time>
      </trkpt>
      <trkpt lat="45.26314" lon="6.38605">
        <ele>564.8</ele>
        <time>2022-07-17T06:35:51Z</time>
      </trkpt>
      <trkpt lat="45.2631" lon="6.38607">
        <ele>564.8</ele>
        <time>2022-07-17T06:35:52Z</time>
      </trkpt>
      <trkpt lat="45.26306" lon="6.38609">
        <ele>565.2</ele>
        <time>2022-07-17T06:35:53Z</time>
      </trkpt>
      <trkpt lat="45.26302" lon="6.3861">
        <ele>565.4</ele>
        <time>2022-07-17T06:35:54Z</time>
      </trkpt>
      <trkpt lat="45.26299" lon="6.38612">
        <ele>565.6</ele>
        <time>2022-07-17T06:35:55Z</time>
      </trkpt>
      <trkpt lat="45.26295" lon="6.38614">
        <ele>565.6</ele>
        <time>2022-07-17T06:35:56Z</time>
      </trkpt>
      <trkpt lat="45.26291" lon="6.38615">
        <ele>565.8</ele>
        <time>2022-07-17T06:35:57Z</time>
      </trkpt>
      <trkpt lat="45.26287" lon="6.38617">
        <ele>566</ele>
        <time>2022-07-17T06:35:58Z</time>
      </trkpt>
      <trkpt lat="45.26283" lon="6.38618">
        <ele>566.4</ele>
        <time>2022-07-17T06:35:59Z</time>
      </trkpt>
      <trkpt lat="45.26279" lon="6.3862">
        <ele>566.4</ele>
        <time>2022-07-17T06:36:00Z</time>
      </trkpt>
      <trkpt lat="45.26275" lon="6.38621">
        <ele>566.6</ele>
        <time>2022-07-17T06:36:01Z</time>
      </trkpt>
      <trkpt lat="45.26271" lon="6.38623">
        <ele>566.6</ele>
        <time>2022-07-17T06:36:02Z</time>
      </trkpt>
      <trkpt lat="45.26267" lon="6.38624">
        <ele>567</ele>
        <time>2022-07-17T06:36:03Z</time>
      </trkpt>
      <trkpt lat="45.26263" lon="6.38626">
        <ele>567</ele>
        <time>2022-07-17T06:36:04Z</time>
      </trkpt>
      <trkpt lat="45.26259" lon="6.38627">
        <ele>567.4</ele>
        <time>2022-07-17T06:36:05Z</time>
      </trkpt>
      <trkpt lat="45.26254" lon="6.38629">
        <ele>567.6</ele>
        <time>2022-07-17T06:36:06Z</time>
      </trkpt>
      <trkpt lat="45.2625" lon="6.3863">
        <ele>567.6</ele>
        <time>2022-07-17T06:36:07Z</time>
      </trkpt>
      <trkpt lat="45.26245" lon="6.38631">
        <ele>568</ele>
        <time>2022-07-17T06:36:08Z</time>
      </trkpt>
      <trkpt lat="45.2624" lon="6.38632">
        <ele>568</ele>
        <time>2022-07-17T06:36:09Z</time>
      </trkpt>
      <trkpt lat="45.26236" lon="6.38633">
        <ele>568.2</ele>
        <time>2022-07-17T06:36:10Z</time>
      </trkpt>
      <trkpt lat="45.26231" lon="6.38635">
        <ele>568.2</ele>
        <time>2022-07-17T06:36:11Z</time>
      </trkpt>
      <trkpt lat="45.26226" lon="6.38636">
        <ele>568.6</ele>
        <time>2022-07-17T06:36:12Z</time>
      </trkpt>
      <trkpt lat="45.26221" lon="6.38637">
        <ele>568.6</ele>
        <time>2022-07-17T06:36:13Z</time>
      </trkpt>
      <trkpt lat="45.26216" lon="6.38638">
        <ele>568.8</ele>
        <time>2022-07-17T06:36:14Z</time>
      </trkpt>
      <trkpt lat="45.26212" lon="6.38639">
        <ele>568.8</ele>
        <time>2022-07-17T06:36:15Z</time>
      </trkpt>
      <trkpt lat="45.26207" lon="6.3864">
        <ele>569</ele>
        <time>2022-07-17T06:36:16Z</time>
      </trkpt>
      <trkpt lat="45.26202" lon="6.3864">
        <ele>569</ele>
        <time>2022-07-17T06:36:17Z</time>
      </trkpt>
      <trkpt lat="45.26198" lon="6.38641">
        <ele>569.2</ele>
        <time>2022-07-17T06:36:18Z</time>
      </trkpt>
      <trkpt lat="45.26193" lon="6.38642">
        <ele>569.2</ele>
        <time>2022-07-17T06:36:19Z</time>
      </trkpt>
      <trkpt lat="45.26188" lon="6.38642">
        <ele>569.6</ele>
        <time>2022-07-17T06:36:20Z</time>
      </trkpt>
      <trkpt lat="45.26183" lon="6.38643">
        <ele>569.6</ele>
        <time>2022-07-17T06:36:21Z</time>
      </trkpt>
      <trkpt lat="45.26179" lon="6.38643">
        <ele>569.8</ele>
        <time>2022-07-17T06:36:22Z</time>
      </trkpt>
      <trkpt lat="45.26174" lon="6.38644">
        <ele>569.8</ele>
        <time>2022-07-17T06:36:23Z</time>
      </trkpt>
      <trkpt lat="45.26169" lon="6.38644">
        <ele>570</ele>
        <time>2022-07-17T06:36:24Z</time>
      </trkpt>
      <trkpt lat="45.26165" lon="6.38645">
        <ele>570</ele>
        <time>2022-07-17T06:36:25Z</time>
      </trkpt>
      <trkpt lat="45.2616" lon="6.38645">
        <ele>570.4</ele>
        <time>2022-07-17T06:36:26Z</time>
      </trkpt>
      <trkpt lat="45.26155" lon="6.38645">
        <ele>570.6</ele>
        <time>2022-07-17T06:36:27Z</time>
      </trkpt>
      <trkpt lat="45.26151" lon="6.38645">
        <ele>570.6</ele>
        <time>2022-07-17T06:36:28Z</time>
      </trkpt>
      <trkpt lat="45.26146" lon="6.38645">
        <ele>570.8</ele>
        <time>2022-07-17T06:36:29Z</time>
      </trkpt>
      <trkpt lat="45.26141" lon="6.38646">
        <ele>571.2</ele>
        <time>2022-07-17T06:36:30Z</time>
      </trkpt>
      <trkpt lat="45.26137" lon="6.38646">
        <ele>571.2</ele>
        <time>2022-07-17T06:36:31Z</time>
      </trkpt>
      <trkpt lat="45.26132" lon="6.38646">
        <ele>571.4</ele>
        <time>2022-07-17T06:36:32Z</time>
      </trkpt>
      <trkpt lat="45.26127" lon="6.38647">
        <ele>571.4</ele>
        <time>2022-07-17T06:36:33Z</time>
      </trkpt>
      <trkpt lat="45.26122" lon="6.38647">
        <ele>571.6</ele>
        <time>2022-07-17T06:36:34Z</time>
      </trkpt>
      <trkpt lat="45.26118" lon="6.38647">
        <ele>571.6</ele>
        <time>2022-07-17T06:36:35Z</time>
      </trkpt>
      <trkpt lat="45.26113" lon="6.38647">
        <ele>572</ele>
        <time>2022-07-17T06:36:36Z</time>
      </trkpt>
      <trkpt lat="45.26108" lon="6.38648">
        <ele>572</ele>
        <time>2022-07-17T06:36:37Z</time>
      </trkpt>
      <trkpt lat="45.26103" lon="6.38648">
        <ele>572.2</ele>
        <time>2022-07-17T06:36:38Z</time>
      </trkpt>
      <trkpt lat="45.26099" lon="6.38648">
        <ele>572.2</ele>
        <time>2022-07-17T06:36:39Z</time>
      </trkpt>
      <trkpt lat="45.26094" lon="6.38648">
        <ele>572.4</ele>
        <time>2022-07-17T06:36:40Z</time>
      </trkpt>
      <trkpt lat="45.26089" lon="6.38649">
        <ele>572.4</ele>
        <time>2022-07-17T06:36:41Z</time>
      </trkpt>
      <trkpt lat="45.26085" lon="6.38649">
        <ele>572.8</ele>
        <time>2022-07-17T06:36:42Z</time>
      </trkpt>
      <trkpt lat="45.2608" lon="6.38649">
        <ele>572.8</ele>
        <time>2022-07-17T06:36:43Z</time>
      </trkpt>
      <trkpt lat="45.26075" lon="6.38649">
        <ele>573</ele>
        <time>2022-07-17T06:36:44Z</time>
      </trkpt>
      <trkpt lat="45.2607" lon="6.3865">
        <ele>573</ele>
        <time>2022-07-17T06:36:45Z</time>
      </trkpt>
      <trkpt lat="45.26066" lon="6.3865">
        <ele>573.4</ele>
        <time>2022-07-17T06:36:46Z</time>
      </trkpt>
      <trkpt lat="45.26061" lon="6.3865">
        <ele>573.6</ele>
        <time>2022-07-17T06:36:47Z</time>
      </trkpt>
      <trkpt lat="45.26056" lon="6.3865">
        <ele>573.6</ele>
        <time>2022-07-17T06:36:48Z</time>
      </trkpt>
      <trkpt lat="45.26052" lon="6.38651">
        <ele>573.8</ele>
        <time>2022-07-17T06:36:49Z</time>
      </trkpt>
      <trkpt lat="45.26047" lon="6.38651">
        <ele>573.8</ele>
        <time>2022-07-17T06:36:50Z</time>
      </trkpt>
      <trkpt lat="45.26042" lon="6.38651">
        <ele>574</ele>
        <time>2022-07-17T06:36:51Z</time>
      </trkpt>
      <trkpt lat="45.26037" lon="6.38652">
        <ele>574</ele>
        <time>2022-07-17T06:36:52Z</time>
      </trkpt>
      <trkpt lat="45.26033" lon="6.38652">
        <ele>574.4</ele>
        <time>2022-07-17T06:36:53Z</time>
      </trkpt>
      <trkpt lat="45.26028" lon="6.38653">
        <ele>574.4</ele>
        <time>2022-07-17T06:36:54Z</time>
      </trkpt>
      <trkpt lat="45.26023" lon="6.38654">
        <ele>574.8</ele>
        <time>2022-07-17T06:36:55Z</time>
      </trkpt>
      <trkpt lat="45.26018" lon="6.38655">
        <ele>574.8</ele>
        <time>2022-07-17T06:36:56Z</time>
      </trkpt>
      <trkpt lat="45.26014" lon="6.38656">
        <ele>575</ele>
        <time>2022-07-17T06:36:57Z</time>
      </trkpt>
      <trkpt lat="45.26009" lon="6.38657">
        <ele>575</ele>
        <time>2022-07-17T06:36:58Z</time>
      </trkpt>
      <trkpt lat="45.26004" lon="6.38658">
        <ele>575.4</ele>
        <time>2022-07-17T06:36:59Z</time>
      </trkpt>
      <trkpt lat="45.26" lon="6.38659">
        <ele>575.4</ele>
        <time>2022-07-17T06:37:00Z</time>
      </trkpt>
      <trkpt lat="45.25995" lon="6.3866">
        <ele>575.6</ele>
        <time>2022-07-17T06:37:01Z</time>
      </trkpt>
      <trkpt lat="45.2599" lon="6.38662">
        <ele>575.6</ele>
        <time>2022-07-17T06:37:02Z</time>
      </trkpt>
      <trkpt lat="45.25986" lon="6.38663">
        <ele>575.8</ele>
        <time>2022-07-17T06:37:03Z</time>
      </trkpt>
      <trkpt lat="45.25981" lon="6.38664">
        <ele>575.8</ele>
        <time>2022-07-17T06:37:04Z</time>
      </trkpt>
      <trkpt lat="45.25977" lon="6.38666">
        <ele>576.2</ele>
        <time>2022-07-17T06:37:05Z</time>
      </trkpt>
      <trkpt lat="45.25972" lon="6.38667">
        <ele>576.2</ele>
        <time>2022-07-17T06:37:06Z</time>
      </trkpt>
      <trkpt lat="45.25968" lon="6.38669">
        <ele>576.6</ele>
        <time>2022-07-17T06:37:07Z</time>
      </trkpt>
      <trkpt lat="45.25963" lon="6.38671">
        <ele>576.6</ele>
        <time>2022-07-17T06:37:08Z</time>
      </trkpt>
      <trkpt lat="45.25959" lon="6.38672">
        <ele>576.8</ele>
        <time>2022-07-17T06:37:09Z</time>
      </trkpt>
      <trkpt lat="45.25954" lon="6.38674">
        <ele>576.8</ele>
        <time>2022-07-17T06:37:10Z</time>
      </trkpt>
      <trkpt lat="45.2595" lon="6.38677">
        <ele>577</ele>
        <time>2022-07-17T06:37:11Z</time>
      </trkpt>
      <trkpt lat="45.25946" lon="6.38679">
        <ele>577</ele>
        <time>2022-07-17T06:37:12Z</time>
      </trkpt>
      <trkpt lat="45.25941" lon="6.38681">
        <ele>577.4</ele>
        <time>2022-07-17T06:37:13Z</time>
      </trkpt>
      <trkpt lat="45.25937" lon="6.38683">
        <ele>577.4</ele>
        <time>2022-07-17T06:37:14Z</time>
      </trkpt>
      <trkpt lat="45.25933" lon="6.38685">
        <ele>577.6</ele>
        <time>2022-07-17T06:37:15Z</time>
      </trkpt>
      <trkpt lat="45.25929" lon="6.38687">
        <ele>577.6</ele>
        <time>2022-07-17T06:37:16Z</time>
      </trkpt>
      <trkpt lat="45.25925" lon="6.38689">
        <ele>578</ele>
        <time>2022-07-17T06:37:17Z</time>
      </trkpt>
      <trkpt lat="45.25921" lon="6.38691">
        <ele>578</ele>
        <time>2022-07-17T06:37:18Z</time>
      </trkpt>
      <trkpt lat="45.25917" lon="6.38693">
        <ele>578.2</ele>
        <time>2022-07-17T06:37:19Z</time>
      </trkpt>
      <trkpt lat="45.25913" lon="6.38696">
        <ele>578.2</ele>
        <time>2022-07-17T06:37:20Z</time>
      </trkpt>
      <trkpt lat="45.25909" lon="6.38698">
        <ele>578.4</ele>
        <time>2022-07-17T06:37:21Z</time>
      </trkpt>
      <trkpt lat="45.25905" lon="6.38701">
        <ele>578.4</ele>
        <time>2022-07-17T06:37:22Z</time>
      </trkpt>
      <trkpt lat="45.25901" lon="6.38704">
        <ele>578.8</ele>
        <time>2022-07-17T06:37:23Z</time>
      </trkpt>
      <trkpt lat="45.25897" lon="6.38707">
        <ele>578.8</ele>
        <time>2022-07-17T06:37:24Z</time>
      </trkpt>
      <trkpt lat="45.25893" lon="6.3871">
        <ele>579.2</ele>
        <time>2022-07-17T06:37:25Z</time>
      </trkpt>
      <trkpt lat="45.25889" lon="6.38713">
        <ele>579.4</ele>
        <time>2022-07-17T06:37:26Z</time>
      </trkpt>
      <trkpt lat="45.25885" lon="6.38715">
        <ele>579.4</ele>
        <time>2022-07-17T06:37:27Z</time>
      </trkpt>
      <trkpt lat="45.25881" lon="6.38718">
        <ele>579.8</ele>
        <time>2022-07-17T06:37:28Z</time>
      </trkpt>
      <trkpt lat="45.25877" lon="6.38721">
        <ele>580</ele>
        <time>2022-07-17T06:37:29Z</time>
      </trkpt>
      <trkpt lat="45.25873" lon="6.38725">
        <ele>580</ele>
        <time>2022-07-17T06:37:30Z</time>
      </trkpt>
      <trkpt lat="45.25869" lon="6.38728">
        <ele>580.4</ele>
        <time>2022-07-17T06:37:31Z</time>
      </trkpt>
      <trkpt lat="45.25865" lon="6.38732">
        <ele>580.4</ele>
        <time>2022-07-17T06:37:32Z</time>
      </trkpt>
      <trkpt lat="45.25861" lon="6.38735">
        <ele>580.8</ele>
        <time>2022-07-17T06:37:33Z</time>
      </trkpt>
      <trkpt lat="45.25857" lon="6.38739">
        <ele>580.8</ele>
        <time>2022-07-17T06:37:34Z</time>
      </trkpt>
      <trkpt lat="45.25854" lon="6.38742">
        <ele>581.2</ele>
        <time>2022-07-17T06:37:35Z</time>
      </trkpt>
      <trkpt lat="45.2585" lon="6.38746">
        <ele>581.2</ele>
        <time>2022-07-17T06:37:36Z</time>
      </trkpt>
      <trkpt lat="45.25846" lon="6.38749">
        <ele>581.4</ele>
        <time>2022-07-17T06:37:37Z</time>
      </trkpt>
      <trkpt lat="45.25842" lon="6.38753">
        <ele>581.4</ele>
        <time>2022-07-17T06:37:38Z</time>
      </trkpt>
      <trkpt lat="45.25838" lon="6.38756">
        <ele>581.8</ele>
        <time>2022-07-17T06:37:39Z</time>
      </trkpt>
      <trkpt lat="45.25834" lon="6.3876">
        <ele>581.8</ele>
        <time>2022-07-17T06:37:40Z</time>
      </trkpt>
      <trkpt lat="45.25831" lon="6.38763">
        <ele>582.2</ele>
        <time>2022-07-17T06:37:41Z</time>
      </trkpt>
      <trkpt lat="45.25827" lon="6.38767">
        <ele>582.4</ele>
        <time>2022-07-17T06:37:42Z</time>
      </trkpt>
      <trkpt lat="45.25823" lon="6.38771">
        <ele>582.6</ele>
        <time>2022-07-17T06:37:43Z</time>
      </trkpt>
      <trkpt lat="45.25819" lon="6.38775">
        <ele>582.6</ele>
        <time>2022-07-17T06:37:44Z</time>
      </trkpt>
      <trkpt lat="45.25816" lon="6.38778">
        <ele>583</ele>
        <time>2022-07-17T06:37:45Z</time>
      </trkpt>
      <trkpt lat="45.25812" lon="6.38782">
        <ele>583</ele>
        <time>2022-07-17T06:37:46Z</time>
      </trkpt>
      <trkpt lat="45.25808" lon="6.38786">
        <ele>583.2</ele>
        <time>2022-07-17T06:37:47Z</time>
      </trkpt>
      <trkpt lat="45.25804" lon="6.3879">
        <ele>583.2</ele>
        <time>2022-07-17T06:37:48Z</time>
      </trkpt>
      <trkpt lat="45.258" lon="6.38794">
        <ele>583.6</ele>
        <time>2022-07-17T06:37:49Z</time>
      </trkpt>
      <trkpt lat="45.25796" lon="6.38797">
        <ele>583.6</ele>
        <time>2022-07-17T06:37:50Z</time>
      </trkpt>
      <trkpt lat="45.25793" lon="6.38801">
        <ele>583.8</ele>
        <time>2022-07-17T06:37:51Z</time>
      </trkpt>
      <trkpt lat="45.25789" lon="6.38805">
        <ele>583.8</ele>
        <time>2022-07-17T06:37:52Z</time>
      </trkpt>
      <trkpt lat="45.25785" lon="6.38809">
        <ele>584</ele>
        <time>2022-07-17T06:37:53Z</time>
      </trkpt>
      <trkpt lat="45.25782" lon="6.38813">
        <ele>584.4</ele>
        <time>2022-07-17T06:37:55Z</time>
      </trkpt>
      <trkpt lat="45.25778" lon="6.38816">
        <ele>584.4</ele>
        <time>2022-07-17T06:37:56Z</time>
      </trkpt>
      <trkpt lat="45.25774" lon="6.3882">
        <ele>584.8</ele>
        <time>2022-07-17T06:37:57Z</time>
      </trkpt>
      <trkpt lat="45.2577" lon="6.38823">
        <ele>584.8</ele>
        <time>2022-07-17T06:37:58Z</time>
      </trkpt>
      <trkpt lat="45.25766" lon="6.38827">
        <ele>585</ele>
        <time>2022-07-17T06:37:59Z</time>
      </trkpt>
      <trkpt lat="45.25763" lon="6.38831">
        <ele>585.4</ele>
        <time>2022-07-17T06:38:00Z</time>
      </trkpt>
      <trkpt lat="45.25759" lon="6.38835">
        <ele>585.4</ele>
        <time>2022-07-17T06:38:01Z</time>
      </trkpt>
      <trkpt lat="45.25755" lon="6.38839">
        <ele>585.6</ele>
        <time>2022-07-17T06:38:02Z</time>
      </trkpt>
      <trkpt lat="45.25751" lon="6.38842">
        <ele>585.6</ele>
        <time>2022-07-17T06:38:03Z</time>
      </trkpt>
      <trkpt lat="45.25748" lon="6.38846">
        <ele>586</ele>
        <time>2022-07-17T06:38:04Z</time>
      </trkpt>
      <trkpt lat="45.25744" lon="6.3885">
        <ele>586.4</ele>
        <time>2022-07-17T06:38:05Z</time>
      </trkpt>
      <trkpt lat="45.25741" lon="6.38854">
        <ele>586.4</ele>
        <time>2022-07-17T06:38:06Z</time>
      </trkpt>
      <trkpt lat="45.25737" lon="6.38858">
        <ele>586.6</ele>
        <time>2022-07-17T06:38:07Z</time>
      </trkpt>
      <trkpt lat="45.25733" lon="6.38861">
        <ele>587</ele>
        <time>2022-07-17T06:38:08Z</time>
      </trkpt>
      <trkpt lat="45.2573" lon="6.38865">
        <ele>587</ele>
        <time>2022-07-17T06:38:09Z</time>
      </trkpt>
      <trkpt lat="45.25727" lon="6.38869">
        <ele>587.2</ele>
        <time>2022-07-17T06:38:10Z</time>
      </trkpt>
      <trkpt lat="45.25723" lon="6.38872">
        <ele>587.4</ele>
        <time>2022-07-17T06:38:11Z</time>
      </trkpt>
      <trkpt lat="45.2572" lon="6.38876">
        <ele>587.4</ele>
        <time>2022-07-17T06:38:12Z</time>
      </trkpt>
      <trkpt lat="45.25716" lon="6.3888">
        <ele>587.8</ele>
        <time>2022-07-17T06:38:13Z</time>
      </trkpt>
      <trkpt lat="45.25713" lon="6.38883">
        <ele>587.8</ele>
        <time>2022-07-17T06:38:14Z</time>
      </trkpt>
      <trkpt lat="45.25709" lon="6.38887">
        <ele>588.2</ele>
        <time>2022-07-17T06:38:15Z</time>
      </trkpt>
      <trkpt lat="45.25706" lon="6.3889">
        <ele>588.4</ele>
        <time>2022-07-17T06:38:16Z</time>
      </trkpt>
      <trkpt lat="45.25702" lon="6.38894">
        <ele>588.4</ele>
        <time>2022-07-17T06:38:17Z</time>
      </trkpt>
      <trkpt lat="45.25699" lon="6.38898">
        <ele>588.6</ele>
        <time>2022-07-17T06:38:18Z</time>
      </trkpt>
      <trkpt lat="45.25695" lon="6.38901">
        <ele>588.6</ele>
        <time>2022-07-17T06:38:19Z</time>
      </trkpt>
      <trkpt lat="45.25692" lon="6.38905">
        <ele>588.8</ele>
        <time>2022-07-17T06:38:20Z</time>
      </trkpt>
      <trkpt lat="45.25688" lon="6.38908">
        <ele>589</ele>
        <time>2022-07-17T06:38:21Z</time>
      </trkpt>
      <trkpt lat="45.25685" lon="6.38912">
        <ele>589</ele>
        <time>2022-07-17T06:38:22Z</time>
      </trkpt>
      <trkpt lat="45.25682" lon="6.38915">
        <ele>589.4</ele>
        <time>2022-07-17T06:38:23Z</time>
      </trkpt>
      <trkpt lat="45.25678" lon="6.38919">
        <ele>589.4</ele>
        <time>2022-07-17T06:38:24Z</time>
      </trkpt>
      <trkpt lat="45.25675" lon="6.38922">
        <ele>589.8</ele>
        <time>2022-07-17T06:38:25Z</time>
      </trkpt>
      <trkpt lat="45.25671" lon="6.38926">
        <ele>589.8</ele>
        <time>2022-07-17T06:38:26Z</time>
      </trkpt>
      <trkpt lat="45.25667" lon="6.38929">
        <ele>589.8</ele>
        <time>2022-07-17T06:38:27Z</time>
      </trkpt>
      <trkpt lat="45.25664" lon="6.38933">
        <ele>590</ele>
        <time>2022-07-17T06:38:28Z</time>
      </trkpt>
      <trkpt lat="45.25661" lon="6.38936">
        <ele>590</ele>
        <time>2022-07-17T06:38:29Z</time>
      </trkpt>
      <trkpt lat="45.25657" lon="6.3894">
        <ele>590.4</ele>
        <time>2022-07-17T06:38:30Z</time>
      </trkpt>
      <trkpt lat="45.25654" lon="6.38943">
        <ele>590.4</ele>
        <time>2022-07-17T06:38:31Z</time>
      </trkpt>
      <trkpt lat="45.2565" lon="6.38946">
        <ele>590.6</ele>
        <time>2022-07-17T06:38:32Z</time>
      </trkpt>
      <trkpt lat="45.25647" lon="6.3895">
        <ele>590.6</ele>
        <time>2022-07-17T06:38:33Z</time>
      </trkpt>
      <trkpt lat="45.25644" lon="6.38953">
        <ele>591</ele>
        <time>2022-07-17T06:38:34Z</time>
      </trkpt>
      <trkpt lat="45.2564" lon="6.38956">
        <ele>591.2</ele>
        <time>2022-07-17T06:38:35Z</time>
      </trkpt>
      <trkpt lat="45.25637" lon="6.3896">
        <ele>591.2</ele>
        <time>2022-07-17T06:38:36Z</time>
      </trkpt>
      <trkpt lat="45.25633" lon="6.38963">
        <ele>591.6</ele>
        <time>2022-07-17T06:38:37Z</time>
      </trkpt>
      <trkpt lat="45.2563" lon="6.38966">
        <ele>591.8</ele>
        <time>2022-07-17T06:38:38Z</time>
      </trkpt>
      <trkpt lat="45.25627" lon="6.3897">
        <ele>592</ele>
        <time>2022-07-17T06:38:39Z</time>
      </trkpt>
      <trkpt lat="45.25623" lon="6.38973">
        <ele>592.4</ele>
        <time>2022-07-17T06:38:40Z</time>
      </trkpt>
      <trkpt lat="45.2562" lon="6.38976">
        <ele>592.6</ele>
        <time>2022-07-17T06:38:41Z</time>
      </trkpt>
      <trkpt lat="45.25617" lon="6.3898">
        <ele>592.6</ele>
        <time>2022-07-17T06:38:42Z</time>
      </trkpt>
      <trkpt lat="45.25614" lon="6.38983">
        <ele>593</ele>
        <time>2022-07-17T06:38:43Z</time>
      </trkpt>
      <trkpt lat="45.25611" lon="6.38986">
        <ele>593</ele>
        <time>2022-07-17T06:38:44Z</time>
      </trkpt>
      <trkpt lat="45.25607" lon="6.38989">
        <ele>593.2</ele>
        <time>2022-07-17T06:38:45Z</time>
      </trkpt>
      <trkpt lat="45.25604" lon="6.38993">
        <ele>593.2</ele>
        <time>2022-07-17T06:38:46Z</time>
      </trkpt>
      <trkpt lat="45.25601" lon="6.38996">
        <ele>593.6</ele>
        <time>2022-07-17T06:38:47Z</time>
      </trkpt>
      <trkpt lat="45.25598" lon="6.38999">
        <ele>593.8</ele>
        <time>2022-07-17T06:38:48Z</time>
      </trkpt>
      <trkpt lat="45.25595" lon="6.39002">
        <ele>594</ele>
        <time>2022-07-17T06:38:49Z</time>
      </trkpt>
      <trkpt lat="45.25592" lon="6.39005">
        <ele>594</ele>
        <time>2022-07-17T06:38:50Z</time>
      </trkpt>
      <trkpt lat="45.25589" lon="6.39008">
        <ele>594.4</ele>
        <time>2022-07-17T06:38:51Z</time>
      </trkpt>
      <trkpt lat="45.25586" lon="6.39011">
        <ele>594.6</ele>
        <time>2022-07-17T06:38:52Z</time>
      </trkpt>
      <trkpt lat="45.25583" lon="6.39014">
        <ele>594.6</ele>
        <time>2022-07-17T06:38:53Z</time>
      </trkpt>
      <trkpt lat="45.2558" lon="6.39018">
        <ele>595</ele>
        <time>2022-07-17T06:38:54Z</time>
      </trkpt>
      <trkpt lat="45.25577" lon="6.39021">
        <ele>595</ele>
        <time>2022-07-17T06:38:55Z</time>
      </trkpt>
      <trkpt lat="45.25574" lon="6.39025">
        <ele>595.4</ele>
        <time>2022-07-17T06:38:56Z</time>
      </trkpt>
      <trkpt lat="45.25571" lon="6.39029">
        <ele>595.6</ele>
        <time>2022-07-17T06:38:57Z</time>
      </trkpt>
      <trkpt lat="45.25567" lon="6.39032">
        <ele>595.6</ele>
        <time>2022-07-17T06:38:58Z</time>
      </trkpt>
      <trkpt lat="45.25564" lon="6.39036">
        <ele>596</ele>
        <time>2022-07-17T06:38:59Z</time>
      </trkpt>
      <trkpt lat="45.2556" lon="6.3904">
        <ele>596.2</ele>
        <time>2022-07-17T06:39:00Z</time>
      </trkpt>
      <trkpt lat="45.25557" lon="6.39044">
        <ele>596.4</ele>
        <time>2022-07-17T06:39:01Z</time>
      </trkpt>
      <trkpt lat="45.25553" lon="6.39048">
        <ele>596.4</ele>
        <time>2022-07-17T06:39:02Z</time>
      </trkpt>
      <trkpt lat="45.2555" lon="6.39052">
        <ele>596.6</ele>
        <time>2022-07-17T06:39:03Z</time>
      </trkpt>
      <trkpt lat="45.25547" lon="6.39056">
        <ele>596.6</ele>
        <time>2022-07-17T06:39:04Z</time>
      </trkpt>
      <trkpt lat="45.25544" lon="6.39061">
        <ele>596.8</ele>
        <time>2022-07-17T06:39:05Z</time>
      </trkpt>
      <trkpt lat="45.25541" lon="6.39065">
        <ele>596.8</ele>
        <time>2022-07-17T06:39:06Z</time>
      </trkpt>
      <trkpt lat="45.25538" lon="6.39069">
        <ele>597.2</ele>
        <time>2022-07-17T06:39:07Z</time>
      </trkpt>
      <trkpt lat="45.25535" lon="6.39073">
        <ele>597.4</ele>
        <time>2022-07-17T06:39:08Z</time>
      </trkpt>
      <trkpt lat="45.25532" lon="6.39078">
        <ele>597.6</ele>
        <time>2022-07-17T06:39:09Z</time>
      </trkpt>
      <trkpt lat="45.25529" lon="6.39082">
        <ele>597.6</ele>
        <time>2022-07-17T06:39:10Z</time>
      </trkpt>
      <trkpt lat="45.25526" lon="6.39087">
        <ele>598</ele>
        <time>2022-07-17T06:39:11Z</time>
      </trkpt>
      <trkpt lat="45.25523" lon="6.39092">
        <ele>598</ele>
        <time>2022-07-17T06:39:12Z</time>
      </trkpt>
      <trkpt lat="45.2552" lon="6.39097">
        <ele>598.4</ele>
        <time>2022-07-17T06:39:13Z</time>
      </trkpt>
      <trkpt lat="45.25518" lon="6.39102">
        <ele>598.6</ele>
        <time>2022-07-17T06:39:14Z</time>
      </trkpt>
      <trkpt lat="45.25515" lon="6.39106">
        <ele>598.6</ele>
        <time>2022-07-17T06:39:15Z</time>
      </trkpt>
      <trkpt lat="45.25512" lon="6.39111">
        <ele>599</ele>
        <time>2022-07-17T06:39:16Z</time>
      </trkpt>
      <trkpt lat="45.2551" lon="6.39116">
        <ele>599.2</ele>
        <time>2022-07-17T06:39:17Z</time>
      </trkpt>
      <trkpt lat="45.25507" lon="6.39121">
        <ele>599.6</ele>
        <time>2022-07-17T06:39:18Z</time>
      </trkpt>
      <trkpt lat="45.25505" lon="6.39127">
        <ele>599.6</ele>
        <time>2022-07-17T06:39:19Z</time>
      </trkpt>
      <trkpt lat="45.25502" lon="6.39132">
        <ele>599.8</ele>
        <time>2022-07-17T06:39:20Z</time>
      </trkpt>
      <trkpt lat="45.255" lon="6.39137">
        <ele>600</ele>
        <time>2022-07-17T06:39:21Z</time>
      </trkpt>
      <trkpt lat="45.25497" lon="6.39142">
        <ele>600</ele>
        <time>2022-07-17T06:39:22Z</time>
      </trkpt>
      <trkpt lat="45.25495" lon="6.39148">
        <ele>600.4</ele>
        <time>2022-07-17T06:39:23Z</time>
      </trkpt>
      <trkpt lat="45.25493" lon="6.39153">
        <ele>600.4</ele>
        <time>2022-07-17T06:39:24Z</time>
      </trkpt>
      <trkpt lat="45.25491" lon="6.39158">
        <ele>600.8</ele>
        <time>2022-07-17T06:39:25Z</time>
      </trkpt>
      <trkpt lat="45.25489" lon="6.39164">
        <ele>600.8</ele>
        <time>2022-07-17T06:39:26Z</time>
      </trkpt>
      <trkpt lat="45.25487" lon="6.3917">
        <ele>601.2</ele>
        <time>2022-07-17T06:39:27Z</time>
      </trkpt>
      <trkpt lat="45.25485" lon="6.39175">
        <ele>601.2</ele>
        <time>2022-07-17T06:39:28Z</time>
      </trkpt>
      <trkpt lat="45.25483" lon="6.39181">
        <ele>601.4</ele>
        <time>2022-07-17T06:39:29Z</time>
      </trkpt>
      <trkpt lat="45.25481" lon="6.39186">
        <ele>601.4</ele>
        <time>2022-07-17T06:39:30Z</time>
      </trkpt>
      <trkpt lat="45.2548" lon="6.39191">
        <ele>601.8</ele>
        <time>2022-07-17T06:39:31Z</time>
      </trkpt>
      <trkpt lat="45.25478" lon="6.39197">
        <ele>601.8</ele>
        <time>2022-07-17T06:39:32Z</time>
      </trkpt>
      <trkpt lat="45.25477" lon="6.39202">
        <ele>602</ele>
        <time>2022-07-17T06:39:33Z</time>
      </trkpt>
      <trkpt lat="45.25475" lon="6.39208">
        <ele>602</ele>
        <time>2022-07-17T06:39:34Z</time>
      </trkpt>
      <trkpt lat="45.25473" lon="6.39214">
        <ele>602.4</ele>
        <time>2022-07-17T06:39:35Z</time>
      </trkpt>
      <trkpt lat="45.25471" lon="6.3922">
        <ele>602.4</ele>
        <time>2022-07-17T06:39:36Z</time>
      </trkpt>
      <trkpt lat="45.2547" lon="6.39226">
        <ele>602.6</ele>
        <time>2022-07-17T06:39:37Z</time>
      </trkpt>
      <trkpt lat="45.25469" lon="6.39231">
        <ele>602.6</ele>
        <time>2022-07-17T06:39:38Z</time>
      </trkpt>
      <trkpt lat="45.25467" lon="6.39237">
        <ele>603</ele>
        <time>2022-07-17T06:39:39Z</time>
      </trkpt>
      <trkpt lat="45.25466" lon="6.39243">
        <ele>603</ele>
        <time>2022-07-17T06:39:40Z</time>
      </trkpt>
      <trkpt lat="45.25465" lon="6.39249">
        <ele>603.4</ele>
        <time>2022-07-17T06:39:41Z</time>
      </trkpt>
      <trkpt lat="45.25464" lon="6.39255">
        <ele>603.6</ele>
        <time>2022-07-17T06:39:42Z</time>
      </trkpt>
      <trkpt lat="45.25463" lon="6.39261">
        <ele>603.6</ele>
        <time>2022-07-17T06:39:43Z</time>
      </trkpt>
      <trkpt lat="45.25461" lon="6.39267">
        <ele>603.8</ele>
        <time>2022-07-17T06:39:44Z</time>
      </trkpt>
      <trkpt lat="45.2546" lon="6.39273">
        <ele>603.8</ele>
        <time>2022-07-17T06:39:45Z</time>
      </trkpt>
      <trkpt lat="45.25459" lon="6.39278">
        <ele>604.2</ele>
        <time>2022-07-17T06:39:46Z</time>
      </trkpt>
      <trkpt lat="45.25458" lon="6.39284">
        <ele>604.2</ele>
        <time>2022-07-17T06:39:47Z</time>
      </trkpt>
      <trkpt lat="45.25456" lon="6.3929">
        <ele>604.4</ele>
        <time>2022-07-17T06:39:48Z</time>
      </trkpt>
      <trkpt lat="45.25455" lon="6.39296">
        <ele>604.8</ele>
        <time>2022-07-17T06:39:49Z</time>
      </trkpt>
      <trkpt lat="45.25454" lon="6.39301">
        <ele>604.8</ele>
        <time>2022-07-17T06:39:50Z</time>
      </trkpt>
      <trkpt lat="45.25453" lon="6.39307">
        <ele>605.2</ele>
        <time>2022-07-17T06:39:51Z</time>
      </trkpt>
      <trkpt lat="45.25452" lon="6.39313">
        <ele>605.2</ele>
        <time>2022-07-17T06:39:52Z</time>
      </trkpt>
      <trkpt lat="45.2545" lon="6.39319">
        <ele>605.4</ele>
        <time>2022-07-17T06:39:53Z</time>
      </trkpt>
      <trkpt lat="45.25449" lon="6.39325">
        <ele>605.4</ele>
        <time>2022-07-17T06:39:54Z</time>
      </trkpt>
      <trkpt lat="45.25448" lon="6.39331">
        <ele>605.8</ele>
        <time>2022-07-17T06:39:55Z</time>
      </trkpt>
      <trkpt lat="45.25446" lon="6.39337">
        <ele>606</ele>
        <time>2022-07-17T06:39:56Z</time>
      </trkpt>
      <trkpt lat="45.25445" lon="6.39343">
        <ele>606</ele>
        <time>2022-07-17T06:39:57Z</time>
      </trkpt>
      <trkpt lat="45.25444" lon="6.39348">
        <ele>606.4</ele>
        <time>2022-07-17T06:39:58Z</time>
      </trkpt>
      <trkpt lat="45.25442" lon="6.39354">
        <ele>606.4</ele>
        <time>2022-07-17T06:39:59Z</time>
      </trkpt>
      <trkpt lat="45.25441" lon="6.3936">
        <ele>606.8</ele>
        <time>2022-07-17T06:40:00Z</time>
      </trkpt>
      <trkpt lat="45.2544" lon="6.39366">
        <ele>606.8</ele>
        <time>2022-07-17T06:40:01Z</time>
      </trkpt>
      <trkpt lat="45.25438" lon="6.39373">
        <ele>607</ele>
        <time>2022-07-17T06:40:02Z</time>
      </trkpt>
      <trkpt lat="45.25437" lon="6.39379">
        <ele>607</ele>
        <time>2022-07-17T06:40:03Z</time>
      </trkpt>
      <trkpt lat="45.25435" lon="6.39385">
        <ele>607.4</ele>
        <time>2022-07-17T06:40:04Z</time>
      </trkpt>
      <trkpt lat="45.25434" lon="6.39392">
        <ele>607.6</ele>
        <time>2022-07-17T06:40:05Z</time>
      </trkpt>
      <trkpt lat="45.25432" lon="6.39398">
        <ele>607.8</ele>
        <time>2022-07-17T06:40:06Z</time>
      </trkpt>
      <trkpt lat="45.2543" lon="6.39403">
        <ele>608</ele>
        <time>2022-07-17T06:40:07Z</time>
      </trkpt>
      <trkpt lat="45.25428" lon="6.39409">
        <ele>608.2</ele>
        <time>2022-07-17T06:40:08Z</time>
      </trkpt>
      <trkpt lat="45.25426" lon="6.39414">
        <ele>608.2</ele>
        <time>2022-07-17T06:40:09Z</time>
      </trkpt>
      <trkpt lat="45.25424" lon="6.39419">
        <ele>608.6</ele>
        <time>2022-07-17T06:40:10Z</time>
      </trkpt>
      <trkpt lat="45.2542" lon="6.39422">
        <ele>608.6</ele>
        <time>2022-07-17T06:40:11Z</time>
      </trkpt>
      <trkpt lat="45.25416" lon="6.39425">
        <ele>609</ele>
        <time>2022-07-17T06:40:12Z</time>
      </trkpt>
      <trkpt lat="45.25413" lon="6.39428">
        <ele>609</ele>
        <time>2022-07-17T06:40:13Z</time>
      </trkpt>
      <trkpt lat="45.25409" lon="6.39432">
        <ele>609.2</ele>
        <time>2022-07-17T06:40:14Z</time>
      </trkpt>
      <trkpt lat="45.25407" lon="6.39437">
        <ele>609.2</ele>
        <time>2022-07-17T06:40:15Z</time>
      </trkpt>
      <trkpt lat="45.25405" lon="6.39443">
        <ele>609.6</ele>
        <time>2022-07-17T06:40:16Z</time>
      </trkpt>
      <trkpt lat="45.25405" lon="6.39449">
        <ele>609.8</ele>
        <time>2022-07-17T06:40:17Z</time>
      </trkpt>
      <trkpt lat="45.25405" lon="6.39455">
        <ele>609.8</ele>
        <time>2022-07-17T06:40:18Z</time>
      </trkpt>
      <trkpt lat="45.25406" lon="6.39461">
        <ele>610</ele>
        <time>2022-07-17T06:40:19Z</time>
      </trkpt>
      <trkpt lat="45.25407" lon="6.39467">
        <ele>610</ele>
        <time>2022-07-17T06:40:20Z</time>
      </trkpt>
      <trkpt lat="45.25408" lon="6.39473">
        <ele>610.4</ele>
        <time>2022-07-17T06:40:21Z</time>
      </trkpt>
      <trkpt lat="45.25409" lon="6.3948">
        <ele>610.4</ele>
        <time>2022-07-17T06:40:22Z</time>
      </trkpt>
      <trkpt lat="45.25409" lon="6.39486">
        <ele>610.8</ele>
        <time>2022-07-17T06:40:23Z</time>
      </trkpt>
      <trkpt lat="45.25408" lon="6.39493">
        <ele>611</ele>
        <time>2022-07-17T06:40:24Z</time>
      </trkpt>
      <trkpt lat="45.25406" lon="6.39499">
        <ele>611</ele>
        <time>2022-07-17T06:40:25Z</time>
      </trkpt>
      <trkpt lat="45.25405" lon="6.39505">
        <ele>611.2</ele>
        <time>2022-07-17T06:40:26Z</time>
      </trkpt>
      <trkpt lat="45.25404" lon="6.3951">
        <ele>611.2</ele>
        <time>2022-07-17T06:40:27Z</time>
      </trkpt>
      <trkpt lat="45.25402" lon="6.39516">
        <ele>611.6</ele>
        <time>2022-07-17T06:40:28Z</time>
      </trkpt>
      <trkpt lat="45.254" lon="6.39522">
        <ele>611.6</ele>
        <time>2022-07-17T06:40:29Z</time>
      </trkpt>
      <trkpt lat="45.25399" lon="6.39527">
        <ele>612</ele>
        <time>2022-07-17T06:40:30Z</time>
      </trkpt>
      <trkpt lat="45.25397" lon="6.39533">
        <ele>612</ele>
        <time>2022-07-17T06:40:31Z</time>
      </trkpt>
      <trkpt lat="45.25396" lon="6.39539">
        <ele>612.2</ele>
        <time>2022-07-17T06:40:32Z</time>
      </trkpt>
      <trkpt lat="45.25395" lon="6.39544">
        <ele>612.2</ele>
        <time>2022-07-17T06:40:33Z</time>
      </trkpt>
      <trkpt lat="45.25394" lon="6.3955">
        <ele>612.4</ele>
        <time>2022-07-17T06:40:34Z</time>
      </trkpt>
      <trkpt lat="45.25392" lon="6.39556">
        <ele>612.4</ele>
        <time>2022-07-17T06:40:35Z</time>
      </trkpt>
      <trkpt lat="45.2539" lon="6.39561">
        <ele>612.8</ele>
        <time>2022-07-17T06:40:36Z</time>
      </trkpt>
      <trkpt lat="45.25389" lon="6.39566">
        <ele>612.8</ele>
        <time>2022-07-17T06:40:37Z</time>
      </trkpt>
      <trkpt lat="45.25387" lon="6.39572">
        <ele>613</ele>
        <time>2022-07-17T06:40:38Z</time>
      </trkpt>
      <trkpt lat="45.25386" lon="6.39577">
        <ele>613.2</ele>
        <time>2022-07-17T06:40:39Z</time>
      </trkpt>
      <trkpt lat="45.25384" lon="6.39583">
        <ele>613.4</ele>
        <time>2022-07-17T06:40:40Z</time>
      </trkpt>
      <trkpt lat="45.25382" lon="6.39588">
        <ele>613.4</ele>
        <time>2022-07-17T06:40:41Z</time>
      </trkpt>
      <trkpt lat="45.25381" lon="6.39594">
        <ele>613.8</ele>
        <time>2022-07-17T06:40:42Z</time>
      </trkpt>
      <trkpt lat="45.25379" lon="6.396">
        <ele>613.8</ele>
        <time>2022-07-17T06:40:43Z</time>
      </trkpt>
      <trkpt lat="45.25377" lon="6.39605">
        <ele>614.2</ele>
        <time>2022-07-17T06:40:44Z</time>
      </trkpt>
      <trkpt lat="45.25376" lon="6.39611">
        <ele>614.2</ele>
        <time>2022-07-17T06:40:45Z</time>
      </trkpt>
      <trkpt lat="45.25374" lon="6.39616">
        <ele>614.4</ele>
        <time>2022-07-17T06:40:46Z</time>
      </trkpt>
      <trkpt lat="45.25373" lon="6.39621">
        <ele>614.4</ele>
        <time>2022-07-17T06:40:47Z</time>
      </trkpt>
      <trkpt lat="45.25371" lon="6.39627">
        <ele>614.8</ele>
        <time>2022-07-17T06:40:48Z</time>
      </trkpt>
      <trkpt lat="45.2537" lon="6.39632">
        <ele>614.8</ele>
        <time>2022-07-17T06:40:49Z</time>
      </trkpt>
      <trkpt lat="45.25368" lon="6.39638">
        <ele>615</ele>
        <time>2022-07-17T06:40:50Z</time>
      </trkpt>
      <trkpt lat="45.25366" lon="6.39644">
        <ele>615</ele>
        <time>2022-07-17T06:40:51Z</time>
      </trkpt>
      <trkpt lat="45.25364" lon="6.3965">
        <ele>615</ele>
        <time>2022-07-17T06:40:52Z</time>
      </trkpt>
      <trkpt lat="45.25363" lon="6.39655">
        <ele>615.4</ele>
        <time>2022-07-17T06:40:53Z</time>
      </trkpt>
      <trkpt lat="45.25361" lon="6.39661">
        <ele>615.4</ele>
        <time>2022-07-17T06:40:54Z</time>
      </trkpt>
      <trkpt lat="45.25359" lon="6.39666">
        <ele>615.8</ele>
        <time>2022-07-17T06:40:55Z</time>
      </trkpt>
      <trkpt lat="45.25358" lon="6.39671">
        <ele>615.8</ele>
        <time>2022-07-17T06:40:56Z</time>
      </trkpt>
      <trkpt lat="45.25357" lon="6.39677">
        <ele>616</ele>
        <time>2022-07-17T06:40:57Z</time>
      </trkpt>
      <trkpt lat="45.25355" lon="6.39682">
        <ele>616.2</ele>
        <time>2022-07-17T06:40:58Z</time>
      </trkpt>
      <trkpt lat="45.25354" lon="6.39688">
        <ele>616.2</ele>
        <time>2022-07-17T06:40:59Z</time>
      </trkpt>
      <trkpt lat="45.25352" lon="6.39693">
        <ele>616.6</ele>
        <time>2022-07-17T06:41:00Z</time>
      </trkpt>
      <trkpt lat="45.2535" lon="6.39699">
        <ele>616.6</ele>
        <time>2022-07-17T06:41:01Z</time>
      </trkpt>
      <trkpt lat="45.25349" lon="6.39704">
        <ele>617</ele>
        <time>2022-07-17T06:41:02Z</time>
      </trkpt>
      <trkpt lat="45.25347" lon="6.3971">
        <ele>617</ele>
        <time>2022-07-17T06:41:03Z</time>
      </trkpt>
      <trkpt lat="45.25346" lon="6.39716">
        <ele>617.2</ele>
        <time>2022-07-17T06:41:04Z</time>
      </trkpt>
      <trkpt lat="45.25345" lon="6.39721">
        <ele>617.4</ele>
        <time>2022-07-17T06:41:05Z</time>
      </trkpt>
      <trkpt lat="45.25343" lon="6.39727">
        <ele>617.8</ele>
        <time>2022-07-17T06:41:06Z</time>
      </trkpt>
      <trkpt lat="45.25341" lon="6.39732">
        <ele>617.8</ele>
        <time>2022-07-17T06:41:07Z</time>
      </trkpt>
      <trkpt lat="45.2534" lon="6.39737">
        <ele>618.2</ele>
        <time>2022-07-17T06:41:08Z</time>
      </trkpt>
      <trkpt lat="45.25338" lon="6.39742">
        <ele>618.2</ele>
        <time>2022-07-17T06:41:09Z</time>
      </trkpt>
      <trkpt lat="45.25337" lon="6.39748">
        <ele>618.4</ele>
        <time>2022-07-17T06:41:10Z</time>
      </trkpt>
      <trkpt lat="45.25335" lon="6.39753">
        <ele>618.4</ele>
        <time>2022-07-17T06:41:11Z</time>
      </trkpt>
      <trkpt lat="45.25334" lon="6.39758">
        <ele>618.8</ele>
        <time>2022-07-17T06:41:12Z</time>
      </trkpt>
      <trkpt lat="45.25333" lon="6.39763">
        <ele>618.8</ele>
        <time>2022-07-17T06:41:13Z</time>
      </trkpt>
      <trkpt lat="45.25332" lon="6.39769">
        <ele>619.2</ele>
        <time>2022-07-17T06:41:14Z</time>
      </trkpt>
      <trkpt lat="45.2533" lon="6.39775">
        <ele>619.2</ele>
        <time>2022-07-17T06:41:15Z</time>
      </trkpt>
      <trkpt lat="45.25328" lon="6.39781">
        <ele>619.6</ele>
        <time>2022-07-17T06:41:16Z</time>
      </trkpt>
      <trkpt lat="45.25327" lon="6.39786">
        <ele>619.6</ele>
        <time>2022-07-17T06:41:17Z</time>
      </trkpt>
      <trkpt lat="45.25325" lon="6.39792">
        <ele>620.2</ele>
        <time>2022-07-17T06:41:18Z</time>
      </trkpt>
      <trkpt lat="45.25323" lon="6.39797">
        <ele>620.2</ele>
        <time>2022-07-17T06:41:19Z</time>
      </trkpt>
      <trkpt lat="45.25322" lon="6.39803">
        <ele>620.4</ele>
        <time>2022-07-17T06:41:20Z</time>
      </trkpt>
      <trkpt lat="45.2532" lon="6.39808">
        <ele>620.4</ele>
        <time>2022-07-17T06:41:21Z</time>
      </trkpt>
      <trkpt lat="45.25319" lon="6.39813">
        <ele>620.6</ele>
        <time>2022-07-17T06:41:22Z</time>
      </trkpt>
      <trkpt lat="45.25317" lon="6.39818">
        <ele>620.6</ele>
        <time>2022-07-17T06:41:23Z</time>
      </trkpt>
      <trkpt lat="45.25315" lon="6.39823">
        <ele>621</ele>
        <time>2022-07-17T06:41:24Z</time>
      </trkpt>
      <trkpt lat="45.25314" lon="6.39828">
        <ele>621</ele>
        <time>2022-07-17T06:41:25Z</time>
      </trkpt>
      <trkpt lat="45.25312" lon="6.39834">
        <ele>621.4</ele>
        <time>2022-07-17T06:41:26Z</time>
      </trkpt>
      <trkpt lat="45.25311" lon="6.39839">
        <ele>621.4</ele>
        <time>2022-07-17T06:41:27Z</time>
      </trkpt>
      <trkpt lat="45.25309" lon="6.39845">
        <ele>621.8</ele>
        <time>2022-07-17T06:41:28Z</time>
      </trkpt>
      <trkpt lat="45.25307" lon="6.3985">
        <ele>621.8</ele>
        <time>2022-07-17T06:41:29Z</time>
      </trkpt>
      <trkpt lat="45.25306" lon="6.39855">
        <ele>622</ele>
        <time>2022-07-17T06:41:30Z</time>
      </trkpt>
      <trkpt lat="45.25304" lon="6.39861">
        <ele>622</ele>
        <time>2022-07-17T06:41:31Z</time>
      </trkpt>
      <trkpt lat="45.25302" lon="6.39866">
        <ele>622.4</ele>
        <time>2022-07-17T06:41:32Z</time>
      </trkpt>
      <trkpt lat="45.25301" lon="6.39872">
        <ele>622.6</ele>
        <time>2022-07-17T06:41:33Z</time>
      </trkpt>
      <trkpt lat="45.25299" lon="6.39878">
        <ele>622.6</ele>
        <time>2022-07-17T06:41:34Z</time>
      </trkpt>
      <trkpt lat="45.25298" lon="6.39883">
        <ele>623</ele>
        <time>2022-07-17T06:41:35Z</time>
      </trkpt>
      <trkpt lat="45.25296" lon="6.39889">
        <ele>623.2</ele>
        <time>2022-07-17T06:41:36Z</time>
      </trkpt>
      <trkpt lat="45.25295" lon="6.39895">
        <ele>623.2</ele>
        <time>2022-07-17T06:41:37Z</time>
      </trkpt>
      <trkpt lat="45.25294" lon="6.39901">
        <ele>623.6</ele>
        <time>2022-07-17T06:41:38Z</time>
      </trkpt>
      <trkpt lat="45.25292" lon="6.39907">
        <ele>623.6</ele>
        <time>2022-07-17T06:41:39Z</time>
      </trkpt>
      <trkpt lat="45.25291" lon="6.39912">
        <ele>624</ele>
        <time>2022-07-17T06:41:40Z</time>
      </trkpt>
      <trkpt lat="45.25289" lon="6.39918">
        <ele>624.4</ele>
        <time>2022-07-17T06:41:41Z</time>
      </trkpt>
      <trkpt lat="45.25288" lon="6.39924">
        <ele>624.4</ele>
        <time>2022-07-17T06:41:42Z</time>
      </trkpt>
      <trkpt lat="45.25287" lon="6.3993">
        <ele>624.6</ele>
        <time>2022-07-17T06:41:43Z</time>
      </trkpt>
      <trkpt lat="45.25285" lon="6.39936">
        <ele>624.6</ele>
        <time>2022-07-17T06:41:44Z</time>
      </trkpt>
      <trkpt lat="45.25284" lon="6.39942">
        <ele>625</ele>
        <time>2022-07-17T06:41:45Z</time>
      </trkpt>
      <trkpt lat="45.25283" lon="6.39948">
        <ele>625.2</ele>
        <time>2022-07-17T06:41:46Z</time>
      </trkpt>
      <trkpt lat="45.25282" lon="6.39954">
        <ele>625.2</ele>
        <time>2022-07-17T06:41:47Z</time>
      </trkpt>
      <trkpt lat="45.2528" lon="6.3996">
        <ele>625.6</ele>
        <time>2022-07-17T06:41:48Z</time>
      </trkpt>
      <trkpt lat="45.25279" lon="6.39966">
        <ele>625.6</ele>
        <time>2022-07-17T06:41:49Z</time>
      </trkpt>
      <trkpt lat="45.25278" lon="6.39972">
        <ele>626</ele>
        <time>2022-07-17T06:41:50Z</time>
      </trkpt>
      <trkpt lat="45.25277" lon="6.39978">
        <ele>626</ele>
        <time>2022-07-17T06:41:51Z</time>
      </trkpt>
      <trkpt lat="45.25276" lon="6.39984">
        <ele>626.4</ele>
        <time>2022-07-17T06:41:52Z</time>
      </trkpt>
      <trkpt lat="45.25275" lon="6.3999">
        <ele>626.4</ele>
        <time>2022-07-17T06:41:53Z</time>
      </trkpt>
      <trkpt lat="45.25273" lon="6.39996">
        <ele>626.4</ele>
        <time>2022-07-17T06:41:54Z</time>
      </trkpt>
      <trkpt lat="45.25272" lon="6.40002">
        <ele>626.6</ele>
        <time>2022-07-17T06:41:55Z</time>
      </trkpt>
      <trkpt lat="45.25271" lon="6.40008">
        <ele>626.6</ele>
        <time>2022-07-17T06:41:56Z</time>
      </trkpt>
      <trkpt lat="45.2527" lon="6.40014">
        <ele>626.6</ele>
        <time>2022-07-17T06:41:57Z</time>
      </trkpt>
      <trkpt lat="45.25269" lon="6.4002">
        <ele>626.8</ele>
        <time>2022-07-17T06:41:58Z</time>
      </trkpt>
      <trkpt lat="45.25269" lon="6.40026">
        <ele>626.8</ele>
        <time>2022-07-17T06:41:59Z</time>
      </trkpt>
      <trkpt lat="45.25268" lon="6.40032">
        <ele>627.2</ele>
        <time>2022-07-17T06:42:00Z</time>
      </trkpt>
      <trkpt lat="45.25267" lon="6.40038">
        <ele>627.2</ele>
        <time>2022-07-17T06:42:01Z</time>
      </trkpt>
      <trkpt lat="45.25266" lon="6.40044">
        <ele>627.4</ele>
        <time>2022-07-17T06:42:02Z</time>
      </trkpt>
      <trkpt lat="45.25265" lon="6.4005">
        <ele>627.4</ele>
        <time>2022-07-17T06:42:03Z</time>
      </trkpt>
      <trkpt lat="45.25265" lon="6.40056">
        <ele>627.8</ele>
        <time>2022-07-17T06:42:04Z</time>
      </trkpt>
      <trkpt lat="45.25264" lon="6.40062">
        <ele>627.8</ele>
        <time>2022-07-17T06:42:05Z</time>
      </trkpt>
      <trkpt lat="45.25263" lon="6.40068">
        <ele>627.8</ele>
        <time>2022-07-17T06:42:06Z</time>
      </trkpt>
      <trkpt lat="45.25263" lon="6.40074">
        <ele>627.8</ele>
        <time>2022-07-17T06:42:07Z</time>
      </trkpt>
      <trkpt lat="45.25262" lon="6.4008">
        <ele>628</ele>
        <time>2022-07-17T06:42:08Z</time>
      </trkpt>
      <trkpt lat="45.25261" lon="6.40086">
        <ele>628</ele>
        <time>2022-07-17T06:42:09Z</time>
      </trkpt>
      <trkpt lat="45.2526" lon="6.40092">
        <ele>628</ele>
        <time>2022-07-17T06:42:10Z</time>
      </trkpt>
      <trkpt lat="45.25259" lon="6.40099">
        <ele>628.2</ele>
        <time>2022-07-17T06:42:11Z</time>
      </trkpt>
      <trkpt lat="45.25259" lon="6.40105">
        <ele>628.2</ele>
        <time>2022-07-17T06:42:12Z</time>
      </trkpt>
      <trkpt lat="45.25258" lon="6.40111">
        <ele>628.2</ele>
        <time>2022-07-17T06:42:13Z</time>
      </trkpt>
      <trkpt lat="45.25258" lon="6.40118">
        <ele>628.6</ele>
        <time>2022-07-17T06:42:14Z</time>
      </trkpt>
      <trkpt lat="45.25257" lon="6.40124">
        <ele>628.6</ele>
        <time>2022-07-17T06:42:15Z</time>
      </trkpt>
      <trkpt lat="45.25257" lon="6.40131">
        <ele>628.6</ele>
        <time>2022-07-17T06:42:16Z</time>
      </trkpt>
      <trkpt lat="45.25256" lon="6.40138">
        <ele>628.6</ele>
        <time>2022-07-17T06:42:17Z</time>
      </trkpt>
      <trkpt lat="45.25256" lon="6.40144">
        <ele>628.6</ele>
        <time>2022-07-17T06:42:18Z</time>
      </trkpt>
      <trkpt lat="45.25255" lon="6.40151">
        <ele>628.8</ele>
        <time>2022-07-17T06:42:19Z</time>
      </trkpt>
      <trkpt lat="45.25255" lon="6.40158">
        <ele>628.8</ele>
        <time>2022-07-17T06:42:20Z</time>
      </trkpt>
      <trkpt lat="45.25254" lon="6.40165">
        <ele>628.8</ele>
        <time>2022-07-17T06:42:21Z</time>
      </trkpt>
      <trkpt lat="45.25254" lon="6.40172">
        <ele>629</ele>
        <time>2022-07-17T06:42:22Z</time>
      </trkpt>
      <trkpt lat="45.25254" lon="6.40179">
        <ele>629</ele>
        <time>2022-07-17T06:42:23Z</time>
      </trkpt>
      <trkpt lat="45.25254" lon="6.40187">
        <ele>629</ele>
        <time>2022-07-17T06:42:24Z</time>
      </trkpt>
      <trkpt lat="45.25253" lon="6.40194">
        <ele>629</ele>
        <time>2022-07-17T06:42:25Z</time>
      </trkpt>
      <trkpt lat="45.25253" lon="6.40202">
        <ele>629</ele>
        <time>2022-07-17T06:42:26Z</time>
      </trkpt>
      <trkpt lat="45.25253" lon="6.40209">
        <ele>629</ele>
        <time>2022-07-17T06:42:27Z</time>
      </trkpt>
      <trkpt lat="45.25253" lon="6.40217">
        <ele>629</ele>
        <time>2022-07-17T06:42:28Z</time>
      </trkpt>
      <trkpt lat="45.25253" lon="6.40225">
        <ele>629</ele>
        <time>2022-07-17T06:42:29Z</time>
      </trkpt>
      <trkpt lat="45.25252" lon="6.40233">
        <ele>629</ele>
        <time>2022-07-17T06:42:30Z</time>
      </trkpt>
      <trkpt lat="45.25252" lon="6.40241">
        <ele>629.2</ele>
        <time>2022-07-17T06:42:31Z</time>
      </trkpt>
      <trkpt lat="45.25252" lon="6.40249">
        <ele>629.2</ele>
        <time>2022-07-17T06:42:32Z</time>
      </trkpt>
      <trkpt lat="45.25252" lon="6.40257">
        <ele>629.2</ele>
        <time>2022-07-17T06:42:33Z</time>
      </trkpt>
      <trkpt lat="45.25252" lon="6.40265">
        <ele>629.2</ele>
        <time>2022-07-17T06:42:34Z</time>
      </trkpt>
      <trkpt lat="45.25252" lon="6.40273">
        <ele>629.2</ele>
        <time>2022-07-17T06:42:35Z</time>
      </trkpt>
      <trkpt lat="45.25252" lon="6.40281">
        <ele>629.2</ele>
        <time>2022-07-17T06:42:36Z</time>
      </trkpt>
      <trkpt lat="45.25252" lon="6.40289">
        <ele>629.2</ele>
        <time>2022-07-17T06:42:37Z</time>
      </trkpt>
      <trkpt lat="45.25251" lon="6.40298">
        <ele>629.4</ele>
        <time>2022-07-17T06:42:38Z</time>
      </trkpt>
      <trkpt lat="45.25251" lon="6.40306">
        <ele>629.4</ele>
        <time>2022-07-17T06:42:39Z</time>
      </trkpt>
      <trkpt lat="45.25251" lon="6.40314">
        <ele>629.4</ele>
        <time>2022-07-17T06:42:40Z</time>
      </trkpt>
      <trkpt lat="45.25251" lon="6.40323">
        <ele>629.4</ele>
        <time>2022-07-17T06:42:41Z</time>
      </trkpt>
      <trkpt lat="45.25251" lon="6.40331">
        <ele>629.4</ele>
        <time>2022-07-17T06:42:42Z</time>
      </trkpt>
      <trkpt lat="45.25251" lon="6.40339">
        <ele>629.4</ele>
        <time>2022-07-17T06:42:43Z</time>
      </trkpt>
      <trkpt lat="45.25251" lon="6.40347">
        <ele>629.4</ele>
        <time>2022-07-17T06:42:44Z</time>
      </trkpt>
      <trkpt lat="45.25251" lon="6.40355">
        <ele>629.4</ele>
        <time>2022-07-17T06:42:45Z</time>
      </trkpt>
      <trkpt lat="45.25251" lon="6.4037">
        <ele>629.8</ele>
        <time>2022-07-17T06:42:46Z</time>
      </trkpt>
      <trkpt lat="45.25251" lon="6.40378">
        <ele>629.8</ele>
        <time>2022-07-17T06:42:47Z</time>
      </trkpt>
      <trkpt lat="45.25251" lon="6.40385">
        <ele>630</ele>
        <time>2022-07-17T06:42:48Z</time>
      </trkpt>
      <trkpt lat="45.25251" lon="6.40393">
        <ele>630</ele>
        <time>2022-07-17T06:42:49Z</time>
      </trkpt>
      <trkpt lat="45.25251" lon="6.404">
        <ele>630</ele>
        <time>2022-07-17T06:42:50Z</time>
      </trkpt>
      <trkpt lat="45.25251" lon="6.40408">
        <ele>630</ele>
        <time>2022-07-17T06:42:51Z</time>
      </trkpt>
      <trkpt lat="45.25251" lon="6.40416">
        <ele>630.2</ele>
        <time>2022-07-17T06:42:52Z</time>
      </trkpt>
      <trkpt lat="45.25251" lon="6.40424">
        <ele>630.2</ele>
        <time>2022-07-17T06:42:53Z</time>
      </trkpt>
      <trkpt lat="45.25251" lon="6.40432">
        <ele>630.4</ele>
        <time>2022-07-17T06:42:54Z</time>
      </trkpt>
      <trkpt lat="45.25251" lon="6.4044">
        <ele>630.4</ele>
        <time>2022-07-17T06:42:55Z</time>
      </trkpt>
      <trkpt lat="45.25252" lon="6.40448">
        <ele>630.4</ele>
        <time>2022-07-17T06:42:56Z</time>
      </trkpt>
      <trkpt lat="45.25252" lon="6.40455">
        <ele>630.4</ele>
        <time>2022-07-17T06:42:57Z</time>
      </trkpt>
      <trkpt lat="45.25252" lon="6.40463">
        <ele>630.6</ele>
        <time>2022-07-17T06:42:58Z</time>
      </trkpt>
      <trkpt lat="45.25251" lon="6.4047">
        <ele>630.6</ele>
        <time>2022-07-17T06:42:59Z</time>
      </trkpt>
      <trkpt lat="45.25251" lon="6.40478">
        <ele>630.6</ele>
        <time>2022-07-17T06:43:00Z</time>
      </trkpt>
      <trkpt lat="45.25251" lon="6.40486">
        <ele>630.6</ele>
        <time>2022-07-17T06:43:01Z</time>
      </trkpt>
      <trkpt lat="45.25251" lon="6.40494">
        <ele>630.6</ele>
        <time>2022-07-17T06:43:02Z</time>
      </trkpt>
      <trkpt lat="45.25251" lon="6.40502">
        <ele>630.6</ele>
        <time>2022-07-17T06:43:03Z</time>
      </trkpt>
      <trkpt lat="45.25251" lon="6.40509">
        <ele>630.8</ele>
        <time>2022-07-17T06:43:04Z</time>
      </trkpt>
      <trkpt lat="45.25251" lon="6.40517">
        <ele>630.8</ele>
        <time>2022-07-17T06:43:05Z</time>
      </trkpt>
      <trkpt lat="45.25251" lon="6.40525">
        <ele>630.8</ele>
        <time>2022-07-17T06:43:06Z</time>
      </trkpt>
      <trkpt lat="45.25251" lon="6.40532">
        <ele>630.8</ele>
        <time>2022-07-17T06:43:07Z</time>
      </trkpt>
      <trkpt lat="45.25251" lon="6.40539">
        <ele>630.8</ele>
        <time>2022-07-17T06:43:08Z</time>
      </trkpt>
      <trkpt lat="45.2525" lon="6.40547">
        <ele>631</ele>
        <time>2022-07-17T06:43:09Z</time>
      </trkpt>
      <trkpt lat="45.2525" lon="6.40554">
        <ele>631</ele>
        <time>2022-07-17T06:43:10Z</time>
      </trkpt>
      <trkpt lat="45.2525" lon="6.40561">
        <ele>631</ele>
        <time>2022-07-17T06:43:11Z</time>
      </trkpt>
      <trkpt lat="45.2525" lon="6.40569">
        <ele>631.4</ele>
        <time>2022-07-17T06:43:12Z</time>
      </trkpt>
      <trkpt lat="45.2525" lon="6.40576">
        <ele>631.4</ele>
        <time>2022-07-17T06:43:13Z</time>
      </trkpt>
      <trkpt lat="45.25249" lon="6.40583">
        <ele>631.4</ele>
        <time>2022-07-17T06:43:14Z</time>
      </trkpt>
      <trkpt lat="45.25249" lon="6.4059">
        <ele>631.6</ele>
        <time>2022-07-17T06:43:15Z</time>
      </trkpt>
      <trkpt lat="45.25249" lon="6.40597">
        <ele>631.6</ele>
        <time>2022-07-17T06:43:16Z</time>
      </trkpt>
      <trkpt lat="45.25248" lon="6.40604">
        <ele>631.8</ele>
        <time>2022-07-17T06:43:17Z</time>
      </trkpt>
      <trkpt lat="45.25248" lon="6.40611">
        <ele>631.8</ele>
        <time>2022-07-17T06:43:18Z</time>
      </trkpt>
      <trkpt lat="45.25248" lon="6.40618">
        <ele>632</ele>
        <time>2022-07-17T06:43:19Z</time>
      </trkpt>
      <trkpt lat="45.25248" lon="6.40625">
        <ele>632</ele>
        <time>2022-07-17T06:43:20Z</time>
      </trkpt>
      <trkpt lat="45.25248" lon="6.40632">
        <ele>632.4</ele>
        <time>2022-07-17T06:43:21Z</time>
      </trkpt>
      <trkpt lat="45.25248" lon="6.40639">
        <ele>632.4</ele>
        <time>2022-07-17T06:43:22Z</time>
      </trkpt>
      <trkpt lat="45.25248" lon="6.40646">
        <ele>632.6</ele>
        <time>2022-07-17T06:43:23Z</time>
      </trkpt>
      <trkpt lat="45.25248" lon="6.40652">
        <ele>632.6</ele>
        <time>2022-07-17T06:43:24Z</time>
      </trkpt>
      <trkpt lat="45.25248" lon="6.40659">
        <ele>632.8</ele>
        <time>2022-07-17T06:43:25Z</time>
      </trkpt>
      <trkpt lat="45.25248" lon="6.40666">
        <ele>632.8</ele>
        <time>2022-07-17T06:43:26Z</time>
      </trkpt>
      <trkpt lat="45.25248" lon="6.40673">
        <ele>633.2</ele>
        <time>2022-07-17T06:43:27Z</time>
      </trkpt>
      <trkpt lat="45.25248" lon="6.4068">
        <ele>633.2</ele>
        <time>2022-07-17T06:43:28Z</time>
      </trkpt>
      <trkpt lat="45.25248" lon="6.40686">
        <ele>633.4</ele>
        <time>2022-07-17T06:43:29Z</time>
      </trkpt>
      <trkpt lat="45.25248" lon="6.40693">
        <ele>633.4</ele>
        <time>2022-07-17T06:43:30Z</time>
      </trkpt>
      <trkpt lat="45.25248" lon="6.407">
        <ele>633.8</ele>
        <time>2022-07-17T06:43:31Z</time>
      </trkpt>
      <trkpt lat="45.25248" lon="6.40707">
        <ele>633.8</ele>
        <time>2022-07-17T06:43:32Z</time>
      </trkpt>
      <trkpt lat="45.25247" lon="6.40714">
        <ele>634</ele>
        <time>2022-07-17T06:43:33Z</time>
      </trkpt>
      <trkpt lat="45.25247" lon="6.4072">
        <ele>634</ele>
        <time>2022-07-17T06:43:34Z</time>
      </trkpt>
      <trkpt lat="45.25247" lon="6.40727">
        <ele>634.4</ele>
        <time>2022-07-17T06:43:35Z</time>
      </trkpt>
      <trkpt lat="45.25247" lon="6.40734">
        <ele>634.6</ele>
        <time>2022-07-17T06:43:36Z</time>
      </trkpt>
      <trkpt lat="45.25247" lon="6.4074">
        <ele>634.6</ele>
        <time>2022-07-17T06:43:37Z</time>
      </trkpt>
      <trkpt lat="45.25247" lon="6.40747">
        <ele>635</ele>
        <time>2022-07-17T06:43:38Z</time>
      </trkpt>
      <trkpt lat="45.25246" lon="6.40753">
        <ele>635.2</ele>
        <time>2022-07-17T06:43:39Z</time>
      </trkpt>
      <trkpt lat="45.25246" lon="6.4076">
        <ele>635.2</ele>
        <time>2022-07-17T06:43:40Z</time>
      </trkpt>
      <trkpt lat="45.25246" lon="6.40766">
        <ele>635.6</ele>
        <time>2022-07-17T06:43:41Z</time>
      </trkpt>
      <trkpt lat="45.25245" lon="6.40772">
        <ele>635.8</ele>
        <time>2022-07-17T06:43:42Z</time>
      </trkpt>
      <trkpt lat="45.25245" lon="6.40778">
        <ele>635.8</ele>
        <time>2022-07-17T06:43:43Z</time>
      </trkpt>
      <trkpt lat="45.25244" lon="6.40785">
        <ele>636</ele>
        <time>2022-07-17T06:43:44Z</time>
      </trkpt>
      <trkpt lat="45.25243" lon="6.40791">
        <ele>636.2</ele>
        <time>2022-07-17T06:43:45Z</time>
      </trkpt>
      <trkpt lat="45.25243" lon="6.40797">
        <ele>636.6</ele>
        <time>2022-07-17T06:43:46Z</time>
      </trkpt>
      <trkpt lat="45.25243" lon="6.40804">
        <ele>636.6</ele>
        <time>2022-07-17T06:43:47Z</time>
      </trkpt>
      <trkpt lat="45.25242" lon="6.4081">
        <ele>637</ele>
        <time>2022-07-17T06:43:48Z</time>
      </trkpt>
      <trkpt lat="45.25242" lon="6.40817">
        <ele>637</ele>
        <time>2022-07-17T06:43:49Z</time>
      </trkpt>
      <trkpt lat="45.25241" lon="6.40824">
        <ele>637.4</ele>
        <time>2022-07-17T06:43:50Z</time>
      </trkpt>
      <trkpt lat="45.2524" lon="6.4083">
        <ele>637.6</ele>
        <time>2022-07-17T06:43:51Z</time>
      </trkpt>
      <trkpt lat="45.25239" lon="6.40836">
        <ele>637.8</ele>
        <time>2022-07-17T06:43:52Z</time>
      </trkpt>
      <trkpt lat="45.25239" lon="6.40842">
        <ele>638</ele>
        <time>2022-07-17T06:43:53Z</time>
      </trkpt>
      <trkpt lat="45.25238" lon="6.40848">
        <ele>638</ele>
        <time>2022-07-17T06:43:54Z</time>
      </trkpt>
      <trkpt lat="45.25237" lon="6.40854">
        <ele>638.4</ele>
        <time>2022-07-17T06:43:55Z</time>
      </trkpt>
      <trkpt lat="45.25237" lon="6.4086">
        <ele>638.4</ele>
        <time>2022-07-17T06:43:56Z</time>
      </trkpt>
      <trkpt lat="45.25236" lon="6.40867">
        <ele>638.8</ele>
        <time>2022-07-17T06:43:57Z</time>
      </trkpt>
      <trkpt lat="45.25236" lon="6.40873">
        <ele>638.8</ele>
        <time>2022-07-17T06:43:58Z</time>
      </trkpt>
      <trkpt lat="45.25235" lon="6.40879">
        <ele>639</ele>
        <time>2022-07-17T06:43:59Z</time>
      </trkpt>
      <trkpt lat="45.25234" lon="6.40885">
        <ele>639</ele>
        <time>2022-07-17T06:44:00Z</time>
      </trkpt>
      <trkpt lat="45.25233" lon="6.40891">
        <ele>639.4</ele>
        <time>2022-07-17T06:44:01Z</time>
      </trkpt>
      <trkpt lat="45.25232" lon="6.40897">
        <ele>639.4</ele>
        <time>2022-07-17T06:44:02Z</time>
      </trkpt>
      <trkpt lat="45.25231" lon="6.40903">
        <ele>639.8</ele>
        <time>2022-07-17T06:44:03Z</time>
      </trkpt>
      <trkpt lat="45.2523" lon="6.40909">
        <ele>640</ele>
        <time>2022-07-17T06:44:04Z</time>
      </trkpt>
      <trkpt lat="45.25229" lon="6.40916">
        <ele>640.2</ele>
        <time>2022-07-17T06:44:05Z</time>
      </trkpt>
      <trkpt lat="45.25227" lon="6.40922">
        <ele>640.4</ele>
        <time>2022-07-17T06:44:06Z</time>
      </trkpt>
      <trkpt lat="45.25226" lon="6.40928">
        <ele>640.6</ele>
        <time>2022-07-17T06:44:07Z</time>
      </trkpt>
      <trkpt lat="45.25225" lon="6.40935">
        <ele>640.6</ele>
        <time>2022-07-17T06:44:08Z</time>
      </trkpt>
      <trkpt lat="45.25224" lon="6.40941">
        <ele>641</ele>
        <time>2022-07-17T06:44:09Z</time>
      </trkpt>
      <trkpt lat="45.25222" lon="6.40947">
        <ele>641.2</ele>
        <time>2022-07-17T06:44:10Z</time>
      </trkpt>
      <trkpt lat="45.25221" lon="6.40954">
        <ele>641.2</ele>
        <time>2022-07-17T06:44:11Z</time>
      </trkpt>
      <trkpt lat="45.25219" lon="6.4096">
        <ele>641.4</ele>
        <time>2022-07-17T06:44:12Z</time>
      </trkpt>
      <trkpt lat="45.25218" lon="6.40966">
        <ele>641.6</ele>
        <time>2022-07-17T06:44:13Z</time>
      </trkpt>
      <trkpt lat="45.25217" lon="6.40973">
        <ele>642</ele>
        <time>2022-07-17T06:44:14Z</time>
      </trkpt>
      <trkpt lat="45.25215" lon="6.40979">
        <ele>642.2</ele>
        <time>2022-07-17T06:44:15Z</time>
      </trkpt>
      <trkpt lat="45.25214" lon="6.40985">
        <ele>642.4</ele>
        <time>2022-07-17T06:44:16Z</time>
      </trkpt>
      <trkpt lat="45.25212" lon="6.40991">
        <ele>642.6</ele>
        <time>2022-07-17T06:44:17Z</time>
      </trkpt>
      <trkpt lat="45.2521" lon="6.40997">
        <ele>642.8</ele>
        <time>2022-07-17T06:44:18Z</time>
      </trkpt>
      <trkpt lat="45.25209" lon="6.41003">
        <ele>643</ele>
        <time>2022-07-17T06:44:19Z</time>
      </trkpt>
      <trkpt lat="45.25207" lon="6.41009">
        <ele>643.2</ele>
        <time>2022-07-17T06:44:20Z</time>
      </trkpt>
      <trkpt lat="45.25205" lon="6.41015">
        <ele>643.4</ele>
        <time>2022-07-17T06:44:21Z</time>
      </trkpt>
      <trkpt lat="45.25203" lon="6.41021">
        <ele>643.4</ele>
        <time>2022-07-17T06:44:22Z</time>
      </trkpt>
      <trkpt lat="45.25201" lon="6.41027">
        <ele>643.8</ele>
        <time>2022-07-17T06:44:23Z</time>
      </trkpt>
      <trkpt lat="45.25199" lon="6.41033">
        <ele>643.8</ele>
        <time>2022-07-17T06:44:24Z</time>
      </trkpt>
      <trkpt lat="45.25197" lon="6.41039">
        <ele>644.2</ele>
        <time>2022-07-17T06:44:25Z</time>
      </trkpt>
      <trkpt lat="45.25196" lon="6.41045">
        <ele>644.4</ele>
        <time>2022-07-17T06:44:26Z</time>
      </trkpt>
      <trkpt lat="45.25194" lon="6.41051">
        <ele>644.4</ele>
        <time>2022-07-17T06:44:27Z</time>
      </trkpt>
      <trkpt lat="45.25192" lon="6.41056">
        <ele>644.8</ele>
        <time>2022-07-17T06:44:28Z</time>
      </trkpt>
      <trkpt lat="45.2519" lon="6.41062">
        <ele>645</ele>
        <time>2022-07-17T06:44:29Z</time>
      </trkpt>
      <trkpt lat="45.25188" lon="6.41068">
        <ele>645</ele>
        <time>2022-07-17T06:44:30Z</time>
      </trkpt>
      <trkpt lat="45.25186" lon="6.41073">
        <ele>645.4</ele>
        <time>2022-07-17T06:44:31Z</time>
      </trkpt>
      <trkpt lat="45.25184" lon="6.41079">
        <ele>645.6</ele>
        <time>2022-07-17T06:44:32Z</time>
      </trkpt>
      <trkpt lat="45.25181" lon="6.41084">
        <ele>645.6</ele>
        <time>2022-07-17T06:44:33Z</time>
      </trkpt>
      <trkpt lat="45.25179" lon="6.4109">
        <ele>646</ele>
        <time>2022-07-17T06:44:34Z</time>
      </trkpt>
      <trkpt lat="45.25177" lon="6.41095">
        <ele>646</ele>
        <time>2022-07-17T06:44:35Z</time>
      </trkpt>
      <trkpt lat="45.25175" lon="6.411">
        <ele>646.4</ele>
        <time>2022-07-17T06:44:36Z</time>
      </trkpt>
      <trkpt lat="45.25172" lon="6.41106">
        <ele>646.4</ele>
        <time>2022-07-17T06:44:37Z</time>
      </trkpt>
      <trkpt lat="45.2517" lon="6.41111">
        <ele>646.8</ele>
        <time>2022-07-17T06:44:38Z</time>
      </trkpt>
      <trkpt lat="45.25167" lon="6.41117">
        <ele>646.8</ele>
        <time>2022-07-17T06:44:39Z</time>
      </trkpt>
      <trkpt lat="45.25165" lon="6.41122">
        <ele>647.2</ele>
        <time>2022-07-17T06:44:40Z</time>
      </trkpt>
      <trkpt lat="45.25162" lon="6.41128">
        <ele>647.2</ele>
        <time>2022-07-17T06:44:41Z</time>
      </trkpt>
      <trkpt lat="45.25159" lon="6.41134">
        <ele>647.6</ele>
        <time>2022-07-17T06:44:42Z</time>
      </trkpt>
      <trkpt lat="45.25157" lon="6.41139">
        <ele>647.8</ele>
        <time>2022-07-17T06:44:43Z</time>
      </trkpt>
      <trkpt lat="45.25154" lon="6.41145">
        <ele>648.4</ele>
        <time>2022-07-17T06:44:45Z</time>
      </trkpt>
      <trkpt lat="45.25151" lon="6.4115">
        <ele>648.6</ele>
        <time>2022-07-17T06:44:46Z</time>
      </trkpt>
      <trkpt lat="45.25149" lon="6.41155">
        <ele>648.6</ele>
        <time>2022-07-17T06:44:47Z</time>
      </trkpt>
      <trkpt lat="45.25146" lon="6.41161">
        <ele>649</ele>
        <time>2022-07-17T06:44:48Z</time>
      </trkpt>
      <trkpt lat="45.25144" lon="6.41165">
        <ele>649.2</ele>
        <time>2022-07-17T06:44:49Z</time>
      </trkpt>
      <trkpt lat="45.25141" lon="6.4117">
        <ele>649.2</ele>
        <time>2022-07-17T06:44:50Z</time>
      </trkpt>
      <trkpt lat="45.25139" lon="6.41175">
        <ele>649.4</ele>
        <time>2022-07-17T06:44:51Z</time>
      </trkpt>
      <trkpt lat="45.25136" lon="6.41181">
        <ele>649.8</ele>
        <time>2022-07-17T06:44:52Z</time>
      </trkpt>
      <trkpt lat="45.25134" lon="6.41186">
        <ele>650</ele>
        <time>2022-07-17T06:44:53Z</time>
      </trkpt>
      <trkpt lat="45.25132" lon="6.41191">
        <ele>650</ele>
        <time>2022-07-17T06:44:54Z</time>
      </trkpt>
      <trkpt lat="45.25129" lon="6.41196">
        <ele>650.4</ele>
        <time>2022-07-17T06:44:55Z</time>
      </trkpt>
      <trkpt lat="45.25127" lon="6.41201">
        <ele>650.4</ele>
        <time>2022-07-17T06:44:56Z</time>
      </trkpt>
      <trkpt lat="45.25124" lon="6.41206">
        <ele>650.6</ele>
        <time>2022-07-17T06:44:57Z</time>
      </trkpt>
      <trkpt lat="45.25122" lon="6.41211">
        <ele>650.8</ele>
        <time>2022-07-17T06:44:58Z</time>
      </trkpt>
      <trkpt lat="45.2512" lon="6.41216">
        <ele>650.8</ele>
        <time>2022-07-17T06:44:59Z</time>
      </trkpt>
      <trkpt lat="45.25117" lon="6.41221">
        <ele>651.2</ele>
        <time>2022-07-17T06:45:00Z</time>
      </trkpt>
      <trkpt lat="45.25115" lon="6.41226">
        <ele>651.2</ele>
        <time>2022-07-17T06:45:01Z</time>
      </trkpt>
      <trkpt lat="45.25112" lon="6.41231">
        <ele>651.4</ele>
        <time>2022-07-17T06:45:02Z</time>
      </trkpt>
      <trkpt lat="45.2511" lon="6.41236">
        <ele>651.4</ele>
        <time>2022-07-17T06:45:03Z</time>
      </trkpt>
      <trkpt lat="45.25107" lon="6.41241">
        <ele>651.8</ele>
        <time>2022-07-17T06:45:04Z</time>
      </trkpt>
      <trkpt lat="45.25105" lon="6.41247">
        <ele>651.8</ele>
        <time>2022-07-17T06:45:05Z</time>
      </trkpt>
      <trkpt lat="45.25102" lon="6.41252">
        <ele>652.2</ele>
        <time>2022-07-17T06:45:06Z</time>
      </trkpt>
      <trkpt lat="45.251" lon="6.41257">
        <ele>652.2</ele>
        <time>2022-07-17T06:45:07Z</time>
      </trkpt>
      <trkpt lat="45.25097" lon="6.41262">
        <ele>652.4</ele>
        <time>2022-07-17T06:45:08Z</time>
      </trkpt>
      <trkpt lat="45.25094" lon="6.41268">
        <ele>652.4</ele>
        <time>2022-07-17T06:45:09Z</time>
      </trkpt>
      <trkpt lat="45.25092" lon="6.41273">
        <ele>652.6</ele>
        <time>2022-07-17T06:45:10Z</time>
      </trkpt>
      <trkpt lat="45.25089" lon="6.41278">
        <ele>652.6</ele>
        <time>2022-07-17T06:45:11Z</time>
      </trkpt>
      <trkpt lat="45.25087" lon="6.41284">
        <ele>653</ele>
        <time>2022-07-17T06:45:12Z</time>
      </trkpt>
      <trkpt lat="45.25084" lon="6.41289">
        <ele>653.2</ele>
        <time>2022-07-17T06:45:13Z</time>
      </trkpt>
      <trkpt lat="45.25082" lon="6.41294">
        <ele>653.4</ele>
        <time>2022-07-17T06:45:14Z</time>
      </trkpt>
      <trkpt lat="45.25079" lon="6.41299">
        <ele>653.8</ele>
        <time>2022-07-17T06:45:15Z</time>
      </trkpt>
      <trkpt lat="45.25077" lon="6.41304">
        <ele>654</ele>
        <time>2022-07-17T06:45:16Z</time>
      </trkpt>
      <trkpt lat="45.25074" lon="6.41309">
        <ele>654</ele>
        <time>2022-07-17T06:45:17Z</time>
      </trkpt>
      <trkpt lat="45.25072" lon="6.41314">
        <ele>654.2</ele>
        <time>2022-07-17T06:45:18Z</time>
      </trkpt>
      <trkpt lat="45.25069" lon="6.41319">
        <ele>654.2</ele>
        <time>2022-07-17T06:45:19Z</time>
      </trkpt>
      <trkpt lat="45.25067" lon="6.41323">
        <ele>654.6</ele>
        <time>2022-07-17T06:45:20Z</time>
      </trkpt>
      <trkpt lat="45.25065" lon="6.41328">
        <ele>654.6</ele>
        <time>2022-07-17T06:45:21Z</time>
      </trkpt>
      <trkpt lat="45.25062" lon="6.41333">
        <ele>655</ele>
        <time>2022-07-17T06:45:22Z</time>
      </trkpt>
      <trkpt lat="45.2506" lon="6.41339">
        <ele>655</ele>
        <time>2022-07-17T06:45:23Z</time>
      </trkpt>
      <trkpt lat="45.25057" lon="6.41343">
        <ele>655.4</ele>
        <time>2022-07-17T06:45:24Z</time>
      </trkpt>
      <trkpt lat="45.25055" lon="6.41348">
        <ele>655.6</ele>
        <time>2022-07-17T06:45:25Z</time>
      </trkpt>
      <trkpt lat="45.25053" lon="6.41354">
        <ele>655.8</ele>
        <time>2022-07-17T06:45:26Z</time>
      </trkpt>
      <trkpt lat="45.2505" lon="6.41359">
        <ele>656</ele>
        <time>2022-07-17T06:45:27Z</time>
      </trkpt>
      <trkpt lat="45.25047" lon="6.41365">
        <ele>656.4</ele>
        <time>2022-07-17T06:45:28Z</time>
      </trkpt>
      <trkpt lat="45.25045" lon="6.4137">
        <ele>656.6</ele>
        <time>2022-07-17T06:45:29Z</time>
      </trkpt>
      <trkpt lat="45.25042" lon="6.41376">
        <ele>656.8</ele>
        <time>2022-07-17T06:45:30Z</time>
      </trkpt>
      <trkpt lat="45.2504" lon="6.41381">
        <ele>657</ele>
        <time>2022-07-17T06:45:31Z</time>
      </trkpt>
      <trkpt lat="45.25037" lon="6.41386">
        <ele>657</ele>
        <time>2022-07-17T06:45:32Z</time>
      </trkpt>
      <trkpt lat="45.25035" lon="6.41392">
        <ele>657.6</ele>
        <time>2022-07-17T06:45:33Z</time>
      </trkpt>
      <trkpt lat="45.25032" lon="6.41397">
        <ele>657.6</ele>
        <time>2022-07-17T06:45:34Z</time>
      </trkpt>
      <trkpt lat="45.2503" lon="6.41402">
        <ele>657.8</ele>
        <time>2022-07-17T06:45:35Z</time>
      </trkpt>
      <trkpt lat="45.25028" lon="6.41407">
        <ele>657.8</ele>
        <time>2022-07-17T06:45:36Z</time>
      </trkpt>
      <trkpt lat="45.25025" lon="6.41412">
        <ele>657.8</ele>
        <time>2022-07-17T06:45:37Z</time>
      </trkpt>
      <trkpt lat="45.25023" lon="6.41417">
        <ele>658.2</ele>
        <time>2022-07-17T06:45:38Z</time>
      </trkpt>
      <trkpt lat="45.2502" lon="6.41422">
        <ele>658.6</ele>
        <time>2022-07-17T06:45:39Z</time>
      </trkpt>
      <trkpt lat="45.25018" lon="6.41427">
        <ele>658.6</ele>
        <time>2022-07-17T06:45:40Z</time>
      </trkpt>
      <trkpt lat="45.25015" lon="6.41432">
        <ele>658.8</ele>
        <time>2022-07-17T06:45:41Z</time>
      </trkpt>
      <trkpt lat="45.25013" lon="6.41437">
        <ele>658.8</ele>
        <time>2022-07-17T06:45:42Z</time>
      </trkpt>
      <trkpt lat="45.25011" lon="6.41442">
        <ele>659.2</ele>
        <time>2022-07-17T06:45:43Z</time>
      </trkpt>
      <trkpt lat="45.25008" lon="6.41447">
        <ele>659.2</ele>
        <time>2022-07-17T06:45:44Z</time>
      </trkpt>
      <trkpt lat="45.25006" lon="6.41452">
        <ele>659.6</ele>
        <time>2022-07-17T06:45:45Z</time>
      </trkpt>
      <trkpt lat="45.25004" lon="6.41458">
        <ele>659.6</ele>
        <time>2022-07-17T06:45:46Z</time>
      </trkpt>
      <trkpt lat="45.25001" lon="6.41463">
        <ele>659.8</ele>
        <time>2022-07-17T06:45:47Z</time>
      </trkpt>
      <trkpt lat="45.24999" lon="6.41468">
        <ele>659.8</ele>
        <time>2022-07-17T06:45:48Z</time>
      </trkpt>
      <trkpt lat="45.24996" lon="6.41474">
        <ele>660.2</ele>
        <time>2022-07-17T06:45:49Z</time>
      </trkpt>
      <trkpt lat="45.24994" lon="6.41479">
        <ele>660.2</ele>
        <time>2022-07-17T06:45:50Z</time>
      </trkpt>
      <trkpt lat="45.24991" lon="6.41484">
        <ele>660.4</ele>
        <time>2022-07-17T06:45:51Z</time>
      </trkpt>
      <trkpt lat="45.24988" lon="6.41489">
        <ele>660.4</ele>
        <time>2022-07-17T06:45:52Z</time>
      </trkpt>
      <trkpt lat="45.24986" lon="6.41494">
        <ele>660.8</ele>
        <time>2022-07-17T06:45:53Z</time>
      </trkpt>
      <trkpt lat="45.24983" lon="6.415">
        <ele>660.8</ele>
        <time>2022-07-17T06:45:54Z</time>
      </trkpt>
      <trkpt lat="45.24981" lon="6.41505">
        <ele>661</ele>
        <time>2022-07-17T06:45:55Z</time>
      </trkpt>
      <trkpt lat="45.24978" lon="6.41511">
        <ele>661</ele>
        <time>2022-07-17T06:45:56Z</time>
      </trkpt>
      <trkpt lat="45.24975" lon="6.41517">
        <ele>661.2</ele>
        <time>2022-07-17T06:45:57Z</time>
      </trkpt>
      <trkpt lat="45.24973" lon="6.41523">
        <ele>661.2</ele>
        <time>2022-07-17T06:45:58Z</time>
      </trkpt>
      <trkpt lat="45.2497" lon="6.41528">
        <ele>661.6</ele>
        <time>2022-07-17T06:45:59Z</time>
      </trkpt>
      <trkpt lat="45.24967" lon="6.41534">
        <ele>661.6</ele>
        <time>2022-07-17T06:46:00Z</time>
      </trkpt>
      <trkpt lat="45.24964" lon="6.4154">
        <ele>661.8</ele>
        <time>2022-07-17T06:46:01Z</time>
      </trkpt>
      <trkpt lat="45.24961" lon="6.41547">
        <ele>661.8</ele>
        <time>2022-07-17T06:46:02Z</time>
      </trkpt>
      <trkpt lat="45.24958" lon="6.41553">
        <ele>662</ele>
        <time>2022-07-17T06:46:03Z</time>
      </trkpt>
      <trkpt lat="45.24955" lon="6.41559">
        <ele>662</ele>
        <time>2022-07-17T06:46:04Z</time>
      </trkpt>
      <trkpt lat="45.24952" lon="6.41565">
        <ele>662.4</ele>
        <time>2022-07-17T06:46:05Z</time>
      </trkpt>
      <trkpt lat="45.24949" lon="6.41572">
        <ele>662.4</ele>
        <time>2022-07-17T06:46:06Z</time>
      </trkpt>
      <trkpt lat="45.24946" lon="6.41578">
        <ele>662.8</ele>
        <time>2022-07-17T06:46:07Z</time>
      </trkpt>
      <trkpt lat="45.24943" lon="6.41584">
        <ele>662.8</ele>
        <time>2022-07-17T06:46:08Z</time>
      </trkpt>
      <trkpt lat="45.2494" lon="6.4159">
        <ele>663</ele>
        <time>2022-07-17T06:46:09Z</time>
      </trkpt>
      <trkpt lat="45.24938" lon="6.41596">
        <ele>663</ele>
        <time>2022-07-17T06:46:10Z</time>
      </trkpt>
      <trkpt lat="45.24935" lon="6.41602">
        <ele>663.2</ele>
        <time>2022-07-17T06:46:11Z</time>
      </trkpt>
      <trkpt lat="45.24932" lon="6.41608">
        <ele>663.2</ele>
        <time>2022-07-17T06:46:12Z</time>
      </trkpt>
      <trkpt lat="45.24929" lon="6.41614">
        <ele>663.2</ele>
        <time>2022-07-17T06:46:13Z</time>
      </trkpt>
      <trkpt lat="45.24926" lon="6.41621">
        <ele>663.6</ele>
        <time>2022-07-17T06:46:14Z</time>
      </trkpt>
      <trkpt lat="45.24924" lon="6.41627">
        <ele>663.6</ele>
        <time>2022-07-17T06:46:15Z</time>
      </trkpt>
      <trkpt lat="45.24921" lon="6.41633">
        <ele>663.8</ele>
        <time>2022-07-17T06:46:16Z</time>
      </trkpt>
      <trkpt lat="45.24918" lon="6.41638">
        <ele>663.8</ele>
        <time>2022-07-17T06:46:17Z</time>
      </trkpt>
      <trkpt lat="45.24916" lon="6.41644">
        <ele>664.2</ele>
        <time>2022-07-17T06:46:18Z</time>
      </trkpt>
      <trkpt lat="45.24913" lon="6.4165">
        <ele>664.2</ele>
        <time>2022-07-17T06:46:19Z</time>
      </trkpt>
      <trkpt lat="45.2491" lon="6.41656">
        <ele>664.2</ele>
        <time>2022-07-17T06:46:20Z</time>
      </trkpt>
      <trkpt lat="45.24907" lon="6.41662">
        <ele>664.4</ele>
        <time>2022-07-17T06:46:21Z</time>
      </trkpt>
      <trkpt lat="45.24905" lon="6.41668">
        <ele>664.4</ele>
        <time>2022-07-17T06:46:22Z</time>
      </trkpt>
      <trkpt lat="45.24902" lon="6.41674">
        <ele>664.4</ele>
        <time>2022-07-17T06:46:23Z</time>
      </trkpt>
      <trkpt lat="45.24899" lon="6.4168">
        <ele>664.6</ele>
        <time>2022-07-17T06:46:24Z</time>
      </trkpt>
      <trkpt lat="45.24896" lon="6.41686">
        <ele>664.6</ele>
        <time>2022-07-17T06:46:25Z</time>
      </trkpt>
      <trkpt lat="45.24893" lon="6.41693">
        <ele>664.6</ele>
        <time>2022-07-17T06:46:26Z</time>
      </trkpt>
      <trkpt lat="45.2489" lon="6.41699">
        <ele>665</ele>
        <time>2022-07-17T06:46:27Z</time>
      </trkpt>
      <trkpt lat="45.24888" lon="6.41705">
        <ele>665</ele>
        <time>2022-07-17T06:46:28Z</time>
      </trkpt>
      <trkpt lat="45.24885" lon="6.41711">
        <ele>665</ele>
        <time>2022-07-17T06:46:29Z</time>
      </trkpt>
      <trkpt lat="45.24882" lon="6.41717">
        <ele>665</ele>
        <time>2022-07-17T06:46:30Z</time>
      </trkpt>
      <trkpt lat="45.24879" lon="6.41724">
        <ele>665.2</ele>
        <time>2022-07-17T06:46:31Z</time>
      </trkpt>
      <trkpt lat="45.24877" lon="6.4173">
        <ele>665.2</ele>
        <time>2022-07-17T06:46:32Z</time>
      </trkpt>
      <trkpt lat="45.24874" lon="6.41736">
        <ele>665.2</ele>
        <time>2022-07-17T06:46:33Z</time>
      </trkpt>
      <trkpt lat="45.24871" lon="6.41742">
        <ele>665.2</ele>
        <time>2022-07-17T06:46:34Z</time>
      </trkpt>
      <trkpt lat="45.24868" lon="6.41749">
        <ele>665.4</ele>
        <time>2022-07-17T06:46:35Z</time>
      </trkpt>
      <trkpt lat="45.24866" lon="6.41755">
        <ele>665.4</ele>
        <time>2022-07-17T06:46:36Z</time>
      </trkpt>
      <trkpt lat="45.24863" lon="6.41762">
        <ele>665.4</ele>
        <time>2022-07-17T06:46:37Z</time>
      </trkpt>
      <trkpt lat="45.2486" lon="6.41768">
        <ele>665.4</ele>
        <time>2022-07-17T06:46:38Z</time>
      </trkpt>
      <trkpt lat="45.24858" lon="6.41775">
        <ele>665.4</ele>
        <time>2022-07-17T06:46:39Z</time>
      </trkpt>
      <trkpt lat="45.24855" lon="6.41782">
        <ele>665.6</ele>
        <time>2022-07-17T06:46:40Z</time>
      </trkpt>
      <trkpt lat="45.24852" lon="6.41789">
        <ele>665.6</ele>
        <time>2022-07-17T06:46:41Z</time>
      </trkpt>
      <trkpt lat="45.2485" lon="6.41795">
        <ele>665.6</ele>
        <time>2022-07-17T06:46:42Z</time>
      </trkpt>
      <trkpt lat="45.24847" lon="6.41802">
        <ele>665.6</ele>
        <time>2022-07-17T06:46:43Z</time>
      </trkpt>
      <trkpt lat="45.24844" lon="6.41809">
        <ele>665.6</ele>
        <time>2022-07-17T06:46:44Z</time>
      </trkpt>
      <trkpt lat="45.24842" lon="6.41817">
        <ele>665.6</ele>
        <time>2022-07-17T06:46:45Z</time>
      </trkpt>
      <trkpt lat="45.24839" lon="6.41824">
        <ele>665.6</ele>
        <time>2022-07-17T06:46:46Z</time>
      </trkpt>
      <trkpt lat="45.24836" lon="6.41831">
        <ele>665.6</ele>
        <time>2022-07-17T06:46:47Z</time>
      </trkpt>
      <trkpt lat="45.24834" lon="6.41839">
        <ele>665.6</ele>
        <time>2022-07-17T06:46:48Z</time>
      </trkpt>
      <trkpt lat="45.24831" lon="6.41847">
        <ele>665.6</ele>
        <time>2022-07-17T06:46:49Z</time>
      </trkpt>
      <trkpt lat="45.24829" lon="6.41855">
        <ele>665.6</ele>
        <time>2022-07-17T06:46:50Z</time>
      </trkpt>
      <trkpt lat="45.24826" lon="6.41862">
        <ele>665.4</ele>
        <time>2022-07-17T06:46:51Z</time>
      </trkpt>
      <trkpt lat="45.24823" lon="6.4187">
        <ele>665.4</ele>
        <time>2022-07-17T06:46:52Z</time>
      </trkpt>
      <trkpt lat="45.2482" lon="6.41878">
        <ele>665.4</ele>
        <time>2022-07-17T06:46:53Z</time>
      </trkpt>
      <trkpt lat="45.24818" lon="6.41886">
        <ele>665.4</ele>
        <time>2022-07-17T06:46:54Z</time>
      </trkpt>
      <trkpt lat="45.24815" lon="6.41895">
        <ele>665.4</ele>
        <time>2022-07-17T06:46:55Z</time>
      </trkpt>
      <trkpt lat="45.24812" lon="6.41904">
        <ele>665.4</ele>
        <time>2022-07-17T06:46:56Z</time>
      </trkpt>
      <trkpt lat="45.2481" lon="6.41913">
        <ele>665.2</ele>
        <time>2022-07-17T06:46:57Z</time>
      </trkpt>
      <trkpt lat="45.24807" lon="6.41922">
        <ele>665.2</ele>
        <time>2022-07-17T06:46:58Z</time>
      </trkpt>
      <trkpt lat="45.24804" lon="6.41931">
        <ele>665.2</ele>
        <time>2022-07-17T06:46:59Z</time>
      </trkpt>
      <trkpt lat="45.24801" lon="6.4194">
        <ele>665</ele>
        <time>2022-07-17T06:47:00Z</time>
      </trkpt>
      <trkpt lat="45.24799" lon="6.41948">
        <ele>665</ele>
        <time>2022-07-17T06:47:01Z</time>
      </trkpt>
      <trkpt lat="45.24796" lon="6.41957">
        <ele>665</ele>
        <time>2022-07-17T06:47:02Z</time>
      </trkpt>
      <trkpt lat="45.24794" lon="6.41966">
        <ele>665</ele>
        <time>2022-07-17T06:47:03Z</time>
      </trkpt>
      <trkpt lat="45.24791" lon="6.41975">
        <ele>665</ele>
        <time>2022-07-17T06:47:04Z</time>
      </trkpt>
      <trkpt lat="45.24788" lon="6.41984">
        <ele>665</ele>
        <time>2022-07-17T06:47:05Z</time>
      </trkpt>
      <trkpt lat="45.24786" lon="6.41993">
        <ele>665</ele>
        <time>2022-07-17T06:47:06Z</time>
      </trkpt>
      <trkpt lat="45.24783" lon="6.42002">
        <ele>665</ele>
        <time>2022-07-17T06:47:07Z</time>
      </trkpt>
      <trkpt lat="45.2478" lon="6.42011">
        <ele>664.6</ele>
        <time>2022-07-17T06:47:08Z</time>
      </trkpt>
      <trkpt lat="45.24778" lon="6.42021">
        <ele>664.6</ele>
        <time>2022-07-17T06:47:09Z</time>
      </trkpt>
      <trkpt lat="45.24772" lon="6.42039">
        <ele>664.6</ele>
        <time>2022-07-17T06:47:10Z</time>
      </trkpt>
      <trkpt lat="45.2477" lon="6.42048">
        <ele>664.4</ele>
        <time>2022-07-17T06:47:11Z</time>
      </trkpt>
      <trkpt lat="45.24767" lon="6.42057">
        <ele>664.4</ele>
        <time>2022-07-17T06:47:12Z</time>
      </trkpt>
      <trkpt lat="45.24765" lon="6.42066">
        <ele>664.4</ele>
        <time>2022-07-17T06:47:13Z</time>
      </trkpt>
      <trkpt lat="45.24762" lon="6.42075">
        <ele>664</ele>
        <time>2022-07-17T06:47:14Z</time>
      </trkpt>
      <trkpt lat="45.24759" lon="6.42084">
        <ele>664</ele>
        <time>2022-07-17T06:47:15Z</time>
      </trkpt>
      <trkpt lat="45.24757" lon="6.42093">
        <ele>663.8</ele>
        <time>2022-07-17T06:47:16Z</time>
      </trkpt>
      <trkpt lat="45.24754" lon="6.42102">
        <ele>663.8</ele>
        <time>2022-07-17T06:47:17Z</time>
      </trkpt>
      <trkpt lat="45.24752" lon="6.42111">
        <ele>663.8</ele>
        <time>2022-07-17T06:47:18Z</time>
      </trkpt>
      <trkpt lat="45.24749" lon="6.4212">
        <ele>663.8</ele>
        <time>2022-07-17T06:47:19Z</time>
      </trkpt>
      <trkpt lat="45.24746" lon="6.4213">
        <ele>663.8</ele>
        <time>2022-07-17T06:47:20Z</time>
      </trkpt>
      <trkpt lat="45.24743" lon="6.42139">
        <ele>663.8</ele>
        <time>2022-07-17T06:47:21Z</time>
      </trkpt>
      <trkpt lat="45.24741" lon="6.42149">
        <ele>663.6</ele>
        <time>2022-07-17T06:47:22Z</time>
      </trkpt>
      <trkpt lat="45.24738" lon="6.42159">
        <ele>663.6</ele>
        <time>2022-07-17T06:47:23Z</time>
      </trkpt>
      <trkpt lat="45.24735" lon="6.42169">
        <ele>663.6</ele>
        <time>2022-07-17T06:47:24Z</time>
      </trkpt>
      <trkpt lat="45.24732" lon="6.42178">
        <ele>663.6</ele>
        <time>2022-07-17T06:47:25Z</time>
      </trkpt>
      <trkpt lat="45.24729" lon="6.42188">
        <ele>663.6</ele>
        <time>2022-07-17T06:47:26Z</time>
      </trkpt>
      <trkpt lat="45.24726" lon="6.42198">
        <ele>663.6</ele>
        <time>2022-07-17T06:47:27Z</time>
      </trkpt>
      <trkpt lat="45.24723" lon="6.42208">
        <ele>663.4</ele>
        <time>2022-07-17T06:47:28Z</time>
      </trkpt>
      <trkpt lat="45.2472" lon="6.42218">
        <ele>663.4</ele>
        <time>2022-07-17T06:47:29Z</time>
      </trkpt>
      <trkpt lat="45.24717" lon="6.42228">
        <ele>663.4</ele>
        <time>2022-07-17T06:47:30Z</time>
      </trkpt>
      <trkpt lat="45.24714" lon="6.42238">
        <ele>663.2</ele>
        <time>2022-07-17T06:47:31Z</time>
      </trkpt>
      <trkpt lat="45.24712" lon="6.42248">
        <ele>663.2</ele>
        <time>2022-07-17T06:47:32Z</time>
      </trkpt>
      <trkpt lat="45.24709" lon="6.42258">
        <ele>663.2</ele>
        <time>2022-07-17T06:47:33Z</time>
      </trkpt>
      <trkpt lat="45.24706" lon="6.42267">
        <ele>662.8</ele>
        <time>2022-07-17T06:47:34Z</time>
      </trkpt>
      <trkpt lat="45.24703" lon="6.42277">
        <ele>662.8</ele>
        <time>2022-07-17T06:47:35Z</time>
      </trkpt>
      <trkpt lat="45.247" lon="6.42286">
        <ele>662.8</ele>
        <time>2022-07-17T06:47:36Z</time>
      </trkpt>
      <trkpt lat="45.24698" lon="6.42295">
        <ele>662.6</ele>
        <time>2022-07-17T06:47:37Z</time>
      </trkpt>
      <trkpt lat="45.24695" lon="6.42305">
        <ele>662.6</ele>
        <time>2022-07-17T06:47:38Z</time>
      </trkpt>
      <trkpt lat="45.24693" lon="6.42314">
        <ele>662.4</ele>
        <time>2022-07-17T06:47:39Z</time>
      </trkpt>
      <trkpt lat="45.2469" lon="6.42324">
        <ele>662.4</ele>
        <time>2022-07-17T06:47:40Z</time>
      </trkpt>
      <trkpt lat="45.24688" lon="6.42334">
        <ele>662.4</ele>
        <time>2022-07-17T06:47:41Z</time>
      </trkpt>
      <trkpt lat="45.24685" lon="6.42343">
        <ele>662.2</ele>
        <time>2022-07-17T06:47:42Z</time>
      </trkpt>
      <trkpt lat="45.24682" lon="6.42353">
        <ele>662.2</ele>
        <time>2022-07-17T06:47:43Z</time>
      </trkpt>
      <trkpt lat="45.24679" lon="6.42362">
        <ele>662.2</ele>
        <time>2022-07-17T06:47:44Z</time>
      </trkpt>
      <trkpt lat="45.24677" lon="6.42372">
        <ele>662.2</ele>
        <time>2022-07-17T06:47:45Z</time>
      </trkpt>
      <trkpt lat="45.24674" lon="6.42382">
        <ele>662.2</ele>
        <time>2022-07-17T06:47:46Z</time>
      </trkpt>
      <trkpt lat="45.24671" lon="6.42391">
        <ele>662.2</ele>
        <time>2022-07-17T06:47:47Z</time>
      </trkpt>
      <trkpt lat="45.24668" lon="6.42401">
        <ele>661.8</ele>
        <time>2022-07-17T06:47:48Z</time>
      </trkpt>
      <trkpt lat="45.24665" lon="6.4241">
        <ele>661.8</ele>
        <time>2022-07-17T06:47:49Z</time>
      </trkpt>
      <trkpt lat="45.24663" lon="6.42419">
        <ele>661.8</ele>
        <time>2022-07-17T06:47:50Z</time>
      </trkpt>
      <trkpt lat="45.2466" lon="6.42429">
        <ele>661.8</ele>
        <time>2022-07-17T06:47:51Z</time>
      </trkpt>
      <trkpt lat="45.24657" lon="6.42438">
        <ele>661.6</ele>
        <time>2022-07-17T06:47:52Z</time>
      </trkpt>
      <trkpt lat="45.24654" lon="6.42447">
        <ele>661.6</ele>
        <time>2022-07-17T06:47:53Z</time>
      </trkpt>
      <trkpt lat="45.24652" lon="6.42456">
        <ele>661.4</ele>
        <time>2022-07-17T06:47:54Z</time>
      </trkpt>
      <trkpt lat="45.24649" lon="6.42466">
        <ele>661.4</ele>
        <time>2022-07-17T06:47:55Z</time>
      </trkpt>
      <trkpt lat="45.24646" lon="6.42476">
        <ele>661.4</ele>
        <time>2022-07-17T06:47:56Z</time>
      </trkpt>
      <trkpt lat="45.24644" lon="6.42486">
        <ele>661.2</ele>
        <time>2022-07-17T06:47:57Z</time>
      </trkpt>
      <trkpt lat="45.24641" lon="6.42496">
        <ele>661.2</ele>
        <time>2022-07-17T06:47:58Z</time>
      </trkpt>
      <trkpt lat="45.24638" lon="6.42506">
        <ele>661.2</ele>
        <time>2022-07-17T06:47:59Z</time>
      </trkpt>
      <trkpt lat="45.24635" lon="6.42516">
        <ele>661.2</ele>
        <time>2022-07-17T06:48:00Z</time>
      </trkpt>
      <trkpt lat="45.24632" lon="6.42526">
        <ele>660.8</ele>
        <time>2022-07-17T06:48:01Z</time>
      </trkpt>
      <trkpt lat="45.24629" lon="6.42536">
        <ele>660.8</ele>
        <time>2022-07-17T06:48:02Z</time>
      </trkpt>
      <trkpt lat="45.24626" lon="6.42546">
        <ele>660.4</ele>
        <time>2022-07-17T06:48:03Z</time>
      </trkpt>
      <trkpt lat="45.24624" lon="6.42556">
        <ele>660.4</ele>
        <time>2022-07-17T06:48:04Z</time>
      </trkpt>
      <trkpt lat="45.24621" lon="6.42566">
        <ele>660.4</ele>
        <time>2022-07-17T06:48:05Z</time>
      </trkpt>
      <trkpt lat="45.24618" lon="6.42576">
        <ele>660.2</ele>
        <time>2022-07-17T06:48:06Z</time>
      </trkpt>
      <trkpt lat="45.24615" lon="6.42585">
        <ele>660.2</ele>
        <time>2022-07-17T06:48:07Z</time>
      </trkpt>
      <trkpt lat="45.24612" lon="6.42595">
        <ele>660.2</ele>
        <time>2022-07-17T06:48:08Z</time>
      </trkpt>
      <trkpt lat="45.24609" lon="6.42604">
        <ele>660</ele>
        <time>2022-07-17T06:48:09Z</time>
      </trkpt>
      <trkpt lat="45.24607" lon="6.42613">
        <ele>660</ele>
        <time>2022-07-17T06:48:10Z</time>
      </trkpt>
      <trkpt lat="45.24604" lon="6.42623">
        <ele>660</ele>
        <time>2022-07-17T06:48:11Z</time>
      </trkpt>
      <trkpt lat="45.24601" lon="6.42632">
        <ele>660</ele>
        <time>2022-07-17T06:48:12Z</time>
      </trkpt>
      <trkpt lat="45.24598" lon="6.42642">
        <ele>660</ele>
        <time>2022-07-17T06:48:13Z</time>
      </trkpt>
      <trkpt lat="45.24596" lon="6.42651">
        <ele>660</ele>
        <time>2022-07-17T06:48:14Z</time>
      </trkpt>
      <trkpt lat="45.24593" lon="6.4266">
        <ele>660</ele>
        <time>2022-07-17T06:48:15Z</time>
      </trkpt>
      <trkpt lat="45.2459" lon="6.42669">
        <ele>660</ele>
        <time>2022-07-17T06:48:16Z</time>
      </trkpt>
      <trkpt lat="45.24588" lon="6.42678">
        <ele>660</ele>
        <time>2022-07-17T06:48:17Z</time>
      </trkpt>
      <trkpt lat="45.24585" lon="6.42686">
        <ele>660</ele>
        <time>2022-07-17T06:48:18Z</time>
      </trkpt>
      <trkpt lat="45.24582" lon="6.42695">
        <ele>660.2</ele>
        <time>2022-07-17T06:48:19Z</time>
      </trkpt>
      <trkpt lat="45.2458" lon="6.42704">
        <ele>660.2</ele>
        <time>2022-07-17T06:48:20Z</time>
      </trkpt>
      <trkpt lat="45.24577" lon="6.42712">
        <ele>660.2</ele>
        <time>2022-07-17T06:48:21Z</time>
      </trkpt>
      <trkpt lat="45.24574" lon="6.42721">
        <ele>660.2</ele>
        <time>2022-07-17T06:48:22Z</time>
      </trkpt>
      <trkpt lat="45.24572" lon="6.42731">
        <ele>660.4</ele>
        <time>2022-07-17T06:48:23Z</time>
      </trkpt>
      <trkpt lat="45.24569" lon="6.4274">
        <ele>660.4</ele>
        <time>2022-07-17T06:48:24Z</time>
      </trkpt>
      <trkpt lat="45.24567" lon="6.42749">
        <ele>660.4</ele>
        <time>2022-07-17T06:48:25Z</time>
      </trkpt>
      <trkpt lat="45.24564" lon="6.42758">
        <ele>660.4</ele>
        <time>2022-07-17T06:48:26Z</time>
      </trkpt>
      <trkpt lat="45.24561" lon="6.42767">
        <ele>660.6</ele>
        <time>2022-07-17T06:48:27Z</time>
      </trkpt>
      <trkpt lat="45.24559" lon="6.42776">
        <ele>660.6</ele>
        <time>2022-07-17T06:48:28Z</time>
      </trkpt>
      <trkpt lat="45.24556" lon="6.42785">
        <ele>660.6</ele>
        <time>2022-07-17T06:48:29Z</time>
      </trkpt>
      <trkpt lat="45.24554" lon="6.42793">
        <ele>660.6</ele>
        <time>2022-07-17T06:48:30Z</time>
      </trkpt>
      <trkpt lat="45.24551" lon="6.42802">
        <ele>660.6</ele>
        <time>2022-07-17T06:48:31Z</time>
      </trkpt>
      <trkpt lat="45.24549" lon="6.42811">
        <ele>660.8</ele>
        <time>2022-07-17T06:48:32Z</time>
      </trkpt>
      <trkpt lat="45.24546" lon="6.42819">
        <ele>660.8</ele>
        <time>2022-07-17T06:48:33Z</time>
      </trkpt>
      <trkpt lat="45.24544" lon="6.42828">
        <ele>661.2</ele>
        <time>2022-07-17T06:48:34Z</time>
      </trkpt>
      <trkpt lat="45.24542" lon="6.42836">
        <ele>661.2</ele>
        <time>2022-07-17T06:48:35Z</time>
      </trkpt>
      <trkpt lat="45.24539" lon="6.42844">
        <ele>661.2</ele>
        <time>2022-07-17T06:48:36Z</time>
      </trkpt>
      <trkpt lat="45.24537" lon="6.42852">
        <ele>661.4</ele>
        <time>2022-07-17T06:48:37Z</time>
      </trkpt>
      <trkpt lat="45.24534" lon="6.42861">
        <ele>661.4</ele>
        <time>2022-07-17T06:48:38Z</time>
      </trkpt>
      <trkpt lat="45.24531" lon="6.42869">
        <ele>661.4</ele>
        <time>2022-07-17T06:48:39Z</time>
      </trkpt>
      <trkpt lat="45.24529" lon="6.42877">
        <ele>661.4</ele>
        <time>2022-07-17T06:48:40Z</time>
      </trkpt>
      <trkpt lat="45.24526" lon="6.42885">
        <ele>661.4</ele>
        <time>2022-07-17T06:48:41Z</time>
      </trkpt>
      <trkpt lat="45.24523" lon="6.42893">
        <ele>661.6</ele>
        <time>2022-07-17T06:48:42Z</time>
      </trkpt>
      <trkpt lat="45.24521" lon="6.42901">
        <ele>661.6</ele>
        <time>2022-07-17T06:48:43Z</time>
      </trkpt>
      <trkpt lat="45.24518" lon="6.42909">
        <ele>661.6</ele>
        <time>2022-07-17T06:48:44Z</time>
      </trkpt>
      <trkpt lat="45.24515" lon="6.42917">
        <ele>662</ele>
        <time>2022-07-17T06:48:45Z</time>
      </trkpt>
      <trkpt lat="45.24512" lon="6.42925">
        <ele>662</ele>
        <time>2022-07-17T06:48:46Z</time>
      </trkpt>
      <trkpt lat="45.24509" lon="6.42933">
        <ele>662</ele>
        <time>2022-07-17T06:48:47Z</time>
      </trkpt>
      <trkpt lat="45.24506" lon="6.42941">
        <ele>662.2</ele>
        <time>2022-07-17T06:48:48Z</time>
      </trkpt>
      <trkpt lat="45.24503" lon="6.42948">
        <ele>662.2</ele>
        <time>2022-07-17T06:48:49Z</time>
      </trkpt>
      <trkpt lat="45.245" lon="6.42956">
        <ele>662.2</ele>
        <time>2022-07-17T06:48:50Z</time>
      </trkpt>
      <trkpt lat="45.24497" lon="6.42964">
        <ele>662.2</ele>
        <time>2022-07-17T06:48:51Z</time>
      </trkpt>
      <trkpt lat="45.24494" lon="6.42971">
        <ele>662.4</ele>
        <time>2022-07-17T06:48:52Z</time>
      </trkpt>
      <trkpt lat="45.24491" lon="6.42978">
        <ele>662.4</ele>
        <time>2022-07-17T06:48:53Z</time>
      </trkpt>
      <trkpt lat="45.24487" lon="6.42985">
        <ele>662.4</ele>
        <time>2022-07-17T06:48:54Z</time>
      </trkpt>
      <trkpt lat="45.24484" lon="6.42993">
        <ele>662.4</ele>
        <time>2022-07-17T06:48:55Z</time>
      </trkpt>
      <trkpt lat="45.24481" lon="6.43">
        <ele>662.4</ele>
        <time>2022-07-17T06:48:56Z</time>
      </trkpt>
      <trkpt lat="45.24478" lon="6.43007">
        <ele>662.8</ele>
        <time>2022-07-17T06:48:57Z</time>
      </trkpt>
      <trkpt lat="45.24474" lon="6.43015">
        <ele>662.8</ele>
        <time>2022-07-17T06:48:58Z</time>
      </trkpt>
      <trkpt lat="45.24471" lon="6.43022">
        <ele>662.8</ele>
        <time>2022-07-17T06:48:59Z</time>
      </trkpt>
      <trkpt lat="45.24468" lon="6.43029">
        <ele>663</ele>
        <time>2022-07-17T06:49:00Z</time>
      </trkpt>
      <trkpt lat="45.24464" lon="6.43036">
        <ele>663</ele>
        <time>2022-07-17T06:49:01Z</time>
      </trkpt>
      <trkpt lat="45.24461" lon="6.43042">
        <ele>663</ele>
        <time>2022-07-17T06:49:02Z</time>
      </trkpt>
      <trkpt lat="45.24457" lon="6.43049">
        <ele>663</ele>
        <time>2022-07-17T06:49:03Z</time>
      </trkpt>
      <trkpt lat="45.24454" lon="6.43056">
        <ele>663</ele>
        <time>2022-07-17T06:49:04Z</time>
      </trkpt>
      <trkpt lat="45.2445" lon="6.43062">
        <ele>663</ele>
        <time>2022-07-17T06:49:05Z</time>
      </trkpt>
      <trkpt lat="45.24447" lon="6.43069">
        <ele>663</ele>
        <time>2022-07-17T06:49:06Z</time>
      </trkpt>
      <trkpt lat="45.24443" lon="6.43075">
        <ele>663.4</ele>
        <time>2022-07-17T06:49:07Z</time>
      </trkpt>
      <trkpt lat="45.24439" lon="6.43081">
        <ele>663.4</ele>
        <time>2022-07-17T06:49:08Z</time>
      </trkpt>
      <trkpt lat="45.24435" lon="6.43088">
        <ele>663.6</ele>
        <time>2022-07-17T06:49:09Z</time>
      </trkpt>
      <trkpt lat="45.24431" lon="6.43094">
        <ele>663.6</ele>
        <time>2022-07-17T06:49:10Z</time>
      </trkpt>
      <trkpt lat="45.24427" lon="6.43101">
        <ele>663.8</ele>
        <time>2022-07-17T06:49:11Z</time>
      </trkpt>
      <trkpt lat="45.24424" lon="6.43107">
        <ele>663.8</ele>
        <time>2022-07-17T06:49:12Z</time>
      </trkpt>
      <trkpt lat="45.24419" lon="6.43113">
        <ele>663.8</ele>
        <time>2022-07-17T06:49:13Z</time>
      </trkpt>
      <trkpt lat="45.24415" lon="6.43119">
        <ele>663.8</ele>
        <time>2022-07-17T06:49:14Z</time>
      </trkpt>
      <trkpt lat="45.24411" lon="6.43125">
        <ele>663.8</ele>
        <time>2022-07-17T06:49:15Z</time>
      </trkpt>
      <trkpt lat="45.24407" lon="6.43131">
        <ele>663.8</ele>
        <time>2022-07-17T06:49:16Z</time>
      </trkpt>
      <trkpt lat="45.24403" lon="6.43137">
        <ele>663.8</ele>
        <time>2022-07-17T06:49:17Z</time>
      </trkpt>
      <trkpt lat="45.24398" lon="6.43144">
        <ele>663.8</ele>
        <time>2022-07-17T06:49:18Z</time>
      </trkpt>
      <trkpt lat="45.24394" lon="6.4315">
        <ele>663.8</ele>
        <time>2022-07-17T06:49:19Z</time>
      </trkpt>
      <trkpt lat="45.24389" lon="6.43156">
        <ele>663.8</ele>
        <time>2022-07-17T06:49:20Z</time>
      </trkpt>
      <trkpt lat="45.24384" lon="6.43163">
        <ele>663.8</ele>
        <time>2022-07-17T06:49:21Z</time>
      </trkpt>
      <trkpt lat="45.24379" lon="6.43169">
        <ele>663.8</ele>
        <time>2022-07-17T06:49:22Z</time>
      </trkpt>
      <trkpt lat="45.24374" lon="6.43175">
        <ele>663.6</ele>
        <time>2022-07-17T06:49:23Z</time>
      </trkpt>
      <trkpt lat="45.24369" lon="6.43182">
        <ele>663.6</ele>
        <time>2022-07-17T06:49:24Z</time>
      </trkpt>
      <trkpt lat="45.24364" lon="6.43188">
        <ele>663.6</ele>
        <time>2022-07-17T06:49:25Z</time>
      </trkpt>
      <trkpt lat="45.24359" lon="6.43194">
        <ele>663.6</ele>
        <time>2022-07-17T06:49:26Z</time>
      </trkpt>
      <trkpt lat="45.24355" lon="6.432">
        <ele>663.6</ele>
        <time>2022-07-17T06:49:27Z</time>
      </trkpt>
      <trkpt lat="45.2435" lon="6.43205">
        <ele>663.6</ele>
        <time>2022-07-17T06:49:28Z</time>
      </trkpt>
      <trkpt lat="45.24344" lon="6.43211">
        <ele>663.6</ele>
        <time>2022-07-17T06:49:29Z</time>
      </trkpt>
      <trkpt lat="45.24339" lon="6.43217">
        <ele>663.6</ele>
        <time>2022-07-17T06:49:30Z</time>
      </trkpt>
      <trkpt lat="45.24333" lon="6.43223">
        <ele>663.6</ele>
        <time>2022-07-17T06:49:31Z</time>
      </trkpt>
      <trkpt lat="45.24328" lon="6.43229">
        <ele>663.6</ele>
        <time>2022-07-17T06:49:32Z</time>
      </trkpt>
      <trkpt lat="45.24322" lon="6.43235">
        <ele>663.4</ele>
        <time>2022-07-17T06:49:33Z</time>
      </trkpt>
      <trkpt lat="45.24316" lon="6.4324">
        <ele>663.4</ele>
        <time>2022-07-17T06:49:34Z</time>
      </trkpt>
      <trkpt lat="45.24309" lon="6.43246">
        <ele>663.4</ele>
        <time>2022-07-17T06:49:35Z</time>
      </trkpt>
      <trkpt lat="45.24303" lon="6.43252">
        <ele>663</ele>
        <time>2022-07-17T06:49:36Z</time>
      </trkpt>
      <trkpt lat="45.24297" lon="6.43258">
        <ele>663</ele>
        <time>2022-07-17T06:49:37Z</time>
      </trkpt>
      <trkpt lat="45.24291" lon="6.43264">
        <ele>663</ele>
        <time>2022-07-17T06:49:38Z</time>
      </trkpt>
      <trkpt lat="45.24285" lon="6.43269">
        <ele>663</ele>
        <time>2022-07-17T06:49:39Z</time>
      </trkpt>
      <trkpt lat="45.24279" lon="6.43275">
        <ele>663</ele>
        <time>2022-07-17T06:49:40Z</time>
      </trkpt>
      <trkpt lat="45.24273" lon="6.4328">
        <ele>663</ele>
        <time>2022-07-17T06:49:41Z</time>
      </trkpt>
      <trkpt lat="45.24268" lon="6.43286">
        <ele>663</ele>
        <time>2022-07-17T06:49:42Z</time>
      </trkpt>
      <trkpt lat="45.24261" lon="6.4329">
        <ele>663</ele>
        <time>2022-07-17T06:49:43Z</time>
      </trkpt>
      <trkpt lat="45.24255" lon="6.43295">
        <ele>663</ele>
        <time>2022-07-17T06:49:44Z</time>
      </trkpt>
      <trkpt lat="45.24249" lon="6.433">
        <ele>663</ele>
        <time>2022-07-17T06:49:45Z</time>
      </trkpt>
      <trkpt lat="45.24243" lon="6.43306">
        <ele>663</ele>
        <time>2022-07-17T06:49:46Z</time>
      </trkpt>
      <trkpt lat="45.24237" lon="6.43311">
        <ele>663</ele>
        <time>2022-07-17T06:49:47Z</time>
      </trkpt>
      <trkpt lat="45.24231" lon="6.43317">
        <ele>663</ele>
        <time>2022-07-17T06:49:48Z</time>
      </trkpt>
      <trkpt lat="45.24225" lon="6.43322">
        <ele>663</ele>
        <time>2022-07-17T06:49:49Z</time>
      </trkpt>
      <trkpt lat="45.24218" lon="6.43328">
        <ele>662.8</ele>
        <time>2022-07-17T06:49:50Z</time>
      </trkpt>
      <trkpt lat="45.24212" lon="6.43333">
        <ele>662.8</ele>
        <time>2022-07-17T06:49:51Z</time>
      </trkpt>
      <trkpt lat="45.24206" lon="6.43339">
        <ele>662.8</ele>
        <time>2022-07-17T06:49:52Z</time>
      </trkpt>
      <trkpt lat="45.242" lon="6.43344">
        <ele>662.8</ele>
        <time>2022-07-17T06:49:53Z</time>
      </trkpt>
      <trkpt lat="45.24194" lon="6.4335">
        <ele>662.8</ele>
        <time>2022-07-17T06:49:54Z</time>
      </trkpt>
      <trkpt lat="45.24188" lon="6.43355">
        <ele>662.8</ele>
        <time>2022-07-17T06:49:55Z</time>
      </trkpt>
      <trkpt lat="45.24182" lon="6.43361">
        <ele>662.8</ele>
        <time>2022-07-17T06:49:56Z</time>
      </trkpt>
      <trkpt lat="45.24176" lon="6.43366">
        <ele>662.8</ele>
        <time>2022-07-17T06:49:57Z</time>
      </trkpt>
      <trkpt lat="45.2417" lon="6.43371">
        <ele>662.6</ele>
        <time>2022-07-17T06:49:58Z</time>
      </trkpt>
      <trkpt lat="45.24164" lon="6.43376">
        <ele>662.6</ele>
        <time>2022-07-17T06:49:59Z</time>
      </trkpt>
      <trkpt lat="45.24158" lon="6.43382">
        <ele>662.6</ele>
        <time>2022-07-17T06:50:00Z</time>
      </trkpt>
      <trkpt lat="45.24152" lon="6.43387">
        <ele>662.6</ele>
        <time>2022-07-17T06:50:01Z</time>
      </trkpt>
      <trkpt lat="45.24146" lon="6.43393">
        <ele>662.6</ele>
        <time>2022-07-17T06:50:02Z</time>
      </trkpt>
      <trkpt lat="45.2414" lon="6.43398">
        <ele>662.6</ele>
        <time>2022-07-17T06:50:03Z</time>
      </trkpt>
      <trkpt lat="45.24134" lon="6.43404">
        <ele>662.6</ele>
        <time>2022-07-17T06:50:04Z</time>
      </trkpt>
      <trkpt lat="45.24128" lon="6.43409">
        <ele>662.6</ele>
        <time>2022-07-17T06:50:05Z</time>
      </trkpt>
      <trkpt lat="45.24123" lon="6.43414">
        <ele>662.6</ele>
        <time>2022-07-17T06:50:06Z</time>
      </trkpt>
      <trkpt lat="45.24117" lon="6.4342">
        <ele>662.6</ele>
        <time>2022-07-17T06:50:07Z</time>
      </trkpt>
      <trkpt lat="45.24112" lon="6.43425">
        <ele>662.6</ele>
        <time>2022-07-17T06:50:08Z</time>
      </trkpt>
      <trkpt lat="45.24106" lon="6.43431">
        <ele>662.8</ele>
        <time>2022-07-17T06:50:09Z</time>
      </trkpt>
      <trkpt lat="45.24101" lon="6.43436">
        <ele>662.8</ele>
        <time>2022-07-17T06:50:10Z</time>
      </trkpt>
      <trkpt lat="45.24096" lon="6.43441">
        <ele>662.8</ele>
        <time>2022-07-17T06:50:12Z</time>
      </trkpt>
      <trkpt lat="45.2409" lon="6.43446">
        <ele>663</ele>
        <time>2022-07-17T06:50:13Z</time>
      </trkpt>
      <trkpt lat="45.24085" lon="6.43451">
        <ele>663</ele>
        <time>2022-07-17T06:50:14Z</time>
      </trkpt>
      <trkpt lat="45.2408" lon="6.43456">
        <ele>663</ele>
        <time>2022-07-17T06:50:15Z</time>
      </trkpt>
      <trkpt lat="45.24075" lon="6.43461">
        <ele>663</ele>
        <time>2022-07-17T06:50:16Z</time>
      </trkpt>
      <trkpt lat="45.24069" lon="6.43465">
        <ele>663.4</ele>
        <time>2022-07-17T06:50:17Z</time>
      </trkpt>
      <trkpt lat="45.24064" lon="6.4347">
        <ele>663.4</ele>
        <time>2022-07-17T06:50:18Z</time>
      </trkpt>
      <trkpt lat="45.24059" lon="6.43475">
        <ele>663.6</ele>
        <time>2022-07-17T06:50:19Z</time>
      </trkpt>
      <trkpt lat="45.24054" lon="6.4348">
        <ele>663.6</ele>
        <time>2022-07-17T06:50:20Z</time>
      </trkpt>
      <trkpt lat="45.24049" lon="6.43484">
        <ele>664</ele>
        <time>2022-07-17T06:50:21Z</time>
      </trkpt>
      <trkpt lat="45.24044" lon="6.43489">
        <ele>664</ele>
        <time>2022-07-17T06:50:22Z</time>
      </trkpt>
      <trkpt lat="45.24039" lon="6.43494">
        <ele>664.2</ele>
        <time>2022-07-17T06:50:23Z</time>
      </trkpt>
      <trkpt lat="45.24034" lon="6.43498">
        <ele>664.2</ele>
        <time>2022-07-17T06:50:24Z</time>
      </trkpt>
      <trkpt lat="45.24029" lon="6.43503">
        <ele>664.4</ele>
        <time>2022-07-17T06:50:25Z</time>
      </trkpt>
      <trkpt lat="45.24024" lon="6.43507">
        <ele>664.4</ele>
        <time>2022-07-17T06:50:26Z</time>
      </trkpt>
      <trkpt lat="45.24019" lon="6.43512">
        <ele>664.6</ele>
        <time>2022-07-17T06:50:27Z</time>
      </trkpt>
      <trkpt lat="45.24014" lon="6.43516">
        <ele>664.6</ele>
        <time>2022-07-17T06:50:28Z</time>
      </trkpt>
      <trkpt lat="45.2401" lon="6.43521">
        <ele>664.8</ele>
        <time>2022-07-17T06:50:29Z</time>
      </trkpt>
      <trkpt lat="45.24005" lon="6.43525">
        <ele>664.8</ele>
        <time>2022-07-17T06:50:30Z</time>
      </trkpt>
      <trkpt lat="45.24" lon="6.4353">
        <ele>664.8</ele>
        <time>2022-07-17T06:50:31Z</time>
      </trkpt>
      <trkpt lat="45.23996" lon="6.43535">
        <ele>665.2</ele>
        <time>2022-07-17T06:50:32Z</time>
      </trkpt>
      <trkpt lat="45.23991" lon="6.43539">
        <ele>665.2</ele>
        <time>2022-07-17T06:50:33Z</time>
      </trkpt>
      <trkpt lat="45.23986" lon="6.43544">
        <ele>665.2</ele>
        <time>2022-07-17T06:50:34Z</time>
      </trkpt>
      <trkpt lat="45.23982" lon="6.43548">
        <ele>665.4</ele>
        <time>2022-07-17T06:50:35Z</time>
      </trkpt>
      <trkpt lat="45.23977" lon="6.43553">
        <ele>665.4</ele>
        <time>2022-07-17T06:50:36Z</time>
      </trkpt>
      <trkpt lat="45.23972" lon="6.43557">
        <ele>665.4</ele>
        <time>2022-07-17T06:50:37Z</time>
      </trkpt>
      <trkpt lat="45.23967" lon="6.43562">
        <ele>665.6</ele>
        <time>2022-07-17T06:50:38Z</time>
      </trkpt>
      <trkpt lat="45.23962" lon="6.43567">
        <ele>665.6</ele>
        <time>2022-07-17T06:50:39Z</time>
      </trkpt>
      <trkpt lat="45.23957" lon="6.43571">
        <ele>666</ele>
        <time>2022-07-17T06:50:40Z</time>
      </trkpt>
      <trkpt lat="45.23953" lon="6.43576">
        <ele>666</ele>
        <time>2022-07-17T06:50:41Z</time>
      </trkpt>
      <trkpt lat="45.23948" lon="6.4358">
        <ele>666.2</ele>
        <time>2022-07-17T06:50:42Z</time>
      </trkpt>
      <trkpt lat="45.23943" lon="6.43584">
        <ele>666.2</ele>
        <time>2022-07-17T06:50:43Z</time>
      </trkpt>
      <trkpt lat="45.23938" lon="6.43587">
        <ele>666.2</ele>
        <time>2022-07-17T06:50:44Z</time>
      </trkpt>
      <trkpt lat="45.23933" lon="6.43591">
        <ele>666.4</ele>
        <time>2022-07-17T06:50:45Z</time>
      </trkpt>
      <trkpt lat="45.23928" lon="6.43595">
        <ele>666.4</ele>
        <time>2022-07-17T06:50:46Z</time>
      </trkpt>
      <trkpt lat="45.23923" lon="6.43598">
        <ele>666.6</ele>
        <time>2022-07-17T06:50:47Z</time>
      </trkpt>
      <trkpt lat="45.23917" lon="6.436">
        <ele>666.6</ele>
        <time>2022-07-17T06:50:48Z</time>
      </trkpt>
      <trkpt lat="45.23912" lon="6.43604">
        <ele>666.6</ele>
        <time>2022-07-17T06:50:49Z</time>
      </trkpt>
      <trkpt lat="45.23906" lon="6.43607">
        <ele>667</ele>
        <time>2022-07-17T06:50:50Z</time>
      </trkpt>
      <trkpt lat="45.23901" lon="6.4361">
        <ele>667</ele>
        <time>2022-07-17T06:50:51Z</time>
      </trkpt>
      <trkpt lat="45.23895" lon="6.43612">
        <ele>667.2</ele>
        <time>2022-07-17T06:50:52Z</time>
      </trkpt>
      <trkpt lat="45.2389" lon="6.43615">
        <ele>667.2</ele>
        <time>2022-07-17T06:50:53Z</time>
      </trkpt>
      <trkpt lat="45.23884" lon="6.43617">
        <ele>667.6</ele>
        <time>2022-07-17T06:50:54Z</time>
      </trkpt>
      <trkpt lat="45.23879" lon="6.43619">
        <ele>667.6</ele>
        <time>2022-07-17T06:50:55Z</time>
      </trkpt>
      <trkpt lat="45.23873" lon="6.43621">
        <ele>667.8</ele>
        <time>2022-07-17T06:50:56Z</time>
      </trkpt>
      <trkpt lat="45.23868" lon="6.43623">
        <ele>667.8</ele>
        <time>2022-07-17T06:50:57Z</time>
      </trkpt>
      <trkpt lat="45.23863" lon="6.43625">
        <ele>668</ele>
        <time>2022-07-17T06:50:58Z</time>
      </trkpt>
      <trkpt lat="45.23859" lon="6.43627">
        <ele>668</ele>
        <time>2022-07-17T06:50:59Z</time>
      </trkpt>
      <trkpt lat="45.23854" lon="6.43629">
        <ele>668.2</ele>
        <time>2022-07-17T06:51:00Z</time>
      </trkpt>
      <trkpt lat="45.23849" lon="6.43632">
        <ele>668.2</ele>
        <time>2022-07-17T06:51:01Z</time>
      </trkpt>
      <trkpt lat="45.23845" lon="6.43635">
        <ele>668.6</ele>
        <time>2022-07-17T06:51:02Z</time>
      </trkpt>
      <trkpt lat="45.2384" lon="6.43638">
        <ele>668.6</ele>
        <time>2022-07-17T06:51:03Z</time>
      </trkpt>
      <trkpt lat="45.23834" lon="6.4364">
        <ele>668.8</ele>
        <time>2022-07-17T06:51:04Z</time>
      </trkpt>
      <trkpt lat="45.23828" lon="6.43642">
        <ele>668.8</ele>
        <time>2022-07-17T06:51:05Z</time>
      </trkpt>
      <trkpt lat="45.23822" lon="6.43645">
        <ele>668.8</ele>
        <time>2022-07-17T06:51:06Z</time>
      </trkpt>
      <trkpt lat="45.23817" lon="6.43647">
        <ele>668.8</ele>
        <time>2022-07-17T06:51:07Z</time>
      </trkpt>
      <trkpt lat="45.23811" lon="6.4365">
        <ele>669</ele>
        <time>2022-07-17T06:51:08Z</time>
      </trkpt>
      <trkpt lat="45.23806" lon="6.43652">
        <ele>669</ele>
        <time>2022-07-17T06:51:09Z</time>
      </trkpt>
      <trkpt lat="45.23801" lon="6.43654">
        <ele>669.2</ele>
        <time>2022-07-17T06:51:10Z</time>
      </trkpt>
      <trkpt lat="45.23795" lon="6.43657">
        <ele>669.2</ele>
        <time>2022-07-17T06:51:11Z</time>
      </trkpt>
      <trkpt lat="45.2379" lon="6.4366">
        <ele>669.4</ele>
        <time>2022-07-17T06:51:12Z</time>
      </trkpt>
      <trkpt lat="45.23785" lon="6.43664">
        <ele>669.4</ele>
        <time>2022-07-17T06:51:13Z</time>
      </trkpt>
      <trkpt lat="45.2378" lon="6.43667">
        <ele>669.8</ele>
        <time>2022-07-17T06:51:14Z</time>
      </trkpt>
      <trkpt lat="45.23775" lon="6.4367">
        <ele>669.8</ele>
        <time>2022-07-17T06:51:15Z</time>
      </trkpt>
      <trkpt lat="45.2377" lon="6.43673">
        <ele>670</ele>
        <time>2022-07-17T06:51:16Z</time>
      </trkpt>
      <trkpt lat="45.23765" lon="6.43677">
        <ele>670</ele>
        <time>2022-07-17T06:51:17Z</time>
      </trkpt>
      <trkpt lat="45.2376" lon="6.43682">
        <ele>670</ele>
        <time>2022-07-17T06:51:18Z</time>
      </trkpt>
      <trkpt lat="45.23755" lon="6.43686">
        <ele>670</ele>
        <time>2022-07-17T06:51:19Z</time>
      </trkpt>
      <trkpt lat="45.23751" lon="6.43691">
        <ele>670</ele>
        <time>2022-07-17T06:51:20Z</time>
      </trkpt>
      <trkpt lat="45.23746" lon="6.43695">
        <ele>670.2</ele>
        <time>2022-07-17T06:51:21Z</time>
      </trkpt>
      <trkpt lat="45.23742" lon="6.437">
        <ele>670.2</ele>
        <time>2022-07-17T06:51:22Z</time>
      </trkpt>
      <trkpt lat="45.23737" lon="6.43705">
        <ele>670.2</ele>
        <time>2022-07-17T06:51:23Z</time>
      </trkpt>
      <trkpt lat="45.23732" lon="6.4371">
        <ele>670.6</ele>
        <time>2022-07-17T06:51:24Z</time>
      </trkpt>
      <trkpt lat="45.23728" lon="6.43716">
        <ele>670.6</ele>
        <time>2022-07-17T06:51:25Z</time>
      </trkpt>
      <trkpt lat="45.23723" lon="6.43722">
        <ele>670.6</ele>
        <time>2022-07-17T06:51:26Z</time>
      </trkpt>
      <trkpt lat="45.23719" lon="6.43728">
        <ele>670.6</ele>
        <time>2022-07-17T06:51:27Z</time>
      </trkpt>
      <trkpt lat="45.23714" lon="6.43734">
        <ele>670.6</ele>
        <time>2022-07-17T06:51:28Z</time>
      </trkpt>
      <trkpt lat="45.2371" lon="6.43741">
        <ele>670.2</ele>
        <time>2022-07-17T06:51:29Z</time>
      </trkpt>
      <trkpt lat="45.23706" lon="6.43748">
        <ele>670.2</ele>
        <time>2022-07-17T06:51:30Z</time>
      </trkpt>
      <trkpt lat="45.23702" lon="6.43755">
        <ele>670.2</ele>
        <time>2022-07-17T06:51:31Z</time>
      </trkpt>
      <trkpt lat="45.23698" lon="6.43763">
        <ele>670</ele>
        <time>2022-07-17T06:51:32Z</time>
      </trkpt>
      <trkpt lat="45.23694" lon="6.43771">
        <ele>670</ele>
        <time>2022-07-17T06:51:33Z</time>
      </trkpt>
      <trkpt lat="45.2369" lon="6.43779">
        <ele>669.6</ele>
        <time>2022-07-17T06:51:34Z</time>
      </trkpt>
      <trkpt lat="45.23687" lon="6.43788">
        <ele>669.4</ele>
        <time>2022-07-17T06:51:35Z</time>
      </trkpt>
      <trkpt lat="45.23684" lon="6.43797">
        <ele>669.4</ele>
        <time>2022-07-17T06:51:36Z</time>
      </trkpt>
      <trkpt lat="45.23681" lon="6.43807">
        <ele>669.2</ele>
        <time>2022-07-17T06:51:37Z</time>
      </trkpt>
      <trkpt lat="45.23677" lon="6.43816">
        <ele>669.2</ele>
        <time>2022-07-17T06:51:38Z</time>
      </trkpt>
      <trkpt lat="45.23674" lon="6.43826">
        <ele>669</ele>
        <time>2022-07-17T06:51:39Z</time>
      </trkpt>
      <trkpt lat="45.23671" lon="6.43836">
        <ele>669</ele>
        <time>2022-07-17T06:51:40Z</time>
      </trkpt>
      <trkpt lat="45.23669" lon="6.43845">
        <ele>668.6</ele>
        <time>2022-07-17T06:51:41Z</time>
      </trkpt>
      <trkpt lat="45.23666" lon="6.43854">
        <ele>668.6</ele>
        <time>2022-07-17T06:51:42Z</time>
      </trkpt>
      <trkpt lat="45.23662" lon="6.43863">
        <ele>668.4</ele>
        <time>2022-07-17T06:51:43Z</time>
      </trkpt>
      <trkpt lat="45.2366" lon="6.43873">
        <ele>668.4</ele>
        <time>2022-07-17T06:51:44Z</time>
      </trkpt>
      <trkpt lat="45.23658" lon="6.43883">
        <ele>668.4</ele>
        <time>2022-07-17T06:51:45Z</time>
      </trkpt>
      <trkpt lat="45.23655" lon="6.43903">
        <ele>668.4</ele>
        <time>2022-07-17T06:51:46Z</time>
      </trkpt>
      <trkpt lat="45.23655" lon="6.43914">
        <ele>668.4</ele>
        <time>2022-07-17T06:51:47Z</time>
      </trkpt>
      <trkpt lat="45.23654" lon="6.43923">
        <ele>668.4</ele>
        <time>2022-07-17T06:51:48Z</time>
      </trkpt>
      <trkpt lat="45.23653" lon="6.43932">
        <ele>668.4</ele>
        <time>2022-07-17T06:51:49Z</time>
      </trkpt>
      <trkpt lat="45.23652" lon="6.43941">
        <ele>668.8</ele>
        <time>2022-07-17T06:51:50Z</time>
      </trkpt>
      <trkpt lat="45.23652" lon="6.43949">
        <ele>668.8</ele>
        <time>2022-07-17T06:51:51Z</time>
      </trkpt>
      <trkpt lat="45.23651" lon="6.43958">
        <ele>668.8</ele>
        <time>2022-07-17T06:51:52Z</time>
      </trkpt>
      <trkpt lat="45.2365" lon="6.43967">
        <ele>669</ele>
        <time>2022-07-17T06:51:53Z</time>
      </trkpt>
      <trkpt lat="45.23649" lon="6.43975">
        <ele>669</ele>
        <time>2022-07-17T06:51:54Z</time>
      </trkpt>
      <trkpt lat="45.23648" lon="6.43983">
        <ele>669.2</ele>
        <time>2022-07-17T06:51:55Z</time>
      </trkpt>
      <trkpt lat="45.23647" lon="6.43992">
        <ele>669.2</ele>
        <time>2022-07-17T06:51:56Z</time>
      </trkpt>
      <trkpt lat="45.23645" lon="6.44">
        <ele>669.2</ele>
        <time>2022-07-17T06:51:57Z</time>
      </trkpt>
      <trkpt lat="45.23644" lon="6.44008">
        <ele>669.4</ele>
        <time>2022-07-17T06:51:58Z</time>
      </trkpt>
      <trkpt lat="45.23643" lon="6.44016">
        <ele>669.4</ele>
        <time>2022-07-17T06:51:59Z</time>
      </trkpt>
      <trkpt lat="45.23642" lon="6.44024">
        <ele>669.4</ele>
        <time>2022-07-17T06:52:00Z</time>
      </trkpt>
      <trkpt lat="45.23641" lon="6.44032">
        <ele>669.8</ele>
        <time>2022-07-17T06:52:01Z</time>
      </trkpt>
      <trkpt lat="45.23639" lon="6.4404">
        <ele>669.8</ele>
        <time>2022-07-17T06:52:02Z</time>
      </trkpt>
      <trkpt lat="45.23638" lon="6.44048">
        <ele>669.8</ele>
        <time>2022-07-17T06:52:03Z</time>
      </trkpt>
      <trkpt lat="45.23637" lon="6.44056">
        <ele>670</ele>
        <time>2022-07-17T06:52:04Z</time>
      </trkpt>
      <trkpt lat="45.23636" lon="6.44063">
        <ele>670</ele>
        <time>2022-07-17T06:52:05Z</time>
      </trkpt>
      <trkpt lat="45.23634" lon="6.44071">
        <ele>670.2</ele>
        <time>2022-07-17T06:52:06Z</time>
      </trkpt>
      <trkpt lat="45.23633" lon="6.44079">
        <ele>670.2</ele>
        <time>2022-07-17T06:52:07Z</time>
      </trkpt>
      <trkpt lat="45.23632" lon="6.44086">
        <ele>670.4</ele>
        <time>2022-07-17T06:52:08Z</time>
      </trkpt>
      <trkpt lat="45.2363" lon="6.44093">
        <ele>670.4</ele>
        <time>2022-07-17T06:52:09Z</time>
      </trkpt>
      <trkpt lat="45.23629" lon="6.44101">
        <ele>670.6</ele>
        <time>2022-07-17T06:52:10Z</time>
      </trkpt>
      <trkpt lat="45.23627" lon="6.44108">
        <ele>670.6</ele>
        <time>2022-07-17T06:52:11Z</time>
      </trkpt>
      <trkpt lat="45.23625" lon="6.44116">
        <ele>671</ele>
        <time>2022-07-17T06:52:12Z</time>
      </trkpt>
      <trkpt lat="45.23623" lon="6.44123">
        <ele>671.4</ele>
        <time>2022-07-17T06:52:14Z</time>
      </trkpt>
      <trkpt lat="45.23621" lon="6.4413">
        <ele>671.4</ele>
        <time>2022-07-17T06:52:15Z</time>
      </trkpt>
      <trkpt lat="45.23619" lon="6.44138">
        <ele>671.6</ele>
        <time>2022-07-17T06:52:16Z</time>
      </trkpt>
      <trkpt lat="45.23616" lon="6.44145">
        <ele>671.6</ele>
        <time>2022-07-17T06:52:17Z</time>
      </trkpt>
      <trkpt lat="45.23614" lon="6.44152">
        <ele>671.6</ele>
        <time>2022-07-17T06:52:18Z</time>
      </trkpt>
      <trkpt lat="45.23611" lon="6.44159">
        <ele>671.8</ele>
        <time>2022-07-17T06:52:19Z</time>
      </trkpt>
      <trkpt lat="45.23608" lon="6.44167">
        <ele>671.8</ele>
        <time>2022-07-17T06:52:20Z</time>
      </trkpt>
      <trkpt lat="45.23606" lon="6.44174">
        <ele>672</ele>
        <time>2022-07-17T06:52:21Z</time>
      </trkpt>
      <trkpt lat="45.23603" lon="6.44181">
        <ele>672</ele>
        <time>2022-07-17T06:52:22Z</time>
      </trkpt>
      <trkpt lat="45.236" lon="6.44187">
        <ele>672.4</ele>
        <time>2022-07-17T06:52:23Z</time>
      </trkpt>
      <trkpt lat="45.23597" lon="6.44194">
        <ele>672.4</ele>
        <time>2022-07-17T06:52:24Z</time>
      </trkpt>
      <trkpt lat="45.23594" lon="6.44201">
        <ele>672.4</ele>
        <time>2022-07-17T06:52:25Z</time>
      </trkpt>
      <trkpt lat="45.23591" lon="6.44207">
        <ele>672.6</ele>
        <time>2022-07-17T06:52:26Z</time>
      </trkpt>
      <trkpt lat="45.23587" lon="6.44214">
        <ele>672.6</ele>
        <time>2022-07-17T06:52:27Z</time>
      </trkpt>
      <trkpt lat="45.23584" lon="6.44221">
        <ele>672.8</ele>
        <time>2022-07-17T06:52:28Z</time>
      </trkpt>
      <trkpt lat="45.2358" lon="6.44227">
        <ele>672.8</ele>
        <time>2022-07-17T06:52:29Z</time>
      </trkpt>
      <trkpt lat="45.23576" lon="6.44234">
        <ele>673</ele>
        <time>2022-07-17T06:52:30Z</time>
      </trkpt>
      <trkpt lat="45.23573" lon="6.4424">
        <ele>673</ele>
        <time>2022-07-17T06:52:31Z</time>
      </trkpt>
      <trkpt lat="45.23569" lon="6.44246">
        <ele>673</ele>
        <time>2022-07-17T06:52:32Z</time>
      </trkpt>
      <trkpt lat="45.23565" lon="6.44251">
        <ele>673</ele>
        <time>2022-07-17T06:52:33Z</time>
      </trkpt>
      <trkpt lat="45.23561" lon="6.44257">
        <ele>673</ele>
        <time>2022-07-17T06:52:34Z</time>
      </trkpt>
      <trkpt lat="45.23556" lon="6.44263">
        <ele>673</ele>
        <time>2022-07-17T06:52:35Z</time>
      </trkpt>
      <trkpt lat="45.23552" lon="6.44269">
        <ele>673</ele>
        <time>2022-07-17T06:52:36Z</time>
      </trkpt>
      <trkpt lat="45.23547" lon="6.44275">
        <ele>673</ele>
        <time>2022-07-17T06:52:37Z</time>
      </trkpt>
      <trkpt lat="45.23543" lon="6.44281">
        <ele>673</ele>
        <time>2022-07-17T06:52:38Z</time>
      </trkpt>
      <trkpt lat="45.23538" lon="6.44287">
        <ele>673</ele>
        <time>2022-07-17T06:52:39Z</time>
      </trkpt>
      <trkpt lat="45.23533" lon="6.44292">
        <ele>673</ele>
        <time>2022-07-17T06:52:40Z</time>
      </trkpt>
      <trkpt lat="45.23528" lon="6.44298">
        <ele>673</ele>
        <time>2022-07-17T06:52:41Z</time>
      </trkpt>
      <trkpt lat="45.23523" lon="6.44304">
        <ele>673.2</ele>
        <time>2022-07-17T06:52:42Z</time>
      </trkpt>
      <trkpt lat="45.23518" lon="6.44309">
        <ele>673.2</ele>
        <time>2022-07-17T06:52:43Z</time>
      </trkpt>
      <trkpt lat="45.23513" lon="6.44315">
        <ele>673.2</ele>
        <time>2022-07-17T06:52:44Z</time>
      </trkpt>
      <trkpt lat="45.23508" lon="6.4432">
        <ele>673.2</ele>
        <time>2022-07-17T06:52:45Z</time>
      </trkpt>
      <trkpt lat="45.23503" lon="6.44325">
        <ele>673.2</ele>
        <time>2022-07-17T06:52:46Z</time>
      </trkpt>
      <trkpt lat="45.23498" lon="6.4433">
        <ele>673.2</ele>
        <time>2022-07-17T06:52:47Z</time>
      </trkpt>
      <trkpt lat="45.23493" lon="6.44335">
        <ele>673.2</ele>
        <time>2022-07-17T06:52:48Z</time>
      </trkpt>
      <trkpt lat="45.23487" lon="6.4434">
        <ele>673.2</ele>
        <time>2022-07-17T06:52:49Z</time>
      </trkpt>
      <trkpt lat="45.23482" lon="6.44345">
        <ele>673.2</ele>
        <time>2022-07-17T06:52:50Z</time>
      </trkpt>
      <trkpt lat="45.23476" lon="6.4435">
        <ele>673.2</ele>
        <time>2022-07-17T06:52:51Z</time>
      </trkpt>
      <trkpt lat="45.23471" lon="6.44355">
        <ele>673.2</ele>
        <time>2022-07-17T06:52:52Z</time>
      </trkpt>
      <trkpt lat="45.23465" lon="6.4436">
        <ele>673.2</ele>
        <time>2022-07-17T06:52:53Z</time>
      </trkpt>
      <trkpt lat="45.2346" lon="6.44365">
        <ele>673.2</ele>
        <time>2022-07-17T06:52:54Z</time>
      </trkpt>
      <trkpt lat="45.23454" lon="6.4437">
        <ele>673.2</ele>
        <time>2022-07-17T06:52:55Z</time>
      </trkpt>
      <trkpt lat="45.23449" lon="6.44375">
        <ele>673.2</ele>
        <time>2022-07-17T06:52:56Z</time>
      </trkpt>
      <trkpt lat="45.23443" lon="6.4438">
        <ele>673</ele>
        <time>2022-07-17T06:52:57Z</time>
      </trkpt>
      <trkpt lat="45.23438" lon="6.44384">
        <ele>673</ele>
        <time>2022-07-17T06:52:58Z</time>
      </trkpt>
      <trkpt lat="45.23433" lon="6.44388">
        <ele>673</ele>
        <time>2022-07-17T06:52:59Z</time>
      </trkpt>
      <trkpt lat="45.23428" lon="6.44392">
        <ele>673</ele>
        <time>2022-07-17T06:53:00Z</time>
      </trkpt>
      <trkpt lat="45.23423" lon="6.44397">
        <ele>673</ele>
        <time>2022-07-17T06:53:01Z</time>
      </trkpt>
      <trkpt lat="45.23417" lon="6.44401">
        <ele>673</ele>
        <time>2022-07-17T06:53:02Z</time>
      </trkpt>
      <trkpt lat="45.23412" lon="6.44406">
        <ele>673</ele>
        <time>2022-07-17T06:53:03Z</time>
      </trkpt>
      <trkpt lat="45.23407" lon="6.4441">
        <ele>673</ele>
        <time>2022-07-17T06:53:04Z</time>
      </trkpt>
      <trkpt lat="45.23401" lon="6.44415">
        <ele>673</ele>
        <time>2022-07-17T06:53:05Z</time>
      </trkpt>
      <trkpt lat="45.23396" lon="6.4442">
        <ele>673</ele>
        <time>2022-07-17T06:53:06Z</time>
      </trkpt>
      <trkpt lat="45.23391" lon="6.44424">
        <ele>673</ele>
        <time>2022-07-17T06:53:07Z</time>
      </trkpt>
      <trkpt lat="45.23385" lon="6.44429">
        <ele>673</ele>
        <time>2022-07-17T06:53:08Z</time>
      </trkpt>
      <trkpt lat="45.2338" lon="6.44434">
        <ele>673.2</ele>
        <time>2022-07-17T06:53:09Z</time>
      </trkpt>
      <trkpt lat="45.23375" lon="6.44439">
        <ele>673.2</ele>
        <time>2022-07-17T06:53:10Z</time>
      </trkpt>
      <trkpt lat="45.23369" lon="6.44444">
        <ele>673.2</ele>
        <time>2022-07-17T06:53:11Z</time>
      </trkpt>
      <trkpt lat="45.23364" lon="6.44449">
        <ele>673.2</ele>
        <time>2022-07-17T06:53:12Z</time>
      </trkpt>
      <trkpt lat="45.23358" lon="6.44454">
        <ele>673.2</ele>
        <time>2022-07-17T06:53:13Z</time>
      </trkpt>
      <trkpt lat="45.23353" lon="6.44459">
        <ele>673.2</ele>
        <time>2022-07-17T06:53:14Z</time>
      </trkpt>
      <trkpt lat="45.23348" lon="6.44464">
        <ele>673.2</ele>
        <time>2022-07-17T06:53:15Z</time>
      </trkpt>
      <trkpt lat="45.23342" lon="6.44469">
        <ele>673.2</ele>
        <time>2022-07-17T06:53:16Z</time>
      </trkpt>
      <trkpt lat="45.23337" lon="6.44475">
        <ele>673.2</ele>
        <time>2022-07-17T06:53:17Z</time>
      </trkpt>
      <trkpt lat="45.23332" lon="6.4448">
        <ele>673.2</ele>
        <time>2022-07-17T06:53:18Z</time>
      </trkpt>
      <trkpt lat="45.23327" lon="6.44485">
        <ele>673.2</ele>
        <time>2022-07-17T06:53:19Z</time>
      </trkpt>
      <trkpt lat="45.23321" lon="6.4449">
        <ele>673.2</ele>
        <time>2022-07-17T06:53:20Z</time>
      </trkpt>
      <trkpt lat="45.23316" lon="6.44495">
        <ele>673.2</ele>
        <time>2022-07-17T06:53:21Z</time>
      </trkpt>
      <trkpt lat="45.23311" lon="6.44501">
        <ele>673.2</ele>
        <time>2022-07-17T06:53:22Z</time>
      </trkpt>
      <trkpt lat="45.23306" lon="6.44506">
        <ele>673.2</ele>
        <time>2022-07-17T06:53:23Z</time>
      </trkpt>
      <trkpt lat="45.23301" lon="6.44511">
        <ele>673.2</ele>
        <time>2022-07-17T06:53:24Z</time>
      </trkpt>
      <trkpt lat="45.23295" lon="6.44516">
        <ele>673.2</ele>
        <time>2022-07-17T06:53:25Z</time>
      </trkpt>
      <trkpt lat="45.2329" lon="6.44522">
        <ele>673.2</ele>
        <time>2022-07-17T06:53:26Z</time>
      </trkpt>
      <trkpt lat="45.23285" lon="6.44527">
        <ele>673.2</ele>
        <time>2022-07-17T06:53:27Z</time>
      </trkpt>
      <trkpt lat="45.2328" lon="6.44532">
        <ele>673.2</ele>
        <time>2022-07-17T06:53:28Z</time>
      </trkpt>
      <trkpt lat="45.23275" lon="6.44538">
        <ele>673.2</ele>
        <time>2022-07-17T06:53:29Z</time>
      </trkpt>
      <trkpt lat="45.23269" lon="6.44543">
        <ele>673.2</ele>
        <time>2022-07-17T06:53:30Z</time>
      </trkpt>
      <trkpt lat="45.23264" lon="6.44548">
        <ele>673.2</ele>
        <time>2022-07-17T06:53:31Z</time>
      </trkpt>
      <trkpt lat="45.23259" lon="6.44554">
        <ele>673.2</ele>
        <time>2022-07-17T06:53:32Z</time>
      </trkpt>
      <trkpt lat="45.23254" lon="6.44559">
        <ele>673.2</ele>
        <time>2022-07-17T06:53:33Z</time>
      </trkpt>
      <trkpt lat="45.23249" lon="6.44564">
        <ele>673.2</ele>
        <time>2022-07-17T06:53:34Z</time>
      </trkpt>
      <trkpt lat="45.23244" lon="6.4457">
        <ele>673.2</ele>
        <time>2022-07-17T06:53:35Z</time>
      </trkpt>
      <trkpt lat="45.23239" lon="6.44576">
        <ele>673.2</ele>
        <time>2022-07-17T06:53:36Z</time>
      </trkpt>
      <trkpt lat="45.23234" lon="6.44581">
        <ele>673.2</ele>
        <time>2022-07-17T06:53:37Z</time>
      </trkpt>
      <trkpt lat="45.2323" lon="6.44587">
        <ele>673.2</ele>
        <time>2022-07-17T06:53:38Z</time>
      </trkpt>
      <trkpt lat="45.23225" lon="6.44593">
        <ele>673.2</ele>
        <time>2022-07-17T06:53:39Z</time>
      </trkpt>
      <trkpt lat="45.2322" lon="6.44599">
        <ele>673.2</ele>
        <time>2022-07-17T06:53:40Z</time>
      </trkpt>
      <trkpt lat="45.23215" lon="6.44605">
        <ele>673.2</ele>
        <time>2022-07-17T06:53:41Z</time>
      </trkpt>
      <trkpt lat="45.2321" lon="6.44611">
        <ele>673.2</ele>
        <time>2022-07-17T06:53:42Z</time>
      </trkpt>
      <trkpt lat="45.23205" lon="6.44618">
        <ele>673.2</ele>
        <time>2022-07-17T06:53:43Z</time>
      </trkpt>
      <trkpt lat="45.232" lon="6.44625">
        <ele>673.2</ele>
        <time>2022-07-17T06:53:44Z</time>
      </trkpt>
      <trkpt lat="45.23196" lon="6.44631">
        <ele>673.2</ele>
        <time>2022-07-17T06:53:45Z</time>
      </trkpt>
      <trkpt lat="45.23191" lon="6.44638">
        <ele>673.2</ele>
        <time>2022-07-17T06:53:46Z</time>
      </trkpt>
      <trkpt lat="45.23186" lon="6.44645">
        <ele>673.2</ele>
        <time>2022-07-17T06:53:47Z</time>
      </trkpt>
      <trkpt lat="45.23182" lon="6.44652">
        <ele>673.2</ele>
        <time>2022-07-17T06:53:48Z</time>
      </trkpt>
      <trkpt lat="45.23178" lon="6.44659">
        <ele>673.2</ele>
        <time>2022-07-17T06:53:49Z</time>
      </trkpt>
      <trkpt lat="45.23173" lon="6.44665">
        <ele>673.2</ele>
        <time>2022-07-17T06:53:50Z</time>
      </trkpt>
      <trkpt lat="45.23169" lon="6.44672">
        <ele>673</ele>
        <time>2022-07-17T06:53:51Z</time>
      </trkpt>
      <trkpt lat="45.23165" lon="6.44679">
        <ele>673</ele>
        <time>2022-07-17T06:53:52Z</time>
      </trkpt>
      <trkpt lat="45.23161" lon="6.44685">
        <ele>673</ele>
        <time>2022-07-17T06:53:53Z</time>
      </trkpt>
      <trkpt lat="45.23157" lon="6.44692">
        <ele>673</ele>
        <time>2022-07-17T06:53:54Z</time>
      </trkpt>
      <trkpt lat="45.23153" lon="6.44698">
        <ele>673</ele>
        <time>2022-07-17T06:53:55Z</time>
      </trkpt>
      <trkpt lat="45.23149" lon="6.44704">
        <ele>672.8</ele>
        <time>2022-07-17T06:53:56Z</time>
      </trkpt>
      <trkpt lat="45.23145" lon="6.44711">
        <ele>672.8</ele>
        <time>2022-07-17T06:53:57Z</time>
      </trkpt>
      <trkpt lat="45.23141" lon="6.44717">
        <ele>672.8</ele>
        <time>2022-07-17T06:53:58Z</time>
      </trkpt>
      <trkpt lat="45.23137" lon="6.44723">
        <ele>672.8</ele>
        <time>2022-07-17T06:53:59Z</time>
      </trkpt>
      <trkpt lat="45.23133" lon="6.4473">
        <ele>672.8</ele>
        <time>2022-07-17T06:54:00Z</time>
      </trkpt>
      <trkpt lat="45.23129" lon="6.44735">
        <ele>672.8</ele>
        <time>2022-07-17T06:54:01Z</time>
      </trkpt>
      <trkpt lat="45.23125" lon="6.44741">
        <ele>672.8</ele>
        <time>2022-07-17T06:54:02Z</time>
      </trkpt>
      <trkpt lat="45.23122" lon="6.44749">
        <ele>672.8</ele>
        <time>2022-07-17T06:54:03Z</time>
      </trkpt>
      <trkpt lat="45.23117" lon="6.44756">
        <ele>672.8</ele>
        <time>2022-07-17T06:54:04Z</time>
      </trkpt>
      <trkpt lat="45.23113" lon="6.44764">
        <ele>672.8</ele>
        <time>2022-07-17T06:54:05Z</time>
      </trkpt>
      <trkpt lat="45.23109" lon="6.44771">
        <ele>672.8</ele>
        <time>2022-07-17T06:54:06Z</time>
      </trkpt>
      <trkpt lat="45.23104" lon="6.44778">
        <ele>672.8</ele>
        <time>2022-07-17T06:54:07Z</time>
      </trkpt>
      <trkpt lat="45.231" lon="6.44785">
        <ele>672.8</ele>
        <time>2022-07-17T06:54:08Z</time>
      </trkpt>
      <trkpt lat="45.23095" lon="6.44792">
        <ele>672.8</ele>
        <time>2022-07-17T06:54:09Z</time>
      </trkpt>
      <trkpt lat="45.23091" lon="6.44799">
        <ele>672.8</ele>
        <time>2022-07-17T06:54:10Z</time>
      </trkpt>
      <trkpt lat="45.23086" lon="6.44805">
        <ele>672.8</ele>
        <time>2022-07-17T06:54:11Z</time>
      </trkpt>
      <trkpt lat="45.23081" lon="6.44812">
        <ele>673</ele>
        <time>2022-07-17T06:54:12Z</time>
      </trkpt>
      <trkpt lat="45.23076" lon="6.44818">
        <ele>673</ele>
        <time>2022-07-17T06:54:13Z</time>
      </trkpt>
      <trkpt lat="45.23072" lon="6.44824">
        <ele>673</ele>
        <time>2022-07-17T06:54:14Z</time>
      </trkpt>
      <trkpt lat="45.23067" lon="6.4483">
        <ele>673</ele>
        <time>2022-07-17T06:54:15Z</time>
      </trkpt>
      <trkpt lat="45.23062" lon="6.44835">
        <ele>673.2</ele>
        <time>2022-07-17T06:54:16Z</time>
      </trkpt>
      <trkpt lat="45.23058" lon="6.44842">
        <ele>673.2</ele>
        <time>2022-07-17T06:54:17Z</time>
      </trkpt>
      <trkpt lat="45.23053" lon="6.44848">
        <ele>673.2</ele>
        <time>2022-07-17T06:54:18Z</time>
      </trkpt>
      <trkpt lat="45.23049" lon="6.44853">
        <ele>673.2</ele>
        <time>2022-07-17T06:54:19Z</time>
      </trkpt>
      <trkpt lat="45.23044" lon="6.44859">
        <ele>673.2</ele>
        <time>2022-07-17T06:54:20Z</time>
      </trkpt>
      <trkpt lat="45.23039" lon="6.44864">
        <ele>673.4</ele>
        <time>2022-07-17T06:54:21Z</time>
      </trkpt>
      <trkpt lat="45.23033" lon="6.44869">
        <ele>673.4</ele>
        <time>2022-07-17T06:54:22Z</time>
      </trkpt>
      <trkpt lat="45.23028" lon="6.44874">
        <ele>673.4</ele>
        <time>2022-07-17T06:54:23Z</time>
      </trkpt>
      <trkpt lat="45.23023" lon="6.44879">
        <ele>673.4</ele>
        <time>2022-07-17T06:54:24Z</time>
      </trkpt>
      <trkpt lat="45.23018" lon="6.44884">
        <ele>673.4</ele>
        <time>2022-07-17T06:54:25Z</time>
      </trkpt>
      <trkpt lat="45.23013" lon="6.44889">
        <ele>673.4</ele>
        <time>2022-07-17T06:54:26Z</time>
      </trkpt>
      <trkpt lat="45.23007" lon="6.44894">
        <ele>673.4</ele>
        <time>2022-07-17T06:54:27Z</time>
      </trkpt>
      <trkpt lat="45.23002" lon="6.44898">
        <ele>673.4</ele>
        <time>2022-07-17T06:54:28Z</time>
      </trkpt>
      <trkpt lat="45.22996" lon="6.44902">
        <ele>673.4</ele>
        <time>2022-07-17T06:54:29Z</time>
      </trkpt>
      <trkpt lat="45.2299" lon="6.44906">
        <ele>673.4</ele>
        <time>2022-07-17T06:54:30Z</time>
      </trkpt>
      <trkpt lat="45.22985" lon="6.44911">
        <ele>673.4</ele>
        <time>2022-07-17T06:54:31Z</time>
      </trkpt>
      <trkpt lat="45.22979" lon="6.44915">
        <ele>673.8</ele>
        <time>2022-07-17T06:54:32Z</time>
      </trkpt>
      <trkpt lat="45.22973" lon="6.4492">
        <ele>673.8</ele>
        <time>2022-07-17T06:54:33Z</time>
      </trkpt>
      <trkpt lat="45.22968" lon="6.44924">
        <ele>673.8</ele>
        <time>2022-07-17T06:54:34Z</time>
      </trkpt>
      <trkpt lat="45.22962" lon="6.44928">
        <ele>673.8</ele>
        <time>2022-07-17T06:54:35Z</time>
      </trkpt>
      <trkpt lat="45.22956" lon="6.44932">
        <ele>673.8</ele>
        <time>2022-07-17T06:54:36Z</time>
      </trkpt>
      <trkpt lat="45.22951" lon="6.44935">
        <ele>674</ele>
        <time>2022-07-17T06:54:37Z</time>
      </trkpt>
      <trkpt lat="45.22945" lon="6.44939">
        <ele>674</ele>
        <time>2022-07-17T06:54:38Z</time>
      </trkpt>
      <trkpt lat="45.22939" lon="6.44943">
        <ele>674</ele>
        <time>2022-07-17T06:54:39Z</time>
      </trkpt>
      <trkpt lat="45.22933" lon="6.44946">
        <ele>674</ele>
        <time>2022-07-17T06:54:40Z</time>
      </trkpt>
      <trkpt lat="45.22928" lon="6.4495">
        <ele>674</ele>
        <time>2022-07-17T06:54:41Z</time>
      </trkpt>
      <trkpt lat="45.22922" lon="6.44953">
        <ele>674</ele>
        <time>2022-07-17T06:54:42Z</time>
      </trkpt>
      <trkpt lat="45.22917" lon="6.44956">
        <ele>674</ele>
        <time>2022-07-17T06:54:43Z</time>
      </trkpt>
      <trkpt lat="45.22911" lon="6.44959">
        <ele>674</ele>
        <time>2022-07-17T06:54:44Z</time>
      </trkpt>
      <trkpt lat="45.22906" lon="6.44963">
        <ele>674</ele>
        <time>2022-07-17T06:54:45Z</time>
      </trkpt>
      <trkpt lat="45.229" lon="6.44965">
        <ele>674</ele>
        <time>2022-07-17T06:54:46Z</time>
      </trkpt>
      <trkpt lat="45.22894" lon="6.44968">
        <ele>674.4</ele>
        <time>2022-07-17T06:54:47Z</time>
      </trkpt>
      <trkpt lat="45.22889" lon="6.44971">
        <ele>674.4</ele>
        <time>2022-07-17T06:54:48Z</time>
      </trkpt>
      <trkpt lat="45.22883" lon="6.44974">
        <ele>674.4</ele>
        <time>2022-07-17T06:54:49Z</time>
      </trkpt>
      <trkpt lat="45.22877" lon="6.44977">
        <ele>674.4</ele>
        <time>2022-07-17T06:54:50Z</time>
      </trkpt>
      <trkpt lat="45.22871" lon="6.44979">
        <ele>674.4</ele>
        <time>2022-07-17T06:54:51Z</time>
      </trkpt>
      <trkpt lat="45.22866" lon="6.44982">
        <ele>674.4</ele>
        <time>2022-07-17T06:54:52Z</time>
      </trkpt>
      <trkpt lat="45.2286" lon="6.44984">
        <ele>674.4</ele>
        <time>2022-07-17T06:54:53Z</time>
      </trkpt>
      <trkpt lat="45.22854" lon="6.44987">
        <ele>674.4</ele>
        <time>2022-07-17T06:54:54Z</time>
      </trkpt>
      <trkpt lat="45.22848" lon="6.4499">
        <ele>674.4</ele>
        <time>2022-07-17T06:54:55Z</time>
      </trkpt>
      <trkpt lat="45.22842" lon="6.44992">
        <ele>674.4</ele>
        <time>2022-07-17T06:54:56Z</time>
      </trkpt>
      <trkpt lat="45.22836" lon="6.44995">
        <ele>674.4</ele>
        <time>2022-07-17T06:54:57Z</time>
      </trkpt>
      <trkpt lat="45.22831" lon="6.44997">
        <ele>674.6</ele>
        <time>2022-07-17T06:54:58Z</time>
      </trkpt>
      <trkpt lat="45.22825" lon="6.44999">
        <ele>674.6</ele>
        <time>2022-07-17T06:54:59Z</time>
      </trkpt>
      <trkpt lat="45.22819" lon="6.45001">
        <ele>674.6</ele>
        <time>2022-07-17T06:55:00Z</time>
      </trkpt>
      <trkpt lat="45.22813" lon="6.45003">
        <ele>674.6</ele>
        <time>2022-07-17T06:55:01Z</time>
      </trkpt>
      <trkpt lat="45.22806" lon="6.45004">
        <ele>674.6</ele>
        <time>2022-07-17T06:55:02Z</time>
      </trkpt>
      <trkpt lat="45.228" lon="6.45006">
        <ele>674.6</ele>
        <time>2022-07-17T06:55:03Z</time>
      </trkpt>
      <trkpt lat="45.22794" lon="6.45007">
        <ele>674.6</ele>
        <time>2022-07-17T06:55:04Z</time>
      </trkpt>
      <trkpt lat="45.22788" lon="6.45009">
        <ele>674.6</ele>
        <time>2022-07-17T06:55:05Z</time>
      </trkpt>
      <trkpt lat="45.22776" lon="6.45013">
        <ele>674.4</ele>
        <time>2022-07-17T06:55:06Z</time>
      </trkpt>
      <trkpt lat="45.2277" lon="6.45014">
        <ele>674.4</ele>
        <time>2022-07-17T06:55:07Z</time>
      </trkpt>
      <trkpt lat="45.22764" lon="6.45016">
        <ele>674.4</ele>
        <time>2022-07-17T06:55:08Z</time>
      </trkpt>
      <trkpt lat="45.22758" lon="6.45017">
        <ele>674.2</ele>
        <time>2022-07-17T06:55:09Z</time>
      </trkpt>
      <trkpt lat="45.22751" lon="6.45019">
        <ele>674.2</ele>
        <time>2022-07-17T06:55:10Z</time>
      </trkpt>
      <trkpt lat="45.22745" lon="6.4502">
        <ele>674.2</ele>
        <time>2022-07-17T06:55:11Z</time>
      </trkpt>
      <trkpt lat="45.22739" lon="6.45021">
        <ele>674.2</ele>
        <time>2022-07-17T06:55:12Z</time>
      </trkpt>
      <trkpt lat="45.22732" lon="6.45021">
        <ele>674.2</ele>
        <time>2022-07-17T06:55:13Z</time>
      </trkpt>
      <trkpt lat="45.22726" lon="6.45022">
        <ele>674.2</ele>
        <time>2022-07-17T06:55:14Z</time>
      </trkpt>
      <trkpt lat="45.22719" lon="6.45023">
        <ele>674.2</ele>
        <time>2022-07-17T06:55:15Z</time>
      </trkpt>
      <trkpt lat="45.22713" lon="6.45024">
        <ele>674.4</ele>
        <time>2022-07-17T06:55:16Z</time>
      </trkpt>
      <trkpt lat="45.22707" lon="6.45024">
        <ele>674.4</ele>
        <time>2022-07-17T06:55:17Z</time>
      </trkpt>
      <trkpt lat="45.227" lon="6.45025">
        <ele>674.4</ele>
        <time>2022-07-17T06:55:18Z</time>
      </trkpt>
      <trkpt lat="45.22694" lon="6.45026">
        <ele>674.4</ele>
        <time>2022-07-17T06:55:19Z</time>
      </trkpt>
      <trkpt lat="45.22688" lon="6.45027">
        <ele>674.4</ele>
        <time>2022-07-17T06:55:20Z</time>
      </trkpt>
      <trkpt lat="45.22682" lon="6.45027">
        <ele>674.4</ele>
        <time>2022-07-17T06:55:21Z</time>
      </trkpt>
      <trkpt lat="45.22676" lon="6.45028">
        <ele>674.4</ele>
        <time>2022-07-17T06:55:22Z</time>
      </trkpt>
      <trkpt lat="45.22669" lon="6.45028">
        <ele>674.4</ele>
        <time>2022-07-17T06:55:23Z</time>
      </trkpt>
      <trkpt lat="45.22663" lon="6.45029">
        <ele>674.4</ele>
        <time>2022-07-17T06:55:24Z</time>
      </trkpt>
      <trkpt lat="45.22657" lon="6.45029">
        <ele>674.6</ele>
        <time>2022-07-17T06:55:25Z</time>
      </trkpt>
      <trkpt lat="45.22651" lon="6.4503">
        <ele>674.6</ele>
        <time>2022-07-17T06:55:26Z</time>
      </trkpt>
      <trkpt lat="45.22644" lon="6.4503">
        <ele>674.6</ele>
        <time>2022-07-17T06:55:27Z</time>
      </trkpt>
      <trkpt lat="45.22638" lon="6.45031">
        <ele>674.6</ele>
        <time>2022-07-17T06:55:28Z</time>
      </trkpt>
      <trkpt lat="45.22632" lon="6.45031">
        <ele>674.8</ele>
        <time>2022-07-17T06:55:29Z</time>
      </trkpt>
      <trkpt lat="45.22627" lon="6.45031">
        <ele>674.8</ele>
        <time>2022-07-17T06:55:30Z</time>
      </trkpt>
      <trkpt lat="45.22621" lon="6.45032">
        <ele>674.8</ele>
        <time>2022-07-17T06:55:31Z</time>
      </trkpt>
      <trkpt lat="45.22614" lon="6.45032">
        <ele>675</ele>
        <time>2022-07-17T06:55:32Z</time>
      </trkpt>
      <trkpt lat="45.22608" lon="6.45033">
        <ele>675</ele>
        <time>2022-07-17T06:55:33Z</time>
      </trkpt>
      <trkpt lat="45.22602" lon="6.45033">
        <ele>675</ele>
        <time>2022-07-17T06:55:34Z</time>
      </trkpt>
      <trkpt lat="45.22597" lon="6.45034">
        <ele>675</ele>
        <time>2022-07-17T06:55:35Z</time>
      </trkpt>
      <trkpt lat="45.22591" lon="6.45034">
        <ele>675</ele>
        <time>2022-07-17T06:55:36Z</time>
      </trkpt>
      <trkpt lat="45.22585" lon="6.45034">
        <ele>675</ele>
        <time>2022-07-17T06:55:37Z</time>
      </trkpt>
      <trkpt lat="45.22579" lon="6.45035">
        <ele>675.4</ele>
        <time>2022-07-17T06:55:38Z</time>
      </trkpt>
      <trkpt lat="45.22573" lon="6.45036">
        <ele>675.4</ele>
        <time>2022-07-17T06:55:39Z</time>
      </trkpt>
      <trkpt lat="45.22567" lon="6.45037">
        <ele>675.4</ele>
        <time>2022-07-17T06:55:40Z</time>
      </trkpt>
      <trkpt lat="45.22561" lon="6.45038">
        <ele>675.4</ele>
        <time>2022-07-17T06:55:41Z</time>
      </trkpt>
      <trkpt lat="45.22555" lon="6.45038">
        <ele>675.4</ele>
        <time>2022-07-17T06:55:42Z</time>
      </trkpt>
      <trkpt lat="45.22549" lon="6.45039">
        <ele>675.6</ele>
        <time>2022-07-17T06:55:43Z</time>
      </trkpt>
      <trkpt lat="45.22543" lon="6.4504">
        <ele>675.6</ele>
        <time>2022-07-17T06:55:44Z</time>
      </trkpt>
      <trkpt lat="45.22537" lon="6.4504">
        <ele>675.8</ele>
        <time>2022-07-17T06:55:45Z</time>
      </trkpt>
      <trkpt lat="45.22531" lon="6.45041">
        <ele>675.8</ele>
        <time>2022-07-17T06:55:46Z</time>
      </trkpt>
      <trkpt lat="45.22524" lon="6.45042">
        <ele>676</ele>
        <time>2022-07-17T06:55:47Z</time>
      </trkpt>
      <trkpt lat="45.22518" lon="6.45043">
        <ele>676</ele>
        <time>2022-07-17T06:55:48Z</time>
      </trkpt>
      <trkpt lat="45.22512" lon="6.45044">
        <ele>676</ele>
        <time>2022-07-17T06:55:49Z</time>
      </trkpt>
      <trkpt lat="45.22506" lon="6.45045">
        <ele>676.4</ele>
        <time>2022-07-17T06:55:50Z</time>
      </trkpt>
      <trkpt lat="45.225" lon="6.45045">
        <ele>676.4</ele>
        <time>2022-07-17T06:55:51Z</time>
      </trkpt>
      <trkpt lat="45.22494" lon="6.45046">
        <ele>676.4</ele>
        <time>2022-07-17T06:55:52Z</time>
      </trkpt>
      <trkpt lat="45.22488" lon="6.45046">
        <ele>676.4</ele>
        <time>2022-07-17T06:55:53Z</time>
      </trkpt>
      <trkpt lat="45.22482" lon="6.45046">
        <ele>676.6</ele>
        <time>2022-07-17T06:55:54Z</time>
      </trkpt>
      <trkpt lat="45.22476" lon="6.45047">
        <ele>676.6</ele>
        <time>2022-07-17T06:55:55Z</time>
      </trkpt>
      <trkpt lat="45.2247" lon="6.45048">
        <ele>677</ele>
        <time>2022-07-17T06:55:56Z</time>
      </trkpt>
      <trkpt lat="45.22465" lon="6.45049">
        <ele>677</ele>
        <time>2022-07-17T06:55:57Z</time>
      </trkpt>
      <trkpt lat="45.2246" lon="6.4505">
        <ele>677.2</ele>
        <time>2022-07-17T06:55:58Z</time>
      </trkpt>
      <trkpt lat="45.22454" lon="6.45051">
        <ele>677.2</ele>
        <time>2022-07-17T06:55:59Z</time>
      </trkpt>
      <trkpt lat="45.22448" lon="6.45052">
        <ele>677.4</ele>
        <time>2022-07-17T06:56:00Z</time>
      </trkpt>
      <trkpt lat="45.22443" lon="6.45053">
        <ele>677.4</ele>
        <time>2022-07-17T06:56:01Z</time>
      </trkpt>
      <trkpt lat="45.22438" lon="6.45054">
        <ele>677.8</ele>
        <time>2022-07-17T06:56:02Z</time>
      </trkpt>
      <trkpt lat="45.22433" lon="6.45055">
        <ele>678</ele>
        <time>2022-07-17T06:56:03Z</time>
      </trkpt>
      <trkpt lat="45.22428" lon="6.45057">
        <ele>678</ele>
        <time>2022-07-17T06:56:04Z</time>
      </trkpt>
      <trkpt lat="45.22423" lon="6.45058">
        <ele>678.4</ele>
        <time>2022-07-17T06:56:05Z</time>
      </trkpt>
      <trkpt lat="45.22419" lon="6.45059">
        <ele>678.6</ele>
        <time>2022-07-17T06:56:06Z</time>
      </trkpt>
      <trkpt lat="45.22414" lon="6.4506">
        <ele>678.8</ele>
        <time>2022-07-17T06:56:07Z</time>
      </trkpt>
      <trkpt lat="45.22409" lon="6.45061">
        <ele>679.2</ele>
        <time>2022-07-17T06:56:08Z</time>
      </trkpt>
      <trkpt lat="45.22405" lon="6.45062">
        <ele>679.4</ele>
        <time>2022-07-17T06:56:09Z</time>
      </trkpt>
      <trkpt lat="45.224" lon="6.45064">
        <ele>679.8</ele>
        <time>2022-07-17T06:56:10Z</time>
      </trkpt>
      <trkpt lat="45.22395" lon="6.45065">
        <ele>680</ele>
        <time>2022-07-17T06:56:11Z</time>
      </trkpt>
      <trkpt lat="45.22391" lon="6.45067">
        <ele>680.2</ele>
        <time>2022-07-17T06:56:12Z</time>
      </trkpt>
      <trkpt lat="45.22386" lon="6.45068">
        <ele>680.6</ele>
        <time>2022-07-17T06:56:13Z</time>
      </trkpt>
      <trkpt lat="45.22382" lon="6.4507">
        <ele>680.6</ele>
        <time>2022-07-17T06:56:14Z</time>
      </trkpt>
      <trkpt lat="45.22377" lon="6.45072">
        <ele>681</ele>
        <time>2022-07-17T06:56:15Z</time>
      </trkpt>
      <trkpt lat="45.22372" lon="6.45074">
        <ele>681.4</ele>
        <time>2022-07-17T06:56:16Z</time>
      </trkpt>
      <trkpt lat="45.22368" lon="6.45076">
        <ele>681.6</ele>
        <time>2022-07-17T06:56:17Z</time>
      </trkpt>
      <trkpt lat="45.22364" lon="6.45078">
        <ele>681.8</ele>
        <time>2022-07-17T06:56:18Z</time>
      </trkpt>
      <trkpt lat="45.22359" lon="6.4508">
        <ele>682.2</ele>
        <time>2022-07-17T06:56:19Z</time>
      </trkpt>
      <trkpt lat="45.22355" lon="6.45083">
        <ele>682.2</ele>
        <time>2022-07-17T06:56:20Z</time>
      </trkpt>
      <trkpt lat="45.22351" lon="6.45085">
        <ele>682.4</ele>
        <time>2022-07-17T06:56:21Z</time>
      </trkpt>
      <trkpt lat="45.22347" lon="6.45087">
        <ele>682.8</ele>
        <time>2022-07-17T06:56:22Z</time>
      </trkpt>
      <trkpt lat="45.22342" lon="6.45089">
        <ele>682.8</ele>
        <time>2022-07-17T06:56:23Z</time>
      </trkpt>
      <trkpt lat="45.22338" lon="6.45092">
        <ele>683</ele>
        <time>2022-07-17T06:56:24Z</time>
      </trkpt>
      <trkpt lat="45.22334" lon="6.45094">
        <ele>683</ele>
        <time>2022-07-17T06:56:25Z</time>
      </trkpt>
      <trkpt lat="45.22329" lon="6.45097">
        <ele>683.4</ele>
        <time>2022-07-17T06:56:26Z</time>
      </trkpt>
      <trkpt lat="45.22324" lon="6.451">
        <ele>683.6</ele>
        <time>2022-07-17T06:56:27Z</time>
      </trkpt>
      <trkpt lat="45.22319" lon="6.45104">
        <ele>683.6</ele>
        <time>2022-07-17T06:56:28Z</time>
      </trkpt>
      <trkpt lat="45.22314" lon="6.45108">
        <ele>684</ele>
        <time>2022-07-17T06:56:29Z</time>
      </trkpt>
      <trkpt lat="45.22309" lon="6.45112">
        <ele>684.2</ele>
        <time>2022-07-17T06:56:30Z</time>
      </trkpt>
      <trkpt lat="45.22304" lon="6.45116">
        <ele>684.2</ele>
        <time>2022-07-17T06:56:31Z</time>
      </trkpt>
      <trkpt lat="45.223" lon="6.45121">
        <ele>684.4</ele>
        <time>2022-07-17T06:56:32Z</time>
      </trkpt>
      <trkpt lat="45.22296" lon="6.45125">
        <ele>684.4</ele>
        <time>2022-07-17T06:56:33Z</time>
      </trkpt>
      <trkpt lat="45.22292" lon="6.4513">
        <ele>684.4</ele>
        <time>2022-07-17T06:56:34Z</time>
      </trkpt>
      <trkpt lat="45.22289" lon="6.45134">
        <ele>684.8</ele>
        <time>2022-07-17T06:56:35Z</time>
      </trkpt>
      <trkpt lat="45.22285" lon="6.45138">
        <ele>684.8</ele>
        <time>2022-07-17T06:56:36Z</time>
      </trkpt>
      <trkpt lat="45.22281" lon="6.45143">
        <ele>684.8</ele>
        <time>2022-07-17T06:56:37Z</time>
      </trkpt>
      <trkpt lat="45.22277" lon="6.45148">
        <ele>684.8</ele>
        <time>2022-07-17T06:56:38Z</time>
      </trkpt>
      <trkpt lat="45.22274" lon="6.45153">
        <ele>685</ele>
        <time>2022-07-17T06:56:39Z</time>
      </trkpt>
      <trkpt lat="45.22271" lon="6.45159">
        <ele>685</ele>
        <time>2022-07-17T06:56:40Z</time>
      </trkpt>
      <trkpt lat="45.22269" lon="6.45165">
        <ele>685</ele>
        <time>2022-07-17T06:56:41Z</time>
      </trkpt>
      <trkpt lat="45.22266" lon="6.45172">
        <ele>685</ele>
        <time>2022-07-17T06:56:42Z</time>
      </trkpt>
      <trkpt lat="45.22263" lon="6.45178">
        <ele>685</ele>
        <time>2022-07-17T06:56:43Z</time>
      </trkpt>
      <trkpt lat="45.22261" lon="6.45186">
        <ele>685</ele>
        <time>2022-07-17T06:56:44Z</time>
      </trkpt>
      <trkpt lat="45.22258" lon="6.45193">
        <ele>685</ele>
        <time>2022-07-17T06:56:45Z</time>
      </trkpt>
      <trkpt lat="45.22255" lon="6.45201">
        <ele>684.6</ele>
        <time>2022-07-17T06:56:46Z</time>
      </trkpt>
      <trkpt lat="45.22251" lon="6.4521">
        <ele>684.6</ele>
        <time>2022-07-17T06:56:47Z</time>
      </trkpt>
      <trkpt lat="45.22249" lon="6.45219">
        <ele>684.4</ele>
        <time>2022-07-17T06:56:48Z</time>
      </trkpt>
      <trkpt lat="45.22245" lon="6.45228">
        <ele>684.2</ele>
        <time>2022-07-17T06:56:49Z</time>
      </trkpt>
      <trkpt lat="45.22242" lon="6.45237">
        <ele>683.8</ele>
        <time>2022-07-17T06:56:50Z</time>
      </trkpt>
      <trkpt lat="45.22238" lon="6.45246">
        <ele>683.8</ele>
        <time>2022-07-17T06:56:51Z</time>
      </trkpt>
      <trkpt lat="45.22235" lon="6.45256">
        <ele>683.4</ele>
        <time>2022-07-17T06:56:52Z</time>
      </trkpt>
      <trkpt lat="45.22231" lon="6.45265">
        <ele>683.2</ele>
        <time>2022-07-17T06:56:53Z</time>
      </trkpt>
      <trkpt lat="45.22226" lon="6.45274">
        <ele>683.2</ele>
        <time>2022-07-17T06:56:54Z</time>
      </trkpt>
      <trkpt lat="45.22221" lon="6.45282">
        <ele>682.8</ele>
        <time>2022-07-17T06:56:55Z</time>
      </trkpt>
      <trkpt lat="45.22216" lon="6.4529">
        <ele>682.6</ele>
        <time>2022-07-17T06:56:56Z</time>
      </trkpt>
      <trkpt lat="45.22211" lon="6.45299">
        <ele>682.6</ele>
        <time>2022-07-17T06:56:57Z</time>
      </trkpt>
      <trkpt lat="45.22206" lon="6.45308">
        <ele>682</ele>
        <time>2022-07-17T06:56:58Z</time>
      </trkpt>
      <trkpt lat="45.22201" lon="6.45316">
        <ele>681.8</ele>
        <time>2022-07-17T06:56:59Z</time>
      </trkpt>
      <trkpt lat="45.22196" lon="6.45324">
        <ele>681.6</ele>
        <time>2022-07-17T06:57:00Z</time>
      </trkpt>
      <trkpt lat="45.22191" lon="6.45332">
        <ele>681.4</ele>
        <time>2022-07-17T06:57:01Z</time>
      </trkpt>
      <trkpt lat="45.22186" lon="6.4534">
        <ele>681</ele>
        <time>2022-07-17T06:57:02Z</time>
      </trkpt>
      <trkpt lat="45.22181" lon="6.45347">
        <ele>681</ele>
        <time>2022-07-17T06:57:03Z</time>
      </trkpt>
      <trkpt lat="45.22176" lon="6.45354">
        <ele>680.8</ele>
        <time>2022-07-17T06:57:04Z</time>
      </trkpt>
      <trkpt lat="45.22172" lon="6.45363">
        <ele>680.8</ele>
        <time>2022-07-17T06:57:05Z</time>
      </trkpt>
      <trkpt lat="45.22168" lon="6.4537">
        <ele>680.8</ele>
        <time>2022-07-17T06:57:06Z</time>
      </trkpt>
      <trkpt lat="45.22164" lon="6.45379">
        <ele>680.8</ele>
        <time>2022-07-17T06:57:07Z</time>
      </trkpt>
      <trkpt lat="45.2216" lon="6.45387">
        <ele>680.6</ele>
        <time>2022-07-17T06:57:08Z</time>
      </trkpt>
      <trkpt lat="45.22157" lon="6.45396">
        <ele>680.6</ele>
        <time>2022-07-17T06:57:09Z</time>
      </trkpt>
      <trkpt lat="45.22153" lon="6.45404">
        <ele>680.6</ele>
        <time>2022-07-17T06:57:10Z</time>
      </trkpt>
      <trkpt lat="45.22149" lon="6.45413">
        <ele>680.6</ele>
        <time>2022-07-17T06:57:11Z</time>
      </trkpt>
      <trkpt lat="45.22145" lon="6.4542">
        <ele>680.6</ele>
        <time>2022-07-17T06:57:12Z</time>
      </trkpt>
      <trkpt lat="45.22141" lon="6.45429">
        <ele>680.6</ele>
        <time>2022-07-17T06:57:13Z</time>
      </trkpt>
      <trkpt lat="45.22137" lon="6.45437">
        <ele>680.6</ele>
        <time>2022-07-17T06:57:14Z</time>
      </trkpt>
      <trkpt lat="45.22132" lon="6.45444">
        <ele>680.6</ele>
        <time>2022-07-17T06:57:15Z</time>
      </trkpt>
      <trkpt lat="45.22128" lon="6.45451">
        <ele>680.6</ele>
        <time>2022-07-17T06:57:16Z</time>
      </trkpt>
      <trkpt lat="45.22124" lon="6.45457">
        <ele>680.6</ele>
        <time>2022-07-17T06:57:17Z</time>
      </trkpt>
      <trkpt lat="45.2212" lon="6.45464">
        <ele>680.6</ele>
        <time>2022-07-17T06:57:18Z</time>
      </trkpt>
      <trkpt lat="45.22117" lon="6.45472">
        <ele>680.6</ele>
        <time>2022-07-17T06:57:19Z</time>
      </trkpt>
      <trkpt lat="45.22113" lon="6.4548">
        <ele>680.6</ele>
        <time>2022-07-17T06:57:20Z</time>
      </trkpt>
      <trkpt lat="45.2211" lon="6.45489">
        <ele>680.6</ele>
        <time>2022-07-17T06:57:21Z</time>
      </trkpt>
      <trkpt lat="45.22107" lon="6.45498">
        <ele>680.6</ele>
        <time>2022-07-17T06:57:22Z</time>
      </trkpt>
      <trkpt lat="45.22104" lon="6.45507">
        <ele>680.6</ele>
        <time>2022-07-17T06:57:23Z</time>
      </trkpt>
      <trkpt lat="45.221" lon="6.45515">
        <ele>680.6</ele>
        <time>2022-07-17T06:57:24Z</time>
      </trkpt>
      <trkpt lat="45.22098" lon="6.45523">
        <ele>680.6</ele>
        <time>2022-07-17T06:57:25Z</time>
      </trkpt>
      <trkpt lat="45.22095" lon="6.45532">
        <ele>680.8</ele>
        <time>2022-07-17T06:57:26Z</time>
      </trkpt>
      <trkpt lat="45.22093" lon="6.4554">
        <ele>680.8</ele>
        <time>2022-07-17T06:57:27Z</time>
      </trkpt>
      <trkpt lat="45.22091" lon="6.45548">
        <ele>680.8</ele>
        <time>2022-07-17T06:57:28Z</time>
      </trkpt>
      <trkpt lat="45.22088" lon="6.45556">
        <ele>680.8</ele>
        <time>2022-07-17T06:57:29Z</time>
      </trkpt>
      <trkpt lat="45.22087" lon="6.45566">
        <ele>680.8</ele>
        <time>2022-07-17T06:57:30Z</time>
      </trkpt>
      <trkpt lat="45.22086" lon="6.45576">
        <ele>680.8</ele>
        <time>2022-07-17T06:57:31Z</time>
      </trkpt>
      <trkpt lat="45.22084" lon="6.45585">
        <ele>680.8</ele>
        <time>2022-07-17T06:57:32Z</time>
      </trkpt>
      <trkpt lat="45.22083" lon="6.45594">
        <ele>680.8</ele>
        <time>2022-07-17T06:57:33Z</time>
      </trkpt>
      <trkpt lat="45.22082" lon="6.45603">
        <ele>681.2</ele>
        <time>2022-07-17T06:57:34Z</time>
      </trkpt>
      <trkpt lat="45.22081" lon="6.45613">
        <ele>681.2</ele>
        <time>2022-07-17T06:57:35Z</time>
      </trkpt>
      <trkpt lat="45.22081" lon="6.45624">
        <ele>681.4</ele>
        <time>2022-07-17T06:57:36Z</time>
      </trkpt>
      <trkpt lat="45.2208" lon="6.45634">
        <ele>681.4</ele>
        <time>2022-07-17T06:57:37Z</time>
      </trkpt>
      <trkpt lat="45.22079" lon="6.45643">
        <ele>681.4</ele>
        <time>2022-07-17T06:57:38Z</time>
      </trkpt>
      <trkpt lat="45.22078" lon="6.45652">
        <ele>681.4</ele>
        <time>2022-07-17T06:57:39Z</time>
      </trkpt>
      <trkpt lat="45.22077" lon="6.45662">
        <ele>681.4</ele>
        <time>2022-07-17T06:57:40Z</time>
      </trkpt>
      <trkpt lat="45.22076" lon="6.45671">
        <ele>681.6</ele>
        <time>2022-07-17T06:57:41Z</time>
      </trkpt>
      <trkpt lat="45.22075" lon="6.45681">
        <ele>681.6</ele>
        <time>2022-07-17T06:57:42Z</time>
      </trkpt>
      <trkpt lat="45.22074" lon="6.4569">
        <ele>681.6</ele>
        <time>2022-07-17T06:57:43Z</time>
      </trkpt>
      <trkpt lat="45.22073" lon="6.45699">
        <ele>682</ele>
        <time>2022-07-17T06:57:44Z</time>
      </trkpt>
      <trkpt lat="45.22072" lon="6.45708">
        <ele>682</ele>
        <time>2022-07-17T06:57:45Z</time>
      </trkpt>
      <trkpt lat="45.22071" lon="6.45717">
        <ele>682</ele>
        <time>2022-07-17T06:57:46Z</time>
      </trkpt>
      <trkpt lat="45.2207" lon="6.45727">
        <ele>682</ele>
        <time>2022-07-17T06:57:47Z</time>
      </trkpt>
      <trkpt lat="45.22069" lon="6.45736">
        <ele>682</ele>
        <time>2022-07-17T06:57:48Z</time>
      </trkpt>
      <trkpt lat="45.22068" lon="6.45745">
        <ele>682</ele>
        <time>2022-07-17T06:57:49Z</time>
      </trkpt>
      <trkpt lat="45.22068" lon="6.45754">
        <ele>682.2</ele>
        <time>2022-07-17T06:57:50Z</time>
      </trkpt>
      <trkpt lat="45.22067" lon="6.45763">
        <ele>682.2</ele>
        <time>2022-07-17T06:57:51Z</time>
      </trkpt>
      <trkpt lat="45.22066" lon="6.45772">
        <ele>682.2</ele>
        <time>2022-07-17T06:57:52Z</time>
      </trkpt>
      <trkpt lat="45.22065" lon="6.4578">
        <ele>682.2</ele>
        <time>2022-07-17T06:57:53Z</time>
      </trkpt>
      <trkpt lat="45.22064" lon="6.45789">
        <ele>682.4</ele>
        <time>2022-07-17T06:57:54Z</time>
      </trkpt>
      <trkpt lat="45.22063" lon="6.45797">
        <ele>682.4</ele>
        <time>2022-07-17T06:57:55Z</time>
      </trkpt>
      <trkpt lat="45.22062" lon="6.45806">
        <ele>682.4</ele>
        <time>2022-07-17T06:57:56Z</time>
      </trkpt>
      <trkpt lat="45.22061" lon="6.45814">
        <ele>682.6</ele>
        <time>2022-07-17T06:57:58Z</time>
      </trkpt>
      <trkpt lat="45.22061" lon="6.45822">
        <ele>682.6</ele>
        <time>2022-07-17T06:57:59Z</time>
      </trkpt>
      <trkpt lat="45.2206" lon="6.4583">
        <ele>682.6</ele>
        <time>2022-07-17T06:58:00Z</time>
      </trkpt>
      <trkpt lat="45.22059" lon="6.45839">
        <ele>683</ele>
        <time>2022-07-17T06:58:01Z</time>
      </trkpt>
      <trkpt lat="45.22059" lon="6.45847">
        <ele>683</ele>
        <time>2022-07-17T06:58:02Z</time>
      </trkpt>
      <trkpt lat="45.22058" lon="6.45855">
        <ele>683</ele>
        <time>2022-07-17T06:58:03Z</time>
      </trkpt>
      <trkpt lat="45.22057" lon="6.45862">
        <ele>683</ele>
        <time>2022-07-17T06:58:04Z</time>
      </trkpt>
      <trkpt lat="45.22056" lon="6.4587">
        <ele>683</ele>
        <time>2022-07-17T06:58:05Z</time>
      </trkpt>
      <trkpt lat="45.22055" lon="6.45878">
        <ele>683</ele>
        <time>2022-07-17T06:58:06Z</time>
      </trkpt>
      <trkpt lat="45.22055" lon="6.45886">
        <ele>683.2</ele>
        <time>2022-07-17T06:58:07Z</time>
      </trkpt>
      <trkpt lat="45.22054" lon="6.45894">
        <ele>683.2</ele>
        <time>2022-07-17T06:58:08Z</time>
      </trkpt>
      <trkpt lat="45.22053" lon="6.45902">
        <ele>683.2</ele>
        <time>2022-07-17T06:58:09Z</time>
      </trkpt>
      <trkpt lat="45.22052" lon="6.4591">
        <ele>683.2</ele>
        <time>2022-07-17T06:58:10Z</time>
      </trkpt>
      <trkpt lat="45.22051" lon="6.45918">
        <ele>683.4</ele>
        <time>2022-07-17T06:58:11Z</time>
      </trkpt>
      <trkpt lat="45.2205" lon="6.45926">
        <ele>683.4</ele>
        <time>2022-07-17T06:58:12Z</time>
      </trkpt>
      <trkpt lat="45.22049" lon="6.45934">
        <ele>683.6</ele>
        <time>2022-07-17T06:58:13Z</time>
      </trkpt>
      <trkpt lat="45.22049" lon="6.45942">
        <ele>683.6</ele>
        <time>2022-07-17T06:58:14Z</time>
      </trkpt>
      <trkpt lat="45.22048" lon="6.45951">
        <ele>683.8</ele>
        <time>2022-07-17T06:58:15Z</time>
      </trkpt>
      <trkpt lat="45.22047" lon="6.45959">
        <ele>683.8</ele>
        <time>2022-07-17T06:58:16Z</time>
      </trkpt>
      <trkpt lat="45.22047" lon="6.45968">
        <ele>683.8</ele>
        <time>2022-07-17T06:58:17Z</time>
      </trkpt>
      <trkpt lat="45.22047" lon="6.45976">
        <ele>683.8</ele>
        <time>2022-07-17T06:58:18Z</time>
      </trkpt>
      <trkpt lat="45.22046" lon="6.45984">
        <ele>684</ele>
        <time>2022-07-17T06:58:19Z</time>
      </trkpt>
      <trkpt lat="45.22046" lon="6.45992">
        <ele>684</ele>
        <time>2022-07-17T06:58:20Z</time>
      </trkpt>
      <trkpt lat="45.22045" lon="6.46">
        <ele>684</ele>
        <time>2022-07-17T06:58:21Z</time>
      </trkpt>
      <trkpt lat="45.22045" lon="6.46008">
        <ele>684</ele>
        <time>2022-07-17T06:58:22Z</time>
      </trkpt>
      <trkpt lat="45.22045" lon="6.46016">
        <ele>684</ele>
        <time>2022-07-17T06:58:23Z</time>
      </trkpt>
      <trkpt lat="45.22045" lon="6.46023">
        <ele>684</ele>
        <time>2022-07-17T06:58:24Z</time>
      </trkpt>
      <trkpt lat="45.22045" lon="6.4603">
        <ele>684</ele>
        <time>2022-07-17T06:58:25Z</time>
      </trkpt>
      <trkpt lat="45.22045" lon="6.46035">
        <ele>684.4</ele>
        <time>2022-07-17T06:58:26Z</time>
      </trkpt>
      <trkpt lat="45.22045" lon="6.46038">
        <ele>684.4</ele>
        <time>2022-07-17T06:58:27Z</time>
      </trkpt>
      <trkpt lat="45.22045" lon="6.4604">
        <ele>684.6</ele>
        <time>2022-07-17T06:58:28Z</time>
      </trkpt>
      <trkpt lat="45.22044" lon="6.46043">
        <ele>684.6</ele>
        <time>2022-07-17T06:58:29Z</time>
      </trkpt>
      <trkpt lat="45.22043" lon="6.46046">
        <ele>684.6</ele>
        <time>2022-07-17T06:58:30Z</time>
      </trkpt>
      <trkpt lat="45.22042" lon="6.46049">
        <ele>684.6</ele>
        <time>2022-07-17T06:58:31Z</time>
      </trkpt>
      <trkpt lat="45.22041" lon="6.46052">
        <ele>684.8</ele>
        <time>2022-07-17T06:58:32Z</time>
      </trkpt>
      <trkpt lat="45.22039" lon="6.46056">
        <ele>684.8</ele>
        <time>2022-07-17T06:58:33Z</time>
      </trkpt>
      <trkpt lat="45.22038" lon="6.4606">
        <ele>684.8</ele>
        <time>2022-07-17T06:58:34Z</time>
      </trkpt>
      <trkpt lat="45.22037" lon="6.46065">
        <ele>685</ele>
        <time>2022-07-17T06:58:35Z</time>
      </trkpt>
      <trkpt lat="45.22037" lon="6.4607">
        <ele>685</ele>
        <time>2022-07-17T06:58:36Z</time>
      </trkpt>
      <trkpt lat="45.22036" lon="6.46076">
        <ele>685</ele>
        <time>2022-07-17T06:58:37Z</time>
      </trkpt>
      <trkpt lat="45.22036" lon="6.46082">
        <ele>685</ele>
        <time>2022-07-17T06:58:38Z</time>
      </trkpt>
      <trkpt lat="45.22034" lon="6.46088">
        <ele>685</ele>
        <time>2022-07-17T06:58:39Z</time>
      </trkpt>
      <trkpt lat="45.22032" lon="6.46094">
        <ele>685</ele>
        <time>2022-07-17T06:58:40Z</time>
      </trkpt>
      <trkpt lat="45.2203" lon="6.46101">
        <ele>685</ele>
        <time>2022-07-17T06:58:41Z</time>
      </trkpt>
      <trkpt lat="45.22028" lon="6.46107">
        <ele>685</ele>
        <time>2022-07-17T06:58:42Z</time>
      </trkpt>
      <trkpt lat="45.22027" lon="6.46115">
        <ele>685</ele>
        <time>2022-07-17T06:58:43Z</time>
      </trkpt>
      <trkpt lat="45.22025" lon="6.46122">
        <ele>685</ele>
        <time>2022-07-17T06:58:44Z</time>
      </trkpt>
      <trkpt lat="45.22024" lon="6.4613">
        <ele>685</ele>
        <time>2022-07-17T06:58:45Z</time>
      </trkpt>
      <trkpt lat="45.22023" lon="6.46137">
        <ele>685</ele>
        <time>2022-07-17T06:58:46Z</time>
      </trkpt>
      <trkpt lat="45.22022" lon="6.46145">
        <ele>685</ele>
        <time>2022-07-17T06:58:47Z</time>
      </trkpt>
      <trkpt lat="45.22021" lon="6.46153">
        <ele>685</ele>
        <time>2022-07-17T06:58:48Z</time>
      </trkpt>
      <trkpt lat="45.2202" lon="6.46161">
        <ele>685</ele>
        <time>2022-07-17T06:58:49Z</time>
      </trkpt>
      <trkpt lat="45.22018" lon="6.4617">
        <ele>685</ele>
        <time>2022-07-17T06:58:50Z</time>
      </trkpt>
      <trkpt lat="45.22017" lon="6.46178">
        <ele>685</ele>
        <time>2022-07-17T06:58:51Z</time>
      </trkpt>
      <trkpt lat="45.22016" lon="6.46186">
        <ele>685</ele>
        <time>2022-07-17T06:58:52Z</time>
      </trkpt>
      <trkpt lat="45.22015" lon="6.46194">
        <ele>685</ele>
        <time>2022-07-17T06:58:53Z</time>
      </trkpt>
      <trkpt lat="45.22013" lon="6.46202">
        <ele>685</ele>
        <time>2022-07-17T06:58:54Z</time>
      </trkpt>
      <trkpt lat="45.22012" lon="6.4621">
        <ele>685</ele>
        <time>2022-07-17T06:58:55Z</time>
      </trkpt>
      <trkpt lat="45.22011" lon="6.46217">
        <ele>685.2</ele>
        <time>2022-07-17T06:58:56Z</time>
      </trkpt>
      <trkpt lat="45.2201" lon="6.46225">
        <ele>685.2</ele>
        <time>2022-07-17T06:58:57Z</time>
      </trkpt>
      <trkpt lat="45.22009" lon="6.46232">
        <ele>685.4</ele>
        <time>2022-07-17T06:58:58Z</time>
      </trkpt>
      <trkpt lat="45.22008" lon="6.4624">
        <ele>685.4</ele>
        <time>2022-07-17T06:58:59Z</time>
      </trkpt>
      <trkpt lat="45.22007" lon="6.46248">
        <ele>685.4</ele>
        <time>2022-07-17T06:59:00Z</time>
      </trkpt>
      <trkpt lat="45.22006" lon="6.46256">
        <ele>685.8</ele>
        <time>2022-07-17T06:59:01Z</time>
      </trkpt>
      <trkpt lat="45.22004" lon="6.46264">
        <ele>685.8</ele>
        <time>2022-07-17T06:59:02Z</time>
      </trkpt>
      <trkpt lat="45.22003" lon="6.46272">
        <ele>685.8</ele>
        <time>2022-07-17T06:59:03Z</time>
      </trkpt>
      <trkpt lat="45.22002" lon="6.4628">
        <ele>686</ele>
        <time>2022-07-17T06:59:04Z</time>
      </trkpt>
      <trkpt lat="45.22001" lon="6.46288">
        <ele>686</ele>
        <time>2022-07-17T06:59:05Z</time>
      </trkpt>
      <trkpt lat="45.22" lon="6.46295">
        <ele>686</ele>
        <time>2022-07-17T06:59:06Z</time>
      </trkpt>
      <trkpt lat="45.22" lon="6.46303">
        <ele>686</ele>
        <time>2022-07-17T06:59:07Z</time>
      </trkpt>
      <trkpt lat="45.22" lon="6.46311">
        <ele>686</ele>
        <time>2022-07-17T06:59:08Z</time>
      </trkpt>
      <trkpt lat="45.21999" lon="6.46318">
        <ele>686</ele>
        <time>2022-07-17T06:59:09Z</time>
      </trkpt>
      <trkpt lat="45.21999" lon="6.46326">
        <ele>686</ele>
        <time>2022-07-17T06:59:10Z</time>
      </trkpt>
      <trkpt lat="45.21998" lon="6.46335">
        <ele>686</ele>
        <time>2022-07-17T06:59:11Z</time>
      </trkpt>
      <trkpt lat="45.21998" lon="6.46343">
        <ele>686</ele>
        <time>2022-07-17T06:59:12Z</time>
      </trkpt>
      <trkpt lat="45.21997" lon="6.46352">
        <ele>686.4</ele>
        <time>2022-07-17T06:59:13Z</time>
      </trkpt>
      <trkpt lat="45.21996" lon="6.4636">
        <ele>686.4</ele>
        <time>2022-07-17T06:59:14Z</time>
      </trkpt>
      <trkpt lat="45.21996" lon="6.46368">
        <ele>686.4</ele>
        <time>2022-07-17T06:59:15Z</time>
      </trkpt>
      <trkpt lat="45.21995" lon="6.46376">
        <ele>686.6</ele>
        <time>2022-07-17T06:59:16Z</time>
      </trkpt>
      <trkpt lat="45.21994" lon="6.46384">
        <ele>686.6</ele>
        <time>2022-07-17T06:59:17Z</time>
      </trkpt>
      <trkpt lat="45.21994" lon="6.46391">
        <ele>686.6</ele>
        <time>2022-07-17T06:59:18Z</time>
      </trkpt>
      <trkpt lat="45.21993" lon="6.46399">
        <ele>686.6</ele>
        <time>2022-07-17T06:59:19Z</time>
      </trkpt>
      <trkpt lat="45.21993" lon="6.46406">
        <ele>687</ele>
        <time>2022-07-17T06:59:20Z</time>
      </trkpt>
      <trkpt lat="45.21993" lon="6.46413">
        <ele>687</ele>
        <time>2022-07-17T06:59:21Z</time>
      </trkpt>
      <trkpt lat="45.21993" lon="6.46421">
        <ele>687.2</ele>
        <time>2022-07-17T06:59:22Z</time>
      </trkpt>
      <trkpt lat="45.21992" lon="6.46429">
        <ele>687.2</ele>
        <time>2022-07-17T06:59:23Z</time>
      </trkpt>
      <trkpt lat="45.21991" lon="6.46437">
        <ele>687.2</ele>
        <time>2022-07-17T06:59:24Z</time>
      </trkpt>
      <trkpt lat="45.21991" lon="6.46446">
        <ele>687.2</ele>
        <time>2022-07-17T06:59:25Z</time>
      </trkpt>
      <trkpt lat="45.21992" lon="6.46454">
        <ele>687.4</ele>
        <time>2022-07-17T06:59:26Z</time>
      </trkpt>
      <trkpt lat="45.2199" lon="6.46462">
        <ele>687.4</ele>
        <time>2022-07-17T06:59:27Z</time>
      </trkpt>
      <trkpt lat="45.21986" lon="6.46469">
        <ele>687.6</ele>
        <time>2022-07-17T06:59:28Z</time>
      </trkpt>
      <trkpt lat="45.21982" lon="6.46475">
        <ele>687.6</ele>
        <time>2022-07-17T06:59:29Z</time>
      </trkpt>
      <trkpt lat="45.21979" lon="6.46482">
        <ele>688</ele>
        <time>2022-07-17T06:59:30Z</time>
      </trkpt>
      <trkpt lat="45.21977" lon="6.4649">
        <ele>688</ele>
        <time>2022-07-17T06:59:31Z</time>
      </trkpt>
      <trkpt lat="45.21977" lon="6.46498">
        <ele>688</ele>
        <time>2022-07-17T06:59:32Z</time>
      </trkpt>
      <trkpt lat="45.21979" lon="6.46506">
        <ele>688.2</ele>
        <time>2022-07-17T06:59:33Z</time>
      </trkpt>
      <trkpt lat="45.21982" lon="6.46514">
        <ele>688.2</ele>
        <time>2022-07-17T06:59:34Z</time>
      </trkpt>
      <trkpt lat="45.21982" lon="6.46522">
        <ele>688.2</ele>
        <time>2022-07-17T06:59:35Z</time>
      </trkpt>
      <trkpt lat="45.21981" lon="6.4653">
        <ele>688.4</ele>
        <time>2022-07-17T06:59:36Z</time>
      </trkpt>
      <trkpt lat="45.2198" lon="6.46539">
        <ele>688.4</ele>
        <time>2022-07-17T06:59:37Z</time>
      </trkpt>
      <trkpt lat="45.21978" lon="6.46548">
        <ele>688.4</ele>
        <time>2022-07-17T06:59:38Z</time>
      </trkpt>
      <trkpt lat="45.21977" lon="6.46556">
        <ele>688.4</ele>
        <time>2022-07-17T06:59:39Z</time>
      </trkpt>
      <trkpt lat="45.21975" lon="6.46565">
        <ele>688.8</ele>
        <time>2022-07-17T06:59:40Z</time>
      </trkpt>
      <trkpt lat="45.21974" lon="6.46573">
        <ele>688.8</ele>
        <time>2022-07-17T06:59:41Z</time>
      </trkpt>
      <trkpt lat="45.21973" lon="6.46581">
        <ele>688.8</ele>
        <time>2022-07-17T06:59:42Z</time>
      </trkpt>
      <trkpt lat="45.21972" lon="6.46588">
        <ele>688.8</ele>
        <time>2022-07-17T06:59:43Z</time>
      </trkpt>
      <trkpt lat="45.21971" lon="6.46596">
        <ele>688.8</ele>
        <time>2022-07-17T06:59:44Z</time>
      </trkpt>
      <trkpt lat="45.2197" lon="6.46603">
        <ele>689</ele>
        <time>2022-07-17T06:59:45Z</time>
      </trkpt>
      <trkpt lat="45.21969" lon="6.4661">
        <ele>689</ele>
        <time>2022-07-17T06:59:46Z</time>
      </trkpt>
      <trkpt lat="45.21969" lon="6.46618">
        <ele>689</ele>
        <time>2022-07-17T06:59:47Z</time>
      </trkpt>
      <trkpt lat="45.21968" lon="6.46625">
        <ele>689.4</ele>
        <time>2022-07-17T06:59:48Z</time>
      </trkpt>
      <trkpt lat="45.21967" lon="6.46633">
        <ele>689.4</ele>
        <time>2022-07-17T06:59:49Z</time>
      </trkpt>
      <trkpt lat="45.21966" lon="6.4664">
        <ele>689.6</ele>
        <time>2022-07-17T06:59:50Z</time>
      </trkpt>
      <trkpt lat="45.21965" lon="6.46648">
        <ele>689.6</ele>
        <time>2022-07-17T06:59:51Z</time>
      </trkpt>
      <trkpt lat="45.21964" lon="6.46655">
        <ele>689.8</ele>
        <time>2022-07-17T06:59:52Z</time>
      </trkpt>
      <trkpt lat="45.21964" lon="6.46663">
        <ele>689.8</ele>
        <time>2022-07-17T06:59:53Z</time>
      </trkpt>
      <trkpt lat="45.21963" lon="6.46671">
        <ele>690.2</ele>
        <time>2022-07-17T06:59:54Z</time>
      </trkpt>
      <trkpt lat="45.21962" lon="6.46679">
        <ele>690.2</ele>
        <time>2022-07-17T06:59:55Z</time>
      </trkpt>
      <trkpt lat="45.21962" lon="6.46687">
        <ele>690.2</ele>
        <time>2022-07-17T06:59:56Z</time>
      </trkpt>
      <trkpt lat="45.21961" lon="6.46695">
        <ele>690.4</ele>
        <time>2022-07-17T06:59:57Z</time>
      </trkpt>
      <trkpt lat="45.2196" lon="6.46703">
        <ele>690.4</ele>
        <time>2022-07-17T06:59:58Z</time>
      </trkpt>
      <trkpt lat="45.2196" lon="6.46711">
        <ele>690.4</ele>
        <time>2022-07-17T06:59:59Z</time>
      </trkpt>
      <trkpt lat="45.21959" lon="6.46719">
        <ele>690.6</ele>
        <time>2022-07-17T07:00:00Z</time>
      </trkpt>
      <trkpt lat="45.21958" lon="6.46727">
        <ele>690.6</ele>
        <time>2022-07-17T07:00:01Z</time>
      </trkpt>
      <trkpt lat="45.21958" lon="6.46735">
        <ele>690.6</ele>
        <time>2022-07-17T07:00:02Z</time>
      </trkpt>
      <trkpt lat="45.21957" lon="6.46743">
        <ele>691</ele>
        <time>2022-07-17T07:00:03Z</time>
      </trkpt>
      <trkpt lat="45.21956" lon="6.46751">
        <ele>691</ele>
        <time>2022-07-17T07:00:04Z</time>
      </trkpt>
      <trkpt lat="45.21955" lon="6.46758">
        <ele>691.2</ele>
        <time>2022-07-17T07:00:05Z</time>
      </trkpt>
      <trkpt lat="45.21955" lon="6.46766">
        <ele>691.2</ele>
        <time>2022-07-17T07:00:06Z</time>
      </trkpt>
      <trkpt lat="45.21954" lon="6.46773">
        <ele>691.4</ele>
        <time>2022-07-17T07:00:07Z</time>
      </trkpt>
      <trkpt lat="45.21953" lon="6.46781">
        <ele>691.4</ele>
        <time>2022-07-17T07:00:08Z</time>
      </trkpt>
      <trkpt lat="45.21952" lon="6.46788">
        <ele>691.6</ele>
        <time>2022-07-17T07:00:09Z</time>
      </trkpt>
      <trkpt lat="45.21952" lon="6.46795">
        <ele>691.6</ele>
        <time>2022-07-17T07:00:10Z</time>
      </trkpt>
      <trkpt lat="45.21951" lon="6.46802">
        <ele>691.6</ele>
        <time>2022-07-17T07:00:11Z</time>
      </trkpt>
      <trkpt lat="45.2195" lon="6.4681">
        <ele>692</ele>
        <time>2022-07-17T07:00:12Z</time>
      </trkpt>
      <trkpt lat="45.21949" lon="6.46817">
        <ele>692</ele>
        <time>2022-07-17T07:00:13Z</time>
      </trkpt>
      <trkpt lat="45.21949" lon="6.46824">
        <ele>692.2</ele>
        <time>2022-07-17T07:00:14Z</time>
      </trkpt>
      <trkpt lat="45.21948" lon="6.46831">
        <ele>692.2</ele>
        <time>2022-07-17T07:00:15Z</time>
      </trkpt>
      <trkpt lat="45.21948" lon="6.46839">
        <ele>692.6</ele>
        <time>2022-07-17T07:00:16Z</time>
      </trkpt>
      <trkpt lat="45.21947" lon="6.46846">
        <ele>692.6</ele>
        <time>2022-07-17T07:00:17Z</time>
      </trkpt>
      <trkpt lat="45.21946" lon="6.46854">
        <ele>692.6</ele>
        <time>2022-07-17T07:00:18Z</time>
      </trkpt>
      <trkpt lat="45.21946" lon="6.46862">
        <ele>692.8</ele>
        <time>2022-07-17T07:00:19Z</time>
      </trkpt>
      <trkpt lat="45.21945" lon="6.46869">
        <ele>692.8</ele>
        <time>2022-07-17T07:00:20Z</time>
      </trkpt>
      <trkpt lat="45.21944" lon="6.46877">
        <ele>693</ele>
        <time>2022-07-17T07:00:21Z</time>
      </trkpt>
      <trkpt lat="45.21943" lon="6.46884">
        <ele>693</ele>
        <time>2022-07-17T07:00:22Z</time>
      </trkpt>
      <trkpt lat="45.21941" lon="6.46891">
        <ele>693.2</ele>
        <time>2022-07-17T07:00:23Z</time>
      </trkpt>
      <trkpt lat="45.2194" lon="6.46898">
        <ele>693.2</ele>
        <time>2022-07-17T07:00:24Z</time>
      </trkpt>
      <trkpt lat="45.21938" lon="6.46904">
        <ele>693.2</ele>
        <time>2022-07-17T07:00:25Z</time>
      </trkpt>
      <trkpt lat="45.21935" lon="6.46911">
        <ele>693.4</ele>
        <time>2022-07-17T07:00:26Z</time>
      </trkpt>
      <trkpt lat="45.21932" lon="6.46917">
        <ele>693.4</ele>
        <time>2022-07-17T07:00:27Z</time>
      </trkpt>
      <trkpt lat="45.21928" lon="6.46922">
        <ele>693.4</ele>
        <time>2022-07-17T07:00:28Z</time>
      </trkpt>
      <trkpt lat="45.21924" lon="6.46928">
        <ele>693.8</ele>
        <time>2022-07-17T07:00:29Z</time>
      </trkpt>
      <trkpt lat="45.21921" lon="6.46933">
        <ele>693.8</ele>
        <time>2022-07-17T07:00:30Z</time>
      </trkpt>
      <trkpt lat="45.21917" lon="6.46938">
        <ele>693.8</ele>
        <time>2022-07-17T07:00:31Z</time>
      </trkpt>
      <trkpt lat="45.21913" lon="6.46944">
        <ele>693.8</ele>
        <time>2022-07-17T07:00:32Z</time>
      </trkpt>
      <trkpt lat="45.21909" lon="6.4695">
        <ele>694</ele>
        <time>2022-07-17T07:00:33Z</time>
      </trkpt>
      <trkpt lat="45.21906" lon="6.46955">
        <ele>694</ele>
        <time>2022-07-17T07:00:34Z</time>
      </trkpt>
      <trkpt lat="45.21902" lon="6.4696">
        <ele>694.2</ele>
        <time>2022-07-17T07:00:35Z</time>
      </trkpt>
      <trkpt lat="45.21899" lon="6.46966">
        <ele>694.2</ele>
        <time>2022-07-17T07:00:36Z</time>
      </trkpt>
      <trkpt lat="45.21896" lon="6.46971">
        <ele>694.2</ele>
        <time>2022-07-17T07:00:37Z</time>
      </trkpt>
      <trkpt lat="45.21892" lon="6.46976">
        <ele>694.2</ele>
        <time>2022-07-17T07:00:38Z</time>
      </trkpt>
      <trkpt lat="45.21888" lon="6.46981">
        <ele>694.4</ele>
        <time>2022-07-17T07:00:39Z</time>
      </trkpt>
      <trkpt lat="45.21885" lon="6.46986">
        <ele>694.4</ele>
        <time>2022-07-17T07:00:40Z</time>
      </trkpt>
      <trkpt lat="45.21881" lon="6.46991">
        <ele>694.4</ele>
        <time>2022-07-17T07:00:41Z</time>
      </trkpt>
      <trkpt lat="45.21877" lon="6.46996">
        <ele>694.8</ele>
        <time>2022-07-17T07:00:42Z</time>
      </trkpt>
      <trkpt lat="45.21873" lon="6.47001">
        <ele>694.8</ele>
        <time>2022-07-17T07:00:43Z</time>
      </trkpt>
      <trkpt lat="45.2187" lon="6.47006">
        <ele>694.8</ele>
        <time>2022-07-17T07:00:44Z</time>
      </trkpt>
      <trkpt lat="45.21866" lon="6.47012">
        <ele>694.8</ele>
        <time>2022-07-17T07:00:45Z</time>
      </trkpt>
      <trkpt lat="45.21863" lon="6.47017">
        <ele>694.8</ele>
        <time>2022-07-17T07:00:46Z</time>
      </trkpt>
      <trkpt lat="45.2186" lon="6.47023">
        <ele>695</ele>
        <time>2022-07-17T07:00:47Z</time>
      </trkpt>
      <trkpt lat="45.21857" lon="6.47028">
        <ele>695</ele>
        <time>2022-07-17T07:00:48Z</time>
      </trkpt>
      <trkpt lat="45.21854" lon="6.47034">
        <ele>695</ele>
        <time>2022-07-17T07:00:49Z</time>
      </trkpt>
      <trkpt lat="45.21851" lon="6.47039">
        <ele>695</ele>
        <time>2022-07-17T07:00:50Z</time>
      </trkpt>
      <trkpt lat="45.21847" lon="6.47045">
        <ele>695.2</ele>
        <time>2022-07-17T07:00:51Z</time>
      </trkpt>
      <trkpt lat="45.21843" lon="6.47051">
        <ele>695.2</ele>
        <time>2022-07-17T07:00:52Z</time>
      </trkpt>
      <trkpt lat="45.2184" lon="6.47056">
        <ele>695.2</ele>
        <time>2022-07-17T07:00:53Z</time>
      </trkpt>
      <trkpt lat="45.21837" lon="6.47061">
        <ele>695.2</ele>
        <time>2022-07-17T07:00:54Z</time>
      </trkpt>
      <trkpt lat="45.21834" lon="6.47065">
        <ele>695.2</ele>
        <time>2022-07-17T07:00:55Z</time>
      </trkpt>
      <trkpt lat="45.21831" lon="6.47068">
        <ele>695.4</ele>
        <time>2022-07-17T07:00:56Z</time>
      </trkpt>
      <trkpt lat="45.21829" lon="6.47071">
        <ele>695.4</ele>
        <time>2022-07-17T07:00:57Z</time>
      </trkpt>
      <trkpt lat="45.21828" lon="6.47072">
        <ele>695.4</ele>
        <time>2022-07-17T07:00:58Z</time>
      </trkpt>
      <trkpt lat="45.21827" lon="6.47072">
        <ele>695.4</ele>
        <time>2022-07-17T07:00:59Z</time>
      </trkpt>
      <trkpt lat="45.21826" lon="6.47072">
        <ele>695.4</ele>
        <time>2022-07-17T07:01:00Z</time>
      </trkpt>
      <trkpt lat="45.21826" lon="6.47072">
        <ele>696.4</ele>
        <time>2022-07-17T07:11:26Z</time>
      </trkpt>
      <trkpt lat="45.21824" lon="6.47077">
        <ele>697</ele>
        <time>2022-07-17T07:18:46Z</time>
      </trkpt>
      <trkpt lat="45.21823" lon="6.47079">
        <ele>697</ele>
        <time>2022-07-17T07:18:47Z</time>
      </trkpt>
      <trkpt lat="45.21822" lon="6.47082">
        <ele>697</ele>
        <time>2022-07-17T07:18:48Z</time>
      </trkpt>
      <trkpt lat="45.21819" lon="6.47085">
        <ele>697</ele>
        <time>2022-07-17T07:18:49Z</time>
      </trkpt>
      <trkpt lat="45.21817" lon="6.47089">
        <ele>697</ele>
        <time>2022-07-17T07:18:50Z</time>
      </trkpt>
      <trkpt lat="45.21814" lon="6.47093">
        <ele>697</ele>
        <time>2022-07-17T07:18:51Z</time>
      </trkpt>
      <trkpt lat="45.21811" lon="6.47096">
        <ele>697</ele>
        <time>2022-07-17T07:18:52Z</time>
      </trkpt>
      <trkpt lat="45.21809" lon="6.471">
        <ele>697</ele>
        <time>2022-07-17T07:18:53Z</time>
      </trkpt>
      <trkpt lat="45.21806" lon="6.47105">
        <ele>697.2</ele>
        <time>2022-07-17T07:18:54Z</time>
      </trkpt>
      <trkpt lat="45.21802" lon="6.47109">
        <ele>697.2</ele>
        <time>2022-07-17T07:18:55Z</time>
      </trkpt>
      <trkpt lat="45.21799" lon="6.47114">
        <ele>697.2</ele>
        <time>2022-07-17T07:18:56Z</time>
      </trkpt>
      <trkpt lat="45.21794" lon="6.47119">
        <ele>697.4</ele>
        <time>2022-07-17T07:18:57Z</time>
      </trkpt>
      <trkpt lat="45.2179" lon="6.47123">
        <ele>697.4</ele>
        <time>2022-07-17T07:18:58Z</time>
      </trkpt>
      <trkpt lat="45.21785" lon="6.47128">
        <ele>697.4</ele>
        <time>2022-07-17T07:18:59Z</time>
      </trkpt>
      <trkpt lat="45.2178" lon="6.47132">
        <ele>697.6</ele>
        <time>2022-07-17T07:19:00Z</time>
      </trkpt>
      <trkpt lat="45.21776" lon="6.47137">
        <ele>697.6</ele>
        <time>2022-07-17T07:19:01Z</time>
      </trkpt>
      <trkpt lat="45.21772" lon="6.47142">
        <ele>697.6</ele>
        <time>2022-07-17T07:19:02Z</time>
      </trkpt>
      <trkpt lat="45.21768" lon="6.47147">
        <ele>697.6</ele>
        <time>2022-07-17T07:19:03Z</time>
      </trkpt>
      <trkpt lat="45.21765" lon="6.47152">
        <ele>697.6</ele>
        <time>2022-07-17T07:19:04Z</time>
      </trkpt>
      <trkpt lat="45.21762" lon="6.47156">
        <ele>698</ele>
        <time>2022-07-17T07:19:05Z</time>
      </trkpt>
      <trkpt lat="45.21759" lon="6.47161">
        <ele>698</ele>
        <time>2022-07-17T07:19:06Z</time>
      </trkpt>
      <trkpt lat="45.21757" lon="6.47165">
        <ele>698</ele>
        <time>2022-07-17T07:19:07Z</time>
      </trkpt>
      <trkpt lat="45.21754" lon="6.4717">
        <ele>698</ele>
        <time>2022-07-17T07:19:08Z</time>
      </trkpt>
      <trkpt lat="45.21751" lon="6.47175">
        <ele>698.2</ele>
        <time>2022-07-17T07:19:09Z</time>
      </trkpt>
      <trkpt lat="45.21749" lon="6.4718">
        <ele>698.2</ele>
        <time>2022-07-17T07:19:10Z</time>
      </trkpt>
      <trkpt lat="45.21746" lon="6.47186">
        <ele>698.2</ele>
        <time>2022-07-17T07:19:11Z</time>
      </trkpt>
      <trkpt lat="45.21743" lon="6.47191">
        <ele>698.2</ele>
        <time>2022-07-17T07:19:12Z</time>
      </trkpt>
      <trkpt lat="45.2174" lon="6.47196">
        <ele>698.2</ele>
        <time>2022-07-17T07:19:13Z</time>
      </trkpt>
      <trkpt lat="45.21737" lon="6.47202">
        <ele>698.2</ele>
        <time>2022-07-17T07:19:14Z</time>
      </trkpt>
      <trkpt lat="45.21734" lon="6.47207">
        <ele>698.2</ele>
        <time>2022-07-17T07:19:15Z</time>
      </trkpt>
      <trkpt lat="45.21731" lon="6.47212">
        <ele>698.4</ele>
        <time>2022-07-17T07:19:16Z</time>
      </trkpt>
      <trkpt lat="45.21728" lon="6.47218">
        <ele>698.4</ele>
        <time>2022-07-17T07:19:17Z</time>
      </trkpt>
      <trkpt lat="45.21724" lon="6.47223">
        <ele>698.4</ele>
        <time>2022-07-17T07:19:18Z</time>
      </trkpt>
      <trkpt lat="45.21722" lon="6.47228">
        <ele>698.6</ele>
        <time>2022-07-17T07:19:19Z</time>
      </trkpt>
      <trkpt lat="45.21719" lon="6.47234">
        <ele>698.6</ele>
        <time>2022-07-17T07:19:20Z</time>
      </trkpt>
      <trkpt lat="45.21717" lon="6.47239">
        <ele>698.6</ele>
        <time>2022-07-17T07:19:21Z</time>
      </trkpt>
      <trkpt lat="45.21714" lon="6.47244">
        <ele>698.8</ele>
        <time>2022-07-17T07:19:22Z</time>
      </trkpt>
      <trkpt lat="45.21711" lon="6.4725">
        <ele>698.8</ele>
        <time>2022-07-17T07:19:23Z</time>
      </trkpt>
      <trkpt lat="45.21708" lon="6.47255">
        <ele>698.8</ele>
        <time>2022-07-17T07:19:24Z</time>
      </trkpt>
      <trkpt lat="45.21705" lon="6.4726">
        <ele>699.2</ele>
        <time>2022-07-17T07:19:25Z</time>
      </trkpt>
      <trkpt lat="45.21701" lon="6.47264">
        <ele>699.2</ele>
        <time>2022-07-17T07:19:26Z</time>
      </trkpt>
      <trkpt lat="45.21698" lon="6.47268">
        <ele>699.2</ele>
        <time>2022-07-17T07:19:27Z</time>
      </trkpt>
      <trkpt lat="45.21696" lon="6.47273">
        <ele>699.4</ele>
        <time>2022-07-17T07:19:28Z</time>
      </trkpt>
      <trkpt lat="45.21693" lon="6.47278">
        <ele>699.4</ele>
        <time>2022-07-17T07:19:29Z</time>
      </trkpt>
      <trkpt lat="45.2169" lon="6.47283">
        <ele>699.4</ele>
        <time>2022-07-17T07:19:30Z</time>
      </trkpt>
      <trkpt lat="45.21686" lon="6.47288">
        <ele>699.6</ele>
        <time>2022-07-17T07:19:31Z</time>
      </trkpt>
      <trkpt lat="45.21683" lon="6.47293">
        <ele>699.6</ele>
        <time>2022-07-17T07:19:32Z</time>
      </trkpt>
      <trkpt lat="45.2168" lon="6.47297">
        <ele>699.6</ele>
        <time>2022-07-17T07:19:33Z</time>
      </trkpt>
      <trkpt lat="45.21676" lon="6.47301">
        <ele>699.6</ele>
        <time>2022-07-17T07:19:34Z</time>
      </trkpt>
      <trkpt lat="45.21673" lon="6.47305">
        <ele>700</ele>
        <time>2022-07-17T07:19:35Z</time>
      </trkpt>
      <trkpt lat="45.2167" lon="6.4731">
        <ele>700</ele>
        <time>2022-07-17T07:19:36Z</time>
      </trkpt>
      <trkpt lat="45.21668" lon="6.47315">
        <ele>700</ele>
        <time>2022-07-17T07:19:37Z</time>
      </trkpt>
      <trkpt lat="45.21665" lon="6.4732">
        <ele>700</ele>
        <time>2022-07-17T07:19:38Z</time>
      </trkpt>
      <trkpt lat="45.21662" lon="6.47325">
        <ele>700</ele>
        <time>2022-07-17T07:19:39Z</time>
      </trkpt>
      <trkpt lat="45.2166" lon="6.4733">
        <ele>700.2</ele>
        <time>2022-07-17T07:19:40Z</time>
      </trkpt>
      <trkpt lat="45.21657" lon="6.47335">
        <ele>700.2</ele>
        <time>2022-07-17T07:19:41Z</time>
      </trkpt>
      <trkpt lat="45.21656" lon="6.4734">
        <ele>700.4</ele>
        <time>2022-07-17T07:19:42Z</time>
      </trkpt>
      <trkpt lat="45.21653" lon="6.47345">
        <ele>700.4</ele>
        <time>2022-07-17T07:19:43Z</time>
      </trkpt>
      <trkpt lat="45.21651" lon="6.4735">
        <ele>700.4</ele>
        <time>2022-07-17T07:19:44Z</time>
      </trkpt>
      <trkpt lat="45.21649" lon="6.47355">
        <ele>700.4</ele>
        <time>2022-07-17T07:19:45Z</time>
      </trkpt>
      <trkpt lat="45.21647" lon="6.4736">
        <ele>700.8</ele>
        <time>2022-07-17T07:19:46Z</time>
      </trkpt>
      <trkpt lat="45.21644" lon="6.47366">
        <ele>700.8</ele>
        <time>2022-07-17T07:19:47Z</time>
      </trkpt>
      <trkpt lat="45.21642" lon="6.47371">
        <ele>700.8</ele>
        <time>2022-07-17T07:19:48Z</time>
      </trkpt>
      <trkpt lat="45.21639" lon="6.47376">
        <ele>701</ele>
        <time>2022-07-17T07:19:49Z</time>
      </trkpt>
      <trkpt lat="45.21636" lon="6.47381">
        <ele>701</ele>
        <time>2022-07-17T07:19:50Z</time>
      </trkpt>
      <trkpt lat="45.21633" lon="6.47385">
        <ele>701</ele>
        <time>2022-07-17T07:19:51Z</time>
      </trkpt>
      <trkpt lat="45.2163" lon="6.4739">
        <ele>701.2</ele>
        <time>2022-07-17T07:19:52Z</time>
      </trkpt>
      <trkpt lat="45.21628" lon="6.47395">
        <ele>701.2</ele>
        <time>2022-07-17T07:19:53Z</time>
      </trkpt>
      <trkpt lat="45.21625" lon="6.474">
        <ele>701.2</ele>
        <time>2022-07-17T07:19:54Z</time>
      </trkpt>
      <trkpt lat="45.21622" lon="6.47405">
        <ele>701.4</ele>
        <time>2022-07-17T07:19:55Z</time>
      </trkpt>
      <trkpt lat="45.21619" lon="6.47411">
        <ele>701.4</ele>
        <time>2022-07-17T07:19:56Z</time>
      </trkpt>
      <trkpt lat="45.21617" lon="6.47416">
        <ele>701.4</ele>
        <time>2022-07-17T07:19:57Z</time>
      </trkpt>
      <trkpt lat="45.21614" lon="6.47422">
        <ele>701.8</ele>
        <time>2022-07-17T07:19:58Z</time>
      </trkpt>
      <trkpt lat="45.21611" lon="6.47427">
        <ele>701.8</ele>
        <time>2022-07-17T07:19:59Z</time>
      </trkpt>
      <trkpt lat="45.21608" lon="6.47433">
        <ele>701.8</ele>
        <time>2022-07-17T07:20:00Z</time>
      </trkpt>
      <trkpt lat="45.21605" lon="6.47439">
        <ele>701.8</ele>
        <time>2022-07-17T07:20:01Z</time>
      </trkpt>
      <trkpt lat="45.21602" lon="6.47445">
        <ele>701.8</ele>
        <time>2022-07-17T07:20:02Z</time>
      </trkpt>
      <trkpt lat="45.21598" lon="6.47451">
        <ele>702</ele>
        <time>2022-07-17T07:20:03Z</time>
      </trkpt>
      <trkpt lat="45.21595" lon="6.47457">
        <ele>702</ele>
        <time>2022-07-17T07:20:04Z</time>
      </trkpt>
      <trkpt lat="45.21592" lon="6.47464">
        <ele>702</ele>
        <time>2022-07-17T07:20:05Z</time>
      </trkpt>
      <trkpt lat="45.2159" lon="6.4747">
        <ele>702.2</ele>
        <time>2022-07-17T07:20:06Z</time>
      </trkpt>
      <trkpt lat="45.21587" lon="6.47475">
        <ele>702.2</ele>
        <time>2022-07-17T07:20:07Z</time>
      </trkpt>
      <trkpt lat="45.21584" lon="6.47479">
        <ele>702.6</ele>
        <time>2022-07-17T07:20:08Z</time>
      </trkpt>
      <trkpt lat="45.2158" lon="6.47481">
        <ele>702.6</ele>
        <time>2022-07-17T07:20:09Z</time>
      </trkpt>
      <trkpt lat="45.21576" lon="6.4748">
        <ele>702.6</ele>
        <time>2022-07-17T07:20:10Z</time>
      </trkpt>
      <trkpt lat="45.21572" lon="6.47478">
        <ele>702.8</ele>
        <time>2022-07-17T07:20:11Z</time>
      </trkpt>
      <trkpt lat="45.21567" lon="6.47476">
        <ele>702.8</ele>
        <time>2022-07-17T07:20:12Z</time>
      </trkpt>
      <trkpt lat="45.21562" lon="6.47473">
        <ele>703</ele>
        <time>2022-07-17T07:20:13Z</time>
      </trkpt>
      <trkpt lat="45.21557" lon="6.47472">
        <ele>703.4</ele>
        <time>2022-07-17T07:20:14Z</time>
      </trkpt>
      <trkpt lat="45.21552" lon="6.47471">
        <ele>703.4</ele>
        <time>2022-07-17T07:20:15Z</time>
      </trkpt>
      <trkpt lat="45.21548" lon="6.47469">
        <ele>703.8</ele>
        <time>2022-07-17T07:20:16Z</time>
      </trkpt>
      <trkpt lat="45.21545" lon="6.47467">
        <ele>704</ele>
        <time>2022-07-17T07:20:17Z</time>
      </trkpt>
      <trkpt lat="45.21543" lon="6.47465">
        <ele>704.4</ele>
        <time>2022-07-17T07:20:18Z</time>
      </trkpt>
      <trkpt lat="45.21541" lon="6.47462">
        <ele>704.8</ele>
        <time>2022-07-17T07:20:19Z</time>
      </trkpt>
      <trkpt lat="45.21538" lon="6.47459">
        <ele>705</ele>
        <time>2022-07-17T07:20:20Z</time>
      </trkpt>
      <trkpt lat="45.21536" lon="6.47457">
        <ele>705.4</ele>
        <time>2022-07-17T07:20:21Z</time>
      </trkpt>
      <trkpt lat="45.21533" lon="6.47453">
        <ele>705.6</ele>
        <time>2022-07-17T07:20:22Z</time>
      </trkpt>
      <trkpt lat="45.2153" lon="6.4745">
        <ele>705.6</ele>
        <time>2022-07-17T07:20:23Z</time>
      </trkpt>
      <trkpt lat="45.21527" lon="6.47445">
        <ele>706</ele>
        <time>2022-07-17T07:20:24Z</time>
      </trkpt>
      <trkpt lat="45.21524" lon="6.4744">
        <ele>706</ele>
        <time>2022-07-17T07:20:25Z</time>
      </trkpt>
      <trkpt lat="45.21521" lon="6.47436">
        <ele>706</ele>
        <time>2022-07-17T07:20:26Z</time>
      </trkpt>
      <trkpt lat="45.21518" lon="6.47431">
        <ele>706.2</ele>
        <time>2022-07-17T07:20:27Z</time>
      </trkpt>
      <trkpt lat="45.21515" lon="6.47426">
        <ele>706.2</ele>
        <time>2022-07-17T07:20:28Z</time>
      </trkpt>
      <trkpt lat="45.21512" lon="6.47421">
        <ele>706.2</ele>
        <time>2022-07-17T07:20:29Z</time>
      </trkpt>
      <trkpt lat="45.21509" lon="6.47416">
        <ele>706.2</ele>
        <time>2022-07-17T07:20:30Z</time>
      </trkpt>
      <trkpt lat="45.21506" lon="6.47412">
        <ele>706.2</ele>
        <time>2022-07-17T07:20:31Z</time>
      </trkpt>
      <trkpt lat="45.21503" lon="6.47407">
        <ele>706.2</ele>
        <time>2022-07-17T07:20:32Z</time>
      </trkpt>
      <trkpt lat="45.21499" lon="6.47402">
        <ele>706</ele>
        <time>2022-07-17T07:20:33Z</time>
      </trkpt>
      <trkpt lat="45.21496" lon="6.47397">
        <ele>706</ele>
        <time>2022-07-17T07:20:34Z</time>
      </trkpt>
      <trkpt lat="45.21493" lon="6.47391">
        <ele>706</ele>
        <time>2022-07-17T07:20:35Z</time>
      </trkpt>
      <trkpt lat="45.21489" lon="6.47386">
        <ele>706</ele>
        <time>2022-07-17T07:20:36Z</time>
      </trkpt>
      <trkpt lat="45.21486" lon="6.4738">
        <ele>706</ele>
        <time>2022-07-17T07:20:37Z</time>
      </trkpt>
      <trkpt lat="45.21482" lon="6.47375">
        <ele>706</ele>
        <time>2022-07-17T07:20:38Z</time>
      </trkpt>
      <trkpt lat="45.21479" lon="6.4737">
        <ele>706</ele>
        <time>2022-07-17T07:20:39Z</time>
      </trkpt>
      <trkpt lat="45.21476" lon="6.47364">
        <ele>706</ele>
        <time>2022-07-17T07:20:40Z</time>
      </trkpt>
      <trkpt lat="45.21472" lon="6.47359">
        <ele>706</ele>
        <time>2022-07-17T07:20:41Z</time>
      </trkpt>
      <trkpt lat="45.21469" lon="6.47354">
        <ele>705.6</ele>
        <time>2022-07-17T07:20:42Z</time>
      </trkpt>
      <trkpt lat="45.21466" lon="6.47349">
        <ele>705.6</ele>
        <time>2022-07-17T07:20:43Z</time>
      </trkpt>
      <trkpt lat="45.21463" lon="6.47345">
        <ele>705.6</ele>
        <time>2022-07-17T07:20:44Z</time>
      </trkpt>
      <trkpt lat="45.21461" lon="6.4734">
        <ele>705.6</ele>
        <time>2022-07-17T07:20:45Z</time>
      </trkpt>
      <trkpt lat="45.21458" lon="6.47336">
        <ele>705.6</ele>
        <time>2022-07-17T07:20:46Z</time>
      </trkpt>
      <trkpt lat="45.21455" lon="6.47332">
        <ele>706</ele>
        <time>2022-07-17T07:20:47Z</time>
      </trkpt>
      <trkpt lat="45.21453" lon="6.47328">
        <ele>706</ele>
        <time>2022-07-17T07:20:48Z</time>
      </trkpt>
      <trkpt lat="45.2145" lon="6.47324">
        <ele>706</ele>
        <time>2022-07-17T07:20:49Z</time>
      </trkpt>
      <trkpt lat="45.21448" lon="6.47321">
        <ele>706.2</ele>
        <time>2022-07-17T07:20:50Z</time>
      </trkpt>
      <trkpt lat="45.21445" lon="6.47318">
        <ele>706.2</ele>
        <time>2022-07-17T07:20:51Z</time>
      </trkpt>
      <trkpt lat="45.21442" lon="6.47314">
        <ele>706.2</ele>
        <time>2022-07-17T07:20:52Z</time>
      </trkpt>
      <trkpt lat="45.21439" lon="6.47312">
        <ele>706.6</ele>
        <time>2022-07-17T07:20:53Z</time>
      </trkpt>
      <trkpt lat="45.21436" lon="6.47309">
        <ele>706.6</ele>
        <time>2022-07-17T07:20:54Z</time>
      </trkpt>
      <trkpt lat="45.21433" lon="6.47307">
        <ele>706.6</ele>
        <time>2022-07-17T07:20:55Z</time>
      </trkpt>
      <trkpt lat="45.2143" lon="6.47305">
        <ele>707.2</ele>
        <time>2022-07-17T07:20:56Z</time>
      </trkpt>
      <trkpt lat="45.21427" lon="6.47303">
        <ele>707.4</ele>
        <time>2022-07-17T07:20:57Z</time>
      </trkpt>
      <trkpt lat="45.21425" lon="6.47301">
        <ele>707.6</ele>
        <time>2022-07-17T07:20:58Z</time>
      </trkpt>
      <trkpt lat="45.21423" lon="6.47299">
        <ele>707.6</ele>
        <time>2022-07-17T07:20:59Z</time>
      </trkpt>
      <trkpt lat="45.21421" lon="6.47298">
        <ele>708</ele>
        <time>2022-07-17T07:21:00Z</time>
      </trkpt>
      <trkpt lat="45.21421" lon="6.47297">
        <ele>708</ele>
        <time>2022-07-17T07:21:01Z</time>
      </trkpt>
      <trkpt lat="45.2142" lon="6.47295">
        <ele>708.6</ele>
        <time>2022-07-17T07:21:02Z</time>
      </trkpt>
      <trkpt lat="45.21418" lon="6.47291">
        <ele>708.8</ele>
        <time>2022-07-17T07:21:03Z</time>
      </trkpt>
      <trkpt lat="45.21416" lon="6.47288">
        <ele>709.2</ele>
        <time>2022-07-17T07:21:04Z</time>
      </trkpt>
      <trkpt lat="45.21414" lon="6.47285">
        <ele>709.4</ele>
        <time>2022-07-17T07:21:05Z</time>
      </trkpt>
      <trkpt lat="45.21411" lon="6.47283">
        <ele>709.8</ele>
        <time>2022-07-17T07:21:06Z</time>
      </trkpt>
      <trkpt lat="45.2141" lon="6.47281">
        <ele>710</ele>
        <time>2022-07-17T07:21:07Z</time>
      </trkpt>
      <trkpt lat="45.21408" lon="6.47278">
        <ele>710</ele>
        <time>2022-07-17T07:21:08Z</time>
      </trkpt>
      <trkpt lat="45.21406" lon="6.47277">
        <ele>710.4</ele>
        <time>2022-07-17T07:21:09Z</time>
      </trkpt>
      <trkpt lat="45.21404" lon="6.47275">
        <ele>710.8</ele>
        <time>2022-07-17T07:21:10Z</time>
      </trkpt>
      <trkpt lat="45.21402" lon="6.47273">
        <ele>710.8</ele>
        <time>2022-07-17T07:21:11Z</time>
      </trkpt>
      <trkpt lat="45.214" lon="6.47271">
        <ele>711</ele>
        <time>2022-07-17T07:21:12Z</time>
      </trkpt>
      <trkpt lat="45.21398" lon="6.47269">
        <ele>711.4</ele>
        <time>2022-07-17T07:21:13Z</time>
      </trkpt>
      <trkpt lat="45.21396" lon="6.47266">
        <ele>711.6</ele>
        <time>2022-07-17T07:21:14Z</time>
      </trkpt>
      <trkpt lat="45.21394" lon="6.47264">
        <ele>712</ele>
        <time>2022-07-17T07:21:15Z</time>
      </trkpt>
      <trkpt lat="45.21391" lon="6.47261">
        <ele>712.2</ele>
        <time>2022-07-17T07:21:16Z</time>
      </trkpt>
      <trkpt lat="45.21389" lon="6.47259">
        <ele>712.2</ele>
        <time>2022-07-17T07:21:17Z</time>
      </trkpt>
      <trkpt lat="45.21387" lon="6.47257">
        <ele>712.6</ele>
        <time>2022-07-17T07:21:18Z</time>
      </trkpt>
      <trkpt lat="45.21386" lon="6.47254">
        <ele>713</ele>
        <time>2022-07-17T07:21:19Z</time>
      </trkpt>
      <trkpt lat="45.21384" lon="6.47251">
        <ele>713.2</ele>
        <time>2022-07-17T07:21:20Z</time>
      </trkpt>
      <trkpt lat="45.21383" lon="6.47249">
        <ele>713.6</ele>
        <time>2022-07-17T07:21:21Z</time>
      </trkpt>
      <trkpt lat="45.21381" lon="6.47247">
        <ele>713.8</ele>
        <time>2022-07-17T07:21:22Z</time>
      </trkpt>
      <trkpt lat="45.2138" lon="6.47244">
        <ele>714.2</ele>
        <time>2022-07-17T07:21:23Z</time>
      </trkpt>
      <trkpt lat="45.21378" lon="6.47241">
        <ele>714.4</ele>
        <time>2022-07-17T07:21:24Z</time>
      </trkpt>
      <trkpt lat="45.21377" lon="6.47238">
        <ele>714.6</ele>
        <time>2022-07-17T07:21:25Z</time>
      </trkpt>
      <trkpt lat="45.21376" lon="6.47236">
        <ele>715</ele>
        <time>2022-07-17T07:21:26Z</time>
      </trkpt>
      <trkpt lat="45.21374" lon="6.47233">
        <ele>715.2</ele>
        <time>2022-07-17T07:21:27Z</time>
      </trkpt>
      <trkpt lat="45.21373" lon="6.47231">
        <ele>715.4</ele>
        <time>2022-07-17T07:21:28Z</time>
      </trkpt>
      <trkpt lat="45.21372" lon="6.47228">
        <ele>715.6</ele>
        <time>2022-07-17T07:21:29Z</time>
      </trkpt>
      <trkpt lat="45.21371" lon="6.47225">
        <ele>716</ele>
        <time>2022-07-17T07:21:30Z</time>
      </trkpt>
      <trkpt lat="45.2137" lon="6.47223">
        <ele>716.2</ele>
        <time>2022-07-17T07:21:31Z</time>
      </trkpt>
      <trkpt lat="45.21369" lon="6.4722">
        <ele>716.2</ele>
        <time>2022-07-17T07:21:32Z</time>
      </trkpt>
      <trkpt lat="45.21368" lon="6.47217">
        <ele>716.6</ele>
        <time>2022-07-17T07:21:33Z</time>
      </trkpt>
      <trkpt lat="45.21367" lon="6.47213">
        <ele>716.8</ele>
        <time>2022-07-17T07:21:34Z</time>
      </trkpt>
      <trkpt lat="45.21367" lon="6.4721">
        <ele>717</ele>
        <time>2022-07-17T07:21:35Z</time>
      </trkpt>
      <trkpt lat="45.21366" lon="6.47207">
        <ele>717</ele>
        <time>2022-07-17T07:21:36Z</time>
      </trkpt>
      <trkpt lat="45.21365" lon="6.47204">
        <ele>717.4</ele>
        <time>2022-07-17T07:21:37Z</time>
      </trkpt>
      <trkpt lat="45.21364" lon="6.47201">
        <ele>717.8</ele>
        <time>2022-07-17T07:21:38Z</time>
      </trkpt>
      <trkpt lat="45.21363" lon="6.47198">
        <ele>717.8</ele>
        <time>2022-07-17T07:21:39Z</time>
      </trkpt>
      <trkpt lat="45.21362" lon="6.47195">
        <ele>718.2</ele>
        <time>2022-07-17T07:21:40Z</time>
      </trkpt>
      <trkpt lat="45.2136" lon="6.47192">
        <ele>718.2</ele>
        <time>2022-07-17T07:21:41Z</time>
      </trkpt>
      <trkpt lat="45.21359" lon="6.47189">
        <ele>718.4</ele>
        <time>2022-07-17T07:21:42Z</time>
      </trkpt>
      <trkpt lat="45.21358" lon="6.47185">
        <ele>718.4</ele>
        <time>2022-07-17T07:21:43Z</time>
      </trkpt>
      <trkpt lat="45.21357" lon="6.47182">
        <ele>718.8</ele>
        <time>2022-07-17T07:21:44Z</time>
      </trkpt>
      <trkpt lat="45.21356" lon="6.47178">
        <ele>718.8</ele>
        <time>2022-07-17T07:21:45Z</time>
      </trkpt>
      <trkpt lat="45.21355" lon="6.47174">
        <ele>718.8</ele>
        <time>2022-07-17T07:21:46Z</time>
      </trkpt>
      <trkpt lat="45.21354" lon="6.4717">
        <ele>719</ele>
        <time>2022-07-17T07:21:47Z</time>
      </trkpt>
      <trkpt lat="45.21353" lon="6.47167">
        <ele>719.4</ele>
        <time>2022-07-17T07:21:48Z</time>
      </trkpt>
      <trkpt lat="45.21351" lon="6.47163">
        <ele>719.4</ele>
        <time>2022-07-17T07:21:49Z</time>
      </trkpt>
      <trkpt lat="45.2135" lon="6.4716">
        <ele>719.4</ele>
        <time>2022-07-17T07:21:50Z</time>
      </trkpt>
      <trkpt lat="45.21349" lon="6.47156">
        <ele>719.6</ele>
        <time>2022-07-17T07:21:51Z</time>
      </trkpt>
      <trkpt lat="45.21348" lon="6.47152">
        <ele>719.6</ele>
        <time>2022-07-17T07:21:52Z</time>
      </trkpt>
      <trkpt lat="45.21346" lon="6.47148">
        <ele>719.8</ele>
        <time>2022-07-17T07:21:53Z</time>
      </trkpt>
      <trkpt lat="45.21345" lon="6.47144">
        <ele>719.8</ele>
        <time>2022-07-17T07:21:54Z</time>
      </trkpt>
      <trkpt lat="45.21344" lon="6.47139">
        <ele>719.8</ele>
        <time>2022-07-17T07:21:55Z</time>
      </trkpt>
      <trkpt lat="45.21343" lon="6.47135">
        <ele>720</ele>
        <time>2022-07-17T07:21:56Z</time>
      </trkpt>
      <trkpt lat="45.21341" lon="6.47131">
        <ele>720</ele>
        <time>2022-07-17T07:21:57Z</time>
      </trkpt>
      <trkpt lat="45.21341" lon="6.47126">
        <ele>720.4</ele>
        <time>2022-07-17T07:21:58Z</time>
      </trkpt>
      <trkpt lat="45.2134" lon="6.47121">
        <ele>720.4</ele>
        <time>2022-07-17T07:21:59Z</time>
      </trkpt>
      <trkpt lat="45.21339" lon="6.47117">
        <ele>720.6</ele>
        <time>2022-07-17T07:22:00Z</time>
      </trkpt>
      <trkpt lat="45.21338" lon="6.47113">
        <ele>720.6</ele>
        <time>2022-07-17T07:22:01Z</time>
      </trkpt>
      <trkpt lat="45.21337" lon="6.47109">
        <ele>720.8</ele>
        <time>2022-07-17T07:22:02Z</time>
      </trkpt>
      <trkpt lat="45.21336" lon="6.47104">
        <ele>720.8</ele>
        <time>2022-07-17T07:22:03Z</time>
      </trkpt>
      <trkpt lat="45.21335" lon="6.471">
        <ele>720.8</ele>
        <time>2022-07-17T07:22:04Z</time>
      </trkpt>
      <trkpt lat="45.21334" lon="6.47095">
        <ele>721.2</ele>
        <time>2022-07-17T07:22:05Z</time>
      </trkpt>
      <trkpt lat="45.21333" lon="6.47091">
        <ele>721.2</ele>
        <time>2022-07-17T07:22:06Z</time>
      </trkpt>
      <trkpt lat="45.21332" lon="6.47087">
        <ele>721.4</ele>
        <time>2022-07-17T07:22:07Z</time>
      </trkpt>
      <trkpt lat="45.21331" lon="6.47083">
        <ele>721.4</ele>
        <time>2022-07-17T07:22:08Z</time>
      </trkpt>
      <trkpt lat="45.21329" lon="6.47078">
        <ele>721.6</ele>
        <time>2022-07-17T07:22:09Z</time>
      </trkpt>
      <trkpt lat="45.21329" lon="6.47074">
        <ele>721.6</ele>
        <time>2022-07-17T07:22:10Z</time>
      </trkpt>
      <trkpt lat="45.21329" lon="6.4707">
        <ele>721.6</ele>
        <time>2022-07-17T07:22:11Z</time>
      </trkpt>
      <trkpt lat="45.21329" lon="6.47065">
        <ele>721.8</ele>
        <time>2022-07-17T07:22:12Z</time>
      </trkpt>
      <trkpt lat="45.21329" lon="6.47061">
        <ele>721.8</ele>
        <time>2022-07-17T07:22:13Z</time>
      </trkpt>
      <trkpt lat="45.21331" lon="6.47057">
        <ele>721.8</ele>
        <time>2022-07-17T07:22:14Z</time>
      </trkpt>
      <trkpt lat="45.21332" lon="6.47053">
        <ele>722.2</ele>
        <time>2022-07-17T07:22:15Z</time>
      </trkpt>
      <trkpt lat="45.21334" lon="6.4705">
        <ele>722.2</ele>
        <time>2022-07-17T07:22:16Z</time>
      </trkpt>
      <trkpt lat="45.21337" lon="6.47047">
        <ele>722.4</ele>
        <time>2022-07-17T07:22:17Z</time>
      </trkpt>
      <trkpt lat="45.21339" lon="6.47045">
        <ele>722.6</ele>
        <time>2022-07-17T07:22:18Z</time>
      </trkpt>
      <trkpt lat="45.21342" lon="6.47043">
        <ele>722.6</ele>
        <time>2022-07-17T07:22:19Z</time>
      </trkpt>
      <trkpt lat="45.21346" lon="6.47042">
        <ele>723</ele>
        <time>2022-07-17T07:22:20Z</time>
      </trkpt>
      <trkpt lat="45.21349" lon="6.47042">
        <ele>723.2</ele>
        <time>2022-07-17T07:22:21Z</time>
      </trkpt>
      <trkpt lat="45.21352" lon="6.47042">
        <ele>723.2</ele>
        <time>2022-07-17T07:22:22Z</time>
      </trkpt>
      <trkpt lat="45.21355" lon="6.47042">
        <ele>723.6</ele>
        <time>2022-07-17T07:22:23Z</time>
      </trkpt>
      <trkpt lat="45.21358" lon="6.47042">
        <ele>723.6</ele>
        <time>2022-07-17T07:22:24Z</time>
      </trkpt>
      <trkpt lat="45.2136" lon="6.47043">
        <ele>724</ele>
        <time>2022-07-17T07:22:25Z</time>
      </trkpt>
      <trkpt lat="45.21363" lon="6.47043">
        <ele>724.2</ele>
        <time>2022-07-17T07:22:26Z</time>
      </trkpt>
      <trkpt lat="45.21366" lon="6.47044">
        <ele>724.4</ele>
        <time>2022-07-17T07:22:27Z</time>
      </trkpt>
      <trkpt lat="45.21369" lon="6.47044">
        <ele>724.4</ele>
        <time>2022-07-17T07:22:28Z</time>
      </trkpt>
      <trkpt lat="45.21372" lon="6.47044">
        <ele>724.8</ele>
        <time>2022-07-17T07:22:29Z</time>
      </trkpt>
      <trkpt lat="45.21374" lon="6.47045">
        <ele>724.8</ele>
        <time>2022-07-17T07:22:30Z</time>
      </trkpt>
      <trkpt lat="45.21377" lon="6.47045">
        <ele>725.2</ele>
        <time>2022-07-17T07:22:31Z</time>
      </trkpt>
      <trkpt lat="45.2138" lon="6.47045">
        <ele>725.4</ele>
        <time>2022-07-17T07:22:32Z</time>
      </trkpt>
      <trkpt lat="45.21383" lon="6.47045">
        <ele>725.6</ele>
        <time>2022-07-17T07:22:33Z</time>
      </trkpt>
      <trkpt lat="45.21386" lon="6.47045">
        <ele>726</ele>
        <time>2022-07-17T07:22:34Z</time>
      </trkpt>
      <trkpt lat="45.21389" lon="6.47046">
        <ele>726.2</ele>
        <time>2022-07-17T07:22:35Z</time>
      </trkpt>
      <trkpt lat="45.21392" lon="6.47046">
        <ele>726.2</ele>
        <time>2022-07-17T07:22:36Z</time>
      </trkpt>
      <trkpt lat="45.21394" lon="6.47046">
        <ele>726.6</ele>
        <time>2022-07-17T07:22:37Z</time>
      </trkpt>
      <trkpt lat="45.21397" lon="6.47045">
        <ele>726.6</ele>
        <time>2022-07-17T07:22:38Z</time>
      </trkpt>
      <trkpt lat="45.214" lon="6.47044">
        <ele>726.8</ele>
        <time>2022-07-17T07:22:39Z</time>
      </trkpt>
      <trkpt lat="45.21402" lon="6.47043">
        <ele>726.8</ele>
        <time>2022-07-17T07:22:40Z</time>
      </trkpt>
      <trkpt lat="45.21405" lon="6.47042">
        <ele>727.2</ele>
        <time>2022-07-17T07:22:41Z</time>
      </trkpt>
      <trkpt lat="45.21407" lon="6.47041">
        <ele>727.2</ele>
        <time>2022-07-17T07:22:42Z</time>
      </trkpt>
      <trkpt lat="45.2141" lon="6.47039">
        <ele>727.4</ele>
        <time>2022-07-17T07:22:43Z</time>
      </trkpt>
      <trkpt lat="45.21412" lon="6.47037">
        <ele>727.4</ele>
        <time>2022-07-17T07:22:44Z</time>
      </trkpt>
      <trkpt lat="45.21414" lon="6.47035">
        <ele>727.6</ele>
        <time>2022-07-17T07:22:45Z</time>
      </trkpt>
      <trkpt lat="45.21416" lon="6.47032">
        <ele>727.6</ele>
        <time>2022-07-17T07:22:46Z</time>
      </trkpt>
      <trkpt lat="45.21417" lon="6.47029">
        <ele>728</ele>
        <time>2022-07-17T07:22:47Z</time>
      </trkpt>
      <trkpt lat="45.21419" lon="6.47027">
        <ele>728.2</ele>
        <time>2022-07-17T07:22:48Z</time>
      </trkpt>
      <trkpt lat="45.2142" lon="6.47024">
        <ele>728.4</ele>
        <time>2022-07-17T07:22:49Z</time>
      </trkpt>
      <trkpt lat="45.21422" lon="6.4702">
        <ele>728.4</ele>
        <time>2022-07-17T07:22:50Z</time>
      </trkpt>
      <trkpt lat="45.21424" lon="6.47017">
        <ele>728.8</ele>
        <time>2022-07-17T07:22:51Z</time>
      </trkpt>
      <trkpt lat="45.21425" lon="6.47014">
        <ele>729</ele>
        <time>2022-07-17T07:22:52Z</time>
      </trkpt>
      <trkpt lat="45.21427" lon="6.47011">
        <ele>729</ele>
        <time>2022-07-17T07:22:53Z</time>
      </trkpt>
      <trkpt lat="45.21428" lon="6.47008">
        <ele>729.4</ele>
        <time>2022-07-17T07:22:54Z</time>
      </trkpt>
      <trkpt lat="45.2143" lon="6.47004">
        <ele>729.4</ele>
        <time>2022-07-17T07:22:55Z</time>
      </trkpt>
      <trkpt lat="45.21431" lon="6.47001">
        <ele>729.8</ele>
        <time>2022-07-17T07:22:56Z</time>
      </trkpt>
      <trkpt lat="45.21432" lon="6.46998">
        <ele>730</ele>
        <time>2022-07-17T07:22:57Z</time>
      </trkpt>
      <trkpt lat="45.21434" lon="6.46995">
        <ele>730</ele>
        <time>2022-07-17T07:22:58Z</time>
      </trkpt>
      <trkpt lat="45.21435" lon="6.46991">
        <ele>730.4</ele>
        <time>2022-07-17T07:22:59Z</time>
      </trkpt>
      <trkpt lat="45.21435" lon="6.46988">
        <ele>730.6</ele>
        <time>2022-07-17T07:23:00Z</time>
      </trkpt>
      <trkpt lat="45.21436" lon="6.46984">
        <ele>730.6</ele>
        <time>2022-07-17T07:23:01Z</time>
      </trkpt>
      <trkpt lat="45.21437" lon="6.46981">
        <ele>731</ele>
        <time>2022-07-17T07:23:02Z</time>
      </trkpt>
      <trkpt lat="45.21438" lon="6.46977">
        <ele>731</ele>
        <time>2022-07-17T07:23:03Z</time>
      </trkpt>
      <trkpt lat="45.21438" lon="6.46974">
        <ele>731.2</ele>
        <time>2022-07-17T07:23:04Z</time>
      </trkpt>
      <trkpt lat="45.21438" lon="6.4697">
        <ele>731.2</ele>
        <time>2022-07-17T07:23:05Z</time>
      </trkpt>
      <trkpt lat="45.21438" lon="6.46967">
        <ele>731.6</ele>
        <time>2022-07-17T07:23:06Z</time>
      </trkpt>
      <trkpt lat="45.21439" lon="6.46963">
        <ele>731.6</ele>
        <time>2022-07-17T07:23:07Z</time>
      </trkpt>
      <trkpt lat="45.2144" lon="6.46959">
        <ele>732</ele>
        <time>2022-07-17T07:23:08Z</time>
      </trkpt>
      <trkpt lat="45.21441" lon="6.46956">
        <ele>732</ele>
        <time>2022-07-17T07:23:09Z</time>
      </trkpt>
      <trkpt lat="45.21441" lon="6.46952">
        <ele>732.2</ele>
        <time>2022-07-17T07:23:10Z</time>
      </trkpt>
      <trkpt lat="45.21441" lon="6.46948">
        <ele>732.4</ele>
        <time>2022-07-17T07:23:11Z</time>
      </trkpt>
      <trkpt lat="45.21442" lon="6.46945">
        <ele>732.4</ele>
        <time>2022-07-17T07:23:12Z</time>
      </trkpt>
      <trkpt lat="45.21442" lon="6.46941">
        <ele>732.8</ele>
        <time>2022-07-17T07:23:13Z</time>
      </trkpt>
      <trkpt lat="45.21442" lon="6.46937">
        <ele>733</ele>
        <time>2022-07-17T07:23:14Z</time>
      </trkpt>
      <trkpt lat="45.21442" lon="6.46933">
        <ele>733</ele>
        <time>2022-07-17T07:23:15Z</time>
      </trkpt>
      <trkpt lat="45.21442" lon="6.46929">
        <ele>733.2</ele>
        <time>2022-07-17T07:23:16Z</time>
      </trkpt>
      <trkpt lat="45.21442" lon="6.46925">
        <ele>733.6</ele>
        <time>2022-07-17T07:23:17Z</time>
      </trkpt>
      <trkpt lat="45.21441" lon="6.46921">
        <ele>733.6</ele>
        <time>2022-07-17T07:23:18Z</time>
      </trkpt>
      <trkpt lat="45.21441" lon="6.46917">
        <ele>733.8</ele>
        <time>2022-07-17T07:23:19Z</time>
      </trkpt>
      <trkpt lat="45.2144" lon="6.46913">
        <ele>734.2</ele>
        <time>2022-07-17T07:23:20Z</time>
      </trkpt>
      <trkpt lat="45.21439" lon="6.46909">
        <ele>734.2</ele>
        <time>2022-07-17T07:23:21Z</time>
      </trkpt>
      <trkpt lat="45.21438" lon="6.46906">
        <ele>734.4</ele>
        <time>2022-07-17T07:23:22Z</time>
      </trkpt>
      <trkpt lat="45.21437" lon="6.46902">
        <ele>734.4</ele>
        <time>2022-07-17T07:23:23Z</time>
      </trkpt>
      <trkpt lat="45.21435" lon="6.46899">
        <ele>734.8</ele>
        <time>2022-07-17T07:23:24Z</time>
      </trkpt>
      <trkpt lat="45.21434" lon="6.46895">
        <ele>734.8</ele>
        <time>2022-07-17T07:23:25Z</time>
      </trkpt>
      <trkpt lat="45.21433" lon="6.46891">
        <ele>735.2</ele>
        <time>2022-07-17T07:23:26Z</time>
      </trkpt>
      <trkpt lat="45.21431" lon="6.46888">
        <ele>735.2</ele>
        <time>2022-07-17T07:23:27Z</time>
      </trkpt>
      <trkpt lat="45.2143" lon="6.46885">
        <ele>735.4</ele>
        <time>2022-07-17T07:23:28Z</time>
      </trkpt>
      <trkpt lat="45.21428" lon="6.46882">
        <ele>735.4</ele>
        <time>2022-07-17T07:23:29Z</time>
      </trkpt>
      <trkpt lat="45.21427" lon="6.46879">
        <ele>735.8</ele>
        <time>2022-07-17T07:23:30Z</time>
      </trkpt>
      <trkpt lat="45.21425" lon="6.46876">
        <ele>735.8</ele>
        <time>2022-07-17T07:23:31Z</time>
      </trkpt>
      <trkpt lat="45.21424" lon="6.46874">
        <ele>736.2</ele>
        <time>2022-07-17T07:23:32Z</time>
      </trkpt>
      <trkpt lat="45.21422" lon="6.46871">
        <ele>736.4</ele>
        <time>2022-07-17T07:23:33Z</time>
      </trkpt>
      <trkpt lat="45.2142" lon="6.46868">
        <ele>736.6</ele>
        <time>2022-07-17T07:23:34Z</time>
      </trkpt>
      <trkpt lat="45.21418" lon="6.46865">
        <ele>736.6</ele>
        <time>2022-07-17T07:23:35Z</time>
      </trkpt>
      <trkpt lat="45.21416" lon="6.46863">
        <ele>737</ele>
        <time>2022-07-17T07:23:36Z</time>
      </trkpt>
      <trkpt lat="45.21415" lon="6.4686">
        <ele>737</ele>
        <time>2022-07-17T07:23:37Z</time>
      </trkpt>
      <trkpt lat="45.21413" lon="6.46857">
        <ele>737.4</ele>
        <time>2022-07-17T07:23:38Z</time>
      </trkpt>
      <trkpt lat="45.21411" lon="6.46854">
        <ele>737.4</ele>
        <time>2022-07-17T07:23:39Z</time>
      </trkpt>
      <trkpt lat="45.2141" lon="6.46851">
        <ele>737.6</ele>
        <time>2022-07-17T07:23:40Z</time>
      </trkpt>
      <trkpt lat="45.21408" lon="6.46848">
        <ele>737.6</ele>
        <time>2022-07-17T07:23:41Z</time>
      </trkpt>
      <trkpt lat="45.21405" lon="6.46845">
        <ele>738.2</ele>
        <time>2022-07-17T07:23:42Z</time>
      </trkpt>
      <trkpt lat="45.21403" lon="6.46843">
        <ele>738.2</ele>
        <time>2022-07-17T07:23:43Z</time>
      </trkpt>
      <trkpt lat="45.21401" lon="6.4684">
        <ele>738.6</ele>
        <time>2022-07-17T07:23:44Z</time>
      </trkpt>
      <trkpt lat="45.21399" lon="6.46838">
        <ele>738.8</ele>
        <time>2022-07-17T07:23:45Z</time>
      </trkpt>
      <trkpt lat="45.21398" lon="6.46835">
        <ele>739</ele>
        <time>2022-07-17T07:23:46Z</time>
      </trkpt>
      <trkpt lat="45.21396" lon="6.46833">
        <ele>739.4</ele>
        <time>2022-07-17T07:23:47Z</time>
      </trkpt>
      <trkpt lat="45.21394" lon="6.4683">
        <ele>739.4</ele>
        <time>2022-07-17T07:23:48Z</time>
      </trkpt>
      <trkpt lat="45.21392" lon="6.46828">
        <ele>739.6</ele>
        <time>2022-07-17T07:23:49Z</time>
      </trkpt>
      <trkpt lat="45.21391" lon="6.46825">
        <ele>740</ele>
        <time>2022-07-17T07:23:50Z</time>
      </trkpt>
      <trkpt lat="45.21389" lon="6.46822">
        <ele>740.2</ele>
        <time>2022-07-17T07:23:51Z</time>
      </trkpt>
      <trkpt lat="45.21387" lon="6.4682">
        <ele>740.4</ele>
        <time>2022-07-17T07:23:52Z</time>
      </trkpt>
      <trkpt lat="45.21385" lon="6.46818">
        <ele>740.6</ele>
        <time>2022-07-17T07:23:53Z</time>
      </trkpt>
      <trkpt lat="45.21383" lon="6.46815">
        <ele>740.6</ele>
        <time>2022-07-17T07:23:54Z</time>
      </trkpt>
      <trkpt lat="45.21381" lon="6.46813">
        <ele>741</ele>
        <time>2022-07-17T07:23:55Z</time>
      </trkpt>
      <trkpt lat="45.21379" lon="6.4681">
        <ele>741.2</ele>
        <time>2022-07-17T07:23:56Z</time>
      </trkpt>
      <trkpt lat="45.21377" lon="6.46808">
        <ele>741.4</ele>
        <time>2022-07-17T07:23:57Z</time>
      </trkpt>
      <trkpt lat="45.21375" lon="6.46806">
        <ele>741.6</ele>
        <time>2022-07-17T07:23:58Z</time>
      </trkpt>
      <trkpt lat="45.21373" lon="6.46804">
        <ele>742</ele>
        <time>2022-07-17T07:23:59Z</time>
      </trkpt>
      <trkpt lat="45.21371" lon="6.46802">
        <ele>742.2</ele>
        <time>2022-07-17T07:24:00Z</time>
      </trkpt>
      <trkpt lat="45.21369" lon="6.46799">
        <ele>742.2</ele>
        <time>2022-07-17T07:24:01Z</time>
      </trkpt>
      <trkpt lat="45.21367" lon="6.46797">
        <ele>742.6</ele>
        <time>2022-07-17T07:24:02Z</time>
      </trkpt>
      <trkpt lat="45.21365" lon="6.46795">
        <ele>742.6</ele>
        <time>2022-07-17T07:24:03Z</time>
      </trkpt>
      <trkpt lat="45.21363" lon="6.46793">
        <ele>743</ele>
        <time>2022-07-17T07:24:04Z</time>
      </trkpt>
      <trkpt lat="45.21361" lon="6.46791">
        <ele>743</ele>
        <time>2022-07-17T07:24:05Z</time>
      </trkpt>
      <trkpt lat="45.21359" lon="6.46789">
        <ele>743.4</ele>
        <time>2022-07-17T07:24:06Z</time>
      </trkpt>
      <trkpt lat="45.21357" lon="6.46787">
        <ele>743.4</ele>
        <time>2022-07-17T07:24:07Z</time>
      </trkpt>
      <trkpt lat="45.21354" lon="6.46785">
        <ele>743.6</ele>
        <time>2022-07-17T07:24:08Z</time>
      </trkpt>
      <trkpt lat="45.21352" lon="6.46783">
        <ele>743.6</ele>
        <time>2022-07-17T07:24:09Z</time>
      </trkpt>
      <trkpt lat="45.21349" lon="6.46781">
        <ele>743.8</ele>
        <time>2022-07-17T07:24:10Z</time>
      </trkpt>
      <trkpt lat="45.21347" lon="6.46779">
        <ele>743.8</ele>
        <time>2022-07-17T07:24:11Z</time>
      </trkpt>
      <trkpt lat="45.21345" lon="6.46778">
        <ele>744.2</ele>
        <time>2022-07-17T07:24:12Z</time>
      </trkpt>
      <trkpt lat="45.21342" lon="6.46776">
        <ele>744.2</ele>
        <time>2022-07-17T07:24:13Z</time>
      </trkpt>
      <trkpt lat="45.2134" lon="6.46775">
        <ele>744.4</ele>
        <time>2022-07-17T07:24:14Z</time>
      </trkpt>
      <trkpt lat="45.21337" lon="6.46774">
        <ele>744.4</ele>
        <time>2022-07-17T07:24:15Z</time>
      </trkpt>
      <trkpt lat="45.21335" lon="6.46772">
        <ele>744.6</ele>
        <time>2022-07-17T07:24:16Z</time>
      </trkpt>
      <trkpt lat="45.21332" lon="6.46771">
        <ele>744.6</ele>
        <time>2022-07-17T07:24:17Z</time>
      </trkpt>
      <trkpt lat="45.21329" lon="6.4677">
        <ele>744.6</ele>
        <time>2022-07-17T07:24:18Z</time>
      </trkpt>
      <trkpt lat="45.21326" lon="6.46769">
        <ele>744.8</ele>
        <time>2022-07-17T07:24:19Z</time>
      </trkpt>
      <trkpt lat="45.21324" lon="6.46768">
        <ele>744.8</ele>
        <time>2022-07-17T07:24:20Z</time>
      </trkpt>
      <trkpt lat="45.21321" lon="6.46767">
        <ele>745</ele>
        <time>2022-07-17T07:24:21Z</time>
      </trkpt>
      <trkpt lat="45.21318" lon="6.46767">
        <ele>745</ele>
        <time>2022-07-17T07:24:22Z</time>
      </trkpt>
      <trkpt lat="45.21315" lon="6.46766">
        <ele>745.4</ele>
        <time>2022-07-17T07:24:23Z</time>
      </trkpt>
      <trkpt lat="45.21313" lon="6.46766">
        <ele>745.4</ele>
        <time>2022-07-17T07:24:24Z</time>
      </trkpt>
      <trkpt lat="45.2131" lon="6.46765">
        <ele>745.6</ele>
        <time>2022-07-17T07:24:25Z</time>
      </trkpt>
      <trkpt lat="45.21307" lon="6.46765">
        <ele>745.6</ele>
        <time>2022-07-17T07:24:26Z</time>
      </trkpt>
      <trkpt lat="45.21304" lon="6.46765">
        <ele>745.8</ele>
        <time>2022-07-17T07:24:27Z</time>
      </trkpt>
      <trkpt lat="45.21301" lon="6.46766">
        <ele>745.8</ele>
        <time>2022-07-17T07:24:28Z</time>
      </trkpt>
      <trkpt lat="45.21298" lon="6.46767">
        <ele>746.2</ele>
        <time>2022-07-17T07:24:29Z</time>
      </trkpt>
      <trkpt lat="45.21295" lon="6.46767">
        <ele>746.2</ele>
        <time>2022-07-17T07:24:30Z</time>
      </trkpt>
      <trkpt lat="45.21292" lon="6.46767">
        <ele>746.4</ele>
        <time>2022-07-17T07:24:31Z</time>
      </trkpt>
      <trkpt lat="45.2129" lon="6.46767">
        <ele>746.4</ele>
        <time>2022-07-17T07:24:32Z</time>
      </trkpt>
      <trkpt lat="45.21286" lon="6.46767">
        <ele>746.6</ele>
        <time>2022-07-17T07:24:33Z</time>
      </trkpt>
      <trkpt lat="45.21283" lon="6.46767">
        <ele>746.6</ele>
        <time>2022-07-17T07:24:34Z</time>
      </trkpt>
      <trkpt lat="45.2128" lon="6.46766">
        <ele>747</ele>
        <time>2022-07-17T07:24:35Z</time>
      </trkpt>
      <trkpt lat="45.21277" lon="6.46765">
        <ele>747</ele>
        <time>2022-07-17T07:24:36Z</time>
      </trkpt>
      <trkpt lat="45.21274" lon="6.46763">
        <ele>747.2</ele>
        <time>2022-07-17T07:24:37Z</time>
      </trkpt>
      <trkpt lat="45.21271" lon="6.46762">
        <ele>747.2</ele>
        <time>2022-07-17T07:24:38Z</time>
      </trkpt>
      <trkpt lat="45.21268" lon="6.4676">
        <ele>747.6</ele>
        <time>2022-07-17T07:24:39Z</time>
      </trkpt>
      <trkpt lat="45.21265" lon="6.46757">
        <ele>747.6</ele>
        <time>2022-07-17T07:24:40Z</time>
      </trkpt>
      <trkpt lat="45.21263" lon="6.46754">
        <ele>747.8</ele>
        <time>2022-07-17T07:24:41Z</time>
      </trkpt>
      <trkpt lat="45.2126" lon="6.46751">
        <ele>748</ele>
        <time>2022-07-17T07:24:42Z</time>
      </trkpt>
      <trkpt lat="45.21258" lon="6.46747">
        <ele>748</ele>
        <time>2022-07-17T07:24:43Z</time>
      </trkpt>
      <trkpt lat="45.21257" lon="6.46742">
        <ele>748.4</ele>
        <time>2022-07-17T07:24:44Z</time>
      </trkpt>
      <trkpt lat="45.21256" lon="6.46738">
        <ele>748.4</ele>
        <time>2022-07-17T07:24:45Z</time>
      </trkpt>
      <trkpt lat="45.21256" lon="6.46734">
        <ele>748.6</ele>
        <time>2022-07-17T07:24:46Z</time>
      </trkpt>
      <trkpt lat="45.21256" lon="6.46729">
        <ele>748.6</ele>
        <time>2022-07-17T07:24:47Z</time>
      </trkpt>
      <trkpt lat="45.21255" lon="6.46725">
        <ele>748.8</ele>
        <time>2022-07-17T07:24:48Z</time>
      </trkpt>
      <trkpt lat="45.21255" lon="6.46721">
        <ele>748.8</ele>
        <time>2022-07-17T07:24:49Z</time>
      </trkpt>
      <trkpt lat="45.21255" lon="6.46717">
        <ele>749.2</ele>
        <time>2022-07-17T07:24:50Z</time>
      </trkpt>
      <trkpt lat="45.21254" lon="6.46713">
        <ele>749.2</ele>
        <time>2022-07-17T07:24:51Z</time>
      </trkpt>
      <trkpt lat="45.21254" lon="6.46709">
        <ele>749.6</ele>
        <time>2022-07-17T07:24:52Z</time>
      </trkpt>
      <trkpt lat="45.21254" lon="6.46705">
        <ele>749.8</ele>
        <time>2022-07-17T07:24:53Z</time>
      </trkpt>
      <trkpt lat="45.21254" lon="6.46701">
        <ele>750</ele>
        <time>2022-07-17T07:24:54Z</time>
      </trkpt>
      <trkpt lat="45.21254" lon="6.46696">
        <ele>750</ele>
        <time>2022-07-17T07:24:55Z</time>
      </trkpt>
      <trkpt lat="45.21253" lon="6.46692">
        <ele>750.4</ele>
        <time>2022-07-17T07:24:56Z</time>
      </trkpt>
      <trkpt lat="45.21253" lon="6.46688">
        <ele>750.4</ele>
        <time>2022-07-17T07:24:57Z</time>
      </trkpt>
      <trkpt lat="45.21253" lon="6.46684">
        <ele>750.8</ele>
        <time>2022-07-17T07:24:58Z</time>
      </trkpt>
      <trkpt lat="45.21253" lon="6.4668">
        <ele>751</ele>
        <time>2022-07-17T07:24:59Z</time>
      </trkpt>
      <trkpt lat="45.21253" lon="6.46676">
        <ele>751</ele>
        <time>2022-07-17T07:25:00Z</time>
      </trkpt>
      <trkpt lat="45.21253" lon="6.46672">
        <ele>751.6</ele>
        <time>2022-07-17T07:25:01Z</time>
      </trkpt>
      <trkpt lat="45.21253" lon="6.46668">
        <ele>751.6</ele>
        <time>2022-07-17T07:25:02Z</time>
      </trkpt>
      <trkpt lat="45.21252" lon="6.46664">
        <ele>752</ele>
        <time>2022-07-17T07:25:03Z</time>
      </trkpt>
      <trkpt lat="45.21252" lon="6.4666">
        <ele>752.2</ele>
        <time>2022-07-17T07:25:04Z</time>
      </trkpt>
      <trkpt lat="45.21252" lon="6.46657">
        <ele>752.4</ele>
        <time>2022-07-17T07:25:05Z</time>
      </trkpt>
      <trkpt lat="45.21252" lon="6.46653">
        <ele>752.6</ele>
        <time>2022-07-17T07:25:06Z</time>
      </trkpt>
      <trkpt lat="45.21252" lon="6.4665">
        <ele>752.8</ele>
        <time>2022-07-17T07:25:07Z</time>
      </trkpt>
      <trkpt lat="45.21252" lon="6.46646">
        <ele>752.8</ele>
        <time>2022-07-17T07:25:08Z</time>
      </trkpt>
      <trkpt lat="45.21251" lon="6.46642">
        <ele>753.2</ele>
        <time>2022-07-17T07:25:09Z</time>
      </trkpt>
      <trkpt lat="45.21251" lon="6.46639">
        <ele>753.4</ele>
        <time>2022-07-17T07:25:10Z</time>
      </trkpt>
      <trkpt lat="45.21251" lon="6.46635">
        <ele>753.6</ele>
        <time>2022-07-17T07:25:11Z</time>
      </trkpt>
      <trkpt lat="45.21251" lon="6.46632">
        <ele>753.8</ele>
        <time>2022-07-17T07:25:12Z</time>
      </trkpt>
      <trkpt lat="45.21251" lon="6.46628">
        <ele>754.2</ele>
        <time>2022-07-17T07:25:13Z</time>
      </trkpt>
      <trkpt lat="45.2125" lon="6.46625">
        <ele>754.4</ele>
        <time>2022-07-17T07:25:14Z</time>
      </trkpt>
      <trkpt lat="45.2125" lon="6.46621">
        <ele>754.4</ele>
        <time>2022-07-17T07:25:15Z</time>
      </trkpt>
      <trkpt lat="45.21249" lon="6.46618">
        <ele>754.8</ele>
        <time>2022-07-17T07:25:16Z</time>
      </trkpt>
      <trkpt lat="45.21249" lon="6.46615">
        <ele>755</ele>
        <time>2022-07-17T07:25:17Z</time>
      </trkpt>
      <trkpt lat="45.21248" lon="6.46612">
        <ele>755.2</ele>
        <time>2022-07-17T07:25:18Z</time>
      </trkpt>
      <trkpt lat="45.21247" lon="6.4661">
        <ele>755.4</ele>
        <time>2022-07-17T07:25:19Z</time>
      </trkpt>
      <trkpt lat="45.21246" lon="6.46607">
        <ele>755.6</ele>
        <time>2022-07-17T07:25:20Z</time>
      </trkpt>
      <trkpt lat="45.21244" lon="6.46605">
        <ele>756</ele>
        <time>2022-07-17T07:25:21Z</time>
      </trkpt>
      <trkpt lat="45.21243" lon="6.46602">
        <ele>756</ele>
        <time>2022-07-17T07:25:22Z</time>
      </trkpt>
      <trkpt lat="45.21241" lon="6.466">
        <ele>756.4</ele>
        <time>2022-07-17T07:25:23Z</time>
      </trkpt>
      <trkpt lat="45.21239" lon="6.46598">
        <ele>756.6</ele>
        <time>2022-07-17T07:25:24Z</time>
      </trkpt>
      <trkpt lat="45.21237" lon="6.46597">
        <ele>756.8</ele>
        <time>2022-07-17T07:25:25Z</time>
      </trkpt>
      <trkpt lat="45.21236" lon="6.46596">
        <ele>756.8</ele>
        <time>2022-07-17T07:25:26Z</time>
      </trkpt>
      <trkpt lat="45.21233" lon="6.46595">
        <ele>757.2</ele>
        <time>2022-07-17T07:25:27Z</time>
      </trkpt>
      <trkpt lat="45.21231" lon="6.46595">
        <ele>757.4</ele>
        <time>2022-07-17T07:25:28Z</time>
      </trkpt>
      <trkpt lat="45.21229" lon="6.46595">
        <ele>757.4</ele>
        <time>2022-07-17T07:25:29Z</time>
      </trkpt>
      <trkpt lat="45.21226" lon="6.46595">
        <ele>757.6</ele>
        <time>2022-07-17T07:25:30Z</time>
      </trkpt>
      <trkpt lat="45.21224" lon="6.46594">
        <ele>757.8</ele>
        <time>2022-07-17T07:25:31Z</time>
      </trkpt>
      <trkpt lat="45.21222" lon="6.46595">
        <ele>757.8</ele>
        <time>2022-07-17T07:25:32Z</time>
      </trkpt>
      <trkpt lat="45.21219" lon="6.46595">
        <ele>758.2</ele>
        <time>2022-07-17T07:25:33Z</time>
      </trkpt>
      <trkpt lat="45.21217" lon="6.46596">
        <ele>758.4</ele>
        <time>2022-07-17T07:25:34Z</time>
      </trkpt>
      <trkpt lat="45.21215" lon="6.46598">
        <ele>758.4</ele>
        <time>2022-07-17T07:25:35Z</time>
      </trkpt>
      <trkpt lat="45.21213" lon="6.46599">
        <ele>758.8</ele>
        <time>2022-07-17T07:25:36Z</time>
      </trkpt>
      <trkpt lat="45.21212" lon="6.46601">
        <ele>758.8</ele>
        <time>2022-07-17T07:25:37Z</time>
      </trkpt>
      <trkpt lat="45.2121" lon="6.46604">
        <ele>759</ele>
        <time>2022-07-17T07:25:38Z</time>
      </trkpt>
      <trkpt lat="45.21209" lon="6.46606">
        <ele>759.2</ele>
        <time>2022-07-17T07:25:39Z</time>
      </trkpt>
      <trkpt lat="45.21208" lon="6.46609">
        <ele>759.2</ele>
        <time>2022-07-17T07:25:40Z</time>
      </trkpt>
      <trkpt lat="45.21206" lon="6.46612">
        <ele>759.6</ele>
        <time>2022-07-17T07:25:41Z</time>
      </trkpt>
      <trkpt lat="45.21205" lon="6.46614">
        <ele>759.8</ele>
        <time>2022-07-17T07:25:42Z</time>
      </trkpt>
      <trkpt lat="45.21203" lon="6.46617">
        <ele>759.8</ele>
        <time>2022-07-17T07:25:43Z</time>
      </trkpt>
      <trkpt lat="45.21201" lon="6.46619">
        <ele>760.2</ele>
        <time>2022-07-17T07:25:44Z</time>
      </trkpt>
      <trkpt lat="45.21199" lon="6.46621">
        <ele>760.4</ele>
        <time>2022-07-17T07:25:45Z</time>
      </trkpt>
      <trkpt lat="45.21197" lon="6.46624">
        <ele>760.4</ele>
        <time>2022-07-17T07:25:46Z</time>
      </trkpt>
      <trkpt lat="45.21196" lon="6.46626">
        <ele>760.8</ele>
        <time>2022-07-17T07:25:47Z</time>
      </trkpt>
      <trkpt lat="45.21194" lon="6.46627">
        <ele>760.8</ele>
        <time>2022-07-17T07:25:48Z</time>
      </trkpt>
      <trkpt lat="45.21192" lon="6.46629">
        <ele>761</ele>
        <time>2022-07-17T07:25:49Z</time>
      </trkpt>
      <trkpt lat="45.21189" lon="6.4663">
        <ele>761.2</ele>
        <time>2022-07-17T07:25:50Z</time>
      </trkpt>
      <trkpt lat="45.21187" lon="6.4663">
        <ele>761.6</ele>
        <time>2022-07-17T07:25:51Z</time>
      </trkpt>
      <trkpt lat="45.21185" lon="6.46631">
        <ele>761.6</ele>
        <time>2022-07-17T07:25:52Z</time>
      </trkpt>
      <trkpt lat="45.21183" lon="6.46632">
        <ele>762</ele>
        <time>2022-07-17T07:25:53Z</time>
      </trkpt>
      <trkpt lat="45.21181" lon="6.46633">
        <ele>762.2</ele>
        <time>2022-07-17T07:25:54Z</time>
      </trkpt>
      <trkpt lat="45.21179" lon="6.46633">
        <ele>762.4</ele>
        <time>2022-07-17T07:25:55Z</time>
      </trkpt>
      <trkpt lat="45.21177" lon="6.46633">
        <ele>762.6</ele>
        <time>2022-07-17T07:25:56Z</time>
      </trkpt>
      <trkpt lat="45.21174" lon="6.46634">
        <ele>762.6</ele>
        <time>2022-07-17T07:25:57Z</time>
      </trkpt>
      <trkpt lat="45.21172" lon="6.46634">
        <ele>763</ele>
        <time>2022-07-17T07:25:58Z</time>
      </trkpt>
      <trkpt lat="45.2117" lon="6.46634">
        <ele>763.4</ele>
        <time>2022-07-17T07:25:59Z</time>
      </trkpt>
      <trkpt lat="45.21168" lon="6.46634">
        <ele>763.6</ele>
        <time>2022-07-17T07:26:00Z</time>
      </trkpt>
      <trkpt lat="45.21166" lon="6.46634">
        <ele>763.8</ele>
        <time>2022-07-17T07:26:01Z</time>
      </trkpt>
      <trkpt lat="45.21164" lon="6.46635">
        <ele>764</ele>
        <time>2022-07-17T07:26:02Z</time>
      </trkpt>
      <trkpt lat="45.21162" lon="6.46635">
        <ele>764.4</ele>
        <time>2022-07-17T07:26:03Z</time>
      </trkpt>
      <trkpt lat="45.2116" lon="6.46635">
        <ele>764.6</ele>
        <time>2022-07-17T07:26:04Z</time>
      </trkpt>
      <trkpt lat="45.21158" lon="6.46636">
        <ele>764.6</ele>
        <time>2022-07-17T07:26:05Z</time>
      </trkpt>
      <trkpt lat="45.21156" lon="6.46637">
        <ele>765</ele>
        <time>2022-07-17T07:26:06Z</time>
      </trkpt>
      <trkpt lat="45.21154" lon="6.46638">
        <ele>765.2</ele>
        <time>2022-07-17T07:26:07Z</time>
      </trkpt>
      <trkpt lat="45.21152" lon="6.46639">
        <ele>765.2</ele>
        <time>2022-07-17T07:26:08Z</time>
      </trkpt>
      <trkpt lat="45.2115" lon="6.46641">
        <ele>765.4</ele>
        <time>2022-07-17T07:26:09Z</time>
      </trkpt>
      <trkpt lat="45.21148" lon="6.46643">
        <ele>765.4</ele>
        <time>2022-07-17T07:26:10Z</time>
      </trkpt>
      <trkpt lat="45.21147" lon="6.46645">
        <ele>765.8</ele>
        <time>2022-07-17T07:26:11Z</time>
      </trkpt>
      <trkpt lat="45.21145" lon="6.46647">
        <ele>765.8</ele>
        <time>2022-07-17T07:26:12Z</time>
      </trkpt>
      <trkpt lat="45.21143" lon="6.4665">
        <ele>766</ele>
        <time>2022-07-17T07:26:13Z</time>
      </trkpt>
      <trkpt lat="45.21141" lon="6.46652">
        <ele>766.4</ele>
        <time>2022-07-17T07:26:14Z</time>
      </trkpt>
      <trkpt lat="45.2114" lon="6.46655">
        <ele>766.6</ele>
        <time>2022-07-17T07:26:15Z</time>
      </trkpt>
      <trkpt lat="45.21139" lon="6.46658">
        <ele>766.6</ele>
        <time>2022-07-17T07:26:16Z</time>
      </trkpt>
      <trkpt lat="45.21139" lon="6.46661">
        <ele>766.8</ele>
        <time>2022-07-17T07:26:17Z</time>
      </trkpt>
      <trkpt lat="45.21139" lon="6.46664">
        <ele>766.8</ele>
        <time>2022-07-17T07:26:18Z</time>
      </trkpt>
      <trkpt lat="45.21138" lon="6.46667">
        <ele>767.2</ele>
        <time>2022-07-17T07:26:19Z</time>
      </trkpt>
      <trkpt lat="45.21137" lon="6.4667">
        <ele>767.4</ele>
        <time>2022-07-17T07:26:20Z</time>
      </trkpt>
      <trkpt lat="45.21138" lon="6.46674">
        <ele>767.4</ele>
        <time>2022-07-17T07:26:21Z</time>
      </trkpt>
      <trkpt lat="45.21139" lon="6.46677">
        <ele>767.8</ele>
        <time>2022-07-17T07:26:22Z</time>
      </trkpt>
      <trkpt lat="45.21141" lon="6.46681">
        <ele>767.8</ele>
        <time>2022-07-17T07:26:23Z</time>
      </trkpt>
      <trkpt lat="45.21142" lon="6.46685">
        <ele>768.2</ele>
        <time>2022-07-17T07:26:24Z</time>
      </trkpt>
      <trkpt lat="45.21144" lon="6.46689">
        <ele>768.4</ele>
        <time>2022-07-17T07:26:25Z</time>
      </trkpt>
      <trkpt lat="45.21146" lon="6.46692">
        <ele>768.4</ele>
        <time>2022-07-17T07:26:26Z</time>
      </trkpt>
      <trkpt lat="45.21148" lon="6.46696">
        <ele>768.8</ele>
        <time>2022-07-17T07:26:27Z</time>
      </trkpt>
      <trkpt lat="45.21149" lon="6.46698">
        <ele>769</ele>
        <time>2022-07-17T07:26:28Z</time>
      </trkpt>
      <trkpt lat="45.21151" lon="6.46701">
        <ele>769</ele>
        <time>2022-07-17T07:26:29Z</time>
      </trkpt>
      <trkpt lat="45.21154" lon="6.46704">
        <ele>769.4</ele>
        <time>2022-07-17T07:26:30Z</time>
      </trkpt>
      <trkpt lat="45.21156" lon="6.46706">
        <ele>769.4</ele>
        <time>2022-07-17T07:26:31Z</time>
      </trkpt>
      <trkpt lat="45.21158" lon="6.46708">
        <ele>769.6</ele>
        <time>2022-07-17T07:26:32Z</time>
      </trkpt>
      <trkpt lat="45.21161" lon="6.46709">
        <ele>770</ele>
        <time>2022-07-17T07:26:33Z</time>
      </trkpt>
      <trkpt lat="45.21163" lon="6.46711">
        <ele>770</ele>
        <time>2022-07-17T07:26:34Z</time>
      </trkpt>
      <trkpt lat="45.21165" lon="6.46713">
        <ele>770.2</ele>
        <time>2022-07-17T07:26:35Z</time>
      </trkpt>
      <trkpt lat="45.21167" lon="6.46716">
        <ele>770.4</ele>
        <time>2022-07-17T07:26:36Z</time>
      </trkpt>
      <trkpt lat="45.21169" lon="6.46718">
        <ele>770.6</ele>
        <time>2022-07-17T07:26:37Z</time>
      </trkpt>
      <trkpt lat="45.21171" lon="6.4672">
        <ele>770.6</ele>
        <time>2022-07-17T07:26:38Z</time>
      </trkpt>
      <trkpt lat="45.21173" lon="6.46721">
        <ele>771</ele>
        <time>2022-07-17T07:26:39Z</time>
      </trkpt>
      <trkpt lat="45.21175" lon="6.46723">
        <ele>771.2</ele>
        <time>2022-07-17T07:26:40Z</time>
      </trkpt>
      <trkpt lat="45.21177" lon="6.46725">
        <ele>771.2</ele>
        <time>2022-07-17T07:26:41Z</time>
      </trkpt>
      <trkpt lat="45.21179" lon="6.46727">
        <ele>771.6</ele>
        <time>2022-07-17T07:26:42Z</time>
      </trkpt>
      <trkpt lat="45.21181" lon="6.46729">
        <ele>771.6</ele>
        <time>2022-07-17T07:26:43Z</time>
      </trkpt>
      <trkpt lat="45.21183" lon="6.46731">
        <ele>771.8</ele>
        <time>2022-07-17T07:26:44Z</time>
      </trkpt>
      <trkpt lat="45.21185" lon="6.46733">
        <ele>771.8</ele>
        <time>2022-07-17T07:26:45Z</time>
      </trkpt>
      <trkpt lat="45.21187" lon="6.46735">
        <ele>772.2</ele>
        <time>2022-07-17T07:26:46Z</time>
      </trkpt>
      <trkpt lat="45.21188" lon="6.46737">
        <ele>772.2</ele>
        <time>2022-07-17T07:26:47Z</time>
      </trkpt>
      <trkpt lat="45.2119" lon="6.46739">
        <ele>772.6</ele>
        <time>2022-07-17T07:26:48Z</time>
      </trkpt>
      <trkpt lat="45.21191" lon="6.46741">
        <ele>772.6</ele>
        <time>2022-07-17T07:26:49Z</time>
      </trkpt>
      <trkpt lat="45.21192" lon="6.46743">
        <ele>773</ele>
        <time>2022-07-17T07:26:50Z</time>
      </trkpt>
      <trkpt lat="45.21194" lon="6.46745">
        <ele>773.2</ele>
        <time>2022-07-17T07:26:51Z</time>
      </trkpt>
      <trkpt lat="45.21195" lon="6.46748">
        <ele>773.2</ele>
        <time>2022-07-17T07:26:52Z</time>
      </trkpt>
      <trkpt lat="45.21196" lon="6.46751">
        <ele>773.6</ele>
        <time>2022-07-17T07:26:53Z</time>
      </trkpt>
      <trkpt lat="45.21196" lon="6.46754">
        <ele>773.8</ele>
        <time>2022-07-17T07:26:54Z</time>
      </trkpt>
      <trkpt lat="45.21196" lon="6.46757">
        <ele>774</ele>
        <time>2022-07-17T07:26:55Z</time>
      </trkpt>
      <trkpt lat="45.21196" lon="6.4676">
        <ele>774</ele>
        <time>2022-07-17T07:26:56Z</time>
      </trkpt>
      <trkpt lat="45.21196" lon="6.46763">
        <ele>774.4</ele>
        <time>2022-07-17T07:26:57Z</time>
      </trkpt>
      <trkpt lat="45.21195" lon="6.46766">
        <ele>774.8</ele>
        <time>2022-07-17T07:26:58Z</time>
      </trkpt>
      <trkpt lat="45.21195" lon="6.46769">
        <ele>775</ele>
        <time>2022-07-17T07:26:59Z</time>
      </trkpt>
      <trkpt lat="45.21194" lon="6.46772">
        <ele>775.2</ele>
        <time>2022-07-17T07:27:00Z</time>
      </trkpt>
      <trkpt lat="45.21194" lon="6.46776">
        <ele>775.6</ele>
        <time>2022-07-17T07:27:01Z</time>
      </trkpt>
      <trkpt lat="45.21193" lon="6.46779">
        <ele>775.8</ele>
        <time>2022-07-17T07:27:02Z</time>
      </trkpt>
      <trkpt lat="45.21192" lon="6.46782">
        <ele>776</ele>
        <time>2022-07-17T07:27:03Z</time>
      </trkpt>
      <trkpt lat="45.21189" lon="6.46786">
        <ele>776</ele>
        <time>2022-07-17T07:27:04Z</time>
      </trkpt>
      <trkpt lat="45.21187" lon="6.46789">
        <ele>776.4</ele>
        <time>2022-07-17T07:27:05Z</time>
      </trkpt>
      <trkpt lat="45.21186" lon="6.46792">
        <ele>776.8</ele>
        <time>2022-07-17T07:27:06Z</time>
      </trkpt>
      <trkpt lat="45.21184" lon="6.46795">
        <ele>777</ele>
        <time>2022-07-17T07:27:07Z</time>
      </trkpt>
      <trkpt lat="45.21183" lon="6.46797">
        <ele>777.2</ele>
        <time>2022-07-17T07:27:08Z</time>
      </trkpt>
      <trkpt lat="45.21181" lon="6.468">
        <ele>777.2</ele>
        <time>2022-07-17T07:27:09Z</time>
      </trkpt>
      <trkpt lat="45.21179" lon="6.46803">
        <ele>777.6</ele>
        <time>2022-07-17T07:27:10Z</time>
      </trkpt>
      <trkpt lat="45.21178" lon="6.46805">
        <ele>777.8</ele>
        <time>2022-07-17T07:27:11Z</time>
      </trkpt>
      <trkpt lat="45.21176" lon="6.46808">
        <ele>778</ele>
        <time>2022-07-17T07:27:12Z</time>
      </trkpt>
      <trkpt lat="45.21174" lon="6.46809">
        <ele>778</ele>
        <time>2022-07-17T07:27:13Z</time>
      </trkpt>
      <trkpt lat="45.21171" lon="6.46813">
        <ele>778.4</ele>
        <time>2022-07-17T07:27:14Z</time>
      </trkpt>
      <trkpt lat="45.2117" lon="6.46815">
        <ele>778.8</ele>
        <time>2022-07-17T07:27:16Z</time>
      </trkpt>
      <trkpt lat="45.21168" lon="6.46817">
        <ele>779.2</ele>
        <time>2022-07-17T07:27:17Z</time>
      </trkpt>
      <trkpt lat="45.21167" lon="6.46819">
        <ele>779.2</ele>
        <time>2022-07-17T07:27:18Z</time>
      </trkpt>
      <trkpt lat="45.21165" lon="6.46821">
        <ele>779.6</ele>
        <time>2022-07-17T07:27:19Z</time>
      </trkpt>
      <trkpt lat="45.21163" lon="6.46823">
        <ele>779.8</ele>
        <time>2022-07-17T07:27:20Z</time>
      </trkpt>
      <trkpt lat="45.21162" lon="6.46825">
        <ele>779.8</ele>
        <time>2022-07-17T07:27:21Z</time>
      </trkpt>
      <trkpt lat="45.2116" lon="6.46827">
        <ele>780.2</ele>
        <time>2022-07-17T07:27:22Z</time>
      </trkpt>
      <trkpt lat="45.21158" lon="6.46829">
        <ele>780.4</ele>
        <time>2022-07-17T07:27:23Z</time>
      </trkpt>
      <trkpt lat="45.21156" lon="6.4683">
        <ele>780.6</ele>
        <time>2022-07-17T07:27:24Z</time>
      </trkpt>
      <trkpt lat="45.21154" lon="6.46832">
        <ele>781</ele>
        <time>2022-07-17T07:27:25Z</time>
      </trkpt>
      <trkpt lat="45.21153" lon="6.46835">
        <ele>781.2</ele>
        <time>2022-07-17T07:27:26Z</time>
      </trkpt>
      <trkpt lat="45.21151" lon="6.46837">
        <ele>781.4</ele>
        <time>2022-07-17T07:27:27Z</time>
      </trkpt>
      <trkpt lat="45.21149" lon="6.46839">
        <ele>781.8</ele>
        <time>2022-07-17T07:27:28Z</time>
      </trkpt>
      <trkpt lat="45.21147" lon="6.46841">
        <ele>782</ele>
        <time>2022-07-17T07:27:29Z</time>
      </trkpt>
      <trkpt lat="45.21145" lon="6.46843">
        <ele>782.2</ele>
        <time>2022-07-17T07:27:30Z</time>
      </trkpt>
      <trkpt lat="45.21144" lon="6.46845">
        <ele>782.4</ele>
        <time>2022-07-17T07:27:31Z</time>
      </trkpt>
      <trkpt lat="45.21142" lon="6.46847">
        <ele>782.8</ele>
        <time>2022-07-17T07:27:32Z</time>
      </trkpt>
      <trkpt lat="45.2114" lon="6.46849">
        <ele>783</ele>
        <time>2022-07-17T07:27:33Z</time>
      </trkpt>
      <trkpt lat="45.21139" lon="6.46852">
        <ele>783.2</ele>
        <time>2022-07-17T07:27:34Z</time>
      </trkpt>
      <trkpt lat="45.21137" lon="6.46854">
        <ele>783.6</ele>
        <time>2022-07-17T07:27:35Z</time>
      </trkpt>
      <trkpt lat="45.21135" lon="6.46856">
        <ele>783.8</ele>
        <time>2022-07-17T07:27:36Z</time>
      </trkpt>
      <trkpt lat="45.21134" lon="6.46858">
        <ele>784</ele>
        <time>2022-07-17T07:27:37Z</time>
      </trkpt>
      <trkpt lat="45.21132" lon="6.46859">
        <ele>784</ele>
        <time>2022-07-17T07:27:38Z</time>
      </trkpt>
      <trkpt lat="45.2113" lon="6.46861">
        <ele>784.4</ele>
        <time>2022-07-17T07:27:39Z</time>
      </trkpt>
      <trkpt lat="45.21128" lon="6.46863">
        <ele>784.4</ele>
        <time>2022-07-17T07:27:40Z</time>
      </trkpt>
      <trkpt lat="45.21126" lon="6.46865">
        <ele>784.8</ele>
        <time>2022-07-17T07:27:41Z</time>
      </trkpt>
      <trkpt lat="45.21124" lon="6.46867">
        <ele>784.8</ele>
        <time>2022-07-17T07:27:42Z</time>
      </trkpt>
      <trkpt lat="45.21122" lon="6.46869">
        <ele>785.2</ele>
        <time>2022-07-17T07:27:43Z</time>
      </trkpt>
      <trkpt lat="45.2112" lon="6.4687">
        <ele>785.2</ele>
        <time>2022-07-17T07:27:44Z</time>
      </trkpt>
      <trkpt lat="45.21118" lon="6.46871">
        <ele>785.6</ele>
        <time>2022-07-17T07:27:45Z</time>
      </trkpt>
      <trkpt lat="45.21116" lon="6.46873">
        <ele>785.8</ele>
        <time>2022-07-17T07:27:46Z</time>
      </trkpt>
      <trkpt lat="45.21114" lon="6.46874">
        <ele>786</ele>
        <time>2022-07-17T07:27:47Z</time>
      </trkpt>
      <trkpt lat="45.21112" lon="6.46875">
        <ele>786.2</ele>
        <time>2022-07-17T07:27:48Z</time>
      </trkpt>
      <trkpt lat="45.2111" lon="6.46877">
        <ele>786.4</ele>
        <time>2022-07-17T07:27:49Z</time>
      </trkpt>
      <trkpt lat="45.21108" lon="6.46878">
        <ele>786.8</ele>
        <time>2022-07-17T07:27:50Z</time>
      </trkpt>
      <trkpt lat="45.21106" lon="6.46879">
        <ele>787</ele>
        <time>2022-07-17T07:27:51Z</time>
      </trkpt>
      <trkpt lat="45.21103" lon="6.4688">
        <ele>787.2</ele>
        <time>2022-07-17T07:27:52Z</time>
      </trkpt>
      <trkpt lat="45.21101" lon="6.46881">
        <ele>787.4</ele>
        <time>2022-07-17T07:27:53Z</time>
      </trkpt>
      <trkpt lat="45.21099" lon="6.46883">
        <ele>787.4</ele>
        <time>2022-07-17T07:27:54Z</time>
      </trkpt>
      <trkpt lat="45.21097" lon="6.46884">
        <ele>787.8</ele>
        <time>2022-07-17T07:27:55Z</time>
      </trkpt>
      <trkpt lat="45.21095" lon="6.46885">
        <ele>788</ele>
        <time>2022-07-17T07:27:56Z</time>
      </trkpt>
      <trkpt lat="45.21092" lon="6.46886">
        <ele>788</ele>
        <time>2022-07-17T07:27:57Z</time>
      </trkpt>
      <trkpt lat="45.2109" lon="6.46887">
        <ele>788.4</ele>
        <time>2022-07-17T07:27:58Z</time>
      </trkpt>
      <trkpt lat="45.21088" lon="6.46889">
        <ele>788.6</ele>
        <time>2022-07-17T07:27:59Z</time>
      </trkpt>
      <trkpt lat="45.21085" lon="6.4689">
        <ele>789</ele>
        <time>2022-07-17T07:28:00Z</time>
      </trkpt>
      <trkpt lat="45.21083" lon="6.46891">
        <ele>789.2</ele>
        <time>2022-07-17T07:28:01Z</time>
      </trkpt>
      <trkpt lat="45.21081" lon="6.46892">
        <ele>789.4</ele>
        <time>2022-07-17T07:28:02Z</time>
      </trkpt>
      <trkpt lat="45.21079" lon="6.46894">
        <ele>789.6</ele>
        <time>2022-07-17T07:28:03Z</time>
      </trkpt>
      <trkpt lat="45.21077" lon="6.46895">
        <ele>789.8</ele>
        <time>2022-07-17T07:28:04Z</time>
      </trkpt>
      <trkpt lat="45.21074" lon="6.46897">
        <ele>790.2</ele>
        <time>2022-07-17T07:28:05Z</time>
      </trkpt>
      <trkpt lat="45.21072" lon="6.46898">
        <ele>790.4</ele>
        <time>2022-07-17T07:28:06Z</time>
      </trkpt>
      <trkpt lat="45.2107" lon="6.469">
        <ele>790.6</ele>
        <time>2022-07-17T07:28:07Z</time>
      </trkpt>
      <trkpt lat="45.21068" lon="6.46901">
        <ele>790.6</ele>
        <time>2022-07-17T07:28:08Z</time>
      </trkpt>
      <trkpt lat="45.21066" lon="6.46903">
        <ele>791</ele>
        <time>2022-07-17T07:28:09Z</time>
      </trkpt>
      <trkpt lat="45.21064" lon="6.46905">
        <ele>791.2</ele>
        <time>2022-07-17T07:28:10Z</time>
      </trkpt>
      <trkpt lat="45.21062" lon="6.46906">
        <ele>791.2</ele>
        <time>2022-07-17T07:28:11Z</time>
      </trkpt>
      <trkpt lat="45.2106" lon="6.46908">
        <ele>791.6</ele>
        <time>2022-07-17T07:28:12Z</time>
      </trkpt>
      <trkpt lat="45.21058" lon="6.46909">
        <ele>791.8</ele>
        <time>2022-07-17T07:28:13Z</time>
      </trkpt>
      <trkpt lat="45.21056" lon="6.4691">
        <ele>792.2</ele>
        <time>2022-07-17T07:28:14Z</time>
      </trkpt>
      <trkpt lat="45.21053" lon="6.46911">
        <ele>792.4</ele>
        <time>2022-07-17T07:28:15Z</time>
      </trkpt>
      <trkpt lat="45.21052" lon="6.46913">
        <ele>792.4</ele>
        <time>2022-07-17T07:28:16Z</time>
      </trkpt>
      <trkpt lat="45.2105" lon="6.46914">
        <ele>792.8</ele>
        <time>2022-07-17T07:28:17Z</time>
      </trkpt>
      <trkpt lat="45.21048" lon="6.46915">
        <ele>793</ele>
        <time>2022-07-17T07:28:18Z</time>
      </trkpt>
      <trkpt lat="45.21045" lon="6.46916">
        <ele>793.2</ele>
        <time>2022-07-17T07:28:19Z</time>
      </trkpt>
      <trkpt lat="45.21043" lon="6.46917">
        <ele>793.4</ele>
        <time>2022-07-17T07:28:20Z</time>
      </trkpt>
      <trkpt lat="45.21041" lon="6.46919">
        <ele>793.8</ele>
        <time>2022-07-17T07:28:21Z</time>
      </trkpt>
      <trkpt lat="45.21039" lon="6.4692">
        <ele>794</ele>
        <time>2022-07-17T07:28:22Z</time>
      </trkpt>
      <trkpt lat="45.21037" lon="6.46921">
        <ele>794</ele>
        <time>2022-07-17T07:28:23Z</time>
      </trkpt>
      <trkpt lat="45.21035" lon="6.46923">
        <ele>794.4</ele>
        <time>2022-07-17T07:28:24Z</time>
      </trkpt>
      <trkpt lat="45.21033" lon="6.46924">
        <ele>794.6</ele>
        <time>2022-07-17T07:28:25Z</time>
      </trkpt>
      <trkpt lat="45.2103" lon="6.46925">
        <ele>794.8</ele>
        <time>2022-07-17T07:28:26Z</time>
      </trkpt>
      <trkpt lat="45.21028" lon="6.46927">
        <ele>794.8</ele>
        <time>2022-07-17T07:28:27Z</time>
      </trkpt>
      <trkpt lat="45.21026" lon="6.46928">
        <ele>795.2</ele>
        <time>2022-07-17T07:28:28Z</time>
      </trkpt>
      <trkpt lat="45.21024" lon="6.4693">
        <ele>795.2</ele>
        <time>2022-07-17T07:28:29Z</time>
      </trkpt>
      <trkpt lat="45.21022" lon="6.46932">
        <ele>795.6</ele>
        <time>2022-07-17T07:28:30Z</time>
      </trkpt>
      <trkpt lat="45.21021" lon="6.46934">
        <ele>795.8</ele>
        <time>2022-07-17T07:28:31Z</time>
      </trkpt>
      <trkpt lat="45.21019" lon="6.46936">
        <ele>796</ele>
        <time>2022-07-17T07:28:32Z</time>
      </trkpt>
      <trkpt lat="45.21017" lon="6.46938">
        <ele>796.2</ele>
        <time>2022-07-17T07:28:33Z</time>
      </trkpt>
      <trkpt lat="45.21015" lon="6.4694">
        <ele>796.2</ele>
        <time>2022-07-17T07:28:34Z</time>
      </trkpt>
      <trkpt lat="45.21014" lon="6.46943">
        <ele>796.6</ele>
        <time>2022-07-17T07:28:35Z</time>
      </trkpt>
      <trkpt lat="45.21012" lon="6.46945">
        <ele>797</ele>
        <time>2022-07-17T07:28:36Z</time>
      </trkpt>
      <trkpt lat="45.21011" lon="6.46948">
        <ele>797</ele>
        <time>2022-07-17T07:28:37Z</time>
      </trkpt>
      <trkpt lat="45.21009" lon="6.46951">
        <ele>797.2</ele>
        <time>2022-07-17T07:28:38Z</time>
      </trkpt>
      <trkpt lat="45.21007" lon="6.46953">
        <ele>797.2</ele>
        <time>2022-07-17T07:28:39Z</time>
      </trkpt>
      <trkpt lat="45.21005" lon="6.46955">
        <ele>797.6</ele>
        <time>2022-07-17T07:28:40Z</time>
      </trkpt>
      <trkpt lat="45.21003" lon="6.46956">
        <ele>798</ele>
        <time>2022-07-17T07:28:41Z</time>
      </trkpt>
      <trkpt lat="45.21001" lon="6.46956">
        <ele>798.2</ele>
        <time>2022-07-17T07:28:42Z</time>
      </trkpt>
      <trkpt lat="45.20999" lon="6.46956">
        <ele>798.4</ele>
        <time>2022-07-17T07:28:43Z</time>
      </trkpt>
      <trkpt lat="45.20997" lon="6.46955">
        <ele>798.6</ele>
        <time>2022-07-17T07:28:44Z</time>
      </trkpt>
      <trkpt lat="45.20995" lon="6.46954">
        <ele>799</ele>
        <time>2022-07-17T07:28:45Z</time>
      </trkpt>
      <trkpt lat="45.20993" lon="6.46952">
        <ele>799.2</ele>
        <time>2022-07-17T07:28:46Z</time>
      </trkpt>
      <trkpt lat="45.20992" lon="6.46949">
        <ele>799.6</ele>
        <time>2022-07-17T07:28:47Z</time>
      </trkpt>
      <trkpt lat="45.20991" lon="6.46946">
        <ele>799.8</ele>
        <time>2022-07-17T07:28:48Z</time>
      </trkpt>
      <trkpt lat="45.20991" lon="6.46943">
        <ele>800</ele>
        <time>2022-07-17T07:28:49Z</time>
      </trkpt>
      <trkpt lat="45.20992" lon="6.46939">
        <ele>800.4</ele>
        <time>2022-07-17T07:28:50Z</time>
      </trkpt>
      <trkpt lat="45.20994" lon="6.46936">
        <ele>800.6</ele>
        <time>2022-07-17T07:28:51Z</time>
      </trkpt>
      <trkpt lat="45.20995" lon="6.46933">
        <ele>800.8</ele>
        <time>2022-07-17T07:28:52Z</time>
      </trkpt>
      <trkpt lat="45.20996" lon="6.46929">
        <ele>801</ele>
        <time>2022-07-17T07:28:53Z</time>
      </trkpt>
      <trkpt lat="45.20997" lon="6.46926">
        <ele>801</ele>
        <time>2022-07-17T07:28:54Z</time>
      </trkpt>
      <trkpt lat="45.20998" lon="6.46923">
        <ele>801.4</ele>
        <time>2022-07-17T07:28:55Z</time>
      </trkpt>
      <trkpt lat="45.20999" lon="6.4692">
        <ele>801.6</ele>
        <time>2022-07-17T07:28:56Z</time>
      </trkpt>
      <trkpt lat="45.21" lon="6.46916">
        <ele>801.6</ele>
        <time>2022-07-17T07:28:57Z</time>
      </trkpt>
      <trkpt lat="45.21001" lon="6.46913">
        <ele>802</ele>
        <time>2022-07-17T07:28:58Z</time>
      </trkpt>
      <trkpt lat="45.21002" lon="6.4691">
        <ele>802.2</ele>
        <time>2022-07-17T07:28:59Z</time>
      </trkpt>
      <trkpt lat="45.21003" lon="6.46907">
        <ele>802.4</ele>
        <time>2022-07-17T07:29:00Z</time>
      </trkpt>
      <trkpt lat="45.21004" lon="6.46904">
        <ele>802.8</ele>
        <time>2022-07-17T07:29:01Z</time>
      </trkpt>
      <trkpt lat="45.21005" lon="6.46901">
        <ele>803</ele>
        <time>2022-07-17T07:29:02Z</time>
      </trkpt>
      <trkpt lat="45.21006" lon="6.46898">
        <ele>803.2</ele>
        <time>2022-07-17T07:29:03Z</time>
      </trkpt>
      <trkpt lat="45.21006" lon="6.46895">
        <ele>803.2</ele>
        <time>2022-07-17T07:29:04Z</time>
      </trkpt>
      <trkpt lat="45.21007" lon="6.46892">
        <ele>803.6</ele>
        <time>2022-07-17T07:29:05Z</time>
      </trkpt>
      <trkpt lat="45.21008" lon="6.46889">
        <ele>803.6</ele>
        <time>2022-07-17T07:29:06Z</time>
      </trkpt>
      <trkpt lat="45.21009" lon="6.46886">
        <ele>804</ele>
        <time>2022-07-17T07:29:07Z</time>
      </trkpt>
      <trkpt lat="45.21009" lon="6.46883">
        <ele>804.2</ele>
        <time>2022-07-17T07:29:08Z</time>
      </trkpt>
      <trkpt lat="45.2101" lon="6.4688">
        <ele>804.2</ele>
        <time>2022-07-17T07:29:09Z</time>
      </trkpt>
      <trkpt lat="45.2101" lon="6.46877">
        <ele>804.6</ele>
        <time>2022-07-17T07:29:10Z</time>
      </trkpt>
      <trkpt lat="45.21011" lon="6.46874">
        <ele>804.6</ele>
        <time>2022-07-17T07:29:11Z</time>
      </trkpt>
      <trkpt lat="45.21012" lon="6.46871">
        <ele>804.6</ele>
        <time>2022-07-17T07:29:12Z</time>
      </trkpt>
      <trkpt lat="45.21012" lon="6.46869">
        <ele>805</ele>
        <time>2022-07-17T07:29:13Z</time>
      </trkpt>
      <trkpt lat="45.21013" lon="6.46866">
        <ele>805</ele>
        <time>2022-07-17T07:29:14Z</time>
      </trkpt>
      <trkpt lat="45.21013" lon="6.46863">
        <ele>805.2</ele>
        <time>2022-07-17T07:29:15Z</time>
      </trkpt>
      <trkpt lat="45.21014" lon="6.4686">
        <ele>805.6</ele>
        <time>2022-07-17T07:29:16Z</time>
      </trkpt>
      <trkpt lat="45.21014" lon="6.46857">
        <ele>805.8</ele>
        <time>2022-07-17T07:29:17Z</time>
      </trkpt>
      <trkpt lat="45.21014" lon="6.46854">
        <ele>805.8</ele>
        <time>2022-07-17T07:29:18Z</time>
      </trkpt>
      <trkpt lat="45.21015" lon="6.46851">
        <ele>806.2</ele>
        <time>2022-07-17T07:29:19Z</time>
      </trkpt>
      <trkpt lat="45.21015" lon="6.46848">
        <ele>806.4</ele>
        <time>2022-07-17T07:29:20Z</time>
      </trkpt>
      <trkpt lat="45.21016" lon="6.46845">
        <ele>806.6</ele>
        <time>2022-07-17T07:29:21Z</time>
      </trkpt>
      <trkpt lat="45.21017" lon="6.46842">
        <ele>806.6</ele>
        <time>2022-07-17T07:29:22Z</time>
      </trkpt>
      <trkpt lat="45.21018" lon="6.46839">
        <ele>807</ele>
        <time>2022-07-17T07:29:23Z</time>
      </trkpt>
      <trkpt lat="45.21018" lon="6.46835">
        <ele>807</ele>
        <time>2022-07-17T07:29:24Z</time>
      </trkpt>
      <trkpt lat="45.21019" lon="6.46832">
        <ele>807.4</ele>
        <time>2022-07-17T07:29:25Z</time>
      </trkpt>
      <trkpt lat="45.21019" lon="6.46828">
        <ele>807.4</ele>
        <time>2022-07-17T07:29:26Z</time>
      </trkpt>
      <trkpt lat="45.2102" lon="6.46825">
        <ele>807.8</ele>
        <time>2022-07-17T07:29:27Z</time>
      </trkpt>
      <trkpt lat="45.2102" lon="6.46821">
        <ele>807.8</ele>
        <time>2022-07-17T07:29:28Z</time>
      </trkpt>
      <trkpt lat="45.21021" lon="6.46818">
        <ele>808</ele>
        <time>2022-07-17T07:29:29Z</time>
      </trkpt>
      <trkpt lat="45.21021" lon="6.46814">
        <ele>808</ele>
        <time>2022-07-17T07:29:30Z</time>
      </trkpt>
      <trkpt lat="45.21021" lon="6.46811">
        <ele>808.4</ele>
        <time>2022-07-17T07:29:31Z</time>
      </trkpt>
      <trkpt lat="45.21022" lon="6.46807">
        <ele>808.6</ele>
        <time>2022-07-17T07:29:32Z</time>
      </trkpt>
      <trkpt lat="45.21022" lon="6.46804">
        <ele>808.6</ele>
        <time>2022-07-17T07:29:33Z</time>
      </trkpt>
      <trkpt lat="45.21022" lon="6.468">
        <ele>809</ele>
        <time>2022-07-17T07:29:34Z</time>
      </trkpt>
      <trkpt lat="45.21022" lon="6.46796">
        <ele>809</ele>
        <time>2022-07-17T07:29:35Z</time>
      </trkpt>
      <trkpt lat="45.21022" lon="6.46793">
        <ele>809.4</ele>
        <time>2022-07-17T07:29:36Z</time>
      </trkpt>
      <trkpt lat="45.21022" lon="6.46789">
        <ele>809.4</ele>
        <time>2022-07-17T07:29:37Z</time>
      </trkpt>
      <trkpt lat="45.21022" lon="6.46786">
        <ele>810</ele>
        <time>2022-07-17T07:29:38Z</time>
      </trkpt>
      <trkpt lat="45.21022" lon="6.46782">
        <ele>810</ele>
        <time>2022-07-17T07:29:39Z</time>
      </trkpt>
      <trkpt lat="45.21021" lon="6.46779">
        <ele>810.2</ele>
        <time>2022-07-17T07:29:40Z</time>
      </trkpt>
      <trkpt lat="45.21021" lon="6.46776">
        <ele>810.2</ele>
        <time>2022-07-17T07:29:41Z</time>
      </trkpt>
      <trkpt lat="45.21021" lon="6.46772">
        <ele>810.6</ele>
        <time>2022-07-17T07:29:42Z</time>
      </trkpt>
      <trkpt lat="45.21021" lon="6.46769">
        <ele>810.6</ele>
        <time>2022-07-17T07:29:43Z</time>
      </trkpt>
      <trkpt lat="45.21022" lon="6.46765">
        <ele>811</ele>
        <time>2022-07-17T07:29:44Z</time>
      </trkpt>
      <trkpt lat="45.21021" lon="6.46762">
        <ele>811</ele>
        <time>2022-07-17T07:29:45Z</time>
      </trkpt>
      <trkpt lat="45.21021" lon="6.46758">
        <ele>811.2</ele>
        <time>2022-07-17T07:29:46Z</time>
      </trkpt>
      <trkpt lat="45.21021" lon="6.46754">
        <ele>811.2</ele>
        <time>2022-07-17T07:29:47Z</time>
      </trkpt>
      <trkpt lat="45.21022" lon="6.46751">
        <ele>811.6</ele>
        <time>2022-07-17T07:29:48Z</time>
      </trkpt>
      <trkpt lat="45.21022" lon="6.46747">
        <ele>811.6</ele>
        <time>2022-07-17T07:29:49Z</time>
      </trkpt>
      <trkpt lat="45.21023" lon="6.46744">
        <ele>812</ele>
        <time>2022-07-17T07:29:50Z</time>
      </trkpt>
      <trkpt lat="45.21023" lon="6.46741">
        <ele>812</ele>
        <time>2022-07-17T07:29:51Z</time>
      </trkpt>
      <trkpt lat="45.21024" lon="6.46737">
        <ele>812.2</ele>
        <time>2022-07-17T07:29:52Z</time>
      </trkpt>
      <trkpt lat="45.21024" lon="6.46734">
        <ele>812.2</ele>
        <time>2022-07-17T07:29:53Z</time>
      </trkpt>
      <trkpt lat="45.21025" lon="6.46731">
        <ele>812.6</ele>
        <time>2022-07-17T07:29:54Z</time>
      </trkpt>
      <trkpt lat="45.21026" lon="6.46728">
        <ele>812.8</ele>
        <time>2022-07-17T07:29:55Z</time>
      </trkpt>
      <trkpt lat="45.21026" lon="6.46724">
        <ele>812.8</ele>
        <time>2022-07-17T07:29:56Z</time>
      </trkpt>
      <trkpt lat="45.21027" lon="6.46721">
        <ele>813.2</ele>
        <time>2022-07-17T07:29:57Z</time>
      </trkpt>
      <trkpt lat="45.21027" lon="6.46717">
        <ele>813.6</ele>
        <time>2022-07-17T07:29:58Z</time>
      </trkpt>
      <trkpt lat="45.21027" lon="6.46713">
        <ele>813.8</ele>
        <time>2022-07-17T07:29:59Z</time>
      </trkpt>
      <trkpt lat="45.21028" lon="6.4671">
        <ele>814</ele>
        <time>2022-07-17T07:30:00Z</time>
      </trkpt>
      <trkpt lat="45.21028" lon="6.46707">
        <ele>814.2</ele>
        <time>2022-07-17T07:30:01Z</time>
      </trkpt>
      <trkpt lat="45.21028" lon="6.46704">
        <ele>814.6</ele>
        <time>2022-07-17T07:30:02Z</time>
      </trkpt>
      <trkpt lat="45.21028" lon="6.46701">
        <ele>814.8</ele>
        <time>2022-07-17T07:30:03Z</time>
      </trkpt>
      <trkpt lat="45.21027" lon="6.46698">
        <ele>815</ele>
        <time>2022-07-17T07:30:04Z</time>
      </trkpt>
      <trkpt lat="45.21026" lon="6.46694">
        <ele>815.2</ele>
        <time>2022-07-17T07:30:05Z</time>
      </trkpt>
      <trkpt lat="45.21025" lon="6.46691">
        <ele>815.6</ele>
        <time>2022-07-17T07:30:06Z</time>
      </trkpt>
      <trkpt lat="45.21023" lon="6.46689">
        <ele>815.8</ele>
        <time>2022-07-17T07:30:07Z</time>
      </trkpt>
      <trkpt lat="45.21022" lon="6.46687">
        <ele>815.8</ele>
        <time>2022-07-17T07:30:08Z</time>
      </trkpt>
      <trkpt lat="45.2102" lon="6.46685">
        <ele>816</ele>
        <time>2022-07-17T07:30:09Z</time>
      </trkpt>
      <trkpt lat="45.21018" lon="6.46685">
        <ele>816</ele>
        <time>2022-07-17T07:30:10Z</time>
      </trkpt>
      <trkpt lat="45.21015" lon="6.46685">
        <ele>816.4</ele>
        <time>2022-07-17T07:30:11Z</time>
      </trkpt>
      <trkpt lat="45.21013" lon="6.46686">
        <ele>816.4</ele>
        <time>2022-07-17T07:30:12Z</time>
      </trkpt>
      <trkpt lat="45.21011" lon="6.46686">
        <ele>816.8</ele>
        <time>2022-07-17T07:30:13Z</time>
      </trkpt>
      <trkpt lat="45.21008" lon="6.46688">
        <ele>816.8</ele>
        <time>2022-07-17T07:30:14Z</time>
      </trkpt>
      <trkpt lat="45.21006" lon="6.4669">
        <ele>817</ele>
        <time>2022-07-17T07:30:15Z</time>
      </trkpt>
      <trkpt lat="45.21005" lon="6.46693">
        <ele>817</ele>
        <time>2022-07-17T07:30:16Z</time>
      </trkpt>
      <trkpt lat="45.21003" lon="6.46696">
        <ele>817.2</ele>
        <time>2022-07-17T07:30:17Z</time>
      </trkpt>
      <trkpt lat="45.21002" lon="6.46699">
        <ele>817.2</ele>
        <time>2022-07-17T07:30:18Z</time>
      </trkpt>
      <trkpt lat="45.21002" lon="6.46703">
        <ele>817.2</ele>
        <time>2022-07-17T07:30:19Z</time>
      </trkpt>
      <trkpt lat="45.21001" lon="6.46706">
        <ele>817.6</ele>
        <time>2022-07-17T07:30:20Z</time>
      </trkpt>
      <trkpt lat="45.21001" lon="6.46709">
        <ele>817.6</ele>
        <time>2022-07-17T07:30:21Z</time>
      </trkpt>
      <trkpt lat="45.21" lon="6.46713">
        <ele>817.8</ele>
        <time>2022-07-17T07:30:22Z</time>
      </trkpt>
      <trkpt lat="45.21" lon="6.46716">
        <ele>818</ele>
        <time>2022-07-17T07:30:23Z</time>
      </trkpt>
      <trkpt lat="45.21" lon="6.46719">
        <ele>818</ele>
        <time>2022-07-17T07:30:24Z</time>
      </trkpt>
      <trkpt lat="45.20999" lon="6.46722">
        <ele>818.4</ele>
        <time>2022-07-17T07:30:25Z</time>
      </trkpt>
      <trkpt lat="45.20999" lon="6.46726">
        <ele>818.4</ele>
        <time>2022-07-17T07:30:26Z</time>
      </trkpt>
      <trkpt lat="45.20998" lon="6.46729">
        <ele>818.8</ele>
        <time>2022-07-17T07:30:27Z</time>
      </trkpt>
      <trkpt lat="45.20997" lon="6.46732">
        <ele>818.8</ele>
        <time>2022-07-17T07:30:28Z</time>
      </trkpt>
      <trkpt lat="45.20997" lon="6.46734">
        <ele>819</ele>
        <time>2022-07-17T07:30:29Z</time>
      </trkpt>
      <trkpt lat="45.20996" lon="6.46737">
        <ele>819.2</ele>
        <time>2022-07-17T07:30:30Z</time>
      </trkpt>
      <trkpt lat="45.20995" lon="6.4674">
        <ele>819.6</ele>
        <time>2022-07-17T07:30:31Z</time>
      </trkpt>
      <trkpt lat="45.20994" lon="6.46743">
        <ele>819.8</ele>
        <time>2022-07-17T07:30:32Z</time>
      </trkpt>
      <trkpt lat="45.20994" lon="6.46746">
        <ele>820</ele>
        <time>2022-07-17T07:30:33Z</time>
      </trkpt>
      <trkpt lat="45.20994" lon="6.46749">
        <ele>820.2</ele>
        <time>2022-07-17T07:30:34Z</time>
      </trkpt>
      <trkpt lat="45.20994" lon="6.46752">
        <ele>820.4</ele>
        <time>2022-07-17T07:30:35Z</time>
      </trkpt>
      <trkpt lat="45.20993" lon="6.46755">
        <ele>820.6</ele>
        <time>2022-07-17T07:30:36Z</time>
      </trkpt>
      <trkpt lat="45.20992" lon="6.46758">
        <ele>820.6</ele>
        <time>2022-07-17T07:30:37Z</time>
      </trkpt>
      <trkpt lat="45.20992" lon="6.46761">
        <ele>821</ele>
        <time>2022-07-17T07:30:38Z</time>
      </trkpt>
      <trkpt lat="45.20992" lon="6.46765">
        <ele>821</ele>
        <time>2022-07-17T07:30:39Z</time>
      </trkpt>
      <trkpt lat="45.20991" lon="6.46768">
        <ele>821.4</ele>
        <time>2022-07-17T07:30:40Z</time>
      </trkpt>
      <trkpt lat="45.20991" lon="6.46771">
        <ele>821.4</ele>
        <time>2022-07-17T07:30:41Z</time>
      </trkpt>
      <trkpt lat="45.2099" lon="6.46774">
        <ele>821.6</ele>
        <time>2022-07-17T07:30:42Z</time>
      </trkpt>
      <trkpt lat="45.20989" lon="6.46777">
        <ele>821.6</ele>
        <time>2022-07-17T07:30:43Z</time>
      </trkpt>
      <trkpt lat="45.20988" lon="6.4678">
        <ele>822</ele>
        <time>2022-07-17T07:30:44Z</time>
      </trkpt>
      <trkpt lat="45.20988" lon="6.46783">
        <ele>822</ele>
        <time>2022-07-17T07:30:45Z</time>
      </trkpt>
      <trkpt lat="45.20987" lon="6.46786">
        <ele>822.4</ele>
        <time>2022-07-17T07:30:46Z</time>
      </trkpt>
      <trkpt lat="45.20986" lon="6.46789">
        <ele>822.8</ele>
        <time>2022-07-17T07:30:47Z</time>
      </trkpt>
      <trkpt lat="45.20986" lon="6.46792">
        <ele>822.8</ele>
        <time>2022-07-17T07:30:48Z</time>
      </trkpt>
      <trkpt lat="45.20986" lon="6.46795">
        <ele>823.2</ele>
        <time>2022-07-17T07:30:49Z</time>
      </trkpt>
      <trkpt lat="45.20986" lon="6.46798">
        <ele>823.2</ele>
        <time>2022-07-17T07:30:50Z</time>
      </trkpt>
      <trkpt lat="45.20984" lon="6.468">
        <ele>823.4</ele>
        <time>2022-07-17T07:30:51Z</time>
      </trkpt>
      <trkpt lat="45.20983" lon="6.46802">
        <ele>823.4</ele>
        <time>2022-07-17T07:30:52Z</time>
      </trkpt>
      <trkpt lat="45.20981" lon="6.46805">
        <ele>823.8</ele>
        <time>2022-07-17T07:30:53Z</time>
      </trkpt>
      <trkpt lat="45.2098" lon="6.46807">
        <ele>824</ele>
        <time>2022-07-17T07:30:54Z</time>
      </trkpt>
      <trkpt lat="45.20979" lon="6.4681">
        <ele>824</ele>
        <time>2022-07-17T07:30:55Z</time>
      </trkpt>
      <trkpt lat="45.20977" lon="6.46813">
        <ele>824.4</ele>
        <time>2022-07-17T07:30:56Z</time>
      </trkpt>
      <trkpt lat="45.20976" lon="6.46816">
        <ele>824.4</ele>
        <time>2022-07-17T07:30:57Z</time>
      </trkpt>
      <trkpt lat="45.20975" lon="6.46819">
        <ele>824.8</ele>
        <time>2022-07-17T07:30:58Z</time>
      </trkpt>
      <trkpt lat="45.20974" lon="6.46822">
        <ele>824.8</ele>
        <time>2022-07-17T07:30:59Z</time>
      </trkpt>
      <trkpt lat="45.20972" lon="6.46824">
        <ele>825</ele>
        <time>2022-07-17T07:31:00Z</time>
      </trkpt>
      <trkpt lat="45.20971" lon="6.46827">
        <ele>825</ele>
        <time>2022-07-17T07:31:01Z</time>
      </trkpt>
      <trkpt lat="45.20969" lon="6.4683">
        <ele>825.4</ele>
        <time>2022-07-17T07:31:02Z</time>
      </trkpt>
      <trkpt lat="45.20968" lon="6.46833">
        <ele>825.4</ele>
        <time>2022-07-17T07:31:03Z</time>
      </trkpt>
      <trkpt lat="45.20966" lon="6.46835">
        <ele>825.8</ele>
        <time>2022-07-17T07:31:04Z</time>
      </trkpt>
      <trkpt lat="45.20964" lon="6.46837">
        <ele>826</ele>
        <time>2022-07-17T07:31:05Z</time>
      </trkpt>
      <trkpt lat="45.20961" lon="6.46839">
        <ele>826.2</ele>
        <time>2022-07-17T07:31:06Z</time>
      </trkpt>
      <trkpt lat="45.20958" lon="6.46841">
        <ele>826.2</ele>
        <time>2022-07-17T07:31:07Z</time>
      </trkpt>
      <trkpt lat="45.20956" lon="6.46842">
        <ele>826.6</ele>
        <time>2022-07-17T07:31:08Z</time>
      </trkpt>
      <trkpt lat="45.20954" lon="6.46844">
        <ele>826.8</ele>
        <time>2022-07-17T07:31:09Z</time>
      </trkpt>
      <trkpt lat="45.20951" lon="6.46845">
        <ele>827</ele>
        <time>2022-07-17T07:31:10Z</time>
      </trkpt>
      <trkpt lat="45.20949" lon="6.46846">
        <ele>827.2</ele>
        <time>2022-07-17T07:31:11Z</time>
      </trkpt>
      <trkpt lat="45.20946" lon="6.46848">
        <ele>827.4</ele>
        <time>2022-07-17T07:31:12Z</time>
      </trkpt>
      <trkpt lat="45.20943" lon="6.46849">
        <ele>827.6</ele>
        <time>2022-07-17T07:31:13Z</time>
      </trkpt>
      <trkpt lat="45.20941" lon="6.4685">
        <ele>827.6</ele>
        <time>2022-07-17T07:31:14Z</time>
      </trkpt>
      <trkpt lat="45.20939" lon="6.46852">
        <ele>828</ele>
        <time>2022-07-17T07:31:15Z</time>
      </trkpt>
      <trkpt lat="45.20936" lon="6.46853">
        <ele>828.2</ele>
        <time>2022-07-17T07:31:16Z</time>
      </trkpt>
      <trkpt lat="45.20934" lon="6.46855">
        <ele>828.4</ele>
        <time>2022-07-17T07:31:17Z</time>
      </trkpt>
      <trkpt lat="45.20932" lon="6.46856">
        <ele>828.6</ele>
        <time>2022-07-17T07:31:18Z</time>
      </trkpt>
      <trkpt lat="45.2093" lon="6.46857">
        <ele>828.6</ele>
        <time>2022-07-17T07:31:19Z</time>
      </trkpt>
      <trkpt lat="45.20928" lon="6.46858">
        <ele>829</ele>
        <time>2022-07-17T07:31:20Z</time>
      </trkpt>
      <trkpt lat="45.20926" lon="6.4686">
        <ele>829.2</ele>
        <time>2022-07-17T07:31:21Z</time>
      </trkpt>
      <trkpt lat="45.20923" lon="6.46861">
        <ele>829.6</ele>
        <time>2022-07-17T07:31:22Z</time>
      </trkpt>
      <trkpt lat="45.20921" lon="6.46863">
        <ele>829.8</ele>
        <time>2022-07-17T07:31:23Z</time>
      </trkpt>
      <trkpt lat="45.20919" lon="6.46864">
        <ele>830.2</ele>
        <time>2022-07-17T07:31:24Z</time>
      </trkpt>
      <trkpt lat="45.20916" lon="6.46865">
        <ele>830.2</ele>
        <time>2022-07-17T07:31:25Z</time>
      </trkpt>
      <trkpt lat="45.20914" lon="6.46867">
        <ele>830.6</ele>
        <time>2022-07-17T07:31:26Z</time>
      </trkpt>
      <trkpt lat="45.20912" lon="6.46868">
        <ele>830.8</ele>
        <time>2022-07-17T07:31:27Z</time>
      </trkpt>
      <trkpt lat="45.20909" lon="6.46868">
        <ele>831</ele>
        <time>2022-07-17T07:31:28Z</time>
      </trkpt>
      <trkpt lat="45.20907" lon="6.46869">
        <ele>831.2</ele>
        <time>2022-07-17T07:31:29Z</time>
      </trkpt>
      <trkpt lat="45.20905" lon="6.4687">
        <ele>831.4</ele>
        <time>2022-07-17T07:31:30Z</time>
      </trkpt>
      <trkpt lat="45.20902" lon="6.4687">
        <ele>831.4</ele>
        <time>2022-07-17T07:31:31Z</time>
      </trkpt>
      <trkpt lat="45.209" lon="6.4687">
        <ele>831.8</ele>
        <time>2022-07-17T07:31:32Z</time>
      </trkpt>
      <trkpt lat="45.20898" lon="6.46871">
        <ele>831.8</ele>
        <time>2022-07-17T07:31:33Z</time>
      </trkpt>
      <trkpt lat="45.20896" lon="6.46871">
        <ele>832.4</ele>
        <time>2022-07-17T07:31:34Z</time>
      </trkpt>
      <trkpt lat="45.20893" lon="6.46872">
        <ele>832.6</ele>
        <time>2022-07-17T07:31:35Z</time>
      </trkpt>
      <trkpt lat="45.20891" lon="6.46873">
        <ele>832.8</ele>
        <time>2022-07-17T07:31:36Z</time>
      </trkpt>
      <trkpt lat="45.20889" lon="6.46873">
        <ele>833</ele>
        <time>2022-07-17T07:31:37Z</time>
      </trkpt>
      <trkpt lat="45.20887" lon="6.46873">
        <ele>833.4</ele>
        <time>2022-07-17T07:31:38Z</time>
      </trkpt>
      <trkpt lat="45.20885" lon="6.46873">
        <ele>833.4</ele>
        <time>2022-07-17T07:31:39Z</time>
      </trkpt>
      <trkpt lat="45.20882" lon="6.46874">
        <ele>833.8</ele>
        <time>2022-07-17T07:31:40Z</time>
      </trkpt>
      <trkpt lat="45.2088" lon="6.46874">
        <ele>834</ele>
        <time>2022-07-17T07:31:41Z</time>
      </trkpt>
      <trkpt lat="45.20878" lon="6.46874">
        <ele>834</ele>
        <time>2022-07-17T07:31:42Z</time>
      </trkpt>
      <trkpt lat="45.20876" lon="6.46875">
        <ele>834.4</ele>
        <time>2022-07-17T07:31:43Z</time>
      </trkpt>
      <trkpt lat="45.20874" lon="6.46875">
        <ele>834.6</ele>
        <time>2022-07-17T07:31:44Z</time>
      </trkpt>
      <trkpt lat="45.20871" lon="6.46875">
        <ele>834.8</ele>
        <time>2022-07-17T07:31:45Z</time>
      </trkpt>
      <trkpt lat="45.20869" lon="6.46876">
        <ele>835.2</ele>
        <time>2022-07-17T07:31:46Z</time>
      </trkpt>
      <trkpt lat="45.20867" lon="6.46877">
        <ele>835.4</ele>
        <time>2022-07-17T07:31:47Z</time>
      </trkpt>
      <trkpt lat="45.20865" lon="6.46877">
        <ele>835.6</ele>
        <time>2022-07-17T07:31:48Z</time>
      </trkpt>
      <trkpt lat="45.20863" lon="6.46878">
        <ele>836</ele>
        <time>2022-07-17T07:31:49Z</time>
      </trkpt>
      <trkpt lat="45.20861" lon="6.46879">
        <ele>836.2</ele>
        <time>2022-07-17T07:31:50Z</time>
      </trkpt>
      <trkpt lat="45.20859" lon="6.46879">
        <ele>836.4</ele>
        <time>2022-07-17T07:31:51Z</time>
      </trkpt>
      <trkpt lat="45.20857" lon="6.4688">
        <ele>836.8</ele>
        <time>2022-07-17T07:31:52Z</time>
      </trkpt>
      <trkpt lat="45.20855" lon="6.46882">
        <ele>837</ele>
        <time>2022-07-17T07:31:53Z</time>
      </trkpt>
      <trkpt lat="45.20853" lon="6.46884">
        <ele>837.2</ele>
        <time>2022-07-17T07:31:54Z</time>
      </trkpt>
      <trkpt lat="45.20851" lon="6.46887">
        <ele>837.2</ele>
        <time>2022-07-17T07:31:55Z</time>
      </trkpt>
      <trkpt lat="45.20849" lon="6.46889">
        <ele>837.4</ele>
        <time>2022-07-17T07:31:56Z</time>
      </trkpt>
      <trkpt lat="45.20847" lon="6.46891">
        <ele>837.4</ele>
        <time>2022-07-17T07:31:57Z</time>
      </trkpt>
      <trkpt lat="45.20845" lon="6.46893">
        <ele>837.8</ele>
        <time>2022-07-17T07:31:58Z</time>
      </trkpt>
      <trkpt lat="45.20842" lon="6.46894">
        <ele>838</ele>
        <time>2022-07-17T07:31:59Z</time>
      </trkpt>
      <trkpt lat="45.2084" lon="6.46896">
        <ele>838.4</ele>
        <time>2022-07-17T07:32:00Z</time>
      </trkpt>
      <trkpt lat="45.20838" lon="6.46897">
        <ele>838.4</ele>
        <time>2022-07-17T07:32:01Z</time>
      </trkpt>
      <trkpt lat="45.20836" lon="6.46899">
        <ele>838.8</ele>
        <time>2022-07-17T07:32:02Z</time>
      </trkpt>
      <trkpt lat="45.20834" lon="6.46901">
        <ele>838.8</ele>
        <time>2022-07-17T07:32:03Z</time>
      </trkpt>
      <trkpt lat="45.20833" lon="6.46903">
        <ele>839.2</ele>
        <time>2022-07-17T07:32:04Z</time>
      </trkpt>
      <trkpt lat="45.20831" lon="6.46904">
        <ele>839.2</ele>
        <time>2022-07-17T07:32:05Z</time>
      </trkpt>
      <trkpt lat="45.20829" lon="6.46906">
        <ele>839.6</ele>
        <time>2022-07-17T07:32:06Z</time>
      </trkpt>
      <trkpt lat="45.20827" lon="6.46908">
        <ele>839.6</ele>
        <time>2022-07-17T07:32:07Z</time>
      </trkpt>
      <trkpt lat="45.20825" lon="6.4691">
        <ele>840</ele>
        <time>2022-07-17T07:32:08Z</time>
      </trkpt>
      <trkpt lat="45.20823" lon="6.46912">
        <ele>840</ele>
        <time>2022-07-17T07:32:09Z</time>
      </trkpt>
      <trkpt lat="45.2082" lon="6.46914">
        <ele>840.4</ele>
        <time>2022-07-17T07:32:10Z</time>
      </trkpt>
      <trkpt lat="45.20819" lon="6.46917">
        <ele>840.6</ele>
        <time>2022-07-17T07:32:11Z</time>
      </trkpt>
      <trkpt lat="45.20817" lon="6.46919">
        <ele>840.8</ele>
        <time>2022-07-17T07:32:12Z</time>
      </trkpt>
      <trkpt lat="45.20815" lon="6.4692">
        <ele>841</ele>
        <time>2022-07-17T07:32:13Z</time>
      </trkpt>
      <trkpt lat="45.20813" lon="6.46922">
        <ele>841.2</ele>
        <time>2022-07-17T07:32:14Z</time>
      </trkpt>
      <trkpt lat="45.20812" lon="6.46924">
        <ele>841.4</ele>
        <time>2022-07-17T07:32:15Z</time>
      </trkpt>
      <trkpt lat="45.2081" lon="6.46927">
        <ele>841.4</ele>
        <time>2022-07-17T07:32:16Z</time>
      </trkpt>
      <trkpt lat="45.20808" lon="6.46929">
        <ele>842</ele>
        <time>2022-07-17T07:32:17Z</time>
      </trkpt>
      <trkpt lat="45.20806" lon="6.46931">
        <ele>842.2</ele>
        <time>2022-07-17T07:32:18Z</time>
      </trkpt>
      <trkpt lat="45.20804" lon="6.46933">
        <ele>842.2</ele>
        <time>2022-07-17T07:32:19Z</time>
      </trkpt>
      <trkpt lat="45.20802" lon="6.46935">
        <ele>842.4</ele>
        <time>2022-07-17T07:32:20Z</time>
      </trkpt>
      <trkpt lat="45.208" lon="6.46937">
        <ele>842.8</ele>
        <time>2022-07-17T07:32:21Z</time>
      </trkpt>
      <trkpt lat="45.20798" lon="6.46938">
        <ele>843</ele>
        <time>2022-07-17T07:32:22Z</time>
      </trkpt>
      <trkpt lat="45.20795" lon="6.46938">
        <ele>843</ele>
        <time>2022-07-17T07:32:23Z</time>
      </trkpt>
      <trkpt lat="45.20792" lon="6.46938">
        <ele>843.2</ele>
        <time>2022-07-17T07:32:24Z</time>
      </trkpt>
      <trkpt lat="45.2079" lon="6.46937">
        <ele>843.2</ele>
        <time>2022-07-17T07:32:25Z</time>
      </trkpt>
      <trkpt lat="45.20787" lon="6.46935">
        <ele>843.6</ele>
        <time>2022-07-17T07:32:26Z</time>
      </trkpt>
      <trkpt lat="45.20785" lon="6.46933">
        <ele>843.6</ele>
        <time>2022-07-17T07:32:27Z</time>
      </trkpt>
      <trkpt lat="45.20784" lon="6.46931">
        <ele>844</ele>
        <time>2022-07-17T07:32:28Z</time>
      </trkpt>
      <trkpt lat="45.20783" lon="6.46927">
        <ele>844</ele>
        <time>2022-07-17T07:32:29Z</time>
      </trkpt>
      <trkpt lat="45.20783" lon="6.46925">
        <ele>844.4</ele>
        <time>2022-07-17T07:32:30Z</time>
      </trkpt>
      <trkpt lat="45.20783" lon="6.46921">
        <ele>844.4</ele>
        <time>2022-07-17T07:32:31Z</time>
      </trkpt>
      <trkpt lat="45.20784" lon="6.46918">
        <ele>844.8</ele>
        <time>2022-07-17T07:32:32Z</time>
      </trkpt>
      <trkpt lat="45.20785" lon="6.46915">
        <ele>845</ele>
        <time>2022-07-17T07:32:33Z</time>
      </trkpt>
      <trkpt lat="45.20786" lon="6.46912">
        <ele>845</ele>
        <time>2022-07-17T07:32:34Z</time>
      </trkpt>
      <trkpt lat="45.20788" lon="6.4691">
        <ele>845.4</ele>
        <time>2022-07-17T07:32:35Z</time>
      </trkpt>
      <trkpt lat="45.2079" lon="6.46908">
        <ele>845.6</ele>
        <time>2022-07-17T07:32:36Z</time>
      </trkpt>
      <trkpt lat="45.20792" lon="6.46907">
        <ele>845.8</ele>
        <time>2022-07-17T07:32:37Z</time>
      </trkpt>
      <trkpt lat="45.20794" lon="6.46906">
        <ele>845.8</ele>
        <time>2022-07-17T07:32:38Z</time>
      </trkpt>
      <trkpt lat="45.20796" lon="6.46903">
        <ele>846.2</ele>
        <time>2022-07-17T07:32:39Z</time>
      </trkpt>
      <trkpt lat="45.20797" lon="6.46901">
        <ele>846.4</ele>
        <time>2022-07-17T07:32:40Z</time>
      </trkpt>
      <trkpt lat="45.20799" lon="6.46899">
        <ele>846.6</ele>
        <time>2022-07-17T07:32:41Z</time>
      </trkpt>
      <trkpt lat="45.20801" lon="6.46897">
        <ele>846.6</ele>
        <time>2022-07-17T07:32:42Z</time>
      </trkpt>
      <trkpt lat="45.20803" lon="6.46895">
        <ele>846.8</ele>
        <time>2022-07-17T07:32:43Z</time>
      </trkpt>
      <trkpt lat="45.20805" lon="6.46893">
        <ele>846.8</ele>
        <time>2022-07-17T07:32:44Z</time>
      </trkpt>
      <trkpt lat="45.20806" lon="6.4689">
        <ele>847.2</ele>
        <time>2022-07-17T07:32:45Z</time>
      </trkpt>
      <trkpt lat="45.20808" lon="6.46888">
        <ele>847.2</ele>
        <time>2022-07-17T07:32:46Z</time>
      </trkpt>
      <trkpt lat="45.2081" lon="6.46886">
        <ele>847.6</ele>
        <time>2022-07-17T07:32:47Z</time>
      </trkpt>
      <trkpt lat="45.20812" lon="6.46884">
        <ele>847.6</ele>
        <time>2022-07-17T07:32:48Z</time>
      </trkpt>
      <trkpt lat="45.20814" lon="6.46882">
        <ele>847.8</ele>
        <time>2022-07-17T07:32:49Z</time>
      </trkpt>
      <trkpt lat="45.20816" lon="6.4688">
        <ele>847.8</ele>
        <time>2022-07-17T07:32:50Z</time>
      </trkpt>
      <trkpt lat="45.20817" lon="6.46878">
        <ele>848.2</ele>
        <time>2022-07-17T07:32:51Z</time>
      </trkpt>
      <trkpt lat="45.20819" lon="6.46877">
        <ele>848.2</ele>
        <time>2022-07-17T07:32:52Z</time>
      </trkpt>
      <trkpt lat="45.2082" lon="6.46875">
        <ele>848.6</ele>
        <time>2022-07-17T07:32:53Z</time>
      </trkpt>
      <trkpt lat="45.20822" lon="6.46873">
        <ele>848.8</ele>
        <time>2022-07-17T07:32:54Z</time>
      </trkpt>
      <trkpt lat="45.20825" lon="6.46868">
        <ele>849</ele>
        <time>2022-07-17T07:32:55Z</time>
      </trkpt>
      <trkpt lat="45.20827" lon="6.46866">
        <ele>849.2</ele>
        <time>2022-07-17T07:32:57Z</time>
      </trkpt>
      <trkpt lat="45.20829" lon="6.46864">
        <ele>849.6</ele>
        <time>2022-07-17T07:32:58Z</time>
      </trkpt>
      <trkpt lat="45.20831" lon="6.46862">
        <ele>849.8</ele>
        <time>2022-07-17T07:32:59Z</time>
      </trkpt>
      <trkpt lat="45.20833" lon="6.46859">
        <ele>850</ele>
        <time>2022-07-17T07:33:00Z</time>
      </trkpt>
      <trkpt lat="45.20835" lon="6.46856">
        <ele>850.2</ele>
        <time>2022-07-17T07:33:01Z</time>
      </trkpt>
      <trkpt lat="45.20837" lon="6.46854">
        <ele>850.2</ele>
        <time>2022-07-17T07:33:02Z</time>
      </trkpt>
      <trkpt lat="45.20839" lon="6.46852">
        <ele>850.6</ele>
        <time>2022-07-17T07:33:03Z</time>
      </trkpt>
      <trkpt lat="45.2084" lon="6.4685">
        <ele>850.6</ele>
        <time>2022-07-17T07:33:04Z</time>
      </trkpt>
      <trkpt lat="45.20843" lon="6.46848">
        <ele>851</ele>
        <time>2022-07-17T07:33:05Z</time>
      </trkpt>
      <trkpt lat="45.20845" lon="6.46846">
        <ele>851.2</ele>
        <time>2022-07-17T07:33:06Z</time>
      </trkpt>
      <trkpt lat="45.20846" lon="6.46844">
        <ele>851.6</ele>
        <time>2022-07-17T07:33:07Z</time>
      </trkpt>
      <trkpt lat="45.20848" lon="6.46843">
        <ele>851.8</ele>
        <time>2022-07-17T07:33:08Z</time>
      </trkpt>
      <trkpt lat="45.2085" lon="6.46841">
        <ele>852</ele>
        <time>2022-07-17T07:33:09Z</time>
      </trkpt>
      <trkpt lat="45.20852" lon="6.46838">
        <ele>852</ele>
        <time>2022-07-17T07:33:10Z</time>
      </trkpt>
      <trkpt lat="45.20854" lon="6.46836">
        <ele>852.4</ele>
        <time>2022-07-17T07:33:11Z</time>
      </trkpt>
      <trkpt lat="45.20855" lon="6.46834">
        <ele>852.6</ele>
        <time>2022-07-17T07:33:12Z</time>
      </trkpt>
      <trkpt lat="45.20857" lon="6.46832">
        <ele>852.8</ele>
        <time>2022-07-17T07:33:13Z</time>
      </trkpt>
      <trkpt lat="45.20858" lon="6.46829">
        <ele>852.8</ele>
        <time>2022-07-17T07:33:14Z</time>
      </trkpt>
      <trkpt lat="45.20859" lon="6.46827">
        <ele>853.2</ele>
        <time>2022-07-17T07:33:15Z</time>
      </trkpt>
      <trkpt lat="45.20861" lon="6.46824">
        <ele>853.2</ele>
        <time>2022-07-17T07:33:16Z</time>
      </trkpt>
      <trkpt lat="45.20862" lon="6.4682">
        <ele>853.6</ele>
        <time>2022-07-17T07:33:17Z</time>
      </trkpt>
      <trkpt lat="45.20863" lon="6.46817">
        <ele>853.8</ele>
        <time>2022-07-17T07:33:18Z</time>
      </trkpt>
      <trkpt lat="45.20864" lon="6.46814">
        <ele>853.8</ele>
        <time>2022-07-17T07:33:19Z</time>
      </trkpt>
      <trkpt lat="45.20865" lon="6.4681">
        <ele>854.2</ele>
        <time>2022-07-17T07:33:20Z</time>
      </trkpt>
      <trkpt lat="45.20866" lon="6.46807">
        <ele>854.2</ele>
        <time>2022-07-17T07:33:21Z</time>
      </trkpt>
      <trkpt lat="45.20866" lon="6.46804">
        <ele>854.6</ele>
        <time>2022-07-17T07:33:22Z</time>
      </trkpt>
      <trkpt lat="45.20867" lon="6.46801">
        <ele>854.6</ele>
        <time>2022-07-17T07:33:23Z</time>
      </trkpt>
      <trkpt lat="45.20868" lon="6.46798">
        <ele>855</ele>
        <time>2022-07-17T07:33:24Z</time>
      </trkpt>
      <trkpt lat="45.20869" lon="6.46795">
        <ele>855</ele>
        <time>2022-07-17T07:33:25Z</time>
      </trkpt>
      <trkpt lat="45.2087" lon="6.46792">
        <ele>855.2</ele>
        <time>2022-07-17T07:33:26Z</time>
      </trkpt>
      <trkpt lat="45.20872" lon="6.46789">
        <ele>855.2</ele>
        <time>2022-07-17T07:33:27Z</time>
      </trkpt>
      <trkpt lat="45.20873" lon="6.46786">
        <ele>855.6</ele>
        <time>2022-07-17T07:33:28Z</time>
      </trkpt>
      <trkpt lat="45.20875" lon="6.46783">
        <ele>855.8</ele>
        <time>2022-07-17T07:33:29Z</time>
      </trkpt>
      <trkpt lat="45.20877" lon="6.4678">
        <ele>856</ele>
        <time>2022-07-17T07:33:30Z</time>
      </trkpt>
      <trkpt lat="45.20878" lon="6.46777">
        <ele>856</ele>
        <time>2022-07-17T07:33:31Z</time>
      </trkpt>
      <trkpt lat="45.2088" lon="6.46774">
        <ele>856.4</ele>
        <time>2022-07-17T07:33:32Z</time>
      </trkpt>
      <trkpt lat="45.20881" lon="6.46771">
        <ele>856.6</ele>
        <time>2022-07-17T07:33:33Z</time>
      </trkpt>
      <trkpt lat="45.20882" lon="6.46768">
        <ele>856.6</ele>
        <time>2022-07-17T07:33:34Z</time>
      </trkpt>
      <trkpt lat="45.20884" lon="6.46765">
        <ele>857</ele>
        <time>2022-07-17T07:33:35Z</time>
      </trkpt>
      <trkpt lat="45.20885" lon="6.46763">
        <ele>857.2</ele>
        <time>2022-07-17T07:33:36Z</time>
      </trkpt>
      <trkpt lat="45.20886" lon="6.4676">
        <ele>857.4</ele>
        <time>2022-07-17T07:33:37Z</time>
      </trkpt>
      <trkpt lat="45.20887" lon="6.46757">
        <ele>857.6</ele>
        <time>2022-07-17T07:33:38Z</time>
      </trkpt>
      <trkpt lat="45.20888" lon="6.46754">
        <ele>857.6</ele>
        <time>2022-07-17T07:33:39Z</time>
      </trkpt>
      <trkpt lat="45.2089" lon="6.46751">
        <ele>858.2</ele>
        <time>2022-07-17T07:33:40Z</time>
      </trkpt>
      <trkpt lat="45.20891" lon="6.46748">
        <ele>858.2</ele>
        <time>2022-07-17T07:33:41Z</time>
      </trkpt>
      <trkpt lat="45.20892" lon="6.46745">
        <ele>858.6</ele>
        <time>2022-07-17T07:33:42Z</time>
      </trkpt>
      <trkpt lat="45.20893" lon="6.46742">
        <ele>858.8</ele>
        <time>2022-07-17T07:33:43Z</time>
      </trkpt>
      <trkpt lat="45.20894" lon="6.46739">
        <ele>859</ele>
        <time>2022-07-17T07:33:44Z</time>
      </trkpt>
      <trkpt lat="45.20895" lon="6.46736">
        <ele>859.2</ele>
        <time>2022-07-17T07:33:45Z</time>
      </trkpt>
      <trkpt lat="45.20896" lon="6.46733">
        <ele>859.6</ele>
        <time>2022-07-17T07:33:46Z</time>
      </trkpt>
      <trkpt lat="45.20897" lon="6.4673">
        <ele>859.6</ele>
        <time>2022-07-17T07:33:47Z</time>
      </trkpt>
      <trkpt lat="45.20898" lon="6.46727">
        <ele>860</ele>
        <time>2022-07-17T07:33:48Z</time>
      </trkpt>
      <trkpt lat="45.20898" lon="6.46724">
        <ele>860</ele>
        <time>2022-07-17T07:33:49Z</time>
      </trkpt>
      <trkpt lat="45.20898" lon="6.46721">
        <ele>860.4</ele>
        <time>2022-07-17T07:33:50Z</time>
      </trkpt>
      <trkpt lat="45.20897" lon="6.46717">
        <ele>860.4</ele>
        <time>2022-07-17T07:33:51Z</time>
      </trkpt>
      <trkpt lat="45.20897" lon="6.46714">
        <ele>860.8</ele>
        <time>2022-07-17T07:33:52Z</time>
      </trkpt>
      <trkpt lat="45.20897" lon="6.46711">
        <ele>861</ele>
        <time>2022-07-17T07:33:53Z</time>
      </trkpt>
      <trkpt lat="45.20896" lon="6.46708">
        <ele>861.2</ele>
        <time>2022-07-17T07:33:54Z</time>
      </trkpt>
      <trkpt lat="45.20896" lon="6.46705">
        <ele>861.2</ele>
        <time>2022-07-17T07:33:55Z</time>
      </trkpt>
      <trkpt lat="45.20895" lon="6.46702">
        <ele>861.4</ele>
        <time>2022-07-17T07:33:56Z</time>
      </trkpt>
      <trkpt lat="45.20894" lon="6.46699">
        <ele>861.8</ele>
        <time>2022-07-17T07:33:57Z</time>
      </trkpt>
      <trkpt lat="45.20893" lon="6.46696">
        <ele>861.8</ele>
        <time>2022-07-17T07:33:58Z</time>
      </trkpt>
      <trkpt lat="45.20892" lon="6.46693">
        <ele>862</ele>
        <time>2022-07-17T07:33:59Z</time>
      </trkpt>
      <trkpt lat="45.20891" lon="6.4669">
        <ele>862</ele>
        <time>2022-07-17T07:34:00Z</time>
      </trkpt>
      <trkpt lat="45.2089" lon="6.46687">
        <ele>862.4</ele>
        <time>2022-07-17T07:34:01Z</time>
      </trkpt>
      <trkpt lat="45.20889" lon="6.46684">
        <ele>862.4</ele>
        <time>2022-07-17T07:34:02Z</time>
      </trkpt>
      <trkpt lat="45.20888" lon="6.46681">
        <ele>862.6</ele>
        <time>2022-07-17T07:34:03Z</time>
      </trkpt>
      <trkpt lat="45.20888" lon="6.46678">
        <ele>862.6</ele>
        <time>2022-07-17T07:34:04Z</time>
      </trkpt>
      <trkpt lat="45.20887" lon="6.46675">
        <ele>863</ele>
        <time>2022-07-17T07:34:05Z</time>
      </trkpt>
      <trkpt lat="45.20885" lon="6.46671">
        <ele>863.2</ele>
        <time>2022-07-17T07:34:06Z</time>
      </trkpt>
      <trkpt lat="45.20884" lon="6.46668">
        <ele>863.4</ele>
        <time>2022-07-17T07:34:07Z</time>
      </trkpt>
      <trkpt lat="45.20883" lon="6.46665">
        <ele>863.8</ele>
        <time>2022-07-17T07:34:08Z</time>
      </trkpt>
      <trkpt lat="45.20883" lon="6.46662">
        <ele>863.8</ele>
        <time>2022-07-17T07:34:09Z</time>
      </trkpt>
      <trkpt lat="45.20882" lon="6.46658">
        <ele>864</ele>
        <time>2022-07-17T07:34:10Z</time>
      </trkpt>
      <trkpt lat="45.20881" lon="6.46655">
        <ele>864</ele>
        <time>2022-07-17T07:34:11Z</time>
      </trkpt>
      <trkpt lat="45.20881" lon="6.46651">
        <ele>864.4</ele>
        <time>2022-07-17T07:34:12Z</time>
      </trkpt>
      <trkpt lat="45.2088" lon="6.46648">
        <ele>864.4</ele>
        <time>2022-07-17T07:34:13Z</time>
      </trkpt>
      <trkpt lat="45.20879" lon="6.46644">
        <ele>864.8</ele>
        <time>2022-07-17T07:34:14Z</time>
      </trkpt>
      <trkpt lat="45.20879" lon="6.46641">
        <ele>865</ele>
        <time>2022-07-17T07:34:15Z</time>
      </trkpt>
      <trkpt lat="45.20879" lon="6.46637">
        <ele>865</ele>
        <time>2022-07-17T07:34:16Z</time>
      </trkpt>
      <trkpt lat="45.2088" lon="6.46634">
        <ele>865.4</ele>
        <time>2022-07-17T07:34:17Z</time>
      </trkpt>
      <trkpt lat="45.2088" lon="6.46631">
        <ele>865.4</ele>
        <time>2022-07-17T07:34:18Z</time>
      </trkpt>
      <trkpt lat="45.2088" lon="6.46627">
        <ele>865.8</ele>
        <time>2022-07-17T07:34:19Z</time>
      </trkpt>
      <trkpt lat="45.2088" lon="6.46624">
        <ele>866</ele>
        <time>2022-07-17T07:34:20Z</time>
      </trkpt>
      <trkpt lat="45.20881" lon="6.46621">
        <ele>866.2</ele>
        <time>2022-07-17T07:34:21Z</time>
      </trkpt>
      <trkpt lat="45.20882" lon="6.46618">
        <ele>866.4</ele>
        <time>2022-07-17T07:34:22Z</time>
      </trkpt>
      <trkpt lat="45.20882" lon="6.46615">
        <ele>866.8</ele>
        <time>2022-07-17T07:34:23Z</time>
      </trkpt>
      <trkpt lat="45.20883" lon="6.46612">
        <ele>867</ele>
        <time>2022-07-17T07:34:24Z</time>
      </trkpt>
      <trkpt lat="45.20883" lon="6.46608">
        <ele>867.2</ele>
        <time>2022-07-17T07:34:25Z</time>
      </trkpt>
      <trkpt lat="45.20883" lon="6.46604">
        <ele>867.2</ele>
        <time>2022-07-17T07:34:26Z</time>
      </trkpt>
      <trkpt lat="45.20884" lon="6.46601">
        <ele>867.6</ele>
        <time>2022-07-17T07:34:27Z</time>
      </trkpt>
      <trkpt lat="45.20884" lon="6.46598">
        <ele>867.8</ele>
        <time>2022-07-17T07:34:28Z</time>
      </trkpt>
      <trkpt lat="45.20884" lon="6.46594">
        <ele>867.8</ele>
        <time>2022-07-17T07:34:29Z</time>
      </trkpt>
      <trkpt lat="45.20884" lon="6.46591">
        <ele>868.2</ele>
        <time>2022-07-17T07:34:30Z</time>
      </trkpt>
      <trkpt lat="45.20884" lon="6.46587">
        <ele>868.2</ele>
        <time>2022-07-17T07:34:31Z</time>
      </trkpt>
      <trkpt lat="45.20884" lon="6.46584">
        <ele>868.6</ele>
        <time>2022-07-17T07:34:32Z</time>
      </trkpt>
      <trkpt lat="45.20884" lon="6.46582">
        <ele>868.6</ele>
        <time>2022-07-17T07:34:33Z</time>
      </trkpt>
      <trkpt lat="45.20884" lon="6.46578">
        <ele>869</ele>
        <time>2022-07-17T07:34:34Z</time>
      </trkpt>
      <trkpt lat="45.20883" lon="6.46575">
        <ele>869.2</ele>
        <time>2022-07-17T07:34:35Z</time>
      </trkpt>
      <trkpt lat="45.20883" lon="6.46572">
        <ele>869.2</ele>
        <time>2022-07-17T07:34:36Z</time>
      </trkpt>
      <trkpt lat="45.20882" lon="6.46569">
        <ele>869.6</ele>
        <time>2022-07-17T07:34:37Z</time>
      </trkpt>
      <trkpt lat="45.20881" lon="6.46566">
        <ele>869.6</ele>
        <time>2022-07-17T07:34:38Z</time>
      </trkpt>
      <trkpt lat="45.2088" lon="6.46563">
        <ele>870</ele>
        <time>2022-07-17T07:34:39Z</time>
      </trkpt>
      <trkpt lat="45.20878" lon="6.4656">
        <ele>870</ele>
        <time>2022-07-17T07:34:40Z</time>
      </trkpt>
      <trkpt lat="45.20878" lon="6.46556">
        <ele>870.2</ele>
        <time>2022-07-17T07:34:41Z</time>
      </trkpt>
      <trkpt lat="45.20877" lon="6.46553">
        <ele>870.2</ele>
        <time>2022-07-17T07:34:42Z</time>
      </trkpt>
      <trkpt lat="45.20876" lon="6.4655">
        <ele>870.6</ele>
        <time>2022-07-17T07:34:43Z</time>
      </trkpt>
      <trkpt lat="45.20875" lon="6.46547">
        <ele>870.6</ele>
        <time>2022-07-17T07:34:44Z</time>
      </trkpt>
      <trkpt lat="45.20874" lon="6.46543">
        <ele>871</ele>
        <time>2022-07-17T07:34:45Z</time>
      </trkpt>
      <trkpt lat="45.20873" lon="6.4654">
        <ele>871.4</ele>
        <time>2022-07-17T07:34:46Z</time>
      </trkpt>
      <trkpt lat="45.20873" lon="6.46537">
        <ele>871.4</ele>
        <time>2022-07-17T07:34:47Z</time>
      </trkpt>
      <trkpt lat="45.20873" lon="6.46533">
        <ele>871.6</ele>
        <time>2022-07-17T07:34:48Z</time>
      </trkpt>
      <trkpt lat="45.20873" lon="6.4653">
        <ele>871.6</ele>
        <time>2022-07-17T07:34:49Z</time>
      </trkpt>
      <trkpt lat="45.20872" lon="6.46527">
        <ele>872</ele>
        <time>2022-07-17T07:34:50Z</time>
      </trkpt>
      <trkpt lat="45.20872" lon="6.46524">
        <ele>872.2</ele>
        <time>2022-07-17T07:34:51Z</time>
      </trkpt>
      <trkpt lat="45.20872" lon="6.4652">
        <ele>872.2</ele>
        <time>2022-07-17T07:34:52Z</time>
      </trkpt>
      <trkpt lat="45.20872" lon="6.46517">
        <ele>872.6</ele>
        <time>2022-07-17T07:34:53Z</time>
      </trkpt>
      <trkpt lat="45.20873" lon="6.46513">
        <ele>873</ele>
        <time>2022-07-17T07:34:54Z</time>
      </trkpt>
      <trkpt lat="45.20873" lon="6.4651">
        <ele>873</ele>
        <time>2022-07-17T07:34:55Z</time>
      </trkpt>
      <trkpt lat="45.20873" lon="6.46506">
        <ele>873.4</ele>
        <time>2022-07-17T07:34:56Z</time>
      </trkpt>
      <trkpt lat="45.20873" lon="6.46503">
        <ele>873.6</ele>
        <time>2022-07-17T07:34:57Z</time>
      </trkpt>
      <trkpt lat="45.20874" lon="6.465">
        <ele>873.8</ele>
        <time>2022-07-17T07:34:58Z</time>
      </trkpt>
      <trkpt lat="45.20875" lon="6.46498">
        <ele>874</ele>
        <time>2022-07-17T07:34:59Z</time>
      </trkpt>
      <trkpt lat="45.20875" lon="6.46494">
        <ele>874</ele>
        <time>2022-07-17T07:35:00Z</time>
      </trkpt>
      <trkpt lat="45.20875" lon="6.46491">
        <ele>874.4</ele>
        <time>2022-07-17T07:35:01Z</time>
      </trkpt>
      <trkpt lat="45.20875" lon="6.46487">
        <ele>874.4</ele>
        <time>2022-07-17T07:35:02Z</time>
      </trkpt>
      <trkpt lat="45.20875" lon="6.46484">
        <ele>874.8</ele>
        <time>2022-07-17T07:35:03Z</time>
      </trkpt>
      <trkpt lat="45.20875" lon="6.46481">
        <ele>875</ele>
        <time>2022-07-17T07:35:04Z</time>
      </trkpt>
      <trkpt lat="45.20875" lon="6.46478">
        <ele>875.2</ele>
        <time>2022-07-17T07:35:05Z</time>
      </trkpt>
      <trkpt lat="45.20875" lon="6.46475">
        <ele>875.4</ele>
        <time>2022-07-17T07:35:06Z</time>
      </trkpt>
      <trkpt lat="45.20875" lon="6.46472">
        <ele>875.6</ele>
        <time>2022-07-17T07:35:07Z</time>
      </trkpt>
      <trkpt lat="45.20874" lon="6.46469">
        <ele>875.8</ele>
        <time>2022-07-17T07:35:08Z</time>
      </trkpt>
      <trkpt lat="45.20874" lon="6.46466">
        <ele>876</ele>
        <time>2022-07-17T07:35:09Z</time>
      </trkpt>
      <trkpt lat="45.20874" lon="6.46463">
        <ele>876.2</ele>
        <time>2022-07-17T07:35:10Z</time>
      </trkpt>
      <trkpt lat="45.20874" lon="6.4646">
        <ele>876.4</ele>
        <time>2022-07-17T07:35:11Z</time>
      </trkpt>
      <trkpt lat="45.20874" lon="6.46457">
        <ele>876.8</ele>
        <time>2022-07-17T07:35:12Z</time>
      </trkpt>
      <trkpt lat="45.20874" lon="6.46453">
        <ele>877</ele>
        <time>2022-07-17T07:35:13Z</time>
      </trkpt>
      <trkpt lat="45.20873" lon="6.4645">
        <ele>877.4</ele>
        <time>2022-07-17T07:35:14Z</time>
      </trkpt>
      <trkpt lat="45.20873" lon="6.46447">
        <ele>877.4</ele>
        <time>2022-07-17T07:35:15Z</time>
      </trkpt>
      <trkpt lat="45.20872" lon="6.46444">
        <ele>877.8</ele>
        <time>2022-07-17T07:35:16Z</time>
      </trkpt>
      <trkpt lat="45.20871" lon="6.46441">
        <ele>878</ele>
        <time>2022-07-17T07:35:17Z</time>
      </trkpt>
      <trkpt lat="45.2087" lon="6.46438">
        <ele>878</ele>
        <time>2022-07-17T07:35:18Z</time>
      </trkpt>
      <trkpt lat="45.20868" lon="6.46435">
        <ele>878.4</ele>
        <time>2022-07-17T07:35:19Z</time>
      </trkpt>
      <trkpt lat="45.20867" lon="6.46432">
        <ele>878.4</ele>
        <time>2022-07-17T07:35:20Z</time>
      </trkpt>
      <trkpt lat="45.20865" lon="6.46429">
        <ele>878.6</ele>
        <time>2022-07-17T07:35:21Z</time>
      </trkpt>
      <trkpt lat="45.20863" lon="6.46427">
        <ele>878.8</ele>
        <time>2022-07-17T07:35:22Z</time>
      </trkpt>
      <trkpt lat="45.20861" lon="6.46424">
        <ele>879.2</ele>
        <time>2022-07-17T07:35:23Z</time>
      </trkpt>
      <trkpt lat="45.20859" lon="6.46422">
        <ele>879.2</ele>
        <time>2022-07-17T07:35:24Z</time>
      </trkpt>
      <trkpt lat="45.20857" lon="6.46421">
        <ele>879.6</ele>
        <time>2022-07-17T07:35:25Z</time>
      </trkpt>
      <trkpt lat="45.20855" lon="6.46419">
        <ele>879.6</ele>
        <time>2022-07-17T07:35:26Z</time>
      </trkpt>
      <trkpt lat="45.20852" lon="6.46418">
        <ele>880</ele>
        <time>2022-07-17T07:35:27Z</time>
      </trkpt>
      <trkpt lat="45.2085" lon="6.46417">
        <ele>880.2</ele>
        <time>2022-07-17T07:35:28Z</time>
      </trkpt>
      <trkpt lat="45.20847" lon="6.46416">
        <ele>880.2</ele>
        <time>2022-07-17T07:35:29Z</time>
      </trkpt>
      <trkpt lat="45.20845" lon="6.46415">
        <ele>880.6</ele>
        <time>2022-07-17T07:35:30Z</time>
      </trkpt>
      <trkpt lat="45.20842" lon="6.46414">
        <ele>880.8</ele>
        <time>2022-07-17T07:35:31Z</time>
      </trkpt>
      <trkpt lat="45.2084" lon="6.46413">
        <ele>880.8</ele>
        <time>2022-07-17T07:35:32Z</time>
      </trkpt>
      <trkpt lat="45.20838" lon="6.46412">
        <ele>881</ele>
        <time>2022-07-17T07:35:33Z</time>
      </trkpt>
      <trkpt lat="45.20835" lon="6.46411">
        <ele>881.4</ele>
        <time>2022-07-17T07:35:34Z</time>
      </trkpt>
      <trkpt lat="45.20833" lon="6.4641">
        <ele>881.4</ele>
        <time>2022-07-17T07:35:35Z</time>
      </trkpt>
      <trkpt lat="45.20831" lon="6.46409">
        <ele>881.8</ele>
        <time>2022-07-17T07:35:36Z</time>
      </trkpt>
      <trkpt lat="45.20829" lon="6.46408">
        <ele>881.8</ele>
        <time>2022-07-17T07:35:37Z</time>
      </trkpt>
      <trkpt lat="45.20827" lon="6.46407">
        <ele>882</ele>
        <time>2022-07-17T07:35:38Z</time>
      </trkpt>
      <trkpt lat="45.20824" lon="6.46407">
        <ele>882</ele>
        <time>2022-07-17T07:35:39Z</time>
      </trkpt>
      <trkpt lat="45.20822" lon="6.46406">
        <ele>882.4</ele>
        <time>2022-07-17T07:35:40Z</time>
      </trkpt>
      <trkpt lat="45.2082" lon="6.46405">
        <ele>882.6</ele>
        <time>2022-07-17T07:35:41Z</time>
      </trkpt>
      <trkpt lat="45.20817" lon="6.46404">
        <ele>882.6</ele>
        <time>2022-07-17T07:35:42Z</time>
      </trkpt>
      <trkpt lat="45.20815" lon="6.46403">
        <ele>883</ele>
        <time>2022-07-17T07:35:43Z</time>
      </trkpt>
      <trkpt lat="45.20813" lon="6.46403">
        <ele>883.2</ele>
        <time>2022-07-17T07:35:44Z</time>
      </trkpt>
      <trkpt lat="45.20811" lon="6.46402">
        <ele>883.2</ele>
        <time>2022-07-17T07:35:45Z</time>
      </trkpt>
      <trkpt lat="45.20809" lon="6.46401">
        <ele>883.6</ele>
        <time>2022-07-17T07:35:46Z</time>
      </trkpt>
      <trkpt lat="45.20807" lon="6.464">
        <ele>883.8</ele>
        <time>2022-07-17T07:35:47Z</time>
      </trkpt>
      <trkpt lat="45.20805" lon="6.46399">
        <ele>883.8</ele>
        <time>2022-07-17T07:35:48Z</time>
      </trkpt>
      <trkpt lat="45.20803" lon="6.46398">
        <ele>884.2</ele>
        <time>2022-07-17T07:35:49Z</time>
      </trkpt>
      <trkpt lat="45.20801" lon="6.46396">
        <ele>884.6</ele>
        <time>2022-07-17T07:35:50Z</time>
      </trkpt>
      <trkpt lat="45.20799" lon="6.46394">
        <ele>884.8</ele>
        <time>2022-07-17T07:35:51Z</time>
      </trkpt>
      <trkpt lat="45.20797" lon="6.46392">
        <ele>884.8</ele>
        <time>2022-07-17T07:35:52Z</time>
      </trkpt>
      <trkpt lat="45.20795" lon="6.4639">
        <ele>885.2</ele>
        <time>2022-07-17T07:35:53Z</time>
      </trkpt>
      <trkpt lat="45.20794" lon="6.46388">
        <ele>885.4</ele>
        <time>2022-07-17T07:35:54Z</time>
      </trkpt>
      <trkpt lat="45.20792" lon="6.46385">
        <ele>885.8</ele>
        <time>2022-07-17T07:35:55Z</time>
      </trkpt>
      <trkpt lat="45.2079" lon="6.46383">
        <ele>886</ele>
        <time>2022-07-17T07:35:56Z</time>
      </trkpt>
      <trkpt lat="45.2079" lon="6.4638">
        <ele>886.2</ele>
        <time>2022-07-17T07:35:57Z</time>
      </trkpt>
      <trkpt lat="45.20789" lon="6.46378">
        <ele>886.4</ele>
        <time>2022-07-17T07:35:58Z</time>
      </trkpt>
      <trkpt lat="45.20789" lon="6.46376">
        <ele>886.8</ele>
        <time>2022-07-17T07:35:59Z</time>
      </trkpt>
      <trkpt lat="45.20789" lon="6.46373">
        <ele>887</ele>
        <time>2022-07-17T07:36:00Z</time>
      </trkpt>
      <trkpt lat="45.20788" lon="6.4637">
        <ele>887.2</ele>
        <time>2022-07-17T07:36:01Z</time>
      </trkpt>
      <trkpt lat="45.20787" lon="6.46366">
        <ele>887.4</ele>
        <time>2022-07-17T07:36:02Z</time>
      </trkpt>
      <trkpt lat="45.20787" lon="6.46363">
        <ele>887.6</ele>
        <time>2022-07-17T07:36:03Z</time>
      </trkpt>
      <trkpt lat="45.20787" lon="6.4636">
        <ele>887.8</ele>
        <time>2022-07-17T07:36:04Z</time>
      </trkpt>
      <trkpt lat="45.20788" lon="6.46356">
        <ele>888.2</ele>
        <time>2022-07-17T07:36:05Z</time>
      </trkpt>
      <trkpt lat="45.20789" lon="6.46352">
        <ele>888.4</ele>
        <time>2022-07-17T07:36:06Z</time>
      </trkpt>
      <trkpt lat="45.2079" lon="6.46348">
        <ele>888.4</ele>
        <time>2022-07-17T07:36:07Z</time>
      </trkpt>
      <trkpt lat="45.20792" lon="6.46345">
        <ele>888.8</ele>
        <time>2022-07-17T07:36:08Z</time>
      </trkpt>
      <trkpt lat="45.20793" lon="6.46342">
        <ele>889</ele>
        <time>2022-07-17T07:36:09Z</time>
      </trkpt>
      <trkpt lat="45.20794" lon="6.4634">
        <ele>889.4</ele>
        <time>2022-07-17T07:36:10Z</time>
      </trkpt>
      <trkpt lat="45.20795" lon="6.46337">
        <ele>889.4</ele>
        <time>2022-07-17T07:36:11Z</time>
      </trkpt>
      <trkpt lat="45.20796" lon="6.46334">
        <ele>889.8</ele>
        <time>2022-07-17T07:36:12Z</time>
      </trkpt>
      <trkpt lat="45.20797" lon="6.46332">
        <ele>890</ele>
        <time>2022-07-17T07:36:13Z</time>
      </trkpt>
      <trkpt lat="45.20798" lon="6.46329">
        <ele>890</ele>
        <time>2022-07-17T07:36:14Z</time>
      </trkpt>
      <trkpt lat="45.20799" lon="6.46326">
        <ele>890.4</ele>
        <time>2022-07-17T07:36:15Z</time>
      </trkpt>
      <trkpt lat="45.208" lon="6.46323">
        <ele>890.4</ele>
        <time>2022-07-17T07:36:16Z</time>
      </trkpt>
      <trkpt lat="45.20801" lon="6.46321">
        <ele>891</ele>
        <time>2022-07-17T07:36:17Z</time>
      </trkpt>
      <trkpt lat="45.20801" lon="6.46318">
        <ele>891.2</ele>
        <time>2022-07-17T07:36:18Z</time>
      </trkpt>
      <trkpt lat="45.20802" lon="6.46315">
        <ele>891.2</ele>
        <time>2022-07-17T07:36:19Z</time>
      </trkpt>
      <trkpt lat="45.20803" lon="6.46313">
        <ele>891.4</ele>
        <time>2022-07-17T07:36:20Z</time>
      </trkpt>
      <trkpt lat="45.20803" lon="6.4631">
        <ele>891.6</ele>
        <time>2022-07-17T07:36:21Z</time>
      </trkpt>
      <trkpt lat="45.20804" lon="6.46307">
        <ele>891.8</ele>
        <time>2022-07-17T07:36:22Z</time>
      </trkpt>
      <trkpt lat="45.20804" lon="6.46303">
        <ele>891.8</ele>
        <time>2022-07-17T07:36:23Z</time>
      </trkpt>
      <trkpt lat="45.20804" lon="6.463">
        <ele>892.2</ele>
        <time>2022-07-17T07:36:24Z</time>
      </trkpt>
      <trkpt lat="45.20805" lon="6.46297">
        <ele>892.4</ele>
        <time>2022-07-17T07:36:25Z</time>
      </trkpt>
      <trkpt lat="45.20805" lon="6.46294">
        <ele>892.6</ele>
        <time>2022-07-17T07:36:26Z</time>
      </trkpt>
      <trkpt lat="45.20805" lon="6.46291">
        <ele>892.8</ele>
        <time>2022-07-17T07:36:27Z</time>
      </trkpt>
      <trkpt lat="45.20805" lon="6.46288">
        <ele>893.2</ele>
        <time>2022-07-17T07:36:28Z</time>
      </trkpt>
      <trkpt lat="45.20805" lon="6.46285">
        <ele>893.2</ele>
        <time>2022-07-17T07:36:29Z</time>
      </trkpt>
      <trkpt lat="45.20805" lon="6.46282">
        <ele>893.4</ele>
        <time>2022-07-17T07:36:30Z</time>
      </trkpt>
      <trkpt lat="45.20805" lon="6.46279">
        <ele>893.4</ele>
        <time>2022-07-17T07:36:31Z</time>
      </trkpt>
      <trkpt lat="45.20806" lon="6.46276">
        <ele>894</ele>
        <time>2022-07-17T07:36:32Z</time>
      </trkpt>
      <trkpt lat="45.20806" lon="6.46273">
        <ele>894.2</ele>
        <time>2022-07-17T07:36:33Z</time>
      </trkpt>
      <trkpt lat="45.20806" lon="6.46269">
        <ele>894.4</ele>
        <time>2022-07-17T07:36:34Z</time>
      </trkpt>
      <trkpt lat="45.20806" lon="6.46266">
        <ele>894.4</ele>
        <time>2022-07-17T07:36:35Z</time>
      </trkpt>
      <trkpt lat="45.20806" lon="6.46263">
        <ele>894.8</ele>
        <time>2022-07-17T07:36:36Z</time>
      </trkpt>
      <trkpt lat="45.20807" lon="6.4626">
        <ele>894.8</ele>
        <time>2022-07-17T07:36:37Z</time>
      </trkpt>
      <trkpt lat="45.20807" lon="6.46257">
        <ele>895.2</ele>
        <time>2022-07-17T07:36:38Z</time>
      </trkpt>
      <trkpt lat="45.20807" lon="6.46254">
        <ele>895.2</ele>
        <time>2022-07-17T07:36:39Z</time>
      </trkpt>
      <trkpt lat="45.20807" lon="6.46252">
        <ele>895.6</ele>
        <time>2022-07-17T07:36:40Z</time>
      </trkpt>
      <trkpt lat="45.20807" lon="6.46249">
        <ele>895.6</ele>
        <time>2022-07-17T07:36:41Z</time>
      </trkpt>
      <trkpt lat="45.20807" lon="6.46245">
        <ele>896</ele>
        <time>2022-07-17T07:36:42Z</time>
      </trkpt>
      <trkpt lat="45.20806" lon="6.46241">
        <ele>896</ele>
        <time>2022-07-17T07:36:43Z</time>
      </trkpt>
      <trkpt lat="45.20806" lon="6.46239">
        <ele>896.2</ele>
        <time>2022-07-17T07:36:44Z</time>
      </trkpt>
      <trkpt lat="45.20805" lon="6.46235">
        <ele>896.4</ele>
        <time>2022-07-17T07:36:45Z</time>
      </trkpt>
      <trkpt lat="45.20804" lon="6.46232">
        <ele>896.6</ele>
        <time>2022-07-17T07:36:46Z</time>
      </trkpt>
      <trkpt lat="45.20803" lon="6.46228">
        <ele>897</ele>
        <time>2022-07-17T07:36:47Z</time>
      </trkpt>
      <trkpt lat="45.20803" lon="6.46224">
        <ele>897</ele>
        <time>2022-07-17T07:36:48Z</time>
      </trkpt>
      <trkpt lat="45.20802" lon="6.4622">
        <ele>897.2</ele>
        <time>2022-07-17T07:36:49Z</time>
      </trkpt>
      <trkpt lat="45.208" lon="6.46215">
        <ele>897.6</ele>
        <time>2022-07-17T07:36:50Z</time>
      </trkpt>
      <trkpt lat="45.20799" lon="6.46211">
        <ele>897.6</ele>
        <time>2022-07-17T07:36:51Z</time>
      </trkpt>
      <trkpt lat="45.20798" lon="6.46207">
        <ele>898</ele>
        <time>2022-07-17T07:36:52Z</time>
      </trkpt>
      <trkpt lat="45.20797" lon="6.46204">
        <ele>898.2</ele>
        <time>2022-07-17T07:36:53Z</time>
      </trkpt>
      <trkpt lat="45.20795" lon="6.46201">
        <ele>898.2</ele>
        <time>2022-07-17T07:36:54Z</time>
      </trkpt>
      <trkpt lat="45.20794" lon="6.46198">
        <ele>898.6</ele>
        <time>2022-07-17T07:36:55Z</time>
      </trkpt>
      <trkpt lat="45.20792" lon="6.46195">
        <ele>898.6</ele>
        <time>2022-07-17T07:36:56Z</time>
      </trkpt>
      <trkpt lat="45.2079" lon="6.46193">
        <ele>898.8</ele>
        <time>2022-07-17T07:36:57Z</time>
      </trkpt>
      <trkpt lat="45.20789" lon="6.4619">
        <ele>898.8</ele>
        <time>2022-07-17T07:36:58Z</time>
      </trkpt>
      <trkpt lat="45.20787" lon="6.46187">
        <ele>899.2</ele>
        <time>2022-07-17T07:36:59Z</time>
      </trkpt>
      <trkpt lat="45.20786" lon="6.46184">
        <ele>899.4</ele>
        <time>2022-07-17T07:37:00Z</time>
      </trkpt>
      <trkpt lat="45.20785" lon="6.46181">
        <ele>899.4</ele>
        <time>2022-07-17T07:37:01Z</time>
      </trkpt>
      <trkpt lat="45.20784" lon="6.46178">
        <ele>899.6</ele>
        <time>2022-07-17T07:37:02Z</time>
      </trkpt>
      <trkpt lat="45.20783" lon="6.46175">
        <ele>899.8</ele>
        <time>2022-07-17T07:37:03Z</time>
      </trkpt>
      <trkpt lat="45.20782" lon="6.46172">
        <ele>900</ele>
        <time>2022-07-17T07:37:04Z</time>
      </trkpt>
      <trkpt lat="45.20783" lon="6.46169">
        <ele>900.2</ele>
        <time>2022-07-17T07:37:05Z</time>
      </trkpt>
      <trkpt lat="45.20782" lon="6.46166">
        <ele>900.2</ele>
        <time>2022-07-17T07:37:06Z</time>
      </trkpt>
      <trkpt lat="45.20781" lon="6.46163">
        <ele>900.6</ele>
        <time>2022-07-17T07:37:07Z</time>
      </trkpt>
      <trkpt lat="45.20781" lon="6.46159">
        <ele>900.8</ele>
        <time>2022-07-17T07:37:08Z</time>
      </trkpt>
      <trkpt lat="45.20779" lon="6.46156">
        <ele>901.2</ele>
        <time>2022-07-17T07:37:09Z</time>
      </trkpt>
      <trkpt lat="45.20778" lon="6.46153">
        <ele>901.4</ele>
        <time>2022-07-17T07:37:10Z</time>
      </trkpt>
      <trkpt lat="45.20777" lon="6.4615">
        <ele>901.6</ele>
        <time>2022-07-17T07:37:11Z</time>
      </trkpt>
      <trkpt lat="45.20775" lon="6.46147">
        <ele>902</ele>
        <time>2022-07-17T07:37:12Z</time>
      </trkpt>
      <trkpt lat="45.20774" lon="6.46144">
        <ele>902.2</ele>
        <time>2022-07-17T07:37:13Z</time>
      </trkpt>
      <trkpt lat="45.20773" lon="6.46142">
        <ele>902.2</ele>
        <time>2022-07-17T07:37:14Z</time>
      </trkpt>
      <trkpt lat="45.20772" lon="6.46139">
        <ele>902.6</ele>
        <time>2022-07-17T07:37:15Z</time>
      </trkpt>
      <trkpt lat="45.2077" lon="6.46137">
        <ele>902.8</ele>
        <time>2022-07-17T07:37:16Z</time>
      </trkpt>
      <trkpt lat="45.2077" lon="6.46134">
        <ele>903</ele>
        <time>2022-07-17T07:37:17Z</time>
      </trkpt>
      <trkpt lat="45.20769" lon="6.46132">
        <ele>903</ele>
        <time>2022-07-17T07:37:18Z</time>
      </trkpt>
      <trkpt lat="45.20768" lon="6.46129">
        <ele>903.4</ele>
        <time>2022-07-17T07:37:19Z</time>
      </trkpt>
      <trkpt lat="45.20768" lon="6.46126">
        <ele>903.6</ele>
        <time>2022-07-17T07:37:20Z</time>
      </trkpt>
      <trkpt lat="45.20767" lon="6.46124">
        <ele>904</ele>
        <time>2022-07-17T07:37:21Z</time>
      </trkpt>
      <trkpt lat="45.20766" lon="6.46121">
        <ele>904.2</ele>
        <time>2022-07-17T07:37:22Z</time>
      </trkpt>
      <trkpt lat="45.20766" lon="6.46119">
        <ele>904.4</ele>
        <time>2022-07-17T07:37:23Z</time>
      </trkpt>
      <trkpt lat="45.20765" lon="6.46116">
        <ele>904.6</ele>
        <time>2022-07-17T07:37:24Z</time>
      </trkpt>
      <trkpt lat="45.20763" lon="6.46114">
        <ele>904.6</ele>
        <time>2022-07-17T07:37:25Z</time>
      </trkpt>
      <trkpt lat="45.20763" lon="6.4611">
        <ele>905</ele>
        <time>2022-07-17T07:37:26Z</time>
      </trkpt>
      <trkpt lat="45.20763" lon="6.46106">
        <ele>905.2</ele>
        <time>2022-07-17T07:37:27Z</time>
      </trkpt>
      <trkpt lat="45.20762" lon="6.46103">
        <ele>905.2</ele>
        <time>2022-07-17T07:37:28Z</time>
      </trkpt>
      <trkpt lat="45.20762" lon="6.46099">
        <ele>905.6</ele>
        <time>2022-07-17T07:37:29Z</time>
      </trkpt>
      <trkpt lat="45.20761" lon="6.46096">
        <ele>905.8</ele>
        <time>2022-07-17T07:37:30Z</time>
      </trkpt>
      <trkpt lat="45.2076" lon="6.46093">
        <ele>906</ele>
        <time>2022-07-17T07:37:31Z</time>
      </trkpt>
      <trkpt lat="45.20759" lon="6.46089">
        <ele>906</ele>
        <time>2022-07-17T07:37:32Z</time>
      </trkpt>
      <trkpt lat="45.20758" lon="6.46087">
        <ele>906.4</ele>
        <time>2022-07-17T07:37:33Z</time>
      </trkpt>
      <trkpt lat="45.20757" lon="6.46084">
        <ele>906.6</ele>
        <time>2022-07-17T07:37:34Z</time>
      </trkpt>
      <trkpt lat="45.20756" lon="6.46081">
        <ele>906.6</ele>
        <time>2022-07-17T07:37:35Z</time>
      </trkpt>
      <trkpt lat="45.20755" lon="6.46079">
        <ele>907</ele>
        <time>2022-07-17T07:37:36Z</time>
      </trkpt>
      <trkpt lat="45.20754" lon="6.46076">
        <ele>907</ele>
        <time>2022-07-17T07:37:37Z</time>
      </trkpt>
      <trkpt lat="45.20753" lon="6.46073">
        <ele>907.2</ele>
        <time>2022-07-17T07:37:38Z</time>
      </trkpt>
      <trkpt lat="45.20752" lon="6.46069">
        <ele>907.6</ele>
        <time>2022-07-17T07:37:39Z</time>
      </trkpt>
      <trkpt lat="45.20751" lon="6.46066">
        <ele>907.6</ele>
        <time>2022-07-17T07:37:40Z</time>
      </trkpt>
      <trkpt lat="45.20751" lon="6.46063">
        <ele>908</ele>
        <time>2022-07-17T07:37:41Z</time>
      </trkpt>
      <trkpt lat="45.2075" lon="6.46059">
        <ele>908</ele>
        <time>2022-07-17T07:37:42Z</time>
      </trkpt>
      <trkpt lat="45.2075" lon="6.46056">
        <ele>908.4</ele>
        <time>2022-07-17T07:37:43Z</time>
      </trkpt>
      <trkpt lat="45.2075" lon="6.46053">
        <ele>908.6</ele>
        <time>2022-07-17T07:37:44Z</time>
      </trkpt>
      <trkpt lat="45.2075" lon="6.4605">
        <ele>908.8</ele>
        <time>2022-07-17T07:37:45Z</time>
      </trkpt>
      <trkpt lat="45.2075" lon="6.46047">
        <ele>909.2</ele>
        <time>2022-07-17T07:37:46Z</time>
      </trkpt>
      <trkpt lat="45.2075" lon="6.46044">
        <ele>909.4</ele>
        <time>2022-07-17T07:37:47Z</time>
      </trkpt>
      <trkpt lat="45.2075" lon="6.46042">
        <ele>909.6</ele>
        <time>2022-07-17T07:37:48Z</time>
      </trkpt>
      <trkpt lat="45.2075" lon="6.46039">
        <ele>910</ele>
        <time>2022-07-17T07:37:49Z</time>
      </trkpt>
      <trkpt lat="45.2075" lon="6.46036">
        <ele>910.2</ele>
        <time>2022-07-17T07:37:50Z</time>
      </trkpt>
      <trkpt lat="45.20748" lon="6.46033">
        <ele>910.2</ele>
        <time>2022-07-17T07:37:51Z</time>
      </trkpt>
      <trkpt lat="45.20747" lon="6.4603">
        <ele>910.6</ele>
        <time>2022-07-17T07:37:52Z</time>
      </trkpt>
      <trkpt lat="45.20745" lon="6.46027">
        <ele>910.8</ele>
        <time>2022-07-17T07:37:53Z</time>
      </trkpt>
      <trkpt lat="45.20743" lon="6.46025">
        <ele>911</ele>
        <time>2022-07-17T07:37:54Z</time>
      </trkpt>
      <trkpt lat="45.20742" lon="6.46022">
        <ele>911</ele>
        <time>2022-07-17T07:37:55Z</time>
      </trkpt>
      <trkpt lat="45.20739" lon="6.46019">
        <ele>911.4</ele>
        <time>2022-07-17T07:37:56Z</time>
      </trkpt>
      <trkpt lat="45.20737" lon="6.46017">
        <ele>911.4</ele>
        <time>2022-07-17T07:37:57Z</time>
      </trkpt>
      <trkpt lat="45.20736" lon="6.46015">
        <ele>911.8</ele>
        <time>2022-07-17T07:37:58Z</time>
      </trkpt>
      <trkpt lat="45.20734" lon="6.46013">
        <ele>911.8</ele>
        <time>2022-07-17T07:37:59Z</time>
      </trkpt>
      <trkpt lat="45.20732" lon="6.46011">
        <ele>912.2</ele>
        <time>2022-07-17T07:38:00Z</time>
      </trkpt>
      <trkpt lat="45.2073" lon="6.46009">
        <ele>912.2</ele>
        <time>2022-07-17T07:38:01Z</time>
      </trkpt>
      <trkpt lat="45.20728" lon="6.46007">
        <ele>912.4</ele>
        <time>2022-07-17T07:38:02Z</time>
      </trkpt>
      <trkpt lat="45.20725" lon="6.46005">
        <ele>912.6</ele>
        <time>2022-07-17T07:38:03Z</time>
      </trkpt>
      <trkpt lat="45.20724" lon="6.46002">
        <ele>913</ele>
        <time>2022-07-17T07:38:04Z</time>
      </trkpt>
      <trkpt lat="45.20722" lon="6.46">
        <ele>913</ele>
        <time>2022-07-17T07:38:05Z</time>
      </trkpt>
      <trkpt lat="45.20721" lon="6.45998">
        <ele>913.6</ele>
        <time>2022-07-17T07:38:06Z</time>
      </trkpt>
      <trkpt lat="45.2072" lon="6.45995">
        <ele>913.8</ele>
        <time>2022-07-17T07:38:07Z</time>
      </trkpt>
      <trkpt lat="45.20719" lon="6.45992">
        <ele>914</ele>
        <time>2022-07-17T07:38:08Z</time>
      </trkpt>
      <trkpt lat="45.20719" lon="6.4599">
        <ele>914.2</ele>
        <time>2022-07-17T07:38:09Z</time>
      </trkpt>
      <trkpt lat="45.20718" lon="6.45987">
        <ele>914.4</ele>
        <time>2022-07-17T07:38:10Z</time>
      </trkpt>
      <trkpt lat="45.2072" lon="6.45983">
        <ele>914.4</ele>
        <time>2022-07-17T07:38:11Z</time>
      </trkpt>
      <trkpt lat="45.20719" lon="6.45981">
        <ele>914.8</ele>
        <time>2022-07-17T07:38:12Z</time>
      </trkpt>
      <trkpt lat="45.2072" lon="6.45978">
        <ele>915</ele>
        <time>2022-07-17T07:38:13Z</time>
      </trkpt>
      <trkpt lat="45.2072" lon="6.45975">
        <ele>915.4</ele>
        <time>2022-07-17T07:38:14Z</time>
      </trkpt>
      <trkpt lat="45.20721" lon="6.45972">
        <ele>915.6</ele>
        <time>2022-07-17T07:38:15Z</time>
      </trkpt>
      <trkpt lat="45.20723" lon="6.45968">
        <ele>915.8</ele>
        <time>2022-07-17T07:38:16Z</time>
      </trkpt>
      <trkpt lat="45.20724" lon="6.45963">
        <ele>916</ele>
        <time>2022-07-17T07:38:17Z</time>
      </trkpt>
      <trkpt lat="45.20725" lon="6.45959">
        <ele>916</ele>
        <time>2022-07-17T07:38:18Z</time>
      </trkpt>
      <trkpt lat="45.20727" lon="6.45955">
        <ele>916.4</ele>
        <time>2022-07-17T07:38:19Z</time>
      </trkpt>
      <trkpt lat="45.20729" lon="6.45951">
        <ele>916.4</ele>
        <time>2022-07-17T07:38:20Z</time>
      </trkpt>
      <trkpt lat="45.20731" lon="6.45947">
        <ele>916.8</ele>
        <time>2022-07-17T07:38:21Z</time>
      </trkpt>
      <trkpt lat="45.20732" lon="6.45944">
        <ele>916.8</ele>
        <time>2022-07-17T07:38:22Z</time>
      </trkpt>
      <trkpt lat="45.20734" lon="6.45941">
        <ele>917</ele>
        <time>2022-07-17T07:38:23Z</time>
      </trkpt>
      <trkpt lat="45.20735" lon="6.45938">
        <ele>917</ele>
        <time>2022-07-17T07:38:24Z</time>
      </trkpt>
      <trkpt lat="45.20736" lon="6.45935">
        <ele>917.4</ele>
        <time>2022-07-17T07:38:25Z</time>
      </trkpt>
      <trkpt lat="45.20738" lon="6.45932">
        <ele>917.4</ele>
        <time>2022-07-17T07:38:26Z</time>
      </trkpt>
      <trkpt lat="45.20739" lon="6.45929">
        <ele>917.8</ele>
        <time>2022-07-17T07:38:27Z</time>
      </trkpt>
      <trkpt lat="45.2074" lon="6.45926">
        <ele>918.2</ele>
        <time>2022-07-17T07:38:28Z</time>
      </trkpt>
      <trkpt lat="45.20741" lon="6.45923">
        <ele>918.4</ele>
        <time>2022-07-17T07:38:29Z</time>
      </trkpt>
      <trkpt lat="45.20743" lon="6.4592">
        <ele>918.6</ele>
        <time>2022-07-17T07:38:30Z</time>
      </trkpt>
      <trkpt lat="45.20743" lon="6.45917">
        <ele>918.8</ele>
        <time>2022-07-17T07:38:31Z</time>
      </trkpt>
      <trkpt lat="45.20744" lon="6.45915">
        <ele>919.2</ele>
        <time>2022-07-17T07:38:32Z</time>
      </trkpt>
      <trkpt lat="45.20745" lon="6.45912">
        <ele>919.2</ele>
        <time>2022-07-17T07:38:33Z</time>
      </trkpt>
      <trkpt lat="45.20746" lon="6.4591">
        <ele>919.6</ele>
        <time>2022-07-17T07:38:34Z</time>
      </trkpt>
      <trkpt lat="45.20747" lon="6.45907">
        <ele>919.8</ele>
        <time>2022-07-17T07:38:35Z</time>
      </trkpt>
      <trkpt lat="45.20749" lon="6.45904">
        <ele>920</ele>
        <time>2022-07-17T07:38:36Z</time>
      </trkpt>
      <trkpt lat="45.20749" lon="6.459">
        <ele>920</ele>
        <time>2022-07-17T07:38:37Z</time>
      </trkpt>
      <trkpt lat="45.2075" lon="6.45897">
        <ele>920.4</ele>
        <time>2022-07-17T07:38:38Z</time>
      </trkpt>
      <trkpt lat="45.20751" lon="6.45894">
        <ele>920.8</ele>
        <time>2022-07-17T07:38:39Z</time>
      </trkpt>
      <trkpt lat="45.20751" lon="6.45891">
        <ele>921</ele>
        <time>2022-07-17T07:38:40Z</time>
      </trkpt>
      <trkpt lat="45.20752" lon="6.45888">
        <ele>921.4</ele>
        <time>2022-07-17T07:38:41Z</time>
      </trkpt>
      <trkpt lat="45.20753" lon="6.45885">
        <ele>921.6</ele>
        <time>2022-07-17T07:38:42Z</time>
      </trkpt>
      <trkpt lat="45.20754" lon="6.45882">
        <ele>921.8</ele>
        <time>2022-07-17T07:38:43Z</time>
      </trkpt>
      <trkpt lat="45.20755" lon="6.45879">
        <ele>921.8</ele>
        <time>2022-07-17T07:38:44Z</time>
      </trkpt>
      <trkpt lat="45.20757" lon="6.45876">
        <ele>922.2</ele>
        <time>2022-07-17T07:38:45Z</time>
      </trkpt>
      <trkpt lat="45.20757" lon="6.45873">
        <ele>922.4</ele>
        <time>2022-07-17T07:38:46Z</time>
      </trkpt>
      <trkpt lat="45.20758" lon="6.4587">
        <ele>922.6</ele>
        <time>2022-07-17T07:38:47Z</time>
      </trkpt>
      <trkpt lat="45.2076" lon="6.45867">
        <ele>922.6</ele>
        <time>2022-07-17T07:38:48Z</time>
      </trkpt>
      <trkpt lat="45.20761" lon="6.45864">
        <ele>923</ele>
        <time>2022-07-17T07:38:49Z</time>
      </trkpt>
      <trkpt lat="45.20762" lon="6.45861">
        <ele>923.2</ele>
        <time>2022-07-17T07:38:50Z</time>
      </trkpt>
      <trkpt lat="45.20763" lon="6.45857">
        <ele>923.6</ele>
        <time>2022-07-17T07:38:51Z</time>
      </trkpt>
      <trkpt lat="45.20764" lon="6.45854">
        <ele>923.8</ele>
        <time>2022-07-17T07:38:52Z</time>
      </trkpt>
      <trkpt lat="45.20765" lon="6.4585">
        <ele>924</ele>
        <time>2022-07-17T07:38:53Z</time>
      </trkpt>
      <trkpt lat="45.20766" lon="6.45847">
        <ele>924.2</ele>
        <time>2022-07-17T07:38:54Z</time>
      </trkpt>
      <trkpt lat="45.20767" lon="6.45844">
        <ele>924.6</ele>
        <time>2022-07-17T07:38:55Z</time>
      </trkpt>
      <trkpt lat="45.20768" lon="6.45841">
        <ele>924.8</ele>
        <time>2022-07-17T07:38:56Z</time>
      </trkpt>
      <trkpt lat="45.20769" lon="6.45837">
        <ele>924.8</ele>
        <time>2022-07-17T07:38:57Z</time>
      </trkpt>
      <trkpt lat="45.2077" lon="6.45834">
        <ele>925.2</ele>
        <time>2022-07-17T07:38:58Z</time>
      </trkpt>
      <trkpt lat="45.2077" lon="6.45831">
        <ele>925.4</ele>
        <time>2022-07-17T07:38:59Z</time>
      </trkpt>
      <trkpt lat="45.20771" lon="6.45828">
        <ele>925.4</ele>
        <time>2022-07-17T07:39:00Z</time>
      </trkpt>
      <trkpt lat="45.20772" lon="6.45825">
        <ele>925.8</ele>
        <time>2022-07-17T07:39:01Z</time>
      </trkpt>
      <trkpt lat="45.20773" lon="6.45822">
        <ele>926</ele>
        <time>2022-07-17T07:39:02Z</time>
      </trkpt>
      <trkpt lat="45.20774" lon="6.4582">
        <ele>926.2</ele>
        <time>2022-07-17T07:39:03Z</time>
      </trkpt>
      <trkpt lat="45.20775" lon="6.45817">
        <ele>926.4</ele>
        <time>2022-07-17T07:39:04Z</time>
      </trkpt>
      <trkpt lat="45.20777" lon="6.45814">
        <ele>926.6</ele>
        <time>2022-07-17T07:39:05Z</time>
      </trkpt>
      <trkpt lat="45.20779" lon="6.45812">
        <ele>926.8</ele>
        <time>2022-07-17T07:39:06Z</time>
      </trkpt>
      <trkpt lat="45.20782" lon="6.4581">
        <ele>927.2</ele>
        <time>2022-07-17T07:39:07Z</time>
      </trkpt>
      <trkpt lat="45.20784" lon="6.45808">
        <ele>927.2</ele>
        <time>2022-07-17T07:39:08Z</time>
      </trkpt>
      <trkpt lat="45.20786" lon="6.45807">
        <ele>927.6</ele>
        <time>2022-07-17T07:39:09Z</time>
      </trkpt>
      <trkpt lat="45.20789" lon="6.45806">
        <ele>927.8</ele>
        <time>2022-07-17T07:39:10Z</time>
      </trkpt>
      <trkpt lat="45.20791" lon="6.45805">
        <ele>928.2</ele>
        <time>2022-07-17T07:39:11Z</time>
      </trkpt>
      <trkpt lat="45.20793" lon="6.45804">
        <ele>928.2</ele>
        <time>2022-07-17T07:39:12Z</time>
      </trkpt>
      <trkpt lat="45.20796" lon="6.45804">
        <ele>928.4</ele>
        <time>2022-07-17T07:39:13Z</time>
      </trkpt>
      <trkpt lat="45.20798" lon="6.45803">
        <ele>928.4</ele>
        <time>2022-07-17T07:39:14Z</time>
      </trkpt>
      <trkpt lat="45.208" lon="6.45803">
        <ele>928.8</ele>
        <time>2022-07-17T07:39:15Z</time>
      </trkpt>
      <trkpt lat="45.20802" lon="6.45803">
        <ele>928.8</ele>
        <time>2022-07-17T07:39:16Z</time>
      </trkpt>
      <trkpt lat="45.20805" lon="6.45802">
        <ele>929.2</ele>
        <time>2022-07-17T07:39:17Z</time>
      </trkpt>
      <trkpt lat="45.20807" lon="6.45802">
        <ele>929.4</ele>
        <time>2022-07-17T07:39:18Z</time>
      </trkpt>
      <trkpt lat="45.20809" lon="6.45802">
        <ele>929.4</ele>
        <time>2022-07-17T07:39:19Z</time>
      </trkpt>
      <trkpt lat="45.20812" lon="6.45802">
        <ele>929.8</ele>
        <time>2022-07-17T07:39:20Z</time>
      </trkpt>
      <trkpt lat="45.20814" lon="6.45802">
        <ele>929.8</ele>
        <time>2022-07-17T07:39:21Z</time>
      </trkpt>
      <trkpt lat="45.20816" lon="6.45802">
        <ele>930.2</ele>
        <time>2022-07-17T07:39:22Z</time>
      </trkpt>
      <trkpt lat="45.20819" lon="6.45802">
        <ele>930.4</ele>
        <time>2022-07-17T07:39:23Z</time>
      </trkpt>
      <trkpt lat="45.20821" lon="6.45802">
        <ele>930.6</ele>
        <time>2022-07-17T07:39:24Z</time>
      </trkpt>
      <trkpt lat="45.20824" lon="6.45802">
        <ele>930.6</ele>
        <time>2022-07-17T07:39:25Z</time>
      </trkpt>
      <trkpt lat="45.20826" lon="6.45802">
        <ele>931</ele>
        <time>2022-07-17T07:39:26Z</time>
      </trkpt>
      <trkpt lat="45.20829" lon="6.45802">
        <ele>931</ele>
        <time>2022-07-17T07:39:27Z</time>
      </trkpt>
      <trkpt lat="45.20831" lon="6.45802">
        <ele>931.4</ele>
        <time>2022-07-17T07:39:28Z</time>
      </trkpt>
      <trkpt lat="45.20834" lon="6.45802">
        <ele>931.6</ele>
        <time>2022-07-17T07:39:29Z</time>
      </trkpt>
      <trkpt lat="45.20836" lon="6.45802">
        <ele>932</ele>
        <time>2022-07-17T07:39:30Z</time>
      </trkpt>
      <trkpt lat="45.20838" lon="6.45801">
        <ele>932</ele>
        <time>2022-07-17T07:39:31Z</time>
      </trkpt>
      <trkpt lat="45.2084" lon="6.45801">
        <ele>932.4</ele>
        <time>2022-07-17T07:39:32Z</time>
      </trkpt>
      <trkpt lat="45.20842" lon="6.458">
        <ele>932.4</ele>
        <time>2022-07-17T07:39:33Z</time>
      </trkpt>
      <trkpt lat="45.20844" lon="6.458">
        <ele>932.6</ele>
        <time>2022-07-17T07:39:34Z</time>
      </trkpt>
      <trkpt lat="45.20847" lon="6.45799">
        <ele>933</ele>
        <time>2022-07-17T07:39:35Z</time>
      </trkpt>
      <trkpt lat="45.20849" lon="6.45798">
        <ele>933</ele>
        <time>2022-07-17T07:39:36Z</time>
      </trkpt>
      <trkpt lat="45.20851" lon="6.45797">
        <ele>933.2</ele>
        <time>2022-07-17T07:39:37Z</time>
      </trkpt>
      <trkpt lat="45.20854" lon="6.45796">
        <ele>933.2</ele>
        <time>2022-07-17T07:39:38Z</time>
      </trkpt>
      <trkpt lat="45.20856" lon="6.45795">
        <ele>933.6</ele>
        <time>2022-07-17T07:39:39Z</time>
      </trkpt>
      <trkpt lat="45.20859" lon="6.45794">
        <ele>933.6</ele>
        <time>2022-07-17T07:39:40Z</time>
      </trkpt>
      <trkpt lat="45.20861" lon="6.45793">
        <ele>934</ele>
        <time>2022-07-17T07:39:41Z</time>
      </trkpt>
      <trkpt lat="45.20863" lon="6.45792">
        <ele>934.2</ele>
        <time>2022-07-17T07:39:42Z</time>
      </trkpt>
      <trkpt lat="45.20865" lon="6.45791">
        <ele>934.4</ele>
        <time>2022-07-17T07:39:43Z</time>
      </trkpt>
      <trkpt lat="45.20867" lon="6.4579">
        <ele>934.6</ele>
        <time>2022-07-17T07:39:44Z</time>
      </trkpt>
      <trkpt lat="45.20869" lon="6.45789">
        <ele>934.6</ele>
        <time>2022-07-17T07:39:45Z</time>
      </trkpt>
      <trkpt lat="45.20871" lon="6.45789">
        <ele>935</ele>
        <time>2022-07-17T07:39:46Z</time>
      </trkpt>
      <trkpt lat="45.20873" lon="6.45788">
        <ele>935.4</ele>
        <time>2022-07-17T07:39:47Z</time>
      </trkpt>
      <trkpt lat="45.20876" lon="6.45788">
        <ele>935.6</ele>
        <time>2022-07-17T07:39:48Z</time>
      </trkpt>
      <trkpt lat="45.20878" lon="6.45787">
        <ele>935.8</ele>
        <time>2022-07-17T07:39:49Z</time>
      </trkpt>
      <trkpt lat="45.20881" lon="6.45787">
        <ele>936</ele>
        <time>2022-07-17T07:39:50Z</time>
      </trkpt>
      <trkpt lat="45.20884" lon="6.45787">
        <ele>936.4</ele>
        <time>2022-07-17T07:39:51Z</time>
      </trkpt>
      <trkpt lat="45.20886" lon="6.45787">
        <ele>936.6</ele>
        <time>2022-07-17T07:39:52Z</time>
      </trkpt>
      <trkpt lat="45.20889" lon="6.45787">
        <ele>936.6</ele>
        <time>2022-07-17T07:39:53Z</time>
      </trkpt>
      <trkpt lat="45.20892" lon="6.45788">
        <ele>937</ele>
        <time>2022-07-17T07:39:54Z</time>
      </trkpt>
      <trkpt lat="45.20894" lon="6.45788">
        <ele>937</ele>
        <time>2022-07-17T07:39:55Z</time>
      </trkpt>
      <trkpt lat="45.20897" lon="6.45788">
        <ele>937.4</ele>
        <time>2022-07-17T07:39:56Z</time>
      </trkpt>
      <trkpt lat="45.20899" lon="6.45788">
        <ele>937.4</ele>
        <time>2022-07-17T07:39:57Z</time>
      </trkpt>
      <trkpt lat="45.20901" lon="6.45789">
        <ele>937.8</ele>
        <time>2022-07-17T07:39:58Z</time>
      </trkpt>
      <trkpt lat="45.20904" lon="6.45789">
        <ele>938</ele>
        <time>2022-07-17T07:39:59Z</time>
      </trkpt>
      <trkpt lat="45.20906" lon="6.45789">
        <ele>938.4</ele>
        <time>2022-07-17T07:40:00Z</time>
      </trkpt>
      <trkpt lat="45.20909" lon="6.4579">
        <ele>938.4</ele>
        <time>2022-07-17T07:40:01Z</time>
      </trkpt>
      <trkpt lat="45.20911" lon="6.4579">
        <ele>938.8</ele>
        <time>2022-07-17T07:40:02Z</time>
      </trkpt>
      <trkpt lat="45.20914" lon="6.4579">
        <ele>939</ele>
        <time>2022-07-17T07:40:03Z</time>
      </trkpt>
      <trkpt lat="45.20916" lon="6.4579">
        <ele>939.2</ele>
        <time>2022-07-17T07:40:04Z</time>
      </trkpt>
      <trkpt lat="45.20919" lon="6.4579">
        <ele>939.4</ele>
        <time>2022-07-17T07:40:05Z</time>
      </trkpt>
      <trkpt lat="45.20921" lon="6.4579">
        <ele>939.4</ele>
        <time>2022-07-17T07:40:06Z</time>
      </trkpt>
      <trkpt lat="45.20924" lon="6.45789">
        <ele>939.8</ele>
        <time>2022-07-17T07:40:07Z</time>
      </trkpt>
      <trkpt lat="45.20926" lon="6.45789">
        <ele>940</ele>
        <time>2022-07-17T07:40:08Z</time>
      </trkpt>
      <trkpt lat="45.20928" lon="6.45788">
        <ele>940.2</ele>
        <time>2022-07-17T07:40:09Z</time>
      </trkpt>
      <trkpt lat="45.20929" lon="6.45787">
        <ele>940.2</ele>
        <time>2022-07-17T07:40:10Z</time>
      </trkpt>
      <trkpt lat="45.20931" lon="6.45786">
        <ele>940.6</ele>
        <time>2022-07-17T07:40:11Z</time>
      </trkpt>
      <trkpt lat="45.20933" lon="6.45785">
        <ele>940.6</ele>
        <time>2022-07-17T07:40:12Z</time>
      </trkpt>
      <trkpt lat="45.20935" lon="6.45784">
        <ele>941</ele>
        <time>2022-07-17T07:40:13Z</time>
      </trkpt>
      <trkpt lat="45.20937" lon="6.45783">
        <ele>941.2</ele>
        <time>2022-07-17T07:40:14Z</time>
      </trkpt>
      <trkpt lat="45.20939" lon="6.45782">
        <ele>941.4</ele>
        <time>2022-07-17T07:40:15Z</time>
      </trkpt>
      <trkpt lat="45.20941" lon="6.45781">
        <ele>941.6</ele>
        <time>2022-07-17T07:40:16Z</time>
      </trkpt>
      <trkpt lat="45.20944" lon="6.4578">
        <ele>941.8</ele>
        <time>2022-07-17T07:40:17Z</time>
      </trkpt>
      <trkpt lat="45.20945" lon="6.45778">
        <ele>942.2</ele>
        <time>2022-07-17T07:40:18Z</time>
      </trkpt>
      <trkpt lat="45.20947" lon="6.45777">
        <ele>942.4</ele>
        <time>2022-07-17T07:40:19Z</time>
      </trkpt>
      <trkpt lat="45.20949" lon="6.45775">
        <ele>942.4</ele>
        <time>2022-07-17T07:40:20Z</time>
      </trkpt>
      <trkpt lat="45.20951" lon="6.45774">
        <ele>942.6</ele>
        <time>2022-07-17T07:40:21Z</time>
      </trkpt>
      <trkpt lat="45.20953" lon="6.45772">
        <ele>942.8</ele>
        <time>2022-07-17T07:40:22Z</time>
      </trkpt>
      <trkpt lat="45.20955" lon="6.45771">
        <ele>942.8</ele>
        <time>2022-07-17T07:40:23Z</time>
      </trkpt>
      <trkpt lat="45.20957" lon="6.45769">
        <ele>943.2</ele>
        <time>2022-07-17T07:40:24Z</time>
      </trkpt>
      <trkpt lat="45.20959" lon="6.45767">
        <ele>943.4</ele>
        <time>2022-07-17T07:40:25Z</time>
      </trkpt>
      <trkpt lat="45.20961" lon="6.45765">
        <ele>943.8</ele>
        <time>2022-07-17T07:40:26Z</time>
      </trkpt>
      <trkpt lat="45.20963" lon="6.45764">
        <ele>943.8</ele>
        <time>2022-07-17T07:40:27Z</time>
      </trkpt>
      <trkpt lat="45.20965" lon="6.45762">
        <ele>944.2</ele>
        <time>2022-07-17T07:40:28Z</time>
      </trkpt>
      <trkpt lat="45.20967" lon="6.4576">
        <ele>944.4</ele>
        <time>2022-07-17T07:40:29Z</time>
      </trkpt>
      <trkpt lat="45.20969" lon="6.45759">
        <ele>944.4</ele>
        <time>2022-07-17T07:40:30Z</time>
      </trkpt>
      <trkpt lat="45.20971" lon="6.45757">
        <ele>944.8</ele>
        <time>2022-07-17T07:40:31Z</time>
      </trkpt>
      <trkpt lat="45.20974" lon="6.45756">
        <ele>945</ele>
        <time>2022-07-17T07:40:32Z</time>
      </trkpt>
      <trkpt lat="45.20976" lon="6.45755">
        <ele>945.2</ele>
        <time>2022-07-17T07:40:33Z</time>
      </trkpt>
      <trkpt lat="45.20978" lon="6.45754">
        <ele>945.4</ele>
        <time>2022-07-17T07:40:34Z</time>
      </trkpt>
      <trkpt lat="45.20981" lon="6.45754">
        <ele>945.6</ele>
        <time>2022-07-17T07:40:35Z</time>
      </trkpt>
      <trkpt lat="45.20983" lon="6.45753">
        <ele>946</ele>
        <time>2022-07-17T07:40:36Z</time>
      </trkpt>
      <trkpt lat="45.20985" lon="6.45752">
        <ele>946.2</ele>
        <time>2022-07-17T07:40:37Z</time>
      </trkpt>
      <trkpt lat="45.20988" lon="6.45752">
        <ele>946.2</ele>
        <time>2022-07-17T07:40:38Z</time>
      </trkpt>
      <trkpt lat="45.2099" lon="6.45752">
        <ele>946.6</ele>
        <time>2022-07-17T07:40:39Z</time>
      </trkpt>
      <trkpt lat="45.20992" lon="6.45751">
        <ele>946.8</ele>
        <time>2022-07-17T07:40:40Z</time>
      </trkpt>
      <trkpt lat="45.20995" lon="6.45751">
        <ele>947</ele>
        <time>2022-07-17T07:40:41Z</time>
      </trkpt>
      <trkpt lat="45.20997" lon="6.45751">
        <ele>947</ele>
        <time>2022-07-17T07:40:42Z</time>
      </trkpt>
      <trkpt lat="45.20999" lon="6.4575">
        <ele>947.2</ele>
        <time>2022-07-17T07:40:43Z</time>
      </trkpt>
      <trkpt lat="45.21001" lon="6.4575">
        <ele>947.6</ele>
        <time>2022-07-17T07:40:44Z</time>
      </trkpt>
      <trkpt lat="45.21004" lon="6.4575">
        <ele>947.6</ele>
        <time>2022-07-17T07:40:45Z</time>
      </trkpt>
      <trkpt lat="45.21006" lon="6.4575">
        <ele>947.8</ele>
        <time>2022-07-17T07:40:46Z</time>
      </trkpt>
      <trkpt lat="45.21008" lon="6.4575">
        <ele>948</ele>
        <time>2022-07-17T07:40:47Z</time>
      </trkpt>
      <trkpt lat="45.2101" lon="6.4575">
        <ele>948.2</ele>
        <time>2022-07-17T07:40:48Z</time>
      </trkpt>
      <trkpt lat="45.21013" lon="6.4575">
        <ele>948.6</ele>
        <time>2022-07-17T07:40:49Z</time>
      </trkpt>
      <trkpt lat="45.21015" lon="6.4575">
        <ele>948.8</ele>
        <time>2022-07-17T07:40:50Z</time>
      </trkpt>
      <trkpt lat="45.21018" lon="6.4575">
        <ele>948.8</ele>
        <time>2022-07-17T07:40:51Z</time>
      </trkpt>
      <trkpt lat="45.21021" lon="6.4575">
        <ele>949</ele>
        <time>2022-07-17T07:40:52Z</time>
      </trkpt>
      <trkpt lat="45.21023" lon="6.4575">
        <ele>949.4</ele>
        <time>2022-07-17T07:40:53Z</time>
      </trkpt>
      <trkpt lat="45.21026" lon="6.4575">
        <ele>949.6</ele>
        <time>2022-07-17T07:40:54Z</time>
      </trkpt>
      <trkpt lat="45.21028" lon="6.4575">
        <ele>949.8</ele>
        <time>2022-07-17T07:40:55Z</time>
      </trkpt>
      <trkpt lat="45.2103" lon="6.45751">
        <ele>950</ele>
        <time>2022-07-17T07:40:56Z</time>
      </trkpt>
      <trkpt lat="45.21033" lon="6.45751">
        <ele>950.4</ele>
        <time>2022-07-17T07:40:57Z</time>
      </trkpt>
      <trkpt lat="45.21035" lon="6.45751">
        <ele>950.6</ele>
        <time>2022-07-17T07:40:58Z</time>
      </trkpt>
      <trkpt lat="45.21038" lon="6.45752">
        <ele>951</ele>
        <time>2022-07-17T07:40:59Z</time>
      </trkpt>
      <trkpt lat="45.2104" lon="6.45754">
        <ele>951.2</ele>
        <time>2022-07-17T07:41:00Z</time>
      </trkpt>
      <trkpt lat="45.21042" lon="6.45755">
        <ele>951.4</ele>
        <time>2022-07-17T07:41:01Z</time>
      </trkpt>
      <trkpt lat="45.21044" lon="6.45757">
        <ele>951.6</ele>
        <time>2022-07-17T07:41:02Z</time>
      </trkpt>
      <trkpt lat="45.21047" lon="6.45759">
        <ele>951.8</ele>
        <time>2022-07-17T07:41:03Z</time>
      </trkpt>
      <trkpt lat="45.21049" lon="6.4576">
        <ele>952</ele>
        <time>2022-07-17T07:41:04Z</time>
      </trkpt>
      <trkpt lat="45.2105" lon="6.45762">
        <ele>952</ele>
        <time>2022-07-17T07:41:05Z</time>
      </trkpt>
      <trkpt lat="45.21052" lon="6.45764">
        <ele>952.4</ele>
        <time>2022-07-17T07:41:06Z</time>
      </trkpt>
      <trkpt lat="45.21054" lon="6.45766">
        <ele>952.4</ele>
        <time>2022-07-17T07:41:07Z</time>
      </trkpt>
      <trkpt lat="45.21056" lon="6.45768">
        <ele>952.8</ele>
        <time>2022-07-17T07:41:08Z</time>
      </trkpt>
      <trkpt lat="45.21058" lon="6.45769">
        <ele>953</ele>
        <time>2022-07-17T07:41:09Z</time>
      </trkpt>
      <trkpt lat="45.2106" lon="6.4577">
        <ele>953.4</ele>
        <time>2022-07-17T07:41:10Z</time>
      </trkpt>
      <trkpt lat="45.21062" lon="6.45771">
        <ele>953.6</ele>
        <time>2022-07-17T07:41:11Z</time>
      </trkpt>
      <trkpt lat="45.21065" lon="6.45772">
        <ele>953.8</ele>
        <time>2022-07-17T07:41:12Z</time>
      </trkpt>
      <trkpt lat="45.21067" lon="6.45773">
        <ele>954</ele>
        <time>2022-07-17T07:41:13Z</time>
      </trkpt>
      <trkpt lat="45.21069" lon="6.45774">
        <ele>954.4</ele>
        <time>2022-07-17T07:41:14Z</time>
      </trkpt>
      <trkpt lat="45.21071" lon="6.45774">
        <ele>954.6</ele>
        <time>2022-07-17T07:41:15Z</time>
      </trkpt>
      <trkpt lat="45.21074" lon="6.45773">
        <ele>954.6</ele>
        <time>2022-07-17T07:41:16Z</time>
      </trkpt>
      <trkpt lat="45.21076" lon="6.45772">
        <ele>955</ele>
        <time>2022-07-17T07:41:17Z</time>
      </trkpt>
      <trkpt lat="45.21078" lon="6.45769">
        <ele>955</ele>
        <time>2022-07-17T07:41:18Z</time>
      </trkpt>
      <trkpt lat="45.2108" lon="6.45766">
        <ele>955.4</ele>
        <time>2022-07-17T07:41:19Z</time>
      </trkpt>
      <trkpt lat="45.2108" lon="6.45761">
        <ele>955.6</ele>
        <time>2022-07-17T07:41:20Z</time>
      </trkpt>
      <trkpt lat="45.2108" lon="6.45757">
        <ele>955.6</ele>
        <time>2022-07-17T07:41:21Z</time>
      </trkpt>
      <trkpt lat="45.2108" lon="6.45753">
        <ele>955.8</ele>
        <time>2022-07-17T07:41:23Z</time>
      </trkpt>
      <trkpt lat="45.21077" lon="6.45746">
        <ele>955.8</ele>
        <time>2022-07-17T07:41:24Z</time>
      </trkpt>
      <trkpt lat="45.21075" lon="6.45743">
        <ele>956</ele>
        <time>2022-07-17T07:41:25Z</time>
      </trkpt>
      <trkpt lat="45.21073" lon="6.4574">
        <ele>956</ele>
        <time>2022-07-17T07:41:26Z</time>
      </trkpt>
      <trkpt lat="45.21071" lon="6.45738">
        <ele>956.4</ele>
        <time>2022-07-17T07:41:27Z</time>
      </trkpt>
      <trkpt lat="45.21069" lon="6.45736">
        <ele>956.6</ele>
        <time>2022-07-17T07:41:28Z</time>
      </trkpt>
      <trkpt lat="45.21068" lon="6.45733">
        <ele>956.6</ele>
        <time>2022-07-17T07:41:29Z</time>
      </trkpt>
      <trkpt lat="45.21066" lon="6.45731">
        <ele>956.8</ele>
        <time>2022-07-17T07:41:30Z</time>
      </trkpt>
      <trkpt lat="45.21064" lon="6.45729">
        <ele>957.2</ele>
        <time>2022-07-17T07:41:31Z</time>
      </trkpt>
      <trkpt lat="45.21063" lon="6.45727">
        <ele>957.2</ele>
        <time>2022-07-17T07:41:32Z</time>
      </trkpt>
      <trkpt lat="45.21061" lon="6.45724">
        <ele>957.4</ele>
        <time>2022-07-17T07:41:33Z</time>
      </trkpt>
      <trkpt lat="45.21059" lon="6.45722">
        <ele>957.4</ele>
        <time>2022-07-17T07:41:34Z</time>
      </trkpt>
      <trkpt lat="45.21058" lon="6.4572">
        <ele>957.8</ele>
        <time>2022-07-17T07:41:35Z</time>
      </trkpt>
      <trkpt lat="45.21056" lon="6.45717">
        <ele>957.8</ele>
        <time>2022-07-17T07:41:36Z</time>
      </trkpt>
      <trkpt lat="45.21055" lon="6.45715">
        <ele>958.2</ele>
        <time>2022-07-17T07:41:37Z</time>
      </trkpt>
      <trkpt lat="45.21054" lon="6.45712">
        <ele>958.4</ele>
        <time>2022-07-17T07:41:38Z</time>
      </trkpt>
      <trkpt lat="45.21053" lon="6.4571">
        <ele>958.8</ele>
        <time>2022-07-17T07:41:39Z</time>
      </trkpt>
      <trkpt lat="45.21051" lon="6.45708">
        <ele>958.8</ele>
        <time>2022-07-17T07:41:40Z</time>
      </trkpt>
      <trkpt lat="45.2105" lon="6.45706">
        <ele>959.2</ele>
        <time>2022-07-17T07:41:41Z</time>
      </trkpt>
      <trkpt lat="45.21048" lon="6.45704">
        <ele>959.2</ele>
        <time>2022-07-17T07:41:42Z</time>
      </trkpt>
      <trkpt lat="45.21047" lon="6.45702">
        <ele>959.4</ele>
        <time>2022-07-17T07:41:43Z</time>
      </trkpt>
      <trkpt lat="45.21045" lon="6.45699">
        <ele>959.6</ele>
        <time>2022-07-17T07:41:44Z</time>
      </trkpt>
      <trkpt lat="45.21044" lon="6.45697">
        <ele>959.6</ele>
        <time>2022-07-17T07:41:45Z</time>
      </trkpt>
      <trkpt lat="45.21042" lon="6.45695">
        <ele>960</ele>
        <time>2022-07-17T07:41:46Z</time>
      </trkpt>
      <trkpt lat="45.21041" lon="6.45693">
        <ele>960.2</ele>
        <time>2022-07-17T07:41:47Z</time>
      </trkpt>
      <trkpt lat="45.21039" lon="6.45691">
        <ele>960.4</ele>
        <time>2022-07-17T07:41:48Z</time>
      </trkpt>
      <trkpt lat="45.21037" lon="6.45689">
        <ele>960.4</ele>
        <time>2022-07-17T07:41:49Z</time>
      </trkpt>
      <trkpt lat="45.21035" lon="6.45686">
        <ele>960.8</ele>
        <time>2022-07-17T07:41:50Z</time>
      </trkpt>
      <trkpt lat="45.21034" lon="6.45683">
        <ele>961</ele>
        <time>2022-07-17T07:41:51Z</time>
      </trkpt>
      <trkpt lat="45.21033" lon="6.45681">
        <ele>961.2</ele>
        <time>2022-07-17T07:41:52Z</time>
      </trkpt>
      <trkpt lat="45.21031" lon="6.45678">
        <ele>961.2</ele>
        <time>2022-07-17T07:41:53Z</time>
      </trkpt>
      <trkpt lat="45.21029" lon="6.45675">
        <ele>961.6</ele>
        <time>2022-07-17T07:41:54Z</time>
      </trkpt>
      <trkpt lat="45.21028" lon="6.45672">
        <ele>961.8</ele>
        <time>2022-07-17T07:41:55Z</time>
      </trkpt>
      <trkpt lat="45.21026" lon="6.45669">
        <ele>962</ele>
        <time>2022-07-17T07:41:56Z</time>
      </trkpt>
      <trkpt lat="45.21025" lon="6.45666">
        <ele>962</ele>
        <time>2022-07-17T07:41:57Z</time>
      </trkpt>
      <trkpt lat="45.21024" lon="6.45663">
        <ele>962.4</ele>
        <time>2022-07-17T07:41:58Z</time>
      </trkpt>
      <trkpt lat="45.21022" lon="6.4566">
        <ele>962.4</ele>
        <time>2022-07-17T07:41:59Z</time>
      </trkpt>
      <trkpt lat="45.21021" lon="6.45657">
        <ele>962.8</ele>
        <time>2022-07-17T07:42:00Z</time>
      </trkpt>
      <trkpt lat="45.2102" lon="6.45654">
        <ele>963</ele>
        <time>2022-07-17T07:42:01Z</time>
      </trkpt>
      <trkpt lat="45.21019" lon="6.45652">
        <ele>963</ele>
        <time>2022-07-17T07:42:02Z</time>
      </trkpt>
      <trkpt lat="45.21018" lon="6.45649">
        <ele>963.6</ele>
        <time>2022-07-17T07:42:03Z</time>
      </trkpt>
      <trkpt lat="45.21017" lon="6.45646">
        <ele>963.6</ele>
        <time>2022-07-17T07:42:04Z</time>
      </trkpt>
      <trkpt lat="45.21016" lon="6.45643">
        <ele>964</ele>
        <time>2022-07-17T07:42:05Z</time>
      </trkpt>
      <trkpt lat="45.21015" lon="6.4564">
        <ele>964</ele>
        <time>2022-07-17T07:42:06Z</time>
      </trkpt>
      <trkpt lat="45.21015" lon="6.45637">
        <ele>964.2</ele>
        <time>2022-07-17T07:42:07Z</time>
      </trkpt>
      <trkpt lat="45.21014" lon="6.45634">
        <ele>964.2</ele>
        <time>2022-07-17T07:42:08Z</time>
      </trkpt>
      <trkpt lat="45.21014" lon="6.45631">
        <ele>964.8</ele>
        <time>2022-07-17T07:42:09Z</time>
      </trkpt>
      <trkpt lat="45.21013" lon="6.45628">
        <ele>965</ele>
        <time>2022-07-17T07:42:10Z</time>
      </trkpt>
      <trkpt lat="45.21013" lon="6.45625">
        <ele>965.2</ele>
        <time>2022-07-17T07:42:11Z</time>
      </trkpt>
      <trkpt lat="45.21012" lon="6.45622">
        <ele>965.6</ele>
        <time>2022-07-17T07:42:12Z</time>
      </trkpt>
      <trkpt lat="45.21011" lon="6.4562">
        <ele>965.8</ele>
        <time>2022-07-17T07:42:13Z</time>
      </trkpt>
      <trkpt lat="45.21011" lon="6.45617">
        <ele>965.8</ele>
        <time>2022-07-17T07:42:14Z</time>
      </trkpt>
      <trkpt lat="45.2101" lon="6.45614">
        <ele>966.4</ele>
        <time>2022-07-17T07:42:15Z</time>
      </trkpt>
      <trkpt lat="45.21009" lon="6.45611">
        <ele>966.6</ele>
        <time>2022-07-17T07:42:16Z</time>
      </trkpt>
      <trkpt lat="45.21008" lon="6.45607">
        <ele>966.8</ele>
        <time>2022-07-17T07:42:17Z</time>
      </trkpt>
      <trkpt lat="45.21008" lon="6.45603">
        <ele>966.8</ele>
        <time>2022-07-17T07:42:18Z</time>
      </trkpt>
      <trkpt lat="45.21007" lon="6.456">
        <ele>967.2</ele>
        <time>2022-07-17T07:42:19Z</time>
      </trkpt>
      <trkpt lat="45.21007" lon="6.45597">
        <ele>967.2</ele>
        <time>2022-07-17T07:42:20Z</time>
      </trkpt>
      <trkpt lat="45.21007" lon="6.45594">
        <ele>967.6</ele>
        <time>2022-07-17T07:42:21Z</time>
      </trkpt>
      <trkpt lat="45.21007" lon="6.45591">
        <ele>967.6</ele>
        <time>2022-07-17T07:42:22Z</time>
      </trkpt>
      <trkpt lat="45.21007" lon="6.45587">
        <ele>968</ele>
        <time>2022-07-17T07:42:23Z</time>
      </trkpt>
      <trkpt lat="45.21007" lon="6.45584">
        <ele>968.2</ele>
        <time>2022-07-17T07:42:24Z</time>
      </trkpt>
      <trkpt lat="45.21008" lon="6.4558">
        <ele>968.2</ele>
        <time>2022-07-17T07:42:25Z</time>
      </trkpt>
      <trkpt lat="45.21008" lon="6.45577">
        <ele>968.6</ele>
        <time>2022-07-17T07:42:26Z</time>
      </trkpt>
      <trkpt lat="45.21008" lon="6.45574">
        <ele>968.6</ele>
        <time>2022-07-17T07:42:27Z</time>
      </trkpt>
      <trkpt lat="45.21009" lon="6.45571">
        <ele>968.8</ele>
        <time>2022-07-17T07:42:28Z</time>
      </trkpt>
      <trkpt lat="45.21009" lon="6.45567">
        <ele>968.8</ele>
        <time>2022-07-17T07:42:29Z</time>
      </trkpt>
      <trkpt lat="45.21009" lon="6.45564">
        <ele>969.2</ele>
        <time>2022-07-17T07:42:30Z</time>
      </trkpt>
      <trkpt lat="45.2101" lon="6.45561">
        <ele>969.2</ele>
        <time>2022-07-17T07:42:31Z</time>
      </trkpt>
      <trkpt lat="45.2101" lon="6.45558">
        <ele>969.6</ele>
        <time>2022-07-17T07:42:32Z</time>
      </trkpt>
      <trkpt lat="45.21011" lon="6.45555">
        <ele>969.8</ele>
        <time>2022-07-17T07:42:33Z</time>
      </trkpt>
      <trkpt lat="45.21012" lon="6.45552">
        <ele>970.2</ele>
        <time>2022-07-17T07:42:34Z</time>
      </trkpt>
      <trkpt lat="45.21013" lon="6.45549">
        <ele>970.4</ele>
        <time>2022-07-17T07:42:35Z</time>
      </trkpt>
      <trkpt lat="45.21014" lon="6.45547">
        <ele>970.6</ele>
        <time>2022-07-17T07:42:36Z</time>
      </trkpt>
      <trkpt lat="45.21015" lon="6.45544">
        <ele>970.6</ele>
        <time>2022-07-17T07:42:37Z</time>
      </trkpt>
      <trkpt lat="45.21016" lon="6.45541">
        <ele>971</ele>
        <time>2022-07-17T07:42:38Z</time>
      </trkpt>
      <trkpt lat="45.21017" lon="6.45538">
        <ele>971.2</ele>
        <time>2022-07-17T07:42:39Z</time>
      </trkpt>
      <trkpt lat="45.21019" lon="6.45535">
        <ele>971.2</ele>
        <time>2022-07-17T07:42:40Z</time>
      </trkpt>
      <trkpt lat="45.2102" lon="6.45532">
        <ele>971.6</ele>
        <time>2022-07-17T07:42:41Z</time>
      </trkpt>
      <trkpt lat="45.21021" lon="6.45529">
        <ele>971.6</ele>
        <time>2022-07-17T07:42:42Z</time>
      </trkpt>
      <trkpt lat="45.21023" lon="6.45527">
        <ele>972</ele>
        <time>2022-07-17T07:42:43Z</time>
      </trkpt>
      <trkpt lat="45.21024" lon="6.45524">
        <ele>972</ele>
        <time>2022-07-17T07:42:44Z</time>
      </trkpt>
      <trkpt lat="45.21025" lon="6.45521">
        <ele>972.4</ele>
        <time>2022-07-17T07:42:45Z</time>
      </trkpt>
      <trkpt lat="45.21027" lon="6.45518">
        <ele>972.6</ele>
        <time>2022-07-17T07:42:46Z</time>
      </trkpt>
      <trkpt lat="45.21028" lon="6.45516">
        <ele>972.6</ele>
        <time>2022-07-17T07:42:47Z</time>
      </trkpt>
      <trkpt lat="45.21029" lon="6.45513">
        <ele>973</ele>
        <time>2022-07-17T07:42:48Z</time>
      </trkpt>
      <trkpt lat="45.2103" lon="6.45511">
        <ele>973.2</ele>
        <time>2022-07-17T07:42:49Z</time>
      </trkpt>
      <trkpt lat="45.21032" lon="6.45507">
        <ele>973.2</ele>
        <time>2022-07-17T07:42:50Z</time>
      </trkpt>
      <trkpt lat="45.21033" lon="6.45504">
        <ele>973.6</ele>
        <time>2022-07-17T07:42:51Z</time>
      </trkpt>
      <trkpt lat="45.21034" lon="6.45501">
        <ele>973.8</ele>
        <time>2022-07-17T07:42:52Z</time>
      </trkpt>
      <trkpt lat="45.21036" lon="6.45498">
        <ele>973.8</ele>
        <time>2022-07-17T07:42:53Z</time>
      </trkpt>
      <trkpt lat="45.21037" lon="6.45496">
        <ele>974.2</ele>
        <time>2022-07-17T07:42:54Z</time>
      </trkpt>
      <trkpt lat="45.21039" lon="6.45493">
        <ele>974.2</ele>
        <time>2022-07-17T07:42:55Z</time>
      </trkpt>
      <trkpt lat="45.2104" lon="6.4549">
        <ele>974.6</ele>
        <time>2022-07-17T07:42:56Z</time>
      </trkpt>
      <trkpt lat="45.21042" lon="6.45488">
        <ele>974.8</ele>
        <time>2022-07-17T07:42:57Z</time>
      </trkpt>
      <trkpt lat="45.21043" lon="6.45485">
        <ele>975</ele>
        <time>2022-07-17T07:42:58Z</time>
      </trkpt>
      <trkpt lat="45.21044" lon="6.45482">
        <ele>975</ele>
        <time>2022-07-17T07:42:59Z</time>
      </trkpt>
      <trkpt lat="45.21045" lon="6.45478">
        <ele>975.4</ele>
        <time>2022-07-17T07:43:00Z</time>
      </trkpt>
      <trkpt lat="45.21046" lon="6.45474">
        <ele>975.4</ele>
        <time>2022-07-17T07:43:01Z</time>
      </trkpt>
      <trkpt lat="45.21047" lon="6.4547">
        <ele>975.8</ele>
        <time>2022-07-17T07:43:02Z</time>
      </trkpt>
      <trkpt lat="45.21047" lon="6.45467">
        <ele>975.8</ele>
        <time>2022-07-17T07:43:03Z</time>
      </trkpt>
      <trkpt lat="45.21048" lon="6.45464">
        <ele>976.2</ele>
        <time>2022-07-17T07:43:04Z</time>
      </trkpt>
      <trkpt lat="45.21047" lon="6.4546">
        <ele>976.2</ele>
        <time>2022-07-17T07:43:05Z</time>
      </trkpt>
      <trkpt lat="45.21047" lon="6.45457">
        <ele>976.4</ele>
        <time>2022-07-17T07:43:06Z</time>
      </trkpt>
      <trkpt lat="45.21045" lon="6.45454">
        <ele>976.4</ele>
        <time>2022-07-17T07:43:07Z</time>
      </trkpt>
      <trkpt lat="45.21043" lon="6.45451">
        <ele>976.8</ele>
        <time>2022-07-17T07:43:08Z</time>
      </trkpt>
      <trkpt lat="45.2104" lon="6.45448">
        <ele>976.8</ele>
        <time>2022-07-17T07:43:09Z</time>
      </trkpt>
      <trkpt lat="45.21037" lon="6.45446">
        <ele>977.2</ele>
        <time>2022-07-17T07:43:10Z</time>
      </trkpt>
      <trkpt lat="45.21035" lon="6.45444">
        <ele>977.2</ele>
        <time>2022-07-17T07:43:11Z</time>
      </trkpt>
      <trkpt lat="45.21032" lon="6.45443">
        <ele>977.6</ele>
        <time>2022-07-17T07:43:12Z</time>
      </trkpt>
      <trkpt lat="45.2103" lon="6.45442">
        <ele>977.6</ele>
        <time>2022-07-17T07:43:13Z</time>
      </trkpt>
      <trkpt lat="45.21027" lon="6.45442">
        <ele>978</ele>
        <time>2022-07-17T07:43:14Z</time>
      </trkpt>
      <trkpt lat="45.21025" lon="6.45443">
        <ele>978.2</ele>
        <time>2022-07-17T07:43:15Z</time>
      </trkpt>
      <trkpt lat="45.21023" lon="6.45445">
        <ele>978.2</ele>
        <time>2022-07-17T07:43:16Z</time>
      </trkpt>
      <trkpt lat="45.21021" lon="6.45447">
        <ele>978.4</ele>
        <time>2022-07-17T07:43:17Z</time>
      </trkpt>
      <trkpt lat="45.2102" lon="6.4545">
        <ele>978.4</ele>
        <time>2022-07-17T07:43:18Z</time>
      </trkpt>
      <trkpt lat="45.21018" lon="6.45453">
        <ele>978.8</ele>
        <time>2022-07-17T07:43:19Z</time>
      </trkpt>
      <trkpt lat="45.21017" lon="6.45456">
        <ele>978.8</ele>
        <time>2022-07-17T07:43:20Z</time>
      </trkpt>
      <trkpt lat="45.21016" lon="6.4546">
        <ele>979</ele>
        <time>2022-07-17T07:43:21Z</time>
      </trkpt>
      <trkpt lat="45.21015" lon="6.45463">
        <ele>979</ele>
        <time>2022-07-17T07:43:22Z</time>
      </trkpt>
      <trkpt lat="45.21014" lon="6.45466">
        <ele>979.2</ele>
        <time>2022-07-17T07:43:23Z</time>
      </trkpt>
      <trkpt lat="45.21013" lon="6.45469">
        <ele>979.2</ele>
        <time>2022-07-17T07:43:24Z</time>
      </trkpt>
      <trkpt lat="45.21011" lon="6.45471">
        <ele>979.6</ele>
        <time>2022-07-17T07:43:25Z</time>
      </trkpt>
      <trkpt lat="45.21009" lon="6.45474">
        <ele>979.6</ele>
        <time>2022-07-17T07:43:26Z</time>
      </trkpt>
      <trkpt lat="45.21008" lon="6.45477">
        <ele>979.8</ele>
        <time>2022-07-17T07:43:27Z</time>
      </trkpt>
      <trkpt lat="45.21007" lon="6.45479">
        <ele>980</ele>
        <time>2022-07-17T07:43:28Z</time>
      </trkpt>
      <trkpt lat="45.21005" lon="6.45481">
        <ele>980.2</ele>
        <time>2022-07-17T07:43:29Z</time>
      </trkpt>
      <trkpt lat="45.21004" lon="6.45484">
        <ele>980.6</ele>
        <time>2022-07-17T07:43:30Z</time>
      </trkpt>
      <trkpt lat="45.21002" lon="6.45486">
        <ele>980.8</ele>
        <time>2022-07-17T07:43:31Z</time>
      </trkpt>
      <trkpt lat="45.21" lon="6.45489">
        <ele>981</ele>
        <time>2022-07-17T07:43:32Z</time>
      </trkpt>
      <trkpt lat="45.20998" lon="6.45491">
        <ele>981.4</ele>
        <time>2022-07-17T07:43:33Z</time>
      </trkpt>
      <trkpt lat="45.20996" lon="6.45493">
        <ele>981.6</ele>
        <time>2022-07-17T07:43:34Z</time>
      </trkpt>
      <trkpt lat="45.20994" lon="6.45494">
        <ele>981.8</ele>
        <time>2022-07-17T07:43:35Z</time>
      </trkpt>
      <trkpt lat="45.20992" lon="6.45496">
        <ele>982</ele>
        <time>2022-07-17T07:43:36Z</time>
      </trkpt>
      <trkpt lat="45.20989" lon="6.45497">
        <ele>982</ele>
        <time>2022-07-17T07:43:37Z</time>
      </trkpt>
      <trkpt lat="45.20987" lon="6.45499">
        <ele>982.4</ele>
        <time>2022-07-17T07:43:38Z</time>
      </trkpt>
      <trkpt lat="45.20985" lon="6.45501">
        <ele>982.6</ele>
        <time>2022-07-17T07:43:39Z</time>
      </trkpt>
      <trkpt lat="45.20983" lon="6.45503">
        <ele>982.8</ele>
        <time>2022-07-17T07:43:40Z</time>
      </trkpt>
      <trkpt lat="45.20981" lon="6.45505">
        <ele>983</ele>
        <time>2022-07-17T07:43:41Z</time>
      </trkpt>
      <trkpt lat="45.20979" lon="6.45506">
        <ele>983</ele>
        <time>2022-07-17T07:43:42Z</time>
      </trkpt>
      <trkpt lat="45.20978" lon="6.45508">
        <ele>983.6</ele>
        <time>2022-07-17T07:43:43Z</time>
      </trkpt>
      <trkpt lat="45.20976" lon="6.4551">
        <ele>983.8</ele>
        <time>2022-07-17T07:43:44Z</time>
      </trkpt>
      <trkpt lat="45.20974" lon="6.45512">
        <ele>984</ele>
        <time>2022-07-17T07:43:45Z</time>
      </trkpt>
      <trkpt lat="45.20972" lon="6.45514">
        <ele>984.4</ele>
        <time>2022-07-17T07:43:46Z</time>
      </trkpt>
      <trkpt lat="45.2097" lon="6.45516">
        <ele>984.6</ele>
        <time>2022-07-17T07:43:47Z</time>
      </trkpt>
      <trkpt lat="45.20969" lon="6.45518">
        <ele>984.8</ele>
        <time>2022-07-17T07:43:48Z</time>
      </trkpt>
      <trkpt lat="45.20967" lon="6.4552">
        <ele>985</ele>
        <time>2022-07-17T07:43:49Z</time>
      </trkpt>
      <trkpt lat="45.20966" lon="6.45522">
        <ele>985.2</ele>
        <time>2022-07-17T07:43:50Z</time>
      </trkpt>
      <trkpt lat="45.20965" lon="6.45524">
        <ele>985.6</ele>
        <time>2022-07-17T07:43:51Z</time>
      </trkpt>
      <trkpt lat="45.20963" lon="6.45527">
        <ele>985.8</ele>
        <time>2022-07-17T07:43:52Z</time>
      </trkpt>
      <trkpt lat="45.20962" lon="6.4553">
        <ele>985.8</ele>
        <time>2022-07-17T07:43:53Z</time>
      </trkpt>
      <trkpt lat="45.20962" lon="6.45533">
        <ele>986.2</ele>
        <time>2022-07-17T07:43:54Z</time>
      </trkpt>
      <trkpt lat="45.20961" lon="6.45536">
        <ele>986.2</ele>
        <time>2022-07-17T07:43:55Z</time>
      </trkpt>
      <trkpt lat="45.2096" lon="6.45539">
        <ele>986.6</ele>
        <time>2022-07-17T07:43:56Z</time>
      </trkpt>
      <trkpt lat="45.20959" lon="6.45542">
        <ele>986.6</ele>
        <time>2022-07-17T07:43:57Z</time>
      </trkpt>
      <trkpt lat="45.20958" lon="6.45546">
        <ele>986.8</ele>
        <time>2022-07-17T07:43:58Z</time>
      </trkpt>
      <trkpt lat="45.20958" lon="6.45549">
        <ele>986.8</ele>
        <time>2022-07-17T07:43:59Z</time>
      </trkpt>
      <trkpt lat="45.20957" lon="6.45552">
        <ele>987</ele>
        <time>2022-07-17T07:44:00Z</time>
      </trkpt>
      <trkpt lat="45.20957" lon="6.45556">
        <ele>987.2</ele>
        <time>2022-07-17T07:44:01Z</time>
      </trkpt>
      <trkpt lat="45.20956" lon="6.45559">
        <ele>987.6</ele>
        <time>2022-07-17T07:44:02Z</time>
      </trkpt>
      <trkpt lat="45.20956" lon="6.45563">
        <ele>987.6</ele>
        <time>2022-07-17T07:44:03Z</time>
      </trkpt>
      <trkpt lat="45.20956" lon="6.45566">
        <ele>987.8</ele>
        <time>2022-07-17T07:44:04Z</time>
      </trkpt>
      <trkpt lat="45.20956" lon="6.45569">
        <ele>988.2</ele>
        <time>2022-07-17T07:44:05Z</time>
      </trkpt>
      <trkpt lat="45.20956" lon="6.45573">
        <ele>988.2</ele>
        <time>2022-07-17T07:44:06Z</time>
      </trkpt>
      <trkpt lat="45.20956" lon="6.45576">
        <ele>988.6</ele>
        <time>2022-07-17T07:44:07Z</time>
      </trkpt>
      <trkpt lat="45.20956" lon="6.45579">
        <ele>988.8</ele>
        <time>2022-07-17T07:44:08Z</time>
      </trkpt>
      <trkpt lat="45.20957" lon="6.45583">
        <ele>988.8</ele>
        <time>2022-07-17T07:44:09Z</time>
      </trkpt>
      <trkpt lat="45.20957" lon="6.45586">
        <ele>989.2</ele>
        <time>2022-07-17T07:44:10Z</time>
      </trkpt>
      <trkpt lat="45.20956" lon="6.4559">
        <ele>989.4</ele>
        <time>2022-07-17T07:44:11Z</time>
      </trkpt>
      <trkpt lat="45.20956" lon="6.45593">
        <ele>989.6</ele>
        <time>2022-07-17T07:44:12Z</time>
      </trkpt>
      <trkpt lat="45.20955" lon="6.45596">
        <ele>989.6</ele>
        <time>2022-07-17T07:44:13Z</time>
      </trkpt>
      <trkpt lat="45.20954" lon="6.45598">
        <ele>990</ele>
        <time>2022-07-17T07:44:14Z</time>
      </trkpt>
      <trkpt lat="45.20952" lon="6.45601">
        <ele>990</ele>
        <time>2022-07-17T07:44:15Z</time>
      </trkpt>
      <trkpt lat="45.2095" lon="6.45603">
        <ele>990.4</ele>
        <time>2022-07-17T07:44:16Z</time>
      </trkpt>
      <trkpt lat="45.20948" lon="6.45604">
        <ele>990.6</ele>
        <time>2022-07-17T07:44:17Z</time>
      </trkpt>
      <trkpt lat="45.20945" lon="6.45606">
        <ele>991</ele>
        <time>2022-07-17T07:44:18Z</time>
      </trkpt>
      <trkpt lat="45.20943" lon="6.45606">
        <ele>991.2</ele>
        <time>2022-07-17T07:44:19Z</time>
      </trkpt>
      <trkpt lat="45.2094" lon="6.45607">
        <ele>991.6</ele>
        <time>2022-07-17T07:44:20Z</time>
      </trkpt>
      <trkpt lat="45.20937" lon="6.45607">
        <ele>991.8</ele>
        <time>2022-07-17T07:44:21Z</time>
      </trkpt>
      <trkpt lat="45.20935" lon="6.45607">
        <ele>991.8</ele>
        <time>2022-07-17T07:44:22Z</time>
      </trkpt>
      <trkpt lat="45.20932" lon="6.45607">
        <ele>992.2</ele>
        <time>2022-07-17T07:44:23Z</time>
      </trkpt>
      <trkpt lat="45.2093" lon="6.45607">
        <ele>992.4</ele>
        <time>2022-07-17T07:44:24Z</time>
      </trkpt>
      <trkpt lat="45.20927" lon="6.45606">
        <ele>992.6</ele>
        <time>2022-07-17T07:44:25Z</time>
      </trkpt>
      <trkpt lat="45.20925" lon="6.45606">
        <ele>992.6</ele>
        <time>2022-07-17T07:44:26Z</time>
      </trkpt>
      <trkpt lat="45.20922" lon="6.45606">
        <ele>993.2</ele>
        <time>2022-07-17T07:44:27Z</time>
      </trkpt>
      <trkpt lat="45.2092" lon="6.45605">
        <ele>993.4</ele>
        <time>2022-07-17T07:44:28Z</time>
      </trkpt>
      <trkpt lat="45.20917" lon="6.45605">
        <ele>993.6</ele>
        <time>2022-07-17T07:44:29Z</time>
      </trkpt>
      <trkpt lat="45.20915" lon="6.45604">
        <ele>993.8</ele>
        <time>2022-07-17T07:44:30Z</time>
      </trkpt>
      <trkpt lat="45.20913" lon="6.45604">
        <ele>993.8</ele>
        <time>2022-07-17T07:44:31Z</time>
      </trkpt>
      <trkpt lat="45.20911" lon="6.45602">
        <ele>994.2</ele>
        <time>2022-07-17T07:44:32Z</time>
      </trkpt>
      <trkpt lat="45.20908" lon="6.45601">
        <ele>994.4</ele>
        <time>2022-07-17T07:44:33Z</time>
      </trkpt>
      <trkpt lat="45.20906" lon="6.456">
        <ele>994.8</ele>
        <time>2022-07-17T07:44:34Z</time>
      </trkpt>
      <trkpt lat="45.20904" lon="6.45599">
        <ele>995</ele>
        <time>2022-07-17T07:44:35Z</time>
      </trkpt>
      <trkpt lat="45.20902" lon="6.45597">
        <ele>995.2</ele>
        <time>2022-07-17T07:44:36Z</time>
      </trkpt>
      <trkpt lat="45.209" lon="6.45595">
        <ele>995.4</ele>
        <time>2022-07-17T07:44:37Z</time>
      </trkpt>
      <trkpt lat="45.20899" lon="6.45592">
        <ele>995.4</ele>
        <time>2022-07-17T07:44:38Z</time>
      </trkpt>
      <trkpt lat="45.20897" lon="6.45589">
        <ele>995.8</ele>
        <time>2022-07-17T07:44:39Z</time>
      </trkpt>
      <trkpt lat="45.20896" lon="6.45586">
        <ele>996</ele>
        <time>2022-07-17T07:44:40Z</time>
      </trkpt>
      <trkpt lat="45.20894" lon="6.45583">
        <ele>996.2</ele>
        <time>2022-07-17T07:44:41Z</time>
      </trkpt>
      <trkpt lat="45.20893" lon="6.4558">
        <ele>996.2</ele>
        <time>2022-07-17T07:44:42Z</time>
      </trkpt>
      <trkpt lat="45.20892" lon="6.45577">
        <ele>996.6</ele>
        <time>2022-07-17T07:44:43Z</time>
      </trkpt>
      <trkpt lat="45.2089" lon="6.45574">
        <ele>996.8</ele>
        <time>2022-07-17T07:44:44Z</time>
      </trkpt>
      <trkpt lat="45.2089" lon="6.45571">
        <ele>996.8</ele>
        <time>2022-07-17T07:44:45Z</time>
      </trkpt>
      <trkpt lat="45.20889" lon="6.45568">
        <ele>997.2</ele>
        <time>2022-07-17T07:44:46Z</time>
      </trkpt>
      <trkpt lat="45.20888" lon="6.45565">
        <ele>997.2</ele>
        <time>2022-07-17T07:44:47Z</time>
      </trkpt>
      <trkpt lat="45.20887" lon="6.45562">
        <ele>997.6</ele>
        <time>2022-07-17T07:44:48Z</time>
      </trkpt>
      <trkpt lat="45.20886" lon="6.45559">
        <ele>997.6</ele>
        <time>2022-07-17T07:44:49Z</time>
      </trkpt>
      <trkpt lat="45.20885" lon="6.45556">
        <ele>998</ele>
        <time>2022-07-17T07:44:50Z</time>
      </trkpt>
      <trkpt lat="45.20884" lon="6.45553">
        <ele>998</ele>
        <time>2022-07-17T07:44:51Z</time>
      </trkpt>
      <trkpt lat="45.20883" lon="6.4555">
        <ele>998.4</ele>
        <time>2022-07-17T07:44:52Z</time>
      </trkpt>
      <trkpt lat="45.20882" lon="6.45547">
        <ele>998.6</ele>
        <time>2022-07-17T07:44:53Z</time>
      </trkpt>
      <trkpt lat="45.20881" lon="6.45544">
        <ele>998.8</ele>
        <time>2022-07-17T07:44:54Z</time>
      </trkpt>
      <trkpt lat="45.2088" lon="6.45541">
        <ele>998.8</ele>
        <time>2022-07-17T07:44:55Z</time>
      </trkpt>
      <trkpt lat="45.20879" lon="6.45539">
        <ele>999.2</ele>
        <time>2022-07-17T07:44:56Z</time>
      </trkpt>
      <trkpt lat="45.20878" lon="6.45536">
        <ele>999.4</ele>
        <time>2022-07-17T07:44:57Z</time>
      </trkpt>
      <trkpt lat="45.20877" lon="6.45533">
        <ele>999.4</ele>
        <time>2022-07-17T07:44:58Z</time>
      </trkpt>
      <trkpt lat="45.20876" lon="6.4553">
        <ele>999.8</ele>
        <time>2022-07-17T07:44:59Z</time>
      </trkpt>
      <trkpt lat="45.20875" lon="6.45527">
        <ele>999.8</ele>
        <time>2022-07-17T07:45:00Z</time>
      </trkpt>
      <trkpt lat="45.20874" lon="6.45524">
        <ele>1000</ele>
        <time>2022-07-17T07:45:01Z</time>
      </trkpt>
      <trkpt lat="45.20873" lon="6.45522">
        <ele>1000</ele>
        <time>2022-07-17T07:45:02Z</time>
      </trkpt>
      <trkpt lat="45.20873" lon="6.45519">
        <ele>1000.2</ele>
        <time>2022-07-17T07:45:03Z</time>
      </trkpt>
      <trkpt lat="45.20872" lon="6.45516">
        <ele>1000.2</ele>
        <time>2022-07-17T07:45:04Z</time>
      </trkpt>
      <trkpt lat="45.20871" lon="6.45513">
        <ele>1000.6</ele>
        <time>2022-07-17T07:45:05Z</time>
      </trkpt>
      <trkpt lat="45.20869" lon="6.4551">
        <ele>1000.6</ele>
        <time>2022-07-17T07:45:06Z</time>
      </trkpt>
      <trkpt lat="45.20867" lon="6.45508">
        <ele>1001</ele>
        <time>2022-07-17T07:45:07Z</time>
      </trkpt>
      <trkpt lat="45.20865" lon="6.45505">
        <ele>1001.2</ele>
        <time>2022-07-17T07:45:08Z</time>
      </trkpt>
      <trkpt lat="45.20864" lon="6.45502">
        <ele>1001.6</ele>
        <time>2022-07-17T07:45:09Z</time>
      </trkpt>
      <trkpt lat="45.20863" lon="6.455">
        <ele>1001.8</ele>
        <time>2022-07-17T07:45:10Z</time>
      </trkpt>
      <trkpt lat="45.20861" lon="6.45497">
        <ele>1001.8</ele>
        <time>2022-07-17T07:45:11Z</time>
      </trkpt>
      <trkpt lat="45.2086" lon="6.45494">
        <ele>1002.2</ele>
        <time>2022-07-17T07:45:12Z</time>
      </trkpt>
      <trkpt lat="45.20859" lon="6.45491">
        <ele>1002.2</ele>
        <time>2022-07-17T07:45:13Z</time>
      </trkpt>
      <trkpt lat="45.20857" lon="6.45489">
        <ele>1002.8</ele>
        <time>2022-07-17T07:45:14Z</time>
      </trkpt>
      <trkpt lat="45.20856" lon="6.45486">
        <ele>1003</ele>
        <time>2022-07-17T07:45:15Z</time>
      </trkpt>
      <trkpt lat="45.20854" lon="6.45483">
        <ele>1003.2</ele>
        <time>2022-07-17T07:45:16Z</time>
      </trkpt>
      <trkpt lat="45.20852" lon="6.45481">
        <ele>1003.2</ele>
        <time>2022-07-17T07:45:17Z</time>
      </trkpt>
      <trkpt lat="45.20851" lon="6.45478">
        <ele>1003.6</ele>
        <time>2022-07-17T07:45:18Z</time>
      </trkpt>
      <trkpt lat="45.2085" lon="6.45475">
        <ele>1003.8</ele>
        <time>2022-07-17T07:45:19Z</time>
      </trkpt>
      <trkpt lat="45.20848" lon="6.45472">
        <ele>1004</ele>
        <time>2022-07-17T07:45:20Z</time>
      </trkpt>
      <trkpt lat="45.20847" lon="6.4547">
        <ele>1004</ele>
        <time>2022-07-17T07:45:21Z</time>
      </trkpt>
      <trkpt lat="45.20845" lon="6.45467">
        <ele>1004.4</ele>
        <time>2022-07-17T07:45:22Z</time>
      </trkpt>
      <trkpt lat="45.20843" lon="6.45464">
        <ele>1004.4</ele>
        <time>2022-07-17T07:45:23Z</time>
      </trkpt>
      <trkpt lat="45.20842" lon="6.45461">
        <ele>1004.8</ele>
        <time>2022-07-17T07:45:24Z</time>
      </trkpt>
      <trkpt lat="45.2084" lon="6.45459">
        <ele>1004.8</ele>
        <time>2022-07-17T07:45:25Z</time>
      </trkpt>
      <trkpt lat="45.20839" lon="6.45456">
        <ele>1005.2</ele>
        <time>2022-07-17T07:45:26Z</time>
      </trkpt>
      <trkpt lat="45.20838" lon="6.45453">
        <ele>1005.2</ele>
        <time>2022-07-17T07:45:27Z</time>
      </trkpt>
      <trkpt lat="45.20836" lon="6.4545">
        <ele>1005.6</ele>
        <time>2022-07-17T07:45:28Z</time>
      </trkpt>
      <trkpt lat="45.20835" lon="6.45448">
        <ele>1005.6</ele>
        <time>2022-07-17T07:45:29Z</time>
      </trkpt>
      <trkpt lat="45.20833" lon="6.45445">
        <ele>1006</ele>
        <time>2022-07-17T07:45:30Z</time>
      </trkpt>
      <trkpt lat="45.20832" lon="6.45442">
        <ele>1006.2</ele>
        <time>2022-07-17T07:45:31Z</time>
      </trkpt>
      <trkpt lat="45.20831" lon="6.45439">
        <ele>1006.4</ele>
        <time>2022-07-17T07:45:32Z</time>
      </trkpt>
      <trkpt lat="45.2083" lon="6.45437">
        <ele>1006.4</ele>
        <time>2022-07-17T07:45:33Z</time>
      </trkpt>
      <trkpt lat="45.20829" lon="6.45434">
        <ele>1006.8</ele>
        <time>2022-07-17T07:45:34Z</time>
      </trkpt>
      <trkpt lat="45.20828" lon="6.45432">
        <ele>1006.8</ele>
        <time>2022-07-17T07:45:35Z</time>
      </trkpt>
      <trkpt lat="45.20826" lon="6.45429">
        <ele>1007</ele>
        <time>2022-07-17T07:45:36Z</time>
      </trkpt>
      <trkpt lat="45.20825" lon="6.45426">
        <ele>1007</ele>
        <time>2022-07-17T07:45:37Z</time>
      </trkpt>
      <trkpt lat="45.20824" lon="6.45424">
        <ele>1007.4</ele>
        <time>2022-07-17T07:45:38Z</time>
      </trkpt>
      <trkpt lat="45.20823" lon="6.45421">
        <ele>1007.6</ele>
        <time>2022-07-17T07:45:39Z</time>
      </trkpt>
      <trkpt lat="45.20821" lon="6.45418">
        <ele>1008</ele>
        <time>2022-07-17T07:45:40Z</time>
      </trkpt>
      <trkpt lat="45.2082" lon="6.45415">
        <ele>1008.2</ele>
        <time>2022-07-17T07:45:41Z</time>
      </trkpt>
      <trkpt lat="45.20819" lon="6.45412">
        <ele>1008.4</ele>
        <time>2022-07-17T07:45:42Z</time>
      </trkpt>
      <trkpt lat="45.20818" lon="6.45409">
        <ele>1008.6</ele>
        <time>2022-07-17T07:45:43Z</time>
      </trkpt>
      <trkpt lat="45.20817" lon="6.45406">
        <ele>1008.8</ele>
        <time>2022-07-17T07:45:44Z</time>
      </trkpt>
      <trkpt lat="45.20816" lon="6.45403">
        <ele>1009</ele>
        <time>2022-07-17T07:45:45Z</time>
      </trkpt>
      <trkpt lat="45.20815" lon="6.45399">
        <ele>1009</ele>
        <time>2022-07-17T07:45:46Z</time>
      </trkpt>
      <trkpt lat="45.20813" lon="6.45396">
        <ele>1009.4</ele>
        <time>2022-07-17T07:45:47Z</time>
      </trkpt>
      <trkpt lat="45.20812" lon="6.45394">
        <ele>1009.4</ele>
        <time>2022-07-17T07:45:48Z</time>
      </trkpt>
      <trkpt lat="45.20811" lon="6.45391">
        <ele>1009.6</ele>
        <time>2022-07-17T07:45:49Z</time>
      </trkpt>
      <trkpt lat="45.2081" lon="6.45388">
        <ele>1010</ele>
        <time>2022-07-17T07:45:50Z</time>
      </trkpt>
      <trkpt lat="45.2081" lon="6.45386">
        <ele>1010.2</ele>
        <time>2022-07-17T07:45:51Z</time>
      </trkpt>
      <trkpt lat="45.20809" lon="6.45383">
        <ele>1010.2</ele>
        <time>2022-07-17T07:45:52Z</time>
      </trkpt>
      <trkpt lat="45.20808" lon="6.4538">
        <ele>1010.4</ele>
        <time>2022-07-17T07:45:53Z</time>
      </trkpt>
      <trkpt lat="45.20807" lon="6.45378">
        <ele>1010.8</ele>
        <time>2022-07-17T07:45:54Z</time>
      </trkpt>
      <trkpt lat="45.20806" lon="6.45375">
        <ele>1010.8</ele>
        <time>2022-07-17T07:45:55Z</time>
      </trkpt>
      <trkpt lat="45.20804" lon="6.45372">
        <ele>1011.2</ele>
        <time>2022-07-17T07:45:56Z</time>
      </trkpt>
      <trkpt lat="45.20802" lon="6.45369">
        <ele>1011.2</ele>
        <time>2022-07-17T07:45:57Z</time>
      </trkpt>
      <trkpt lat="45.20801" lon="6.45366">
        <ele>1011.6</ele>
        <time>2022-07-17T07:45:58Z</time>
      </trkpt>
      <trkpt lat="45.208" lon="6.45363">
        <ele>1011.6</ele>
        <time>2022-07-17T07:45:59Z</time>
      </trkpt>
      <trkpt lat="45.20799" lon="6.45361">
        <ele>1011.8</ele>
        <time>2022-07-17T07:46:00Z</time>
      </trkpt>
      <trkpt lat="45.20797" lon="6.45358">
        <ele>1011.8</ele>
        <time>2022-07-17T07:46:01Z</time>
      </trkpt>
      <trkpt lat="45.20795" lon="6.45356">
        <ele>1012.2</ele>
        <time>2022-07-17T07:46:02Z</time>
      </trkpt>
      <trkpt lat="45.20793" lon="6.45353">
        <ele>1012.2</ele>
        <time>2022-07-17T07:46:03Z</time>
      </trkpt>
      <trkpt lat="45.2079" lon="6.4535">
        <ele>1012.6</ele>
        <time>2022-07-17T07:46:04Z</time>
      </trkpt>
      <trkpt lat="45.20788" lon="6.45347">
        <ele>1012.8</ele>
        <time>2022-07-17T07:46:05Z</time>
      </trkpt>
      <trkpt lat="45.20786" lon="6.45345">
        <ele>1012.8</ele>
        <time>2022-07-17T07:46:06Z</time>
      </trkpt>
      <trkpt lat="45.20783" lon="6.45342">
        <ele>1013.2</ele>
        <time>2022-07-17T07:46:07Z</time>
      </trkpt>
      <trkpt lat="45.20781" lon="6.45341">
        <ele>1013.6</ele>
        <time>2022-07-17T07:46:08Z</time>
      </trkpt>
      <trkpt lat="45.20779" lon="6.45339">
        <ele>1013.8</ele>
        <time>2022-07-17T07:46:09Z</time>
      </trkpt>
      <trkpt lat="45.20777" lon="6.45338">
        <ele>1013.8</ele>
        <time>2022-07-17T07:46:10Z</time>
      </trkpt>
      <trkpt lat="45.20774" lon="6.45336">
        <ele>1014</ele>
        <time>2022-07-17T07:46:11Z</time>
      </trkpt>
      <trkpt lat="45.20772" lon="6.45335">
        <ele>1014</ele>
        <time>2022-07-17T07:46:12Z</time>
      </trkpt>
      <trkpt lat="45.2077" lon="6.45334">
        <ele>1014.4</ele>
        <time>2022-07-17T07:46:13Z</time>
      </trkpt>
      <trkpt lat="45.20767" lon="6.45333">
        <ele>1014.4</ele>
        <time>2022-07-17T07:46:14Z</time>
      </trkpt>
      <trkpt lat="45.20765" lon="6.45332">
        <ele>1014.8</ele>
        <time>2022-07-17T07:46:15Z</time>
      </trkpt>
      <trkpt lat="45.20763" lon="6.45333">
        <ele>1014.8</ele>
        <time>2022-07-17T07:46:16Z</time>
      </trkpt>
      <trkpt lat="45.20761" lon="6.45334">
        <ele>1015.2</ele>
        <time>2022-07-17T07:46:17Z</time>
      </trkpt>
      <trkpt lat="45.20759" lon="6.45334">
        <ele>1015.2</ele>
        <time>2022-07-17T07:46:18Z</time>
      </trkpt>
      <trkpt lat="45.20757" lon="6.45334">
        <ele>1015.4</ele>
        <time>2022-07-17T07:46:19Z</time>
      </trkpt>
      <trkpt lat="45.20755" lon="6.45336">
        <ele>1015.6</ele>
        <time>2022-07-17T07:46:20Z</time>
      </trkpt>
      <trkpt lat="45.20752" lon="6.45336">
        <ele>1015.8</ele>
        <time>2022-07-17T07:46:21Z</time>
      </trkpt>
      <trkpt lat="45.2075" lon="6.45337">
        <ele>1016.2</ele>
        <time>2022-07-17T07:46:22Z</time>
      </trkpt>
      <trkpt lat="45.20748" lon="6.45337">
        <ele>1016.4</ele>
        <time>2022-07-17T07:46:23Z</time>
      </trkpt>
      <trkpt lat="45.20745" lon="6.45337">
        <ele>1016.4</ele>
        <time>2022-07-17T07:46:24Z</time>
      </trkpt>
      <trkpt lat="45.20743" lon="6.45337">
        <ele>1016.8</ele>
        <time>2022-07-17T07:46:25Z</time>
      </trkpt>
      <trkpt lat="45.20741" lon="6.45337">
        <ele>1016.8</ele>
        <time>2022-07-17T07:46:26Z</time>
      </trkpt>
      <trkpt lat="45.20739" lon="6.45338">
        <ele>1017</ele>
        <time>2022-07-17T07:46:27Z</time>
      </trkpt>
      <trkpt lat="45.20736" lon="6.45338">
        <ele>1017</ele>
        <time>2022-07-17T07:46:28Z</time>
      </trkpt>
      <trkpt lat="45.20734" lon="6.45338">
        <ele>1017.4</ele>
        <time>2022-07-17T07:46:29Z</time>
      </trkpt>
      <trkpt lat="45.20732" lon="6.45337">
        <ele>1017.4</ele>
        <time>2022-07-17T07:46:30Z</time>
      </trkpt>
      <trkpt lat="45.2073" lon="6.45338">
        <ele>1017.8</ele>
        <time>2022-07-17T07:46:31Z</time>
      </trkpt>
      <trkpt lat="45.20727" lon="6.45338">
        <ele>1018</ele>
        <time>2022-07-17T07:46:32Z</time>
      </trkpt>
      <trkpt lat="45.20724" lon="6.45338">
        <ele>1018.2</ele>
        <time>2022-07-17T07:46:33Z</time>
      </trkpt>
      <trkpt lat="45.20722" lon="6.45338">
        <ele>1018.2</ele>
        <time>2022-07-17T07:46:34Z</time>
      </trkpt>
      <trkpt lat="45.2072" lon="6.45338">
        <ele>1018.6</ele>
        <time>2022-07-17T07:46:35Z</time>
      </trkpt>
      <trkpt lat="45.20717" lon="6.45338">
        <ele>1018.6</ele>
        <time>2022-07-17T07:46:36Z</time>
      </trkpt>
      <trkpt lat="45.20715" lon="6.45338">
        <ele>1018.8</ele>
        <time>2022-07-17T07:46:37Z</time>
      </trkpt>
      <trkpt lat="45.20712" lon="6.45339">
        <ele>1018.8</ele>
        <time>2022-07-17T07:46:38Z</time>
      </trkpt>
      <trkpt lat="45.2071" lon="6.4534">
        <ele>1019.2</ele>
        <time>2022-07-17T07:46:39Z</time>
      </trkpt>
      <trkpt lat="45.20708" lon="6.45341">
        <ele>1019.2</ele>
        <time>2022-07-17T07:46:40Z</time>
      </trkpt>
      <trkpt lat="45.20705" lon="6.45342">
        <ele>1019.6</ele>
        <time>2022-07-17T07:46:41Z</time>
      </trkpt>
      <trkpt lat="45.20703" lon="6.45342">
        <ele>1019.6</ele>
        <time>2022-07-17T07:46:42Z</time>
      </trkpt>
      <trkpt lat="45.20701" lon="6.45343">
        <ele>1019.8</ele>
        <time>2022-07-17T07:46:43Z</time>
      </trkpt>
      <trkpt lat="45.20698" lon="6.45343">
        <ele>1020.2</ele>
        <time>2022-07-17T07:46:44Z</time>
      </trkpt>
      <trkpt lat="45.20696" lon="6.45344">
        <ele>1020.2</ele>
        <time>2022-07-17T07:46:45Z</time>
      </trkpt>
      <trkpt lat="45.20694" lon="6.45344">
        <ele>1020.4</ele>
        <time>2022-07-17T07:46:46Z</time>
      </trkpt>
      <trkpt lat="45.20691" lon="6.45344">
        <ele>1020.4</ele>
        <time>2022-07-17T07:46:47Z</time>
      </trkpt>
      <trkpt lat="45.20688" lon="6.45344">
        <ele>1020.8</ele>
        <time>2022-07-17T07:46:48Z</time>
      </trkpt>
      <trkpt lat="45.20686" lon="6.45344">
        <ele>1021</ele>
        <time>2022-07-17T07:46:49Z</time>
      </trkpt>
      <trkpt lat="45.20683" lon="6.45344">
        <ele>1021</ele>
        <time>2022-07-17T07:46:50Z</time>
      </trkpt>
      <trkpt lat="45.20681" lon="6.45344">
        <ele>1021.4</ele>
        <time>2022-07-17T07:46:51Z</time>
      </trkpt>
      <trkpt lat="45.20678" lon="6.45343">
        <ele>1021.4</ele>
        <time>2022-07-17T07:46:52Z</time>
      </trkpt>
      <trkpt lat="45.20676" lon="6.45343">
        <ele>1021.8</ele>
        <time>2022-07-17T07:46:53Z</time>
      </trkpt>
      <trkpt lat="45.20673" lon="6.45343">
        <ele>1022</ele>
        <time>2022-07-17T07:46:54Z</time>
      </trkpt>
      <trkpt lat="45.20671" lon="6.45342">
        <ele>1022</ele>
        <time>2022-07-17T07:46:55Z</time>
      </trkpt>
      <trkpt lat="45.20669" lon="6.45342">
        <ele>1022.4</ele>
        <time>2022-07-17T07:46:56Z</time>
      </trkpt>
      <trkpt lat="45.20667" lon="6.45342">
        <ele>1022.6</ele>
        <time>2022-07-17T07:46:57Z</time>
      </trkpt>
      <trkpt lat="45.20665" lon="6.45341">
        <ele>1022.6</ele>
        <time>2022-07-17T07:46:58Z</time>
      </trkpt>
      <trkpt lat="45.20663" lon="6.45342">
        <ele>1023</ele>
        <time>2022-07-17T07:46:59Z</time>
      </trkpt>
      <trkpt lat="45.20661" lon="6.45342">
        <ele>1023</ele>
        <time>2022-07-17T07:47:00Z</time>
      </trkpt>
      <trkpt lat="45.20659" lon="6.45342">
        <ele>1023.4</ele>
        <time>2022-07-17T07:47:01Z</time>
      </trkpt>
      <trkpt lat="45.20657" lon="6.45342">
        <ele>1023.4</ele>
        <time>2022-07-17T07:47:02Z</time>
      </trkpt>
      <trkpt lat="45.20656" lon="6.45342">
        <ele>1023.8</ele>
        <time>2022-07-17T07:47:03Z</time>
      </trkpt>
      <trkpt lat="45.20653" lon="6.45342">
        <ele>1024</ele>
        <time>2022-07-17T07:47:04Z</time>
      </trkpt>
      <trkpt lat="45.20651" lon="6.45341">
        <ele>1024.2</ele>
        <time>2022-07-17T07:47:05Z</time>
      </trkpt>
      <trkpt lat="45.20649" lon="6.45341">
        <ele>1024.4</ele>
        <time>2022-07-17T07:47:06Z</time>
      </trkpt>
      <trkpt lat="45.20647" lon="6.45342">
        <ele>1024.4</ele>
        <time>2022-07-17T07:47:07Z</time>
      </trkpt>
      <trkpt lat="45.20645" lon="6.45342">
        <ele>1024.6</ele>
        <time>2022-07-17T07:47:08Z</time>
      </trkpt>
      <trkpt lat="45.20642" lon="6.45342">
        <ele>1025</ele>
        <time>2022-07-17T07:47:09Z</time>
      </trkpt>
      <trkpt lat="45.2064" lon="6.45341">
        <ele>1025</ele>
        <time>2022-07-17T07:47:10Z</time>
      </trkpt>
      <trkpt lat="45.20638" lon="6.45341">
        <ele>1025.4</ele>
        <time>2022-07-17T07:47:11Z</time>
      </trkpt>
      <trkpt lat="45.20636" lon="6.45341">
        <ele>1025.6</ele>
        <time>2022-07-17T07:47:12Z</time>
      </trkpt>
      <trkpt lat="45.20634" lon="6.4534">
        <ele>1025.8</ele>
        <time>2022-07-17T07:47:13Z</time>
      </trkpt>
      <trkpt lat="45.20631" lon="6.4534">
        <ele>1025.8</ele>
        <time>2022-07-17T07:47:14Z</time>
      </trkpt>
      <trkpt lat="45.20629" lon="6.45339">
        <ele>1026.2</ele>
        <time>2022-07-17T07:47:15Z</time>
      </trkpt>
      <trkpt lat="45.20627" lon="6.45338">
        <ele>1026.4</ele>
        <time>2022-07-17T07:47:16Z</time>
      </trkpt>
      <trkpt lat="45.20625" lon="6.45338">
        <ele>1026.4</ele>
        <time>2022-07-17T07:47:17Z</time>
      </trkpt>
      <trkpt lat="45.20622" lon="6.45337">
        <ele>1026.8</ele>
        <time>2022-07-17T07:47:18Z</time>
      </trkpt>
      <trkpt lat="45.2062" lon="6.45336">
        <ele>1027</ele>
        <time>2022-07-17T07:47:19Z</time>
      </trkpt>
      <trkpt lat="45.20618" lon="6.45335">
        <ele>1027.2</ele>
        <time>2022-07-17T07:47:20Z</time>
      </trkpt>
      <trkpt lat="45.20616" lon="6.45334">
        <ele>1027.2</ele>
        <time>2022-07-17T07:47:21Z</time>
      </trkpt>
      <trkpt lat="45.20614" lon="6.45333">
        <ele>1027.6</ele>
        <time>2022-07-17T07:47:22Z</time>
      </trkpt>
      <trkpt lat="45.20612" lon="6.45332">
        <ele>1027.6</ele>
        <time>2022-07-17T07:47:23Z</time>
      </trkpt>
      <trkpt lat="45.20609" lon="6.45331">
        <ele>1028</ele>
        <time>2022-07-17T07:47:24Z</time>
      </trkpt>
      <trkpt lat="45.20607" lon="6.4533">
        <ele>1028.2</ele>
        <time>2022-07-17T07:47:25Z</time>
      </trkpt>
      <trkpt lat="45.20605" lon="6.45328">
        <ele>1028.2</ele>
        <time>2022-07-17T07:47:26Z</time>
      </trkpt>
      <trkpt lat="45.20603" lon="6.45327">
        <ele>1028.6</ele>
        <time>2022-07-17T07:47:27Z</time>
      </trkpt>
      <trkpt lat="45.206" lon="6.45326">
        <ele>1029</ele>
        <time>2022-07-17T07:47:28Z</time>
      </trkpt>
      <trkpt lat="45.20598" lon="6.45326">
        <ele>1029</ele>
        <time>2022-07-17T07:47:29Z</time>
      </trkpt>
      <trkpt lat="45.20596" lon="6.45325">
        <ele>1029.4</ele>
        <time>2022-07-17T07:47:30Z</time>
      </trkpt>
      <trkpt lat="45.20594" lon="6.45325">
        <ele>1029.6</ele>
        <time>2022-07-17T07:47:31Z</time>
      </trkpt>
      <trkpt lat="45.20592" lon="6.45325">
        <ele>1029.6</ele>
        <time>2022-07-17T07:47:32Z</time>
      </trkpt>
      <trkpt lat="45.2059" lon="6.45324">
        <ele>1029.8</ele>
        <time>2022-07-17T07:47:33Z</time>
      </trkpt>
      <trkpt lat="45.20588" lon="6.45324">
        <ele>1030</ele>
        <time>2022-07-17T07:47:34Z</time>
      </trkpt>
      <trkpt lat="45.20586" lon="6.45323">
        <ele>1030.2</ele>
        <time>2022-07-17T07:47:35Z</time>
      </trkpt>
      <trkpt lat="45.20584" lon="6.45322">
        <ele>1030.2</ele>
        <time>2022-07-17T07:47:36Z</time>
      </trkpt>
      <trkpt lat="45.20581" lon="6.45322">
        <ele>1030.6</ele>
        <time>2022-07-17T07:47:37Z</time>
      </trkpt>
      <trkpt lat="45.20579" lon="6.45321">
        <ele>1030.8</ele>
        <time>2022-07-17T07:47:38Z</time>
      </trkpt>
      <trkpt lat="45.20577" lon="6.4532">
        <ele>1030.8</ele>
        <time>2022-07-17T07:47:39Z</time>
      </trkpt>
      <trkpt lat="45.20575" lon="6.4532">
        <ele>1031.2</ele>
        <time>2022-07-17T07:47:40Z</time>
      </trkpt>
      <trkpt lat="45.20573" lon="6.45319">
        <ele>1031.4</ele>
        <time>2022-07-17T07:47:41Z</time>
      </trkpt>
      <trkpt lat="45.20571" lon="6.45319">
        <ele>1031.4</ele>
        <time>2022-07-17T07:47:42Z</time>
      </trkpt>
      <trkpt lat="45.20569" lon="6.45319">
        <ele>1031.8</ele>
        <time>2022-07-17T07:47:43Z</time>
      </trkpt>
      <trkpt lat="45.20567" lon="6.45319">
        <ele>1032</ele>
        <time>2022-07-17T07:47:44Z</time>
      </trkpt>
      <trkpt lat="45.20564" lon="6.45318">
        <ele>1032.4</ele>
        <time>2022-07-17T07:47:45Z</time>
      </trkpt>
      <trkpt lat="45.20562" lon="6.45318">
        <ele>1032.6</ele>
        <time>2022-07-17T07:47:46Z</time>
      </trkpt>
      <trkpt lat="45.20559" lon="6.45318">
        <ele>1032.6</ele>
        <time>2022-07-17T07:47:47Z</time>
      </trkpt>
      <trkpt lat="45.20556" lon="6.45317">
        <ele>1033</ele>
        <time>2022-07-17T07:47:48Z</time>
      </trkpt>
      <trkpt lat="45.20553" lon="6.45317">
        <ele>1033</ele>
        <time>2022-07-17T07:47:49Z</time>
      </trkpt>
      <trkpt lat="45.2055" lon="6.45317">
        <ele>1033.4</ele>
        <time>2022-07-17T07:47:50Z</time>
      </trkpt>
      <trkpt lat="45.20548" lon="6.45317">
        <ele>1033.4</ele>
        <time>2022-07-17T07:47:51Z</time>
      </trkpt>
      <trkpt lat="45.20546" lon="6.45317">
        <ele>1033.8</ele>
        <time>2022-07-17T07:47:52Z</time>
      </trkpt>
      <trkpt lat="45.20543" lon="6.45317">
        <ele>1033.8</ele>
        <time>2022-07-17T07:47:53Z</time>
      </trkpt>
      <trkpt lat="45.20541" lon="6.45317">
        <ele>1034.2</ele>
        <time>2022-07-17T07:47:54Z</time>
      </trkpt>
      <trkpt lat="45.20539" lon="6.45318">
        <ele>1034.2</ele>
        <time>2022-07-17T07:47:55Z</time>
      </trkpt>
      <trkpt lat="45.20537" lon="6.45317">
        <ele>1034.6</ele>
        <time>2022-07-17T07:47:56Z</time>
      </trkpt>
      <trkpt lat="45.20535" lon="6.45318">
        <ele>1034.6</ele>
        <time>2022-07-17T07:47:57Z</time>
      </trkpt>
      <trkpt lat="45.20533" lon="6.45318">
        <ele>1035</ele>
        <time>2022-07-17T07:47:58Z</time>
      </trkpt>
      <trkpt lat="45.20531" lon="6.45318">
        <ele>1035</ele>
        <time>2022-07-17T07:47:59Z</time>
      </trkpt>
      <trkpt lat="45.20528" lon="6.45318">
        <ele>1035.2</ele>
        <time>2022-07-17T07:48:00Z</time>
      </trkpt>
      <trkpt lat="45.20526" lon="6.45318">
        <ele>1035.4</ele>
        <time>2022-07-17T07:48:01Z</time>
      </trkpt>
      <trkpt lat="45.20524" lon="6.45318">
        <ele>1035.6</ele>
        <time>2022-07-17T07:48:02Z</time>
      </trkpt>
      <trkpt lat="45.20522" lon="6.45318">
        <ele>1036</ele>
        <time>2022-07-17T07:48:03Z</time>
      </trkpt>
      <trkpt lat="45.20519" lon="6.45318">
        <ele>1036.2</ele>
        <time>2022-07-17T07:48:04Z</time>
      </trkpt>
      <trkpt lat="45.20517" lon="6.45318">
        <ele>1036.4</ele>
        <time>2022-07-17T07:48:05Z</time>
      </trkpt>
      <trkpt lat="45.20515" lon="6.45318">
        <ele>1036.6</ele>
        <time>2022-07-17T07:48:06Z</time>
      </trkpt>
      <trkpt lat="45.20513" lon="6.45318">
        <ele>1036.6</ele>
        <time>2022-07-17T07:48:07Z</time>
      </trkpt>
      <trkpt lat="45.20511" lon="6.45318">
        <ele>1037</ele>
        <time>2022-07-17T07:48:08Z</time>
      </trkpt>
      <trkpt lat="45.20509" lon="6.45318">
        <ele>1037.2</ele>
        <time>2022-07-17T07:48:09Z</time>
      </trkpt>
      <trkpt lat="45.20507" lon="6.45318">
        <ele>1037.4</ele>
        <time>2022-07-17T07:48:10Z</time>
      </trkpt>
      <trkpt lat="45.20506" lon="6.45317">
        <ele>1037.4</ele>
        <time>2022-07-17T07:48:11Z</time>
      </trkpt>
      <trkpt lat="45.20503" lon="6.45316">
        <ele>1037.8</ele>
        <time>2022-07-17T07:48:12Z</time>
      </trkpt>
      <trkpt lat="45.20501" lon="6.45316">
        <ele>1038</ele>
        <time>2022-07-17T07:48:13Z</time>
      </trkpt>
      <trkpt lat="45.20499" lon="6.45316">
        <ele>1038</ele>
        <time>2022-07-17T07:48:14Z</time>
      </trkpt>
      <trkpt lat="45.20498" lon="6.45316">
        <ele>1038.4</ele>
        <time>2022-07-17T07:48:15Z</time>
      </trkpt>
      <trkpt lat="45.20496" lon="6.45316">
        <ele>1038.6</ele>
        <time>2022-07-17T07:48:16Z</time>
      </trkpt>
      <trkpt lat="45.20494" lon="6.45316">
        <ele>1038.8</ele>
        <time>2022-07-17T07:48:17Z</time>
      </trkpt>
      <trkpt lat="45.20492" lon="6.45316">
        <ele>1038.8</ele>
        <time>2022-07-17T07:48:18Z</time>
      </trkpt>
      <trkpt lat="45.2049" lon="6.45316">
        <ele>1039.2</ele>
        <time>2022-07-17T07:48:19Z</time>
      </trkpt>
      <trkpt lat="45.20487" lon="6.45316">
        <ele>1039.2</ele>
        <time>2022-07-17T07:48:20Z</time>
      </trkpt>
      <trkpt lat="45.20485" lon="6.45317">
        <ele>1039.6</ele>
        <time>2022-07-17T07:48:21Z</time>
      </trkpt>
      <trkpt lat="45.20483" lon="6.45317">
        <ele>1039.6</ele>
        <time>2022-07-17T07:48:22Z</time>
      </trkpt>
      <trkpt lat="45.20481" lon="6.45318">
        <ele>1040</ele>
        <time>2022-07-17T07:48:23Z</time>
      </trkpt>
      <trkpt lat="45.20479" lon="6.45318">
        <ele>1040</ele>
        <time>2022-07-17T07:48:24Z</time>
      </trkpt>
      <trkpt lat="45.20478" lon="6.45318">
        <ele>1040.2</ele>
        <time>2022-07-17T07:48:25Z</time>
      </trkpt>
      <trkpt lat="45.20476" lon="6.45317">
        <ele>1040.4</ele>
        <time>2022-07-17T07:48:26Z</time>
      </trkpt>
      <trkpt lat="45.20474" lon="6.45317">
        <ele>1040.6</ele>
        <time>2022-07-17T07:48:27Z</time>
      </trkpt>
      <trkpt lat="45.20472" lon="6.45317">
        <ele>1041</ele>
        <time>2022-07-17T07:48:28Z</time>
      </trkpt>
      <trkpt lat="45.2047" lon="6.45317">
        <ele>1041</ele>
        <time>2022-07-17T07:48:29Z</time>
      </trkpt>
      <trkpt lat="45.20468" lon="6.45317">
        <ele>1041.2</ele>
        <time>2022-07-17T07:48:30Z</time>
      </trkpt>
      <trkpt lat="45.20465" lon="6.45317">
        <ele>1041.2</ele>
        <time>2022-07-17T07:48:31Z</time>
      </trkpt>
      <trkpt lat="45.20463" lon="6.45317">
        <ele>1041.6</ele>
        <time>2022-07-17T07:48:32Z</time>
      </trkpt>
      <trkpt lat="45.20461" lon="6.45317">
        <ele>1041.6</ele>
        <time>2022-07-17T07:48:33Z</time>
      </trkpt>
      <trkpt lat="45.20459" lon="6.45317">
        <ele>1042</ele>
        <time>2022-07-17T07:48:34Z</time>
      </trkpt>
      <trkpt lat="45.20457" lon="6.45317">
        <ele>1042</ele>
        <time>2022-07-17T07:48:35Z</time>
      </trkpt>
      <trkpt lat="45.20454" lon="6.45317">
        <ele>1042.2</ele>
        <time>2022-07-17T07:48:36Z</time>
      </trkpt>
      <trkpt lat="45.20453" lon="6.45317">
        <ele>1042.2</ele>
        <time>2022-07-17T07:48:37Z</time>
      </trkpt>
      <trkpt lat="45.20451" lon="6.45317">
        <ele>1042.6</ele>
        <time>2022-07-17T07:48:38Z</time>
      </trkpt>
      <trkpt lat="45.20449" lon="6.45317">
        <ele>1042.6</ele>
        <time>2022-07-17T07:48:39Z</time>
      </trkpt>
      <trkpt lat="45.20446" lon="6.45317">
        <ele>1043</ele>
        <time>2022-07-17T07:48:40Z</time>
      </trkpt>
      <trkpt lat="45.20443" lon="6.45318">
        <ele>1043</ele>
        <time>2022-07-17T07:48:41Z</time>
      </trkpt>
      <trkpt lat="45.20439" lon="6.45318">
        <ele>1043.4</ele>
        <time>2022-07-17T07:48:42Z</time>
      </trkpt>
      <trkpt lat="45.20437" lon="6.45319">
        <ele>1043.4</ele>
        <time>2022-07-17T07:48:43Z</time>
      </trkpt>
      <trkpt lat="45.20434" lon="6.45319">
        <ele>1043.8</ele>
        <time>2022-07-17T07:48:44Z</time>
      </trkpt>
      <trkpt lat="45.20431" lon="6.4532">
        <ele>1044</ele>
        <time>2022-07-17T07:48:45Z</time>
      </trkpt>
      <trkpt lat="45.20428" lon="6.4532">
        <ele>1044.2</ele>
        <time>2022-07-17T07:48:46Z</time>
      </trkpt>
      <trkpt lat="45.20425" lon="6.4532">
        <ele>1044.6</ele>
        <time>2022-07-17T07:48:47Z</time>
      </trkpt>
      <trkpt lat="45.20422" lon="6.4532">
        <ele>1044.6</ele>
        <time>2022-07-17T07:48:48Z</time>
      </trkpt>
      <trkpt lat="45.20419" lon="6.45321">
        <ele>1044.8</ele>
        <time>2022-07-17T07:48:49Z</time>
      </trkpt>
      <trkpt lat="45.20416" lon="6.45321">
        <ele>1044.8</ele>
        <time>2022-07-17T07:48:50Z</time>
      </trkpt>
      <trkpt lat="45.20414" lon="6.45322">
        <ele>1045.2</ele>
        <time>2022-07-17T07:48:51Z</time>
      </trkpt>
      <trkpt lat="45.20411" lon="6.45322">
        <ele>1045.2</ele>
        <time>2022-07-17T07:48:52Z</time>
      </trkpt>
      <trkpt lat="45.20409" lon="6.45323">
        <ele>1045.6</ele>
        <time>2022-07-17T07:48:53Z</time>
      </trkpt>
      <trkpt lat="45.20406" lon="6.45324">
        <ele>1045.8</ele>
        <time>2022-07-17T07:48:54Z</time>
      </trkpt>
      <trkpt lat="45.20404" lon="6.45325">
        <ele>1046</ele>
        <time>2022-07-17T07:48:55Z</time>
      </trkpt>
      <trkpt lat="45.20402" lon="6.45325">
        <ele>1046.2</ele>
        <time>2022-07-17T07:48:56Z</time>
      </trkpt>
      <trkpt lat="45.20399" lon="6.45326">
        <ele>1046.4</ele>
        <time>2022-07-17T07:48:57Z</time>
      </trkpt>
      <trkpt lat="45.20397" lon="6.45327">
        <ele>1046.4</ele>
        <time>2022-07-17T07:48:58Z</time>
      </trkpt>
      <trkpt lat="45.20395" lon="6.45328">
        <ele>1046.8</ele>
        <time>2022-07-17T07:48:59Z</time>
      </trkpt>
      <trkpt lat="45.20394" lon="6.4533">
        <ele>1046.8</ele>
        <time>2022-07-17T07:49:00Z</time>
      </trkpt>
      <trkpt lat="45.20392" lon="6.45331">
        <ele>1047.2</ele>
        <time>2022-07-17T07:49:01Z</time>
      </trkpt>
      <trkpt lat="45.2039" lon="6.45333">
        <ele>1047.2</ele>
        <time>2022-07-17T07:49:02Z</time>
      </trkpt>
      <trkpt lat="45.20389" lon="6.45335">
        <ele>1047.4</ele>
        <time>2022-07-17T07:49:03Z</time>
      </trkpt>
      <trkpt lat="45.20388" lon="6.45337">
        <ele>1047.4</ele>
        <time>2022-07-17T07:49:04Z</time>
      </trkpt>
      <trkpt lat="45.20387" lon="6.45339">
        <ele>1047.8</ele>
        <time>2022-07-17T07:49:05Z</time>
      </trkpt>
      <trkpt lat="45.20387" lon="6.45342">
        <ele>1047.8</ele>
        <time>2022-07-17T07:49:06Z</time>
      </trkpt>
      <trkpt lat="45.20386" lon="6.45345">
        <ele>1048.2</ele>
        <time>2022-07-17T07:49:07Z</time>
      </trkpt>
      <trkpt lat="45.20385" lon="6.45348">
        <ele>1048.2</ele>
        <time>2022-07-17T07:49:08Z</time>
      </trkpt>
      <trkpt lat="45.20384" lon="6.45351">
        <ele>1048.6</ele>
        <time>2022-07-17T07:49:09Z</time>
      </trkpt>
      <trkpt lat="45.20383" lon="6.45355">
        <ele>1048.6</ele>
        <time>2022-07-17T07:49:10Z</time>
      </trkpt>
      <trkpt lat="45.20383" lon="6.45358">
        <ele>1048.8</ele>
        <time>2022-07-17T07:49:11Z</time>
      </trkpt>
      <trkpt lat="45.20383" lon="6.45361">
        <ele>1048.8</ele>
        <time>2022-07-17T07:49:12Z</time>
      </trkpt>
      <trkpt lat="45.20382" lon="6.45365">
        <ele>1049.2</ele>
        <time>2022-07-17T07:49:13Z</time>
      </trkpt>
      <trkpt lat="45.20382" lon="6.45368">
        <ele>1049.2</ele>
        <time>2022-07-17T07:49:14Z</time>
      </trkpt>
      <trkpt lat="45.20382" lon="6.45371">
        <ele>1049.4</ele>
        <time>2022-07-17T07:49:15Z</time>
      </trkpt>
      <trkpt lat="45.20382" lon="6.45375">
        <ele>1049.4</ele>
        <time>2022-07-17T07:49:16Z</time>
      </trkpt>
      <trkpt lat="45.20382" lon="6.45379">
        <ele>1049.6</ele>
        <time>2022-07-17T07:49:17Z</time>
      </trkpt>
      <trkpt lat="45.20382" lon="6.45381">
        <ele>1049.6</ele>
        <time>2022-07-17T07:49:18Z</time>
      </trkpt>
      <trkpt lat="45.20381" lon="6.45384">
        <ele>1050</ele>
        <time>2022-07-17T07:49:19Z</time>
      </trkpt>
      <trkpt lat="45.20381" lon="6.45386">
        <ele>1050</ele>
        <time>2022-07-17T07:49:20Z</time>
      </trkpt>
      <trkpt lat="45.20381" lon="6.45389">
        <ele>1050.2</ele>
        <time>2022-07-17T07:49:21Z</time>
      </trkpt>
      <trkpt lat="45.20382" lon="6.45392">
        <ele>1050.4</ele>
        <time>2022-07-17T07:49:22Z</time>
      </trkpt>
      <trkpt lat="45.20382" lon="6.45396">
        <ele>1050.4</ele>
        <time>2022-07-17T07:49:23Z</time>
      </trkpt>
      <trkpt lat="45.20382" lon="6.45401">
        <ele>1050.8</ele>
        <time>2022-07-17T07:49:24Z</time>
      </trkpt>
      <trkpt lat="45.20381" lon="6.45404">
        <ele>1051.2</ele>
        <time>2022-07-17T07:49:26Z</time>
      </trkpt>
      <trkpt lat="45.20381" lon="6.45407">
        <ele>1051.2</ele>
        <time>2022-07-17T07:49:27Z</time>
      </trkpt>
      <trkpt lat="45.2038" lon="6.4541">
        <ele>1051.4</ele>
        <time>2022-07-17T07:49:28Z</time>
      </trkpt>
      <trkpt lat="45.20378" lon="6.45413">
        <ele>1051.4</ele>
        <time>2022-07-17T07:49:29Z</time>
      </trkpt>
      <trkpt lat="45.20377" lon="6.45416">
        <ele>1051.4</ele>
        <time>2022-07-17T07:49:30Z</time>
      </trkpt>
      <trkpt lat="45.20375" lon="6.45419">
        <ele>1051.8</ele>
        <time>2022-07-17T07:49:31Z</time>
      </trkpt>
      <trkpt lat="45.20373" lon="6.45423">
        <ele>1051.8</ele>
        <time>2022-07-17T07:49:32Z</time>
      </trkpt>
      <trkpt lat="45.20371" lon="6.45426">
        <ele>1052</ele>
        <time>2022-07-17T07:49:33Z</time>
      </trkpt>
      <trkpt lat="45.2037" lon="6.4543">
        <ele>1052</ele>
        <time>2022-07-17T07:49:34Z</time>
      </trkpt>
      <trkpt lat="45.20368" lon="6.45432">
        <ele>1052.4</ele>
        <time>2022-07-17T07:49:35Z</time>
      </trkpt>
      <trkpt lat="45.20366" lon="6.45436">
        <ele>1052.6</ele>
        <time>2022-07-17T07:49:36Z</time>
      </trkpt>
      <trkpt lat="45.20365" lon="6.45439">
        <ele>1052.8</ele>
        <time>2022-07-17T07:49:37Z</time>
      </trkpt>
      <trkpt lat="45.20364" lon="6.45442">
        <ele>1053.2</ele>
        <time>2022-07-17T07:49:38Z</time>
      </trkpt>
      <trkpt lat="45.20363" lon="6.45445">
        <ele>1053.4</ele>
        <time>2022-07-17T07:49:39Z</time>
      </trkpt>
      <trkpt lat="45.20361" lon="6.45448">
        <ele>1053.4</ele>
        <time>2022-07-17T07:49:40Z</time>
      </trkpt>
      <trkpt lat="45.2036" lon="6.4545">
        <ele>1053.6</ele>
        <time>2022-07-17T07:49:41Z</time>
      </trkpt>
      <trkpt lat="45.20359" lon="6.45452">
        <ele>1053.6</ele>
        <time>2022-07-17T07:49:42Z</time>
      </trkpt>
      <trkpt lat="45.20358" lon="6.45455">
        <ele>1054</ele>
        <time>2022-07-17T07:49:43Z</time>
      </trkpt>
      <trkpt lat="45.20358" lon="6.45458">
        <ele>1054.4</ele>
        <time>2022-07-17T07:49:44Z</time>
      </trkpt>
      <trkpt lat="45.20356" lon="6.45461">
        <ele>1054.6</ele>
        <time>2022-07-17T07:49:45Z</time>
      </trkpt>
      <trkpt lat="45.20355" lon="6.45464">
        <ele>1054.6</ele>
        <time>2022-07-17T07:49:46Z</time>
      </trkpt>
      <trkpt lat="45.20353" lon="6.45466">
        <ele>1055</ele>
        <time>2022-07-17T07:49:47Z</time>
      </trkpt>
      <trkpt lat="45.20351" lon="6.45469">
        <ele>1055</ele>
        <time>2022-07-17T07:49:48Z</time>
      </trkpt>
      <trkpt lat="45.20349" lon="6.45472">
        <ele>1055.2</ele>
        <time>2022-07-17T07:49:49Z</time>
      </trkpt>
      <trkpt lat="45.20346" lon="6.45475">
        <ele>1055.4</ele>
        <time>2022-07-17T07:49:50Z</time>
      </trkpt>
      <trkpt lat="45.20345" lon="6.45478">
        <ele>1055.8</ele>
        <time>2022-07-17T07:49:51Z</time>
      </trkpt>
      <trkpt lat="45.20343" lon="6.4548">
        <ele>1056</ele>
        <time>2022-07-17T07:49:52Z</time>
      </trkpt>
      <trkpt lat="45.2034" lon="6.45482">
        <ele>1056.2</ele>
        <time>2022-07-17T07:49:53Z</time>
      </trkpt>
      <trkpt lat="45.20338" lon="6.45484">
        <ele>1056.4</ele>
        <time>2022-07-17T07:49:54Z</time>
      </trkpt>
      <trkpt lat="45.20335" lon="6.45487">
        <ele>1056.6</ele>
        <time>2022-07-17T07:49:55Z</time>
      </trkpt>
      <trkpt lat="45.20332" lon="6.45489">
        <ele>1056.6</ele>
        <time>2022-07-17T07:49:56Z</time>
      </trkpt>
      <trkpt lat="45.20329" lon="6.45491">
        <ele>1057</ele>
        <time>2022-07-17T07:49:57Z</time>
      </trkpt>
      <trkpt lat="45.20326" lon="6.45492">
        <ele>1057.2</ele>
        <time>2022-07-17T07:49:58Z</time>
      </trkpt>
      <trkpt lat="45.20324" lon="6.45493">
        <ele>1057.2</ele>
        <time>2022-07-17T07:49:59Z</time>
      </trkpt>
      <trkpt lat="45.20321" lon="6.45494">
        <ele>1057.6</ele>
        <time>2022-07-17T07:50:00Z</time>
      </trkpt>
      <trkpt lat="45.20319" lon="6.45496">
        <ele>1057.6</ele>
        <time>2022-07-17T07:50:01Z</time>
      </trkpt>
      <trkpt lat="45.20317" lon="6.45498">
        <ele>1058</ele>
        <time>2022-07-17T07:50:02Z</time>
      </trkpt>
      <trkpt lat="45.20316" lon="6.455">
        <ele>1058</ele>
        <time>2022-07-17T07:50:03Z</time>
      </trkpt>
      <trkpt lat="45.20314" lon="6.45501">
        <ele>1058.4</ele>
        <time>2022-07-17T07:50:04Z</time>
      </trkpt>
      <trkpt lat="45.20312" lon="6.45503">
        <ele>1058.6</ele>
        <time>2022-07-17T07:50:05Z</time>
      </trkpt>
      <trkpt lat="45.2031" lon="6.45504">
        <ele>1058.8</ele>
        <time>2022-07-17T07:50:06Z</time>
      </trkpt>
      <trkpt lat="45.20307" lon="6.45506">
        <ele>1059</ele>
        <time>2022-07-17T07:50:07Z</time>
      </trkpt>
      <trkpt lat="45.20305" lon="6.45508">
        <ele>1059</ele>
        <time>2022-07-17T07:50:08Z</time>
      </trkpt>
      <trkpt lat="45.20302" lon="6.4551">
        <ele>1059.4</ele>
        <time>2022-07-17T07:50:09Z</time>
      </trkpt>
      <trkpt lat="45.203" lon="6.45511">
        <ele>1059.6</ele>
        <time>2022-07-17T07:50:10Z</time>
      </trkpt>
      <trkpt lat="45.20297" lon="6.45513">
        <ele>1059.8</ele>
        <time>2022-07-17T07:50:11Z</time>
      </trkpt>
      <trkpt lat="45.20295" lon="6.45515">
        <ele>1059.8</ele>
        <time>2022-07-17T07:50:12Z</time>
      </trkpt>
      <trkpt lat="45.20293" lon="6.45517">
        <ele>1060.2</ele>
        <time>2022-07-17T07:50:13Z</time>
      </trkpt>
      <trkpt lat="45.20291" lon="6.45519">
        <ele>1060.4</ele>
        <time>2022-07-17T07:50:14Z</time>
      </trkpt>
      <trkpt lat="45.20289" lon="6.45521">
        <ele>1060.6</ele>
        <time>2022-07-17T07:50:15Z</time>
      </trkpt>
      <trkpt lat="45.20288" lon="6.45523">
        <ele>1060.8</ele>
        <time>2022-07-17T07:50:16Z</time>
      </trkpt>
      <trkpt lat="45.20286" lon="6.45525">
        <ele>1061</ele>
        <time>2022-07-17T07:50:17Z</time>
      </trkpt>
      <trkpt lat="45.20283" lon="6.45527">
        <ele>1061.2</ele>
        <time>2022-07-17T07:50:18Z</time>
      </trkpt>
      <trkpt lat="45.20281" lon="6.4553">
        <ele>1061.2</ele>
        <time>2022-07-17T07:50:19Z</time>
      </trkpt>
      <trkpt lat="45.20279" lon="6.45532">
        <ele>1061.6</ele>
        <time>2022-07-17T07:50:20Z</time>
      </trkpt>
      <trkpt lat="45.20277" lon="6.45533">
        <ele>1062</ele>
        <time>2022-07-17T07:50:21Z</time>
      </trkpt>
      <trkpt lat="45.20275" lon="6.45535">
        <ele>1062.2</ele>
        <time>2022-07-17T07:50:22Z</time>
      </trkpt>
      <trkpt lat="45.20273" lon="6.45537">
        <ele>1062.4</ele>
        <time>2022-07-17T07:50:23Z</time>
      </trkpt>
      <trkpt lat="45.20271" lon="6.45539">
        <ele>1062.6</ele>
        <time>2022-07-17T07:50:24Z</time>
      </trkpt>
      <trkpt lat="45.20269" lon="6.45541">
        <ele>1062.6</ele>
        <time>2022-07-17T07:50:25Z</time>
      </trkpt>
      <trkpt lat="45.20268" lon="6.45543">
        <ele>1063</ele>
        <time>2022-07-17T07:50:26Z</time>
      </trkpt>
      <trkpt lat="45.20266" lon="6.45545">
        <ele>1063</ele>
        <time>2022-07-17T07:50:27Z</time>
      </trkpt>
      <trkpt lat="45.20264" lon="6.45547">
        <ele>1063.4</ele>
        <time>2022-07-17T07:50:28Z</time>
      </trkpt>
      <trkpt lat="45.20263" lon="6.45549">
        <ele>1063.6</ele>
        <time>2022-07-17T07:50:29Z</time>
      </trkpt>
      <trkpt lat="45.20261" lon="6.45551">
        <ele>1063.8</ele>
        <time>2022-07-17T07:50:30Z</time>
      </trkpt>
      <trkpt lat="45.20259" lon="6.45553">
        <ele>1063.8</ele>
        <time>2022-07-17T07:50:31Z</time>
      </trkpt>
      <trkpt lat="45.20257" lon="6.45553">
        <ele>1064.2</ele>
        <time>2022-07-17T07:50:32Z</time>
      </trkpt>
      <trkpt lat="45.20255" lon="6.45553">
        <ele>1064.4</ele>
        <time>2022-07-17T07:50:33Z</time>
      </trkpt>
      <trkpt lat="45.20253" lon="6.45553">
        <ele>1064.4</ele>
        <time>2022-07-17T07:50:34Z</time>
      </trkpt>
      <trkpt lat="45.20251" lon="6.45553">
        <ele>1064.8</ele>
        <time>2022-07-17T07:50:35Z</time>
      </trkpt>
      <trkpt lat="45.20249" lon="6.45552">
        <ele>1064.8</ele>
        <time>2022-07-17T07:50:36Z</time>
      </trkpt>
      <trkpt lat="45.20246" lon="6.4555">
        <ele>1065</ele>
        <time>2022-07-17T07:50:37Z</time>
      </trkpt>
      <trkpt lat="45.20245" lon="6.45548">
        <ele>1065</ele>
        <time>2022-07-17T07:50:38Z</time>
      </trkpt>
      <trkpt lat="45.20243" lon="6.45545">
        <ele>1065.4</ele>
        <time>2022-07-17T07:50:39Z</time>
      </trkpt>
      <trkpt lat="45.20241" lon="6.45542">
        <ele>1065.4</ele>
        <time>2022-07-17T07:50:40Z</time>
      </trkpt>
      <trkpt lat="45.20241" lon="6.45539">
        <ele>1065.6</ele>
        <time>2022-07-17T07:50:41Z</time>
      </trkpt>
      <trkpt lat="45.20241" lon="6.45536">
        <ele>1065.6</ele>
        <time>2022-07-17T07:50:42Z</time>
      </trkpt>
      <trkpt lat="45.20241" lon="6.45533">
        <ele>1065.8</ele>
        <time>2022-07-17T07:50:43Z</time>
      </trkpt>
      <trkpt lat="45.20242" lon="6.45531">
        <ele>1065.8</ele>
        <time>2022-07-17T07:50:44Z</time>
      </trkpt>
      <trkpt lat="45.20243" lon="6.45528">
        <ele>1066</ele>
        <time>2022-07-17T07:50:45Z</time>
      </trkpt>
      <trkpt lat="45.20245" lon="6.45526">
        <ele>1066</ele>
        <time>2022-07-17T07:50:46Z</time>
      </trkpt>
      <trkpt lat="45.20248" lon="6.45525">
        <ele>1066.4</ele>
        <time>2022-07-17T07:50:47Z</time>
      </trkpt>
      <trkpt lat="45.2025" lon="6.45523">
        <ele>1066.4</ele>
        <time>2022-07-17T07:50:48Z</time>
      </trkpt>
      <trkpt lat="45.20251" lon="6.45521">
        <ele>1066.6</ele>
        <time>2022-07-17T07:50:49Z</time>
      </trkpt>
      <trkpt lat="45.20253" lon="6.45519">
        <ele>1066.6</ele>
        <time>2022-07-17T07:50:50Z</time>
      </trkpt>
      <trkpt lat="45.20255" lon="6.45517">
        <ele>1066.6</ele>
        <time>2022-07-17T07:50:51Z</time>
      </trkpt>
      <trkpt lat="45.20257" lon="6.45515">
        <ele>1066.8</ele>
        <time>2022-07-17T07:50:52Z</time>
      </trkpt>
      <trkpt lat="45.20258" lon="6.45513">
        <ele>1066.8</ele>
        <time>2022-07-17T07:50:53Z</time>
      </trkpt>
      <trkpt lat="45.2026" lon="6.4551">
        <ele>1067</ele>
        <time>2022-07-17T07:50:54Z</time>
      </trkpt>
      <trkpt lat="45.20261" lon="6.45508">
        <ele>1067</ele>
        <time>2022-07-17T07:50:55Z</time>
      </trkpt>
      <trkpt lat="45.20263" lon="6.45505">
        <ele>1067.4</ele>
        <time>2022-07-17T07:50:56Z</time>
      </trkpt>
      <trkpt lat="45.20264" lon="6.45503">
        <ele>1067.4</ele>
        <time>2022-07-17T07:50:57Z</time>
      </trkpt>
      <trkpt lat="45.20266" lon="6.455">
        <ele>1067.6</ele>
        <time>2022-07-17T07:50:58Z</time>
      </trkpt>
      <trkpt lat="45.20268" lon="6.45498">
        <ele>1067.6</ele>
        <time>2022-07-17T07:50:59Z</time>
      </trkpt>
      <trkpt lat="45.20269" lon="6.45495">
        <ele>1068</ele>
        <time>2022-07-17T07:51:00Z</time>
      </trkpt>
      <trkpt lat="45.2027" lon="6.45491">
        <ele>1068.2</ele>
        <time>2022-07-17T07:51:01Z</time>
      </trkpt>
      <trkpt lat="45.20271" lon="6.45489">
        <ele>1068.2</ele>
        <time>2022-07-17T07:51:02Z</time>
      </trkpt>
      <trkpt lat="45.20273" lon="6.45486">
        <ele>1068.4</ele>
        <time>2022-07-17T07:51:03Z</time>
      </trkpt>
      <trkpt lat="45.20275" lon="6.45484">
        <ele>1068.4</ele>
        <time>2022-07-17T07:51:04Z</time>
      </trkpt>
      <trkpt lat="45.20276" lon="6.45481">
        <ele>1068.8</ele>
        <time>2022-07-17T07:51:05Z</time>
      </trkpt>
      <trkpt lat="45.20277" lon="6.45478">
        <ele>1069</ele>
        <time>2022-07-17T07:51:06Z</time>
      </trkpt>
      <trkpt lat="45.20279" lon="6.45474">
        <ele>1069</ele>
        <time>2022-07-17T07:51:07Z</time>
      </trkpt>
      <trkpt lat="45.20281" lon="6.45472">
        <ele>1069.4</ele>
        <time>2022-07-17T07:51:08Z</time>
      </trkpt>
      <trkpt lat="45.20283" lon="6.45469">
        <ele>1069.4</ele>
        <time>2022-07-17T07:51:09Z</time>
      </trkpt>
      <trkpt lat="45.20285" lon="6.45467">
        <ele>1069.6</ele>
        <time>2022-07-17T07:51:10Z</time>
      </trkpt>
      <trkpt lat="45.20287" lon="6.45465">
        <ele>1069.6</ele>
        <time>2022-07-17T07:51:11Z</time>
      </trkpt>
      <trkpt lat="45.20289" lon="6.45462">
        <ele>1069.8</ele>
        <time>2022-07-17T07:51:12Z</time>
      </trkpt>
      <trkpt lat="45.2029" lon="6.45459">
        <ele>1069.8</ele>
        <time>2022-07-17T07:51:13Z</time>
      </trkpt>
      <trkpt lat="45.20293" lon="6.45457">
        <ele>1070.2</ele>
        <time>2022-07-17T07:51:14Z</time>
      </trkpt>
      <trkpt lat="45.20294" lon="6.45455">
        <ele>1070.2</ele>
        <time>2022-07-17T07:51:15Z</time>
      </trkpt>
      <trkpt lat="45.20296" lon="6.45452">
        <ele>1070.2</ele>
        <time>2022-07-17T07:51:16Z</time>
      </trkpt>
      <trkpt lat="45.20298" lon="6.4545">
        <ele>1070.4</ele>
        <time>2022-07-17T07:51:17Z</time>
      </trkpt>
      <trkpt lat="45.203" lon="6.45447">
        <ele>1070.4</ele>
        <time>2022-07-17T07:51:18Z</time>
      </trkpt>
      <trkpt lat="45.20302" lon="6.45445">
        <ele>1070.8</ele>
        <time>2022-07-17T07:51:19Z</time>
      </trkpt>
      <trkpt lat="45.20304" lon="6.45442">
        <ele>1070.8</ele>
        <time>2022-07-17T07:51:20Z</time>
      </trkpt>
      <trkpt lat="45.20306" lon="6.45439">
        <ele>1071</ele>
        <time>2022-07-17T07:51:21Z</time>
      </trkpt>
      <trkpt lat="45.20308" lon="6.45437">
        <ele>1071</ele>
        <time>2022-07-17T07:51:22Z</time>
      </trkpt>
      <trkpt lat="45.2031" lon="6.45435">
        <ele>1071.2</ele>
        <time>2022-07-17T07:51:23Z</time>
      </trkpt>
      <trkpt lat="45.20312" lon="6.45432">
        <ele>1071.4</ele>
        <time>2022-07-17T07:51:24Z</time>
      </trkpt>
      <trkpt lat="45.20313" lon="6.45429">
        <ele>1071.4</ele>
        <time>2022-07-17T07:51:25Z</time>
      </trkpt>
      <trkpt lat="45.20313" lon="6.45425">
        <ele>1071.8</ele>
        <time>2022-07-17T07:51:26Z</time>
      </trkpt>
      <trkpt lat="45.20314" lon="6.45421">
        <ele>1072</ele>
        <time>2022-07-17T07:51:27Z</time>
      </trkpt>
      <trkpt lat="45.20314" lon="6.45418">
        <ele>1072</ele>
        <time>2022-07-17T07:51:28Z</time>
      </trkpt>
      <trkpt lat="45.20314" lon="6.45415">
        <ele>1072.2</ele>
        <time>2022-07-17T07:51:29Z</time>
      </trkpt>
      <trkpt lat="45.20314" lon="6.45412">
        <ele>1072.2</ele>
        <time>2022-07-17T07:51:30Z</time>
      </trkpt>
      <trkpt lat="45.20313" lon="6.4541">
        <ele>1072.6</ele>
        <time>2022-07-17T07:51:31Z</time>
      </trkpt>
      <trkpt lat="45.20312" lon="6.45408">
        <ele>1072.6</ele>
        <time>2022-07-17T07:51:32Z</time>
      </trkpt>
      <trkpt lat="45.20311" lon="6.45406">
        <ele>1072.8</ele>
        <time>2022-07-17T07:51:33Z</time>
      </trkpt>
      <trkpt lat="45.20309" lon="6.45404">
        <ele>1073</ele>
        <time>2022-07-17T07:51:34Z</time>
      </trkpt>
      <trkpt lat="45.20307" lon="6.45402">
        <ele>1073</ele>
        <time>2022-07-17T07:51:35Z</time>
      </trkpt>
      <trkpt lat="45.20304" lon="6.45401">
        <ele>1073.4</ele>
        <time>2022-07-17T07:51:36Z</time>
      </trkpt>
      <trkpt lat="45.20301" lon="6.454">
        <ele>1073.4</ele>
        <time>2022-07-17T07:51:37Z</time>
      </trkpt>
      <trkpt lat="45.20299" lon="6.45401">
        <ele>1073.8</ele>
        <time>2022-07-17T07:51:38Z</time>
      </trkpt>
      <trkpt lat="45.20296" lon="6.45402">
        <ele>1074</ele>
        <time>2022-07-17T07:51:39Z</time>
      </trkpt>
      <trkpt lat="45.20293" lon="6.45402">
        <ele>1074</ele>
        <time>2022-07-17T07:51:40Z</time>
      </trkpt>
      <trkpt lat="45.2029" lon="6.45404">
        <ele>1074.2</ele>
        <time>2022-07-17T07:51:41Z</time>
      </trkpt>
      <trkpt lat="45.20289" lon="6.45407">
        <ele>1074.2</ele>
        <time>2022-07-17T07:51:42Z</time>
      </trkpt>
      <trkpt lat="45.20287" lon="6.4541">
        <ele>1074.6</ele>
        <time>2022-07-17T07:51:43Z</time>
      </trkpt>
      <trkpt lat="45.20285" lon="6.45413">
        <ele>1074.6</ele>
        <time>2022-07-17T07:51:44Z</time>
      </trkpt>
      <trkpt lat="45.20283" lon="6.45416">
        <ele>1074.8</ele>
        <time>2022-07-17T07:51:45Z</time>
      </trkpt>
      <trkpt lat="45.20281" lon="6.4542">
        <ele>1074.8</ele>
        <time>2022-07-17T07:51:46Z</time>
      </trkpt>
      <trkpt lat="45.20279" lon="6.45423">
        <ele>1075.2</ele>
        <time>2022-07-17T07:51:47Z</time>
      </trkpt>
      <trkpt lat="45.20278" lon="6.45426">
        <ele>1075.2</ele>
        <time>2022-07-17T07:51:48Z</time>
      </trkpt>
      <trkpt lat="45.20276" lon="6.45429">
        <ele>1075.2</ele>
        <time>2022-07-17T07:51:49Z</time>
      </trkpt>
      <trkpt lat="45.20274" lon="6.45431">
        <ele>1075.4</ele>
        <time>2022-07-17T07:51:50Z</time>
      </trkpt>
      <trkpt lat="45.20272" lon="6.45433">
        <ele>1075.4</ele>
        <time>2022-07-17T07:51:51Z</time>
      </trkpt>
      <trkpt lat="45.2027" lon="6.45435">
        <ele>1075.8</ele>
        <time>2022-07-17T07:51:52Z</time>
      </trkpt>
      <trkpt lat="45.20268" lon="6.45438">
        <ele>1075.8</ele>
        <time>2022-07-17T07:51:53Z</time>
      </trkpt>
      <trkpt lat="45.20266" lon="6.4544">
        <ele>1076</ele>
        <time>2022-07-17T07:51:54Z</time>
      </trkpt>
      <trkpt lat="45.20264" lon="6.45442">
        <ele>1076</ele>
        <time>2022-07-17T07:51:55Z</time>
      </trkpt>
      <trkpt lat="45.20262" lon="6.45444">
        <ele>1076.4</ele>
        <time>2022-07-17T07:51:56Z</time>
      </trkpt>
      <trkpt lat="45.2026" lon="6.45446">
        <ele>1076.4</ele>
        <time>2022-07-17T07:51:57Z</time>
      </trkpt>
      <trkpt lat="45.20258" lon="6.45448">
        <ele>1076.6</ele>
        <time>2022-07-17T07:51:58Z</time>
      </trkpt>
      <trkpt lat="45.20256" lon="6.4545">
        <ele>1076.6</ele>
        <time>2022-07-17T07:51:59Z</time>
      </trkpt>
      <trkpt lat="45.20254" lon="6.45453">
        <ele>1077</ele>
        <time>2022-07-17T07:52:00Z</time>
      </trkpt>
      <trkpt lat="45.20252" lon="6.45455">
        <ele>1077</ele>
        <time>2022-07-17T07:52:01Z</time>
      </trkpt>
      <trkpt lat="45.2025" lon="6.45457">
        <ele>1077.4</ele>
        <time>2022-07-17T07:52:02Z</time>
      </trkpt>
      <trkpt lat="45.20248" lon="6.45459">
        <ele>1077.6</ele>
        <time>2022-07-17T07:52:03Z</time>
      </trkpt>
      <trkpt lat="45.20246" lon="6.45461">
        <ele>1077.6</ele>
        <time>2022-07-17T07:52:04Z</time>
      </trkpt>
      <trkpt lat="45.20244" lon="6.45463">
        <ele>1077.8</ele>
        <time>2022-07-17T07:52:05Z</time>
      </trkpt>
      <trkpt lat="45.20242" lon="6.45465">
        <ele>1077.8</ele>
        <time>2022-07-17T07:52:06Z</time>
      </trkpt>
      <trkpt lat="45.2024" lon="6.45467">
        <ele>1078.2</ele>
        <time>2022-07-17T07:52:07Z</time>
      </trkpt>
      <trkpt lat="45.20238" lon="6.45469">
        <ele>1078.2</ele>
        <time>2022-07-17T07:52:08Z</time>
      </trkpt>
      <trkpt lat="45.20236" lon="6.4547">
        <ele>1078.6</ele>
        <time>2022-07-17T07:52:09Z</time>
      </trkpt>
      <trkpt lat="45.20233" lon="6.45471">
        <ele>1078.6</ele>
        <time>2022-07-17T07:52:10Z</time>
      </trkpt>
      <trkpt lat="45.20231" lon="6.45472">
        <ele>1078.8</ele>
        <time>2022-07-17T07:52:11Z</time>
      </trkpt>
      <trkpt lat="45.20229" lon="6.45473">
        <ele>1079</ele>
        <time>2022-07-17T07:52:12Z</time>
      </trkpt>
      <trkpt lat="45.20227" lon="6.45473">
        <ele>1079.2</ele>
        <time>2022-07-17T07:52:13Z</time>
      </trkpt>
      <trkpt lat="45.20225" lon="6.45473">
        <ele>1079.4</ele>
        <time>2022-07-17T07:52:14Z</time>
      </trkpt>
      <trkpt lat="45.20224" lon="6.45473">
        <ele>1079.6</ele>
        <time>2022-07-17T07:52:15Z</time>
      </trkpt>
      <trkpt lat="45.20222" lon="6.45474">
        <ele>1079.6</ele>
        <time>2022-07-17T07:52:16Z</time>
      </trkpt>
      <trkpt lat="45.2022" lon="6.45474">
        <ele>1080</ele>
        <time>2022-07-17T07:52:17Z</time>
      </trkpt>
      <trkpt lat="45.20218" lon="6.45475">
        <ele>1080</ele>
        <time>2022-07-17T07:52:18Z</time>
      </trkpt>
      <trkpt lat="45.20216" lon="6.45475">
        <ele>1080.4</ele>
        <time>2022-07-17T07:52:19Z</time>
      </trkpt>
      <trkpt lat="45.20214" lon="6.45476">
        <ele>1080.6</ele>
        <time>2022-07-17T07:52:20Z</time>
      </trkpt>
      <trkpt lat="45.20211" lon="6.45476">
        <ele>1080.6</ele>
        <time>2022-07-17T07:52:21Z</time>
      </trkpt>
      <trkpt lat="45.20209" lon="6.45477">
        <ele>1081</ele>
        <time>2022-07-17T07:52:22Z</time>
      </trkpt>
      <trkpt lat="45.20206" lon="6.45477">
        <ele>1081</ele>
        <time>2022-07-17T07:52:23Z</time>
      </trkpt>
      <trkpt lat="45.20204" lon="6.45478">
        <ele>1081.4</ele>
        <time>2022-07-17T07:52:24Z</time>
      </trkpt>
      <trkpt lat="45.20202" lon="6.45478">
        <ele>1081.4</ele>
        <time>2022-07-17T07:52:25Z</time>
      </trkpt>
      <trkpt lat="45.202" lon="6.4548">
        <ele>1081.8</ele>
        <time>2022-07-17T07:52:26Z</time>
      </trkpt>
      <trkpt lat="45.20198" lon="6.45482">
        <ele>1082</ele>
        <time>2022-07-17T07:52:27Z</time>
      </trkpt>
      <trkpt lat="45.20196" lon="6.45484">
        <ele>1082.2</ele>
        <time>2022-07-17T07:52:28Z</time>
      </trkpt>
      <trkpt lat="45.20194" lon="6.45486">
        <ele>1082.2</ele>
        <time>2022-07-17T07:52:29Z</time>
      </trkpt>
      <trkpt lat="45.20192" lon="6.45488">
        <ele>1082.4</ele>
        <time>2022-07-17T07:52:30Z</time>
      </trkpt>
      <trkpt lat="45.20191" lon="6.45491">
        <ele>1082.4</ele>
        <time>2022-07-17T07:52:31Z</time>
      </trkpt>
      <trkpt lat="45.2019" lon="6.45494">
        <ele>1082.8</ele>
        <time>2022-07-17T07:52:32Z</time>
      </trkpt>
      <trkpt lat="45.20189" lon="6.45497">
        <ele>1082.8</ele>
        <time>2022-07-17T07:52:33Z</time>
      </trkpt>
      <trkpt lat="45.20189" lon="6.45501">
        <ele>1083.2</ele>
        <time>2022-07-17T07:52:34Z</time>
      </trkpt>
      <trkpt lat="45.20188" lon="6.45504">
        <ele>1083.2</ele>
        <time>2022-07-17T07:52:35Z</time>
      </trkpt>
      <trkpt lat="45.20188" lon="6.45507">
        <ele>1083.4</ele>
        <time>2022-07-17T07:52:36Z</time>
      </trkpt>
      <trkpt lat="45.20188" lon="6.4551">
        <ele>1083.6</ele>
        <time>2022-07-17T07:52:37Z</time>
      </trkpt>
      <trkpt lat="45.20188" lon="6.45514">
        <ele>1083.6</ele>
        <time>2022-07-17T07:52:38Z</time>
      </trkpt>
      <trkpt lat="45.20188" lon="6.45517">
        <ele>1084</ele>
        <time>2022-07-17T07:52:39Z</time>
      </trkpt>
      <trkpt lat="45.20188" lon="6.4552">
        <ele>1084.2</ele>
        <time>2022-07-17T07:52:40Z</time>
      </trkpt>
      <trkpt lat="45.20189" lon="6.45524">
        <ele>1084.2</ele>
        <time>2022-07-17T07:52:41Z</time>
      </trkpt>
      <trkpt lat="45.20189" lon="6.45527">
        <ele>1084.6</ele>
        <time>2022-07-17T07:52:42Z</time>
      </trkpt>
      <trkpt lat="45.20189" lon="6.4553">
        <ele>1084.8</ele>
        <time>2022-07-17T07:52:43Z</time>
      </trkpt>
      <trkpt lat="45.20189" lon="6.45533">
        <ele>1085</ele>
        <time>2022-07-17T07:52:44Z</time>
      </trkpt>
      <trkpt lat="45.2019" lon="6.45536">
        <ele>1085.2</ele>
        <time>2022-07-17T07:52:45Z</time>
      </trkpt>
      <trkpt lat="45.20191" lon="6.45539">
        <ele>1085.4</ele>
        <time>2022-07-17T07:52:46Z</time>
      </trkpt>
      <trkpt lat="45.20192" lon="6.45541">
        <ele>1085.4</ele>
        <time>2022-07-17T07:52:47Z</time>
      </trkpt>
      <trkpt lat="45.20192" lon="6.45544">
        <ele>1085.8</ele>
        <time>2022-07-17T07:52:48Z</time>
      </trkpt>
      <trkpt lat="45.20193" lon="6.45547">
        <ele>1085.8</ele>
        <time>2022-07-17T07:52:49Z</time>
      </trkpt>
      <trkpt lat="45.20194" lon="6.4555">
        <ele>1086.2</ele>
        <time>2022-07-17T07:52:50Z</time>
      </trkpt>
      <trkpt lat="45.20195" lon="6.45552">
        <ele>1086.2</ele>
        <time>2022-07-17T07:52:51Z</time>
      </trkpt>
      <trkpt lat="45.20196" lon="6.45555">
        <ele>1086.6</ele>
        <time>2022-07-17T07:52:52Z</time>
      </trkpt>
      <trkpt lat="45.20196" lon="6.45558">
        <ele>1086.8</ele>
        <time>2022-07-17T07:52:53Z</time>
      </trkpt>
      <trkpt lat="45.20197" lon="6.4556">
        <ele>1087</ele>
        <time>2022-07-17T07:52:54Z</time>
      </trkpt>
      <trkpt lat="45.20198" lon="6.45563">
        <ele>1087.4</ele>
        <time>2022-07-17T07:52:55Z</time>
      </trkpt>
      <trkpt lat="45.20199" lon="6.45565">
        <ele>1087.6</ele>
        <time>2022-07-17T07:52:56Z</time>
      </trkpt>
      <trkpt lat="45.202" lon="6.45568">
        <ele>1087.8</ele>
        <time>2022-07-17T07:52:57Z</time>
      </trkpt>
      <trkpt lat="45.20201" lon="6.45571">
        <ele>1088</ele>
        <time>2022-07-17T07:52:58Z</time>
      </trkpt>
      <trkpt lat="45.20202" lon="6.45574">
        <ele>1088.2</ele>
        <time>2022-07-17T07:52:59Z</time>
      </trkpt>
      <trkpt lat="45.20203" lon="6.45577">
        <ele>1088.2</ele>
        <time>2022-07-17T07:53:00Z</time>
      </trkpt>
      <trkpt lat="45.20204" lon="6.4558">
        <ele>1088.6</ele>
        <time>2022-07-17T07:53:01Z</time>
      </trkpt>
      <trkpt lat="45.20205" lon="6.45583">
        <ele>1088.8</ele>
        <time>2022-07-17T07:53:02Z</time>
      </trkpt>
      <trkpt lat="45.20206" lon="6.45586">
        <ele>1089.2</ele>
        <time>2022-07-17T07:53:03Z</time>
      </trkpt>
      <trkpt lat="45.20206" lon="6.45589">
        <ele>1089.4</ele>
        <time>2022-07-17T07:53:04Z</time>
      </trkpt>
      <trkpt lat="45.20207" lon="6.45592">
        <ele>1089.6</ele>
        <time>2022-07-17T07:53:05Z</time>
      </trkpt>
      <trkpt lat="45.20209" lon="6.45594">
        <ele>1089.6</ele>
        <time>2022-07-17T07:53:06Z</time>
      </trkpt>
      <trkpt lat="45.2021" lon="6.45597">
        <ele>1090</ele>
        <time>2022-07-17T07:53:07Z</time>
      </trkpt>
      <trkpt lat="45.20211" lon="6.456">
        <ele>1090.2</ele>
        <time>2022-07-17T07:53:08Z</time>
      </trkpt>
      <trkpt lat="45.20212" lon="6.45602">
        <ele>1090.4</ele>
        <time>2022-07-17T07:53:09Z</time>
      </trkpt>
      <trkpt lat="45.20212" lon="6.45606">
        <ele>1090.8</ele>
        <time>2022-07-17T07:53:10Z</time>
      </trkpt>
      <trkpt lat="45.20211" lon="6.45609">
        <ele>1091</ele>
        <time>2022-07-17T07:53:11Z</time>
      </trkpt>
      <trkpt lat="45.20211" lon="6.45613">
        <ele>1091.2</ele>
        <time>2022-07-17T07:53:12Z</time>
      </trkpt>
      <trkpt lat="45.2021" lon="6.45616">
        <ele>1091.4</ele>
        <time>2022-07-17T07:53:13Z</time>
      </trkpt>
      <trkpt lat="45.20208" lon="6.45619">
        <ele>1091.8</ele>
        <time>2022-07-17T07:53:14Z</time>
      </trkpt>
      <trkpt lat="45.20206" lon="6.45622">
        <ele>1092</ele>
        <time>2022-07-17T07:53:15Z</time>
      </trkpt>
      <trkpt lat="45.20204" lon="6.45625">
        <ele>1092.2</ele>
        <time>2022-07-17T07:53:16Z</time>
      </trkpt>
      <trkpt lat="45.20202" lon="6.45627">
        <ele>1092.4</ele>
        <time>2022-07-17T07:53:17Z</time>
      </trkpt>
      <trkpt lat="45.202" lon="6.45628">
        <ele>1092.4</ele>
        <time>2022-07-17T07:53:18Z</time>
      </trkpt>
      <trkpt lat="45.20198" lon="6.4563">
        <ele>1092.8</ele>
        <time>2022-07-17T07:53:19Z</time>
      </trkpt>
      <trkpt lat="45.20196" lon="6.45631">
        <ele>1092.8</ele>
        <time>2022-07-17T07:53:20Z</time>
      </trkpt>
      <trkpt lat="45.20194" lon="6.45632">
        <ele>1093.2</ele>
        <time>2022-07-17T07:53:21Z</time>
      </trkpt>
      <trkpt lat="45.20192" lon="6.45633">
        <ele>1093.2</ele>
        <time>2022-07-17T07:53:22Z</time>
      </trkpt>
      <trkpt lat="45.2019" lon="6.45633">
        <ele>1093.6</ele>
        <time>2022-07-17T07:53:23Z</time>
      </trkpt>
      <trkpt lat="45.20188" lon="6.45634">
        <ele>1093.8</ele>
        <time>2022-07-17T07:53:24Z</time>
      </trkpt>
      <trkpt lat="45.20187" lon="6.45633">
        <ele>1094</ele>
        <time>2022-07-17T07:53:25Z</time>
      </trkpt>
      <trkpt lat="45.20185" lon="6.45633">
        <ele>1094</ele>
        <time>2022-07-17T07:53:26Z</time>
      </trkpt>
      <trkpt lat="45.20183" lon="6.45633">
        <ele>1094.4</ele>
        <time>2022-07-17T07:53:27Z</time>
      </trkpt>
      <trkpt lat="45.20181" lon="6.45633">
        <ele>1094.4</ele>
        <time>2022-07-17T07:53:28Z</time>
      </trkpt>
      <trkpt lat="45.2018" lon="6.45633">
        <ele>1094.6</ele>
        <time>2022-07-17T07:53:29Z</time>
      </trkpt>
      <trkpt lat="45.20177" lon="6.45632">
        <ele>1094.6</ele>
        <time>2022-07-17T07:53:30Z</time>
      </trkpt>
      <trkpt lat="45.20175" lon="6.45632">
        <ele>1095</ele>
        <time>2022-07-17T07:53:31Z</time>
      </trkpt>
      <trkpt lat="45.20173" lon="6.45632">
        <ele>1095.2</ele>
        <time>2022-07-17T07:53:32Z</time>
      </trkpt>
      <trkpt lat="45.20171" lon="6.45632">
        <ele>1095.6</ele>
        <time>2022-07-17T07:53:33Z</time>
      </trkpt>
      <trkpt lat="45.20169" lon="6.45632">
        <ele>1095.8</ele>
        <time>2022-07-17T07:53:34Z</time>
      </trkpt>
      <trkpt lat="45.20166" lon="6.45633">
        <ele>1096</ele>
        <time>2022-07-17T07:53:35Z</time>
      </trkpt>
      <trkpt lat="45.20164" lon="6.45633">
        <ele>1096.2</ele>
        <time>2022-07-17T07:53:36Z</time>
      </trkpt>
      <trkpt lat="45.20163" lon="6.45633">
        <ele>1096.4</ele>
        <time>2022-07-17T07:53:37Z</time>
      </trkpt>
      <trkpt lat="45.20162" lon="6.45633">
        <ele>1096.6</ele>
        <time>2022-07-17T07:53:38Z</time>
      </trkpt>
      <trkpt lat="45.20161" lon="6.45633">
        <ele>1096.6</ele>
        <time>2022-07-17T07:53:39Z</time>
      </trkpt>
      <trkpt lat="45.20159" lon="6.45633">
        <ele>1097.2</ele>
        <time>2022-07-17T07:53:40Z</time>
      </trkpt>
      <trkpt lat="45.20157" lon="6.45633">
        <ele>1097.4</ele>
        <time>2022-07-17T07:53:41Z</time>
      </trkpt>
      <trkpt lat="45.20155" lon="6.45633">
        <ele>1097.6</ele>
        <time>2022-07-17T07:53:42Z</time>
      </trkpt>
      <trkpt lat="45.20154" lon="6.45634">
        <ele>1097.6</ele>
        <time>2022-07-17T07:53:43Z</time>
      </trkpt>
      <trkpt lat="45.20152" lon="6.45634">
        <ele>1098</ele>
        <time>2022-07-17T07:53:44Z</time>
      </trkpt>
      <trkpt lat="45.2015" lon="6.45636">
        <ele>1098.2</ele>
        <time>2022-07-17T07:53:45Z</time>
      </trkpt>
      <trkpt lat="45.20149" lon="6.45637">
        <ele>1098.6</ele>
        <time>2022-07-17T07:53:46Z</time>
      </trkpt>
      <trkpt lat="45.20147" lon="6.45638">
        <ele>1098.6</ele>
        <time>2022-07-17T07:53:47Z</time>
      </trkpt>
      <trkpt lat="45.20146" lon="6.45641">
        <ele>1098.8</ele>
        <time>2022-07-17T07:53:48Z</time>
      </trkpt>
      <trkpt lat="45.20144" lon="6.45644">
        <ele>1099</ele>
        <time>2022-07-17T07:53:49Z</time>
      </trkpt>
      <trkpt lat="45.20143" lon="6.45647">
        <ele>1099</ele>
        <time>2022-07-17T07:53:50Z</time>
      </trkpt>
      <trkpt lat="45.20142" lon="6.4565">
        <ele>1099.4</ele>
        <time>2022-07-17T07:53:51Z</time>
      </trkpt>
      <trkpt lat="45.2014" lon="6.45653">
        <ele>1099.4</ele>
        <time>2022-07-17T07:53:52Z</time>
      </trkpt>
      <trkpt lat="45.20139" lon="6.45656">
        <ele>1099.6</ele>
        <time>2022-07-17T07:53:53Z</time>
      </trkpt>
      <trkpt lat="45.20138" lon="6.45659">
        <ele>1099.6</ele>
        <time>2022-07-17T07:53:54Z</time>
      </trkpt>
      <trkpt lat="45.20137" lon="6.45663">
        <ele>1100</ele>
        <time>2022-07-17T07:53:55Z</time>
      </trkpt>
      <trkpt lat="45.20136" lon="6.45667">
        <ele>1100</ele>
        <time>2022-07-17T07:53:56Z</time>
      </trkpt>
      <trkpt lat="45.20134" lon="6.45672">
        <ele>1100.4</ele>
        <time>2022-07-17T07:53:57Z</time>
      </trkpt>
      <trkpt lat="45.20134" lon="6.45676">
        <ele>1100.4</ele>
        <time>2022-07-17T07:53:58Z</time>
      </trkpt>
      <trkpt lat="45.20135" lon="6.45679">
        <ele>1100.6</ele>
        <time>2022-07-17T07:53:59Z</time>
      </trkpt>
      <trkpt lat="45.20136" lon="6.45682">
        <ele>1100.6</ele>
        <time>2022-07-17T07:54:00Z</time>
      </trkpt>
      <trkpt lat="45.20138" lon="6.45684">
        <ele>1101</ele>
        <time>2022-07-17T07:54:01Z</time>
      </trkpt>
      <trkpt lat="45.20139" lon="6.45686">
        <ele>1101</ele>
        <time>2022-07-17T07:54:02Z</time>
      </trkpt>
      <trkpt lat="45.20141" lon="6.45688">
        <ele>1101.4</ele>
        <time>2022-07-17T07:54:03Z</time>
      </trkpt>
      <trkpt lat="45.20142" lon="6.4569">
        <ele>1101.4</ele>
        <time>2022-07-17T07:54:04Z</time>
      </trkpt>
      <trkpt lat="45.20144" lon="6.45692">
        <ele>1101.6</ele>
        <time>2022-07-17T07:54:05Z</time>
      </trkpt>
      <trkpt lat="45.20145" lon="6.45694">
        <ele>1102</ele>
        <time>2022-07-17T07:54:06Z</time>
      </trkpt>
      <trkpt lat="45.20146" lon="6.45696">
        <ele>1102</ele>
        <time>2022-07-17T07:54:07Z</time>
      </trkpt>
      <trkpt lat="45.20147" lon="6.45698">
        <ele>1102.2</ele>
        <time>2022-07-17T07:54:08Z</time>
      </trkpt>
      <trkpt lat="45.20149" lon="6.457">
        <ele>1102.2</ele>
        <time>2022-07-17T07:54:09Z</time>
      </trkpt>
      <trkpt lat="45.2015" lon="6.45702">
        <ele>1102.6</ele>
        <time>2022-07-17T07:54:10Z</time>
      </trkpt>
      <trkpt lat="45.20151" lon="6.45704">
        <ele>1102.6</ele>
        <time>2022-07-17T07:54:11Z</time>
      </trkpt>
      <trkpt lat="45.20153" lon="6.45706">
        <ele>1103</ele>
        <time>2022-07-17T07:54:12Z</time>
      </trkpt>
      <trkpt lat="45.20155" lon="6.45708">
        <ele>1103.2</ele>
        <time>2022-07-17T07:54:13Z</time>
      </trkpt>
      <trkpt lat="45.20156" lon="6.4571">
        <ele>1103.2</ele>
        <time>2022-07-17T07:54:14Z</time>
      </trkpt>
      <trkpt lat="45.20157" lon="6.45712">
        <ele>1103.6</ele>
        <time>2022-07-17T07:54:15Z</time>
      </trkpt>
      <trkpt lat="45.20159" lon="6.45714">
        <ele>1103.6</ele>
        <time>2022-07-17T07:54:16Z</time>
      </trkpt>
      <trkpt lat="45.20161" lon="6.45716">
        <ele>1104</ele>
        <time>2022-07-17T07:54:17Z</time>
      </trkpt>
      <trkpt lat="45.20163" lon="6.45718">
        <ele>1104.2</ele>
        <time>2022-07-17T07:54:18Z</time>
      </trkpt>
      <trkpt lat="45.20165" lon="6.4572">
        <ele>1104.4</ele>
        <time>2022-07-17T07:54:19Z</time>
      </trkpt>
      <trkpt lat="45.20166" lon="6.45722">
        <ele>1104.6</ele>
        <time>2022-07-17T07:54:20Z</time>
      </trkpt>
      <trkpt lat="45.20168" lon="6.45724">
        <ele>1104.6</ele>
        <time>2022-07-17T07:54:21Z</time>
      </trkpt>
      <trkpt lat="45.2017" lon="6.45727">
        <ele>1105</ele>
        <time>2022-07-17T07:54:22Z</time>
      </trkpt>
      <trkpt lat="45.20172" lon="6.45729">
        <ele>1105.2</ele>
        <time>2022-07-17T07:54:23Z</time>
      </trkpt>
      <trkpt lat="45.20173" lon="6.45732">
        <ele>1105.6</ele>
        <time>2022-07-17T07:54:24Z</time>
      </trkpt>
      <trkpt lat="45.20175" lon="6.45734">
        <ele>1105.8</ele>
        <time>2022-07-17T07:54:25Z</time>
      </trkpt>
      <trkpt lat="45.20177" lon="6.45735">
        <ele>1105.8</ele>
        <time>2022-07-17T07:54:26Z</time>
      </trkpt>
      <trkpt lat="45.20179" lon="6.45737">
        <ele>1106.2</ele>
        <time>2022-07-17T07:54:27Z</time>
      </trkpt>
      <trkpt lat="45.20181" lon="6.45739">
        <ele>1106.2</ele>
        <time>2022-07-17T07:54:28Z</time>
      </trkpt>
      <trkpt lat="45.20182" lon="6.4574">
        <ele>1106.6</ele>
        <time>2022-07-17T07:54:29Z</time>
      </trkpt>
      <trkpt lat="45.20184" lon="6.45742">
        <ele>1106.6</ele>
        <time>2022-07-17T07:54:30Z</time>
      </trkpt>
      <trkpt lat="45.20186" lon="6.45744">
        <ele>1107</ele>
        <time>2022-07-17T07:54:31Z</time>
      </trkpt>
      <trkpt lat="45.20188" lon="6.45745">
        <ele>1107</ele>
        <time>2022-07-17T07:54:32Z</time>
      </trkpt>
      <trkpt lat="45.2019" lon="6.45747">
        <ele>1107.4</ele>
        <time>2022-07-17T07:54:33Z</time>
      </trkpt>
      <trkpt lat="45.20192" lon="6.45748">
        <ele>1107.6</ele>
        <time>2022-07-17T07:54:34Z</time>
      </trkpt>
      <trkpt lat="45.20195" lon="6.45749">
        <ele>1107.6</ele>
        <time>2022-07-17T07:54:35Z</time>
      </trkpt>
      <trkpt lat="45.20197" lon="6.4575">
        <ele>1108</ele>
        <time>2022-07-17T07:54:36Z</time>
      </trkpt>
      <trkpt lat="45.20199" lon="6.45752">
        <ele>1108</ele>
        <time>2022-07-17T07:54:37Z</time>
      </trkpt>
      <trkpt lat="45.20202" lon="6.45754">
        <ele>1108.4</ele>
        <time>2022-07-17T07:54:38Z</time>
      </trkpt>
      <trkpt lat="45.20204" lon="6.45756">
        <ele>1108.4</ele>
        <time>2022-07-17T07:54:39Z</time>
      </trkpt>
      <trkpt lat="45.20207" lon="6.45758">
        <ele>1108.6</ele>
        <time>2022-07-17T07:54:40Z</time>
      </trkpt>
      <trkpt lat="45.20209" lon="6.4576">
        <ele>1108.8</ele>
        <time>2022-07-17T07:54:41Z</time>
      </trkpt>
      <trkpt lat="45.20211" lon="6.45762">
        <ele>1108.8</ele>
        <time>2022-07-17T07:54:42Z</time>
      </trkpt>
      <trkpt lat="45.20213" lon="6.45764">
        <ele>1109.2</ele>
        <time>2022-07-17T07:54:43Z</time>
      </trkpt>
      <trkpt lat="45.20215" lon="6.45766">
        <ele>1109.2</ele>
        <time>2022-07-17T07:54:44Z</time>
      </trkpt>
      <trkpt lat="45.20217" lon="6.45769">
        <ele>1109.4</ele>
        <time>2022-07-17T07:54:45Z</time>
      </trkpt>
      <trkpt lat="45.20219" lon="6.45772">
        <ele>1109.4</ele>
        <time>2022-07-17T07:54:46Z</time>
      </trkpt>
      <trkpt lat="45.20221" lon="6.45774">
        <ele>1109.8</ele>
        <time>2022-07-17T07:54:47Z</time>
      </trkpt>
      <trkpt lat="45.20223" lon="6.45777">
        <ele>1110</ele>
        <time>2022-07-17T07:54:48Z</time>
      </trkpt>
      <trkpt lat="45.20225" lon="6.45779">
        <ele>1110</ele>
        <time>2022-07-17T07:54:49Z</time>
      </trkpt>
      <trkpt lat="45.20227" lon="6.45781">
        <ele>1110.2</ele>
        <time>2022-07-17T07:54:50Z</time>
      </trkpt>
      <trkpt lat="45.20228" lon="6.45784">
        <ele>1110.2</ele>
        <time>2022-07-17T07:54:51Z</time>
      </trkpt>
      <trkpt lat="45.2023" lon="6.45786">
        <ele>1110.6</ele>
        <time>2022-07-17T07:54:52Z</time>
      </trkpt>
      <trkpt lat="45.20232" lon="6.45789">
        <ele>1110.6</ele>
        <time>2022-07-17T07:54:53Z</time>
      </trkpt>
      <trkpt lat="45.20234" lon="6.45791">
        <ele>1111</ele>
        <time>2022-07-17T07:54:54Z</time>
      </trkpt>
      <trkpt lat="45.20235" lon="6.45794">
        <ele>1111</ele>
        <time>2022-07-17T07:54:55Z</time>
      </trkpt>
      <trkpt lat="45.20237" lon="6.45798">
        <ele>1111.4</ele>
        <time>2022-07-17T07:54:56Z</time>
      </trkpt>
      <trkpt lat="45.20238" lon="6.45802">
        <ele>1111.4</ele>
        <time>2022-07-17T07:54:57Z</time>
      </trkpt>
      <trkpt lat="45.20239" lon="6.45806">
        <ele>1111.8</ele>
        <time>2022-07-17T07:54:58Z</time>
      </trkpt>
      <trkpt lat="45.2024" lon="6.45809">
        <ele>1112</ele>
        <time>2022-07-17T07:54:59Z</time>
      </trkpt>
      <trkpt lat="45.20241" lon="6.45813">
        <ele>1112.2</ele>
        <time>2022-07-17T07:55:00Z</time>
      </trkpt>
      <trkpt lat="45.20243" lon="6.45816">
        <ele>1112.4</ele>
        <time>2022-07-17T07:55:01Z</time>
      </trkpt>
      <trkpt lat="45.20244" lon="6.4582">
        <ele>1112.6</ele>
        <time>2022-07-17T07:55:02Z</time>
      </trkpt>
      <trkpt lat="45.20244" lon="6.45823">
        <ele>1112.8</ele>
        <time>2022-07-17T07:55:03Z</time>
      </trkpt>
      <trkpt lat="45.20245" lon="6.45827">
        <ele>1113.2</ele>
        <time>2022-07-17T07:55:04Z</time>
      </trkpt>
      <trkpt lat="45.20246" lon="6.4583">
        <ele>1113.4</ele>
        <time>2022-07-17T07:55:05Z</time>
      </trkpt>
      <trkpt lat="45.20247" lon="6.45833">
        <ele>1113.6</ele>
        <time>2022-07-17T07:55:06Z</time>
      </trkpt>
      <trkpt lat="45.20248" lon="6.45836">
        <ele>1113.6</ele>
        <time>2022-07-17T07:55:07Z</time>
      </trkpt>
      <trkpt lat="45.20249" lon="6.45839">
        <ele>1113.8</ele>
        <time>2022-07-17T07:55:08Z</time>
      </trkpt>
      <trkpt lat="45.2025" lon="6.45842">
        <ele>1113.8</ele>
        <time>2022-07-17T07:55:09Z</time>
      </trkpt>
      <trkpt lat="45.20252" lon="6.45845">
        <ele>1114.2</ele>
        <time>2022-07-17T07:55:10Z</time>
      </trkpt>
      <trkpt lat="45.20253" lon="6.45848">
        <ele>1114.2</ele>
        <time>2022-07-17T07:55:11Z</time>
      </trkpt>
      <trkpt lat="45.20254" lon="6.45851">
        <ele>1114.6</ele>
        <time>2022-07-17T07:55:12Z</time>
      </trkpt>
      <trkpt lat="45.20255" lon="6.45854">
        <ele>1114.6</ele>
        <time>2022-07-17T07:55:13Z</time>
      </trkpt>
      <trkpt lat="45.20257" lon="6.45857">
        <ele>1115</ele>
        <time>2022-07-17T07:55:14Z</time>
      </trkpt>
      <trkpt lat="45.20258" lon="6.4586">
        <ele>1115.2</ele>
        <time>2022-07-17T07:55:15Z</time>
      </trkpt>
      <trkpt lat="45.2026" lon="6.45863">
        <ele>1115.2</ele>
        <time>2022-07-17T07:55:16Z</time>
      </trkpt>
      <trkpt lat="45.20262" lon="6.45866">
        <ele>1115.4</ele>
        <time>2022-07-17T07:55:17Z</time>
      </trkpt>
      <trkpt lat="45.20263" lon="6.45868">
        <ele>1115.6</ele>
        <time>2022-07-17T07:55:18Z</time>
      </trkpt>
      <trkpt lat="45.20264" lon="6.45871">
        <ele>1115.6</ele>
        <time>2022-07-17T07:55:19Z</time>
      </trkpt>
      <trkpt lat="45.20266" lon="6.45873">
        <ele>1116</ele>
        <time>2022-07-17T07:55:20Z</time>
      </trkpt>
      <trkpt lat="45.20268" lon="6.45875">
        <ele>1116</ele>
        <time>2022-07-17T07:55:21Z</time>
      </trkpt>
      <trkpt lat="45.20269" lon="6.45878">
        <ele>1116.4</ele>
        <time>2022-07-17T07:55:22Z</time>
      </trkpt>
      <trkpt lat="45.2027" lon="6.45881">
        <ele>1116.4</ele>
        <time>2022-07-17T07:55:23Z</time>
      </trkpt>
      <trkpt lat="45.20272" lon="6.45884">
        <ele>1116.6</ele>
        <time>2022-07-17T07:55:24Z</time>
      </trkpt>
      <trkpt lat="45.20274" lon="6.45886">
        <ele>1116.6</ele>
        <time>2022-07-17T07:55:25Z</time>
      </trkpt>
      <trkpt lat="45.20275" lon="6.45889">
        <ele>1117</ele>
        <time>2022-07-17T07:55:26Z</time>
      </trkpt>
      <trkpt lat="45.20277" lon="6.45892">
        <ele>1117.2</ele>
        <time>2022-07-17T07:55:27Z</time>
      </trkpt>
      <trkpt lat="45.20278" lon="6.45894">
        <ele>1117.4</ele>
        <time>2022-07-17T07:55:28Z</time>
      </trkpt>
      <trkpt lat="45.2028" lon="6.45897">
        <ele>1117.4</ele>
        <time>2022-07-17T07:55:29Z</time>
      </trkpt>
      <trkpt lat="45.20281" lon="6.45899">
        <ele>1117.4</ele>
        <time>2022-07-17T07:55:30Z</time>
      </trkpt>
      <trkpt lat="45.20282" lon="6.45902">
        <ele>1117.6</ele>
        <time>2022-07-17T07:55:31Z</time>
      </trkpt>
      <trkpt lat="45.20284" lon="6.45905">
        <ele>1117.6</ele>
        <time>2022-07-17T07:55:32Z</time>
      </trkpt>
      <trkpt lat="45.20286" lon="6.45907">
        <ele>1118</ele>
        <time>2022-07-17T07:55:33Z</time>
      </trkpt>
      <trkpt lat="45.20288" lon="6.4591">
        <ele>1118</ele>
        <time>2022-07-17T07:55:34Z</time>
      </trkpt>
      <trkpt lat="45.2029" lon="6.45912">
        <ele>1118.2</ele>
        <time>2022-07-17T07:55:35Z</time>
      </trkpt>
      <trkpt lat="45.20291" lon="6.45915">
        <ele>1118.2</ele>
        <time>2022-07-17T07:55:36Z</time>
      </trkpt>
      <trkpt lat="45.20293" lon="6.45917">
        <ele>1118.4</ele>
        <time>2022-07-17T07:55:37Z</time>
      </trkpt>
      <trkpt lat="45.20295" lon="6.45919">
        <ele>1118.4</ele>
        <time>2022-07-17T07:55:38Z</time>
      </trkpt>
      <trkpt lat="45.20296" lon="6.45922">
        <ele>1118.8</ele>
        <time>2022-07-17T07:55:39Z</time>
      </trkpt>
      <trkpt lat="45.20297" lon="6.45925">
        <ele>1118.8</ele>
        <time>2022-07-17T07:55:40Z</time>
      </trkpt>
      <trkpt lat="45.20299" lon="6.45927">
        <ele>1119</ele>
        <time>2022-07-17T07:55:41Z</time>
      </trkpt>
      <trkpt lat="45.203" lon="6.4593">
        <ele>1119</ele>
        <time>2022-07-17T07:55:42Z</time>
      </trkpt>
      <trkpt lat="45.20302" lon="6.45933">
        <ele>1119.4</ele>
        <time>2022-07-17T07:55:43Z</time>
      </trkpt>
      <trkpt lat="45.20303" lon="6.45936">
        <ele>1119.4</ele>
        <time>2022-07-17T07:55:44Z</time>
      </trkpt>
      <trkpt lat="45.20304" lon="6.45939">
        <ele>1119.6</ele>
        <time>2022-07-17T07:55:45Z</time>
      </trkpt>
      <trkpt lat="45.20305" lon="6.45942">
        <ele>1119.8</ele>
        <time>2022-07-17T07:55:46Z</time>
      </trkpt>
      <trkpt lat="45.20306" lon="6.45945">
        <ele>1119.8</ele>
        <time>2022-07-17T07:55:47Z</time>
      </trkpt>
      <trkpt lat="45.20307" lon="6.45948">
        <ele>1120.2</ele>
        <time>2022-07-17T07:55:48Z</time>
      </trkpt>
      <trkpt lat="45.20308" lon="6.45952">
        <ele>1120.4</ele>
        <time>2022-07-17T07:55:49Z</time>
      </trkpt>
      <trkpt lat="45.2031" lon="6.45955">
        <ele>1120.4</ele>
        <time>2022-07-17T07:55:50Z</time>
      </trkpt>
      <trkpt lat="45.20311" lon="6.45958">
        <ele>1120.8</ele>
        <time>2022-07-17T07:55:51Z</time>
      </trkpt>
      <trkpt lat="45.20312" lon="6.4596">
        <ele>1120.8</ele>
        <time>2022-07-17T07:55:52Z</time>
      </trkpt>
      <trkpt lat="45.20313" lon="6.45964">
        <ele>1121.2</ele>
        <time>2022-07-17T07:55:53Z</time>
      </trkpt>
      <trkpt lat="45.20314" lon="6.45967">
        <ele>1121.2</ele>
        <time>2022-07-17T07:55:54Z</time>
      </trkpt>
      <trkpt lat="45.20315" lon="6.45969">
        <ele>1121.4</ele>
        <time>2022-07-17T07:55:55Z</time>
      </trkpt>
      <trkpt lat="45.20316" lon="6.45972">
        <ele>1121.4</ele>
        <time>2022-07-17T07:55:56Z</time>
      </trkpt>
      <trkpt lat="45.20317" lon="6.45975">
        <ele>1121.8</ele>
        <time>2022-07-17T07:55:57Z</time>
      </trkpt>
      <trkpt lat="45.20318" lon="6.45979">
        <ele>1121.8</ele>
        <time>2022-07-17T07:55:58Z</time>
      </trkpt>
      <trkpt lat="45.20319" lon="6.45981">
        <ele>1122</ele>
        <time>2022-07-17T07:55:59Z</time>
      </trkpt>
      <trkpt lat="45.2032" lon="6.45984">
        <ele>1122</ele>
        <time>2022-07-17T07:56:00Z</time>
      </trkpt>
      <trkpt lat="45.20322" lon="6.45987">
        <ele>1122.4</ele>
        <time>2022-07-17T07:56:01Z</time>
      </trkpt>
      <trkpt lat="45.20323" lon="6.4599">
        <ele>1122.6</ele>
        <time>2022-07-17T07:56:02Z</time>
      </trkpt>
      <trkpt lat="45.20324" lon="6.45994">
        <ele>1122.6</ele>
        <time>2022-07-17T07:56:03Z</time>
      </trkpt>
      <trkpt lat="45.20325" lon="6.45997">
        <ele>1123</ele>
        <time>2022-07-17T07:56:04Z</time>
      </trkpt>
      <trkpt lat="45.20325" lon="6.46">
        <ele>1123</ele>
        <time>2022-07-17T07:56:05Z</time>
      </trkpt>
      <trkpt lat="45.20326" lon="6.46003">
        <ele>1123.4</ele>
        <time>2022-07-17T07:56:06Z</time>
      </trkpt>
      <trkpt lat="45.20326" lon="6.46006">
        <ele>1123.4</ele>
        <time>2022-07-17T07:56:07Z</time>
      </trkpt>
      <trkpt lat="45.20327" lon="6.4601">
        <ele>1123.8</ele>
        <time>2022-07-17T07:56:08Z</time>
      </trkpt>
      <trkpt lat="45.20327" lon="6.46013">
        <ele>1123.8</ele>
        <time>2022-07-17T07:56:09Z</time>
      </trkpt>
      <trkpt lat="45.20328" lon="6.46017">
        <ele>1124.2</ele>
        <time>2022-07-17T07:56:10Z</time>
      </trkpt>
      <trkpt lat="45.20328" lon="6.4602">
        <ele>1124.4</ele>
        <time>2022-07-17T07:56:11Z</time>
      </trkpt>
      <trkpt lat="45.20328" lon="6.46023">
        <ele>1124.4</ele>
        <time>2022-07-17T07:56:12Z</time>
      </trkpt>
      <trkpt lat="45.20329" lon="6.46026">
        <ele>1124.8</ele>
        <time>2022-07-17T07:56:13Z</time>
      </trkpt>
      <trkpt lat="45.20329" lon="6.46029">
        <ele>1125</ele>
        <time>2022-07-17T07:56:14Z</time>
      </trkpt>
      <trkpt lat="45.20329" lon="6.46032">
        <ele>1125.2</ele>
        <time>2022-07-17T07:56:15Z</time>
      </trkpt>
      <trkpt lat="45.20329" lon="6.46035">
        <ele>1125.6</ele>
        <time>2022-07-17T07:56:16Z</time>
      </trkpt>
      <trkpt lat="45.20329" lon="6.46038">
        <ele>1125.8</ele>
        <time>2022-07-17T07:56:17Z</time>
      </trkpt>
      <trkpt lat="45.2033" lon="6.46041">
        <ele>1125.8</ele>
        <time>2022-07-17T07:56:18Z</time>
      </trkpt>
      <trkpt lat="45.2033" lon="6.46043">
        <ele>1126</ele>
        <time>2022-07-17T07:56:19Z</time>
      </trkpt>
      <trkpt lat="45.20331" lon="6.46046">
        <ele>1126</ele>
        <time>2022-07-17T07:56:20Z</time>
      </trkpt>
      <trkpt lat="45.20331" lon="6.46049">
        <ele>1126.4</ele>
        <time>2022-07-17T07:56:21Z</time>
      </trkpt>
      <trkpt lat="45.20332" lon="6.46053">
        <ele>1126.8</ele>
        <time>2022-07-17T07:56:22Z</time>
      </trkpt>
      <trkpt lat="45.20332" lon="6.46055">
        <ele>1127</ele>
        <time>2022-07-17T07:56:23Z</time>
      </trkpt>
      <trkpt lat="45.20332" lon="6.46058">
        <ele>1127</ele>
        <time>2022-07-17T07:56:24Z</time>
      </trkpt>
      <trkpt lat="45.20332" lon="6.46061">
        <ele>1127.4</ele>
        <time>2022-07-17T07:56:25Z</time>
      </trkpt>
      <trkpt lat="45.20333" lon="6.46064">
        <ele>1127.6</ele>
        <time>2022-07-17T07:56:26Z</time>
      </trkpt>
      <trkpt lat="45.20334" lon="6.46067">
        <ele>1127.6</ele>
        <time>2022-07-17T07:56:27Z</time>
      </trkpt>
      <trkpt lat="45.20334" lon="6.4607">
        <ele>1128</ele>
        <time>2022-07-17T07:56:28Z</time>
      </trkpt>
      <trkpt lat="45.20335" lon="6.46073">
        <ele>1128.2</ele>
        <time>2022-07-17T07:56:29Z</time>
      </trkpt>
      <trkpt lat="45.20335" lon="6.46076">
        <ele>1128.2</ele>
        <time>2022-07-17T07:56:30Z</time>
      </trkpt>
      <trkpt lat="45.20336" lon="6.46079">
        <ele>1128.8</ele>
        <time>2022-07-17T07:56:31Z</time>
      </trkpt>
      <trkpt lat="45.20336" lon="6.46082">
        <ele>1129</ele>
        <time>2022-07-17T07:56:32Z</time>
      </trkpt>
      <trkpt lat="45.20337" lon="6.46085">
        <ele>1129</ele>
        <time>2022-07-17T07:56:33Z</time>
      </trkpt>
      <trkpt lat="45.20338" lon="6.46087">
        <ele>1129.4</ele>
        <time>2022-07-17T07:56:34Z</time>
      </trkpt>
      <trkpt lat="45.2034" lon="6.4609">
        <ele>1129.4</ele>
        <time>2022-07-17T07:56:35Z</time>
      </trkpt>
      <trkpt lat="45.20341" lon="6.46093">
        <ele>1129.6</ele>
        <time>2022-07-17T07:56:36Z</time>
      </trkpt>
      <trkpt lat="45.20342" lon="6.46096">
        <ele>1129.6</ele>
        <time>2022-07-17T07:56:37Z</time>
      </trkpt>
      <trkpt lat="45.20343" lon="6.46099">
        <ele>1130</ele>
        <time>2022-07-17T07:56:38Z</time>
      </trkpt>
      <trkpt lat="45.20344" lon="6.46101">
        <ele>1130.2</ele>
        <time>2022-07-17T07:56:39Z</time>
      </trkpt>
      <trkpt lat="45.20345" lon="6.46104">
        <ele>1130.2</ele>
        <time>2022-07-17T07:56:40Z</time>
      </trkpt>
      <trkpt lat="45.20346" lon="6.46107">
        <ele>1130.6</ele>
        <time>2022-07-17T07:56:41Z</time>
      </trkpt>
      <trkpt lat="45.20348" lon="6.46109">
        <ele>1130.6</ele>
        <time>2022-07-17T07:56:42Z</time>
      </trkpt>
      <trkpt lat="45.20349" lon="6.46112">
        <ele>1131</ele>
        <time>2022-07-17T07:56:43Z</time>
      </trkpt>
      <trkpt lat="45.2035" lon="6.46115">
        <ele>1131</ele>
        <time>2022-07-17T07:56:44Z</time>
      </trkpt>
      <trkpt lat="45.20351" lon="6.46118">
        <ele>1131.4</ele>
        <time>2022-07-17T07:56:45Z</time>
      </trkpt>
      <trkpt lat="45.20352" lon="6.46121">
        <ele>1131.4</ele>
        <time>2022-07-17T07:56:46Z</time>
      </trkpt>
      <trkpt lat="45.20354" lon="6.46124">
        <ele>1131.6</ele>
        <time>2022-07-17T07:56:47Z</time>
      </trkpt>
      <trkpt lat="45.20354" lon="6.46127">
        <ele>1132</ele>
        <time>2022-07-17T07:56:48Z</time>
      </trkpt>
      <trkpt lat="45.20355" lon="6.4613">
        <ele>1132.2</ele>
        <time>2022-07-17T07:56:49Z</time>
      </trkpt>
      <trkpt lat="45.20356" lon="6.46134">
        <ele>1132.2</ele>
        <time>2022-07-17T07:56:50Z</time>
      </trkpt>
      <trkpt lat="45.20356" lon="6.46138">
        <ele>1132.6</ele>
        <time>2022-07-17T07:56:51Z</time>
      </trkpt>
      <trkpt lat="45.20356" lon="6.46141">
        <ele>1132.6</ele>
        <time>2022-07-17T07:56:52Z</time>
      </trkpt>
      <trkpt lat="45.20357" lon="6.46145">
        <ele>1132.8</ele>
        <time>2022-07-17T07:56:53Z</time>
      </trkpt>
      <trkpt lat="45.20356" lon="6.46148">
        <ele>1133</ele>
        <time>2022-07-17T07:56:54Z</time>
      </trkpt>
      <trkpt lat="45.20356" lon="6.46151">
        <ele>1133.4</ele>
        <time>2022-07-17T07:56:55Z</time>
      </trkpt>
      <trkpt lat="45.20357" lon="6.46155">
        <ele>1133.6</ele>
        <time>2022-07-17T07:56:56Z</time>
      </trkpt>
      <trkpt lat="45.20357" lon="6.46158">
        <ele>1134</ele>
        <time>2022-07-17T07:56:57Z</time>
      </trkpt>
      <trkpt lat="45.20356" lon="6.46161">
        <ele>1134</ele>
        <time>2022-07-17T07:56:58Z</time>
      </trkpt>
      <trkpt lat="45.20356" lon="6.46164">
        <ele>1134.2</ele>
        <time>2022-07-17T07:56:59Z</time>
      </trkpt>
      <trkpt lat="45.20357" lon="6.46168">
        <ele>1134.2</ele>
        <time>2022-07-17T07:57:00Z</time>
      </trkpt>
      <trkpt lat="45.20357" lon="6.46171">
        <ele>1134.6</ele>
        <time>2022-07-17T07:57:01Z</time>
      </trkpt>
      <trkpt lat="45.20357" lon="6.46174">
        <ele>1134.8</ele>
        <time>2022-07-17T07:57:02Z</time>
      </trkpt>
      <trkpt lat="45.20358" lon="6.46177">
        <ele>1134.8</ele>
        <time>2022-07-17T07:57:03Z</time>
      </trkpt>
      <trkpt lat="45.20358" lon="6.4618">
        <ele>1135.2</ele>
        <time>2022-07-17T07:57:04Z</time>
      </trkpt>
      <trkpt lat="45.20357" lon="6.46183">
        <ele>1135.4</ele>
        <time>2022-07-17T07:57:05Z</time>
      </trkpt>
      <trkpt lat="45.20357" lon="6.46186">
        <ele>1135.8</ele>
        <time>2022-07-17T07:57:06Z</time>
      </trkpt>
      <trkpt lat="45.20358" lon="6.46189">
        <ele>1136</ele>
        <time>2022-07-17T07:57:07Z</time>
      </trkpt>
      <trkpt lat="45.20357" lon="6.46192">
        <ele>1136</ele>
        <time>2022-07-17T07:57:08Z</time>
      </trkpt>
      <trkpt lat="45.20357" lon="6.46195">
        <ele>1136.4</ele>
        <time>2022-07-17T07:57:09Z</time>
      </trkpt>
      <trkpt lat="45.20358" lon="6.46198">
        <ele>1136.6</ele>
        <time>2022-07-17T07:57:10Z</time>
      </trkpt>
      <trkpt lat="45.20358" lon="6.46201">
        <ele>1136.6</ele>
        <time>2022-07-17T07:57:11Z</time>
      </trkpt>
      <trkpt lat="45.20358" lon="6.46204">
        <ele>1137</ele>
        <time>2022-07-17T07:57:12Z</time>
      </trkpt>
      <trkpt lat="45.20359" lon="6.46207">
        <ele>1137</ele>
        <time>2022-07-17T07:57:13Z</time>
      </trkpt>
      <trkpt lat="45.20359" lon="6.4621">
        <ele>1137.4</ele>
        <time>2022-07-17T07:57:14Z</time>
      </trkpt>
      <trkpt lat="45.2036" lon="6.46212">
        <ele>1137.6</ele>
        <time>2022-07-17T07:57:15Z</time>
      </trkpt>
      <trkpt lat="45.2036" lon="6.46215">
        <ele>1137.6</ele>
        <time>2022-07-17T07:57:16Z</time>
      </trkpt>
      <trkpt lat="45.2036" lon="6.46218">
        <ele>1138</ele>
        <time>2022-07-17T07:57:17Z</time>
      </trkpt>
      <trkpt lat="45.20361" lon="6.46221">
        <ele>1138.2</ele>
        <time>2022-07-17T07:57:18Z</time>
      </trkpt>
      <trkpt lat="45.20362" lon="6.46224">
        <ele>1138.2</ele>
        <time>2022-07-17T07:57:19Z</time>
      </trkpt>
      <trkpt lat="45.20363" lon="6.46228">
        <ele>1138.6</ele>
        <time>2022-07-17T07:57:20Z</time>
      </trkpt>
      <trkpt lat="45.20364" lon="6.46231">
        <ele>1138.6</ele>
        <time>2022-07-17T07:57:21Z</time>
      </trkpt>
      <trkpt lat="45.20364" lon="6.46234">
        <ele>1139</ele>
        <time>2022-07-17T07:57:22Z</time>
      </trkpt>
      <trkpt lat="45.20365" lon="6.46238">
        <ele>1139</ele>
        <time>2022-07-17T07:57:23Z</time>
      </trkpt>
      <trkpt lat="45.20364" lon="6.46241">
        <ele>1139.2</ele>
        <time>2022-07-17T07:57:24Z</time>
      </trkpt>
      <trkpt lat="45.20364" lon="6.46244">
        <ele>1139.4</ele>
        <time>2022-07-17T07:57:25Z</time>
      </trkpt>
      <trkpt lat="45.20364" lon="6.46247">
        <ele>1139.4</ele>
        <time>2022-07-17T07:57:26Z</time>
      </trkpt>
      <trkpt lat="45.20365" lon="6.4625">
        <ele>1140</ele>
        <time>2022-07-17T07:57:27Z</time>
      </trkpt>
      <trkpt lat="45.20365" lon="6.46254">
        <ele>1140.2</ele>
        <time>2022-07-17T07:57:28Z</time>
      </trkpt>
      <trkpt lat="45.20365" lon="6.46257">
        <ele>1140.2</ele>
        <time>2022-07-17T07:57:29Z</time>
      </trkpt>
      <trkpt lat="45.20365" lon="6.4626">
        <ele>1140.4</ele>
        <time>2022-07-17T07:57:30Z</time>
      </trkpt>
      <trkpt lat="45.20365" lon="6.46264">
        <ele>1140.4</ele>
        <time>2022-07-17T07:57:31Z</time>
      </trkpt>
      <trkpt lat="45.20366" lon="6.46267">
        <ele>1140.8</ele>
        <time>2022-07-17T07:57:32Z</time>
      </trkpt>
      <trkpt lat="45.20366" lon="6.46271">
        <ele>1140.8</ele>
        <time>2022-07-17T07:57:33Z</time>
      </trkpt>
      <trkpt lat="45.20366" lon="6.46275">
        <ele>1141.2</ele>
        <time>2022-07-17T07:57:34Z</time>
      </trkpt>
      <trkpt lat="45.20365" lon="6.46278">
        <ele>1141.2</ele>
        <time>2022-07-17T07:57:35Z</time>
      </trkpt>
      <trkpt lat="45.20365" lon="6.46281">
        <ele>1141.6</ele>
        <time>2022-07-17T07:57:36Z</time>
      </trkpt>
      <trkpt lat="45.20365" lon="6.46285">
        <ele>1141.8</ele>
        <time>2022-07-17T07:57:37Z</time>
      </trkpt>
      <trkpt lat="45.20364" lon="6.46288">
        <ele>1142.2</ele>
        <time>2022-07-17T07:57:38Z</time>
      </trkpt>
      <trkpt lat="45.20364" lon="6.46292">
        <ele>1142.4</ele>
        <time>2022-07-17T07:57:39Z</time>
      </trkpt>
      <trkpt lat="45.20363" lon="6.46295">
        <ele>1142.6</ele>
        <time>2022-07-17T07:57:40Z</time>
      </trkpt>
      <trkpt lat="45.20361" lon="6.46298">
        <ele>1143</ele>
        <time>2022-07-17T07:57:41Z</time>
      </trkpt>
      <trkpt lat="45.2036" lon="6.46302">
        <ele>1143.2</ele>
        <time>2022-07-17T07:57:42Z</time>
      </trkpt>
      <trkpt lat="45.20358" lon="6.46305">
        <ele>1143.2</ele>
        <time>2022-07-17T07:57:43Z</time>
      </trkpt>
      <trkpt lat="45.20355" lon="6.46308">
        <ele>1143.6</ele>
        <time>2022-07-17T07:57:44Z</time>
      </trkpt>
      <trkpt lat="45.20353" lon="6.46311">
        <ele>1143.8</ele>
        <time>2022-07-17T07:57:45Z</time>
      </trkpt>
      <trkpt lat="45.20348" lon="6.46316">
        <ele>1144</ele>
        <time>2022-07-17T07:57:46Z</time>
      </trkpt>
      <trkpt lat="45.20346" lon="6.46318">
        <ele>1144</ele>
        <time>2022-07-17T07:57:47Z</time>
      </trkpt>
      <trkpt lat="45.20343" lon="6.46319">
        <ele>1144.4</ele>
        <time>2022-07-17T07:57:49Z</time>
      </trkpt>
      <trkpt lat="45.20341" lon="6.46321">
        <ele>1144.6</ele>
        <time>2022-07-17T07:57:50Z</time>
      </trkpt>
      <trkpt lat="45.20338" lon="6.46322">
        <ele>1144.6</ele>
        <time>2022-07-17T07:57:51Z</time>
      </trkpt>
      <trkpt lat="45.20336" lon="6.46324">
        <ele>1145</ele>
        <time>2022-07-17T07:57:52Z</time>
      </trkpt>
      <trkpt lat="45.20334" lon="6.46325">
        <ele>1145</ele>
        <time>2022-07-17T07:57:53Z</time>
      </trkpt>
      <trkpt lat="45.20331" lon="6.46326">
        <ele>1145.2</ele>
        <time>2022-07-17T07:57:54Z</time>
      </trkpt>
      <trkpt lat="45.20328" lon="6.46327">
        <ele>1145.4</ele>
        <time>2022-07-17T07:57:55Z</time>
      </trkpt>
      <trkpt lat="45.20326" lon="6.46328">
        <ele>1145.4</ele>
        <time>2022-07-17T07:57:56Z</time>
      </trkpt>
      <trkpt lat="45.20323" lon="6.46329">
        <ele>1145.8</ele>
        <time>2022-07-17T07:57:57Z</time>
      </trkpt>
      <trkpt lat="45.20321" lon="6.4633">
        <ele>1145.8</ele>
        <time>2022-07-17T07:57:58Z</time>
      </trkpt>
      <trkpt lat="45.20318" lon="6.46331">
        <ele>1146.2</ele>
        <time>2022-07-17T07:57:59Z</time>
      </trkpt>
      <trkpt lat="45.20316" lon="6.46332">
        <ele>1146.2</ele>
        <time>2022-07-17T07:58:00Z</time>
      </trkpt>
      <trkpt lat="45.20314" lon="6.46333">
        <ele>1146.6</ele>
        <time>2022-07-17T07:58:01Z</time>
      </trkpt>
      <trkpt lat="45.20312" lon="6.46334">
        <ele>1146.8</ele>
        <time>2022-07-17T07:58:02Z</time>
      </trkpt>
      <trkpt lat="45.20309" lon="6.46335">
        <ele>1147</ele>
        <time>2022-07-17T07:58:03Z</time>
      </trkpt>
      <trkpt lat="45.20307" lon="6.46335">
        <ele>1147.2</ele>
        <time>2022-07-17T07:58:04Z</time>
      </trkpt>
      <trkpt lat="45.20304" lon="6.46336">
        <ele>1147.2</ele>
        <time>2022-07-17T07:58:05Z</time>
      </trkpt>
      <trkpt lat="45.20302" lon="6.46338">
        <ele>1147.6</ele>
        <time>2022-07-17T07:58:06Z</time>
      </trkpt>
      <trkpt lat="45.203" lon="6.46339">
        <ele>1147.6</ele>
        <time>2022-07-17T07:58:07Z</time>
      </trkpt>
      <trkpt lat="45.20297" lon="6.46341">
        <ele>1147.8</ele>
        <time>2022-07-17T07:58:08Z</time>
      </trkpt>
      <trkpt lat="45.20295" lon="6.46342">
        <ele>1147.8</ele>
        <time>2022-07-17T07:58:09Z</time>
      </trkpt>
      <trkpt lat="45.20292" lon="6.46345">
        <ele>1148.2</ele>
        <time>2022-07-17T07:58:10Z</time>
      </trkpt>
      <trkpt lat="45.2029" lon="6.46347">
        <ele>1148.2</ele>
        <time>2022-07-17T07:58:11Z</time>
      </trkpt>
      <trkpt lat="45.20287" lon="6.46349">
        <ele>1148.4</ele>
        <time>2022-07-17T07:58:12Z</time>
      </trkpt>
      <trkpt lat="45.20284" lon="6.46352">
        <ele>1148.4</ele>
        <time>2022-07-17T07:58:13Z</time>
      </trkpt>
      <trkpt lat="45.20282" lon="6.46355">
        <ele>1148.8</ele>
        <time>2022-07-17T07:58:14Z</time>
      </trkpt>
      <trkpt lat="45.2028" lon="6.46358">
        <ele>1148.8</ele>
        <time>2022-07-17T07:58:15Z</time>
      </trkpt>
      <trkpt lat="45.20277" lon="6.46361">
        <ele>1148.8</ele>
        <time>2022-07-17T07:58:16Z</time>
      </trkpt>
      <trkpt lat="45.20275" lon="6.46364">
        <ele>1149</ele>
        <time>2022-07-17T07:58:17Z</time>
      </trkpt>
      <trkpt lat="45.20273" lon="6.46367">
        <ele>1149</ele>
        <time>2022-07-17T07:58:18Z</time>
      </trkpt>
      <trkpt lat="45.20271" lon="6.46371">
        <ele>1149.2</ele>
        <time>2022-07-17T07:58:19Z</time>
      </trkpt>
      <trkpt lat="45.20269" lon="6.46375">
        <ele>1149.2</ele>
        <time>2022-07-17T07:58:20Z</time>
      </trkpt>
      <trkpt lat="45.20266" lon="6.4638">
        <ele>1149.2</ele>
        <time>2022-07-17T07:58:21Z</time>
      </trkpt>
      <trkpt lat="45.20264" lon="6.46384">
        <ele>1149.2</ele>
        <time>2022-07-17T07:58:22Z</time>
      </trkpt>
      <trkpt lat="45.20261" lon="6.46388">
        <ele>1149.2</ele>
        <time>2022-07-17T07:58:23Z</time>
      </trkpt>
      <trkpt lat="45.20259" lon="6.46392">
        <ele>1149.2</ele>
        <time>2022-07-17T07:58:24Z</time>
      </trkpt>
      <trkpt lat="45.20257" lon="6.46396">
        <ele>1149.4</ele>
        <time>2022-07-17T07:58:25Z</time>
      </trkpt>
      <trkpt lat="45.20255" lon="6.46399">
        <ele>1149.4</ele>
        <time>2022-07-17T07:58:26Z</time>
      </trkpt>
      <trkpt lat="45.20253" lon="6.46403">
        <ele>1149.6</ele>
        <time>2022-07-17T07:58:27Z</time>
      </trkpt>
      <trkpt lat="45.20252" lon="6.46406">
        <ele>1149.6</ele>
        <time>2022-07-17T07:58:28Z</time>
      </trkpt>
      <trkpt lat="45.2025" lon="6.4641">
        <ele>1150</ele>
        <time>2022-07-17T07:58:29Z</time>
      </trkpt>
      <trkpt lat="45.20248" lon="6.46413">
        <ele>1150</ele>
        <time>2022-07-17T07:58:30Z</time>
      </trkpt>
      <trkpt lat="45.20247" lon="6.46417">
        <ele>1150.2</ele>
        <time>2022-07-17T07:58:31Z</time>
      </trkpt>
      <trkpt lat="45.20245" lon="6.4642">
        <ele>1150.2</ele>
        <time>2022-07-17T07:58:32Z</time>
      </trkpt>
      <trkpt lat="45.20244" lon="6.46424">
        <ele>1150.6</ele>
        <time>2022-07-17T07:58:33Z</time>
      </trkpt>
      <trkpt lat="45.20242" lon="6.46427">
        <ele>1150.6</ele>
        <time>2022-07-17T07:58:34Z</time>
      </trkpt>
      <trkpt lat="45.2024" lon="6.4643">
        <ele>1150.8</ele>
        <time>2022-07-17T07:58:35Z</time>
      </trkpt>
      <trkpt lat="45.20237" lon="6.46434">
        <ele>1150.8</ele>
        <time>2022-07-17T07:58:36Z</time>
      </trkpt>
      <trkpt lat="45.20235" lon="6.46437">
        <ele>1151</ele>
        <time>2022-07-17T07:58:37Z</time>
      </trkpt>
      <trkpt lat="45.20233" lon="6.46441">
        <ele>1151</ele>
        <time>2022-07-17T07:58:38Z</time>
      </trkpt>
      <trkpt lat="45.20231" lon="6.46445">
        <ele>1151.2</ele>
        <time>2022-07-17T07:58:39Z</time>
      </trkpt>
      <trkpt lat="45.20229" lon="6.46449">
        <ele>1151.2</ele>
        <time>2022-07-17T07:58:40Z</time>
      </trkpt>
      <trkpt lat="45.20228" lon="6.46452">
        <ele>1151.2</ele>
        <time>2022-07-17T07:58:41Z</time>
      </trkpt>
      <trkpt lat="45.20226" lon="6.46456">
        <ele>1151.4</ele>
        <time>2022-07-17T07:58:42Z</time>
      </trkpt>
      <trkpt lat="45.20224" lon="6.46459">
        <ele>1151.4</ele>
        <time>2022-07-17T07:58:43Z</time>
      </trkpt>
      <trkpt lat="45.20222" lon="6.46463">
        <ele>1151.6</ele>
        <time>2022-07-17T07:58:44Z</time>
      </trkpt>
      <trkpt lat="45.2022" lon="6.46466">
        <ele>1151.6</ele>
        <time>2022-07-17T07:58:45Z</time>
      </trkpt>
      <trkpt lat="45.20218" lon="6.46469">
        <ele>1152</ele>
        <time>2022-07-17T07:58:46Z</time>
      </trkpt>
      <trkpt lat="45.20217" lon="6.46471">
        <ele>1152.4</ele>
        <time>2022-07-17T07:58:47Z</time>
      </trkpt>
      <trkpt lat="45.20216" lon="6.46474">
        <ele>1152.6</ele>
        <time>2022-07-17T07:58:48Z</time>
      </trkpt>
      <trkpt lat="45.20214" lon="6.46477">
        <ele>1152.6</ele>
        <time>2022-07-17T07:58:49Z</time>
      </trkpt>
      <trkpt lat="45.20213" lon="6.46479">
        <ele>1152.8</ele>
        <time>2022-07-17T07:58:50Z</time>
      </trkpt>
      <trkpt lat="45.20212" lon="6.46482">
        <ele>1153</ele>
        <time>2022-07-17T07:58:51Z</time>
      </trkpt>
      <trkpt lat="45.20211" lon="6.46484">
        <ele>1153.4</ele>
        <time>2022-07-17T07:58:52Z</time>
      </trkpt>
      <trkpt lat="45.2021" lon="6.46487">
        <ele>1153.6</ele>
        <time>2022-07-17T07:58:53Z</time>
      </trkpt>
      <trkpt lat="45.20209" lon="6.4649">
        <ele>1153.8</ele>
        <time>2022-07-17T07:58:54Z</time>
      </trkpt>
      <trkpt lat="45.20208" lon="6.46493">
        <ele>1154</ele>
        <time>2022-07-17T07:58:55Z</time>
      </trkpt>
      <trkpt lat="45.20206" lon="6.46496">
        <ele>1154.2</ele>
        <time>2022-07-17T07:58:56Z</time>
      </trkpt>
      <trkpt lat="45.20205" lon="6.46498">
        <ele>1154.2</ele>
        <time>2022-07-17T07:58:57Z</time>
      </trkpt>
      <trkpt lat="45.20204" lon="6.46501">
        <ele>1154.6</ele>
        <time>2022-07-17T07:58:58Z</time>
      </trkpt>
      <trkpt lat="45.20203" lon="6.46504">
        <ele>1154.6</ele>
        <time>2022-07-17T07:58:59Z</time>
      </trkpt>
      <trkpt lat="45.20202" lon="6.46507">
        <ele>1155</ele>
        <time>2022-07-17T07:59:00Z</time>
      </trkpt>
      <trkpt lat="45.20201" lon="6.4651">
        <ele>1155.2</ele>
        <time>2022-07-17T07:59:01Z</time>
      </trkpt>
      <trkpt lat="45.202" lon="6.46513">
        <ele>1155.6</ele>
        <time>2022-07-17T07:59:02Z</time>
      </trkpt>
      <trkpt lat="45.20199" lon="6.46516">
        <ele>1155.8</ele>
        <time>2022-07-17T07:59:03Z</time>
      </trkpt>
      <trkpt lat="45.20198" lon="6.46519">
        <ele>1156</ele>
        <time>2022-07-17T07:59:04Z</time>
      </trkpt>
      <trkpt lat="45.20197" lon="6.46522">
        <ele>1156</ele>
        <time>2022-07-17T07:59:05Z</time>
      </trkpt>
      <trkpt lat="45.20197" lon="6.46525">
        <ele>1156.4</ele>
        <time>2022-07-17T07:59:06Z</time>
      </trkpt>
      <trkpt lat="45.20197" lon="6.46528">
        <ele>1156.4</ele>
        <time>2022-07-17T07:59:07Z</time>
      </trkpt>
      <trkpt lat="45.20196" lon="6.46531">
        <ele>1156.6</ele>
        <time>2022-07-17T07:59:08Z</time>
      </trkpt>
      <trkpt lat="45.20196" lon="6.46535">
        <ele>1156.6</ele>
        <time>2022-07-17T07:59:09Z</time>
      </trkpt>
      <trkpt lat="45.20196" lon="6.46538">
        <ele>1157</ele>
        <time>2022-07-17T07:59:10Z</time>
      </trkpt>
      <trkpt lat="45.20196" lon="6.46541">
        <ele>1157</ele>
        <time>2022-07-17T07:59:11Z</time>
      </trkpt>
      <trkpt lat="45.20196" lon="6.46544">
        <ele>1157.4</ele>
        <time>2022-07-17T07:59:12Z</time>
      </trkpt>
      <trkpt lat="45.20196" lon="6.46547">
        <ele>1157.6</ele>
        <time>2022-07-17T07:59:13Z</time>
      </trkpt>
      <trkpt lat="45.20196" lon="6.4655">
        <ele>1157.8</ele>
        <time>2022-07-17T07:59:14Z</time>
      </trkpt>
      <trkpt lat="45.20196" lon="6.46553">
        <ele>1158.2</ele>
        <time>2022-07-17T07:59:15Z</time>
      </trkpt>
      <trkpt lat="45.20196" lon="6.46556">
        <ele>1158.4</ele>
        <time>2022-07-17T07:59:16Z</time>
      </trkpt>
      <trkpt lat="45.20196" lon="6.4656">
        <ele>1158.6</ele>
        <time>2022-07-17T07:59:17Z</time>
      </trkpt>
      <trkpt lat="45.20196" lon="6.46563">
        <ele>1159</ele>
        <time>2022-07-17T07:59:18Z</time>
      </trkpt>
      <trkpt lat="45.20197" lon="6.46566">
        <ele>1159.2</ele>
        <time>2022-07-17T07:59:19Z</time>
      </trkpt>
      <trkpt lat="45.20197" lon="6.46569">
        <ele>1159.4</ele>
        <time>2022-07-17T07:59:20Z</time>
      </trkpt>
      <trkpt lat="45.20197" lon="6.46572">
        <ele>1159.8</ele>
        <time>2022-07-17T07:59:21Z</time>
      </trkpt>
      <trkpt lat="45.20197" lon="6.46574">
        <ele>1160</ele>
        <time>2022-07-17T07:59:22Z</time>
      </trkpt>
      <trkpt lat="45.20198" lon="6.46577">
        <ele>1160.4</ele>
        <time>2022-07-17T07:59:23Z</time>
      </trkpt>
      <trkpt lat="45.20198" lon="6.4658">
        <ele>1160.6</ele>
        <time>2022-07-17T07:59:24Z</time>
      </trkpt>
      <trkpt lat="45.20198" lon="6.46583">
        <ele>1161</ele>
        <time>2022-07-17T07:59:25Z</time>
      </trkpt>
      <trkpt lat="45.20199" lon="6.46586">
        <ele>1161.2</ele>
        <time>2022-07-17T07:59:26Z</time>
      </trkpt>
      <trkpt lat="45.202" lon="6.46589">
        <ele>1161.4</ele>
        <time>2022-07-17T07:59:27Z</time>
      </trkpt>
      <trkpt lat="45.202" lon="6.46591">
        <ele>1161.8</ele>
        <time>2022-07-17T07:59:28Z</time>
      </trkpt>
      <trkpt lat="45.202" lon="6.46594">
        <ele>1162.2</ele>
        <time>2022-07-17T07:59:29Z</time>
      </trkpt>
      <trkpt lat="45.202" lon="6.46597">
        <ele>1162.4</ele>
        <time>2022-07-17T07:59:30Z</time>
      </trkpt>
      <trkpt lat="45.202" lon="6.46601">
        <ele>1162.6</ele>
        <time>2022-07-17T07:59:31Z</time>
      </trkpt>
      <trkpt lat="45.202" lon="6.46605">
        <ele>1162.8</ele>
        <time>2022-07-17T07:59:32Z</time>
      </trkpt>
      <trkpt lat="45.202" lon="6.46608">
        <ele>1163</ele>
        <time>2022-07-17T07:59:33Z</time>
      </trkpt>
      <trkpt lat="45.202" lon="6.46612">
        <ele>1163.4</ele>
        <time>2022-07-17T07:59:34Z</time>
      </trkpt>
      <trkpt lat="45.20199" lon="6.46615">
        <ele>1163.6</ele>
        <time>2022-07-17T07:59:35Z</time>
      </trkpt>
      <trkpt lat="45.20198" lon="6.46619">
        <ele>1164</ele>
        <time>2022-07-17T07:59:36Z</time>
      </trkpt>
      <trkpt lat="45.20197" lon="6.46622">
        <ele>1164.2</ele>
        <time>2022-07-17T07:59:37Z</time>
      </trkpt>
      <trkpt lat="45.20196" lon="6.46625">
        <ele>1164.4</ele>
        <time>2022-07-17T07:59:38Z</time>
      </trkpt>
      <trkpt lat="45.20194" lon="6.46628">
        <ele>1164.6</ele>
        <time>2022-07-17T07:59:39Z</time>
      </trkpt>
      <trkpt lat="45.20192" lon="6.46631">
        <ele>1164.6</ele>
        <time>2022-07-17T07:59:40Z</time>
      </trkpt>
      <trkpt lat="45.20189" lon="6.46634">
        <ele>1165</ele>
        <time>2022-07-17T07:59:41Z</time>
      </trkpt>
      <trkpt lat="45.20188" lon="6.46637">
        <ele>1165.2</ele>
        <time>2022-07-17T07:59:42Z</time>
      </trkpt>
      <trkpt lat="45.20187" lon="6.46639">
        <ele>1165.6</ele>
        <time>2022-07-17T07:59:43Z</time>
      </trkpt>
      <trkpt lat="45.20185" lon="6.46641">
        <ele>1165.6</ele>
        <time>2022-07-17T07:59:44Z</time>
      </trkpt>
      <trkpt lat="45.20183" lon="6.46643">
        <ele>1166</ele>
        <time>2022-07-17T07:59:45Z</time>
      </trkpt>
      <trkpt lat="45.20182" lon="6.46645">
        <ele>1166.4</ele>
        <time>2022-07-17T07:59:46Z</time>
      </trkpt>
      <trkpt lat="45.2018" lon="6.46647">
        <ele>1166.6</ele>
        <time>2022-07-17T07:59:47Z</time>
      </trkpt>
      <trkpt lat="45.20179" lon="6.4665">
        <ele>1167</ele>
        <time>2022-07-17T07:59:48Z</time>
      </trkpt>
      <trkpt lat="45.20178" lon="6.46652">
        <ele>1167.2</ele>
        <time>2022-07-17T07:59:49Z</time>
      </trkpt>
      <trkpt lat="45.20171" lon="6.46656">
        <ele>1167.4</ele>
        <time>2022-07-17T07:59:50Z</time>
      </trkpt>
      <trkpt lat="45.20167" lon="6.46659">
        <ele>1167.6</ele>
        <time>2022-07-17T07:59:51Z</time>
      </trkpt>
      <trkpt lat="45.20164" lon="6.46661">
        <ele>1167.6</ele>
        <time>2022-07-17T07:59:52Z</time>
      </trkpt>
      <trkpt lat="45.20161" lon="6.46664">
        <ele>1168.2</ele>
        <time>2022-07-17T07:59:53Z</time>
      </trkpt>
      <trkpt lat="45.2016" lon="6.46667">
        <ele>1168.2</ele>
        <time>2022-07-17T07:59:54Z</time>
      </trkpt>
      <trkpt lat="45.20158" lon="6.46669">
        <ele>1168.4</ele>
        <time>2022-07-17T07:59:55Z</time>
      </trkpt>
      <trkpt lat="45.20156" lon="6.46672">
        <ele>1168.8</ele>
        <time>2022-07-17T07:59:56Z</time>
      </trkpt>
      <trkpt lat="45.20154" lon="6.46674">
        <ele>1169</ele>
        <time>2022-07-17T07:59:57Z</time>
      </trkpt>
      <trkpt lat="45.20152" lon="6.46676">
        <ele>1169.2</ele>
        <time>2022-07-17T07:59:58Z</time>
      </trkpt>
      <trkpt lat="45.2015" lon="6.46679">
        <ele>1169.4</ele>
        <time>2022-07-17T07:59:59Z</time>
      </trkpt>
      <trkpt lat="45.20148" lon="6.46681">
        <ele>1169.6</ele>
        <time>2022-07-17T08:00:00Z</time>
      </trkpt>
      <trkpt lat="45.20145" lon="6.46683">
        <ele>1169.6</ele>
        <time>2022-07-17T08:00:01Z</time>
      </trkpt>
      <trkpt lat="45.20143" lon="6.46685">
        <ele>1170</ele>
        <time>2022-07-17T08:00:02Z</time>
      </trkpt>
      <trkpt lat="45.20142" lon="6.46686">
        <ele>1170.2</ele>
        <time>2022-07-17T08:00:03Z</time>
      </trkpt>
      <trkpt lat="45.2014" lon="6.46688">
        <ele>1170.2</ele>
        <time>2022-07-17T08:00:04Z</time>
      </trkpt>
      <trkpt lat="45.20138" lon="6.4669">
        <ele>1170.6</ele>
        <time>2022-07-17T08:00:05Z</time>
      </trkpt>
      <trkpt lat="45.20137" lon="6.46692">
        <ele>1170.8</ele>
        <time>2022-07-17T08:00:06Z</time>
      </trkpt>
      <trkpt lat="45.20136" lon="6.46694">
        <ele>1170.8</ele>
        <time>2022-07-17T08:00:07Z</time>
      </trkpt>
      <trkpt lat="45.20134" lon="6.46696">
        <ele>1171.4</ele>
        <time>2022-07-17T08:00:08Z</time>
      </trkpt>
      <trkpt lat="45.20132" lon="6.46697">
        <ele>1171.6</ele>
        <time>2022-07-17T08:00:09Z</time>
      </trkpt>
      <trkpt lat="45.20131" lon="6.46699">
        <ele>1171.8</ele>
        <time>2022-07-17T08:00:10Z</time>
      </trkpt>
      <trkpt lat="45.20129" lon="6.46701">
        <ele>1172</ele>
        <time>2022-07-17T08:00:11Z</time>
      </trkpt>
      <trkpt lat="45.20127" lon="6.46702">
        <ele>1172</ele>
        <time>2022-07-17T08:00:12Z</time>
      </trkpt>
      <trkpt lat="45.20125" lon="6.46704">
        <ele>1172.4</ele>
        <time>2022-07-17T08:00:13Z</time>
      </trkpt>
      <trkpt lat="45.20123" lon="6.46706">
        <ele>1172.6</ele>
        <time>2022-07-17T08:00:14Z</time>
      </trkpt>
      <trkpt lat="45.20122" lon="6.46707">
        <ele>1172.8</ele>
        <time>2022-07-17T08:00:15Z</time>
      </trkpt>
      <trkpt lat="45.2012" lon="6.4671">
        <ele>1172.8</ele>
        <time>2022-07-17T08:00:16Z</time>
      </trkpt>
      <trkpt lat="45.20119" lon="6.46712">
        <ele>1173.2</ele>
        <time>2022-07-17T08:00:17Z</time>
      </trkpt>
      <trkpt lat="45.20117" lon="6.46714">
        <ele>1173.4</ele>
        <time>2022-07-17T08:00:18Z</time>
      </trkpt>
      <trkpt lat="45.20115" lon="6.46715">
        <ele>1173.6</ele>
        <time>2022-07-17T08:00:19Z</time>
      </trkpt>
      <trkpt lat="45.20113" lon="6.46718">
        <ele>1173.6</ele>
        <time>2022-07-17T08:00:20Z</time>
      </trkpt>
      <trkpt lat="45.20111" lon="6.4672">
        <ele>1174.2</ele>
        <time>2022-07-17T08:00:21Z</time>
      </trkpt>
      <trkpt lat="45.20109" lon="6.46722">
        <ele>1174.4</ele>
        <time>2022-07-17T08:00:22Z</time>
      </trkpt>
      <trkpt lat="45.20107" lon="6.46724">
        <ele>1174.6</ele>
        <time>2022-07-17T08:00:23Z</time>
      </trkpt>
      <trkpt lat="45.20105" lon="6.46726">
        <ele>1175</ele>
        <time>2022-07-17T08:00:24Z</time>
      </trkpt>
      <trkpt lat="45.20103" lon="6.46728">
        <ele>1175.2</ele>
        <time>2022-07-17T08:00:25Z</time>
      </trkpt>
      <trkpt lat="45.20101" lon="6.4673">
        <ele>1175.4</ele>
        <time>2022-07-17T08:00:26Z</time>
      </trkpt>
      <trkpt lat="45.20099" lon="6.46733">
        <ele>1175.6</ele>
        <time>2022-07-17T08:00:27Z</time>
      </trkpt>
      <trkpt lat="45.20097" lon="6.46735">
        <ele>1175.8</ele>
        <time>2022-07-17T08:00:28Z</time>
      </trkpt>
      <trkpt lat="45.20095" lon="6.46737">
        <ele>1175.8</ele>
        <time>2022-07-17T08:00:29Z</time>
      </trkpt>
      <trkpt lat="45.20093" lon="6.46739">
        <ele>1176.2</ele>
        <time>2022-07-17T08:00:30Z</time>
      </trkpt>
      <trkpt lat="45.20091" lon="6.46741">
        <ele>1176.4</ele>
        <time>2022-07-17T08:00:31Z</time>
      </trkpt>
      <trkpt lat="45.20089" lon="6.46742">
        <ele>1176.6</ele>
        <time>2022-07-17T08:00:32Z</time>
      </trkpt>
      <trkpt lat="45.20086" lon="6.46744">
        <ele>1176.6</ele>
        <time>2022-07-17T08:00:33Z</time>
      </trkpt>
      <trkpt lat="45.20084" lon="6.46744">
        <ele>1177</ele>
        <time>2022-07-17T08:00:34Z</time>
      </trkpt>
      <trkpt lat="45.20082" lon="6.46745">
        <ele>1177</ele>
        <time>2022-07-17T08:00:35Z</time>
      </trkpt>
      <trkpt lat="45.2008" lon="6.46746">
        <ele>1177.6</ele>
        <time>2022-07-17T08:00:36Z</time>
      </trkpt>
      <trkpt lat="45.20077" lon="6.46746">
        <ele>1177.8</ele>
        <time>2022-07-17T08:00:37Z</time>
      </trkpt>
      <trkpt lat="45.20075" lon="6.46747">
        <ele>1178</ele>
        <time>2022-07-17T08:00:38Z</time>
      </trkpt>
      <trkpt lat="45.20073" lon="6.46747">
        <ele>1178.4</ele>
        <time>2022-07-17T08:00:39Z</time>
      </trkpt>
      <trkpt lat="45.2007" lon="6.46747">
        <ele>1178.6</ele>
        <time>2022-07-17T08:00:40Z</time>
      </trkpt>
      <trkpt lat="45.20068" lon="6.46747">
        <ele>1178.6</ele>
        <time>2022-07-17T08:00:41Z</time>
      </trkpt>
      <trkpt lat="45.20066" lon="6.46747">
        <ele>1179</ele>
        <time>2022-07-17T08:00:42Z</time>
      </trkpt>
      <trkpt lat="45.20063" lon="6.46747">
        <ele>1179.2</ele>
        <time>2022-07-17T08:00:43Z</time>
      </trkpt>
      <trkpt lat="45.20061" lon="6.46747">
        <ele>1179.6</ele>
        <time>2022-07-17T08:00:44Z</time>
      </trkpt>
      <trkpt lat="45.20059" lon="6.46747">
        <ele>1179.6</ele>
        <time>2022-07-17T08:00:45Z</time>
      </trkpt>
      <trkpt lat="45.20056" lon="6.46747">
        <ele>1179.8</ele>
        <time>2022-07-17T08:00:46Z</time>
      </trkpt>
      <trkpt lat="45.20054" lon="6.46747">
        <ele>1180</ele>
        <time>2022-07-17T08:00:47Z</time>
      </trkpt>
      <trkpt lat="45.20051" lon="6.46747">
        <ele>1180.4</ele>
        <time>2022-07-17T08:00:48Z</time>
      </trkpt>
      <trkpt lat="45.20049" lon="6.46747">
        <ele>1180.6</ele>
        <time>2022-07-17T08:00:49Z</time>
      </trkpt>
      <trkpt lat="45.20047" lon="6.46748">
        <ele>1180.6</ele>
        <time>2022-07-17T08:00:50Z</time>
      </trkpt>
      <trkpt lat="45.20044" lon="6.46748">
        <ele>1180.8</ele>
        <time>2022-07-17T08:00:51Z</time>
      </trkpt>
      <trkpt lat="45.20042" lon="6.46748">
        <ele>1181</ele>
        <time>2022-07-17T08:00:52Z</time>
      </trkpt>
      <trkpt lat="45.2004" lon="6.46749">
        <ele>1181.2</ele>
        <time>2022-07-17T08:00:53Z</time>
      </trkpt>
      <trkpt lat="45.20038" lon="6.46749">
        <ele>1181.6</ele>
        <time>2022-07-17T08:00:54Z</time>
      </trkpt>
      <trkpt lat="45.20036" lon="6.46749">
        <ele>1181.8</ele>
        <time>2022-07-17T08:00:55Z</time>
      </trkpt>
      <trkpt lat="45.20033" lon="6.4675">
        <ele>1182</ele>
        <time>2022-07-17T08:00:56Z</time>
      </trkpt>
      <trkpt lat="45.20031" lon="6.46751">
        <ele>1182</ele>
        <time>2022-07-17T08:00:57Z</time>
      </trkpt>
      <trkpt lat="45.20029" lon="6.46752">
        <ele>1182.4</ele>
        <time>2022-07-17T08:00:58Z</time>
      </trkpt>
      <trkpt lat="45.20027" lon="6.46753">
        <ele>1182.6</ele>
        <time>2022-07-17T08:00:59Z</time>
      </trkpt>
      <trkpt lat="45.20024" lon="6.46754">
        <ele>1182.6</ele>
        <time>2022-07-17T08:01:00Z</time>
      </trkpt>
      <trkpt lat="45.20022" lon="6.46756">
        <ele>1182.8</ele>
        <time>2022-07-17T08:01:01Z</time>
      </trkpt>
      <trkpt lat="45.20019" lon="6.46757">
        <ele>1182.8</ele>
        <time>2022-07-17T08:01:02Z</time>
      </trkpt>
      <trkpt lat="45.20016" lon="6.46758">
        <ele>1183.2</ele>
        <time>2022-07-17T08:01:03Z</time>
      </trkpt>
      <trkpt lat="45.20014" lon="6.46759">
        <ele>1183.2</ele>
        <time>2022-07-17T08:01:04Z</time>
      </trkpt>
      <trkpt lat="45.20011" lon="6.46759">
        <ele>1183.4</ele>
        <time>2022-07-17T08:01:05Z</time>
      </trkpt>
      <trkpt lat="45.20009" lon="6.46759">
        <ele>1183.6</ele>
        <time>2022-07-17T08:01:06Z</time>
      </trkpt>
      <trkpt lat="45.20006" lon="6.4676">
        <ele>1183.6</ele>
        <time>2022-07-17T08:01:07Z</time>
      </trkpt>
      <trkpt lat="45.20004" lon="6.46761">
        <ele>1183.8</ele>
        <time>2022-07-17T08:01:08Z</time>
      </trkpt>
      <trkpt lat="45.20001" lon="6.46762">
        <ele>1183.8</ele>
        <time>2022-07-17T08:01:09Z</time>
      </trkpt>
      <trkpt lat="45.19999" lon="6.46763">
        <ele>1184.2</ele>
        <time>2022-07-17T08:01:10Z</time>
      </trkpt>
      <trkpt lat="45.19997" lon="6.46763">
        <ele>1184.2</ele>
        <time>2022-07-17T08:01:11Z</time>
      </trkpt>
      <trkpt lat="45.19994" lon="6.46764">
        <ele>1184.4</ele>
        <time>2022-07-17T08:01:12Z</time>
      </trkpt>
      <trkpt lat="45.19992" lon="6.46765">
        <ele>1184.4</ele>
        <time>2022-07-17T08:01:13Z</time>
      </trkpt>
      <trkpt lat="45.1999" lon="6.46766">
        <ele>1184.6</ele>
        <time>2022-07-17T08:01:14Z</time>
      </trkpt>
      <trkpt lat="45.19987" lon="6.46767">
        <ele>1184.6</ele>
        <time>2022-07-17T08:01:15Z</time>
      </trkpt>
      <trkpt lat="45.19985" lon="6.46768">
        <ele>1185</ele>
        <time>2022-07-17T08:01:16Z</time>
      </trkpt>
      <trkpt lat="45.19983" lon="6.46769">
        <ele>1185</ele>
        <time>2022-07-17T08:01:17Z</time>
      </trkpt>
      <trkpt lat="45.19981" lon="6.4677">
        <ele>1185.2</ele>
        <time>2022-07-17T08:01:18Z</time>
      </trkpt>
      <trkpt lat="45.19979" lon="6.46771">
        <ele>1185.2</ele>
        <time>2022-07-17T08:01:19Z</time>
      </trkpt>
      <trkpt lat="45.19976" lon="6.46773">
        <ele>1185.6</ele>
        <time>2022-07-17T08:01:20Z</time>
      </trkpt>
      <trkpt lat="45.19974" lon="6.46774">
        <ele>1185.6</ele>
        <time>2022-07-17T08:01:21Z</time>
      </trkpt>
      <trkpt lat="45.19972" lon="6.46775">
        <ele>1185.8</ele>
        <time>2022-07-17T08:01:22Z</time>
      </trkpt>
      <trkpt lat="45.1997" lon="6.46776">
        <ele>1185.8</ele>
        <time>2022-07-17T08:01:23Z</time>
      </trkpt>
      <trkpt lat="45.19968" lon="6.46778">
        <ele>1186.2</ele>
        <time>2022-07-17T08:01:24Z</time>
      </trkpt>
      <trkpt lat="45.19965" lon="6.46779">
        <ele>1186.2</ele>
        <time>2022-07-17T08:01:25Z</time>
      </trkpt>
      <trkpt lat="45.19963" lon="6.4678">
        <ele>1186.4</ele>
        <time>2022-07-17T08:01:26Z</time>
      </trkpt>
      <trkpt lat="45.19962" lon="6.46781">
        <ele>1186.4</ele>
        <time>2022-07-17T08:01:27Z</time>
      </trkpt>
      <trkpt lat="45.1996" lon="6.46782">
        <ele>1186.6</ele>
        <time>2022-07-17T08:01:28Z</time>
      </trkpt>
      <trkpt lat="45.19958" lon="6.46783">
        <ele>1186.6</ele>
        <time>2022-07-17T08:01:29Z</time>
      </trkpt>
      <trkpt lat="45.19956" lon="6.46786">
        <ele>1186.8</ele>
        <time>2022-07-17T08:01:30Z</time>
      </trkpt>
      <trkpt lat="45.19954" lon="6.46787">
        <ele>1186.8</ele>
        <time>2022-07-17T08:01:31Z</time>
      </trkpt>
      <trkpt lat="45.19953" lon="6.46789">
        <ele>1187.2</ele>
        <time>2022-07-17T08:01:32Z</time>
      </trkpt>
      <trkpt lat="45.19951" lon="6.4679">
        <ele>1187.2</ele>
        <time>2022-07-17T08:01:33Z</time>
      </trkpt>
      <trkpt lat="45.19949" lon="6.46792">
        <ele>1187.6</ele>
        <time>2022-07-17T08:01:34Z</time>
      </trkpt>
      <trkpt lat="45.19947" lon="6.46794">
        <ele>1187.6</ele>
        <time>2022-07-17T08:01:35Z</time>
      </trkpt>
      <trkpt lat="45.19946" lon="6.46796">
        <ele>1187.8</ele>
        <time>2022-07-17T08:01:36Z</time>
      </trkpt>
      <trkpt lat="45.19943" lon="6.46798">
        <ele>1187.8</ele>
        <time>2022-07-17T08:01:37Z</time>
      </trkpt>
      <trkpt lat="45.19941" lon="6.468">
        <ele>1188.2</ele>
        <time>2022-07-17T08:01:38Z</time>
      </trkpt>
      <trkpt lat="45.19939" lon="6.46801">
        <ele>1188.2</ele>
        <time>2022-07-17T08:01:39Z</time>
      </trkpt>
      <trkpt lat="45.19936" lon="6.46803">
        <ele>1188.4</ele>
        <time>2022-07-17T08:01:40Z</time>
      </trkpt>
      <trkpt lat="45.19933" lon="6.46804">
        <ele>1188.4</ele>
        <time>2022-07-17T08:01:41Z</time>
      </trkpt>
      <trkpt lat="45.19931" lon="6.46806">
        <ele>1188.8</ele>
        <time>2022-07-17T08:01:42Z</time>
      </trkpt>
      <trkpt lat="45.19928" lon="6.46807">
        <ele>1189</ele>
        <time>2022-07-17T08:01:43Z</time>
      </trkpt>
      <trkpt lat="45.19926" lon="6.46807">
        <ele>1189.4</ele>
        <time>2022-07-17T08:01:44Z</time>
      </trkpt>
      <trkpt lat="45.19923" lon="6.46808">
        <ele>1189.6</ele>
        <time>2022-07-17T08:01:45Z</time>
      </trkpt>
      <trkpt lat="45.1992" lon="6.46808">
        <ele>1189.6</ele>
        <time>2022-07-17T08:01:46Z</time>
      </trkpt>
      <trkpt lat="45.19918" lon="6.46808">
        <ele>1190</ele>
        <time>2022-07-17T08:01:47Z</time>
      </trkpt>
      <trkpt lat="45.19915" lon="6.46809">
        <ele>1190.4</ele>
        <time>2022-07-17T08:01:48Z</time>
      </trkpt>
      <trkpt lat="45.19912" lon="6.46809">
        <ele>1190.6</ele>
        <time>2022-07-17T08:01:49Z</time>
      </trkpt>
      <trkpt lat="45.19909" lon="6.46809">
        <ele>1190.8</ele>
        <time>2022-07-17T08:01:50Z</time>
      </trkpt>
      <trkpt lat="45.19906" lon="6.4681">
        <ele>1190.8</ele>
        <time>2022-07-17T08:01:51Z</time>
      </trkpt>
      <trkpt lat="45.19903" lon="6.46809">
        <ele>1191.2</ele>
        <time>2022-07-17T08:01:52Z</time>
      </trkpt>
      <trkpt lat="45.19901" lon="6.46809">
        <ele>1191.4</ele>
        <time>2022-07-17T08:01:53Z</time>
      </trkpt>
      <trkpt lat="45.19898" lon="6.46809">
        <ele>1191.6</ele>
        <time>2022-07-17T08:01:54Z</time>
      </trkpt>
      <trkpt lat="45.19896" lon="6.46808">
        <ele>1191.8</ele>
        <time>2022-07-17T08:01:55Z</time>
      </trkpt>
      <trkpt lat="45.19893" lon="6.46807">
        <ele>1191.8</ele>
        <time>2022-07-17T08:01:56Z</time>
      </trkpt>
      <trkpt lat="45.19891" lon="6.46805">
        <ele>1192.2</ele>
        <time>2022-07-17T08:01:57Z</time>
      </trkpt>
      <trkpt lat="45.19888" lon="6.46804">
        <ele>1192.2</ele>
        <time>2022-07-17T08:01:58Z</time>
      </trkpt>
      <trkpt lat="45.19886" lon="6.46803">
        <ele>1192.6</ele>
        <time>2022-07-17T08:01:59Z</time>
      </trkpt>
      <trkpt lat="45.19883" lon="6.46801">
        <ele>1193</ele>
        <time>2022-07-17T08:02:00Z</time>
      </trkpt>
      <trkpt lat="45.1988" lon="6.468">
        <ele>1193.2</ele>
        <time>2022-07-17T08:02:01Z</time>
      </trkpt>
      <trkpt lat="45.19878" lon="6.468">
        <ele>1193.2</ele>
        <time>2022-07-17T08:02:02Z</time>
      </trkpt>
      <trkpt lat="45.19875" lon="6.46799">
        <ele>1193.6</ele>
        <time>2022-07-17T08:02:03Z</time>
      </trkpt>
      <trkpt lat="45.19873" lon="6.46799">
        <ele>1193.8</ele>
        <time>2022-07-17T08:02:04Z</time>
      </trkpt>
      <trkpt lat="45.19871" lon="6.46798">
        <ele>1194</ele>
        <time>2022-07-17T08:02:05Z</time>
      </trkpt>
      <trkpt lat="45.19868" lon="6.46798">
        <ele>1194</ele>
        <time>2022-07-17T08:02:06Z</time>
      </trkpt>
      <trkpt lat="45.19866" lon="6.46798">
        <ele>1194.6</ele>
        <time>2022-07-17T08:02:07Z</time>
      </trkpt>
      <trkpt lat="45.19864" lon="6.46798">
        <ele>1194.6</ele>
        <time>2022-07-17T08:02:08Z</time>
      </trkpt>
      <trkpt lat="45.19861" lon="6.46798">
        <ele>1194.8</ele>
        <time>2022-07-17T08:02:09Z</time>
      </trkpt>
      <trkpt lat="45.19859" lon="6.46799">
        <ele>1194.8</ele>
        <time>2022-07-17T08:02:10Z</time>
      </trkpt>
      <trkpt lat="45.19857" lon="6.468">
        <ele>1195.2</ele>
        <time>2022-07-17T08:02:11Z</time>
      </trkpt>
      <trkpt lat="45.19855" lon="6.46801">
        <ele>1195.2</ele>
        <time>2022-07-17T08:02:12Z</time>
      </trkpt>
      <trkpt lat="45.19853" lon="6.46802">
        <ele>1195.6</ele>
        <time>2022-07-17T08:02:13Z</time>
      </trkpt>
      <trkpt lat="45.19851" lon="6.46803">
        <ele>1195.8</ele>
        <time>2022-07-17T08:02:14Z</time>
      </trkpt>
      <trkpt lat="45.19849" lon="6.46805">
        <ele>1196</ele>
        <time>2022-07-17T08:02:15Z</time>
      </trkpt>
      <trkpt lat="45.19847" lon="6.46806">
        <ele>1196</ele>
        <time>2022-07-17T08:02:16Z</time>
      </trkpt>
      <trkpt lat="45.19846" lon="6.46807">
        <ele>1196.4</ele>
        <time>2022-07-17T08:02:17Z</time>
      </trkpt>
      <trkpt lat="45.19844" lon="6.46808">
        <ele>1196.4</ele>
        <time>2022-07-17T08:02:18Z</time>
      </trkpt>
      <trkpt lat="45.19843" lon="6.46809">
        <ele>1196.8</ele>
        <time>2022-07-17T08:02:19Z</time>
      </trkpt>
      <trkpt lat="45.19841" lon="6.4681">
        <ele>1196.8</ele>
        <time>2022-07-17T08:02:20Z</time>
      </trkpt>
      <trkpt lat="45.1984" lon="6.46811">
        <ele>1197.2</ele>
        <time>2022-07-17T08:02:21Z</time>
      </trkpt>
      <trkpt lat="45.19838" lon="6.46813">
        <ele>1197.2</ele>
        <time>2022-07-17T08:02:22Z</time>
      </trkpt>
      <trkpt lat="45.19837" lon="6.46815">
        <ele>1197.6</ele>
        <time>2022-07-17T08:02:23Z</time>
      </trkpt>
      <trkpt lat="45.19835" lon="6.46818">
        <ele>1197.8</ele>
        <time>2022-07-17T08:02:24Z</time>
      </trkpt>
      <trkpt lat="45.19834" lon="6.46821">
        <ele>1197.8</ele>
        <time>2022-07-17T08:02:25Z</time>
      </trkpt>
      <trkpt lat="45.19833" lon="6.46823">
        <ele>1197.8</ele>
        <time>2022-07-17T08:02:26Z</time>
      </trkpt>
      <trkpt lat="45.19832" lon="6.46827">
        <ele>1198.2</ele>
        <time>2022-07-17T08:02:27Z</time>
      </trkpt>
      <trkpt lat="45.19831" lon="6.4683">
        <ele>1198.2</ele>
        <time>2022-07-17T08:02:28Z</time>
      </trkpt>
      <trkpt lat="45.1983" lon="6.46833">
        <ele>1198.6</ele>
        <time>2022-07-17T08:02:29Z</time>
      </trkpt>
      <trkpt lat="45.19828" lon="6.46836">
        <ele>1198.6</ele>
        <time>2022-07-17T08:02:30Z</time>
      </trkpt>
      <trkpt lat="45.19827" lon="6.4684">
        <ele>1198.8</ele>
        <time>2022-07-17T08:02:31Z</time>
      </trkpt>
      <trkpt lat="45.19826" lon="6.46845">
        <ele>1198.8</ele>
        <time>2022-07-17T08:02:32Z</time>
      </trkpt>
      <trkpt lat="45.19825" lon="6.46848">
        <ele>1199</ele>
        <time>2022-07-17T08:02:33Z</time>
      </trkpt>
      <trkpt lat="45.19824" lon="6.46851">
        <ele>1199</ele>
        <time>2022-07-17T08:02:34Z</time>
      </trkpt>
      <trkpt lat="45.19822" lon="6.46855">
        <ele>1199.4</ele>
        <time>2022-07-17T08:02:35Z</time>
      </trkpt>
      <trkpt lat="45.1982" lon="6.46858">
        <ele>1199.4</ele>
        <time>2022-07-17T08:02:36Z</time>
      </trkpt>
      <trkpt lat="45.19819" lon="6.46861">
        <ele>1199.8</ele>
        <time>2022-07-17T08:02:37Z</time>
      </trkpt>
      <trkpt lat="45.19819" lon="6.46864">
        <ele>1199.8</ele>
        <time>2022-07-17T08:02:38Z</time>
      </trkpt>
      <trkpt lat="45.19818" lon="6.46866">
        <ele>1200</ele>
        <time>2022-07-17T08:02:39Z</time>
      </trkpt>
      <trkpt lat="45.19816" lon="6.46869">
        <ele>1200</ele>
        <time>2022-07-17T08:02:40Z</time>
      </trkpt>
      <trkpt lat="45.19816" lon="6.46871">
        <ele>1200.4</ele>
        <time>2022-07-17T08:02:41Z</time>
      </trkpt>
      <trkpt lat="45.19814" lon="6.46874">
        <ele>1200.4</ele>
        <time>2022-07-17T08:02:42Z</time>
      </trkpt>
      <trkpt lat="45.19813" lon="6.46877">
        <ele>1200.8</ele>
        <time>2022-07-17T08:02:43Z</time>
      </trkpt>
      <trkpt lat="45.19812" lon="6.4688">
        <ele>1200.8</ele>
        <time>2022-07-17T08:02:44Z</time>
      </trkpt>
      <trkpt lat="45.1981" lon="6.46884">
        <ele>1201.2</ele>
        <time>2022-07-17T08:02:45Z</time>
      </trkpt>
      <trkpt lat="45.19809" lon="6.46889">
        <ele>1201.2</ele>
        <time>2022-07-17T08:02:46Z</time>
      </trkpt>
      <trkpt lat="45.19808" lon="6.46893">
        <ele>1201.4</ele>
        <time>2022-07-17T08:02:47Z</time>
      </trkpt>
      <trkpt lat="45.19806" lon="6.46898">
        <ele>1201.4</ele>
        <time>2022-07-17T08:02:48Z</time>
      </trkpt>
      <trkpt lat="45.19805" lon="6.46902">
        <ele>1201.8</ele>
        <time>2022-07-17T08:02:49Z</time>
      </trkpt>
      <trkpt lat="45.19804" lon="6.46907">
        <ele>1201.8</ele>
        <time>2022-07-17T08:02:50Z</time>
      </trkpt>
      <trkpt lat="45.19803" lon="6.46911">
        <ele>1202.2</ele>
        <time>2022-07-17T08:02:51Z</time>
      </trkpt>
      <trkpt lat="45.19802" lon="6.46915">
        <ele>1202.2</ele>
        <time>2022-07-17T08:02:52Z</time>
      </trkpt>
      <trkpt lat="45.19802" lon="6.46918">
        <ele>1202.4</ele>
        <time>2022-07-17T08:02:53Z</time>
      </trkpt>
      <trkpt lat="45.19801" lon="6.46922">
        <ele>1202.6</ele>
        <time>2022-07-17T08:02:54Z</time>
      </trkpt>
      <trkpt lat="45.198" lon="6.46927">
        <ele>1203</ele>
        <time>2022-07-17T08:02:55Z</time>
      </trkpt>
      <trkpt lat="45.19799" lon="6.46931">
        <ele>1203</ele>
        <time>2022-07-17T08:02:56Z</time>
      </trkpt>
      <trkpt lat="45.19799" lon="6.46934">
        <ele>1203.2</ele>
        <time>2022-07-17T08:02:57Z</time>
      </trkpt>
      <trkpt lat="45.19798" lon="6.46938">
        <ele>1203.2</ele>
        <time>2022-07-17T08:02:58Z</time>
      </trkpt>
      <trkpt lat="45.19798" lon="6.46942">
        <ele>1203.6</ele>
        <time>2022-07-17T08:02:59Z</time>
      </trkpt>
      <trkpt lat="45.19797" lon="6.46945">
        <ele>1203.8</ele>
        <time>2022-07-17T08:03:00Z</time>
      </trkpt>
      <trkpt lat="45.19795" lon="6.46949">
        <ele>1203.8</ele>
        <time>2022-07-17T08:03:01Z</time>
      </trkpt>
      <trkpt lat="45.19794" lon="6.46952">
        <ele>1204.2</ele>
        <time>2022-07-17T08:03:02Z</time>
      </trkpt>
      <trkpt lat="45.19791" lon="6.46954">
        <ele>1204.2</ele>
        <time>2022-07-17T08:03:03Z</time>
      </trkpt>
      <trkpt lat="45.19788" lon="6.46955">
        <ele>1204.6</ele>
        <time>2022-07-17T08:03:04Z</time>
      </trkpt>
      <trkpt lat="45.19786" lon="6.46955">
        <ele>1204.6</ele>
        <time>2022-07-17T08:03:05Z</time>
      </trkpt>
      <trkpt lat="45.19784" lon="6.46954">
        <ele>1205</ele>
        <time>2022-07-17T08:03:06Z</time>
      </trkpt>
      <trkpt lat="45.19782" lon="6.46952">
        <ele>1205</ele>
        <time>2022-07-17T08:03:07Z</time>
      </trkpt>
      <trkpt lat="45.1978" lon="6.46951">
        <ele>1205.2</ele>
        <time>2022-07-17T08:03:08Z</time>
      </trkpt>
      <trkpt lat="45.19778" lon="6.46949">
        <ele>1205.4</ele>
        <time>2022-07-17T08:03:09Z</time>
      </trkpt>
      <trkpt lat="45.19776" lon="6.46947">
        <ele>1205.8</ele>
        <time>2022-07-17T08:03:10Z</time>
      </trkpt>
      <trkpt lat="45.19776" lon="6.46943">
        <ele>1205.8</ele>
        <time>2022-07-17T08:03:11Z</time>
      </trkpt>
      <trkpt lat="45.19776" lon="6.46939">
        <ele>1206.2</ele>
        <time>2022-07-17T08:03:12Z</time>
      </trkpt>
      <trkpt lat="45.19776" lon="6.46936">
        <ele>1206.4</ele>
        <time>2022-07-17T08:03:13Z</time>
      </trkpt>
      <trkpt lat="45.19777" lon="6.46932">
        <ele>1206.4</ele>
        <time>2022-07-17T08:03:14Z</time>
      </trkpt>
      <trkpt lat="45.19778" lon="6.46929">
        <ele>1206.8</ele>
        <time>2022-07-17T08:03:15Z</time>
      </trkpt>
      <trkpt lat="45.19779" lon="6.46926">
        <ele>1206.8</ele>
        <time>2022-07-17T08:03:16Z</time>
      </trkpt>
      <trkpt lat="45.1978" lon="6.46922">
        <ele>1207.2</ele>
        <time>2022-07-17T08:03:17Z</time>
      </trkpt>
      <trkpt lat="45.19781" lon="6.46919">
        <ele>1207.2</ele>
        <time>2022-07-17T08:03:18Z</time>
      </trkpt>
      <trkpt lat="45.19782" lon="6.46916">
        <ele>1207.4</ele>
        <time>2022-07-17T08:03:19Z</time>
      </trkpt>
      <trkpt lat="45.19782" lon="6.46912">
        <ele>1207.4</ele>
        <time>2022-07-17T08:03:20Z</time>
      </trkpt>
      <trkpt lat="45.19783" lon="6.46909">
        <ele>1207.8</ele>
        <time>2022-07-17T08:03:21Z</time>
      </trkpt>
      <trkpt lat="45.19784" lon="6.46905">
        <ele>1207.8</ele>
        <time>2022-07-17T08:03:22Z</time>
      </trkpt>
      <trkpt lat="45.19784" lon="6.46902">
        <ele>1208.2</ele>
        <time>2022-07-17T08:03:23Z</time>
      </trkpt>
      <trkpt lat="45.19785" lon="6.46899">
        <ele>1208.2</ele>
        <time>2022-07-17T08:03:24Z</time>
      </trkpt>
      <trkpt lat="45.19786" lon="6.46896">
        <ele>1208.4</ele>
        <time>2022-07-17T08:03:25Z</time>
      </trkpt>
      <trkpt lat="45.19787" lon="6.46892">
        <ele>1208.4</ele>
        <time>2022-07-17T08:03:26Z</time>
      </trkpt>
      <trkpt lat="45.19787" lon="6.46889">
        <ele>1208.6</ele>
        <time>2022-07-17T08:03:27Z</time>
      </trkpt>
      <trkpt lat="45.19788" lon="6.46886">
        <ele>1208.6</ele>
        <time>2022-07-17T08:03:28Z</time>
      </trkpt>
      <trkpt lat="45.19789" lon="6.46883">
        <ele>1209</ele>
        <time>2022-07-17T08:03:29Z</time>
      </trkpt>
      <trkpt lat="45.1979" lon="6.4688">
        <ele>1209</ele>
        <time>2022-07-17T08:03:30Z</time>
      </trkpt>
      <trkpt lat="45.19791" lon="6.46877">
        <ele>1209.2</ele>
        <time>2022-07-17T08:03:31Z</time>
      </trkpt>
      <trkpt lat="45.19792" lon="6.46874">
        <ele>1209.2</ele>
        <time>2022-07-17T08:03:32Z</time>
      </trkpt>
      <trkpt lat="45.19792" lon="6.46871">
        <ele>1209.4</ele>
        <time>2022-07-17T08:03:33Z</time>
      </trkpt>
      <trkpt lat="45.19794" lon="6.46868">
        <ele>1209.6</ele>
        <time>2022-07-17T08:03:34Z</time>
      </trkpt>
      <trkpt lat="45.19795" lon="6.46865">
        <ele>1209.6</ele>
        <time>2022-07-17T08:03:35Z</time>
      </trkpt>
      <trkpt lat="45.19795" lon="6.46861">
        <ele>1210</ele>
        <time>2022-07-17T08:03:36Z</time>
      </trkpt>
      <trkpt lat="45.19796" lon="6.46858">
        <ele>1210</ele>
        <time>2022-07-17T08:03:37Z</time>
      </trkpt>
      <trkpt lat="45.19797" lon="6.46855">
        <ele>1210.4</ele>
        <time>2022-07-17T08:03:38Z</time>
      </trkpt>
      <trkpt lat="45.19798" lon="6.46852">
        <ele>1210.4</ele>
        <time>2022-07-17T08:03:39Z</time>
      </trkpt>
      <trkpt lat="45.19799" lon="6.46849">
        <ele>1210.8</ele>
        <time>2022-07-17T08:03:40Z</time>
      </trkpt>
      <trkpt lat="45.198" lon="6.46846">
        <ele>1210.8</ele>
        <time>2022-07-17T08:03:41Z</time>
      </trkpt>
      <trkpt lat="45.19801" lon="6.46843">
        <ele>1211.2</ele>
        <time>2022-07-17T08:03:42Z</time>
      </trkpt>
      <trkpt lat="45.19802" lon="6.4684">
        <ele>1211.4</ele>
        <time>2022-07-17T08:03:43Z</time>
      </trkpt>
      <trkpt lat="45.19804" lon="6.46838">
        <ele>1211.6</ele>
        <time>2022-07-17T08:03:44Z</time>
      </trkpt>
      <trkpt lat="45.19805" lon="6.46835">
        <ele>1211.6</ele>
        <time>2022-07-17T08:03:45Z</time>
      </trkpt>
      <trkpt lat="45.19806" lon="6.46832">
        <ele>1212</ele>
        <time>2022-07-17T08:03:46Z</time>
      </trkpt>
      <trkpt lat="45.19807" lon="6.46829">
        <ele>1212.2</ele>
        <time>2022-07-17T08:03:47Z</time>
      </trkpt>
      <trkpt lat="45.19808" lon="6.46827">
        <ele>1212.2</ele>
        <time>2022-07-17T08:03:48Z</time>
      </trkpt>
      <trkpt lat="45.19809" lon="6.46824">
        <ele>1212.6</ele>
        <time>2022-07-17T08:03:49Z</time>
      </trkpt>
      <trkpt lat="45.1981" lon="6.46821">
        <ele>1212.6</ele>
        <time>2022-07-17T08:03:50Z</time>
      </trkpt>
      <trkpt lat="45.19811" lon="6.46818">
        <ele>1213</ele>
        <time>2022-07-17T08:03:51Z</time>
      </trkpt>
      <trkpt lat="45.19812" lon="6.46815">
        <ele>1213</ele>
        <time>2022-07-17T08:03:52Z</time>
      </trkpt>
      <trkpt lat="45.19813" lon="6.46812">
        <ele>1213.2</ele>
        <time>2022-07-17T08:03:53Z</time>
      </trkpt>
      <trkpt lat="45.19814" lon="6.46809">
        <ele>1213.4</ele>
        <time>2022-07-17T08:03:54Z</time>
      </trkpt>
      <trkpt lat="45.19815" lon="6.46806">
        <ele>1213.4</ele>
        <time>2022-07-17T08:03:55Z</time>
      </trkpt>
      <trkpt lat="45.19817" lon="6.46803">
        <ele>1213.8</ele>
        <time>2022-07-17T08:03:56Z</time>
      </trkpt>
      <trkpt lat="45.19818" lon="6.468">
        <ele>1213.8</ele>
        <time>2022-07-17T08:03:57Z</time>
      </trkpt>
      <trkpt lat="45.19819" lon="6.46797">
        <ele>1214.2</ele>
        <time>2022-07-17T08:03:58Z</time>
      </trkpt>
      <trkpt lat="45.19821" lon="6.46795">
        <ele>1214.4</ele>
        <time>2022-07-17T08:03:59Z</time>
      </trkpt>
      <trkpt lat="45.19822" lon="6.46792">
        <ele>1214.4</ele>
        <time>2022-07-17T08:04:00Z</time>
      </trkpt>
      <trkpt lat="45.19824" lon="6.46789">
        <ele>1214.8</ele>
        <time>2022-07-17T08:04:01Z</time>
      </trkpt>
      <trkpt lat="45.19826" lon="6.46787">
        <ele>1214.8</ele>
        <time>2022-07-17T08:04:02Z</time>
      </trkpt>
      <trkpt lat="45.19827" lon="6.46784">
        <ele>1215.2</ele>
        <time>2022-07-17T08:04:03Z</time>
      </trkpt>
      <trkpt lat="45.19828" lon="6.46782">
        <ele>1215.4</ele>
        <time>2022-07-17T08:04:04Z</time>
      </trkpt>
      <trkpt lat="45.1983" lon="6.4678">
        <ele>1215.6</ele>
        <time>2022-07-17T08:04:05Z</time>
      </trkpt>
      <trkpt lat="45.19831" lon="6.46778">
        <ele>1215.8</ele>
        <time>2022-07-17T08:04:06Z</time>
      </trkpt>
      <trkpt lat="45.19832" lon="6.46775">
        <ele>1215.8</ele>
        <time>2022-07-17T08:04:07Z</time>
      </trkpt>
      <trkpt lat="45.19833" lon="6.46773">
        <ele>1216.2</ele>
        <time>2022-07-17T08:04:08Z</time>
      </trkpt>
      <trkpt lat="45.19835" lon="6.46771">
        <ele>1216.4</ele>
        <time>2022-07-17T08:04:09Z</time>
      </trkpt>
      <trkpt lat="45.19836" lon="6.46768">
        <ele>1216.4</ele>
        <time>2022-07-17T08:04:10Z</time>
      </trkpt>
      <trkpt lat="45.19837" lon="6.46765">
        <ele>1216.8</ele>
        <time>2022-07-17T08:04:11Z</time>
      </trkpt>
      <trkpt lat="45.19839" lon="6.46763">
        <ele>1216.8</ele>
        <time>2022-07-17T08:04:12Z</time>
      </trkpt>
      <trkpt lat="45.19841" lon="6.46761">
        <ele>1217.2</ele>
        <time>2022-07-17T08:04:13Z</time>
      </trkpt>
      <trkpt lat="45.19842" lon="6.46758">
        <ele>1217.2</ele>
        <time>2022-07-17T08:04:14Z</time>
      </trkpt>
      <trkpt lat="45.19844" lon="6.46756">
        <ele>1217.6</ele>
        <time>2022-07-17T08:04:15Z</time>
      </trkpt>
      <trkpt lat="45.19846" lon="6.46754">
        <ele>1217.6</ele>
        <time>2022-07-17T08:04:16Z</time>
      </trkpt>
      <trkpt lat="45.19848" lon="6.46752">
        <ele>1217.8</ele>
        <time>2022-07-17T08:04:17Z</time>
      </trkpt>
      <trkpt lat="45.19851" lon="6.4675">
        <ele>1217.8</ele>
        <time>2022-07-17T08:04:18Z</time>
      </trkpt>
      <trkpt lat="45.19853" lon="6.46749">
        <ele>1218.2</ele>
        <time>2022-07-17T08:04:19Z</time>
      </trkpt>
      <trkpt lat="45.19855" lon="6.46747">
        <ele>1218.2</ele>
        <time>2022-07-17T08:04:20Z</time>
      </trkpt>
      <trkpt lat="45.19858" lon="6.46746">
        <ele>1218.6</ele>
        <time>2022-07-17T08:04:21Z</time>
      </trkpt>
      <trkpt lat="45.19861" lon="6.46745">
        <ele>1218.6</ele>
        <time>2022-07-17T08:04:22Z</time>
      </trkpt>
      <trkpt lat="45.19863" lon="6.46744">
        <ele>1218.8</ele>
        <time>2022-07-17T08:04:23Z</time>
      </trkpt>
      <trkpt lat="45.19866" lon="6.46743">
        <ele>1219.2</ele>
        <time>2022-07-17T08:04:24Z</time>
      </trkpt>
      <trkpt lat="45.19868" lon="6.46742">
        <ele>1219.2</ele>
        <time>2022-07-17T08:04:25Z</time>
      </trkpt>
      <trkpt lat="45.19871" lon="6.46742">
        <ele>1219.4</ele>
        <time>2022-07-17T08:04:26Z</time>
      </trkpt>
      <trkpt lat="45.19873" lon="6.46741">
        <ele>1219.4</ele>
        <time>2022-07-17T08:04:27Z</time>
      </trkpt>
      <trkpt lat="45.19875" lon="6.4674">
        <ele>1219.8</ele>
        <time>2022-07-17T08:04:28Z</time>
      </trkpt>
      <trkpt lat="45.19878" lon="6.46739">
        <ele>1220</ele>
        <time>2022-07-17T08:04:29Z</time>
      </trkpt>
      <trkpt lat="45.1988" lon="6.46739">
        <ele>1220.2</ele>
        <time>2022-07-17T08:04:30Z</time>
      </trkpt>
      <trkpt lat="45.19882" lon="6.46738">
        <ele>1220.4</ele>
        <time>2022-07-17T08:04:31Z</time>
      </trkpt>
      <trkpt lat="45.19884" lon="6.46737">
        <ele>1220.4</ele>
        <time>2022-07-17T08:04:32Z</time>
      </trkpt>
      <trkpt lat="45.19886" lon="6.46736">
        <ele>1220.8</ele>
        <time>2022-07-17T08:04:33Z</time>
      </trkpt>
      <trkpt lat="45.19888" lon="6.46735">
        <ele>1221</ele>
        <time>2022-07-17T08:04:34Z</time>
      </trkpt>
      <trkpt lat="45.19891" lon="6.46734">
        <ele>1221.2</ele>
        <time>2022-07-17T08:04:35Z</time>
      </trkpt>
      <trkpt lat="45.19893" lon="6.46733">
        <ele>1221.4</ele>
        <time>2022-07-17T08:04:36Z</time>
      </trkpt>
      <trkpt lat="45.19896" lon="6.46732">
        <ele>1221.6</ele>
        <time>2022-07-17T08:04:37Z</time>
      </trkpt>
      <trkpt lat="45.19898" lon="6.46732">
        <ele>1221.6</ele>
        <time>2022-07-17T08:04:38Z</time>
      </trkpt>
      <trkpt lat="45.19901" lon="6.46731">
        <ele>1222</ele>
        <time>2022-07-17T08:04:39Z</time>
      </trkpt>
      <trkpt lat="45.19904" lon="6.46731">
        <ele>1222</ele>
        <time>2022-07-17T08:04:40Z</time>
      </trkpt>
      <trkpt lat="45.19907" lon="6.4673">
        <ele>1222.4</ele>
        <time>2022-07-17T08:04:41Z</time>
      </trkpt>
      <trkpt lat="45.1991" lon="6.4673">
        <ele>1222.4</ele>
        <time>2022-07-17T08:04:42Z</time>
      </trkpt>
      <trkpt lat="45.19912" lon="6.46729">
        <ele>1222.8</ele>
        <time>2022-07-17T08:04:43Z</time>
      </trkpt>
      <trkpt lat="45.19915" lon="6.46729">
        <ele>1223</ele>
        <time>2022-07-17T08:04:44Z</time>
      </trkpt>
      <trkpt lat="45.19918" lon="6.46728">
        <ele>1223</ele>
        <time>2022-07-17T08:04:45Z</time>
      </trkpt>
      <trkpt lat="45.19921" lon="6.46728">
        <ele>1223.4</ele>
        <time>2022-07-17T08:04:46Z</time>
      </trkpt>
      <trkpt lat="45.19923" lon="6.46727">
        <ele>1223.6</ele>
        <time>2022-07-17T08:04:47Z</time>
      </trkpt>
      <trkpt lat="45.19926" lon="6.46726">
        <ele>1223.6</ele>
        <time>2022-07-17T08:04:48Z</time>
      </trkpt>
      <trkpt lat="45.19929" lon="6.46726">
        <ele>1224</ele>
        <time>2022-07-17T08:04:49Z</time>
      </trkpt>
      <trkpt lat="45.19931" lon="6.46725">
        <ele>1224</ele>
        <time>2022-07-17T08:04:50Z</time>
      </trkpt>
      <trkpt lat="45.19934" lon="6.46725">
        <ele>1224.4</ele>
        <time>2022-07-17T08:04:51Z</time>
      </trkpt>
      <trkpt lat="45.19937" lon="6.46724">
        <ele>1224.4</ele>
        <time>2022-07-17T08:04:52Z</time>
      </trkpt>
      <trkpt lat="45.19939" lon="6.46724">
        <ele>1224.6</ele>
        <time>2022-07-17T08:04:53Z</time>
      </trkpt>
      <trkpt lat="45.19942" lon="6.46724">
        <ele>1224.6</ele>
        <time>2022-07-17T08:04:54Z</time>
      </trkpt>
      <trkpt lat="45.19945" lon="6.46722">
        <ele>1224.8</ele>
        <time>2022-07-17T08:04:55Z</time>
      </trkpt>
      <trkpt lat="45.19947" lon="6.46721">
        <ele>1224.8</ele>
        <time>2022-07-17T08:04:56Z</time>
      </trkpt>
      <trkpt lat="45.19949" lon="6.4672">
        <ele>1225.2</ele>
        <time>2022-07-17T08:04:57Z</time>
      </trkpt>
      <trkpt lat="45.19951" lon="6.46717">
        <ele>1225.2</ele>
        <time>2022-07-17T08:04:58Z</time>
      </trkpt>
      <trkpt lat="45.19953" lon="6.46714">
        <ele>1225.6</ele>
        <time>2022-07-17T08:04:59Z</time>
      </trkpt>
      <trkpt lat="45.19955" lon="6.46711">
        <ele>1225.8</ele>
        <time>2022-07-17T08:05:00Z</time>
      </trkpt>
      <trkpt lat="45.19955" lon="6.46708">
        <ele>1226</ele>
        <time>2022-07-17T08:05:01Z</time>
      </trkpt>
      <trkpt lat="45.19956" lon="6.46704">
        <ele>1226</ele>
        <time>2022-07-17T08:05:02Z</time>
      </trkpt>
      <trkpt lat="45.19956" lon="6.467">
        <ele>1226.4</ele>
        <time>2022-07-17T08:05:03Z</time>
      </trkpt>
      <trkpt lat="45.19955" lon="6.46696">
        <ele>1226.4</ele>
        <time>2022-07-17T08:05:04Z</time>
      </trkpt>
      <trkpt lat="45.19955" lon="6.46692">
        <ele>1226.4</ele>
        <time>2022-07-17T08:05:05Z</time>
      </trkpt>
      <trkpt lat="45.19953" lon="6.46689">
        <ele>1226.4</ele>
        <time>2022-07-17T08:05:06Z</time>
      </trkpt>
      <trkpt lat="45.19951" lon="6.46686">
        <ele>1226.6</ele>
        <time>2022-07-17T08:05:07Z</time>
      </trkpt>
      <trkpt lat="45.19948" lon="6.46684">
        <ele>1226.6</ele>
        <time>2022-07-17T08:05:08Z</time>
      </trkpt>
      <trkpt lat="45.19945" lon="6.46683">
        <ele>1226.6</ele>
        <time>2022-07-17T08:05:09Z</time>
      </trkpt>
      <trkpt lat="45.19942" lon="6.46683">
        <ele>1226.6</ele>
        <time>2022-07-17T08:05:10Z</time>
      </trkpt>
      <trkpt lat="45.19938" lon="6.46684">
        <ele>1226.6</ele>
        <time>2022-07-17T08:05:11Z</time>
      </trkpt>
      <trkpt lat="45.19934" lon="6.46685">
        <ele>1226.6</ele>
        <time>2022-07-17T08:05:12Z</time>
      </trkpt>
      <trkpt lat="45.19931" lon="6.46688">
        <ele>1226.6</ele>
        <time>2022-07-17T08:05:13Z</time>
      </trkpt>
      <trkpt lat="45.19927" lon="6.46689">
        <ele>1227</ele>
        <time>2022-07-17T08:05:14Z</time>
      </trkpt>
      <trkpt lat="45.19924" lon="6.46691">
        <ele>1227</ele>
        <time>2022-07-17T08:05:15Z</time>
      </trkpt>
      <trkpt lat="45.19921" lon="6.46693">
        <ele>1227.2</ele>
        <time>2022-07-17T08:05:16Z</time>
      </trkpt>
      <trkpt lat="45.19918" lon="6.46694">
        <ele>1227.2</ele>
        <time>2022-07-17T08:05:17Z</time>
      </trkpt>
      <trkpt lat="45.19915" lon="6.46695">
        <ele>1227.2</ele>
        <time>2022-07-17T08:05:18Z</time>
      </trkpt>
      <trkpt lat="45.19913" lon="6.46695">
        <ele>1227.6</ele>
        <time>2022-07-17T08:05:19Z</time>
      </trkpt>
      <trkpt lat="45.1991" lon="6.46696">
        <ele>1227.6</ele>
        <time>2022-07-17T08:05:20Z</time>
      </trkpt>
      <trkpt lat="45.19907" lon="6.46697">
        <ele>1227.6</ele>
        <time>2022-07-17T08:05:21Z</time>
      </trkpt>
      <trkpt lat="45.19905" lon="6.46697">
        <ele>1228</ele>
        <time>2022-07-17T08:05:22Z</time>
      </trkpt>
      <trkpt lat="45.19903" lon="6.46698">
        <ele>1228</ele>
        <time>2022-07-17T08:05:23Z</time>
      </trkpt>
      <trkpt lat="45.199" lon="6.46698">
        <ele>1228.2</ele>
        <time>2022-07-17T08:05:24Z</time>
      </trkpt>
      <trkpt lat="45.19898" lon="6.46698">
        <ele>1228.2</ele>
        <time>2022-07-17T08:05:25Z</time>
      </trkpt>
      <trkpt lat="45.19895" lon="6.46698">
        <ele>1228.6</ele>
        <time>2022-07-17T08:05:26Z</time>
      </trkpt>
      <trkpt lat="45.19893" lon="6.46697">
        <ele>1228.6</ele>
        <time>2022-07-17T08:05:27Z</time>
      </trkpt>
      <trkpt lat="45.1989" lon="6.46696">
        <ele>1229</ele>
        <time>2022-07-17T08:05:28Z</time>
      </trkpt>
      <trkpt lat="45.19888" lon="6.46696">
        <ele>1229.2</ele>
        <time>2022-07-17T08:05:29Z</time>
      </trkpt>
      <trkpt lat="45.19886" lon="6.46695">
        <ele>1229.2</ele>
        <time>2022-07-17T08:05:30Z</time>
      </trkpt>
      <trkpt lat="45.19883" lon="6.46694">
        <ele>1229.6</ele>
        <time>2022-07-17T08:05:31Z</time>
      </trkpt>
      <trkpt lat="45.19881" lon="6.46694">
        <ele>1229.8</ele>
        <time>2022-07-17T08:05:32Z</time>
      </trkpt>
      <trkpt lat="45.19878" lon="6.46694">
        <ele>1230</ele>
        <time>2022-07-17T08:05:33Z</time>
      </trkpt>
      <trkpt lat="45.19876" lon="6.46694">
        <ele>1230</ele>
        <time>2022-07-17T08:05:34Z</time>
      </trkpt>
      <trkpt lat="45.19874" lon="6.46693">
        <ele>1230.4</ele>
        <time>2022-07-17T08:05:35Z</time>
      </trkpt>
      <trkpt lat="45.19871" lon="6.46692">
        <ele>1230.4</ele>
        <time>2022-07-17T08:05:36Z</time>
      </trkpt>
      <trkpt lat="45.19869" lon="6.46692">
        <ele>1230.8</ele>
        <time>2022-07-17T08:05:37Z</time>
      </trkpt>
      <trkpt lat="45.19867" lon="6.46692">
        <ele>1231</ele>
        <time>2022-07-17T08:05:38Z</time>
      </trkpt>
      <trkpt lat="45.19864" lon="6.46691">
        <ele>1231</ele>
        <time>2022-07-17T08:05:39Z</time>
      </trkpt>
      <trkpt lat="45.19862" lon="6.46691">
        <ele>1231.4</ele>
        <time>2022-07-17T08:05:40Z</time>
      </trkpt>
      <trkpt lat="45.1986" lon="6.46691">
        <ele>1231.6</ele>
        <time>2022-07-17T08:05:41Z</time>
      </trkpt>
      <trkpt lat="45.19858" lon="6.46692">
        <ele>1231.6</ele>
        <time>2022-07-17T08:05:42Z</time>
      </trkpt>
      <trkpt lat="45.19856" lon="6.46693">
        <ele>1232</ele>
        <time>2022-07-17T08:05:43Z</time>
      </trkpt>
      <trkpt lat="45.19853" lon="6.46693">
        <ele>1232.2</ele>
        <time>2022-07-17T08:05:44Z</time>
      </trkpt>
      <trkpt lat="45.19852" lon="6.46693">
        <ele>1232.6</ele>
        <time>2022-07-17T08:05:45Z</time>
      </trkpt>
      <trkpt lat="45.1985" lon="6.46694">
        <ele>1232.8</ele>
        <time>2022-07-17T08:05:46Z</time>
      </trkpt>
      <trkpt lat="45.19848" lon="6.46695">
        <ele>1233</ele>
        <time>2022-07-17T08:05:47Z</time>
      </trkpt>
      <trkpt lat="45.19846" lon="6.46696">
        <ele>1233.4</ele>
        <time>2022-07-17T08:05:49Z</time>
      </trkpt>
      <trkpt lat="45.19844" lon="6.46697">
        <ele>1233.4</ele>
        <time>2022-07-17T08:05:50Z</time>
      </trkpt>
      <trkpt lat="45.1984" lon="6.46699">
        <ele>1233.6</ele>
        <time>2022-07-17T08:05:51Z</time>
      </trkpt>
      <trkpt lat="45.19838" lon="6.467">
        <ele>1233.6</ele>
        <time>2022-07-17T08:05:52Z</time>
      </trkpt>
      <trkpt lat="45.19836" lon="6.467">
        <ele>1234</ele>
        <time>2022-07-17T08:05:53Z</time>
      </trkpt>
      <trkpt lat="45.19834" lon="6.46701">
        <ele>1234</ele>
        <time>2022-07-17T08:05:54Z</time>
      </trkpt>
      <trkpt lat="45.19832" lon="6.46703">
        <ele>1234.4</ele>
        <time>2022-07-17T08:05:55Z</time>
      </trkpt>
      <trkpt lat="45.1983" lon="6.46704">
        <ele>1234.6</ele>
        <time>2022-07-17T08:05:56Z</time>
      </trkpt>
      <trkpt lat="45.19828" lon="6.46706">
        <ele>1234.6</ele>
        <time>2022-07-17T08:05:57Z</time>
      </trkpt>
      <trkpt lat="45.19826" lon="6.46708">
        <ele>1235</ele>
        <time>2022-07-17T08:05:58Z</time>
      </trkpt>
      <trkpt lat="45.19824" lon="6.46709">
        <ele>1235</ele>
        <time>2022-07-17T08:05:59Z</time>
      </trkpt>
      <trkpt lat="45.19822" lon="6.46711">
        <ele>1235.2</ele>
        <time>2022-07-17T08:06:00Z</time>
      </trkpt>
      <trkpt lat="45.1982" lon="6.46713">
        <ele>1235.2</ele>
        <time>2022-07-17T08:06:01Z</time>
      </trkpt>
      <trkpt lat="45.19818" lon="6.46715">
        <ele>1235.6</ele>
        <time>2022-07-17T08:06:02Z</time>
      </trkpt>
      <trkpt lat="45.19815" lon="6.46718">
        <ele>1235.6</ele>
        <time>2022-07-17T08:06:03Z</time>
      </trkpt>
      <trkpt lat="45.19813" lon="6.4672">
        <ele>1236</ele>
        <time>2022-07-17T08:06:04Z</time>
      </trkpt>
      <trkpt lat="45.19811" lon="6.46721">
        <ele>1236.2</ele>
        <time>2022-07-17T08:06:05Z</time>
      </trkpt>
      <trkpt lat="45.19809" lon="6.46723">
        <ele>1236.4</ele>
        <time>2022-07-17T08:06:06Z</time>
      </trkpt>
      <trkpt lat="45.19807" lon="6.46726">
        <ele>1236.6</ele>
        <time>2022-07-17T08:06:07Z</time>
      </trkpt>
      <trkpt lat="45.19805" lon="6.46728">
        <ele>1236.8</ele>
        <time>2022-07-17T08:06:08Z</time>
      </trkpt>
      <trkpt lat="45.19802" lon="6.46732">
        <ele>1237</ele>
        <time>2022-07-17T08:06:09Z</time>
      </trkpt>
      <trkpt lat="45.198" lon="6.46735">
        <ele>1237</ele>
        <time>2022-07-17T08:06:10Z</time>
      </trkpt>
      <trkpt lat="45.19799" lon="6.46738">
        <ele>1237.4</ele>
        <time>2022-07-17T08:06:11Z</time>
      </trkpt>
      <trkpt lat="45.19797" lon="6.46741">
        <ele>1237.4</ele>
        <time>2022-07-17T08:06:12Z</time>
      </trkpt>
      <trkpt lat="45.19795" lon="6.46744">
        <ele>1237.6</ele>
        <time>2022-07-17T08:06:13Z</time>
      </trkpt>
      <trkpt lat="45.19793" lon="6.46747">
        <ele>1237.6</ele>
        <time>2022-07-17T08:06:14Z</time>
      </trkpt>
      <trkpt lat="45.19792" lon="6.4675">
        <ele>1238</ele>
        <time>2022-07-17T08:06:15Z</time>
      </trkpt>
      <trkpt lat="45.1979" lon="6.46753">
        <ele>1238</ele>
        <time>2022-07-17T08:06:16Z</time>
      </trkpt>
      <trkpt lat="45.19788" lon="6.46756">
        <ele>1238.2</ele>
        <time>2022-07-17T08:06:17Z</time>
      </trkpt>
      <trkpt lat="45.19786" lon="6.46758">
        <ele>1238.4</ele>
        <time>2022-07-17T08:06:18Z</time>
      </trkpt>
      <trkpt lat="45.19785" lon="6.46761">
        <ele>1238.4</ele>
        <time>2022-07-17T08:06:19Z</time>
      </trkpt>
      <trkpt lat="45.19783" lon="6.46764">
        <ele>1238.8</ele>
        <time>2022-07-17T08:06:20Z</time>
      </trkpt>
      <trkpt lat="45.19781" lon="6.46766">
        <ele>1238.8</ele>
        <time>2022-07-17T08:06:21Z</time>
      </trkpt>
      <trkpt lat="45.1978" lon="6.46769">
        <ele>1239.2</ele>
        <time>2022-07-17T08:06:22Z</time>
      </trkpt>
      <trkpt lat="45.19778" lon="6.46771">
        <ele>1239.4</ele>
        <time>2022-07-17T08:06:23Z</time>
      </trkpt>
      <trkpt lat="45.19776" lon="6.46774">
        <ele>1239.6</ele>
        <time>2022-07-17T08:06:24Z</time>
      </trkpt>
      <trkpt lat="45.19774" lon="6.46776">
        <ele>1239.6</ele>
        <time>2022-07-17T08:06:25Z</time>
      </trkpt>
      <trkpt lat="45.19773" lon="6.46779">
        <ele>1240</ele>
        <time>2022-07-17T08:06:26Z</time>
      </trkpt>
      <trkpt lat="45.19771" lon="6.46781">
        <ele>1240</ele>
        <time>2022-07-17T08:06:27Z</time>
      </trkpt>
      <trkpt lat="45.19769" lon="6.46783">
        <ele>1240.4</ele>
        <time>2022-07-17T08:06:28Z</time>
      </trkpt>
      <trkpt lat="45.19767" lon="6.46786">
        <ele>1240.4</ele>
        <time>2022-07-17T08:06:29Z</time>
      </trkpt>
      <trkpt lat="45.19766" lon="6.46788">
        <ele>1240.6</ele>
        <time>2022-07-17T08:06:30Z</time>
      </trkpt>
      <trkpt lat="45.19764" lon="6.4679">
        <ele>1240.6</ele>
        <time>2022-07-17T08:06:31Z</time>
      </trkpt>
      <trkpt lat="45.19762" lon="6.46792">
        <ele>1241</ele>
        <time>2022-07-17T08:06:32Z</time>
      </trkpt>
      <trkpt lat="45.19761" lon="6.46795">
        <ele>1241</ele>
        <time>2022-07-17T08:06:33Z</time>
      </trkpt>
      <trkpt lat="45.19759" lon="6.46797">
        <ele>1241.4</ele>
        <time>2022-07-17T08:06:34Z</time>
      </trkpt>
      <trkpt lat="45.19758" lon="6.468">
        <ele>1241.4</ele>
        <time>2022-07-17T08:06:35Z</time>
      </trkpt>
      <trkpt lat="45.19756" lon="6.46802">
        <ele>1241.8</ele>
        <time>2022-07-17T08:06:36Z</time>
      </trkpt>
      <trkpt lat="45.19755" lon="6.46805">
        <ele>1241.8</ele>
        <time>2022-07-17T08:06:37Z</time>
      </trkpt>
      <trkpt lat="45.19754" lon="6.46808">
        <ele>1242.2</ele>
        <time>2022-07-17T08:06:38Z</time>
      </trkpt>
      <trkpt lat="45.19752" lon="6.4681">
        <ele>1242.2</ele>
        <time>2022-07-17T08:06:39Z</time>
      </trkpt>
      <trkpt lat="45.19751" lon="6.46812">
        <ele>1242.4</ele>
        <time>2022-07-17T08:06:40Z</time>
      </trkpt>
      <trkpt lat="45.19749" lon="6.46814">
        <ele>1242.4</ele>
        <time>2022-07-17T08:06:41Z</time>
      </trkpt>
      <trkpt lat="45.19747" lon="6.46816">
        <ele>1242.8</ele>
        <time>2022-07-17T08:06:42Z</time>
      </trkpt>
      <trkpt lat="45.19746" lon="6.46818">
        <ele>1243</ele>
        <time>2022-07-17T08:06:43Z</time>
      </trkpt>
      <trkpt lat="45.19744" lon="6.4682">
        <ele>1243.2</ele>
        <time>2022-07-17T08:06:44Z</time>
      </trkpt>
      <trkpt lat="45.19742" lon="6.46822">
        <ele>1243.6</ele>
        <time>2022-07-17T08:06:45Z</time>
      </trkpt>
      <trkpt lat="45.1974" lon="6.46824">
        <ele>1243.8</ele>
        <time>2022-07-17T08:06:46Z</time>
      </trkpt>
      <trkpt lat="45.19738" lon="6.46826">
        <ele>1243.8</ele>
        <time>2022-07-17T08:06:47Z</time>
      </trkpt>
      <trkpt lat="45.19735" lon="6.46827">
        <ele>1244.2</ele>
        <time>2022-07-17T08:06:48Z</time>
      </trkpt>
      <trkpt lat="45.19733" lon="6.46828">
        <ele>1244.2</ele>
        <time>2022-07-17T08:06:49Z</time>
      </trkpt>
      <trkpt lat="45.1973" lon="6.46829">
        <ele>1244.8</ele>
        <time>2022-07-17T08:06:50Z</time>
      </trkpt>
      <trkpt lat="45.19728" lon="6.4683">
        <ele>1245</ele>
        <time>2022-07-17T08:06:51Z</time>
      </trkpt>
      <trkpt lat="45.19725" lon="6.46831">
        <ele>1245.2</ele>
        <time>2022-07-17T08:06:52Z</time>
      </trkpt>
      <trkpt lat="45.19723" lon="6.46832">
        <ele>1245.2</ele>
        <time>2022-07-17T08:06:53Z</time>
      </trkpt>
      <trkpt lat="45.1972" lon="6.46832">
        <ele>1245.6</ele>
        <time>2022-07-17T08:06:54Z</time>
      </trkpt>
      <trkpt lat="45.19718" lon="6.46833">
        <ele>1245.6</ele>
        <time>2022-07-17T08:06:55Z</time>
      </trkpt>
      <trkpt lat="45.19715" lon="6.46833">
        <ele>1246</ele>
        <time>2022-07-17T08:06:56Z</time>
      </trkpt>
      <trkpt lat="45.19713" lon="6.46833">
        <ele>1246</ele>
        <time>2022-07-17T08:06:57Z</time>
      </trkpt>
      <trkpt lat="45.1971" lon="6.46834">
        <ele>1246.2</ele>
        <time>2022-07-17T08:06:58Z</time>
      </trkpt>
      <trkpt lat="45.19708" lon="6.46834">
        <ele>1246.2</ele>
        <time>2022-07-17T08:06:59Z</time>
      </trkpt>
      <trkpt lat="45.19706" lon="6.46835">
        <ele>1246.6</ele>
        <time>2022-07-17T08:07:00Z</time>
      </trkpt>
      <trkpt lat="45.19703" lon="6.46835">
        <ele>1246.8</ele>
        <time>2022-07-17T08:07:01Z</time>
      </trkpt>
      <trkpt lat="45.19701" lon="6.46835">
        <ele>1247.2</ele>
        <time>2022-07-17T08:07:02Z</time>
      </trkpt>
      <trkpt lat="45.19698" lon="6.46835">
        <ele>1247.2</ele>
        <time>2022-07-17T08:07:03Z</time>
      </trkpt>
      <trkpt lat="45.19696" lon="6.46835">
        <ele>1247.6</ele>
        <time>2022-07-17T08:07:04Z</time>
      </trkpt>
      <trkpt lat="45.19693" lon="6.46835">
        <ele>1247.8</ele>
        <time>2022-07-17T08:07:05Z</time>
      </trkpt>
      <trkpt lat="45.19691" lon="6.46835">
        <ele>1248</ele>
        <time>2022-07-17T08:07:06Z</time>
      </trkpt>
      <trkpt lat="45.19688" lon="6.46835">
        <ele>1248</ele>
        <time>2022-07-17T08:07:07Z</time>
      </trkpt>
      <trkpt lat="45.19686" lon="6.46835">
        <ele>1248.4</ele>
        <time>2022-07-17T08:07:08Z</time>
      </trkpt>
      <trkpt lat="45.19683" lon="6.46835">
        <ele>1248.6</ele>
        <time>2022-07-17T08:07:09Z</time>
      </trkpt>
      <trkpt lat="45.19681" lon="6.46836">
        <ele>1248.8</ele>
        <time>2022-07-17T08:07:10Z</time>
      </trkpt>
      <trkpt lat="45.19678" lon="6.46836">
        <ele>1249</ele>
        <time>2022-07-17T08:07:11Z</time>
      </trkpt>
      <trkpt lat="45.19676" lon="6.46837">
        <ele>1249</ele>
        <time>2022-07-17T08:07:12Z</time>
      </trkpt>
      <trkpt lat="45.19673" lon="6.46837">
        <ele>1249.4</ele>
        <time>2022-07-17T08:07:13Z</time>
      </trkpt>
      <trkpt lat="45.19671" lon="6.46838">
        <ele>1249.4</ele>
        <time>2022-07-17T08:07:14Z</time>
      </trkpt>
      <trkpt lat="45.19668" lon="6.46839">
        <ele>1249.8</ele>
        <time>2022-07-17T08:07:15Z</time>
      </trkpt>
      <trkpt lat="45.19666" lon="6.46839">
        <ele>1249.8</ele>
        <time>2022-07-17T08:07:16Z</time>
      </trkpt>
      <trkpt lat="45.19664" lon="6.46839">
        <ele>1250.4</ele>
        <time>2022-07-17T08:07:17Z</time>
      </trkpt>
      <trkpt lat="45.19662" lon="6.4684">
        <ele>1250.6</ele>
        <time>2022-07-17T08:07:18Z</time>
      </trkpt>
      <trkpt lat="45.1966" lon="6.46841">
        <ele>1250.6</ele>
        <time>2022-07-17T08:07:19Z</time>
      </trkpt>
      <trkpt lat="45.19658" lon="6.46842">
        <ele>1251</ele>
        <time>2022-07-17T08:07:20Z</time>
      </trkpt>
      <trkpt lat="45.19655" lon="6.46843">
        <ele>1251.2</ele>
        <time>2022-07-17T08:07:21Z</time>
      </trkpt>
      <trkpt lat="45.19653" lon="6.46845">
        <ele>1251.6</ele>
        <time>2022-07-17T08:07:22Z</time>
      </trkpt>
      <trkpt lat="45.1965" lon="6.46846">
        <ele>1251.8</ele>
        <time>2022-07-17T08:07:23Z</time>
      </trkpt>
      <trkpt lat="45.19648" lon="6.46847">
        <ele>1251.8</ele>
        <time>2022-07-17T08:07:24Z</time>
      </trkpt>
      <trkpt lat="45.19646" lon="6.46848">
        <ele>1252.2</ele>
        <time>2022-07-17T08:07:25Z</time>
      </trkpt>
      <trkpt lat="45.19643" lon="6.46849">
        <ele>1252.2</ele>
        <time>2022-07-17T08:07:26Z</time>
      </trkpt>
      <trkpt lat="45.19642" lon="6.4685">
        <ele>1252.6</ele>
        <time>2022-07-17T08:07:27Z</time>
      </trkpt>
      <trkpt lat="45.1964" lon="6.46851">
        <ele>1252.8</ele>
        <time>2022-07-17T08:07:28Z</time>
      </trkpt>
      <trkpt lat="45.19638" lon="6.46853">
        <ele>1253.2</ele>
        <time>2022-07-17T08:07:29Z</time>
      </trkpt>
      <trkpt lat="45.19636" lon="6.46854">
        <ele>1253.4</ele>
        <time>2022-07-17T08:07:30Z</time>
      </trkpt>
      <trkpt lat="45.19633" lon="6.46856">
        <ele>1253.4</ele>
        <time>2022-07-17T08:07:31Z</time>
      </trkpt>
      <trkpt lat="45.19631" lon="6.46857">
        <ele>1253.6</ele>
        <time>2022-07-17T08:07:32Z</time>
      </trkpt>
      <trkpt lat="45.19629" lon="6.46859">
        <ele>1253.6</ele>
        <time>2022-07-17T08:07:33Z</time>
      </trkpt>
      <trkpt lat="45.19626" lon="6.46861">
        <ele>1254</ele>
        <time>2022-07-17T08:07:34Z</time>
      </trkpt>
      <trkpt lat="45.19624" lon="6.46863">
        <ele>1254</ele>
        <time>2022-07-17T08:07:35Z</time>
      </trkpt>
      <trkpt lat="45.19622" lon="6.46866">
        <ele>1254.4</ele>
        <time>2022-07-17T08:07:36Z</time>
      </trkpt>
      <trkpt lat="45.1962" lon="6.46868">
        <ele>1254.4</ele>
        <time>2022-07-17T08:07:37Z</time>
      </trkpt>
      <trkpt lat="45.19617" lon="6.4687">
        <ele>1254.8</ele>
        <time>2022-07-17T08:07:38Z</time>
      </trkpt>
      <trkpt lat="45.19615" lon="6.46872">
        <ele>1254.8</ele>
        <time>2022-07-17T08:07:39Z</time>
      </trkpt>
      <trkpt lat="45.19613" lon="6.46874">
        <ele>1255.2</ele>
        <time>2022-07-17T08:07:40Z</time>
      </trkpt>
      <trkpt lat="45.19611" lon="6.46874">
        <ele>1255.4</ele>
        <time>2022-07-17T08:07:41Z</time>
      </trkpt>
      <trkpt lat="45.19608" lon="6.46873">
        <ele>1255.6</ele>
        <time>2022-07-17T08:07:42Z</time>
      </trkpt>
      <trkpt lat="45.19606" lon="6.46872">
        <ele>1255.8</ele>
        <time>2022-07-17T08:07:43Z</time>
      </trkpt>
      <trkpt lat="45.19604" lon="6.4687">
        <ele>1255.8</ele>
        <time>2022-07-17T08:07:44Z</time>
      </trkpt>
      <trkpt lat="45.19602" lon="6.46868">
        <ele>1256.2</ele>
        <time>2022-07-17T08:07:45Z</time>
      </trkpt>
      <trkpt lat="45.19601" lon="6.46865">
        <ele>1256.2</ele>
        <time>2022-07-17T08:07:46Z</time>
      </trkpt>
      <trkpt lat="45.196" lon="6.46862">
        <ele>1256.2</ele>
        <time>2022-07-17T08:07:47Z</time>
      </trkpt>
      <trkpt lat="45.19601" lon="6.46858">
        <ele>1256.4</ele>
        <time>2022-07-17T08:07:48Z</time>
      </trkpt>
      <trkpt lat="45.19602" lon="6.46855">
        <ele>1256.4</ele>
        <time>2022-07-17T08:07:49Z</time>
      </trkpt>
      <trkpt lat="45.19603" lon="6.46851">
        <ele>1256.8</ele>
        <time>2022-07-17T08:07:50Z</time>
      </trkpt>
      <trkpt lat="45.19605" lon="6.46849">
        <ele>1256.8</ele>
        <time>2022-07-17T08:07:51Z</time>
      </trkpt>
      <trkpt lat="45.19607" lon="6.46848">
        <ele>1257</ele>
        <time>2022-07-17T08:07:52Z</time>
      </trkpt>
      <trkpt lat="45.1961" lon="6.46847">
        <ele>1257</ele>
        <time>2022-07-17T08:07:53Z</time>
      </trkpt>
      <trkpt lat="45.19613" lon="6.46847">
        <ele>1257.2</ele>
        <time>2022-07-17T08:07:54Z</time>
      </trkpt>
      <trkpt lat="45.19615" lon="6.46846">
        <ele>1257.2</ele>
        <time>2022-07-17T08:07:55Z</time>
      </trkpt>
      <trkpt lat="45.19618" lon="6.46846">
        <ele>1257.6</ele>
        <time>2022-07-17T08:07:56Z</time>
      </trkpt>
      <trkpt lat="45.19621" lon="6.46845">
        <ele>1257.8</ele>
        <time>2022-07-17T08:07:57Z</time>
      </trkpt>
      <trkpt lat="45.19624" lon="6.46845">
        <ele>1257.8</ele>
        <time>2022-07-17T08:07:58Z</time>
      </trkpt>
      <trkpt lat="45.19627" lon="6.46844">
        <ele>1258</ele>
        <time>2022-07-17T08:07:59Z</time>
      </trkpt>
      <trkpt lat="45.19629" lon="6.46842">
        <ele>1258</ele>
        <time>2022-07-17T08:08:00Z</time>
      </trkpt>
      <trkpt lat="45.19632" lon="6.4684">
        <ele>1258.4</ele>
        <time>2022-07-17T08:08:01Z</time>
      </trkpt>
      <trkpt lat="45.19634" lon="6.46838">
        <ele>1258.4</ele>
        <time>2022-07-17T08:08:02Z</time>
      </trkpt>
      <trkpt lat="45.19636" lon="6.46836">
        <ele>1258.6</ele>
        <time>2022-07-17T08:08:03Z</time>
      </trkpt>
      <trkpt lat="45.19638" lon="6.46834">
        <ele>1258.6</ele>
        <time>2022-07-17T08:08:04Z</time>
      </trkpt>
      <trkpt lat="45.1964" lon="6.46832">
        <ele>1259</ele>
        <time>2022-07-17T08:08:05Z</time>
      </trkpt>
      <trkpt lat="45.19642" lon="6.46829">
        <ele>1259</ele>
        <time>2022-07-17T08:08:06Z</time>
      </trkpt>
      <trkpt lat="45.19644" lon="6.46827">
        <ele>1259</ele>
        <time>2022-07-17T08:08:07Z</time>
      </trkpt>
      <trkpt lat="45.19646" lon="6.46824">
        <ele>1259</ele>
        <time>2022-07-17T08:08:08Z</time>
      </trkpt>
      <trkpt lat="45.19648" lon="6.46821">
        <ele>1259.2</ele>
        <time>2022-07-17T08:08:09Z</time>
      </trkpt>
      <trkpt lat="45.1965" lon="6.46818">
        <ele>1259.2</ele>
        <time>2022-07-17T08:08:10Z</time>
      </trkpt>
      <trkpt lat="45.19652" lon="6.46816">
        <ele>1259.2</ele>
        <time>2022-07-17T08:08:11Z</time>
      </trkpt>
      <trkpt lat="45.19654" lon="6.46813">
        <ele>1259.6</ele>
        <time>2022-07-17T08:08:12Z</time>
      </trkpt>
      <trkpt lat="45.19656" lon="6.46811">
        <ele>1259.6</ele>
        <time>2022-07-17T08:08:13Z</time>
      </trkpt>
      <trkpt lat="45.19658" lon="6.46808">
        <ele>1259.8</ele>
        <time>2022-07-17T08:08:14Z</time>
      </trkpt>
      <trkpt lat="45.1966" lon="6.46806">
        <ele>1259.8</ele>
        <time>2022-07-17T08:08:15Z</time>
      </trkpt>
      <trkpt lat="45.19662" lon="6.46804">
        <ele>1260.2</ele>
        <time>2022-07-17T08:08:16Z</time>
      </trkpt>
      <trkpt lat="45.19664" lon="6.46801">
        <ele>1260.2</ele>
        <time>2022-07-17T08:08:17Z</time>
      </trkpt>
      <trkpt lat="45.19666" lon="6.46799">
        <ele>1260.4</ele>
        <time>2022-07-17T08:08:18Z</time>
      </trkpt>
      <trkpt lat="45.19668" lon="6.46797">
        <ele>1260.4</ele>
        <time>2022-07-17T08:08:19Z</time>
      </trkpt>
      <trkpt lat="45.1967" lon="6.46795">
        <ele>1260.6</ele>
        <time>2022-07-17T08:08:20Z</time>
      </trkpt>
      <trkpt lat="45.19672" lon="6.46792">
        <ele>1260.6</ele>
        <time>2022-07-17T08:08:21Z</time>
      </trkpt>
      <trkpt lat="45.19674" lon="6.4679">
        <ele>1261</ele>
        <time>2022-07-17T08:08:22Z</time>
      </trkpt>
      <trkpt lat="45.19676" lon="6.46787">
        <ele>1261</ele>
        <time>2022-07-17T08:08:23Z</time>
      </trkpt>
      <trkpt lat="45.19678" lon="6.46785">
        <ele>1261.2</ele>
        <time>2022-07-17T08:08:24Z</time>
      </trkpt>
      <trkpt lat="45.1968" lon="6.46783">
        <ele>1261.2</ele>
        <time>2022-07-17T08:08:25Z</time>
      </trkpt>
      <trkpt lat="45.19682" lon="6.4678">
        <ele>1261.2</ele>
        <time>2022-07-17T08:08:26Z</time>
      </trkpt>
      <trkpt lat="45.19684" lon="6.46778">
        <ele>1261.6</ele>
        <time>2022-07-17T08:08:27Z</time>
      </trkpt>
      <trkpt lat="45.19686" lon="6.46776">
        <ele>1261.6</ele>
        <time>2022-07-17T08:08:28Z</time>
      </trkpt>
      <trkpt lat="45.19688" lon="6.46773">
        <ele>1262</ele>
        <time>2022-07-17T08:08:29Z</time>
      </trkpt>
      <trkpt lat="45.1969" lon="6.46771">
        <ele>1262</ele>
        <time>2022-07-17T08:08:30Z</time>
      </trkpt>
      <trkpt lat="45.19692" lon="6.46768">
        <ele>1262.2</ele>
        <time>2022-07-17T08:08:31Z</time>
      </trkpt>
      <trkpt lat="45.19694" lon="6.46766">
        <ele>1262.2</ele>
        <time>2022-07-17T08:08:32Z</time>
      </trkpt>
      <trkpt lat="45.19696" lon="6.46763">
        <ele>1262.4</ele>
        <time>2022-07-17T08:08:33Z</time>
      </trkpt>
      <trkpt lat="45.19697" lon="6.4676">
        <ele>1262.4</ele>
        <time>2022-07-17T08:08:34Z</time>
      </trkpt>
      <trkpt lat="45.19699" lon="6.46757">
        <ele>1262.8</ele>
        <time>2022-07-17T08:08:35Z</time>
      </trkpt>
      <trkpt lat="45.19701" lon="6.46754">
        <ele>1262.8</ele>
        <time>2022-07-17T08:08:36Z</time>
      </trkpt>
      <trkpt lat="45.19703" lon="6.46752">
        <ele>1263.2</ele>
        <time>2022-07-17T08:08:37Z</time>
      </trkpt>
      <trkpt lat="45.19705" lon="6.46749">
        <ele>1263.2</ele>
        <time>2022-07-17T08:08:38Z</time>
      </trkpt>
      <trkpt lat="45.19706" lon="6.46746">
        <ele>1263.4</ele>
        <time>2022-07-17T08:08:39Z</time>
      </trkpt>
      <trkpt lat="45.19708" lon="6.46743">
        <ele>1263.4</ele>
        <time>2022-07-17T08:08:40Z</time>
      </trkpt>
      <trkpt lat="45.1971" lon="6.4674">
        <ele>1263.6</ele>
        <time>2022-07-17T08:08:41Z</time>
      </trkpt>
      <trkpt lat="45.19712" lon="6.46737">
        <ele>1263.6</ele>
        <time>2022-07-17T08:08:42Z</time>
      </trkpt>
      <trkpt lat="45.19714" lon="6.46734">
        <ele>1264</ele>
        <time>2022-07-17T08:08:43Z</time>
      </trkpt>
      <trkpt lat="45.19716" lon="6.46732">
        <ele>1264</ele>
        <time>2022-07-17T08:08:44Z</time>
      </trkpt>
      <trkpt lat="45.19718" lon="6.46729">
        <ele>1264.2</ele>
        <time>2022-07-17T08:08:45Z</time>
      </trkpt>
      <trkpt lat="45.1972" lon="6.46727">
        <ele>1264.2</ele>
        <time>2022-07-17T08:08:46Z</time>
      </trkpt>
      <trkpt lat="45.19722" lon="6.46724">
        <ele>1264.6</ele>
        <time>2022-07-17T08:08:47Z</time>
      </trkpt>
      <trkpt lat="45.19724" lon="6.46722">
        <ele>1264.6</ele>
        <time>2022-07-17T08:08:48Z</time>
      </trkpt>
      <trkpt lat="45.19726" lon="6.4672">
        <ele>1265</ele>
        <time>2022-07-17T08:08:49Z</time>
      </trkpt>
      <trkpt lat="45.19728" lon="6.46717">
        <ele>1265</ele>
        <time>2022-07-17T08:08:50Z</time>
      </trkpt>
      <trkpt lat="45.1973" lon="6.46714">
        <ele>1265.2</ele>
        <time>2022-07-17T08:08:51Z</time>
      </trkpt>
      <trkpt lat="45.19731" lon="6.46711">
        <ele>1265.2</ele>
        <time>2022-07-17T08:08:52Z</time>
      </trkpt>
      <trkpt lat="45.19732" lon="6.46708">
        <ele>1265.6</ele>
        <time>2022-07-17T08:08:53Z</time>
      </trkpt>
      <trkpt lat="45.19732" lon="6.46705">
        <ele>1265.6</ele>
        <time>2022-07-17T08:08:54Z</time>
      </trkpt>
      <trkpt lat="45.19732" lon="6.46702">
        <ele>1266</ele>
        <time>2022-07-17T08:08:55Z</time>
      </trkpt>
      <trkpt lat="45.19732" lon="6.46699">
        <ele>1266</ele>
        <time>2022-07-17T08:08:56Z</time>
      </trkpt>
      <trkpt lat="45.19732" lon="6.46696">
        <ele>1266.4</ele>
        <time>2022-07-17T08:08:57Z</time>
      </trkpt>
      <trkpt lat="45.19731" lon="6.46692">
        <ele>1266.6</ele>
        <time>2022-07-17T08:08:58Z</time>
      </trkpt>
      <trkpt lat="45.1973" lon="6.4669">
        <ele>1266.8</ele>
        <time>2022-07-17T08:08:59Z</time>
      </trkpt>
      <trkpt lat="45.19728" lon="6.46687">
        <ele>1266.8</ele>
        <time>2022-07-17T08:09:00Z</time>
      </trkpt>
      <trkpt lat="45.19725" lon="6.46686">
        <ele>1267.2</ele>
        <time>2022-07-17T08:09:01Z</time>
      </trkpt>
      <trkpt lat="45.19723" lon="6.46684">
        <ele>1267.6</ele>
        <time>2022-07-17T08:09:02Z</time>
      </trkpt>
      <trkpt lat="45.1972" lon="6.46683">
        <ele>1267.6</ele>
        <time>2022-07-17T08:09:03Z</time>
      </trkpt>
      <trkpt lat="45.19718" lon="6.46683">
        <ele>1267.8</ele>
        <time>2022-07-17T08:09:04Z</time>
      </trkpt>
      <trkpt lat="45.19715" lon="6.46684">
        <ele>1267.8</ele>
        <time>2022-07-17T08:09:05Z</time>
      </trkpt>
      <trkpt lat="45.19713" lon="6.46686">
        <ele>1268.2</ele>
        <time>2022-07-17T08:09:06Z</time>
      </trkpt>
      <trkpt lat="45.1971" lon="6.46688">
        <ele>1268.4</ele>
        <time>2022-07-17T08:09:07Z</time>
      </trkpt>
      <trkpt lat="45.19708" lon="6.4669">
        <ele>1268.4</ele>
        <time>2022-07-17T08:09:08Z</time>
      </trkpt>
      <trkpt lat="45.19707" lon="6.46693">
        <ele>1268.6</ele>
        <time>2022-07-17T08:09:09Z</time>
      </trkpt>
      <trkpt lat="45.19705" lon="6.46696">
        <ele>1268.6</ele>
        <time>2022-07-17T08:09:10Z</time>
      </trkpt>
      <trkpt lat="45.19704" lon="6.46699">
        <ele>1268.8</ele>
        <time>2022-07-17T08:09:11Z</time>
      </trkpt>
      <trkpt lat="45.19702" lon="6.46702">
        <ele>1268.8</ele>
        <time>2022-07-17T08:09:12Z</time>
      </trkpt>
      <trkpt lat="45.19701" lon="6.46705">
        <ele>1269.2</ele>
        <time>2022-07-17T08:09:13Z</time>
      </trkpt>
      <trkpt lat="45.19699" lon="6.46709">
        <ele>1269.2</ele>
        <time>2022-07-17T08:09:14Z</time>
      </trkpt>
      <trkpt lat="45.19698" lon="6.46711">
        <ele>1269.6</ele>
        <time>2022-07-17T08:09:15Z</time>
      </trkpt>
      <trkpt lat="45.19696" lon="6.46714">
        <ele>1269.8</ele>
        <time>2022-07-17T08:09:16Z</time>
      </trkpt>
      <trkpt lat="45.19694" lon="6.46717">
        <ele>1269.8</ele>
        <time>2022-07-17T08:09:17Z</time>
      </trkpt>
      <trkpt lat="45.19692" lon="6.46719">
        <ele>1270</ele>
        <time>2022-07-17T08:09:18Z</time>
      </trkpt>
      <trkpt lat="45.19691" lon="6.46721">
        <ele>1270</ele>
        <time>2022-07-17T08:09:19Z</time>
      </trkpt>
      <trkpt lat="45.19689" lon="6.46724">
        <ele>1270.4</ele>
        <time>2022-07-17T08:09:20Z</time>
      </trkpt>
      <trkpt lat="45.19687" lon="6.46727">
        <ele>1270.4</ele>
        <time>2022-07-17T08:09:21Z</time>
      </trkpt>
      <trkpt lat="45.19686" lon="6.46729">
        <ele>1270.8</ele>
        <time>2022-07-17T08:09:22Z</time>
      </trkpt>
      <trkpt lat="45.19684" lon="6.46732">
        <ele>1270.8</ele>
        <time>2022-07-17T08:09:23Z</time>
      </trkpt>
      <trkpt lat="45.19682" lon="6.46734">
        <ele>1271</ele>
        <time>2022-07-17T08:09:24Z</time>
      </trkpt>
      <trkpt lat="45.19679" lon="6.46736">
        <ele>1271</ele>
        <time>2022-07-17T08:09:25Z</time>
      </trkpt>
      <trkpt lat="45.19677" lon="6.46738">
        <ele>1271.4</ele>
        <time>2022-07-17T08:09:26Z</time>
      </trkpt>
      <trkpt lat="45.19676" lon="6.4674">
        <ele>1271.4</ele>
        <time>2022-07-17T08:09:27Z</time>
      </trkpt>
      <trkpt lat="45.19673" lon="6.46742">
        <ele>1272</ele>
        <time>2022-07-17T08:09:28Z</time>
      </trkpt>
      <trkpt lat="45.19671" lon="6.46743">
        <ele>1272</ele>
        <time>2022-07-17T08:09:29Z</time>
      </trkpt>
      <trkpt lat="45.19669" lon="6.46745">
        <ele>1272.2</ele>
        <time>2022-07-17T08:09:30Z</time>
      </trkpt>
      <trkpt lat="45.19667" lon="6.46746">
        <ele>1272.6</ele>
        <time>2022-07-17T08:09:31Z</time>
      </trkpt>
      <trkpt lat="45.19664" lon="6.46748">
        <ele>1272.8</ele>
        <time>2022-07-17T08:09:32Z</time>
      </trkpt>
      <trkpt lat="45.19662" lon="6.4675">
        <ele>1272.8</ele>
        <time>2022-07-17T08:09:33Z</time>
      </trkpt>
      <trkpt lat="45.19659" lon="6.46752">
        <ele>1273.2</ele>
        <time>2022-07-17T08:09:34Z</time>
      </trkpt>
      <trkpt lat="45.19657" lon="6.46754">
        <ele>1273.2</ele>
        <time>2022-07-17T08:09:35Z</time>
      </trkpt>
      <trkpt lat="45.19654" lon="6.46755">
        <ele>1273.4</ele>
        <time>2022-07-17T08:09:36Z</time>
      </trkpt>
      <trkpt lat="45.19651" lon="6.46757">
        <ele>1273.4</ele>
        <time>2022-07-17T08:09:37Z</time>
      </trkpt>
      <trkpt lat="45.19649" lon="6.46759">
        <ele>1273.8</ele>
        <time>2022-07-17T08:09:38Z</time>
      </trkpt>
      <trkpt lat="45.19646" lon="6.46761">
        <ele>1273.8</ele>
        <time>2022-07-17T08:09:39Z</time>
      </trkpt>
      <trkpt lat="45.19643" lon="6.46762">
        <ele>1274</ele>
        <time>2022-07-17T08:09:40Z</time>
      </trkpt>
      <trkpt lat="45.1964" lon="6.46764">
        <ele>1274</ele>
        <time>2022-07-17T08:09:41Z</time>
      </trkpt>
      <trkpt lat="45.19637" lon="6.46765">
        <ele>1274</ele>
        <time>2022-07-17T08:09:42Z</time>
      </trkpt>
      <trkpt lat="45.19634" lon="6.46767">
        <ele>1274.2</ele>
        <time>2022-07-17T08:09:43Z</time>
      </trkpt>
      <trkpt lat="45.19631" lon="6.46769">
        <ele>1274.2</ele>
        <time>2022-07-17T08:09:44Z</time>
      </trkpt>
      <trkpt lat="45.19628" lon="6.4677">
        <ele>1274.2</ele>
        <time>2022-07-17T08:09:45Z</time>
      </trkpt>
      <trkpt lat="45.19625" lon="6.46771">
        <ele>1274.6</ele>
        <time>2022-07-17T08:09:46Z</time>
      </trkpt>
      <trkpt lat="45.19622" lon="6.46773">
        <ele>1274.6</ele>
        <time>2022-07-17T08:09:47Z</time>
      </trkpt>
      <trkpt lat="45.1962" lon="6.46774">
        <ele>1274.6</ele>
        <time>2022-07-17T08:09:48Z</time>
      </trkpt>
      <trkpt lat="45.19617" lon="6.46776">
        <ele>1274.8</ele>
        <time>2022-07-17T08:09:49Z</time>
      </trkpt>
      <trkpt lat="45.19614" lon="6.46777">
        <ele>1274.8</ele>
        <time>2022-07-17T08:09:50Z</time>
      </trkpt>
      <trkpt lat="45.19611" lon="6.46779">
        <ele>1275</ele>
        <time>2022-07-17T08:09:51Z</time>
      </trkpt>
      <trkpt lat="45.19609" lon="6.46781">
        <ele>1275</ele>
        <time>2022-07-17T08:09:52Z</time>
      </trkpt>
      <trkpt lat="45.19606" lon="6.46782">
        <ele>1275.4</ele>
        <time>2022-07-17T08:09:53Z</time>
      </trkpt>
      <trkpt lat="45.19604" lon="6.46783">
        <ele>1275.4</ele>
        <time>2022-07-17T08:09:54Z</time>
      </trkpt>
      <trkpt lat="45.19601" lon="6.46785">
        <ele>1275.6</ele>
        <time>2022-07-17T08:09:55Z</time>
      </trkpt>
      <trkpt lat="45.19599" lon="6.46786">
        <ele>1275.6</ele>
        <time>2022-07-17T08:09:56Z</time>
      </trkpt>
      <trkpt lat="45.19596" lon="6.46786">
        <ele>1276</ele>
        <time>2022-07-17T08:09:57Z</time>
      </trkpt>
      <trkpt lat="45.19593" lon="6.46787">
        <ele>1276</ele>
        <time>2022-07-17T08:09:58Z</time>
      </trkpt>
      <trkpt lat="45.19591" lon="6.46787">
        <ele>1276.4</ele>
        <time>2022-07-17T08:09:59Z</time>
      </trkpt>
      <trkpt lat="45.19588" lon="6.46789">
        <ele>1276.6</ele>
        <time>2022-07-17T08:10:00Z</time>
      </trkpt>
      <trkpt lat="45.19586" lon="6.46791">
        <ele>1276.6</ele>
        <time>2022-07-17T08:10:01Z</time>
      </trkpt>
      <trkpt lat="45.19583" lon="6.46793">
        <ele>1276.8</ele>
        <time>2022-07-17T08:10:02Z</time>
      </trkpt>
      <trkpt lat="45.19581" lon="6.46795">
        <ele>1276.8</ele>
        <time>2022-07-17T08:10:03Z</time>
      </trkpt>
      <trkpt lat="45.1958" lon="6.46798">
        <ele>1276.8</ele>
        <time>2022-07-17T08:10:04Z</time>
      </trkpt>
      <trkpt lat="45.19578" lon="6.46801">
        <ele>1277.2</ele>
        <time>2022-07-17T08:10:05Z</time>
      </trkpt>
      <trkpt lat="45.19576" lon="6.46804">
        <ele>1277.2</ele>
        <time>2022-07-17T08:10:06Z</time>
      </trkpt>
      <trkpt lat="45.19574" lon="6.46807">
        <ele>1277.6</ele>
        <time>2022-07-17T08:10:07Z</time>
      </trkpt>
      <trkpt lat="45.19572" lon="6.4681">
        <ele>1277.6</ele>
        <time>2022-07-17T08:10:08Z</time>
      </trkpt>
      <trkpt lat="45.1957" lon="6.46812">
        <ele>1277.8</ele>
        <time>2022-07-17T08:10:09Z</time>
      </trkpt>
      <trkpt lat="45.19568" lon="6.46815">
        <ele>1277.8</ele>
        <time>2022-07-17T08:10:10Z</time>
      </trkpt>
      <trkpt lat="45.19566" lon="6.46818">
        <ele>1278.2</ele>
        <time>2022-07-17T08:10:11Z</time>
      </trkpt>
      <trkpt lat="45.19564" lon="6.46821">
        <ele>1278.2</ele>
        <time>2022-07-17T08:10:12Z</time>
      </trkpt>
      <trkpt lat="45.19562" lon="6.46824">
        <ele>1278.6</ele>
        <time>2022-07-17T08:10:13Z</time>
      </trkpt>
      <trkpt lat="45.19561" lon="6.46826">
        <ele>1278.6</ele>
        <time>2022-07-17T08:10:14Z</time>
      </trkpt>
      <trkpt lat="45.19559" lon="6.46828">
        <ele>1278.8</ele>
        <time>2022-07-17T08:10:15Z</time>
      </trkpt>
      <trkpt lat="45.19557" lon="6.46831">
        <ele>1278.8</ele>
        <time>2022-07-17T08:10:16Z</time>
      </trkpt>
      <trkpt lat="45.19555" lon="6.46832">
        <ele>1279.2</ele>
        <time>2022-07-17T08:10:17Z</time>
      </trkpt>
      <trkpt lat="45.19553" lon="6.46834">
        <ele>1279.2</ele>
        <time>2022-07-17T08:10:18Z</time>
      </trkpt>
      <trkpt lat="45.19551" lon="6.46835">
        <ele>1279.4</ele>
        <time>2022-07-17T08:10:19Z</time>
      </trkpt>
      <trkpt lat="45.19549" lon="6.46837">
        <ele>1279.6</ele>
        <time>2022-07-17T08:10:20Z</time>
      </trkpt>
      <trkpt lat="45.19547" lon="6.46838">
        <ele>1279.6</ele>
        <time>2022-07-17T08:10:21Z</time>
      </trkpt>
      <trkpt lat="45.19545" lon="6.4684">
        <ele>1280</ele>
        <time>2022-07-17T08:10:22Z</time>
      </trkpt>
      <trkpt lat="45.19543" lon="6.46841">
        <ele>1280.4</ele>
        <time>2022-07-17T08:10:23Z</time>
      </trkpt>
      <trkpt lat="45.19541" lon="6.46842">
        <ele>1280.4</ele>
        <time>2022-07-17T08:10:24Z</time>
      </trkpt>
      <trkpt lat="45.19539" lon="6.46844">
        <ele>1280.6</ele>
        <time>2022-07-17T08:10:25Z</time>
      </trkpt>
      <trkpt lat="45.19537" lon="6.46846">
        <ele>1280.8</ele>
        <time>2022-07-17T08:10:26Z</time>
      </trkpt>
      <trkpt lat="45.19534" lon="6.46847">
        <ele>1281.2</ele>
        <time>2022-07-17T08:10:27Z</time>
      </trkpt>
      <trkpt lat="45.19532" lon="6.46849">
        <ele>1281.2</ele>
        <time>2022-07-17T08:10:28Z</time>
      </trkpt>
      <trkpt lat="45.1953" lon="6.4685">
        <ele>1281.4</ele>
        <time>2022-07-17T08:10:29Z</time>
      </trkpt>
      <trkpt lat="45.19528" lon="6.46852">
        <ele>1281.4</ele>
        <time>2022-07-17T08:10:30Z</time>
      </trkpt>
      <trkpt lat="45.19526" lon="6.46854">
        <ele>1281.8</ele>
        <time>2022-07-17T08:10:31Z</time>
      </trkpt>
      <trkpt lat="45.19524" lon="6.46856">
        <ele>1281.8</ele>
        <time>2022-07-17T08:10:32Z</time>
      </trkpt>
      <trkpt lat="45.19522" lon="6.46857">
        <ele>1282.2</ele>
        <time>2022-07-17T08:10:33Z</time>
      </trkpt>
      <trkpt lat="45.1952" lon="6.46859">
        <ele>1282.2</ele>
        <time>2022-07-17T08:10:34Z</time>
      </trkpt>
      <trkpt lat="45.19518" lon="6.46861">
        <ele>1282.6</ele>
        <time>2022-07-17T08:10:35Z</time>
      </trkpt>
      <trkpt lat="45.19515" lon="6.46863">
        <ele>1282.6</ele>
        <time>2022-07-17T08:10:36Z</time>
      </trkpt>
      <trkpt lat="45.19513" lon="6.46864">
        <ele>1283</ele>
        <time>2022-07-17T08:10:37Z</time>
      </trkpt>
      <trkpt lat="45.19511" lon="6.46866">
        <ele>1283.2</ele>
        <time>2022-07-17T08:10:38Z</time>
      </trkpt>
      <trkpt lat="45.19509" lon="6.46867">
        <ele>1283.4</ele>
        <time>2022-07-17T08:10:39Z</time>
      </trkpt>
      <trkpt lat="45.19507" lon="6.46869">
        <ele>1283.6</ele>
        <time>2022-07-17T08:10:40Z</time>
      </trkpt>
      <trkpt lat="45.19505" lon="6.46871">
        <ele>1283.6</ele>
        <time>2022-07-17T08:10:41Z</time>
      </trkpt>
      <trkpt lat="45.19503" lon="6.46874">
        <ele>1284</ele>
        <time>2022-07-17T08:10:42Z</time>
      </trkpt>
      <trkpt lat="45.19501" lon="6.46876">
        <ele>1284</ele>
        <time>2022-07-17T08:10:43Z</time>
      </trkpt>
      <trkpt lat="45.19498" lon="6.46879">
        <ele>1284.4</ele>
        <time>2022-07-17T08:10:44Z</time>
      </trkpt>
      <trkpt lat="45.19496" lon="6.46881">
        <ele>1284.4</ele>
        <time>2022-07-17T08:10:45Z</time>
      </trkpt>
      <trkpt lat="45.19494" lon="6.46884">
        <ele>1284.8</ele>
        <time>2022-07-17T08:10:46Z</time>
      </trkpt>
      <trkpt lat="45.19492" lon="6.46887">
        <ele>1284.8</ele>
        <time>2022-07-17T08:10:47Z</time>
      </trkpt>
      <trkpt lat="45.1949" lon="6.46889">
        <ele>1285</ele>
        <time>2022-07-17T08:10:48Z</time>
      </trkpt>
      <trkpt lat="45.19488" lon="6.46891">
        <ele>1285</ele>
        <time>2022-07-17T08:10:49Z</time>
      </trkpt>
      <trkpt lat="45.19486" lon="6.46892">
        <ele>1285.4</ele>
        <time>2022-07-17T08:10:50Z</time>
      </trkpt>
      <trkpt lat="45.19484" lon="6.46893">
        <ele>1285.4</ele>
        <time>2022-07-17T08:10:51Z</time>
      </trkpt>
      <trkpt lat="45.19482" lon="6.46893">
        <ele>1285.6</ele>
        <time>2022-07-17T08:10:52Z</time>
      </trkpt>
      <trkpt lat="45.1948" lon="6.46894">
        <ele>1286</ele>
        <time>2022-07-17T08:10:53Z</time>
      </trkpt>
      <trkpt lat="45.19477" lon="6.46894">
        <ele>1286.2</ele>
        <time>2022-07-17T08:10:54Z</time>
      </trkpt>
      <trkpt lat="45.19474" lon="6.46894">
        <ele>1286.4</ele>
        <time>2022-07-17T08:10:55Z</time>
      </trkpt>
      <trkpt lat="45.19472" lon="6.46893">
        <ele>1286.6</ele>
        <time>2022-07-17T08:10:56Z</time>
      </trkpt>
      <trkpt lat="45.19469" lon="6.46892">
        <ele>1286.6</ele>
        <time>2022-07-17T08:10:57Z</time>
      </trkpt>
      <trkpt lat="45.19466" lon="6.46891">
        <ele>1287</ele>
        <time>2022-07-17T08:10:58Z</time>
      </trkpt>
      <trkpt lat="45.19464" lon="6.4689">
        <ele>1287</ele>
        <time>2022-07-17T08:10:59Z</time>
      </trkpt>
      <trkpt lat="45.19462" lon="6.46888">
        <ele>1287.4</ele>
        <time>2022-07-17T08:11:00Z</time>
      </trkpt>
      <trkpt lat="45.1946" lon="6.46886">
        <ele>1287.6</ele>
        <time>2022-07-17T08:11:01Z</time>
      </trkpt>
      <trkpt lat="45.19458" lon="6.46884">
        <ele>1288</ele>
        <time>2022-07-17T08:11:02Z</time>
      </trkpt>
      <trkpt lat="45.19456" lon="6.46882">
        <ele>1288</ele>
        <time>2022-07-17T08:11:03Z</time>
      </trkpt>
      <trkpt lat="45.19454" lon="6.4688">
        <ele>1288.2</ele>
        <time>2022-07-17T08:11:04Z</time>
      </trkpt>
      <trkpt lat="45.19452" lon="6.46878">
        <ele>1288.2</ele>
        <time>2022-07-17T08:11:05Z</time>
      </trkpt>
      <trkpt lat="45.1945" lon="6.46876">
        <ele>1288.6</ele>
        <time>2022-07-17T08:11:06Z</time>
      </trkpt>
      <trkpt lat="45.19448" lon="6.46873">
        <ele>1288.8</ele>
        <time>2022-07-17T08:11:07Z</time>
      </trkpt>
      <trkpt lat="45.19446" lon="6.46871">
        <ele>1289.2</ele>
        <time>2022-07-17T08:11:08Z</time>
      </trkpt>
      <trkpt lat="45.19444" lon="6.46869">
        <ele>1289.2</ele>
        <time>2022-07-17T08:11:09Z</time>
      </trkpt>
      <trkpt lat="45.19442" lon="6.46867">
        <ele>1289.4</ele>
        <time>2022-07-17T08:11:10Z</time>
      </trkpt>
      <trkpt lat="45.1944" lon="6.46865">
        <ele>1289.4</ele>
        <time>2022-07-17T08:11:11Z</time>
      </trkpt>
      <trkpt lat="45.19438" lon="6.46862">
        <ele>1289.6</ele>
        <time>2022-07-17T08:11:12Z</time>
      </trkpt>
      <trkpt lat="45.19436" lon="6.4686">
        <ele>1289.8</ele>
        <time>2022-07-17T08:11:13Z</time>
      </trkpt>
      <trkpt lat="45.19434" lon="6.46857">
        <ele>1289.8</ele>
        <time>2022-07-17T08:11:14Z</time>
      </trkpt>
      <trkpt lat="45.19432" lon="6.46855">
        <ele>1290.2</ele>
        <time>2022-07-17T08:11:15Z</time>
      </trkpt>
      <trkpt lat="45.1943" lon="6.46852">
        <ele>1290.2</ele>
        <time>2022-07-17T08:11:16Z</time>
      </trkpt>
      <trkpt lat="45.19428" lon="6.4685">
        <ele>1290.6</ele>
        <time>2022-07-17T08:11:17Z</time>
      </trkpt>
      <trkpt lat="45.19426" lon="6.46848">
        <ele>1290.6</ele>
        <time>2022-07-17T08:11:18Z</time>
      </trkpt>
      <trkpt lat="45.19423" lon="6.46846">
        <ele>1290.8</ele>
        <time>2022-07-17T08:11:19Z</time>
      </trkpt>
      <trkpt lat="45.19421" lon="6.46843">
        <ele>1290.8</ele>
        <time>2022-07-17T08:11:20Z</time>
      </trkpt>
      <trkpt lat="45.19419" lon="6.4684">
        <ele>1291.2</ele>
        <time>2022-07-17T08:11:21Z</time>
      </trkpt>
      <trkpt lat="45.19417" lon="6.46838">
        <ele>1291.2</ele>
        <time>2022-07-17T08:11:22Z</time>
      </trkpt>
      <trkpt lat="45.19415" lon="6.46836">
        <ele>1291.4</ele>
        <time>2022-07-17T08:11:23Z</time>
      </trkpt>
      <trkpt lat="45.19413" lon="6.46834">
        <ele>1291.6</ele>
        <time>2022-07-17T08:11:24Z</time>
      </trkpt>
      <trkpt lat="45.19411" lon="6.46833">
        <ele>1291.6</ele>
        <time>2022-07-17T08:11:25Z</time>
      </trkpt>
      <trkpt lat="45.19408" lon="6.46831">
        <ele>1291.8</ele>
        <time>2022-07-17T08:11:26Z</time>
      </trkpt>
      <trkpt lat="45.19405" lon="6.46829">
        <ele>1291.8</ele>
        <time>2022-07-17T08:11:27Z</time>
      </trkpt>
      <trkpt lat="45.19403" lon="6.46828">
        <ele>1292.2</ele>
        <time>2022-07-17T08:11:28Z</time>
      </trkpt>
      <trkpt lat="45.194" lon="6.46827">
        <ele>1292.4</ele>
        <time>2022-07-17T08:11:29Z</time>
      </trkpt>
      <trkpt lat="45.19397" lon="6.46825">
        <ele>1292.4</ele>
        <time>2022-07-17T08:11:30Z</time>
      </trkpt>
      <trkpt lat="45.19395" lon="6.46824">
        <ele>1292.8</ele>
        <time>2022-07-17T08:11:31Z</time>
      </trkpt>
      <trkpt lat="45.19393" lon="6.46823">
        <ele>1293</ele>
        <time>2022-07-17T08:11:32Z</time>
      </trkpt>
      <trkpt lat="45.1939" lon="6.46821">
        <ele>1293</ele>
        <time>2022-07-17T08:11:33Z</time>
      </trkpt>
      <trkpt lat="45.19388" lon="6.4682">
        <ele>1293.4</ele>
        <time>2022-07-17T08:11:34Z</time>
      </trkpt>
      <trkpt lat="45.19386" lon="6.46819">
        <ele>1293.4</ele>
        <time>2022-07-17T08:11:35Z</time>
      </trkpt>
      <trkpt lat="45.19384" lon="6.46818">
        <ele>1293.4</ele>
        <time>2022-07-17T08:11:36Z</time>
      </trkpt>
      <trkpt lat="45.19381" lon="6.46817">
        <ele>1293.8</ele>
        <time>2022-07-17T08:11:37Z</time>
      </trkpt>
      <trkpt lat="45.19379" lon="6.46817">
        <ele>1293.8</ele>
        <time>2022-07-17T08:11:38Z</time>
      </trkpt>
      <trkpt lat="45.19377" lon="6.46817">
        <ele>1294</ele>
        <time>2022-07-17T08:11:39Z</time>
      </trkpt>
      <trkpt lat="45.19375" lon="6.46816">
        <ele>1294</ele>
        <time>2022-07-17T08:11:40Z</time>
      </trkpt>
      <trkpt lat="45.19372" lon="6.46816">
        <ele>1294.4</ele>
        <time>2022-07-17T08:11:41Z</time>
      </trkpt>
      <trkpt lat="45.1937" lon="6.46817">
        <ele>1294.4</ele>
        <time>2022-07-17T08:11:42Z</time>
      </trkpt>
      <trkpt lat="45.19368" lon="6.46817">
        <ele>1294.6</ele>
        <time>2022-07-17T08:11:43Z</time>
      </trkpt>
      <trkpt lat="45.19365" lon="6.46818">
        <ele>1294.6</ele>
        <time>2022-07-17T08:11:44Z</time>
      </trkpt>
      <trkpt lat="45.19362" lon="6.46819">
        <ele>1295</ele>
        <time>2022-07-17T08:11:45Z</time>
      </trkpt>
      <trkpt lat="45.1936" lon="6.46819">
        <ele>1295</ele>
        <time>2022-07-17T08:11:46Z</time>
      </trkpt>
      <trkpt lat="45.19357" lon="6.46821">
        <ele>1295.2</ele>
        <time>2022-07-17T08:11:47Z</time>
      </trkpt>
      <trkpt lat="45.19354" lon="6.46822">
        <ele>1295.2</ele>
        <time>2022-07-17T08:11:48Z</time>
      </trkpt>
      <trkpt lat="45.19352" lon="6.46824">
        <ele>1295.2</ele>
        <time>2022-07-17T08:11:49Z</time>
      </trkpt>
      <trkpt lat="45.1935" lon="6.46826">
        <ele>1295.4</ele>
        <time>2022-07-17T08:11:50Z</time>
      </trkpt>
      <trkpt lat="45.19347" lon="6.46827">
        <ele>1295.4</ele>
        <time>2022-07-17T08:11:51Z</time>
      </trkpt>
      <trkpt lat="45.19345" lon="6.46827">
        <ele>1295.8</ele>
        <time>2022-07-17T08:11:52Z</time>
      </trkpt>
      <trkpt lat="45.19342" lon="6.46827">
        <ele>1296</ele>
        <time>2022-07-17T08:11:53Z</time>
      </trkpt>
      <trkpt lat="45.19339" lon="6.46825">
        <ele>1296</ele>
        <time>2022-07-17T08:11:54Z</time>
      </trkpt>
      <trkpt lat="45.19337" lon="6.46823">
        <ele>1296.4</ele>
        <time>2022-07-17T08:11:55Z</time>
      </trkpt>
      <trkpt lat="45.19336" lon="6.4682">
        <ele>1296.6</ele>
        <time>2022-07-17T08:11:56Z</time>
      </trkpt>
      <trkpt lat="45.19336" lon="6.46816">
        <ele>1296.8</ele>
        <time>2022-07-17T08:11:57Z</time>
      </trkpt>
      <trkpt lat="45.19336" lon="6.46813">
        <ele>1297</ele>
        <time>2022-07-17T08:11:58Z</time>
      </trkpt>
      <trkpt lat="45.19338" lon="6.4681">
        <ele>1297.4</ele>
        <time>2022-07-17T08:11:59Z</time>
      </trkpt>
      <trkpt lat="45.1934" lon="6.46807">
        <ele>1297.6</ele>
        <time>2022-07-17T08:12:00Z</time>
      </trkpt>
      <trkpt lat="45.19343" lon="6.46806">
        <ele>1297.6</ele>
        <time>2022-07-17T08:12:01Z</time>
      </trkpt>
      <trkpt lat="45.19346" lon="6.46806">
        <ele>1298</ele>
        <time>2022-07-17T08:12:02Z</time>
      </trkpt>
      <trkpt lat="45.1935" lon="6.46806">
        <ele>1298</ele>
        <time>2022-07-17T08:12:03Z</time>
      </trkpt>
      <trkpt lat="45.19353" lon="6.46806">
        <ele>1298.2</ele>
        <time>2022-07-17T08:12:04Z</time>
      </trkpt>
      <trkpt lat="45.19356" lon="6.46805">
        <ele>1298.2</ele>
        <time>2022-07-17T08:12:05Z</time>
      </trkpt>
      <trkpt lat="45.19359" lon="6.46805">
        <ele>1298.6</ele>
        <time>2022-07-17T08:12:06Z</time>
      </trkpt>
      <trkpt lat="45.19362" lon="6.46805">
        <ele>1298.6</ele>
        <time>2022-07-17T08:12:07Z</time>
      </trkpt>
      <trkpt lat="45.19364" lon="6.46805">
        <ele>1298.8</ele>
        <time>2022-07-17T08:12:08Z</time>
      </trkpt>
      <trkpt lat="45.19367" lon="6.46804">
        <ele>1299</ele>
        <time>2022-07-17T08:12:09Z</time>
      </trkpt>
      <trkpt lat="45.1937" lon="6.46804">
        <ele>1299.2</ele>
        <time>2022-07-17T08:12:10Z</time>
      </trkpt>
      <trkpt lat="45.19373" lon="6.46804">
        <ele>1299.4</ele>
        <time>2022-07-17T08:12:11Z</time>
      </trkpt>
      <trkpt lat="45.19376" lon="6.46804">
        <ele>1299.8</ele>
        <time>2022-07-17T08:12:12Z</time>
      </trkpt>
      <trkpt lat="45.19378" lon="6.46803">
        <ele>1300</ele>
        <time>2022-07-17T08:12:13Z</time>
      </trkpt>
      <trkpt lat="45.19381" lon="6.46803">
        <ele>1300.2</ele>
        <time>2022-07-17T08:12:14Z</time>
      </trkpt>
      <trkpt lat="45.19384" lon="6.46803">
        <ele>1300.2</ele>
        <time>2022-07-17T08:12:15Z</time>
      </trkpt>
      <trkpt lat="45.19386" lon="6.46803">
        <ele>1300.4</ele>
        <time>2022-07-17T08:12:16Z</time>
      </trkpt>
      <trkpt lat="45.19389" lon="6.46803">
        <ele>1300.8</ele>
        <time>2022-07-17T08:12:17Z</time>
      </trkpt>
      <trkpt lat="45.19391" lon="6.46803">
        <ele>1301</ele>
        <time>2022-07-17T08:12:18Z</time>
      </trkpt>
      <trkpt lat="45.19394" lon="6.46803">
        <ele>1301</ele>
        <time>2022-07-17T08:12:19Z</time>
      </trkpt>
      <trkpt lat="45.19396" lon="6.46803">
        <ele>1301.4</ele>
        <time>2022-07-17T08:12:20Z</time>
      </trkpt>
      <trkpt lat="45.19398" lon="6.46803">
        <ele>1301.6</ele>
        <time>2022-07-17T08:12:21Z</time>
      </trkpt>
      <trkpt lat="45.19401" lon="6.46803">
        <ele>1301.8</ele>
        <time>2022-07-17T08:12:22Z</time>
      </trkpt>
      <trkpt lat="45.19404" lon="6.46803">
        <ele>1301.8</ele>
        <time>2022-07-17T08:12:23Z</time>
      </trkpt>
      <trkpt lat="45.19406" lon="6.46803">
        <ele>1302</ele>
        <time>2022-07-17T08:12:24Z</time>
      </trkpt>
      <trkpt lat="45.19408" lon="6.46802">
        <ele>1302</ele>
        <time>2022-07-17T08:12:25Z</time>
      </trkpt>
      <trkpt lat="45.19411" lon="6.46802">
        <ele>1302.6</ele>
        <time>2022-07-17T08:12:26Z</time>
      </trkpt>
      <trkpt lat="45.19413" lon="6.46802">
        <ele>1302.6</ele>
        <time>2022-07-17T08:12:27Z</time>
      </trkpt>
      <trkpt lat="45.19416" lon="6.46802">
        <ele>1302.8</ele>
        <time>2022-07-17T08:12:28Z</time>
      </trkpt>
      <trkpt lat="45.19418" lon="6.46801">
        <ele>1302.8</ele>
        <time>2022-07-17T08:12:29Z</time>
      </trkpt>
      <trkpt lat="45.1942" lon="6.468">
        <ele>1303.2</ele>
        <time>2022-07-17T08:12:30Z</time>
      </trkpt>
      <trkpt lat="45.19423" lon="6.468">
        <ele>1303.2</ele>
        <time>2022-07-17T08:12:31Z</time>
      </trkpt>
      <trkpt lat="45.19427" lon="6.46799">
        <ele>1303.6</ele>
        <time>2022-07-17T08:12:32Z</time>
      </trkpt>
      <trkpt lat="45.1943" lon="6.46799">
        <ele>1303.8</ele>
        <time>2022-07-17T08:12:33Z</time>
      </trkpt>
      <trkpt lat="45.19434" lon="6.46799">
        <ele>1304</ele>
        <time>2022-07-17T08:12:34Z</time>
      </trkpt>
      <trkpt lat="45.19437" lon="6.46799">
        <ele>1304.4</ele>
        <time>2022-07-17T08:12:35Z</time>
      </trkpt>
      <trkpt lat="45.19441" lon="6.46798">
        <ele>1304.6</ele>
        <time>2022-07-17T08:12:36Z</time>
      </trkpt>
      <trkpt lat="45.19443" lon="6.46797">
        <ele>1304.8</ele>
        <time>2022-07-17T08:12:38Z</time>
      </trkpt>
      <trkpt lat="45.19446" lon="6.46796">
        <ele>1304.8</ele>
        <time>2022-07-17T08:12:39Z</time>
      </trkpt>
      <trkpt lat="45.1945" lon="6.46794">
        <ele>1305.2</ele>
        <time>2022-07-17T08:12:40Z</time>
      </trkpt>
      <trkpt lat="45.19453" lon="6.46793">
        <ele>1305.4</ele>
        <time>2022-07-17T08:12:41Z</time>
      </trkpt>
      <trkpt lat="45.19456" lon="6.46792">
        <ele>1305.6</ele>
        <time>2022-07-17T08:12:42Z</time>
      </trkpt>
      <trkpt lat="45.19459" lon="6.4679">
        <ele>1305.8</ele>
        <time>2022-07-17T08:12:43Z</time>
      </trkpt>
      <trkpt lat="45.19461" lon="6.46788">
        <ele>1306.2</ele>
        <time>2022-07-17T08:12:44Z</time>
      </trkpt>
      <trkpt lat="45.19464" lon="6.46786">
        <ele>1306.2</ele>
        <time>2022-07-17T08:12:45Z</time>
      </trkpt>
      <trkpt lat="45.19467" lon="6.46784">
        <ele>1306.4</ele>
        <time>2022-07-17T08:12:46Z</time>
      </trkpt>
      <trkpt lat="45.1947" lon="6.46782">
        <ele>1306.4</ele>
        <time>2022-07-17T08:12:47Z</time>
      </trkpt>
      <trkpt lat="45.19473" lon="6.4678">
        <ele>1306.6</ele>
        <time>2022-07-17T08:12:48Z</time>
      </trkpt>
      <trkpt lat="45.19476" lon="6.46778">
        <ele>1306.6</ele>
        <time>2022-07-17T08:12:49Z</time>
      </trkpt>
      <trkpt lat="45.19479" lon="6.46776">
        <ele>1307.2</ele>
        <time>2022-07-17T08:12:50Z</time>
      </trkpt>
      <trkpt lat="45.19482" lon="6.46774">
        <ele>1307.2</ele>
        <time>2022-07-17T08:12:51Z</time>
      </trkpt>
      <trkpt lat="45.19485" lon="6.46772">
        <ele>1307.4</ele>
        <time>2022-07-17T08:12:52Z</time>
      </trkpt>
      <trkpt lat="45.19488" lon="6.46771">
        <ele>1307.4</ele>
        <time>2022-07-17T08:12:53Z</time>
      </trkpt>
      <trkpt lat="45.19491" lon="6.46769">
        <ele>1307.6</ele>
        <time>2022-07-17T08:12:54Z</time>
      </trkpt>
      <trkpt lat="45.19495" lon="6.46768">
        <ele>1307.6</ele>
        <time>2022-07-17T08:12:55Z</time>
      </trkpt>
      <trkpt lat="45.19498" lon="6.46767">
        <ele>1308</ele>
        <time>2022-07-17T08:12:56Z</time>
      </trkpt>
      <trkpt lat="45.19501" lon="6.46766">
        <ele>1308</ele>
        <time>2022-07-17T08:12:57Z</time>
      </trkpt>
      <trkpt lat="45.19504" lon="6.46765">
        <ele>1308.4</ele>
        <time>2022-07-17T08:12:58Z</time>
      </trkpt>
      <trkpt lat="45.19507" lon="6.46764">
        <ele>1308.4</ele>
        <time>2022-07-17T08:12:59Z</time>
      </trkpt>
      <trkpt lat="45.1951" lon="6.46763">
        <ele>1308.8</ele>
        <time>2022-07-17T08:13:00Z</time>
      </trkpt>
      <trkpt lat="45.19513" lon="6.46763">
        <ele>1308.8</ele>
        <time>2022-07-17T08:13:01Z</time>
      </trkpt>
      <trkpt lat="45.19516" lon="6.46762">
        <ele>1308.8</ele>
        <time>2022-07-17T08:13:02Z</time>
      </trkpt>
      <trkpt lat="45.19519" lon="6.46761">
        <ele>1309</ele>
        <time>2022-07-17T08:13:03Z</time>
      </trkpt>
      <trkpt lat="45.19522" lon="6.4676">
        <ele>1309.2</ele>
        <time>2022-07-17T08:13:04Z</time>
      </trkpt>
      <trkpt lat="45.19525" lon="6.46758">
        <ele>1309.2</ele>
        <time>2022-07-17T08:13:05Z</time>
      </trkpt>
      <trkpt lat="45.19527" lon="6.46757">
        <ele>1309.6</ele>
        <time>2022-07-17T08:13:06Z</time>
      </trkpt>
      <trkpt lat="45.1953" lon="6.46754">
        <ele>1309.6</ele>
        <time>2022-07-17T08:13:07Z</time>
      </trkpt>
      <trkpt lat="45.19533" lon="6.46752">
        <ele>1310</ele>
        <time>2022-07-17T08:13:08Z</time>
      </trkpt>
      <trkpt lat="45.19536" lon="6.4675">
        <ele>1310</ele>
        <time>2022-07-17T08:13:09Z</time>
      </trkpt>
      <trkpt lat="45.19538" lon="6.46747">
        <ele>1310.2</ele>
        <time>2022-07-17T08:13:10Z</time>
      </trkpt>
      <trkpt lat="45.1954" lon="6.46744">
        <ele>1310.2</ele>
        <time>2022-07-17T08:13:11Z</time>
      </trkpt>
      <trkpt lat="45.19542" lon="6.4674">
        <ele>1310.2</ele>
        <time>2022-07-17T08:13:12Z</time>
      </trkpt>
      <trkpt lat="45.19544" lon="6.46737">
        <ele>1310.6</ele>
        <time>2022-07-17T08:13:13Z</time>
      </trkpt>
      <trkpt lat="45.19545" lon="6.46732">
        <ele>1310.6</ele>
        <time>2022-07-17T08:13:14Z</time>
      </trkpt>
      <trkpt lat="45.19547" lon="6.46728">
        <ele>1310.8</ele>
        <time>2022-07-17T08:13:15Z</time>
      </trkpt>
      <trkpt lat="45.19548" lon="6.46723">
        <ele>1311</ele>
        <time>2022-07-17T08:13:16Z</time>
      </trkpt>
      <trkpt lat="45.19549" lon="6.46718">
        <ele>1311</ele>
        <time>2022-07-17T08:13:17Z</time>
      </trkpt>
      <trkpt lat="45.19551" lon="6.46714">
        <ele>1311</ele>
        <time>2022-07-17T08:13:18Z</time>
      </trkpt>
      <trkpt lat="45.19553" lon="6.4671">
        <ele>1311.4</ele>
        <time>2022-07-17T08:13:19Z</time>
      </trkpt>
      <trkpt lat="45.19555" lon="6.46707">
        <ele>1311.4</ele>
        <time>2022-07-17T08:13:20Z</time>
      </trkpt>
      <trkpt lat="45.19557" lon="6.46704">
        <ele>1311.8</ele>
        <time>2022-07-17T08:13:21Z</time>
      </trkpt>
      <trkpt lat="45.19559" lon="6.46701">
        <ele>1311.8</ele>
        <time>2022-07-17T08:13:22Z</time>
      </trkpt>
      <trkpt lat="45.19565" lon="6.46696">
        <ele>1312</ele>
        <time>2022-07-17T08:13:23Z</time>
      </trkpt>
      <trkpt lat="45.19567" lon="6.46693">
        <ele>1312</ele>
        <time>2022-07-17T08:13:24Z</time>
      </trkpt>
      <trkpt lat="45.1957" lon="6.46691">
        <ele>1312.4</ele>
        <time>2022-07-17T08:13:25Z</time>
      </trkpt>
      <trkpt lat="45.19572" lon="6.46689">
        <ele>1312.4</ele>
        <time>2022-07-17T08:13:26Z</time>
      </trkpt>
      <trkpt lat="45.19574" lon="6.46687">
        <ele>1312.6</ele>
        <time>2022-07-17T08:13:27Z</time>
      </trkpt>
      <trkpt lat="45.19577" lon="6.46685">
        <ele>1312.6</ele>
        <time>2022-07-17T08:13:28Z</time>
      </trkpt>
      <trkpt lat="45.1958" lon="6.46683">
        <ele>1313</ele>
        <time>2022-07-17T08:13:29Z</time>
      </trkpt>
      <trkpt lat="45.19582" lon="6.46681">
        <ele>1313.2</ele>
        <time>2022-07-17T08:13:30Z</time>
      </trkpt>
      <trkpt lat="45.19586" lon="6.46679">
        <ele>1313.2</ele>
        <time>2022-07-17T08:13:31Z</time>
      </trkpt>
      <trkpt lat="45.19589" lon="6.46677">
        <ele>1313.4</ele>
        <time>2022-07-17T08:13:32Z</time>
      </trkpt>
      <trkpt lat="45.19592" lon="6.46676">
        <ele>1313.4</ele>
        <time>2022-07-17T08:13:33Z</time>
      </trkpt>
      <trkpt lat="45.19595" lon="6.46675">
        <ele>1313.8</ele>
        <time>2022-07-17T08:13:34Z</time>
      </trkpt>
      <trkpt lat="45.19598" lon="6.46673">
        <ele>1314</ele>
        <time>2022-07-17T08:13:35Z</time>
      </trkpt>
      <trkpt lat="45.19601" lon="6.46672">
        <ele>1314</ele>
        <time>2022-07-17T08:13:36Z</time>
      </trkpt>
      <trkpt lat="45.19604" lon="6.4667">
        <ele>1314.4</ele>
        <time>2022-07-17T08:13:37Z</time>
      </trkpt>
      <trkpt lat="45.19607" lon="6.46669">
        <ele>1314.4</ele>
        <time>2022-07-17T08:13:38Z</time>
      </trkpt>
      <trkpt lat="45.1961" lon="6.46667">
        <ele>1314.8</ele>
        <time>2022-07-17T08:13:39Z</time>
      </trkpt>
      <trkpt lat="45.19612" lon="6.46666">
        <ele>1314.8</ele>
        <time>2022-07-17T08:13:40Z</time>
      </trkpt>
      <trkpt lat="45.19615" lon="6.46664">
        <ele>1315.2</ele>
        <time>2022-07-17T08:13:41Z</time>
      </trkpt>
      <trkpt lat="45.19617" lon="6.46663">
        <ele>1315.2</ele>
        <time>2022-07-17T08:13:42Z</time>
      </trkpt>
      <trkpt lat="45.1962" lon="6.46661">
        <ele>1315.4</ele>
        <time>2022-07-17T08:13:43Z</time>
      </trkpt>
      <trkpt lat="45.19622" lon="6.46659">
        <ele>1315.4</ele>
        <time>2022-07-17T08:13:44Z</time>
      </trkpt>
      <trkpt lat="45.19624" lon="6.46657">
        <ele>1315.8</ele>
        <time>2022-07-17T08:13:45Z</time>
      </trkpt>
      <trkpt lat="45.19627" lon="6.46655">
        <ele>1315.8</ele>
        <time>2022-07-17T08:13:46Z</time>
      </trkpt>
      <trkpt lat="45.19629" lon="6.46653">
        <ele>1316</ele>
        <time>2022-07-17T08:13:47Z</time>
      </trkpt>
      <trkpt lat="45.19632" lon="6.46651">
        <ele>1316</ele>
        <time>2022-07-17T08:13:48Z</time>
      </trkpt>
      <trkpt lat="45.19634" lon="6.46649">
        <ele>1316.4</ele>
        <time>2022-07-17T08:13:49Z</time>
      </trkpt>
      <trkpt lat="45.19637" lon="6.46647">
        <ele>1316.4</ele>
        <time>2022-07-17T08:13:50Z</time>
      </trkpt>
      <trkpt lat="45.19639" lon="6.46644">
        <ele>1316.8</ele>
        <time>2022-07-17T08:13:51Z</time>
      </trkpt>
      <trkpt lat="45.19641" lon="6.46642">
        <ele>1317</ele>
        <time>2022-07-17T08:13:52Z</time>
      </trkpt>
      <trkpt lat="45.19644" lon="6.4664">
        <ele>1317</ele>
        <time>2022-07-17T08:13:53Z</time>
      </trkpt>
      <trkpt lat="45.19646" lon="6.46638">
        <ele>1317.4</ele>
        <time>2022-07-17T08:13:54Z</time>
      </trkpt>
      <trkpt lat="45.19648" lon="6.46635">
        <ele>1317.4</ele>
        <time>2022-07-17T08:13:55Z</time>
      </trkpt>
      <trkpt lat="45.1965" lon="6.46632">
        <ele>1317.4</ele>
        <time>2022-07-17T08:13:56Z</time>
      </trkpt>
      <trkpt lat="45.19652" lon="6.4663">
        <ele>1317.8</ele>
        <time>2022-07-17T08:13:57Z</time>
      </trkpt>
      <trkpt lat="45.19655" lon="6.46627">
        <ele>1317.8</ele>
        <time>2022-07-17T08:13:58Z</time>
      </trkpt>
      <trkpt lat="45.19657" lon="6.46625">
        <ele>1318.4</ele>
        <time>2022-07-17T08:13:59Z</time>
      </trkpt>
      <trkpt lat="45.19659" lon="6.46623">
        <ele>1318.4</ele>
        <time>2022-07-17T08:14:00Z</time>
      </trkpt>
      <trkpt lat="45.19661" lon="6.46621">
        <ele>1318.8</ele>
        <time>2022-07-17T08:14:01Z</time>
      </trkpt>
      <trkpt lat="45.19663" lon="6.46619">
        <ele>1319</ele>
        <time>2022-07-17T08:14:02Z</time>
      </trkpt>
      <trkpt lat="45.19665" lon="6.46616">
        <ele>1319.2</ele>
        <time>2022-07-17T08:14:03Z</time>
      </trkpt>
      <trkpt lat="45.19666" lon="6.46612">
        <ele>1319.4</ele>
        <time>2022-07-17T08:14:04Z</time>
      </trkpt>
      <trkpt lat="45.19668" lon="6.46609">
        <ele>1319.4</ele>
        <time>2022-07-17T08:14:05Z</time>
      </trkpt>
      <trkpt lat="45.19669" lon="6.46606">
        <ele>1319.8</ele>
        <time>2022-07-17T08:14:06Z</time>
      </trkpt>
      <trkpt lat="45.19671" lon="6.46603">
        <ele>1319.8</ele>
        <time>2022-07-17T08:14:07Z</time>
      </trkpt>
      <trkpt lat="45.19672" lon="6.46599">
        <ele>1320.2</ele>
        <time>2022-07-17T08:14:08Z</time>
      </trkpt>
      <trkpt lat="45.19673" lon="6.46596">
        <ele>1320.4</ele>
        <time>2022-07-17T08:14:09Z</time>
      </trkpt>
      <trkpt lat="45.19674" lon="6.46593">
        <ele>1320.4</ele>
        <time>2022-07-17T08:14:10Z</time>
      </trkpt>
      <trkpt lat="45.19675" lon="6.46589">
        <ele>1320.8</ele>
        <time>2022-07-17T08:14:11Z</time>
      </trkpt>
      <trkpt lat="45.19676" lon="6.46585">
        <ele>1321</ele>
        <time>2022-07-17T08:14:12Z</time>
      </trkpt>
      <trkpt lat="45.19676" lon="6.46582">
        <ele>1321</ele>
        <time>2022-07-17T08:14:13Z</time>
      </trkpt>
      <trkpt lat="45.19677" lon="6.46578">
        <ele>1321.2</ele>
        <time>2022-07-17T08:14:14Z</time>
      </trkpt>
      <trkpt lat="45.19678" lon="6.46575">
        <ele>1321.2</ele>
        <time>2022-07-17T08:14:15Z</time>
      </trkpt>
      <trkpt lat="45.19679" lon="6.46571">
        <ele>1321.6</ele>
        <time>2022-07-17T08:14:16Z</time>
      </trkpt>
      <trkpt lat="45.1968" lon="6.46568">
        <ele>1321.6</ele>
        <time>2022-07-17T08:14:17Z</time>
      </trkpt>
      <trkpt lat="45.19681" lon="6.46565">
        <ele>1322</ele>
        <time>2022-07-17T08:14:18Z</time>
      </trkpt>
      <trkpt lat="45.19682" lon="6.46562">
        <ele>1322</ele>
        <time>2022-07-17T08:14:19Z</time>
      </trkpt>
      <trkpt lat="45.19683" lon="6.46558">
        <ele>1322.2</ele>
        <time>2022-07-17T08:14:20Z</time>
      </trkpt>
      <trkpt lat="45.19683" lon="6.46554">
        <ele>1322.2</ele>
        <time>2022-07-17T08:14:21Z</time>
      </trkpt>
      <trkpt lat="45.19683" lon="6.4655">
        <ele>1322.6</ele>
        <time>2022-07-17T08:14:22Z</time>
      </trkpt>
      <trkpt lat="45.19684" lon="6.46545">
        <ele>1322.6</ele>
        <time>2022-07-17T08:14:23Z</time>
      </trkpt>
      <trkpt lat="45.19684" lon="6.46541">
        <ele>1323</ele>
        <time>2022-07-17T08:14:24Z</time>
      </trkpt>
      <trkpt lat="45.19685" lon="6.46537">
        <ele>1323.2</ele>
        <time>2022-07-17T08:14:25Z</time>
      </trkpt>
      <trkpt lat="45.19685" lon="6.46533">
        <ele>1323.4</ele>
        <time>2022-07-17T08:14:26Z</time>
      </trkpt>
      <trkpt lat="45.19686" lon="6.4653">
        <ele>1323.6</ele>
        <time>2022-07-17T08:14:27Z</time>
      </trkpt>
      <trkpt lat="45.19686" lon="6.46526">
        <ele>1323.8</ele>
        <time>2022-07-17T08:14:28Z</time>
      </trkpt>
      <trkpt lat="45.19687" lon="6.46522">
        <ele>1323.8</ele>
        <time>2022-07-17T08:14:29Z</time>
      </trkpt>
      <trkpt lat="45.19687" lon="6.46518">
        <ele>1324.4</ele>
        <time>2022-07-17T08:14:30Z</time>
      </trkpt>
      <trkpt lat="45.19687" lon="6.46514">
        <ele>1324.6</ele>
        <time>2022-07-17T08:14:31Z</time>
      </trkpt>
      <trkpt lat="45.19688" lon="6.4651">
        <ele>1324.6</ele>
        <time>2022-07-17T08:14:32Z</time>
      </trkpt>
      <trkpt lat="45.19687" lon="6.46506">
        <ele>1325</ele>
        <time>2022-07-17T08:14:33Z</time>
      </trkpt>
      <trkpt lat="45.19688" lon="6.46502">
        <ele>1325.2</ele>
        <time>2022-07-17T08:14:34Z</time>
      </trkpt>
      <trkpt lat="45.19688" lon="6.46499">
        <ele>1325.4</ele>
        <time>2022-07-17T08:14:35Z</time>
      </trkpt>
      <trkpt lat="45.19689" lon="6.46495">
        <ele>1325.4</ele>
        <time>2022-07-17T08:14:36Z</time>
      </trkpt>
      <trkpt lat="45.1969" lon="6.46492">
        <ele>1325.8</ele>
        <time>2022-07-17T08:14:37Z</time>
      </trkpt>
      <trkpt lat="45.1969" lon="6.46488">
        <ele>1326</ele>
        <time>2022-07-17T08:14:38Z</time>
      </trkpt>
      <trkpt lat="45.19691" lon="6.46485">
        <ele>1326.4</ele>
        <time>2022-07-17T08:14:39Z</time>
      </trkpt>
      <trkpt lat="45.19692" lon="6.46481">
        <ele>1326.4</ele>
        <time>2022-07-17T08:14:40Z</time>
      </trkpt>
      <trkpt lat="45.19694" lon="6.46478">
        <ele>1326.8</ele>
        <time>2022-07-17T08:14:41Z</time>
      </trkpt>
      <trkpt lat="45.19695" lon="6.46475">
        <ele>1327</ele>
        <time>2022-07-17T08:14:42Z</time>
      </trkpt>
      <trkpt lat="45.19697" lon="6.46472">
        <ele>1327.2</ele>
        <time>2022-07-17T08:14:43Z</time>
      </trkpt>
      <trkpt lat="45.19698" lon="6.46469">
        <ele>1327.6</ele>
        <time>2022-07-17T08:14:44Z</time>
      </trkpt>
      <trkpt lat="45.197" lon="6.46467">
        <ele>1327.8</ele>
        <time>2022-07-17T08:14:45Z</time>
      </trkpt>
      <trkpt lat="45.19702" lon="6.46465">
        <ele>1328.2</ele>
        <time>2022-07-17T08:14:46Z</time>
      </trkpt>
      <trkpt lat="45.19704" lon="6.46463">
        <ele>1328.2</ele>
        <time>2022-07-17T08:14:47Z</time>
      </trkpt>
      <trkpt lat="45.19706" lon="6.46461">
        <ele>1328.6</ele>
        <time>2022-07-17T08:14:48Z</time>
      </trkpt>
      <trkpt lat="45.19708" lon="6.4646">
        <ele>1328.8</ele>
        <time>2022-07-17T08:14:49Z</time>
      </trkpt>
      <trkpt lat="45.19711" lon="6.46459">
        <ele>1328.8</ele>
        <time>2022-07-17T08:14:50Z</time>
      </trkpt>
      <trkpt lat="45.19713" lon="6.46458">
        <ele>1329.2</ele>
        <time>2022-07-17T08:14:51Z</time>
      </trkpt>
      <trkpt lat="45.19716" lon="6.46456">
        <ele>1329.2</ele>
        <time>2022-07-17T08:14:52Z</time>
      </trkpt>
      <trkpt lat="45.19719" lon="6.46455">
        <ele>1329.6</ele>
        <time>2022-07-17T08:14:53Z</time>
      </trkpt>
      <trkpt lat="45.19721" lon="6.46454">
        <ele>1329.6</ele>
        <time>2022-07-17T08:14:54Z</time>
      </trkpt>
      <trkpt lat="45.19724" lon="6.46453">
        <ele>1329.8</ele>
        <time>2022-07-17T08:14:55Z</time>
      </trkpt>
      <trkpt lat="45.19727" lon="6.46451">
        <ele>1330.2</ele>
        <time>2022-07-17T08:14:56Z</time>
      </trkpt>
      <trkpt lat="45.19729" lon="6.4645">
        <ele>1330.4</ele>
        <time>2022-07-17T08:14:57Z</time>
      </trkpt>
      <trkpt lat="45.19732" lon="6.46449">
        <ele>1330.6</ele>
        <time>2022-07-17T08:14:58Z</time>
      </trkpt>
      <trkpt lat="45.19734" lon="6.46447">
        <ele>1330.8</ele>
        <time>2022-07-17T08:14:59Z</time>
      </trkpt>
      <trkpt lat="45.19737" lon="6.46446">
        <ele>1331</ele>
        <time>2022-07-17T08:15:00Z</time>
      </trkpt>
      <trkpt lat="45.19739" lon="6.46445">
        <ele>1331</ele>
        <time>2022-07-17T08:15:01Z</time>
      </trkpt>
      <trkpt lat="45.19741" lon="6.46443">
        <ele>1331.6</ele>
        <time>2022-07-17T08:15:02Z</time>
      </trkpt>
      <trkpt lat="45.19743" lon="6.46442">
        <ele>1331.6</ele>
        <time>2022-07-17T08:15:03Z</time>
      </trkpt>
      <trkpt lat="45.19746" lon="6.46441">
        <ele>1331.8</ele>
        <time>2022-07-17T08:15:04Z</time>
      </trkpt>
      <trkpt lat="45.19749" lon="6.4644">
        <ele>1332</ele>
        <time>2022-07-17T08:15:05Z</time>
      </trkpt>
      <trkpt lat="45.19751" lon="6.4644">
        <ele>1332.4</ele>
        <time>2022-07-17T08:15:06Z</time>
      </trkpt>
      <trkpt lat="45.19753" lon="6.46439">
        <ele>1332.6</ele>
        <time>2022-07-17T08:15:07Z</time>
      </trkpt>
      <trkpt lat="45.19756" lon="6.46438">
        <ele>1332.8</ele>
        <time>2022-07-17T08:15:08Z</time>
      </trkpt>
      <trkpt lat="45.19758" lon="6.46437">
        <ele>1333</ele>
        <time>2022-07-17T08:15:09Z</time>
      </trkpt>
      <trkpt lat="45.19761" lon="6.46436">
        <ele>1333</ele>
        <time>2022-07-17T08:15:10Z</time>
      </trkpt>
      <trkpt lat="45.19763" lon="6.46435">
        <ele>1333.4</ele>
        <time>2022-07-17T08:15:11Z</time>
      </trkpt>
      <trkpt lat="45.19765" lon="6.46434">
        <ele>1333.4</ele>
        <time>2022-07-17T08:15:12Z</time>
      </trkpt>
      <trkpt lat="45.19768" lon="6.46433">
        <ele>1333.8</ele>
        <time>2022-07-17T08:15:13Z</time>
      </trkpt>
      <trkpt lat="45.1977" lon="6.46433">
        <ele>1333.8</ele>
        <time>2022-07-17T08:15:14Z</time>
      </trkpt>
      <trkpt lat="45.19773" lon="6.46432">
        <ele>1334.2</ele>
        <time>2022-07-17T08:15:15Z</time>
      </trkpt>
      <trkpt lat="45.19775" lon="6.46432">
        <ele>1334.6</ele>
        <time>2022-07-17T08:15:16Z</time>
      </trkpt>
      <trkpt lat="45.19778" lon="6.46431">
        <ele>1334.8</ele>
        <time>2022-07-17T08:15:17Z</time>
      </trkpt>
      <trkpt lat="45.19781" lon="6.46431">
        <ele>1335</ele>
        <time>2022-07-17T08:15:18Z</time>
      </trkpt>
      <trkpt lat="45.19784" lon="6.46432">
        <ele>1335.2</ele>
        <time>2022-07-17T08:15:19Z</time>
      </trkpt>
      <trkpt lat="45.19787" lon="6.46432">
        <ele>1335.4</ele>
        <time>2022-07-17T08:15:20Z</time>
      </trkpt>
      <trkpt lat="45.1979" lon="6.46432">
        <ele>1335.6</ele>
        <time>2022-07-17T08:15:21Z</time>
      </trkpt>
      <trkpt lat="45.19793" lon="6.46432">
        <ele>1336</ele>
        <time>2022-07-17T08:15:22Z</time>
      </trkpt>
      <trkpt lat="45.19796" lon="6.46433">
        <ele>1336</ele>
        <time>2022-07-17T08:15:23Z</time>
      </trkpt>
      <trkpt lat="45.19799" lon="6.46433">
        <ele>1336.2</ele>
        <time>2022-07-17T08:15:24Z</time>
      </trkpt>
      <trkpt lat="45.19801" lon="6.46433">
        <ele>1336.2</ele>
        <time>2022-07-17T08:15:25Z</time>
      </trkpt>
      <trkpt lat="45.19805" lon="6.46433">
        <ele>1336.6</ele>
        <time>2022-07-17T08:15:26Z</time>
      </trkpt>
      <trkpt lat="45.19808" lon="6.46433">
        <ele>1336.6</ele>
        <time>2022-07-17T08:15:27Z</time>
      </trkpt>
      <trkpt lat="45.1981" lon="6.46433">
        <ele>1337</ele>
        <time>2022-07-17T08:15:28Z</time>
      </trkpt>
      <trkpt lat="45.19813" lon="6.46433">
        <ele>1337</ele>
        <time>2022-07-17T08:15:29Z</time>
      </trkpt>
      <trkpt lat="45.19816" lon="6.46433">
        <ele>1337.2</ele>
        <time>2022-07-17T08:15:30Z</time>
      </trkpt>
      <trkpt lat="45.19818" lon="6.46431">
        <ele>1337.4</ele>
        <time>2022-07-17T08:15:31Z</time>
      </trkpt>
      <trkpt lat="45.1982" lon="6.4643">
        <ele>1337.6</ele>
        <time>2022-07-17T08:15:32Z</time>
      </trkpt>
      <trkpt lat="45.19823" lon="6.46428">
        <ele>1338</ele>
        <time>2022-07-17T08:15:33Z</time>
      </trkpt>
      <trkpt lat="45.19825" lon="6.46426">
        <ele>1338</ele>
        <time>2022-07-17T08:15:34Z</time>
      </trkpt>
      <trkpt lat="45.19827" lon="6.46424">
        <ele>1338.2</ele>
        <time>2022-07-17T08:15:35Z</time>
      </trkpt>
      <trkpt lat="45.1983" lon="6.46421">
        <ele>1338.2</ele>
        <time>2022-07-17T08:15:36Z</time>
      </trkpt>
      <trkpt lat="45.19832" lon="6.46419">
        <ele>1338.6</ele>
        <time>2022-07-17T08:15:37Z</time>
      </trkpt>
      <trkpt lat="45.19834" lon="6.46417">
        <ele>1338.6</ele>
        <time>2022-07-17T08:15:38Z</time>
      </trkpt>
      <trkpt lat="45.19836" lon="6.46414">
        <ele>1338.8</ele>
        <time>2022-07-17T08:15:39Z</time>
      </trkpt>
      <trkpt lat="45.19838" lon="6.46411">
        <ele>1338.8</ele>
        <time>2022-07-17T08:15:40Z</time>
      </trkpt>
      <trkpt lat="45.1984" lon="6.46409">
        <ele>1339.2</ele>
        <time>2022-07-17T08:15:41Z</time>
      </trkpt>
      <trkpt lat="45.19842" lon="6.46406">
        <ele>1339.4</ele>
        <time>2022-07-17T08:15:42Z</time>
      </trkpt>
      <trkpt lat="45.19844" lon="6.46404">
        <ele>1339.4</ele>
        <time>2022-07-17T08:15:43Z</time>
      </trkpt>
      <trkpt lat="45.19846" lon="6.46401">
        <ele>1339.8</ele>
        <time>2022-07-17T08:15:44Z</time>
      </trkpt>
      <trkpt lat="45.19848" lon="6.46399">
        <ele>1339.8</ele>
        <time>2022-07-17T08:15:45Z</time>
      </trkpt>
      <trkpt lat="45.1985" lon="6.46397">
        <ele>1340.2</ele>
        <time>2022-07-17T08:15:46Z</time>
      </trkpt>
      <trkpt lat="45.19852" lon="6.46394">
        <ele>1340.4</ele>
        <time>2022-07-17T08:15:47Z</time>
      </trkpt>
      <trkpt lat="45.19853" lon="6.46391">
        <ele>1340.6</ele>
        <time>2022-07-17T08:15:48Z</time>
      </trkpt>
      <trkpt lat="45.19855" lon="6.46388">
        <ele>1340.6</ele>
        <time>2022-07-17T08:15:49Z</time>
      </trkpt>
      <trkpt lat="45.19856" lon="6.46385">
        <ele>1341</ele>
        <time>2022-07-17T08:15:50Z</time>
      </trkpt>
      <trkpt lat="45.19858" lon="6.46382">
        <ele>1341</ele>
        <time>2022-07-17T08:15:51Z</time>
      </trkpt>
      <trkpt lat="45.19859" lon="6.46378">
        <ele>1341.2</ele>
        <time>2022-07-17T08:15:52Z</time>
      </trkpt>
      <trkpt lat="45.1986" lon="6.46373">
        <ele>1341.2</ele>
        <time>2022-07-17T08:15:53Z</time>
      </trkpt>
      <trkpt lat="45.19861" lon="6.46369">
        <ele>1341.6</ele>
        <time>2022-07-17T08:15:54Z</time>
      </trkpt>
      <trkpt lat="45.19862" lon="6.46365">
        <ele>1341.6</ele>
        <time>2022-07-17T08:15:55Z</time>
      </trkpt>
      <trkpt lat="45.19863" lon="6.46362">
        <ele>1342</ele>
        <time>2022-07-17T08:15:56Z</time>
      </trkpt>
      <trkpt lat="45.19865" lon="6.46358">
        <ele>1342</ele>
        <time>2022-07-17T08:15:57Z</time>
      </trkpt>
      <trkpt lat="45.19866" lon="6.46355">
        <ele>1342</ele>
        <time>2022-07-17T08:15:58Z</time>
      </trkpt>
      <trkpt lat="45.19867" lon="6.46352">
        <ele>1342.2</ele>
        <time>2022-07-17T08:15:59Z</time>
      </trkpt>
      <trkpt lat="45.19868" lon="6.46348">
        <ele>1342.2</ele>
        <time>2022-07-17T08:16:00Z</time>
      </trkpt>
      <trkpt lat="45.19869" lon="6.46345">
        <ele>1342.6</ele>
        <time>2022-07-17T08:16:01Z</time>
      </trkpt>
      <trkpt lat="45.1987" lon="6.46342">
        <ele>1342.8</ele>
        <time>2022-07-17T08:16:02Z</time>
      </trkpt>
      <trkpt lat="45.1987" lon="6.46338">
        <ele>1343</ele>
        <time>2022-07-17T08:16:03Z</time>
      </trkpt>
      <trkpt lat="45.19871" lon="6.46335">
        <ele>1343</ele>
        <time>2022-07-17T08:16:04Z</time>
      </trkpt>
      <trkpt lat="45.19872" lon="6.46332">
        <ele>1343.2</ele>
        <time>2022-07-17T08:16:05Z</time>
      </trkpt>
      <trkpt lat="45.19873" lon="6.46329">
        <ele>1343.2</ele>
        <time>2022-07-17T08:16:06Z</time>
      </trkpt>
      <trkpt lat="45.19874" lon="6.46326">
        <ele>1343.6</ele>
        <time>2022-07-17T08:16:07Z</time>
      </trkpt>
      <trkpt lat="45.19874" lon="6.46322">
        <ele>1343.6</ele>
        <time>2022-07-17T08:16:08Z</time>
      </trkpt>
      <trkpt lat="45.19874" lon="6.46318">
        <ele>1344</ele>
        <time>2022-07-17T08:16:09Z</time>
      </trkpt>
      <trkpt lat="45.19875" lon="6.46315">
        <ele>1344.2</ele>
        <time>2022-07-17T08:16:10Z</time>
      </trkpt>
      <trkpt lat="45.19875" lon="6.46312">
        <ele>1344.4</ele>
        <time>2022-07-17T08:16:11Z</time>
      </trkpt>
      <trkpt lat="45.19876" lon="6.46309">
        <ele>1344.6</ele>
        <time>2022-07-17T08:16:12Z</time>
      </trkpt>
      <trkpt lat="45.19877" lon="6.46305">
        <ele>1344.8</ele>
        <time>2022-07-17T08:16:13Z</time>
      </trkpt>
      <trkpt lat="45.19878" lon="6.46301">
        <ele>1345.2</ele>
        <time>2022-07-17T08:16:14Z</time>
      </trkpt>
      <trkpt lat="45.19879" lon="6.46298">
        <ele>1345.4</ele>
        <time>2022-07-17T08:16:15Z</time>
      </trkpt>
      <trkpt lat="45.1988" lon="6.46295">
        <ele>1345.6</ele>
        <time>2022-07-17T08:16:16Z</time>
      </trkpt>
      <trkpt lat="45.19881" lon="6.46291">
        <ele>1345.6</ele>
        <time>2022-07-17T08:16:17Z</time>
      </trkpt>
      <trkpt lat="45.19882" lon="6.46287">
        <ele>1345.8</ele>
        <time>2022-07-17T08:16:18Z</time>
      </trkpt>
      <trkpt lat="45.19883" lon="6.46283">
        <ele>1345.8</ele>
        <time>2022-07-17T08:16:19Z</time>
      </trkpt>
      <trkpt lat="45.19885" lon="6.46279">
        <ele>1346.2</ele>
        <time>2022-07-17T08:16:20Z</time>
      </trkpt>
      <trkpt lat="45.19887" lon="6.46276">
        <ele>1346.2</ele>
        <time>2022-07-17T08:16:21Z</time>
      </trkpt>
      <trkpt lat="45.19888" lon="6.46272">
        <ele>1346.4</ele>
        <time>2022-07-17T08:16:22Z</time>
      </trkpt>
      <trkpt lat="45.1989" lon="6.46269">
        <ele>1346.4</ele>
        <time>2022-07-17T08:16:23Z</time>
      </trkpt>
      <trkpt lat="45.19892" lon="6.46265">
        <ele>1346.4</ele>
        <time>2022-07-17T08:16:24Z</time>
      </trkpt>
      <trkpt lat="45.19894" lon="6.46262">
        <ele>1346.8</ele>
        <time>2022-07-17T08:16:25Z</time>
      </trkpt>
      <trkpt lat="45.19896" lon="6.46258">
        <ele>1346.8</ele>
        <time>2022-07-17T08:16:26Z</time>
      </trkpt>
      <trkpt lat="45.19898" lon="6.46255">
        <ele>1347</ele>
        <time>2022-07-17T08:16:27Z</time>
      </trkpt>
      <trkpt lat="45.199" lon="6.46252">
        <ele>1347</ele>
        <time>2022-07-17T08:16:28Z</time>
      </trkpt>
      <trkpt lat="45.19902" lon="6.46249">
        <ele>1347.4</ele>
        <time>2022-07-17T08:16:29Z</time>
      </trkpt>
      <trkpt lat="45.19904" lon="6.46246">
        <ele>1347.4</ele>
        <time>2022-07-17T08:16:30Z</time>
      </trkpt>
      <trkpt lat="45.19905" lon="6.46243">
        <ele>1347.6</ele>
        <time>2022-07-17T08:16:31Z</time>
      </trkpt>
      <trkpt lat="45.19907" lon="6.46239">
        <ele>1347.6</ele>
        <time>2022-07-17T08:16:32Z</time>
      </trkpt>
      <trkpt lat="45.19909" lon="6.46235">
        <ele>1348</ele>
        <time>2022-07-17T08:16:33Z</time>
      </trkpt>
      <trkpt lat="45.1991" lon="6.46231">
        <ele>1348</ele>
        <time>2022-07-17T08:16:34Z</time>
      </trkpt>
      <trkpt lat="45.19911" lon="6.46228">
        <ele>1348.4</ele>
        <time>2022-07-17T08:16:35Z</time>
      </trkpt>
      <trkpt lat="45.19912" lon="6.46224">
        <ele>1348.6</ele>
        <time>2022-07-17T08:16:36Z</time>
      </trkpt>
      <trkpt lat="45.19913" lon="6.46221">
        <ele>1348.8</ele>
        <time>2022-07-17T08:16:37Z</time>
      </trkpt>
      <trkpt lat="45.19915" lon="6.46218">
        <ele>1349</ele>
        <time>2022-07-17T08:16:38Z</time>
      </trkpt>
      <trkpt lat="45.19916" lon="6.46216">
        <ele>1349</ele>
        <time>2022-07-17T08:16:39Z</time>
      </trkpt>
      <trkpt lat="45.19918" lon="6.46213">
        <ele>1349.4</ele>
        <time>2022-07-17T08:16:40Z</time>
      </trkpt>
      <trkpt lat="45.1992" lon="6.46211">
        <ele>1349.4</ele>
        <time>2022-07-17T08:16:41Z</time>
      </trkpt>
      <trkpt lat="45.19922" lon="6.46208">
        <ele>1349.8</ele>
        <time>2022-07-17T08:16:42Z</time>
      </trkpt>
      <trkpt lat="45.19923" lon="6.46205">
        <ele>1350</ele>
        <time>2022-07-17T08:16:43Z</time>
      </trkpt>
      <trkpt lat="45.19925" lon="6.46202">
        <ele>1350.4</ele>
        <time>2022-07-17T08:16:44Z</time>
      </trkpt>
      <trkpt lat="45.19926" lon="6.46199">
        <ele>1350.6</ele>
        <time>2022-07-17T08:16:45Z</time>
      </trkpt>
      <trkpt lat="45.19928" lon="6.46197">
        <ele>1351</ele>
        <time>2022-07-17T08:16:46Z</time>
      </trkpt>
      <trkpt lat="45.19929" lon="6.46193">
        <ele>1351.2</ele>
        <time>2022-07-17T08:16:47Z</time>
      </trkpt>
      <trkpt lat="45.19931" lon="6.4619">
        <ele>1351.4</ele>
        <time>2022-07-17T08:16:48Z</time>
      </trkpt>
      <trkpt lat="45.19933" lon="6.46187">
        <ele>1351.6</ele>
        <time>2022-07-17T08:16:49Z</time>
      </trkpt>
      <trkpt lat="45.19935" lon="6.46184">
        <ele>1352</ele>
        <time>2022-07-17T08:16:50Z</time>
      </trkpt>
      <trkpt lat="45.19937" lon="6.46181">
        <ele>1352.2</ele>
        <time>2022-07-17T08:16:51Z</time>
      </trkpt>
      <trkpt lat="45.19939" lon="6.46178">
        <ele>1352.4</ele>
        <time>2022-07-17T08:16:52Z</time>
      </trkpt>
      <trkpt lat="45.1994" lon="6.46174">
        <ele>1352.4</ele>
        <time>2022-07-17T08:16:53Z</time>
      </trkpt>
      <trkpt lat="45.1994" lon="6.4617">
        <ele>1352.8</ele>
        <time>2022-07-17T08:16:54Z</time>
      </trkpt>
      <trkpt lat="45.1994" lon="6.46166">
        <ele>1353</ele>
        <time>2022-07-17T08:16:55Z</time>
      </trkpt>
      <trkpt lat="45.19939" lon="6.46162">
        <ele>1353.2</ele>
        <time>2022-07-17T08:16:56Z</time>
      </trkpt>
      <trkpt lat="45.19938" lon="6.46158">
        <ele>1353.2</ele>
        <time>2022-07-17T08:16:57Z</time>
      </trkpt>
      <trkpt lat="45.19937" lon="6.46154">
        <ele>1353.6</ele>
        <time>2022-07-17T08:16:58Z</time>
      </trkpt>
      <trkpt lat="45.19936" lon="6.46149">
        <ele>1353.6</ele>
        <time>2022-07-17T08:16:59Z</time>
      </trkpt>
      <trkpt lat="45.19935" lon="6.46145">
        <ele>1353.8</ele>
        <time>2022-07-17T08:17:00Z</time>
      </trkpt>
      <trkpt lat="45.19934" lon="6.46142">
        <ele>1354</ele>
        <time>2022-07-17T08:17:01Z</time>
      </trkpt>
      <trkpt lat="45.19933" lon="6.46138">
        <ele>1354.2</ele>
        <time>2022-07-17T08:17:02Z</time>
      </trkpt>
      <trkpt lat="45.19932" lon="6.46134">
        <ele>1354.2</ele>
        <time>2022-07-17T08:17:03Z</time>
      </trkpt>
      <trkpt lat="45.19932" lon="6.46131">
        <ele>1354.6</ele>
        <time>2022-07-17T08:17:04Z</time>
      </trkpt>
      <trkpt lat="45.19931" lon="6.46127">
        <ele>1355</ele>
        <time>2022-07-17T08:17:05Z</time>
      </trkpt>
      <trkpt lat="45.1993" lon="6.46124">
        <ele>1355</ele>
        <time>2022-07-17T08:17:06Z</time>
      </trkpt>
      <trkpt lat="45.1993" lon="6.46121">
        <ele>1355.2</ele>
        <time>2022-07-17T08:17:07Z</time>
      </trkpt>
      <trkpt lat="45.19929" lon="6.46117">
        <ele>1355.2</ele>
        <time>2022-07-17T08:17:08Z</time>
      </trkpt>
      <trkpt lat="45.19928" lon="6.46115">
        <ele>1355.6</ele>
        <time>2022-07-17T08:17:09Z</time>
      </trkpt>
      <trkpt lat="45.19927" lon="6.46112">
        <ele>1355.6</ele>
        <time>2022-07-17T08:17:10Z</time>
      </trkpt>
      <trkpt lat="45.19927" lon="6.46109">
        <ele>1355.8</ele>
        <time>2022-07-17T08:17:11Z</time>
      </trkpt>
      <trkpt lat="45.19926" lon="6.46106">
        <ele>1355.8</ele>
        <time>2022-07-17T08:17:12Z</time>
      </trkpt>
      <trkpt lat="45.19925" lon="6.46103">
        <ele>1356.2</ele>
        <time>2022-07-17T08:17:13Z</time>
      </trkpt>
      <trkpt lat="45.19925" lon="6.461">
        <ele>1356.4</ele>
        <time>2022-07-17T08:17:14Z</time>
      </trkpt>
      <trkpt lat="45.19924" lon="6.46097">
        <ele>1356.4</ele>
        <time>2022-07-17T08:17:15Z</time>
      </trkpt>
      <trkpt lat="45.19923" lon="6.46094">
        <ele>1356.8</ele>
        <time>2022-07-17T08:17:16Z</time>
      </trkpt>
      <trkpt lat="45.19922" lon="6.46091">
        <ele>1357</ele>
        <time>2022-07-17T08:17:17Z</time>
      </trkpt>
      <trkpt lat="45.19921" lon="6.46087">
        <ele>1357</ele>
        <time>2022-07-17T08:17:18Z</time>
      </trkpt>
      <trkpt lat="45.19921" lon="6.46085">
        <ele>1357.4</ele>
        <time>2022-07-17T08:17:19Z</time>
      </trkpt>
      <trkpt lat="45.1992" lon="6.46081">
        <ele>1357.6</ele>
        <time>2022-07-17T08:17:20Z</time>
      </trkpt>
      <trkpt lat="45.19919" lon="6.46077">
        <ele>1357.6</ele>
        <time>2022-07-17T08:17:21Z</time>
      </trkpt>
      <trkpt lat="45.19918" lon="6.46073">
        <ele>1358</ele>
        <time>2022-07-17T08:17:22Z</time>
      </trkpt>
      <trkpt lat="45.19916" lon="6.4607">
        <ele>1358.2</ele>
        <time>2022-07-17T08:17:23Z</time>
      </trkpt>
      <trkpt lat="45.19915" lon="6.46067">
        <ele>1358.2</ele>
        <time>2022-07-17T08:17:24Z</time>
      </trkpt>
      <trkpt lat="45.19913" lon="6.46064">
        <ele>1358.4</ele>
        <time>2022-07-17T08:17:25Z</time>
      </trkpt>
      <trkpt lat="45.19913" lon="6.46062">
        <ele>1358.4</ele>
        <time>2022-07-17T08:17:26Z</time>
      </trkpt>
      <trkpt lat="45.19912" lon="6.46059">
        <ele>1358.8</ele>
        <time>2022-07-17T08:17:27Z</time>
      </trkpt>
      <trkpt lat="45.19911" lon="6.46056">
        <ele>1358.8</ele>
        <time>2022-07-17T08:17:28Z</time>
      </trkpt>
      <trkpt lat="45.1991" lon="6.46054">
        <ele>1359.2</ele>
        <time>2022-07-17T08:17:29Z</time>
      </trkpt>
      <trkpt lat="45.19909" lon="6.46051">
        <ele>1359.4</ele>
        <time>2022-07-17T08:17:30Z</time>
      </trkpt>
      <trkpt lat="45.19908" lon="6.46048">
        <ele>1359.4</ele>
        <time>2022-07-17T08:17:31Z</time>
      </trkpt>
      <trkpt lat="45.19906" lon="6.46046">
        <ele>1359.6</ele>
        <time>2022-07-17T08:17:32Z</time>
      </trkpt>
      <trkpt lat="45.19905" lon="6.46043">
        <ele>1359.6</ele>
        <time>2022-07-17T08:17:33Z</time>
      </trkpt>
      <trkpt lat="45.19904" lon="6.46041">
        <ele>1360.2</ele>
        <time>2022-07-17T08:17:34Z</time>
      </trkpt>
      <trkpt lat="45.19902" lon="6.46039">
        <ele>1360.4</ele>
        <time>2022-07-17T08:17:35Z</time>
      </trkpt>
      <trkpt lat="45.19901" lon="6.46037">
        <ele>1360.6</ele>
        <time>2022-07-17T08:17:36Z</time>
      </trkpt>
      <trkpt lat="45.19899" lon="6.46035">
        <ele>1360.6</ele>
        <time>2022-07-17T08:17:37Z</time>
      </trkpt>
      <trkpt lat="45.19897" lon="6.46032">
        <ele>1361</ele>
        <time>2022-07-17T08:17:38Z</time>
      </trkpt>
      <trkpt lat="45.19895" lon="6.4603">
        <ele>1361.2</ele>
        <time>2022-07-17T08:17:39Z</time>
      </trkpt>
      <trkpt lat="45.19893" lon="6.46027">
        <ele>1361.4</ele>
        <time>2022-07-17T08:17:40Z</time>
      </trkpt>
      <trkpt lat="45.19891" lon="6.46024">
        <ele>1361.6</ele>
        <time>2022-07-17T08:17:41Z</time>
      </trkpt>
      <trkpt lat="45.19888" lon="6.46022">
        <ele>1361.6</ele>
        <time>2022-07-17T08:17:42Z</time>
      </trkpt>
      <trkpt lat="45.19886" lon="6.46019">
        <ele>1362</ele>
        <time>2022-07-17T08:17:43Z</time>
      </trkpt>
      <trkpt lat="45.19884" lon="6.46016">
        <ele>1362.2</ele>
        <time>2022-07-17T08:17:44Z</time>
      </trkpt>
      <trkpt lat="45.19882" lon="6.46013">
        <ele>1362.2</ele>
        <time>2022-07-17T08:17:45Z</time>
      </trkpt>
      <trkpt lat="45.19879" lon="6.4601">
        <ele>1362.6</ele>
        <time>2022-07-17T08:17:46Z</time>
      </trkpt>
      <trkpt lat="45.19877" lon="6.46008">
        <ele>1362.6</ele>
        <time>2022-07-17T08:17:47Z</time>
      </trkpt>
      <trkpt lat="45.19875" lon="6.46005">
        <ele>1363</ele>
        <time>2022-07-17T08:17:48Z</time>
      </trkpt>
      <trkpt lat="45.19873" lon="6.46003">
        <ele>1363.2</ele>
        <time>2022-07-17T08:17:49Z</time>
      </trkpt>
      <trkpt lat="45.1987" lon="6.46">
        <ele>1363.2</ele>
        <time>2022-07-17T08:17:50Z</time>
      </trkpt>
      <trkpt lat="45.19868" lon="6.45998">
        <ele>1363.6</ele>
        <time>2022-07-17T08:17:51Z</time>
      </trkpt>
      <trkpt lat="45.19866" lon="6.45995">
        <ele>1363.6</ele>
        <time>2022-07-17T08:17:52Z</time>
      </trkpt>
      <trkpt lat="45.19864" lon="6.45993">
        <ele>1363.8</ele>
        <time>2022-07-17T08:17:53Z</time>
      </trkpt>
      <trkpt lat="45.19862" lon="6.4599">
        <ele>1363.8</ele>
        <time>2022-07-17T08:17:54Z</time>
      </trkpt>
      <trkpt lat="45.19859" lon="6.45987">
        <ele>1364.2</ele>
        <time>2022-07-17T08:17:55Z</time>
      </trkpt>
      <trkpt lat="45.19857" lon="6.45985">
        <ele>1364.2</ele>
        <time>2022-07-17T08:17:56Z</time>
      </trkpt>
      <trkpt lat="45.19855" lon="6.45983">
        <ele>1364.4</ele>
        <time>2022-07-17T08:17:57Z</time>
      </trkpt>
      <trkpt lat="45.19853" lon="6.4598">
        <ele>1364.8</ele>
        <time>2022-07-17T08:17:58Z</time>
      </trkpt>
      <trkpt lat="45.1985" lon="6.45978">
        <ele>1365</ele>
        <time>2022-07-17T08:17:59Z</time>
      </trkpt>
      <trkpt lat="45.19848" lon="6.45976">
        <ele>1365</ele>
        <time>2022-07-17T08:18:00Z</time>
      </trkpt>
      <trkpt lat="45.19846" lon="6.45974">
        <ele>1365.2</ele>
        <time>2022-07-17T08:18:01Z</time>
      </trkpt>
      <trkpt lat="45.19843" lon="6.45972">
        <ele>1365.2</ele>
        <time>2022-07-17T08:18:02Z</time>
      </trkpt>
      <trkpt lat="45.19841" lon="6.4597">
        <ele>1365.4</ele>
        <time>2022-07-17T08:18:03Z</time>
      </trkpt>
      <trkpt lat="45.19838" lon="6.45968">
        <ele>1365.4</ele>
        <time>2022-07-17T08:18:04Z</time>
      </trkpt>
      <trkpt lat="45.19836" lon="6.45966">
        <ele>1365.6</ele>
        <time>2022-07-17T08:18:05Z</time>
      </trkpt>
      <trkpt lat="45.19833" lon="6.45964">
        <ele>1365.6</ele>
        <time>2022-07-17T08:18:06Z</time>
      </trkpt>
      <trkpt lat="45.19831" lon="6.45961">
        <ele>1366</ele>
        <time>2022-07-17T08:18:07Z</time>
      </trkpt>
      <trkpt lat="45.19828" lon="6.45959">
        <ele>1366</ele>
        <time>2022-07-17T08:18:08Z</time>
      </trkpt>
      <trkpt lat="45.19826" lon="6.45957">
        <ele>1366.2</ele>
        <time>2022-07-17T08:18:09Z</time>
      </trkpt>
      <trkpt lat="45.19824" lon="6.45955">
        <ele>1366.2</ele>
        <time>2022-07-17T08:18:10Z</time>
      </trkpt>
      <trkpt lat="45.19821" lon="6.45953">
        <ele>1366.2</ele>
        <time>2022-07-17T08:18:11Z</time>
      </trkpt>
      <trkpt lat="45.19818" lon="6.45951">
        <ele>1366.2</ele>
        <time>2022-07-17T08:18:12Z</time>
      </trkpt>
      <trkpt lat="45.19815" lon="6.45949">
        <ele>1366.4</ele>
        <time>2022-07-17T08:18:13Z</time>
      </trkpt>
      <trkpt lat="45.19812" lon="6.45947">
        <ele>1366.4</ele>
        <time>2022-07-17T08:18:14Z</time>
      </trkpt>
      <trkpt lat="45.1981" lon="6.45945">
        <ele>1366.8</ele>
        <time>2022-07-17T08:18:15Z</time>
      </trkpt>
      <trkpt lat="45.19807" lon="6.45943">
        <ele>1366.8</ele>
        <time>2022-07-17T08:18:16Z</time>
      </trkpt>
      <trkpt lat="45.19804" lon="6.45941">
        <ele>1367</ele>
        <time>2022-07-17T08:18:17Z</time>
      </trkpt>
      <trkpt lat="45.19801" lon="6.45939">
        <ele>1367</ele>
        <time>2022-07-17T08:18:18Z</time>
      </trkpt>
      <trkpt lat="45.19798" lon="6.45937">
        <ele>1367.2</ele>
        <time>2022-07-17T08:18:19Z</time>
      </trkpt>
      <trkpt lat="45.19796" lon="6.45935">
        <ele>1367.2</ele>
        <time>2022-07-17T08:18:20Z</time>
      </trkpt>
      <trkpt lat="45.19793" lon="6.45933">
        <ele>1367.2</ele>
        <time>2022-07-17T08:18:21Z</time>
      </trkpt>
      <trkpt lat="45.1979" lon="6.4593">
        <ele>1367.4</ele>
        <time>2022-07-17T08:18:22Z</time>
      </trkpt>
      <trkpt lat="45.19788" lon="6.45928">
        <ele>1367.4</ele>
        <time>2022-07-17T08:18:23Z</time>
      </trkpt>
      <trkpt lat="45.19785" lon="6.45926">
        <ele>1367.8</ele>
        <time>2022-07-17T08:18:24Z</time>
      </trkpt>
      <trkpt lat="45.19782" lon="6.45924">
        <ele>1367.8</ele>
        <time>2022-07-17T08:18:25Z</time>
      </trkpt>
      <trkpt lat="45.1978" lon="6.45921">
        <ele>1368</ele>
        <time>2022-07-17T08:18:26Z</time>
      </trkpt>
      <trkpt lat="45.19777" lon="6.45919">
        <ele>1368</ele>
        <time>2022-07-17T08:18:27Z</time>
      </trkpt>
      <trkpt lat="45.19775" lon="6.45917">
        <ele>1368.2</ele>
        <time>2022-07-17T08:18:28Z</time>
      </trkpt>
      <trkpt lat="45.19772" lon="6.45916">
        <ele>1368.2</ele>
        <time>2022-07-17T08:18:29Z</time>
      </trkpt>
      <trkpt lat="45.19769" lon="6.45915">
        <ele>1368.6</ele>
        <time>2022-07-17T08:18:30Z</time>
      </trkpt>
      <trkpt lat="45.19767" lon="6.45914">
        <ele>1368.6</ele>
        <time>2022-07-17T08:18:31Z</time>
      </trkpt>
      <trkpt lat="45.19764" lon="6.45914">
        <ele>1368.8</ele>
        <time>2022-07-17T08:18:32Z</time>
      </trkpt>
      <trkpt lat="45.19762" lon="6.45914">
        <ele>1368.8</ele>
        <time>2022-07-17T08:18:33Z</time>
      </trkpt>
      <trkpt lat="45.19759" lon="6.45913">
        <ele>1369</ele>
        <time>2022-07-17T08:18:34Z</time>
      </trkpt>
      <trkpt lat="45.19757" lon="6.45913">
        <ele>1369</ele>
        <time>2022-07-17T08:18:35Z</time>
      </trkpt>
      <trkpt lat="45.19754" lon="6.45912">
        <ele>1369.2</ele>
        <time>2022-07-17T08:18:36Z</time>
      </trkpt>
      <trkpt lat="45.19751" lon="6.45912">
        <ele>1369.2</ele>
        <time>2022-07-17T08:18:37Z</time>
      </trkpt>
      <trkpt lat="45.19748" lon="6.45912">
        <ele>1369.2</ele>
        <time>2022-07-17T08:18:38Z</time>
      </trkpt>
      <trkpt lat="45.19745" lon="6.45912">
        <ele>1369.6</ele>
        <time>2022-07-17T08:18:39Z</time>
      </trkpt>
      <trkpt lat="45.19742" lon="6.45912">
        <ele>1369.6</ele>
        <time>2022-07-17T08:18:40Z</time>
      </trkpt>
      <trkpt lat="45.19739" lon="6.45912">
        <ele>1370</ele>
        <time>2022-07-17T08:18:41Z</time>
      </trkpt>
      <trkpt lat="45.19736" lon="6.45912">
        <ele>1370.2</ele>
        <time>2022-07-17T08:18:42Z</time>
      </trkpt>
      <trkpt lat="45.19733" lon="6.45912">
        <ele>1370.2</ele>
        <time>2022-07-17T08:18:43Z</time>
      </trkpt>
      <trkpt lat="45.19729" lon="6.45912">
        <ele>1370.6</ele>
        <time>2022-07-17T08:18:44Z</time>
      </trkpt>
      <trkpt lat="45.19726" lon="6.45911">
        <ele>1370.8</ele>
        <time>2022-07-17T08:18:45Z</time>
      </trkpt>
      <trkpt lat="45.19724" lon="6.45911">
        <ele>1370.8</ele>
        <time>2022-07-17T08:18:46Z</time>
      </trkpt>
      <trkpt lat="45.19721" lon="6.4591">
        <ele>1371.2</ele>
        <time>2022-07-17T08:18:47Z</time>
      </trkpt>
      <trkpt lat="45.19718" lon="6.4591">
        <ele>1371.2</ele>
        <time>2022-07-17T08:18:48Z</time>
      </trkpt>
      <trkpt lat="45.19715" lon="6.45909">
        <ele>1371.4</ele>
        <time>2022-07-17T08:18:49Z</time>
      </trkpt>
      <trkpt lat="45.19712" lon="6.45909">
        <ele>1371.4</ele>
        <time>2022-07-17T08:18:50Z</time>
      </trkpt>
      <trkpt lat="45.19709" lon="6.45909">
        <ele>1371.6</ele>
        <time>2022-07-17T08:18:51Z</time>
      </trkpt>
      <trkpt lat="45.19706" lon="6.45908">
        <ele>1371.6</ele>
        <time>2022-07-17T08:18:52Z</time>
      </trkpt>
      <trkpt lat="45.19704" lon="6.45908">
        <ele>1372</ele>
        <time>2022-07-17T08:18:53Z</time>
      </trkpt>
      <trkpt lat="45.19701" lon="6.45908">
        <ele>1372</ele>
        <time>2022-07-17T08:18:54Z</time>
      </trkpt>
      <trkpt lat="45.19698" lon="6.45908">
        <ele>1372.2</ele>
        <time>2022-07-17T08:18:55Z</time>
      </trkpt>
      <trkpt lat="45.19695" lon="6.45908">
        <ele>1372.4</ele>
        <time>2022-07-17T08:18:56Z</time>
      </trkpt>
      <trkpt lat="45.19692" lon="6.45908">
        <ele>1372.6</ele>
        <time>2022-07-17T08:18:57Z</time>
      </trkpt>
      <trkpt lat="45.19689" lon="6.45907">
        <ele>1372.6</ele>
        <time>2022-07-17T08:18:58Z</time>
      </trkpt>
      <trkpt lat="45.19687" lon="6.45907">
        <ele>1373</ele>
        <time>2022-07-17T08:18:59Z</time>
      </trkpt>
      <trkpt lat="45.19684" lon="6.45906">
        <ele>1373</ele>
        <time>2022-07-17T08:19:00Z</time>
      </trkpt>
      <trkpt lat="45.19682" lon="6.45905">
        <ele>1373.2</ele>
        <time>2022-07-17T08:19:01Z</time>
      </trkpt>
      <trkpt lat="45.19679" lon="6.45904">
        <ele>1373.2</ele>
        <time>2022-07-17T08:19:02Z</time>
      </trkpt>
      <trkpt lat="45.19677" lon="6.45903">
        <ele>1373.6</ele>
        <time>2022-07-17T08:19:03Z</time>
      </trkpt>
      <trkpt lat="45.19674" lon="6.45902">
        <ele>1373.6</ele>
        <time>2022-07-17T08:19:04Z</time>
      </trkpt>
      <trkpt lat="45.19672" lon="6.45901">
        <ele>1374</ele>
        <time>2022-07-17T08:19:05Z</time>
      </trkpt>
      <trkpt lat="45.1967" lon="6.459">
        <ele>1374.2</ele>
        <time>2022-07-17T08:19:06Z</time>
      </trkpt>
      <trkpt lat="45.19668" lon="6.45899">
        <ele>1374.4</ele>
        <time>2022-07-17T08:19:07Z</time>
      </trkpt>
      <trkpt lat="45.19666" lon="6.45897">
        <ele>1374.8</ele>
        <time>2022-07-17T08:19:08Z</time>
      </trkpt>
      <trkpt lat="45.19664" lon="6.45896">
        <ele>1375</ele>
        <time>2022-07-17T08:19:09Z</time>
      </trkpt>
      <trkpt lat="45.19663" lon="6.45894">
        <ele>1375.2</ele>
        <time>2022-07-17T08:19:10Z</time>
      </trkpt>
      <trkpt lat="45.19661" lon="6.45893">
        <ele>1375.4</ele>
        <time>2022-07-17T08:19:11Z</time>
      </trkpt>
      <trkpt lat="45.19659" lon="6.45892">
        <ele>1375.6</ele>
        <time>2022-07-17T08:19:12Z</time>
      </trkpt>
      <trkpt lat="45.19656" lon="6.45891">
        <ele>1376</ele>
        <time>2022-07-17T08:19:13Z</time>
      </trkpt>
      <trkpt lat="45.19654" lon="6.45889">
        <ele>1376.2</ele>
        <time>2022-07-17T08:19:14Z</time>
      </trkpt>
      <trkpt lat="45.19652" lon="6.45888">
        <ele>1376.4</ele>
        <time>2022-07-17T08:19:15Z</time>
      </trkpt>
      <trkpt lat="45.19649" lon="6.45887">
        <ele>1376.4</ele>
        <time>2022-07-17T08:19:16Z</time>
      </trkpt>
      <trkpt lat="45.19646" lon="6.45886">
        <ele>1377</ele>
        <time>2022-07-17T08:19:17Z</time>
      </trkpt>
      <trkpt lat="45.19643" lon="6.45885">
        <ele>1377.2</ele>
        <time>2022-07-17T08:19:18Z</time>
      </trkpt>
      <trkpt lat="45.19641" lon="6.45883">
        <ele>1377.4</ele>
        <time>2022-07-17T08:19:19Z</time>
      </trkpt>
      <trkpt lat="45.19638" lon="6.45882">
        <ele>1377.8</ele>
        <time>2022-07-17T08:19:20Z</time>
      </trkpt>
      <trkpt lat="45.19636" lon="6.45881">
        <ele>1378</ele>
        <time>2022-07-17T08:19:21Z</time>
      </trkpt>
      <trkpt lat="45.19633" lon="6.45879">
        <ele>1378.2</ele>
        <time>2022-07-17T08:19:22Z</time>
      </trkpt>
      <trkpt lat="45.19631" lon="6.45878">
        <ele>1378.4</ele>
        <time>2022-07-17T08:19:23Z</time>
      </trkpt>
      <trkpt lat="45.19629" lon="6.45876">
        <ele>1378.6</ele>
        <time>2022-07-17T08:19:24Z</time>
      </trkpt>
      <trkpt lat="45.19626" lon="6.45874">
        <ele>1378.8</ele>
        <time>2022-07-17T08:19:25Z</time>
      </trkpt>
      <trkpt lat="45.19624" lon="6.45872">
        <ele>1379.2</ele>
        <time>2022-07-17T08:19:26Z</time>
      </trkpt>
      <trkpt lat="45.19622" lon="6.4587">
        <ele>1379.4</ele>
        <time>2022-07-17T08:19:27Z</time>
      </trkpt>
      <trkpt lat="45.1962" lon="6.45868">
        <ele>1379.6</ele>
        <time>2022-07-17T08:19:28Z</time>
      </trkpt>
      <trkpt lat="45.19619" lon="6.45866">
        <ele>1379.8</ele>
        <time>2022-07-17T08:19:29Z</time>
      </trkpt>
      <trkpt lat="45.19617" lon="6.45864">
        <ele>1380</ele>
        <time>2022-07-17T08:19:30Z</time>
      </trkpt>
      <trkpt lat="45.19615" lon="6.45863">
        <ele>1380</ele>
        <time>2022-07-17T08:19:31Z</time>
      </trkpt>
      <trkpt lat="45.19612" lon="6.45861">
        <ele>1380.6</ele>
        <time>2022-07-17T08:19:32Z</time>
      </trkpt>
      <trkpt lat="45.1961" lon="6.45858">
        <ele>1380.8</ele>
        <time>2022-07-17T08:19:33Z</time>
      </trkpt>
      <trkpt lat="45.19609" lon="6.45856">
        <ele>1381</ele>
        <time>2022-07-17T08:19:34Z</time>
      </trkpt>
      <trkpt lat="45.19607" lon="6.45853">
        <ele>1381</ele>
        <time>2022-07-17T08:19:35Z</time>
      </trkpt>
      <trkpt lat="45.19605" lon="6.45851">
        <ele>1381.4</ele>
        <time>2022-07-17T08:19:36Z</time>
      </trkpt>
      <trkpt lat="45.19604" lon="6.45849">
        <ele>1381.4</ele>
        <time>2022-07-17T08:19:37Z</time>
      </trkpt>
      <trkpt lat="45.19602" lon="6.45847">
        <ele>1381.8</ele>
        <time>2022-07-17T08:19:38Z</time>
      </trkpt>
      <trkpt lat="45.196" lon="6.45845">
        <ele>1382</ele>
        <time>2022-07-17T08:19:39Z</time>
      </trkpt>
      <trkpt lat="45.19598" lon="6.45844">
        <ele>1382</ele>
        <time>2022-07-17T08:19:40Z</time>
      </trkpt>
      <trkpt lat="45.19596" lon="6.45841">
        <ele>1382.4</ele>
        <time>2022-07-17T08:19:41Z</time>
      </trkpt>
      <trkpt lat="45.19594" lon="6.45839">
        <ele>1382.8</ele>
        <time>2022-07-17T08:19:42Z</time>
      </trkpt>
      <trkpt lat="45.19592" lon="6.45837">
        <ele>1382.8</ele>
        <time>2022-07-17T08:19:43Z</time>
      </trkpt>
      <trkpt lat="45.1959" lon="6.45836">
        <ele>1383.2</ele>
        <time>2022-07-17T08:19:44Z</time>
      </trkpt>
      <trkpt lat="45.19588" lon="6.45833">
        <ele>1383.4</ele>
        <time>2022-07-17T08:19:45Z</time>
      </trkpt>
      <trkpt lat="45.19585" lon="6.4583">
        <ele>1383.8</ele>
        <time>2022-07-17T08:19:46Z</time>
      </trkpt>
      <trkpt lat="45.19582" lon="6.45828">
        <ele>1384</ele>
        <time>2022-07-17T08:19:47Z</time>
      </trkpt>
      <trkpt lat="45.19579" lon="6.45827">
        <ele>1384.2</ele>
        <time>2022-07-17T08:19:48Z</time>
      </trkpt>
      <trkpt lat="45.19576" lon="6.45826">
        <ele>1384.4</ele>
        <time>2022-07-17T08:19:49Z</time>
      </trkpt>
      <trkpt lat="45.19574" lon="6.45826">
        <ele>1384.8</ele>
        <time>2022-07-17T08:19:50Z</time>
      </trkpt>
      <trkpt lat="45.19571" lon="6.45826">
        <ele>1385</ele>
        <time>2022-07-17T08:19:51Z</time>
      </trkpt>
      <trkpt lat="45.19569" lon="6.45826">
        <ele>1385</ele>
        <time>2022-07-17T08:19:52Z</time>
      </trkpt>
      <trkpt lat="45.19566" lon="6.45826">
        <ele>1385.4</ele>
        <time>2022-07-17T08:19:53Z</time>
      </trkpt>
      <trkpt lat="45.19563" lon="6.45826">
        <ele>1385.4</ele>
        <time>2022-07-17T08:19:54Z</time>
      </trkpt>
      <trkpt lat="45.19561" lon="6.45826">
        <ele>1385.8</ele>
        <time>2022-07-17T08:19:55Z</time>
      </trkpt>
      <trkpt lat="45.19558" lon="6.45826">
        <ele>1386</ele>
        <time>2022-07-17T08:19:56Z</time>
      </trkpt>
      <trkpt lat="45.19556" lon="6.45826">
        <ele>1386</ele>
        <time>2022-07-17T08:19:57Z</time>
      </trkpt>
      <trkpt lat="45.19553" lon="6.45825">
        <ele>1386.2</ele>
        <time>2022-07-17T08:19:58Z</time>
      </trkpt>
      <trkpt lat="45.19551" lon="6.45824">
        <ele>1386.6</ele>
        <time>2022-07-17T08:19:59Z</time>
      </trkpt>
      <trkpt lat="45.19548" lon="6.45823">
        <ele>1386.8</ele>
        <time>2022-07-17T08:20:00Z</time>
      </trkpt>
      <trkpt lat="45.19545" lon="6.45822">
        <ele>1386.8</ele>
        <time>2022-07-17T08:20:01Z</time>
      </trkpt>
      <trkpt lat="45.19543" lon="6.45821">
        <ele>1387</ele>
        <time>2022-07-17T08:20:02Z</time>
      </trkpt>
      <trkpt lat="45.1954" lon="6.45819">
        <ele>1387</ele>
        <time>2022-07-17T08:20:03Z</time>
      </trkpt>
      <trkpt lat="45.19538" lon="6.45819">
        <ele>1387.4</ele>
        <time>2022-07-17T08:20:04Z</time>
      </trkpt>
      <trkpt lat="45.19535" lon="6.45818">
        <ele>1387.4</ele>
        <time>2022-07-17T08:20:05Z</time>
      </trkpt>
      <trkpt lat="45.19532" lon="6.45817">
        <ele>1387.8</ele>
        <time>2022-07-17T08:20:06Z</time>
      </trkpt>
      <trkpt lat="45.1953" lon="6.45817">
        <ele>1387.8</ele>
        <time>2022-07-17T08:20:07Z</time>
      </trkpt>
      <trkpt lat="45.19527" lon="6.45816">
        <ele>1388.2</ele>
        <time>2022-07-17T08:20:08Z</time>
      </trkpt>
      <trkpt lat="45.19525" lon="6.45816">
        <ele>1388.2</ele>
        <time>2022-07-17T08:20:09Z</time>
      </trkpt>
      <trkpt lat="45.19522" lon="6.45815">
        <ele>1388.4</ele>
        <time>2022-07-17T08:20:10Z</time>
      </trkpt>
      <trkpt lat="45.1952" lon="6.45815">
        <ele>1388.4</ele>
        <time>2022-07-17T08:20:11Z</time>
      </trkpt>
      <trkpt lat="45.19517" lon="6.45815">
        <ele>1388.8</ele>
        <time>2022-07-17T08:20:12Z</time>
      </trkpt>
      <trkpt lat="45.19515" lon="6.45815">
        <ele>1388.8</ele>
        <time>2022-07-17T08:20:13Z</time>
      </trkpt>
      <trkpt lat="45.19512" lon="6.45816">
        <ele>1389</ele>
        <time>2022-07-17T08:20:14Z</time>
      </trkpt>
      <trkpt lat="45.1951" lon="6.45816">
        <ele>1389</ele>
        <time>2022-07-17T08:20:15Z</time>
      </trkpt>
      <trkpt lat="45.19507" lon="6.45816">
        <ele>1389.4</ele>
        <time>2022-07-17T08:20:16Z</time>
      </trkpt>
      <trkpt lat="45.19504" lon="6.45816">
        <ele>1389.4</ele>
        <time>2022-07-17T08:20:17Z</time>
      </trkpt>
      <trkpt lat="45.19502" lon="6.45816">
        <ele>1389.8</ele>
        <time>2022-07-17T08:20:18Z</time>
      </trkpt>
      <trkpt lat="45.19499" lon="6.45816">
        <ele>1389.8</ele>
        <time>2022-07-17T08:20:19Z</time>
      </trkpt>
      <trkpt lat="45.19496" lon="6.45816">
        <ele>1390.2</ele>
        <time>2022-07-17T08:20:20Z</time>
      </trkpt>
      <trkpt lat="45.19494" lon="6.45816">
        <ele>1390.2</ele>
        <time>2022-07-17T08:20:21Z</time>
      </trkpt>
      <trkpt lat="45.19492" lon="6.45816">
        <ele>1390.6</ele>
        <time>2022-07-17T08:20:22Z</time>
      </trkpt>
      <trkpt lat="45.19489" lon="6.45817">
        <ele>1390.8</ele>
        <time>2022-07-17T08:20:23Z</time>
      </trkpt>
      <trkpt lat="45.19487" lon="6.45816">
        <ele>1391</ele>
        <time>2022-07-17T08:20:24Z</time>
      </trkpt>
      <trkpt lat="45.19485" lon="6.45816">
        <ele>1391</ele>
        <time>2022-07-17T08:20:25Z</time>
      </trkpt>
      <trkpt lat="45.19483" lon="6.45816">
        <ele>1391.4</ele>
        <time>2022-07-17T08:20:26Z</time>
      </trkpt>
      <trkpt lat="45.19481" lon="6.45815">
        <ele>1391.4</ele>
        <time>2022-07-17T08:20:27Z</time>
      </trkpt>
      <trkpt lat="45.19479" lon="6.45814">
        <ele>1391.6</ele>
        <time>2022-07-17T08:20:28Z</time>
      </trkpt>
      <trkpt lat="45.19478" lon="6.45813">
        <ele>1391.6</ele>
        <time>2022-07-17T08:20:29Z</time>
      </trkpt>
      <trkpt lat="45.19476" lon="6.45812">
        <ele>1392</ele>
        <time>2022-07-17T08:20:30Z</time>
      </trkpt>
      <trkpt lat="45.19475" lon="6.45808">
        <ele>1392.4</ele>
        <time>2022-07-17T08:20:31Z</time>
      </trkpt>
      <trkpt lat="45.19473" lon="6.45805">
        <ele>1392.6</ele>
        <time>2022-07-17T08:20:32Z</time>
      </trkpt>
      <trkpt lat="45.19472" lon="6.45801">
        <ele>1392.6</ele>
        <time>2022-07-17T08:20:33Z</time>
      </trkpt>
      <trkpt lat="45.19472" lon="6.45797">
        <ele>1392.8</ele>
        <time>2022-07-17T08:20:34Z</time>
      </trkpt>
      <trkpt lat="45.19472" lon="6.45794">
        <ele>1392.8</ele>
        <time>2022-07-17T08:20:35Z</time>
      </trkpt>
      <trkpt lat="45.19472" lon="6.4579">
        <ele>1393.2</ele>
        <time>2022-07-17T08:20:36Z</time>
      </trkpt>
      <trkpt lat="45.19473" lon="6.45787">
        <ele>1393.2</ele>
        <time>2022-07-17T08:20:37Z</time>
      </trkpt>
      <trkpt lat="45.19473" lon="6.45783">
        <ele>1393.4</ele>
        <time>2022-07-17T08:20:38Z</time>
      </trkpt>
      <trkpt lat="45.19474" lon="6.4578">
        <ele>1393.4</ele>
        <time>2022-07-17T08:20:39Z</time>
      </trkpt>
      <trkpt lat="45.19474" lon="6.45776">
        <ele>1393.8</ele>
        <time>2022-07-17T08:20:40Z</time>
      </trkpt>
      <trkpt lat="45.19475" lon="6.45772">
        <ele>1393.8</ele>
        <time>2022-07-17T08:20:41Z</time>
      </trkpt>
      <trkpt lat="45.19476" lon="6.45768">
        <ele>1394.2</ele>
        <time>2022-07-17T08:20:42Z</time>
      </trkpt>
      <trkpt lat="45.19476" lon="6.45764">
        <ele>1394.2</ele>
        <time>2022-07-17T08:20:43Z</time>
      </trkpt>
      <trkpt lat="45.19477" lon="6.45761">
        <ele>1394.6</ele>
        <time>2022-07-17T08:20:44Z</time>
      </trkpt>
      <trkpt lat="45.19478" lon="6.45758">
        <ele>1394.8</ele>
        <time>2022-07-17T08:20:45Z</time>
      </trkpt>
      <trkpt lat="45.19478" lon="6.45754">
        <ele>1395</ele>
        <time>2022-07-17T08:20:46Z</time>
      </trkpt>
      <trkpt lat="45.19479" lon="6.4575">
        <ele>1395</ele>
        <time>2022-07-17T08:20:47Z</time>
      </trkpt>
      <trkpt lat="45.19479" lon="6.45746">
        <ele>1395.2</ele>
        <time>2022-07-17T08:20:48Z</time>
      </trkpt>
      <trkpt lat="45.1948" lon="6.45743">
        <ele>1395.6</ele>
        <time>2022-07-17T08:20:49Z</time>
      </trkpt>
      <trkpt lat="45.1948" lon="6.45739">
        <ele>1395.6</ele>
        <time>2022-07-17T08:20:50Z</time>
      </trkpt>
      <trkpt lat="45.1948" lon="6.45735">
        <ele>1396</ele>
        <time>2022-07-17T08:20:51Z</time>
      </trkpt>
      <trkpt lat="45.19481" lon="6.45731">
        <ele>1396</ele>
        <time>2022-07-17T08:20:52Z</time>
      </trkpt>
      <trkpt lat="45.19481" lon="6.45726">
        <ele>1396.4</ele>
        <time>2022-07-17T08:20:54Z</time>
      </trkpt>
      <trkpt lat="45.19482" lon="6.45722">
        <ele>1396.4</ele>
        <time>2022-07-17T08:20:55Z</time>
      </trkpt>
      <trkpt lat="45.19483" lon="6.45719">
        <ele>1396.8</ele>
        <time>2022-07-17T08:20:56Z</time>
      </trkpt>
      <trkpt lat="45.19483" lon="6.45715">
        <ele>1396.8</ele>
        <time>2022-07-17T08:20:57Z</time>
      </trkpt>
      <trkpt lat="45.19484" lon="6.45711">
        <ele>1397.2</ele>
        <time>2022-07-17T08:20:58Z</time>
      </trkpt>
      <trkpt lat="45.19484" lon="6.45708">
        <ele>1397.4</ele>
        <time>2022-07-17T08:20:59Z</time>
      </trkpt>
      <trkpt lat="45.19484" lon="6.45705">
        <ele>1397.4</ele>
        <time>2022-07-17T08:21:00Z</time>
      </trkpt>
      <trkpt lat="45.19483" lon="6.45701">
        <ele>1397.8</ele>
        <time>2022-07-17T08:21:01Z</time>
      </trkpt>
      <trkpt lat="45.19482" lon="6.45697">
        <ele>1397.8</ele>
        <time>2022-07-17T08:21:02Z</time>
      </trkpt>
      <trkpt lat="45.19481" lon="6.45694">
        <ele>1398</ele>
        <time>2022-07-17T08:21:03Z</time>
      </trkpt>
      <trkpt lat="45.19481" lon="6.4569">
        <ele>1398</ele>
        <time>2022-07-17T08:21:04Z</time>
      </trkpt>
      <trkpt lat="45.1948" lon="6.45687">
        <ele>1398.4</ele>
        <time>2022-07-17T08:21:05Z</time>
      </trkpt>
      <trkpt lat="45.19479" lon="6.45683">
        <ele>1398.4</ele>
        <time>2022-07-17T08:21:06Z</time>
      </trkpt>
      <trkpt lat="45.19478" lon="6.4568">
        <ele>1398.8</ele>
        <time>2022-07-17T08:21:07Z</time>
      </trkpt>
      <trkpt lat="45.19477" lon="6.45676">
        <ele>1399</ele>
        <time>2022-07-17T08:21:08Z</time>
      </trkpt>
      <trkpt lat="45.19476" lon="6.45673">
        <ele>1399</ele>
        <time>2022-07-17T08:21:09Z</time>
      </trkpt>
      <trkpt lat="45.19475" lon="6.4567">
        <ele>1399.4</ele>
        <time>2022-07-17T08:21:10Z</time>
      </trkpt>
      <trkpt lat="45.19474" lon="6.45666">
        <ele>1399.4</ele>
        <time>2022-07-17T08:21:11Z</time>
      </trkpt>
      <trkpt lat="45.19472" lon="6.45663">
        <ele>1399.8</ele>
        <time>2022-07-17T08:21:12Z</time>
      </trkpt>
      <trkpt lat="45.19471" lon="6.4566">
        <ele>1399.8</ele>
        <time>2022-07-17T08:21:13Z</time>
      </trkpt>
      <trkpt lat="45.19469" lon="6.45658">
        <ele>1400.2</ele>
        <time>2022-07-17T08:21:14Z</time>
      </trkpt>
      <trkpt lat="45.19468" lon="6.45655">
        <ele>1400.2</ele>
        <time>2022-07-17T08:21:15Z</time>
      </trkpt>
      <trkpt lat="45.19466" lon="6.45652">
        <ele>1400.6</ele>
        <time>2022-07-17T08:21:16Z</time>
      </trkpt>
      <trkpt lat="45.19465" lon="6.45649">
        <ele>1400.6</ele>
        <time>2022-07-17T08:21:17Z</time>
      </trkpt>
      <trkpt lat="45.19463" lon="6.45646">
        <ele>1400.8</ele>
        <time>2022-07-17T08:21:18Z</time>
      </trkpt>
      <trkpt lat="45.19462" lon="6.45643">
        <ele>1401</ele>
        <time>2022-07-17T08:21:19Z</time>
      </trkpt>
      <trkpt lat="45.1946" lon="6.45641">
        <ele>1401.2</ele>
        <time>2022-07-17T08:21:20Z</time>
      </trkpt>
      <trkpt lat="45.19459" lon="6.45638">
        <ele>1401.2</ele>
        <time>2022-07-17T08:21:21Z</time>
      </trkpt>
      <trkpt lat="45.19457" lon="6.45636">
        <ele>1401.6</ele>
        <time>2022-07-17T08:21:22Z</time>
      </trkpt>
      <trkpt lat="45.19456" lon="6.45634">
        <ele>1401.6</ele>
        <time>2022-07-17T08:21:23Z</time>
      </trkpt>
      <trkpt lat="45.19455" lon="6.4563">
        <ele>1402</ele>
        <time>2022-07-17T08:21:24Z</time>
      </trkpt>
      <trkpt lat="45.19454" lon="6.45626">
        <ele>1402.4</ele>
        <time>2022-07-17T08:21:25Z</time>
      </trkpt>
      <trkpt lat="45.19453" lon="6.45622">
        <ele>1402.4</ele>
        <time>2022-07-17T08:21:26Z</time>
      </trkpt>
      <trkpt lat="45.19453" lon="6.45619">
        <ele>1402.6</ele>
        <time>2022-07-17T08:21:27Z</time>
      </trkpt>
      <trkpt lat="45.19453" lon="6.45615">
        <ele>1402.6</ele>
        <time>2022-07-17T08:21:28Z</time>
      </trkpt>
      <trkpt lat="45.19453" lon="6.45612">
        <ele>1402.8</ele>
        <time>2022-07-17T08:21:29Z</time>
      </trkpt>
      <trkpt lat="45.19453" lon="6.45608">
        <ele>1402.8</ele>
        <time>2022-07-17T08:21:30Z</time>
      </trkpt>
      <trkpt lat="45.19454" lon="6.45605">
        <ele>1403.2</ele>
        <time>2022-07-17T08:21:31Z</time>
      </trkpt>
      <trkpt lat="45.19455" lon="6.45601">
        <ele>1403.2</ele>
        <time>2022-07-17T08:21:32Z</time>
      </trkpt>
      <trkpt lat="45.19455" lon="6.45597">
        <ele>1403.6</ele>
        <time>2022-07-17T08:21:33Z</time>
      </trkpt>
      <trkpt lat="45.19456" lon="6.45594">
        <ele>1403.6</ele>
        <time>2022-07-17T08:21:34Z</time>
      </trkpt>
      <trkpt lat="45.19457" lon="6.4559">
        <ele>1403.8</ele>
        <time>2022-07-17T08:21:35Z</time>
      </trkpt>
      <trkpt lat="45.19458" lon="6.45586">
        <ele>1404.2</ele>
        <time>2022-07-17T08:21:36Z</time>
      </trkpt>
      <trkpt lat="45.19459" lon="6.45583">
        <ele>1404.2</ele>
        <time>2022-07-17T08:21:37Z</time>
      </trkpt>
      <trkpt lat="45.1946" lon="6.4558">
        <ele>1404.4</ele>
        <time>2022-07-17T08:21:38Z</time>
      </trkpt>
      <trkpt lat="45.19461" lon="6.45576">
        <ele>1404.8</ele>
        <time>2022-07-17T08:21:39Z</time>
      </trkpt>
      <trkpt lat="45.19462" lon="6.45572">
        <ele>1404.8</ele>
        <time>2022-07-17T08:21:40Z</time>
      </trkpt>
      <trkpt lat="45.19463" lon="6.45568">
        <ele>1405</ele>
        <time>2022-07-17T08:21:41Z</time>
      </trkpt>
      <trkpt lat="45.19464" lon="6.4556">
        <ele>1405.4</ele>
        <time>2022-07-17T08:21:42Z</time>
      </trkpt>
      <trkpt lat="45.19465" lon="6.45556">
        <ele>1405.6</ele>
        <time>2022-07-17T08:21:43Z</time>
      </trkpt>
      <trkpt lat="45.19465" lon="6.45552">
        <ele>1405.6</ele>
        <time>2022-07-17T08:21:44Z</time>
      </trkpt>
      <trkpt lat="45.19465" lon="6.45548">
        <ele>1406</ele>
        <time>2022-07-17T08:21:45Z</time>
      </trkpt>
      <trkpt lat="45.19465" lon="6.45544">
        <ele>1406.2</ele>
        <time>2022-07-17T08:21:46Z</time>
      </trkpt>
      <trkpt lat="45.19464" lon="6.4554">
        <ele>1406.2</ele>
        <time>2022-07-17T08:21:47Z</time>
      </trkpt>
      <trkpt lat="45.19464" lon="6.45536">
        <ele>1406.6</ele>
        <time>2022-07-17T08:21:48Z</time>
      </trkpt>
      <trkpt lat="45.19462" lon="6.45532">
        <ele>1406.6</ele>
        <time>2022-07-17T08:21:49Z</time>
      </trkpt>
      <trkpt lat="45.19461" lon="6.45527">
        <ele>1407</ele>
        <time>2022-07-17T08:21:50Z</time>
      </trkpt>
      <trkpt lat="45.19461" lon="6.45524">
        <ele>1407.2</ele>
        <time>2022-07-17T08:21:51Z</time>
      </trkpt>
      <trkpt lat="45.1946" lon="6.45521">
        <ele>1407.2</ele>
        <time>2022-07-17T08:21:52Z</time>
      </trkpt>
      <trkpt lat="45.19459" lon="6.45518">
        <ele>1407.6</ele>
        <time>2022-07-17T08:21:53Z</time>
      </trkpt>
      <trkpt lat="45.19458" lon="6.45514">
        <ele>1407.6</ele>
        <time>2022-07-17T08:21:54Z</time>
      </trkpt>
      <trkpt lat="45.19457" lon="6.4551">
        <ele>1407.8</ele>
        <time>2022-07-17T08:21:55Z</time>
      </trkpt>
      <trkpt lat="45.19456" lon="6.45506">
        <ele>1407.8</ele>
        <time>2022-07-17T08:21:56Z</time>
      </trkpt>
      <trkpt lat="45.19455" lon="6.45503">
        <ele>1408.2</ele>
        <time>2022-07-17T08:21:57Z</time>
      </trkpt>
      <trkpt lat="45.19454" lon="6.455">
        <ele>1408.2</ele>
        <time>2022-07-17T08:21:58Z</time>
      </trkpt>
      <trkpt lat="45.19453" lon="6.45496">
        <ele>1408.6</ele>
        <time>2022-07-17T08:21:59Z</time>
      </trkpt>
      <trkpt lat="45.19452" lon="6.45492">
        <ele>1408.6</ele>
        <time>2022-07-17T08:22:00Z</time>
      </trkpt>
      <trkpt lat="45.19451" lon="6.45488">
        <ele>1409</ele>
        <time>2022-07-17T08:22:01Z</time>
      </trkpt>
      <trkpt lat="45.1945" lon="6.45485">
        <ele>1409</ele>
        <time>2022-07-17T08:22:02Z</time>
      </trkpt>
      <trkpt lat="45.19449" lon="6.45481">
        <ele>1409.2</ele>
        <time>2022-07-17T08:22:03Z</time>
      </trkpt>
      <trkpt lat="45.19448" lon="6.45478">
        <ele>1409.2</ele>
        <time>2022-07-17T08:22:04Z</time>
      </trkpt>
      <trkpt lat="45.19447" lon="6.45475">
        <ele>1409.6</ele>
        <time>2022-07-17T08:22:05Z</time>
      </trkpt>
      <trkpt lat="45.19446" lon="6.45472">
        <ele>1409.8</ele>
        <time>2022-07-17T08:22:06Z</time>
      </trkpt>
      <trkpt lat="45.19445" lon="6.45469">
        <ele>1409.8</ele>
        <time>2022-07-17T08:22:07Z</time>
      </trkpt>
      <trkpt lat="45.19444" lon="6.45466">
        <ele>1410.2</ele>
        <time>2022-07-17T08:22:08Z</time>
      </trkpt>
      <trkpt lat="45.19443" lon="6.45462">
        <ele>1410.2</ele>
        <time>2022-07-17T08:22:09Z</time>
      </trkpt>
      <trkpt lat="45.19442" lon="6.45459">
        <ele>1410.6</ele>
        <time>2022-07-17T08:22:10Z</time>
      </trkpt>
      <trkpt lat="45.19441" lon="6.45457">
        <ele>1410.8</ele>
        <time>2022-07-17T08:22:11Z</time>
      </trkpt>
      <trkpt lat="45.19441" lon="6.45455">
        <ele>1411.2</ele>
        <time>2022-07-17T08:22:12Z</time>
      </trkpt>
      <trkpt lat="45.1944" lon="6.45452">
        <ele>1411.4</ele>
        <time>2022-07-17T08:22:13Z</time>
      </trkpt>
      <trkpt lat="45.19438" lon="6.4545">
        <ele>1411.6</ele>
        <time>2022-07-17T08:22:14Z</time>
      </trkpt>
      <trkpt lat="45.19437" lon="6.45448">
        <ele>1411.8</ele>
        <time>2022-07-17T08:22:15Z</time>
      </trkpt>
      <trkpt lat="45.19436" lon="6.45445">
        <ele>1412</ele>
        <time>2022-07-17T08:22:16Z</time>
      </trkpt>
      <trkpt lat="45.19434" lon="6.45442">
        <ele>1412</ele>
        <time>2022-07-17T08:22:17Z</time>
      </trkpt>
      <trkpt lat="45.19432" lon="6.4544">
        <ele>1412.4</ele>
        <time>2022-07-17T08:22:18Z</time>
      </trkpt>
      <trkpt lat="45.19431" lon="6.45438">
        <ele>1412.4</ele>
        <time>2022-07-17T08:22:19Z</time>
      </trkpt>
      <trkpt lat="45.19429" lon="6.45435">
        <ele>1412.8</ele>
        <time>2022-07-17T08:22:20Z</time>
      </trkpt>
      <trkpt lat="45.19427" lon="6.45432">
        <ele>1413</ele>
        <time>2022-07-17T08:22:21Z</time>
      </trkpt>
      <trkpt lat="45.19425" lon="6.4543">
        <ele>1413.2</ele>
        <time>2022-07-17T08:22:22Z</time>
      </trkpt>
      <trkpt lat="45.19423" lon="6.45426">
        <ele>1413.4</ele>
        <time>2022-07-17T08:22:23Z</time>
      </trkpt>
      <trkpt lat="45.19421" lon="6.45424">
        <ele>1413.4</ele>
        <time>2022-07-17T08:22:24Z</time>
      </trkpt>
      <trkpt lat="45.1942" lon="6.45421">
        <ele>1413.8</ele>
        <time>2022-07-17T08:22:25Z</time>
      </trkpt>
      <trkpt lat="45.19418" lon="6.45419">
        <ele>1413.8</ele>
        <time>2022-07-17T08:22:26Z</time>
      </trkpt>
      <trkpt lat="45.19416" lon="6.45416">
        <ele>1414</ele>
        <time>2022-07-17T08:22:27Z</time>
      </trkpt>
      <trkpt lat="45.19415" lon="6.45413">
        <ele>1414</ele>
        <time>2022-07-17T08:22:28Z</time>
      </trkpt>
      <trkpt lat="45.19413" lon="6.4541">
        <ele>1414.4</ele>
        <time>2022-07-17T08:22:29Z</time>
      </trkpt>
      <trkpt lat="45.19411" lon="6.45407">
        <ele>1414.8</ele>
        <time>2022-07-17T08:22:30Z</time>
      </trkpt>
      <trkpt lat="45.19409" lon="6.45404">
        <ele>1414.8</ele>
        <time>2022-07-17T08:22:31Z</time>
      </trkpt>
      <trkpt lat="45.19408" lon="6.45401">
        <ele>1415</ele>
        <time>2022-07-17T08:22:32Z</time>
      </trkpt>
      <trkpt lat="45.19406" lon="6.45397">
        <ele>1415.4</ele>
        <time>2022-07-17T08:22:33Z</time>
      </trkpt>
      <trkpt lat="45.19404" lon="6.45394">
        <ele>1415.4</ele>
        <time>2022-07-17T08:22:34Z</time>
      </trkpt>
      <trkpt lat="45.19402" lon="6.45392">
        <ele>1415.6</ele>
        <time>2022-07-17T08:22:35Z</time>
      </trkpt>
      <trkpt lat="45.194" lon="6.45388">
        <ele>1415.6</ele>
        <time>2022-07-17T08:22:36Z</time>
      </trkpt>
      <trkpt lat="45.19398" lon="6.45385">
        <ele>1416</ele>
        <time>2022-07-17T08:22:37Z</time>
      </trkpt>
      <trkpt lat="45.19396" lon="6.45381">
        <ele>1416.2</ele>
        <time>2022-07-17T08:22:38Z</time>
      </trkpt>
      <trkpt lat="45.19395" lon="6.45378">
        <ele>1416.6</ele>
        <time>2022-07-17T08:22:39Z</time>
      </trkpt>
      <trkpt lat="45.19394" lon="6.45375">
        <ele>1416.6</ele>
        <time>2022-07-17T08:22:40Z</time>
      </trkpt>
      <trkpt lat="45.19393" lon="6.45371">
        <ele>1416.8</ele>
        <time>2022-07-17T08:22:41Z</time>
      </trkpt>
      <trkpt lat="45.19392" lon="6.45368">
        <ele>1417</ele>
        <time>2022-07-17T08:22:42Z</time>
      </trkpt>
      <trkpt lat="45.19391" lon="6.45366">
        <ele>1417.4</ele>
        <time>2022-07-17T08:22:43Z</time>
      </trkpt>
      <trkpt lat="45.19391" lon="6.45363">
        <ele>1417.6</ele>
        <time>2022-07-17T08:22:44Z</time>
      </trkpt>
      <trkpt lat="45.1939" lon="6.45359">
        <ele>1417.6</ele>
        <time>2022-07-17T08:22:45Z</time>
      </trkpt>
      <trkpt lat="45.19389" lon="6.45355">
        <ele>1417.8</ele>
        <time>2022-07-17T08:22:46Z</time>
      </trkpt>
      <trkpt lat="45.19388" lon="6.4535">
        <ele>1417.8</ele>
        <time>2022-07-17T08:22:47Z</time>
      </trkpt>
      <trkpt lat="45.19387" lon="6.45347">
        <ele>1418</ele>
        <time>2022-07-17T08:22:48Z</time>
      </trkpt>
      <trkpt lat="45.19386" lon="6.45343">
        <ele>1418</ele>
        <time>2022-07-17T08:22:49Z</time>
      </trkpt>
      <trkpt lat="45.19385" lon="6.4534">
        <ele>1418.4</ele>
        <time>2022-07-17T08:22:50Z</time>
      </trkpt>
      <trkpt lat="45.19383" lon="6.45337">
        <ele>1418.4</ele>
        <time>2022-07-17T08:22:51Z</time>
      </trkpt>
      <trkpt lat="45.19382" lon="6.45334">
        <ele>1418.6</ele>
        <time>2022-07-17T08:22:52Z</time>
      </trkpt>
      <trkpt lat="45.1938" lon="6.45332">
        <ele>1418.6</ele>
        <time>2022-07-17T08:22:53Z</time>
      </trkpt>
      <trkpt lat="45.19378" lon="6.45329">
        <ele>1419</ele>
        <time>2022-07-17T08:22:54Z</time>
      </trkpt>
      <trkpt lat="45.19376" lon="6.45327">
        <ele>1419</ele>
        <time>2022-07-17T08:22:55Z</time>
      </trkpt>
      <trkpt lat="45.19374" lon="6.45324">
        <ele>1419.2</ele>
        <time>2022-07-17T08:22:56Z</time>
      </trkpt>
      <trkpt lat="45.19372" lon="6.45321">
        <ele>1419.2</ele>
        <time>2022-07-17T08:22:57Z</time>
      </trkpt>
      <trkpt lat="45.1937" lon="6.45318">
        <ele>1419.4</ele>
        <time>2022-07-17T08:22:58Z</time>
      </trkpt>
      <trkpt lat="45.19368" lon="6.45315">
        <ele>1419.4</ele>
        <time>2022-07-17T08:22:59Z</time>
      </trkpt>
      <trkpt lat="45.19367" lon="6.45312">
        <ele>1419.6</ele>
        <time>2022-07-17T08:23:00Z</time>
      </trkpt>
      <trkpt lat="45.19365" lon="6.45309">
        <ele>1419.6</ele>
        <time>2022-07-17T08:23:01Z</time>
      </trkpt>
      <trkpt lat="45.19363" lon="6.45306">
        <ele>1420</ele>
        <time>2022-07-17T08:23:02Z</time>
      </trkpt>
      <trkpt lat="45.19363" lon="6.45303">
        <ele>1420.2</ele>
        <time>2022-07-17T08:23:03Z</time>
      </trkpt>
      <trkpt lat="45.19361" lon="6.45299">
        <ele>1420.2</ele>
        <time>2022-07-17T08:23:04Z</time>
      </trkpt>
      <trkpt lat="45.1936" lon="6.45296">
        <ele>1420.6</ele>
        <time>2022-07-17T08:23:05Z</time>
      </trkpt>
      <trkpt lat="45.19359" lon="6.45292">
        <ele>1420.6</ele>
        <time>2022-07-17T08:23:06Z</time>
      </trkpt>
      <trkpt lat="45.19357" lon="6.45288">
        <ele>1420.8</ele>
        <time>2022-07-17T08:23:07Z</time>
      </trkpt>
      <trkpt lat="45.19356" lon="6.45284">
        <ele>1421</ele>
        <time>2022-07-17T08:23:08Z</time>
      </trkpt>
      <trkpt lat="45.19356" lon="6.45281">
        <ele>1421</ele>
        <time>2022-07-17T08:23:09Z</time>
      </trkpt>
      <trkpt lat="45.19356" lon="6.45277">
        <ele>1421.4</ele>
        <time>2022-07-17T08:23:10Z</time>
      </trkpt>
      <trkpt lat="45.19355" lon="6.45274">
        <ele>1421.4</ele>
        <time>2022-07-17T08:23:11Z</time>
      </trkpt>
      <trkpt lat="45.19355" lon="6.4527">
        <ele>1421.8</ele>
        <time>2022-07-17T08:23:12Z</time>
      </trkpt>
      <trkpt lat="45.19355" lon="6.45266">
        <ele>1421.8</ele>
        <time>2022-07-17T08:23:13Z</time>
      </trkpt>
      <trkpt lat="45.19354" lon="6.45263">
        <ele>1422.2</ele>
        <time>2022-07-17T08:23:14Z</time>
      </trkpt>
      <trkpt lat="45.19354" lon="6.4526">
        <ele>1422.2</ele>
        <time>2022-07-17T08:23:15Z</time>
      </trkpt>
      <trkpt lat="45.19353" lon="6.45257">
        <ele>1422.4</ele>
        <time>2022-07-17T08:23:16Z</time>
      </trkpt>
      <trkpt lat="45.19353" lon="6.45254">
        <ele>1422.6</ele>
        <time>2022-07-17T08:23:17Z</time>
      </trkpt>
      <trkpt lat="45.19353" lon="6.4525">
        <ele>1423</ele>
        <time>2022-07-17T08:23:18Z</time>
      </trkpt>
      <trkpt lat="45.19353" lon="6.45247">
        <ele>1423.2</ele>
        <time>2022-07-17T08:23:19Z</time>
      </trkpt>
      <trkpt lat="45.19353" lon="6.45243">
        <ele>1423.4</ele>
        <time>2022-07-17T08:23:20Z</time>
      </trkpt>
      <trkpt lat="45.19353" lon="6.45239">
        <ele>1423.8</ele>
        <time>2022-07-17T08:23:21Z</time>
      </trkpt>
      <trkpt lat="45.19354" lon="6.45235">
        <ele>1424</ele>
        <time>2022-07-17T08:23:22Z</time>
      </trkpt>
      <trkpt lat="45.19354" lon="6.45231">
        <ele>1424.2</ele>
        <time>2022-07-17T08:23:23Z</time>
      </trkpt>
      <trkpt lat="45.19355" lon="6.45227">
        <ele>1424.4</ele>
        <time>2022-07-17T08:23:24Z</time>
      </trkpt>
      <trkpt lat="45.19356" lon="6.45224">
        <ele>1424.4</ele>
        <time>2022-07-17T08:23:25Z</time>
      </trkpt>
      <trkpt lat="45.19356" lon="6.4522">
        <ele>1424.8</ele>
        <time>2022-07-17T08:23:26Z</time>
      </trkpt>
      <trkpt lat="45.19357" lon="6.45216">
        <ele>1424.8</ele>
        <time>2022-07-17T08:23:27Z</time>
      </trkpt>
      <trkpt lat="45.19358" lon="6.45213">
        <ele>1425.2</ele>
        <time>2022-07-17T08:23:28Z</time>
      </trkpt>
      <trkpt lat="45.19359" lon="6.45209">
        <ele>1425.2</ele>
        <time>2022-07-17T08:23:29Z</time>
      </trkpt>
      <trkpt lat="45.1936" lon="6.45206">
        <ele>1425.6</ele>
        <time>2022-07-17T08:23:30Z</time>
      </trkpt>
      <trkpt lat="45.19361" lon="6.45202">
        <ele>1425.6</ele>
        <time>2022-07-17T08:23:31Z</time>
      </trkpt>
      <trkpt lat="45.19362" lon="6.452">
        <ele>1425.8</ele>
        <time>2022-07-17T08:23:32Z</time>
      </trkpt>
      <trkpt lat="45.19363" lon="6.45197">
        <ele>1425.8</ele>
        <time>2022-07-17T08:23:33Z</time>
      </trkpt>
      <trkpt lat="45.19364" lon="6.45194">
        <ele>1426.2</ele>
        <time>2022-07-17T08:23:34Z</time>
      </trkpt>
      <trkpt lat="45.19365" lon="6.45191">
        <ele>1426.4</ele>
        <time>2022-07-17T08:23:35Z</time>
      </trkpt>
      <trkpt lat="45.19366" lon="6.45188">
        <ele>1426.4</ele>
        <time>2022-07-17T08:23:36Z</time>
      </trkpt>
      <trkpt lat="45.19368" lon="6.45185">
        <ele>1426.8</ele>
        <time>2022-07-17T08:23:37Z</time>
      </trkpt>
      <trkpt lat="45.19369" lon="6.45182">
        <ele>1426.8</ele>
        <time>2022-07-17T08:23:38Z</time>
      </trkpt>
      <trkpt lat="45.1937" lon="6.45179">
        <ele>1427.2</ele>
        <time>2022-07-17T08:23:39Z</time>
      </trkpt>
      <trkpt lat="45.19371" lon="6.45176">
        <ele>1427.2</ele>
        <time>2022-07-17T08:23:40Z</time>
      </trkpt>
      <trkpt lat="45.19372" lon="6.45173">
        <ele>1427.6</ele>
        <time>2022-07-17T08:23:41Z</time>
      </trkpt>
      <trkpt lat="45.19374" lon="6.4517">
        <ele>1427.6</ele>
        <time>2022-07-17T08:23:42Z</time>
      </trkpt>
      <trkpt lat="45.19375" lon="6.45167">
        <ele>1428</ele>
        <time>2022-07-17T08:23:43Z</time>
      </trkpt>
      <trkpt lat="45.19376" lon="6.45164">
        <ele>1428</ele>
        <time>2022-07-17T08:23:44Z</time>
      </trkpt>
      <trkpt lat="45.19378" lon="6.4516">
        <ele>1428.2</ele>
        <time>2022-07-17T08:23:45Z</time>
      </trkpt>
      <trkpt lat="45.19379" lon="6.45157">
        <ele>1428.2</ele>
        <time>2022-07-17T08:23:46Z</time>
      </trkpt>
      <trkpt lat="45.19381" lon="6.45154">
        <ele>1428.6</ele>
        <time>2022-07-17T08:23:47Z</time>
      </trkpt>
      <trkpt lat="45.19383" lon="6.45151">
        <ele>1428.6</ele>
        <time>2022-07-17T08:23:48Z</time>
      </trkpt>
      <trkpt lat="45.19384" lon="6.45148">
        <ele>1429</ele>
        <time>2022-07-17T08:23:49Z</time>
      </trkpt>
      <trkpt lat="45.19386" lon="6.45145">
        <ele>1429</ele>
        <time>2022-07-17T08:23:50Z</time>
      </trkpt>
      <trkpt lat="45.19388" lon="6.45142">
        <ele>1429.4</ele>
        <time>2022-07-17T08:23:51Z</time>
      </trkpt>
      <trkpt lat="45.19389" lon="6.45138">
        <ele>1429.6</ele>
        <time>2022-07-17T08:23:52Z</time>
      </trkpt>
      <trkpt lat="45.1939" lon="6.45135">
        <ele>1429.8</ele>
        <time>2022-07-17T08:23:53Z</time>
      </trkpt>
      <trkpt lat="45.19391" lon="6.45131">
        <ele>1430</ele>
        <time>2022-07-17T08:23:54Z</time>
      </trkpt>
      <trkpt lat="45.19393" lon="6.45128">
        <ele>1430.2</ele>
        <time>2022-07-17T08:23:55Z</time>
      </trkpt>
      <trkpt lat="45.19394" lon="6.45124">
        <ele>1430.6</ele>
        <time>2022-07-17T08:23:56Z</time>
      </trkpt>
      <trkpt lat="45.19396" lon="6.45121">
        <ele>1430.6</ele>
        <time>2022-07-17T08:23:57Z</time>
      </trkpt>
      <trkpt lat="45.19397" lon="6.45118">
        <ele>1431</ele>
        <time>2022-07-17T08:23:58Z</time>
      </trkpt>
      <trkpt lat="45.19399" lon="6.45115">
        <ele>1431</ele>
        <time>2022-07-17T08:23:59Z</time>
      </trkpt>
      <trkpt lat="45.194" lon="6.45112">
        <ele>1431.4</ele>
        <time>2022-07-17T08:24:00Z</time>
      </trkpt>
      <trkpt lat="45.19402" lon="6.45109">
        <ele>1431.6</ele>
        <time>2022-07-17T08:24:01Z</time>
      </trkpt>
      <trkpt lat="45.19403" lon="6.45105">
        <ele>1431.8</ele>
        <time>2022-07-17T08:24:02Z</time>
      </trkpt>
      <trkpt lat="45.19405" lon="6.45102">
        <ele>1432</ele>
        <time>2022-07-17T08:24:03Z</time>
      </trkpt>
      <trkpt lat="45.19407" lon="6.45099">
        <ele>1432.2</ele>
        <time>2022-07-17T08:24:04Z</time>
      </trkpt>
      <trkpt lat="45.19409" lon="6.45096">
        <ele>1432.2</ele>
        <time>2022-07-17T08:24:05Z</time>
      </trkpt>
      <trkpt lat="45.1941" lon="6.45093">
        <ele>1432.6</ele>
        <time>2022-07-17T08:24:06Z</time>
      </trkpt>
      <trkpt lat="45.19412" lon="6.4509">
        <ele>1432.6</ele>
        <time>2022-07-17T08:24:07Z</time>
      </trkpt>
      <trkpt lat="45.19414" lon="6.45087">
        <ele>1432.8</ele>
        <time>2022-07-17T08:24:08Z</time>
      </trkpt>
      <trkpt lat="45.19415" lon="6.45084">
        <ele>1432.8</ele>
        <time>2022-07-17T08:24:09Z</time>
      </trkpt>
      <trkpt lat="45.19417" lon="6.45081">
        <ele>1433.2</ele>
        <time>2022-07-17T08:24:10Z</time>
      </trkpt>
      <trkpt lat="45.19419" lon="6.45079">
        <ele>1433.6</ele>
        <time>2022-07-17T08:24:11Z</time>
      </trkpt>
      <trkpt lat="45.1942" lon="6.45076">
        <ele>1433.8</ele>
        <time>2022-07-17T08:24:12Z</time>
      </trkpt>
      <trkpt lat="45.19422" lon="6.45073">
        <ele>1433.8</ele>
        <time>2022-07-17T08:24:13Z</time>
      </trkpt>
      <trkpt lat="45.19424" lon="6.4507">
        <ele>1434</ele>
        <time>2022-07-17T08:24:14Z</time>
      </trkpt>
      <trkpt lat="45.19425" lon="6.45067">
        <ele>1434.4</ele>
        <time>2022-07-17T08:24:15Z</time>
      </trkpt>
      <trkpt lat="45.19426" lon="6.45064">
        <ele>1434.6</ele>
        <time>2022-07-17T08:24:16Z</time>
      </trkpt>
      <trkpt lat="45.19427" lon="6.45061">
        <ele>1434.8</ele>
        <time>2022-07-17T08:24:17Z</time>
      </trkpt>
      <trkpt lat="45.19429" lon="6.45058">
        <ele>1435</ele>
        <time>2022-07-17T08:24:18Z</time>
      </trkpt>
      <trkpt lat="45.1943" lon="6.45055">
        <ele>1435.2</ele>
        <time>2022-07-17T08:24:19Z</time>
      </trkpt>
      <trkpt lat="45.19432" lon="6.45052">
        <ele>1435.2</ele>
        <time>2022-07-17T08:24:20Z</time>
      </trkpt>
      <trkpt lat="45.19433" lon="6.45049">
        <ele>1435.6</ele>
        <time>2022-07-17T08:24:21Z</time>
      </trkpt>
      <trkpt lat="45.19435" lon="6.45046">
        <ele>1435.8</ele>
        <time>2022-07-17T08:24:22Z</time>
      </trkpt>
      <trkpt lat="45.19436" lon="6.45043">
        <ele>1436</ele>
        <time>2022-07-17T08:24:23Z</time>
      </trkpt>
      <trkpt lat="45.19438" lon="6.4504">
        <ele>1436</ele>
        <time>2022-07-17T08:24:24Z</time>
      </trkpt>
      <trkpt lat="45.19439" lon="6.45037">
        <ele>1436.6</ele>
        <time>2022-07-17T08:24:25Z</time>
      </trkpt>
      <trkpt lat="45.19441" lon="6.45034">
        <ele>1436.6</ele>
        <time>2022-07-17T08:24:26Z</time>
      </trkpt>
      <trkpt lat="45.19442" lon="6.45032">
        <ele>1436.8</ele>
        <time>2022-07-17T08:24:27Z</time>
      </trkpt>
      <trkpt lat="45.19444" lon="6.45029">
        <ele>1436.8</ele>
        <time>2022-07-17T08:24:28Z</time>
      </trkpt>
      <trkpt lat="45.19445" lon="6.45026">
        <ele>1437.2</ele>
        <time>2022-07-17T08:24:29Z</time>
      </trkpt>
      <trkpt lat="45.19447" lon="6.45023">
        <ele>1437.4</ele>
        <time>2022-07-17T08:24:30Z</time>
      </trkpt>
      <trkpt lat="45.19448" lon="6.4502">
        <ele>1437.4</ele>
        <time>2022-07-17T08:24:31Z</time>
      </trkpt>
      <trkpt lat="45.1945" lon="6.45017">
        <ele>1437.8</ele>
        <time>2022-07-17T08:24:32Z</time>
      </trkpt>
      <trkpt lat="45.19452" lon="6.45014">
        <ele>1438</ele>
        <time>2022-07-17T08:24:33Z</time>
      </trkpt>
      <trkpt lat="45.19453" lon="6.4501">
        <ele>1438</ele>
        <time>2022-07-17T08:24:34Z</time>
      </trkpt>
      <trkpt lat="45.19454" lon="6.45008">
        <ele>1438.4</ele>
        <time>2022-07-17T08:24:35Z</time>
      </trkpt>
      <trkpt lat="45.19456" lon="6.45005">
        <ele>1438.6</ele>
        <time>2022-07-17T08:24:36Z</time>
      </trkpt>
      <trkpt lat="45.19458" lon="6.45002">
        <ele>1438.6</ele>
        <time>2022-07-17T08:24:37Z</time>
      </trkpt>
      <trkpt lat="45.19459" lon="6.45">
        <ele>1439</ele>
        <time>2022-07-17T08:24:38Z</time>
      </trkpt>
      <trkpt lat="45.19461" lon="6.44997">
        <ele>1439.2</ele>
        <time>2022-07-17T08:24:39Z</time>
      </trkpt>
      <trkpt lat="45.19462" lon="6.44994">
        <ele>1439.2</ele>
        <time>2022-07-17T08:24:40Z</time>
      </trkpt>
      <trkpt lat="45.19464" lon="6.44991">
        <ele>1439.4</ele>
        <time>2022-07-17T08:24:41Z</time>
      </trkpt>
      <trkpt lat="45.19465" lon="6.44988">
        <ele>1439.4</ele>
        <time>2022-07-17T08:24:42Z</time>
      </trkpt>
      <trkpt lat="45.19467" lon="6.44986">
        <ele>1439.8</ele>
        <time>2022-07-17T08:24:43Z</time>
      </trkpt>
      <trkpt lat="45.19469" lon="6.44983">
        <ele>1440.2</ele>
        <time>2022-07-17T08:24:44Z</time>
      </trkpt>
      <trkpt lat="45.19471" lon="6.44981">
        <ele>1440.2</ele>
        <time>2022-07-17T08:24:45Z</time>
      </trkpt>
      <trkpt lat="45.19472" lon="6.44978">
        <ele>1440.4</ele>
        <time>2022-07-17T08:24:46Z</time>
      </trkpt>
      <trkpt lat="45.19473" lon="6.44975">
        <ele>1440.4</ele>
        <time>2022-07-17T08:24:47Z</time>
      </trkpt>
      <trkpt lat="45.19475" lon="6.44972">
        <ele>1440.8</ele>
        <time>2022-07-17T08:24:48Z</time>
      </trkpt>
      <trkpt lat="45.19476" lon="6.44969">
        <ele>1441.2</ele>
        <time>2022-07-17T08:24:49Z</time>
      </trkpt>
      <trkpt lat="45.19478" lon="6.44966">
        <ele>1441.4</ele>
        <time>2022-07-17T08:24:50Z</time>
      </trkpt>
      <trkpt lat="45.19479" lon="6.44963">
        <ele>1441.4</ele>
        <time>2022-07-17T08:24:51Z</time>
      </trkpt>
      <trkpt lat="45.19481" lon="6.44961">
        <ele>1441.8</ele>
        <time>2022-07-17T08:24:52Z</time>
      </trkpt>
      <trkpt lat="45.19482" lon="6.44958">
        <ele>1441.8</ele>
        <time>2022-07-17T08:24:53Z</time>
      </trkpt>
      <trkpt lat="45.19483" lon="6.44955">
        <ele>1442.2</ele>
        <time>2022-07-17T08:24:54Z</time>
      </trkpt>
      <trkpt lat="45.19485" lon="6.44951">
        <ele>1442.6</ele>
        <time>2022-07-17T08:24:55Z</time>
      </trkpt>
      <trkpt lat="45.19486" lon="6.44949">
        <ele>1442.8</ele>
        <time>2022-07-17T08:24:56Z</time>
      </trkpt>
      <trkpt lat="45.19488" lon="6.44946">
        <ele>1442.8</ele>
        <time>2022-07-17T08:24:57Z</time>
      </trkpt>
      <trkpt lat="45.19489" lon="6.44943">
        <ele>1443.2</ele>
        <time>2022-07-17T08:24:58Z</time>
      </trkpt>
      <trkpt lat="45.1949" lon="6.4494">
        <ele>1443.4</ele>
        <time>2022-07-17T08:24:59Z</time>
      </trkpt>
      <trkpt lat="45.19492" lon="6.44937">
        <ele>1443.6</ele>
        <time>2022-07-17T08:25:00Z</time>
      </trkpt>
      <trkpt lat="45.19493" lon="6.44934">
        <ele>1443.6</ele>
        <time>2022-07-17T08:25:01Z</time>
      </trkpt>
      <trkpt lat="45.19494" lon="6.44931">
        <ele>1443.8</ele>
        <time>2022-07-17T08:25:02Z</time>
      </trkpt>
      <trkpt lat="45.19495" lon="6.44928">
        <ele>1443.8</ele>
        <time>2022-07-17T08:25:03Z</time>
      </trkpt>
      <trkpt lat="45.19497" lon="6.44925">
        <ele>1444.4</ele>
        <time>2022-07-17T08:25:04Z</time>
      </trkpt>
      <trkpt lat="45.19498" lon="6.44922">
        <ele>1444.6</ele>
        <time>2022-07-17T08:25:05Z</time>
      </trkpt>
      <trkpt lat="45.19499" lon="6.44919">
        <ele>1444.8</ele>
        <time>2022-07-17T08:25:06Z</time>
      </trkpt>
      <trkpt lat="45.195" lon="6.44916">
        <ele>1444.8</ele>
        <time>2022-07-17T08:25:07Z</time>
      </trkpt>
      <trkpt lat="45.19501" lon="6.44913">
        <ele>1445</ele>
        <time>2022-07-17T08:25:08Z</time>
      </trkpt>
      <trkpt lat="45.19503" lon="6.44911">
        <ele>1445.4</ele>
        <time>2022-07-17T08:25:09Z</time>
      </trkpt>
      <trkpt lat="45.19503" lon="6.44908">
        <ele>1445.6</ele>
        <time>2022-07-17T08:25:10Z</time>
      </trkpt>
      <trkpt lat="45.19504" lon="6.44905">
        <ele>1445.8</ele>
        <time>2022-07-17T08:25:11Z</time>
      </trkpt>
      <trkpt lat="45.19505" lon="6.44902">
        <ele>1446</ele>
        <time>2022-07-17T08:25:12Z</time>
      </trkpt>
      <trkpt lat="45.19505" lon="6.449">
        <ele>1446</ele>
        <time>2022-07-17T08:25:13Z</time>
      </trkpt>
      <trkpt lat="45.19506" lon="6.44897">
        <ele>1446.4</ele>
        <time>2022-07-17T08:25:14Z</time>
      </trkpt>
      <trkpt lat="45.19506" lon="6.44894">
        <ele>1446.6</ele>
        <time>2022-07-17T08:25:15Z</time>
      </trkpt>
      <trkpt lat="45.19507" lon="6.44891">
        <ele>1446.8</ele>
        <time>2022-07-17T08:25:16Z</time>
      </trkpt>
      <trkpt lat="45.19508" lon="6.44888">
        <ele>1446.8</ele>
        <time>2022-07-17T08:25:17Z</time>
      </trkpt>
      <trkpt lat="45.19508" lon="6.44884">
        <ele>1447</ele>
        <time>2022-07-17T08:25:18Z</time>
      </trkpt>
      <trkpt lat="45.19509" lon="6.44881">
        <ele>1447</ele>
        <time>2022-07-17T08:25:19Z</time>
      </trkpt>
      <trkpt lat="45.19509" lon="6.44878">
        <ele>1447.4</ele>
        <time>2022-07-17T08:25:20Z</time>
      </trkpt>
      <trkpt lat="45.19509" lon="6.44874">
        <ele>1447.4</ele>
        <time>2022-07-17T08:25:21Z</time>
      </trkpt>
      <trkpt lat="45.19509" lon="6.44871">
        <ele>1447.6</ele>
        <time>2022-07-17T08:25:22Z</time>
      </trkpt>
      <trkpt lat="45.19509" lon="6.44867">
        <ele>1447.6</ele>
        <time>2022-07-17T08:25:23Z</time>
      </trkpt>
      <trkpt lat="45.19509" lon="6.44864">
        <ele>1447.6</ele>
        <time>2022-07-17T08:25:24Z</time>
      </trkpt>
      <trkpt lat="45.19509" lon="6.4486">
        <ele>1448</ele>
        <time>2022-07-17T08:25:25Z</time>
      </trkpt>
      <trkpt lat="45.19509" lon="6.44856">
        <ele>1448</ele>
        <time>2022-07-17T08:25:26Z</time>
      </trkpt>
      <trkpt lat="45.1951" lon="6.44852">
        <ele>1448.4</ele>
        <time>2022-07-17T08:25:27Z</time>
      </trkpt>
      <trkpt lat="45.19509" lon="6.44848">
        <ele>1448.4</ele>
        <time>2022-07-17T08:25:28Z</time>
      </trkpt>
      <trkpt lat="45.1951" lon="6.44845">
        <ele>1448.6</ele>
        <time>2022-07-17T08:25:29Z</time>
      </trkpt>
      <trkpt lat="45.1951" lon="6.44841">
        <ele>1448.8</ele>
        <time>2022-07-17T08:25:30Z</time>
      </trkpt>
      <trkpt lat="45.1951" lon="6.44837">
        <ele>1448.8</ele>
        <time>2022-07-17T08:25:31Z</time>
      </trkpt>
      <trkpt lat="45.1951" lon="6.44834">
        <ele>1449</ele>
        <time>2022-07-17T08:25:32Z</time>
      </trkpt>
      <trkpt lat="45.19509" lon="6.44831">
        <ele>1449</ele>
        <time>2022-07-17T08:25:33Z</time>
      </trkpt>
      <trkpt lat="45.19509" lon="6.44827">
        <ele>1449.4</ele>
        <time>2022-07-17T08:25:34Z</time>
      </trkpt>
      <trkpt lat="45.19508" lon="6.44824">
        <ele>1449.6</ele>
        <time>2022-07-17T08:25:35Z</time>
      </trkpt>
      <trkpt lat="45.19508" lon="6.4482">
        <ele>1449.6</ele>
        <time>2022-07-17T08:25:36Z</time>
      </trkpt>
      <trkpt lat="45.19508" lon="6.44817">
        <ele>1450</ele>
        <time>2022-07-17T08:25:37Z</time>
      </trkpt>
      <trkpt lat="45.19508" lon="6.44814">
        <ele>1450.2</ele>
        <time>2022-07-17T08:25:38Z</time>
      </trkpt>
      <trkpt lat="45.19508" lon="6.4481">
        <ele>1450.4</ele>
        <time>2022-07-17T08:25:39Z</time>
      </trkpt>
      <trkpt lat="45.19509" lon="6.44807">
        <ele>1450.8</ele>
        <time>2022-07-17T08:25:40Z</time>
      </trkpt>
      <trkpt lat="45.19509" lon="6.44804">
        <ele>1451</ele>
        <time>2022-07-17T08:25:41Z</time>
      </trkpt>
      <trkpt lat="45.19511" lon="6.44801">
        <ele>1451</ele>
        <time>2022-07-17T08:25:42Z</time>
      </trkpt>
      <trkpt lat="45.19512" lon="6.44798">
        <ele>1451.2</ele>
        <time>2022-07-17T08:25:43Z</time>
      </trkpt>
      <trkpt lat="45.19513" lon="6.44795">
        <ele>1451.2</ele>
        <time>2022-07-17T08:25:44Z</time>
      </trkpt>
      <trkpt lat="45.19514" lon="6.44792">
        <ele>1451.6</ele>
        <time>2022-07-17T08:25:45Z</time>
      </trkpt>
      <trkpt lat="45.19515" lon="6.44789">
        <ele>1451.6</ele>
        <time>2022-07-17T08:25:46Z</time>
      </trkpt>
      <trkpt lat="45.19515" lon="6.44785">
        <ele>1452</ele>
        <time>2022-07-17T08:25:47Z</time>
      </trkpt>
      <trkpt lat="45.19517" lon="6.44782">
        <ele>1452.2</ele>
        <time>2022-07-17T08:25:48Z</time>
      </trkpt>
      <trkpt lat="45.19518" lon="6.44779">
        <ele>1452.2</ele>
        <time>2022-07-17T08:25:49Z</time>
      </trkpt>
      <trkpt lat="45.19519" lon="6.44775">
        <ele>1452.8</ele>
        <time>2022-07-17T08:25:50Z</time>
      </trkpt>
      <trkpt lat="45.1952" lon="6.44771">
        <ele>1453</ele>
        <time>2022-07-17T08:25:51Z</time>
      </trkpt>
      <trkpt lat="45.19521" lon="6.44768">
        <ele>1453.4</ele>
        <time>2022-07-17T08:25:52Z</time>
      </trkpt>
      <trkpt lat="45.19522" lon="6.44765">
        <ele>1453.6</ele>
        <time>2022-07-17T08:25:53Z</time>
      </trkpt>
      <trkpt lat="45.19524" lon="6.44762">
        <ele>1453.6</ele>
        <time>2022-07-17T08:25:54Z</time>
      </trkpt>
      <trkpt lat="45.19526" lon="6.44758">
        <ele>1454</ele>
        <time>2022-07-17T08:25:55Z</time>
      </trkpt>
      <trkpt lat="45.19527" lon="6.44755">
        <ele>1454.2</ele>
        <time>2022-07-17T08:25:56Z</time>
      </trkpt>
      <trkpt lat="45.19529" lon="6.44751">
        <ele>1454.2</ele>
        <time>2022-07-17T08:25:57Z</time>
      </trkpt>
      <trkpt lat="45.1953" lon="6.44748">
        <ele>1454.6</ele>
        <time>2022-07-17T08:25:58Z</time>
      </trkpt>
      <trkpt lat="45.19532" lon="6.44745">
        <ele>1454.6</ele>
        <time>2022-07-17T08:25:59Z</time>
      </trkpt>
      <trkpt lat="45.19534" lon="6.44743">
        <ele>1455</ele>
        <time>2022-07-17T08:26:00Z</time>
      </trkpt>
      <trkpt lat="45.19536" lon="6.4474">
        <ele>1455.2</ele>
        <time>2022-07-17T08:26:01Z</time>
      </trkpt>
      <trkpt lat="45.19538" lon="6.44738">
        <ele>1455.2</ele>
        <time>2022-07-17T08:26:02Z</time>
      </trkpt>
      <trkpt lat="45.1954" lon="6.44735">
        <ele>1455.6</ele>
        <time>2022-07-17T08:26:03Z</time>
      </trkpt>
      <trkpt lat="45.19542" lon="6.44733">
        <ele>1455.8</ele>
        <time>2022-07-17T08:26:04Z</time>
      </trkpt>
      <trkpt lat="45.19545" lon="6.44731">
        <ele>1456.2</ele>
        <time>2022-07-17T08:26:05Z</time>
      </trkpt>
      <trkpt lat="45.19547" lon="6.44729">
        <ele>1456.4</ele>
        <time>2022-07-17T08:26:06Z</time>
      </trkpt>
      <trkpt lat="45.19549" lon="6.44727">
        <ele>1456.4</ele>
        <time>2022-07-17T08:26:07Z</time>
      </trkpt>
      <trkpt lat="45.19552" lon="6.44725">
        <ele>1456.8</ele>
        <time>2022-07-17T08:26:08Z</time>
      </trkpt>
      <trkpt lat="45.19554" lon="6.44724">
        <ele>1457</ele>
        <time>2022-07-17T08:26:09Z</time>
      </trkpt>
      <trkpt lat="45.19557" lon="6.44723">
        <ele>1457</ele>
        <time>2022-07-17T08:26:10Z</time>
      </trkpt>
      <trkpt lat="45.19559" lon="6.44721">
        <ele>1457.4</ele>
        <time>2022-07-17T08:26:11Z</time>
      </trkpt>
      <trkpt lat="45.19562" lon="6.44719">
        <ele>1457.4</ele>
        <time>2022-07-17T08:26:12Z</time>
      </trkpt>
      <trkpt lat="45.19565" lon="6.44718">
        <ele>1457.8</ele>
        <time>2022-07-17T08:26:13Z</time>
      </trkpt>
      <trkpt lat="45.19568" lon="6.44716">
        <ele>1457.8</ele>
        <time>2022-07-17T08:26:14Z</time>
      </trkpt>
      <trkpt lat="45.1957" lon="6.44714">
        <ele>1458.2</ele>
        <time>2022-07-17T08:26:15Z</time>
      </trkpt>
      <trkpt lat="45.19573" lon="6.44712">
        <ele>1458.4</ele>
        <time>2022-07-17T08:26:16Z</time>
      </trkpt>
      <trkpt lat="45.19575" lon="6.4471">
        <ele>1458.4</ele>
        <time>2022-07-17T08:26:17Z</time>
      </trkpt>
      <trkpt lat="45.19578" lon="6.44707">
        <ele>1458.8</ele>
        <time>2022-07-17T08:26:18Z</time>
      </trkpt>
      <trkpt lat="45.1958" lon="6.44705">
        <ele>1458.8</ele>
        <time>2022-07-17T08:26:19Z</time>
      </trkpt>
      <trkpt lat="45.19582" lon="6.44702">
        <ele>1459</ele>
        <time>2022-07-17T08:26:20Z</time>
      </trkpt>
      <trkpt lat="45.19584" lon="6.447">
        <ele>1459</ele>
        <time>2022-07-17T08:26:21Z</time>
      </trkpt>
      <trkpt lat="45.19586" lon="6.44697">
        <ele>1459.4</ele>
        <time>2022-07-17T08:26:22Z</time>
      </trkpt>
      <trkpt lat="45.19588" lon="6.44695">
        <ele>1459.4</ele>
        <time>2022-07-17T08:26:23Z</time>
      </trkpt>
      <trkpt lat="45.1959" lon="6.44693">
        <ele>1459.8</ele>
        <time>2022-07-17T08:26:24Z</time>
      </trkpt>
      <trkpt lat="45.19592" lon="6.4469">
        <ele>1459.8</ele>
        <time>2022-07-17T08:26:25Z</time>
      </trkpt>
      <trkpt lat="45.19594" lon="6.44688">
        <ele>1460.2</ele>
        <time>2022-07-17T08:26:26Z</time>
      </trkpt>
      <trkpt lat="45.19596" lon="6.44686">
        <ele>1460.2</ele>
        <time>2022-07-17T08:26:27Z</time>
      </trkpt>
      <trkpt lat="45.19598" lon="6.44684">
        <ele>1460.4</ele>
        <time>2022-07-17T08:26:28Z</time>
      </trkpt>
      <trkpt lat="45.196" lon="6.44681">
        <ele>1460.4</ele>
        <time>2022-07-17T08:26:29Z</time>
      </trkpt>
      <trkpt lat="45.19601" lon="6.44679">
        <ele>1460.8</ele>
        <time>2022-07-17T08:26:30Z</time>
      </trkpt>
      <trkpt lat="45.19603" lon="6.44676">
        <ele>1460.8</ele>
        <time>2022-07-17T08:26:31Z</time>
      </trkpt>
      <trkpt lat="45.19605" lon="6.44674">
        <ele>1461</ele>
        <time>2022-07-17T08:26:32Z</time>
      </trkpt>
      <trkpt lat="45.19607" lon="6.44671">
        <ele>1461</ele>
        <time>2022-07-17T08:26:33Z</time>
      </trkpt>
      <trkpt lat="45.19608" lon="6.44668">
        <ele>1461</ele>
        <time>2022-07-17T08:26:34Z</time>
      </trkpt>
      <trkpt lat="45.1961" lon="6.44665">
        <ele>1461.4</ele>
        <time>2022-07-17T08:26:35Z</time>
      </trkpt>
      <trkpt lat="45.19611" lon="6.44662">
        <ele>1461.4</ele>
        <time>2022-07-17T08:26:36Z</time>
      </trkpt>
      <trkpt lat="45.19613" lon="6.44659">
        <ele>1461.8</ele>
        <time>2022-07-17T08:26:37Z</time>
      </trkpt>
      <trkpt lat="45.19614" lon="6.44656">
        <ele>1461.8</ele>
        <time>2022-07-17T08:26:38Z</time>
      </trkpt>
      <trkpt lat="45.19616" lon="6.44653">
        <ele>1462</ele>
        <time>2022-07-17T08:26:39Z</time>
      </trkpt>
      <trkpt lat="45.19617" lon="6.44651">
        <ele>1462</ele>
        <time>2022-07-17T08:26:40Z</time>
      </trkpt>
      <trkpt lat="45.19619" lon="6.44648">
        <ele>1462.4</ele>
        <time>2022-07-17T08:26:41Z</time>
      </trkpt>
      <trkpt lat="45.1962" lon="6.44645">
        <ele>1462.4</ele>
        <time>2022-07-17T08:26:42Z</time>
      </trkpt>
      <trkpt lat="45.19621" lon="6.44643">
        <ele>1462.6</ele>
        <time>2022-07-17T08:26:43Z</time>
      </trkpt>
      <trkpt lat="45.19622" lon="6.44641">
        <ele>1462.6</ele>
        <time>2022-07-17T08:26:44Z</time>
      </trkpt>
      <trkpt lat="45.19624" lon="6.44639">
        <ele>1463</ele>
        <time>2022-07-17T08:26:45Z</time>
      </trkpt>
      <trkpt lat="45.19625" lon="6.44637">
        <ele>1463.2</ele>
        <time>2022-07-17T08:26:46Z</time>
      </trkpt>
      <trkpt lat="45.19627" lon="6.44635">
        <ele>1463.2</ele>
        <time>2022-07-17T08:26:47Z</time>
      </trkpt>
      <trkpt lat="45.19629" lon="6.44633">
        <ele>1463.4</ele>
        <time>2022-07-17T08:26:48Z</time>
      </trkpt>
      <trkpt lat="45.1963" lon="6.44631">
        <ele>1463.4</ele>
        <time>2022-07-17T08:26:49Z</time>
      </trkpt>
      <trkpt lat="45.19632" lon="6.44629">
        <ele>1463.6</ele>
        <time>2022-07-17T08:26:50Z</time>
      </trkpt>
      <trkpt lat="45.19634" lon="6.44627">
        <ele>1464</ele>
        <time>2022-07-17T08:26:51Z</time>
      </trkpt>
      <trkpt lat="45.19635" lon="6.44626">
        <ele>1464.2</ele>
        <time>2022-07-17T08:26:52Z</time>
      </trkpt>
      <trkpt lat="45.19637" lon="6.44624">
        <ele>1464.4</ele>
        <time>2022-07-17T08:26:53Z</time>
      </trkpt>
      <trkpt lat="45.19639" lon="6.44623">
        <ele>1464.4</ele>
        <time>2022-07-17T08:26:54Z</time>
      </trkpt>
      <trkpt lat="45.19641" lon="6.44621">
        <ele>1464.8</ele>
        <time>2022-07-17T08:26:55Z</time>
      </trkpt>
      <trkpt lat="45.19643" lon="6.4462">
        <ele>1464.8</ele>
        <time>2022-07-17T08:26:56Z</time>
      </trkpt>
      <trkpt lat="45.19645" lon="6.44619">
        <ele>1465.2</ele>
        <time>2022-07-17T08:26:57Z</time>
      </trkpt>
      <trkpt lat="45.19647" lon="6.44618">
        <ele>1465.2</ele>
        <time>2022-07-17T08:26:58Z</time>
      </trkpt>
      <trkpt lat="45.19649" lon="6.44616">
        <ele>1465.4</ele>
        <time>2022-07-17T08:26:59Z</time>
      </trkpt>
      <trkpt lat="45.19651" lon="6.44615">
        <ele>1465.4</ele>
        <time>2022-07-17T08:27:00Z</time>
      </trkpt>
      <trkpt lat="45.19653" lon="6.44614">
        <ele>1465.6</ele>
        <time>2022-07-17T08:27:01Z</time>
      </trkpt>
      <trkpt lat="45.19655" lon="6.44613">
        <ele>1465.6</ele>
        <time>2022-07-17T08:27:02Z</time>
      </trkpt>
      <trkpt lat="45.19657" lon="6.44611">
        <ele>1466</ele>
        <time>2022-07-17T08:27:03Z</time>
      </trkpt>
      <trkpt lat="45.19659" lon="6.4461">
        <ele>1466</ele>
        <time>2022-07-17T08:27:04Z</time>
      </trkpt>
      <trkpt lat="45.19661" lon="6.44608">
        <ele>1466.4</ele>
        <time>2022-07-17T08:27:05Z</time>
      </trkpt>
      <trkpt lat="45.19663" lon="6.44607">
        <ele>1466.6</ele>
        <time>2022-07-17T08:27:06Z</time>
      </trkpt>
      <trkpt lat="45.19665" lon="6.44606">
        <ele>1467</ele>
        <time>2022-07-17T08:27:07Z</time>
      </trkpt>
      <trkpt lat="45.19667" lon="6.44605">
        <ele>1467.2</ele>
        <time>2022-07-17T08:27:08Z</time>
      </trkpt>
      <trkpt lat="45.19668" lon="6.44603">
        <ele>1467.2</ele>
        <time>2022-07-17T08:27:09Z</time>
      </trkpt>
      <trkpt lat="45.1967" lon="6.44602">
        <ele>1467.4</ele>
        <time>2022-07-17T08:27:10Z</time>
      </trkpt>
      <trkpt lat="45.19672" lon="6.446">
        <ele>1467.6</ele>
        <time>2022-07-17T08:27:11Z</time>
      </trkpt>
      <trkpt lat="45.19674" lon="6.44599">
        <ele>1467.8</ele>
        <time>2022-07-17T08:27:12Z</time>
      </trkpt>
      <trkpt lat="45.19676" lon="6.44598">
        <ele>1468.2</ele>
        <time>2022-07-17T08:27:13Z</time>
      </trkpt>
      <trkpt lat="45.19678" lon="6.44597">
        <ele>1468.4</ele>
        <time>2022-07-17T08:27:14Z</time>
      </trkpt>
      <trkpt lat="45.19679" lon="6.44596">
        <ele>1468.6</ele>
        <time>2022-07-17T08:27:15Z</time>
      </trkpt>
      <trkpt lat="45.19681" lon="6.44595">
        <ele>1468.8</ele>
        <time>2022-07-17T08:27:16Z</time>
      </trkpt>
      <trkpt lat="45.19683" lon="6.44594">
        <ele>1469</ele>
        <time>2022-07-17T08:27:17Z</time>
      </trkpt>
      <trkpt lat="45.19685" lon="6.44593">
        <ele>1469</ele>
        <time>2022-07-17T08:27:18Z</time>
      </trkpt>
      <trkpt lat="45.19687" lon="6.44592">
        <ele>1469.6</ele>
        <time>2022-07-17T08:27:19Z</time>
      </trkpt>
      <trkpt lat="45.19689" lon="6.44592">
        <ele>1469.8</ele>
        <time>2022-07-17T08:27:20Z</time>
      </trkpt>
      <trkpt lat="45.19691" lon="6.44591">
        <ele>1470</ele>
        <time>2022-07-17T08:27:21Z</time>
      </trkpt>
      <trkpt lat="45.19692" lon="6.4459">
        <ele>1470</ele>
        <time>2022-07-17T08:27:22Z</time>
      </trkpt>
      <trkpt lat="45.19694" lon="6.44589">
        <ele>1470.4</ele>
        <time>2022-07-17T08:27:23Z</time>
      </trkpt>
      <trkpt lat="45.19695" lon="6.44588">
        <ele>1470.6</ele>
        <time>2022-07-17T08:27:24Z</time>
      </trkpt>
      <trkpt lat="45.19697" lon="6.44587">
        <ele>1471</ele>
        <time>2022-07-17T08:27:25Z</time>
      </trkpt>
      <trkpt lat="45.19699" lon="6.44586">
        <ele>1471.2</ele>
        <time>2022-07-17T08:27:26Z</time>
      </trkpt>
      <trkpt lat="45.19702" lon="6.44586">
        <ele>1471.6</ele>
        <time>2022-07-17T08:27:27Z</time>
      </trkpt>
      <trkpt lat="45.19704" lon="6.44585">
        <ele>1471.8</ele>
        <time>2022-07-17T08:27:28Z</time>
      </trkpt>
      <trkpt lat="45.19707" lon="6.44585">
        <ele>1472</ele>
        <time>2022-07-17T08:27:29Z</time>
      </trkpt>
      <trkpt lat="45.19709" lon="6.44584">
        <ele>1472.2</ele>
        <time>2022-07-17T08:27:30Z</time>
      </trkpt>
      <trkpt lat="45.19712" lon="6.44584">
        <ele>1472.4</ele>
        <time>2022-07-17T08:27:31Z</time>
      </trkpt>
      <trkpt lat="45.19715" lon="6.44583">
        <ele>1472.6</ele>
        <time>2022-07-17T08:27:32Z</time>
      </trkpt>
      <trkpt lat="45.19717" lon="6.44582">
        <ele>1472.8</ele>
        <time>2022-07-17T08:27:33Z</time>
      </trkpt>
      <trkpt lat="45.1972" lon="6.44582">
        <ele>1473.2</ele>
        <time>2022-07-17T08:27:34Z</time>
      </trkpt>
      <trkpt lat="45.19722" lon="6.44581">
        <ele>1473.2</ele>
        <time>2022-07-17T08:27:35Z</time>
      </trkpt>
      <trkpt lat="45.19725" lon="6.44581">
        <ele>1473.4</ele>
        <time>2022-07-17T08:27:36Z</time>
      </trkpt>
      <trkpt lat="45.19727" lon="6.4458">
        <ele>1473.4</ele>
        <time>2022-07-17T08:27:37Z</time>
      </trkpt>
      <trkpt lat="45.19729" lon="6.4458">
        <ele>1473.8</ele>
        <time>2022-07-17T08:27:38Z</time>
      </trkpt>
      <trkpt lat="45.19732" lon="6.4458">
        <ele>1474</ele>
        <time>2022-07-17T08:27:39Z</time>
      </trkpt>
      <trkpt lat="45.19734" lon="6.4458">
        <ele>1474</ele>
        <time>2022-07-17T08:27:40Z</time>
      </trkpt>
      <trkpt lat="45.19736" lon="6.4458">
        <ele>1474.4</ele>
        <time>2022-07-17T08:27:41Z</time>
      </trkpt>
      <trkpt lat="45.19739" lon="6.44581">
        <ele>1474.4</ele>
        <time>2022-07-17T08:27:42Z</time>
      </trkpt>
      <trkpt lat="45.19741" lon="6.44581">
        <ele>1474.8</ele>
        <time>2022-07-17T08:27:43Z</time>
      </trkpt>
      <trkpt lat="45.19744" lon="6.44581">
        <ele>1474.8</ele>
        <time>2022-07-17T08:27:44Z</time>
      </trkpt>
      <trkpt lat="45.19747" lon="6.44581">
        <ele>1475.2</ele>
        <time>2022-07-17T08:27:45Z</time>
      </trkpt>
      <trkpt lat="45.1975" lon="6.44581">
        <ele>1475.2</ele>
        <time>2022-07-17T08:27:46Z</time>
      </trkpt>
      <trkpt lat="45.19753" lon="6.44582">
        <ele>1475.4</ele>
        <time>2022-07-17T08:27:47Z</time>
      </trkpt>
      <trkpt lat="45.19756" lon="6.44582">
        <ele>1475.4</ele>
        <time>2022-07-17T08:27:48Z</time>
      </trkpt>
      <trkpt lat="45.19759" lon="6.44582">
        <ele>1475.8</ele>
        <time>2022-07-17T08:27:49Z</time>
      </trkpt>
      <trkpt lat="45.19762" lon="6.44582">
        <ele>1475.8</ele>
        <time>2022-07-17T08:27:50Z</time>
      </trkpt>
      <trkpt lat="45.19764" lon="6.44583">
        <ele>1476.2</ele>
        <time>2022-07-17T08:27:51Z</time>
      </trkpt>
      <trkpt lat="45.19767" lon="6.44583">
        <ele>1476.2</ele>
        <time>2022-07-17T08:27:52Z</time>
      </trkpt>
      <trkpt lat="45.19769" lon="6.44583">
        <ele>1476.6</ele>
        <time>2022-07-17T08:27:53Z</time>
      </trkpt>
      <trkpt lat="45.19772" lon="6.44583">
        <ele>1476.6</ele>
        <time>2022-07-17T08:27:54Z</time>
      </trkpt>
      <trkpt lat="45.19775" lon="6.44583">
        <ele>1476.8</ele>
        <time>2022-07-17T08:27:55Z</time>
      </trkpt>
      <trkpt lat="45.19777" lon="6.44582">
        <ele>1476.8</ele>
        <time>2022-07-17T08:27:56Z</time>
      </trkpt>
      <trkpt lat="45.1978" lon="6.44582">
        <ele>1477.2</ele>
        <time>2022-07-17T08:27:57Z</time>
      </trkpt>
      <trkpt lat="45.19782" lon="6.44582">
        <ele>1477.4</ele>
        <time>2022-07-17T08:27:58Z</time>
      </trkpt>
      <trkpt lat="45.19785" lon="6.44582">
        <ele>1477.8</ele>
        <time>2022-07-17T08:27:59Z</time>
      </trkpt>
      <trkpt lat="45.19787" lon="6.44581">
        <ele>1477.8</ele>
        <time>2022-07-17T08:28:00Z</time>
      </trkpt>
      <trkpt lat="45.1979" lon="6.44581">
        <ele>1478</ele>
        <time>2022-07-17T08:28:01Z</time>
      </trkpt>
      <trkpt lat="45.19792" lon="6.4458">
        <ele>1478</ele>
        <time>2022-07-17T08:28:02Z</time>
      </trkpt>
      <trkpt lat="45.19795" lon="6.4458">
        <ele>1478.4</ele>
        <time>2022-07-17T08:28:03Z</time>
      </trkpt>
      <trkpt lat="45.19797" lon="6.44579">
        <ele>1478.4</ele>
        <time>2022-07-17T08:28:04Z</time>
      </trkpt>
      <trkpt lat="45.198" lon="6.44579">
        <ele>1478.6</ele>
        <time>2022-07-17T08:28:05Z</time>
      </trkpt>
      <trkpt lat="45.19802" lon="6.44577">
        <ele>1478.6</ele>
        <time>2022-07-17T08:28:06Z</time>
      </trkpt>
      <trkpt lat="45.19805" lon="6.44576">
        <ele>1478.8</ele>
        <time>2022-07-17T08:28:07Z</time>
      </trkpt>
      <trkpt lat="45.19807" lon="6.44575">
        <ele>1479</ele>
        <time>2022-07-17T08:28:08Z</time>
      </trkpt>
      <trkpt lat="45.1981" lon="6.44575">
        <ele>1479</ele>
        <time>2022-07-17T08:28:09Z</time>
      </trkpt>
      <trkpt lat="45.19812" lon="6.44574">
        <ele>1479.4</ele>
        <time>2022-07-17T08:28:10Z</time>
      </trkpt>
      <trkpt lat="45.19814" lon="6.44573">
        <ele>1479.6</ele>
        <time>2022-07-17T08:28:11Z</time>
      </trkpt>
      <trkpt lat="45.19817" lon="6.44572">
        <ele>1479.6</ele>
        <time>2022-07-17T08:28:12Z</time>
      </trkpt>
      <trkpt lat="45.19819" lon="6.44571">
        <ele>1480</ele>
        <time>2022-07-17T08:28:13Z</time>
      </trkpt>
      <trkpt lat="45.19821" lon="6.4457">
        <ele>1480</ele>
        <time>2022-07-17T08:28:14Z</time>
      </trkpt>
      <trkpt lat="45.19824" lon="6.44569">
        <ele>1480.4</ele>
        <time>2022-07-17T08:28:15Z</time>
      </trkpt>
      <trkpt lat="45.19826" lon="6.44567">
        <ele>1480.4</ele>
        <time>2022-07-17T08:28:16Z</time>
      </trkpt>
      <trkpt lat="45.19829" lon="6.44566">
        <ele>1480.8</ele>
        <time>2022-07-17T08:28:17Z</time>
      </trkpt>
      <trkpt lat="45.19831" lon="6.44565">
        <ele>1480.8</ele>
        <time>2022-07-17T08:28:18Z</time>
      </trkpt>
      <trkpt lat="45.19833" lon="6.44564">
        <ele>1481.2</ele>
        <time>2022-07-17T08:28:19Z</time>
      </trkpt>
      <trkpt lat="45.19836" lon="6.44562">
        <ele>1481.4</ele>
        <time>2022-07-17T08:28:20Z</time>
      </trkpt>
      <trkpt lat="45.19838" lon="6.44561">
        <ele>1481.4</ele>
        <time>2022-07-17T08:28:21Z</time>
      </trkpt>
      <trkpt lat="45.19841" lon="6.4456">
        <ele>1481.6</ele>
        <time>2022-07-17T08:28:22Z</time>
      </trkpt>
      <trkpt lat="45.19843" lon="6.44559">
        <ele>1481.8</ele>
        <time>2022-07-17T08:28:23Z</time>
      </trkpt>
      <trkpt lat="45.19845" lon="6.44558">
        <ele>1481.8</ele>
        <time>2022-07-17T08:28:24Z</time>
      </trkpt>
      <trkpt lat="45.19848" lon="6.44558">
        <ele>1482.2</ele>
        <time>2022-07-17T08:28:25Z</time>
      </trkpt>
      <trkpt lat="45.1985" lon="6.44557">
        <ele>1482.2</ele>
        <time>2022-07-17T08:28:26Z</time>
      </trkpt>
      <trkpt lat="45.19853" lon="6.44557">
        <ele>1482.6</ele>
        <time>2022-07-17T08:28:27Z</time>
      </trkpt>
      <trkpt lat="45.19855" lon="6.44556">
        <ele>1482.8</ele>
        <time>2022-07-17T08:28:28Z</time>
      </trkpt>
      <trkpt lat="45.19858" lon="6.44556">
        <ele>1483</ele>
        <time>2022-07-17T08:28:29Z</time>
      </trkpt>
      <trkpt lat="45.19861" lon="6.44556">
        <ele>1483.4</ele>
        <time>2022-07-17T08:28:30Z</time>
      </trkpt>
      <trkpt lat="45.19863" lon="6.44557">
        <ele>1483.4</ele>
        <time>2022-07-17T08:28:31Z</time>
      </trkpt>
      <trkpt lat="45.19866" lon="6.44558">
        <ele>1483.6</ele>
        <time>2022-07-17T08:28:32Z</time>
      </trkpt>
      <trkpt lat="45.19868" lon="6.44559">
        <ele>1483.6</ele>
        <time>2022-07-17T08:28:33Z</time>
      </trkpt>
      <trkpt lat="45.19871" lon="6.44561">
        <ele>1484</ele>
        <time>2022-07-17T08:28:34Z</time>
      </trkpt>
      <trkpt lat="45.19874" lon="6.44562">
        <ele>1484.2</ele>
        <time>2022-07-17T08:28:35Z</time>
      </trkpt>
      <trkpt lat="45.19877" lon="6.44564">
        <ele>1484.2</ele>
        <time>2022-07-17T08:28:36Z</time>
      </trkpt>
      <trkpt lat="45.19879" lon="6.44565">
        <ele>1484.6</ele>
        <time>2022-07-17T08:28:37Z</time>
      </trkpt>
      <trkpt lat="45.19882" lon="6.44567">
        <ele>1484.6</ele>
        <time>2022-07-17T08:28:38Z</time>
      </trkpt>
      <trkpt lat="45.19884" lon="6.44569">
        <ele>1485</ele>
        <time>2022-07-17T08:28:39Z</time>
      </trkpt>
      <trkpt lat="45.19887" lon="6.44571">
        <ele>1485.2</ele>
        <time>2022-07-17T08:28:40Z</time>
      </trkpt>
      <trkpt lat="45.19889" lon="6.44573">
        <ele>1485.4</ele>
        <time>2022-07-17T08:28:41Z</time>
      </trkpt>
      <trkpt lat="45.19892" lon="6.44574">
        <ele>1485.4</ele>
        <time>2022-07-17T08:28:42Z</time>
      </trkpt>
      <trkpt lat="45.19894" lon="6.44576">
        <ele>1485.8</ele>
        <time>2022-07-17T08:28:43Z</time>
      </trkpt>
      <trkpt lat="45.19896" lon="6.44578">
        <ele>1485.8</ele>
        <time>2022-07-17T08:28:44Z</time>
      </trkpt>
      <trkpt lat="45.19899" lon="6.4458">
        <ele>1486.2</ele>
        <time>2022-07-17T08:28:45Z</time>
      </trkpt>
      <trkpt lat="45.19901" lon="6.44581">
        <ele>1486.2</ele>
        <time>2022-07-17T08:28:46Z</time>
      </trkpt>
      <trkpt lat="45.19903" lon="6.44583">
        <ele>1486.4</ele>
        <time>2022-07-17T08:28:47Z</time>
      </trkpt>
      <trkpt lat="45.19906" lon="6.44585">
        <ele>1486.6</ele>
        <time>2022-07-17T08:28:48Z</time>
      </trkpt>
      <trkpt lat="45.19908" lon="6.44586">
        <ele>1486.8</ele>
        <time>2022-07-17T08:28:49Z</time>
      </trkpt>
      <trkpt lat="45.1991" lon="6.44588">
        <ele>1487</ele>
        <time>2022-07-17T08:28:50Z</time>
      </trkpt>
      <trkpt lat="45.19913" lon="6.44589">
        <ele>1487.4</ele>
        <time>2022-07-17T08:28:51Z</time>
      </trkpt>
      <trkpt lat="45.19915" lon="6.44591">
        <ele>1487.4</ele>
        <time>2022-07-17T08:28:52Z</time>
      </trkpt>
      <trkpt lat="45.19917" lon="6.44592">
        <ele>1487.8</ele>
        <time>2022-07-17T08:28:53Z</time>
      </trkpt>
      <trkpt lat="45.1992" lon="6.44593">
        <ele>1488</ele>
        <time>2022-07-17T08:28:54Z</time>
      </trkpt>
      <trkpt lat="45.19922" lon="6.44595">
        <ele>1488.2</ele>
        <time>2022-07-17T08:28:55Z</time>
      </trkpt>
      <trkpt lat="45.19924" lon="6.44597">
        <ele>1488.2</ele>
        <time>2022-07-17T08:28:56Z</time>
      </trkpt>
      <trkpt lat="45.19927" lon="6.44598">
        <ele>1488.6</ele>
        <time>2022-07-17T08:28:57Z</time>
      </trkpt>
      <trkpt lat="45.19929" lon="6.446">
        <ele>1488.6</ele>
        <time>2022-07-17T08:28:58Z</time>
      </trkpt>
      <trkpt lat="45.19931" lon="6.44601">
        <ele>1489</ele>
        <time>2022-07-17T08:28:59Z</time>
      </trkpt>
      <trkpt lat="45.19933" lon="6.44603">
        <ele>1489</ele>
        <time>2022-07-17T08:29:00Z</time>
      </trkpt>
      <trkpt lat="45.19936" lon="6.44604">
        <ele>1489.4</ele>
        <time>2022-07-17T08:29:01Z</time>
      </trkpt>
      <trkpt lat="45.19938" lon="6.44605">
        <ele>1489.4</ele>
        <time>2022-07-17T08:29:02Z</time>
      </trkpt>
      <trkpt lat="45.19941" lon="6.44606">
        <ele>1489.8</ele>
        <time>2022-07-17T08:29:03Z</time>
      </trkpt>
      <trkpt lat="45.19943" lon="6.44607">
        <ele>1490.2</ele>
        <time>2022-07-17T08:29:04Z</time>
      </trkpt>
      <trkpt lat="45.19946" lon="6.44607">
        <ele>1490.4</ele>
        <time>2022-07-17T08:29:05Z</time>
      </trkpt>
      <trkpt lat="45.19949" lon="6.44608">
        <ele>1490.8</ele>
        <time>2022-07-17T08:29:06Z</time>
      </trkpt>
      <trkpt lat="45.19952" lon="6.44607">
        <ele>1491</ele>
        <time>2022-07-17T08:29:07Z</time>
      </trkpt>
      <trkpt lat="45.19954" lon="6.44606">
        <ele>1491.2</ele>
        <time>2022-07-17T08:29:08Z</time>
      </trkpt>
      <trkpt lat="45.19957" lon="6.44605">
        <ele>1491.2</ele>
        <time>2022-07-17T08:29:09Z</time>
      </trkpt>
      <trkpt lat="45.19959" lon="6.44603">
        <ele>1491.6</ele>
        <time>2022-07-17T08:29:10Z</time>
      </trkpt>
      <trkpt lat="45.19961" lon="6.446">
        <ele>1492</ele>
        <time>2022-07-17T08:29:11Z</time>
      </trkpt>
      <trkpt lat="45.19963" lon="6.44598">
        <ele>1492.2</ele>
        <time>2022-07-17T08:29:13Z</time>
      </trkpt>
      <trkpt lat="45.19964" lon="6.44595">
        <ele>1492.6</ele>
        <time>2022-07-17T08:29:14Z</time>
      </trkpt>
      <trkpt lat="45.19966" lon="6.44591">
        <ele>1492.8</ele>
        <time>2022-07-17T08:29:15Z</time>
      </trkpt>
      <trkpt lat="45.19967" lon="6.44588">
        <ele>1492.8</ele>
        <time>2022-07-17T08:29:16Z</time>
      </trkpt>
      <trkpt lat="45.19969" lon="6.44584">
        <ele>1493</ele>
        <time>2022-07-17T08:29:17Z</time>
      </trkpt>
      <trkpt lat="45.1997" lon="6.44581">
        <ele>1493</ele>
        <time>2022-07-17T08:29:18Z</time>
      </trkpt>
      <trkpt lat="45.19971" lon="6.44578">
        <ele>1493.4</ele>
        <time>2022-07-17T08:29:19Z</time>
      </trkpt>
      <trkpt lat="45.19973" lon="6.44575">
        <ele>1493.4</ele>
        <time>2022-07-17T08:29:20Z</time>
      </trkpt>
      <trkpt lat="45.19974" lon="6.44572">
        <ele>1493.6</ele>
        <time>2022-07-17T08:29:21Z</time>
      </trkpt>
      <trkpt lat="45.19976" lon="6.44568">
        <ele>1493.6</ele>
        <time>2022-07-17T08:29:22Z</time>
      </trkpt>
      <trkpt lat="45.19977" lon="6.44564">
        <ele>1493.8</ele>
        <time>2022-07-17T08:29:23Z</time>
      </trkpt>
      <trkpt lat="45.19978" lon="6.44561">
        <ele>1493.8</ele>
        <time>2022-07-17T08:29:24Z</time>
      </trkpt>
      <trkpt lat="45.1998" lon="6.44557">
        <ele>1494.2</ele>
        <time>2022-07-17T08:29:25Z</time>
      </trkpt>
      <trkpt lat="45.19981" lon="6.44554">
        <ele>1494.4</ele>
        <time>2022-07-17T08:29:26Z</time>
      </trkpt>
      <trkpt lat="45.19982" lon="6.44551">
        <ele>1494.4</ele>
        <time>2022-07-17T08:29:27Z</time>
      </trkpt>
      <trkpt lat="45.19984" lon="6.44548">
        <ele>1494.6</ele>
        <time>2022-07-17T08:29:28Z</time>
      </trkpt>
      <trkpt lat="45.19985" lon="6.44544">
        <ele>1494.6</ele>
        <time>2022-07-17T08:29:29Z</time>
      </trkpt>
      <trkpt lat="45.19986" lon="6.44541">
        <ele>1495</ele>
        <time>2022-07-17T08:29:30Z</time>
      </trkpt>
      <trkpt lat="45.19988" lon="6.44538">
        <ele>1495</ele>
        <time>2022-07-17T08:29:31Z</time>
      </trkpt>
      <trkpt lat="45.19989" lon="6.44535">
        <ele>1495.4</ele>
        <time>2022-07-17T08:29:32Z</time>
      </trkpt>
      <trkpt lat="45.19991" lon="6.44532">
        <ele>1495.8</ele>
        <time>2022-07-17T08:29:33Z</time>
      </trkpt>
      <trkpt lat="45.19992" lon="6.44529">
        <ele>1495.8</ele>
        <time>2022-07-17T08:29:34Z</time>
      </trkpt>
      <trkpt lat="45.19994" lon="6.44526">
        <ele>1496.2</ele>
        <time>2022-07-17T08:29:35Z</time>
      </trkpt>
      <trkpt lat="45.19996" lon="6.44524">
        <ele>1496.4</ele>
        <time>2022-07-17T08:29:36Z</time>
      </trkpt>
      <trkpt lat="45.19999" lon="6.44523">
        <ele>1496.6</ele>
        <time>2022-07-17T08:29:37Z</time>
      </trkpt>
      <trkpt lat="45.20001" lon="6.44523">
        <ele>1496.8</ele>
        <time>2022-07-17T08:29:38Z</time>
      </trkpt>
      <trkpt lat="45.20004" lon="6.44523">
        <ele>1497</ele>
        <time>2022-07-17T08:29:39Z</time>
      </trkpt>
      <trkpt lat="45.20007" lon="6.44523">
        <ele>1497.4</ele>
        <time>2022-07-17T08:29:40Z</time>
      </trkpt>
      <trkpt lat="45.2001" lon="6.44524">
        <ele>1497.6</ele>
        <time>2022-07-17T08:29:41Z</time>
      </trkpt>
      <trkpt lat="45.20012" lon="6.44524">
        <ele>1497.6</ele>
        <time>2022-07-17T08:29:42Z</time>
      </trkpt>
      <trkpt lat="45.20015" lon="6.44524">
        <ele>1497.8</ele>
        <time>2022-07-17T08:29:43Z</time>
      </trkpt>
      <trkpt lat="45.20017" lon="6.44524">
        <ele>1498.2</ele>
        <time>2022-07-17T08:29:44Z</time>
      </trkpt>
      <trkpt lat="45.2002" lon="6.44525">
        <ele>1498.2</ele>
        <time>2022-07-17T08:29:45Z</time>
      </trkpt>
      <trkpt lat="45.20023" lon="6.44525">
        <ele>1498.4</ele>
        <time>2022-07-17T08:29:46Z</time>
      </trkpt>
      <trkpt lat="45.20025" lon="6.44525">
        <ele>1498.6</ele>
        <time>2022-07-17T08:29:47Z</time>
      </trkpt>
      <trkpt lat="45.20028" lon="6.44525">
        <ele>1498.6</ele>
        <time>2022-07-17T08:29:48Z</time>
      </trkpt>
      <trkpt lat="45.2003" lon="6.44526">
        <ele>1499</ele>
        <time>2022-07-17T08:29:49Z</time>
      </trkpt>
      <trkpt lat="45.20033" lon="6.44527">
        <ele>1499</ele>
        <time>2022-07-17T08:29:50Z</time>
      </trkpt>
      <trkpt lat="45.20036" lon="6.44528">
        <ele>1499</ele>
        <time>2022-07-17T08:29:51Z</time>
      </trkpt>
      <trkpt lat="45.20039" lon="6.44528">
        <ele>1499.2</ele>
        <time>2022-07-17T08:29:52Z</time>
      </trkpt>
      <trkpt lat="45.20042" lon="6.44529">
        <ele>1499.2</ele>
        <time>2022-07-17T08:29:53Z</time>
      </trkpt>
      <trkpt lat="45.20045" lon="6.44529">
        <ele>1499.4</ele>
        <time>2022-07-17T08:29:54Z</time>
      </trkpt>
      <trkpt lat="45.20048" lon="6.4453">
        <ele>1499.4</ele>
        <time>2022-07-17T08:29:55Z</time>
      </trkpt>
      <trkpt lat="45.20051" lon="6.44531">
        <ele>1499.4</ele>
        <time>2022-07-17T08:29:56Z</time>
      </trkpt>
      <trkpt lat="45.20054" lon="6.44532">
        <ele>1499.8</ele>
        <time>2022-07-17T08:29:57Z</time>
      </trkpt>
      <trkpt lat="45.20057" lon="6.44534">
        <ele>1499.8</ele>
        <time>2022-07-17T08:29:58Z</time>
      </trkpt>
      <trkpt lat="45.20064" lon="6.44537">
        <ele>1499.8</ele>
        <time>2022-07-17T08:29:59Z</time>
      </trkpt>
      <trkpt lat="45.20067" lon="6.44539">
        <ele>1500</ele>
        <time>2022-07-17T08:30:00Z</time>
      </trkpt>
      <trkpt lat="45.2007" lon="6.44542">
        <ele>1500</ele>
        <time>2022-07-17T08:30:01Z</time>
      </trkpt>
      <trkpt lat="45.20072" lon="6.44544">
        <ele>1500.4</ele>
        <time>2022-07-17T08:30:02Z</time>
      </trkpt>
      <trkpt lat="45.20075" lon="6.44547">
        <ele>1500.4</ele>
        <time>2022-07-17T08:30:03Z</time>
      </trkpt>
      <trkpt lat="45.20078" lon="6.4455">
        <ele>1500.6</ele>
        <time>2022-07-17T08:30:04Z</time>
      </trkpt>
      <trkpt lat="45.2008" lon="6.44552">
        <ele>1500.6</ele>
        <time>2022-07-17T08:30:05Z</time>
      </trkpt>
      <trkpt lat="45.20083" lon="6.44555">
        <ele>1500.8</ele>
        <time>2022-07-17T08:30:06Z</time>
      </trkpt>
      <trkpt lat="45.20086" lon="6.44557">
        <ele>1500.8</ele>
        <time>2022-07-17T08:30:07Z</time>
      </trkpt>
      <trkpt lat="45.20088" lon="6.4456">
        <ele>1501</ele>
        <time>2022-07-17T08:30:08Z</time>
      </trkpt>
      <trkpt lat="45.20091" lon="6.44563">
        <ele>1501</ele>
        <time>2022-07-17T08:30:09Z</time>
      </trkpt>
      <trkpt lat="45.20093" lon="6.44566">
        <ele>1501.4</ele>
        <time>2022-07-17T08:30:10Z</time>
      </trkpt>
      <trkpt lat="45.20095" lon="6.44568">
        <ele>1501.6</ele>
        <time>2022-07-17T08:30:11Z</time>
      </trkpt>
      <trkpt lat="45.20098" lon="6.44569">
        <ele>1501.8</ele>
        <time>2022-07-17T08:30:12Z</time>
      </trkpt>
      <trkpt lat="45.201" lon="6.4457">
        <ele>1501.8</ele>
        <time>2022-07-17T08:30:13Z</time>
      </trkpt>
      <trkpt lat="45.20103" lon="6.44571">
        <ele>1502.2</ele>
        <time>2022-07-17T08:30:14Z</time>
      </trkpt>
      <trkpt lat="45.20106" lon="6.4457">
        <ele>1502.2</ele>
        <time>2022-07-17T08:30:15Z</time>
      </trkpt>
      <trkpt lat="45.20109" lon="6.44568">
        <ele>1502.6</ele>
        <time>2022-07-17T08:30:16Z</time>
      </trkpt>
      <trkpt lat="45.20112" lon="6.44566">
        <ele>1502.6</ele>
        <time>2022-07-17T08:30:17Z</time>
      </trkpt>
      <trkpt lat="45.20114" lon="6.44563">
        <ele>1502.8</ele>
        <time>2022-07-17T08:30:18Z</time>
      </trkpt>
      <trkpt lat="45.20117" lon="6.44561">
        <ele>1502.8</ele>
        <time>2022-07-17T08:30:19Z</time>
      </trkpt>
      <trkpt lat="45.20119" lon="6.44557">
        <ele>1503.2</ele>
        <time>2022-07-17T08:30:20Z</time>
      </trkpt>
      <trkpt lat="45.20121" lon="6.44554">
        <ele>1503.6</ele>
        <time>2022-07-17T08:30:21Z</time>
      </trkpt>
      <trkpt lat="45.20123" lon="6.44552">
        <ele>1503.6</ele>
        <time>2022-07-17T08:30:22Z</time>
      </trkpt>
      <trkpt lat="45.20125" lon="6.44549">
        <ele>1503.8</ele>
        <time>2022-07-17T08:30:23Z</time>
      </trkpt>
      <trkpt lat="45.20127" lon="6.44546">
        <ele>1504.2</ele>
        <time>2022-07-17T08:30:24Z</time>
      </trkpt>
      <trkpt lat="45.20129" lon="6.44544">
        <ele>1504.4</ele>
        <time>2022-07-17T08:30:25Z</time>
      </trkpt>
      <trkpt lat="45.20132" lon="6.44541">
        <ele>1504.4</ele>
        <time>2022-07-17T08:30:26Z</time>
      </trkpt>
      <trkpt lat="45.20134" lon="6.44539">
        <ele>1504.8</ele>
        <time>2022-07-17T08:30:27Z</time>
      </trkpt>
      <trkpt lat="45.20136" lon="6.44537">
        <ele>1505</ele>
        <time>2022-07-17T08:30:28Z</time>
      </trkpt>
      <trkpt lat="45.20139" lon="6.44536">
        <ele>1505.2</ele>
        <time>2022-07-17T08:30:29Z</time>
      </trkpt>
      <trkpt lat="45.20142" lon="6.44536">
        <ele>1505.6</ele>
        <time>2022-07-17T08:30:30Z</time>
      </trkpt>
      <trkpt lat="45.20145" lon="6.44535">
        <ele>1505.8</ele>
        <time>2022-07-17T08:30:31Z</time>
      </trkpt>
      <trkpt lat="45.20148" lon="6.44536">
        <ele>1506</ele>
        <time>2022-07-17T08:30:32Z</time>
      </trkpt>
      <trkpt lat="45.20151" lon="6.44536">
        <ele>1506.4</ele>
        <time>2022-07-17T08:30:33Z</time>
      </trkpt>
      <trkpt lat="45.20154" lon="6.44538">
        <ele>1506.6</ele>
        <time>2022-07-17T08:30:34Z</time>
      </trkpt>
      <trkpt lat="45.20157" lon="6.44538">
        <ele>1506.8</ele>
        <time>2022-07-17T08:30:35Z</time>
      </trkpt>
      <trkpt lat="45.2016" lon="6.44539">
        <ele>1506.8</ele>
        <time>2022-07-17T08:30:36Z</time>
      </trkpt>
      <trkpt lat="45.20162" lon="6.4454">
        <ele>1507.2</ele>
        <time>2022-07-17T08:30:37Z</time>
      </trkpt>
      <trkpt lat="45.20165" lon="6.44541">
        <ele>1507.4</ele>
        <time>2022-07-17T08:30:38Z</time>
      </trkpt>
      <trkpt lat="45.20168" lon="6.44542">
        <ele>1507.6</ele>
        <time>2022-07-17T08:30:39Z</time>
      </trkpt>
      <trkpt lat="45.20171" lon="6.44543">
        <ele>1507.6</ele>
        <time>2022-07-17T08:30:40Z</time>
      </trkpt>
      <trkpt lat="45.20174" lon="6.44543">
        <ele>1508</ele>
        <time>2022-07-17T08:30:41Z</time>
      </trkpt>
      <trkpt lat="45.20178" lon="6.44542">
        <ele>1508.2</ele>
        <time>2022-07-17T08:30:42Z</time>
      </trkpt>
      <trkpt lat="45.20181" lon="6.44542">
        <ele>1508.4</ele>
        <time>2022-07-17T08:30:43Z</time>
      </trkpt>
      <trkpt lat="45.20184" lon="6.44542">
        <ele>1508.8</ele>
        <time>2022-07-17T08:30:44Z</time>
      </trkpt>
      <trkpt lat="45.20187" lon="6.44541">
        <ele>1509</ele>
        <time>2022-07-17T08:30:45Z</time>
      </trkpt>
      <trkpt lat="45.20189" lon="6.4454">
        <ele>1509.4</ele>
        <time>2022-07-17T08:30:46Z</time>
      </trkpt>
      <trkpt lat="45.20192" lon="6.44539">
        <ele>1509.6</ele>
        <time>2022-07-17T08:30:47Z</time>
      </trkpt>
      <trkpt lat="45.20195" lon="6.44537">
        <ele>1510</ele>
        <time>2022-07-17T08:30:48Z</time>
      </trkpt>
      <trkpt lat="45.20197" lon="6.44536">
        <ele>1510</ele>
        <time>2022-07-17T08:30:49Z</time>
      </trkpt>
      <trkpt lat="45.202" lon="6.44534">
        <ele>1510.4</ele>
        <time>2022-07-17T08:30:50Z</time>
      </trkpt>
      <trkpt lat="45.20202" lon="6.44533">
        <ele>1510.4</ele>
        <time>2022-07-17T08:30:51Z</time>
      </trkpt>
      <trkpt lat="45.20205" lon="6.44531">
        <ele>1510.8</ele>
        <time>2022-07-17T08:30:52Z</time>
      </trkpt>
      <trkpt lat="45.20208" lon="6.4453">
        <ele>1511</ele>
        <time>2022-07-17T08:30:53Z</time>
      </trkpt>
      <trkpt lat="45.2021" lon="6.44528">
        <ele>1511.2</ele>
        <time>2022-07-17T08:30:54Z</time>
      </trkpt>
      <trkpt lat="45.20213" lon="6.44526">
        <ele>1511.4</ele>
        <time>2022-07-17T08:30:55Z</time>
      </trkpt>
      <trkpt lat="45.20215" lon="6.44524">
        <ele>1511.6</ele>
        <time>2022-07-17T08:30:56Z</time>
      </trkpt>
      <trkpt lat="45.20217" lon="6.44522">
        <ele>1512</ele>
        <time>2022-07-17T08:30:57Z</time>
      </trkpt>
      <trkpt lat="45.20219" lon="6.44521">
        <ele>1512.2</ele>
        <time>2022-07-17T08:30:58Z</time>
      </trkpt>
      <trkpt lat="45.20222" lon="6.44519">
        <ele>1512.4</ele>
        <time>2022-07-17T08:30:59Z</time>
      </trkpt>
      <trkpt lat="45.20224" lon="6.44517">
        <ele>1512.6</ele>
        <time>2022-07-17T08:31:00Z</time>
      </trkpt>
      <trkpt lat="45.20226" lon="6.44515">
        <ele>1513</ele>
        <time>2022-07-17T08:31:01Z</time>
      </trkpt>
      <trkpt lat="45.20228" lon="6.44513">
        <ele>1513.2</ele>
        <time>2022-07-17T08:31:02Z</time>
      </trkpt>
      <trkpt lat="45.2023" lon="6.44511">
        <ele>1513.4</ele>
        <time>2022-07-17T08:31:03Z</time>
      </trkpt>
      <trkpt lat="45.20233" lon="6.44509">
        <ele>1513.8</ele>
        <time>2022-07-17T08:31:04Z</time>
      </trkpt>
      <trkpt lat="45.20236" lon="6.44507">
        <ele>1514</ele>
        <time>2022-07-17T08:31:05Z</time>
      </trkpt>
      <trkpt lat="45.20238" lon="6.44506">
        <ele>1514.2</ele>
        <time>2022-07-17T08:31:06Z</time>
      </trkpt>
      <trkpt lat="45.20241" lon="6.44504">
        <ele>1514.4</ele>
        <time>2022-07-17T08:31:07Z</time>
      </trkpt>
      <trkpt lat="45.20243" lon="6.44503">
        <ele>1514.8</ele>
        <time>2022-07-17T08:31:08Z</time>
      </trkpt>
      <trkpt lat="45.20246" lon="6.44501">
        <ele>1515</ele>
        <time>2022-07-17T08:31:09Z</time>
      </trkpt>
      <trkpt lat="45.20248" lon="6.44499">
        <ele>1515.4</ele>
        <time>2022-07-17T08:31:10Z</time>
      </trkpt>
      <trkpt lat="45.2025" lon="6.44498">
        <ele>1515.6</ele>
        <time>2022-07-17T08:31:11Z</time>
      </trkpt>
      <trkpt lat="45.20252" lon="6.44496">
        <ele>1515.8</ele>
        <time>2022-07-17T08:31:12Z</time>
      </trkpt>
      <trkpt lat="45.20254" lon="6.44495">
        <ele>1516</ele>
        <time>2022-07-17T08:31:13Z</time>
      </trkpt>
      <trkpt lat="45.20257" lon="6.44493">
        <ele>1516.4</ele>
        <time>2022-07-17T08:31:14Z</time>
      </trkpt>
      <trkpt lat="45.20258" lon="6.44491">
        <ele>1516.6</ele>
        <time>2022-07-17T08:31:15Z</time>
      </trkpt>
      <trkpt lat="45.2026" lon="6.4449">
        <ele>1517</ele>
        <time>2022-07-17T08:31:16Z</time>
      </trkpt>
      <trkpt lat="45.20262" lon="6.44488">
        <ele>1517.2</ele>
        <time>2022-07-17T08:31:17Z</time>
      </trkpt>
      <trkpt lat="45.20264" lon="6.44487">
        <ele>1517.2</ele>
        <time>2022-07-17T08:31:18Z</time>
      </trkpt>
      <trkpt lat="45.20266" lon="6.44486">
        <ele>1517.6</ele>
        <time>2022-07-17T08:31:19Z</time>
      </trkpt>
      <trkpt lat="45.20268" lon="6.44484">
        <ele>1517.8</ele>
        <time>2022-07-17T08:31:20Z</time>
      </trkpt>
      <trkpt lat="45.20269" lon="6.44482">
        <ele>1517.8</ele>
        <time>2022-07-17T08:31:21Z</time>
      </trkpt>
      <trkpt lat="45.20271" lon="6.4448">
        <ele>1518</ele>
        <time>2022-07-17T08:31:22Z</time>
      </trkpt>
      <trkpt lat="45.20272" lon="6.44477">
        <ele>1518</ele>
        <time>2022-07-17T08:31:23Z</time>
      </trkpt>
      <trkpt lat="45.20273" lon="6.44474">
        <ele>1518.2</ele>
        <time>2022-07-17T08:31:24Z</time>
      </trkpt>
      <trkpt lat="45.20274" lon="6.4447">
        <ele>1518.2</ele>
        <time>2022-07-17T08:31:25Z</time>
      </trkpt>
      <trkpt lat="45.20274" lon="6.44466">
        <ele>1518.2</ele>
        <time>2022-07-17T08:31:26Z</time>
      </trkpt>
      <trkpt lat="45.20275" lon="6.44462">
        <ele>1518.2</ele>
        <time>2022-07-17T08:31:27Z</time>
      </trkpt>
      <trkpt lat="45.20275" lon="6.44458">
        <ele>1518.2</ele>
        <time>2022-07-17T08:31:28Z</time>
      </trkpt>
      <trkpt lat="45.20274" lon="6.44455">
        <ele>1518.2</ele>
        <time>2022-07-17T08:31:29Z</time>
      </trkpt>
      <trkpt lat="45.20274" lon="6.44451">
        <ele>1518.2</ele>
        <time>2022-07-17T08:31:30Z</time>
      </trkpt>
      <trkpt lat="45.20274" lon="6.44448">
        <ele>1518.2</ele>
        <time>2022-07-17T08:31:31Z</time>
      </trkpt>
      <trkpt lat="45.20275" lon="6.44445">
        <ele>1518.2</ele>
        <time>2022-07-17T08:31:32Z</time>
      </trkpt>
      <trkpt lat="45.20275" lon="6.44441">
        <ele>1518.2</ele>
        <time>2022-07-17T08:31:33Z</time>
      </trkpt>
      <trkpt lat="45.20276" lon="6.44438">
        <ele>1518.2</ele>
        <time>2022-07-17T08:31:34Z</time>
      </trkpt>
      <trkpt lat="45.20276" lon="6.44435">
        <ele>1518.2</ele>
        <time>2022-07-17T08:31:35Z</time>
      </trkpt>
      <trkpt lat="45.20276" lon="6.44432">
        <ele>1518.2</ele>
        <time>2022-07-17T08:31:36Z</time>
      </trkpt>
      <trkpt lat="45.20276" lon="6.44429">
        <ele>1518</ele>
        <time>2022-07-17T08:31:37Z</time>
      </trkpt>
      <trkpt lat="45.20275" lon="6.44427">
        <ele>1518</ele>
        <time>2022-07-17T08:31:38Z</time>
      </trkpt>
      <trkpt lat="45.20273" lon="6.44425">
        <ele>1518</ele>
        <time>2022-07-17T08:31:39Z</time>
      </trkpt>
      <trkpt lat="45.20272" lon="6.44424">
        <ele>1518</ele>
        <time>2022-07-17T08:31:40Z</time>
      </trkpt>
      <trkpt lat="45.2027" lon="6.44424">
        <ele>1518</ele>
        <time>2022-07-17T08:31:41Z</time>
      </trkpt>
      <trkpt lat="45.20268" lon="6.44424">
        <ele>1518</ele>
        <time>2022-07-17T08:31:42Z</time>
      </trkpt>
      <trkpt lat="45.20267" lon="6.44424">
        <ele>1518</ele>
        <time>2022-07-17T08:31:43Z</time>
      </trkpt>
      <trkpt lat="45.20266" lon="6.44424">
        <ele>1518</ele>
        <time>2022-07-17T08:31:44Z</time>
      </trkpt>
      <trkpt lat="45.20265" lon="6.44425">
        <ele>1518</ele>
        <time>2022-07-17T08:31:45Z</time>
      </trkpt>
      <trkpt lat="45.20264" lon="6.44425">
        <ele>1518</ele>
        <time>2022-07-17T08:31:46Z</time>
      </trkpt>
      <trkpt lat="45.20263" lon="6.44426">
        <ele>1518</ele>
        <time>2022-07-17T08:31:47Z</time>
      </trkpt>
      <trkpt lat="45.20261" lon="6.44426">
        <ele>1518</ele>
        <time>2022-07-17T08:31:48Z</time>
      </trkpt>
      <trkpt lat="45.20259" lon="6.44426">
        <ele>1518</ele>
        <time>2022-07-17T08:31:49Z</time>
      </trkpt>
      <trkpt lat="45.20257" lon="6.44426">
        <ele>1518</ele>
        <time>2022-07-17T08:31:50Z</time>
      </trkpt>
      <trkpt lat="45.20255" lon="6.44425">
        <ele>1518</ele>
        <time>2022-07-17T08:31:51Z</time>
      </trkpt>
      <trkpt lat="45.20253" lon="6.44424">
        <ele>1518</ele>
        <time>2022-07-17T08:31:52Z</time>
      </trkpt>
      <trkpt lat="45.20251" lon="6.44423">
        <ele>1518</ele>
        <time>2022-07-17T08:31:53Z</time>
      </trkpt>
      <trkpt lat="45.20249" lon="6.44422">
        <ele>1518</ele>
        <time>2022-07-17T08:31:54Z</time>
      </trkpt>
      <trkpt lat="45.20247" lon="6.44421">
        <ele>1518</ele>
        <time>2022-07-17T08:31:55Z</time>
      </trkpt>
      <trkpt lat="45.20245" lon="6.4442">
        <ele>1518</ele>
        <time>2022-07-17T08:31:56Z</time>
      </trkpt>
      <trkpt lat="45.20243" lon="6.44419">
        <ele>1518</ele>
        <time>2022-07-17T08:31:57Z</time>
      </trkpt>
      <trkpt lat="45.20241" lon="6.44418">
        <ele>1518</ele>
        <time>2022-07-17T08:31:58Z</time>
      </trkpt>
      <trkpt lat="45.20239" lon="6.44417">
        <ele>1518</ele>
        <time>2022-07-17T08:31:59Z</time>
      </trkpt>
      <trkpt lat="45.20238" lon="6.44416">
        <ele>1518</ele>
        <time>2022-07-17T08:32:00Z</time>
      </trkpt>
      <trkpt lat="45.20236" lon="6.44415">
        <ele>1518</ele>
        <time>2022-07-17T08:32:01Z</time>
      </trkpt>
      <trkpt lat="45.20235" lon="6.44414">
        <ele>1518</ele>
        <time>2022-07-17T08:32:02Z</time>
      </trkpt>
      <trkpt lat="45.20235" lon="6.44413">
        <ele>1518</ele>
        <time>2022-07-17T08:32:03Z</time>
      </trkpt>
      <trkpt lat="45.20235" lon="6.44414">
        <ele>1518</ele>
        <time>2022-07-17T08:32:04Z</time>
      </trkpt>
      <trkpt lat="45.20235" lon="6.44414">
        <ele>1518</ele>
        <time>2022-07-17T08:34:55Z</time>
      </trkpt>
      <trkpt lat="45.20235" lon="6.44414">
        <ele>1517.6</ele>
        <time>2022-07-17T08:40:51Z</time>
      </trkpt>
      <trkpt lat="45.2023" lon="6.44416">
        <ele>1517.6</ele>
        <time>2022-07-17T08:41:02Z</time>
      </trkpt>
      <trkpt lat="45.20228" lon="6.44416">
        <ele>1517.6</ele>
        <time>2022-07-17T08:41:03Z</time>
      </trkpt>
      <trkpt lat="45.20225" lon="6.44415">
        <ele>1517.8</ele>
        <time>2022-07-17T08:41:04Z</time>
      </trkpt>
      <trkpt lat="45.20223" lon="6.44415">
        <ele>1517.8</ele>
        <time>2022-07-17T08:41:05Z</time>
      </trkpt>
      <trkpt lat="45.20221" lon="6.44414">
        <ele>1517.8</ele>
        <time>2022-07-17T08:41:06Z</time>
      </trkpt>
      <trkpt lat="45.20219" lon="6.44413">
        <ele>1517.8</ele>
        <time>2022-07-17T08:41:07Z</time>
      </trkpt>
      <trkpt lat="45.20216" lon="6.44412">
        <ele>1517.6</ele>
        <time>2022-07-17T08:41:08Z</time>
      </trkpt>
      <trkpt lat="45.20213" lon="6.44411">
        <ele>1517.6</ele>
        <time>2022-07-17T08:41:09Z</time>
      </trkpt>
      <trkpt lat="45.2021" lon="6.4441">
        <ele>1517.6</ele>
        <time>2022-07-17T08:41:10Z</time>
      </trkpt>
      <trkpt lat="45.20208" lon="6.44409">
        <ele>1517.6</ele>
        <time>2022-07-17T08:41:11Z</time>
      </trkpt>
      <trkpt lat="45.20205" lon="6.44408">
        <ele>1517.6</ele>
        <time>2022-07-17T08:41:12Z</time>
      </trkpt>
      <trkpt lat="45.20202" lon="6.44407">
        <ele>1517.6</ele>
        <time>2022-07-17T08:41:13Z</time>
      </trkpt>
      <trkpt lat="45.20199" lon="6.44406">
        <ele>1517.6</ele>
        <time>2022-07-17T08:41:14Z</time>
      </trkpt>
      <trkpt lat="45.20196" lon="6.44404">
        <ele>1517.6</ele>
        <time>2022-07-17T08:41:15Z</time>
      </trkpt>
      <trkpt lat="45.20193" lon="6.44403">
        <ele>1517.6</ele>
        <time>2022-07-17T08:41:16Z</time>
      </trkpt>
      <trkpt lat="45.20189" lon="6.44402">
        <ele>1517.6</ele>
        <time>2022-07-17T08:41:17Z</time>
      </trkpt>
      <trkpt lat="45.20186" lon="6.444">
        <ele>1517.6</ele>
        <time>2022-07-17T08:41:18Z</time>
      </trkpt>
      <trkpt lat="45.20183" lon="6.44398">
        <ele>1517.6</ele>
        <time>2022-07-17T08:41:19Z</time>
      </trkpt>
      <trkpt lat="45.20179" lon="6.44396">
        <ele>1517.4</ele>
        <time>2022-07-17T08:41:20Z</time>
      </trkpt>
      <trkpt lat="45.20175" lon="6.44395">
        <ele>1517.4</ele>
        <time>2022-07-17T08:41:21Z</time>
      </trkpt>
      <trkpt lat="45.20171" lon="6.44393">
        <ele>1517.4</ele>
        <time>2022-07-17T08:41:22Z</time>
      </trkpt>
      <trkpt lat="45.20166" lon="6.44391">
        <ele>1517.4</ele>
        <time>2022-07-17T08:41:23Z</time>
      </trkpt>
      <trkpt lat="45.20162" lon="6.44389">
        <ele>1517</ele>
        <time>2022-07-17T08:41:24Z</time>
      </trkpt>
      <trkpt lat="45.20157" lon="6.44389">
        <ele>1517</ele>
        <time>2022-07-17T08:41:25Z</time>
      </trkpt>
      <trkpt lat="45.20152" lon="6.44389">
        <ele>1516.8</ele>
        <time>2022-07-17T08:41:26Z</time>
      </trkpt>
      <trkpt lat="45.20147" lon="6.4439">
        <ele>1516.6</ele>
        <time>2022-07-17T08:41:27Z</time>
      </trkpt>
      <trkpt lat="45.20142" lon="6.44392">
        <ele>1516.2</ele>
        <time>2022-07-17T08:41:28Z</time>
      </trkpt>
      <trkpt lat="45.20137" lon="6.44396">
        <ele>1516</ele>
        <time>2022-07-17T08:41:29Z</time>
      </trkpt>
      <trkpt lat="45.2013" lon="6.44399">
        <ele>1515.6</ele>
        <time>2022-07-17T08:41:30Z</time>
      </trkpt>
      <trkpt lat="45.20123" lon="6.44401">
        <ele>1515.2</ele>
        <time>2022-07-17T08:41:31Z</time>
      </trkpt>
      <trkpt lat="45.20115" lon="6.444">
        <ele>1514.6</ele>
        <time>2022-07-17T08:41:32Z</time>
      </trkpt>
      <trkpt lat="45.20107" lon="6.44398">
        <ele>1514.2</ele>
        <time>2022-07-17T08:41:33Z</time>
      </trkpt>
      <trkpt lat="45.20099" lon="6.44396">
        <ele>1513.8</ele>
        <time>2022-07-17T08:41:34Z</time>
      </trkpt>
      <trkpt lat="45.2009" lon="6.44393">
        <ele>1513.2</ele>
        <time>2022-07-17T08:41:35Z</time>
      </trkpt>
      <trkpt lat="45.20079" lon="6.44389">
        <ele>1512.6</ele>
        <time>2022-07-17T08:41:36Z</time>
      </trkpt>
      <trkpt lat="45.20068" lon="6.44384">
        <ele>1512</ele>
        <time>2022-07-17T08:41:37Z</time>
      </trkpt>
      <trkpt lat="45.20057" lon="6.44379">
        <ele>1511.4</ele>
        <time>2022-07-17T08:41:38Z</time>
      </trkpt>
      <trkpt lat="45.20046" lon="6.44374">
        <ele>1510.6</ele>
        <time>2022-07-17T08:41:39Z</time>
      </trkpt>
      <trkpt lat="45.20036" lon="6.44369">
        <ele>1510</ele>
        <time>2022-07-17T08:41:40Z</time>
      </trkpt>
      <trkpt lat="45.20025" lon="6.44364">
        <ele>1509.6</ele>
        <time>2022-07-17T08:41:41Z</time>
      </trkpt>
      <trkpt lat="45.20014" lon="6.44359">
        <ele>1509.2</ele>
        <time>2022-07-17T08:41:42Z</time>
      </trkpt>
      <trkpt lat="45.20003" lon="6.44355">
        <ele>1508.6</ele>
        <time>2022-07-17T08:41:43Z</time>
      </trkpt>
      <trkpt lat="45.19993" lon="6.44351">
        <ele>1508.2</ele>
        <time>2022-07-17T08:41:44Z</time>
      </trkpt>
      <trkpt lat="45.19982" lon="6.44347">
        <ele>1508</ele>
        <time>2022-07-17T08:41:45Z</time>
      </trkpt>
      <trkpt lat="45.19972" lon="6.44343">
        <ele>1508</ele>
        <time>2022-07-17T08:41:46Z</time>
      </trkpt>
      <trkpt lat="45.19963" lon="6.44338">
        <ele>1507.4</ele>
        <time>2022-07-17T08:41:47Z</time>
      </trkpt>
      <trkpt lat="45.19953" lon="6.44333">
        <ele>1507.4</ele>
        <time>2022-07-17T08:41:48Z</time>
      </trkpt>
      <trkpt lat="45.19944" lon="6.44328">
        <ele>1507.2</ele>
        <time>2022-07-17T08:41:49Z</time>
      </trkpt>
      <trkpt lat="45.19935" lon="6.44323">
        <ele>1507.2</ele>
        <time>2022-07-17T08:41:50Z</time>
      </trkpt>
      <trkpt lat="45.19926" lon="6.44319">
        <ele>1507.2</ele>
        <time>2022-07-17T08:41:51Z</time>
      </trkpt>
      <trkpt lat="45.19918" lon="6.44314">
        <ele>1507.4</ele>
        <time>2022-07-17T08:41:52Z</time>
      </trkpt>
      <trkpt lat="45.1991" lon="6.4431">
        <ele>1507.4</ele>
        <time>2022-07-17T08:41:53Z</time>
      </trkpt>
      <trkpt lat="45.19903" lon="6.44307">
        <ele>1507.8</ele>
        <time>2022-07-17T08:41:54Z</time>
      </trkpt>
      <trkpt lat="45.19897" lon="6.44304">
        <ele>1507.8</ele>
        <time>2022-07-17T08:41:55Z</time>
      </trkpt>
      <trkpt lat="45.19891" lon="6.443">
        <ele>1508</ele>
        <time>2022-07-17T08:41:56Z</time>
      </trkpt>
      <trkpt lat="45.19885" lon="6.44297">
        <ele>1508.2</ele>
        <time>2022-07-17T08:41:57Z</time>
      </trkpt>
      <trkpt lat="45.1988" lon="6.44294">
        <ele>1508.2</ele>
        <time>2022-07-17T08:41:58Z</time>
      </trkpt>
      <trkpt lat="45.19875" lon="6.4429">
        <ele>1508.6</ele>
        <time>2022-07-17T08:41:59Z</time>
      </trkpt>
      <trkpt lat="45.1987" lon="6.44287">
        <ele>1508.6</ele>
        <time>2022-07-17T08:42:00Z</time>
      </trkpt>
      <trkpt lat="45.19865" lon="6.44285">
        <ele>1508.8</ele>
        <time>2022-07-17T08:42:01Z</time>
      </trkpt>
      <trkpt lat="45.1986" lon="6.44282">
        <ele>1508.8</ele>
        <time>2022-07-17T08:42:02Z</time>
      </trkpt>
      <trkpt lat="45.19855" lon="6.44279">
        <ele>1509.2</ele>
        <time>2022-07-17T08:42:03Z</time>
      </trkpt>
      <trkpt lat="45.19851" lon="6.44276">
        <ele>1509.2</ele>
        <time>2022-07-17T08:42:04Z</time>
      </trkpt>
      <trkpt lat="45.19846" lon="6.44273">
        <ele>1509.6</ele>
        <time>2022-07-17T08:42:05Z</time>
      </trkpt>
      <trkpt lat="45.19842" lon="6.44271">
        <ele>1509.8</ele>
        <time>2022-07-17T08:42:06Z</time>
      </trkpt>
      <trkpt lat="45.19837" lon="6.44268">
        <ele>1510</ele>
        <time>2022-07-17T08:42:07Z</time>
      </trkpt>
      <trkpt lat="45.19832" lon="6.44266">
        <ele>1510.2</ele>
        <time>2022-07-17T08:42:08Z</time>
      </trkpt>
      <trkpt lat="45.19827" lon="6.44263">
        <ele>1510.6</ele>
        <time>2022-07-17T08:42:09Z</time>
      </trkpt>
      <trkpt lat="45.19822" lon="6.44261">
        <ele>1510.6</ele>
        <time>2022-07-17T08:42:10Z</time>
      </trkpt>
      <trkpt lat="45.19817" lon="6.44259">
        <ele>1510.8</ele>
        <time>2022-07-17T08:42:11Z</time>
      </trkpt>
      <trkpt lat="45.19812" lon="6.44257">
        <ele>1510.8</ele>
        <time>2022-07-17T08:42:12Z</time>
      </trkpt>
      <trkpt lat="45.19807" lon="6.44256">
        <ele>1511</ele>
        <time>2022-07-17T08:42:13Z</time>
      </trkpt>
      <trkpt lat="45.19802" lon="6.44256">
        <ele>1511</ele>
        <time>2022-07-17T08:42:14Z</time>
      </trkpt>
      <trkpt lat="45.19797" lon="6.44255">
        <ele>1511.4</ele>
        <time>2022-07-17T08:42:15Z</time>
      </trkpt>
      <trkpt lat="45.19792" lon="6.44255">
        <ele>1511.4</ele>
        <time>2022-07-17T08:42:16Z</time>
      </trkpt>
      <trkpt lat="45.19787" lon="6.44255">
        <ele>1511.6</ele>
        <time>2022-07-17T08:42:17Z</time>
      </trkpt>
      <trkpt lat="45.19781" lon="6.44255">
        <ele>1511.6</ele>
        <time>2022-07-17T08:42:18Z</time>
      </trkpt>
      <trkpt lat="45.19776" lon="6.44256">
        <ele>1511.8</ele>
        <time>2022-07-17T08:42:19Z</time>
      </trkpt>
      <trkpt lat="45.19771" lon="6.44256">
        <ele>1511.8</ele>
        <time>2022-07-17T08:42:20Z</time>
      </trkpt>
      <trkpt lat="45.19767" lon="6.44256">
        <ele>1512.2</ele>
        <time>2022-07-17T08:42:21Z</time>
      </trkpt>
      <trkpt lat="45.19762" lon="6.44255">
        <ele>1512.2</ele>
        <time>2022-07-17T08:42:22Z</time>
      </trkpt>
      <trkpt lat="45.19758" lon="6.44256">
        <ele>1512.2</ele>
        <time>2022-07-17T08:42:23Z</time>
      </trkpt>
      <trkpt lat="45.19753" lon="6.44256">
        <ele>1512.2</ele>
        <time>2022-07-17T08:42:24Z</time>
      </trkpt>
      <trkpt lat="45.19748" lon="6.44255">
        <ele>1512.2</ele>
        <time>2022-07-17T08:42:25Z</time>
      </trkpt>
      <trkpt lat="45.19743" lon="6.44254">
        <ele>1512.2</ele>
        <time>2022-07-17T08:42:26Z</time>
      </trkpt>
      <trkpt lat="45.19738" lon="6.44253">
        <ele>1512.2</ele>
        <time>2022-07-17T08:42:27Z</time>
      </trkpt>
      <trkpt lat="45.19733" lon="6.44252">
        <ele>1512</ele>
        <time>2022-07-17T08:42:28Z</time>
      </trkpt>
      <trkpt lat="45.19728" lon="6.4425">
        <ele>1512</ele>
        <time>2022-07-17T08:42:29Z</time>
      </trkpt>
      <trkpt lat="45.19724" lon="6.4425">
        <ele>1512</ele>
        <time>2022-07-17T08:42:30Z</time>
      </trkpt>
      <trkpt lat="45.19719" lon="6.44248">
        <ele>1512</ele>
        <time>2022-07-17T08:42:31Z</time>
      </trkpt>
      <trkpt lat="45.19713" lon="6.44246">
        <ele>1511.8</ele>
        <time>2022-07-17T08:42:32Z</time>
      </trkpt>
      <trkpt lat="45.19707" lon="6.44244">
        <ele>1511.8</ele>
        <time>2022-07-17T08:42:33Z</time>
      </trkpt>
      <trkpt lat="45.19701" lon="6.44243">
        <ele>1511.4</ele>
        <time>2022-07-17T08:42:34Z</time>
      </trkpt>
      <trkpt lat="45.19694" lon="6.44242">
        <ele>1511.4</ele>
        <time>2022-07-17T08:42:35Z</time>
      </trkpt>
      <trkpt lat="45.19688" lon="6.44242">
        <ele>1511</ele>
        <time>2022-07-17T08:42:36Z</time>
      </trkpt>
      <trkpt lat="45.19682" lon="6.44241">
        <ele>1511</ele>
        <time>2022-07-17T08:42:37Z</time>
      </trkpt>
      <trkpt lat="45.19677" lon="6.4424">
        <ele>1511</ele>
        <time>2022-07-17T08:42:38Z</time>
      </trkpt>
      <trkpt lat="45.19671" lon="6.44241">
        <ele>1510.8</ele>
        <time>2022-07-17T08:42:39Z</time>
      </trkpt>
      <trkpt lat="45.19665" lon="6.44242">
        <ele>1510.6</ele>
        <time>2022-07-17T08:42:40Z</time>
      </trkpt>
      <trkpt lat="45.19658" lon="6.44244">
        <ele>1510.6</ele>
        <time>2022-07-17T08:42:41Z</time>
      </trkpt>
      <trkpt lat="45.19651" lon="6.44245">
        <ele>1510.2</ele>
        <time>2022-07-17T08:42:42Z</time>
      </trkpt>
      <trkpt lat="45.19644" lon="6.44245">
        <ele>1510.2</ele>
        <time>2022-07-17T08:42:43Z</time>
      </trkpt>
      <trkpt lat="45.19637" lon="6.44245">
        <ele>1510</ele>
        <time>2022-07-17T08:42:44Z</time>
      </trkpt>
      <trkpt lat="45.1963" lon="6.44245">
        <ele>1510</ele>
        <time>2022-07-17T08:42:45Z</time>
      </trkpt>
      <trkpt lat="45.19624" lon="6.44243">
        <ele>1510</ele>
        <time>2022-07-17T08:42:46Z</time>
      </trkpt>
      <trkpt lat="45.19617" lon="6.44243">
        <ele>1510</ele>
        <time>2022-07-17T08:42:47Z</time>
      </trkpt>
      <trkpt lat="45.19611" lon="6.44243">
        <ele>1509.8</ele>
        <time>2022-07-17T08:42:48Z</time>
      </trkpt>
      <trkpt lat="45.19604" lon="6.44241">
        <ele>1509.8</ele>
        <time>2022-07-17T08:42:49Z</time>
      </trkpt>
      <trkpt lat="45.19597" lon="6.44239">
        <ele>1509.4</ele>
        <time>2022-07-17T08:42:50Z</time>
      </trkpt>
      <trkpt lat="45.1959" lon="6.44237">
        <ele>1509.2</ele>
        <time>2022-07-17T08:42:51Z</time>
      </trkpt>
      <trkpt lat="45.19584" lon="6.44235">
        <ele>1509</ele>
        <time>2022-07-17T08:42:52Z</time>
      </trkpt>
      <trkpt lat="45.19577" lon="6.44232">
        <ele>1509</ele>
        <time>2022-07-17T08:42:53Z</time>
      </trkpt>
      <trkpt lat="45.1957" lon="6.44229">
        <ele>1508.6</ele>
        <time>2022-07-17T08:42:54Z</time>
      </trkpt>
      <trkpt lat="45.19564" lon="6.44226">
        <ele>1508.6</ele>
        <time>2022-07-17T08:42:55Z</time>
      </trkpt>
      <trkpt lat="45.19557" lon="6.44222">
        <ele>1508.4</ele>
        <time>2022-07-17T08:42:56Z</time>
      </trkpt>
      <trkpt lat="45.19551" lon="6.44218">
        <ele>1508.4</ele>
        <time>2022-07-17T08:42:57Z</time>
      </trkpt>
      <trkpt lat="45.19545" lon="6.44214">
        <ele>1508.4</ele>
        <time>2022-07-17T08:42:58Z</time>
      </trkpt>
      <trkpt lat="45.19538" lon="6.4421">
        <ele>1508</ele>
        <time>2022-07-17T08:42:59Z</time>
      </trkpt>
      <trkpt lat="45.19532" lon="6.44206">
        <ele>1508</ele>
        <time>2022-07-17T08:43:00Z</time>
      </trkpt>
      <trkpt lat="45.19525" lon="6.44202">
        <ele>1507.6</ele>
        <time>2022-07-17T08:43:01Z</time>
      </trkpt>
      <trkpt lat="45.19518" lon="6.442">
        <ele>1507.6</ele>
        <time>2022-07-17T08:43:02Z</time>
      </trkpt>
      <trkpt lat="45.19512" lon="6.44197">
        <ele>1507.4</ele>
        <time>2022-07-17T08:43:03Z</time>
      </trkpt>
      <trkpt lat="45.19505" lon="6.44195">
        <ele>1507.4</ele>
        <time>2022-07-17T08:43:04Z</time>
      </trkpt>
      <trkpt lat="45.19497" lon="6.44193">
        <ele>1507.4</ele>
        <time>2022-07-17T08:43:05Z</time>
      </trkpt>
      <trkpt lat="45.1949" lon="6.44192">
        <ele>1507</ele>
        <time>2022-07-17T08:43:06Z</time>
      </trkpt>
      <trkpt lat="45.19482" lon="6.44191">
        <ele>1507</ele>
        <time>2022-07-17T08:43:07Z</time>
      </trkpt>
      <trkpt lat="45.19475" lon="6.44191">
        <ele>1506.6</ele>
        <time>2022-07-17T08:43:08Z</time>
      </trkpt>
      <trkpt lat="45.19467" lon="6.4419">
        <ele>1506.6</ele>
        <time>2022-07-17T08:43:09Z</time>
      </trkpt>
      <trkpt lat="45.1946" lon="6.4419">
        <ele>1506.2</ele>
        <time>2022-07-17T08:43:10Z</time>
      </trkpt>
      <trkpt lat="45.19452" lon="6.4419">
        <ele>1506</ele>
        <time>2022-07-17T08:43:11Z</time>
      </trkpt>
      <trkpt lat="45.19445" lon="6.4419">
        <ele>1506</ele>
        <time>2022-07-17T08:43:12Z</time>
      </trkpt>
      <trkpt lat="45.19437" lon="6.4419">
        <ele>1505.6</ele>
        <time>2022-07-17T08:43:13Z</time>
      </trkpt>
      <trkpt lat="45.1943" lon="6.4419">
        <ele>1505.4</ele>
        <time>2022-07-17T08:43:14Z</time>
      </trkpt>
      <trkpt lat="45.19423" lon="6.44191">
        <ele>1505.2</ele>
        <time>2022-07-17T08:43:15Z</time>
      </trkpt>
      <trkpt lat="45.19415" lon="6.4419">
        <ele>1505.2</ele>
        <time>2022-07-17T08:43:16Z</time>
      </trkpt>
      <trkpt lat="45.19408" lon="6.4419">
        <ele>1504.6</ele>
        <time>2022-07-17T08:43:17Z</time>
      </trkpt>
      <trkpt lat="45.19401" lon="6.44189">
        <ele>1504.4</ele>
        <time>2022-07-17T08:43:18Z</time>
      </trkpt>
      <trkpt lat="45.19394" lon="6.44186">
        <ele>1504.2</ele>
        <time>2022-07-17T08:43:19Z</time>
      </trkpt>
      <trkpt lat="45.19387" lon="6.44184">
        <ele>1504.2</ele>
        <time>2022-07-17T08:43:20Z</time>
      </trkpt>
      <trkpt lat="45.19381" lon="6.44182">
        <ele>1503.8</ele>
        <time>2022-07-17T08:43:21Z</time>
      </trkpt>
      <trkpt lat="45.19375" lon="6.44179">
        <ele>1503.8</ele>
        <time>2022-07-17T08:43:22Z</time>
      </trkpt>
      <trkpt lat="45.19369" lon="6.44177">
        <ele>1503.4</ele>
        <time>2022-07-17T08:43:23Z</time>
      </trkpt>
      <trkpt lat="45.19363" lon="6.44175">
        <ele>1503.4</ele>
        <time>2022-07-17T08:43:24Z</time>
      </trkpt>
      <trkpt lat="45.19357" lon="6.44172">
        <ele>1503.4</ele>
        <time>2022-07-17T08:43:25Z</time>
      </trkpt>
      <trkpt lat="45.19352" lon="6.4417">
        <ele>1503.4</ele>
        <time>2022-07-17T08:43:26Z</time>
      </trkpt>
      <trkpt lat="45.19345" lon="6.44168">
        <ele>1503</ele>
        <time>2022-07-17T08:43:27Z</time>
      </trkpt>
      <trkpt lat="45.19339" lon="6.44166">
        <ele>1502.6</ele>
        <time>2022-07-17T08:43:28Z</time>
      </trkpt>
      <trkpt lat="45.19333" lon="6.44163">
        <ele>1502.6</ele>
        <time>2022-07-17T08:43:29Z</time>
      </trkpt>
      <trkpt lat="45.19327" lon="6.4416">
        <ele>1502.4</ele>
        <time>2022-07-17T08:43:30Z</time>
      </trkpt>
      <trkpt lat="45.1932" lon="6.44155">
        <ele>1502.2</ele>
        <time>2022-07-17T08:43:31Z</time>
      </trkpt>
      <trkpt lat="45.19314" lon="6.44149">
        <ele>1501.8</ele>
        <time>2022-07-17T08:43:32Z</time>
      </trkpt>
      <trkpt lat="45.19308" lon="6.44144">
        <ele>1501.6</ele>
        <time>2022-07-17T08:43:33Z</time>
      </trkpt>
      <trkpt lat="45.19301" lon="6.44138">
        <ele>1501.4</ele>
        <time>2022-07-17T08:43:34Z</time>
      </trkpt>
      <trkpt lat="45.19295" lon="6.44131">
        <ele>1501.4</ele>
        <time>2022-07-17T08:43:35Z</time>
      </trkpt>
      <trkpt lat="45.19289" lon="6.44124">
        <ele>1501</ele>
        <time>2022-07-17T08:43:36Z</time>
      </trkpt>
      <trkpt lat="45.19283" lon="6.44116">
        <ele>1501</ele>
        <time>2022-07-17T08:43:37Z</time>
      </trkpt>
      <trkpt lat="45.19277" lon="6.44108">
        <ele>1501</ele>
        <time>2022-07-17T08:43:38Z</time>
      </trkpt>
      <trkpt lat="45.19271" lon="6.44101">
        <ele>1501</ele>
        <time>2022-07-17T08:43:39Z</time>
      </trkpt>
      <trkpt lat="45.19265" lon="6.44094">
        <ele>1500.8</ele>
        <time>2022-07-17T08:43:40Z</time>
      </trkpt>
      <trkpt lat="45.19258" lon="6.44089">
        <ele>1500.8</ele>
        <time>2022-07-17T08:43:41Z</time>
      </trkpt>
      <trkpt lat="45.19251" lon="6.44083">
        <ele>1500.4</ele>
        <time>2022-07-17T08:43:42Z</time>
      </trkpt>
      <trkpt lat="45.19243" lon="6.44079">
        <ele>1500.4</ele>
        <time>2022-07-17T08:43:43Z</time>
      </trkpt>
      <trkpt lat="45.19236" lon="6.44075">
        <ele>1500</ele>
        <time>2022-07-17T08:43:44Z</time>
      </trkpt>
      <trkpt lat="45.19228" lon="6.44071">
        <ele>1500</ele>
        <time>2022-07-17T08:43:45Z</time>
      </trkpt>
      <trkpt lat="45.19219" lon="6.44069">
        <ele>1499.6</ele>
        <time>2022-07-17T08:43:46Z</time>
      </trkpt>
      <trkpt lat="45.19211" lon="6.44068">
        <ele>1499.6</ele>
        <time>2022-07-17T08:43:47Z</time>
      </trkpt>
      <trkpt lat="45.19203" lon="6.44066">
        <ele>1499.2</ele>
        <time>2022-07-17T08:43:48Z</time>
      </trkpt>
      <trkpt lat="45.19194" lon="6.44065">
        <ele>1499</ele>
        <time>2022-07-17T08:43:49Z</time>
      </trkpt>
      <trkpt lat="45.19185" lon="6.44064">
        <ele>1499</ele>
        <time>2022-07-17T08:43:50Z</time>
      </trkpt>
      <trkpt lat="45.19177" lon="6.44063">
        <ele>1498.6</ele>
        <time>2022-07-17T08:43:51Z</time>
      </trkpt>
      <trkpt lat="45.19168" lon="6.44062">
        <ele>1498.4</ele>
        <time>2022-07-17T08:43:52Z</time>
      </trkpt>
      <trkpt lat="45.19159" lon="6.44061">
        <ele>1498</ele>
        <time>2022-07-17T08:43:53Z</time>
      </trkpt>
      <trkpt lat="45.19149" lon="6.44059">
        <ele>1497.8</ele>
        <time>2022-07-17T08:43:54Z</time>
      </trkpt>
      <trkpt lat="45.1914" lon="6.44056">
        <ele>1497.4</ele>
        <time>2022-07-17T08:43:55Z</time>
      </trkpt>
      <trkpt lat="45.1913" lon="6.44054">
        <ele>1497.4</ele>
        <time>2022-07-17T08:43:56Z</time>
      </trkpt>
      <trkpt lat="45.19121" lon="6.44051">
        <ele>1496.8</ele>
        <time>2022-07-17T08:43:57Z</time>
      </trkpt>
      <trkpt lat="45.19112" lon="6.44047">
        <ele>1496.6</ele>
        <time>2022-07-17T08:43:58Z</time>
      </trkpt>
      <trkpt lat="45.19103" lon="6.44044">
        <ele>1496.6</ele>
        <time>2022-07-17T08:43:59Z</time>
      </trkpt>
      <trkpt lat="45.19094" lon="6.44043">
        <ele>1496.2</ele>
        <time>2022-07-17T08:44:00Z</time>
      </trkpt>
      <trkpt lat="45.19086" lon="6.44042">
        <ele>1496.2</ele>
        <time>2022-07-17T08:44:01Z</time>
      </trkpt>
      <trkpt lat="45.19077" lon="6.44041">
        <ele>1495.8</ele>
        <time>2022-07-17T08:44:02Z</time>
      </trkpt>
      <trkpt lat="45.19068" lon="6.44041">
        <ele>1495.6</ele>
        <time>2022-07-17T08:44:03Z</time>
      </trkpt>
      <trkpt lat="45.1906" lon="6.44042">
        <ele>1495.2</ele>
        <time>2022-07-17T08:44:04Z</time>
      </trkpt>
      <trkpt lat="45.19052" lon="6.44042">
        <ele>1495</ele>
        <time>2022-07-17T08:44:05Z</time>
      </trkpt>
      <trkpt lat="45.19043" lon="6.44043">
        <ele>1495</ele>
        <time>2022-07-17T08:44:06Z</time>
      </trkpt>
      <trkpt lat="45.19035" lon="6.44044">
        <ele>1494.6</ele>
        <time>2022-07-17T08:44:07Z</time>
      </trkpt>
      <trkpt lat="45.19027" lon="6.44046">
        <ele>1494.4</ele>
        <time>2022-07-17T08:44:08Z</time>
      </trkpt>
      <trkpt lat="45.19019" lon="6.44048">
        <ele>1494.2</ele>
        <time>2022-07-17T08:44:09Z</time>
      </trkpt>
      <trkpt lat="45.19011" lon="6.4405">
        <ele>1494</ele>
        <time>2022-07-17T08:44:10Z</time>
      </trkpt>
      <trkpt lat="45.19003" lon="6.44052">
        <ele>1494</ele>
        <time>2022-07-17T08:44:11Z</time>
      </trkpt>
      <trkpt lat="45.18995" lon="6.44054">
        <ele>1493.6</ele>
        <time>2022-07-17T08:44:12Z</time>
      </trkpt>
      <trkpt lat="45.18987" lon="6.44054">
        <ele>1493.6</ele>
        <time>2022-07-17T08:44:13Z</time>
      </trkpt>
      <trkpt lat="45.18979" lon="6.44053">
        <ele>1493.4</ele>
        <time>2022-07-17T08:44:14Z</time>
      </trkpt>
      <trkpt lat="45.18971" lon="6.44053">
        <ele>1493.4</ele>
        <time>2022-07-17T08:44:15Z</time>
      </trkpt>
      <trkpt lat="45.18963" lon="6.44053">
        <ele>1493</ele>
        <time>2022-07-17T08:44:16Z</time>
      </trkpt>
      <trkpt lat="45.18955" lon="6.44051">
        <ele>1492.6</ele>
        <time>2022-07-17T08:44:17Z</time>
      </trkpt>
      <trkpt lat="45.18947" lon="6.44049">
        <ele>1492.4</ele>
        <time>2022-07-17T08:44:18Z</time>
      </trkpt>
      <trkpt lat="45.1894" lon="6.44046">
        <ele>1492.4</ele>
        <time>2022-07-17T08:44:19Z</time>
      </trkpt>
      <trkpt lat="45.18933" lon="6.44042">
        <ele>1492</ele>
        <time>2022-07-17T08:44:20Z</time>
      </trkpt>
      <trkpt lat="45.18927" lon="6.44038">
        <ele>1492</ele>
        <time>2022-07-17T08:44:21Z</time>
      </trkpt>
      <trkpt lat="45.1892" lon="6.44032">
        <ele>1491.6</ele>
        <time>2022-07-17T08:44:22Z</time>
      </trkpt>
      <trkpt lat="45.18913" lon="6.44026">
        <ele>1491.6</ele>
        <time>2022-07-17T08:44:23Z</time>
      </trkpt>
      <trkpt lat="45.18906" lon="6.4402">
        <ele>1491.6</ele>
        <time>2022-07-17T08:44:24Z</time>
      </trkpt>
      <trkpt lat="45.189" lon="6.44014">
        <ele>1491.4</ele>
        <time>2022-07-17T08:44:25Z</time>
      </trkpt>
      <trkpt lat="45.18893" lon="6.44008">
        <ele>1491.4</ele>
        <time>2022-07-17T08:44:26Z</time>
      </trkpt>
      <trkpt lat="45.18886" lon="6.44003">
        <ele>1491.4</ele>
        <time>2022-07-17T08:44:27Z</time>
      </trkpt>
      <trkpt lat="45.18879" lon="6.43998">
        <ele>1491.4</ele>
        <time>2022-07-17T08:44:28Z</time>
      </trkpt>
      <trkpt lat="45.18872" lon="6.43994">
        <ele>1491.4</ele>
        <time>2022-07-17T08:44:29Z</time>
      </trkpt>
      <trkpt lat="45.18865" lon="6.43991">
        <ele>1491.2</ele>
        <time>2022-07-17T08:44:30Z</time>
      </trkpt>
      <trkpt lat="45.18857" lon="6.43988">
        <ele>1491.2</ele>
        <time>2022-07-17T08:44:31Z</time>
      </trkpt>
      <trkpt lat="45.1885" lon="6.43986">
        <ele>1491.2</ele>
        <time>2022-07-17T08:44:32Z</time>
      </trkpt>
      <trkpt lat="45.18842" lon="6.43984">
        <ele>1491</ele>
        <time>2022-07-17T08:44:33Z</time>
      </trkpt>
      <trkpt lat="45.18835" lon="6.43981">
        <ele>1491</ele>
        <time>2022-07-17T08:44:34Z</time>
      </trkpt>
      <trkpt lat="45.18827" lon="6.43979">
        <ele>1490.8</ele>
        <time>2022-07-17T08:44:35Z</time>
      </trkpt>
      <trkpt lat="45.18819" lon="6.43977">
        <ele>1490.8</ele>
        <time>2022-07-17T08:44:36Z</time>
      </trkpt>
      <trkpt lat="45.18812" lon="6.43975">
        <ele>1490.4</ele>
        <time>2022-07-17T08:44:37Z</time>
      </trkpt>
      <trkpt lat="45.18804" lon="6.43972">
        <ele>1490.4</ele>
        <time>2022-07-17T08:44:38Z</time>
      </trkpt>
      <trkpt lat="45.18796" lon="6.4397">
        <ele>1490</ele>
        <time>2022-07-17T08:44:39Z</time>
      </trkpt>
      <trkpt lat="45.18788" lon="6.43967">
        <ele>1489.8</ele>
        <time>2022-07-17T08:44:40Z</time>
      </trkpt>
      <trkpt lat="45.18781" lon="6.43965">
        <ele>1489.8</ele>
        <time>2022-07-17T08:44:41Z</time>
      </trkpt>
      <trkpt lat="45.18773" lon="6.43963">
        <ele>1489.4</ele>
        <time>2022-07-17T08:44:42Z</time>
      </trkpt>
      <trkpt lat="45.18765" lon="6.4396">
        <ele>1489.4</ele>
        <time>2022-07-17T08:44:43Z</time>
      </trkpt>
      <trkpt lat="45.18758" lon="6.43958">
        <ele>1489.2</ele>
        <time>2022-07-17T08:44:44Z</time>
      </trkpt>
      <trkpt lat="45.1875" lon="6.43955">
        <ele>1489.2</ele>
        <time>2022-07-17T08:44:45Z</time>
      </trkpt>
      <trkpt lat="45.18742" lon="6.43953">
        <ele>1488.8</ele>
        <time>2022-07-17T08:44:46Z</time>
      </trkpt>
      <trkpt lat="45.18734" lon="6.4395">
        <ele>1488.8</ele>
        <time>2022-07-17T08:44:47Z</time>
      </trkpt>
      <trkpt lat="45.18727" lon="6.43948">
        <ele>1488.6</ele>
        <time>2022-07-17T08:44:48Z</time>
      </trkpt>
      <trkpt lat="45.18719" lon="6.43946">
        <ele>1488.6</ele>
        <time>2022-07-17T08:44:49Z</time>
      </trkpt>
      <trkpt lat="45.18711" lon="6.43945">
        <ele>1488.2</ele>
        <time>2022-07-17T08:44:50Z</time>
      </trkpt>
      <trkpt lat="45.18703" lon="6.43943">
        <ele>1488.2</ele>
        <time>2022-07-17T08:44:51Z</time>
      </trkpt>
      <trkpt lat="45.18696" lon="6.43942">
        <ele>1488</ele>
        <time>2022-07-17T08:44:52Z</time>
      </trkpt>
      <trkpt lat="45.18688" lon="6.43942">
        <ele>1488</ele>
        <time>2022-07-17T08:44:53Z</time>
      </trkpt>
      <trkpt lat="45.1868" lon="6.43942">
        <ele>1487.8</ele>
        <time>2022-07-17T08:44:54Z</time>
      </trkpt>
      <trkpt lat="45.18672" lon="6.43941">
        <ele>1487.8</ele>
        <time>2022-07-17T08:44:55Z</time>
      </trkpt>
      <trkpt lat="45.18665" lon="6.4394">
        <ele>1487.8</ele>
        <time>2022-07-17T08:44:56Z</time>
      </trkpt>
      <trkpt lat="45.18657" lon="6.43938">
        <ele>1487.8</ele>
        <time>2022-07-17T08:44:57Z</time>
      </trkpt>
      <trkpt lat="45.1865" lon="6.43935">
        <ele>1487.8</ele>
        <time>2022-07-17T08:44:58Z</time>
      </trkpt>
      <trkpt lat="45.18642" lon="6.43931">
        <ele>1487.6</ele>
        <time>2022-07-17T08:44:59Z</time>
      </trkpt>
      <trkpt lat="45.18635" lon="6.43928">
        <ele>1487.6</ele>
        <time>2022-07-17T08:45:00Z</time>
      </trkpt>
      <trkpt lat="45.18628" lon="6.43924">
        <ele>1487.6</ele>
        <time>2022-07-17T08:45:01Z</time>
      </trkpt>
      <trkpt lat="45.1862" lon="6.4392">
        <ele>1487.6</ele>
        <time>2022-07-17T08:45:02Z</time>
      </trkpt>
      <trkpt lat="45.18613" lon="6.43917">
        <ele>1487.6</ele>
        <time>2022-07-17T08:45:03Z</time>
      </trkpt>
      <trkpt lat="45.18606" lon="6.43913">
        <ele>1487.6</ele>
        <time>2022-07-17T08:45:04Z</time>
      </trkpt>
      <trkpt lat="45.18598" lon="6.43909">
        <ele>1487.4</ele>
        <time>2022-07-17T08:45:05Z</time>
      </trkpt>
      <trkpt lat="45.18591" lon="6.43905">
        <ele>1487.4</ele>
        <time>2022-07-17T08:45:06Z</time>
      </trkpt>
      <trkpt lat="45.18584" lon="6.43901">
        <ele>1487.4</ele>
        <time>2022-07-17T08:45:07Z</time>
      </trkpt>
      <trkpt lat="45.18577" lon="6.43896">
        <ele>1487.2</ele>
        <time>2022-07-17T08:45:08Z</time>
      </trkpt>
      <trkpt lat="45.1857" lon="6.43891">
        <ele>1487.2</ele>
        <time>2022-07-17T08:45:09Z</time>
      </trkpt>
      <trkpt lat="45.18564" lon="6.43885">
        <ele>1487.2</ele>
        <time>2022-07-17T08:45:10Z</time>
      </trkpt>
      <trkpt lat="45.18557" lon="6.43879">
        <ele>1487.2</ele>
        <time>2022-07-17T08:45:11Z</time>
      </trkpt>
      <trkpt lat="45.18551" lon="6.43873">
        <ele>1486.8</ele>
        <time>2022-07-17T08:45:12Z</time>
      </trkpt>
      <trkpt lat="45.18544" lon="6.43867">
        <ele>1486.8</ele>
        <time>2022-07-17T08:45:13Z</time>
      </trkpt>
      <trkpt lat="45.18538" lon="6.43861">
        <ele>1486.8</ele>
        <time>2022-07-17T08:45:14Z</time>
      </trkpt>
      <trkpt lat="45.18531" lon="6.43856">
        <ele>1486.6</ele>
        <time>2022-07-17T08:45:15Z</time>
      </trkpt>
      <trkpt lat="45.18523" lon="6.43852">
        <ele>1486.6</ele>
        <time>2022-07-17T08:45:16Z</time>
      </trkpt>
      <trkpt lat="45.18516" lon="6.43848">
        <ele>1486.6</ele>
        <time>2022-07-17T08:45:17Z</time>
      </trkpt>
      <trkpt lat="45.18508" lon="6.43845">
        <ele>1486.4</ele>
        <time>2022-07-17T08:45:18Z</time>
      </trkpt>
      <trkpt lat="45.18501" lon="6.43843">
        <ele>1486.4</ele>
        <time>2022-07-17T08:45:19Z</time>
      </trkpt>
      <trkpt lat="45.18494" lon="6.4384">
        <ele>1486.4</ele>
        <time>2022-07-17T08:45:20Z</time>
      </trkpt>
      <trkpt lat="45.18486" lon="6.43838">
        <ele>1486.2</ele>
        <time>2022-07-17T08:45:21Z</time>
      </trkpt>
      <trkpt lat="45.18479" lon="6.43836">
        <ele>1486.2</ele>
        <time>2022-07-17T08:45:22Z</time>
      </trkpt>
      <trkpt lat="45.18472" lon="6.43834">
        <ele>1486.2</ele>
        <time>2022-07-17T08:45:23Z</time>
      </trkpt>
      <trkpt lat="45.18465" lon="6.43833">
        <ele>1486.2</ele>
        <time>2022-07-17T08:45:24Z</time>
      </trkpt>
      <trkpt lat="45.18458" lon="6.43832">
        <ele>1486.2</ele>
        <time>2022-07-17T08:45:25Z</time>
      </trkpt>
      <trkpt lat="45.18451" lon="6.43833">
        <ele>1486.2</ele>
        <time>2022-07-17T08:45:26Z</time>
      </trkpt>
      <trkpt lat="45.18444" lon="6.43833">
        <ele>1486.2</ele>
        <time>2022-07-17T08:45:27Z</time>
      </trkpt>
      <trkpt lat="45.18437" lon="6.43834">
        <ele>1486.2</ele>
        <time>2022-07-17T08:45:28Z</time>
      </trkpt>
      <trkpt lat="45.1843" lon="6.43836">
        <ele>1485.8</ele>
        <time>2022-07-17T08:45:29Z</time>
      </trkpt>
      <trkpt lat="45.18423" lon="6.43837">
        <ele>1485.8</ele>
        <time>2022-07-17T08:45:30Z</time>
      </trkpt>
      <trkpt lat="45.18416" lon="6.43838">
        <ele>1485.8</ele>
        <time>2022-07-17T08:45:31Z</time>
      </trkpt>
      <trkpt lat="45.18408" lon="6.4384">
        <ele>1485.6</ele>
        <time>2022-07-17T08:45:32Z</time>
      </trkpt>
      <trkpt lat="45.18401" lon="6.43842">
        <ele>1485.6</ele>
        <time>2022-07-17T08:45:33Z</time>
      </trkpt>
      <trkpt lat="45.18394" lon="6.43844">
        <ele>1485.6</ele>
        <time>2022-07-17T08:45:34Z</time>
      </trkpt>
      <trkpt lat="45.18387" lon="6.43847">
        <ele>1485.6</ele>
        <time>2022-07-17T08:45:35Z</time>
      </trkpt>
      <trkpt lat="45.1838" lon="6.43851">
        <ele>1485.6</ele>
        <time>2022-07-17T08:45:36Z</time>
      </trkpt>
      <trkpt lat="45.18374" lon="6.43855">
        <ele>1485.6</ele>
        <time>2022-07-17T08:45:37Z</time>
      </trkpt>
      <trkpt lat="45.18368" lon="6.43861">
        <ele>1485.6</ele>
        <time>2022-07-17T08:45:38Z</time>
      </trkpt>
      <trkpt lat="45.18362" lon="6.43867">
        <ele>1485.6</ele>
        <time>2022-07-17T08:45:39Z</time>
      </trkpt>
      <trkpt lat="45.18357" lon="6.43873">
        <ele>1485.6</ele>
        <time>2022-07-17T08:45:40Z</time>
      </trkpt>
      <trkpt lat="45.18352" lon="6.43879">
        <ele>1485.6</ele>
        <time>2022-07-17T08:45:41Z</time>
      </trkpt>
      <trkpt lat="45.18346" lon="6.43885">
        <ele>1485.6</ele>
        <time>2022-07-17T08:45:42Z</time>
      </trkpt>
      <trkpt lat="45.18339" lon="6.4389">
        <ele>1485.6</ele>
        <time>2022-07-17T08:45:43Z</time>
      </trkpt>
      <trkpt lat="45.18332" lon="6.43893">
        <ele>1485.6</ele>
        <time>2022-07-17T08:45:44Z</time>
      </trkpt>
      <trkpt lat="45.18325" lon="6.43896">
        <ele>1485.6</ele>
        <time>2022-07-17T08:45:45Z</time>
      </trkpt>
      <trkpt lat="45.18318" lon="6.43897">
        <ele>1485.6</ele>
        <time>2022-07-17T08:45:46Z</time>
      </trkpt>
      <trkpt lat="45.18311" lon="6.43897">
        <ele>1485.4</ele>
        <time>2022-07-17T08:45:47Z</time>
      </trkpt>
      <trkpt lat="45.18303" lon="6.43896">
        <ele>1485.4</ele>
        <time>2022-07-17T08:45:48Z</time>
      </trkpt>
      <trkpt lat="45.18296" lon="6.43894">
        <ele>1485.4</ele>
        <time>2022-07-17T08:45:49Z</time>
      </trkpt>
      <trkpt lat="45.18288" lon="6.43892">
        <ele>1485</ele>
        <time>2022-07-17T08:45:50Z</time>
      </trkpt>
      <trkpt lat="45.18281" lon="6.4389">
        <ele>1485</ele>
        <time>2022-07-17T08:45:51Z</time>
      </trkpt>
      <trkpt lat="45.18273" lon="6.43888">
        <ele>1485</ele>
        <time>2022-07-17T08:45:52Z</time>
      </trkpt>
      <trkpt lat="45.18266" lon="6.43887">
        <ele>1485</ele>
        <time>2022-07-17T08:45:53Z</time>
      </trkpt>
      <trkpt lat="45.18258" lon="6.43887">
        <ele>1484.8</ele>
        <time>2022-07-17T08:45:54Z</time>
      </trkpt>
      <trkpt lat="45.18251" lon="6.43887">
        <ele>1484.8</ele>
        <time>2022-07-17T08:45:55Z</time>
      </trkpt>
      <trkpt lat="45.18243" lon="6.43889">
        <ele>1484.4</ele>
        <time>2022-07-17T08:45:56Z</time>
      </trkpt>
      <trkpt lat="45.18235" lon="6.43891">
        <ele>1484.2</ele>
        <time>2022-07-17T08:45:57Z</time>
      </trkpt>
      <trkpt lat="45.18228" lon="6.43895">
        <ele>1484</ele>
        <time>2022-07-17T08:45:58Z</time>
      </trkpt>
      <trkpt lat="45.1822" lon="6.43898">
        <ele>1483.8</ele>
        <time>2022-07-17T08:45:59Z</time>
      </trkpt>
      <trkpt lat="45.18211" lon="6.43902">
        <ele>1483.6</ele>
        <time>2022-07-17T08:46:00Z</time>
      </trkpt>
      <trkpt lat="45.18203" lon="6.43906">
        <ele>1483</ele>
        <time>2022-07-17T08:46:01Z</time>
      </trkpt>
      <trkpt lat="45.18194" lon="6.4391">
        <ele>1482.4</ele>
        <time>2022-07-17T08:46:02Z</time>
      </trkpt>
      <trkpt lat="45.18184" lon="6.43914">
        <ele>1482</ele>
        <time>2022-07-17T08:46:03Z</time>
      </trkpt>
      <trkpt lat="45.18175" lon="6.43918">
        <ele>1481.4</ele>
        <time>2022-07-17T08:46:04Z</time>
      </trkpt>
      <trkpt lat="45.18166" lon="6.43922">
        <ele>1481.2</ele>
        <time>2022-07-17T08:46:05Z</time>
      </trkpt>
      <trkpt lat="45.18157" lon="6.43926">
        <ele>1480.6</ele>
        <time>2022-07-17T08:46:06Z</time>
      </trkpt>
      <trkpt lat="45.18147" lon="6.4393">
        <ele>1480.2</ele>
        <time>2022-07-17T08:46:07Z</time>
      </trkpt>
      <trkpt lat="45.18138" lon="6.43935">
        <ele>1479.6</ele>
        <time>2022-07-17T08:46:08Z</time>
      </trkpt>
      <trkpt lat="45.18128" lon="6.4394">
        <ele>1479</ele>
        <time>2022-07-17T08:46:09Z</time>
      </trkpt>
      <trkpt lat="45.18119" lon="6.43945">
        <ele>1478.6</ele>
        <time>2022-07-17T08:46:10Z</time>
      </trkpt>
      <trkpt lat="45.18109" lon="6.4395">
        <ele>1477.8</ele>
        <time>2022-07-17T08:46:11Z</time>
      </trkpt>
      <trkpt lat="45.181" lon="6.43953">
        <ele>1477.4</ele>
        <time>2022-07-17T08:46:12Z</time>
      </trkpt>
      <trkpt lat="45.1809" lon="6.43956">
        <ele>1476.8</ele>
        <time>2022-07-17T08:46:13Z</time>
      </trkpt>
      <trkpt lat="45.18081" lon="6.43961">
        <ele>1476</ele>
        <time>2022-07-17T08:46:14Z</time>
      </trkpt>
      <trkpt lat="45.18072" lon="6.43964">
        <ele>1475.4</ele>
        <time>2022-07-17T08:46:15Z</time>
      </trkpt>
      <trkpt lat="45.18063" lon="6.43966">
        <ele>1474.8</ele>
        <time>2022-07-17T08:46:16Z</time>
      </trkpt>
      <trkpt lat="45.18054" lon="6.43966">
        <ele>1474.4</ele>
        <time>2022-07-17T08:46:17Z</time>
      </trkpt>
      <trkpt lat="45.18047" lon="6.43964">
        <ele>1473.8</ele>
        <time>2022-07-17T08:46:18Z</time>
      </trkpt>
      <trkpt lat="45.1804" lon="6.43957">
        <ele>1473.4</ele>
        <time>2022-07-17T08:46:19Z</time>
      </trkpt>
      <trkpt lat="45.18033" lon="6.43949">
        <ele>1473</ele>
        <time>2022-07-17T08:46:20Z</time>
      </trkpt>
      <trkpt lat="45.18025" lon="6.4394">
        <ele>1472.6</ele>
        <time>2022-07-17T08:46:21Z</time>
      </trkpt>
      <trkpt lat="45.18016" lon="6.43933">
        <ele>1472</ele>
        <time>2022-07-17T08:46:22Z</time>
      </trkpt>
      <trkpt lat="45.18006" lon="6.43929">
        <ele>1471.6</ele>
        <time>2022-07-17T08:46:23Z</time>
      </trkpt>
      <trkpt lat="45.17996" lon="6.43926">
        <ele>1471</ele>
        <time>2022-07-17T08:46:24Z</time>
      </trkpt>
      <trkpt lat="45.17985" lon="6.43926">
        <ele>1470.6</ele>
        <time>2022-07-17T08:46:25Z</time>
      </trkpt>
      <trkpt lat="45.17974" lon="6.43926">
        <ele>1470</ele>
        <time>2022-07-17T08:46:26Z</time>
      </trkpt>
      <trkpt lat="45.17963" lon="6.43927">
        <ele>1469.2</ele>
        <time>2022-07-17T08:46:27Z</time>
      </trkpt>
      <trkpt lat="45.17951" lon="6.43927">
        <ele>1468.6</ele>
        <time>2022-07-17T08:46:28Z</time>
      </trkpt>
      <trkpt lat="45.17939" lon="6.43928">
        <ele>1467.8</ele>
        <time>2022-07-17T08:46:29Z</time>
      </trkpt>
      <trkpt lat="45.17928" lon="6.43927">
        <ele>1467.2</ele>
        <time>2022-07-17T08:46:30Z</time>
      </trkpt>
      <trkpt lat="45.17916" lon="6.43926">
        <ele>1466.4</ele>
        <time>2022-07-17T08:46:31Z</time>
      </trkpt>
      <trkpt lat="45.17905" lon="6.43924">
        <ele>1465.8</ele>
        <time>2022-07-17T08:46:32Z</time>
      </trkpt>
      <trkpt lat="45.17893" lon="6.43922">
        <ele>1465.2</ele>
        <time>2022-07-17T08:46:33Z</time>
      </trkpt>
      <trkpt lat="45.17883" lon="6.43921">
        <ele>1464.6</ele>
        <time>2022-07-17T08:46:34Z</time>
      </trkpt>
      <trkpt lat="45.17872" lon="6.43919">
        <ele>1464</ele>
        <time>2022-07-17T08:46:35Z</time>
      </trkpt>
      <trkpt lat="45.17861" lon="6.43918">
        <ele>1463.4</ele>
        <time>2022-07-17T08:46:36Z</time>
      </trkpt>
      <trkpt lat="45.17851" lon="6.43913">
        <ele>1462.8</ele>
        <time>2022-07-17T08:46:37Z</time>
      </trkpt>
      <trkpt lat="45.17842" lon="6.43906">
        <ele>1462.2</ele>
        <time>2022-07-17T08:46:38Z</time>
      </trkpt>
      <trkpt lat="45.17832" lon="6.439">
        <ele>1461.6</ele>
        <time>2022-07-17T08:46:39Z</time>
      </trkpt>
      <trkpt lat="45.17822" lon="6.43889">
        <ele>1461</ele>
        <time>2022-07-17T08:46:40Z</time>
      </trkpt>
      <trkpt lat="45.17815" lon="6.43875">
        <ele>1460.4</ele>
        <time>2022-07-17T08:46:41Z</time>
      </trkpt>
      <trkpt lat="45.17806" lon="6.43864">
        <ele>1459.6</ele>
        <time>2022-07-17T08:46:42Z</time>
      </trkpt>
      <trkpt lat="45.17797" lon="6.43852">
        <ele>1458.8</ele>
        <time>2022-07-17T08:46:43Z</time>
      </trkpt>
      <trkpt lat="45.17788" lon="6.43841">
        <ele>1458.2</ele>
        <time>2022-07-17T08:46:44Z</time>
      </trkpt>
      <trkpt lat="45.1778" lon="6.4383">
        <ele>1457.6</ele>
        <time>2022-07-17T08:46:45Z</time>
      </trkpt>
      <trkpt lat="45.17772" lon="6.43819">
        <ele>1457</ele>
        <time>2022-07-17T08:46:46Z</time>
      </trkpt>
      <trkpt lat="45.17764" lon="6.43809">
        <ele>1456.2</ele>
        <time>2022-07-17T08:46:47Z</time>
      </trkpt>
      <trkpt lat="45.17756" lon="6.43798">
        <ele>1455.8</ele>
        <time>2022-07-17T08:46:48Z</time>
      </trkpt>
      <trkpt lat="45.17749" lon="6.43787">
        <ele>1455.2</ele>
        <time>2022-07-17T08:46:49Z</time>
      </trkpt>
      <trkpt lat="45.17741" lon="6.43775">
        <ele>1454.4</ele>
        <time>2022-07-17T08:46:50Z</time>
      </trkpt>
      <trkpt lat="45.17732" lon="6.43762">
        <ele>1453.6</ele>
        <time>2022-07-17T08:46:51Z</time>
      </trkpt>
      <trkpt lat="45.17724" lon="6.43748">
        <ele>1453</ele>
        <time>2022-07-17T08:46:52Z</time>
      </trkpt>
      <trkpt lat="45.17717" lon="6.43735">
        <ele>1452.4</ele>
        <time>2022-07-17T08:46:53Z</time>
      </trkpt>
      <trkpt lat="45.1771" lon="6.43718">
        <ele>1451.6</ele>
        <time>2022-07-17T08:46:54Z</time>
      </trkpt>
      <trkpt lat="45.17706" lon="6.43703">
        <ele>1451</ele>
        <time>2022-07-17T08:46:55Z</time>
      </trkpt>
      <trkpt lat="45.17702" lon="6.43688">
        <ele>1450.4</ele>
        <time>2022-07-17T08:46:56Z</time>
      </trkpt>
      <trkpt lat="45.177" lon="6.43671">
        <ele>1449.8</ele>
        <time>2022-07-17T08:46:57Z</time>
      </trkpt>
      <trkpt lat="45.17696" lon="6.43653">
        <ele>1449.2</ele>
        <time>2022-07-17T08:46:58Z</time>
      </trkpt>
      <trkpt lat="45.17693" lon="6.43637">
        <ele>1448.6</ele>
        <time>2022-07-17T08:46:59Z</time>
      </trkpt>
      <trkpt lat="45.1769" lon="6.4362">
        <ele>1448</ele>
        <time>2022-07-17T08:47:00Z</time>
      </trkpt>
      <trkpt lat="45.17687" lon="6.43604">
        <ele>1447.4</ele>
        <time>2022-07-17T08:47:01Z</time>
      </trkpt>
      <trkpt lat="45.17684" lon="6.43589">
        <ele>1446.6</ele>
        <time>2022-07-17T08:47:02Z</time>
      </trkpt>
      <trkpt lat="45.17682" lon="6.43575">
        <ele>1445.8</ele>
        <time>2022-07-17T08:47:03Z</time>
      </trkpt>
      <trkpt lat="45.1768" lon="6.4356">
        <ele>1445</ele>
        <time>2022-07-17T08:47:04Z</time>
      </trkpt>
      <trkpt lat="45.1768" lon="6.43545">
        <ele>1444.4</ele>
        <time>2022-07-17T08:47:05Z</time>
      </trkpt>
      <trkpt lat="45.1768" lon="6.43531">
        <ele>1443.6</ele>
        <time>2022-07-17T08:47:06Z</time>
      </trkpt>
      <trkpt lat="45.1768" lon="6.43516">
        <ele>1442.8</ele>
        <time>2022-07-17T08:47:07Z</time>
      </trkpt>
      <trkpt lat="45.17679" lon="6.43499">
        <ele>1442</ele>
        <time>2022-07-17T08:47:08Z</time>
      </trkpt>
      <trkpt lat="45.17678" lon="6.43483">
        <ele>1441.4</ele>
        <time>2022-07-17T08:47:09Z</time>
      </trkpt>
      <trkpt lat="45.17676" lon="6.43466">
        <ele>1440.8</ele>
        <time>2022-07-17T08:47:10Z</time>
      </trkpt>
      <trkpt lat="45.17675" lon="6.43452">
        <ele>1440.4</ele>
        <time>2022-07-17T08:47:11Z</time>
      </trkpt>
      <trkpt lat="45.17674" lon="6.4344">
        <ele>1439.8</ele>
        <time>2022-07-17T08:47:12Z</time>
      </trkpt>
      <trkpt lat="45.17672" lon="6.4343">
        <ele>1439.2</ele>
        <time>2022-07-17T08:47:13Z</time>
      </trkpt>
      <trkpt lat="45.17668" lon="6.4342">
        <ele>1438.8</ele>
        <time>2022-07-17T08:47:14Z</time>
      </trkpt>
      <trkpt lat="45.17663" lon="6.43411">
        <ele>1438.6</ele>
        <time>2022-07-17T08:47:15Z</time>
      </trkpt>
      <trkpt lat="45.17655" lon="6.43407">
        <ele>1438</ele>
        <time>2022-07-17T08:47:16Z</time>
      </trkpt>
      <trkpt lat="45.17646" lon="6.43403">
        <ele>1437.4</ele>
        <time>2022-07-17T08:47:17Z</time>
      </trkpt>
      <trkpt lat="45.17636" lon="6.434">
        <ele>1436.6</ele>
        <time>2022-07-17T08:47:18Z</time>
      </trkpt>
      <trkpt lat="45.17625" lon="6.43397">
        <ele>1435.8</ele>
        <time>2022-07-17T08:47:19Z</time>
      </trkpt>
      <trkpt lat="45.17613" lon="6.43394">
        <ele>1434.8</ele>
        <time>2022-07-17T08:47:20Z</time>
      </trkpt>
      <trkpt lat="45.17603" lon="6.43389">
        <ele>1434</ele>
        <time>2022-07-17T08:47:21Z</time>
      </trkpt>
      <trkpt lat="45.17592" lon="6.43381">
        <ele>1433</ele>
        <time>2022-07-17T08:47:22Z</time>
      </trkpt>
      <trkpt lat="45.17582" lon="6.4337">
        <ele>1432.2</ele>
        <time>2022-07-17T08:47:23Z</time>
      </trkpt>
      <trkpt lat="45.17573" lon="6.43357">
        <ele>1431.4</ele>
        <time>2022-07-17T08:47:24Z</time>
      </trkpt>
      <trkpt lat="45.17564" lon="6.43345">
        <ele>1430.8</ele>
        <time>2022-07-17T08:47:25Z</time>
      </trkpt>
      <trkpt lat="45.17555" lon="6.43333">
        <ele>1430.2</ele>
        <time>2022-07-17T08:47:26Z</time>
      </trkpt>
      <trkpt lat="45.17545" lon="6.43323">
        <ele>1429.8</ele>
        <time>2022-07-17T08:47:27Z</time>
      </trkpt>
      <trkpt lat="45.17535" lon="6.43315">
        <ele>1429.2</ele>
        <time>2022-07-17T08:47:28Z</time>
      </trkpt>
      <trkpt lat="45.17523" lon="6.43309">
        <ele>1428.8</ele>
        <time>2022-07-17T08:47:29Z</time>
      </trkpt>
      <trkpt lat="45.17512" lon="6.43306">
        <ele>1428.2</ele>
        <time>2022-07-17T08:47:30Z</time>
      </trkpt>
      <trkpt lat="45.17499" lon="6.43303">
        <ele>1427.4</ele>
        <time>2022-07-17T08:47:31Z</time>
      </trkpt>
      <trkpt lat="45.17487" lon="6.43301">
        <ele>1426.8</ele>
        <time>2022-07-17T08:47:32Z</time>
      </trkpt>
      <trkpt lat="45.17474" lon="6.43299">
        <ele>1426.4</ele>
        <time>2022-07-17T08:47:33Z</time>
      </trkpt>
      <trkpt lat="45.17461" lon="6.43297">
        <ele>1425.8</ele>
        <time>2022-07-17T08:47:34Z</time>
      </trkpt>
      <trkpt lat="45.1745" lon="6.43294">
        <ele>1425</ele>
        <time>2022-07-17T08:47:35Z</time>
      </trkpt>
      <trkpt lat="45.17437" lon="6.43291">
        <ele>1424.4</ele>
        <time>2022-07-17T08:47:36Z</time>
      </trkpt>
      <trkpt lat="45.17426" lon="6.43288">
        <ele>1423.8</ele>
        <time>2022-07-17T08:47:37Z</time>
      </trkpt>
      <trkpt lat="45.17415" lon="6.43284">
        <ele>1423.2</ele>
        <time>2022-07-17T08:47:38Z</time>
      </trkpt>
      <trkpt lat="45.17403" lon="6.4328">
        <ele>1422.6</ele>
        <time>2022-07-17T08:47:39Z</time>
      </trkpt>
      <trkpt lat="45.17392" lon="6.43277">
        <ele>1421.6</ele>
        <time>2022-07-17T08:47:40Z</time>
      </trkpt>
      <trkpt lat="45.17381" lon="6.43275">
        <ele>1420.8</ele>
        <time>2022-07-17T08:47:41Z</time>
      </trkpt>
      <trkpt lat="45.17372" lon="6.43273">
        <ele>1420</ele>
        <time>2022-07-17T08:47:42Z</time>
      </trkpt>
      <trkpt lat="45.17362" lon="6.43272">
        <ele>1419.4</ele>
        <time>2022-07-17T08:47:43Z</time>
      </trkpt>
      <trkpt lat="45.17353" lon="6.43272">
        <ele>1418.6</ele>
        <time>2022-07-17T08:47:44Z</time>
      </trkpt>
      <trkpt lat="45.17344" lon="6.43275">
        <ele>1418</ele>
        <time>2022-07-17T08:47:45Z</time>
      </trkpt>
      <trkpt lat="45.17334" lon="6.4328">
        <ele>1417.4</ele>
        <time>2022-07-17T08:47:46Z</time>
      </trkpt>
      <trkpt lat="45.17324" lon="6.43286">
        <ele>1417</ele>
        <time>2022-07-17T08:47:47Z</time>
      </trkpt>
      <trkpt lat="45.17315" lon="6.43291">
        <ele>1416.4</ele>
        <time>2022-07-17T08:47:48Z</time>
      </trkpt>
      <trkpt lat="45.17305" lon="6.43297">
        <ele>1415.8</ele>
        <time>2022-07-17T08:47:49Z</time>
      </trkpt>
      <trkpt lat="45.17296" lon="6.43305">
        <ele>1415.4</ele>
        <time>2022-07-17T08:47:50Z</time>
      </trkpt>
      <trkpt lat="45.17287" lon="6.43315">
        <ele>1414.8</ele>
        <time>2022-07-17T08:47:51Z</time>
      </trkpt>
      <trkpt lat="45.17279" lon="6.43327">
        <ele>1414.4</ele>
        <time>2022-07-17T08:47:52Z</time>
      </trkpt>
      <trkpt lat="45.17272" lon="6.4334">
        <ele>1413.6</ele>
        <time>2022-07-17T08:47:53Z</time>
      </trkpt>
      <trkpt lat="45.17265" lon="6.43352">
        <ele>1413</ele>
        <time>2022-07-17T08:47:54Z</time>
      </trkpt>
      <trkpt lat="45.17258" lon="6.43362">
        <ele>1412.4</ele>
        <time>2022-07-17T08:47:55Z</time>
      </trkpt>
      <trkpt lat="45.17251" lon="6.43371">
        <ele>1411.8</ele>
        <time>2022-07-17T08:47:56Z</time>
      </trkpt>
      <trkpt lat="45.17243" lon="6.43378">
        <ele>1411</ele>
        <time>2022-07-17T08:47:57Z</time>
      </trkpt>
      <trkpt lat="45.17233" lon="6.43383">
        <ele>1410.4</ele>
        <time>2022-07-17T08:47:58Z</time>
      </trkpt>
      <trkpt lat="45.17222" lon="6.43384">
        <ele>1409.6</ele>
        <time>2022-07-17T08:47:59Z</time>
      </trkpt>
      <trkpt lat="45.17211" lon="6.43385">
        <ele>1409</ele>
        <time>2022-07-17T08:48:00Z</time>
      </trkpt>
      <trkpt lat="45.172" lon="6.43386">
        <ele>1408.4</ele>
        <time>2022-07-17T08:48:01Z</time>
      </trkpt>
      <trkpt lat="45.1719" lon="6.43387">
        <ele>1407.6</ele>
        <time>2022-07-17T08:48:02Z</time>
      </trkpt>
      <trkpt lat="45.1718" lon="6.43388">
        <ele>1407</ele>
        <time>2022-07-17T08:48:03Z</time>
      </trkpt>
      <trkpt lat="45.1717" lon="6.4339">
        <ele>1406.4</ele>
        <time>2022-07-17T08:48:04Z</time>
      </trkpt>
      <trkpt lat="45.1716" lon="6.43392">
        <ele>1405.8</ele>
        <time>2022-07-17T08:48:05Z</time>
      </trkpt>
      <trkpt lat="45.1715" lon="6.43396">
        <ele>1405.4</ele>
        <time>2022-07-17T08:48:06Z</time>
      </trkpt>
      <trkpt lat="45.1714" lon="6.43401">
        <ele>1404.8</ele>
        <time>2022-07-17T08:48:07Z</time>
      </trkpt>
      <trkpt lat="45.1713" lon="6.43405">
        <ele>1404.2</ele>
        <time>2022-07-17T08:48:08Z</time>
      </trkpt>
      <trkpt lat="45.1712" lon="6.43409">
        <ele>1403.6</ele>
        <time>2022-07-17T08:48:09Z</time>
      </trkpt>
      <trkpt lat="45.1711" lon="6.43412">
        <ele>1403</ele>
        <time>2022-07-17T08:48:10Z</time>
      </trkpt>
      <trkpt lat="45.17099" lon="6.43412">
        <ele>1402.6</ele>
        <time>2022-07-17T08:48:11Z</time>
      </trkpt>
      <trkpt lat="45.17089" lon="6.43412">
        <ele>1402.2</ele>
        <time>2022-07-17T08:48:12Z</time>
      </trkpt>
      <trkpt lat="45.17079" lon="6.43411">
        <ele>1401.8</ele>
        <time>2022-07-17T08:48:13Z</time>
      </trkpt>
      <trkpt lat="45.1707" lon="6.4341">
        <ele>1401.2</ele>
        <time>2022-07-17T08:48:14Z</time>
      </trkpt>
      <trkpt lat="45.17061" lon="6.43409">
        <ele>1400.6</ele>
        <time>2022-07-17T08:48:15Z</time>
      </trkpt>
      <trkpt lat="45.17052" lon="6.43409">
        <ele>1400.2</ele>
        <time>2022-07-17T08:48:16Z</time>
      </trkpt>
      <trkpt lat="45.17043" lon="6.43411">
        <ele>1399.6</ele>
        <time>2022-07-17T08:48:17Z</time>
      </trkpt>
      <trkpt lat="45.17032" lon="6.43414">
        <ele>1399</ele>
        <time>2022-07-17T08:48:18Z</time>
      </trkpt>
      <trkpt lat="45.17023" lon="6.43422">
        <ele>1398.4</ele>
        <time>2022-07-17T08:48:19Z</time>
      </trkpt>
      <trkpt lat="45.17014" lon="6.43431">
        <ele>1397.8</ele>
        <time>2022-07-17T08:48:20Z</time>
      </trkpt>
      <trkpt lat="45.17004" lon="6.4344">
        <ele>1397.2</ele>
        <time>2022-07-17T08:48:21Z</time>
      </trkpt>
      <trkpt lat="45.16995" lon="6.43449">
        <ele>1396.6</ele>
        <time>2022-07-17T08:48:22Z</time>
      </trkpt>
      <trkpt lat="45.16986" lon="6.43459">
        <ele>1395.8</ele>
        <time>2022-07-17T08:48:23Z</time>
      </trkpt>
      <trkpt lat="45.16979" lon="6.43468">
        <ele>1395.2</ele>
        <time>2022-07-17T08:48:24Z</time>
      </trkpt>
      <trkpt lat="45.1697" lon="6.43476">
        <ele>1394.8</ele>
        <time>2022-07-17T08:48:25Z</time>
      </trkpt>
      <trkpt lat="45.1696" lon="6.43481">
        <ele>1394.2</ele>
        <time>2022-07-17T08:48:26Z</time>
      </trkpt>
      <trkpt lat="45.1695" lon="6.43481">
        <ele>1393.6</ele>
        <time>2022-07-17T08:48:27Z</time>
      </trkpt>
      <trkpt lat="45.16939" lon="6.43479">
        <ele>1393.2</ele>
        <time>2022-07-17T08:48:28Z</time>
      </trkpt>
      <trkpt lat="45.16929" lon="6.43475">
        <ele>1392.6</ele>
        <time>2022-07-17T08:48:29Z</time>
      </trkpt>
      <trkpt lat="45.16919" lon="6.43469">
        <ele>1392.2</ele>
        <time>2022-07-17T08:48:30Z</time>
      </trkpt>
      <trkpt lat="45.1691" lon="6.43462">
        <ele>1391.6</ele>
        <time>2022-07-17T08:48:31Z</time>
      </trkpt>
      <trkpt lat="45.169" lon="6.43456">
        <ele>1390.8</ele>
        <time>2022-07-17T08:48:32Z</time>
      </trkpt>
      <trkpt lat="45.16891" lon="6.43451">
        <ele>1390.4</ele>
        <time>2022-07-17T08:48:33Z</time>
      </trkpt>
      <trkpt lat="45.1688" lon="6.43446">
        <ele>1389.8</ele>
        <time>2022-07-17T08:48:34Z</time>
      </trkpt>
      <trkpt lat="45.1687" lon="6.43442">
        <ele>1389.4</ele>
        <time>2022-07-17T08:48:35Z</time>
      </trkpt>
      <trkpt lat="45.1686" lon="6.4344">
        <ele>1388.8</ele>
        <time>2022-07-17T08:48:36Z</time>
      </trkpt>
      <trkpt lat="45.1685" lon="6.4344">
        <ele>1388.2</ele>
        <time>2022-07-17T08:48:37Z</time>
      </trkpt>
      <trkpt lat="45.1684" lon="6.43442">
        <ele>1387.8</ele>
        <time>2022-07-17T08:48:38Z</time>
      </trkpt>
      <trkpt lat="45.16829" lon="6.43445">
        <ele>1387.2</ele>
        <time>2022-07-17T08:48:39Z</time>
      </trkpt>
      <trkpt lat="45.16818" lon="6.43446">
        <ele>1386.6</ele>
        <time>2022-07-17T08:48:40Z</time>
      </trkpt>
      <trkpt lat="45.16808" lon="6.43446">
        <ele>1386</ele>
        <time>2022-07-17T08:48:41Z</time>
      </trkpt>
      <trkpt lat="45.16798" lon="6.43444">
        <ele>1385.4</ele>
        <time>2022-07-17T08:48:42Z</time>
      </trkpt>
      <trkpt lat="45.16788" lon="6.4344">
        <ele>1384.8</ele>
        <time>2022-07-17T08:48:43Z</time>
      </trkpt>
      <trkpt lat="45.16777" lon="6.43436">
        <ele>1384.2</ele>
        <time>2022-07-17T08:48:44Z</time>
      </trkpt>
      <trkpt lat="45.16768" lon="6.43431">
        <ele>1383.8</ele>
        <time>2022-07-17T08:48:45Z</time>
      </trkpt>
      <trkpt lat="45.16758" lon="6.43423">
        <ele>1383.2</ele>
        <time>2022-07-17T08:48:46Z</time>
      </trkpt>
      <trkpt lat="45.1675" lon="6.43416">
        <ele>1382.8</ele>
        <time>2022-07-17T08:48:47Z</time>
      </trkpt>
      <trkpt lat="45.16741" lon="6.43409">
        <ele>1382.4</ele>
        <time>2022-07-17T08:48:48Z</time>
      </trkpt>
      <trkpt lat="45.16733" lon="6.43402">
        <ele>1382</ele>
        <time>2022-07-17T08:48:49Z</time>
      </trkpt>
      <trkpt lat="45.16725" lon="6.43393">
        <ele>1381.4</ele>
        <time>2022-07-17T08:48:50Z</time>
      </trkpt>
      <trkpt lat="45.16717" lon="6.43385">
        <ele>1381</ele>
        <time>2022-07-17T08:48:51Z</time>
      </trkpt>
      <trkpt lat="45.16708" lon="6.43376">
        <ele>1380.4</ele>
        <time>2022-07-17T08:48:52Z</time>
      </trkpt>
      <trkpt lat="45.16701" lon="6.43366">
        <ele>1380</ele>
        <time>2022-07-17T08:48:53Z</time>
      </trkpt>
      <trkpt lat="45.16696" lon="6.43355">
        <ele>1379.2</ele>
        <time>2022-07-17T08:48:54Z</time>
      </trkpt>
      <trkpt lat="45.1669" lon="6.43342">
        <ele>1378.8</ele>
        <time>2022-07-17T08:48:55Z</time>
      </trkpt>
      <trkpt lat="45.16686" lon="6.4333">
        <ele>1378</ele>
        <time>2022-07-17T08:48:56Z</time>
      </trkpt>
      <trkpt lat="45.1668" lon="6.43318">
        <ele>1377.6</ele>
        <time>2022-07-17T08:48:57Z</time>
      </trkpt>
      <trkpt lat="45.16674" lon="6.43307">
        <ele>1377</ele>
        <time>2022-07-17T08:48:58Z</time>
      </trkpt>
      <trkpt lat="45.16667" lon="6.43297">
        <ele>1376.4</ele>
        <time>2022-07-17T08:48:59Z</time>
      </trkpt>
      <trkpt lat="45.16658" lon="6.43289">
        <ele>1375.8</ele>
        <time>2022-07-17T08:49:00Z</time>
      </trkpt>
      <trkpt lat="45.16648" lon="6.43283">
        <ele>1375</ele>
        <time>2022-07-17T08:49:01Z</time>
      </trkpt>
      <trkpt lat="45.16639" lon="6.43277">
        <ele>1374.6</ele>
        <time>2022-07-17T08:49:02Z</time>
      </trkpt>
      <trkpt lat="45.16629" lon="6.43271">
        <ele>1373.8</ele>
        <time>2022-07-17T08:49:03Z</time>
      </trkpt>
      <trkpt lat="45.16619" lon="6.43265">
        <ele>1373.2</ele>
        <time>2022-07-17T08:49:04Z</time>
      </trkpt>
      <trkpt lat="45.16611" lon="6.4326">
        <ele>1372.6</ele>
        <time>2022-07-17T08:49:05Z</time>
      </trkpt>
      <trkpt lat="45.16602" lon="6.43255">
        <ele>1372</ele>
        <time>2022-07-17T08:49:06Z</time>
      </trkpt>
      <trkpt lat="45.16594" lon="6.4325">
        <ele>1371.4</ele>
        <time>2022-07-17T08:49:07Z</time>
      </trkpt>
      <trkpt lat="45.16586" lon="6.43245">
        <ele>1370.8</ele>
        <time>2022-07-17T08:49:08Z</time>
      </trkpt>
      <trkpt lat="45.16578" lon="6.4324">
        <ele>1370</ele>
        <time>2022-07-17T08:49:09Z</time>
      </trkpt>
      <trkpt lat="45.16569" lon="6.43235">
        <ele>1369.6</ele>
        <time>2022-07-17T08:49:10Z</time>
      </trkpt>
      <trkpt lat="45.16562" lon="6.4323">
        <ele>1369</ele>
        <time>2022-07-17T08:49:11Z</time>
      </trkpt>
      <trkpt lat="45.16554" lon="6.43226">
        <ele>1368.4</ele>
        <time>2022-07-17T08:49:12Z</time>
      </trkpt>
      <trkpt lat="45.16548" lon="6.43221">
        <ele>1368</ele>
        <time>2022-07-17T08:49:13Z</time>
      </trkpt>
      <trkpt lat="45.16542" lon="6.43216">
        <ele>1367.4</ele>
        <time>2022-07-17T08:49:14Z</time>
      </trkpt>
      <trkpt lat="45.16537" lon="6.43211">
        <ele>1367</ele>
        <time>2022-07-17T08:49:15Z</time>
      </trkpt>
      <trkpt lat="45.16533" lon="6.43206">
        <ele>1366.6</ele>
        <time>2022-07-17T08:49:16Z</time>
      </trkpt>
      <trkpt lat="45.16529" lon="6.432">
        <ele>1366.4</ele>
        <time>2022-07-17T08:49:17Z</time>
      </trkpt>
      <trkpt lat="45.16526" lon="6.43193">
        <ele>1366.2</ele>
        <time>2022-07-17T08:49:18Z</time>
      </trkpt>
      <trkpt lat="45.16523" lon="6.43187">
        <ele>1365.8</ele>
        <time>2022-07-17T08:49:19Z</time>
      </trkpt>
      <trkpt lat="45.16521" lon="6.43179">
        <ele>1365.6</ele>
        <time>2022-07-17T08:49:20Z</time>
      </trkpt>
      <trkpt lat="45.16521" lon="6.43172">
        <ele>1365.4</ele>
        <time>2022-07-17T08:49:21Z</time>
      </trkpt>
      <trkpt lat="45.16521" lon="6.43164">
        <ele>1365</ele>
        <time>2022-07-17T08:49:22Z</time>
      </trkpt>
      <trkpt lat="45.16523" lon="6.43156">
        <ele>1364.8</ele>
        <time>2022-07-17T08:49:23Z</time>
      </trkpt>
      <trkpt lat="45.16525" lon="6.43148">
        <ele>1364.8</ele>
        <time>2022-07-17T08:49:24Z</time>
      </trkpt>
      <trkpt lat="45.16528" lon="6.4314">
        <ele>1364.4</ele>
        <time>2022-07-17T08:49:25Z</time>
      </trkpt>
      <trkpt lat="45.1653" lon="6.43131">
        <ele>1364.4</ele>
        <time>2022-07-17T08:49:26Z</time>
      </trkpt>
      <trkpt lat="45.16532" lon="6.43122">
        <ele>1364.2</ele>
        <time>2022-07-17T08:49:27Z</time>
      </trkpt>
      <trkpt lat="45.16535" lon="6.43113">
        <ele>1363.8</ele>
        <time>2022-07-17T08:49:28Z</time>
      </trkpt>
      <trkpt lat="45.16537" lon="6.43105">
        <ele>1363.8</ele>
        <time>2022-07-17T08:49:29Z</time>
      </trkpt>
      <trkpt lat="45.16538" lon="6.43096">
        <ele>1363.6</ele>
        <time>2022-07-17T08:49:30Z</time>
      </trkpt>
      <trkpt lat="45.1654" lon="6.43087">
        <ele>1363.6</ele>
        <time>2022-07-17T08:49:31Z</time>
      </trkpt>
      <trkpt lat="45.16541" lon="6.43079">
        <ele>1363.2</ele>
        <time>2022-07-17T08:49:32Z</time>
      </trkpt>
      <trkpt lat="45.16543" lon="6.4307">
        <ele>1363.2</ele>
        <time>2022-07-17T08:49:33Z</time>
      </trkpt>
      <trkpt lat="45.16544" lon="6.43062">
        <ele>1363</ele>
        <time>2022-07-17T08:49:35Z</time>
      </trkpt>
      <trkpt lat="45.16545" lon="6.43054">
        <ele>1363</ele>
        <time>2022-07-17T08:49:36Z</time>
      </trkpt>
      <trkpt lat="45.16547" lon="6.43046">
        <ele>1363</ele>
        <time>2022-07-17T08:49:37Z</time>
      </trkpt>
      <trkpt lat="45.16548" lon="6.43039">
        <ele>1362.8</ele>
        <time>2022-07-17T08:49:38Z</time>
      </trkpt>
      <trkpt lat="45.16549" lon="6.43032">
        <ele>1362.8</ele>
        <time>2022-07-17T08:49:39Z</time>
      </trkpt>
      <trkpt lat="45.1655" lon="6.43025">
        <ele>1362.8</ele>
        <time>2022-07-17T08:49:40Z</time>
      </trkpt>
      <trkpt lat="45.16551" lon="6.4302">
        <ele>1362.8</ele>
        <time>2022-07-17T08:49:41Z</time>
      </trkpt>
      <trkpt lat="45.16553" lon="6.43009">
        <ele>1362.8</ele>
        <time>2022-07-17T08:49:42Z</time>
      </trkpt>
      <trkpt lat="45.16553" lon="6.43004">
        <ele>1362.8</ele>
        <time>2022-07-17T08:49:43Z</time>
      </trkpt>
      <trkpt lat="45.16554" lon="6.43">
        <ele>1362.4</ele>
        <time>2022-07-17T08:49:44Z</time>
      </trkpt>
      <trkpt lat="45.16554" lon="6.42995">
        <ele>1362.4</ele>
        <time>2022-07-17T08:49:45Z</time>
      </trkpt>
      <trkpt lat="45.16555" lon="6.42991">
        <ele>1362.4</ele>
        <time>2022-07-17T08:49:46Z</time>
      </trkpt>
      <trkpt lat="45.16556" lon="6.42987">
        <ele>1362.4</ele>
        <time>2022-07-17T08:49:47Z</time>
      </trkpt>
      <trkpt lat="45.16557" lon="6.42982">
        <ele>1362.4</ele>
        <time>2022-07-17T08:49:48Z</time>
      </trkpt>
      <trkpt lat="45.16558" lon="6.42977">
        <ele>1362.4</ele>
        <time>2022-07-17T08:49:49Z</time>
      </trkpt>
      <trkpt lat="45.16559" lon="6.42972">
        <ele>1362.4</ele>
        <time>2022-07-17T08:49:50Z</time>
      </trkpt>
      <trkpt lat="45.1656" lon="6.42967">
        <ele>1362.4</ele>
        <time>2022-07-17T08:49:51Z</time>
      </trkpt>
      <trkpt lat="45.16561" lon="6.42962">
        <ele>1362.4</ele>
        <time>2022-07-17T08:49:52Z</time>
      </trkpt>
      <trkpt lat="45.16563" lon="6.42957">
        <ele>1362.4</ele>
        <time>2022-07-17T08:49:53Z</time>
      </trkpt>
      <trkpt lat="45.16565" lon="6.42954">
        <ele>1362.2</ele>
        <time>2022-07-17T08:49:54Z</time>
      </trkpt>
      <trkpt lat="45.16567" lon="6.42952">
        <ele>1362.2</ele>
        <time>2022-07-17T08:49:55Z</time>
      </trkpt>
      <trkpt lat="45.1657" lon="6.42952">
        <ele>1362.2</ele>
        <time>2022-07-17T08:49:56Z</time>
      </trkpt>
      <trkpt lat="45.16572" lon="6.42952">
        <ele>1361.8</ele>
        <time>2022-07-17T08:49:57Z</time>
      </trkpt>
      <trkpt lat="45.16573" lon="6.42951">
        <ele>1361.8</ele>
        <time>2022-07-17T08:49:58Z</time>
      </trkpt>
      <trkpt lat="45.16574" lon="6.4295">
        <ele>1361.6</ele>
        <time>2022-07-17T08:49:59Z</time>
      </trkpt>
      <trkpt lat="45.16574" lon="6.42949">
        <ele>1361.6</ele>
        <time>2022-07-17T08:50:00Z</time>
      </trkpt>
      <trkpt lat="45.16574" lon="6.42946">
        <ele>1361.4</ele>
        <time>2022-07-17T08:50:06Z</time>
      </trkpt>
      <trkpt lat="45.16573" lon="6.42944">
        <ele>1361.4</ele>
        <time>2022-07-17T08:50:07Z</time>
      </trkpt>
      <trkpt lat="45.16572" lon="6.42943">
        <ele>1361.4</ele>
        <time>2022-07-17T08:50:08Z</time>
      </trkpt>
      <trkpt lat="45.16571" lon="6.42942">
        <ele>1361.4</ele>
        <time>2022-07-17T08:50:09Z</time>
      </trkpt>
      <trkpt lat="45.16569" lon="6.42941">
        <ele>1361.6</ele>
        <time>2022-07-17T08:50:10Z</time>
      </trkpt>
      <trkpt lat="45.16568" lon="6.42941">
        <ele>1361.6</ele>
        <time>2022-07-17T08:50:11Z</time>
      </trkpt>
      <trkpt lat="45.16567" lon="6.42939">
        <ele>1361.6</ele>
        <time>2022-07-17T08:50:12Z</time>
      </trkpt>
      <trkpt lat="45.16566" lon="6.42937">
        <ele>1361.6</ele>
        <time>2022-07-17T08:50:13Z</time>
      </trkpt>
      <trkpt lat="45.16565" lon="6.42935">
        <ele>1362</ele>
        <time>2022-07-17T08:50:14Z</time>
      </trkpt>
      <trkpt lat="45.16564" lon="6.42933">
        <ele>1362</ele>
        <time>2022-07-17T08:50:15Z</time>
      </trkpt>
      <trkpt lat="45.16564" lon="6.4293">
        <ele>1362</ele>
        <time>2022-07-17T08:50:16Z</time>
      </trkpt>
      <trkpt lat="45.16563" lon="6.42928">
        <ele>1362</ele>
        <time>2022-07-17T08:50:17Z</time>
      </trkpt>
      <trkpt lat="45.16563" lon="6.42926">
        <ele>1362.2</ele>
        <time>2022-07-17T08:50:18Z</time>
      </trkpt>
      <trkpt lat="45.16562" lon="6.42923">
        <ele>1362.2</ele>
        <time>2022-07-17T08:50:19Z</time>
      </trkpt>
      <trkpt lat="45.16562" lon="6.4292">
        <ele>1362.4</ele>
        <time>2022-07-17T08:50:20Z</time>
      </trkpt>
      <trkpt lat="45.16562" lon="6.42918">
        <ele>1362.4</ele>
        <time>2022-07-17T08:50:21Z</time>
      </trkpt>
      <trkpt lat="45.16561" lon="6.42915">
        <ele>1362.4</ele>
        <time>2022-07-17T08:50:22Z</time>
      </trkpt>
      <trkpt lat="45.16561" lon="6.42913">
        <ele>1362.8</ele>
        <time>2022-07-17T08:50:23Z</time>
      </trkpt>
      <trkpt lat="45.16561" lon="6.4291">
        <ele>1362.8</ele>
        <time>2022-07-17T08:50:24Z</time>
      </trkpt>
      <trkpt lat="45.16562" lon="6.42908">
        <ele>1362.8</ele>
        <time>2022-07-17T08:50:25Z</time>
      </trkpt>
      <trkpt lat="45.16563" lon="6.42905">
        <ele>1363</ele>
        <time>2022-07-17T08:50:26Z</time>
      </trkpt>
      <trkpt lat="45.16564" lon="6.42903">
        <ele>1363</ele>
        <time>2022-07-17T08:50:27Z</time>
      </trkpt>
      <trkpt lat="45.16564" lon="6.42901">
        <ele>1363</ele>
        <time>2022-07-17T08:50:28Z</time>
      </trkpt>
      <trkpt lat="45.16564" lon="6.429">
        <ele>1363</ele>
        <time>2022-07-17T08:50:29Z</time>
      </trkpt>
      <trkpt lat="45.16564" lon="6.42899">
        <ele>1363</ele>
        <time>2022-07-17T08:50:30Z</time>
      </trkpt>
      <trkpt lat="45.16562" lon="6.42886">
        <ele>1363.4</ele>
        <time>2022-07-17T08:51:18Z</time>
      </trkpt>
      <trkpt lat="45.16562" lon="6.42885">
        <ele>1363.4</ele>
        <time>2022-07-17T08:51:19Z</time>
      </trkpt>
      <trkpt lat="45.16562" lon="6.42884">
        <ele>1363.4</ele>
        <time>2022-07-17T08:51:20Z</time>
      </trkpt>
      <trkpt lat="45.16563" lon="6.42883">
        <ele>1363.4</ele>
        <time>2022-07-17T08:51:21Z</time>
      </trkpt>
      <trkpt lat="45.16557" lon="6.42879">
        <ele>1362.8</ele>
        <time>2022-07-17T09:04:08Z</time>
      </trkpt>
      <trkpt lat="45.16556" lon="6.42877">
        <ele>1362.8</ele>
        <time>2022-07-17T09:04:09Z</time>
      </trkpt>
      <trkpt lat="45.16555" lon="6.42875">
        <ele>1362.8</ele>
        <time>2022-07-17T09:04:10Z</time>
      </trkpt>
      <trkpt lat="45.16554" lon="6.42872">
        <ele>1362.8</ele>
        <time>2022-07-17T09:04:11Z</time>
      </trkpt>
      <trkpt lat="45.16554" lon="6.4287">
        <ele>1362.8</ele>
        <time>2022-07-17T09:04:12Z</time>
      </trkpt>
      <trkpt lat="45.16554" lon="6.42867">
        <ele>1362.8</ele>
        <time>2022-07-17T09:04:13Z</time>
      </trkpt>
      <trkpt lat="45.16554" lon="6.42865">
        <ele>1362.8</ele>
        <time>2022-07-17T09:04:14Z</time>
      </trkpt>
      <trkpt lat="45.16555" lon="6.42862">
        <ele>1362.8</ele>
        <time>2022-07-17T09:04:15Z</time>
      </trkpt>
      <trkpt lat="45.16555" lon="6.4286">
        <ele>1363</ele>
        <time>2022-07-17T09:04:16Z</time>
      </trkpt>
      <trkpt lat="45.16556" lon="6.42858">
        <ele>1363</ele>
        <time>2022-07-17T09:04:17Z</time>
      </trkpt>
      <trkpt lat="45.16556" lon="6.42856">
        <ele>1363</ele>
        <time>2022-07-17T09:04:18Z</time>
      </trkpt>
      <trkpt lat="45.16557" lon="6.42853">
        <ele>1363.2</ele>
        <time>2022-07-17T09:04:19Z</time>
      </trkpt>
      <trkpt lat="45.16558" lon="6.42851">
        <ele>1363.2</ele>
        <time>2022-07-17T09:04:20Z</time>
      </trkpt>
      <trkpt lat="45.16559" lon="6.42848">
        <ele>1363.2</ele>
        <time>2022-07-17T09:04:21Z</time>
      </trkpt>
      <trkpt lat="45.16559" lon="6.42844">
        <ele>1363.6</ele>
        <time>2022-07-17T09:04:22Z</time>
      </trkpt>
      <trkpt lat="45.1656" lon="6.4284">
        <ele>1363.6</ele>
        <time>2022-07-17T09:04:23Z</time>
      </trkpt>
      <trkpt lat="45.16561" lon="6.42836">
        <ele>1363.6</ele>
        <time>2022-07-17T09:04:24Z</time>
      </trkpt>
      <trkpt lat="45.16562" lon="6.42832">
        <ele>1363.8</ele>
        <time>2022-07-17T09:04:25Z</time>
      </trkpt>
      <trkpt lat="45.16563" lon="6.42828">
        <ele>1363.8</ele>
        <time>2022-07-17T09:04:26Z</time>
      </trkpt>
      <trkpt lat="45.16564" lon="6.42824">
        <ele>1364</ele>
        <time>2022-07-17T09:04:27Z</time>
      </trkpt>
      <trkpt lat="45.16565" lon="6.4282">
        <ele>1364</ele>
        <time>2022-07-17T09:04:28Z</time>
      </trkpt>
      <trkpt lat="45.16565" lon="6.42817">
        <ele>1364.2</ele>
        <time>2022-07-17T09:04:29Z</time>
      </trkpt>
      <trkpt lat="45.16566" lon="6.42814">
        <ele>1364.2</ele>
        <time>2022-07-17T09:04:30Z</time>
      </trkpt>
      <trkpt lat="45.16567" lon="6.4281">
        <ele>1364.4</ele>
        <time>2022-07-17T09:04:31Z</time>
      </trkpt>
      <trkpt lat="45.16568" lon="6.42806">
        <ele>1364.4</ele>
        <time>2022-07-17T09:04:32Z</time>
      </trkpt>
      <trkpt lat="45.16569" lon="6.42802">
        <ele>1364.8</ele>
        <time>2022-07-17T09:04:33Z</time>
      </trkpt>
      <trkpt lat="45.16571" lon="6.42798">
        <ele>1364.8</ele>
        <time>2022-07-17T09:04:34Z</time>
      </trkpt>
      <trkpt lat="45.16572" lon="6.42794">
        <ele>1365.2</ele>
        <time>2022-07-17T09:04:35Z</time>
      </trkpt>
      <trkpt lat="45.16573" lon="6.42789">
        <ele>1365.2</ele>
        <time>2022-07-17T09:04:36Z</time>
      </trkpt>
      <trkpt lat="45.16574" lon="6.42784">
        <ele>1365.4</ele>
        <time>2022-07-17T09:04:37Z</time>
      </trkpt>
      <trkpt lat="45.16576" lon="6.4278">
        <ele>1365.8</ele>
        <time>2022-07-17T09:04:38Z</time>
      </trkpt>
      <trkpt lat="45.16577" lon="6.42775">
        <ele>1366</ele>
        <time>2022-07-17T09:04:39Z</time>
      </trkpt>
      <trkpt lat="45.16578" lon="6.42771">
        <ele>1366</ele>
        <time>2022-07-17T09:04:40Z</time>
      </trkpt>
      <trkpt lat="45.16579" lon="6.42766">
        <ele>1366.2</ele>
        <time>2022-07-17T09:04:41Z</time>
      </trkpt>
      <trkpt lat="45.1658" lon="6.42762">
        <ele>1366.2</ele>
        <time>2022-07-17T09:04:42Z</time>
      </trkpt>
      <trkpt lat="45.16581" lon="6.42757">
        <ele>1366.6</ele>
        <time>2022-07-17T09:04:43Z</time>
      </trkpt>
      <trkpt lat="45.16582" lon="6.42752">
        <ele>1366.6</ele>
        <time>2022-07-17T09:04:44Z</time>
      </trkpt>
      <trkpt lat="45.16583" lon="6.42747">
        <ele>1366.8</ele>
        <time>2022-07-17T09:04:45Z</time>
      </trkpt>
      <trkpt lat="45.16583" lon="6.42743">
        <ele>1366.8</ele>
        <time>2022-07-17T09:04:46Z</time>
      </trkpt>
      <trkpt lat="45.16582" lon="6.42738">
        <ele>1367</ele>
        <time>2022-07-17T09:04:47Z</time>
      </trkpt>
      <trkpt lat="45.16581" lon="6.42735">
        <ele>1367</ele>
        <time>2022-07-17T09:04:48Z</time>
      </trkpt>
      <trkpt lat="45.1658" lon="6.42731">
        <ele>1367.4</ele>
        <time>2022-07-17T09:04:49Z</time>
      </trkpt>
      <trkpt lat="45.16578" lon="6.42727">
        <ele>1367.4</ele>
        <time>2022-07-17T09:04:50Z</time>
      </trkpt>
      <trkpt lat="45.16577" lon="6.42723">
        <ele>1367.6</ele>
        <time>2022-07-17T09:04:51Z</time>
      </trkpt>
      <trkpt lat="45.16576" lon="6.4272">
        <ele>1367.8</ele>
        <time>2022-07-17T09:04:52Z</time>
      </trkpt>
      <trkpt lat="45.16574" lon="6.42716">
        <ele>1367.8</ele>
        <time>2022-07-17T09:04:53Z</time>
      </trkpt>
      <trkpt lat="45.16573" lon="6.42714">
        <ele>1368.2</ele>
        <time>2022-07-17T09:04:54Z</time>
      </trkpt>
      <trkpt lat="45.16571" lon="6.42711">
        <ele>1368.2</ele>
        <time>2022-07-17T09:04:55Z</time>
      </trkpt>
      <trkpt lat="45.1657" lon="6.42708">
        <ele>1368.4</ele>
        <time>2022-07-17T09:04:56Z</time>
      </trkpt>
      <trkpt lat="45.16568" lon="6.42705">
        <ele>1368.4</ele>
        <time>2022-07-17T09:04:57Z</time>
      </trkpt>
      <trkpt lat="45.16566" lon="6.42703">
        <ele>1368.8</ele>
        <time>2022-07-17T09:04:58Z</time>
      </trkpt>
      <trkpt lat="45.16565" lon="6.427">
        <ele>1368.8</ele>
        <time>2022-07-17T09:04:59Z</time>
      </trkpt>
      <trkpt lat="45.16563" lon="6.42698">
        <ele>1369</ele>
        <time>2022-07-17T09:05:00Z</time>
      </trkpt>
      <trkpt lat="45.16561" lon="6.42695">
        <ele>1369.2</ele>
        <time>2022-07-17T09:05:01Z</time>
      </trkpt>
      <trkpt lat="45.16559" lon="6.42692">
        <ele>1369.2</ele>
        <time>2022-07-17T09:05:02Z</time>
      </trkpt>
      <trkpt lat="45.16557" lon="6.42689">
        <ele>1369.6</ele>
        <time>2022-07-17T09:05:03Z</time>
      </trkpt>
      <trkpt lat="45.16555" lon="6.42687">
        <ele>1369.6</ele>
        <time>2022-07-17T09:05:04Z</time>
      </trkpt>
      <trkpt lat="45.16554" lon="6.42684">
        <ele>1370</ele>
        <time>2022-07-17T09:05:05Z</time>
      </trkpt>
      <trkpt lat="45.16552" lon="6.42681">
        <ele>1370.2</ele>
        <time>2022-07-17T09:05:06Z</time>
      </trkpt>
      <trkpt lat="45.16551" lon="6.42678">
        <ele>1370.4</ele>
        <time>2022-07-17T09:05:07Z</time>
      </trkpt>
      <trkpt lat="45.16549" lon="6.42675">
        <ele>1370.4</ele>
        <time>2022-07-17T09:05:08Z</time>
      </trkpt>
      <trkpt lat="45.16547" lon="6.42672">
        <ele>1370.8</ele>
        <time>2022-07-17T09:05:09Z</time>
      </trkpt>
      <trkpt lat="45.16546" lon="6.4267">
        <ele>1370.8</ele>
        <time>2022-07-17T09:05:10Z</time>
      </trkpt>
      <trkpt lat="45.16544" lon="6.42667">
        <ele>1371.2</ele>
        <time>2022-07-17T09:05:11Z</time>
      </trkpt>
      <trkpt lat="45.16542" lon="6.42665">
        <ele>1371.2</ele>
        <time>2022-07-17T09:05:12Z</time>
      </trkpt>
      <trkpt lat="45.16541" lon="6.42662">
        <ele>1371.4</ele>
        <time>2022-07-17T09:05:13Z</time>
      </trkpt>
      <trkpt lat="45.16539" lon="6.4266">
        <ele>1371.4</ele>
        <time>2022-07-17T09:05:14Z</time>
      </trkpt>
      <trkpt lat="45.16537" lon="6.42657">
        <ele>1371.8</ele>
        <time>2022-07-17T09:05:15Z</time>
      </trkpt>
      <trkpt lat="45.16535" lon="6.42655">
        <ele>1371.8</ele>
        <time>2022-07-17T09:05:16Z</time>
      </trkpt>
      <trkpt lat="45.16533" lon="6.42652">
        <ele>1372</ele>
        <time>2022-07-17T09:05:17Z</time>
      </trkpt>
      <trkpt lat="45.16532" lon="6.4265">
        <ele>1372.4</ele>
        <time>2022-07-17T09:05:18Z</time>
      </trkpt>
      <trkpt lat="45.1653" lon="6.42647">
        <ele>1372.6</ele>
        <time>2022-07-17T09:05:19Z</time>
      </trkpt>
      <trkpt lat="45.16529" lon="6.42645">
        <ele>1372.6</ele>
        <time>2022-07-17T09:05:20Z</time>
      </trkpt>
      <trkpt lat="45.16527" lon="6.42642">
        <ele>1373</ele>
        <time>2022-07-17T09:05:21Z</time>
      </trkpt>
      <trkpt lat="45.16526" lon="6.42639">
        <ele>1373</ele>
        <time>2022-07-17T09:05:22Z</time>
      </trkpt>
      <trkpt lat="45.16524" lon="6.42637">
        <ele>1373.2</ele>
        <time>2022-07-17T09:05:23Z</time>
      </trkpt>
      <trkpt lat="45.16522" lon="6.42635">
        <ele>1373.2</ele>
        <time>2022-07-17T09:05:24Z</time>
      </trkpt>
      <trkpt lat="45.1652" lon="6.42633">
        <ele>1373.6</ele>
        <time>2022-07-17T09:05:25Z</time>
      </trkpt>
      <trkpt lat="45.16519" lon="6.4263">
        <ele>1373.8</ele>
        <time>2022-07-17T09:05:26Z</time>
      </trkpt>
      <trkpt lat="45.16517" lon="6.42627">
        <ele>1374</ele>
        <time>2022-07-17T09:05:27Z</time>
      </trkpt>
      <trkpt lat="45.16515" lon="6.42625">
        <ele>1374</ele>
        <time>2022-07-17T09:05:28Z</time>
      </trkpt>
      <trkpt lat="45.16514" lon="6.42622">
        <ele>1374.4</ele>
        <time>2022-07-17T09:05:29Z</time>
      </trkpt>
      <trkpt lat="45.16512" lon="6.4262">
        <ele>1374.4</ele>
        <time>2022-07-17T09:05:30Z</time>
      </trkpt>
      <trkpt lat="45.1651" lon="6.42617">
        <ele>1374.6</ele>
        <time>2022-07-17T09:05:31Z</time>
      </trkpt>
      <trkpt lat="45.16509" lon="6.42615">
        <ele>1374.6</ele>
        <time>2022-07-17T09:05:32Z</time>
      </trkpt>
      <trkpt lat="45.16507" lon="6.42612">
        <ele>1375</ele>
        <time>2022-07-17T09:05:33Z</time>
      </trkpt>
      <trkpt lat="45.16505" lon="6.42611">
        <ele>1375</ele>
        <time>2022-07-17T09:05:34Z</time>
      </trkpt>
      <trkpt lat="45.16503" lon="6.42608">
        <ele>1375.2</ele>
        <time>2022-07-17T09:05:35Z</time>
      </trkpt>
      <trkpt lat="45.16502" lon="6.42606">
        <ele>1375.2</ele>
        <time>2022-07-17T09:05:36Z</time>
      </trkpt>
      <trkpt lat="45.165" lon="6.42604">
        <ele>1375.6</ele>
        <time>2022-07-17T09:05:37Z</time>
      </trkpt>
      <trkpt lat="45.16499" lon="6.42602">
        <ele>1375.6</ele>
        <time>2022-07-17T09:05:38Z</time>
      </trkpt>
      <trkpt lat="45.16497" lon="6.42599">
        <ele>1375.8</ele>
        <time>2022-07-17T09:05:39Z</time>
      </trkpt>
      <trkpt lat="45.16496" lon="6.42596">
        <ele>1375.8</ele>
        <time>2022-07-17T09:05:40Z</time>
      </trkpt>
      <trkpt lat="45.16494" lon="6.42594">
        <ele>1376.2</ele>
        <time>2022-07-17T09:05:41Z</time>
      </trkpt>
      <trkpt lat="45.16493" lon="6.42591">
        <ele>1376.2</ele>
        <time>2022-07-17T09:05:42Z</time>
      </trkpt>
      <trkpt lat="45.16492" lon="6.42588">
        <ele>1376.6</ele>
        <time>2022-07-17T09:05:43Z</time>
      </trkpt>
      <trkpt lat="45.1649" lon="6.42586">
        <ele>1376.8</ele>
        <time>2022-07-17T09:05:44Z</time>
      </trkpt>
      <trkpt lat="45.16489" lon="6.42583">
        <ele>1376.8</ele>
        <time>2022-07-17T09:05:45Z</time>
      </trkpt>
      <trkpt lat="45.16488" lon="6.4258">
        <ele>1377</ele>
        <time>2022-07-17T09:05:46Z</time>
      </trkpt>
      <trkpt lat="45.16487" lon="6.42576">
        <ele>1377.4</ele>
        <time>2022-07-17T09:05:47Z</time>
      </trkpt>
      <trkpt lat="45.16486" lon="6.42574">
        <ele>1377.6</ele>
        <time>2022-07-17T09:05:48Z</time>
      </trkpt>
      <trkpt lat="45.16485" lon="6.42571">
        <ele>1377.6</ele>
        <time>2022-07-17T09:05:49Z</time>
      </trkpt>
      <trkpt lat="45.16484" lon="6.42567">
        <ele>1377.8</ele>
        <time>2022-07-17T09:05:50Z</time>
      </trkpt>
      <trkpt lat="45.16483" lon="6.42564">
        <ele>1377.8</ele>
        <time>2022-07-17T09:05:51Z</time>
      </trkpt>
      <trkpt lat="45.16482" lon="6.42561">
        <ele>1378.2</ele>
        <time>2022-07-17T09:05:52Z</time>
      </trkpt>
      <trkpt lat="45.16482" lon="6.42557">
        <ele>1378.2</ele>
        <time>2022-07-17T09:05:53Z</time>
      </trkpt>
      <trkpt lat="45.16481" lon="6.42554">
        <ele>1378.4</ele>
        <time>2022-07-17T09:05:54Z</time>
      </trkpt>
      <trkpt lat="45.1648" lon="6.4255">
        <ele>1378.4</ele>
        <time>2022-07-17T09:05:55Z</time>
      </trkpt>
      <trkpt lat="45.16479" lon="6.42547">
        <ele>1378.8</ele>
        <time>2022-07-17T09:05:56Z</time>
      </trkpt>
      <trkpt lat="45.16478" lon="6.42543">
        <ele>1378.8</ele>
        <time>2022-07-17T09:05:57Z</time>
      </trkpt>
      <trkpt lat="45.16477" lon="6.42539">
        <ele>1379</ele>
        <time>2022-07-17T09:05:58Z</time>
      </trkpt>
      <trkpt lat="45.16476" lon="6.42535">
        <ele>1379</ele>
        <time>2022-07-17T09:05:59Z</time>
      </trkpt>
      <trkpt lat="45.16475" lon="6.42532">
        <ele>1379.4</ele>
        <time>2022-07-17T09:06:00Z</time>
      </trkpt>
      <trkpt lat="45.16474" lon="6.42528">
        <ele>1379.4</ele>
        <time>2022-07-17T09:06:01Z</time>
      </trkpt>
      <trkpt lat="45.16473" lon="6.42525">
        <ele>1379.8</ele>
        <time>2022-07-17T09:06:02Z</time>
      </trkpt>
      <trkpt lat="45.16471" lon="6.42522">
        <ele>1379.8</ele>
        <time>2022-07-17T09:06:03Z</time>
      </trkpt>
      <trkpt lat="45.1647" lon="6.42519">
        <ele>1380</ele>
        <time>2022-07-17T09:06:04Z</time>
      </trkpt>
      <trkpt lat="45.16469" lon="6.42516">
        <ele>1380</ele>
        <time>2022-07-17T09:06:05Z</time>
      </trkpt>
      <trkpt lat="45.16468" lon="6.42513">
        <ele>1380.4</ele>
        <time>2022-07-17T09:06:06Z</time>
      </trkpt>
      <trkpt lat="45.16466" lon="6.42511">
        <ele>1380.4</ele>
        <time>2022-07-17T09:06:07Z</time>
      </trkpt>
      <trkpt lat="45.16465" lon="6.42508">
        <ele>1380.6</ele>
        <time>2022-07-17T09:06:08Z</time>
      </trkpt>
      <trkpt lat="45.16463" lon="6.42505">
        <ele>1380.8</ele>
        <time>2022-07-17T09:06:09Z</time>
      </trkpt>
      <trkpt lat="45.16462" lon="6.42502">
        <ele>1380.8</ele>
        <time>2022-07-17T09:06:10Z</time>
      </trkpt>
      <trkpt lat="45.1646" lon="6.425">
        <ele>1381.2</ele>
        <time>2022-07-17T09:06:11Z</time>
      </trkpt>
      <trkpt lat="45.16458" lon="6.42497">
        <ele>1381.2</ele>
        <time>2022-07-17T09:06:12Z</time>
      </trkpt>
      <trkpt lat="45.16456" lon="6.42494">
        <ele>1381.4</ele>
        <time>2022-07-17T09:06:13Z</time>
      </trkpt>
      <trkpt lat="45.16454" lon="6.42491">
        <ele>1381.4</ele>
        <time>2022-07-17T09:06:14Z</time>
      </trkpt>
      <trkpt lat="45.16452" lon="6.42489">
        <ele>1381.8</ele>
        <time>2022-07-17T09:06:15Z</time>
      </trkpt>
      <trkpt lat="45.1645" lon="6.42486">
        <ele>1381.8</ele>
        <time>2022-07-17T09:06:16Z</time>
      </trkpt>
      <trkpt lat="45.16448" lon="6.42484">
        <ele>1382.2</ele>
        <time>2022-07-17T09:06:17Z</time>
      </trkpt>
      <trkpt lat="45.16446" lon="6.42482">
        <ele>1382.2</ele>
        <time>2022-07-17T09:06:18Z</time>
      </trkpt>
      <trkpt lat="45.16444" lon="6.4248">
        <ele>1382.4</ele>
        <time>2022-07-17T09:06:19Z</time>
      </trkpt>
      <trkpt lat="45.16442" lon="6.42478">
        <ele>1382.4</ele>
        <time>2022-07-17T09:06:20Z</time>
      </trkpt>
      <trkpt lat="45.1644" lon="6.42476">
        <ele>1382.8</ele>
        <time>2022-07-17T09:06:21Z</time>
      </trkpt>
      <trkpt lat="45.16437" lon="6.42474">
        <ele>1383</ele>
        <time>2022-07-17T09:06:22Z</time>
      </trkpt>
      <trkpt lat="45.16435" lon="6.42472">
        <ele>1383</ele>
        <time>2022-07-17T09:06:23Z</time>
      </trkpt>
      <trkpt lat="45.16433" lon="6.42471">
        <ele>1383.2</ele>
        <time>2022-07-17T09:06:24Z</time>
      </trkpt>
      <trkpt lat="45.1643" lon="6.42469">
        <ele>1383.2</ele>
        <time>2022-07-17T09:06:25Z</time>
      </trkpt>
      <trkpt lat="45.16429" lon="6.42467">
        <ele>1383.6</ele>
        <time>2022-07-17T09:06:26Z</time>
      </trkpt>
      <trkpt lat="45.16427" lon="6.42464">
        <ele>1383.6</ele>
        <time>2022-07-17T09:06:27Z</time>
      </trkpt>
      <trkpt lat="45.16426" lon="6.42461">
        <ele>1383.8</ele>
        <time>2022-07-17T09:06:28Z</time>
      </trkpt>
      <trkpt lat="45.16424" lon="6.42457">
        <ele>1383.8</ele>
        <time>2022-07-17T09:06:29Z</time>
      </trkpt>
      <trkpt lat="45.16422" lon="6.42455">
        <ele>1384.2</ele>
        <time>2022-07-17T09:06:30Z</time>
      </trkpt>
      <trkpt lat="45.1642" lon="6.42453">
        <ele>1384.4</ele>
        <time>2022-07-17T09:06:31Z</time>
      </trkpt>
      <trkpt lat="45.16418" lon="6.42451">
        <ele>1384.4</ele>
        <time>2022-07-17T09:06:32Z</time>
      </trkpt>
      <trkpt lat="45.16416" lon="6.4245">
        <ele>1384.6</ele>
        <time>2022-07-17T09:06:33Z</time>
      </trkpt>
      <trkpt lat="45.16413" lon="6.42449">
        <ele>1384.6</ele>
        <time>2022-07-17T09:06:34Z</time>
      </trkpt>
      <trkpt lat="45.16411" lon="6.42447">
        <ele>1385</ele>
        <time>2022-07-17T09:06:35Z</time>
      </trkpt>
      <trkpt lat="45.16409" lon="6.42445">
        <ele>1385</ele>
        <time>2022-07-17T09:06:36Z</time>
      </trkpt>
      <trkpt lat="45.16408" lon="6.42442">
        <ele>1385.4</ele>
        <time>2022-07-17T09:06:37Z</time>
      </trkpt>
      <trkpt lat="45.16406" lon="6.42439">
        <ele>1385.4</ele>
        <time>2022-07-17T09:06:38Z</time>
      </trkpt>
      <trkpt lat="45.16404" lon="6.42436">
        <ele>1385.8</ele>
        <time>2022-07-17T09:06:39Z</time>
      </trkpt>
      <trkpt lat="45.16403" lon="6.42434">
        <ele>1386.2</ele>
        <time>2022-07-17T09:06:40Z</time>
      </trkpt>
      <trkpt lat="45.16401" lon="6.42431">
        <ele>1386.2</ele>
        <time>2022-07-17T09:06:41Z</time>
      </trkpt>
      <trkpt lat="45.16399" lon="6.42429">
        <ele>1386.4</ele>
        <time>2022-07-17T09:06:42Z</time>
      </trkpt>
      <trkpt lat="45.16397" lon="6.42426">
        <ele>1386.4</ele>
        <time>2022-07-17T09:06:43Z</time>
      </trkpt>
      <trkpt lat="45.16395" lon="6.42424">
        <ele>1386.8</ele>
        <time>2022-07-17T09:06:44Z</time>
      </trkpt>
      <trkpt lat="45.16393" lon="6.42422">
        <ele>1387</ele>
        <time>2022-07-17T09:06:45Z</time>
      </trkpt>
      <trkpt lat="45.16391" lon="6.4242">
        <ele>1387</ele>
        <time>2022-07-17T09:06:46Z</time>
      </trkpt>
      <trkpt lat="45.1639" lon="6.42418">
        <ele>1387.6</ele>
        <time>2022-07-17T09:06:47Z</time>
      </trkpt>
      <trkpt lat="45.16388" lon="6.42415">
        <ele>1387.6</ele>
        <time>2022-07-17T09:06:48Z</time>
      </trkpt>
      <trkpt lat="45.16387" lon="6.42412">
        <ele>1387.8</ele>
        <time>2022-07-17T09:06:49Z</time>
      </trkpt>
      <trkpt lat="45.16386" lon="6.42409">
        <ele>1388.2</ele>
        <time>2022-07-17T09:06:50Z</time>
      </trkpt>
      <trkpt lat="45.16385" lon="6.42406">
        <ele>1388.2</ele>
        <time>2022-07-17T09:06:51Z</time>
      </trkpt>
      <trkpt lat="45.16385" lon="6.42403">
        <ele>1388.4</ele>
        <time>2022-07-17T09:06:52Z</time>
      </trkpt>
      <trkpt lat="45.16385" lon="6.424">
        <ele>1388.8</ele>
        <time>2022-07-17T09:06:53Z</time>
      </trkpt>
      <trkpt lat="45.16385" lon="6.42396">
        <ele>1389</ele>
        <time>2022-07-17T09:06:54Z</time>
      </trkpt>
      <trkpt lat="45.16386" lon="6.42392">
        <ele>1389</ele>
        <time>2022-07-17T09:06:55Z</time>
      </trkpt>
      <trkpt lat="45.16387" lon="6.42388">
        <ele>1389.4</ele>
        <time>2022-07-17T09:06:56Z</time>
      </trkpt>
      <trkpt lat="45.16388" lon="6.42384">
        <ele>1389.4</ele>
        <time>2022-07-17T09:06:57Z</time>
      </trkpt>
      <trkpt lat="45.16389" lon="6.4238">
        <ele>1389.6</ele>
        <time>2022-07-17T09:06:58Z</time>
      </trkpt>
      <trkpt lat="45.16391" lon="6.42376">
        <ele>1389.6</ele>
        <time>2022-07-17T09:06:59Z</time>
      </trkpt>
      <trkpt lat="45.16392" lon="6.42373">
        <ele>1390</ele>
        <time>2022-07-17T09:07:00Z</time>
      </trkpt>
      <trkpt lat="45.16394" lon="6.42369">
        <ele>1390</ele>
        <time>2022-07-17T09:07:01Z</time>
      </trkpt>
      <trkpt lat="45.16395" lon="6.42365">
        <ele>1390.2</ele>
        <time>2022-07-17T09:07:02Z</time>
      </trkpt>
      <trkpt lat="45.16396" lon="6.42362">
        <ele>1390.2</ele>
        <time>2022-07-17T09:07:03Z</time>
      </trkpt>
      <trkpt lat="45.16396" lon="6.42358">
        <ele>1390.6</ele>
        <time>2022-07-17T09:07:04Z</time>
      </trkpt>
      <trkpt lat="45.16397" lon="6.42355">
        <ele>1391</ele>
        <time>2022-07-17T09:07:05Z</time>
      </trkpt>
      <trkpt lat="45.16398" lon="6.42352">
        <ele>1391</ele>
        <time>2022-07-17T09:07:06Z</time>
      </trkpt>
      <trkpt lat="45.16399" lon="6.42349">
        <ele>1391.2</ele>
        <time>2022-07-17T09:07:07Z</time>
      </trkpt>
      <trkpt lat="45.164" lon="6.42345">
        <ele>1391.2</ele>
        <time>2022-07-17T09:07:08Z</time>
      </trkpt>
      <trkpt lat="45.16401" lon="6.42342">
        <ele>1391.6</ele>
        <time>2022-07-17T09:07:09Z</time>
      </trkpt>
      <trkpt lat="45.16401" lon="6.42339">
        <ele>1391.6</ele>
        <time>2022-07-17T09:07:10Z</time>
      </trkpt>
      <trkpt lat="45.16402" lon="6.42336">
        <ele>1392</ele>
        <time>2022-07-17T09:07:11Z</time>
      </trkpt>
      <trkpt lat="45.16403" lon="6.42332">
        <ele>1392.2</ele>
        <time>2022-07-17T09:07:12Z</time>
      </trkpt>
      <trkpt lat="45.16404" lon="6.42329">
        <ele>1392.2</ele>
        <time>2022-07-17T09:07:13Z</time>
      </trkpt>
      <trkpt lat="45.16404" lon="6.42326">
        <ele>1392.6</ele>
        <time>2022-07-17T09:07:14Z</time>
      </trkpt>
      <trkpt lat="45.16404" lon="6.42323">
        <ele>1393</ele>
        <time>2022-07-17T09:07:15Z</time>
      </trkpt>
      <trkpt lat="45.16404" lon="6.4232">
        <ele>1393</ele>
        <time>2022-07-17T09:07:16Z</time>
      </trkpt>
      <trkpt lat="45.16404" lon="6.42317">
        <ele>1393.4</ele>
        <time>2022-07-17T09:07:17Z</time>
      </trkpt>
      <trkpt lat="45.16404" lon="6.42314">
        <ele>1393.6</ele>
        <time>2022-07-17T09:07:18Z</time>
      </trkpt>
      <trkpt lat="45.16404" lon="6.42311">
        <ele>1393.8</ele>
        <time>2022-07-17T09:07:19Z</time>
      </trkpt>
      <trkpt lat="45.16403" lon="6.42308">
        <ele>1394.2</ele>
        <time>2022-07-17T09:07:20Z</time>
      </trkpt>
      <trkpt lat="45.16403" lon="6.42305">
        <ele>1394.4</ele>
        <time>2022-07-17T09:07:21Z</time>
      </trkpt>
      <trkpt lat="45.16403" lon="6.42301">
        <ele>1394.4</ele>
        <time>2022-07-17T09:07:22Z</time>
      </trkpt>
      <trkpt lat="45.16402" lon="6.42298">
        <ele>1394.8</ele>
        <time>2022-07-17T09:07:23Z</time>
      </trkpt>
      <trkpt lat="45.16401" lon="6.42296">
        <ele>1395</ele>
        <time>2022-07-17T09:07:24Z</time>
      </trkpt>
      <trkpt lat="45.164" lon="6.42293">
        <ele>1395</ele>
        <time>2022-07-17T09:07:25Z</time>
      </trkpt>
      <trkpt lat="45.16399" lon="6.4229">
        <ele>1395.4</ele>
        <time>2022-07-17T09:07:26Z</time>
      </trkpt>
      <trkpt lat="45.16398" lon="6.42287">
        <ele>1395.4</ele>
        <time>2022-07-17T09:07:27Z</time>
      </trkpt>
      <trkpt lat="45.16396" lon="6.42285">
        <ele>1395.8</ele>
        <time>2022-07-17T09:07:28Z</time>
      </trkpt>
      <trkpt lat="45.16395" lon="6.42282">
        <ele>1396</ele>
        <time>2022-07-17T09:07:29Z</time>
      </trkpt>
      <trkpt lat="45.16393" lon="6.4228">
        <ele>1396.2</ele>
        <time>2022-07-17T09:07:30Z</time>
      </trkpt>
      <trkpt lat="45.16392" lon="6.42278">
        <ele>1396.6</ele>
        <time>2022-07-17T09:07:31Z</time>
      </trkpt>
      <trkpt lat="45.1639" lon="6.42276">
        <ele>1396.6</ele>
        <time>2022-07-17T09:07:32Z</time>
      </trkpt>
      <trkpt lat="45.16388" lon="6.42274">
        <ele>1396.8</ele>
        <time>2022-07-17T09:07:33Z</time>
      </trkpt>
      <trkpt lat="45.16386" lon="6.42272">
        <ele>1397</ele>
        <time>2022-07-17T09:07:34Z</time>
      </trkpt>
      <trkpt lat="45.16384" lon="6.42271">
        <ele>1397.4</ele>
        <time>2022-07-17T09:07:35Z</time>
      </trkpt>
      <trkpt lat="45.16382" lon="6.42269">
        <ele>1397.4</ele>
        <time>2022-07-17T09:07:36Z</time>
      </trkpt>
      <trkpt lat="45.16379" lon="6.42268">
        <ele>1397.6</ele>
        <time>2022-07-17T09:07:37Z</time>
      </trkpt>
      <trkpt lat="45.16377" lon="6.42266">
        <ele>1397.6</ele>
        <time>2022-07-17T09:07:38Z</time>
      </trkpt>
      <trkpt lat="45.16374" lon="6.42265">
        <ele>1398</ele>
        <time>2022-07-17T09:07:39Z</time>
      </trkpt>
      <trkpt lat="45.16372" lon="6.42264">
        <ele>1398</ele>
        <time>2022-07-17T09:07:40Z</time>
      </trkpt>
      <trkpt lat="45.16369" lon="6.42263">
        <ele>1398.4</ele>
        <time>2022-07-17T09:07:41Z</time>
      </trkpt>
      <trkpt lat="45.16366" lon="6.42262">
        <ele>1398.4</ele>
        <time>2022-07-17T09:07:42Z</time>
      </trkpt>
      <trkpt lat="45.16363" lon="6.42261">
        <ele>1398.4</ele>
        <time>2022-07-17T09:07:43Z</time>
      </trkpt>
      <trkpt lat="45.16359" lon="6.4226">
        <ele>1398.6</ele>
        <time>2022-07-17T09:07:44Z</time>
      </trkpt>
      <trkpt lat="45.16356" lon="6.42259">
        <ele>1398.6</ele>
        <time>2022-07-17T09:07:45Z</time>
      </trkpt>
      <trkpt lat="45.16353" lon="6.42257">
        <ele>1398.6</ele>
        <time>2022-07-17T09:07:46Z</time>
      </trkpt>
      <trkpt lat="45.16349" lon="6.42256">
        <ele>1398.8</ele>
        <time>2022-07-17T09:07:47Z</time>
      </trkpt>
      <trkpt lat="45.16346" lon="6.42255">
        <ele>1398.8</ele>
        <time>2022-07-17T09:07:48Z</time>
      </trkpt>
      <trkpt lat="45.16342" lon="6.42253">
        <ele>1399.2</ele>
        <time>2022-07-17T09:07:49Z</time>
      </trkpt>
      <trkpt lat="45.16339" lon="6.42252">
        <ele>1399.2</ele>
        <time>2022-07-17T09:07:50Z</time>
      </trkpt>
      <trkpt lat="45.16336" lon="6.42251">
        <ele>1399.2</ele>
        <time>2022-07-17T09:07:51Z</time>
      </trkpt>
      <trkpt lat="45.16333" lon="6.42249">
        <ele>1399.2</ele>
        <time>2022-07-17T09:07:52Z</time>
      </trkpt>
      <trkpt lat="45.1633" lon="6.42248">
        <ele>1399.4</ele>
        <time>2022-07-17T09:07:53Z</time>
      </trkpt>
      <trkpt lat="45.16327" lon="6.42246">
        <ele>1399.4</ele>
        <time>2022-07-17T09:07:54Z</time>
      </trkpt>
      <trkpt lat="45.16324" lon="6.42245">
        <ele>1399.6</ele>
        <time>2022-07-17T09:07:55Z</time>
      </trkpt>
      <trkpt lat="45.16322" lon="6.42244">
        <ele>1399.6</ele>
        <time>2022-07-17T09:07:56Z</time>
      </trkpt>
      <trkpt lat="45.16319" lon="6.42242">
        <ele>1400</ele>
        <time>2022-07-17T09:07:57Z</time>
      </trkpt>
      <trkpt lat="45.16316" lon="6.42241">
        <ele>1400</ele>
        <time>2022-07-17T09:07:58Z</time>
      </trkpt>
      <trkpt lat="45.16313" lon="6.4224">
        <ele>1400</ele>
        <time>2022-07-17T09:07:59Z</time>
      </trkpt>
      <trkpt lat="45.16311" lon="6.42239">
        <ele>1400.2</ele>
        <time>2022-07-17T09:08:00Z</time>
      </trkpt>
      <trkpt lat="45.16308" lon="6.42238">
        <ele>1400.2</ele>
        <time>2022-07-17T09:08:01Z</time>
      </trkpt>
      <trkpt lat="45.16305" lon="6.42237">
        <ele>1400.4</ele>
        <time>2022-07-17T09:08:02Z</time>
      </trkpt>
      <trkpt lat="45.16302" lon="6.42236">
        <ele>1400.4</ele>
        <time>2022-07-17T09:08:03Z</time>
      </trkpt>
      <trkpt lat="45.16299" lon="6.42234">
        <ele>1400.6</ele>
        <time>2022-07-17T09:08:04Z</time>
      </trkpt>
      <trkpt lat="45.16296" lon="6.42233">
        <ele>1400.6</ele>
        <time>2022-07-17T09:08:05Z</time>
      </trkpt>
      <trkpt lat="45.16294" lon="6.42232">
        <ele>1400.8</ele>
        <time>2022-07-17T09:08:06Z</time>
      </trkpt>
      <trkpt lat="45.16291" lon="6.42231">
        <ele>1400.8</ele>
        <time>2022-07-17T09:08:07Z</time>
      </trkpt>
      <trkpt lat="45.16288" lon="6.42229">
        <ele>1401.2</ele>
        <time>2022-07-17T09:08:08Z</time>
      </trkpt>
      <trkpt lat="45.16285" lon="6.42228">
        <ele>1401.2</ele>
        <time>2022-07-17T09:08:09Z</time>
      </trkpt>
      <trkpt lat="45.16282" lon="6.42227">
        <ele>1401.2</ele>
        <time>2022-07-17T09:08:10Z</time>
      </trkpt>
      <trkpt lat="45.16279" lon="6.42226">
        <ele>1401.4</ele>
        <time>2022-07-17T09:08:11Z</time>
      </trkpt>
      <trkpt lat="45.16276" lon="6.42225">
        <ele>1401.4</ele>
        <time>2022-07-17T09:08:12Z</time>
      </trkpt>
      <trkpt lat="45.16274" lon="6.42223">
        <ele>1401.6</ele>
        <time>2022-07-17T09:08:13Z</time>
      </trkpt>
      <trkpt lat="45.16271" lon="6.42222">
        <ele>1401.6</ele>
        <time>2022-07-17T09:08:14Z</time>
      </trkpt>
      <trkpt lat="45.16268" lon="6.42221">
        <ele>1402</ele>
        <time>2022-07-17T09:08:15Z</time>
      </trkpt>
      <trkpt lat="45.16265" lon="6.4222">
        <ele>1402</ele>
        <time>2022-07-17T09:08:16Z</time>
      </trkpt>
      <trkpt lat="45.16263" lon="6.42219">
        <ele>1402.2</ele>
        <time>2022-07-17T09:08:17Z</time>
      </trkpt>
      <trkpt lat="45.1626" lon="6.42218">
        <ele>1402.2</ele>
        <time>2022-07-17T09:08:18Z</time>
      </trkpt>
      <trkpt lat="45.16257" lon="6.42216">
        <ele>1402.6</ele>
        <time>2022-07-17T09:08:19Z</time>
      </trkpt>
      <trkpt lat="45.16255" lon="6.42215">
        <ele>1402.6</ele>
        <time>2022-07-17T09:08:20Z</time>
      </trkpt>
      <trkpt lat="45.16252" lon="6.42214">
        <ele>1402.6</ele>
        <time>2022-07-17T09:08:21Z</time>
      </trkpt>
      <trkpt lat="45.1625" lon="6.42213">
        <ele>1402.8</ele>
        <time>2022-07-17T09:08:22Z</time>
      </trkpt>
      <trkpt lat="45.16247" lon="6.42212">
        <ele>1402.8</ele>
        <time>2022-07-17T09:08:23Z</time>
      </trkpt>
      <trkpt lat="45.16244" lon="6.42211">
        <ele>1403.2</ele>
        <time>2022-07-17T09:08:24Z</time>
      </trkpt>
      <trkpt lat="45.16242" lon="6.42209">
        <ele>1403.2</ele>
        <time>2022-07-17T09:08:25Z</time>
      </trkpt>
      <trkpt lat="45.16239" lon="6.42208">
        <ele>1403.6</ele>
        <time>2022-07-17T09:08:26Z</time>
      </trkpt>
      <trkpt lat="45.16236" lon="6.42207">
        <ele>1403.6</ele>
        <time>2022-07-17T09:08:27Z</time>
      </trkpt>
      <trkpt lat="45.16234" lon="6.42206">
        <ele>1403.8</ele>
        <time>2022-07-17T09:08:28Z</time>
      </trkpt>
      <trkpt lat="45.16231" lon="6.42205">
        <ele>1403.8</ele>
        <time>2022-07-17T09:08:29Z</time>
      </trkpt>
      <trkpt lat="45.16228" lon="6.42204">
        <ele>1404</ele>
        <time>2022-07-17T09:08:30Z</time>
      </trkpt>
      <trkpt lat="45.16226" lon="6.42203">
        <ele>1404</ele>
        <time>2022-07-17T09:08:31Z</time>
      </trkpt>
      <trkpt lat="45.16223" lon="6.42202">
        <ele>1404.2</ele>
        <time>2022-07-17T09:08:32Z</time>
      </trkpt>
      <trkpt lat="45.1622" lon="6.42201">
        <ele>1404.2</ele>
        <time>2022-07-17T09:08:33Z</time>
      </trkpt>
      <trkpt lat="45.16218" lon="6.42201">
        <ele>1404.6</ele>
        <time>2022-07-17T09:08:34Z</time>
      </trkpt>
      <trkpt lat="45.16215" lon="6.422">
        <ele>1404.6</ele>
        <time>2022-07-17T09:08:35Z</time>
      </trkpt>
      <trkpt lat="45.16212" lon="6.42199">
        <ele>1404.8</ele>
        <time>2022-07-17T09:08:36Z</time>
      </trkpt>
      <trkpt lat="45.1621" lon="6.42198">
        <ele>1404.8</ele>
        <time>2022-07-17T09:08:37Z</time>
      </trkpt>
      <trkpt lat="45.16207" lon="6.42197">
        <ele>1404.8</ele>
        <time>2022-07-17T09:08:38Z</time>
      </trkpt>
      <trkpt lat="45.16204" lon="6.42196">
        <ele>1405.2</ele>
        <time>2022-07-17T09:08:39Z</time>
      </trkpt>
      <trkpt lat="45.16201" lon="6.42196">
        <ele>1405.2</ele>
        <time>2022-07-17T09:08:40Z</time>
      </trkpt>
      <trkpt lat="45.16198" lon="6.42195">
        <ele>1405.4</ele>
        <time>2022-07-17T09:08:41Z</time>
      </trkpt>
      <trkpt lat="45.16195" lon="6.42195">
        <ele>1405.4</ele>
        <time>2022-07-17T09:08:42Z</time>
      </trkpt>
      <trkpt lat="45.16192" lon="6.42193">
        <ele>1405.6</ele>
        <time>2022-07-17T09:08:43Z</time>
      </trkpt>
      <trkpt lat="45.1619" lon="6.42192">
        <ele>1405.6</ele>
        <time>2022-07-17T09:08:44Z</time>
      </trkpt>
      <trkpt lat="45.16187" lon="6.42191">
        <ele>1405.8</ele>
        <time>2022-07-17T09:08:45Z</time>
      </trkpt>
      <trkpt lat="45.16184" lon="6.42191">
        <ele>1405.8</ele>
        <time>2022-07-17T09:08:46Z</time>
      </trkpt>
      <trkpt lat="45.16181" lon="6.4219">
        <ele>1406</ele>
        <time>2022-07-17T09:08:47Z</time>
      </trkpt>
      <trkpt lat="45.16178" lon="6.4219">
        <ele>1406</ele>
        <time>2022-07-17T09:08:48Z</time>
      </trkpt>
      <trkpt lat="45.16175" lon="6.4219">
        <ele>1406</ele>
        <time>2022-07-17T09:08:49Z</time>
      </trkpt>
      <trkpt lat="45.16172" lon="6.4219">
        <ele>1406.4</ele>
        <time>2022-07-17T09:08:50Z</time>
      </trkpt>
      <trkpt lat="45.1617" lon="6.4219">
        <ele>1406.4</ele>
        <time>2022-07-17T09:08:51Z</time>
      </trkpt>
      <trkpt lat="45.16167" lon="6.42189">
        <ele>1406.4</ele>
        <time>2022-07-17T09:08:52Z</time>
      </trkpt>
      <trkpt lat="45.16164" lon="6.42189">
        <ele>1406.6</ele>
        <time>2022-07-17T09:08:53Z</time>
      </trkpt>
      <trkpt lat="45.16161" lon="6.42189">
        <ele>1406.6</ele>
        <time>2022-07-17T09:08:54Z</time>
      </trkpt>
      <trkpt lat="45.16158" lon="6.42189">
        <ele>1407</ele>
        <time>2022-07-17T09:08:55Z</time>
      </trkpt>
      <trkpt lat="45.16155" lon="6.42188">
        <ele>1407.2</ele>
        <time>2022-07-17T09:08:56Z</time>
      </trkpt>
      <trkpt lat="45.16153" lon="6.42188">
        <ele>1407.2</ele>
        <time>2022-07-17T09:08:57Z</time>
      </trkpt>
      <trkpt lat="45.1615" lon="6.42188">
        <ele>1407.4</ele>
        <time>2022-07-17T09:08:58Z</time>
      </trkpt>
      <trkpt lat="45.16147" lon="6.42187">
        <ele>1407.4</ele>
        <time>2022-07-17T09:08:59Z</time>
      </trkpt>
      <trkpt lat="45.16144" lon="6.42187">
        <ele>1407.8</ele>
        <time>2022-07-17T09:09:00Z</time>
      </trkpt>
      <trkpt lat="45.16141" lon="6.42187">
        <ele>1407.8</ele>
        <time>2022-07-17T09:09:01Z</time>
      </trkpt>
      <trkpt lat="45.16138" lon="6.42186">
        <ele>1408.2</ele>
        <time>2022-07-17T09:09:02Z</time>
      </trkpt>
      <trkpt lat="45.16135" lon="6.42186">
        <ele>1408.4</ele>
        <time>2022-07-17T09:09:03Z</time>
      </trkpt>
      <trkpt lat="45.16133" lon="6.42185">
        <ele>1408.6</ele>
        <time>2022-07-17T09:09:04Z</time>
      </trkpt>
      <trkpt lat="45.1613" lon="6.42185">
        <ele>1408.6</ele>
        <time>2022-07-17T09:09:05Z</time>
      </trkpt>
      <trkpt lat="45.16127" lon="6.42184">
        <ele>1408.8</ele>
        <time>2022-07-17T09:09:06Z</time>
      </trkpt>
      <trkpt lat="45.16124" lon="6.42184">
        <ele>1408.8</ele>
        <time>2022-07-17T09:09:07Z</time>
      </trkpt>
      <trkpt lat="45.16121" lon="6.42183">
        <ele>1409</ele>
        <time>2022-07-17T09:09:08Z</time>
      </trkpt>
      <trkpt lat="45.16118" lon="6.42183">
        <ele>1409</ele>
        <time>2022-07-17T09:09:09Z</time>
      </trkpt>
      <trkpt lat="45.16116" lon="6.42183">
        <ele>1409</ele>
        <time>2022-07-17T09:09:10Z</time>
      </trkpt>
      <trkpt lat="45.16113" lon="6.42182">
        <ele>1409.4</ele>
        <time>2022-07-17T09:09:11Z</time>
      </trkpt>
      <trkpt lat="45.1611" lon="6.42182">
        <ele>1409.4</ele>
        <time>2022-07-17T09:09:12Z</time>
      </trkpt>
      <trkpt lat="45.16107" lon="6.42181">
        <ele>1409.8</ele>
        <time>2022-07-17T09:09:13Z</time>
      </trkpt>
      <trkpt lat="45.16105" lon="6.42181">
        <ele>1409.8</ele>
        <time>2022-07-17T09:09:14Z</time>
      </trkpt>
      <trkpt lat="45.16102" lon="6.42181">
        <ele>1410</ele>
        <time>2022-07-17T09:09:15Z</time>
      </trkpt>
      <trkpt lat="45.16099" lon="6.4218">
        <ele>1410</ele>
        <time>2022-07-17T09:09:16Z</time>
      </trkpt>
      <trkpt lat="45.16096" lon="6.4218">
        <ele>1410.4</ele>
        <time>2022-07-17T09:09:17Z</time>
      </trkpt>
      <trkpt lat="45.16093" lon="6.42179">
        <ele>1410.4</ele>
        <time>2022-07-17T09:09:18Z</time>
      </trkpt>
      <trkpt lat="45.16091" lon="6.42178">
        <ele>1410.6</ele>
        <time>2022-07-17T09:09:19Z</time>
      </trkpt>
      <trkpt lat="45.16088" lon="6.42178">
        <ele>1410.6</ele>
        <time>2022-07-17T09:09:20Z</time>
      </trkpt>
      <trkpt lat="45.16085" lon="6.42177">
        <ele>1410.8</ele>
        <time>2022-07-17T09:09:21Z</time>
      </trkpt>
      <trkpt lat="45.16083" lon="6.42177">
        <ele>1410.8</ele>
        <time>2022-07-17T09:09:22Z</time>
      </trkpt>
      <trkpt lat="45.1608" lon="6.42176">
        <ele>1411.2</ele>
        <time>2022-07-17T09:09:23Z</time>
      </trkpt>
      <trkpt lat="45.16077" lon="6.42175">
        <ele>1411.2</ele>
        <time>2022-07-17T09:09:24Z</time>
      </trkpt>
      <trkpt lat="45.16074" lon="6.42175">
        <ele>1411.4</ele>
        <time>2022-07-17T09:09:25Z</time>
      </trkpt>
      <trkpt lat="45.16071" lon="6.42174">
        <ele>1411.4</ele>
        <time>2022-07-17T09:09:26Z</time>
      </trkpt>
      <trkpt lat="45.16068" lon="6.42174">
        <ele>1411.6</ele>
        <time>2022-07-17T09:09:27Z</time>
      </trkpt>
      <trkpt lat="45.16066" lon="6.42173">
        <ele>1411.6</ele>
        <time>2022-07-17T09:09:28Z</time>
      </trkpt>
      <trkpt lat="45.16063" lon="6.42173">
        <ele>1411.8</ele>
        <time>2022-07-17T09:09:29Z</time>
      </trkpt>
      <trkpt lat="45.1606" lon="6.42172">
        <ele>1411.8</ele>
        <time>2022-07-17T09:09:30Z</time>
      </trkpt>
      <trkpt lat="45.16057" lon="6.42172">
        <ele>1412</ele>
        <time>2022-07-17T09:09:31Z</time>
      </trkpt>
      <trkpt lat="45.16054" lon="6.42171">
        <ele>1412</ele>
        <time>2022-07-17T09:09:32Z</time>
      </trkpt>
      <trkpt lat="45.16051" lon="6.42171">
        <ele>1412.2</ele>
        <time>2022-07-17T09:09:33Z</time>
      </trkpt>
      <trkpt lat="45.16048" lon="6.42171">
        <ele>1412.2</ele>
        <time>2022-07-17T09:09:34Z</time>
      </trkpt>
      <trkpt lat="45.16046" lon="6.42171">
        <ele>1412.6</ele>
        <time>2022-07-17T09:09:35Z</time>
      </trkpt>
      <trkpt lat="45.16043" lon="6.42171">
        <ele>1412.8</ele>
        <time>2022-07-17T09:09:36Z</time>
      </trkpt>
      <trkpt lat="45.1604" lon="6.4217">
        <ele>1412.8</ele>
        <time>2022-07-17T09:09:37Z</time>
      </trkpt>
      <trkpt lat="45.16037" lon="6.42169">
        <ele>1413.2</ele>
        <time>2022-07-17T09:09:38Z</time>
      </trkpt>
      <trkpt lat="45.16034" lon="6.42169">
        <ele>1413.4</ele>
        <time>2022-07-17T09:09:39Z</time>
      </trkpt>
      <trkpt lat="45.16032" lon="6.42167">
        <ele>1413.4</ele>
        <time>2022-07-17T09:09:40Z</time>
      </trkpt>
      <trkpt lat="45.16029" lon="6.42166">
        <ele>1413.8</ele>
        <time>2022-07-17T09:09:41Z</time>
      </trkpt>
      <trkpt lat="45.16027" lon="6.42164">
        <ele>1413.8</ele>
        <time>2022-07-17T09:09:42Z</time>
      </trkpt>
      <trkpt lat="45.16026" lon="6.4216">
        <ele>1414.4</ele>
        <time>2022-07-17T09:09:43Z</time>
      </trkpt>
      <trkpt lat="45.16024" lon="6.42157">
        <ele>1414.4</ele>
        <time>2022-07-17T09:09:44Z</time>
      </trkpt>
      <trkpt lat="45.16023" lon="6.42153">
        <ele>1414.6</ele>
        <time>2022-07-17T09:09:45Z</time>
      </trkpt>
      <trkpt lat="45.16021" lon="6.42151">
        <ele>1414.6</ele>
        <time>2022-07-17T09:09:46Z</time>
      </trkpt>
      <trkpt lat="45.16019" lon="6.42148">
        <ele>1415</ele>
        <time>2022-07-17T09:09:47Z</time>
      </trkpt>
      <trkpt lat="45.16016" lon="6.42147">
        <ele>1415</ele>
        <time>2022-07-17T09:09:48Z</time>
      </trkpt>
      <trkpt lat="45.16013" lon="6.42147">
        <ele>1415</ele>
        <time>2022-07-17T09:09:49Z</time>
      </trkpt>
      <trkpt lat="45.1601" lon="6.42148">
        <ele>1415.2</ele>
        <time>2022-07-17T09:09:50Z</time>
      </trkpt>
      <trkpt lat="45.16007" lon="6.42149">
        <ele>1415.2</ele>
        <time>2022-07-17T09:09:51Z</time>
      </trkpt>
      <trkpt lat="45.16004" lon="6.4215">
        <ele>1415.2</ele>
        <time>2022-07-17T09:09:52Z</time>
      </trkpt>
      <trkpt lat="45.16001" lon="6.42151">
        <ele>1415.4</ele>
        <time>2022-07-17T09:09:53Z</time>
      </trkpt>
      <trkpt lat="45.15998" lon="6.42151">
        <ele>1415.4</ele>
        <time>2022-07-17T09:09:54Z</time>
      </trkpt>
      <trkpt lat="45.15995" lon="6.42151">
        <ele>1415.6</ele>
        <time>2022-07-17T09:09:55Z</time>
      </trkpt>
      <trkpt lat="45.15993" lon="6.42152">
        <ele>1415.6</ele>
        <time>2022-07-17T09:09:56Z</time>
      </trkpt>
      <trkpt lat="45.1599" lon="6.42153">
        <ele>1415.8</ele>
        <time>2022-07-17T09:09:57Z</time>
      </trkpt>
      <trkpt lat="45.15987" lon="6.42153">
        <ele>1416</ele>
        <time>2022-07-17T09:09:58Z</time>
      </trkpt>
      <trkpt lat="45.15984" lon="6.42153">
        <ele>1416.2</ele>
        <time>2022-07-17T09:09:59Z</time>
      </trkpt>
      <trkpt lat="45.15982" lon="6.42153">
        <ele>1416.2</ele>
        <time>2022-07-17T09:10:00Z</time>
      </trkpt>
      <trkpt lat="45.15979" lon="6.42153">
        <ele>1416.6</ele>
        <time>2022-07-17T09:10:01Z</time>
      </trkpt>
      <trkpt lat="45.15976" lon="6.42153">
        <ele>1416.8</ele>
        <time>2022-07-17T09:10:02Z</time>
      </trkpt>
      <trkpt lat="45.15974" lon="6.42152">
        <ele>1417</ele>
        <time>2022-07-17T09:10:03Z</time>
      </trkpt>
      <trkpt lat="45.15971" lon="6.42152">
        <ele>1417.2</ele>
        <time>2022-07-17T09:10:04Z</time>
      </trkpt>
      <trkpt lat="45.15969" lon="6.42151">
        <ele>1417.2</ele>
        <time>2022-07-17T09:10:05Z</time>
      </trkpt>
      <trkpt lat="45.15966" lon="6.4215">
        <ele>1417.6</ele>
        <time>2022-07-17T09:10:06Z</time>
      </trkpt>
      <trkpt lat="45.15964" lon="6.4215">
        <ele>1417.8</ele>
        <time>2022-07-17T09:10:07Z</time>
      </trkpt>
      <trkpt lat="45.15961" lon="6.42149">
        <ele>1418.2</ele>
        <time>2022-07-17T09:10:08Z</time>
      </trkpt>
      <trkpt lat="45.15959" lon="6.42149">
        <ele>1418.2</ele>
        <time>2022-07-17T09:10:09Z</time>
      </trkpt>
      <trkpt lat="45.15957" lon="6.42148">
        <ele>1418.4</ele>
        <time>2022-07-17T09:10:10Z</time>
      </trkpt>
      <trkpt lat="45.15954" lon="6.42147">
        <ele>1418.6</ele>
        <time>2022-07-17T09:10:11Z</time>
      </trkpt>
      <trkpt lat="45.15952" lon="6.42147">
        <ele>1418.8</ele>
        <time>2022-07-17T09:10:12Z</time>
      </trkpt>
      <trkpt lat="45.15949" lon="6.42146">
        <ele>1419.2</ele>
        <time>2022-07-17T09:10:13Z</time>
      </trkpt>
      <trkpt lat="45.15947" lon="6.42145">
        <ele>1419.4</ele>
        <time>2022-07-17T09:10:14Z</time>
      </trkpt>
      <trkpt lat="45.15944" lon="6.42144">
        <ele>1419.6</ele>
        <time>2022-07-17T09:10:15Z</time>
      </trkpt>
      <trkpt lat="45.15942" lon="6.42144">
        <ele>1419.6</ele>
        <time>2022-07-17T09:10:16Z</time>
      </trkpt>
      <trkpt lat="45.15939" lon="6.42142">
        <ele>1420</ele>
        <time>2022-07-17T09:10:17Z</time>
      </trkpt>
      <trkpt lat="45.15937" lon="6.42141">
        <ele>1420</ele>
        <time>2022-07-17T09:10:18Z</time>
      </trkpt>
      <trkpt lat="45.15934" lon="6.42141">
        <ele>1420.2</ele>
        <time>2022-07-17T09:10:19Z</time>
      </trkpt>
      <trkpt lat="45.15932" lon="6.4214">
        <ele>1420.2</ele>
        <time>2022-07-17T09:10:20Z</time>
      </trkpt>
      <trkpt lat="45.15929" lon="6.4214">
        <ele>1420.6</ele>
        <time>2022-07-17T09:10:21Z</time>
      </trkpt>
      <trkpt lat="45.15927" lon="6.42139">
        <ele>1420.6</ele>
        <time>2022-07-17T09:10:22Z</time>
      </trkpt>
      <trkpt lat="45.15924" lon="6.42138">
        <ele>1420.8</ele>
        <time>2022-07-17T09:10:23Z</time>
      </trkpt>
      <trkpt lat="45.15921" lon="6.42138">
        <ele>1420.8</ele>
        <time>2022-07-17T09:10:24Z</time>
      </trkpt>
      <trkpt lat="45.15919" lon="6.42137">
        <ele>1421.2</ele>
        <time>2022-07-17T09:10:25Z</time>
      </trkpt>
      <trkpt lat="45.15916" lon="6.42137">
        <ele>1421.4</ele>
        <time>2022-07-17T09:10:26Z</time>
      </trkpt>
      <trkpt lat="45.15914" lon="6.42136">
        <ele>1421.4</ele>
        <time>2022-07-17T09:10:27Z</time>
      </trkpt>
      <trkpt lat="45.15911" lon="6.42135">
        <ele>1421.8</ele>
        <time>2022-07-17T09:10:28Z</time>
      </trkpt>
      <trkpt lat="45.15909" lon="6.42135">
        <ele>1421.8</ele>
        <time>2022-07-17T09:10:29Z</time>
      </trkpt>
      <trkpt lat="45.15906" lon="6.42134">
        <ele>1422</ele>
        <time>2022-07-17T09:10:30Z</time>
      </trkpt>
      <trkpt lat="45.15904" lon="6.42134">
        <ele>1422</ele>
        <time>2022-07-17T09:10:31Z</time>
      </trkpt>
      <trkpt lat="45.15902" lon="6.42133">
        <ele>1422.4</ele>
        <time>2022-07-17T09:10:32Z</time>
      </trkpt>
      <trkpt lat="45.15899" lon="6.42132">
        <ele>1422.6</ele>
        <time>2022-07-17T09:10:33Z</time>
      </trkpt>
      <trkpt lat="45.15897" lon="6.42132">
        <ele>1422.8</ele>
        <time>2022-07-17T09:10:34Z</time>
      </trkpt>
      <trkpt lat="45.15894" lon="6.42131">
        <ele>1423</ele>
        <time>2022-07-17T09:10:35Z</time>
      </trkpt>
      <trkpt lat="45.15892" lon="6.42131">
        <ele>1423.2</ele>
        <time>2022-07-17T09:10:36Z</time>
      </trkpt>
      <trkpt lat="45.15889" lon="6.4213">
        <ele>1423.2</ele>
        <time>2022-07-17T09:10:37Z</time>
      </trkpt>
      <trkpt lat="45.15887" lon="6.4213">
        <ele>1423.6</ele>
        <time>2022-07-17T09:10:38Z</time>
      </trkpt>
      <trkpt lat="45.15884" lon="6.42129">
        <ele>1423.6</ele>
        <time>2022-07-17T09:10:39Z</time>
      </trkpt>
      <trkpt lat="45.15882" lon="6.42129">
        <ele>1424.2</ele>
        <time>2022-07-17T09:10:40Z</time>
      </trkpt>
      <trkpt lat="45.15879" lon="6.42128">
        <ele>1424.4</ele>
        <time>2022-07-17T09:10:41Z</time>
      </trkpt>
      <trkpt lat="45.15877" lon="6.42128">
        <ele>1424.6</ele>
        <time>2022-07-17T09:10:42Z</time>
      </trkpt>
      <trkpt lat="45.15874" lon="6.42128">
        <ele>1424.8</ele>
        <time>2022-07-17T09:10:43Z</time>
      </trkpt>
      <trkpt lat="45.15872" lon="6.42128">
        <ele>1425</ele>
        <time>2022-07-17T09:10:44Z</time>
      </trkpt>
      <trkpt lat="45.1587" lon="6.42128">
        <ele>1425.4</ele>
        <time>2022-07-17T09:10:45Z</time>
      </trkpt>
      <trkpt lat="45.15867" lon="6.42127">
        <ele>1425.6</ele>
        <time>2022-07-17T09:10:46Z</time>
      </trkpt>
      <trkpt lat="45.15865" lon="6.42127">
        <ele>1425.8</ele>
        <time>2022-07-17T09:10:47Z</time>
      </trkpt>
      <trkpt lat="45.15863" lon="6.42126">
        <ele>1425.8</ele>
        <time>2022-07-17T09:10:48Z</time>
      </trkpt>
      <trkpt lat="45.15861" lon="6.42126">
        <ele>1426.2</ele>
        <time>2022-07-17T09:10:49Z</time>
      </trkpt>
      <trkpt lat="45.15858" lon="6.42125">
        <ele>1426.4</ele>
        <time>2022-07-17T09:10:50Z</time>
      </trkpt>
      <trkpt lat="45.15856" lon="6.42125">
        <ele>1426.6</ele>
        <time>2022-07-17T09:10:51Z</time>
      </trkpt>
      <trkpt lat="45.15854" lon="6.42125">
        <ele>1427</ele>
        <time>2022-07-17T09:10:52Z</time>
      </trkpt>
      <trkpt lat="45.15852" lon="6.42124">
        <ele>1427.2</ele>
        <time>2022-07-17T09:10:53Z</time>
      </trkpt>
      <trkpt lat="45.1585" lon="6.42124">
        <ele>1427.4</ele>
        <time>2022-07-17T09:10:54Z</time>
      </trkpt>
      <trkpt lat="45.15848" lon="6.42123">
        <ele>1427.4</ele>
        <time>2022-07-17T09:10:55Z</time>
      </trkpt>
      <trkpt lat="45.15845" lon="6.42123">
        <ele>1427.8</ele>
        <time>2022-07-17T09:10:56Z</time>
      </trkpt>
      <trkpt lat="45.15843" lon="6.42122">
        <ele>1428</ele>
        <time>2022-07-17T09:10:57Z</time>
      </trkpt>
      <trkpt lat="45.15841" lon="6.42122">
        <ele>1428</ele>
        <time>2022-07-17T09:10:58Z</time>
      </trkpt>
      <trkpt lat="45.15839" lon="6.42121">
        <ele>1428.4</ele>
        <time>2022-07-17T09:10:59Z</time>
      </trkpt>
      <trkpt lat="45.15837" lon="6.42121">
        <ele>1428.6</ele>
        <time>2022-07-17T09:11:00Z</time>
      </trkpt>
      <trkpt lat="45.15834" lon="6.4212">
        <ele>1428.8</ele>
        <time>2022-07-17T09:11:01Z</time>
      </trkpt>
      <trkpt lat="45.15832" lon="6.4212">
        <ele>1428.8</ele>
        <time>2022-07-17T09:11:02Z</time>
      </trkpt>
      <trkpt lat="45.15829" lon="6.42119">
        <ele>1429.2</ele>
        <time>2022-07-17T09:11:03Z</time>
      </trkpt>
      <trkpt lat="45.15827" lon="6.42118">
        <ele>1429.4</ele>
        <time>2022-07-17T09:11:04Z</time>
      </trkpt>
      <trkpt lat="45.15825" lon="6.42118">
        <ele>1429.8</ele>
        <time>2022-07-17T09:11:05Z</time>
      </trkpt>
      <trkpt lat="45.15822" lon="6.42117">
        <ele>1430</ele>
        <time>2022-07-17T09:11:06Z</time>
      </trkpt>
      <trkpt lat="45.1582" lon="6.42117">
        <ele>1430.2</ele>
        <time>2022-07-17T09:11:07Z</time>
      </trkpt>
      <trkpt lat="45.15817" lon="6.42116">
        <ele>1430.2</ele>
        <time>2022-07-17T09:11:08Z</time>
      </trkpt>
      <trkpt lat="45.15815" lon="6.42115">
        <ele>1430.6</ele>
        <time>2022-07-17T09:11:09Z</time>
      </trkpt>
      <trkpt lat="45.15813" lon="6.42115">
        <ele>1430.6</ele>
        <time>2022-07-17T09:11:10Z</time>
      </trkpt>
      <trkpt lat="45.15811" lon="6.42115">
        <ele>1431</ele>
        <time>2022-07-17T09:11:11Z</time>
      </trkpt>
      <trkpt lat="45.15809" lon="6.42114">
        <ele>1431</ele>
        <time>2022-07-17T09:11:12Z</time>
      </trkpt>
      <trkpt lat="45.15807" lon="6.42113">
        <ele>1431.4</ele>
        <time>2022-07-17T09:11:13Z</time>
      </trkpt>
      <trkpt lat="45.15804" lon="6.42113">
        <ele>1431.4</ele>
        <time>2022-07-17T09:11:14Z</time>
      </trkpt>
      <trkpt lat="45.15802" lon="6.42112">
        <ele>1431.8</ele>
        <time>2022-07-17T09:11:15Z</time>
      </trkpt>
      <trkpt lat="45.158" lon="6.42112">
        <ele>1432</ele>
        <time>2022-07-17T09:11:16Z</time>
      </trkpt>
      <trkpt lat="45.15798" lon="6.42112">
        <ele>1432.2</ele>
        <time>2022-07-17T09:11:17Z</time>
      </trkpt>
      <trkpt lat="45.15796" lon="6.42111">
        <ele>1432.4</ele>
        <time>2022-07-17T09:11:18Z</time>
      </trkpt>
      <trkpt lat="45.15794" lon="6.4211">
        <ele>1432.6</ele>
        <time>2022-07-17T09:11:19Z</time>
      </trkpt>
      <trkpt lat="45.15791" lon="6.4211">
        <ele>1432.8</ele>
        <time>2022-07-17T09:11:20Z</time>
      </trkpt>
      <trkpt lat="45.15789" lon="6.42109">
        <ele>1433</ele>
        <time>2022-07-17T09:11:21Z</time>
      </trkpt>
      <trkpt lat="45.15787" lon="6.42109">
        <ele>1433.4</ele>
        <time>2022-07-17T09:11:22Z</time>
      </trkpt>
      <trkpt lat="45.15785" lon="6.42108">
        <ele>1433.6</ele>
        <time>2022-07-17T09:11:23Z</time>
      </trkpt>
      <trkpt lat="45.15782" lon="6.42108">
        <ele>1433.8</ele>
        <time>2022-07-17T09:11:24Z</time>
      </trkpt>
      <trkpt lat="45.1578" lon="6.42107">
        <ele>1434</ele>
        <time>2022-07-17T09:11:25Z</time>
      </trkpt>
      <trkpt lat="45.15778" lon="6.42106">
        <ele>1434</ele>
        <time>2022-07-17T09:11:26Z</time>
      </trkpt>
      <trkpt lat="45.15775" lon="6.42105">
        <ele>1434.4</ele>
        <time>2022-07-17T09:11:27Z</time>
      </trkpt>
      <trkpt lat="45.15773" lon="6.42105">
        <ele>1434.6</ele>
        <time>2022-07-17T09:11:28Z</time>
      </trkpt>
      <trkpt lat="45.15771" lon="6.42104">
        <ele>1434.6</ele>
        <time>2022-07-17T09:11:29Z</time>
      </trkpt>
      <trkpt lat="45.15769" lon="6.42103">
        <ele>1435</ele>
        <time>2022-07-17T09:11:30Z</time>
      </trkpt>
      <trkpt lat="45.15766" lon="6.42103">
        <ele>1435.4</ele>
        <time>2022-07-17T09:11:31Z</time>
      </trkpt>
      <trkpt lat="45.15764" lon="6.42103">
        <ele>1435.6</ele>
        <time>2022-07-17T09:11:32Z</time>
      </trkpt>
      <trkpt lat="45.15762" lon="6.42102">
        <ele>1435.6</ele>
        <time>2022-07-17T09:11:33Z</time>
      </trkpt>
      <trkpt lat="45.1576" lon="6.42102">
        <ele>1435.6</ele>
        <time>2022-07-17T09:11:34Z</time>
      </trkpt>
      <trkpt lat="45.15757" lon="6.42102">
        <ele>1436</ele>
        <time>2022-07-17T09:11:35Z</time>
      </trkpt>
      <trkpt lat="45.15755" lon="6.42101">
        <ele>1436</ele>
        <time>2022-07-17T09:11:36Z</time>
      </trkpt>
      <trkpt lat="45.15753" lon="6.42101">
        <ele>1436.4</ele>
        <time>2022-07-17T09:11:37Z</time>
      </trkpt>
      <trkpt lat="45.1575" lon="6.42101">
        <ele>1436.6</ele>
        <time>2022-07-17T09:11:38Z</time>
      </trkpt>
      <trkpt lat="45.15748" lon="6.421">
        <ele>1436.8</ele>
        <time>2022-07-17T09:11:39Z</time>
      </trkpt>
      <trkpt lat="45.15746" lon="6.42099">
        <ele>1437</ele>
        <time>2022-07-17T09:11:40Z</time>
      </trkpt>
      <trkpt lat="45.15743" lon="6.42099">
        <ele>1437.2</ele>
        <time>2022-07-17T09:11:41Z</time>
      </trkpt>
      <trkpt lat="45.15741" lon="6.42098">
        <ele>1437.2</ele>
        <time>2022-07-17T09:11:42Z</time>
      </trkpt>
      <trkpt lat="45.15738" lon="6.42098">
        <ele>1437.6</ele>
        <time>2022-07-17T09:11:43Z</time>
      </trkpt>
      <trkpt lat="45.15736" lon="6.42098">
        <ele>1437.8</ele>
        <time>2022-07-17T09:11:44Z</time>
      </trkpt>
      <trkpt lat="45.15734" lon="6.42097">
        <ele>1438</ele>
        <time>2022-07-17T09:11:45Z</time>
      </trkpt>
      <trkpt lat="45.15731" lon="6.42096">
        <ele>1438.4</ele>
        <time>2022-07-17T09:11:46Z</time>
      </trkpt>
      <trkpt lat="45.15729" lon="6.42095">
        <ele>1438.6</ele>
        <time>2022-07-17T09:11:47Z</time>
      </trkpt>
      <trkpt lat="45.15727" lon="6.42095">
        <ele>1439</ele>
        <time>2022-07-17T09:11:48Z</time>
      </trkpt>
      <trkpt lat="45.15724" lon="6.42095">
        <ele>1439</ele>
        <time>2022-07-17T09:11:49Z</time>
      </trkpt>
      <trkpt lat="45.15722" lon="6.42094">
        <ele>1439.2</ele>
        <time>2022-07-17T09:11:50Z</time>
      </trkpt>
      <trkpt lat="45.15719" lon="6.42093">
        <ele>1439.2</ele>
        <time>2022-07-17T09:11:51Z</time>
      </trkpt>
      <trkpt lat="45.15717" lon="6.42093">
        <ele>1439.6</ele>
        <time>2022-07-17T09:11:52Z</time>
      </trkpt>
      <trkpt lat="45.15715" lon="6.42093">
        <ele>1439.8</ele>
        <time>2022-07-17T09:11:53Z</time>
      </trkpt>
      <trkpt lat="45.15712" lon="6.42093">
        <ele>1440.2</ele>
        <time>2022-07-17T09:11:54Z</time>
      </trkpt>
      <trkpt lat="45.1571" lon="6.42092">
        <ele>1440.4</ele>
        <time>2022-07-17T09:11:55Z</time>
      </trkpt>
      <trkpt lat="45.15708" lon="6.42091">
        <ele>1440.6</ele>
        <time>2022-07-17T09:11:56Z</time>
      </trkpt>
      <trkpt lat="45.15705" lon="6.42091">
        <ele>1441</ele>
        <time>2022-07-17T09:11:57Z</time>
      </trkpt>
      <trkpt lat="45.15703" lon="6.4209">
        <ele>1441.2</ele>
        <time>2022-07-17T09:11:58Z</time>
      </trkpt>
      <trkpt lat="45.157" lon="6.4209">
        <ele>1441.4</ele>
        <time>2022-07-17T09:11:59Z</time>
      </trkpt>
      <trkpt lat="45.15698" lon="6.42089">
        <ele>1441.6</ele>
        <time>2022-07-17T09:12:00Z</time>
      </trkpt>
      <trkpt lat="45.15696" lon="6.42088">
        <ele>1441.8</ele>
        <time>2022-07-17T09:12:01Z</time>
      </trkpt>
      <trkpt lat="45.15693" lon="6.42088">
        <ele>1442</ele>
        <time>2022-07-17T09:12:02Z</time>
      </trkpt>
      <trkpt lat="45.15691" lon="6.42087">
        <ele>1442.4</ele>
        <time>2022-07-17T09:12:04Z</time>
      </trkpt>
      <trkpt lat="45.15688" lon="6.42087">
        <ele>1442.4</ele>
        <time>2022-07-17T09:12:05Z</time>
      </trkpt>
      <trkpt lat="45.15686" lon="6.42086">
        <ele>1443</ele>
        <time>2022-07-17T09:12:06Z</time>
      </trkpt>
      <trkpt lat="45.15684" lon="6.42085">
        <ele>1443.2</ele>
        <time>2022-07-17T09:12:07Z</time>
      </trkpt>
      <trkpt lat="45.15681" lon="6.42085">
        <ele>1443.4</ele>
        <time>2022-07-17T09:12:08Z</time>
      </trkpt>
      <trkpt lat="45.15679" lon="6.42084">
        <ele>1443.6</ele>
        <time>2022-07-17T09:12:09Z</time>
      </trkpt>
      <trkpt lat="45.15676" lon="6.42084">
        <ele>1443.8</ele>
        <time>2022-07-17T09:12:10Z</time>
      </trkpt>
      <trkpt lat="45.15674" lon="6.42083">
        <ele>1443.8</ele>
        <time>2022-07-17T09:12:11Z</time>
      </trkpt>
      <trkpt lat="45.15669" lon="6.42082">
        <ele>1444.2</ele>
        <time>2022-07-17T09:12:12Z</time>
      </trkpt>
      <trkpt lat="45.15667" lon="6.42082">
        <ele>1444.2</ele>
        <time>2022-07-17T09:12:13Z</time>
      </trkpt>
      <trkpt lat="45.15665" lon="6.42081">
        <ele>1444.4</ele>
        <time>2022-07-17T09:12:14Z</time>
      </trkpt>
      <trkpt lat="45.15662" lon="6.42081">
        <ele>1444.4</ele>
        <time>2022-07-17T09:12:15Z</time>
      </trkpt>
      <trkpt lat="45.1566" lon="6.4208">
        <ele>1444.8</ele>
        <time>2022-07-17T09:12:16Z</time>
      </trkpt>
      <trkpt lat="45.15658" lon="6.4208">
        <ele>1444.8</ele>
        <time>2022-07-17T09:12:17Z</time>
      </trkpt>
      <trkpt lat="45.15656" lon="6.42079">
        <ele>1445</ele>
        <time>2022-07-17T09:12:18Z</time>
      </trkpt>
      <trkpt lat="45.15653" lon="6.42078">
        <ele>1445</ele>
        <time>2022-07-17T09:12:19Z</time>
      </trkpt>
      <trkpt lat="45.15651" lon="6.42078">
        <ele>1445.4</ele>
        <time>2022-07-17T09:12:20Z</time>
      </trkpt>
      <trkpt lat="45.15649" lon="6.42077">
        <ele>1445.4</ele>
        <time>2022-07-17T09:12:21Z</time>
      </trkpt>
      <trkpt lat="45.15646" lon="6.42076">
        <ele>1445.6</ele>
        <time>2022-07-17T09:12:22Z</time>
      </trkpt>
      <trkpt lat="45.15644" lon="6.42075">
        <ele>1445.6</ele>
        <time>2022-07-17T09:12:23Z</time>
      </trkpt>
      <trkpt lat="45.15642" lon="6.42075">
        <ele>1446</ele>
        <time>2022-07-17T09:12:24Z</time>
      </trkpt>
      <trkpt lat="45.1564" lon="6.42074">
        <ele>1446.2</ele>
        <time>2022-07-17T09:12:25Z</time>
      </trkpt>
      <trkpt lat="45.15637" lon="6.42074">
        <ele>1446.4</ele>
        <time>2022-07-17T09:12:26Z</time>
      </trkpt>
      <trkpt lat="45.15635" lon="6.42073">
        <ele>1446.6</ele>
        <time>2022-07-17T09:12:27Z</time>
      </trkpt>
      <trkpt lat="45.15633" lon="6.42072">
        <ele>1446.6</ele>
        <time>2022-07-17T09:12:28Z</time>
      </trkpt>
      <trkpt lat="45.15631" lon="6.42072">
        <ele>1447</ele>
        <time>2022-07-17T09:12:29Z</time>
      </trkpt>
      <trkpt lat="45.15628" lon="6.42072">
        <ele>1447.2</ele>
        <time>2022-07-17T09:12:30Z</time>
      </trkpt>
      <trkpt lat="45.15626" lon="6.42072">
        <ele>1447.4</ele>
        <time>2022-07-17T09:12:31Z</time>
      </trkpt>
      <trkpt lat="45.15624" lon="6.42071">
        <ele>1447.8</ele>
        <time>2022-07-17T09:12:32Z</time>
      </trkpt>
      <trkpt lat="45.15622" lon="6.42071">
        <ele>1448</ele>
        <time>2022-07-17T09:12:33Z</time>
      </trkpt>
      <trkpt lat="45.15619" lon="6.42071">
        <ele>1448</ele>
        <time>2022-07-17T09:12:34Z</time>
      </trkpt>
      <trkpt lat="45.15617" lon="6.4207">
        <ele>1448.4</ele>
        <time>2022-07-17T09:12:35Z</time>
      </trkpt>
      <trkpt lat="45.15615" lon="6.4207">
        <ele>1448.4</ele>
        <time>2022-07-17T09:12:36Z</time>
      </trkpt>
      <trkpt lat="45.15613" lon="6.42069">
        <ele>1448.8</ele>
        <time>2022-07-17T09:12:37Z</time>
      </trkpt>
      <trkpt lat="45.1561" lon="6.42069">
        <ele>1448.8</ele>
        <time>2022-07-17T09:12:38Z</time>
      </trkpt>
      <trkpt lat="45.15608" lon="6.42069">
        <ele>1449</ele>
        <time>2022-07-17T09:12:39Z</time>
      </trkpt>
      <trkpt lat="45.15606" lon="6.42069">
        <ele>1449</ele>
        <time>2022-07-17T09:12:40Z</time>
      </trkpt>
      <trkpt lat="45.15603" lon="6.42069">
        <ele>1449.4</ele>
        <time>2022-07-17T09:12:41Z</time>
      </trkpt>
      <trkpt lat="45.15601" lon="6.42068">
        <ele>1449.4</ele>
        <time>2022-07-17T09:12:42Z</time>
      </trkpt>
      <trkpt lat="45.15599" lon="6.42067">
        <ele>1449.8</ele>
        <time>2022-07-17T09:12:43Z</time>
      </trkpt>
      <trkpt lat="45.15597" lon="6.42067">
        <ele>1450</ele>
        <time>2022-07-17T09:12:44Z</time>
      </trkpt>
      <trkpt lat="45.15594" lon="6.42066">
        <ele>1450</ele>
        <time>2022-07-17T09:12:45Z</time>
      </trkpt>
      <trkpt lat="45.15592" lon="6.42066">
        <ele>1450.4</ele>
        <time>2022-07-17T09:12:46Z</time>
      </trkpt>
      <trkpt lat="45.1559" lon="6.42066">
        <ele>1450.8</ele>
        <time>2022-07-17T09:12:47Z</time>
      </trkpt>
      <trkpt lat="45.15587" lon="6.42065">
        <ele>1450.8</ele>
        <time>2022-07-17T09:12:48Z</time>
      </trkpt>
      <trkpt lat="45.15585" lon="6.42064">
        <ele>1451.2</ele>
        <time>2022-07-17T09:12:49Z</time>
      </trkpt>
      <trkpt lat="45.15583" lon="6.42064">
        <ele>1451.4</ele>
        <time>2022-07-17T09:12:50Z</time>
      </trkpt>
      <trkpt lat="45.15581" lon="6.42064">
        <ele>1451.6</ele>
        <time>2022-07-17T09:12:51Z</time>
      </trkpt>
      <trkpt lat="45.15578" lon="6.42064">
        <ele>1451.8</ele>
        <time>2022-07-17T09:12:52Z</time>
      </trkpt>
      <trkpt lat="45.15576" lon="6.42064">
        <ele>1452.2</ele>
        <time>2022-07-17T09:12:53Z</time>
      </trkpt>
      <trkpt lat="45.15574" lon="6.42064">
        <ele>1452.4</ele>
        <time>2022-07-17T09:12:54Z</time>
      </trkpt>
      <trkpt lat="45.15571" lon="6.42064">
        <ele>1452.4</ele>
        <time>2022-07-17T09:12:55Z</time>
      </trkpt>
      <trkpt lat="45.15569" lon="6.42064">
        <ele>1452.8</ele>
        <time>2022-07-17T09:12:56Z</time>
      </trkpt>
      <trkpt lat="45.15566" lon="6.42064">
        <ele>1453</ele>
        <time>2022-07-17T09:12:57Z</time>
      </trkpt>
      <trkpt lat="45.15564" lon="6.42064">
        <ele>1453.2</ele>
        <time>2022-07-17T09:12:58Z</time>
      </trkpt>
      <trkpt lat="45.15561" lon="6.42064">
        <ele>1453.2</ele>
        <time>2022-07-17T09:12:59Z</time>
      </trkpt>
      <trkpt lat="45.15559" lon="6.42065">
        <ele>1453.8</ele>
        <time>2022-07-17T09:13:00Z</time>
      </trkpt>
      <trkpt lat="45.15557" lon="6.42065">
        <ele>1454</ele>
        <time>2022-07-17T09:13:01Z</time>
      </trkpt>
      <trkpt lat="45.15554" lon="6.42065">
        <ele>1454.2</ele>
        <time>2022-07-17T09:13:02Z</time>
      </trkpt>
      <trkpt lat="45.15552" lon="6.42065">
        <ele>1454.2</ele>
        <time>2022-07-17T09:13:03Z</time>
      </trkpt>
      <trkpt lat="45.1555" lon="6.42065">
        <ele>1454.6</ele>
        <time>2022-07-17T09:13:04Z</time>
      </trkpt>
      <trkpt lat="45.15548" lon="6.42065">
        <ele>1455</ele>
        <time>2022-07-17T09:13:05Z</time>
      </trkpt>
      <trkpt lat="45.15546" lon="6.42066">
        <ele>1455.4</ele>
        <time>2022-07-17T09:13:06Z</time>
      </trkpt>
      <trkpt lat="45.15543" lon="6.42066">
        <ele>1455.4</ele>
        <time>2022-07-17T09:13:07Z</time>
      </trkpt>
      <trkpt lat="45.15541" lon="6.42067">
        <ele>1455.8</ele>
        <time>2022-07-17T09:13:08Z</time>
      </trkpt>
      <trkpt lat="45.15539" lon="6.42067">
        <ele>1456</ele>
        <time>2022-07-17T09:13:09Z</time>
      </trkpt>
      <trkpt lat="45.15536" lon="6.42067">
        <ele>1456.2</ele>
        <time>2022-07-17T09:13:10Z</time>
      </trkpt>
      <trkpt lat="45.15534" lon="6.42067">
        <ele>1456.2</ele>
        <time>2022-07-17T09:13:11Z</time>
      </trkpt>
      <trkpt lat="45.15532" lon="6.42067">
        <ele>1456.6</ele>
        <time>2022-07-17T09:13:12Z</time>
      </trkpt>
      <trkpt lat="45.15529" lon="6.42068">
        <ele>1456.6</ele>
        <time>2022-07-17T09:13:13Z</time>
      </trkpt>
      <trkpt lat="45.15527" lon="6.42068">
        <ele>1457</ele>
        <time>2022-07-17T09:13:14Z</time>
      </trkpt>
      <trkpt lat="45.15524" lon="6.42069">
        <ele>1457</ele>
        <time>2022-07-17T09:13:15Z</time>
      </trkpt>
      <trkpt lat="45.15522" lon="6.42069">
        <ele>1457.4</ele>
        <time>2022-07-17T09:13:16Z</time>
      </trkpt>
      <trkpt lat="45.15519" lon="6.4207">
        <ele>1457.4</ele>
        <time>2022-07-17T09:13:17Z</time>
      </trkpt>
      <trkpt lat="45.15517" lon="6.4207">
        <ele>1457.8</ele>
        <time>2022-07-17T09:13:18Z</time>
      </trkpt>
      <trkpt lat="45.15515" lon="6.42071">
        <ele>1458</ele>
        <time>2022-07-17T09:13:19Z</time>
      </trkpt>
      <trkpt lat="45.15513" lon="6.42071">
        <ele>1458</ele>
        <time>2022-07-17T09:13:20Z</time>
      </trkpt>
      <trkpt lat="45.1551" lon="6.42071">
        <ele>1458.4</ele>
        <time>2022-07-17T09:13:21Z</time>
      </trkpt>
      <trkpt lat="45.15508" lon="6.42072">
        <ele>1458.4</ele>
        <time>2022-07-17T09:13:22Z</time>
      </trkpt>
      <trkpt lat="45.15506" lon="6.42072">
        <ele>1458.8</ele>
        <time>2022-07-17T09:13:23Z</time>
      </trkpt>
      <trkpt lat="45.15503" lon="6.42073">
        <ele>1458.8</ele>
        <time>2022-07-17T09:13:24Z</time>
      </trkpt>
      <trkpt lat="45.15501" lon="6.42073">
        <ele>1459.2</ele>
        <time>2022-07-17T09:13:25Z</time>
      </trkpt>
      <trkpt lat="45.15499" lon="6.42074">
        <ele>1459.4</ele>
        <time>2022-07-17T09:13:26Z</time>
      </trkpt>
      <trkpt lat="45.15497" lon="6.42074">
        <ele>1459.6</ele>
        <time>2022-07-17T09:13:27Z</time>
      </trkpt>
      <trkpt lat="45.15495" lon="6.42074">
        <ele>1459.8</ele>
        <time>2022-07-17T09:13:28Z</time>
      </trkpt>
      <trkpt lat="45.15493" lon="6.42075">
        <ele>1460</ele>
        <time>2022-07-17T09:13:29Z</time>
      </trkpt>
      <trkpt lat="45.15491" lon="6.42075">
        <ele>1460.4</ele>
        <time>2022-07-17T09:13:30Z</time>
      </trkpt>
      <trkpt lat="45.15489" lon="6.42075">
        <ele>1460.6</ele>
        <time>2022-07-17T09:13:31Z</time>
      </trkpt>
      <trkpt lat="45.15486" lon="6.42076">
        <ele>1460.8</ele>
        <time>2022-07-17T09:13:32Z</time>
      </trkpt>
      <trkpt lat="45.15484" lon="6.42076">
        <ele>1461</ele>
        <time>2022-07-17T09:13:33Z</time>
      </trkpt>
      <trkpt lat="45.15482" lon="6.42076">
        <ele>1461</ele>
        <time>2022-07-17T09:13:34Z</time>
      </trkpt>
      <trkpt lat="45.1548" lon="6.42076">
        <ele>1461.4</ele>
        <time>2022-07-17T09:13:35Z</time>
      </trkpt>
      <trkpt lat="45.15477" lon="6.42076">
        <ele>1461.4</ele>
        <time>2022-07-17T09:13:36Z</time>
      </trkpt>
      <trkpt lat="45.15475" lon="6.42076">
        <ele>1461.8</ele>
        <time>2022-07-17T09:13:37Z</time>
      </trkpt>
      <trkpt lat="45.15473" lon="6.42077">
        <ele>1462</ele>
        <time>2022-07-17T09:13:38Z</time>
      </trkpt>
      <trkpt lat="45.15471" lon="6.42077">
        <ele>1462.2</ele>
        <time>2022-07-17T09:13:39Z</time>
      </trkpt>
      <trkpt lat="45.15469" lon="6.42077">
        <ele>1462.6</ele>
        <time>2022-07-17T09:13:40Z</time>
      </trkpt>
      <trkpt lat="45.15467" lon="6.42077">
        <ele>1462.6</ele>
        <time>2022-07-17T09:13:41Z</time>
      </trkpt>
      <trkpt lat="45.15464" lon="6.42077">
        <ele>1463</ele>
        <time>2022-07-17T09:13:42Z</time>
      </trkpt>
      <trkpt lat="45.15462" lon="6.42078">
        <ele>1463</ele>
        <time>2022-07-17T09:13:43Z</time>
      </trkpt>
      <trkpt lat="45.1546" lon="6.42078">
        <ele>1463.4</ele>
        <time>2022-07-17T09:13:44Z</time>
      </trkpt>
      <trkpt lat="45.15458" lon="6.42078">
        <ele>1463.6</ele>
        <time>2022-07-17T09:13:45Z</time>
      </trkpt>
      <trkpt lat="45.15456" lon="6.42079">
        <ele>1463.8</ele>
        <time>2022-07-17T09:13:46Z</time>
      </trkpt>
      <trkpt lat="45.15453" lon="6.42079">
        <ele>1463.8</ele>
        <time>2022-07-17T09:13:47Z</time>
      </trkpt>
      <trkpt lat="45.15451" lon="6.42079">
        <ele>1464.4</ele>
        <time>2022-07-17T09:13:48Z</time>
      </trkpt>
      <trkpt lat="45.15449" lon="6.42079">
        <ele>1464.6</ele>
        <time>2022-07-17T09:13:49Z</time>
      </trkpt>
      <trkpt lat="45.15447" lon="6.42079">
        <ele>1464.8</ele>
        <time>2022-07-17T09:13:50Z</time>
      </trkpt>
      <trkpt lat="45.15444" lon="6.42079">
        <ele>1465.2</ele>
        <time>2022-07-17T09:13:51Z</time>
      </trkpt>
      <trkpt lat="45.15442" lon="6.4208">
        <ele>1465.4</ele>
        <time>2022-07-17T09:13:52Z</time>
      </trkpt>
      <trkpt lat="45.1544" lon="6.4208">
        <ele>1465.6</ele>
        <time>2022-07-17T09:13:53Z</time>
      </trkpt>
      <trkpt lat="45.15438" lon="6.42079">
        <ele>1465.6</ele>
        <time>2022-07-17T09:13:54Z</time>
      </trkpt>
      <trkpt lat="45.15435" lon="6.42079">
        <ele>1466</ele>
        <time>2022-07-17T09:13:55Z</time>
      </trkpt>
      <trkpt lat="45.15433" lon="6.42078">
        <ele>1466</ele>
        <time>2022-07-17T09:13:56Z</time>
      </trkpt>
      <trkpt lat="45.15431" lon="6.42078">
        <ele>1466.4</ele>
        <time>2022-07-17T09:13:57Z</time>
      </trkpt>
      <trkpt lat="45.15428" lon="6.42077">
        <ele>1466.4</ele>
        <time>2022-07-17T09:13:58Z</time>
      </trkpt>
      <trkpt lat="45.15426" lon="6.42077">
        <ele>1467</ele>
        <time>2022-07-17T09:13:59Z</time>
      </trkpt>
      <trkpt lat="45.15423" lon="6.42076">
        <ele>1467</ele>
        <time>2022-07-17T09:14:00Z</time>
      </trkpt>
      <trkpt lat="45.15421" lon="6.42076">
        <ele>1467.4</ele>
        <time>2022-07-17T09:14:01Z</time>
      </trkpt>
      <trkpt lat="45.15418" lon="6.42076">
        <ele>1467.4</ele>
        <time>2022-07-17T09:14:02Z</time>
      </trkpt>
      <trkpt lat="45.15416" lon="6.42076">
        <ele>1467.6</ele>
        <time>2022-07-17T09:14:03Z</time>
      </trkpt>
      <trkpt lat="45.15413" lon="6.42076">
        <ele>1467.8</ele>
        <time>2022-07-17T09:14:04Z</time>
      </trkpt>
      <trkpt lat="45.15411" lon="6.42076">
        <ele>1467.8</ele>
        <time>2022-07-17T09:14:05Z</time>
      </trkpt>
      <trkpt lat="45.15409" lon="6.42075">
        <ele>1468.2</ele>
        <time>2022-07-17T09:14:06Z</time>
      </trkpt>
      <trkpt lat="45.15406" lon="6.42075">
        <ele>1468.2</ele>
        <time>2022-07-17T09:14:07Z</time>
      </trkpt>
      <trkpt lat="45.15404" lon="6.42075">
        <ele>1468.6</ele>
        <time>2022-07-17T09:14:08Z</time>
      </trkpt>
      <trkpt lat="45.15402" lon="6.42074">
        <ele>1468.6</ele>
        <time>2022-07-17T09:14:09Z</time>
      </trkpt>
      <trkpt lat="45.15399" lon="6.42074">
        <ele>1469</ele>
        <time>2022-07-17T09:14:10Z</time>
      </trkpt>
      <trkpt lat="45.15397" lon="6.42073">
        <ele>1469</ele>
        <time>2022-07-17T09:14:11Z</time>
      </trkpt>
      <trkpt lat="45.15395" lon="6.42073">
        <ele>1469.4</ele>
        <time>2022-07-17T09:14:12Z</time>
      </trkpt>
      <trkpt lat="45.15392" lon="6.42072">
        <ele>1469.4</ele>
        <time>2022-07-17T09:14:13Z</time>
      </trkpt>
      <trkpt lat="45.1539" lon="6.42071">
        <ele>1469.8</ele>
        <time>2022-07-17T09:14:14Z</time>
      </trkpt>
      <trkpt lat="45.15388" lon="6.42071">
        <ele>1469.8</ele>
        <time>2022-07-17T09:14:15Z</time>
      </trkpt>
      <trkpt lat="45.15385" lon="6.42071">
        <ele>1470</ele>
        <time>2022-07-17T09:14:16Z</time>
      </trkpt>
      <trkpt lat="45.15383" lon="6.42071">
        <ele>1470</ele>
        <time>2022-07-17T09:14:17Z</time>
      </trkpt>
      <trkpt lat="45.15381" lon="6.4207">
        <ele>1470.4</ele>
        <time>2022-07-17T09:14:18Z</time>
      </trkpt>
      <trkpt lat="45.15378" lon="6.4207">
        <ele>1470.6</ele>
        <time>2022-07-17T09:14:19Z</time>
      </trkpt>
      <trkpt lat="45.15376" lon="6.4207">
        <ele>1471</ele>
        <time>2022-07-17T09:14:20Z</time>
      </trkpt>
      <trkpt lat="45.15374" lon="6.4207">
        <ele>1471.2</ele>
        <time>2022-07-17T09:14:21Z</time>
      </trkpt>
      <trkpt lat="45.15371" lon="6.4207">
        <ele>1471.2</ele>
        <time>2022-07-17T09:14:22Z</time>
      </trkpt>
      <trkpt lat="45.15369" lon="6.4207">
        <ele>1471.6</ele>
        <time>2022-07-17T09:14:23Z</time>
      </trkpt>
      <trkpt lat="45.15367" lon="6.42069">
        <ele>1471.6</ele>
        <time>2022-07-17T09:14:24Z</time>
      </trkpt>
      <trkpt lat="45.15364" lon="6.42069">
        <ele>1472</ele>
        <time>2022-07-17T09:14:25Z</time>
      </trkpt>
      <trkpt lat="45.15362" lon="6.42069">
        <ele>1472.2</ele>
        <time>2022-07-17T09:14:26Z</time>
      </trkpt>
      <trkpt lat="45.1536" lon="6.42068">
        <ele>1472.4</ele>
        <time>2022-07-17T09:14:27Z</time>
      </trkpt>
      <trkpt lat="45.15358" lon="6.42068">
        <ele>1472.6</ele>
        <time>2022-07-17T09:14:28Z</time>
      </trkpt>
      <trkpt lat="45.15355" lon="6.42068">
        <ele>1472.6</ele>
        <time>2022-07-17T09:14:29Z</time>
      </trkpt>
      <trkpt lat="45.15353" lon="6.42067">
        <ele>1473</ele>
        <time>2022-07-17T09:14:30Z</time>
      </trkpt>
      <trkpt lat="45.15351" lon="6.42067">
        <ele>1473</ele>
        <time>2022-07-17T09:14:31Z</time>
      </trkpt>
      <trkpt lat="45.15349" lon="6.42066">
        <ele>1473.2</ele>
        <time>2022-07-17T09:14:32Z</time>
      </trkpt>
      <trkpt lat="45.15346" lon="6.42066">
        <ele>1473.6</ele>
        <time>2022-07-17T09:14:33Z</time>
      </trkpt>
      <trkpt lat="45.15344" lon="6.42065">
        <ele>1473.8</ele>
        <time>2022-07-17T09:14:34Z</time>
      </trkpt>
      <trkpt lat="45.15342" lon="6.42065">
        <ele>1474</ele>
        <time>2022-07-17T09:14:35Z</time>
      </trkpt>
      <trkpt lat="45.1534" lon="6.42065">
        <ele>1474.2</ele>
        <time>2022-07-17T09:14:36Z</time>
      </trkpt>
      <trkpt lat="45.15337" lon="6.42064">
        <ele>1474.4</ele>
        <time>2022-07-17T09:14:37Z</time>
      </trkpt>
      <trkpt lat="45.15335" lon="6.42064">
        <ele>1474.4</ele>
        <time>2022-07-17T09:14:38Z</time>
      </trkpt>
      <trkpt lat="45.15333" lon="6.42064">
        <ele>1474.8</ele>
        <time>2022-07-17T09:14:39Z</time>
      </trkpt>
      <trkpt lat="45.1533" lon="6.42064">
        <ele>1475</ele>
        <time>2022-07-17T09:14:40Z</time>
      </trkpt>
      <trkpt lat="45.15328" lon="6.42064">
        <ele>1475.2</ele>
        <time>2022-07-17T09:14:41Z</time>
      </trkpt>
      <trkpt lat="45.15325" lon="6.42064">
        <ele>1475.2</ele>
        <time>2022-07-17T09:14:42Z</time>
      </trkpt>
      <trkpt lat="45.15323" lon="6.42064">
        <ele>1475.6</ele>
        <time>2022-07-17T09:14:43Z</time>
      </trkpt>
      <trkpt lat="45.15321" lon="6.42065">
        <ele>1475.6</ele>
        <time>2022-07-17T09:14:44Z</time>
      </trkpt>
      <trkpt lat="45.15318" lon="6.42065">
        <ele>1476</ele>
        <time>2022-07-17T09:14:45Z</time>
      </trkpt>
      <trkpt lat="45.15316" lon="6.42065">
        <ele>1476.2</ele>
        <time>2022-07-17T09:14:46Z</time>
      </trkpt>
      <trkpt lat="45.15314" lon="6.42065">
        <ele>1476.2</ele>
        <time>2022-07-17T09:14:47Z</time>
      </trkpt>
      <trkpt lat="45.15311" lon="6.42066">
        <ele>1476.6</ele>
        <time>2022-07-17T09:14:48Z</time>
      </trkpt>
      <trkpt lat="45.15309" lon="6.42066">
        <ele>1476.6</ele>
        <time>2022-07-17T09:14:49Z</time>
      </trkpt>
      <trkpt lat="45.15307" lon="6.42067">
        <ele>1477</ele>
        <time>2022-07-17T09:14:50Z</time>
      </trkpt>
      <trkpt lat="45.15304" lon="6.42068">
        <ele>1477</ele>
        <time>2022-07-17T09:14:51Z</time>
      </trkpt>
      <trkpt lat="45.15302" lon="6.42069">
        <ele>1477.2</ele>
        <time>2022-07-17T09:14:52Z</time>
      </trkpt>
      <trkpt lat="45.153" lon="6.42069">
        <ele>1477.4</ele>
        <time>2022-07-17T09:14:53Z</time>
      </trkpt>
      <trkpt lat="45.15297" lon="6.4207">
        <ele>1477.8</ele>
        <time>2022-07-17T09:14:54Z</time>
      </trkpt>
      <trkpt lat="45.15295" lon="6.42071">
        <ele>1478</ele>
        <time>2022-07-17T09:14:55Z</time>
      </trkpt>
      <trkpt lat="45.15293" lon="6.42072">
        <ele>1478.2</ele>
        <time>2022-07-17T09:14:56Z</time>
      </trkpt>
      <trkpt lat="45.1529" lon="6.42074">
        <ele>1478.4</ele>
        <time>2022-07-17T09:14:57Z</time>
      </trkpt>
      <trkpt lat="45.15288" lon="6.42074">
        <ele>1478.4</ele>
        <time>2022-07-17T09:14:58Z</time>
      </trkpt>
      <trkpt lat="45.15286" lon="6.42075">
        <ele>1478.8</ele>
        <time>2022-07-17T09:14:59Z</time>
      </trkpt>
      <trkpt lat="45.15283" lon="6.42075">
        <ele>1478.8</ele>
        <time>2022-07-17T09:15:00Z</time>
      </trkpt>
      <trkpt lat="45.15281" lon="6.42075">
        <ele>1479.2</ele>
        <time>2022-07-17T09:15:01Z</time>
      </trkpt>
      <trkpt lat="45.15279" lon="6.42076">
        <ele>1479.4</ele>
        <time>2022-07-17T09:15:02Z</time>
      </trkpt>
      <trkpt lat="45.15277" lon="6.42076">
        <ele>1479.6</ele>
        <time>2022-07-17T09:15:03Z</time>
      </trkpt>
      <trkpt lat="45.15274" lon="6.42076">
        <ele>1479.8</ele>
        <time>2022-07-17T09:15:04Z</time>
      </trkpt>
      <trkpt lat="45.15272" lon="6.42075">
        <ele>1480</ele>
        <time>2022-07-17T09:15:05Z</time>
      </trkpt>
      <trkpt lat="45.1527" lon="6.42075">
        <ele>1480.4</ele>
        <time>2022-07-17T09:15:06Z</time>
      </trkpt>
      <trkpt lat="45.15268" lon="6.42074">
        <ele>1480.6</ele>
        <time>2022-07-17T09:15:07Z</time>
      </trkpt>
      <trkpt lat="45.15266" lon="6.42073">
        <ele>1480.8</ele>
        <time>2022-07-17T09:15:08Z</time>
      </trkpt>
      <trkpt lat="45.15264" lon="6.42072">
        <ele>1481</ele>
        <time>2022-07-17T09:15:09Z</time>
      </trkpt>
      <trkpt lat="45.15262" lon="6.42071">
        <ele>1481.2</ele>
        <time>2022-07-17T09:15:10Z</time>
      </trkpt>
      <trkpt lat="45.1526" lon="6.4207">
        <ele>1481.4</ele>
        <time>2022-07-17T09:15:11Z</time>
      </trkpt>
      <trkpt lat="45.15258" lon="6.42069">
        <ele>1481.4</ele>
        <time>2022-07-17T09:15:12Z</time>
      </trkpt>
      <trkpt lat="45.15256" lon="6.42068">
        <ele>1481.8</ele>
        <time>2022-07-17T09:15:13Z</time>
      </trkpt>
      <trkpt lat="45.15254" lon="6.42067">
        <ele>1481.8</ele>
        <time>2022-07-17T09:15:14Z</time>
      </trkpt>
      <trkpt lat="45.15252" lon="6.42066">
        <ele>1482.2</ele>
        <time>2022-07-17T09:15:15Z</time>
      </trkpt>
      <trkpt lat="45.15249" lon="6.42065">
        <ele>1482.2</ele>
        <time>2022-07-17T09:15:16Z</time>
      </trkpt>
      <trkpt lat="45.15247" lon="6.42064">
        <ele>1482.6</ele>
        <time>2022-07-17T09:15:17Z</time>
      </trkpt>
      <trkpt lat="45.15245" lon="6.42063">
        <ele>1483</ele>
        <time>2022-07-17T09:15:18Z</time>
      </trkpt>
      <trkpt lat="45.15243" lon="6.42062">
        <ele>1483.2</ele>
        <time>2022-07-17T09:15:19Z</time>
      </trkpt>
      <trkpt lat="45.15241" lon="6.42061">
        <ele>1483.4</ele>
        <time>2022-07-17T09:15:20Z</time>
      </trkpt>
      <trkpt lat="45.15239" lon="6.4206">
        <ele>1483.6</ele>
        <time>2022-07-17T09:15:21Z</time>
      </trkpt>
      <trkpt lat="45.15237" lon="6.42059">
        <ele>1483.8</ele>
        <time>2022-07-17T09:15:22Z</time>
      </trkpt>
      <trkpt lat="45.15235" lon="6.42058">
        <ele>1483.8</ele>
        <time>2022-07-17T09:15:23Z</time>
      </trkpt>
      <trkpt lat="45.15233" lon="6.42057">
        <ele>1484.2</ele>
        <time>2022-07-17T09:15:24Z</time>
      </trkpt>
      <trkpt lat="45.15231" lon="6.42056">
        <ele>1484.4</ele>
        <time>2022-07-17T09:15:25Z</time>
      </trkpt>
      <trkpt lat="45.15229" lon="6.42055">
        <ele>1484.8</ele>
        <time>2022-07-17T09:15:26Z</time>
      </trkpt>
      <trkpt lat="45.15227" lon="6.42054">
        <ele>1485</ele>
        <time>2022-07-17T09:15:27Z</time>
      </trkpt>
      <trkpt lat="45.15225" lon="6.42052">
        <ele>1485.2</ele>
        <time>2022-07-17T09:15:28Z</time>
      </trkpt>
      <trkpt lat="45.15223" lon="6.42051">
        <ele>1485.4</ele>
        <time>2022-07-17T09:15:29Z</time>
      </trkpt>
      <trkpt lat="45.1522" lon="6.4205">
        <ele>1485.6</ele>
        <time>2022-07-17T09:15:30Z</time>
      </trkpt>
      <trkpt lat="45.15218" lon="6.42049">
        <ele>1485.8</ele>
        <time>2022-07-17T09:15:31Z</time>
      </trkpt>
      <trkpt lat="45.15216" lon="6.42047">
        <ele>1485.8</ele>
        <time>2022-07-17T09:15:32Z</time>
      </trkpt>
      <trkpt lat="45.15214" lon="6.42046">
        <ele>1486.2</ele>
        <time>2022-07-17T09:15:33Z</time>
      </trkpt>
      <trkpt lat="45.15212" lon="6.42045">
        <ele>1486.6</ele>
        <time>2022-07-17T09:15:34Z</time>
      </trkpt>
      <trkpt lat="45.1521" lon="6.42044">
        <ele>1486.8</ele>
        <time>2022-07-17T09:15:35Z</time>
      </trkpt>
      <trkpt lat="45.15207" lon="6.42043">
        <ele>1487</ele>
        <time>2022-07-17T09:15:36Z</time>
      </trkpt>
      <trkpt lat="45.15205" lon="6.42042">
        <ele>1487</ele>
        <time>2022-07-17T09:15:37Z</time>
      </trkpt>
      <trkpt lat="45.15203" lon="6.42041">
        <ele>1487.4</ele>
        <time>2022-07-17T09:15:38Z</time>
      </trkpt>
      <trkpt lat="45.15201" lon="6.4204">
        <ele>1487.4</ele>
        <time>2022-07-17T09:15:39Z</time>
      </trkpt>
      <trkpt lat="45.15199" lon="6.42038">
        <ele>1487.8</ele>
        <time>2022-07-17T09:15:40Z</time>
      </trkpt>
      <trkpt lat="45.15197" lon="6.42037">
        <ele>1487.8</ele>
        <time>2022-07-17T09:15:41Z</time>
      </trkpt>
      <trkpt lat="45.15194" lon="6.42036">
        <ele>1488.2</ele>
        <time>2022-07-17T09:15:42Z</time>
      </trkpt>
      <trkpt lat="45.15192" lon="6.42035">
        <ele>1488.2</ele>
        <time>2022-07-17T09:15:43Z</time>
      </trkpt>
      <trkpt lat="45.1519" lon="6.42033">
        <ele>1488.4</ele>
        <time>2022-07-17T09:15:44Z</time>
      </trkpt>
      <trkpt lat="45.15188" lon="6.42032">
        <ele>1488.4</ele>
        <time>2022-07-17T09:15:45Z</time>
      </trkpt>
      <trkpt lat="45.15186" lon="6.42031">
        <ele>1488.8</ele>
        <time>2022-07-17T09:15:46Z</time>
      </trkpt>
      <trkpt lat="45.15184" lon="6.4203">
        <ele>1488.8</ele>
        <time>2022-07-17T09:15:47Z</time>
      </trkpt>
      <trkpt lat="45.15182" lon="6.42029">
        <ele>1489.4</ele>
        <time>2022-07-17T09:15:48Z</time>
      </trkpt>
      <trkpt lat="45.1518" lon="6.42028">
        <ele>1489.6</ele>
        <time>2022-07-17T09:15:49Z</time>
      </trkpt>
      <trkpt lat="45.15178" lon="6.42027">
        <ele>1489.6</ele>
        <time>2022-07-17T09:15:50Z</time>
      </trkpt>
      <trkpt lat="45.15176" lon="6.42026">
        <ele>1490</ele>
        <time>2022-07-17T09:15:51Z</time>
      </trkpt>
      <trkpt lat="45.15174" lon="6.42025">
        <ele>1490</ele>
        <time>2022-07-17T09:15:52Z</time>
      </trkpt>
      <trkpt lat="45.15172" lon="6.42024">
        <ele>1490.6</ele>
        <time>2022-07-17T09:15:53Z</time>
      </trkpt>
      <trkpt lat="45.1517" lon="6.42024">
        <ele>1490.8</ele>
        <time>2022-07-17T09:15:54Z</time>
      </trkpt>
      <trkpt lat="45.15167" lon="6.42023">
        <ele>1491</ele>
        <time>2022-07-17T09:15:55Z</time>
      </trkpt>
      <trkpt lat="45.15165" lon="6.42022">
        <ele>1491.2</ele>
        <time>2022-07-17T09:15:56Z</time>
      </trkpt>
      <trkpt lat="45.15163" lon="6.42021">
        <ele>1491.2</ele>
        <time>2022-07-17T09:15:57Z</time>
      </trkpt>
      <trkpt lat="45.15161" lon="6.42021">
        <ele>1491.6</ele>
        <time>2022-07-17T09:15:58Z</time>
      </trkpt>
      <trkpt lat="45.15159" lon="6.4202">
        <ele>1491.6</ele>
        <time>2022-07-17T09:15:59Z</time>
      </trkpt>
      <trkpt lat="45.15157" lon="6.4202">
        <ele>1492</ele>
        <time>2022-07-17T09:16:00Z</time>
      </trkpt>
      <trkpt lat="45.15154" lon="6.42019">
        <ele>1492.2</ele>
        <time>2022-07-17T09:16:01Z</time>
      </trkpt>
      <trkpt lat="45.15152" lon="6.42019">
        <ele>1492.4</ele>
        <time>2022-07-17T09:16:02Z</time>
      </trkpt>
      <trkpt lat="45.15149" lon="6.42018">
        <ele>1492.6</ele>
        <time>2022-07-17T09:16:03Z</time>
      </trkpt>
      <trkpt lat="45.15147" lon="6.42018">
        <ele>1492.6</ele>
        <time>2022-07-17T09:16:04Z</time>
      </trkpt>
      <trkpt lat="45.15144" lon="6.42019">
        <ele>1493.2</ele>
        <time>2022-07-17T09:16:05Z</time>
      </trkpt>
      <trkpt lat="45.15141" lon="6.42019">
        <ele>1493.4</ele>
        <time>2022-07-17T09:16:06Z</time>
      </trkpt>
      <trkpt lat="45.15139" lon="6.42019">
        <ele>1493.6</ele>
        <time>2022-07-17T09:16:07Z</time>
      </trkpt>
      <trkpt lat="45.15136" lon="6.42019">
        <ele>1493.8</ele>
        <time>2022-07-17T09:16:08Z</time>
      </trkpt>
      <trkpt lat="45.15134" lon="6.42019">
        <ele>1493.8</ele>
        <time>2022-07-17T09:16:09Z</time>
      </trkpt>
      <trkpt lat="45.15132" lon="6.4202">
        <ele>1494</ele>
        <time>2022-07-17T09:16:10Z</time>
      </trkpt>
      <trkpt lat="45.15129" lon="6.4202">
        <ele>1494</ele>
        <time>2022-07-17T09:16:11Z</time>
      </trkpt>
      <trkpt lat="45.15127" lon="6.42021">
        <ele>1494.4</ele>
        <time>2022-07-17T09:16:12Z</time>
      </trkpt>
      <trkpt lat="45.15124" lon="6.42022">
        <ele>1494.4</ele>
        <time>2022-07-17T09:16:13Z</time>
      </trkpt>
      <trkpt lat="45.15122" lon="6.42023">
        <ele>1494.8</ele>
        <time>2022-07-17T09:16:14Z</time>
      </trkpt>
      <trkpt lat="45.15119" lon="6.42024">
        <ele>1495</ele>
        <time>2022-07-17T09:16:15Z</time>
      </trkpt>
      <trkpt lat="45.15117" lon="6.42025">
        <ele>1495.2</ele>
        <time>2022-07-17T09:16:16Z</time>
      </trkpt>
      <trkpt lat="45.15115" lon="6.42027">
        <ele>1495.2</ele>
        <time>2022-07-17T09:16:17Z</time>
      </trkpt>
      <trkpt lat="45.15113" lon="6.42028">
        <ele>1495.6</ele>
        <time>2022-07-17T09:16:18Z</time>
      </trkpt>
      <trkpt lat="45.1511" lon="6.4203">
        <ele>1495.8</ele>
        <time>2022-07-17T09:16:19Z</time>
      </trkpt>
      <trkpt lat="45.15108" lon="6.42032">
        <ele>1496</ele>
        <time>2022-07-17T09:16:20Z</time>
      </trkpt>
      <trkpt lat="45.15106" lon="6.42034">
        <ele>1496</ele>
        <time>2022-07-17T09:16:21Z</time>
      </trkpt>
      <trkpt lat="45.15104" lon="6.42035">
        <ele>1496.4</ele>
        <time>2022-07-17T09:16:22Z</time>
      </trkpt>
      <trkpt lat="45.15101" lon="6.42036">
        <ele>1496.8</ele>
        <time>2022-07-17T09:16:23Z</time>
      </trkpt>
      <trkpt lat="45.15099" lon="6.42038">
        <ele>1497</ele>
        <time>2022-07-17T09:16:24Z</time>
      </trkpt>
      <trkpt lat="45.15097" lon="6.42039">
        <ele>1497.2</ele>
        <time>2022-07-17T09:16:25Z</time>
      </trkpt>
      <trkpt lat="45.15095" lon="6.42041">
        <ele>1497.4</ele>
        <time>2022-07-17T09:16:26Z</time>
      </trkpt>
      <trkpt lat="45.15092" lon="6.42042">
        <ele>1497.4</ele>
        <time>2022-07-17T09:16:27Z</time>
      </trkpt>
      <trkpt lat="45.1509" lon="6.42044">
        <ele>1497.8</ele>
        <time>2022-07-17T09:16:28Z</time>
      </trkpt>
      <trkpt lat="45.15088" lon="6.42045">
        <ele>1498</ele>
        <time>2022-07-17T09:16:29Z</time>
      </trkpt>
      <trkpt lat="45.15085" lon="6.42046">
        <ele>1498</ele>
        <time>2022-07-17T09:16:30Z</time>
      </trkpt>
      <trkpt lat="45.15083" lon="6.42047">
        <ele>1498.4</ele>
        <time>2022-07-17T09:16:31Z</time>
      </trkpt>
      <trkpt lat="45.15081" lon="6.42048">
        <ele>1498.8</ele>
        <time>2022-07-17T09:16:32Z</time>
      </trkpt>
      <trkpt lat="45.15078" lon="6.42049">
        <ele>1499</ele>
        <time>2022-07-17T09:16:33Z</time>
      </trkpt>
      <trkpt lat="45.15076" lon="6.42049">
        <ele>1499.4</ele>
        <time>2022-07-17T09:16:34Z</time>
      </trkpt>
      <trkpt lat="45.15073" lon="6.42049">
        <ele>1499.6</ele>
        <time>2022-07-17T09:16:35Z</time>
      </trkpt>
      <trkpt lat="45.15071" lon="6.42049">
        <ele>1499.8</ele>
        <time>2022-07-17T09:16:36Z</time>
      </trkpt>
      <trkpt lat="45.15068" lon="6.42049">
        <ele>1500</ele>
        <time>2022-07-17T09:16:37Z</time>
      </trkpt>
      <trkpt lat="45.15065" lon="6.42049">
        <ele>1500.4</ele>
        <time>2022-07-17T09:16:38Z</time>
      </trkpt>
      <trkpt lat="45.15063" lon="6.42049">
        <ele>1500.6</ele>
        <time>2022-07-17T09:16:39Z</time>
      </trkpt>
      <trkpt lat="45.1506" lon="6.42048">
        <ele>1500.6</ele>
        <time>2022-07-17T09:16:40Z</time>
      </trkpt>
      <trkpt lat="45.15058" lon="6.42048">
        <ele>1500.8</ele>
        <time>2022-07-17T09:16:41Z</time>
      </trkpt>
      <trkpt lat="45.15055" lon="6.42047">
        <ele>1500.8</ele>
        <time>2022-07-17T09:16:42Z</time>
      </trkpt>
      <trkpt lat="45.15052" lon="6.42047">
        <ele>1501</ele>
        <time>2022-07-17T09:16:43Z</time>
      </trkpt>
      <trkpt lat="45.15049" lon="6.42047">
        <ele>1501</ele>
        <time>2022-07-17T09:16:44Z</time>
      </trkpt>
      <trkpt lat="45.15047" lon="6.42047">
        <ele>1501.4</ele>
        <time>2022-07-17T09:16:45Z</time>
      </trkpt>
      <trkpt lat="45.15044" lon="6.42046">
        <ele>1501.4</ele>
        <time>2022-07-17T09:16:46Z</time>
      </trkpt>
      <trkpt lat="45.15041" lon="6.42046">
        <ele>1501.6</ele>
        <time>2022-07-17T09:16:47Z</time>
      </trkpt>
      <trkpt lat="45.15038" lon="6.42045">
        <ele>1501.6</ele>
        <time>2022-07-17T09:16:48Z</time>
      </trkpt>
      <trkpt lat="45.15035" lon="6.42045">
        <ele>1501.8</ele>
        <time>2022-07-17T09:16:49Z</time>
      </trkpt>
      <trkpt lat="45.15032" lon="6.42044">
        <ele>1501.8</ele>
        <time>2022-07-17T09:16:50Z</time>
      </trkpt>
      <trkpt lat="45.15029" lon="6.42044">
        <ele>1502</ele>
        <time>2022-07-17T09:16:51Z</time>
      </trkpt>
      <trkpt lat="45.15026" lon="6.42044">
        <ele>1502.2</ele>
        <time>2022-07-17T09:16:52Z</time>
      </trkpt>
      <trkpt lat="45.15023" lon="6.42043">
        <ele>1502.2</ele>
        <time>2022-07-17T09:16:53Z</time>
      </trkpt>
      <trkpt lat="45.1502" lon="6.42043">
        <ele>1502.2</ele>
        <time>2022-07-17T09:16:54Z</time>
      </trkpt>
      <trkpt lat="45.15017" lon="6.42042">
        <ele>1502.2</ele>
        <time>2022-07-17T09:16:55Z</time>
      </trkpt>
      <trkpt lat="45.15014" lon="6.42042">
        <ele>1502.6</ele>
        <time>2022-07-17T09:16:56Z</time>
      </trkpt>
      <trkpt lat="45.15011" lon="6.42042">
        <ele>1502.6</ele>
        <time>2022-07-17T09:16:57Z</time>
      </trkpt>
      <trkpt lat="45.15008" lon="6.42042">
        <ele>1502.8</ele>
        <time>2022-07-17T09:16:58Z</time>
      </trkpt>
      <trkpt lat="45.15005" lon="6.42042">
        <ele>1502.8</ele>
        <time>2022-07-17T09:16:59Z</time>
      </trkpt>
      <trkpt lat="45.15001" lon="6.42043">
        <ele>1503.2</ele>
        <time>2022-07-17T09:17:00Z</time>
      </trkpt>
      <trkpt lat="45.14998" lon="6.42043">
        <ele>1503.2</ele>
        <time>2022-07-17T09:17:01Z</time>
      </trkpt>
      <trkpt lat="45.14995" lon="6.42044">
        <ele>1503.2</ele>
        <time>2022-07-17T09:17:02Z</time>
      </trkpt>
      <trkpt lat="45.14992" lon="6.42045">
        <ele>1503.4</ele>
        <time>2022-07-17T09:17:03Z</time>
      </trkpt>
      <trkpt lat="45.14988" lon="6.42046">
        <ele>1503.4</ele>
        <time>2022-07-17T09:17:04Z</time>
      </trkpt>
      <trkpt lat="45.14985" lon="6.42047">
        <ele>1503.4</ele>
        <time>2022-07-17T09:17:05Z</time>
      </trkpt>
      <trkpt lat="45.14982" lon="6.42048">
        <ele>1503.6</ele>
        <time>2022-07-17T09:17:06Z</time>
      </trkpt>
      <trkpt lat="45.14979" lon="6.42048">
        <ele>1503.8</ele>
        <time>2022-07-17T09:17:07Z</time>
      </trkpt>
      <trkpt lat="45.14976" lon="6.42048">
        <ele>1503.8</ele>
        <time>2022-07-17T09:17:08Z</time>
      </trkpt>
      <trkpt lat="45.14974" lon="6.42049">
        <ele>1504.2</ele>
        <time>2022-07-17T09:17:09Z</time>
      </trkpt>
      <trkpt lat="45.14971" lon="6.4205">
        <ele>1504.2</ele>
        <time>2022-07-17T09:17:10Z</time>
      </trkpt>
      <trkpt lat="45.14968" lon="6.4205">
        <ele>1504.2</ele>
        <time>2022-07-17T09:17:11Z</time>
      </trkpt>
      <trkpt lat="45.14965" lon="6.42051">
        <ele>1504.4</ele>
        <time>2022-07-17T09:17:12Z</time>
      </trkpt>
      <trkpt lat="45.14961" lon="6.42051">
        <ele>1504.4</ele>
        <time>2022-07-17T09:17:13Z</time>
      </trkpt>
      <trkpt lat="45.14957" lon="6.42052">
        <ele>1504.6</ele>
        <time>2022-07-17T09:17:14Z</time>
      </trkpt>
      <trkpt lat="45.14954" lon="6.42052">
        <ele>1504.6</ele>
        <time>2022-07-17T09:17:15Z</time>
      </trkpt>
      <trkpt lat="45.14951" lon="6.42052">
        <ele>1504.6</ele>
        <time>2022-07-17T09:17:16Z</time>
      </trkpt>
      <trkpt lat="45.14948" lon="6.42053">
        <ele>1505</ele>
        <time>2022-07-17T09:17:17Z</time>
      </trkpt>
      <trkpt lat="45.14945" lon="6.42053">
        <ele>1505</ele>
        <time>2022-07-17T09:17:18Z</time>
      </trkpt>
      <trkpt lat="45.14942" lon="6.42052">
        <ele>1505.2</ele>
        <time>2022-07-17T09:17:19Z</time>
      </trkpt>
      <trkpt lat="45.14939" lon="6.42052">
        <ele>1505.2</ele>
        <time>2022-07-17T09:17:20Z</time>
      </trkpt>
      <trkpt lat="45.14935" lon="6.42051">
        <ele>1505.6</ele>
        <time>2022-07-17T09:17:21Z</time>
      </trkpt>
      <trkpt lat="45.14932" lon="6.4205">
        <ele>1505.6</ele>
        <time>2022-07-17T09:17:22Z</time>
      </trkpt>
      <trkpt lat="45.14929" lon="6.4205">
        <ele>1505.8</ele>
        <time>2022-07-17T09:17:23Z</time>
      </trkpt>
      <trkpt lat="45.14926" lon="6.42049">
        <ele>1506</ele>
        <time>2022-07-17T09:17:24Z</time>
      </trkpt>
      <trkpt lat="45.14923" lon="6.42048">
        <ele>1506.2</ele>
        <time>2022-07-17T09:17:25Z</time>
      </trkpt>
      <trkpt lat="45.1492" lon="6.42048">
        <ele>1506.2</ele>
        <time>2022-07-17T09:17:26Z</time>
      </trkpt>
      <trkpt lat="45.14916" lon="6.42048">
        <ele>1506.6</ele>
        <time>2022-07-17T09:17:27Z</time>
      </trkpt>
      <trkpt lat="45.14913" lon="6.42047">
        <ele>1506.6</ele>
        <time>2022-07-17T09:17:28Z</time>
      </trkpt>
      <trkpt lat="45.1491" lon="6.42046">
        <ele>1506.8</ele>
        <time>2022-07-17T09:17:29Z</time>
      </trkpt>
      <trkpt lat="45.14907" lon="6.42046">
        <ele>1506.8</ele>
        <time>2022-07-17T09:17:30Z</time>
      </trkpt>
      <trkpt lat="45.14904" lon="6.42045">
        <ele>1507.2</ele>
        <time>2022-07-17T09:17:31Z</time>
      </trkpt>
      <trkpt lat="45.14901" lon="6.42045">
        <ele>1507.2</ele>
        <time>2022-07-17T09:17:32Z</time>
      </trkpt>
      <trkpt lat="45.14898" lon="6.42046">
        <ele>1507.6</ele>
        <time>2022-07-17T09:17:33Z</time>
      </trkpt>
      <trkpt lat="45.14895" lon="6.42047">
        <ele>1507.6</ele>
        <time>2022-07-17T09:17:34Z</time>
      </trkpt>
      <trkpt lat="45.14892" lon="6.42047">
        <ele>1507.8</ele>
        <time>2022-07-17T09:17:35Z</time>
      </trkpt>
      <trkpt lat="45.14889" lon="6.42048">
        <ele>1507.8</ele>
        <time>2022-07-17T09:17:36Z</time>
      </trkpt>
      <trkpt lat="45.14885" lon="6.42048">
        <ele>1507.8</ele>
        <time>2022-07-17T09:17:37Z</time>
      </trkpt>
      <trkpt lat="45.14883" lon="6.42049">
        <ele>1508.2</ele>
        <time>2022-07-17T09:17:38Z</time>
      </trkpt>
      <trkpt lat="45.14879" lon="6.4205">
        <ele>1508.2</ele>
        <time>2022-07-17T09:17:39Z</time>
      </trkpt>
      <trkpt lat="45.14876" lon="6.42051">
        <ele>1508.4</ele>
        <time>2022-07-17T09:17:40Z</time>
      </trkpt>
      <trkpt lat="45.14873" lon="6.42052">
        <ele>1508.4</ele>
        <time>2022-07-17T09:17:41Z</time>
      </trkpt>
      <trkpt lat="45.1487" lon="6.42053">
        <ele>1508.6</ele>
        <time>2022-07-17T09:17:42Z</time>
      </trkpt>
      <trkpt lat="45.14866" lon="6.42054">
        <ele>1508.6</ele>
        <time>2022-07-17T09:17:43Z</time>
      </trkpt>
      <trkpt lat="45.14863" lon="6.42055">
        <ele>1508.6</ele>
        <time>2022-07-17T09:17:44Z</time>
      </trkpt>
      <trkpt lat="45.14859" lon="6.42056">
        <ele>1509</ele>
        <time>2022-07-17T09:17:45Z</time>
      </trkpt>
      <trkpt lat="45.14856" lon="6.42057">
        <ele>1509</ele>
        <time>2022-07-17T09:17:46Z</time>
      </trkpt>
      <trkpt lat="45.14852" lon="6.42057">
        <ele>1509.2</ele>
        <time>2022-07-17T09:17:47Z</time>
      </trkpt>
      <trkpt lat="45.14848" lon="6.42057">
        <ele>1509.2</ele>
        <time>2022-07-17T09:17:48Z</time>
      </trkpt>
      <trkpt lat="45.14845" lon="6.42056">
        <ele>1509.2</ele>
        <time>2022-07-17T09:17:49Z</time>
      </trkpt>
      <trkpt lat="45.14842" lon="6.42055">
        <ele>1509.2</ele>
        <time>2022-07-17T09:17:50Z</time>
      </trkpt>
      <trkpt lat="45.14838" lon="6.42054">
        <ele>1509.2</ele>
        <time>2022-07-17T09:17:51Z</time>
      </trkpt>
      <trkpt lat="45.14835" lon="6.42052">
        <ele>1509.4</ele>
        <time>2022-07-17T09:17:52Z</time>
      </trkpt>
      <trkpt lat="45.14832" lon="6.4205">
        <ele>1509.4</ele>
        <time>2022-07-17T09:17:53Z</time>
      </trkpt>
      <trkpt lat="45.14828" lon="6.42048">
        <ele>1509.4</ele>
        <time>2022-07-17T09:17:54Z</time>
      </trkpt>
      <trkpt lat="45.14824" lon="6.42046">
        <ele>1509.4</ele>
        <time>2022-07-17T09:17:55Z</time>
      </trkpt>
      <trkpt lat="45.1482" lon="6.42044">
        <ele>1509.6</ele>
        <time>2022-07-17T09:17:56Z</time>
      </trkpt>
      <trkpt lat="45.14816" lon="6.42043">
        <ele>1509.6</ele>
        <time>2022-07-17T09:17:57Z</time>
      </trkpt>
      <trkpt lat="45.14812" lon="6.42042">
        <ele>1509.6</ele>
        <time>2022-07-17T09:17:58Z</time>
      </trkpt>
      <trkpt lat="45.14809" lon="6.4204">
        <ele>1509.6</ele>
        <time>2022-07-17T09:17:59Z</time>
      </trkpt>
      <trkpt lat="45.14805" lon="6.42038">
        <ele>1509.6</ele>
        <time>2022-07-17T09:18:00Z</time>
      </trkpt>
      <trkpt lat="45.14801" lon="6.42037">
        <ele>1509.8</ele>
        <time>2022-07-17T09:18:01Z</time>
      </trkpt>
      <trkpt lat="45.14797" lon="6.42035">
        <ele>1509.8</ele>
        <time>2022-07-17T09:18:02Z</time>
      </trkpt>
      <trkpt lat="45.14793" lon="6.42034">
        <ele>1509.8</ele>
        <time>2022-07-17T09:18:03Z</time>
      </trkpt>
      <trkpt lat="45.14789" lon="6.42032">
        <ele>1509.8</ele>
        <time>2022-07-17T09:18:04Z</time>
      </trkpt>
      <trkpt lat="45.14785" lon="6.4203">
        <ele>1509.8</ele>
        <time>2022-07-17T09:18:05Z</time>
      </trkpt>
      <trkpt lat="45.14781" lon="6.42028">
        <ele>1510.2</ele>
        <time>2022-07-17T09:18:06Z</time>
      </trkpt>
      <trkpt lat="45.14777" lon="6.42027">
        <ele>1510.2</ele>
        <time>2022-07-17T09:18:07Z</time>
      </trkpt>
      <trkpt lat="45.14772" lon="6.42026">
        <ele>1510.2</ele>
        <time>2022-07-17T09:18:08Z</time>
      </trkpt>
      <trkpt lat="45.14768" lon="6.42025">
        <ele>1510.2</ele>
        <time>2022-07-17T09:18:09Z</time>
      </trkpt>
      <trkpt lat="45.14764" lon="6.42024">
        <ele>1510.2</ele>
        <time>2022-07-17T09:18:10Z</time>
      </trkpt>
      <trkpt lat="45.1476" lon="6.42023">
        <ele>1510.2</ele>
        <time>2022-07-17T09:18:11Z</time>
      </trkpt>
      <trkpt lat="45.14756" lon="6.42023">
        <ele>1510.2</ele>
        <time>2022-07-17T09:18:12Z</time>
      </trkpt>
      <trkpt lat="45.14751" lon="6.42022">
        <ele>1510.2</ele>
        <time>2022-07-17T09:18:13Z</time>
      </trkpt>
      <trkpt lat="45.14747" lon="6.42023">
        <ele>1510.2</ele>
        <time>2022-07-17T09:18:14Z</time>
      </trkpt>
      <trkpt lat="45.14743" lon="6.42023">
        <ele>1510.2</ele>
        <time>2022-07-17T09:18:15Z</time>
      </trkpt>
      <trkpt lat="45.14738" lon="6.42023">
        <ele>1510.2</ele>
        <time>2022-07-17T09:18:16Z</time>
      </trkpt>
      <trkpt lat="45.14734" lon="6.42023">
        <ele>1510.4</ele>
        <time>2022-07-17T09:18:17Z</time>
      </trkpt>
      <trkpt lat="45.14729" lon="6.42024">
        <ele>1510.4</ele>
        <time>2022-07-17T09:18:18Z</time>
      </trkpt>
      <trkpt lat="45.14724" lon="6.42025">
        <ele>1510.4</ele>
        <time>2022-07-17T09:18:19Z</time>
      </trkpt>
      <trkpt lat="45.1472" lon="6.42026">
        <ele>1510.4</ele>
        <time>2022-07-17T09:18:20Z</time>
      </trkpt>
      <trkpt lat="45.14715" lon="6.42026">
        <ele>1510.4</ele>
        <time>2022-07-17T09:18:21Z</time>
      </trkpt>
      <trkpt lat="45.1471" lon="6.42027">
        <ele>1510.4</ele>
        <time>2022-07-17T09:18:22Z</time>
      </trkpt>
      <trkpt lat="45.14705" lon="6.42028">
        <ele>1510.4</ele>
        <time>2022-07-17T09:18:23Z</time>
      </trkpt>
      <trkpt lat="45.14701" lon="6.42028">
        <ele>1510.4</ele>
        <time>2022-07-17T09:18:24Z</time>
      </trkpt>
      <trkpt lat="45.14696" lon="6.42028">
        <ele>1510.4</ele>
        <time>2022-07-17T09:18:25Z</time>
      </trkpt>
      <trkpt lat="45.14691" lon="6.42028">
        <ele>1510.4</ele>
        <time>2022-07-17T09:18:26Z</time>
      </trkpt>
      <trkpt lat="45.14687" lon="6.42027">
        <ele>1510.4</ele>
        <time>2022-07-17T09:18:27Z</time>
      </trkpt>
      <trkpt lat="45.14683" lon="6.42026">
        <ele>1510.4</ele>
        <time>2022-07-17T09:18:28Z</time>
      </trkpt>
      <trkpt lat="45.14678" lon="6.42026">
        <ele>1510.4</ele>
        <time>2022-07-17T09:18:29Z</time>
      </trkpt>
      <trkpt lat="45.14674" lon="6.42024">
        <ele>1510.4</ele>
        <time>2022-07-17T09:18:30Z</time>
      </trkpt>
      <trkpt lat="45.14669" lon="6.42023">
        <ele>1510.4</ele>
        <time>2022-07-17T09:18:31Z</time>
      </trkpt>
      <trkpt lat="45.14665" lon="6.42022">
        <ele>1510.4</ele>
        <time>2022-07-17T09:18:32Z</time>
      </trkpt>
      <trkpt lat="45.14661" lon="6.42021">
        <ele>1510.4</ele>
        <time>2022-07-17T09:18:33Z</time>
      </trkpt>
      <trkpt lat="45.14656" lon="6.4202">
        <ele>1510.4</ele>
        <time>2022-07-17T09:18:34Z</time>
      </trkpt>
      <trkpt lat="45.14652" lon="6.42018">
        <ele>1510.4</ele>
        <time>2022-07-17T09:18:35Z</time>
      </trkpt>
      <trkpt lat="45.14648" lon="6.42017">
        <ele>1510.4</ele>
        <time>2022-07-17T09:18:36Z</time>
      </trkpt>
      <trkpt lat="45.14643" lon="6.42016">
        <ele>1510.4</ele>
        <time>2022-07-17T09:18:37Z</time>
      </trkpt>
      <trkpt lat="45.14639" lon="6.42015">
        <ele>1510.4</ele>
        <time>2022-07-17T09:18:38Z</time>
      </trkpt>
      <trkpt lat="45.14634" lon="6.42014">
        <ele>1510.4</ele>
        <time>2022-07-17T09:18:39Z</time>
      </trkpt>
      <trkpt lat="45.1463" lon="6.42013">
        <ele>1510.4</ele>
        <time>2022-07-17T09:18:40Z</time>
      </trkpt>
      <trkpt lat="45.14625" lon="6.42012">
        <ele>1510.4</ele>
        <time>2022-07-17T09:18:41Z</time>
      </trkpt>
      <trkpt lat="45.1462" lon="6.42011">
        <ele>1510.4</ele>
        <time>2022-07-17T09:18:42Z</time>
      </trkpt>
      <trkpt lat="45.14615" lon="6.42009">
        <ele>1510.6</ele>
        <time>2022-07-17T09:18:43Z</time>
      </trkpt>
      <trkpt lat="45.1461" lon="6.42008">
        <ele>1510.6</ele>
        <time>2022-07-17T09:18:44Z</time>
      </trkpt>
      <trkpt lat="45.14605" lon="6.42007">
        <ele>1510.6</ele>
        <time>2022-07-17T09:18:45Z</time>
      </trkpt>
      <trkpt lat="45.146" lon="6.42005">
        <ele>1510.8</ele>
        <time>2022-07-17T09:18:46Z</time>
      </trkpt>
      <trkpt lat="45.14595" lon="6.42004">
        <ele>1510.8</ele>
        <time>2022-07-17T09:18:47Z</time>
      </trkpt>
      <trkpt lat="45.14591" lon="6.42003">
        <ele>1510.8</ele>
        <time>2022-07-17T09:18:48Z</time>
      </trkpt>
      <trkpt lat="45.14586" lon="6.42002">
        <ele>1510.8</ele>
        <time>2022-07-17T09:18:49Z</time>
      </trkpt>
      <trkpt lat="45.14582" lon="6.42001">
        <ele>1510.8</ele>
        <time>2022-07-17T09:18:50Z</time>
      </trkpt>
      <trkpt lat="45.14577" lon="6.42">
        <ele>1511.2</ele>
        <time>2022-07-17T09:18:51Z</time>
      </trkpt>
      <trkpt lat="45.14573" lon="6.41999">
        <ele>1511.2</ele>
        <time>2022-07-17T09:18:52Z</time>
      </trkpt>
      <trkpt lat="45.14568" lon="6.41998">
        <ele>1511.2</ele>
        <time>2022-07-17T09:18:53Z</time>
      </trkpt>
      <trkpt lat="45.14564" lon="6.41997">
        <ele>1511.4</ele>
        <time>2022-07-17T09:18:54Z</time>
      </trkpt>
      <trkpt lat="45.14559" lon="6.41996">
        <ele>1511.4</ele>
        <time>2022-07-17T09:18:55Z</time>
      </trkpt>
      <trkpt lat="45.14555" lon="6.41995">
        <ele>1511.4</ele>
        <time>2022-07-17T09:18:56Z</time>
      </trkpt>
      <trkpt lat="45.1455" lon="6.41994">
        <ele>1511.4</ele>
        <time>2022-07-17T09:18:57Z</time>
      </trkpt>
      <trkpt lat="45.14546" lon="6.41993">
        <ele>1511.6</ele>
        <time>2022-07-17T09:18:58Z</time>
      </trkpt>
      <trkpt lat="45.14542" lon="6.41992">
        <ele>1511.6</ele>
        <time>2022-07-17T09:18:59Z</time>
      </trkpt>
      <trkpt lat="45.14537" lon="6.41992">
        <ele>1511.6</ele>
        <time>2022-07-17T09:19:00Z</time>
      </trkpt>
      <trkpt lat="45.14533" lon="6.41991">
        <ele>1511.8</ele>
        <time>2022-07-17T09:19:01Z</time>
      </trkpt>
      <trkpt lat="45.14529" lon="6.4199">
        <ele>1511.8</ele>
        <time>2022-07-17T09:19:02Z</time>
      </trkpt>
      <trkpt lat="45.14525" lon="6.41989">
        <ele>1512.2</ele>
        <time>2022-07-17T09:19:03Z</time>
      </trkpt>
      <trkpt lat="45.14521" lon="6.41988">
        <ele>1512.2</ele>
        <time>2022-07-17T09:19:04Z</time>
      </trkpt>
      <trkpt lat="45.14517" lon="6.41987">
        <ele>1512.2</ele>
        <time>2022-07-17T09:19:05Z</time>
      </trkpt>
      <trkpt lat="45.14512" lon="6.41986">
        <ele>1512.2</ele>
        <time>2022-07-17T09:19:06Z</time>
      </trkpt>
      <trkpt lat="45.14508" lon="6.41985">
        <ele>1512.4</ele>
        <time>2022-07-17T09:19:07Z</time>
      </trkpt>
      <trkpt lat="45.14504" lon="6.41984">
        <ele>1512.4</ele>
        <time>2022-07-17T09:19:08Z</time>
      </trkpt>
      <trkpt lat="45.145" lon="6.41983">
        <ele>1512.4</ele>
        <time>2022-07-17T09:19:09Z</time>
      </trkpt>
      <trkpt lat="45.14496" lon="6.41982">
        <ele>1512.4</ele>
        <time>2022-07-17T09:19:10Z</time>
      </trkpt>
      <trkpt lat="45.14492" lon="6.41982">
        <ele>1512.8</ele>
        <time>2022-07-17T09:19:11Z</time>
      </trkpt>
      <trkpt lat="45.14487" lon="6.41981">
        <ele>1512.8</ele>
        <time>2022-07-17T09:19:12Z</time>
      </trkpt>
      <trkpt lat="45.14483" lon="6.41981">
        <ele>1512.8</ele>
        <time>2022-07-17T09:19:13Z</time>
      </trkpt>
      <trkpt lat="45.14479" lon="6.4198">
        <ele>1513</ele>
        <time>2022-07-17T09:19:14Z</time>
      </trkpt>
      <trkpt lat="45.14475" lon="6.41979">
        <ele>1513</ele>
        <time>2022-07-17T09:19:15Z</time>
      </trkpt>
      <trkpt lat="45.14471" lon="6.41979">
        <ele>1513</ele>
        <time>2022-07-17T09:19:16Z</time>
      </trkpt>
      <trkpt lat="45.14467" lon="6.41979">
        <ele>1513.4</ele>
        <time>2022-07-17T09:19:17Z</time>
      </trkpt>
      <trkpt lat="45.14463" lon="6.41979">
        <ele>1513.4</ele>
        <time>2022-07-17T09:19:18Z</time>
      </trkpt>
      <trkpt lat="45.14459" lon="6.41979">
        <ele>1513.4</ele>
        <time>2022-07-17T09:19:19Z</time>
      </trkpt>
      <trkpt lat="45.14455" lon="6.41979">
        <ele>1513.4</ele>
        <time>2022-07-17T09:19:20Z</time>
      </trkpt>
      <trkpt lat="45.14451" lon="6.41979">
        <ele>1513.8</ele>
        <time>2022-07-17T09:19:21Z</time>
      </trkpt>
      <trkpt lat="45.14447" lon="6.41978">
        <ele>1513.8</ele>
        <time>2022-07-17T09:19:22Z</time>
      </trkpt>
      <trkpt lat="45.14443" lon="6.41978">
        <ele>1514</ele>
        <time>2022-07-17T09:19:23Z</time>
      </trkpt>
      <trkpt lat="45.14438" lon="6.41978">
        <ele>1514</ele>
        <time>2022-07-17T09:19:24Z</time>
      </trkpt>
      <trkpt lat="45.14434" lon="6.41978">
        <ele>1514</ele>
        <time>2022-07-17T09:19:25Z</time>
      </trkpt>
      <trkpt lat="45.1443" lon="6.41979">
        <ele>1514.2</ele>
        <time>2022-07-17T09:19:26Z</time>
      </trkpt>
      <trkpt lat="45.14426" lon="6.41979">
        <ele>1514.2</ele>
        <time>2022-07-17T09:19:27Z</time>
      </trkpt>
      <trkpt lat="45.14422" lon="6.41979">
        <ele>1514.4</ele>
        <time>2022-07-17T09:19:28Z</time>
      </trkpt>
      <trkpt lat="45.14418" lon="6.41978">
        <ele>1514.4</ele>
        <time>2022-07-17T09:19:29Z</time>
      </trkpt>
      <trkpt lat="45.14414" lon="6.41978">
        <ele>1514.8</ele>
        <time>2022-07-17T09:19:30Z</time>
      </trkpt>
      <trkpt lat="45.1441" lon="6.41977">
        <ele>1514.8</ele>
        <time>2022-07-17T09:19:31Z</time>
      </trkpt>
      <trkpt lat="45.14406" lon="6.41977">
        <ele>1515</ele>
        <time>2022-07-17T09:19:32Z</time>
      </trkpt>
      <trkpt lat="45.14402" lon="6.41977">
        <ele>1515</ele>
        <time>2022-07-17T09:19:33Z</time>
      </trkpt>
      <trkpt lat="45.14398" lon="6.41977">
        <ele>1515.2</ele>
        <time>2022-07-17T09:19:34Z</time>
      </trkpt>
      <trkpt lat="45.14394" lon="6.41977">
        <ele>1515.2</ele>
        <time>2022-07-17T09:19:35Z</time>
      </trkpt>
      <trkpt lat="45.1439" lon="6.41977">
        <ele>1515.2</ele>
        <time>2022-07-17T09:19:36Z</time>
      </trkpt>
      <trkpt lat="45.14386" lon="6.41976">
        <ele>1515.6</ele>
        <time>2022-07-17T09:19:37Z</time>
      </trkpt>
      <trkpt lat="45.14382" lon="6.41976">
        <ele>1515.6</ele>
        <time>2022-07-17T09:19:38Z</time>
      </trkpt>
      <trkpt lat="45.14378" lon="6.41976">
        <ele>1515.6</ele>
        <time>2022-07-17T09:19:39Z</time>
      </trkpt>
      <trkpt lat="45.14374" lon="6.41976">
        <ele>1515.8</ele>
        <time>2022-07-17T09:19:40Z</time>
      </trkpt>
      <trkpt lat="45.1437" lon="6.41976">
        <ele>1515.8</ele>
        <time>2022-07-17T09:19:41Z</time>
      </trkpt>
      <trkpt lat="45.14366" lon="6.41976">
        <ele>1515.8</ele>
        <time>2022-07-17T09:19:42Z</time>
      </trkpt>
      <trkpt lat="45.14362" lon="6.41976">
        <ele>1516.2</ele>
        <time>2022-07-17T09:19:43Z</time>
      </trkpt>
      <trkpt lat="45.14358" lon="6.41976">
        <ele>1516.2</ele>
        <time>2022-07-17T09:19:44Z</time>
      </trkpt>
      <trkpt lat="45.14354" lon="6.41976">
        <ele>1516.2</ele>
        <time>2022-07-17T09:19:45Z</time>
      </trkpt>
      <trkpt lat="45.1435" lon="6.41976">
        <ele>1516.4</ele>
        <time>2022-07-17T09:19:46Z</time>
      </trkpt>
      <trkpt lat="45.14346" lon="6.41976">
        <ele>1516.4</ele>
        <time>2022-07-17T09:19:47Z</time>
      </trkpt>
      <trkpt lat="45.14342" lon="6.41976">
        <ele>1516.8</ele>
        <time>2022-07-17T09:19:48Z</time>
      </trkpt>
      <trkpt lat="45.14338" lon="6.41976">
        <ele>1516.8</ele>
        <time>2022-07-17T09:19:49Z</time>
      </trkpt>
      <trkpt lat="45.14334" lon="6.41976">
        <ele>1517</ele>
        <time>2022-07-17T09:19:50Z</time>
      </trkpt>
      <trkpt lat="45.1433" lon="6.41976">
        <ele>1517</ele>
        <time>2022-07-17T09:19:51Z</time>
      </trkpt>
      <trkpt lat="45.14326" lon="6.41976">
        <ele>1517.2</ele>
        <time>2022-07-17T09:19:52Z</time>
      </trkpt>
      <trkpt lat="45.14322" lon="6.41976">
        <ele>1517.2</ele>
        <time>2022-07-17T09:19:53Z</time>
      </trkpt>
      <trkpt lat="45.14318" lon="6.41976">
        <ele>1517.6</ele>
        <time>2022-07-17T09:19:54Z</time>
      </trkpt>
      <trkpt lat="45.14314" lon="6.41976">
        <ele>1517.6</ele>
        <time>2022-07-17T09:19:55Z</time>
      </trkpt>
      <trkpt lat="45.1431" lon="6.41976">
        <ele>1517.6</ele>
        <time>2022-07-17T09:19:56Z</time>
      </trkpt>
      <trkpt lat="45.14306" lon="6.41976">
        <ele>1517.8</ele>
        <time>2022-07-17T09:19:57Z</time>
      </trkpt>
      <trkpt lat="45.14302" lon="6.41976">
        <ele>1517.8</ele>
        <time>2022-07-17T09:19:58Z</time>
      </trkpt>
      <trkpt lat="45.14298" lon="6.41975">
        <ele>1517.8</ele>
        <time>2022-07-17T09:19:59Z</time>
      </trkpt>
      <trkpt lat="45.14294" lon="6.41975">
        <ele>1518</ele>
        <time>2022-07-17T09:20:00Z</time>
      </trkpt>
      <trkpt lat="45.1429" lon="6.41975">
        <ele>1518</ele>
        <time>2022-07-17T09:20:01Z</time>
      </trkpt>
      <trkpt lat="45.14286" lon="6.41975">
        <ele>1518</ele>
        <time>2022-07-17T09:20:02Z</time>
      </trkpt>
      <trkpt lat="45.14282" lon="6.41975">
        <ele>1518.2</ele>
        <time>2022-07-17T09:20:03Z</time>
      </trkpt>
      <trkpt lat="45.14278" lon="6.41975">
        <ele>1518.2</ele>
        <time>2022-07-17T09:20:04Z</time>
      </trkpt>
      <trkpt lat="45.14274" lon="6.41975">
        <ele>1518.2</ele>
        <time>2022-07-17T09:20:05Z</time>
      </trkpt>
      <trkpt lat="45.1427" lon="6.41974">
        <ele>1518.6</ele>
        <time>2022-07-17T09:20:06Z</time>
      </trkpt>
      <trkpt lat="45.14266" lon="6.41974">
        <ele>1518.6</ele>
        <time>2022-07-17T09:20:07Z</time>
      </trkpt>
      <trkpt lat="45.14262" lon="6.41974">
        <ele>1518.8</ele>
        <time>2022-07-17T09:20:08Z</time>
      </trkpt>
      <trkpt lat="45.14258" lon="6.41974">
        <ele>1518.8</ele>
        <time>2022-07-17T09:20:09Z</time>
      </trkpt>
      <trkpt lat="45.14255" lon="6.41974">
        <ele>1519.2</ele>
        <time>2022-07-17T09:20:10Z</time>
      </trkpt>
      <trkpt lat="45.14251" lon="6.41974">
        <ele>1519.2</ele>
        <time>2022-07-17T09:20:11Z</time>
      </trkpt>
      <trkpt lat="45.14247" lon="6.41973">
        <ele>1519.2</ele>
        <time>2022-07-17T09:20:12Z</time>
      </trkpt>
      <trkpt lat="45.14243" lon="6.41973">
        <ele>1519.2</ele>
        <time>2022-07-17T09:20:13Z</time>
      </trkpt>
      <trkpt lat="45.14239" lon="6.41973">
        <ele>1519.2</ele>
        <time>2022-07-17T09:20:14Z</time>
      </trkpt>
      <trkpt lat="45.14235" lon="6.41973">
        <ele>1519.2</ele>
        <time>2022-07-17T09:20:15Z</time>
      </trkpt>
      <trkpt lat="45.14231" lon="6.41973">
        <ele>1519.2</ele>
        <time>2022-07-17T09:20:16Z</time>
      </trkpt>
      <trkpt lat="45.14227" lon="6.41973">
        <ele>1519.6</ele>
        <time>2022-07-17T09:20:17Z</time>
      </trkpt>
      <trkpt lat="45.14223" lon="6.41973">
        <ele>1519.6</ele>
        <time>2022-07-17T09:20:18Z</time>
      </trkpt>
      <trkpt lat="45.14219" lon="6.41973">
        <ele>1519.6</ele>
        <time>2022-07-17T09:20:19Z</time>
      </trkpt>
      <trkpt lat="45.14216" lon="6.41973">
        <ele>1519.8</ele>
        <time>2022-07-17T09:20:20Z</time>
      </trkpt>
      <trkpt lat="45.14212" lon="6.41973">
        <ele>1519.8</ele>
        <time>2022-07-17T09:20:21Z</time>
      </trkpt>
      <trkpt lat="45.14208" lon="6.41973">
        <ele>1519.8</ele>
        <time>2022-07-17T09:20:22Z</time>
      </trkpt>
      <trkpt lat="45.14204" lon="6.41973">
        <ele>1519.8</ele>
        <time>2022-07-17T09:20:23Z</time>
      </trkpt>
      <trkpt lat="45.14199" lon="6.41973">
        <ele>1520</ele>
        <time>2022-07-17T09:20:24Z</time>
      </trkpt>
      <trkpt lat="45.14195" lon="6.41973">
        <ele>1520</ele>
        <time>2022-07-17T09:20:25Z</time>
      </trkpt>
      <trkpt lat="45.14191" lon="6.41973">
        <ele>1520</ele>
        <time>2022-07-17T09:20:26Z</time>
      </trkpt>
      <trkpt lat="45.14187" lon="6.41974">
        <ele>1520.4</ele>
        <time>2022-07-17T09:20:27Z</time>
      </trkpt>
      <trkpt lat="45.14183" lon="6.41974">
        <ele>1520.4</ele>
        <time>2022-07-17T09:20:28Z</time>
      </trkpt>
      <trkpt lat="45.14179" lon="6.41974">
        <ele>1520.6</ele>
        <time>2022-07-17T09:20:29Z</time>
      </trkpt>
      <trkpt lat="45.14175" lon="6.41974">
        <ele>1520.6</ele>
        <time>2022-07-17T09:20:30Z</time>
      </trkpt>
      <trkpt lat="45.14171" lon="6.41974">
        <ele>1521</ele>
        <time>2022-07-17T09:20:31Z</time>
      </trkpt>
      <trkpt lat="45.14167" lon="6.41974">
        <ele>1521</ele>
        <time>2022-07-17T09:20:32Z</time>
      </trkpt>
      <trkpt lat="45.14163" lon="6.41974">
        <ele>1521</ele>
        <time>2022-07-17T09:20:33Z</time>
      </trkpt>
      <trkpt lat="45.14159" lon="6.41975">
        <ele>1521.2</ele>
        <time>2022-07-17T09:20:34Z</time>
      </trkpt>
      <trkpt lat="45.14155" lon="6.41975">
        <ele>1521.2</ele>
        <time>2022-07-17T09:20:35Z</time>
      </trkpt>
      <trkpt lat="45.1415" lon="6.41975">
        <ele>1521.2</ele>
        <time>2022-07-17T09:20:36Z</time>
      </trkpt>
      <trkpt lat="45.14146" lon="6.41975">
        <ele>1521.2</ele>
        <time>2022-07-17T09:20:37Z</time>
      </trkpt>
      <trkpt lat="45.14142" lon="6.41975">
        <ele>1521.2</ele>
        <time>2022-07-17T09:20:38Z</time>
      </trkpt>
      <trkpt lat="45.14138" lon="6.41976">
        <ele>1521.4</ele>
        <time>2022-07-17T09:20:40Z</time>
      </trkpt>
      <trkpt lat="45.14134" lon="6.41976">
        <ele>1521.6</ele>
        <time>2022-07-17T09:20:41Z</time>
      </trkpt>
      <trkpt lat="45.14131" lon="6.41976">
        <ele>1521.6</ele>
        <time>2022-07-17T09:20:42Z</time>
      </trkpt>
      <trkpt lat="45.14127" lon="6.41976">
        <ele>1521.8</ele>
        <time>2022-07-17T09:20:43Z</time>
      </trkpt>
      <trkpt lat="45.14123" lon="6.41976">
        <ele>1521.8</ele>
        <time>2022-07-17T09:20:44Z</time>
      </trkpt>
      <trkpt lat="45.14119" lon="6.41977">
        <ele>1521.8</ele>
        <time>2022-07-17T09:20:45Z</time>
      </trkpt>
      <trkpt lat="45.14115" lon="6.41977">
        <ele>1521.8</ele>
        <time>2022-07-17T09:20:46Z</time>
      </trkpt>
      <trkpt lat="45.14111" lon="6.41977">
        <ele>1521.8</ele>
        <time>2022-07-17T09:20:47Z</time>
      </trkpt>
      <trkpt lat="45.14107" lon="6.41977">
        <ele>1522.2</ele>
        <time>2022-07-17T09:20:48Z</time>
      </trkpt>
      <trkpt lat="45.14103" lon="6.41978">
        <ele>1522.2</ele>
        <time>2022-07-17T09:20:49Z</time>
      </trkpt>
      <trkpt lat="45.14099" lon="6.41978">
        <ele>1522.2</ele>
        <time>2022-07-17T09:20:50Z</time>
      </trkpt>
      <trkpt lat="45.14095" lon="6.41979">
        <ele>1522.6</ele>
        <time>2022-07-17T09:20:51Z</time>
      </trkpt>
      <trkpt lat="45.14087" lon="6.41979">
        <ele>1522.6</ele>
        <time>2022-07-17T09:20:52Z</time>
      </trkpt>
      <trkpt lat="45.14083" lon="6.41979">
        <ele>1522.8</ele>
        <time>2022-07-17T09:20:53Z</time>
      </trkpt>
      <trkpt lat="45.14079" lon="6.4198">
        <ele>1523</ele>
        <time>2022-07-17T09:20:54Z</time>
      </trkpt>
      <trkpt lat="45.14075" lon="6.4198">
        <ele>1523</ele>
        <time>2022-07-17T09:20:55Z</time>
      </trkpt>
      <trkpt lat="45.14071" lon="6.4198">
        <ele>1523.4</ele>
        <time>2022-07-17T09:20:56Z</time>
      </trkpt>
      <trkpt lat="45.14067" lon="6.41981">
        <ele>1523.4</ele>
        <time>2022-07-17T09:20:57Z</time>
      </trkpt>
      <trkpt lat="45.14063" lon="6.41981">
        <ele>1523.6</ele>
        <time>2022-07-17T09:20:58Z</time>
      </trkpt>
      <trkpt lat="45.14059" lon="6.41981">
        <ele>1523.6</ele>
        <time>2022-07-17T09:20:59Z</time>
      </trkpt>
      <trkpt lat="45.14055" lon="6.41982">
        <ele>1523.8</ele>
        <time>2022-07-17T09:21:00Z</time>
      </trkpt>
      <trkpt lat="45.14051" lon="6.41982">
        <ele>1523.8</ele>
        <time>2022-07-17T09:21:01Z</time>
      </trkpt>
      <trkpt lat="45.14047" lon="6.41982">
        <ele>1524</ele>
        <time>2022-07-17T09:21:02Z</time>
      </trkpt>
      <trkpt lat="45.14043" lon="6.41983">
        <ele>1524</ele>
        <time>2022-07-17T09:21:03Z</time>
      </trkpt>
      <trkpt lat="45.14039" lon="6.41983">
        <ele>1524.2</ele>
        <time>2022-07-17T09:21:04Z</time>
      </trkpt>
      <trkpt lat="45.14035" lon="6.41983">
        <ele>1524.2</ele>
        <time>2022-07-17T09:21:05Z</time>
      </trkpt>
      <trkpt lat="45.14031" lon="6.41983">
        <ele>1524.2</ele>
        <time>2022-07-17T09:21:06Z</time>
      </trkpt>
      <trkpt lat="45.14028" lon="6.41984">
        <ele>1524.4</ele>
        <time>2022-07-17T09:21:07Z</time>
      </trkpt>
      <trkpt lat="45.14024" lon="6.41984">
        <ele>1524.4</ele>
        <time>2022-07-17T09:21:08Z</time>
      </trkpt>
      <trkpt lat="45.14021" lon="6.41984">
        <ele>1524.6</ele>
        <time>2022-07-17T09:21:09Z</time>
      </trkpt>
      <trkpt lat="45.14017" lon="6.41985">
        <ele>1524.6</ele>
        <time>2022-07-17T09:21:10Z</time>
      </trkpt>
      <trkpt lat="45.14014" lon="6.41985">
        <ele>1525</ele>
        <time>2022-07-17T09:21:11Z</time>
      </trkpt>
      <trkpt lat="45.1401" lon="6.41985">
        <ele>1525</ele>
        <time>2022-07-17T09:21:12Z</time>
      </trkpt>
      <trkpt lat="45.14007" lon="6.41985">
        <ele>1525.4</ele>
        <time>2022-07-17T09:21:13Z</time>
      </trkpt>
      <trkpt lat="45.14004" lon="6.41985">
        <ele>1525.4</ele>
        <time>2022-07-17T09:21:14Z</time>
      </trkpt>
      <trkpt lat="45.14" lon="6.41985">
        <ele>1525.8</ele>
        <time>2022-07-17T09:21:15Z</time>
      </trkpt>
      <trkpt lat="45.13997" lon="6.41985">
        <ele>1525.8</ele>
        <time>2022-07-17T09:21:16Z</time>
      </trkpt>
      <trkpt lat="45.13994" lon="6.41985">
        <ele>1526</ele>
        <time>2022-07-17T09:21:17Z</time>
      </trkpt>
      <trkpt lat="45.1399" lon="6.41985">
        <ele>1526</ele>
        <time>2022-07-17T09:21:18Z</time>
      </trkpt>
      <trkpt lat="45.13987" lon="6.41985">
        <ele>1526.2</ele>
        <time>2022-07-17T09:21:19Z</time>
      </trkpt>
      <trkpt lat="45.13983" lon="6.41986">
        <ele>1526.4</ele>
        <time>2022-07-17T09:21:20Z</time>
      </trkpt>
      <trkpt lat="45.1398" lon="6.41986">
        <ele>1526.4</ele>
        <time>2022-07-17T09:21:21Z</time>
      </trkpt>
      <trkpt lat="45.13976" lon="6.41986">
        <ele>1526.8</ele>
        <time>2022-07-17T09:21:22Z</time>
      </trkpt>
      <trkpt lat="45.13973" lon="6.41986">
        <ele>1526.8</ele>
        <time>2022-07-17T09:21:23Z</time>
      </trkpt>
      <trkpt lat="45.13969" lon="6.41986">
        <ele>1527.2</ele>
        <time>2022-07-17T09:21:24Z</time>
      </trkpt>
      <trkpt lat="45.13966" lon="6.41986">
        <ele>1527.4</ele>
        <time>2022-07-17T09:21:25Z</time>
      </trkpt>
      <trkpt lat="45.13962" lon="6.41986">
        <ele>1527.4</ele>
        <time>2022-07-17T09:21:26Z</time>
      </trkpt>
      <trkpt lat="45.13959" lon="6.41987">
        <ele>1527.6</ele>
        <time>2022-07-17T09:21:27Z</time>
      </trkpt>
      <trkpt lat="45.13956" lon="6.41987">
        <ele>1527.6</ele>
        <time>2022-07-17T09:21:28Z</time>
      </trkpt>
      <trkpt lat="45.13953" lon="6.41987">
        <ele>1528</ele>
        <time>2022-07-17T09:21:29Z</time>
      </trkpt>
      <trkpt lat="45.13949" lon="6.41988">
        <ele>1528</ele>
        <time>2022-07-17T09:21:30Z</time>
      </trkpt>
      <trkpt lat="45.13946" lon="6.41988">
        <ele>1528.2</ele>
        <time>2022-07-17T09:21:31Z</time>
      </trkpt>
      <trkpt lat="45.13943" lon="6.41988">
        <ele>1528.2</ele>
        <time>2022-07-17T09:21:32Z</time>
      </trkpt>
      <trkpt lat="45.1394" lon="6.41988">
        <ele>1528.6</ele>
        <time>2022-07-17T09:21:33Z</time>
      </trkpt>
      <trkpt lat="45.13937" lon="6.41988">
        <ele>1528.6</ele>
        <time>2022-07-17T09:21:34Z</time>
      </trkpt>
      <trkpt lat="45.13934" lon="6.41989">
        <ele>1528.8</ele>
        <time>2022-07-17T09:21:35Z</time>
      </trkpt>
      <trkpt lat="45.13931" lon="6.41989">
        <ele>1528.8</ele>
        <time>2022-07-17T09:21:36Z</time>
      </trkpt>
      <trkpt lat="45.13928" lon="6.41989">
        <ele>1529</ele>
        <time>2022-07-17T09:21:37Z</time>
      </trkpt>
      <trkpt lat="45.13924" lon="6.41989">
        <ele>1529</ele>
        <time>2022-07-17T09:21:38Z</time>
      </trkpt>
      <trkpt lat="45.13921" lon="6.41989">
        <ele>1529</ele>
        <time>2022-07-17T09:21:39Z</time>
      </trkpt>
      <trkpt lat="45.13918" lon="6.41989">
        <ele>1529.4</ele>
        <time>2022-07-17T09:21:40Z</time>
      </trkpt>
      <trkpt lat="45.13915" lon="6.41989">
        <ele>1529.4</ele>
        <time>2022-07-17T09:21:41Z</time>
      </trkpt>
      <trkpt lat="45.13911" lon="6.4199">
        <ele>1529.6</ele>
        <time>2022-07-17T09:21:42Z</time>
      </trkpt>
      <trkpt lat="45.13908" lon="6.4199">
        <ele>1529.6</ele>
        <time>2022-07-17T09:21:43Z</time>
      </trkpt>
      <trkpt lat="45.13905" lon="6.41991">
        <ele>1530</ele>
        <time>2022-07-17T09:21:44Z</time>
      </trkpt>
      <trkpt lat="45.13902" lon="6.41991">
        <ele>1530</ele>
        <time>2022-07-17T09:21:45Z</time>
      </trkpt>
      <trkpt lat="45.13899" lon="6.41991">
        <ele>1530.2</ele>
        <time>2022-07-17T09:21:46Z</time>
      </trkpt>
      <trkpt lat="45.13896" lon="6.4199">
        <ele>1530.2</ele>
        <time>2022-07-17T09:21:47Z</time>
      </trkpt>
      <trkpt lat="45.13892" lon="6.4199">
        <ele>1530.6</ele>
        <time>2022-07-17T09:21:48Z</time>
      </trkpt>
      <trkpt lat="45.13889" lon="6.4199">
        <ele>1530.6</ele>
        <time>2022-07-17T09:21:49Z</time>
      </trkpt>
      <trkpt lat="45.13886" lon="6.4199">
        <ele>1530.8</ele>
        <time>2022-07-17T09:21:50Z</time>
      </trkpt>
      <trkpt lat="45.13883" lon="6.4199">
        <ele>1530.8</ele>
        <time>2022-07-17T09:21:51Z</time>
      </trkpt>
      <trkpt lat="45.1388" lon="6.41989">
        <ele>1531.2</ele>
        <time>2022-07-17T09:21:52Z</time>
      </trkpt>
      <trkpt lat="45.13876" lon="6.41989">
        <ele>1531.2</ele>
        <time>2022-07-17T09:21:53Z</time>
      </trkpt>
      <trkpt lat="45.13873" lon="6.41988">
        <ele>1531.4</ele>
        <time>2022-07-17T09:21:54Z</time>
      </trkpt>
      <trkpt lat="45.1387" lon="6.41988">
        <ele>1531.6</ele>
        <time>2022-07-17T09:21:55Z</time>
      </trkpt>
      <trkpt lat="45.13867" lon="6.41987">
        <ele>1531.6</ele>
        <time>2022-07-17T09:21:56Z</time>
      </trkpt>
      <trkpt lat="45.13863" lon="6.41986">
        <ele>1532</ele>
        <time>2022-07-17T09:21:57Z</time>
      </trkpt>
      <trkpt lat="45.1386" lon="6.41985">
        <ele>1532</ele>
        <time>2022-07-17T09:21:58Z</time>
      </trkpt>
      <trkpt lat="45.13857" lon="6.41984">
        <ele>1532.4</ele>
        <time>2022-07-17T09:21:59Z</time>
      </trkpt>
      <trkpt lat="45.13854" lon="6.41983">
        <ele>1532.4</ele>
        <time>2022-07-17T09:22:00Z</time>
      </trkpt>
      <trkpt lat="45.1385" lon="6.41983">
        <ele>1532.6</ele>
        <time>2022-07-17T09:22:01Z</time>
      </trkpt>
      <trkpt lat="45.13847" lon="6.41982">
        <ele>1532.6</ele>
        <time>2022-07-17T09:22:02Z</time>
      </trkpt>
      <trkpt lat="45.13844" lon="6.41981">
        <ele>1533</ele>
        <time>2022-07-17T09:22:03Z</time>
      </trkpt>
      <trkpt lat="45.13841" lon="6.4198">
        <ele>1533</ele>
        <time>2022-07-17T09:22:04Z</time>
      </trkpt>
      <trkpt lat="45.13838" lon="6.41979">
        <ele>1533.4</ele>
        <time>2022-07-17T09:22:05Z</time>
      </trkpt>
      <trkpt lat="45.13835" lon="6.41978">
        <ele>1533.4</ele>
        <time>2022-07-17T09:22:06Z</time>
      </trkpt>
      <trkpt lat="45.13831" lon="6.41977">
        <ele>1533.6</ele>
        <time>2022-07-17T09:22:07Z</time>
      </trkpt>
      <trkpt lat="45.13828" lon="6.41976">
        <ele>1533.6</ele>
        <time>2022-07-17T09:22:08Z</time>
      </trkpt>
      <trkpt lat="45.13824" lon="6.41975">
        <ele>1534</ele>
        <time>2022-07-17T09:22:09Z</time>
      </trkpt>
      <trkpt lat="45.13821" lon="6.41974">
        <ele>1534</ele>
        <time>2022-07-17T09:22:10Z</time>
      </trkpt>
      <trkpt lat="45.13818" lon="6.41973">
        <ele>1534.2</ele>
        <time>2022-07-17T09:22:11Z</time>
      </trkpt>
      <trkpt lat="45.13815" lon="6.41972">
        <ele>1534.2</ele>
        <time>2022-07-17T09:22:12Z</time>
      </trkpt>
      <trkpt lat="45.13811" lon="6.41971">
        <ele>1534.6</ele>
        <time>2022-07-17T09:22:13Z</time>
      </trkpt>
      <trkpt lat="45.13808" lon="6.4197">
        <ele>1534.6</ele>
        <time>2022-07-17T09:22:14Z</time>
      </trkpt>
      <trkpt lat="45.13805" lon="6.4197">
        <ele>1534.8</ele>
        <time>2022-07-17T09:22:15Z</time>
      </trkpt>
      <trkpt lat="45.13802" lon="6.41969">
        <ele>1534.8</ele>
        <time>2022-07-17T09:22:16Z</time>
      </trkpt>
      <trkpt lat="45.13799" lon="6.41967">
        <ele>1535</ele>
        <time>2022-07-17T09:22:17Z</time>
      </trkpt>
      <trkpt lat="45.13796" lon="6.41966">
        <ele>1535</ele>
        <time>2022-07-17T09:22:18Z</time>
      </trkpt>
      <trkpt lat="45.13793" lon="6.41965">
        <ele>1535</ele>
        <time>2022-07-17T09:22:19Z</time>
      </trkpt>
      <trkpt lat="45.13789" lon="6.41964">
        <ele>1535.4</ele>
        <time>2022-07-17T09:22:20Z</time>
      </trkpt>
      <trkpt lat="45.13786" lon="6.41962">
        <ele>1535.4</ele>
        <time>2022-07-17T09:22:21Z</time>
      </trkpt>
      <trkpt lat="45.13783" lon="6.41961">
        <ele>1535.6</ele>
        <time>2022-07-17T09:22:22Z</time>
      </trkpt>
      <trkpt lat="45.1378" lon="6.4196">
        <ele>1535.6</ele>
        <time>2022-07-17T09:22:23Z</time>
      </trkpt>
      <trkpt lat="45.13777" lon="6.41959">
        <ele>1536</ele>
        <time>2022-07-17T09:22:24Z</time>
      </trkpt>
      <trkpt lat="45.13774" lon="6.41958">
        <ele>1536</ele>
        <time>2022-07-17T09:22:25Z</time>
      </trkpt>
      <trkpt lat="45.13771" lon="6.41956">
        <ele>1536.4</ele>
        <time>2022-07-17T09:22:26Z</time>
      </trkpt>
      <trkpt lat="45.13768" lon="6.41955">
        <ele>1536.4</ele>
        <time>2022-07-17T09:22:27Z</time>
      </trkpt>
      <trkpt lat="45.13765" lon="6.41954">
        <ele>1536.8</ele>
        <time>2022-07-17T09:22:28Z</time>
      </trkpt>
      <trkpt lat="45.13761" lon="6.41953">
        <ele>1536.8</ele>
        <time>2022-07-17T09:22:29Z</time>
      </trkpt>
      <trkpt lat="45.13758" lon="6.41951">
        <ele>1537</ele>
        <time>2022-07-17T09:22:30Z</time>
      </trkpt>
      <trkpt lat="45.13755" lon="6.4195">
        <ele>1537</ele>
        <time>2022-07-17T09:22:31Z</time>
      </trkpt>
      <trkpt lat="45.13751" lon="6.41948">
        <ele>1537</ele>
        <time>2022-07-17T09:22:32Z</time>
      </trkpt>
      <trkpt lat="45.13748" lon="6.41947">
        <ele>1537</ele>
        <time>2022-07-17T09:22:33Z</time>
      </trkpt>
      <trkpt lat="45.13744" lon="6.41945">
        <ele>1537</ele>
        <time>2022-07-17T09:22:34Z</time>
      </trkpt>
      <trkpt lat="45.1374" lon="6.41944">
        <ele>1537</ele>
        <time>2022-07-17T09:22:35Z</time>
      </trkpt>
      <trkpt lat="45.13736" lon="6.41942">
        <ele>1537</ele>
        <time>2022-07-17T09:22:36Z</time>
      </trkpt>
      <trkpt lat="45.13733" lon="6.41942">
        <ele>1537</ele>
        <time>2022-07-17T09:22:37Z</time>
      </trkpt>
      <trkpt lat="45.13728" lon="6.41942">
        <ele>1537</ele>
        <time>2022-07-17T09:22:38Z</time>
      </trkpt>
      <trkpt lat="45.13725" lon="6.41943">
        <ele>1537</ele>
        <time>2022-07-17T09:22:39Z</time>
      </trkpt>
      <trkpt lat="45.13721" lon="6.41946">
        <ele>1537.2</ele>
        <time>2022-07-17T09:22:40Z</time>
      </trkpt>
      <trkpt lat="45.13717" lon="6.41949">
        <ele>1537.2</ele>
        <time>2022-07-17T09:22:41Z</time>
      </trkpt>
      <trkpt lat="45.13714" lon="6.41953">
        <ele>1537.2</ele>
        <time>2022-07-17T09:22:42Z</time>
      </trkpt>
      <trkpt lat="45.13711" lon="6.41957">
        <ele>1537.2</ele>
        <time>2022-07-17T09:22:43Z</time>
      </trkpt>
      <trkpt lat="45.13708" lon="6.41961">
        <ele>1537.2</ele>
        <time>2022-07-17T09:22:44Z</time>
      </trkpt>
      <trkpt lat="45.13705" lon="6.41965">
        <ele>1537.2</ele>
        <time>2022-07-17T09:22:45Z</time>
      </trkpt>
      <trkpt lat="45.13702" lon="6.41969">
        <ele>1537.4</ele>
        <time>2022-07-17T09:22:46Z</time>
      </trkpt>
      <trkpt lat="45.13698" lon="6.41974">
        <ele>1537.4</ele>
        <time>2022-07-17T09:22:47Z</time>
      </trkpt>
      <trkpt lat="45.13695" lon="6.41977">
        <ele>1537.4</ele>
        <time>2022-07-17T09:22:48Z</time>
      </trkpt>
      <trkpt lat="45.13691" lon="6.4198">
        <ele>1537.4</ele>
        <time>2022-07-17T09:22:49Z</time>
      </trkpt>
      <trkpt lat="45.13687" lon="6.41982">
        <ele>1537.4</ele>
        <time>2022-07-17T09:22:50Z</time>
      </trkpt>
      <trkpt lat="45.13682" lon="6.41983">
        <ele>1537.4</ele>
        <time>2022-07-17T09:22:51Z</time>
      </trkpt>
      <trkpt lat="45.13677" lon="6.41983">
        <ele>1537.4</ele>
        <time>2022-07-17T09:22:52Z</time>
      </trkpt>
      <trkpt lat="45.13671" lon="6.41983">
        <ele>1537.4</ele>
        <time>2022-07-17T09:22:53Z</time>
      </trkpt>
      <trkpt lat="45.13666" lon="6.41982">
        <ele>1537.4</ele>
        <time>2022-07-17T09:22:54Z</time>
      </trkpt>
      <trkpt lat="45.13661" lon="6.41982">
        <ele>1537.4</ele>
        <time>2022-07-17T09:22:55Z</time>
      </trkpt>
      <trkpt lat="45.13656" lon="6.41982">
        <ele>1537.4</ele>
        <time>2022-07-17T09:22:56Z</time>
      </trkpt>
      <trkpt lat="45.1365" lon="6.41981">
        <ele>1537.4</ele>
        <time>2022-07-17T09:22:57Z</time>
      </trkpt>
      <trkpt lat="45.13645" lon="6.41981">
        <ele>1537.4</ele>
        <time>2022-07-17T09:22:58Z</time>
      </trkpt>
      <trkpt lat="45.1364" lon="6.4198">
        <ele>1537.4</ele>
        <time>2022-07-17T09:22:59Z</time>
      </trkpt>
      <trkpt lat="45.13636" lon="6.4198">
        <ele>1537.4</ele>
        <time>2022-07-17T09:23:00Z</time>
      </trkpt>
      <trkpt lat="45.13631" lon="6.41979">
        <ele>1537.4</ele>
        <time>2022-07-17T09:23:01Z</time>
      </trkpt>
      <trkpt lat="45.13626" lon="6.41979">
        <ele>1537.4</ele>
        <time>2022-07-17T09:23:02Z</time>
      </trkpt>
      <trkpt lat="45.1362" lon="6.41978">
        <ele>1537.4</ele>
        <time>2022-07-17T09:23:03Z</time>
      </trkpt>
      <trkpt lat="45.13615" lon="6.41978">
        <ele>1537.4</ele>
        <time>2022-07-17T09:23:04Z</time>
      </trkpt>
      <trkpt lat="45.1361" lon="6.41977">
        <ele>1537.4</ele>
        <time>2022-07-17T09:23:05Z</time>
      </trkpt>
      <trkpt lat="45.13605" lon="6.41976">
        <ele>1537.4</ele>
        <time>2022-07-17T09:23:06Z</time>
      </trkpt>
      <trkpt lat="45.13599" lon="6.41976">
        <ele>1537.4</ele>
        <time>2022-07-17T09:23:07Z</time>
      </trkpt>
      <trkpt lat="45.13595" lon="6.41975">
        <ele>1537.4</ele>
        <time>2022-07-17T09:23:08Z</time>
      </trkpt>
      <trkpt lat="45.1359" lon="6.41973">
        <ele>1537.6</ele>
        <time>2022-07-17T09:23:09Z</time>
      </trkpt>
      <trkpt lat="45.13585" lon="6.41972">
        <ele>1537.6</ele>
        <time>2022-07-17T09:23:10Z</time>
      </trkpt>
      <trkpt lat="45.1358" lon="6.41971">
        <ele>1537.6</ele>
        <time>2022-07-17T09:23:11Z</time>
      </trkpt>
      <trkpt lat="45.13575" lon="6.4197">
        <ele>1537.6</ele>
        <time>2022-07-17T09:23:12Z</time>
      </trkpt>
      <trkpt lat="45.1357" lon="6.41968">
        <ele>1537.8</ele>
        <time>2022-07-17T09:23:13Z</time>
      </trkpt>
      <trkpt lat="45.13565" lon="6.41967">
        <ele>1537.8</ele>
        <time>2022-07-17T09:23:14Z</time>
      </trkpt>
      <trkpt lat="45.13561" lon="6.41966">
        <ele>1537.8</ele>
        <time>2022-07-17T09:23:15Z</time>
      </trkpt>
      <trkpt lat="45.13556" lon="6.41965">
        <ele>1537.8</ele>
        <time>2022-07-17T09:23:16Z</time>
      </trkpt>
      <trkpt lat="45.13552" lon="6.41963">
        <ele>1537.8</ele>
        <time>2022-07-17T09:23:17Z</time>
      </trkpt>
      <trkpt lat="45.13547" lon="6.41962">
        <ele>1538</ele>
        <time>2022-07-17T09:23:18Z</time>
      </trkpt>
      <trkpt lat="45.13542" lon="6.4196">
        <ele>1538</ele>
        <time>2022-07-17T09:23:19Z</time>
      </trkpt>
      <trkpt lat="45.13538" lon="6.41959">
        <ele>1538</ele>
        <time>2022-07-17T09:23:20Z</time>
      </trkpt>
      <trkpt lat="45.13533" lon="6.41957">
        <ele>1538</ele>
        <time>2022-07-17T09:23:21Z</time>
      </trkpt>
      <trkpt lat="45.13528" lon="6.41956">
        <ele>1538</ele>
        <time>2022-07-17T09:23:22Z</time>
      </trkpt>
      <trkpt lat="45.13524" lon="6.41954">
        <ele>1538</ele>
        <time>2022-07-17T09:23:23Z</time>
      </trkpt>
      <trkpt lat="45.13519" lon="6.41953">
        <ele>1538.2</ele>
        <time>2022-07-17T09:23:24Z</time>
      </trkpt>
      <trkpt lat="45.13514" lon="6.41952">
        <ele>1538.2</ele>
        <time>2022-07-17T09:23:25Z</time>
      </trkpt>
      <trkpt lat="45.1351" lon="6.4195">
        <ele>1538.2</ele>
        <time>2022-07-17T09:23:26Z</time>
      </trkpt>
      <trkpt lat="45.13505" lon="6.41949">
        <ele>1538.2</ele>
        <time>2022-07-17T09:23:27Z</time>
      </trkpt>
      <trkpt lat="45.135" lon="6.41947">
        <ele>1538.2</ele>
        <time>2022-07-17T09:23:28Z</time>
      </trkpt>
      <trkpt lat="45.13496" lon="6.41946">
        <ele>1538.2</ele>
        <time>2022-07-17T09:23:29Z</time>
      </trkpt>
      <trkpt lat="45.13491" lon="6.41944">
        <ele>1538.2</ele>
        <time>2022-07-17T09:23:30Z</time>
      </trkpt>
      <trkpt lat="45.13486" lon="6.41943">
        <ele>1538.6</ele>
        <time>2022-07-17T09:23:31Z</time>
      </trkpt>
      <trkpt lat="45.13482" lon="6.41942">
        <ele>1538.6</ele>
        <time>2022-07-17T09:23:32Z</time>
      </trkpt>
      <trkpt lat="45.13477" lon="6.4194">
        <ele>1538.6</ele>
        <time>2022-07-17T09:23:33Z</time>
      </trkpt>
      <trkpt lat="45.13473" lon="6.41939">
        <ele>1538.8</ele>
        <time>2022-07-17T09:23:34Z</time>
      </trkpt>
      <trkpt lat="45.13469" lon="6.41937">
        <ele>1538.8</ele>
        <time>2022-07-17T09:23:35Z</time>
      </trkpt>
      <trkpt lat="45.13464" lon="6.41936">
        <ele>1538.8</ele>
        <time>2022-07-17T09:23:36Z</time>
      </trkpt>
      <trkpt lat="45.1346" lon="6.41935">
        <ele>1539</ele>
        <time>2022-07-17T09:23:37Z</time>
      </trkpt>
      <trkpt lat="45.13455" lon="6.41934">
        <ele>1539</ele>
        <time>2022-07-17T09:23:38Z</time>
      </trkpt>
      <trkpt lat="45.13451" lon="6.41932">
        <ele>1539</ele>
        <time>2022-07-17T09:23:39Z</time>
      </trkpt>
      <trkpt lat="45.13447" lon="6.41931">
        <ele>1539</ele>
        <time>2022-07-17T09:23:40Z</time>
      </trkpt>
      <trkpt lat="45.13443" lon="6.4193">
        <ele>1539.4</ele>
        <time>2022-07-17T09:23:41Z</time>
      </trkpt>
      <trkpt lat="45.13438" lon="6.41929">
        <ele>1539.4</ele>
        <time>2022-07-17T09:23:42Z</time>
      </trkpt>
      <trkpt lat="45.13434" lon="6.41928">
        <ele>1539.4</ele>
        <time>2022-07-17T09:23:43Z</time>
      </trkpt>
      <trkpt lat="45.1343" lon="6.41926">
        <ele>1539.6</ele>
        <time>2022-07-17T09:23:44Z</time>
      </trkpt>
      <trkpt lat="45.13426" lon="6.41925">
        <ele>1539.6</ele>
        <time>2022-07-17T09:23:45Z</time>
      </trkpt>
      <trkpt lat="45.13421" lon="6.41924">
        <ele>1539.8</ele>
        <time>2022-07-17T09:23:46Z</time>
      </trkpt>
      <trkpt lat="45.13417" lon="6.41923">
        <ele>1539.8</ele>
        <time>2022-07-17T09:23:47Z</time>
      </trkpt>
      <trkpt lat="45.13412" lon="6.41922">
        <ele>1540</ele>
        <time>2022-07-17T09:23:48Z</time>
      </trkpt>
      <trkpt lat="45.13408" lon="6.41921">
        <ele>1540</ele>
        <time>2022-07-17T09:23:49Z</time>
      </trkpt>
      <trkpt lat="45.13404" lon="6.41919">
        <ele>1540.4</ele>
        <time>2022-07-17T09:23:50Z</time>
      </trkpt>
      <trkpt lat="45.13399" lon="6.41918">
        <ele>1540.4</ele>
        <time>2022-07-17T09:23:51Z</time>
      </trkpt>
      <trkpt lat="45.13395" lon="6.41917">
        <ele>1540.6</ele>
        <time>2022-07-17T09:23:52Z</time>
      </trkpt>
      <trkpt lat="45.13391" lon="6.41916">
        <ele>1540.6</ele>
        <time>2022-07-17T09:23:53Z</time>
      </trkpt>
      <trkpt lat="45.13386" lon="6.41914">
        <ele>1540.8</ele>
        <time>2022-07-17T09:23:54Z</time>
      </trkpt>
      <trkpt lat="45.13382" lon="6.41913">
        <ele>1540.8</ele>
        <time>2022-07-17T09:23:55Z</time>
      </trkpt>
      <trkpt lat="45.13378" lon="6.41912">
        <ele>1541.2</ele>
        <time>2022-07-17T09:23:56Z</time>
      </trkpt>
      <trkpt lat="45.13374" lon="6.41911">
        <ele>1541.2</ele>
        <time>2022-07-17T09:23:57Z</time>
      </trkpt>
      <trkpt lat="45.1337" lon="6.4191">
        <ele>1541.4</ele>
        <time>2022-07-17T09:23:58Z</time>
      </trkpt>
      <trkpt lat="45.13366" lon="6.41909">
        <ele>1541.4</ele>
        <time>2022-07-17T09:23:59Z</time>
      </trkpt>
      <trkpt lat="45.13362" lon="6.41908">
        <ele>1541.6</ele>
        <time>2022-07-17T09:24:00Z</time>
      </trkpt>
      <trkpt lat="45.13358" lon="6.41906">
        <ele>1541.6</ele>
        <time>2022-07-17T09:24:01Z</time>
      </trkpt>
      <trkpt lat="45.13354" lon="6.41905">
        <ele>1541.8</ele>
        <time>2022-07-17T09:24:02Z</time>
      </trkpt>
      <trkpt lat="45.1335" lon="6.41904">
        <ele>1541.8</ele>
        <time>2022-07-17T09:24:03Z</time>
      </trkpt>
      <trkpt lat="45.13346" lon="6.41902">
        <ele>1541.8</ele>
        <time>2022-07-17T09:24:04Z</time>
      </trkpt>
      <trkpt lat="45.13343" lon="6.41901">
        <ele>1542.2</ele>
        <time>2022-07-17T09:24:05Z</time>
      </trkpt>
      <trkpt lat="45.13339" lon="6.419">
        <ele>1542.2</ele>
        <time>2022-07-17T09:24:06Z</time>
      </trkpt>
      <trkpt lat="45.13335" lon="6.41899">
        <ele>1542.4</ele>
        <time>2022-07-17T09:24:07Z</time>
      </trkpt>
      <trkpt lat="45.13331" lon="6.41898">
        <ele>1542.4</ele>
        <time>2022-07-17T09:24:08Z</time>
      </trkpt>
      <trkpt lat="45.13327" lon="6.41897">
        <ele>1542.6</ele>
        <time>2022-07-17T09:24:09Z</time>
      </trkpt>
      <trkpt lat="45.13323" lon="6.41895">
        <ele>1542.6</ele>
        <time>2022-07-17T09:24:10Z</time>
      </trkpt>
      <trkpt lat="45.13319" lon="6.41894">
        <ele>1542.8</ele>
        <time>2022-07-17T09:24:11Z</time>
      </trkpt>
      <trkpt lat="45.13315" lon="6.41893">
        <ele>1542.8</ele>
        <time>2022-07-17T09:24:12Z</time>
      </trkpt>
      <trkpt lat="45.13312" lon="6.41892">
        <ele>1543.2</ele>
        <time>2022-07-17T09:24:13Z</time>
      </trkpt>
      <trkpt lat="45.13308" lon="6.41891">
        <ele>1543.2</ele>
        <time>2022-07-17T09:24:14Z</time>
      </trkpt>
      <trkpt lat="45.13304" lon="6.4189">
        <ele>1543.4</ele>
        <time>2022-07-17T09:24:15Z</time>
      </trkpt>
      <trkpt lat="45.133" lon="6.41888">
        <ele>1543.4</ele>
        <time>2022-07-17T09:24:16Z</time>
      </trkpt>
      <trkpt lat="45.13296" lon="6.41887">
        <ele>1543.8</ele>
        <time>2022-07-17T09:24:17Z</time>
      </trkpt>
      <trkpt lat="45.13292" lon="6.41886">
        <ele>1543.8</ele>
        <time>2022-07-17T09:24:18Z</time>
      </trkpt>
      <trkpt lat="45.13289" lon="6.41885">
        <ele>1544</ele>
        <time>2022-07-17T09:24:19Z</time>
      </trkpt>
      <trkpt lat="45.13285" lon="6.41884">
        <ele>1544</ele>
        <time>2022-07-17T09:24:20Z</time>
      </trkpt>
      <trkpt lat="45.13281" lon="6.41882">
        <ele>1544.4</ele>
        <time>2022-07-17T09:24:21Z</time>
      </trkpt>
      <trkpt lat="45.13277" lon="6.41881">
        <ele>1544.4</ele>
        <time>2022-07-17T09:24:22Z</time>
      </trkpt>
      <trkpt lat="45.13274" lon="6.4188">
        <ele>1544.6</ele>
        <time>2022-07-17T09:24:23Z</time>
      </trkpt>
      <trkpt lat="45.1327" lon="6.41879">
        <ele>1544.6</ele>
        <time>2022-07-17T09:24:24Z</time>
      </trkpt>
      <trkpt lat="45.13266" lon="6.41878">
        <ele>1545</ele>
        <time>2022-07-17T09:24:25Z</time>
      </trkpt>
      <trkpt lat="45.13263" lon="6.41877">
        <ele>1545</ele>
        <time>2022-07-17T09:24:26Z</time>
      </trkpt>
      <trkpt lat="45.13259" lon="6.41876">
        <ele>1545</ele>
        <time>2022-07-17T09:24:27Z</time>
      </trkpt>
      <trkpt lat="45.13255" lon="6.41875">
        <ele>1545.2</ele>
        <time>2022-07-17T09:24:28Z</time>
      </trkpt>
      <trkpt lat="45.13251" lon="6.41874">
        <ele>1545.2</ele>
        <time>2022-07-17T09:24:29Z</time>
      </trkpt>
      <trkpt lat="45.13248" lon="6.41873">
        <ele>1545.6</ele>
        <time>2022-07-17T09:24:30Z</time>
      </trkpt>
      <trkpt lat="45.13244" lon="6.41873">
        <ele>1545.6</ele>
        <time>2022-07-17T09:24:31Z</time>
      </trkpt>
      <trkpt lat="45.13241" lon="6.41871">
        <ele>1545.8</ele>
        <time>2022-07-17T09:24:32Z</time>
      </trkpt>
      <trkpt lat="45.13237" lon="6.4187">
        <ele>1545.8</ele>
        <time>2022-07-17T09:24:33Z</time>
      </trkpt>
      <trkpt lat="45.13233" lon="6.41869">
        <ele>1546</ele>
        <time>2022-07-17T09:24:34Z</time>
      </trkpt>
      <trkpt lat="45.1323" lon="6.41868">
        <ele>1546</ele>
        <time>2022-07-17T09:24:35Z</time>
      </trkpt>
      <trkpt lat="45.13226" lon="6.41867">
        <ele>1546.2</ele>
        <time>2022-07-17T09:24:36Z</time>
      </trkpt>
      <trkpt lat="45.13223" lon="6.41866">
        <ele>1546.2</ele>
        <time>2022-07-17T09:24:37Z</time>
      </trkpt>
      <trkpt lat="45.13219" lon="6.41866">
        <ele>1546.4</ele>
        <time>2022-07-17T09:24:38Z</time>
      </trkpt>
      <trkpt lat="45.13216" lon="6.41865">
        <ele>1546.6</ele>
        <time>2022-07-17T09:24:39Z</time>
      </trkpt>
      <trkpt lat="45.13212" lon="6.41864">
        <ele>1546.6</ele>
        <time>2022-07-17T09:24:40Z</time>
      </trkpt>
      <trkpt lat="45.13209" lon="6.41863">
        <ele>1547</ele>
        <time>2022-07-17T09:24:41Z</time>
      </trkpt>
      <trkpt lat="45.13205" lon="6.41862">
        <ele>1547</ele>
        <time>2022-07-17T09:24:42Z</time>
      </trkpt>
      <trkpt lat="45.13201" lon="6.41861">
        <ele>1547.2</ele>
        <time>2022-07-17T09:24:43Z</time>
      </trkpt>
      <trkpt lat="45.13198" lon="6.4186">
        <ele>1547.2</ele>
        <time>2022-07-17T09:24:44Z</time>
      </trkpt>
      <trkpt lat="45.13194" lon="6.41859">
        <ele>1547.4</ele>
        <time>2022-07-17T09:24:45Z</time>
      </trkpt>
      <trkpt lat="45.1319" lon="6.41858">
        <ele>1547.4</ele>
        <time>2022-07-17T09:24:46Z</time>
      </trkpt>
      <trkpt lat="45.13186" lon="6.41857">
        <ele>1547.8</ele>
        <time>2022-07-17T09:24:47Z</time>
      </trkpt>
      <trkpt lat="45.13182" lon="6.41857">
        <ele>1547.8</ele>
        <time>2022-07-17T09:24:48Z</time>
      </trkpt>
      <trkpt lat="45.13178" lon="6.41856">
        <ele>1548</ele>
        <time>2022-07-17T09:24:49Z</time>
      </trkpt>
      <trkpt lat="45.13174" lon="6.41855">
        <ele>1548</ele>
        <time>2022-07-17T09:24:50Z</time>
      </trkpt>
      <trkpt lat="45.1317" lon="6.41854">
        <ele>1548.2</ele>
        <time>2022-07-17T09:24:51Z</time>
      </trkpt>
      <trkpt lat="45.13166" lon="6.41853">
        <ele>1548.2</ele>
        <time>2022-07-17T09:24:52Z</time>
      </trkpt>
      <trkpt lat="45.13163" lon="6.41853">
        <ele>1548.4</ele>
        <time>2022-07-17T09:24:53Z</time>
      </trkpt>
      <trkpt lat="45.13159" lon="6.41852">
        <ele>1548.4</ele>
        <time>2022-07-17T09:24:54Z</time>
      </trkpt>
      <trkpt lat="45.13155" lon="6.41851">
        <ele>1548.8</ele>
        <time>2022-07-17T09:24:55Z</time>
      </trkpt>
      <trkpt lat="45.13152" lon="6.4185">
        <ele>1548.8</ele>
        <time>2022-07-17T09:24:56Z</time>
      </trkpt>
      <trkpt lat="45.13148" lon="6.4185">
        <ele>1549</ele>
        <time>2022-07-17T09:24:57Z</time>
      </trkpt>
      <trkpt lat="45.13144" lon="6.41849">
        <ele>1549</ele>
        <time>2022-07-17T09:24:58Z</time>
      </trkpt>
      <trkpt lat="45.13141" lon="6.41848">
        <ele>1549.2</ele>
        <time>2022-07-17T09:24:59Z</time>
      </trkpt>
      <trkpt lat="45.13137" lon="6.41847">
        <ele>1549.2</ele>
        <time>2022-07-17T09:25:00Z</time>
      </trkpt>
      <trkpt lat="45.13133" lon="6.41846">
        <ele>1549.6</ele>
        <time>2022-07-17T09:25:01Z</time>
      </trkpt>
      <trkpt lat="45.1313" lon="6.41846">
        <ele>1549.6</ele>
        <time>2022-07-17T09:25:02Z</time>
      </trkpt>
      <trkpt lat="45.13126" lon="6.41845">
        <ele>1549.6</ele>
        <time>2022-07-17T09:25:03Z</time>
      </trkpt>
      <trkpt lat="45.13122" lon="6.41844">
        <ele>1549.6</ele>
        <time>2022-07-17T09:25:04Z</time>
      </trkpt>
      <trkpt lat="45.13119" lon="6.41843">
        <ele>1549.8</ele>
        <time>2022-07-17T09:25:05Z</time>
      </trkpt>
      <trkpt lat="45.13115" lon="6.41843">
        <ele>1549.8</ele>
        <time>2022-07-17T09:25:06Z</time>
      </trkpt>
      <trkpt lat="45.13111" lon="6.41842">
        <ele>1550</ele>
        <time>2022-07-17T09:25:07Z</time>
      </trkpt>
      <trkpt lat="45.13107" lon="6.41841">
        <ele>1550</ele>
        <time>2022-07-17T09:25:08Z</time>
      </trkpt>
      <trkpt lat="45.13103" lon="6.4184">
        <ele>1550.4</ele>
        <time>2022-07-17T09:25:09Z</time>
      </trkpt>
      <trkpt lat="45.13099" lon="6.41839">
        <ele>1550.4</ele>
        <time>2022-07-17T09:25:10Z</time>
      </trkpt>
      <trkpt lat="45.13095" lon="6.41839">
        <ele>1550.4</ele>
        <time>2022-07-17T09:25:11Z</time>
      </trkpt>
      <trkpt lat="45.13092" lon="6.41838">
        <ele>1550.6</ele>
        <time>2022-07-17T09:25:12Z</time>
      </trkpt>
      <trkpt lat="45.13088" lon="6.41837">
        <ele>1550.6</ele>
        <time>2022-07-17T09:25:13Z</time>
      </trkpt>
      <trkpt lat="45.13084" lon="6.41836">
        <ele>1551</ele>
        <time>2022-07-17T09:25:14Z</time>
      </trkpt>
      <trkpt lat="45.1308" lon="6.41836">
        <ele>1551</ele>
        <time>2022-07-17T09:25:15Z</time>
      </trkpt>
      <trkpt lat="45.13076" lon="6.41835">
        <ele>1551.2</ele>
        <time>2022-07-17T09:25:16Z</time>
      </trkpt>
      <trkpt lat="45.13072" lon="6.41834">
        <ele>1551.2</ele>
        <time>2022-07-17T09:25:17Z</time>
      </trkpt>
      <trkpt lat="45.13068" lon="6.41834">
        <ele>1551.2</ele>
        <time>2022-07-17T09:25:18Z</time>
      </trkpt>
      <trkpt lat="45.13064" lon="6.41833">
        <ele>1551.4</ele>
        <time>2022-07-17T09:25:19Z</time>
      </trkpt>
      <trkpt lat="45.1306" lon="6.41832">
        <ele>1551.4</ele>
        <time>2022-07-17T09:25:20Z</time>
      </trkpt>
      <trkpt lat="45.13057" lon="6.41832">
        <ele>1551.6</ele>
        <time>2022-07-17T09:25:21Z</time>
      </trkpt>
      <trkpt lat="45.13053" lon="6.41831">
        <ele>1551.6</ele>
        <time>2022-07-17T09:25:22Z</time>
      </trkpt>
      <trkpt lat="45.13049" lon="6.41831">
        <ele>1552</ele>
        <time>2022-07-17T09:25:23Z</time>
      </trkpt>
      <trkpt lat="45.13045" lon="6.41831">
        <ele>1552</ele>
        <time>2022-07-17T09:25:24Z</time>
      </trkpt>
      <trkpt lat="45.13041" lon="6.4183">
        <ele>1552</ele>
        <time>2022-07-17T09:25:25Z</time>
      </trkpt>
      <trkpt lat="45.13038" lon="6.4183">
        <ele>1552.2</ele>
        <time>2022-07-17T09:25:26Z</time>
      </trkpt>
      <trkpt lat="45.13034" lon="6.41829">
        <ele>1552.2</ele>
        <time>2022-07-17T09:25:27Z</time>
      </trkpt>
      <trkpt lat="45.13031" lon="6.41829">
        <ele>1552.6</ele>
        <time>2022-07-17T09:25:28Z</time>
      </trkpt>
      <trkpt lat="45.13027" lon="6.41829">
        <ele>1552.6</ele>
        <time>2022-07-17T09:25:29Z</time>
      </trkpt>
      <trkpt lat="45.13023" lon="6.41829">
        <ele>1552.8</ele>
        <time>2022-07-17T09:25:30Z</time>
      </trkpt>
      <trkpt lat="45.1302" lon="6.41829">
        <ele>1552.8</ele>
        <time>2022-07-17T09:25:31Z</time>
      </trkpt>
      <trkpt lat="45.13016" lon="6.41829">
        <ele>1553</ele>
        <time>2022-07-17T09:25:32Z</time>
      </trkpt>
      <trkpt lat="45.13013" lon="6.4183">
        <ele>1553</ele>
        <time>2022-07-17T09:25:33Z</time>
      </trkpt>
      <trkpt lat="45.13009" lon="6.41829">
        <ele>1553</ele>
        <time>2022-07-17T09:25:34Z</time>
      </trkpt>
      <trkpt lat="45.13006" lon="6.41829">
        <ele>1553.4</ele>
        <time>2022-07-17T09:25:35Z</time>
      </trkpt>
      <trkpt lat="45.13002" lon="6.41829">
        <ele>1553.4</ele>
        <time>2022-07-17T09:25:36Z</time>
      </trkpt>
      <trkpt lat="45.12998" lon="6.41829">
        <ele>1553.6</ele>
        <time>2022-07-17T09:25:37Z</time>
      </trkpt>
      <trkpt lat="45.12995" lon="6.41829">
        <ele>1553.6</ele>
        <time>2022-07-17T09:25:38Z</time>
      </trkpt>
      <trkpt lat="45.12991" lon="6.41829">
        <ele>1554</ele>
        <time>2022-07-17T09:25:39Z</time>
      </trkpt>
      <trkpt lat="45.12987" lon="6.41829">
        <ele>1554</ele>
        <time>2022-07-17T09:25:40Z</time>
      </trkpt>
      <trkpt lat="45.12983" lon="6.41829">
        <ele>1554.2</ele>
        <time>2022-07-17T09:25:41Z</time>
      </trkpt>
      <trkpt lat="45.1298" lon="6.41829">
        <ele>1554.2</ele>
        <time>2022-07-17T09:25:42Z</time>
      </trkpt>
      <trkpt lat="45.12976" lon="6.41829">
        <ele>1554.6</ele>
        <time>2022-07-17T09:25:43Z</time>
      </trkpt>
      <trkpt lat="45.12973" lon="6.41829">
        <ele>1554.6</ele>
        <time>2022-07-17T09:25:44Z</time>
      </trkpt>
      <trkpt lat="45.12969" lon="6.41829">
        <ele>1554.8</ele>
        <time>2022-07-17T09:25:45Z</time>
      </trkpt>
      <trkpt lat="45.12966" lon="6.41829">
        <ele>1554.8</ele>
        <time>2022-07-17T09:25:46Z</time>
      </trkpt>
      <trkpt lat="45.12962" lon="6.41829">
        <ele>1555</ele>
        <time>2022-07-17T09:25:47Z</time>
      </trkpt>
      <trkpt lat="45.12959" lon="6.41829">
        <ele>1555</ele>
        <time>2022-07-17T09:25:48Z</time>
      </trkpt>
      <trkpt lat="45.12955" lon="6.4183">
        <ele>1555.4</ele>
        <time>2022-07-17T09:25:49Z</time>
      </trkpt>
      <trkpt lat="45.12951" lon="6.4183">
        <ele>1555.4</ele>
        <time>2022-07-17T09:25:50Z</time>
      </trkpt>
      <trkpt lat="45.12947" lon="6.4183">
        <ele>1555.8</ele>
        <time>2022-07-17T09:25:51Z</time>
      </trkpt>
      <trkpt lat="45.12944" lon="6.41829">
        <ele>1556</ele>
        <time>2022-07-17T09:25:52Z</time>
      </trkpt>
      <trkpt lat="45.12941" lon="6.41829">
        <ele>1556.2</ele>
        <time>2022-07-17T09:25:53Z</time>
      </trkpt>
      <trkpt lat="45.12937" lon="6.41829">
        <ele>1556.4</ele>
        <time>2022-07-17T09:25:54Z</time>
      </trkpt>
      <trkpt lat="45.12934" lon="6.4183">
        <ele>1556.4</ele>
        <time>2022-07-17T09:25:55Z</time>
      </trkpt>
      <trkpt lat="45.12931" lon="6.4183">
        <ele>1556.4</ele>
        <time>2022-07-17T09:25:56Z</time>
      </trkpt>
      <trkpt lat="45.12928" lon="6.4183">
        <ele>1556.6</ele>
        <time>2022-07-17T09:25:57Z</time>
      </trkpt>
      <trkpt lat="45.12924" lon="6.4183">
        <ele>1556.6</ele>
        <time>2022-07-17T09:25:58Z</time>
      </trkpt>
      <trkpt lat="45.12921" lon="6.4183">
        <ele>1557</ele>
        <time>2022-07-17T09:25:59Z</time>
      </trkpt>
      <trkpt lat="45.12918" lon="6.4183">
        <ele>1557.2</ele>
        <time>2022-07-17T09:26:00Z</time>
      </trkpt>
      <trkpt lat="45.12914" lon="6.4183">
        <ele>1557.2</ele>
        <time>2022-07-17T09:26:01Z</time>
      </trkpt>
      <trkpt lat="45.12911" lon="6.4183">
        <ele>1557.4</ele>
        <time>2022-07-17T09:26:02Z</time>
      </trkpt>
      <trkpt lat="45.12907" lon="6.4183">
        <ele>1557.4</ele>
        <time>2022-07-17T09:26:03Z</time>
      </trkpt>
      <trkpt lat="45.12904" lon="6.4183">
        <ele>1557.8</ele>
        <time>2022-07-17T09:26:04Z</time>
      </trkpt>
      <trkpt lat="45.12901" lon="6.4183">
        <ele>1557.8</ele>
        <time>2022-07-17T09:26:05Z</time>
      </trkpt>
      <trkpt lat="45.12897" lon="6.4183">
        <ele>1558.2</ele>
        <time>2022-07-17T09:26:06Z</time>
      </trkpt>
      <trkpt lat="45.12894" lon="6.41831">
        <ele>1558.4</ele>
        <time>2022-07-17T09:26:07Z</time>
      </trkpt>
      <trkpt lat="45.1289" lon="6.41831">
        <ele>1558.6</ele>
        <time>2022-07-17T09:26:08Z</time>
      </trkpt>
      <trkpt lat="45.12886" lon="6.41831">
        <ele>1558.6</ele>
        <time>2022-07-17T09:26:09Z</time>
      </trkpt>
      <trkpt lat="45.12882" lon="6.41832">
        <ele>1559</ele>
        <time>2022-07-17T09:26:10Z</time>
      </trkpt>
      <trkpt lat="45.12879" lon="6.41832">
        <ele>1559.2</ele>
        <time>2022-07-17T09:26:11Z</time>
      </trkpt>
      <trkpt lat="45.12875" lon="6.41833">
        <ele>1559.2</ele>
        <time>2022-07-17T09:26:12Z</time>
      </trkpt>
      <trkpt lat="45.12871" lon="6.41833">
        <ele>1559.4</ele>
        <time>2022-07-17T09:26:13Z</time>
      </trkpt>
      <trkpt lat="45.12868" lon="6.41834">
        <ele>1559.4</ele>
        <time>2022-07-17T09:26:14Z</time>
      </trkpt>
      <trkpt lat="45.12864" lon="6.41834">
        <ele>1559.8</ele>
        <time>2022-07-17T09:26:15Z</time>
      </trkpt>
      <trkpt lat="45.1286" lon="6.41834">
        <ele>1559.8</ele>
        <time>2022-07-17T09:26:16Z</time>
      </trkpt>
      <trkpt lat="45.12856" lon="6.41835">
        <ele>1560.2</ele>
        <time>2022-07-17T09:26:17Z</time>
      </trkpt>
      <trkpt lat="45.12853" lon="6.41835">
        <ele>1560.2</ele>
        <time>2022-07-17T09:26:18Z</time>
      </trkpt>
      <trkpt lat="45.12849" lon="6.41835">
        <ele>1560.6</ele>
        <time>2022-07-17T09:26:19Z</time>
      </trkpt>
      <trkpt lat="45.12845" lon="6.41836">
        <ele>1560.6</ele>
        <time>2022-07-17T09:26:20Z</time>
      </trkpt>
      <trkpt lat="45.12841" lon="6.41836">
        <ele>1561</ele>
        <time>2022-07-17T09:26:21Z</time>
      </trkpt>
      <trkpt lat="45.12838" lon="6.41836">
        <ele>1561.2</ele>
        <time>2022-07-17T09:26:22Z</time>
      </trkpt>
      <trkpt lat="45.12834" lon="6.41837">
        <ele>1561.2</ele>
        <time>2022-07-17T09:26:23Z</time>
      </trkpt>
      <trkpt lat="45.1283" lon="6.41837">
        <ele>1561.6</ele>
        <time>2022-07-17T09:26:24Z</time>
      </trkpt>
      <trkpt lat="45.12827" lon="6.41838">
        <ele>1561.8</ele>
        <time>2022-07-17T09:26:25Z</time>
      </trkpt>
      <trkpt lat="45.12823" lon="6.41839">
        <ele>1561.8</ele>
        <time>2022-07-17T09:26:26Z</time>
      </trkpt>
      <trkpt lat="45.1282" lon="6.41839">
        <ele>1562</ele>
        <time>2022-07-17T09:26:27Z</time>
      </trkpt>
      <trkpt lat="45.12816" lon="6.4184">
        <ele>1562</ele>
        <time>2022-07-17T09:26:28Z</time>
      </trkpt>
      <trkpt lat="45.12813" lon="6.4184">
        <ele>1562.4</ele>
        <time>2022-07-17T09:26:29Z</time>
      </trkpt>
      <trkpt lat="45.12809" lon="6.41841">
        <ele>1562.4</ele>
        <time>2022-07-17T09:26:30Z</time>
      </trkpt>
      <trkpt lat="45.12806" lon="6.41841">
        <ele>1562.6</ele>
        <time>2022-07-17T09:26:31Z</time>
      </trkpt>
      <trkpt lat="45.12802" lon="6.41842">
        <ele>1562.8</ele>
        <time>2022-07-17T09:26:32Z</time>
      </trkpt>
      <trkpt lat="45.12799" lon="6.41843">
        <ele>1562.8</ele>
        <time>2022-07-17T09:26:33Z</time>
      </trkpt>
      <trkpt lat="45.12795" lon="6.41843">
        <ele>1563</ele>
        <time>2022-07-17T09:26:34Z</time>
      </trkpt>
      <trkpt lat="45.12792" lon="6.41844">
        <ele>1563</ele>
        <time>2022-07-17T09:26:35Z</time>
      </trkpt>
      <trkpt lat="45.12788" lon="6.41844">
        <ele>1563.2</ele>
        <time>2022-07-17T09:26:36Z</time>
      </trkpt>
      <trkpt lat="45.12785" lon="6.41845">
        <ele>1563.2</ele>
        <time>2022-07-17T09:26:37Z</time>
      </trkpt>
      <trkpt lat="45.12781" lon="6.41845">
        <ele>1563.4</ele>
        <time>2022-07-17T09:26:38Z</time>
      </trkpt>
      <trkpt lat="45.12777" lon="6.41846">
        <ele>1563.4</ele>
        <time>2022-07-17T09:26:39Z</time>
      </trkpt>
      <trkpt lat="45.12774" lon="6.41846">
        <ele>1563.8</ele>
        <time>2022-07-17T09:26:40Z</time>
      </trkpt>
      <trkpt lat="45.12771" lon="6.41847">
        <ele>1563.8</ele>
        <time>2022-07-17T09:26:41Z</time>
      </trkpt>
      <trkpt lat="45.12767" lon="6.41847">
        <ele>1564</ele>
        <time>2022-07-17T09:26:42Z</time>
      </trkpt>
      <trkpt lat="45.12764" lon="6.41848">
        <ele>1564</ele>
        <time>2022-07-17T09:26:43Z</time>
      </trkpt>
      <trkpt lat="45.1276" lon="6.41848">
        <ele>1564.2</ele>
        <time>2022-07-17T09:26:44Z</time>
      </trkpt>
      <trkpt lat="45.12757" lon="6.41849">
        <ele>1564.2</ele>
        <time>2022-07-17T09:26:45Z</time>
      </trkpt>
      <trkpt lat="45.12753" lon="6.41849">
        <ele>1564.6</ele>
        <time>2022-07-17T09:26:46Z</time>
      </trkpt>
      <trkpt lat="45.1275" lon="6.4185">
        <ele>1564.6</ele>
        <time>2022-07-17T09:26:47Z</time>
      </trkpt>
      <trkpt lat="45.12746" lon="6.4185">
        <ele>1564.8</ele>
        <time>2022-07-17T09:26:48Z</time>
      </trkpt>
      <trkpt lat="45.12743" lon="6.4185">
        <ele>1564.8</ele>
        <time>2022-07-17T09:26:49Z</time>
      </trkpt>
      <trkpt lat="45.12739" lon="6.41851">
        <ele>1565.2</ele>
        <time>2022-07-17T09:26:50Z</time>
      </trkpt>
      <trkpt lat="45.12736" lon="6.41851">
        <ele>1565.2</ele>
        <time>2022-07-17T09:26:51Z</time>
      </trkpt>
      <trkpt lat="45.12732" lon="6.41852">
        <ele>1565.6</ele>
        <time>2022-07-17T09:26:52Z</time>
      </trkpt>
      <trkpt lat="45.12729" lon="6.41852">
        <ele>1565.8</ele>
        <time>2022-07-17T09:26:53Z</time>
      </trkpt>
      <trkpt lat="45.12726" lon="6.41853">
        <ele>1566</ele>
        <time>2022-07-17T09:26:54Z</time>
      </trkpt>
      <trkpt lat="45.12722" lon="6.41853">
        <ele>1566.2</ele>
        <time>2022-07-17T09:26:55Z</time>
      </trkpt>
      <trkpt lat="45.12719" lon="6.41853">
        <ele>1566.2</ele>
        <time>2022-07-17T09:26:56Z</time>
      </trkpt>
      <trkpt lat="45.12716" lon="6.41854">
        <ele>1566.6</ele>
        <time>2022-07-17T09:26:57Z</time>
      </trkpt>
      <trkpt lat="45.12712" lon="6.41854">
        <ele>1566.6</ele>
        <time>2022-07-17T09:26:58Z</time>
      </trkpt>
      <trkpt lat="45.12709" lon="6.41855">
        <ele>1566.8</ele>
        <time>2022-07-17T09:26:59Z</time>
      </trkpt>
      <trkpt lat="45.12705" lon="6.41856">
        <ele>1566.8</ele>
        <time>2022-07-17T09:27:00Z</time>
      </trkpt>
      <trkpt lat="45.12702" lon="6.41856">
        <ele>1567.2</ele>
        <time>2022-07-17T09:27:01Z</time>
      </trkpt>
      <trkpt lat="45.12699" lon="6.41857">
        <ele>1567.2</ele>
        <time>2022-07-17T09:27:02Z</time>
      </trkpt>
      <trkpt lat="45.12695" lon="6.41857">
        <ele>1567.4</ele>
        <time>2022-07-17T09:27:03Z</time>
      </trkpt>
      <trkpt lat="45.12692" lon="6.41858">
        <ele>1567.4</ele>
        <time>2022-07-17T09:27:04Z</time>
      </trkpt>
      <trkpt lat="45.12688" lon="6.41858">
        <ele>1567.8</ele>
        <time>2022-07-17T09:27:05Z</time>
      </trkpt>
      <trkpt lat="45.12685" lon="6.41859">
        <ele>1567.8</ele>
        <time>2022-07-17T09:27:06Z</time>
      </trkpt>
      <trkpt lat="45.12682" lon="6.41859">
        <ele>1568.2</ele>
        <time>2022-07-17T09:27:07Z</time>
      </trkpt>
      <trkpt lat="45.12679" lon="6.41859">
        <ele>1568.2</ele>
        <time>2022-07-17T09:27:08Z</time>
      </trkpt>
      <trkpt lat="45.12676" lon="6.4186">
        <ele>1568.4</ele>
        <time>2022-07-17T09:27:09Z</time>
      </trkpt>
      <trkpt lat="45.12673" lon="6.4186">
        <ele>1568.8</ele>
        <time>2022-07-17T09:27:10Z</time>
      </trkpt>
      <trkpt lat="45.1267" lon="6.4186">
        <ele>1568.8</ele>
        <time>2022-07-17T09:27:11Z</time>
      </trkpt>
      <trkpt lat="45.12667" lon="6.41861">
        <ele>1569.2</ele>
        <time>2022-07-17T09:27:12Z</time>
      </trkpt>
      <trkpt lat="45.12664" lon="6.41861">
        <ele>1569.4</ele>
        <time>2022-07-17T09:27:13Z</time>
      </trkpt>
      <trkpt lat="45.12662" lon="6.41861">
        <ele>1569.6</ele>
        <time>2022-07-17T09:27:14Z</time>
      </trkpt>
      <trkpt lat="45.12659" lon="6.41861">
        <ele>1569.8</ele>
        <time>2022-07-17T09:27:15Z</time>
      </trkpt>
      <trkpt lat="45.12656" lon="6.41861">
        <ele>1569.8</ele>
        <time>2022-07-17T09:27:16Z</time>
      </trkpt>
      <trkpt lat="45.12654" lon="6.41861">
        <ele>1570.2</ele>
        <time>2022-07-17T09:27:17Z</time>
      </trkpt>
      <trkpt lat="45.12651" lon="6.4186">
        <ele>1570.2</ele>
        <time>2022-07-17T09:27:18Z</time>
      </trkpt>
      <trkpt lat="45.12648" lon="6.4186">
        <ele>1570.6</ele>
        <time>2022-07-17T09:27:19Z</time>
      </trkpt>
      <trkpt lat="45.12645" lon="6.4186">
        <ele>1571</ele>
        <time>2022-07-17T09:27:20Z</time>
      </trkpt>
      <trkpt lat="45.12642" lon="6.4186">
        <ele>1571.2</ele>
        <time>2022-07-17T09:27:21Z</time>
      </trkpt>
      <trkpt lat="45.1264" lon="6.4186">
        <ele>1571.4</ele>
        <time>2022-07-17T09:27:22Z</time>
      </trkpt>
      <trkpt lat="45.12637" lon="6.4186">
        <ele>1571.6</ele>
        <time>2022-07-17T09:27:23Z</time>
      </trkpt>
      <trkpt lat="45.12634" lon="6.4186">
        <ele>1572</ele>
        <time>2022-07-17T09:27:24Z</time>
      </trkpt>
      <trkpt lat="45.12632" lon="6.4186">
        <ele>1572.2</ele>
        <time>2022-07-17T09:27:25Z</time>
      </trkpt>
      <trkpt lat="45.12629" lon="6.4186">
        <ele>1572.4</ele>
        <time>2022-07-17T09:27:26Z</time>
      </trkpt>
      <trkpt lat="45.12626" lon="6.4186">
        <ele>1572.4</ele>
        <time>2022-07-17T09:27:27Z</time>
      </trkpt>
      <trkpt lat="45.12624" lon="6.4186">
        <ele>1572.8</ele>
        <time>2022-07-17T09:27:28Z</time>
      </trkpt>
      <trkpt lat="45.12621" lon="6.4186">
        <ele>1573</ele>
        <time>2022-07-17T09:27:29Z</time>
      </trkpt>
      <trkpt lat="45.12618" lon="6.4186">
        <ele>1573.2</ele>
        <time>2022-07-17T09:27:30Z</time>
      </trkpt>
      <trkpt lat="45.12616" lon="6.4186">
        <ele>1573.4</ele>
        <time>2022-07-17T09:27:31Z</time>
      </trkpt>
      <trkpt lat="45.12613" lon="6.4186">
        <ele>1573.6</ele>
        <time>2022-07-17T09:27:32Z</time>
      </trkpt>
      <trkpt lat="45.12611" lon="6.4186">
        <ele>1573.6</ele>
        <time>2022-07-17T09:27:33Z</time>
      </trkpt>
      <trkpt lat="45.12608" lon="6.4186">
        <ele>1574</ele>
        <time>2022-07-17T09:27:34Z</time>
      </trkpt>
      <trkpt lat="45.12606" lon="6.4186">
        <ele>1574</ele>
        <time>2022-07-17T09:27:35Z</time>
      </trkpt>
      <trkpt lat="45.12603" lon="6.4186">
        <ele>1574.4</ele>
        <time>2022-07-17T09:27:36Z</time>
      </trkpt>
      <trkpt lat="45.12601" lon="6.41861">
        <ele>1574.6</ele>
        <time>2022-07-17T09:27:37Z</time>
      </trkpt>
      <trkpt lat="45.12598" lon="6.41861">
        <ele>1574.6</ele>
        <time>2022-07-17T09:27:38Z</time>
      </trkpt>
      <trkpt lat="45.12596" lon="6.41861">
        <ele>1575</ele>
        <time>2022-07-17T09:27:39Z</time>
      </trkpt>
      <trkpt lat="45.12593" lon="6.41861">
        <ele>1575</ele>
        <time>2022-07-17T09:27:40Z</time>
      </trkpt>
      <trkpt lat="45.12591" lon="6.41862">
        <ele>1575.4</ele>
        <time>2022-07-17T09:27:41Z</time>
      </trkpt>
      <trkpt lat="45.12588" lon="6.41862">
        <ele>1575.6</ele>
        <time>2022-07-17T09:27:42Z</time>
      </trkpt>
      <trkpt lat="45.12586" lon="6.41862">
        <ele>1575.8</ele>
        <time>2022-07-17T09:27:43Z</time>
      </trkpt>
      <trkpt lat="45.12583" lon="6.41863">
        <ele>1575.8</ele>
        <time>2022-07-17T09:27:44Z</time>
      </trkpt>
      <trkpt lat="45.12581" lon="6.41863">
        <ele>1576.2</ele>
        <time>2022-07-17T09:27:45Z</time>
      </trkpt>
      <trkpt lat="45.12578" lon="6.41863">
        <ele>1576.2</ele>
        <time>2022-07-17T09:27:46Z</time>
      </trkpt>
      <trkpt lat="45.12576" lon="6.41863">
        <ele>1576.4</ele>
        <time>2022-07-17T09:27:47Z</time>
      </trkpt>
      <trkpt lat="45.12573" lon="6.41863">
        <ele>1576.4</ele>
        <time>2022-07-17T09:27:48Z</time>
      </trkpt>
      <trkpt lat="45.12571" lon="6.41863">
        <ele>1576.8</ele>
        <time>2022-07-17T09:27:49Z</time>
      </trkpt>
      <trkpt lat="45.12568" lon="6.41864">
        <ele>1576.8</ele>
        <time>2022-07-17T09:27:50Z</time>
      </trkpt>
      <trkpt lat="45.12566" lon="6.41864">
        <ele>1577.2</ele>
        <time>2022-07-17T09:27:51Z</time>
      </trkpt>
      <trkpt lat="45.12563" lon="6.41864">
        <ele>1577.4</ele>
        <time>2022-07-17T09:27:52Z</time>
      </trkpt>
      <trkpt lat="45.12561" lon="6.41864">
        <ele>1577.4</ele>
        <time>2022-07-17T09:27:53Z</time>
      </trkpt>
      <trkpt lat="45.12559" lon="6.41865">
        <ele>1577.8</ele>
        <time>2022-07-17T09:27:54Z</time>
      </trkpt>
      <trkpt lat="45.12556" lon="6.41865">
        <ele>1577.8</ele>
        <time>2022-07-17T09:27:55Z</time>
      </trkpt>
      <trkpt lat="45.12554" lon="6.41865">
        <ele>1578.2</ele>
        <time>2022-07-17T09:27:56Z</time>
      </trkpt>
      <trkpt lat="45.12551" lon="6.41865">
        <ele>1578.2</ele>
        <time>2022-07-17T09:27:57Z</time>
      </trkpt>
      <trkpt lat="45.12548" lon="6.41865">
        <ele>1578.6</ele>
        <time>2022-07-17T09:27:58Z</time>
      </trkpt>
      <trkpt lat="45.12546" lon="6.41866">
        <ele>1578.8</ele>
        <time>2022-07-17T09:27:59Z</time>
      </trkpt>
      <trkpt lat="45.12543" lon="6.41866">
        <ele>1579</ele>
        <time>2022-07-17T09:28:00Z</time>
      </trkpt>
      <trkpt lat="45.12541" lon="6.41866">
        <ele>1579</ele>
        <time>2022-07-17T09:28:01Z</time>
      </trkpt>
      <trkpt lat="45.12538" lon="6.41866">
        <ele>1579.4</ele>
        <time>2022-07-17T09:28:02Z</time>
      </trkpt>
      <trkpt lat="45.12535" lon="6.41866">
        <ele>1579.6</ele>
        <time>2022-07-17T09:28:03Z</time>
      </trkpt>
      <trkpt lat="45.12533" lon="6.41866">
        <ele>1579.8</ele>
        <time>2022-07-17T09:28:04Z</time>
      </trkpt>
      <trkpt lat="45.1253" lon="6.41866">
        <ele>1579.8</ele>
        <time>2022-07-17T09:28:05Z</time>
      </trkpt>
      <trkpt lat="45.12527" lon="6.41866">
        <ele>1580.2</ele>
        <time>2022-07-17T09:28:06Z</time>
      </trkpt>
      <trkpt lat="45.12525" lon="6.41866">
        <ele>1580.2</ele>
        <time>2022-07-17T09:28:07Z</time>
      </trkpt>
      <trkpt lat="45.12522" lon="6.41866">
        <ele>1580.6</ele>
        <time>2022-07-17T09:28:08Z</time>
      </trkpt>
      <trkpt lat="45.1252" lon="6.41866">
        <ele>1580.6</ele>
        <time>2022-07-17T09:28:09Z</time>
      </trkpt>
      <trkpt lat="45.12517" lon="6.41867">
        <ele>1581</ele>
        <time>2022-07-17T09:28:10Z</time>
      </trkpt>
      <trkpt lat="45.12515" lon="6.41866">
        <ele>1581.2</ele>
        <time>2022-07-17T09:28:11Z</time>
      </trkpt>
      <trkpt lat="45.12512" lon="6.41866">
        <ele>1581.2</ele>
        <time>2022-07-17T09:28:12Z</time>
      </trkpt>
      <trkpt lat="45.1251" lon="6.41865">
        <ele>1581.4</ele>
        <time>2022-07-17T09:28:13Z</time>
      </trkpt>
      <trkpt lat="45.12508" lon="6.41864">
        <ele>1581.4</ele>
        <time>2022-07-17T09:28:14Z</time>
      </trkpt>
      <trkpt lat="45.12506" lon="6.41863">
        <ele>1581.8</ele>
        <time>2022-07-17T09:28:15Z</time>
      </trkpt>
      <trkpt lat="45.12504" lon="6.41862">
        <ele>1582</ele>
        <time>2022-07-17T09:28:16Z</time>
      </trkpt>
      <trkpt lat="45.12502" lon="6.41861">
        <ele>1582</ele>
        <time>2022-07-17T09:28:17Z</time>
      </trkpt>
      <trkpt lat="45.125" lon="6.4186">
        <ele>1582.4</ele>
        <time>2022-07-17T09:28:18Z</time>
      </trkpt>
      <trkpt lat="45.12498" lon="6.41859">
        <ele>1582.6</ele>
        <time>2022-07-17T09:28:19Z</time>
      </trkpt>
      <trkpt lat="45.12495" lon="6.41857">
        <ele>1582.8</ele>
        <time>2022-07-17T09:28:20Z</time>
      </trkpt>
      <trkpt lat="45.12494" lon="6.41856">
        <ele>1583.2</ele>
        <time>2022-07-17T09:28:21Z</time>
      </trkpt>
      <trkpt lat="45.12492" lon="6.41854">
        <ele>1583.4</ele>
        <time>2022-07-17T09:28:22Z</time>
      </trkpt>
      <trkpt lat="45.1249" lon="6.41852">
        <ele>1583.6</ele>
        <time>2022-07-17T09:28:23Z</time>
      </trkpt>
      <trkpt lat="45.12488" lon="6.4185">
        <ele>1583.8</ele>
        <time>2022-07-17T09:28:24Z</time>
      </trkpt>
      <trkpt lat="45.12486" lon="6.41848">
        <ele>1584.2</ele>
        <time>2022-07-17T09:28:25Z</time>
      </trkpt>
      <trkpt lat="45.12484" lon="6.41845">
        <ele>1584.4</ele>
        <time>2022-07-17T09:28:26Z</time>
      </trkpt>
      <trkpt lat="45.12482" lon="6.41843">
        <ele>1584.6</ele>
        <time>2022-07-17T09:28:27Z</time>
      </trkpt>
      <trkpt lat="45.12481" lon="6.4184">
        <ele>1584.8</ele>
        <time>2022-07-17T09:28:28Z</time>
      </trkpt>
      <trkpt lat="45.12479" lon="6.41838">
        <ele>1585.2</ele>
        <time>2022-07-17T09:28:29Z</time>
      </trkpt>
      <trkpt lat="45.12477" lon="6.41835">
        <ele>1585.4</ele>
        <time>2022-07-17T09:28:30Z</time>
      </trkpt>
      <trkpt lat="45.12476" lon="6.41833">
        <ele>1585.6</ele>
        <time>2022-07-17T09:28:31Z</time>
      </trkpt>
      <trkpt lat="45.12474" lon="6.41831">
        <ele>1586</ele>
        <time>2022-07-17T09:28:32Z</time>
      </trkpt>
      <trkpt lat="45.12472" lon="6.41829">
        <ele>1586.2</ele>
        <time>2022-07-17T09:28:33Z</time>
      </trkpt>
      <trkpt lat="45.12471" lon="6.41826">
        <ele>1586.4</ele>
        <time>2022-07-17T09:28:34Z</time>
      </trkpt>
      <trkpt lat="45.12469" lon="6.41824">
        <ele>1586.8</ele>
        <time>2022-07-17T09:28:35Z</time>
      </trkpt>
      <trkpt lat="45.12467" lon="6.41822">
        <ele>1587</ele>
        <time>2022-07-17T09:28:36Z</time>
      </trkpt>
      <trkpt lat="45.12465" lon="6.4182">
        <ele>1587.2</ele>
        <time>2022-07-17T09:28:37Z</time>
      </trkpt>
      <trkpt lat="45.12463" lon="6.41818">
        <ele>1587.4</ele>
        <time>2022-07-17T09:28:38Z</time>
      </trkpt>
      <trkpt lat="45.12462" lon="6.41815">
        <ele>1587.4</ele>
        <time>2022-07-17T09:28:39Z</time>
      </trkpt>
      <trkpt lat="45.1246" lon="6.41813">
        <ele>1587.8</ele>
        <time>2022-07-17T09:28:40Z</time>
      </trkpt>
      <trkpt lat="45.12458" lon="6.41811">
        <ele>1588</ele>
        <time>2022-07-17T09:28:41Z</time>
      </trkpt>
      <trkpt lat="45.12457" lon="6.41809">
        <ele>1588.4</ele>
        <time>2022-07-17T09:28:42Z</time>
      </trkpt>
      <trkpt lat="45.12455" lon="6.41807">
        <ele>1588.6</ele>
        <time>2022-07-17T09:28:43Z</time>
      </trkpt>
      <trkpt lat="45.12453" lon="6.41805">
        <ele>1588.8</ele>
        <time>2022-07-17T09:28:44Z</time>
      </trkpt>
      <trkpt lat="45.12451" lon="6.41803">
        <ele>1589</ele>
        <time>2022-07-17T09:28:45Z</time>
      </trkpt>
      <trkpt lat="45.12449" lon="6.41801">
        <ele>1589.2</ele>
        <time>2022-07-17T09:28:46Z</time>
      </trkpt>
      <trkpt lat="45.12447" lon="6.41799">
        <ele>1589.4</ele>
        <time>2022-07-17T09:28:47Z</time>
      </trkpt>
      <trkpt lat="45.12445" lon="6.41798">
        <ele>1590</ele>
        <time>2022-07-17T09:28:49Z</time>
      </trkpt>
      <trkpt lat="45.12443" lon="6.41796">
        <ele>1590.2</ele>
        <time>2022-07-17T09:28:50Z</time>
      </trkpt>
      <trkpt lat="45.12441" lon="6.41795">
        <ele>1590.4</ele>
        <time>2022-07-17T09:28:51Z</time>
      </trkpt>
      <trkpt lat="45.12439" lon="6.41793">
        <ele>1590.4</ele>
        <time>2022-07-17T09:28:52Z</time>
      </trkpt>
      <trkpt lat="45.12437" lon="6.41792">
        <ele>1590.8</ele>
        <time>2022-07-17T09:28:53Z</time>
      </trkpt>
      <trkpt lat="45.12435" lon="6.4179">
        <ele>1591</ele>
        <time>2022-07-17T09:28:54Z</time>
      </trkpt>
      <trkpt lat="45.12433" lon="6.41789">
        <ele>1591.4</ele>
        <time>2022-07-17T09:28:55Z</time>
      </trkpt>
      <trkpt lat="45.12431" lon="6.41787">
        <ele>1591.6</ele>
        <time>2022-07-17T09:28:56Z</time>
      </trkpt>
      <trkpt lat="45.12429" lon="6.41786">
        <ele>1592</ele>
        <time>2022-07-17T09:28:57Z</time>
      </trkpt>
      <trkpt lat="45.12427" lon="6.41784">
        <ele>1592.2</ele>
        <time>2022-07-17T09:28:58Z</time>
      </trkpt>
      <trkpt lat="45.12423" lon="6.41781">
        <ele>1592.4</ele>
        <time>2022-07-17T09:28:59Z</time>
      </trkpt>
      <trkpt lat="45.12421" lon="6.4178">
        <ele>1592.6</ele>
        <time>2022-07-17T09:29:00Z</time>
      </trkpt>
      <trkpt lat="45.12419" lon="6.41778">
        <ele>1592.8</ele>
        <time>2022-07-17T09:29:01Z</time>
      </trkpt>
      <trkpt lat="45.12417" lon="6.41776">
        <ele>1593</ele>
        <time>2022-07-17T09:29:02Z</time>
      </trkpt>
      <trkpt lat="45.12415" lon="6.41774">
        <ele>1593</ele>
        <time>2022-07-17T09:29:03Z</time>
      </trkpt>
      <trkpt lat="45.12413" lon="6.41773">
        <ele>1593.6</ele>
        <time>2022-07-17T09:29:04Z</time>
      </trkpt>
      <trkpt lat="45.12411" lon="6.41771">
        <ele>1593.6</ele>
        <time>2022-07-17T09:29:05Z</time>
      </trkpt>
      <trkpt lat="45.12409" lon="6.41769">
        <ele>1594</ele>
        <time>2022-07-17T09:29:06Z</time>
      </trkpt>
      <trkpt lat="45.12407" lon="6.41767">
        <ele>1594.2</ele>
        <time>2022-07-17T09:29:07Z</time>
      </trkpt>
      <trkpt lat="45.12405" lon="6.41766">
        <ele>1594.4</ele>
        <time>2022-07-17T09:29:08Z</time>
      </trkpt>
      <trkpt lat="45.12403" lon="6.41764">
        <ele>1594.4</ele>
        <time>2022-07-17T09:29:09Z</time>
      </trkpt>
      <trkpt lat="45.12401" lon="6.41763">
        <ele>1594.6</ele>
        <time>2022-07-17T09:29:10Z</time>
      </trkpt>
      <trkpt lat="45.12399" lon="6.41762">
        <ele>1595</ele>
        <time>2022-07-17T09:29:11Z</time>
      </trkpt>
      <trkpt lat="45.12396" lon="6.4176">
        <ele>1595.2</ele>
        <time>2022-07-17T09:29:12Z</time>
      </trkpt>
      <trkpt lat="45.12394" lon="6.41759">
        <ele>1595.2</ele>
        <time>2022-07-17T09:29:13Z</time>
      </trkpt>
      <trkpt lat="45.12392" lon="6.41758">
        <ele>1595.6</ele>
        <time>2022-07-17T09:29:14Z</time>
      </trkpt>
      <trkpt lat="45.1239" lon="6.41757">
        <ele>1595.8</ele>
        <time>2022-07-17T09:29:15Z</time>
      </trkpt>
      <trkpt lat="45.12388" lon="6.41756">
        <ele>1596</ele>
        <time>2022-07-17T09:29:16Z</time>
      </trkpt>
      <trkpt lat="45.12386" lon="6.41756">
        <ele>1596.2</ele>
        <time>2022-07-17T09:29:17Z</time>
      </trkpt>
      <trkpt lat="45.12384" lon="6.41756">
        <ele>1596.2</ele>
        <time>2022-07-17T09:29:18Z</time>
      </trkpt>
      <trkpt lat="45.12381" lon="6.41757">
        <ele>1596.6</ele>
        <time>2022-07-17T09:29:19Z</time>
      </trkpt>
      <trkpt lat="45.12379" lon="6.41757">
        <ele>1596.6</ele>
        <time>2022-07-17T09:29:20Z</time>
      </trkpt>
      <trkpt lat="45.12377" lon="6.41759">
        <ele>1596.8</ele>
        <time>2022-07-17T09:29:21Z</time>
      </trkpt>
      <trkpt lat="45.12375" lon="6.41761">
        <ele>1596.8</ele>
        <time>2022-07-17T09:29:22Z</time>
      </trkpt>
      <trkpt lat="45.12373" lon="6.41764">
        <ele>1597.2</ele>
        <time>2022-07-17T09:29:23Z</time>
      </trkpt>
      <trkpt lat="45.12372" lon="6.41767">
        <ele>1597.4</ele>
        <time>2022-07-17T09:29:24Z</time>
      </trkpt>
      <trkpt lat="45.12372" lon="6.4177">
        <ele>1597.4</ele>
        <time>2022-07-17T09:29:25Z</time>
      </trkpt>
      <trkpt lat="45.12372" lon="6.41774">
        <ele>1597.8</ele>
        <time>2022-07-17T09:29:26Z</time>
      </trkpt>
      <trkpt lat="45.12372" lon="6.41778">
        <ele>1597.8</ele>
        <time>2022-07-17T09:29:27Z</time>
      </trkpt>
      <trkpt lat="45.12373" lon="6.41782">
        <ele>1598.2</ele>
        <time>2022-07-17T09:29:28Z</time>
      </trkpt>
      <trkpt lat="45.12374" lon="6.41785">
        <ele>1598.2</ele>
        <time>2022-07-17T09:29:29Z</time>
      </trkpt>
      <trkpt lat="45.12375" lon="6.41789">
        <ele>1598.4</ele>
        <time>2022-07-17T09:29:30Z</time>
      </trkpt>
      <trkpt lat="45.12377" lon="6.41793">
        <ele>1598.4</ele>
        <time>2022-07-17T09:29:31Z</time>
      </trkpt>
      <trkpt lat="45.12378" lon="6.41797">
        <ele>1598.6</ele>
        <time>2022-07-17T09:29:32Z</time>
      </trkpt>
      <trkpt lat="45.12379" lon="6.418">
        <ele>1598.6</ele>
        <time>2022-07-17T09:29:33Z</time>
      </trkpt>
      <trkpt lat="45.1238" lon="6.41804">
        <ele>1599</ele>
        <time>2022-07-17T09:29:34Z</time>
      </trkpt>
      <trkpt lat="45.12381" lon="6.41807">
        <ele>1599</ele>
        <time>2022-07-17T09:29:35Z</time>
      </trkpt>
      <trkpt lat="45.12381" lon="6.41811">
        <ele>1599.4</ele>
        <time>2022-07-17T09:29:36Z</time>
      </trkpt>
      <trkpt lat="45.12382" lon="6.41814">
        <ele>1599.4</ele>
        <time>2022-07-17T09:29:37Z</time>
      </trkpt>
      <trkpt lat="45.12382" lon="6.41818">
        <ele>1599.6</ele>
        <time>2022-07-17T09:29:38Z</time>
      </trkpt>
      <trkpt lat="45.12383" lon="6.41821">
        <ele>1600</ele>
        <time>2022-07-17T09:29:39Z</time>
      </trkpt>
      <trkpt lat="45.12383" lon="6.41824">
        <ele>1600</ele>
        <time>2022-07-17T09:29:40Z</time>
      </trkpt>
      <trkpt lat="45.12384" lon="6.41828">
        <ele>1600.2</ele>
        <time>2022-07-17T09:29:41Z</time>
      </trkpt>
      <trkpt lat="45.12384" lon="6.41831">
        <ele>1600.2</ele>
        <time>2022-07-17T09:29:42Z</time>
      </trkpt>
      <trkpt lat="45.12385" lon="6.41834">
        <ele>1600.6</ele>
        <time>2022-07-17T09:29:43Z</time>
      </trkpt>
      <trkpt lat="45.12386" lon="6.41837">
        <ele>1601</ele>
        <time>2022-07-17T09:29:44Z</time>
      </trkpt>
      <trkpt lat="45.12387" lon="6.4184">
        <ele>1601</ele>
        <time>2022-07-17T09:29:45Z</time>
      </trkpt>
      <trkpt lat="45.12388" lon="6.41843">
        <ele>1601.2</ele>
        <time>2022-07-17T09:29:46Z</time>
      </trkpt>
      <trkpt lat="45.1239" lon="6.41846">
        <ele>1601.2</ele>
        <time>2022-07-17T09:29:47Z</time>
      </trkpt>
      <trkpt lat="45.12391" lon="6.41849">
        <ele>1601.6</ele>
        <time>2022-07-17T09:29:48Z</time>
      </trkpt>
      <trkpt lat="45.12393" lon="6.41852">
        <ele>1601.8</ele>
        <time>2022-07-17T09:29:49Z</time>
      </trkpt>
      <trkpt lat="45.12394" lon="6.41855">
        <ele>1602</ele>
        <time>2022-07-17T09:29:50Z</time>
      </trkpt>
      <trkpt lat="45.12396" lon="6.41858">
        <ele>1602</ele>
        <time>2022-07-17T09:29:51Z</time>
      </trkpt>
      <trkpt lat="45.12398" lon="6.41861">
        <ele>1602.4</ele>
        <time>2022-07-17T09:29:52Z</time>
      </trkpt>
      <trkpt lat="45.124" lon="6.41864">
        <ele>1602.6</ele>
        <time>2022-07-17T09:29:53Z</time>
      </trkpt>
      <trkpt lat="45.12401" lon="6.41867">
        <ele>1602.6</ele>
        <time>2022-07-17T09:29:54Z</time>
      </trkpt>
      <trkpt lat="45.12403" lon="6.4187">
        <ele>1602.8</ele>
        <time>2022-07-17T09:29:55Z</time>
      </trkpt>
      <trkpt lat="45.12403" lon="6.41873">
        <ele>1603</ele>
        <time>2022-07-17T09:29:56Z</time>
      </trkpt>
      <trkpt lat="45.12404" lon="6.41877">
        <ele>1603</ele>
        <time>2022-07-17T09:29:57Z</time>
      </trkpt>
      <trkpt lat="45.12403" lon="6.4188">
        <ele>1603.4</ele>
        <time>2022-07-17T09:29:58Z</time>
      </trkpt>
      <trkpt lat="45.12402" lon="6.41883">
        <ele>1603.4</ele>
        <time>2022-07-17T09:29:59Z</time>
      </trkpt>
      <trkpt lat="45.12401" lon="6.41885">
        <ele>1603.8</ele>
        <time>2022-07-17T09:30:00Z</time>
      </trkpt>
      <trkpt lat="45.12399" lon="6.41887">
        <ele>1603.8</ele>
        <time>2022-07-17T09:30:01Z</time>
      </trkpt>
      <trkpt lat="45.12397" lon="6.41889">
        <ele>1604</ele>
        <time>2022-07-17T09:30:02Z</time>
      </trkpt>
      <trkpt lat="45.12395" lon="6.41889">
        <ele>1604</ele>
        <time>2022-07-17T09:30:03Z</time>
      </trkpt>
      <trkpt lat="45.12392" lon="6.41888">
        <ele>1604.4</ele>
        <time>2022-07-17T09:30:04Z</time>
      </trkpt>
      <trkpt lat="45.1239" lon="6.41887">
        <ele>1604.4</ele>
        <time>2022-07-17T09:30:05Z</time>
      </trkpt>
      <trkpt lat="45.12388" lon="6.41885">
        <ele>1604.6</ele>
        <time>2022-07-17T09:30:06Z</time>
      </trkpt>
      <trkpt lat="45.12386" lon="6.41883">
        <ele>1604.6</ele>
        <time>2022-07-17T09:30:07Z</time>
      </trkpt>
      <trkpt lat="45.12383" lon="6.41881">
        <ele>1604.8</ele>
        <time>2022-07-17T09:30:08Z</time>
      </trkpt>
      <trkpt lat="45.12381" lon="6.41878">
        <ele>1604.8</ele>
        <time>2022-07-17T09:30:09Z</time>
      </trkpt>
      <trkpt lat="45.12379" lon="6.41876">
        <ele>1605.2</ele>
        <time>2022-07-17T09:30:10Z</time>
      </trkpt>
      <trkpt lat="45.12377" lon="6.41874">
        <ele>1605.2</ele>
        <time>2022-07-17T09:30:11Z</time>
      </trkpt>
      <trkpt lat="45.12374" lon="6.41872">
        <ele>1605.4</ele>
        <time>2022-07-17T09:30:12Z</time>
      </trkpt>
      <trkpt lat="45.12372" lon="6.4187">
        <ele>1605.4</ele>
        <time>2022-07-17T09:30:13Z</time>
      </trkpt>
      <trkpt lat="45.1237" lon="6.41868">
        <ele>1605.8</ele>
        <time>2022-07-17T09:30:14Z</time>
      </trkpt>
      <trkpt lat="45.12367" lon="6.41866">
        <ele>1605.8</ele>
        <time>2022-07-17T09:30:15Z</time>
      </trkpt>
      <trkpt lat="45.12365" lon="6.41864">
        <ele>1606</ele>
        <time>2022-07-17T09:30:16Z</time>
      </trkpt>
      <trkpt lat="45.12362" lon="6.41862">
        <ele>1606</ele>
        <time>2022-07-17T09:30:17Z</time>
      </trkpt>
      <trkpt lat="45.12359" lon="6.41861">
        <ele>1606.4</ele>
        <time>2022-07-17T09:30:18Z</time>
      </trkpt>
      <trkpt lat="45.12357" lon="6.41859">
        <ele>1606.4</ele>
        <time>2022-07-17T09:30:19Z</time>
      </trkpt>
      <trkpt lat="45.12354" lon="6.41857">
        <ele>1606.8</ele>
        <time>2022-07-17T09:30:20Z</time>
      </trkpt>
      <trkpt lat="45.12352" lon="6.41856">
        <ele>1606.8</ele>
        <time>2022-07-17T09:30:21Z</time>
      </trkpt>
      <trkpt lat="45.12349" lon="6.41854">
        <ele>1607</ele>
        <time>2022-07-17T09:30:22Z</time>
      </trkpt>
      <trkpt lat="45.12347" lon="6.41853">
        <ele>1607.2</ele>
        <time>2022-07-17T09:30:23Z</time>
      </trkpt>
      <trkpt lat="45.12344" lon="6.41851">
        <ele>1607.2</ele>
        <time>2022-07-17T09:30:24Z</time>
      </trkpt>
      <trkpt lat="45.12342" lon="6.4185">
        <ele>1607.6</ele>
        <time>2022-07-17T09:30:25Z</time>
      </trkpt>
      <trkpt lat="45.12339" lon="6.41848">
        <ele>1607.8</ele>
        <time>2022-07-17T09:30:26Z</time>
      </trkpt>
      <trkpt lat="45.12337" lon="6.41847">
        <ele>1607.8</ele>
        <time>2022-07-17T09:30:27Z</time>
      </trkpt>
      <trkpt lat="45.12334" lon="6.41845">
        <ele>1608</ele>
        <time>2022-07-17T09:30:28Z</time>
      </trkpt>
      <trkpt lat="45.12332" lon="6.41844">
        <ele>1608.2</ele>
        <time>2022-07-17T09:30:29Z</time>
      </trkpt>
      <trkpt lat="45.1233" lon="6.41843">
        <ele>1608.2</ele>
        <time>2022-07-17T09:30:30Z</time>
      </trkpt>
      <trkpt lat="45.12327" lon="6.41841">
        <ele>1608.6</ele>
        <time>2022-07-17T09:30:31Z</time>
      </trkpt>
      <trkpt lat="45.12325" lon="6.4184">
        <ele>1608.6</ele>
        <time>2022-07-17T09:30:32Z</time>
      </trkpt>
      <trkpt lat="45.12322" lon="6.41838">
        <ele>1609</ele>
        <time>2022-07-17T09:30:33Z</time>
      </trkpt>
      <trkpt lat="45.1232" lon="6.41837">
        <ele>1609</ele>
        <time>2022-07-17T09:30:34Z</time>
      </trkpt>
      <trkpt lat="45.12318" lon="6.41835">
        <ele>1609.4</ele>
        <time>2022-07-17T09:30:35Z</time>
      </trkpt>
      <trkpt lat="45.12315" lon="6.41834">
        <ele>1609.4</ele>
        <time>2022-07-17T09:30:36Z</time>
      </trkpt>
      <trkpt lat="45.12313" lon="6.41832">
        <ele>1609.6</ele>
        <time>2022-07-17T09:30:37Z</time>
      </trkpt>
      <trkpt lat="45.1231" lon="6.41831">
        <ele>1609.6</ele>
        <time>2022-07-17T09:30:38Z</time>
      </trkpt>
      <trkpt lat="45.12308" lon="6.41829">
        <ele>1610</ele>
        <time>2022-07-17T09:30:39Z</time>
      </trkpt>
      <trkpt lat="45.12305" lon="6.41828">
        <ele>1610</ele>
        <time>2022-07-17T09:30:40Z</time>
      </trkpt>
      <trkpt lat="45.12303" lon="6.41826">
        <ele>1610.4</ele>
        <time>2022-07-17T09:30:41Z</time>
      </trkpt>
      <trkpt lat="45.123" lon="6.41825">
        <ele>1610.6</ele>
        <time>2022-07-17T09:30:42Z</time>
      </trkpt>
      <trkpt lat="45.12298" lon="6.41823">
        <ele>1610.8</ele>
        <time>2022-07-17T09:30:43Z</time>
      </trkpt>
      <trkpt lat="45.12295" lon="6.41822">
        <ele>1610.8</ele>
        <time>2022-07-17T09:30:44Z</time>
      </trkpt>
      <trkpt lat="45.12293" lon="6.4182">
        <ele>1611.2</ele>
        <time>2022-07-17T09:30:45Z</time>
      </trkpt>
      <trkpt lat="45.1229" lon="6.41819">
        <ele>1611.2</ele>
        <time>2022-07-17T09:30:46Z</time>
      </trkpt>
      <trkpt lat="45.12288" lon="6.41818">
        <ele>1611.4</ele>
        <time>2022-07-17T09:30:47Z</time>
      </trkpt>
      <trkpt lat="45.12285" lon="6.41816">
        <ele>1611.4</ele>
        <time>2022-07-17T09:30:48Z</time>
      </trkpt>
      <trkpt lat="45.12283" lon="6.41815">
        <ele>1611.8</ele>
        <time>2022-07-17T09:30:49Z</time>
      </trkpt>
      <trkpt lat="45.1228" lon="6.41813">
        <ele>1611.8</ele>
        <time>2022-07-17T09:30:50Z</time>
      </trkpt>
      <trkpt lat="45.12278" lon="6.41811">
        <ele>1612.2</ele>
        <time>2022-07-17T09:30:51Z</time>
      </trkpt>
      <trkpt lat="45.12275" lon="6.4181">
        <ele>1612.2</ele>
        <time>2022-07-17T09:30:52Z</time>
      </trkpt>
      <trkpt lat="45.12273" lon="6.41809">
        <ele>1612.6</ele>
        <time>2022-07-17T09:30:53Z</time>
      </trkpt>
      <trkpt lat="45.1227" lon="6.41808">
        <ele>1612.6</ele>
        <time>2022-07-17T09:30:54Z</time>
      </trkpt>
      <trkpt lat="45.12268" lon="6.41806">
        <ele>1613</ele>
        <time>2022-07-17T09:30:55Z</time>
      </trkpt>
      <trkpt lat="45.12265" lon="6.41805">
        <ele>1613</ele>
        <time>2022-07-17T09:30:56Z</time>
      </trkpt>
      <trkpt lat="45.12263" lon="6.41804">
        <ele>1613.2</ele>
        <time>2022-07-17T09:30:57Z</time>
      </trkpt>
      <trkpt lat="45.12261" lon="6.41802">
        <ele>1613.2</ele>
        <time>2022-07-17T09:30:58Z</time>
      </trkpt>
      <trkpt lat="45.12258" lon="6.41801">
        <ele>1613.6</ele>
        <time>2022-07-17T09:30:59Z</time>
      </trkpt>
      <trkpt lat="45.12256" lon="6.41799">
        <ele>1613.6</ele>
        <time>2022-07-17T09:31:00Z</time>
      </trkpt>
      <trkpt lat="45.12254" lon="6.41798">
        <ele>1613.8</ele>
        <time>2022-07-17T09:31:01Z</time>
      </trkpt>
      <trkpt lat="45.12251" lon="6.41796">
        <ele>1613.8</ele>
        <time>2022-07-17T09:31:02Z</time>
      </trkpt>
      <trkpt lat="45.12249" lon="6.41795">
        <ele>1614.2</ele>
        <time>2022-07-17T09:31:03Z</time>
      </trkpt>
      <trkpt lat="45.12247" lon="6.41793">
        <ele>1614.4</ele>
        <time>2022-07-17T09:31:04Z</time>
      </trkpt>
      <trkpt lat="45.12244" lon="6.41792">
        <ele>1614.4</ele>
        <time>2022-07-17T09:31:05Z</time>
      </trkpt>
      <trkpt lat="45.12242" lon="6.4179">
        <ele>1614.6</ele>
        <time>2022-07-17T09:31:06Z</time>
      </trkpt>
      <trkpt lat="45.1224" lon="6.41789">
        <ele>1614.8</ele>
        <time>2022-07-17T09:31:07Z</time>
      </trkpt>
      <trkpt lat="45.12237" lon="6.41787">
        <ele>1614.8</ele>
        <time>2022-07-17T09:31:08Z</time>
      </trkpt>
      <trkpt lat="45.12235" lon="6.41786">
        <ele>1615.2</ele>
        <time>2022-07-17T09:31:09Z</time>
      </trkpt>
      <trkpt lat="45.12233" lon="6.41784">
        <ele>1615.2</ele>
        <time>2022-07-17T09:31:10Z</time>
      </trkpt>
      <trkpt lat="45.1223" lon="6.41783">
        <ele>1615.6</ele>
        <time>2022-07-17T09:31:11Z</time>
      </trkpt>
      <trkpt lat="45.12228" lon="6.41782">
        <ele>1615.6</ele>
        <time>2022-07-17T09:31:12Z</time>
      </trkpt>
      <trkpt lat="45.12226" lon="6.41782">
        <ele>1615.8</ele>
        <time>2022-07-17T09:31:13Z</time>
      </trkpt>
      <trkpt lat="45.12223" lon="6.41782">
        <ele>1616</ele>
        <time>2022-07-17T09:31:14Z</time>
      </trkpt>
      <trkpt lat="45.12221" lon="6.41781">
        <ele>1616</ele>
        <time>2022-07-17T09:31:15Z</time>
      </trkpt>
      <trkpt lat="45.12219" lon="6.41782">
        <ele>1616.4</ele>
        <time>2022-07-17T09:31:16Z</time>
      </trkpt>
      <trkpt lat="45.12216" lon="6.41782">
        <ele>1616.4</ele>
        <time>2022-07-17T09:31:17Z</time>
      </trkpt>
      <trkpt lat="45.12214" lon="6.41781">
        <ele>1616.6</ele>
        <time>2022-07-17T09:31:18Z</time>
      </trkpt>
      <trkpt lat="45.12211" lon="6.41781">
        <ele>1616.6</ele>
        <time>2022-07-17T09:31:19Z</time>
      </trkpt>
      <trkpt lat="45.12209" lon="6.41781">
        <ele>1616.8</ele>
        <time>2022-07-17T09:31:20Z</time>
      </trkpt>
      <trkpt lat="45.12206" lon="6.41781">
        <ele>1616.8</ele>
        <time>2022-07-17T09:31:21Z</time>
      </trkpt>
      <trkpt lat="45.12204" lon="6.41781">
        <ele>1617.2</ele>
        <time>2022-07-17T09:31:22Z</time>
      </trkpt>
      <trkpt lat="45.12201" lon="6.41781">
        <ele>1617.2</ele>
        <time>2022-07-17T09:31:23Z</time>
      </trkpt>
      <trkpt lat="45.12199" lon="6.41781">
        <ele>1617.6</ele>
        <time>2022-07-17T09:31:24Z</time>
      </trkpt>
      <trkpt lat="45.12197" lon="6.41781">
        <ele>1617.8</ele>
        <time>2022-07-17T09:31:25Z</time>
      </trkpt>
      <trkpt lat="45.12194" lon="6.41781">
        <ele>1617.8</ele>
        <time>2022-07-17T09:31:26Z</time>
      </trkpt>
      <trkpt lat="45.12192" lon="6.41781">
        <ele>1618</ele>
        <time>2022-07-17T09:31:27Z</time>
      </trkpt>
      <trkpt lat="45.1219" lon="6.41781">
        <ele>1618</ele>
        <time>2022-07-17T09:31:28Z</time>
      </trkpt>
      <trkpt lat="45.12188" lon="6.41781">
        <ele>1618.4</ele>
        <time>2022-07-17T09:31:29Z</time>
      </trkpt>
      <trkpt lat="45.12186" lon="6.41781">
        <ele>1618.6</ele>
        <time>2022-07-17T09:31:30Z</time>
      </trkpt>
      <trkpt lat="45.12183" lon="6.41782">
        <ele>1619</ele>
        <time>2022-07-17T09:31:31Z</time>
      </trkpt>
      <trkpt lat="45.12181" lon="6.41782">
        <ele>1619</ele>
        <time>2022-07-17T09:31:32Z</time>
      </trkpt>
      <trkpt lat="45.12179" lon="6.41782">
        <ele>1619.2</ele>
        <time>2022-07-17T09:31:33Z</time>
      </trkpt>
      <trkpt lat="45.12176" lon="6.41782">
        <ele>1619.2</ele>
        <time>2022-07-17T09:31:34Z</time>
      </trkpt>
      <trkpt lat="45.12174" lon="6.41782">
        <ele>1619.6</ele>
        <time>2022-07-17T09:31:35Z</time>
      </trkpt>
      <trkpt lat="45.12171" lon="6.41782">
        <ele>1619.8</ele>
        <time>2022-07-17T09:31:36Z</time>
      </trkpt>
      <trkpt lat="45.12168" lon="6.41783">
        <ele>1620</ele>
        <time>2022-07-17T09:31:37Z</time>
      </trkpt>
      <trkpt lat="45.12166" lon="6.41783">
        <ele>1620</ele>
        <time>2022-07-17T09:31:38Z</time>
      </trkpt>
      <trkpt lat="45.12163" lon="6.41783">
        <ele>1620.4</ele>
        <time>2022-07-17T09:31:39Z</time>
      </trkpt>
      <trkpt lat="45.12161" lon="6.41783">
        <ele>1620.6</ele>
        <time>2022-07-17T09:31:40Z</time>
      </trkpt>
      <trkpt lat="45.12158" lon="6.41783">
        <ele>1621</ele>
        <time>2022-07-17T09:31:41Z</time>
      </trkpt>
      <trkpt lat="45.12156" lon="6.41784">
        <ele>1621.2</ele>
        <time>2022-07-17T09:31:42Z</time>
      </trkpt>
      <trkpt lat="45.12154" lon="6.41784">
        <ele>1621.4</ele>
        <time>2022-07-17T09:31:43Z</time>
      </trkpt>
      <trkpt lat="45.12152" lon="6.41785">
        <ele>1621.6</ele>
        <time>2022-07-17T09:31:44Z</time>
      </trkpt>
      <trkpt lat="45.12149" lon="6.41785">
        <ele>1621.6</ele>
        <time>2022-07-17T09:31:45Z</time>
      </trkpt>
      <trkpt lat="45.12147" lon="6.41785">
        <ele>1622</ele>
        <time>2022-07-17T09:31:46Z</time>
      </trkpt>
      <trkpt lat="45.12145" lon="6.41785">
        <ele>1622.2</ele>
        <time>2022-07-17T09:31:47Z</time>
      </trkpt>
      <trkpt lat="45.12143" lon="6.41786">
        <ele>1622.4</ele>
        <time>2022-07-17T09:31:48Z</time>
      </trkpt>
      <trkpt lat="45.12141" lon="6.41786">
        <ele>1622.4</ele>
        <time>2022-07-17T09:31:49Z</time>
      </trkpt>
      <trkpt lat="45.12138" lon="6.41786">
        <ele>1622.8</ele>
        <time>2022-07-17T09:31:50Z</time>
      </trkpt>
      <trkpt lat="45.12136" lon="6.41786">
        <ele>1623</ele>
        <time>2022-07-17T09:31:51Z</time>
      </trkpt>
      <trkpt lat="45.12134" lon="6.41786">
        <ele>1623.2</ele>
        <time>2022-07-17T09:31:52Z</time>
      </trkpt>
      <trkpt lat="45.12131" lon="6.41786">
        <ele>1623.2</ele>
        <time>2022-07-17T09:31:53Z</time>
      </trkpt>
      <trkpt lat="45.12129" lon="6.41786">
        <ele>1623.6</ele>
        <time>2022-07-17T09:31:54Z</time>
      </trkpt>
      <trkpt lat="45.12127" lon="6.41786">
        <ele>1623.6</ele>
        <time>2022-07-17T09:31:55Z</time>
      </trkpt>
      <trkpt lat="45.12125" lon="6.41786">
        <ele>1624</ele>
        <time>2022-07-17T09:31:56Z</time>
      </trkpt>
      <trkpt lat="45.12123" lon="6.41786">
        <ele>1624.2</ele>
        <time>2022-07-17T09:31:57Z</time>
      </trkpt>
      <trkpt lat="45.12121" lon="6.41786">
        <ele>1624.2</ele>
        <time>2022-07-17T09:31:58Z</time>
      </trkpt>
      <trkpt lat="45.12118" lon="6.41786">
        <ele>1624.6</ele>
        <time>2022-07-17T09:31:59Z</time>
      </trkpt>
      <trkpt lat="45.12116" lon="6.41786">
        <ele>1624.6</ele>
        <time>2022-07-17T09:32:00Z</time>
      </trkpt>
      <trkpt lat="45.12114" lon="6.41786">
        <ele>1624.8</ele>
        <time>2022-07-17T09:32:01Z</time>
      </trkpt>
      <trkpt lat="45.12112" lon="6.41786">
        <ele>1624.8</ele>
        <time>2022-07-17T09:32:02Z</time>
      </trkpt>
      <trkpt lat="45.1211" lon="6.41786">
        <ele>1625.2</ele>
        <time>2022-07-17T09:32:03Z</time>
      </trkpt>
      <trkpt lat="45.12107" lon="6.41787">
        <ele>1625.4</ele>
        <time>2022-07-17T09:32:04Z</time>
      </trkpt>
      <trkpt lat="45.12105" lon="6.41787">
        <ele>1625.4</ele>
        <time>2022-07-17T09:32:05Z</time>
      </trkpt>
      <trkpt lat="45.12103" lon="6.41787">
        <ele>1625.6</ele>
        <time>2022-07-17T09:32:06Z</time>
      </trkpt>
      <trkpt lat="45.121" lon="6.41787">
        <ele>1625.6</ele>
        <time>2022-07-17T09:32:07Z</time>
      </trkpt>
      <trkpt lat="45.12098" lon="6.41787">
        <ele>1626</ele>
        <time>2022-07-17T09:32:08Z</time>
      </trkpt>
      <trkpt lat="45.12096" lon="6.41787">
        <ele>1626</ele>
        <time>2022-07-17T09:32:09Z</time>
      </trkpt>
      <trkpt lat="45.12094" lon="6.41788">
        <ele>1626.4</ele>
        <time>2022-07-17T09:32:10Z</time>
      </trkpt>
      <trkpt lat="45.12091" lon="6.41788">
        <ele>1626.6</ele>
        <time>2022-07-17T09:32:11Z</time>
      </trkpt>
      <trkpt lat="45.12089" lon="6.41788">
        <ele>1626.6</ele>
        <time>2022-07-17T09:32:12Z</time>
      </trkpt>
      <trkpt lat="45.12087" lon="6.41788">
        <ele>1627</ele>
        <time>2022-07-17T09:32:13Z</time>
      </trkpt>
      <trkpt lat="45.12085" lon="6.41788">
        <ele>1627</ele>
        <time>2022-07-17T09:32:14Z</time>
      </trkpt>
      <trkpt lat="45.12082" lon="6.41788">
        <ele>1627.4</ele>
        <time>2022-07-17T09:32:15Z</time>
      </trkpt>
      <trkpt lat="45.1208" lon="6.41788">
        <ele>1627.4</ele>
        <time>2022-07-17T09:32:16Z</time>
      </trkpt>
      <trkpt lat="45.12078" lon="6.41788">
        <ele>1627.6</ele>
        <time>2022-07-17T09:32:17Z</time>
      </trkpt>
      <trkpt lat="45.12076" lon="6.41788">
        <ele>1627.6</ele>
        <time>2022-07-17T09:32:18Z</time>
      </trkpt>
      <trkpt lat="45.12074" lon="6.41788">
        <ele>1627.8</ele>
        <time>2022-07-17T09:32:19Z</time>
      </trkpt>
      <trkpt lat="45.12072" lon="6.41788">
        <ele>1628</ele>
        <time>2022-07-17T09:32:20Z</time>
      </trkpt>
      <trkpt lat="45.1207" lon="6.41788">
        <ele>1628</ele>
        <time>2022-07-17T09:32:21Z</time>
      </trkpt>
      <trkpt lat="45.12068" lon="6.41789">
        <ele>1628.4</ele>
        <time>2022-07-17T09:32:22Z</time>
      </trkpt>
      <trkpt lat="45.12065" lon="6.4179">
        <ele>1628.6</ele>
        <time>2022-07-17T09:32:23Z</time>
      </trkpt>
      <trkpt lat="45.12063" lon="6.4179">
        <ele>1628.6</ele>
        <time>2022-07-17T09:32:24Z</time>
      </trkpt>
      <trkpt lat="45.1206" lon="6.4179">
        <ele>1629</ele>
        <time>2022-07-17T09:32:25Z</time>
      </trkpt>
      <trkpt lat="45.12058" lon="6.4179">
        <ele>1629</ele>
        <time>2022-07-17T09:32:26Z</time>
      </trkpt>
      <trkpt lat="45.12055" lon="6.4179">
        <ele>1629.6</ele>
        <time>2022-07-17T09:32:27Z</time>
      </trkpt>
      <trkpt lat="45.12052" lon="6.4179">
        <ele>1629.8</ele>
        <time>2022-07-17T09:32:28Z</time>
      </trkpt>
      <trkpt lat="45.1205" lon="6.4179">
        <ele>1630</ele>
        <time>2022-07-17T09:32:29Z</time>
      </trkpt>
      <trkpt lat="45.12047" lon="6.4179">
        <ele>1630.2</ele>
        <time>2022-07-17T09:32:30Z</time>
      </trkpt>
      <trkpt lat="45.12045" lon="6.4179">
        <ele>1630.4</ele>
        <time>2022-07-17T09:32:31Z</time>
      </trkpt>
      <trkpt lat="45.12042" lon="6.4179">
        <ele>1630.8</ele>
        <time>2022-07-17T09:32:32Z</time>
      </trkpt>
      <trkpt lat="45.12039" lon="6.4179">
        <ele>1630.8</ele>
        <time>2022-07-17T09:32:33Z</time>
      </trkpt>
      <trkpt lat="45.12037" lon="6.4179">
        <ele>1631.2</ele>
        <time>2022-07-17T09:32:34Z</time>
      </trkpt>
      <trkpt lat="45.12034" lon="6.4179">
        <ele>1631.2</ele>
        <time>2022-07-17T09:32:35Z</time>
      </trkpt>
      <trkpt lat="45.12032" lon="6.4179">
        <ele>1631.4</ele>
        <time>2022-07-17T09:32:36Z</time>
      </trkpt>
      <trkpt lat="45.12029" lon="6.4179">
        <ele>1631.8</ele>
        <time>2022-07-17T09:32:37Z</time>
      </trkpt>
      <trkpt lat="45.12027" lon="6.4179">
        <ele>1631.8</ele>
        <time>2022-07-17T09:32:38Z</time>
      </trkpt>
      <trkpt lat="45.12024" lon="6.4179">
        <ele>1632</ele>
        <time>2022-07-17T09:32:39Z</time>
      </trkpt>
      <trkpt lat="45.12022" lon="6.4179">
        <ele>1632.4</ele>
        <time>2022-07-17T09:32:40Z</time>
      </trkpt>
      <trkpt lat="45.12019" lon="6.4179">
        <ele>1632.4</ele>
        <time>2022-07-17T09:32:41Z</time>
      </trkpt>
      <trkpt lat="45.12017" lon="6.41791">
        <ele>1632.6</ele>
        <time>2022-07-17T09:32:42Z</time>
      </trkpt>
      <trkpt lat="45.12015" lon="6.41791">
        <ele>1633</ele>
        <time>2022-07-17T09:32:43Z</time>
      </trkpt>
      <trkpt lat="45.12013" lon="6.41791">
        <ele>1633.2</ele>
        <time>2022-07-17T09:32:44Z</time>
      </trkpt>
      <trkpt lat="45.1201" lon="6.41791">
        <ele>1633.2</ele>
        <time>2022-07-17T09:32:45Z</time>
      </trkpt>
      <trkpt lat="45.12008" lon="6.41791">
        <ele>1633.6</ele>
        <time>2022-07-17T09:32:46Z</time>
      </trkpt>
      <trkpt lat="45.12006" lon="6.41792">
        <ele>1633.8</ele>
        <time>2022-07-17T09:32:47Z</time>
      </trkpt>
      <trkpt lat="45.12003" lon="6.41792">
        <ele>1634</ele>
        <time>2022-07-17T09:32:48Z</time>
      </trkpt>
      <trkpt lat="45.12001" lon="6.41792">
        <ele>1634.4</ele>
        <time>2022-07-17T09:32:49Z</time>
      </trkpt>
      <trkpt lat="45.11999" lon="6.41792">
        <ele>1634.6</ele>
        <time>2022-07-17T09:32:50Z</time>
      </trkpt>
      <trkpt lat="45.11997" lon="6.41793">
        <ele>1634.8</ele>
        <time>2022-07-17T09:32:51Z</time>
      </trkpt>
      <trkpt lat="45.11994" lon="6.41793">
        <ele>1635</ele>
        <time>2022-07-17T09:32:52Z</time>
      </trkpt>
      <trkpt lat="45.11992" lon="6.41793">
        <ele>1635.4</ele>
        <time>2022-07-17T09:32:53Z</time>
      </trkpt>
      <trkpt lat="45.11989" lon="6.41793">
        <ele>1635.4</ele>
        <time>2022-07-17T09:32:54Z</time>
      </trkpt>
      <trkpt lat="45.11987" lon="6.41793">
        <ele>1635.8</ele>
        <time>2022-07-17T09:32:55Z</time>
      </trkpt>
      <trkpt lat="45.11984" lon="6.41793">
        <ele>1635.8</ele>
        <time>2022-07-17T09:32:56Z</time>
      </trkpt>
      <trkpt lat="45.11982" lon="6.41793">
        <ele>1636</ele>
        <time>2022-07-17T09:32:57Z</time>
      </trkpt>
      <trkpt lat="45.11979" lon="6.41793">
        <ele>1636.2</ele>
        <time>2022-07-17T09:32:58Z</time>
      </trkpt>
      <trkpt lat="45.11977" lon="6.41793">
        <ele>1636.2</ele>
        <time>2022-07-17T09:32:59Z</time>
      </trkpt>
      <trkpt lat="45.11975" lon="6.41793">
        <ele>1636.2</ele>
        <time>2022-07-17T09:33:00Z</time>
      </trkpt>
      <trkpt lat="45.11972" lon="6.41793">
        <ele>1636.6</ele>
        <time>2022-07-17T09:33:01Z</time>
      </trkpt>
      <trkpt lat="45.1197" lon="6.41792">
        <ele>1636.8</ele>
        <time>2022-07-17T09:33:02Z</time>
      </trkpt>
      <trkpt lat="45.11967" lon="6.41793">
        <ele>1636.8</ele>
        <time>2022-07-17T09:33:03Z</time>
      </trkpt>
      <trkpt lat="45.11965" lon="6.41793">
        <ele>1637.2</ele>
        <time>2022-07-17T09:33:04Z</time>
      </trkpt>
      <trkpt lat="45.11963" lon="6.41793">
        <ele>1637.6</ele>
        <time>2022-07-17T09:33:05Z</time>
      </trkpt>
      <trkpt lat="45.1196" lon="6.41793">
        <ele>1637.6</ele>
        <time>2022-07-17T09:33:06Z</time>
      </trkpt>
      <trkpt lat="45.11958" lon="6.41793">
        <ele>1638</ele>
        <time>2022-07-17T09:33:07Z</time>
      </trkpt>
      <trkpt lat="45.11955" lon="6.41793">
        <ele>1638.2</ele>
        <time>2022-07-17T09:33:08Z</time>
      </trkpt>
      <trkpt lat="45.11953" lon="6.41793">
        <ele>1638.2</ele>
        <time>2022-07-17T09:33:09Z</time>
      </trkpt>
      <trkpt lat="45.1195" lon="6.41793">
        <ele>1638.6</ele>
        <time>2022-07-17T09:33:10Z</time>
      </trkpt>
      <trkpt lat="45.11948" lon="6.41793">
        <ele>1638.6</ele>
        <time>2022-07-17T09:33:11Z</time>
      </trkpt>
      <trkpt lat="45.11945" lon="6.41794">
        <ele>1639</ele>
        <time>2022-07-17T09:33:12Z</time>
      </trkpt>
      <trkpt lat="45.11943" lon="6.41794">
        <ele>1639.2</ele>
        <time>2022-07-17T09:33:13Z</time>
      </trkpt>
      <trkpt lat="45.1194" lon="6.41794">
        <ele>1639.4</ele>
        <time>2022-07-17T09:33:14Z</time>
      </trkpt>
      <trkpt lat="45.11938" lon="6.41794">
        <ele>1639.6</ele>
        <time>2022-07-17T09:33:15Z</time>
      </trkpt>
      <trkpt lat="45.11936" lon="6.41794">
        <ele>1639.6</ele>
        <time>2022-07-17T09:33:16Z</time>
      </trkpt>
      <trkpt lat="45.11933" lon="6.41795">
        <ele>1640</ele>
        <time>2022-07-17T09:33:17Z</time>
      </trkpt>
      <trkpt lat="45.11931" lon="6.41795">
        <ele>1640</ele>
        <time>2022-07-17T09:33:18Z</time>
      </trkpt>
      <trkpt lat="45.11929" lon="6.41795">
        <ele>1640.4</ele>
        <time>2022-07-17T09:33:19Z</time>
      </trkpt>
      <trkpt lat="45.11926" lon="6.41796">
        <ele>1640.8</ele>
        <time>2022-07-17T09:33:20Z</time>
      </trkpt>
      <trkpt lat="45.11924" lon="6.41796">
        <ele>1640.8</ele>
        <time>2022-07-17T09:33:21Z</time>
      </trkpt>
      <trkpt lat="45.11921" lon="6.41796">
        <ele>1641.2</ele>
        <time>2022-07-17T09:33:22Z</time>
      </trkpt>
      <trkpt lat="45.11919" lon="6.41796">
        <ele>1641.2</ele>
        <time>2022-07-17T09:33:23Z</time>
      </trkpt>
      <trkpt lat="45.11917" lon="6.41796">
        <ele>1641.6</ele>
        <time>2022-07-17T09:33:24Z</time>
      </trkpt>
      <trkpt lat="45.11914" lon="6.41796">
        <ele>1641.6</ele>
        <time>2022-07-17T09:33:25Z</time>
      </trkpt>
      <trkpt lat="45.11911" lon="6.41796">
        <ele>1642</ele>
        <time>2022-07-17T09:33:26Z</time>
      </trkpt>
      <trkpt lat="45.11909" lon="6.41796">
        <ele>1642.2</ele>
        <time>2022-07-17T09:33:27Z</time>
      </trkpt>
      <trkpt lat="45.11907" lon="6.41797">
        <ele>1642.4</ele>
        <time>2022-07-17T09:33:28Z</time>
      </trkpt>
      <trkpt lat="45.11904" lon="6.41797">
        <ele>1642.6</ele>
        <time>2022-07-17T09:33:29Z</time>
      </trkpt>
      <trkpt lat="45.11902" lon="6.41798">
        <ele>1642.8</ele>
        <time>2022-07-17T09:33:30Z</time>
      </trkpt>
      <trkpt lat="45.119" lon="6.41798">
        <ele>1643.2</ele>
        <time>2022-07-17T09:33:31Z</time>
      </trkpt>
      <trkpt lat="45.11897" lon="6.418">
        <ele>1643.4</ele>
        <time>2022-07-17T09:33:32Z</time>
      </trkpt>
      <trkpt lat="45.11895" lon="6.41801">
        <ele>1643.6</ele>
        <time>2022-07-17T09:33:33Z</time>
      </trkpt>
      <trkpt lat="45.11893" lon="6.41802">
        <ele>1643.8</ele>
        <time>2022-07-17T09:33:34Z</time>
      </trkpt>
      <trkpt lat="45.1189" lon="6.41804">
        <ele>1644</ele>
        <time>2022-07-17T09:33:35Z</time>
      </trkpt>
      <trkpt lat="45.11888" lon="6.41806">
        <ele>1644</ele>
        <time>2022-07-17T09:33:36Z</time>
      </trkpt>
      <trkpt lat="45.11886" lon="6.41808">
        <ele>1644.4</ele>
        <time>2022-07-17T09:33:37Z</time>
      </trkpt>
      <trkpt lat="45.11883" lon="6.4181">
        <ele>1644.4</ele>
        <time>2022-07-17T09:33:38Z</time>
      </trkpt>
      <trkpt lat="45.11881" lon="6.41813">
        <ele>1644.6</ele>
        <time>2022-07-17T09:33:39Z</time>
      </trkpt>
      <trkpt lat="45.11879" lon="6.41816">
        <ele>1644.6</ele>
        <time>2022-07-17T09:33:40Z</time>
      </trkpt>
      <trkpt lat="45.11877" lon="6.41818">
        <ele>1644.8</ele>
        <time>2022-07-17T09:33:41Z</time>
      </trkpt>
      <trkpt lat="45.11876" lon="6.41821">
        <ele>1644.8</ele>
        <time>2022-07-17T09:33:42Z</time>
      </trkpt>
      <trkpt lat="45.11874" lon="6.41824">
        <ele>1645</ele>
        <time>2022-07-17T09:33:43Z</time>
      </trkpt>
      <trkpt lat="45.11872" lon="6.41827">
        <ele>1645</ele>
        <time>2022-07-17T09:33:44Z</time>
      </trkpt>
      <trkpt lat="45.1187" lon="6.4183">
        <ele>1645</ele>
        <time>2022-07-17T09:33:45Z</time>
      </trkpt>
      <trkpt lat="45.11868" lon="6.41833">
        <ele>1645.4</ele>
        <time>2022-07-17T09:33:46Z</time>
      </trkpt>
      <trkpt lat="45.11867" lon="6.41835">
        <ele>1645.4</ele>
        <time>2022-07-17T09:33:47Z</time>
      </trkpt>
      <trkpt lat="45.11866" lon="6.41838">
        <ele>1645.4</ele>
        <time>2022-07-17T09:33:48Z</time>
      </trkpt>
      <trkpt lat="45.11864" lon="6.41841">
        <ele>1645.8</ele>
        <time>2022-07-17T09:33:49Z</time>
      </trkpt>
      <trkpt lat="45.11863" lon="6.41843">
        <ele>1645.8</ele>
        <time>2022-07-17T09:33:50Z</time>
      </trkpt>
      <trkpt lat="45.11861" lon="6.41846">
        <ele>1646</ele>
        <time>2022-07-17T09:33:51Z</time>
      </trkpt>
      <trkpt lat="45.1186" lon="6.41848">
        <ele>1646</ele>
        <time>2022-07-17T09:33:52Z</time>
      </trkpt>
      <trkpt lat="45.11858" lon="6.41851">
        <ele>1646.4</ele>
        <time>2022-07-17T09:33:53Z</time>
      </trkpt>
      <trkpt lat="45.11856" lon="6.41853">
        <ele>1646.4</ele>
        <time>2022-07-17T09:33:54Z</time>
      </trkpt>
      <trkpt lat="45.11855" lon="6.41856">
        <ele>1646.6</ele>
        <time>2022-07-17T09:33:55Z</time>
      </trkpt>
      <trkpt lat="45.11853" lon="6.41859">
        <ele>1646.6</ele>
        <time>2022-07-17T09:33:56Z</time>
      </trkpt>
      <trkpt lat="45.11851" lon="6.41861">
        <ele>1647</ele>
        <time>2022-07-17T09:33:57Z</time>
      </trkpt>
      <trkpt lat="45.11849" lon="6.41864">
        <ele>1647</ele>
        <time>2022-07-17T09:33:58Z</time>
      </trkpt>
      <trkpt lat="45.11848" lon="6.41867">
        <ele>1647.2</ele>
        <time>2022-07-17T09:33:59Z</time>
      </trkpt>
      <trkpt lat="45.11846" lon="6.41869">
        <ele>1647.2</ele>
        <time>2022-07-17T09:34:00Z</time>
      </trkpt>
      <trkpt lat="45.11844" lon="6.41872">
        <ele>1647.4</ele>
        <time>2022-07-17T09:34:01Z</time>
      </trkpt>
      <trkpt lat="45.11842" lon="6.41874">
        <ele>1647.4</ele>
        <time>2022-07-17T09:34:02Z</time>
      </trkpt>
      <trkpt lat="45.11841" lon="6.41877">
        <ele>1647.8</ele>
        <time>2022-07-17T09:34:03Z</time>
      </trkpt>
      <trkpt lat="45.11839" lon="6.4188">
        <ele>1647.8</ele>
        <time>2022-07-17T09:34:04Z</time>
      </trkpt>
      <trkpt lat="45.11838" lon="6.41883">
        <ele>1648.2</ele>
        <time>2022-07-17T09:34:05Z</time>
      </trkpt>
      <trkpt lat="45.11836" lon="6.41885">
        <ele>1648.2</ele>
        <time>2022-07-17T09:34:06Z</time>
      </trkpt>
      <trkpt lat="45.11834" lon="6.41888">
        <ele>1648.4</ele>
        <time>2022-07-17T09:34:07Z</time>
      </trkpt>
      <trkpt lat="45.11832" lon="6.4189">
        <ele>1648.6</ele>
        <time>2022-07-17T09:34:08Z</time>
      </trkpt>
      <trkpt lat="45.11831" lon="6.41893">
        <ele>1648.6</ele>
        <time>2022-07-17T09:34:09Z</time>
      </trkpt>
      <trkpt lat="45.1183" lon="6.41895">
        <ele>1649</ele>
        <time>2022-07-17T09:34:10Z</time>
      </trkpt>
      <trkpt lat="45.11828" lon="6.41898">
        <ele>1649</ele>
        <time>2022-07-17T09:34:11Z</time>
      </trkpt>
      <trkpt lat="45.11826" lon="6.41901">
        <ele>1649.4</ele>
        <time>2022-07-17T09:34:12Z</time>
      </trkpt>
      <trkpt lat="45.11824" lon="6.41903">
        <ele>1649.6</ele>
        <time>2022-07-17T09:34:13Z</time>
      </trkpt>
      <trkpt lat="45.11823" lon="6.41906">
        <ele>1649.8</ele>
        <time>2022-07-17T09:34:14Z</time>
      </trkpt>
      <trkpt lat="45.11822" lon="6.41909">
        <ele>1649.8</ele>
        <time>2022-07-17T09:34:15Z</time>
      </trkpt>
      <trkpt lat="45.1182" lon="6.41912">
        <ele>1650.2</ele>
        <time>2022-07-17T09:34:16Z</time>
      </trkpt>
      <trkpt lat="45.11819" lon="6.41915">
        <ele>1650.4</ele>
        <time>2022-07-17T09:34:17Z</time>
      </trkpt>
      <trkpt lat="45.11817" lon="6.41917">
        <ele>1650.6</ele>
        <time>2022-07-17T09:34:18Z</time>
      </trkpt>
      <trkpt lat="45.11816" lon="6.4192">
        <ele>1650.8</ele>
        <time>2022-07-17T09:34:19Z</time>
      </trkpt>
      <trkpt lat="45.11814" lon="6.41922">
        <ele>1650.8</ele>
        <time>2022-07-17T09:34:20Z</time>
      </trkpt>
      <trkpt lat="45.11813" lon="6.41925">
        <ele>1651.2</ele>
        <time>2022-07-17T09:34:21Z</time>
      </trkpt>
      <trkpt lat="45.11811" lon="6.41927">
        <ele>1651.2</ele>
        <time>2022-07-17T09:34:22Z</time>
      </trkpt>
      <trkpt lat="45.1181" lon="6.4193">
        <ele>1651.6</ele>
        <time>2022-07-17T09:34:23Z</time>
      </trkpt>
      <trkpt lat="45.11808" lon="6.41932">
        <ele>1651.6</ele>
        <time>2022-07-17T09:34:24Z</time>
      </trkpt>
      <trkpt lat="45.11806" lon="6.41935">
        <ele>1652</ele>
        <time>2022-07-17T09:34:25Z</time>
      </trkpt>
      <trkpt lat="45.11805" lon="6.41938">
        <ele>1652.2</ele>
        <time>2022-07-17T09:34:26Z</time>
      </trkpt>
      <trkpt lat="45.11803" lon="6.4194">
        <ele>1652.4</ele>
        <time>2022-07-17T09:34:27Z</time>
      </trkpt>
      <trkpt lat="45.11802" lon="6.41943">
        <ele>1652.4</ele>
        <time>2022-07-17T09:34:28Z</time>
      </trkpt>
      <trkpt lat="45.118" lon="6.41946">
        <ele>1652.8</ele>
        <time>2022-07-17T09:34:29Z</time>
      </trkpt>
      <trkpt lat="45.11798" lon="6.41948">
        <ele>1652.8</ele>
        <time>2022-07-17T09:34:30Z</time>
      </trkpt>
      <trkpt lat="45.11797" lon="6.41951">
        <ele>1653.2</ele>
        <time>2022-07-17T09:34:31Z</time>
      </trkpt>
      <trkpt lat="45.11796" lon="6.41954">
        <ele>1653.2</ele>
        <time>2022-07-17T09:34:32Z</time>
      </trkpt>
      <trkpt lat="45.11794" lon="6.41956">
        <ele>1653.6</ele>
        <time>2022-07-17T09:34:33Z</time>
      </trkpt>
      <trkpt lat="45.11793" lon="6.41959">
        <ele>1653.6</ele>
        <time>2022-07-17T09:34:34Z</time>
      </trkpt>
      <trkpt lat="45.11792" lon="6.41962">
        <ele>1653.8</ele>
        <time>2022-07-17T09:34:35Z</time>
      </trkpt>
      <trkpt lat="45.1179" lon="6.41964">
        <ele>1653.8</ele>
        <time>2022-07-17T09:34:36Z</time>
      </trkpt>
      <trkpt lat="45.11789" lon="6.41966">
        <ele>1654.2</ele>
        <time>2022-07-17T09:34:37Z</time>
      </trkpt>
      <trkpt lat="45.11787" lon="6.41969">
        <ele>1654.2</ele>
        <time>2022-07-17T09:34:38Z</time>
      </trkpt>
      <trkpt lat="45.11785" lon="6.41971">
        <ele>1654.6</ele>
        <time>2022-07-17T09:34:39Z</time>
      </trkpt>
      <trkpt lat="45.11783" lon="6.41973">
        <ele>1654.6</ele>
        <time>2022-07-17T09:34:40Z</time>
      </trkpt>
      <trkpt lat="45.11781" lon="6.41975">
        <ele>1654.8</ele>
        <time>2022-07-17T09:34:41Z</time>
      </trkpt>
      <trkpt lat="45.11779" lon="6.41977">
        <ele>1655.2</ele>
        <time>2022-07-17T09:34:42Z</time>
      </trkpt>
      <trkpt lat="45.11777" lon="6.41979">
        <ele>1655.2</ele>
        <time>2022-07-17T09:34:43Z</time>
      </trkpt>
      <trkpt lat="45.11775" lon="6.41981">
        <ele>1655.6</ele>
        <time>2022-07-17T09:34:44Z</time>
      </trkpt>
      <trkpt lat="45.11773" lon="6.41983">
        <ele>1655.8</ele>
        <time>2022-07-17T09:34:45Z</time>
      </trkpt>
      <trkpt lat="45.11771" lon="6.41985">
        <ele>1655.8</ele>
        <time>2022-07-17T09:34:46Z</time>
      </trkpt>
      <trkpt lat="45.11769" lon="6.41988">
        <ele>1656</ele>
        <time>2022-07-17T09:34:47Z</time>
      </trkpt>
      <trkpt lat="45.11767" lon="6.4199">
        <ele>1656</ele>
        <time>2022-07-17T09:34:48Z</time>
      </trkpt>
      <trkpt lat="45.11765" lon="6.41992">
        <ele>1656.4</ele>
        <time>2022-07-17T09:34:49Z</time>
      </trkpt>
      <trkpt lat="45.11762" lon="6.41993">
        <ele>1656.4</ele>
        <time>2022-07-17T09:34:50Z</time>
      </trkpt>
      <trkpt lat="45.1176" lon="6.41995">
        <ele>1656.6</ele>
        <time>2022-07-17T09:34:51Z</time>
      </trkpt>
      <trkpt lat="45.11758" lon="6.41997">
        <ele>1656.8</ele>
        <time>2022-07-17T09:34:52Z</time>
      </trkpt>
      <trkpt lat="45.11756" lon="6.41999">
        <ele>1657.2</ele>
        <time>2022-07-17T09:34:53Z</time>
      </trkpt>
      <trkpt lat="45.11753" lon="6.42001">
        <ele>1657.2</ele>
        <time>2022-07-17T09:34:54Z</time>
      </trkpt>
      <trkpt lat="45.11751" lon="6.42003">
        <ele>1657.4</ele>
        <time>2022-07-17T09:34:55Z</time>
      </trkpt>
      <trkpt lat="45.11749" lon="6.42005">
        <ele>1657.4</ele>
        <time>2022-07-17T09:34:56Z</time>
      </trkpt>
      <trkpt lat="45.11746" lon="6.42006">
        <ele>1657.6</ele>
        <time>2022-07-17T09:34:57Z</time>
      </trkpt>
      <trkpt lat="45.11744" lon="6.42008">
        <ele>1657.6</ele>
        <time>2022-07-17T09:34:58Z</time>
      </trkpt>
      <trkpt lat="45.11742" lon="6.42009">
        <ele>1658</ele>
        <time>2022-07-17T09:34:59Z</time>
      </trkpt>
      <trkpt lat="45.11739" lon="6.42011">
        <ele>1658</ele>
        <time>2022-07-17T09:35:00Z</time>
      </trkpt>
      <trkpt lat="45.11737" lon="6.42013">
        <ele>1658.2</ele>
        <time>2022-07-17T09:35:01Z</time>
      </trkpt>
      <trkpt lat="45.11735" lon="6.42015">
        <ele>1658.2</ele>
        <time>2022-07-17T09:35:02Z</time>
      </trkpt>
      <trkpt lat="45.11733" lon="6.42017">
        <ele>1658.6</ele>
        <time>2022-07-17T09:35:03Z</time>
      </trkpt>
      <trkpt lat="45.11731" lon="6.42019">
        <ele>1658.6</ele>
        <time>2022-07-17T09:35:04Z</time>
      </trkpt>
      <trkpt lat="45.11729" lon="6.42021">
        <ele>1659</ele>
        <time>2022-07-17T09:35:05Z</time>
      </trkpt>
      <trkpt lat="45.11727" lon="6.42023">
        <ele>1659</ele>
        <time>2022-07-17T09:35:06Z</time>
      </trkpt>
      <trkpt lat="45.11725" lon="6.42025">
        <ele>1659.2</ele>
        <time>2022-07-17T09:35:07Z</time>
      </trkpt>
      <trkpt lat="45.11723" lon="6.42028">
        <ele>1659.2</ele>
        <time>2022-07-17T09:35:08Z</time>
      </trkpt>
      <trkpt lat="45.11721" lon="6.4203">
        <ele>1659.6</ele>
        <time>2022-07-17T09:35:09Z</time>
      </trkpt>
      <trkpt lat="45.11719" lon="6.42032">
        <ele>1659.8</ele>
        <time>2022-07-17T09:35:10Z</time>
      </trkpt>
      <trkpt lat="45.11717" lon="6.42033">
        <ele>1659.8</ele>
        <time>2022-07-17T09:35:11Z</time>
      </trkpt>
      <trkpt lat="45.11715" lon="6.42036">
        <ele>1660</ele>
        <time>2022-07-17T09:35:12Z</time>
      </trkpt>
      <trkpt lat="45.11713" lon="6.42038">
        <ele>1660</ele>
        <time>2022-07-17T09:35:13Z</time>
      </trkpt>
      <trkpt lat="45.11711" lon="6.4204">
        <ele>1660.4</ele>
        <time>2022-07-17T09:35:14Z</time>
      </trkpt>
      <trkpt lat="45.11709" lon="6.42042">
        <ele>1660.8</ele>
        <time>2022-07-17T09:35:15Z</time>
      </trkpt>
      <trkpt lat="45.11707" lon="6.42044">
        <ele>1660.8</ele>
        <time>2022-07-17T09:35:16Z</time>
      </trkpt>
      <trkpt lat="45.11705" lon="6.42046">
        <ele>1661</ele>
        <time>2022-07-17T09:35:17Z</time>
      </trkpt>
      <trkpt lat="45.11703" lon="6.42048">
        <ele>1661</ele>
        <time>2022-07-17T09:35:18Z</time>
      </trkpt>
      <trkpt lat="45.11701" lon="6.4205">
        <ele>1661.4</ele>
        <time>2022-07-17T09:35:19Z</time>
      </trkpt>
      <trkpt lat="45.11699" lon="6.42053">
        <ele>1661.4</ele>
        <time>2022-07-17T09:35:20Z</time>
      </trkpt>
      <trkpt lat="45.11697" lon="6.42055">
        <ele>1661.8</ele>
        <time>2022-07-17T09:35:21Z</time>
      </trkpt>
      <trkpt lat="45.11695" lon="6.42057">
        <ele>1661.8</ele>
        <time>2022-07-17T09:35:22Z</time>
      </trkpt>
      <trkpt lat="45.11693" lon="6.4206">
        <ele>1662.2</ele>
        <time>2022-07-17T09:35:23Z</time>
      </trkpt>
      <trkpt lat="45.11692" lon="6.42062">
        <ele>1662.6</ele>
        <time>2022-07-17T09:35:24Z</time>
      </trkpt>
      <trkpt lat="45.1169" lon="6.42064">
        <ele>1662.8</ele>
        <time>2022-07-17T09:35:25Z</time>
      </trkpt>
      <trkpt lat="45.11689" lon="6.42067">
        <ele>1663</ele>
        <time>2022-07-17T09:35:26Z</time>
      </trkpt>
      <trkpt lat="45.11687" lon="6.4207">
        <ele>1663</ele>
        <time>2022-07-17T09:35:27Z</time>
      </trkpt>
      <trkpt lat="45.11685" lon="6.42073">
        <ele>1663.4</ele>
        <time>2022-07-17T09:35:28Z</time>
      </trkpt>
      <trkpt lat="45.11683" lon="6.42076">
        <ele>1663.4</ele>
        <time>2022-07-17T09:35:29Z</time>
      </trkpt>
      <trkpt lat="45.11682" lon="6.42078">
        <ele>1663.8</ele>
        <time>2022-07-17T09:35:30Z</time>
      </trkpt>
      <trkpt lat="45.1168" lon="6.42081">
        <ele>1663.8</ele>
        <time>2022-07-17T09:35:31Z</time>
      </trkpt>
      <trkpt lat="45.11678" lon="6.42083">
        <ele>1664</ele>
        <time>2022-07-17T09:35:32Z</time>
      </trkpt>
      <trkpt lat="45.11676" lon="6.42086">
        <ele>1664</ele>
        <time>2022-07-17T09:35:33Z</time>
      </trkpt>
      <trkpt lat="45.11674" lon="6.42089">
        <ele>1664.4</ele>
        <time>2022-07-17T09:35:34Z</time>
      </trkpt>
      <trkpt lat="45.11672" lon="6.42091">
        <ele>1664.4</ele>
        <time>2022-07-17T09:35:35Z</time>
      </trkpt>
      <trkpt lat="45.1167" lon="6.42093">
        <ele>1664.6</ele>
        <time>2022-07-17T09:35:36Z</time>
      </trkpt>
      <trkpt lat="45.11668" lon="6.42095">
        <ele>1664.6</ele>
        <time>2022-07-17T09:35:37Z</time>
      </trkpt>
      <trkpt lat="45.11666" lon="6.42097">
        <ele>1665.2</ele>
        <time>2022-07-17T09:35:38Z</time>
      </trkpt>
      <trkpt lat="45.11664" lon="6.42099">
        <ele>1665.4</ele>
        <time>2022-07-17T09:35:39Z</time>
      </trkpt>
      <trkpt lat="45.11662" lon="6.421">
        <ele>1665.4</ele>
        <time>2022-07-17T09:35:40Z</time>
      </trkpt>
      <trkpt lat="45.1166" lon="6.42102">
        <ele>1665.6</ele>
        <time>2022-07-17T09:35:41Z</time>
      </trkpt>
      <trkpt lat="45.11658" lon="6.42103">
        <ele>1665.8</ele>
        <time>2022-07-17T09:35:42Z</time>
      </trkpt>
      <trkpt lat="45.11656" lon="6.42104">
        <ele>1665.8</ele>
        <time>2022-07-17T09:35:43Z</time>
      </trkpt>
      <trkpt lat="45.11654" lon="6.42105">
        <ele>1666.2</ele>
        <time>2022-07-17T09:35:44Z</time>
      </trkpt>
      <trkpt lat="45.11651" lon="6.42106">
        <ele>1666.6</ele>
        <time>2022-07-17T09:35:46Z</time>
      </trkpt>
      <trkpt lat="45.11649" lon="6.42108">
        <ele>1666.8</ele>
        <time>2022-07-17T09:35:47Z</time>
      </trkpt>
      <trkpt lat="45.11647" lon="6.42109">
        <ele>1667</ele>
        <time>2022-07-17T09:35:48Z</time>
      </trkpt>
      <trkpt lat="45.11645" lon="6.4211">
        <ele>1667.2</ele>
        <time>2022-07-17T09:35:49Z</time>
      </trkpt>
      <trkpt lat="45.11643" lon="6.42111">
        <ele>1667.2</ele>
        <time>2022-07-17T09:35:50Z</time>
      </trkpt>
      <trkpt lat="45.11641" lon="6.42113">
        <ele>1667.6</ele>
        <time>2022-07-17T09:35:51Z</time>
      </trkpt>
      <trkpt lat="45.11636" lon="6.42115">
        <ele>1667.8</ele>
        <time>2022-07-17T09:35:52Z</time>
      </trkpt>
      <trkpt lat="45.11634" lon="6.42116">
        <ele>1667.8</ele>
        <time>2022-07-17T09:35:53Z</time>
      </trkpt>
      <trkpt lat="45.11632" lon="6.42117">
        <ele>1668</ele>
        <time>2022-07-17T09:35:54Z</time>
      </trkpt>
      <trkpt lat="45.1163" lon="6.42118">
        <ele>1668.2</ele>
        <time>2022-07-17T09:35:55Z</time>
      </trkpt>
      <trkpt lat="45.11627" lon="6.42119">
        <ele>1668.6</ele>
        <time>2022-07-17T09:35:56Z</time>
      </trkpt>
      <trkpt lat="45.11625" lon="6.4212">
        <ele>1668.8</ele>
        <time>2022-07-17T09:35:57Z</time>
      </trkpt>
      <trkpt lat="45.11623" lon="6.42121">
        <ele>1669</ele>
        <time>2022-07-17T09:35:58Z</time>
      </trkpt>
      <trkpt lat="45.11622" lon="6.42122">
        <ele>1669</ele>
        <time>2022-07-17T09:35:59Z</time>
      </trkpt>
      <trkpt lat="45.1162" lon="6.42124">
        <ele>1669.2</ele>
        <time>2022-07-17T09:36:00Z</time>
      </trkpt>
      <trkpt lat="45.11618" lon="6.42125">
        <ele>1669.2</ele>
        <time>2022-07-17T09:36:01Z</time>
      </trkpt>
      <trkpt lat="45.11615" lon="6.42127">
        <ele>1669.6</ele>
        <time>2022-07-17T09:36:02Z</time>
      </trkpt>
      <trkpt lat="45.11613" lon="6.42128">
        <ele>1669.6</ele>
        <time>2022-07-17T09:36:03Z</time>
      </trkpt>
      <trkpt lat="45.11611" lon="6.42129">
        <ele>1670</ele>
        <time>2022-07-17T09:36:04Z</time>
      </trkpt>
      <trkpt lat="45.11609" lon="6.42131">
        <ele>1670.2</ele>
        <time>2022-07-17T09:36:05Z</time>
      </trkpt>
      <trkpt lat="45.11607" lon="6.42132">
        <ele>1670.2</ele>
        <time>2022-07-17T09:36:06Z</time>
      </trkpt>
      <trkpt lat="45.11605" lon="6.42134">
        <ele>1670.6</ele>
        <time>2022-07-17T09:36:07Z</time>
      </trkpt>
      <trkpt lat="45.11603" lon="6.42136">
        <ele>1670.6</ele>
        <time>2022-07-17T09:36:08Z</time>
      </trkpt>
      <trkpt lat="45.11601" lon="6.42137">
        <ele>1671</ele>
        <time>2022-07-17T09:36:09Z</time>
      </trkpt>
      <trkpt lat="45.11598" lon="6.42139">
        <ele>1671</ele>
        <time>2022-07-17T09:36:10Z</time>
      </trkpt>
      <trkpt lat="45.11596" lon="6.4214">
        <ele>1671.2</ele>
        <time>2022-07-17T09:36:11Z</time>
      </trkpt>
      <trkpt lat="45.11594" lon="6.42142">
        <ele>1671.2</ele>
        <time>2022-07-17T09:36:12Z</time>
      </trkpt>
      <trkpt lat="45.11592" lon="6.42144">
        <ele>1671.6</ele>
        <time>2022-07-17T09:36:13Z</time>
      </trkpt>
      <trkpt lat="45.1159" lon="6.42146">
        <ele>1671.8</ele>
        <time>2022-07-17T09:36:14Z</time>
      </trkpt>
      <trkpt lat="45.11588" lon="6.42148">
        <ele>1671.8</ele>
        <time>2022-07-17T09:36:15Z</time>
      </trkpt>
      <trkpt lat="45.11587" lon="6.4215">
        <ele>1672.2</ele>
        <time>2022-07-17T09:36:16Z</time>
      </trkpt>
      <trkpt lat="45.11585" lon="6.42152">
        <ele>1672.4</ele>
        <time>2022-07-17T09:36:17Z</time>
      </trkpt>
      <trkpt lat="45.11583" lon="6.42154">
        <ele>1672.4</ele>
        <time>2022-07-17T09:36:18Z</time>
      </trkpt>
      <trkpt lat="45.11581" lon="6.42156">
        <ele>1672.8</ele>
        <time>2022-07-17T09:36:19Z</time>
      </trkpt>
      <trkpt lat="45.11579" lon="6.42158">
        <ele>1672.8</ele>
        <time>2022-07-17T09:36:20Z</time>
      </trkpt>
      <trkpt lat="45.11577" lon="6.4216">
        <ele>1673.2</ele>
        <time>2022-07-17T09:36:21Z</time>
      </trkpt>
      <trkpt lat="45.11576" lon="6.42163">
        <ele>1673.4</ele>
        <time>2022-07-17T09:36:22Z</time>
      </trkpt>
      <trkpt lat="45.11574" lon="6.42165">
        <ele>1673.4</ele>
        <time>2022-07-17T09:36:23Z</time>
      </trkpt>
      <trkpt lat="45.11573" lon="6.42167">
        <ele>1673.8</ele>
        <time>2022-07-17T09:36:24Z</time>
      </trkpt>
      <trkpt lat="45.11571" lon="6.42169">
        <ele>1673.8</ele>
        <time>2022-07-17T09:36:25Z</time>
      </trkpt>
      <trkpt lat="45.11569" lon="6.42172">
        <ele>1674</ele>
        <time>2022-07-17T09:36:26Z</time>
      </trkpt>
      <trkpt lat="45.11567" lon="6.42174">
        <ele>1674.4</ele>
        <time>2022-07-17T09:36:27Z</time>
      </trkpt>
      <trkpt lat="45.11566" lon="6.42176">
        <ele>1674.6</ele>
        <time>2022-07-17T09:36:28Z</time>
      </trkpt>
      <trkpt lat="45.11564" lon="6.42179">
        <ele>1674.6</ele>
        <time>2022-07-17T09:36:29Z</time>
      </trkpt>
      <trkpt lat="45.11562" lon="6.42181">
        <ele>1675</ele>
        <time>2022-07-17T09:36:30Z</time>
      </trkpt>
      <trkpt lat="45.11561" lon="6.42184">
        <ele>1675.4</ele>
        <time>2022-07-17T09:36:31Z</time>
      </trkpt>
      <trkpt lat="45.1156" lon="6.42186">
        <ele>1675.4</ele>
        <time>2022-07-17T09:36:32Z</time>
      </trkpt>
      <trkpt lat="45.11558" lon="6.42189">
        <ele>1675.6</ele>
        <time>2022-07-17T09:36:33Z</time>
      </trkpt>
      <trkpt lat="45.11557" lon="6.42191">
        <ele>1675.6</ele>
        <time>2022-07-17T09:36:34Z</time>
      </trkpt>
      <trkpt lat="45.11555" lon="6.42193">
        <ele>1676.2</ele>
        <time>2022-07-17T09:36:35Z</time>
      </trkpt>
      <trkpt lat="45.11554" lon="6.42196">
        <ele>1676.2</ele>
        <time>2022-07-17T09:36:36Z</time>
      </trkpt>
      <trkpt lat="45.11553" lon="6.42199">
        <ele>1676.4</ele>
        <time>2022-07-17T09:36:37Z</time>
      </trkpt>
      <trkpt lat="45.11552" lon="6.42202">
        <ele>1676.4</ele>
        <time>2022-07-17T09:36:38Z</time>
      </trkpt>
      <trkpt lat="45.1155" lon="6.42204">
        <ele>1676.8</ele>
        <time>2022-07-17T09:36:39Z</time>
      </trkpt>
      <trkpt lat="45.11549" lon="6.42207">
        <ele>1677</ele>
        <time>2022-07-17T09:36:40Z</time>
      </trkpt>
      <trkpt lat="45.11548" lon="6.4221">
        <ele>1677.4</ele>
        <time>2022-07-17T09:36:41Z</time>
      </trkpt>
      <trkpt lat="45.11547" lon="6.42212">
        <ele>1677.4</ele>
        <time>2022-07-17T09:36:42Z</time>
      </trkpt>
      <trkpt lat="45.11546" lon="6.42215">
        <ele>1677.8</ele>
        <time>2022-07-17T09:36:43Z</time>
      </trkpt>
      <trkpt lat="45.11545" lon="6.42217">
        <ele>1678</ele>
        <time>2022-07-17T09:36:44Z</time>
      </trkpt>
      <trkpt lat="45.11544" lon="6.4222">
        <ele>1678</ele>
        <time>2022-07-17T09:36:45Z</time>
      </trkpt>
      <trkpt lat="45.11543" lon="6.42223">
        <ele>1678.4</ele>
        <time>2022-07-17T09:36:46Z</time>
      </trkpt>
      <trkpt lat="45.11542" lon="6.42225">
        <ele>1678.4</ele>
        <time>2022-07-17T09:36:47Z</time>
      </trkpt>
      <trkpt lat="45.11541" lon="6.42228">
        <ele>1678.8</ele>
        <time>2022-07-17T09:36:48Z</time>
      </trkpt>
      <trkpt lat="45.1154" lon="6.42231">
        <ele>1678.8</ele>
        <time>2022-07-17T09:36:49Z</time>
      </trkpt>
      <trkpt lat="45.11539" lon="6.42233">
        <ele>1679.2</ele>
        <time>2022-07-17T09:36:50Z</time>
      </trkpt>
      <trkpt lat="45.11538" lon="6.42236">
        <ele>1679.2</ele>
        <time>2022-07-17T09:36:51Z</time>
      </trkpt>
      <trkpt lat="45.11537" lon="6.42239">
        <ele>1679.6</ele>
        <time>2022-07-17T09:36:52Z</time>
      </trkpt>
      <trkpt lat="45.11536" lon="6.42242">
        <ele>1679.8</ele>
        <time>2022-07-17T09:36:53Z</time>
      </trkpt>
      <trkpt lat="45.11535" lon="6.42245">
        <ele>1679.8</ele>
        <time>2022-07-17T09:36:54Z</time>
      </trkpt>
      <trkpt lat="45.11534" lon="6.42248">
        <ele>1680</ele>
        <time>2022-07-17T09:36:55Z</time>
      </trkpt>
      <trkpt lat="45.11533" lon="6.42252">
        <ele>1680</ele>
        <time>2022-07-17T09:36:56Z</time>
      </trkpt>
      <trkpt lat="45.11532" lon="6.42255">
        <ele>1680.4</ele>
        <time>2022-07-17T09:36:57Z</time>
      </trkpt>
      <trkpt lat="45.11531" lon="6.42258">
        <ele>1680.6</ele>
        <time>2022-07-17T09:36:58Z</time>
      </trkpt>
      <trkpt lat="45.1153" lon="6.42261">
        <ele>1680.6</ele>
        <time>2022-07-17T09:36:59Z</time>
      </trkpt>
      <trkpt lat="45.11529" lon="6.42264">
        <ele>1680.8</ele>
        <time>2022-07-17T09:37:00Z</time>
      </trkpt>
      <trkpt lat="45.11528" lon="6.42266">
        <ele>1680.8</ele>
        <time>2022-07-17T09:37:01Z</time>
      </trkpt>
      <trkpt lat="45.11527" lon="6.42269">
        <ele>1681</ele>
        <time>2022-07-17T09:37:02Z</time>
      </trkpt>
      <trkpt lat="45.11526" lon="6.42272">
        <ele>1681</ele>
        <time>2022-07-17T09:37:03Z</time>
      </trkpt>
      <trkpt lat="45.11525" lon="6.42275">
        <ele>1681.4</ele>
        <time>2022-07-17T09:37:04Z</time>
      </trkpt>
      <trkpt lat="45.11524" lon="6.42277">
        <ele>1681.6</ele>
        <time>2022-07-17T09:37:05Z</time>
      </trkpt>
      <trkpt lat="45.11523" lon="6.4228">
        <ele>1681.6</ele>
        <time>2022-07-17T09:37:06Z</time>
      </trkpt>
      <trkpt lat="45.11522" lon="6.42282">
        <ele>1682</ele>
        <time>2022-07-17T09:37:07Z</time>
      </trkpt>
      <trkpt lat="45.11521" lon="6.42285">
        <ele>1682</ele>
        <time>2022-07-17T09:37:08Z</time>
      </trkpt>
      <trkpt lat="45.1152" lon="6.42288">
        <ele>1682.2</ele>
        <time>2022-07-17T09:37:09Z</time>
      </trkpt>
      <trkpt lat="45.11519" lon="6.4229">
        <ele>1682.2</ele>
        <time>2022-07-17T09:37:10Z</time>
      </trkpt>
      <trkpt lat="45.11517" lon="6.42293">
        <ele>1682.6</ele>
        <time>2022-07-17T09:37:11Z</time>
      </trkpt>
      <trkpt lat="45.11516" lon="6.42296">
        <ele>1682.6</ele>
        <time>2022-07-17T09:37:12Z</time>
      </trkpt>
      <trkpt lat="45.11515" lon="6.42298">
        <ele>1683</ele>
        <time>2022-07-17T09:37:13Z</time>
      </trkpt>
      <trkpt lat="45.11514" lon="6.423">
        <ele>1683.2</ele>
        <time>2022-07-17T09:37:14Z</time>
      </trkpt>
      <trkpt lat="45.11512" lon="6.42303">
        <ele>1683.4</ele>
        <time>2022-07-17T09:37:15Z</time>
      </trkpt>
      <trkpt lat="45.11511" lon="6.42305">
        <ele>1683.6</ele>
        <time>2022-07-17T09:37:16Z</time>
      </trkpt>
      <trkpt lat="45.1151" lon="6.42308">
        <ele>1683.6</ele>
        <time>2022-07-17T09:37:17Z</time>
      </trkpt>
      <trkpt lat="45.11508" lon="6.4231">
        <ele>1684</ele>
        <time>2022-07-17T09:37:18Z</time>
      </trkpt>
      <trkpt lat="45.11507" lon="6.42313">
        <ele>1684</ele>
        <time>2022-07-17T09:37:19Z</time>
      </trkpt>
      <trkpt lat="45.11506" lon="6.42316">
        <ele>1684.4</ele>
        <time>2022-07-17T09:37:20Z</time>
      </trkpt>
      <trkpt lat="45.11504" lon="6.42318">
        <ele>1684.4</ele>
        <time>2022-07-17T09:37:21Z</time>
      </trkpt>
      <trkpt lat="45.11503" lon="6.42321">
        <ele>1684.8</ele>
        <time>2022-07-17T09:37:22Z</time>
      </trkpt>
      <trkpt lat="45.11501" lon="6.42323">
        <ele>1685</ele>
        <time>2022-07-17T09:37:23Z</time>
      </trkpt>
      <trkpt lat="45.11499" lon="6.42325">
        <ele>1685.2</ele>
        <time>2022-07-17T09:37:24Z</time>
      </trkpt>
      <trkpt lat="45.11497" lon="6.42328">
        <ele>1685.2</ele>
        <time>2022-07-17T09:37:25Z</time>
      </trkpt>
      <trkpt lat="45.11496" lon="6.4233">
        <ele>1685.6</ele>
        <time>2022-07-17T09:37:26Z</time>
      </trkpt>
      <trkpt lat="45.11494" lon="6.42333">
        <ele>1685.6</ele>
        <time>2022-07-17T09:37:27Z</time>
      </trkpt>
      <trkpt lat="45.11492" lon="6.42335">
        <ele>1686.2</ele>
        <time>2022-07-17T09:37:28Z</time>
      </trkpt>
      <trkpt lat="45.11491" lon="6.42337">
        <ele>1686.4</ele>
        <time>2022-07-17T09:37:29Z</time>
      </trkpt>
      <trkpt lat="45.11489" lon="6.4234">
        <ele>1686.6</ele>
        <time>2022-07-17T09:37:30Z</time>
      </trkpt>
      <trkpt lat="45.11487" lon="6.42342">
        <ele>1686.6</ele>
        <time>2022-07-17T09:37:31Z</time>
      </trkpt>
      <trkpt lat="45.11485" lon="6.42344">
        <ele>1687</ele>
        <time>2022-07-17T09:37:32Z</time>
      </trkpt>
      <trkpt lat="45.11483" lon="6.42346">
        <ele>1687.2</ele>
        <time>2022-07-17T09:37:33Z</time>
      </trkpt>
      <trkpt lat="45.11482" lon="6.42348">
        <ele>1687.2</ele>
        <time>2022-07-17T09:37:34Z</time>
      </trkpt>
      <trkpt lat="45.1148" lon="6.4235">
        <ele>1687.6</ele>
        <time>2022-07-17T09:37:35Z</time>
      </trkpt>
      <trkpt lat="45.11478" lon="6.42351">
        <ele>1687.8</ele>
        <time>2022-07-17T09:37:36Z</time>
      </trkpt>
      <trkpt lat="45.11476" lon="6.42353">
        <ele>1688</ele>
        <time>2022-07-17T09:37:37Z</time>
      </trkpt>
      <trkpt lat="45.11474" lon="6.42354">
        <ele>1688.2</ele>
        <time>2022-07-17T09:37:38Z</time>
      </trkpt>
      <trkpt lat="45.11472" lon="6.42355">
        <ele>1688.6</ele>
        <time>2022-07-17T09:37:39Z</time>
      </trkpt>
      <trkpt lat="45.11469" lon="6.42356">
        <ele>1688.8</ele>
        <time>2022-07-17T09:37:40Z</time>
      </trkpt>
      <trkpt lat="45.11467" lon="6.42357">
        <ele>1688.8</ele>
        <time>2022-07-17T09:37:41Z</time>
      </trkpt>
      <trkpt lat="45.11465" lon="6.42357">
        <ele>1689.2</ele>
        <time>2022-07-17T09:37:42Z</time>
      </trkpt>
      <trkpt lat="45.11463" lon="6.42358">
        <ele>1689.2</ele>
        <time>2022-07-17T09:37:43Z</time>
      </trkpt>
      <trkpt lat="45.11461" lon="6.42358">
        <ele>1689.4</ele>
        <time>2022-07-17T09:37:44Z</time>
      </trkpt>
      <trkpt lat="45.11459" lon="6.42359">
        <ele>1689.6</ele>
        <time>2022-07-17T09:37:45Z</time>
      </trkpt>
      <trkpt lat="45.11457" lon="6.42359">
        <ele>1689.8</ele>
        <time>2022-07-17T09:37:46Z</time>
      </trkpt>
      <trkpt lat="45.11455" lon="6.42359">
        <ele>1690</ele>
        <time>2022-07-17T09:37:47Z</time>
      </trkpt>
      <trkpt lat="45.11453" lon="6.42359">
        <ele>1690</ele>
        <time>2022-07-17T09:37:48Z</time>
      </trkpt>
      <trkpt lat="45.1145" lon="6.42359">
        <ele>1690.4</ele>
        <time>2022-07-17T09:37:49Z</time>
      </trkpt>
      <trkpt lat="45.11448" lon="6.4236">
        <ele>1690.6</ele>
        <time>2022-07-17T09:37:50Z</time>
      </trkpt>
      <trkpt lat="45.11446" lon="6.4236">
        <ele>1690.8</ele>
        <time>2022-07-17T09:37:51Z</time>
      </trkpt>
      <trkpt lat="45.11443" lon="6.4236">
        <ele>1691.2</ele>
        <time>2022-07-17T09:37:52Z</time>
      </trkpt>
      <trkpt lat="45.11441" lon="6.42361">
        <ele>1691.4</ele>
        <time>2022-07-17T09:37:53Z</time>
      </trkpt>
      <trkpt lat="45.11439" lon="6.42361">
        <ele>1691.4</ele>
        <time>2022-07-17T09:37:54Z</time>
      </trkpt>
      <trkpt lat="45.11437" lon="6.42361">
        <ele>1691.8</ele>
        <time>2022-07-17T09:37:55Z</time>
      </trkpt>
      <trkpt lat="45.11435" lon="6.42361">
        <ele>1692</ele>
        <time>2022-07-17T09:37:56Z</time>
      </trkpt>
      <trkpt lat="45.11432" lon="6.42361">
        <ele>1692</ele>
        <time>2022-07-17T09:37:57Z</time>
      </trkpt>
      <trkpt lat="45.1143" lon="6.42361">
        <ele>1692.4</ele>
        <time>2022-07-17T09:37:58Z</time>
      </trkpt>
      <trkpt lat="45.11428" lon="6.42361">
        <ele>1692.6</ele>
        <time>2022-07-17T09:37:59Z</time>
      </trkpt>
      <trkpt lat="45.11425" lon="6.42362">
        <ele>1693</ele>
        <time>2022-07-17T09:38:00Z</time>
      </trkpt>
      <trkpt lat="45.11422" lon="6.42361">
        <ele>1693</ele>
        <time>2022-07-17T09:38:01Z</time>
      </trkpt>
      <trkpt lat="45.1142" lon="6.42361">
        <ele>1693.4</ele>
        <time>2022-07-17T09:38:02Z</time>
      </trkpt>
      <trkpt lat="45.11418" lon="6.42362">
        <ele>1693.6</ele>
        <time>2022-07-17T09:38:03Z</time>
      </trkpt>
      <trkpt lat="45.11415" lon="6.42362">
        <ele>1693.8</ele>
        <time>2022-07-17T09:38:04Z</time>
      </trkpt>
      <trkpt lat="45.11413" lon="6.42362">
        <ele>1694.2</ele>
        <time>2022-07-17T09:38:05Z</time>
      </trkpt>
      <trkpt lat="45.1141" lon="6.42362">
        <ele>1694.4</ele>
        <time>2022-07-17T09:38:06Z</time>
      </trkpt>
      <trkpt lat="45.11408" lon="6.42363">
        <ele>1694.4</ele>
        <time>2022-07-17T09:38:07Z</time>
      </trkpt>
      <trkpt lat="45.11406" lon="6.42363">
        <ele>1694.6</ele>
        <time>2022-07-17T09:38:08Z</time>
      </trkpt>
      <trkpt lat="45.11403" lon="6.42363">
        <ele>1694.6</ele>
        <time>2022-07-17T09:38:09Z</time>
      </trkpt>
      <trkpt lat="45.11401" lon="6.42363">
        <ele>1695</ele>
        <time>2022-07-17T09:38:10Z</time>
      </trkpt>
      <trkpt lat="45.11399" lon="6.42363">
        <ele>1695</ele>
        <time>2022-07-17T09:38:11Z</time>
      </trkpt>
      <trkpt lat="45.11397" lon="6.42363">
        <ele>1695.4</ele>
        <time>2022-07-17T09:38:12Z</time>
      </trkpt>
      <trkpt lat="45.11394" lon="6.42363">
        <ele>1695.4</ele>
        <time>2022-07-17T09:38:13Z</time>
      </trkpt>
      <trkpt lat="45.11392" lon="6.42362">
        <ele>1695.8</ele>
        <time>2022-07-17T09:38:14Z</time>
      </trkpt>
      <trkpt lat="45.1139" lon="6.42362">
        <ele>1695.8</ele>
        <time>2022-07-17T09:38:15Z</time>
      </trkpt>
      <trkpt lat="45.11388" lon="6.42362">
        <ele>1696.2</ele>
        <time>2022-07-17T09:38:16Z</time>
      </trkpt>
      <trkpt lat="45.11386" lon="6.42362">
        <ele>1696.2</ele>
        <time>2022-07-17T09:38:17Z</time>
      </trkpt>
      <trkpt lat="45.11384" lon="6.42362">
        <ele>1696.6</ele>
        <time>2022-07-17T09:38:18Z</time>
      </trkpt>
      <trkpt lat="45.11382" lon="6.42362">
        <ele>1696.6</ele>
        <time>2022-07-17T09:38:19Z</time>
      </trkpt>
      <trkpt lat="45.1138" lon="6.42362">
        <ele>1697</ele>
        <time>2022-07-17T09:38:20Z</time>
      </trkpt>
      <trkpt lat="45.11378" lon="6.42362">
        <ele>1697.2</ele>
        <time>2022-07-17T09:38:21Z</time>
      </trkpt>
      <trkpt lat="45.11376" lon="6.42362">
        <ele>1697.2</ele>
        <time>2022-07-17T09:38:22Z</time>
      </trkpt>
      <trkpt lat="45.11374" lon="6.42362">
        <ele>1697.4</ele>
        <time>2022-07-17T09:38:23Z</time>
      </trkpt>
      <trkpt lat="45.11372" lon="6.42363">
        <ele>1697.4</ele>
        <time>2022-07-17T09:38:24Z</time>
      </trkpt>
      <trkpt lat="45.1137" lon="6.42363">
        <ele>1697.8</ele>
        <time>2022-07-17T09:38:25Z</time>
      </trkpt>
      <trkpt lat="45.11368" lon="6.42363">
        <ele>1697.8</ele>
        <time>2022-07-17T09:38:26Z</time>
      </trkpt>
      <trkpt lat="45.11366" lon="6.42364">
        <ele>1698.2</ele>
        <time>2022-07-17T09:38:27Z</time>
      </trkpt>
      <trkpt lat="45.11364" lon="6.42364">
        <ele>1698.2</ele>
        <time>2022-07-17T09:38:28Z</time>
      </trkpt>
      <trkpt lat="45.11362" lon="6.42365">
        <ele>1698.6</ele>
        <time>2022-07-17T09:38:29Z</time>
      </trkpt>
      <trkpt lat="45.1136" lon="6.42365">
        <ele>1698.6</ele>
        <time>2022-07-17T09:38:30Z</time>
      </trkpt>
      <trkpt lat="45.11358" lon="6.42365">
        <ele>1698.8</ele>
        <time>2022-07-17T09:38:31Z</time>
      </trkpt>
      <trkpt lat="45.11355" lon="6.42365">
        <ele>1698.8</ele>
        <time>2022-07-17T09:38:32Z</time>
      </trkpt>
      <trkpt lat="45.11353" lon="6.42365">
        <ele>1699</ele>
        <time>2022-07-17T09:38:33Z</time>
      </trkpt>
      <trkpt lat="45.11351" lon="6.42365">
        <ele>1699.4</ele>
        <time>2022-07-17T09:38:34Z</time>
      </trkpt>
      <trkpt lat="45.11349" lon="6.42366">
        <ele>1699.4</ele>
        <time>2022-07-17T09:38:35Z</time>
      </trkpt>
      <trkpt lat="45.11347" lon="6.42366">
        <ele>1699.6</ele>
        <time>2022-07-17T09:38:36Z</time>
      </trkpt>
      <trkpt lat="45.11345" lon="6.42366">
        <ele>1699.6</ele>
        <time>2022-07-17T09:38:37Z</time>
      </trkpt>
      <trkpt lat="45.11343" lon="6.42366">
        <ele>1700</ele>
        <time>2022-07-17T09:38:38Z</time>
      </trkpt>
      <trkpt lat="45.1134" lon="6.42367">
        <ele>1700</ele>
        <time>2022-07-17T09:38:39Z</time>
      </trkpt>
      <trkpt lat="45.11338" lon="6.42367">
        <ele>1700.4</ele>
        <time>2022-07-17T09:38:40Z</time>
      </trkpt>
      <trkpt lat="45.11336" lon="6.42368">
        <ele>1700.4</ele>
        <time>2022-07-17T09:38:41Z</time>
      </trkpt>
      <trkpt lat="45.11333" lon="6.42368">
        <ele>1700.8</ele>
        <time>2022-07-17T09:38:42Z</time>
      </trkpt>
      <trkpt lat="45.11331" lon="6.42369">
        <ele>1700.8</ele>
        <time>2022-07-17T09:38:43Z</time>
      </trkpt>
      <trkpt lat="45.11328" lon="6.4237">
        <ele>1701</ele>
        <time>2022-07-17T09:38:44Z</time>
      </trkpt>
      <trkpt lat="45.11326" lon="6.4237">
        <ele>1701</ele>
        <time>2022-07-17T09:38:45Z</time>
      </trkpt>
      <trkpt lat="45.11323" lon="6.42371">
        <ele>1701.4</ele>
        <time>2022-07-17T09:38:46Z</time>
      </trkpt>
      <trkpt lat="45.11321" lon="6.42372">
        <ele>1701.4</ele>
        <time>2022-07-17T09:38:47Z</time>
      </trkpt>
      <trkpt lat="45.11318" lon="6.42373">
        <ele>1701.6</ele>
        <time>2022-07-17T09:38:48Z</time>
      </trkpt>
      <trkpt lat="45.11315" lon="6.42374">
        <ele>1701.6</ele>
        <time>2022-07-17T09:38:49Z</time>
      </trkpt>
      <trkpt lat="45.11313" lon="6.42375">
        <ele>1702</ele>
        <time>2022-07-17T09:38:50Z</time>
      </trkpt>
      <trkpt lat="45.1131" lon="6.42375">
        <ele>1702.2</ele>
        <time>2022-07-17T09:38:51Z</time>
      </trkpt>
      <trkpt lat="45.11308" lon="6.42376">
        <ele>1702.6</ele>
        <time>2022-07-17T09:38:52Z</time>
      </trkpt>
      <trkpt lat="45.11306" lon="6.42377">
        <ele>1702.8</ele>
        <time>2022-07-17T09:38:53Z</time>
      </trkpt>
      <trkpt lat="45.11303" lon="6.42378">
        <ele>1702.8</ele>
        <time>2022-07-17T09:38:54Z</time>
      </trkpt>
      <trkpt lat="45.11301" lon="6.42379">
        <ele>1703.2</ele>
        <time>2022-07-17T09:38:55Z</time>
      </trkpt>
      <trkpt lat="45.11299" lon="6.42381">
        <ele>1703.2</ele>
        <time>2022-07-17T09:38:56Z</time>
      </trkpt>
      <trkpt lat="45.11297" lon="6.42382">
        <ele>1703.6</ele>
        <time>2022-07-17T09:38:57Z</time>
      </trkpt>
      <trkpt lat="45.11295" lon="6.42384">
        <ele>1703.6</ele>
        <time>2022-07-17T09:38:58Z</time>
      </trkpt>
      <trkpt lat="45.11293" lon="6.42386">
        <ele>1703.8</ele>
        <time>2022-07-17T09:38:59Z</time>
      </trkpt>
      <trkpt lat="45.11291" lon="6.42388">
        <ele>1703.8</ele>
        <time>2022-07-17T09:39:00Z</time>
      </trkpt>
      <trkpt lat="45.11289" lon="6.4239">
        <ele>1704</ele>
        <time>2022-07-17T09:39:01Z</time>
      </trkpt>
      <trkpt lat="45.11287" lon="6.42392">
        <ele>1704</ele>
        <time>2022-07-17T09:39:02Z</time>
      </trkpt>
      <trkpt lat="45.11285" lon="6.42394">
        <ele>1704.4</ele>
        <time>2022-07-17T09:39:03Z</time>
      </trkpt>
      <trkpt lat="45.11284" lon="6.42396">
        <ele>1704.4</ele>
        <time>2022-07-17T09:39:04Z</time>
      </trkpt>
      <trkpt lat="45.11282" lon="6.42398">
        <ele>1704.8</ele>
        <time>2022-07-17T09:39:05Z</time>
      </trkpt>
      <trkpt lat="45.1128" lon="6.42401">
        <ele>1704.8</ele>
        <time>2022-07-17T09:39:06Z</time>
      </trkpt>
      <trkpt lat="45.11278" lon="6.42403">
        <ele>1705</ele>
        <time>2022-07-17T09:39:07Z</time>
      </trkpt>
      <trkpt lat="45.11277" lon="6.42405">
        <ele>1705.4</ele>
        <time>2022-07-17T09:39:08Z</time>
      </trkpt>
      <trkpt lat="45.11275" lon="6.42407">
        <ele>1705.6</ele>
        <time>2022-07-17T09:39:09Z</time>
      </trkpt>
      <trkpt lat="45.11273" lon="6.4241">
        <ele>1705.6</ele>
        <time>2022-07-17T09:39:10Z</time>
      </trkpt>
      <trkpt lat="45.11272" lon="6.42412">
        <ele>1706</ele>
        <time>2022-07-17T09:39:11Z</time>
      </trkpt>
      <trkpt lat="45.1127" lon="6.42415">
        <ele>1706</ele>
        <time>2022-07-17T09:39:12Z</time>
      </trkpt>
      <trkpt lat="45.11269" lon="6.42417">
        <ele>1706.2</ele>
        <time>2022-07-17T09:39:13Z</time>
      </trkpt>
      <trkpt lat="45.11267" lon="6.42419">
        <ele>1706.2</ele>
        <time>2022-07-17T09:39:14Z</time>
      </trkpt>
      <trkpt lat="45.11265" lon="6.42421">
        <ele>1706.6</ele>
        <time>2022-07-17T09:39:15Z</time>
      </trkpt>
      <trkpt lat="45.11263" lon="6.42423">
        <ele>1706.8</ele>
        <time>2022-07-17T09:39:16Z</time>
      </trkpt>
      <trkpt lat="45.11261" lon="6.42425">
        <ele>1706.8</ele>
        <time>2022-07-17T09:39:17Z</time>
      </trkpt>
      <trkpt lat="45.11259" lon="6.42426">
        <ele>1707.2</ele>
        <time>2022-07-17T09:39:18Z</time>
      </trkpt>
      <trkpt lat="45.11257" lon="6.42428">
        <ele>1707.2</ele>
        <time>2022-07-17T09:39:19Z</time>
      </trkpt>
      <trkpt lat="45.11254" lon="6.42429">
        <ele>1707.4</ele>
        <time>2022-07-17T09:39:20Z</time>
      </trkpt>
      <trkpt lat="45.11252" lon="6.4243">
        <ele>1707.4</ele>
        <time>2022-07-17T09:39:21Z</time>
      </trkpt>
      <trkpt lat="45.1125" lon="6.42431">
        <ele>1707.8</ele>
        <time>2022-07-17T09:39:22Z</time>
      </trkpt>
      <trkpt lat="45.11248" lon="6.42431">
        <ele>1708.2</ele>
        <time>2022-07-17T09:39:23Z</time>
      </trkpt>
      <trkpt lat="45.11245" lon="6.42432">
        <ele>1708.4</ele>
        <time>2022-07-17T09:39:24Z</time>
      </trkpt>
      <trkpt lat="45.11243" lon="6.42432">
        <ele>1708.4</ele>
        <time>2022-07-17T09:39:25Z</time>
      </trkpt>
      <trkpt lat="45.11241" lon="6.42432">
        <ele>1708.8</ele>
        <time>2022-07-17T09:39:26Z</time>
      </trkpt>
      <trkpt lat="45.11239" lon="6.42433">
        <ele>1708.8</ele>
        <time>2022-07-17T09:39:27Z</time>
      </trkpt>
      <trkpt lat="45.11236" lon="6.42433">
        <ele>1709.2</ele>
        <time>2022-07-17T09:39:28Z</time>
      </trkpt>
      <trkpt lat="45.11234" lon="6.42433">
        <ele>1709.2</ele>
        <time>2022-07-17T09:39:29Z</time>
      </trkpt>
      <trkpt lat="45.11232" lon="6.42433">
        <ele>1709.6</ele>
        <time>2022-07-17T09:39:30Z</time>
      </trkpt>
      <trkpt lat="45.1123" lon="6.42433">
        <ele>1709.6</ele>
        <time>2022-07-17T09:39:31Z</time>
      </trkpt>
      <trkpt lat="45.11227" lon="6.42433">
        <ele>1709.8</ele>
        <time>2022-07-17T09:39:32Z</time>
      </trkpt>
      <trkpt lat="45.11225" lon="6.42434">
        <ele>1710</ele>
        <time>2022-07-17T09:39:33Z</time>
      </trkpt>
      <trkpt lat="45.11223" lon="6.42434">
        <ele>1710</ele>
        <time>2022-07-17T09:39:34Z</time>
      </trkpt>
      <trkpt lat="45.11221" lon="6.42433">
        <ele>1710.4</ele>
        <time>2022-07-17T09:39:35Z</time>
      </trkpt>
      <trkpt lat="45.11219" lon="6.42433">
        <ele>1710.6</ele>
        <time>2022-07-17T09:39:36Z</time>
      </trkpt>
      <trkpt lat="45.11216" lon="6.42433">
        <ele>1710.6</ele>
        <time>2022-07-17T09:39:37Z</time>
      </trkpt>
      <trkpt lat="45.11214" lon="6.42433">
        <ele>1711</ele>
        <time>2022-07-17T09:39:38Z</time>
      </trkpt>
      <trkpt lat="45.11212" lon="6.42433">
        <ele>1711</ele>
        <time>2022-07-17T09:39:39Z</time>
      </trkpt>
      <trkpt lat="45.1121" lon="6.42433">
        <ele>1711.2</ele>
        <time>2022-07-17T09:39:40Z</time>
      </trkpt>
      <trkpt lat="45.11208" lon="6.42432">
        <ele>1711.2</ele>
        <time>2022-07-17T09:39:41Z</time>
      </trkpt>
      <trkpt lat="45.11205" lon="6.42432">
        <ele>1711.6</ele>
        <time>2022-07-17T09:39:42Z</time>
      </trkpt>
      <trkpt lat="45.11203" lon="6.42431">
        <ele>1711.6</ele>
        <time>2022-07-17T09:39:43Z</time>
      </trkpt>
      <trkpt lat="45.11201" lon="6.42431">
        <ele>1711.8</ele>
        <time>2022-07-17T09:39:44Z</time>
      </trkpt>
      <trkpt lat="45.11199" lon="6.42431">
        <ele>1711.8</ele>
        <time>2022-07-17T09:39:45Z</time>
      </trkpt>
      <trkpt lat="45.11196" lon="6.4243">
        <ele>1712.2</ele>
        <time>2022-07-17T09:39:46Z</time>
      </trkpt>
      <trkpt lat="45.11194" lon="6.4243">
        <ele>1712.4</ele>
        <time>2022-07-17T09:39:47Z</time>
      </trkpt>
      <trkpt lat="45.11192" lon="6.4243">
        <ele>1712.4</ele>
        <time>2022-07-17T09:39:48Z</time>
      </trkpt>
      <trkpt lat="45.1119" lon="6.4243">
        <ele>1712.8</ele>
        <time>2022-07-17T09:39:49Z</time>
      </trkpt>
      <trkpt lat="45.11187" lon="6.4243">
        <ele>1713</ele>
        <time>2022-07-17T09:39:50Z</time>
      </trkpt>
      <trkpt lat="45.11185" lon="6.4243">
        <ele>1713</ele>
        <time>2022-07-17T09:39:51Z</time>
      </trkpt>
      <trkpt lat="45.11183" lon="6.4243">
        <ele>1713.2</ele>
        <time>2022-07-17T09:39:52Z</time>
      </trkpt>
      <trkpt lat="45.11181" lon="6.4243">
        <ele>1713.2</ele>
        <time>2022-07-17T09:39:53Z</time>
      </trkpt>
      <trkpt lat="45.11178" lon="6.4243">
        <ele>1713.6</ele>
        <time>2022-07-17T09:39:54Z</time>
      </trkpt>
      <trkpt lat="45.11176" lon="6.4243">
        <ele>1713.6</ele>
        <time>2022-07-17T09:39:55Z</time>
      </trkpt>
      <trkpt lat="45.11174" lon="6.42431">
        <ele>1713.8</ele>
        <time>2022-07-17T09:39:56Z</time>
      </trkpt>
      <trkpt lat="45.11172" lon="6.42431">
        <ele>1713.8</ele>
        <time>2022-07-17T09:39:57Z</time>
      </trkpt>
      <trkpt lat="45.11169" lon="6.42431">
        <ele>1714.2</ele>
        <time>2022-07-17T09:39:58Z</time>
      </trkpt>
      <trkpt lat="45.11167" lon="6.42432">
        <ele>1714.2</ele>
        <time>2022-07-17T09:39:59Z</time>
      </trkpt>
      <trkpt lat="45.11165" lon="6.42432">
        <ele>1714.6</ele>
        <time>2022-07-17T09:40:00Z</time>
      </trkpt>
      <trkpt lat="45.11163" lon="6.42432">
        <ele>1714.8</ele>
        <time>2022-07-17T09:40:01Z</time>
      </trkpt>
      <trkpt lat="45.11161" lon="6.42433">
        <ele>1714.8</ele>
        <time>2022-07-17T09:40:02Z</time>
      </trkpt>
      <trkpt lat="45.11158" lon="6.42433">
        <ele>1715</ele>
        <time>2022-07-17T09:40:03Z</time>
      </trkpt>
      <trkpt lat="45.11156" lon="6.42434">
        <ele>1715</ele>
        <time>2022-07-17T09:40:04Z</time>
      </trkpt>
      <trkpt lat="45.11153" lon="6.42434">
        <ele>1715.6</ele>
        <time>2022-07-17T09:40:05Z</time>
      </trkpt>
      <trkpt lat="45.11151" lon="6.42434">
        <ele>1715.8</ele>
        <time>2022-07-17T09:40:06Z</time>
      </trkpt>
      <trkpt lat="45.11149" lon="6.42434">
        <ele>1716</ele>
        <time>2022-07-17T09:40:07Z</time>
      </trkpt>
      <trkpt lat="45.11147" lon="6.42434">
        <ele>1716.4</ele>
        <time>2022-07-17T09:40:08Z</time>
      </trkpt>
      <trkpt lat="45.11144" lon="6.42434">
        <ele>1716.4</ele>
        <time>2022-07-17T09:40:09Z</time>
      </trkpt>
      <trkpt lat="45.11142" lon="6.42434">
        <ele>1716.6</ele>
        <time>2022-07-17T09:40:10Z</time>
      </trkpt>
      <trkpt lat="45.1114" lon="6.42434">
        <ele>1716.6</ele>
        <time>2022-07-17T09:40:11Z</time>
      </trkpt>
      <trkpt lat="45.11138" lon="6.42434">
        <ele>1716.8</ele>
        <time>2022-07-17T09:40:12Z</time>
      </trkpt>
      <trkpt lat="45.11135" lon="6.42434">
        <ele>1716.8</ele>
        <time>2022-07-17T09:40:13Z</time>
      </trkpt>
      <trkpt lat="45.11133" lon="6.42435">
        <ele>1717</ele>
        <time>2022-07-17T09:40:14Z</time>
      </trkpt>
      <trkpt lat="45.1113" lon="6.42436">
        <ele>1717</ele>
        <time>2022-07-17T09:40:15Z</time>
      </trkpt>
      <trkpt lat="45.11128" lon="6.42436">
        <ele>1717.4</ele>
        <time>2022-07-17T09:40:16Z</time>
      </trkpt>
      <trkpt lat="45.11125" lon="6.42437">
        <ele>1717.4</ele>
        <time>2022-07-17T09:40:17Z</time>
      </trkpt>
      <trkpt lat="45.11123" lon="6.42437">
        <ele>1717.6</ele>
        <time>2022-07-17T09:40:18Z</time>
      </trkpt>
      <trkpt lat="45.11121" lon="6.42438">
        <ele>1717.6</ele>
        <time>2022-07-17T09:40:19Z</time>
      </trkpt>
      <trkpt lat="45.11119" lon="6.42439">
        <ele>1718</ele>
        <time>2022-07-17T09:40:20Z</time>
      </trkpt>
      <trkpt lat="45.11116" lon="6.4244">
        <ele>1718</ele>
        <time>2022-07-17T09:40:21Z</time>
      </trkpt>
      <trkpt lat="45.11114" lon="6.42442">
        <ele>1718.4</ele>
        <time>2022-07-17T09:40:22Z</time>
      </trkpt>
      <trkpt lat="45.11112" lon="6.42443">
        <ele>1718.4</ele>
        <time>2022-07-17T09:40:23Z</time>
      </trkpt>
      <trkpt lat="45.11109" lon="6.42445">
        <ele>1718.8</ele>
        <time>2022-07-17T09:40:24Z</time>
      </trkpt>
      <trkpt lat="45.11107" lon="6.42446">
        <ele>1718.8</ele>
        <time>2022-07-17T09:40:25Z</time>
      </trkpt>
      <trkpt lat="45.11105" lon="6.42448">
        <ele>1719</ele>
        <time>2022-07-17T09:40:26Z</time>
      </trkpt>
      <trkpt lat="45.11102" lon="6.42449">
        <ele>1719</ele>
        <time>2022-07-17T09:40:27Z</time>
      </trkpt>
      <trkpt lat="45.111" lon="6.42451">
        <ele>1719.2</ele>
        <time>2022-07-17T09:40:28Z</time>
      </trkpt>
      <trkpt lat="45.11098" lon="6.42453">
        <ele>1719.2</ele>
        <time>2022-07-17T09:40:29Z</time>
      </trkpt>
      <trkpt lat="45.11096" lon="6.42454">
        <ele>1719.6</ele>
        <time>2022-07-17T09:40:30Z</time>
      </trkpt>
      <trkpt lat="45.11093" lon="6.42456">
        <ele>1719.6</ele>
        <time>2022-07-17T09:40:31Z</time>
      </trkpt>
      <trkpt lat="45.11091" lon="6.42458">
        <ele>1720</ele>
        <time>2022-07-17T09:40:32Z</time>
      </trkpt>
      <trkpt lat="45.11089" lon="6.42459">
        <ele>1720</ele>
        <time>2022-07-17T09:40:33Z</time>
      </trkpt>
      <trkpt lat="45.11086" lon="6.42461">
        <ele>1720.2</ele>
        <time>2022-07-17T09:40:34Z</time>
      </trkpt>
      <trkpt lat="45.11084" lon="6.42463">
        <ele>1720.2</ele>
        <time>2022-07-17T09:40:35Z</time>
      </trkpt>
      <trkpt lat="45.11082" lon="6.42465">
        <ele>1720.6</ele>
        <time>2022-07-17T09:40:36Z</time>
      </trkpt>
      <trkpt lat="45.11079" lon="6.42466">
        <ele>1720.6</ele>
        <time>2022-07-17T09:40:37Z</time>
      </trkpt>
      <trkpt lat="45.11077" lon="6.42468">
        <ele>1720.8</ele>
        <time>2022-07-17T09:40:38Z</time>
      </trkpt>
      <trkpt lat="45.11074" lon="6.4247">
        <ele>1720.8</ele>
        <time>2022-07-17T09:40:39Z</time>
      </trkpt>
      <trkpt lat="45.11072" lon="6.42471">
        <ele>1721.2</ele>
        <time>2022-07-17T09:40:40Z</time>
      </trkpt>
      <trkpt lat="45.11069" lon="6.42473">
        <ele>1721.2</ele>
        <time>2022-07-17T09:40:41Z</time>
      </trkpt>
      <trkpt lat="45.11067" lon="6.42475">
        <ele>1721.4</ele>
        <time>2022-07-17T09:40:42Z</time>
      </trkpt>
      <trkpt lat="45.11064" lon="6.42477">
        <ele>1721.4</ele>
        <time>2022-07-17T09:40:43Z</time>
      </trkpt>
      <trkpt lat="45.11062" lon="6.42479">
        <ele>1721.6</ele>
        <time>2022-07-17T09:40:44Z</time>
      </trkpt>
      <trkpt lat="45.11059" lon="6.42481">
        <ele>1721.6</ele>
        <time>2022-07-17T09:40:45Z</time>
      </trkpt>
      <trkpt lat="45.11057" lon="6.42482">
        <ele>1722</ele>
        <time>2022-07-17T09:40:46Z</time>
      </trkpt>
      <trkpt lat="45.11054" lon="6.42483">
        <ele>1722</ele>
        <time>2022-07-17T09:40:47Z</time>
      </trkpt>
      <trkpt lat="45.11052" lon="6.42485">
        <ele>1722.4</ele>
        <time>2022-07-17T09:40:48Z</time>
      </trkpt>
      <trkpt lat="45.11049" lon="6.42486">
        <ele>1722.4</ele>
        <time>2022-07-17T09:40:49Z</time>
      </trkpt>
      <trkpt lat="45.11047" lon="6.42488">
        <ele>1722.6</ele>
        <time>2022-07-17T09:40:50Z</time>
      </trkpt>
      <trkpt lat="45.11045" lon="6.42489">
        <ele>1722.6</ele>
        <time>2022-07-17T09:40:51Z</time>
      </trkpt>
      <trkpt lat="45.11043" lon="6.42491">
        <ele>1723</ele>
        <time>2022-07-17T09:40:52Z</time>
      </trkpt>
      <trkpt lat="45.1104" lon="6.42492">
        <ele>1723</ele>
        <time>2022-07-17T09:40:53Z</time>
      </trkpt>
      <trkpt lat="45.11038" lon="6.42493">
        <ele>1723.4</ele>
        <time>2022-07-17T09:40:54Z</time>
      </trkpt>
      <trkpt lat="45.11036" lon="6.42495">
        <ele>1723.6</ele>
        <time>2022-07-17T09:40:55Z</time>
      </trkpt>
      <trkpt lat="45.11033" lon="6.42496">
        <ele>1723.6</ele>
        <time>2022-07-17T09:40:56Z</time>
      </trkpt>
      <trkpt lat="45.11031" lon="6.42497">
        <ele>1724</ele>
        <time>2022-07-17T09:40:57Z</time>
      </trkpt>
      <trkpt lat="45.11029" lon="6.42498">
        <ele>1724.2</ele>
        <time>2022-07-17T09:40:58Z</time>
      </trkpt>
      <trkpt lat="45.11027" lon="6.425">
        <ele>1724.4</ele>
        <time>2022-07-17T09:40:59Z</time>
      </trkpt>
      <trkpt lat="45.11025" lon="6.42501">
        <ele>1724.8</ele>
        <time>2022-07-17T09:41:00Z</time>
      </trkpt>
      <trkpt lat="45.11022" lon="6.42502">
        <ele>1725</ele>
        <time>2022-07-17T09:41:01Z</time>
      </trkpt>
      <trkpt lat="45.1102" lon="6.42504">
        <ele>1725.2</ele>
        <time>2022-07-17T09:41:02Z</time>
      </trkpt>
      <trkpt lat="45.11018" lon="6.42505">
        <ele>1725.2</ele>
        <time>2022-07-17T09:41:03Z</time>
      </trkpt>
      <trkpt lat="45.11016" lon="6.42507">
        <ele>1725.6</ele>
        <time>2022-07-17T09:41:04Z</time>
      </trkpt>
      <trkpt lat="45.11013" lon="6.42508">
        <ele>1725.8</ele>
        <time>2022-07-17T09:41:05Z</time>
      </trkpt>
      <trkpt lat="45.11011" lon="6.42509">
        <ele>1726</ele>
        <time>2022-07-17T09:41:06Z</time>
      </trkpt>
      <trkpt lat="45.11009" lon="6.42511">
        <ele>1726.4</ele>
        <time>2022-07-17T09:41:07Z</time>
      </trkpt>
      <trkpt lat="45.11007" lon="6.42512">
        <ele>1726.6</ele>
        <time>2022-07-17T09:41:08Z</time>
      </trkpt>
      <trkpt lat="45.11005" lon="6.42514">
        <ele>1726.8</ele>
        <time>2022-07-17T09:41:09Z</time>
      </trkpt>
      <trkpt lat="45.11003" lon="6.42516">
        <ele>1727</ele>
        <time>2022-07-17T09:41:10Z</time>
      </trkpt>
      <trkpt lat="45.11002" lon="6.42517">
        <ele>1727.2</ele>
        <time>2022-07-17T09:41:11Z</time>
      </trkpt>
      <trkpt lat="45.11" lon="6.42518">
        <ele>1727.4</ele>
        <time>2022-07-17T09:41:12Z</time>
      </trkpt>
      <trkpt lat="45.10998" lon="6.42521">
        <ele>1727.6</ele>
        <time>2022-07-17T09:41:13Z</time>
      </trkpt>
      <trkpt lat="45.10996" lon="6.42523">
        <ele>1727.6</ele>
        <time>2022-07-17T09:41:14Z</time>
      </trkpt>
      <trkpt lat="45.10994" lon="6.42525">
        <ele>1728</ele>
        <time>2022-07-17T09:41:15Z</time>
      </trkpt>
      <trkpt lat="45.10992" lon="6.42526">
        <ele>1728</ele>
        <time>2022-07-17T09:41:16Z</time>
      </trkpt>
      <trkpt lat="45.10989" lon="6.42528">
        <ele>1728.4</ele>
        <time>2022-07-17T09:41:17Z</time>
      </trkpt>
      <trkpt lat="45.10987" lon="6.4253">
        <ele>1728.4</ele>
        <time>2022-07-17T09:41:18Z</time>
      </trkpt>
      <trkpt lat="45.10986" lon="6.42532">
        <ele>1728.8</ele>
        <time>2022-07-17T09:41:19Z</time>
      </trkpt>
      <trkpt lat="45.10984" lon="6.42534">
        <ele>1728.8</ele>
        <time>2022-07-17T09:41:20Z</time>
      </trkpt>
      <trkpt lat="45.10982" lon="6.42537">
        <ele>1729</ele>
        <time>2022-07-17T09:41:21Z</time>
      </trkpt>
      <trkpt lat="45.1098" lon="6.4254">
        <ele>1729</ele>
        <time>2022-07-17T09:41:22Z</time>
      </trkpt>
      <trkpt lat="45.10978" lon="6.42542">
        <ele>1729.4</ele>
        <time>2022-07-17T09:41:23Z</time>
      </trkpt>
      <trkpt lat="45.10976" lon="6.42545">
        <ele>1729.4</ele>
        <time>2022-07-17T09:41:24Z</time>
      </trkpt>
      <trkpt lat="45.10975" lon="6.42547">
        <ele>1729.6</ele>
        <time>2022-07-17T09:41:25Z</time>
      </trkpt>
      <trkpt lat="45.10973" lon="6.4255">
        <ele>1729.6</ele>
        <time>2022-07-17T09:41:26Z</time>
      </trkpt>
      <trkpt lat="45.10971" lon="6.42553">
        <ele>1730</ele>
        <time>2022-07-17T09:41:27Z</time>
      </trkpt>
      <trkpt lat="45.1097" lon="6.42555">
        <ele>1730</ele>
        <time>2022-07-17T09:41:28Z</time>
      </trkpt>
      <trkpt lat="45.10968" lon="6.42557">
        <ele>1730.2</ele>
        <time>2022-07-17T09:41:29Z</time>
      </trkpt>
      <trkpt lat="45.10966" lon="6.4256">
        <ele>1730.2</ele>
        <time>2022-07-17T09:41:30Z</time>
      </trkpt>
      <trkpt lat="45.10965" lon="6.42562">
        <ele>1730.6</ele>
        <time>2022-07-17T09:41:31Z</time>
      </trkpt>
      <trkpt lat="45.10963" lon="6.42565">
        <ele>1730.6</ele>
        <time>2022-07-17T09:41:32Z</time>
      </trkpt>
      <trkpt lat="45.10961" lon="6.42568">
        <ele>1730.8</ele>
        <time>2022-07-17T09:41:33Z</time>
      </trkpt>
      <trkpt lat="45.1096" lon="6.4257">
        <ele>1730.8</ele>
        <time>2022-07-17T09:41:34Z</time>
      </trkpt>
      <trkpt lat="45.10958" lon="6.42573">
        <ele>1731.2</ele>
        <time>2022-07-17T09:41:35Z</time>
      </trkpt>
      <trkpt lat="45.10956" lon="6.42575">
        <ele>1731.2</ele>
        <time>2022-07-17T09:41:36Z</time>
      </trkpt>
      <trkpt lat="45.10955" lon="6.42577">
        <ele>1731.6</ele>
        <time>2022-07-17T09:41:37Z</time>
      </trkpt>
      <trkpt lat="45.10953" lon="6.4258">
        <ele>1731.6</ele>
        <time>2022-07-17T09:41:38Z</time>
      </trkpt>
      <trkpt lat="45.10951" lon="6.42581">
        <ele>1732</ele>
        <time>2022-07-17T09:41:39Z</time>
      </trkpt>
      <trkpt lat="45.1095" lon="6.42584">
        <ele>1732</ele>
        <time>2022-07-17T09:41:40Z</time>
      </trkpt>
      <trkpt lat="45.10948" lon="6.42585">
        <ele>1732.2</ele>
        <time>2022-07-17T09:41:41Z</time>
      </trkpt>
      <trkpt lat="45.10947" lon="6.42587">
        <ele>1732.2</ele>
        <time>2022-07-17T09:41:42Z</time>
      </trkpt>
      <trkpt lat="45.10945" lon="6.42589">
        <ele>1732.6</ele>
        <time>2022-07-17T09:41:43Z</time>
      </trkpt>
      <trkpt lat="45.10943" lon="6.42591">
        <ele>1732.6</ele>
        <time>2022-07-17T09:41:44Z</time>
      </trkpt>
      <trkpt lat="45.10942" lon="6.42593">
        <ele>1733</ele>
        <time>2022-07-17T09:41:45Z</time>
      </trkpt>
      <trkpt lat="45.1094" lon="6.42594">
        <ele>1733</ele>
        <time>2022-07-17T09:41:46Z</time>
      </trkpt>
      <trkpt lat="45.10938" lon="6.42596">
        <ele>1733.2</ele>
        <time>2022-07-17T09:41:47Z</time>
      </trkpt>
      <trkpt lat="45.10936" lon="6.42597">
        <ele>1733.4</ele>
        <time>2022-07-17T09:41:48Z</time>
      </trkpt>
      <trkpt lat="45.10934" lon="6.42599">
        <ele>1733.4</ele>
        <time>2022-07-17T09:41:49Z</time>
      </trkpt>
      <trkpt lat="45.10932" lon="6.426">
        <ele>1733.8</ele>
        <time>2022-07-17T09:41:50Z</time>
      </trkpt>
      <trkpt lat="45.10929" lon="6.42601">
        <ele>1734</ele>
        <time>2022-07-17T09:41:51Z</time>
      </trkpt>
      <trkpt lat="45.10927" lon="6.42601">
        <ele>1734</ele>
        <time>2022-07-17T09:41:52Z</time>
      </trkpt>
      <trkpt lat="45.10924" lon="6.42601">
        <ele>1734.4</ele>
        <time>2022-07-17T09:41:53Z</time>
      </trkpt>
      <trkpt lat="45.10922" lon="6.42601">
        <ele>1734.4</ele>
        <time>2022-07-17T09:41:54Z</time>
      </trkpt>
      <trkpt lat="45.1092" lon="6.426">
        <ele>1734.6</ele>
        <time>2022-07-17T09:41:55Z</time>
      </trkpt>
      <trkpt lat="45.10917" lon="6.426">
        <ele>1734.6</ele>
        <time>2022-07-17T09:41:56Z</time>
      </trkpt>
      <trkpt lat="45.10915" lon="6.42599">
        <ele>1735</ele>
        <time>2022-07-17T09:41:57Z</time>
      </trkpt>
      <trkpt lat="45.10912" lon="6.42598">
        <ele>1735</ele>
        <time>2022-07-17T09:41:58Z</time>
      </trkpt>
      <trkpt lat="45.1091" lon="6.42597">
        <ele>1735.4</ele>
        <time>2022-07-17T09:41:59Z</time>
      </trkpt>
      <trkpt lat="45.10907" lon="6.42596">
        <ele>1735.6</ele>
        <time>2022-07-17T09:42:00Z</time>
      </trkpt>
      <trkpt lat="45.10905" lon="6.42595">
        <ele>1735.6</ele>
        <time>2022-07-17T09:42:01Z</time>
      </trkpt>
      <trkpt lat="45.10903" lon="6.42594">
        <ele>1736</ele>
        <time>2022-07-17T09:42:02Z</time>
      </trkpt>
      <trkpt lat="45.109" lon="6.42593">
        <ele>1736.2</ele>
        <time>2022-07-17T09:42:03Z</time>
      </trkpt>
      <trkpt lat="45.10898" lon="6.42593">
        <ele>1736.4</ele>
        <time>2022-07-17T09:42:04Z</time>
      </trkpt>
      <trkpt lat="45.10895" lon="6.42592">
        <ele>1736.6</ele>
        <time>2022-07-17T09:42:05Z</time>
      </trkpt>
      <trkpt lat="45.10893" lon="6.42591">
        <ele>1736.6</ele>
        <time>2022-07-17T09:42:06Z</time>
      </trkpt>
      <trkpt lat="45.10891" lon="6.4259">
        <ele>1736.8</ele>
        <time>2022-07-17T09:42:07Z</time>
      </trkpt>
      <trkpt lat="45.10889" lon="6.42588">
        <ele>1736.8</ele>
        <time>2022-07-17T09:42:08Z</time>
      </trkpt>
      <trkpt lat="45.10886" lon="6.42587">
        <ele>1737.2</ele>
        <time>2022-07-17T09:42:09Z</time>
      </trkpt>
      <trkpt lat="45.10884" lon="6.42586">
        <ele>1737.2</ele>
        <time>2022-07-17T09:42:10Z</time>
      </trkpt>
      <trkpt lat="45.10882" lon="6.42585">
        <ele>1737.4</ele>
        <time>2022-07-17T09:42:11Z</time>
      </trkpt>
      <trkpt lat="45.1088" lon="6.42584">
        <ele>1737.4</ele>
        <time>2022-07-17T09:42:12Z</time>
      </trkpt>
      <trkpt lat="45.10877" lon="6.42583">
        <ele>1737.8</ele>
        <time>2022-07-17T09:42:13Z</time>
      </trkpt>
      <trkpt lat="45.10875" lon="6.42582">
        <ele>1737.8</ele>
        <time>2022-07-17T09:42:14Z</time>
      </trkpt>
      <trkpt lat="45.10873" lon="6.42581">
        <ele>1738</ele>
        <time>2022-07-17T09:42:15Z</time>
      </trkpt>
      <trkpt lat="45.10871" lon="6.4258">
        <ele>1738</ele>
        <time>2022-07-17T09:42:16Z</time>
      </trkpt>
      <trkpt lat="45.10868" lon="6.42579">
        <ele>1738.4</ele>
        <time>2022-07-17T09:42:17Z</time>
      </trkpt>
      <trkpt lat="45.10866" lon="6.42579">
        <ele>1738.4</ele>
        <time>2022-07-17T09:42:18Z</time>
      </trkpt>
      <trkpt lat="45.10863" lon="6.42578">
        <ele>1738.8</ele>
        <time>2022-07-17T09:42:19Z</time>
      </trkpt>
      <trkpt lat="45.10861" lon="6.42578">
        <ele>1738.8</ele>
        <time>2022-07-17T09:42:20Z</time>
      </trkpt>
      <trkpt lat="45.10859" lon="6.42577">
        <ele>1739</ele>
        <time>2022-07-17T09:42:21Z</time>
      </trkpt>
      <trkpt lat="45.10856" lon="6.42577">
        <ele>1739</ele>
        <time>2022-07-17T09:42:22Z</time>
      </trkpt>
      <trkpt lat="45.10854" lon="6.42576">
        <ele>1739.4</ele>
        <time>2022-07-17T09:42:23Z</time>
      </trkpt>
      <trkpt lat="45.10852" lon="6.42575">
        <ele>1739.6</ele>
        <time>2022-07-17T09:42:24Z</time>
      </trkpt>
      <trkpt lat="45.10849" lon="6.42575">
        <ele>1739.6</ele>
        <time>2022-07-17T09:42:25Z</time>
      </trkpt>
      <trkpt lat="45.10847" lon="6.42574">
        <ele>1740</ele>
        <time>2022-07-17T09:42:26Z</time>
      </trkpt>
      <trkpt lat="45.10844" lon="6.42573">
        <ele>1740</ele>
        <time>2022-07-17T09:42:27Z</time>
      </trkpt>
      <trkpt lat="45.10842" lon="6.42573">
        <ele>1740.4</ele>
        <time>2022-07-17T09:42:28Z</time>
      </trkpt>
      <trkpt lat="45.10839" lon="6.42573">
        <ele>1740.4</ele>
        <time>2022-07-17T09:42:29Z</time>
      </trkpt>
      <trkpt lat="45.10837" lon="6.42572">
        <ele>1740.8</ele>
        <time>2022-07-17T09:42:30Z</time>
      </trkpt>
      <trkpt lat="45.10835" lon="6.42572">
        <ele>1740.8</ele>
        <time>2022-07-17T09:42:31Z</time>
      </trkpt>
      <trkpt lat="45.10832" lon="6.42571">
        <ele>1741</ele>
        <time>2022-07-17T09:42:32Z</time>
      </trkpt>
      <trkpt lat="45.1083" lon="6.42571">
        <ele>1741</ele>
        <time>2022-07-17T09:42:33Z</time>
      </trkpt>
      <trkpt lat="45.10828" lon="6.4257">
        <ele>1741.4</ele>
        <time>2022-07-17T09:42:34Z</time>
      </trkpt>
      <trkpt lat="45.10825" lon="6.4257">
        <ele>1741.4</ele>
        <time>2022-07-17T09:42:35Z</time>
      </trkpt>
      <trkpt lat="45.10823" lon="6.42569">
        <ele>1741.8</ele>
        <time>2022-07-17T09:42:36Z</time>
      </trkpt>
      <trkpt lat="45.1082" lon="6.42568">
        <ele>1741.8</ele>
        <time>2022-07-17T09:42:37Z</time>
      </trkpt>
      <trkpt lat="45.10818" lon="6.42567">
        <ele>1742</ele>
        <time>2022-07-17T09:42:38Z</time>
      </trkpt>
      <trkpt lat="45.10816" lon="6.42566">
        <ele>1742</ele>
        <time>2022-07-17T09:42:39Z</time>
      </trkpt>
      <trkpt lat="45.10813" lon="6.42566">
        <ele>1742.4</ele>
        <time>2022-07-17T09:42:40Z</time>
      </trkpt>
      <trkpt lat="45.10811" lon="6.42565">
        <ele>1742.4</ele>
        <time>2022-07-17T09:42:41Z</time>
      </trkpt>
      <trkpt lat="45.10808" lon="6.42565">
        <ele>1742.6</ele>
        <time>2022-07-17T09:42:42Z</time>
      </trkpt>
      <trkpt lat="45.10806" lon="6.42564">
        <ele>1742.6</ele>
        <time>2022-07-17T09:42:43Z</time>
      </trkpt>
      <trkpt lat="45.10803" lon="6.42563">
        <ele>1743</ele>
        <time>2022-07-17T09:42:44Z</time>
      </trkpt>
      <trkpt lat="45.10801" lon="6.42563">
        <ele>1743</ele>
        <time>2022-07-17T09:42:45Z</time>
      </trkpt>
      <trkpt lat="45.10799" lon="6.42562">
        <ele>1743.4</ele>
        <time>2022-07-17T09:42:46Z</time>
      </trkpt>
      <trkpt lat="45.10797" lon="6.42561">
        <ele>1743.4</ele>
        <time>2022-07-17T09:42:47Z</time>
      </trkpt>
      <trkpt lat="45.10795" lon="6.4256">
        <ele>1743.8</ele>
        <time>2022-07-17T09:42:48Z</time>
      </trkpt>
      <trkpt lat="45.10793" lon="6.42559">
        <ele>1744</ele>
        <time>2022-07-17T09:42:49Z</time>
      </trkpt>
      <trkpt lat="45.1079" lon="6.42559">
        <ele>1744.2</ele>
        <time>2022-07-17T09:42:50Z</time>
      </trkpt>
      <trkpt lat="45.10788" lon="6.42558">
        <ele>1744.4</ele>
        <time>2022-07-17T09:42:51Z</time>
      </trkpt>
      <trkpt lat="45.10786" lon="6.42557">
        <ele>1744.6</ele>
        <time>2022-07-17T09:42:52Z</time>
      </trkpt>
      <trkpt lat="45.10783" lon="6.42557">
        <ele>1744.6</ele>
        <time>2022-07-17T09:42:53Z</time>
      </trkpt>
      <trkpt lat="45.10781" lon="6.42556">
        <ele>1745</ele>
        <time>2022-07-17T09:42:54Z</time>
      </trkpt>
      <trkpt lat="45.10779" lon="6.42555">
        <ele>1745</ele>
        <time>2022-07-17T09:42:55Z</time>
      </trkpt>
      <trkpt lat="45.10776" lon="6.42554">
        <ele>1745.4</ele>
        <time>2022-07-17T09:42:56Z</time>
      </trkpt>
      <trkpt lat="45.10774" lon="6.42554">
        <ele>1745.4</ele>
        <time>2022-07-17T09:42:57Z</time>
      </trkpt>
      <trkpt lat="45.10772" lon="6.42553">
        <ele>1745.6</ele>
        <time>2022-07-17T09:42:58Z</time>
      </trkpt>
      <trkpt lat="45.10769" lon="6.42552">
        <ele>1745.6</ele>
        <time>2022-07-17T09:42:59Z</time>
      </trkpt>
      <trkpt lat="45.10767" lon="6.42552">
        <ele>1745.8</ele>
        <time>2022-07-17T09:43:00Z</time>
      </trkpt>
      <trkpt lat="45.10765" lon="6.42551">
        <ele>1745.8</ele>
        <time>2022-07-17T09:43:01Z</time>
      </trkpt>
      <trkpt lat="45.10762" lon="6.4255">
        <ele>1746</ele>
        <time>2022-07-17T09:43:02Z</time>
      </trkpt>
      <trkpt lat="45.1076" lon="6.42549">
        <ele>1746</ele>
        <time>2022-07-17T09:43:03Z</time>
      </trkpt>
      <trkpt lat="45.10758" lon="6.42548">
        <ele>1746.4</ele>
        <time>2022-07-17T09:43:04Z</time>
      </trkpt>
      <trkpt lat="45.10756" lon="6.42547">
        <ele>1746.4</ele>
        <time>2022-07-17T09:43:05Z</time>
      </trkpt>
      <trkpt lat="45.10753" lon="6.42547">
        <ele>1746.6</ele>
        <time>2022-07-17T09:43:06Z</time>
      </trkpt>
      <trkpt lat="45.10749" lon="6.42546">
        <ele>1746.6</ele>
        <time>2022-07-17T09:43:07Z</time>
      </trkpt>
      <trkpt lat="45.10746" lon="6.42546">
        <ele>1747.2</ele>
        <time>2022-07-17T09:43:08Z</time>
      </trkpt>
      <trkpt lat="45.10744" lon="6.42545">
        <ele>1747.4</ele>
        <time>2022-07-17T09:43:09Z</time>
      </trkpt>
      <trkpt lat="45.10742" lon="6.42545">
        <ele>1747.6</ele>
        <time>2022-07-17T09:43:10Z</time>
      </trkpt>
      <trkpt lat="45.10739" lon="6.42544">
        <ele>1747.6</ele>
        <time>2022-07-17T09:43:11Z</time>
      </trkpt>
      <trkpt lat="45.10737" lon="6.42544">
        <ele>1748</ele>
        <time>2022-07-17T09:43:12Z</time>
      </trkpt>
      <trkpt lat="45.10735" lon="6.42543">
        <ele>1748</ele>
        <time>2022-07-17T09:43:13Z</time>
      </trkpt>
      <trkpt lat="45.10732" lon="6.42542">
        <ele>1748.2</ele>
        <time>2022-07-17T09:43:14Z</time>
      </trkpt>
      <trkpt lat="45.1073" lon="6.42542">
        <ele>1748.2</ele>
        <time>2022-07-17T09:43:15Z</time>
      </trkpt>
      <trkpt lat="45.10728" lon="6.42541">
        <ele>1748.6</ele>
        <time>2022-07-17T09:43:16Z</time>
      </trkpt>
      <trkpt lat="45.10725" lon="6.4254">
        <ele>1748.8</ele>
        <time>2022-07-17T09:43:17Z</time>
      </trkpt>
      <trkpt lat="45.10723" lon="6.4254">
        <ele>1749</ele>
        <time>2022-07-17T09:43:18Z</time>
      </trkpt>
      <trkpt lat="45.1072" lon="6.42539">
        <ele>1749</ele>
        <time>2022-07-17T09:43:19Z</time>
      </trkpt>
      <trkpt lat="45.10718" lon="6.42539">
        <ele>1749.2</ele>
        <time>2022-07-17T09:43:20Z</time>
      </trkpt>
      <trkpt lat="45.10716" lon="6.42538">
        <ele>1749.2</ele>
        <time>2022-07-17T09:43:21Z</time>
      </trkpt>
      <trkpt lat="45.10713" lon="6.42537">
        <ele>1749.6</ele>
        <time>2022-07-17T09:43:22Z</time>
      </trkpt>
      <trkpt lat="45.10711" lon="6.42537">
        <ele>1749.8</ele>
        <time>2022-07-17T09:43:23Z</time>
      </trkpt>
      <trkpt lat="45.10709" lon="6.42537">
        <ele>1749.8</ele>
        <time>2022-07-17T09:43:24Z</time>
      </trkpt>
      <trkpt lat="45.10707" lon="6.42537">
        <ele>1750.4</ele>
        <time>2022-07-17T09:43:25Z</time>
      </trkpt>
      <trkpt lat="45.10704" lon="6.42536">
        <ele>1750.6</ele>
        <time>2022-07-17T09:43:26Z</time>
      </trkpt>
      <trkpt lat="45.10702" lon="6.42536">
        <ele>1750.6</ele>
        <time>2022-07-17T09:43:27Z</time>
      </trkpt>
      <trkpt lat="45.107" lon="6.42535">
        <ele>1751</ele>
        <time>2022-07-17T09:43:28Z</time>
      </trkpt>
      <trkpt lat="45.10697" lon="6.42535">
        <ele>1751</ele>
        <time>2022-07-17T09:43:29Z</time>
      </trkpt>
      <trkpt lat="45.10695" lon="6.42535">
        <ele>1751.4</ele>
        <time>2022-07-17T09:43:30Z</time>
      </trkpt>
      <trkpt lat="45.10693" lon="6.42535">
        <ele>1751.4</ele>
        <time>2022-07-17T09:43:31Z</time>
      </trkpt>
      <trkpt lat="45.10691" lon="6.42535">
        <ele>1751.8</ele>
        <time>2022-07-17T09:43:32Z</time>
      </trkpt>
      <trkpt lat="45.10688" lon="6.42535">
        <ele>1752</ele>
        <time>2022-07-17T09:43:33Z</time>
      </trkpt>
      <trkpt lat="45.10686" lon="6.42535">
        <ele>1752</ele>
        <time>2022-07-17T09:43:34Z</time>
      </trkpt>
      <trkpt lat="45.10684" lon="6.42536">
        <ele>1752.4</ele>
        <time>2022-07-17T09:43:35Z</time>
      </trkpt>
      <trkpt lat="45.10682" lon="6.42536">
        <ele>1752.6</ele>
        <time>2022-07-17T09:43:36Z</time>
      </trkpt>
      <trkpt lat="45.10679" lon="6.42536">
        <ele>1752.6</ele>
        <time>2022-07-17T09:43:37Z</time>
      </trkpt>
      <trkpt lat="45.10677" lon="6.42536">
        <ele>1753</ele>
        <time>2022-07-17T09:43:38Z</time>
      </trkpt>
      <trkpt lat="45.10674" lon="6.42537">
        <ele>1753</ele>
        <time>2022-07-17T09:43:39Z</time>
      </trkpt>
      <trkpt lat="45.10672" lon="6.42537">
        <ele>1753.2</ele>
        <time>2022-07-17T09:43:40Z</time>
      </trkpt>
      <trkpt lat="45.1067" lon="6.42537">
        <ele>1753.2</ele>
        <time>2022-07-17T09:43:41Z</time>
      </trkpt>
      <trkpt lat="45.10667" lon="6.42538">
        <ele>1753.6</ele>
        <time>2022-07-17T09:43:42Z</time>
      </trkpt>
      <trkpt lat="45.10665" lon="6.42538">
        <ele>1753.6</ele>
        <time>2022-07-17T09:43:43Z</time>
      </trkpt>
      <trkpt lat="45.10663" lon="6.42538">
        <ele>1753.8</ele>
        <time>2022-07-17T09:43:45Z</time>
      </trkpt>
      <trkpt lat="45.1066" lon="6.42538">
        <ele>1754.2</ele>
        <time>2022-07-17T09:43:46Z</time>
      </trkpt>
      <trkpt lat="45.10658" lon="6.42539">
        <ele>1754.4</ele>
        <time>2022-07-17T09:43:47Z</time>
      </trkpt>
      <trkpt lat="45.10655" lon="6.42539">
        <ele>1754.6</ele>
        <time>2022-07-17T09:43:48Z</time>
      </trkpt>
      <trkpt lat="45.10653" lon="6.4254">
        <ele>1754.6</ele>
        <time>2022-07-17T09:43:49Z</time>
      </trkpt>
      <trkpt lat="45.10651" lon="6.42541">
        <ele>1755</ele>
        <time>2022-07-17T09:43:50Z</time>
      </trkpt>
      <trkpt lat="45.10648" lon="6.42541">
        <ele>1755.2</ele>
        <time>2022-07-17T09:43:51Z</time>
      </trkpt>
      <trkpt lat="45.10646" lon="6.42542">
        <ele>1755.2</ele>
        <time>2022-07-17T09:43:52Z</time>
      </trkpt>
      <trkpt lat="45.10643" lon="6.42543">
        <ele>1755.6</ele>
        <time>2022-07-17T09:43:53Z</time>
      </trkpt>
      <trkpt lat="45.10641" lon="6.42544">
        <ele>1755.8</ele>
        <time>2022-07-17T09:43:54Z</time>
      </trkpt>
      <trkpt lat="45.10638" lon="6.42544">
        <ele>1755.8</ele>
        <time>2022-07-17T09:43:55Z</time>
      </trkpt>
      <trkpt lat="45.10636" lon="6.42545">
        <ele>1756</ele>
        <time>2022-07-17T09:43:56Z</time>
      </trkpt>
      <trkpt lat="45.10633" lon="6.42546">
        <ele>1756.2</ele>
        <time>2022-07-17T09:43:57Z</time>
      </trkpt>
      <trkpt lat="45.10631" lon="6.42547">
        <ele>1756.2</ele>
        <time>2022-07-17T09:43:58Z</time>
      </trkpt>
      <trkpt lat="45.10629" lon="6.42547">
        <ele>1756.6</ele>
        <time>2022-07-17T09:43:59Z</time>
      </trkpt>
      <trkpt lat="45.10627" lon="6.42548">
        <ele>1756.6</ele>
        <time>2022-07-17T09:44:00Z</time>
      </trkpt>
      <trkpt lat="45.10625" lon="6.42548">
        <ele>1757</ele>
        <time>2022-07-17T09:44:01Z</time>
      </trkpt>
      <trkpt lat="45.10623" lon="6.42549">
        <ele>1757.2</ele>
        <time>2022-07-17T09:44:02Z</time>
      </trkpt>
      <trkpt lat="45.10621" lon="6.4255">
        <ele>1757.2</ele>
        <time>2022-07-17T09:44:03Z</time>
      </trkpt>
      <trkpt lat="45.10619" lon="6.42551">
        <ele>1757.6</ele>
        <time>2022-07-17T09:44:04Z</time>
      </trkpt>
      <trkpt lat="45.10616" lon="6.42552">
        <ele>1757.6</ele>
        <time>2022-07-17T09:44:05Z</time>
      </trkpt>
      <trkpt lat="45.10614" lon="6.42553">
        <ele>1757.8</ele>
        <time>2022-07-17T09:44:06Z</time>
      </trkpt>
      <trkpt lat="45.10612" lon="6.42553">
        <ele>1757.8</ele>
        <time>2022-07-17T09:44:07Z</time>
      </trkpt>
      <trkpt lat="45.10609" lon="6.42554">
        <ele>1758.2</ele>
        <time>2022-07-17T09:44:08Z</time>
      </trkpt>
      <trkpt lat="45.10607" lon="6.42555">
        <ele>1758.4</ele>
        <time>2022-07-17T09:44:09Z</time>
      </trkpt>
      <trkpt lat="45.10605" lon="6.42556">
        <ele>1758.4</ele>
        <time>2022-07-17T09:44:10Z</time>
      </trkpt>
      <trkpt lat="45.10603" lon="6.42557">
        <ele>1758.8</ele>
        <time>2022-07-17T09:44:11Z</time>
      </trkpt>
      <trkpt lat="45.106" lon="6.42558">
        <ele>1758.8</ele>
        <time>2022-07-17T09:44:12Z</time>
      </trkpt>
      <trkpt lat="45.10598" lon="6.42559">
        <ele>1759</ele>
        <time>2022-07-17T09:44:13Z</time>
      </trkpt>
      <trkpt lat="45.10596" lon="6.4256">
        <ele>1759</ele>
        <time>2022-07-17T09:44:14Z</time>
      </trkpt>
      <trkpt lat="45.10594" lon="6.42561">
        <ele>1759.4</ele>
        <time>2022-07-17T09:44:15Z</time>
      </trkpt>
      <trkpt lat="45.10592" lon="6.42562">
        <ele>1759.4</ele>
        <time>2022-07-17T09:44:16Z</time>
      </trkpt>
      <trkpt lat="45.10589" lon="6.42563">
        <ele>1759.6</ele>
        <time>2022-07-17T09:44:17Z</time>
      </trkpt>
      <trkpt lat="45.10587" lon="6.42564">
        <ele>1759.6</ele>
        <time>2022-07-17T09:44:18Z</time>
      </trkpt>
      <trkpt lat="45.10585" lon="6.42566">
        <ele>1760</ele>
        <time>2022-07-17T09:44:19Z</time>
      </trkpt>
      <trkpt lat="45.10582" lon="6.42567">
        <ele>1760</ele>
        <time>2022-07-17T09:44:20Z</time>
      </trkpt>
      <trkpt lat="45.1058" lon="6.42568">
        <ele>1760</ele>
        <time>2022-07-17T09:44:21Z</time>
      </trkpt>
      <trkpt lat="45.10578" lon="6.42568">
        <ele>1760.2</ele>
        <time>2022-07-17T09:44:22Z</time>
      </trkpt>
      <trkpt lat="45.10576" lon="6.42569">
        <ele>1760.2</ele>
        <time>2022-07-17T09:44:23Z</time>
      </trkpt>
      <trkpt lat="45.10573" lon="6.4257">
        <ele>1760.6</ele>
        <time>2022-07-17T09:44:24Z</time>
      </trkpt>
      <trkpt lat="45.10571" lon="6.42571">
        <ele>1760.6</ele>
        <time>2022-07-17T09:44:25Z</time>
      </trkpt>
      <trkpt lat="45.10568" lon="6.42573">
        <ele>1760.8</ele>
        <time>2022-07-17T09:44:26Z</time>
      </trkpt>
      <trkpt lat="45.10566" lon="6.42574">
        <ele>1760.8</ele>
        <time>2022-07-17T09:44:27Z</time>
      </trkpt>
      <trkpt lat="45.10564" lon="6.42575">
        <ele>1761.2</ele>
        <time>2022-07-17T09:44:28Z</time>
      </trkpt>
      <trkpt lat="45.10561" lon="6.42576">
        <ele>1761.2</ele>
        <time>2022-07-17T09:44:29Z</time>
      </trkpt>
      <trkpt lat="45.10559" lon="6.42577">
        <ele>1761.6</ele>
        <time>2022-07-17T09:44:30Z</time>
      </trkpt>
      <trkpt lat="45.10557" lon="6.42579">
        <ele>1761.6</ele>
        <time>2022-07-17T09:44:31Z</time>
      </trkpt>
      <trkpt lat="45.10554" lon="6.42581">
        <ele>1761.8</ele>
        <time>2022-07-17T09:44:32Z</time>
      </trkpt>
      <trkpt lat="45.10552" lon="6.42582">
        <ele>1761.8</ele>
        <time>2022-07-17T09:44:33Z</time>
      </trkpt>
      <trkpt lat="45.1055" lon="6.42584">
        <ele>1762.2</ele>
        <time>2022-07-17T09:44:34Z</time>
      </trkpt>
      <trkpt lat="45.10548" lon="6.42585">
        <ele>1762.2</ele>
        <time>2022-07-17T09:44:35Z</time>
      </trkpt>
      <trkpt lat="45.10545" lon="6.42587">
        <ele>1762.4</ele>
        <time>2022-07-17T09:44:36Z</time>
      </trkpt>
      <trkpt lat="45.10543" lon="6.42588">
        <ele>1762.4</ele>
        <time>2022-07-17T09:44:37Z</time>
      </trkpt>
      <trkpt lat="45.10541" lon="6.4259">
        <ele>1762.8</ele>
        <time>2022-07-17T09:44:38Z</time>
      </trkpt>
      <trkpt lat="45.10539" lon="6.42592">
        <ele>1762.8</ele>
        <time>2022-07-17T09:44:39Z</time>
      </trkpt>
      <trkpt lat="45.10537" lon="6.42593">
        <ele>1763</ele>
        <time>2022-07-17T09:44:40Z</time>
      </trkpt>
      <trkpt lat="45.10535" lon="6.42595">
        <ele>1763</ele>
        <time>2022-07-17T09:44:41Z</time>
      </trkpt>
      <trkpt lat="45.10532" lon="6.42597">
        <ele>1763.4</ele>
        <time>2022-07-17T09:44:42Z</time>
      </trkpt>
      <trkpt lat="45.1053" lon="6.42599">
        <ele>1763.6</ele>
        <time>2022-07-17T09:44:43Z</time>
      </trkpt>
      <trkpt lat="45.10528" lon="6.426">
        <ele>1763.6</ele>
        <time>2022-07-17T09:44:44Z</time>
      </trkpt>
      <trkpt lat="45.10526" lon="6.42602">
        <ele>1763.8</ele>
        <time>2022-07-17T09:44:45Z</time>
      </trkpt>
      <trkpt lat="45.10524" lon="6.42604">
        <ele>1763.8</ele>
        <time>2022-07-17T09:44:46Z</time>
      </trkpt>
      <trkpt lat="45.10522" lon="6.42606">
        <ele>1764.2</ele>
        <time>2022-07-17T09:44:47Z</time>
      </trkpt>
      <trkpt lat="45.1052" lon="6.42607">
        <ele>1764.4</ele>
        <time>2022-07-17T09:44:48Z</time>
      </trkpt>
      <trkpt lat="45.10518" lon="6.42609">
        <ele>1764.6</ele>
        <time>2022-07-17T09:44:49Z</time>
      </trkpt>
      <trkpt lat="45.10516" lon="6.42611">
        <ele>1764.6</ele>
        <time>2022-07-17T09:44:50Z</time>
      </trkpt>
      <trkpt lat="45.10514" lon="6.42612">
        <ele>1765</ele>
        <time>2022-07-17T09:44:51Z</time>
      </trkpt>
      <trkpt lat="45.10512" lon="6.42614">
        <ele>1765</ele>
        <time>2022-07-17T09:44:52Z</time>
      </trkpt>
      <trkpt lat="45.1051" lon="6.42616">
        <ele>1765.2</ele>
        <time>2022-07-17T09:44:53Z</time>
      </trkpt>
      <trkpt lat="45.10508" lon="6.42618">
        <ele>1765.2</ele>
        <time>2022-07-17T09:44:54Z</time>
      </trkpt>
      <trkpt lat="45.10506" lon="6.42619">
        <ele>1765.6</ele>
        <time>2022-07-17T09:44:55Z</time>
      </trkpt>
      <trkpt lat="45.10504" lon="6.42621">
        <ele>1765.8</ele>
        <time>2022-07-17T09:44:56Z</time>
      </trkpt>
      <trkpt lat="45.10502" lon="6.42622">
        <ele>1765.8</ele>
        <time>2022-07-17T09:44:57Z</time>
      </trkpt>
      <trkpt lat="45.105" lon="6.42624">
        <ele>1766</ele>
        <time>2022-07-17T09:44:58Z</time>
      </trkpt>
      <trkpt lat="45.10498" lon="6.42625">
        <ele>1766.2</ele>
        <time>2022-07-17T09:44:59Z</time>
      </trkpt>
      <trkpt lat="45.10496" lon="6.42627">
        <ele>1766.4</ele>
        <time>2022-07-17T09:45:00Z</time>
      </trkpt>
      <trkpt lat="45.10494" lon="6.42629">
        <ele>1766.8</ele>
        <time>2022-07-17T09:45:01Z</time>
      </trkpt>
      <trkpt lat="45.10492" lon="6.4263">
        <ele>1766.8</ele>
        <time>2022-07-17T09:45:02Z</time>
      </trkpt>
      <trkpt lat="45.1049" lon="6.42632">
        <ele>1767</ele>
        <time>2022-07-17T09:45:03Z</time>
      </trkpt>
      <trkpt lat="45.10488" lon="6.42634">
        <ele>1767.2</ele>
        <time>2022-07-17T09:45:04Z</time>
      </trkpt>
      <trkpt lat="45.10486" lon="6.42636">
        <ele>1767.2</ele>
        <time>2022-07-17T09:45:05Z</time>
      </trkpt>
      <trkpt lat="45.10484" lon="6.42637">
        <ele>1767.6</ele>
        <time>2022-07-17T09:45:06Z</time>
      </trkpt>
      <trkpt lat="45.10482" lon="6.42639">
        <ele>1767.6</ele>
        <time>2022-07-17T09:45:07Z</time>
      </trkpt>
      <trkpt lat="45.1048" lon="6.4264">
        <ele>1768</ele>
        <time>2022-07-17T09:45:08Z</time>
      </trkpt>
      <trkpt lat="45.10478" lon="6.42642">
        <ele>1768</ele>
        <time>2022-07-17T09:45:09Z</time>
      </trkpt>
      <trkpt lat="45.10476" lon="6.42644">
        <ele>1768.4</ele>
        <time>2022-07-17T09:45:10Z</time>
      </trkpt>
      <trkpt lat="45.10474" lon="6.42646">
        <ele>1768.4</ele>
        <time>2022-07-17T09:45:11Z</time>
      </trkpt>
      <trkpt lat="45.10472" lon="6.42647">
        <ele>1768.6</ele>
        <time>2022-07-17T09:45:12Z</time>
      </trkpt>
      <trkpt lat="45.1047" lon="6.42649">
        <ele>1769</ele>
        <time>2022-07-17T09:45:13Z</time>
      </trkpt>
      <trkpt lat="45.10468" lon="6.42651">
        <ele>1769.2</ele>
        <time>2022-07-17T09:45:14Z</time>
      </trkpt>
      <trkpt lat="45.10466" lon="6.42653">
        <ele>1769.2</ele>
        <time>2022-07-17T09:45:15Z</time>
      </trkpt>
      <trkpt lat="45.10464" lon="6.42654">
        <ele>1769.4</ele>
        <time>2022-07-17T09:45:16Z</time>
      </trkpt>
      <trkpt lat="45.10462" lon="6.42656">
        <ele>1769.4</ele>
        <time>2022-07-17T09:45:17Z</time>
      </trkpt>
      <trkpt lat="45.1046" lon="6.42657">
        <ele>1769.8</ele>
        <time>2022-07-17T09:45:18Z</time>
      </trkpt>
      <trkpt lat="45.10458" lon="6.42659">
        <ele>1769.8</ele>
        <time>2022-07-17T09:45:19Z</time>
      </trkpt>
      <trkpt lat="45.10456" lon="6.4266">
        <ele>1770.2</ele>
        <time>2022-07-17T09:45:20Z</time>
      </trkpt>
      <trkpt lat="45.10454" lon="6.42662">
        <ele>1770.2</ele>
        <time>2022-07-17T09:45:21Z</time>
      </trkpt>
      <trkpt lat="45.10452" lon="6.42663">
        <ele>1770.6</ele>
        <time>2022-07-17T09:45:22Z</time>
      </trkpt>
      <trkpt lat="45.1045" lon="6.42665">
        <ele>1770.8</ele>
        <time>2022-07-17T09:45:23Z</time>
      </trkpt>
      <trkpt lat="45.10448" lon="6.42666">
        <ele>1771</ele>
        <time>2022-07-17T09:45:24Z</time>
      </trkpt>
      <trkpt lat="45.10446" lon="6.42668">
        <ele>1771.2</ele>
        <time>2022-07-17T09:45:25Z</time>
      </trkpt>
      <trkpt lat="45.10444" lon="6.4267">
        <ele>1771.4</ele>
        <time>2022-07-17T09:45:26Z</time>
      </trkpt>
      <trkpt lat="45.10442" lon="6.42671">
        <ele>1771.6</ele>
        <time>2022-07-17T09:45:27Z</time>
      </trkpt>
      <trkpt lat="45.1044" lon="6.42673">
        <ele>1771.6</ele>
        <time>2022-07-17T09:45:28Z</time>
      </trkpt>
      <trkpt lat="45.10438" lon="6.42675">
        <ele>1772</ele>
        <time>2022-07-17T09:45:29Z</time>
      </trkpt>
      <trkpt lat="45.10437" lon="6.42678">
        <ele>1772.2</ele>
        <time>2022-07-17T09:45:30Z</time>
      </trkpt>
      <trkpt lat="45.10435" lon="6.4268">
        <ele>1772.2</ele>
        <time>2022-07-17T09:45:31Z</time>
      </trkpt>
      <trkpt lat="45.10433" lon="6.42682">
        <ele>1772.8</ele>
        <time>2022-07-17T09:45:32Z</time>
      </trkpt>
      <trkpt lat="45.10432" lon="6.42684">
        <ele>1773.2</ele>
        <time>2022-07-17T09:45:33Z</time>
      </trkpt>
      <trkpt lat="45.10431" lon="6.42686">
        <ele>1773.4</ele>
        <time>2022-07-17T09:45:34Z</time>
      </trkpt>
      <trkpt lat="45.1043" lon="6.42689">
        <ele>1773.6</ele>
        <time>2022-07-17T09:45:35Z</time>
      </trkpt>
      <trkpt lat="45.10428" lon="6.42691">
        <ele>1773.6</ele>
        <time>2022-07-17T09:45:36Z</time>
      </trkpt>
      <trkpt lat="45.10427" lon="6.42694">
        <ele>1774</ele>
        <time>2022-07-17T09:45:37Z</time>
      </trkpt>
      <trkpt lat="45.10426" lon="6.42697">
        <ele>1774</ele>
        <time>2022-07-17T09:45:38Z</time>
      </trkpt>
      <trkpt lat="45.10425" lon="6.42699">
        <ele>1774.2</ele>
        <time>2022-07-17T09:45:39Z</time>
      </trkpt>
      <trkpt lat="45.10424" lon="6.42702">
        <ele>1774.2</ele>
        <time>2022-07-17T09:45:40Z</time>
      </trkpt>
      <trkpt lat="45.10423" lon="6.42705">
        <ele>1774.6</ele>
        <time>2022-07-17T09:45:41Z</time>
      </trkpt>
      <trkpt lat="45.10422" lon="6.42708">
        <ele>1774.8</ele>
        <time>2022-07-17T09:45:42Z</time>
      </trkpt>
      <trkpt lat="45.10421" lon="6.42711">
        <ele>1774.8</ele>
        <time>2022-07-17T09:45:43Z</time>
      </trkpt>
      <trkpt lat="45.1042" lon="6.42714">
        <ele>1775.2</ele>
        <time>2022-07-17T09:45:44Z</time>
      </trkpt>
      <trkpt lat="45.10419" lon="6.42717">
        <ele>1775.2</ele>
        <time>2022-07-17T09:45:45Z</time>
      </trkpt>
      <trkpt lat="45.10419" lon="6.4272">
        <ele>1775.4</ele>
        <time>2022-07-17T09:45:46Z</time>
      </trkpt>
      <trkpt lat="45.10417" lon="6.42723">
        <ele>1775.6</ele>
        <time>2022-07-17T09:45:47Z</time>
      </trkpt>
      <trkpt lat="45.10416" lon="6.42726">
        <ele>1775.6</ele>
        <time>2022-07-17T09:45:48Z</time>
      </trkpt>
      <trkpt lat="45.10415" lon="6.42728">
        <ele>1775.6</ele>
        <time>2022-07-17T09:45:49Z</time>
      </trkpt>
      <trkpt lat="45.10414" lon="6.42731">
        <ele>1776</ele>
        <time>2022-07-17T09:45:50Z</time>
      </trkpt>
      <trkpt lat="45.10412" lon="6.42733">
        <ele>1776</ele>
        <time>2022-07-17T09:45:51Z</time>
      </trkpt>
      <trkpt lat="45.1041" lon="6.42735">
        <ele>1776.2</ele>
        <time>2022-07-17T09:45:52Z</time>
      </trkpt>
      <trkpt lat="45.10408" lon="6.42737">
        <ele>1776.2</ele>
        <time>2022-07-17T09:45:53Z</time>
      </trkpt>
      <trkpt lat="45.10406" lon="6.42739">
        <ele>1776.6</ele>
        <time>2022-07-17T09:45:54Z</time>
      </trkpt>
      <trkpt lat="45.10404" lon="6.4274">
        <ele>1776.6</ele>
        <time>2022-07-17T09:45:55Z</time>
      </trkpt>
      <trkpt lat="45.10403" lon="6.42741">
        <ele>1777</ele>
        <time>2022-07-17T09:45:56Z</time>
      </trkpt>
      <trkpt lat="45.10401" lon="6.42742">
        <ele>1777</ele>
        <time>2022-07-17T09:45:57Z</time>
      </trkpt>
      <trkpt lat="45.10398" lon="6.42743">
        <ele>1777.4</ele>
        <time>2022-07-17T09:45:58Z</time>
      </trkpt>
      <trkpt lat="45.10396" lon="6.42744">
        <ele>1777.6</ele>
        <time>2022-07-17T09:45:59Z</time>
      </trkpt>
      <trkpt lat="45.10394" lon="6.42745">
        <ele>1778</ele>
        <time>2022-07-17T09:46:00Z</time>
      </trkpt>
      <trkpt lat="45.10392" lon="6.42746">
        <ele>1778.4</ele>
        <time>2022-07-17T09:46:01Z</time>
      </trkpt>
      <trkpt lat="45.1039" lon="6.42747">
        <ele>1778.8</ele>
        <time>2022-07-17T09:46:02Z</time>
      </trkpt>
      <trkpt lat="45.10387" lon="6.42748">
        <ele>1779</ele>
        <time>2022-07-17T09:46:03Z</time>
      </trkpt>
      <trkpt lat="45.10385" lon="6.4275">
        <ele>1779</ele>
        <time>2022-07-17T09:46:04Z</time>
      </trkpt>
      <trkpt lat="45.10383" lon="6.42751">
        <ele>1779.4</ele>
        <time>2022-07-17T09:46:05Z</time>
      </trkpt>
      <trkpt lat="45.10381" lon="6.42752">
        <ele>1779.6</ele>
        <time>2022-07-17T09:46:06Z</time>
      </trkpt>
      <trkpt lat="45.10379" lon="6.42753">
        <ele>1780</ele>
        <time>2022-07-17T09:46:07Z</time>
      </trkpt>
      <trkpt lat="45.10377" lon="6.42754">
        <ele>1780.2</ele>
        <time>2022-07-17T09:46:08Z</time>
      </trkpt>
      <trkpt lat="45.10375" lon="6.42756">
        <ele>1780.4</ele>
        <time>2022-07-17T09:46:09Z</time>
      </trkpt>
      <trkpt lat="45.10373" lon="6.42757">
        <ele>1780.4</ele>
        <time>2022-07-17T09:46:10Z</time>
      </trkpt>
      <trkpt lat="45.10371" lon="6.42758">
        <ele>1780.6</ele>
        <time>2022-07-17T09:46:11Z</time>
      </trkpt>
      <trkpt lat="45.10369" lon="6.42759">
        <ele>1780.6</ele>
        <time>2022-07-17T09:46:12Z</time>
      </trkpt>
      <trkpt lat="45.10367" lon="6.4276">
        <ele>1781</ele>
        <time>2022-07-17T09:46:13Z</time>
      </trkpt>
      <trkpt lat="45.10365" lon="6.42761">
        <ele>1781</ele>
        <time>2022-07-17T09:46:14Z</time>
      </trkpt>
      <trkpt lat="45.10363" lon="6.42762">
        <ele>1781.4</ele>
        <time>2022-07-17T09:46:15Z</time>
      </trkpt>
      <trkpt lat="45.10361" lon="6.42763">
        <ele>1781.6</ele>
        <time>2022-07-17T09:46:16Z</time>
      </trkpt>
      <trkpt lat="45.10358" lon="6.42763">
        <ele>1781.8</ele>
        <time>2022-07-17T09:46:17Z</time>
      </trkpt>
      <trkpt lat="45.10356" lon="6.42765">
        <ele>1781.8</ele>
        <time>2022-07-17T09:46:18Z</time>
      </trkpt>
      <trkpt lat="45.10354" lon="6.42766">
        <ele>1782.2</ele>
        <time>2022-07-17T09:46:19Z</time>
      </trkpt>
      <trkpt lat="45.10352" lon="6.42767">
        <ele>1782.2</ele>
        <time>2022-07-17T09:46:20Z</time>
      </trkpt>
      <trkpt lat="45.1035" lon="6.42768">
        <ele>1782.4</ele>
        <time>2022-07-17T09:46:21Z</time>
      </trkpt>
      <trkpt lat="45.10348" lon="6.42768">
        <ele>1782.6</ele>
        <time>2022-07-17T09:46:22Z</time>
      </trkpt>
      <trkpt lat="45.10346" lon="6.4277">
        <ele>1782.6</ele>
        <time>2022-07-17T09:46:23Z</time>
      </trkpt>
      <trkpt lat="45.10344" lon="6.42771">
        <ele>1783</ele>
        <time>2022-07-17T09:46:24Z</time>
      </trkpt>
      <trkpt lat="45.10342" lon="6.42772">
        <ele>1783</ele>
        <time>2022-07-17T09:46:25Z</time>
      </trkpt>
      <trkpt lat="45.10339" lon="6.42772">
        <ele>1783.4</ele>
        <time>2022-07-17T09:46:26Z</time>
      </trkpt>
      <trkpt lat="45.10337" lon="6.42773">
        <ele>1783.4</ele>
        <time>2022-07-17T09:46:27Z</time>
      </trkpt>
      <trkpt lat="45.10336" lon="6.42775">
        <ele>1783.8</ele>
        <time>2022-07-17T09:46:28Z</time>
      </trkpt>
      <trkpt lat="45.10334" lon="6.42776">
        <ele>1784</ele>
        <time>2022-07-17T09:46:29Z</time>
      </trkpt>
      <trkpt lat="45.10332" lon="6.42777">
        <ele>1784</ele>
        <time>2022-07-17T09:46:30Z</time>
      </trkpt>
      <trkpt lat="45.1033" lon="6.42777">
        <ele>1784.4</ele>
        <time>2022-07-17T09:46:31Z</time>
      </trkpt>
      <trkpt lat="45.10328" lon="6.42778">
        <ele>1784.8</ele>
        <time>2022-07-17T09:46:32Z</time>
      </trkpt>
      <trkpt lat="45.10326" lon="6.42779">
        <ele>1784.8</ele>
        <time>2022-07-17T09:46:33Z</time>
      </trkpt>
      <trkpt lat="45.10324" lon="6.4278">
        <ele>1785</ele>
        <time>2022-07-17T09:46:34Z</time>
      </trkpt>
      <trkpt lat="45.10322" lon="6.42781">
        <ele>1785</ele>
        <time>2022-07-17T09:46:35Z</time>
      </trkpt>
      <trkpt lat="45.1032" lon="6.42782">
        <ele>1785.4</ele>
        <time>2022-07-17T09:46:36Z</time>
      </trkpt>
      <trkpt lat="45.10318" lon="6.42783">
        <ele>1785.4</ele>
        <time>2022-07-17T09:46:37Z</time>
      </trkpt>
      <trkpt lat="45.10316" lon="6.42784">
        <ele>1785.8</ele>
        <time>2022-07-17T09:46:38Z</time>
      </trkpt>
      <trkpt lat="45.10314" lon="6.42786">
        <ele>1785.8</ele>
        <time>2022-07-17T09:46:39Z</time>
      </trkpt>
      <trkpt lat="45.10312" lon="6.42787">
        <ele>1786.2</ele>
        <time>2022-07-17T09:46:40Z</time>
      </trkpt>
      <trkpt lat="45.1031" lon="6.42788">
        <ele>1786.2</ele>
        <time>2022-07-17T09:46:41Z</time>
      </trkpt>
      <trkpt lat="45.10308" lon="6.42789">
        <ele>1786.4</ele>
        <time>2022-07-17T09:46:42Z</time>
      </trkpt>
      <trkpt lat="45.10306" lon="6.4279">
        <ele>1786.4</ele>
        <time>2022-07-17T09:46:43Z</time>
      </trkpt>
      <trkpt lat="45.10304" lon="6.42791">
        <ele>1786.8</ele>
        <time>2022-07-17T09:46:44Z</time>
      </trkpt>
      <trkpt lat="45.10303" lon="6.42792">
        <ele>1787</ele>
        <time>2022-07-17T09:46:45Z</time>
      </trkpt>
      <trkpt lat="45.10301" lon="6.42794">
        <ele>1787</ele>
        <time>2022-07-17T09:46:46Z</time>
      </trkpt>
      <trkpt lat="45.10299" lon="6.42796">
        <ele>1787.4</ele>
        <time>2022-07-17T09:46:47Z</time>
      </trkpt>
      <trkpt lat="45.10297" lon="6.42798">
        <ele>1787.4</ele>
        <time>2022-07-17T09:46:48Z</time>
      </trkpt>
      <trkpt lat="45.10295" lon="6.428">
        <ele>1787.6</ele>
        <time>2022-07-17T09:46:49Z</time>
      </trkpt>
      <trkpt lat="45.10294" lon="6.42802">
        <ele>1787.6</ele>
        <time>2022-07-17T09:46:50Z</time>
      </trkpt>
      <trkpt lat="45.10292" lon="6.42804">
        <ele>1787.8</ele>
        <time>2022-07-17T09:46:51Z</time>
      </trkpt>
      <trkpt lat="45.10291" lon="6.42806">
        <ele>1787.8</ele>
        <time>2022-07-17T09:46:52Z</time>
      </trkpt>
      <trkpt lat="45.1029" lon="6.42809">
        <ele>1788.2</ele>
        <time>2022-07-17T09:46:53Z</time>
      </trkpt>
      <trkpt lat="45.10288" lon="6.42811">
        <ele>1788.2</ele>
        <time>2022-07-17T09:46:54Z</time>
      </trkpt>
      <trkpt lat="45.10287" lon="6.42813">
        <ele>1788.4</ele>
        <time>2022-07-17T09:46:55Z</time>
      </trkpt>
      <trkpt lat="45.10286" lon="6.42815">
        <ele>1788.6</ele>
        <time>2022-07-17T09:46:56Z</time>
      </trkpt>
      <trkpt lat="45.10284" lon="6.42817">
        <ele>1788.6</ele>
        <time>2022-07-17T09:46:57Z</time>
      </trkpt>
      <trkpt lat="45.10283" lon="6.4282">
        <ele>1789</ele>
        <time>2022-07-17T09:46:58Z</time>
      </trkpt>
      <trkpt lat="45.10282" lon="6.42822">
        <ele>1789</ele>
        <time>2022-07-17T09:46:59Z</time>
      </trkpt>
      <trkpt lat="45.1028" lon="6.42824">
        <ele>1789.4</ele>
        <time>2022-07-17T09:47:00Z</time>
      </trkpt>
      <trkpt lat="45.10279" lon="6.42826">
        <ele>1789.6</ele>
        <time>2022-07-17T09:47:01Z</time>
      </trkpt>
      <trkpt lat="45.10278" lon="6.42829">
        <ele>1789.6</ele>
        <time>2022-07-17T09:47:02Z</time>
      </trkpt>
      <trkpt lat="45.10277" lon="6.42831">
        <ele>1789.8</ele>
        <time>2022-07-17T09:47:03Z</time>
      </trkpt>
      <trkpt lat="45.10275" lon="6.42833">
        <ele>1789.8</ele>
        <time>2022-07-17T09:47:04Z</time>
      </trkpt>
      <trkpt lat="45.10274" lon="6.42835">
        <ele>1790.2</ele>
        <time>2022-07-17T09:47:05Z</time>
      </trkpt>
      <trkpt lat="45.10273" lon="6.42837">
        <ele>1790.2</ele>
        <time>2022-07-17T09:47:06Z</time>
      </trkpt>
      <trkpt lat="45.10272" lon="6.4284">
        <ele>1790.4</ele>
        <time>2022-07-17T09:47:07Z</time>
      </trkpt>
      <trkpt lat="45.1027" lon="6.42842">
        <ele>1790.4</ele>
        <time>2022-07-17T09:47:08Z</time>
      </trkpt>
      <trkpt lat="45.10269" lon="6.42845">
        <ele>1790.6</ele>
        <time>2022-07-17T09:47:09Z</time>
      </trkpt>
      <trkpt lat="45.10268" lon="6.42847">
        <ele>1790.6</ele>
        <time>2022-07-17T09:47:10Z</time>
      </trkpt>
      <trkpt lat="45.10266" lon="6.42849">
        <ele>1791</ele>
        <time>2022-07-17T09:47:11Z</time>
      </trkpt>
      <trkpt lat="45.10265" lon="6.42851">
        <ele>1791</ele>
        <time>2022-07-17T09:47:12Z</time>
      </trkpt>
      <trkpt lat="45.10264" lon="6.42853">
        <ele>1791.2</ele>
        <time>2022-07-17T09:47:13Z</time>
      </trkpt>
      <trkpt lat="45.10263" lon="6.42855">
        <ele>1791.2</ele>
        <time>2022-07-17T09:47:14Z</time>
      </trkpt>
      <trkpt lat="45.10261" lon="6.42858">
        <ele>1791.6</ele>
        <time>2022-07-17T09:47:15Z</time>
      </trkpt>
      <trkpt lat="45.1026" lon="6.4286">
        <ele>1791.6</ele>
        <time>2022-07-17T09:47:16Z</time>
      </trkpt>
      <trkpt lat="45.10259" lon="6.42862">
        <ele>1791.8</ele>
        <time>2022-07-17T09:47:17Z</time>
      </trkpt>
      <trkpt lat="45.10258" lon="6.42865">
        <ele>1791.8</ele>
        <time>2022-07-17T09:47:18Z</time>
      </trkpt>
      <trkpt lat="45.10256" lon="6.42867">
        <ele>1791.8</ele>
        <time>2022-07-17T09:47:19Z</time>
      </trkpt>
      <trkpt lat="45.10255" lon="6.42869">
        <ele>1792.2</ele>
        <time>2022-07-17T09:47:20Z</time>
      </trkpt>
      <trkpt lat="45.10253" lon="6.42872">
        <ele>1792.2</ele>
        <time>2022-07-17T09:47:21Z</time>
      </trkpt>
      <trkpt lat="45.10252" lon="6.42874">
        <ele>1792.6</ele>
        <time>2022-07-17T09:47:22Z</time>
      </trkpt>
      <trkpt lat="45.1025" lon="6.42876">
        <ele>1792.6</ele>
        <time>2022-07-17T09:47:23Z</time>
      </trkpt>
      <trkpt lat="45.10249" lon="6.42878">
        <ele>1792.8</ele>
        <time>2022-07-17T09:47:24Z</time>
      </trkpt>
      <trkpt lat="45.10247" lon="6.4288">
        <ele>1792.8</ele>
        <time>2022-07-17T09:47:25Z</time>
      </trkpt>
      <trkpt lat="45.10246" lon="6.42882">
        <ele>1793.2</ele>
        <time>2022-07-17T09:47:26Z</time>
      </trkpt>
      <trkpt lat="45.10244" lon="6.42884">
        <ele>1793.2</ele>
        <time>2022-07-17T09:47:27Z</time>
      </trkpt>
      <trkpt lat="45.10242" lon="6.42886">
        <ele>1793.4</ele>
        <time>2022-07-17T09:47:28Z</time>
      </trkpt>
      <trkpt lat="45.1024" lon="6.42888">
        <ele>1793.4</ele>
        <time>2022-07-17T09:47:29Z</time>
      </trkpt>
      <trkpt lat="45.10238" lon="6.4289">
        <ele>1794</ele>
        <time>2022-07-17T09:47:30Z</time>
      </trkpt>
      <trkpt lat="45.10236" lon="6.42891">
        <ele>1794.2</ele>
        <time>2022-07-17T09:47:31Z</time>
      </trkpt>
      <trkpt lat="45.10234" lon="6.42893">
        <ele>1794.2</ele>
        <time>2022-07-17T09:47:32Z</time>
      </trkpt>
      <trkpt lat="45.10232" lon="6.42894">
        <ele>1794.6</ele>
        <time>2022-07-17T09:47:33Z</time>
      </trkpt>
      <trkpt lat="45.1023" lon="6.42895">
        <ele>1794.6</ele>
        <time>2022-07-17T09:47:34Z</time>
      </trkpt>
      <trkpt lat="45.10228" lon="6.42896">
        <ele>1795</ele>
        <time>2022-07-17T09:47:35Z</time>
      </trkpt>
      <trkpt lat="45.10226" lon="6.42897">
        <ele>1795.2</ele>
        <time>2022-07-17T09:47:36Z</time>
      </trkpt>
      <trkpt lat="45.10224" lon="6.42897">
        <ele>1795.2</ele>
        <time>2022-07-17T09:47:37Z</time>
      </trkpt>
      <trkpt lat="45.10222" lon="6.42898">
        <ele>1795.6</ele>
        <time>2022-07-17T09:47:38Z</time>
      </trkpt>
      <trkpt lat="45.1022" lon="6.42898">
        <ele>1795.6</ele>
        <time>2022-07-17T09:47:39Z</time>
      </trkpt>
      <trkpt lat="45.10218" lon="6.42899">
        <ele>1796</ele>
        <time>2022-07-17T09:47:40Z</time>
      </trkpt>
      <trkpt lat="45.10215" lon="6.42899">
        <ele>1796.2</ele>
        <time>2022-07-17T09:47:41Z</time>
      </trkpt>
      <trkpt lat="45.10213" lon="6.429">
        <ele>1796.2</ele>
        <time>2022-07-17T09:47:42Z</time>
      </trkpt>
      <trkpt lat="45.10211" lon="6.42901">
        <ele>1796.6</ele>
        <time>2022-07-17T09:47:43Z</time>
      </trkpt>
      <trkpt lat="45.10209" lon="6.42901">
        <ele>1796.8</ele>
        <time>2022-07-17T09:47:44Z</time>
      </trkpt>
      <trkpt lat="45.10206" lon="6.42901">
        <ele>1796.8</ele>
        <time>2022-07-17T09:47:45Z</time>
      </trkpt>
      <trkpt lat="45.10204" lon="6.42902">
        <ele>1797.2</ele>
        <time>2022-07-17T09:47:46Z</time>
      </trkpt>
      <trkpt lat="45.10202" lon="6.42902">
        <ele>1797.4</ele>
        <time>2022-07-17T09:47:47Z</time>
      </trkpt>
      <trkpt lat="45.10199" lon="6.42903">
        <ele>1797.6</ele>
        <time>2022-07-17T09:47:48Z</time>
      </trkpt>
      <trkpt lat="45.10197" lon="6.42904">
        <ele>1797.8</ele>
        <time>2022-07-17T09:47:49Z</time>
      </trkpt>
      <trkpt lat="45.10195" lon="6.42904">
        <ele>1798</ele>
        <time>2022-07-17T09:47:50Z</time>
      </trkpt>
      <trkpt lat="45.10193" lon="6.42905">
        <ele>1798</ele>
        <time>2022-07-17T09:47:51Z</time>
      </trkpt>
      <trkpt lat="45.10191" lon="6.42906">
        <ele>1798.4</ele>
        <time>2022-07-17T09:47:52Z</time>
      </trkpt>
      <trkpt lat="45.10189" lon="6.42907">
        <ele>1798.6</ele>
        <time>2022-07-17T09:47:53Z</time>
      </trkpt>
      <trkpt lat="45.10187" lon="6.42908">
        <ele>1799</ele>
        <time>2022-07-17T09:47:54Z</time>
      </trkpt>
      <trkpt lat="45.10185" lon="6.4291">
        <ele>1799.2</ele>
        <time>2022-07-17T09:47:55Z</time>
      </trkpt>
      <trkpt lat="45.10182" lon="6.42912">
        <ele>1799.2</ele>
        <time>2022-07-17T09:47:56Z</time>
      </trkpt>
      <trkpt lat="45.10181" lon="6.42913">
        <ele>1799.6</ele>
        <time>2022-07-17T09:47:57Z</time>
      </trkpt>
      <trkpt lat="45.10179" lon="6.42915">
        <ele>1799.6</ele>
        <time>2022-07-17T09:47:58Z</time>
      </trkpt>
      <trkpt lat="45.10177" lon="6.42916">
        <ele>1800</ele>
        <time>2022-07-17T09:47:59Z</time>
      </trkpt>
      <trkpt lat="45.10175" lon="6.42919">
        <ele>1800</ele>
        <time>2022-07-17T09:48:00Z</time>
      </trkpt>
      <trkpt lat="45.10174" lon="6.42921">
        <ele>1800.4</ele>
        <time>2022-07-17T09:48:01Z</time>
      </trkpt>
      <trkpt lat="45.10172" lon="6.42923">
        <ele>1800.6</ele>
        <time>2022-07-17T09:48:02Z</time>
      </trkpt>
      <trkpt lat="45.1017" lon="6.42925">
        <ele>1800.6</ele>
        <time>2022-07-17T09:48:03Z</time>
      </trkpt>
      <trkpt lat="45.10169" lon="6.42927">
        <ele>1801</ele>
        <time>2022-07-17T09:48:04Z</time>
      </trkpt>
      <trkpt lat="45.10167" lon="6.42929">
        <ele>1801</ele>
        <time>2022-07-17T09:48:05Z</time>
      </trkpt>
      <trkpt lat="45.10165" lon="6.42931">
        <ele>1801.2</ele>
        <time>2022-07-17T09:48:06Z</time>
      </trkpt>
      <trkpt lat="45.10163" lon="6.42933">
        <ele>1801.2</ele>
        <time>2022-07-17T09:48:07Z</time>
      </trkpt>
      <trkpt lat="45.10161" lon="6.42934">
        <ele>1801.6</ele>
        <time>2022-07-17T09:48:08Z</time>
      </trkpt>
      <trkpt lat="45.10159" lon="6.42936">
        <ele>1801.6</ele>
        <time>2022-07-17T09:48:09Z</time>
      </trkpt>
      <trkpt lat="45.10157" lon="6.42938">
        <ele>1801.8</ele>
        <time>2022-07-17T09:48:10Z</time>
      </trkpt>
      <trkpt lat="45.10156" lon="6.42939">
        <ele>1801.8</ele>
        <time>2022-07-17T09:48:11Z</time>
      </trkpt>
      <trkpt lat="45.10154" lon="6.42941">
        <ele>1802.2</ele>
        <time>2022-07-17T09:48:12Z</time>
      </trkpt>
      <trkpt lat="45.10152" lon="6.42942">
        <ele>1802.6</ele>
        <time>2022-07-17T09:48:13Z</time>
      </trkpt>
      <trkpt lat="45.1015" lon="6.42943">
        <ele>1802.6</ele>
        <time>2022-07-17T09:48:14Z</time>
      </trkpt>
      <trkpt lat="45.10147" lon="6.42945">
        <ele>1803</ele>
        <time>2022-07-17T09:48:15Z</time>
      </trkpt>
      <trkpt lat="45.10145" lon="6.42946">
        <ele>1803.2</ele>
        <time>2022-07-17T09:48:16Z</time>
      </trkpt>
      <trkpt lat="45.10143" lon="6.42946">
        <ele>1803.4</ele>
        <time>2022-07-17T09:48:17Z</time>
      </trkpt>
      <trkpt lat="45.10141" lon="6.42947">
        <ele>1803.4</ele>
        <time>2022-07-17T09:48:18Z</time>
      </trkpt>
      <trkpt lat="45.10139" lon="6.42948">
        <ele>1803.8</ele>
        <time>2022-07-17T09:48:19Z</time>
      </trkpt>
      <trkpt lat="45.10137" lon="6.42949">
        <ele>1804</ele>
        <time>2022-07-17T09:48:20Z</time>
      </trkpt>
      <trkpt lat="45.10135" lon="6.42949">
        <ele>1804</ele>
        <time>2022-07-17T09:48:21Z</time>
      </trkpt>
      <trkpt lat="45.10133" lon="6.42949">
        <ele>1804.2</ele>
        <time>2022-07-17T09:48:22Z</time>
      </trkpt>
      <trkpt lat="45.10131" lon="6.4295">
        <ele>1804.2</ele>
        <time>2022-07-17T09:48:23Z</time>
      </trkpt>
      <trkpt lat="45.10129" lon="6.4295">
        <ele>1804.6</ele>
        <time>2022-07-17T09:48:24Z</time>
      </trkpt>
      <trkpt lat="45.10127" lon="6.42951">
        <ele>1804.6</ele>
        <time>2022-07-17T09:48:25Z</time>
      </trkpt>
      <trkpt lat="45.10125" lon="6.42951">
        <ele>1805</ele>
        <time>2022-07-17T09:48:26Z</time>
      </trkpt>
      <trkpt lat="45.10123" lon="6.42951">
        <ele>1805.2</ele>
        <time>2022-07-17T09:48:27Z</time>
      </trkpt>
      <trkpt lat="45.10121" lon="6.42952">
        <ele>1805.2</ele>
        <time>2022-07-17T09:48:28Z</time>
      </trkpt>
      <trkpt lat="45.10119" lon="6.42952">
        <ele>1805.6</ele>
        <time>2022-07-17T09:48:29Z</time>
      </trkpt>
      <trkpt lat="45.10117" lon="6.42952">
        <ele>1805.6</ele>
        <time>2022-07-17T09:48:30Z</time>
      </trkpt>
      <trkpt lat="45.10115" lon="6.42953">
        <ele>1806</ele>
        <time>2022-07-17T09:48:31Z</time>
      </trkpt>
      <trkpt lat="45.10113" lon="6.42953">
        <ele>1806.2</ele>
        <time>2022-07-17T09:48:32Z</time>
      </trkpt>
      <trkpt lat="45.10111" lon="6.42954">
        <ele>1806.2</ele>
        <time>2022-07-17T09:48:33Z</time>
      </trkpt>
      <trkpt lat="45.10109" lon="6.42955">
        <ele>1806.6</ele>
        <time>2022-07-17T09:48:34Z</time>
      </trkpt>
      <trkpt lat="45.10106" lon="6.42956">
        <ele>1806.6</ele>
        <time>2022-07-17T09:48:35Z</time>
      </trkpt>
      <trkpt lat="45.10104" lon="6.42956">
        <ele>1807</ele>
        <time>2022-07-17T09:48:36Z</time>
      </trkpt>
      <trkpt lat="45.10102" lon="6.42956">
        <ele>1807</ele>
        <time>2022-07-17T09:48:37Z</time>
      </trkpt>
      <trkpt lat="45.101" lon="6.42956">
        <ele>1807.4</ele>
        <time>2022-07-17T09:48:38Z</time>
      </trkpt>
      <trkpt lat="45.10098" lon="6.42956">
        <ele>1807.4</ele>
        <time>2022-07-17T09:48:39Z</time>
      </trkpt>
      <trkpt lat="45.10096" lon="6.42956">
        <ele>1807.8</ele>
        <time>2022-07-17T09:48:40Z</time>
      </trkpt>
      <trkpt lat="45.10094" lon="6.42955">
        <ele>1808</ele>
        <time>2022-07-17T09:48:41Z</time>
      </trkpt>
      <trkpt lat="45.10092" lon="6.42955">
        <ele>1808.2</ele>
        <time>2022-07-17T09:48:42Z</time>
      </trkpt>
      <trkpt lat="45.1009" lon="6.42954">
        <ele>1808.2</ele>
        <time>2022-07-17T09:48:43Z</time>
      </trkpt>
      <trkpt lat="45.10088" lon="6.42953">
        <ele>1808.6</ele>
        <time>2022-07-17T09:48:44Z</time>
      </trkpt>
      <trkpt lat="45.10086" lon="6.42952">
        <ele>1808.6</ele>
        <time>2022-07-17T09:48:45Z</time>
      </trkpt>
      <trkpt lat="45.10084" lon="6.42951">
        <ele>1808.8</ele>
        <time>2022-07-17T09:48:46Z</time>
      </trkpt>
      <trkpt lat="45.10082" lon="6.42949">
        <ele>1808.8</ele>
        <time>2022-07-17T09:48:47Z</time>
      </trkpt>
      <trkpt lat="45.10081" lon="6.42948">
        <ele>1809.2</ele>
        <time>2022-07-17T09:48:48Z</time>
      </trkpt>
      <trkpt lat="45.10079" lon="6.42946">
        <ele>1809.2</ele>
        <time>2022-07-17T09:48:49Z</time>
      </trkpt>
      <trkpt lat="45.10078" lon="6.42944">
        <ele>1809.6</ele>
        <time>2022-07-17T09:48:50Z</time>
      </trkpt>
      <trkpt lat="45.10077" lon="6.42943">
        <ele>1809.6</ele>
        <time>2022-07-17T09:48:51Z</time>
      </trkpt>
      <trkpt lat="45.10075" lon="6.42941">
        <ele>1810</ele>
        <time>2022-07-17T09:48:52Z</time>
      </trkpt>
      <trkpt lat="45.10074" lon="6.42939">
        <ele>1810.2</ele>
        <time>2022-07-17T09:48:53Z</time>
      </trkpt>
      <trkpt lat="45.10073" lon="6.42938">
        <ele>1810.2</ele>
        <time>2022-07-17T09:48:54Z</time>
      </trkpt>
      <trkpt lat="45.10071" lon="6.42936">
        <ele>1810.6</ele>
        <time>2022-07-17T09:48:55Z</time>
      </trkpt>
      <trkpt lat="45.1007" lon="6.42933">
        <ele>1810.6</ele>
        <time>2022-07-17T09:48:56Z</time>
      </trkpt>
      <trkpt lat="45.10069" lon="6.42931">
        <ele>1810.8</ele>
        <time>2022-07-17T09:48:57Z</time>
      </trkpt>
      <trkpt lat="45.10067" lon="6.42929">
        <ele>1811</ele>
        <time>2022-07-17T09:48:58Z</time>
      </trkpt>
      <trkpt lat="45.10066" lon="6.42927">
        <ele>1811</ele>
        <time>2022-07-17T09:48:59Z</time>
      </trkpt>
      <trkpt lat="45.10064" lon="6.42925">
        <ele>1811.4</ele>
        <time>2022-07-17T09:49:00Z</time>
      </trkpt>
      <trkpt lat="45.10062" lon="6.42923">
        <ele>1811.8</ele>
        <time>2022-07-17T09:49:01Z</time>
      </trkpt>
      <trkpt lat="45.10061" lon="6.42921">
        <ele>1811.8</ele>
        <time>2022-07-17T09:49:02Z</time>
      </trkpt>
      <trkpt lat="45.10059" lon="6.42919">
        <ele>1812</ele>
        <time>2022-07-17T09:49:03Z</time>
      </trkpt>
      <trkpt lat="45.10058" lon="6.42917">
        <ele>1812.2</ele>
        <time>2022-07-17T09:49:04Z</time>
      </trkpt>
      <trkpt lat="45.10056" lon="6.42915">
        <ele>1812.2</ele>
        <time>2022-07-17T09:49:05Z</time>
      </trkpt>
      <trkpt lat="45.10055" lon="6.42912">
        <ele>1812.6</ele>
        <time>2022-07-17T09:49:06Z</time>
      </trkpt>
      <trkpt lat="45.10053" lon="6.42911">
        <ele>1812.8</ele>
        <time>2022-07-17T09:49:07Z</time>
      </trkpt>
      <trkpt lat="45.10052" lon="6.42909">
        <ele>1813</ele>
        <time>2022-07-17T09:49:08Z</time>
      </trkpt>
      <trkpt lat="45.1005" lon="6.42907">
        <ele>1813</ele>
        <time>2022-07-17T09:49:09Z</time>
      </trkpt>
      <trkpt lat="45.10048" lon="6.42905">
        <ele>1813.4</ele>
        <time>2022-07-17T09:49:10Z</time>
      </trkpt>
      <trkpt lat="45.10047" lon="6.42904">
        <ele>1813.6</ele>
        <time>2022-07-17T09:49:11Z</time>
      </trkpt>
      <trkpt lat="45.10045" lon="6.42902">
        <ele>1813.6</ele>
        <time>2022-07-17T09:49:12Z</time>
      </trkpt>
      <trkpt lat="45.10044" lon="6.42901">
        <ele>1813.8</ele>
        <time>2022-07-17T09:49:13Z</time>
      </trkpt>
      <trkpt lat="45.10042" lon="6.42899">
        <ele>1814</ele>
        <time>2022-07-17T09:49:14Z</time>
      </trkpt>
      <trkpt lat="45.1004" lon="6.42897">
        <ele>1814</ele>
        <time>2022-07-17T09:49:15Z</time>
      </trkpt>
      <trkpt lat="45.10039" lon="6.42896">
        <ele>1814.4</ele>
        <time>2022-07-17T09:49:16Z</time>
      </trkpt>
      <trkpt lat="45.10037" lon="6.42894">
        <ele>1814.4</ele>
        <time>2022-07-17T09:49:17Z</time>
      </trkpt>
      <trkpt lat="45.10035" lon="6.42892">
        <ele>1814.6</ele>
        <time>2022-07-17T09:49:18Z</time>
      </trkpt>
      <trkpt lat="45.10034" lon="6.42891">
        <ele>1814.6</ele>
        <time>2022-07-17T09:49:19Z</time>
      </trkpt>
      <trkpt lat="45.10032" lon="6.42889">
        <ele>1815</ele>
        <time>2022-07-17T09:49:20Z</time>
      </trkpt>
      <trkpt lat="45.1003" lon="6.42888">
        <ele>1815</ele>
        <time>2022-07-17T09:49:21Z</time>
      </trkpt>
      <trkpt lat="45.10028" lon="6.42887">
        <ele>1815.2</ele>
        <time>2022-07-17T09:49:22Z</time>
      </trkpt>
      <trkpt lat="45.10026" lon="6.42885">
        <ele>1815.4</ele>
        <time>2022-07-17T09:49:23Z</time>
      </trkpt>
      <trkpt lat="45.10025" lon="6.42884">
        <ele>1815.4</ele>
        <time>2022-07-17T09:49:24Z</time>
      </trkpt>
      <trkpt lat="45.10023" lon="6.42883">
        <ele>1815.8</ele>
        <time>2022-07-17T09:49:25Z</time>
      </trkpt>
      <trkpt lat="45.10021" lon="6.42882">
        <ele>1816</ele>
        <time>2022-07-17T09:49:26Z</time>
      </trkpt>
      <trkpt lat="45.10019" lon="6.42881">
        <ele>1816.2</ele>
        <time>2022-07-17T09:49:27Z</time>
      </trkpt>
      <trkpt lat="45.10017" lon="6.42881">
        <ele>1816.2</ele>
        <time>2022-07-17T09:49:28Z</time>
      </trkpt>
      <trkpt lat="45.10015" lon="6.42881">
        <ele>1816.6</ele>
        <time>2022-07-17T09:49:29Z</time>
      </trkpt>
      <trkpt lat="45.10013" lon="6.42881">
        <ele>1816.6</ele>
        <time>2022-07-17T09:49:30Z</time>
      </trkpt>
      <trkpt lat="45.10011" lon="6.42881">
        <ele>1816.8</ele>
        <time>2022-07-17T09:49:31Z</time>
      </trkpt>
      <trkpt lat="45.10009" lon="6.42881">
        <ele>1816.8</ele>
        <time>2022-07-17T09:49:32Z</time>
      </trkpt>
      <trkpt lat="45.10007" lon="6.42881">
        <ele>1817.2</ele>
        <time>2022-07-17T09:49:33Z</time>
      </trkpt>
      <trkpt lat="45.10005" lon="6.42881">
        <ele>1817.2</ele>
        <time>2022-07-17T09:49:34Z</time>
      </trkpt>
      <trkpt lat="45.10003" lon="6.42882">
        <ele>1817.6</ele>
        <time>2022-07-17T09:49:35Z</time>
      </trkpt>
      <trkpt lat="45.10001" lon="6.42882">
        <ele>1817.6</ele>
        <time>2022-07-17T09:49:36Z</time>
      </trkpt>
      <trkpt lat="45.09999" lon="6.42883">
        <ele>1817.8</ele>
        <time>2022-07-17T09:49:37Z</time>
      </trkpt>
      <trkpt lat="45.09997" lon="6.42884">
        <ele>1818.2</ele>
        <time>2022-07-17T09:49:38Z</time>
      </trkpt>
      <trkpt lat="45.09995" lon="6.42885">
        <ele>1818.2</ele>
        <time>2022-07-17T09:49:39Z</time>
      </trkpt>
      <trkpt lat="45.09993" lon="6.42886">
        <ele>1818.4</ele>
        <time>2022-07-17T09:49:40Z</time>
      </trkpt>
      <trkpt lat="45.09991" lon="6.42886">
        <ele>1818.4</ele>
        <time>2022-07-17T09:49:41Z</time>
      </trkpt>
      <trkpt lat="45.09989" lon="6.42887">
        <ele>1818.8</ele>
        <time>2022-07-17T09:49:42Z</time>
      </trkpt>
      <trkpt lat="45.09987" lon="6.42888">
        <ele>1818.8</ele>
        <time>2022-07-17T09:49:43Z</time>
      </trkpt>
      <trkpt lat="45.09985" lon="6.42889">
        <ele>1819.2</ele>
        <time>2022-07-17T09:49:44Z</time>
      </trkpt>
      <trkpt lat="45.09983" lon="6.4289">
        <ele>1819.2</ele>
        <time>2022-07-17T09:49:45Z</time>
      </trkpt>
      <trkpt lat="45.09981" lon="6.4289">
        <ele>1819.4</ele>
        <time>2022-07-17T09:49:46Z</time>
      </trkpt>
      <trkpt lat="45.0998" lon="6.42891">
        <ele>1819.4</ele>
        <time>2022-07-17T09:49:47Z</time>
      </trkpt>
      <trkpt lat="45.09978" lon="6.42891">
        <ele>1820</ele>
        <time>2022-07-17T09:49:48Z</time>
      </trkpt>
      <trkpt lat="45.09976" lon="6.42892">
        <ele>1820</ele>
        <time>2022-07-17T09:49:49Z</time>
      </trkpt>
      <trkpt lat="45.09974" lon="6.42892">
        <ele>1820.4</ele>
        <time>2022-07-17T09:49:50Z</time>
      </trkpt>
      <trkpt lat="45.09973" lon="6.42893">
        <ele>1820.4</ele>
        <time>2022-07-17T09:49:51Z</time>
      </trkpt>
      <trkpt lat="45.09971" lon="6.42893">
        <ele>1820.8</ele>
        <time>2022-07-17T09:49:52Z</time>
      </trkpt>
      <trkpt lat="45.09969" lon="6.42892">
        <ele>1821</ele>
        <time>2022-07-17T09:49:53Z</time>
      </trkpt>
      <trkpt lat="45.09967" lon="6.42892">
        <ele>1821</ele>
        <time>2022-07-17T09:49:54Z</time>
      </trkpt>
      <trkpt lat="45.09966" lon="6.42892">
        <ele>1821.4</ele>
        <time>2022-07-17T09:49:55Z</time>
      </trkpt>
      <trkpt lat="45.09964" lon="6.42892">
        <ele>1821.4</ele>
        <time>2022-07-17T09:49:56Z</time>
      </trkpt>
      <trkpt lat="45.09962" lon="6.42892">
        <ele>1821.8</ele>
        <time>2022-07-17T09:49:57Z</time>
      </trkpt>
      <trkpt lat="45.0996" lon="6.42892">
        <ele>1821.8</ele>
        <time>2022-07-17T09:49:58Z</time>
      </trkpt>
      <trkpt lat="45.09958" lon="6.42892">
        <ele>1822</ele>
        <time>2022-07-17T09:49:59Z</time>
      </trkpt>
      <trkpt lat="45.09956" lon="6.42892">
        <ele>1822</ele>
        <time>2022-07-17T09:50:00Z</time>
      </trkpt>
      <trkpt lat="45.09954" lon="6.42892">
        <ele>1822.4</ele>
        <time>2022-07-17T09:50:01Z</time>
      </trkpt>
      <trkpt lat="45.09952" lon="6.42892">
        <ele>1822.4</ele>
        <time>2022-07-17T09:50:02Z</time>
      </trkpt>
      <trkpt lat="45.09951" lon="6.42892">
        <ele>1822.6</ele>
        <time>2022-07-17T09:50:03Z</time>
      </trkpt>
      <trkpt lat="45.09949" lon="6.42892">
        <ele>1822.6</ele>
        <time>2022-07-17T09:50:04Z</time>
      </trkpt>
      <trkpt lat="45.09947" lon="6.42892">
        <ele>1823</ele>
        <time>2022-07-17T09:50:05Z</time>
      </trkpt>
      <trkpt lat="45.09945" lon="6.42892">
        <ele>1823</ele>
        <time>2022-07-17T09:50:06Z</time>
      </trkpt>
      <trkpt lat="45.09943" lon="6.42891">
        <ele>1823.4</ele>
        <time>2022-07-17T09:50:07Z</time>
      </trkpt>
      <trkpt lat="45.09941" lon="6.42891">
        <ele>1823.4</ele>
        <time>2022-07-17T09:50:08Z</time>
      </trkpt>
      <trkpt lat="45.09939" lon="6.4289">
        <ele>1823.6</ele>
        <time>2022-07-17T09:50:09Z</time>
      </trkpt>
      <trkpt lat="45.09938" lon="6.4289">
        <ele>1823.6</ele>
        <time>2022-07-17T09:50:10Z</time>
      </trkpt>
      <trkpt lat="45.09936" lon="6.4289">
        <ele>1824</ele>
        <time>2022-07-17T09:50:11Z</time>
      </trkpt>
      <trkpt lat="45.09934" lon="6.4289">
        <ele>1824</ele>
        <time>2022-07-17T09:50:12Z</time>
      </trkpt>
      <trkpt lat="45.09932" lon="6.42891">
        <ele>1824.4</ele>
        <time>2022-07-17T09:50:13Z</time>
      </trkpt>
      <trkpt lat="45.0993" lon="6.42891">
        <ele>1824.4</ele>
        <time>2022-07-17T09:50:14Z</time>
      </trkpt>
      <trkpt lat="45.09928" lon="6.42892">
        <ele>1824.8</ele>
        <time>2022-07-17T09:50:15Z</time>
      </trkpt>
      <trkpt lat="45.09927" lon="6.42892">
        <ele>1825</ele>
        <time>2022-07-17T09:50:16Z</time>
      </trkpt>
      <trkpt lat="45.09925" lon="6.42893">
        <ele>1825</ele>
        <time>2022-07-17T09:50:17Z</time>
      </trkpt>
      <trkpt lat="45.09923" lon="6.42894">
        <ele>1825.2</ele>
        <time>2022-07-17T09:50:18Z</time>
      </trkpt>
      <trkpt lat="45.09921" lon="6.42895">
        <ele>1825.2</ele>
        <time>2022-07-17T09:50:19Z</time>
      </trkpt>
      <trkpt lat="45.09919" lon="6.42896">
        <ele>1825.6</ele>
        <time>2022-07-17T09:50:20Z</time>
      </trkpt>
      <trkpt lat="45.09918" lon="6.42897">
        <ele>1825.8</ele>
        <time>2022-07-17T09:50:21Z</time>
      </trkpt>
      <trkpt lat="45.09916" lon="6.42898">
        <ele>1826</ele>
        <time>2022-07-17T09:50:22Z</time>
      </trkpt>
      <trkpt lat="45.09915" lon="6.42899">
        <ele>1826</ele>
        <time>2022-07-17T09:50:23Z</time>
      </trkpt>
      <trkpt lat="45.09913" lon="6.429">
        <ele>1826.4</ele>
        <time>2022-07-17T09:50:24Z</time>
      </trkpt>
      <trkpt lat="45.09911" lon="6.42901">
        <ele>1826.4</ele>
        <time>2022-07-17T09:50:25Z</time>
      </trkpt>
      <trkpt lat="45.0991" lon="6.42903">
        <ele>1826.6</ele>
        <time>2022-07-17T09:50:26Z</time>
      </trkpt>
      <trkpt lat="45.09908" lon="6.42905">
        <ele>1826.6</ele>
        <time>2022-07-17T09:50:27Z</time>
      </trkpt>
      <trkpt lat="45.09907" lon="6.42906">
        <ele>1826.8</ele>
        <time>2022-07-17T09:50:28Z</time>
      </trkpt>
      <trkpt lat="45.09905" lon="6.42908">
        <ele>1826.8</ele>
        <time>2022-07-17T09:50:29Z</time>
      </trkpt>
      <trkpt lat="45.09904" lon="6.4291">
        <ele>1827.2</ele>
        <time>2022-07-17T09:50:30Z</time>
      </trkpt>
      <trkpt lat="45.09903" lon="6.42912">
        <ele>1827.2</ele>
        <time>2022-07-17T09:50:31Z</time>
      </trkpt>
      <trkpt lat="45.09903" lon="6.42915">
        <ele>1827.4</ele>
        <time>2022-07-17T09:50:32Z</time>
      </trkpt>
      <trkpt lat="45.09901" lon="6.42917">
        <ele>1827.4</ele>
        <time>2022-07-17T09:50:33Z</time>
      </trkpt>
      <trkpt lat="45.099" lon="6.42919">
        <ele>1827.6</ele>
        <time>2022-07-17T09:50:34Z</time>
      </trkpt>
      <trkpt lat="45.09899" lon="6.42921">
        <ele>1827.6</ele>
        <time>2022-07-17T09:50:35Z</time>
      </trkpt>
      <trkpt lat="45.09897" lon="6.42924">
        <ele>1828</ele>
        <time>2022-07-17T09:50:36Z</time>
      </trkpt>
      <trkpt lat="45.09896" lon="6.42925">
        <ele>1828</ele>
        <time>2022-07-17T09:50:37Z</time>
      </trkpt>
      <trkpt lat="45.09895" lon="6.42928">
        <ele>1828</ele>
        <time>2022-07-17T09:50:38Z</time>
      </trkpt>
      <trkpt lat="45.09893" lon="6.4293">
        <ele>1828</ele>
        <time>2022-07-17T09:50:39Z</time>
      </trkpt>
      <trkpt lat="45.09892" lon="6.42933">
        <ele>1828.2</ele>
        <time>2022-07-17T09:50:40Z</time>
      </trkpt>
      <trkpt lat="45.0989" lon="6.42936">
        <ele>1828.2</ele>
        <time>2022-07-17T09:50:41Z</time>
      </trkpt>
      <trkpt lat="45.09889" lon="6.42939">
        <ele>1828.4</ele>
        <time>2022-07-17T09:50:42Z</time>
      </trkpt>
      <trkpt lat="45.09887" lon="6.42941">
        <ele>1828.4</ele>
        <time>2022-07-17T09:50:43Z</time>
      </trkpt>
      <trkpt lat="45.09885" lon="6.42943">
        <ele>1828.8</ele>
        <time>2022-07-17T09:50:44Z</time>
      </trkpt>
      <trkpt lat="45.09883" lon="6.42945">
        <ele>1828.8</ele>
        <time>2022-07-17T09:50:45Z</time>
      </trkpt>
      <trkpt lat="45.09882" lon="6.42947">
        <ele>1829.2</ele>
        <time>2022-07-17T09:50:46Z</time>
      </trkpt>
      <trkpt lat="45.0988" lon="6.42948">
        <ele>1829.2</ele>
        <time>2022-07-17T09:50:47Z</time>
      </trkpt>
      <trkpt lat="45.09879" lon="6.4295">
        <ele>1829.4</ele>
        <time>2022-07-17T09:50:48Z</time>
      </trkpt>
      <trkpt lat="45.09877" lon="6.42951">
        <ele>1829.4</ele>
        <time>2022-07-17T09:50:49Z</time>
      </trkpt>
      <trkpt lat="45.09875" lon="6.42952">
        <ele>1829.8</ele>
        <time>2022-07-17T09:50:50Z</time>
      </trkpt>
      <trkpt lat="45.09873" lon="6.42953">
        <ele>1830</ele>
        <time>2022-07-17T09:50:51Z</time>
      </trkpt>
      <trkpt lat="45.0987" lon="6.42954">
        <ele>1830</ele>
        <time>2022-07-17T09:50:52Z</time>
      </trkpt>
      <trkpt lat="45.09867" lon="6.42957">
        <ele>1830.6</ele>
        <time>2022-07-17T09:50:53Z</time>
      </trkpt>
      <trkpt lat="45.09864" lon="6.42958">
        <ele>1830.8</ele>
        <time>2022-07-17T09:50:54Z</time>
      </trkpt>
      <trkpt lat="45.09862" lon="6.42959">
        <ele>1831</ele>
        <time>2022-07-17T09:50:55Z</time>
      </trkpt>
      <trkpt lat="45.0986" lon="6.4296">
        <ele>1831</ele>
        <time>2022-07-17T09:50:56Z</time>
      </trkpt>
      <trkpt lat="45.09858" lon="6.42961">
        <ele>1831.4</ele>
        <time>2022-07-17T09:50:57Z</time>
      </trkpt>
      <trkpt lat="45.09856" lon="6.42962">
        <ele>1831.6</ele>
        <time>2022-07-17T09:50:58Z</time>
      </trkpt>
      <trkpt lat="45.09854" lon="6.42963">
        <ele>1831.6</ele>
        <time>2022-07-17T09:50:59Z</time>
      </trkpt>
      <trkpt lat="45.09852" lon="6.42964">
        <ele>1831.8</ele>
        <time>2022-07-17T09:51:00Z</time>
      </trkpt>
      <trkpt lat="45.09851" lon="6.42965">
        <ele>1831.8</ele>
        <time>2022-07-17T09:51:01Z</time>
      </trkpt>
      <trkpt lat="45.09849" lon="6.42965">
        <ele>1832.2</ele>
        <time>2022-07-17T09:51:02Z</time>
      </trkpt>
      <trkpt lat="45.09847" lon="6.42966">
        <ele>1832.2</ele>
        <time>2022-07-17T09:51:03Z</time>
      </trkpt>
      <trkpt lat="45.09845" lon="6.42967">
        <ele>1832.6</ele>
        <time>2022-07-17T09:51:04Z</time>
      </trkpt>
      <trkpt lat="45.09843" lon="6.42968">
        <ele>1832.6</ele>
        <time>2022-07-17T09:51:05Z</time>
      </trkpt>
      <trkpt lat="45.09841" lon="6.42968">
        <ele>1832.8</ele>
        <time>2022-07-17T09:51:06Z</time>
      </trkpt>
      <trkpt lat="45.09839" lon="6.42968">
        <ele>1832.8</ele>
        <time>2022-07-17T09:51:07Z</time>
      </trkpt>
      <trkpt lat="45.09838" lon="6.42969">
        <ele>1833</ele>
        <time>2022-07-17T09:51:08Z</time>
      </trkpt>
      <trkpt lat="45.09836" lon="6.4297">
        <ele>1833</ele>
        <time>2022-07-17T09:51:09Z</time>
      </trkpt>
      <trkpt lat="45.09834" lon="6.42971">
        <ele>1833.4</ele>
        <time>2022-07-17T09:51:10Z</time>
      </trkpt>
      <trkpt lat="45.09832" lon="6.42971">
        <ele>1833.4</ele>
        <time>2022-07-17T09:51:11Z</time>
      </trkpt>
      <trkpt lat="45.0983" lon="6.42971">
        <ele>1833.8</ele>
        <time>2022-07-17T09:51:12Z</time>
      </trkpt>
      <trkpt lat="45.09828" lon="6.42972">
        <ele>1834</ele>
        <time>2022-07-17T09:51:13Z</time>
      </trkpt>
      <trkpt lat="45.09826" lon="6.42972">
        <ele>1834.2</ele>
        <time>2022-07-17T09:51:14Z</time>
      </trkpt>
      <trkpt lat="45.09824" lon="6.42972">
        <ele>1834.2</ele>
        <time>2022-07-17T09:51:15Z</time>
      </trkpt>
      <trkpt lat="45.09822" lon="6.42973">
        <ele>1834.4</ele>
        <time>2022-07-17T09:51:16Z</time>
      </trkpt>
      <trkpt lat="45.0982" lon="6.42973">
        <ele>1834.4</ele>
        <time>2022-07-17T09:51:17Z</time>
      </trkpt>
      <trkpt lat="45.09818" lon="6.42974">
        <ele>1834.8</ele>
        <time>2022-07-17T09:51:18Z</time>
      </trkpt>
      <trkpt lat="45.09816" lon="6.42974">
        <ele>1834.8</ele>
        <time>2022-07-17T09:51:19Z</time>
      </trkpt>
      <trkpt lat="45.09814" lon="6.42975">
        <ele>1835</ele>
        <time>2022-07-17T09:51:20Z</time>
      </trkpt>
      <trkpt lat="45.09812" lon="6.42975">
        <ele>1835.2</ele>
        <time>2022-07-17T09:51:21Z</time>
      </trkpt>
      <trkpt lat="45.0981" lon="6.42976">
        <ele>1835.6</ele>
        <time>2022-07-17T09:51:22Z</time>
      </trkpt>
      <trkpt lat="45.09808" lon="6.42976">
        <ele>1835.8</ele>
        <time>2022-07-17T09:51:23Z</time>
      </trkpt>
      <trkpt lat="45.09806" lon="6.42976">
        <ele>1835.8</ele>
        <time>2022-07-17T09:51:24Z</time>
      </trkpt>
      <trkpt lat="45.09804" lon="6.42977">
        <ele>1836.2</ele>
        <time>2022-07-17T09:51:25Z</time>
      </trkpt>
      <trkpt lat="45.09802" lon="6.42978">
        <ele>1836.2</ele>
        <time>2022-07-17T09:51:26Z</time>
      </trkpt>
      <trkpt lat="45.098" lon="6.42978">
        <ele>1836.4</ele>
        <time>2022-07-17T09:51:27Z</time>
      </trkpt>
      <trkpt lat="45.09798" lon="6.42979">
        <ele>1836.4</ele>
        <time>2022-07-17T09:51:28Z</time>
      </trkpt>
      <trkpt lat="45.09796" lon="6.42979">
        <ele>1836.8</ele>
        <time>2022-07-17T09:51:29Z</time>
      </trkpt>
      <trkpt lat="45.09794" lon="6.4298">
        <ele>1837.2</ele>
        <time>2022-07-17T09:51:30Z</time>
      </trkpt>
      <trkpt lat="45.09792" lon="6.42981">
        <ele>1837.4</ele>
        <time>2022-07-17T09:51:31Z</time>
      </trkpt>
      <trkpt lat="45.0979" lon="6.42981">
        <ele>1837.6</ele>
        <time>2022-07-17T09:51:32Z</time>
      </trkpt>
      <trkpt lat="45.09788" lon="6.42981">
        <ele>1837.6</ele>
        <time>2022-07-17T09:51:33Z</time>
      </trkpt>
      <trkpt lat="45.09786" lon="6.42982">
        <ele>1838</ele>
        <time>2022-07-17T09:51:34Z</time>
      </trkpt>
      <trkpt lat="45.09784" lon="6.42982">
        <ele>1838</ele>
        <time>2022-07-17T09:51:35Z</time>
      </trkpt>
      <trkpt lat="45.09782" lon="6.42983">
        <ele>1838.4</ele>
        <time>2022-07-17T09:51:36Z</time>
      </trkpt>
      <trkpt lat="45.0978" lon="6.42984">
        <ele>1838.6</ele>
        <time>2022-07-17T09:51:37Z</time>
      </trkpt>
      <trkpt lat="45.09778" lon="6.42985">
        <ele>1839</ele>
        <time>2022-07-17T09:51:39Z</time>
      </trkpt>
      <trkpt lat="45.09776" lon="6.42985">
        <ele>1839</ele>
        <time>2022-07-17T09:51:40Z</time>
      </trkpt>
      <trkpt lat="45.09774" lon="6.42986">
        <ele>1839.6</ele>
        <time>2022-07-17T09:51:41Z</time>
      </trkpt>
      <trkpt lat="45.09772" lon="6.42986">
        <ele>1839.8</ele>
        <time>2022-07-17T09:51:42Z</time>
      </trkpt>
      <trkpt lat="45.0977" lon="6.42987">
        <ele>1839.8</ele>
        <time>2022-07-17T09:51:43Z</time>
      </trkpt>
      <trkpt lat="45.09767" lon="6.42988">
        <ele>1840.2</ele>
        <time>2022-07-17T09:51:44Z</time>
      </trkpt>
      <trkpt lat="45.09765" lon="6.42989">
        <ele>1840.2</ele>
        <time>2022-07-17T09:51:45Z</time>
      </trkpt>
      <trkpt lat="45.09763" lon="6.42991">
        <ele>1840.6</ele>
        <time>2022-07-17T09:51:46Z</time>
      </trkpt>
      <trkpt lat="45.09761" lon="6.42991">
        <ele>1840.8</ele>
        <time>2022-07-17T09:51:47Z</time>
      </trkpt>
      <trkpt lat="45.0976" lon="6.42992">
        <ele>1841</ele>
        <time>2022-07-17T09:51:48Z</time>
      </trkpt>
      <trkpt lat="45.09758" lon="6.42992">
        <ele>1841</ele>
        <time>2022-07-17T09:51:49Z</time>
      </trkpt>
      <trkpt lat="45.09756" lon="6.42993">
        <ele>1841.2</ele>
        <time>2022-07-17T09:51:50Z</time>
      </trkpt>
      <trkpt lat="45.09754" lon="6.42994">
        <ele>1841.2</ele>
        <time>2022-07-17T09:51:51Z</time>
      </trkpt>
      <trkpt lat="45.09752" lon="6.42994">
        <ele>1841.6</ele>
        <time>2022-07-17T09:51:52Z</time>
      </trkpt>
      <trkpt lat="45.0975" lon="6.42995">
        <ele>1841.6</ele>
        <time>2022-07-17T09:51:53Z</time>
      </trkpt>
      <trkpt lat="45.09748" lon="6.42996">
        <ele>1841.8</ele>
        <time>2022-07-17T09:51:54Z</time>
      </trkpt>
      <trkpt lat="45.09746" lon="6.42996">
        <ele>1841.8</ele>
        <time>2022-07-17T09:51:55Z</time>
      </trkpt>
      <trkpt lat="45.09744" lon="6.42997">
        <ele>1842.2</ele>
        <time>2022-07-17T09:51:56Z</time>
      </trkpt>
      <trkpt lat="45.09742" lon="6.42998">
        <ele>1842.4</ele>
        <time>2022-07-17T09:51:57Z</time>
      </trkpt>
      <trkpt lat="45.0974" lon="6.42998">
        <ele>1842.6</ele>
        <time>2022-07-17T09:51:58Z</time>
      </trkpt>
      <trkpt lat="45.09738" lon="6.42999">
        <ele>1842.8</ele>
        <time>2022-07-17T09:51:59Z</time>
      </trkpt>
      <trkpt lat="45.09736" lon="6.43">
        <ele>1843</ele>
        <time>2022-07-17T09:52:00Z</time>
      </trkpt>
      <trkpt lat="45.09734" lon="6.43001">
        <ele>1843</ele>
        <time>2022-07-17T09:52:01Z</time>
      </trkpt>
      <trkpt lat="45.09732" lon="6.43002">
        <ele>1843.4</ele>
        <time>2022-07-17T09:52:02Z</time>
      </trkpt>
      <trkpt lat="45.0973" lon="6.43002">
        <ele>1843.6</ele>
        <time>2022-07-17T09:52:03Z</time>
      </trkpt>
      <trkpt lat="45.09729" lon="6.43003">
        <ele>1844</ele>
        <time>2022-07-17T09:52:04Z</time>
      </trkpt>
      <trkpt lat="45.09727" lon="6.43005">
        <ele>1844.2</ele>
        <time>2022-07-17T09:52:05Z</time>
      </trkpt>
      <trkpt lat="45.09725" lon="6.43006">
        <ele>1844.2</ele>
        <time>2022-07-17T09:52:06Z</time>
      </trkpt>
      <trkpt lat="45.09723" lon="6.43007">
        <ele>1844.6</ele>
        <time>2022-07-17T09:52:07Z</time>
      </trkpt>
      <trkpt lat="45.09721" lon="6.43008">
        <ele>1844.6</ele>
        <time>2022-07-17T09:52:08Z</time>
      </trkpt>
      <trkpt lat="45.09719" lon="6.4301">
        <ele>1844.8</ele>
        <time>2022-07-17T09:52:09Z</time>
      </trkpt>
      <trkpt lat="45.09717" lon="6.43011">
        <ele>1844.8</ele>
        <time>2022-07-17T09:52:10Z</time>
      </trkpt>
      <trkpt lat="45.09716" lon="6.43013">
        <ele>1845.2</ele>
        <time>2022-07-17T09:52:11Z</time>
      </trkpt>
      <trkpt lat="45.09714" lon="6.43014">
        <ele>1845.2</ele>
        <time>2022-07-17T09:52:12Z</time>
      </trkpt>
      <trkpt lat="45.09712" lon="6.43016">
        <ele>1845.4</ele>
        <time>2022-07-17T09:52:13Z</time>
      </trkpt>
      <trkpt lat="45.09711" lon="6.43018">
        <ele>1845.4</ele>
        <time>2022-07-17T09:52:14Z</time>
      </trkpt>
      <trkpt lat="45.09709" lon="6.4302">
        <ele>1845.6</ele>
        <time>2022-07-17T09:52:15Z</time>
      </trkpt>
      <trkpt lat="45.09707" lon="6.43021">
        <ele>1845.6</ele>
        <time>2022-07-17T09:52:16Z</time>
      </trkpt>
      <trkpt lat="45.09706" lon="6.43023">
        <ele>1845.8</ele>
        <time>2022-07-17T09:52:17Z</time>
      </trkpt>
      <trkpt lat="45.09704" lon="6.43025">
        <ele>1845.8</ele>
        <time>2022-07-17T09:52:18Z</time>
      </trkpt>
      <trkpt lat="45.09703" lon="6.43026">
        <ele>1846.2</ele>
        <time>2022-07-17T09:52:19Z</time>
      </trkpt>
      <trkpt lat="45.09701" lon="6.43028">
        <ele>1846.2</ele>
        <time>2022-07-17T09:52:20Z</time>
      </trkpt>
      <trkpt lat="45.097" lon="6.4303">
        <ele>1846.6</ele>
        <time>2022-07-17T09:52:21Z</time>
      </trkpt>
      <trkpt lat="45.09698" lon="6.43032">
        <ele>1846.6</ele>
        <time>2022-07-17T09:52:22Z</time>
      </trkpt>
      <trkpt lat="45.09696" lon="6.43034">
        <ele>1846.8</ele>
        <time>2022-07-17T09:52:23Z</time>
      </trkpt>
      <trkpt lat="45.09695" lon="6.43035">
        <ele>1846.8</ele>
        <time>2022-07-17T09:52:24Z</time>
      </trkpt>
      <trkpt lat="45.09693" lon="6.43037">
        <ele>1847.2</ele>
        <time>2022-07-17T09:52:25Z</time>
      </trkpt>
      <trkpt lat="45.09691" lon="6.43039">
        <ele>1847.2</ele>
        <time>2022-07-17T09:52:26Z</time>
      </trkpt>
      <trkpt lat="45.0969" lon="6.43041">
        <ele>1847.4</ele>
        <time>2022-07-17T09:52:27Z</time>
      </trkpt>
      <trkpt lat="45.09688" lon="6.43042">
        <ele>1847.4</ele>
        <time>2022-07-17T09:52:28Z</time>
      </trkpt>
      <trkpt lat="45.09686" lon="6.43043">
        <ele>1847.8</ele>
        <time>2022-07-17T09:52:29Z</time>
      </trkpt>
      <trkpt lat="45.09685" lon="6.43044">
        <ele>1848</ele>
        <time>2022-07-17T09:52:30Z</time>
      </trkpt>
      <trkpt lat="45.09683" lon="6.43046">
        <ele>1848.4</ele>
        <time>2022-07-17T09:52:31Z</time>
      </trkpt>
      <trkpt lat="45.09681" lon="6.43047">
        <ele>1848.4</ele>
        <time>2022-07-17T09:52:32Z</time>
      </trkpt>
      <trkpt lat="45.09679" lon="6.43047">
        <ele>1848.6</ele>
        <time>2022-07-17T09:52:33Z</time>
      </trkpt>
      <trkpt lat="45.09677" lon="6.43048">
        <ele>1849</ele>
        <time>2022-07-17T09:52:34Z</time>
      </trkpt>
      <trkpt lat="45.09675" lon="6.43049">
        <ele>1849.2</ele>
        <time>2022-07-17T09:52:35Z</time>
      </trkpt>
      <trkpt lat="45.09674" lon="6.4305">
        <ele>1849.4</ele>
        <time>2022-07-17T09:52:36Z</time>
      </trkpt>
      <trkpt lat="45.09672" lon="6.43051">
        <ele>1849.4</ele>
        <time>2022-07-17T09:52:37Z</time>
      </trkpt>
      <trkpt lat="45.0967" lon="6.43051">
        <ele>1849.8</ele>
        <time>2022-07-17T09:52:38Z</time>
      </trkpt>
      <trkpt lat="45.09668" lon="6.43052">
        <ele>1850</ele>
        <time>2022-07-17T09:52:39Z</time>
      </trkpt>
      <trkpt lat="45.09666" lon="6.43052">
        <ele>1850</ele>
        <time>2022-07-17T09:52:40Z</time>
      </trkpt>
      <trkpt lat="45.09664" lon="6.43052">
        <ele>1850.2</ele>
        <time>2022-07-17T09:52:41Z</time>
      </trkpt>
      <trkpt lat="45.09662" lon="6.43052">
        <ele>1850.2</ele>
        <time>2022-07-17T09:52:42Z</time>
      </trkpt>
      <trkpt lat="45.0966" lon="6.43052">
        <ele>1850.6</ele>
        <time>2022-07-17T09:52:43Z</time>
      </trkpt>
      <trkpt lat="45.09658" lon="6.43052">
        <ele>1850.8</ele>
        <time>2022-07-17T09:52:44Z</time>
      </trkpt>
      <trkpt lat="45.09656" lon="6.43052">
        <ele>1851</ele>
        <time>2022-07-17T09:52:45Z</time>
      </trkpt>
      <trkpt lat="45.09654" lon="6.43052">
        <ele>1851</ele>
        <time>2022-07-17T09:52:46Z</time>
      </trkpt>
      <trkpt lat="45.09652" lon="6.43052">
        <ele>1851.4</ele>
        <time>2022-07-17T09:52:47Z</time>
      </trkpt>
      <trkpt lat="45.0965" lon="6.43052">
        <ele>1851.4</ele>
        <time>2022-07-17T09:52:48Z</time>
      </trkpt>
      <trkpt lat="45.09648" lon="6.43053">
        <ele>1851.8</ele>
        <time>2022-07-17T09:52:49Z</time>
      </trkpt>
      <trkpt lat="45.09646" lon="6.43053">
        <ele>1851.8</ele>
        <time>2022-07-17T09:52:50Z</time>
      </trkpt>
      <trkpt lat="45.09643" lon="6.43052">
        <ele>1852</ele>
        <time>2022-07-17T09:52:51Z</time>
      </trkpt>
      <trkpt lat="45.09642" lon="6.43052">
        <ele>1852</ele>
        <time>2022-07-17T09:52:52Z</time>
      </trkpt>
      <trkpt lat="45.0964" lon="6.43052">
        <ele>1852.4</ele>
        <time>2022-07-17T09:52:53Z</time>
      </trkpt>
      <trkpt lat="45.09638" lon="6.43052">
        <ele>1852.4</ele>
        <time>2022-07-17T09:52:54Z</time>
      </trkpt>
      <trkpt lat="45.09636" lon="6.43051">
        <ele>1852.6</ele>
        <time>2022-07-17T09:52:55Z</time>
      </trkpt>
      <trkpt lat="45.09634" lon="6.43051">
        <ele>1852.6</ele>
        <time>2022-07-17T09:52:56Z</time>
      </trkpt>
      <trkpt lat="45.09632" lon="6.43051">
        <ele>1853</ele>
        <time>2022-07-17T09:52:57Z</time>
      </trkpt>
      <trkpt lat="45.0963" lon="6.4305">
        <ele>1853</ele>
        <time>2022-07-17T09:52:58Z</time>
      </trkpt>
      <trkpt lat="45.09628" lon="6.4305">
        <ele>1853.2</ele>
        <time>2022-07-17T09:52:59Z</time>
      </trkpt>
      <trkpt lat="45.09626" lon="6.4305">
        <ele>1853.2</ele>
        <time>2022-07-17T09:53:00Z</time>
      </trkpt>
      <trkpt lat="45.09624" lon="6.4305">
        <ele>1853.6</ele>
        <time>2022-07-17T09:53:01Z</time>
      </trkpt>
      <trkpt lat="45.09622" lon="6.4305">
        <ele>1853.8</ele>
        <time>2022-07-17T09:53:02Z</time>
      </trkpt>
      <trkpt lat="45.0962" lon="6.4305">
        <ele>1853.8</ele>
        <time>2022-07-17T09:53:03Z</time>
      </trkpt>
      <trkpt lat="45.09618" lon="6.4305">
        <ele>1854.2</ele>
        <time>2022-07-17T09:53:04Z</time>
      </trkpt>
      <trkpt lat="45.09617" lon="6.4305">
        <ele>1854.2</ele>
        <time>2022-07-17T09:53:05Z</time>
      </trkpt>
      <trkpt lat="45.09615" lon="6.43049">
        <ele>1854.4</ele>
        <time>2022-07-17T09:53:06Z</time>
      </trkpt>
      <trkpt lat="45.09613" lon="6.4305">
        <ele>1854.4</ele>
        <time>2022-07-17T09:53:07Z</time>
      </trkpt>
      <trkpt lat="45.09611" lon="6.43049">
        <ele>1854.8</ele>
        <time>2022-07-17T09:53:08Z</time>
      </trkpt>
      <trkpt lat="45.09609" lon="6.43049">
        <ele>1854.8</ele>
        <time>2022-07-17T09:53:09Z</time>
      </trkpt>
      <trkpt lat="45.09608" lon="6.43049">
        <ele>1855.2</ele>
        <time>2022-07-17T09:53:10Z</time>
      </trkpt>
      <trkpt lat="45.09606" lon="6.43049">
        <ele>1855.2</ele>
        <time>2022-07-17T09:53:11Z</time>
      </trkpt>
      <trkpt lat="45.09604" lon="6.4305">
        <ele>1855.4</ele>
        <time>2022-07-17T09:53:12Z</time>
      </trkpt>
      <trkpt lat="45.09602" lon="6.43049">
        <ele>1855.4</ele>
        <time>2022-07-17T09:53:13Z</time>
      </trkpt>
      <trkpt lat="45.096" lon="6.43049">
        <ele>1855.8</ele>
        <time>2022-07-17T09:53:14Z</time>
      </trkpt>
      <trkpt lat="45.09598" lon="6.43049">
        <ele>1855.8</ele>
        <time>2022-07-17T09:53:15Z</time>
      </trkpt>
      <trkpt lat="45.09596" lon="6.43049">
        <ele>1856.2</ele>
        <time>2022-07-17T09:53:16Z</time>
      </trkpt>
      <trkpt lat="45.09594" lon="6.43049">
        <ele>1856.4</ele>
        <time>2022-07-17T09:53:17Z</time>
      </trkpt>
      <trkpt lat="45.09592" lon="6.43049">
        <ele>1856.6</ele>
        <time>2022-07-17T09:53:18Z</time>
      </trkpt>
      <trkpt lat="45.0959" lon="6.43048">
        <ele>1856.6</ele>
        <time>2022-07-17T09:53:19Z</time>
      </trkpt>
      <trkpt lat="45.09588" lon="6.43048">
        <ele>1857</ele>
        <time>2022-07-17T09:53:20Z</time>
      </trkpt>
      <trkpt lat="45.09586" lon="6.43048">
        <ele>1857</ele>
        <time>2022-07-17T09:53:21Z</time>
      </trkpt>
      <trkpt lat="45.09584" lon="6.43048">
        <ele>1857.2</ele>
        <time>2022-07-17T09:53:22Z</time>
      </trkpt>
      <trkpt lat="45.09583" lon="6.43048">
        <ele>1857.2</ele>
        <time>2022-07-17T09:53:23Z</time>
      </trkpt>
      <trkpt lat="45.09581" lon="6.43048">
        <ele>1857.6</ele>
        <time>2022-07-17T09:53:24Z</time>
      </trkpt>
      <trkpt lat="45.09578" lon="6.43048">
        <ele>1857.6</ele>
        <time>2022-07-17T09:53:25Z</time>
      </trkpt>
      <trkpt lat="45.09577" lon="6.43048">
        <ele>1857.8</ele>
        <time>2022-07-17T09:53:26Z</time>
      </trkpt>
      <trkpt lat="45.09574" lon="6.43048">
        <ele>1858</ele>
        <time>2022-07-17T09:53:27Z</time>
      </trkpt>
      <trkpt lat="45.09573" lon="6.43048">
        <ele>1858</ele>
        <time>2022-07-17T09:53:28Z</time>
      </trkpt>
      <trkpt lat="45.09571" lon="6.43047">
        <ele>1858.4</ele>
        <time>2022-07-17T09:53:29Z</time>
      </trkpt>
      <trkpt lat="45.09569" lon="6.43047">
        <ele>1858.4</ele>
        <time>2022-07-17T09:53:30Z</time>
      </trkpt>
      <trkpt lat="45.09567" lon="6.43048">
        <ele>1858.8</ele>
        <time>2022-07-17T09:53:31Z</time>
      </trkpt>
      <trkpt lat="45.09565" lon="6.43048">
        <ele>1859</ele>
        <time>2022-07-17T09:53:32Z</time>
      </trkpt>
      <trkpt lat="45.09563" lon="6.43048">
        <ele>1859</ele>
        <time>2022-07-17T09:53:33Z</time>
      </trkpt>
      <trkpt lat="45.09561" lon="6.43049">
        <ele>1859.4</ele>
        <time>2022-07-17T09:53:34Z</time>
      </trkpt>
      <trkpt lat="45.0956" lon="6.4305">
        <ele>1859.4</ele>
        <time>2022-07-17T09:53:35Z</time>
      </trkpt>
      <trkpt lat="45.09558" lon="6.43051">
        <ele>1859.8</ele>
        <time>2022-07-17T09:53:36Z</time>
      </trkpt>
      <trkpt lat="45.09556" lon="6.43051">
        <ele>1859.8</ele>
        <time>2022-07-17T09:53:37Z</time>
      </trkpt>
      <trkpt lat="45.09554" lon="6.43051">
        <ele>1860.2</ele>
        <time>2022-07-17T09:53:38Z</time>
      </trkpt>
      <trkpt lat="45.09552" lon="6.43051">
        <ele>1860.2</ele>
        <time>2022-07-17T09:53:39Z</time>
      </trkpt>
      <trkpt lat="45.0955" lon="6.43051">
        <ele>1860.4</ele>
        <time>2022-07-17T09:53:40Z</time>
      </trkpt>
      <trkpt lat="45.09548" lon="6.43052">
        <ele>1860.4</ele>
        <time>2022-07-17T09:53:41Z</time>
      </trkpt>
      <trkpt lat="45.09546" lon="6.43052">
        <ele>1860.8</ele>
        <time>2022-07-17T09:53:42Z</time>
      </trkpt>
      <trkpt lat="45.09544" lon="6.43052">
        <ele>1860.8</ele>
        <time>2022-07-17T09:53:43Z</time>
      </trkpt>
      <trkpt lat="45.09542" lon="6.43052">
        <ele>1861</ele>
        <time>2022-07-17T09:53:44Z</time>
      </trkpt>
      <trkpt lat="45.0954" lon="6.43052">
        <ele>1861</ele>
        <time>2022-07-17T09:53:45Z</time>
      </trkpt>
      <trkpt lat="45.09538" lon="6.43052">
        <ele>1861.4</ele>
        <time>2022-07-17T09:53:46Z</time>
      </trkpt>
      <trkpt lat="45.09536" lon="6.43052">
        <ele>1861.4</ele>
        <time>2022-07-17T09:53:47Z</time>
      </trkpt>
      <trkpt lat="45.09534" lon="6.43051">
        <ele>1861.8</ele>
        <time>2022-07-17T09:53:48Z</time>
      </trkpt>
      <trkpt lat="45.09532" lon="6.43052">
        <ele>1861.8</ele>
        <time>2022-07-17T09:53:49Z</time>
      </trkpt>
      <trkpt lat="45.0953" lon="6.43051">
        <ele>1862</ele>
        <time>2022-07-17T09:53:50Z</time>
      </trkpt>
      <trkpt lat="45.09528" lon="6.43051">
        <ele>1862</ele>
        <time>2022-07-17T09:53:51Z</time>
      </trkpt>
      <trkpt lat="45.09526" lon="6.4305">
        <ele>1862.4</ele>
        <time>2022-07-17T09:53:52Z</time>
      </trkpt>
      <trkpt lat="45.09525" lon="6.4305">
        <ele>1862.4</ele>
        <time>2022-07-17T09:53:53Z</time>
      </trkpt>
      <trkpt lat="45.09523" lon="6.43049">
        <ele>1862.8</ele>
        <time>2022-07-17T09:53:54Z</time>
      </trkpt>
      <trkpt lat="45.09521" lon="6.43049">
        <ele>1863</ele>
        <time>2022-07-17T09:53:55Z</time>
      </trkpt>
      <trkpt lat="45.09519" lon="6.43049">
        <ele>1863.2</ele>
        <time>2022-07-17T09:53:56Z</time>
      </trkpt>
      <trkpt lat="45.09517" lon="6.43048">
        <ele>1863.2</ele>
        <time>2022-07-17T09:53:57Z</time>
      </trkpt>
      <trkpt lat="45.09516" lon="6.43048">
        <ele>1863.4</ele>
        <time>2022-07-17T09:53:58Z</time>
      </trkpt>
      <trkpt lat="45.09514" lon="6.43048">
        <ele>1863.6</ele>
        <time>2022-07-17T09:53:59Z</time>
      </trkpt>
      <trkpt lat="45.09512" lon="6.43048">
        <ele>1863.6</ele>
        <time>2022-07-17T09:54:00Z</time>
      </trkpt>
      <trkpt lat="45.0951" lon="6.43048">
        <ele>1863.8</ele>
        <time>2022-07-17T09:54:01Z</time>
      </trkpt>
      <trkpt lat="45.09508" lon="6.43048">
        <ele>1864.2</ele>
        <time>2022-07-17T09:54:02Z</time>
      </trkpt>
      <trkpt lat="45.09507" lon="6.43048">
        <ele>1864.4</ele>
        <time>2022-07-17T09:54:03Z</time>
      </trkpt>
      <trkpt lat="45.09505" lon="6.43049">
        <ele>1864.4</ele>
        <time>2022-07-17T09:54:04Z</time>
      </trkpt>
      <trkpt lat="45.09503" lon="6.43049">
        <ele>1864.8</ele>
        <time>2022-07-17T09:54:05Z</time>
      </trkpt>
      <trkpt lat="45.09501" lon="6.43049">
        <ele>1864.8</ele>
        <time>2022-07-17T09:54:06Z</time>
      </trkpt>
      <trkpt lat="45.09499" lon="6.43049">
        <ele>1865</ele>
        <time>2022-07-17T09:54:07Z</time>
      </trkpt>
      <trkpt lat="45.09497" lon="6.4305">
        <ele>1865</ele>
        <time>2022-07-17T09:54:08Z</time>
      </trkpt>
      <trkpt lat="45.09495" lon="6.43051">
        <ele>1865.2</ele>
        <time>2022-07-17T09:54:09Z</time>
      </trkpt>
      <trkpt lat="45.09493" lon="6.43051">
        <ele>1865.2</ele>
        <time>2022-07-17T09:54:10Z</time>
      </trkpt>
      <trkpt lat="45.09491" lon="6.43052">
        <ele>1865.6</ele>
        <time>2022-07-17T09:54:11Z</time>
      </trkpt>
      <trkpt lat="45.09489" lon="6.43053">
        <ele>1865.6</ele>
        <time>2022-07-17T09:54:12Z</time>
      </trkpt>
      <trkpt lat="45.09487" lon="6.43053">
        <ele>1865.8</ele>
        <time>2022-07-17T09:54:13Z</time>
      </trkpt>
      <trkpt lat="45.09485" lon="6.43054">
        <ele>1866</ele>
        <time>2022-07-17T09:54:14Z</time>
      </trkpt>
      <trkpt lat="45.09483" lon="6.43055">
        <ele>1866</ele>
        <time>2022-07-17T09:54:15Z</time>
      </trkpt>
      <trkpt lat="45.09482" lon="6.43055">
        <ele>1866.4</ele>
        <time>2022-07-17T09:54:16Z</time>
      </trkpt>
      <trkpt lat="45.09479" lon="6.43056">
        <ele>1866.4</ele>
        <time>2022-07-17T09:54:17Z</time>
      </trkpt>
      <trkpt lat="45.09478" lon="6.43058">
        <ele>1866.8</ele>
        <time>2022-07-17T09:54:18Z</time>
      </trkpt>
      <trkpt lat="45.09476" lon="6.43059">
        <ele>1866.8</ele>
        <time>2022-07-17T09:54:19Z</time>
      </trkpt>
      <trkpt lat="45.09474" lon="6.43061">
        <ele>1867.2</ele>
        <time>2022-07-17T09:54:20Z</time>
      </trkpt>
      <trkpt lat="45.09472" lon="6.43062">
        <ele>1867.2</ele>
        <time>2022-07-17T09:54:21Z</time>
      </trkpt>
      <trkpt lat="45.09471" lon="6.43064">
        <ele>1867.6</ele>
        <time>2022-07-17T09:54:22Z</time>
      </trkpt>
      <trkpt lat="45.09469" lon="6.43065">
        <ele>1867.6</ele>
        <time>2022-07-17T09:54:23Z</time>
      </trkpt>
      <trkpt lat="45.09467" lon="6.43067">
        <ele>1867.8</ele>
        <time>2022-07-17T09:54:24Z</time>
      </trkpt>
      <trkpt lat="45.09466" lon="6.43069">
        <ele>1867.8</ele>
        <time>2022-07-17T09:54:25Z</time>
      </trkpt>
      <trkpt lat="45.09464" lon="6.43071">
        <ele>1868</ele>
        <time>2022-07-17T09:54:26Z</time>
      </trkpt>
      <trkpt lat="45.09463" lon="6.43073">
        <ele>1868</ele>
        <time>2022-07-17T09:54:27Z</time>
      </trkpt>
      <trkpt lat="45.09461" lon="6.43075">
        <ele>1868.4</ele>
        <time>2022-07-17T09:54:28Z</time>
      </trkpt>
      <trkpt lat="45.0946" lon="6.43077">
        <ele>1868.4</ele>
        <time>2022-07-17T09:54:29Z</time>
      </trkpt>
      <trkpt lat="45.09458" lon="6.4308">
        <ele>1868.6</ele>
        <time>2022-07-17T09:54:30Z</time>
      </trkpt>
      <trkpt lat="45.09456" lon="6.43082">
        <ele>1868.6</ele>
        <time>2022-07-17T09:54:31Z</time>
      </trkpt>
      <trkpt lat="45.09454" lon="6.43084">
        <ele>1868.6</ele>
        <time>2022-07-17T09:54:32Z</time>
      </trkpt>
      <trkpt lat="45.09452" lon="6.43086">
        <ele>1868.8</ele>
        <time>2022-07-17T09:54:33Z</time>
      </trkpt>
      <trkpt lat="45.0945" lon="6.43088">
        <ele>1869</ele>
        <time>2022-07-17T09:54:34Z</time>
      </trkpt>
      <trkpt lat="45.09448" lon="6.4309">
        <ele>1869</ele>
        <time>2022-07-17T09:54:35Z</time>
      </trkpt>
      <trkpt lat="45.09446" lon="6.43093">
        <ele>1869</ele>
        <time>2022-07-17T09:54:36Z</time>
      </trkpt>
      <trkpt lat="45.09444" lon="6.43095">
        <ele>1869</ele>
        <time>2022-07-17T09:54:37Z</time>
      </trkpt>
      <trkpt lat="45.09442" lon="6.43098">
        <ele>1869.2</ele>
        <time>2022-07-17T09:54:38Z</time>
      </trkpt>
      <trkpt lat="45.0944" lon="6.431">
        <ele>1869.2</ele>
        <time>2022-07-17T09:54:39Z</time>
      </trkpt>
      <trkpt lat="45.09437" lon="6.43102">
        <ele>1869.6</ele>
        <time>2022-07-17T09:54:40Z</time>
      </trkpt>
      <trkpt lat="45.09435" lon="6.43104">
        <ele>1869.6</ele>
        <time>2022-07-17T09:54:41Z</time>
      </trkpt>
      <trkpt lat="45.09433" lon="6.43106">
        <ele>1869.8</ele>
        <time>2022-07-17T09:54:42Z</time>
      </trkpt>
      <trkpt lat="45.0943" lon="6.43107">
        <ele>1869.8</ele>
        <time>2022-07-17T09:54:43Z</time>
      </trkpt>
      <trkpt lat="45.09428" lon="6.43109">
        <ele>1869.8</ele>
        <time>2022-07-17T09:54:44Z</time>
      </trkpt>
      <trkpt lat="45.09426" lon="6.43111">
        <ele>1870</ele>
        <time>2022-07-17T09:54:45Z</time>
      </trkpt>
      <trkpt lat="45.09423" lon="6.43112">
        <ele>1870</ele>
        <time>2022-07-17T09:54:46Z</time>
      </trkpt>
      <trkpt lat="45.09421" lon="6.43114">
        <ele>1870.2</ele>
        <time>2022-07-17T09:54:47Z</time>
      </trkpt>
      <trkpt lat="45.09418" lon="6.43116">
        <ele>1870.2</ele>
        <time>2022-07-17T09:54:48Z</time>
      </trkpt>
      <trkpt lat="45.09416" lon="6.43117">
        <ele>1870.2</ele>
        <time>2022-07-17T09:54:49Z</time>
      </trkpt>
      <trkpt lat="45.09413" lon="6.43119">
        <ele>1870.2</ele>
        <time>2022-07-17T09:54:50Z</time>
      </trkpt>
      <trkpt lat="45.09411" lon="6.43121">
        <ele>1870.6</ele>
        <time>2022-07-17T09:54:51Z</time>
      </trkpt>
      <trkpt lat="45.09408" lon="6.43123">
        <ele>1870.6</ele>
        <time>2022-07-17T09:54:52Z</time>
      </trkpt>
      <trkpt lat="45.09406" lon="6.43124">
        <ele>1870.8</ele>
        <time>2022-07-17T09:54:53Z</time>
      </trkpt>
      <trkpt lat="45.09403" lon="6.43126">
        <ele>1870.8</ele>
        <time>2022-07-17T09:54:54Z</time>
      </trkpt>
      <trkpt lat="45.09401" lon="6.43127">
        <ele>1871.2</ele>
        <time>2022-07-17T09:54:55Z</time>
      </trkpt>
      <trkpt lat="45.09399" lon="6.43128">
        <ele>1871.2</ele>
        <time>2022-07-17T09:54:56Z</time>
      </trkpt>
      <trkpt lat="45.09396" lon="6.4313">
        <ele>1871.6</ele>
        <time>2022-07-17T09:54:57Z</time>
      </trkpt>
      <trkpt lat="45.09394" lon="6.43132">
        <ele>1871.6</ele>
        <time>2022-07-17T09:54:58Z</time>
      </trkpt>
      <trkpt lat="45.09391" lon="6.43133">
        <ele>1871.6</ele>
        <time>2022-07-17T09:54:59Z</time>
      </trkpt>
      <trkpt lat="45.09389" lon="6.43134">
        <ele>1871.8</ele>
        <time>2022-07-17T09:55:00Z</time>
      </trkpt>
      <trkpt lat="45.09386" lon="6.43137">
        <ele>1871.8</ele>
        <time>2022-07-17T09:55:01Z</time>
      </trkpt>
      <trkpt lat="45.09384" lon="6.43139">
        <ele>1871.8</ele>
        <time>2022-07-17T09:55:02Z</time>
      </trkpt>
      <trkpt lat="45.09381" lon="6.43141">
        <ele>1872</ele>
        <time>2022-07-17T09:55:03Z</time>
      </trkpt>
      <trkpt lat="45.09379" lon="6.43144">
        <ele>1872</ele>
        <time>2022-07-17T09:55:04Z</time>
      </trkpt>
      <trkpt lat="45.09376" lon="6.43146">
        <ele>1872</ele>
        <time>2022-07-17T09:55:05Z</time>
      </trkpt>
      <trkpt lat="45.09374" lon="6.43149">
        <ele>1872.2</ele>
        <time>2022-07-17T09:55:06Z</time>
      </trkpt>
      <trkpt lat="45.09372" lon="6.43151">
        <ele>1872.2</ele>
        <time>2022-07-17T09:55:07Z</time>
      </trkpt>
      <trkpt lat="45.09369" lon="6.43154">
        <ele>1872.2</ele>
        <time>2022-07-17T09:55:08Z</time>
      </trkpt>
      <trkpt lat="45.09366" lon="6.43156">
        <ele>1872.4</ele>
        <time>2022-07-17T09:55:09Z</time>
      </trkpt>
      <trkpt lat="45.09364" lon="6.43159">
        <ele>1872.4</ele>
        <time>2022-07-17T09:55:10Z</time>
      </trkpt>
      <trkpt lat="45.09361" lon="6.43161">
        <ele>1872.4</ele>
        <time>2022-07-17T09:55:11Z</time>
      </trkpt>
      <trkpt lat="45.09358" lon="6.43163">
        <ele>1872.8</ele>
        <time>2022-07-17T09:55:12Z</time>
      </trkpt>
      <trkpt lat="45.09355" lon="6.43164">
        <ele>1872.8</ele>
        <time>2022-07-17T09:55:13Z</time>
      </trkpt>
      <trkpt lat="45.09351" lon="6.43165">
        <ele>1872.8</ele>
        <time>2022-07-17T09:55:14Z</time>
      </trkpt>
      <trkpt lat="45.09348" lon="6.43167">
        <ele>1873</ele>
        <time>2022-07-17T09:55:15Z</time>
      </trkpt>
      <trkpt lat="45.09345" lon="6.43169">
        <ele>1873.2</ele>
        <time>2022-07-17T09:55:16Z</time>
      </trkpt>
      <trkpt lat="45.09342" lon="6.43171">
        <ele>1873.6</ele>
        <time>2022-07-17T09:55:17Z</time>
      </trkpt>
      <trkpt lat="45.09338" lon="6.43172">
        <ele>1873.6</ele>
        <time>2022-07-17T09:55:18Z</time>
      </trkpt>
      <trkpt lat="45.09335" lon="6.43173">
        <ele>1873.8</ele>
        <time>2022-07-17T09:55:19Z</time>
      </trkpt>
      <trkpt lat="45.09332" lon="6.43175">
        <ele>1873.8</ele>
        <time>2022-07-17T09:55:20Z</time>
      </trkpt>
      <trkpt lat="45.09329" lon="6.43176">
        <ele>1874</ele>
        <time>2022-07-17T09:55:21Z</time>
      </trkpt>
      <trkpt lat="45.09326" lon="6.43179">
        <ele>1874</ele>
        <time>2022-07-17T09:55:22Z</time>
      </trkpt>
      <trkpt lat="45.09323" lon="6.43181">
        <ele>1874</ele>
        <time>2022-07-17T09:55:23Z</time>
      </trkpt>
      <trkpt lat="45.09321" lon="6.43184">
        <ele>1874.4</ele>
        <time>2022-07-17T09:55:24Z</time>
      </trkpt>
      <trkpt lat="45.09318" lon="6.43186">
        <ele>1874.4</ele>
        <time>2022-07-17T09:55:25Z</time>
      </trkpt>
      <trkpt lat="45.09315" lon="6.43188">
        <ele>1874.6</ele>
        <time>2022-07-17T09:55:26Z</time>
      </trkpt>
      <trkpt lat="45.09312" lon="6.43191">
        <ele>1874.6</ele>
        <time>2022-07-17T09:55:27Z</time>
      </trkpt>
      <trkpt lat="45.0931" lon="6.43194">
        <ele>1874.6</ele>
        <time>2022-07-17T09:55:28Z</time>
      </trkpt>
      <trkpt lat="45.09308" lon="6.43197">
        <ele>1874.8</ele>
        <time>2022-07-17T09:55:29Z</time>
      </trkpt>
      <trkpt lat="45.09305" lon="6.432">
        <ele>1874.8</ele>
        <time>2022-07-17T09:55:30Z</time>
      </trkpt>
      <trkpt lat="45.09303" lon="6.43204">
        <ele>1874.8</ele>
        <time>2022-07-17T09:55:31Z</time>
      </trkpt>
      <trkpt lat="45.09301" lon="6.43208">
        <ele>1875.2</ele>
        <time>2022-07-17T09:55:32Z</time>
      </trkpt>
      <trkpt lat="45.09299" lon="6.43212">
        <ele>1875.2</ele>
        <time>2022-07-17T09:55:33Z</time>
      </trkpt>
      <trkpt lat="45.09297" lon="6.43216">
        <ele>1875.2</ele>
        <time>2022-07-17T09:55:34Z</time>
      </trkpt>
      <trkpt lat="45.09295" lon="6.4322">
        <ele>1875.2</ele>
        <time>2022-07-17T09:55:35Z</time>
      </trkpt>
      <trkpt lat="45.09293" lon="6.43224">
        <ele>1875.2</ele>
        <time>2022-07-17T09:55:36Z</time>
      </trkpt>
      <trkpt lat="45.09291" lon="6.43228">
        <ele>1875.4</ele>
        <time>2022-07-17T09:55:37Z</time>
      </trkpt>
      <trkpt lat="45.09288" lon="6.43231">
        <ele>1875.4</ele>
        <time>2022-07-17T09:55:38Z</time>
      </trkpt>
      <trkpt lat="45.09285" lon="6.43234">
        <ele>1875.4</ele>
        <time>2022-07-17T09:55:39Z</time>
      </trkpt>
      <trkpt lat="45.09282" lon="6.43236">
        <ele>1875.6</ele>
        <time>2022-07-17T09:55:40Z</time>
      </trkpt>
      <trkpt lat="45.09279" lon="6.43238">
        <ele>1875.6</ele>
        <time>2022-07-17T09:55:41Z</time>
      </trkpt>
      <trkpt lat="45.09276" lon="6.4324">
        <ele>1876</ele>
        <time>2022-07-17T09:55:42Z</time>
      </trkpt>
      <trkpt lat="45.09273" lon="6.43241">
        <ele>1876</ele>
        <time>2022-07-17T09:55:43Z</time>
      </trkpt>
      <trkpt lat="45.0927" lon="6.43243">
        <ele>1876</ele>
        <time>2022-07-17T09:55:44Z</time>
      </trkpt>
      <trkpt lat="45.09267" lon="6.43244">
        <ele>1876.2</ele>
        <time>2022-07-17T09:55:45Z</time>
      </trkpt>
      <trkpt lat="45.09263" lon="6.43245">
        <ele>1876.2</ele>
        <time>2022-07-17T09:55:46Z</time>
      </trkpt>
      <trkpt lat="45.0926" lon="6.43246">
        <ele>1876.4</ele>
        <time>2022-07-17T09:55:47Z</time>
      </trkpt>
      <trkpt lat="45.09257" lon="6.43247">
        <ele>1876.4</ele>
        <time>2022-07-17T09:55:48Z</time>
      </trkpt>
      <trkpt lat="45.09253" lon="6.43249">
        <ele>1876.6</ele>
        <time>2022-07-17T09:55:49Z</time>
      </trkpt>
      <trkpt lat="45.0925" lon="6.4325">
        <ele>1876.8</ele>
        <time>2022-07-17T09:55:50Z</time>
      </trkpt>
      <trkpt lat="45.09247" lon="6.43252">
        <ele>1876.8</ele>
        <time>2022-07-17T09:55:51Z</time>
      </trkpt>
      <trkpt lat="45.09244" lon="6.43253">
        <ele>1877</ele>
        <time>2022-07-17T09:55:52Z</time>
      </trkpt>
      <trkpt lat="45.09241" lon="6.43254">
        <ele>1877</ele>
        <time>2022-07-17T09:55:53Z</time>
      </trkpt>
      <trkpt lat="45.09237" lon="6.43256">
        <ele>1877</ele>
        <time>2022-07-17T09:55:54Z</time>
      </trkpt>
      <trkpt lat="45.09234" lon="6.43258">
        <ele>1877.4</ele>
        <time>2022-07-17T09:55:55Z</time>
      </trkpt>
      <trkpt lat="45.09231" lon="6.4326">
        <ele>1877.4</ele>
        <time>2022-07-17T09:55:56Z</time>
      </trkpt>
      <trkpt lat="45.09228" lon="6.43262">
        <ele>1877.6</ele>
        <time>2022-07-17T09:55:57Z</time>
      </trkpt>
      <trkpt lat="45.09224" lon="6.43264">
        <ele>1877.6</ele>
        <time>2022-07-17T09:55:58Z</time>
      </trkpt>
      <trkpt lat="45.09221" lon="6.43266">
        <ele>1878</ele>
        <time>2022-07-17T09:55:59Z</time>
      </trkpt>
      <trkpt lat="45.09218" lon="6.43269">
        <ele>1878</ele>
        <time>2022-07-17T09:56:00Z</time>
      </trkpt>
      <trkpt lat="45.09215" lon="6.43272">
        <ele>1878.2</ele>
        <time>2022-07-17T09:56:01Z</time>
      </trkpt>
      <trkpt lat="45.09212" lon="6.43274">
        <ele>1878.2</ele>
        <time>2022-07-17T09:56:02Z</time>
      </trkpt>
      <trkpt lat="45.09209" lon="6.43277">
        <ele>1878.4</ele>
        <time>2022-07-17T09:56:03Z</time>
      </trkpt>
      <trkpt lat="45.09206" lon="6.43279">
        <ele>1878.4</ele>
        <time>2022-07-17T09:56:04Z</time>
      </trkpt>
      <trkpt lat="45.09204" lon="6.43282">
        <ele>1878.6</ele>
        <time>2022-07-17T09:56:05Z</time>
      </trkpt>
      <trkpt lat="45.09201" lon="6.43285">
        <ele>1878.6</ele>
        <time>2022-07-17T09:56:06Z</time>
      </trkpt>
      <trkpt lat="45.09198" lon="6.43288">
        <ele>1879</ele>
        <time>2022-07-17T09:56:07Z</time>
      </trkpt>
      <trkpt lat="45.09196" lon="6.43291">
        <ele>1879</ele>
        <time>2022-07-17T09:56:08Z</time>
      </trkpt>
      <trkpt lat="45.09193" lon="6.43295">
        <ele>1879.2</ele>
        <time>2022-07-17T09:56:09Z</time>
      </trkpt>
      <trkpt lat="45.0919" lon="6.43298">
        <ele>1879.2</ele>
        <time>2022-07-17T09:56:10Z</time>
      </trkpt>
      <trkpt lat="45.09188" lon="6.43301">
        <ele>1879.6</ele>
        <time>2022-07-17T09:56:11Z</time>
      </trkpt>
      <trkpt lat="45.09186" lon="6.43305">
        <ele>1879.6</ele>
        <time>2022-07-17T09:56:12Z</time>
      </trkpt>
      <trkpt lat="45.09183" lon="6.43309">
        <ele>1879.6</ele>
        <time>2022-07-17T09:56:13Z</time>
      </trkpt>
      <trkpt lat="45.09182" lon="6.43313">
        <ele>1879.8</ele>
        <time>2022-07-17T09:56:14Z</time>
      </trkpt>
      <trkpt lat="45.0918" lon="6.43317">
        <ele>1879.8</ele>
        <time>2022-07-17T09:56:15Z</time>
      </trkpt>
      <trkpt lat="45.09178" lon="6.43321">
        <ele>1880</ele>
        <time>2022-07-17T09:56:16Z</time>
      </trkpt>
      <trkpt lat="45.09177" lon="6.43326">
        <ele>1880</ele>
        <time>2022-07-17T09:56:17Z</time>
      </trkpt>
      <trkpt lat="45.09175" lon="6.4333">
        <ele>1880</ele>
        <time>2022-07-17T09:56:18Z</time>
      </trkpt>
      <trkpt lat="45.09174" lon="6.43335">
        <ele>1880.2</ele>
        <time>2022-07-17T09:56:19Z</time>
      </trkpt>
      <trkpt lat="45.09172" lon="6.43339">
        <ele>1880.2</ele>
        <time>2022-07-17T09:56:20Z</time>
      </trkpt>
      <trkpt lat="45.0917" lon="6.43343">
        <ele>1880.6</ele>
        <time>2022-07-17T09:56:21Z</time>
      </trkpt>
      <trkpt lat="45.09169" lon="6.43347">
        <ele>1880.6</ele>
        <time>2022-07-17T09:56:22Z</time>
      </trkpt>
      <trkpt lat="45.09167" lon="6.43352">
        <ele>1880.6</ele>
        <time>2022-07-17T09:56:23Z</time>
      </trkpt>
      <trkpt lat="45.09165" lon="6.43356">
        <ele>1880.6</ele>
        <time>2022-07-17T09:56:24Z</time>
      </trkpt>
      <trkpt lat="45.09164" lon="6.4336">
        <ele>1880.8</ele>
        <time>2022-07-17T09:56:25Z</time>
      </trkpt>
      <trkpt lat="45.09162" lon="6.43364">
        <ele>1880.8</ele>
        <time>2022-07-17T09:56:26Z</time>
      </trkpt>
      <trkpt lat="45.0916" lon="6.43367">
        <ele>1881.2</ele>
        <time>2022-07-17T09:56:27Z</time>
      </trkpt>
      <trkpt lat="45.09157" lon="6.4337">
        <ele>1881.2</ele>
        <time>2022-07-17T09:56:28Z</time>
      </trkpt>
      <trkpt lat="45.09155" lon="6.43373">
        <ele>1881.4</ele>
        <time>2022-07-17T09:56:29Z</time>
      </trkpt>
      <trkpt lat="45.09153" lon="6.43377">
        <ele>1881.4</ele>
        <time>2022-07-17T09:56:30Z</time>
      </trkpt>
      <trkpt lat="45.09151" lon="6.4338">
        <ele>1881.8</ele>
        <time>2022-07-17T09:56:31Z</time>
      </trkpt>
      <trkpt lat="45.09148" lon="6.43384">
        <ele>1881.8</ele>
        <time>2022-07-17T09:56:32Z</time>
      </trkpt>
      <trkpt lat="45.09146" lon="6.43387">
        <ele>1882</ele>
        <time>2022-07-17T09:56:33Z</time>
      </trkpt>
      <trkpt lat="45.09144" lon="6.43391">
        <ele>1882</ele>
        <time>2022-07-17T09:56:34Z</time>
      </trkpt>
      <trkpt lat="45.09142" lon="6.43395">
        <ele>1882.4</ele>
        <time>2022-07-17T09:56:35Z</time>
      </trkpt>
      <trkpt lat="45.0914" lon="6.43398">
        <ele>1882.4</ele>
        <time>2022-07-17T09:56:36Z</time>
      </trkpt>
      <trkpt lat="45.09138" lon="6.43402">
        <ele>1882.6</ele>
        <time>2022-07-17T09:56:37Z</time>
      </trkpt>
      <trkpt lat="45.09137" lon="6.43406">
        <ele>1882.6</ele>
        <time>2022-07-17T09:56:38Z</time>
      </trkpt>
      <trkpt lat="45.09136" lon="6.4341">
        <ele>1883</ele>
        <time>2022-07-17T09:56:39Z</time>
      </trkpt>
      <trkpt lat="45.09135" lon="6.43414">
        <ele>1883</ele>
        <time>2022-07-17T09:56:40Z</time>
      </trkpt>
      <trkpt lat="45.09134" lon="6.43418">
        <ele>1883.2</ele>
        <time>2022-07-17T09:56:41Z</time>
      </trkpt>
      <trkpt lat="45.09133" lon="6.43422">
        <ele>1883.2</ele>
        <time>2022-07-17T09:56:42Z</time>
      </trkpt>
      <trkpt lat="45.09132" lon="6.43426">
        <ele>1883.6</ele>
        <time>2022-07-17T09:56:43Z</time>
      </trkpt>
      <trkpt lat="45.09132" lon="6.43431">
        <ele>1883.6</ele>
        <time>2022-07-17T09:56:44Z</time>
      </trkpt>
      <trkpt lat="45.09131" lon="6.43435">
        <ele>1883.6</ele>
        <time>2022-07-17T09:56:45Z</time>
      </trkpt>
      <trkpt lat="45.09131" lon="6.43439">
        <ele>1883.8</ele>
        <time>2022-07-17T09:56:46Z</time>
      </trkpt>
      <trkpt lat="45.0913" lon="6.43444">
        <ele>1883.8</ele>
        <time>2022-07-17T09:56:47Z</time>
      </trkpt>
      <trkpt lat="45.09129" lon="6.43448">
        <ele>1883.8</ele>
        <time>2022-07-17T09:56:48Z</time>
      </trkpt>
      <trkpt lat="45.09129" lon="6.43453">
        <ele>1884</ele>
        <time>2022-07-17T09:56:49Z</time>
      </trkpt>
      <trkpt lat="45.09128" lon="6.43457">
        <ele>1884</ele>
        <time>2022-07-17T09:56:50Z</time>
      </trkpt>
      <trkpt lat="45.09127" lon="6.43461">
        <ele>1884.2</ele>
        <time>2022-07-17T09:56:51Z</time>
      </trkpt>
      <trkpt lat="45.09125" lon="6.43466">
        <ele>1884.2</ele>
        <time>2022-07-17T09:56:52Z</time>
      </trkpt>
      <trkpt lat="45.09124" lon="6.4347">
        <ele>1884.6</ele>
        <time>2022-07-17T09:56:53Z</time>
      </trkpt>
      <trkpt lat="45.09123" lon="6.43474">
        <ele>1884.6</ele>
        <time>2022-07-17T09:56:54Z</time>
      </trkpt>
      <trkpt lat="45.09122" lon="6.43478">
        <ele>1885</ele>
        <time>2022-07-17T09:56:55Z</time>
      </trkpt>
      <trkpt lat="45.0912" lon="6.43482">
        <ele>1885</ele>
        <time>2022-07-17T09:56:56Z</time>
      </trkpt>
      <trkpt lat="45.09119" lon="6.43485">
        <ele>1885.2</ele>
        <time>2022-07-17T09:56:57Z</time>
      </trkpt>
      <trkpt lat="45.09117" lon="6.43489">
        <ele>1885.2</ele>
        <time>2022-07-17T09:56:58Z</time>
      </trkpt>
      <trkpt lat="45.09115" lon="6.43492">
        <ele>1885.6</ele>
        <time>2022-07-17T09:56:59Z</time>
      </trkpt>
      <trkpt lat="45.09113" lon="6.43496">
        <ele>1885.6</ele>
        <time>2022-07-17T09:57:00Z</time>
      </trkpt>
      <trkpt lat="45.09111" lon="6.43499">
        <ele>1886</ele>
        <time>2022-07-17T09:57:01Z</time>
      </trkpt>
      <trkpt lat="45.09108" lon="6.43502">
        <ele>1886</ele>
        <time>2022-07-17T09:57:02Z</time>
      </trkpt>
      <trkpt lat="45.09106" lon="6.43505">
        <ele>1886.2</ele>
        <time>2022-07-17T09:57:03Z</time>
      </trkpt>
      <trkpt lat="45.09103" lon="6.43507">
        <ele>1886.2</ele>
        <time>2022-07-17T09:57:04Z</time>
      </trkpt>
      <trkpt lat="45.09101" lon="6.43509">
        <ele>1886.4</ele>
        <time>2022-07-17T09:57:05Z</time>
      </trkpt>
      <trkpt lat="45.09098" lon="6.4351">
        <ele>1886.4</ele>
        <time>2022-07-17T09:57:06Z</time>
      </trkpt>
      <trkpt lat="45.09095" lon="6.43512">
        <ele>1886.4</ele>
        <time>2022-07-17T09:57:07Z</time>
      </trkpt>
      <trkpt lat="45.09093" lon="6.43514">
        <ele>1886.8</ele>
        <time>2022-07-17T09:57:08Z</time>
      </trkpt>
      <trkpt lat="45.0909" lon="6.43515">
        <ele>1886.8</ele>
        <time>2022-07-17T09:57:09Z</time>
      </trkpt>
      <trkpt lat="45.09087" lon="6.43517">
        <ele>1887</ele>
        <time>2022-07-17T09:57:10Z</time>
      </trkpt>
      <trkpt lat="45.09085" lon="6.43518">
        <ele>1887</ele>
        <time>2022-07-17T09:57:11Z</time>
      </trkpt>
      <trkpt lat="45.09082" lon="6.43519">
        <ele>1887.2</ele>
        <time>2022-07-17T09:57:12Z</time>
      </trkpt>
      <trkpt lat="45.09079" lon="6.43521">
        <ele>1887.2</ele>
        <time>2022-07-17T09:57:13Z</time>
      </trkpt>
      <trkpt lat="45.09076" lon="6.43522">
        <ele>1887.6</ele>
        <time>2022-07-17T09:57:14Z</time>
      </trkpt>
      <trkpt lat="45.09073" lon="6.43524">
        <ele>1887.6</ele>
        <time>2022-07-17T09:57:15Z</time>
      </trkpt>
      <trkpt lat="45.0907" lon="6.43525">
        <ele>1887.8</ele>
        <time>2022-07-17T09:57:16Z</time>
      </trkpt>
      <trkpt lat="45.09068" lon="6.43526">
        <ele>1887.8</ele>
        <time>2022-07-17T09:57:17Z</time>
      </trkpt>
      <trkpt lat="45.09065" lon="6.43527">
        <ele>1888.2</ele>
        <time>2022-07-17T09:57:18Z</time>
      </trkpt>
      <trkpt lat="45.09062" lon="6.43528">
        <ele>1888.2</ele>
        <time>2022-07-17T09:57:19Z</time>
      </trkpt>
      <trkpt lat="45.09059" lon="6.43529">
        <ele>1888.6</ele>
        <time>2022-07-17T09:57:20Z</time>
      </trkpt>
      <trkpt lat="45.09056" lon="6.4353">
        <ele>1888.6</ele>
        <time>2022-07-17T09:57:21Z</time>
      </trkpt>
      <trkpt lat="45.09053" lon="6.43531">
        <ele>1888.8</ele>
        <time>2022-07-17T09:57:22Z</time>
      </trkpt>
      <trkpt lat="45.0905" lon="6.43532">
        <ele>1888.8</ele>
        <time>2022-07-17T09:57:23Z</time>
      </trkpt>
      <trkpt lat="45.09047" lon="6.43533">
        <ele>1889</ele>
        <time>2022-07-17T09:57:24Z</time>
      </trkpt>
      <trkpt lat="45.09044" lon="6.43534">
        <ele>1889</ele>
        <time>2022-07-17T09:57:25Z</time>
      </trkpt>
      <trkpt lat="45.0904" lon="6.43534">
        <ele>1889.4</ele>
        <time>2022-07-17T09:57:26Z</time>
      </trkpt>
      <trkpt lat="45.09037" lon="6.43535">
        <ele>1889.4</ele>
        <time>2022-07-17T09:57:27Z</time>
      </trkpt>
      <trkpt lat="45.09034" lon="6.43536">
        <ele>1889.6</ele>
        <time>2022-07-17T09:57:28Z</time>
      </trkpt>
      <trkpt lat="45.09031" lon="6.43537">
        <ele>1889.6</ele>
        <time>2022-07-17T09:57:29Z</time>
      </trkpt>
      <trkpt lat="45.09028" lon="6.43537">
        <ele>1889.6</ele>
        <time>2022-07-17T09:57:30Z</time>
      </trkpt>
      <trkpt lat="45.09025" lon="6.43537">
        <ele>1890</ele>
        <time>2022-07-17T09:57:31Z</time>
      </trkpt>
      <trkpt lat="45.09022" lon="6.43537">
        <ele>1890</ele>
        <time>2022-07-17T09:57:32Z</time>
      </trkpt>
      <trkpt lat="45.09019" lon="6.43537">
        <ele>1890.2</ele>
        <time>2022-07-17T09:57:33Z</time>
      </trkpt>
      <trkpt lat="45.09016" lon="6.43537">
        <ele>1890.2</ele>
        <time>2022-07-17T09:57:34Z</time>
      </trkpt>
      <trkpt lat="45.09013" lon="6.43537">
        <ele>1890.4</ele>
        <time>2022-07-17T09:57:35Z</time>
      </trkpt>
      <trkpt lat="45.0901" lon="6.43537">
        <ele>1890.4</ele>
        <time>2022-07-17T09:57:36Z</time>
      </trkpt>
      <trkpt lat="45.09007" lon="6.43537">
        <ele>1890.8</ele>
        <time>2022-07-17T09:57:37Z</time>
      </trkpt>
      <trkpt lat="45.09004" lon="6.43537">
        <ele>1890.8</ele>
        <time>2022-07-17T09:57:38Z</time>
      </trkpt>
      <trkpt lat="45.09001" lon="6.43536">
        <ele>1891</ele>
        <time>2022-07-17T09:57:39Z</time>
      </trkpt>
      <trkpt lat="45.08998" lon="6.43536">
        <ele>1891</ele>
        <time>2022-07-17T09:57:40Z</time>
      </trkpt>
      <trkpt lat="45.08995" lon="6.43535">
        <ele>1891.4</ele>
        <time>2022-07-17T09:57:41Z</time>
      </trkpt>
      <trkpt lat="45.08992" lon="6.43535">
        <ele>1891.4</ele>
        <time>2022-07-17T09:57:42Z</time>
      </trkpt>
      <trkpt lat="45.08989" lon="6.43534">
        <ele>1891.6</ele>
        <time>2022-07-17T09:57:43Z</time>
      </trkpt>
      <trkpt lat="45.08986" lon="6.43533">
        <ele>1891.6</ele>
        <time>2022-07-17T09:57:44Z</time>
      </trkpt>
      <trkpt lat="45.08984" lon="6.43532">
        <ele>1892</ele>
        <time>2022-07-17T09:57:45Z</time>
      </trkpt>
      <trkpt lat="45.08981" lon="6.43531">
        <ele>1892</ele>
        <time>2022-07-17T09:57:46Z</time>
      </trkpt>
      <trkpt lat="45.08978" lon="6.4353">
        <ele>1892.2</ele>
        <time>2022-07-17T09:57:47Z</time>
      </trkpt>
      <trkpt lat="45.08975" lon="6.43529">
        <ele>1892.2</ele>
        <time>2022-07-17T09:57:48Z</time>
      </trkpt>
      <trkpt lat="45.08972" lon="6.43529">
        <ele>1892.2</ele>
        <time>2022-07-17T09:57:49Z</time>
      </trkpt>
      <trkpt lat="45.08969" lon="6.43528">
        <ele>1892.4</ele>
        <time>2022-07-17T09:57:50Z</time>
      </trkpt>
      <trkpt lat="45.08966" lon="6.43528">
        <ele>1892.4</ele>
        <time>2022-07-17T09:57:51Z</time>
      </trkpt>
      <trkpt lat="45.08963" lon="6.43527">
        <ele>1892.4</ele>
        <time>2022-07-17T09:57:52Z</time>
      </trkpt>
      <trkpt lat="45.0896" lon="6.43527">
        <ele>1892.8</ele>
        <time>2022-07-17T09:57:53Z</time>
      </trkpt>
      <trkpt lat="45.08957" lon="6.43527">
        <ele>1892.8</ele>
        <time>2022-07-17T09:57:54Z</time>
      </trkpt>
      <trkpt lat="45.08954" lon="6.43527">
        <ele>1892.8</ele>
        <time>2022-07-17T09:57:55Z</time>
      </trkpt>
      <trkpt lat="45.08951" lon="6.43527">
        <ele>1893</ele>
        <time>2022-07-17T09:57:56Z</time>
      </trkpt>
      <trkpt lat="45.08948" lon="6.43527">
        <ele>1893</ele>
        <time>2022-07-17T09:57:57Z</time>
      </trkpt>
      <trkpt lat="45.08945" lon="6.43527">
        <ele>1893</ele>
        <time>2022-07-17T09:57:58Z</time>
      </trkpt>
      <trkpt lat="45.08942" lon="6.43528">
        <ele>1893.2</ele>
        <time>2022-07-17T09:57:59Z</time>
      </trkpt>
      <trkpt lat="45.08939" lon="6.43528">
        <ele>1893.2</ele>
        <time>2022-07-17T09:58:00Z</time>
      </trkpt>
      <trkpt lat="45.08936" lon="6.43528">
        <ele>1893.6</ele>
        <time>2022-07-17T09:58:01Z</time>
      </trkpt>
      <trkpt lat="45.08933" lon="6.43529">
        <ele>1893.6</ele>
        <time>2022-07-17T09:58:02Z</time>
      </trkpt>
      <trkpt lat="45.0893" lon="6.43529">
        <ele>1893.8</ele>
        <time>2022-07-17T09:58:03Z</time>
      </trkpt>
      <trkpt lat="45.08927" lon="6.43529">
        <ele>1893.8</ele>
        <time>2022-07-17T09:58:04Z</time>
      </trkpt>
      <trkpt lat="45.08923" lon="6.4353">
        <ele>1894.2</ele>
        <time>2022-07-17T09:58:05Z</time>
      </trkpt>
      <trkpt lat="45.0892" lon="6.43531">
        <ele>1894.2</ele>
        <time>2022-07-17T09:58:06Z</time>
      </trkpt>
      <trkpt lat="45.08917" lon="6.43531">
        <ele>1894.4</ele>
        <time>2022-07-17T09:58:07Z</time>
      </trkpt>
      <trkpt lat="45.08914" lon="6.43532">
        <ele>1894.4</ele>
        <time>2022-07-17T09:58:08Z</time>
      </trkpt>
      <trkpt lat="45.08911" lon="6.43533">
        <ele>1894.6</ele>
        <time>2022-07-17T09:58:09Z</time>
      </trkpt>
      <trkpt lat="45.08908" lon="6.43534">
        <ele>1894.6</ele>
        <time>2022-07-17T09:58:10Z</time>
      </trkpt>
      <trkpt lat="45.08905" lon="6.43534">
        <ele>1895</ele>
        <time>2022-07-17T09:58:11Z</time>
      </trkpt>
      <trkpt lat="45.08902" lon="6.43535">
        <ele>1895</ele>
        <time>2022-07-17T09:58:12Z</time>
      </trkpt>
      <trkpt lat="45.08899" lon="6.43536">
        <ele>1895.4</ele>
        <time>2022-07-17T09:58:13Z</time>
      </trkpt>
      <trkpt lat="45.08896" lon="6.43537">
        <ele>1895.4</ele>
        <time>2022-07-17T09:58:14Z</time>
      </trkpt>
      <trkpt lat="45.08893" lon="6.43537">
        <ele>1895.6</ele>
        <time>2022-07-17T09:58:15Z</time>
      </trkpt>
      <trkpt lat="45.0889" lon="6.43538">
        <ele>1895.6</ele>
        <time>2022-07-17T09:58:16Z</time>
      </trkpt>
      <trkpt lat="45.08888" lon="6.43539">
        <ele>1895.8</ele>
        <time>2022-07-17T09:58:17Z</time>
      </trkpt>
      <trkpt lat="45.08885" lon="6.43539">
        <ele>1896</ele>
        <time>2022-07-17T09:58:18Z</time>
      </trkpt>
      <trkpt lat="45.08882" lon="6.4354">
        <ele>1896</ele>
        <time>2022-07-17T09:58:19Z</time>
      </trkpt>
      <trkpt lat="45.08879" lon="6.43541">
        <ele>1896.4</ele>
        <time>2022-07-17T09:58:20Z</time>
      </trkpt>
      <trkpt lat="45.08876" lon="6.43542">
        <ele>1896.4</ele>
        <time>2022-07-17T09:58:21Z</time>
      </trkpt>
      <trkpt lat="45.08873" lon="6.43543">
        <ele>1896.4</ele>
        <time>2022-07-17T09:58:22Z</time>
      </trkpt>
      <trkpt lat="45.0887" lon="6.43543">
        <ele>1896.6</ele>
        <time>2022-07-17T09:58:23Z</time>
      </trkpt>
      <trkpt lat="45.08867" lon="6.43544">
        <ele>1896.8</ele>
        <time>2022-07-17T09:58:24Z</time>
      </trkpt>
      <trkpt lat="45.08865" lon="6.43544">
        <ele>1896.8</ele>
        <time>2022-07-17T09:58:25Z</time>
      </trkpt>
      <trkpt lat="45.08862" lon="6.43545">
        <ele>1896.8</ele>
        <time>2022-07-17T09:58:26Z</time>
      </trkpt>
      <trkpt lat="45.08859" lon="6.43546">
        <ele>1897.2</ele>
        <time>2022-07-17T09:58:27Z</time>
      </trkpt>
      <trkpt lat="45.08856" lon="6.43546">
        <ele>1897.2</ele>
        <time>2022-07-17T09:58:28Z</time>
      </trkpt>
      <trkpt lat="45.08854" lon="6.43547">
        <ele>1897.4</ele>
        <time>2022-07-17T09:58:29Z</time>
      </trkpt>
      <trkpt lat="45.08851" lon="6.43547">
        <ele>1897.4</ele>
        <time>2022-07-17T09:58:30Z</time>
      </trkpt>
      <trkpt lat="45.08848" lon="6.43548">
        <ele>1897.6</ele>
        <time>2022-07-17T09:58:31Z</time>
      </trkpt>
      <trkpt lat="45.08845" lon="6.43548">
        <ele>1897.6</ele>
        <time>2022-07-17T09:58:32Z</time>
      </trkpt>
      <trkpt lat="45.08842" lon="6.43549">
        <ele>1897.6</ele>
        <time>2022-07-17T09:58:33Z</time>
      </trkpt>
      <trkpt lat="45.0884" lon="6.4355">
        <ele>1898</ele>
        <time>2022-07-17T09:58:34Z</time>
      </trkpt>
      <trkpt lat="45.08837" lon="6.43551">
        <ele>1898</ele>
        <time>2022-07-17T09:58:35Z</time>
      </trkpt>
      <trkpt lat="45.08834" lon="6.43551">
        <ele>1898.2</ele>
        <time>2022-07-17T09:58:36Z</time>
      </trkpt>
      <trkpt lat="45.08831" lon="6.43552">
        <ele>1898.2</ele>
        <time>2022-07-17T09:58:37Z</time>
      </trkpt>
      <trkpt lat="45.08829" lon="6.43553">
        <ele>1898.6</ele>
        <time>2022-07-17T09:58:38Z</time>
      </trkpt>
      <trkpt lat="45.08826" lon="6.43554">
        <ele>1898.6</ele>
        <time>2022-07-17T09:58:39Z</time>
      </trkpt>
      <trkpt lat="45.08824" lon="6.43556">
        <ele>1898.6</ele>
        <time>2022-07-17T09:58:40Z</time>
      </trkpt>
      <trkpt lat="45.08821" lon="6.43557">
        <ele>1899</ele>
        <time>2022-07-17T09:58:41Z</time>
      </trkpt>
      <trkpt lat="45.08818" lon="6.43558">
        <ele>1899</ele>
        <time>2022-07-17T09:58:42Z</time>
      </trkpt>
      <trkpt lat="45.08815" lon="6.43559">
        <ele>1899.2</ele>
        <time>2022-07-17T09:58:43Z</time>
      </trkpt>
      <trkpt lat="45.08813" lon="6.4356">
        <ele>1899.2</ele>
        <time>2022-07-17T09:58:44Z</time>
      </trkpt>
      <trkpt lat="45.0881" lon="6.43562">
        <ele>1899.6</ele>
        <time>2022-07-17T09:58:45Z</time>
      </trkpt>
      <trkpt lat="45.08808" lon="6.43563">
        <ele>1899.6</ele>
        <time>2022-07-17T09:58:46Z</time>
      </trkpt>
      <trkpt lat="45.08805" lon="6.43565">
        <ele>1899.8</ele>
        <time>2022-07-17T09:58:47Z</time>
      </trkpt>
      <trkpt lat="45.08803" lon="6.43566">
        <ele>1899.8</ele>
        <time>2022-07-17T09:58:48Z</time>
      </trkpt>
      <trkpt lat="45.088" lon="6.43567">
        <ele>1900.2</ele>
        <time>2022-07-17T09:58:49Z</time>
      </trkpt>
      <trkpt lat="45.08797" lon="6.43569">
        <ele>1900.2</ele>
        <time>2022-07-17T09:58:50Z</time>
      </trkpt>
      <trkpt lat="45.08795" lon="6.4357">
        <ele>1900.4</ele>
        <time>2022-07-17T09:58:51Z</time>
      </trkpt>
      <trkpt lat="45.08792" lon="6.43571">
        <ele>1900.4</ele>
        <time>2022-07-17T09:58:52Z</time>
      </trkpt>
      <trkpt lat="45.08789" lon="6.43573">
        <ele>1900.6</ele>
        <time>2022-07-17T09:58:53Z</time>
      </trkpt>
      <trkpt lat="45.08787" lon="6.43574">
        <ele>1900.6</ele>
        <time>2022-07-17T09:58:54Z</time>
      </trkpt>
      <trkpt lat="45.08784" lon="6.43576">
        <ele>1901</ele>
        <time>2022-07-17T09:58:55Z</time>
      </trkpt>
      <trkpt lat="45.08781" lon="6.43577">
        <ele>1901</ele>
        <time>2022-07-17T09:58:56Z</time>
      </trkpt>
      <trkpt lat="45.08778" lon="6.43579">
        <ele>1901.2</ele>
        <time>2022-07-17T09:58:57Z</time>
      </trkpt>
      <trkpt lat="45.08776" lon="6.4358">
        <ele>1901.2</ele>
        <time>2022-07-17T09:58:58Z</time>
      </trkpt>
      <trkpt lat="45.08773" lon="6.43581">
        <ele>1901.2</ele>
        <time>2022-07-17T09:58:59Z</time>
      </trkpt>
      <trkpt lat="45.08771" lon="6.43583">
        <ele>1901.6</ele>
        <time>2022-07-17T09:59:00Z</time>
      </trkpt>
      <trkpt lat="45.08768" lon="6.43585">
        <ele>1901.6</ele>
        <time>2022-07-17T09:59:01Z</time>
      </trkpt>
      <trkpt lat="45.08766" lon="6.43586">
        <ele>1901.8</ele>
        <time>2022-07-17T09:59:02Z</time>
      </trkpt>
      <trkpt lat="45.08763" lon="6.43588">
        <ele>1901.8</ele>
        <time>2022-07-17T09:59:03Z</time>
      </trkpt>
      <trkpt lat="45.08761" lon="6.43589">
        <ele>1902.2</ele>
        <time>2022-07-17T09:59:04Z</time>
      </trkpt>
      <trkpt lat="45.08759" lon="6.43591">
        <ele>1902.2</ele>
        <time>2022-07-17T09:59:05Z</time>
      </trkpt>
      <trkpt lat="45.08756" lon="6.43593">
        <ele>1902.6</ele>
        <time>2022-07-17T09:59:06Z</time>
      </trkpt>
      <trkpt lat="45.08752" lon="6.43596">
        <ele>1902.6</ele>
        <time>2022-07-17T09:59:07Z</time>
      </trkpt>
      <trkpt lat="45.0875" lon="6.43598">
        <ele>1902.8</ele>
        <time>2022-07-17T09:59:08Z</time>
      </trkpt>
      <trkpt lat="45.08748" lon="6.436">
        <ele>1902.8</ele>
        <time>2022-07-17T09:59:09Z</time>
      </trkpt>
      <trkpt lat="45.08746" lon="6.43603">
        <ele>1903.2</ele>
        <time>2022-07-17T09:59:10Z</time>
      </trkpt>
      <trkpt lat="45.08744" lon="6.43605">
        <ele>1903.2</ele>
        <time>2022-07-17T09:59:11Z</time>
      </trkpt>
      <trkpt lat="45.08742" lon="6.43607">
        <ele>1903.4</ele>
        <time>2022-07-17T09:59:12Z</time>
      </trkpt>
      <trkpt lat="45.0874" lon="6.4361">
        <ele>1903.4</ele>
        <time>2022-07-17T09:59:13Z</time>
      </trkpt>
      <trkpt lat="45.08738" lon="6.43612">
        <ele>1903.8</ele>
        <time>2022-07-17T09:59:14Z</time>
      </trkpt>
      <trkpt lat="45.08735" lon="6.43615">
        <ele>1903.8</ele>
        <time>2022-07-17T09:59:15Z</time>
      </trkpt>
      <trkpt lat="45.08733" lon="6.43617">
        <ele>1904.2</ele>
        <time>2022-07-17T09:59:16Z</time>
      </trkpt>
      <trkpt lat="45.08731" lon="6.4362">
        <ele>1904.2</ele>
        <time>2022-07-17T09:59:17Z</time>
      </trkpt>
      <trkpt lat="45.08729" lon="6.43622">
        <ele>1904.4</ele>
        <time>2022-07-17T09:59:18Z</time>
      </trkpt>
      <trkpt lat="45.08727" lon="6.43625">
        <ele>1904.4</ele>
        <time>2022-07-17T09:59:19Z</time>
      </trkpt>
      <trkpt lat="45.08725" lon="6.43628">
        <ele>1904.8</ele>
        <time>2022-07-17T09:59:20Z</time>
      </trkpt>
      <trkpt lat="45.08723" lon="6.4363">
        <ele>1904.8</ele>
        <time>2022-07-17T09:59:21Z</time>
      </trkpt>
      <trkpt lat="45.08721" lon="6.43632">
        <ele>1905</ele>
        <time>2022-07-17T09:59:22Z</time>
      </trkpt>
      <trkpt lat="45.08719" lon="6.43635">
        <ele>1905</ele>
        <time>2022-07-17T09:59:23Z</time>
      </trkpt>
      <trkpt lat="45.08717" lon="6.43637">
        <ele>1905.2</ele>
        <time>2022-07-17T09:59:24Z</time>
      </trkpt>
      <trkpt lat="45.08715" lon="6.43639">
        <ele>1905.2</ele>
        <time>2022-07-17T09:59:25Z</time>
      </trkpt>
      <trkpt lat="45.08713" lon="6.43641">
        <ele>1905.4</ele>
        <time>2022-07-17T09:59:26Z</time>
      </trkpt>
      <trkpt lat="45.08711" lon="6.43643">
        <ele>1905.4</ele>
        <time>2022-07-17T09:59:27Z</time>
      </trkpt>
      <trkpt lat="45.08709" lon="6.43645">
        <ele>1905.6</ele>
        <time>2022-07-17T09:59:28Z</time>
      </trkpt>
      <trkpt lat="45.08707" lon="6.43648">
        <ele>1905.6</ele>
        <time>2022-07-17T09:59:29Z</time>
      </trkpt>
      <trkpt lat="45.08705" lon="6.4365">
        <ele>1905.6</ele>
        <time>2022-07-17T09:59:30Z</time>
      </trkpt>
      <trkpt lat="45.08703" lon="6.43651">
        <ele>1906</ele>
        <time>2022-07-17T09:59:31Z</time>
      </trkpt>
      <trkpt lat="45.08701" lon="6.43653">
        <ele>1906</ele>
        <time>2022-07-17T09:59:32Z</time>
      </trkpt>
      <trkpt lat="45.08699" lon="6.43655">
        <ele>1906.2</ele>
        <time>2022-07-17T09:59:33Z</time>
      </trkpt>
      <trkpt lat="45.08697" lon="6.43657">
        <ele>1906.2</ele>
        <time>2022-07-17T09:59:34Z</time>
      </trkpt>
      <trkpt lat="45.08695" lon="6.43659">
        <ele>1906.6</ele>
        <time>2022-07-17T09:59:35Z</time>
      </trkpt>
      <trkpt lat="45.08694" lon="6.43661">
        <ele>1906.6</ele>
        <time>2022-07-17T09:59:36Z</time>
      </trkpt>
      <trkpt lat="45.08692" lon="6.43663">
        <ele>1906.6</ele>
        <time>2022-07-17T09:59:37Z</time>
      </trkpt>
      <trkpt lat="45.0869" lon="6.43665">
        <ele>1907</ele>
        <time>2022-07-17T09:59:38Z</time>
      </trkpt>
      <trkpt lat="45.08688" lon="6.43667">
        <ele>1907</ele>
        <time>2022-07-17T09:59:39Z</time>
      </trkpt>
      <trkpt lat="45.08686" lon="6.43669">
        <ele>1907.2</ele>
        <time>2022-07-17T09:59:40Z</time>
      </trkpt>
      <trkpt lat="45.08684" lon="6.43672">
        <ele>1907.2</ele>
        <time>2022-07-17T09:59:41Z</time>
      </trkpt>
      <trkpt lat="45.08682" lon="6.43674">
        <ele>1907.6</ele>
        <time>2022-07-17T09:59:42Z</time>
      </trkpt>
      <trkpt lat="45.0868" lon="6.43676">
        <ele>1907.6</ele>
        <time>2022-07-17T09:59:43Z</time>
      </trkpt>
      <trkpt lat="45.08678" lon="6.43678">
        <ele>1908</ele>
        <time>2022-07-17T09:59:44Z</time>
      </trkpt>
      <trkpt lat="45.08676" lon="6.4368">
        <ele>1908.2</ele>
        <time>2022-07-17T09:59:45Z</time>
      </trkpt>
      <trkpt lat="45.08674" lon="6.43682">
        <ele>1908.2</ele>
        <time>2022-07-17T09:59:46Z</time>
      </trkpt>
      <trkpt lat="45.08672" lon="6.43684">
        <ele>1908.4</ele>
        <time>2022-07-17T09:59:47Z</time>
      </trkpt>
      <trkpt lat="45.0867" lon="6.43687">
        <ele>1908.4</ele>
        <time>2022-07-17T09:59:48Z</time>
      </trkpt>
      <trkpt lat="45.08668" lon="6.43689">
        <ele>1908.8</ele>
        <time>2022-07-17T09:59:49Z</time>
      </trkpt>
      <trkpt lat="45.08666" lon="6.43691">
        <ele>1909</ele>
        <time>2022-07-17T09:59:50Z</time>
      </trkpt>
      <trkpt lat="45.08664" lon="6.43694">
        <ele>1909</ele>
        <time>2022-07-17T09:59:51Z</time>
      </trkpt>
      <trkpt lat="45.08662" lon="6.43696">
        <ele>1909.2</ele>
        <time>2022-07-17T09:59:52Z</time>
      </trkpt>
      <trkpt lat="45.0866" lon="6.43698">
        <ele>1909.2</ele>
        <time>2022-07-17T09:59:53Z</time>
      </trkpt>
      <trkpt lat="45.08658" lon="6.437">
        <ele>1909.6</ele>
        <time>2022-07-17T09:59:54Z</time>
      </trkpt>
      <trkpt lat="45.08657" lon="6.43702">
        <ele>1909.8</ele>
        <time>2022-07-17T09:59:55Z</time>
      </trkpt>
      <trkpt lat="45.08655" lon="6.43704">
        <ele>1909.8</ele>
        <time>2022-07-17T09:59:56Z</time>
      </trkpt>
      <trkpt lat="45.08652" lon="6.43706">
        <ele>1910.2</ele>
        <time>2022-07-17T09:59:58Z</time>
      </trkpt>
      <trkpt lat="45.0865" lon="6.43708">
        <ele>1910.6</ele>
        <time>2022-07-17T09:59:59Z</time>
      </trkpt>
      <trkpt lat="45.08648" lon="6.4371">
        <ele>1910.6</ele>
        <time>2022-07-17T10:00:00Z</time>
      </trkpt>
      <trkpt lat="45.08646" lon="6.43712">
        <ele>1910.8</ele>
        <time>2022-07-17T10:00:01Z</time>
      </trkpt>
      <trkpt lat="45.08644" lon="6.43714">
        <ele>1910.8</ele>
        <time>2022-07-17T10:00:02Z</time>
      </trkpt>
      <trkpt lat="45.08642" lon="6.43716">
        <ele>1911.2</ele>
        <time>2022-07-17T10:00:03Z</time>
      </trkpt>
      <trkpt lat="45.08639" lon="6.43718">
        <ele>1911.2</ele>
        <time>2022-07-17T10:00:04Z</time>
      </trkpt>
      <trkpt lat="45.08637" lon="6.4372">
        <ele>1911.6</ele>
        <time>2022-07-17T10:00:05Z</time>
      </trkpt>
      <trkpt lat="45.08635" lon="6.43722">
        <ele>1911.6</ele>
        <time>2022-07-17T10:00:06Z</time>
      </trkpt>
      <trkpt lat="45.08633" lon="6.43724">
        <ele>1912</ele>
        <time>2022-07-17T10:00:07Z</time>
      </trkpt>
      <trkpt lat="45.08631" lon="6.43726">
        <ele>1912</ele>
        <time>2022-07-17T10:00:08Z</time>
      </trkpt>
      <trkpt lat="45.08629" lon="6.43728">
        <ele>1912.2</ele>
        <time>2022-07-17T10:00:09Z</time>
      </trkpt>
      <trkpt lat="45.08626" lon="6.4373">
        <ele>1912.6</ele>
        <time>2022-07-17T10:00:10Z</time>
      </trkpt>
      <trkpt lat="45.08624" lon="6.43732">
        <ele>1912.6</ele>
        <time>2022-07-17T10:00:11Z</time>
      </trkpt>
      <trkpt lat="45.08622" lon="6.43734">
        <ele>1912.6</ele>
        <time>2022-07-17T10:00:12Z</time>
      </trkpt>
      <trkpt lat="45.0862" lon="6.43736">
        <ele>1912.8</ele>
        <time>2022-07-17T10:00:13Z</time>
      </trkpt>
      <trkpt lat="45.08617" lon="6.43737">
        <ele>1912.8</ele>
        <time>2022-07-17T10:00:14Z</time>
      </trkpt>
      <trkpt lat="45.08615" lon="6.43739">
        <ele>1913</ele>
        <time>2022-07-17T10:00:15Z</time>
      </trkpt>
      <trkpt lat="45.08612" lon="6.4374">
        <ele>1913</ele>
        <time>2022-07-17T10:00:16Z</time>
      </trkpt>
      <trkpt lat="45.0861" lon="6.43741">
        <ele>1913.4</ele>
        <time>2022-07-17T10:00:17Z</time>
      </trkpt>
      <trkpt lat="45.08607" lon="6.43741">
        <ele>1913.4</ele>
        <time>2022-07-17T10:00:18Z</time>
      </trkpt>
      <trkpt lat="45.08604" lon="6.43741">
        <ele>1913.6</ele>
        <time>2022-07-17T10:00:19Z</time>
      </trkpt>
      <trkpt lat="45.08602" lon="6.4374">
        <ele>1913.6</ele>
        <time>2022-07-17T10:00:20Z</time>
      </trkpt>
      <trkpt lat="45.08599" lon="6.4374">
        <ele>1913.8</ele>
        <time>2022-07-17T10:00:21Z</time>
      </trkpt>
      <trkpt lat="45.08597" lon="6.43738">
        <ele>1913.8</ele>
        <time>2022-07-17T10:00:22Z</time>
      </trkpt>
      <trkpt lat="45.08595" lon="6.43737">
        <ele>1914.2</ele>
        <time>2022-07-17T10:00:23Z</time>
      </trkpt>
      <trkpt lat="45.08592" lon="6.43735">
        <ele>1914.2</ele>
        <time>2022-07-17T10:00:24Z</time>
      </trkpt>
      <trkpt lat="45.0859" lon="6.43733">
        <ele>1914.4</ele>
        <time>2022-07-17T10:00:25Z</time>
      </trkpt>
      <trkpt lat="45.08588" lon="6.43731">
        <ele>1914.6</ele>
        <time>2022-07-17T10:00:26Z</time>
      </trkpt>
      <trkpt lat="45.08587" lon="6.43729">
        <ele>1914.6</ele>
        <time>2022-07-17T10:00:27Z</time>
      </trkpt>
      <trkpt lat="45.08585" lon="6.43726">
        <ele>1914.6</ele>
        <time>2022-07-17T10:00:28Z</time>
      </trkpt>
      <trkpt lat="45.08583" lon="6.43724">
        <ele>1914.8</ele>
        <time>2022-07-17T10:00:29Z</time>
      </trkpt>
      <trkpt lat="45.08582" lon="6.43721">
        <ele>1914.8</ele>
        <time>2022-07-17T10:00:30Z</time>
      </trkpt>
      <trkpt lat="45.0858" lon="6.43719">
        <ele>1914.8</ele>
        <time>2022-07-17T10:00:31Z</time>
      </trkpt>
      <trkpt lat="45.08579" lon="6.43716">
        <ele>1914.8</ele>
        <time>2022-07-17T10:00:32Z</time>
      </trkpt>
      <trkpt lat="45.08578" lon="6.43713">
        <ele>1914.8</ele>
        <time>2022-07-17T10:00:33Z</time>
      </trkpt>
      <trkpt lat="45.08577" lon="6.43711">
        <ele>1914.8</ele>
        <time>2022-07-17T10:00:34Z</time>
      </trkpt>
      <trkpt lat="45.08576" lon="6.43707">
        <ele>1914.8</ele>
        <time>2022-07-17T10:00:35Z</time>
      </trkpt>
      <trkpt lat="45.08574" lon="6.43704">
        <ele>1915</ele>
        <time>2022-07-17T10:00:36Z</time>
      </trkpt>
      <trkpt lat="45.08573" lon="6.437">
        <ele>1915</ele>
        <time>2022-07-17T10:00:37Z</time>
      </trkpt>
      <trkpt lat="45.08573" lon="6.43697">
        <ele>1915</ele>
        <time>2022-07-17T10:00:38Z</time>
      </trkpt>
      <trkpt lat="45.08572" lon="6.43692">
        <ele>1915</ele>
        <time>2022-07-17T10:00:39Z</time>
      </trkpt>
      <trkpt lat="45.08572" lon="6.43688">
        <ele>1915</ele>
        <time>2022-07-17T10:00:40Z</time>
      </trkpt>
      <trkpt lat="45.08573" lon="6.43684">
        <ele>1915</ele>
        <time>2022-07-17T10:00:41Z</time>
      </trkpt>
      <trkpt lat="45.08573" lon="6.4368">
        <ele>1915</ele>
        <time>2022-07-17T10:00:42Z</time>
      </trkpt>
      <trkpt lat="45.08573" lon="6.43676">
        <ele>1915.2</ele>
        <time>2022-07-17T10:00:43Z</time>
      </trkpt>
      <trkpt lat="45.08573" lon="6.43673">
        <ele>1915.2</ele>
        <time>2022-07-17T10:00:44Z</time>
      </trkpt>
      <trkpt lat="45.08574" lon="6.43671">
        <ele>1915.2</ele>
        <time>2022-07-17T10:00:45Z</time>
      </trkpt>
      <trkpt lat="45.08575" lon="6.43669">
        <ele>1915.2</ele>
        <time>2022-07-17T10:00:46Z</time>
      </trkpt>
      <trkpt lat="45.08575" lon="6.43668">
        <ele>1915.2</ele>
        <time>2022-07-17T10:00:47Z</time>
      </trkpt>
      <trkpt lat="45.08576" lon="6.43668">
        <ele>1915.2</ele>
        <time>2022-07-17T10:00:48Z</time>
      </trkpt>
      <trkpt lat="45.08577" lon="6.4366">
        <ele>1915.8</ele>
        <time>2022-07-17T10:07:08Z</time>
      </trkpt>
      <trkpt lat="45.08578" lon="6.43658">
        <ele>1916</ele>
        <time>2022-07-17T10:07:09Z</time>
      </trkpt>
      <trkpt lat="45.08578" lon="6.43656">
        <ele>1916</ele>
        <time>2022-07-17T10:07:10Z</time>
      </trkpt>
      <trkpt lat="45.08579" lon="6.43653">
        <ele>1916</ele>
        <time>2022-07-17T10:07:11Z</time>
      </trkpt>
      <trkpt lat="45.08581" lon="6.4365">
        <ele>1916.2</ele>
        <time>2022-07-17T10:07:12Z</time>
      </trkpt>
      <trkpt lat="45.08582" lon="6.43647">
        <ele>1916.2</ele>
        <time>2022-07-17T10:07:13Z</time>
      </trkpt>
      <trkpt lat="45.08584" lon="6.43645">
        <ele>1916.2</ele>
        <time>2022-07-17T10:07:14Z</time>
      </trkpt>
      <trkpt lat="45.08585" lon="6.43642">
        <ele>1916.6</ele>
        <time>2022-07-17T10:07:15Z</time>
      </trkpt>
      <trkpt lat="45.08586" lon="6.43639">
        <ele>1916.6</ele>
        <time>2022-07-17T10:07:16Z</time>
      </trkpt>
      <trkpt lat="45.08588" lon="6.43636">
        <ele>1916.8</ele>
        <time>2022-07-17T10:07:17Z</time>
      </trkpt>
      <trkpt lat="45.08589" lon="6.43633">
        <ele>1916.8</ele>
        <time>2022-07-17T10:07:18Z</time>
      </trkpt>
      <trkpt lat="45.08591" lon="6.4363">
        <ele>1917.2</ele>
        <time>2022-07-17T10:07:19Z</time>
      </trkpt>
      <trkpt lat="45.08592" lon="6.43627">
        <ele>1917.2</ele>
        <time>2022-07-17T10:07:20Z</time>
      </trkpt>
      <trkpt lat="45.08593" lon="6.43625">
        <ele>1917.6</ele>
        <time>2022-07-17T10:07:21Z</time>
      </trkpt>
      <trkpt lat="45.08594" lon="6.43622">
        <ele>1918</ele>
        <time>2022-07-17T10:07:22Z</time>
      </trkpt>
      <trkpt lat="45.08595" lon="6.43619">
        <ele>1918.2</ele>
        <time>2022-07-17T10:07:23Z</time>
      </trkpt>
      <trkpt lat="45.08596" lon="6.43616">
        <ele>1918.2</ele>
        <time>2022-07-17T10:07:24Z</time>
      </trkpt>
      <trkpt lat="45.08597" lon="6.43613">
        <ele>1918.6</ele>
        <time>2022-07-17T10:07:25Z</time>
      </trkpt>
      <trkpt lat="45.08598" lon="6.4361">
        <ele>1918.6</ele>
        <time>2022-07-17T10:07:26Z</time>
      </trkpt>
      <trkpt lat="45.08599" lon="6.43607">
        <ele>1919.4</ele>
        <time>2022-07-17T10:07:28Z</time>
      </trkpt>
      <trkpt lat="45.086" lon="6.43604">
        <ele>1919.6</ele>
        <time>2022-07-17T10:07:29Z</time>
      </trkpt>
      <trkpt lat="45.08601" lon="6.43601">
        <ele>1919.8</ele>
        <time>2022-07-17T10:07:30Z</time>
      </trkpt>
      <trkpt lat="45.08602" lon="6.43597">
        <ele>1920</ele>
        <time>2022-07-17T10:07:31Z</time>
      </trkpt>
      <trkpt lat="45.08603" lon="6.43594">
        <ele>1920.2</ele>
        <time>2022-07-17T10:07:32Z</time>
      </trkpt>
      <trkpt lat="45.08604" lon="6.43591">
        <ele>1920.4</ele>
        <time>2022-07-17T10:07:33Z</time>
      </trkpt>
      <trkpt lat="45.08605" lon="6.43588">
        <ele>1920.4</ele>
        <time>2022-07-17T10:07:34Z</time>
      </trkpt>
      <trkpt lat="45.08605" lon="6.43585">
        <ele>1921</ele>
        <time>2022-07-17T10:07:35Z</time>
      </trkpt>
      <trkpt lat="45.08606" lon="6.43582">
        <ele>1921.4</ele>
        <time>2022-07-17T10:07:36Z</time>
      </trkpt>
      <trkpt lat="45.08607" lon="6.43579">
        <ele>1921.4</ele>
        <time>2022-07-17T10:07:37Z</time>
      </trkpt>
      <trkpt lat="45.08608" lon="6.43576">
        <ele>1921.4</ele>
        <time>2022-07-17T10:07:38Z</time>
      </trkpt>
      <trkpt lat="45.08609" lon="6.43573">
        <ele>1921.6</ele>
        <time>2022-07-17T10:07:39Z</time>
      </trkpt>
      <trkpt lat="45.0861" lon="6.4357">
        <ele>1921.6</ele>
        <time>2022-07-17T10:07:40Z</time>
      </trkpt>
      <trkpt lat="45.08611" lon="6.43567">
        <ele>1922</ele>
        <time>2022-07-17T10:07:41Z</time>
      </trkpt>
      <trkpt lat="45.08612" lon="6.43565">
        <ele>1922</ele>
        <time>2022-07-17T10:07:42Z</time>
      </trkpt>
      <trkpt lat="45.08613" lon="6.43562">
        <ele>1922.4</ele>
        <time>2022-07-17T10:07:43Z</time>
      </trkpt>
      <trkpt lat="45.08615" lon="6.4356">
        <ele>1922.4</ele>
        <time>2022-07-17T10:07:44Z</time>
      </trkpt>
      <trkpt lat="45.08616" lon="6.43558">
        <ele>1922.8</ele>
        <time>2022-07-17T10:07:45Z</time>
      </trkpt>
      <trkpt lat="45.08617" lon="6.43555">
        <ele>1923</ele>
        <time>2022-07-17T10:07:46Z</time>
      </trkpt>
      <trkpt lat="45.08618" lon="6.43553">
        <ele>1923</ele>
        <time>2022-07-17T10:07:47Z</time>
      </trkpt>
      <trkpt lat="45.0862" lon="6.43551">
        <ele>1923.4</ele>
        <time>2022-07-17T10:07:48Z</time>
      </trkpt>
      <trkpt lat="45.08621" lon="6.43549">
        <ele>1923.4</ele>
        <time>2022-07-17T10:07:49Z</time>
      </trkpt>
      <trkpt lat="45.08622" lon="6.43547">
        <ele>1923.8</ele>
        <time>2022-07-17T10:07:50Z</time>
      </trkpt>
      <trkpt lat="45.08624" lon="6.43545">
        <ele>1924</ele>
        <time>2022-07-17T10:07:51Z</time>
      </trkpt>
      <trkpt lat="45.08625" lon="6.43543">
        <ele>1924</ele>
        <time>2022-07-17T10:07:52Z</time>
      </trkpt>
      <trkpt lat="45.08626" lon="6.43541">
        <ele>1924.2</ele>
        <time>2022-07-17T10:07:53Z</time>
      </trkpt>
      <trkpt lat="45.08628" lon="6.43539">
        <ele>1924.4</ele>
        <time>2022-07-17T10:07:54Z</time>
      </trkpt>
      <trkpt lat="45.08629" lon="6.43537">
        <ele>1924.4</ele>
        <time>2022-07-17T10:07:55Z</time>
      </trkpt>
      <trkpt lat="45.08631" lon="6.43535">
        <ele>1924.8</ele>
        <time>2022-07-17T10:07:56Z</time>
      </trkpt>
      <trkpt lat="45.08632" lon="6.43533">
        <ele>1924.8</ele>
        <time>2022-07-17T10:07:57Z</time>
      </trkpt>
      <trkpt lat="45.08634" lon="6.43531">
        <ele>1925.2</ele>
        <time>2022-07-17T10:07:58Z</time>
      </trkpt>
      <trkpt lat="45.08635" lon="6.43529">
        <ele>1925.2</ele>
        <time>2022-07-17T10:07:59Z</time>
      </trkpt>
      <trkpt lat="45.08636" lon="6.43527">
        <ele>1925.4</ele>
        <time>2022-07-17T10:08:00Z</time>
      </trkpt>
      <trkpt lat="45.08637" lon="6.43525">
        <ele>1925.4</ele>
        <time>2022-07-17T10:08:01Z</time>
      </trkpt>
      <trkpt lat="45.08639" lon="6.43523">
        <ele>1925.8</ele>
        <time>2022-07-17T10:08:02Z</time>
      </trkpt>
      <trkpt lat="45.0864" lon="6.43521">
        <ele>1926.2</ele>
        <time>2022-07-17T10:08:03Z</time>
      </trkpt>
      <trkpt lat="45.08642" lon="6.43518">
        <ele>1926.4</ele>
        <time>2022-07-17T10:08:04Z</time>
      </trkpt>
      <trkpt lat="45.08643" lon="6.43517">
        <ele>1926.4</ele>
        <time>2022-07-17T10:08:05Z</time>
      </trkpt>
      <trkpt lat="45.08644" lon="6.43515">
        <ele>1926.6</ele>
        <time>2022-07-17T10:08:06Z</time>
      </trkpt>
      <trkpt lat="45.08646" lon="6.43512">
        <ele>1926.6</ele>
        <time>2022-07-17T10:08:07Z</time>
      </trkpt>
      <trkpt lat="45.08647" lon="6.4351">
        <ele>1927</ele>
        <time>2022-07-17T10:08:08Z</time>
      </trkpt>
      <trkpt lat="45.08649" lon="6.43508">
        <ele>1927.2</ele>
        <time>2022-07-17T10:08:09Z</time>
      </trkpt>
      <trkpt lat="45.0865" lon="6.43506">
        <ele>1927.4</ele>
        <time>2022-07-17T10:08:10Z</time>
      </trkpt>
      <trkpt lat="45.08652" lon="6.43504">
        <ele>1927.4</ele>
        <time>2022-07-17T10:08:11Z</time>
      </trkpt>
      <trkpt lat="45.08653" lon="6.43502">
        <ele>1927.8</ele>
        <time>2022-07-17T10:08:12Z</time>
      </trkpt>
      <trkpt lat="45.08655" lon="6.435">
        <ele>1928</ele>
        <time>2022-07-17T10:08:13Z</time>
      </trkpt>
      <trkpt lat="45.08656" lon="6.43498">
        <ele>1928</ele>
        <time>2022-07-17T10:08:14Z</time>
      </trkpt>
      <trkpt lat="45.08658" lon="6.43496">
        <ele>1928.4</ele>
        <time>2022-07-17T10:08:15Z</time>
      </trkpt>
      <trkpt lat="45.08659" lon="6.43494">
        <ele>1928.4</ele>
        <time>2022-07-17T10:08:16Z</time>
      </trkpt>
      <trkpt lat="45.0866" lon="6.43492">
        <ele>1928.6</ele>
        <time>2022-07-17T10:08:17Z</time>
      </trkpt>
      <trkpt lat="45.08661" lon="6.4349">
        <ele>1928.6</ele>
        <time>2022-07-17T10:08:18Z</time>
      </trkpt>
      <trkpt lat="45.08663" lon="6.43488">
        <ele>1929</ele>
        <time>2022-07-17T10:08:19Z</time>
      </trkpt>
      <trkpt lat="45.08664" lon="6.43486">
        <ele>1929.2</ele>
        <time>2022-07-17T10:08:20Z</time>
      </trkpt>
      <trkpt lat="45.08665" lon="6.43484">
        <ele>1929.6</ele>
        <time>2022-07-17T10:08:21Z</time>
      </trkpt>
      <trkpt lat="45.08666" lon="6.43482">
        <ele>1929.6</ele>
        <time>2022-07-17T10:08:22Z</time>
      </trkpt>
      <trkpt lat="45.08667" lon="6.43481">
        <ele>1929.8</ele>
        <time>2022-07-17T10:08:23Z</time>
      </trkpt>
      <trkpt lat="45.08669" lon="6.43479">
        <ele>1930.2</ele>
        <time>2022-07-17T10:08:24Z</time>
      </trkpt>
      <trkpt lat="45.0867" lon="6.43477">
        <ele>1930.4</ele>
        <time>2022-07-17T10:08:25Z</time>
      </trkpt>
      <trkpt lat="45.08671" lon="6.43475">
        <ele>1930.4</ele>
        <time>2022-07-17T10:08:26Z</time>
      </trkpt>
      <trkpt lat="45.08672" lon="6.43473">
        <ele>1930.6</ele>
        <time>2022-07-17T10:08:27Z</time>
      </trkpt>
      <trkpt lat="45.08674" lon="6.43471">
        <ele>1930.8</ele>
        <time>2022-07-17T10:08:28Z</time>
      </trkpt>
      <trkpt lat="45.08675" lon="6.43469">
        <ele>1931.2</ele>
        <time>2022-07-17T10:08:29Z</time>
      </trkpt>
      <trkpt lat="45.08676" lon="6.43467">
        <ele>1931.2</ele>
        <time>2022-07-17T10:08:30Z</time>
      </trkpt>
      <trkpt lat="45.08677" lon="6.43465">
        <ele>1931.4</ele>
        <time>2022-07-17T10:08:31Z</time>
      </trkpt>
      <trkpt lat="45.08679" lon="6.43463">
        <ele>1931.8</ele>
        <time>2022-07-17T10:08:32Z</time>
      </trkpt>
      <trkpt lat="45.0868" lon="6.43461">
        <ele>1932</ele>
        <time>2022-07-17T10:08:33Z</time>
      </trkpt>
      <trkpt lat="45.08681" lon="6.43459">
        <ele>1932.2</ele>
        <time>2022-07-17T10:08:34Z</time>
      </trkpt>
      <trkpt lat="45.08682" lon="6.43457">
        <ele>1932.4</ele>
        <time>2022-07-17T10:08:35Z</time>
      </trkpt>
      <trkpt lat="45.08684" lon="6.43455">
        <ele>1932.6</ele>
        <time>2022-07-17T10:08:36Z</time>
      </trkpt>
      <trkpt lat="45.08685" lon="6.43453">
        <ele>1933</ele>
        <time>2022-07-17T10:08:37Z</time>
      </trkpt>
      <trkpt lat="45.08687" lon="6.43451">
        <ele>1933</ele>
        <time>2022-07-17T10:08:38Z</time>
      </trkpt>
      <trkpt lat="45.08688" lon="6.43449">
        <ele>1933.2</ele>
        <time>2022-07-17T10:08:39Z</time>
      </trkpt>
      <trkpt lat="45.08689" lon="6.43447">
        <ele>1933.4</ele>
        <time>2022-07-17T10:08:40Z</time>
      </trkpt>
      <trkpt lat="45.0869" lon="6.43445">
        <ele>1933.4</ele>
        <time>2022-07-17T10:08:41Z</time>
      </trkpt>
      <trkpt lat="45.08691" lon="6.43443">
        <ele>1933.8</ele>
        <time>2022-07-17T10:08:42Z</time>
      </trkpt>
      <trkpt lat="45.08693" lon="6.43441">
        <ele>1934</ele>
        <time>2022-07-17T10:08:43Z</time>
      </trkpt>
      <trkpt lat="45.08694" lon="6.43439">
        <ele>1934</ele>
        <time>2022-07-17T10:08:44Z</time>
      </trkpt>
      <trkpt lat="45.08695" lon="6.43437">
        <ele>1934.4</ele>
        <time>2022-07-17T10:08:45Z</time>
      </trkpt>
      <trkpt lat="45.08697" lon="6.43435">
        <ele>1934.4</ele>
        <time>2022-07-17T10:08:46Z</time>
      </trkpt>
      <trkpt lat="45.08699" lon="6.43434">
        <ele>1934.8</ele>
        <time>2022-07-17T10:08:47Z</time>
      </trkpt>
      <trkpt lat="45.08701" lon="6.43432">
        <ele>1934.8</ele>
        <time>2022-07-17T10:08:48Z</time>
      </trkpt>
      <trkpt lat="45.08702" lon="6.43431">
        <ele>1935</ele>
        <time>2022-07-17T10:08:49Z</time>
      </trkpt>
      <trkpt lat="45.08704" lon="6.4343">
        <ele>1935</ele>
        <time>2022-07-17T10:08:50Z</time>
      </trkpt>
      <trkpt lat="45.08705" lon="6.43429">
        <ele>1935.4</ele>
        <time>2022-07-17T10:08:51Z</time>
      </trkpt>
      <trkpt lat="45.08707" lon="6.43428">
        <ele>1935.4</ele>
        <time>2022-07-17T10:08:52Z</time>
      </trkpt>
      <trkpt lat="45.08708" lon="6.43426">
        <ele>1935.8</ele>
        <time>2022-07-17T10:08:53Z</time>
      </trkpt>
      <trkpt lat="45.0871" lon="6.43425">
        <ele>1936.2</ele>
        <time>2022-07-17T10:08:54Z</time>
      </trkpt>
      <trkpt lat="45.08711" lon="6.43424">
        <ele>1936.4</ele>
        <time>2022-07-17T10:08:55Z</time>
      </trkpt>
      <trkpt lat="45.08713" lon="6.43422">
        <ele>1936.6</ele>
        <time>2022-07-17T10:08:56Z</time>
      </trkpt>
      <trkpt lat="45.08714" lon="6.4342">
        <ele>1936.8</ele>
        <time>2022-07-17T10:08:57Z</time>
      </trkpt>
      <trkpt lat="45.08716" lon="6.43419">
        <ele>1936.8</ele>
        <time>2022-07-17T10:08:58Z</time>
      </trkpt>
      <trkpt lat="45.08718" lon="6.43417">
        <ele>1937.2</ele>
        <time>2022-07-17T10:08:59Z</time>
      </trkpt>
      <trkpt lat="45.08719" lon="6.43416">
        <ele>1937.4</ele>
        <time>2022-07-17T10:09:00Z</time>
      </trkpt>
      <trkpt lat="45.08721" lon="6.43414">
        <ele>1937.4</ele>
        <time>2022-07-17T10:09:01Z</time>
      </trkpt>
      <trkpt lat="45.08723" lon="6.43413">
        <ele>1937.6</ele>
        <time>2022-07-17T10:09:02Z</time>
      </trkpt>
      <trkpt lat="45.08724" lon="6.43411">
        <ele>1937.6</ele>
        <time>2022-07-17T10:09:03Z</time>
      </trkpt>
      <trkpt lat="45.08726" lon="6.43409">
        <ele>1938</ele>
        <time>2022-07-17T10:09:04Z</time>
      </trkpt>
      <trkpt lat="45.08728" lon="6.43408">
        <ele>1938</ele>
        <time>2022-07-17T10:09:05Z</time>
      </trkpt>
      <trkpt lat="45.08729" lon="6.43406">
        <ele>1938.2</ele>
        <time>2022-07-17T10:09:06Z</time>
      </trkpt>
      <trkpt lat="45.0873" lon="6.43405">
        <ele>1938.4</ele>
        <time>2022-07-17T10:09:07Z</time>
      </trkpt>
      <trkpt lat="45.08732" lon="6.43403">
        <ele>1938.4</ele>
        <time>2022-07-17T10:09:08Z</time>
      </trkpt>
      <trkpt lat="45.08733" lon="6.43402">
        <ele>1938.8</ele>
        <time>2022-07-17T10:09:09Z</time>
      </trkpt>
      <trkpt lat="45.08735" lon="6.434">
        <ele>1939</ele>
        <time>2022-07-17T10:09:10Z</time>
      </trkpt>
      <trkpt lat="45.08736" lon="6.43399">
        <ele>1939</ele>
        <time>2022-07-17T10:09:11Z</time>
      </trkpt>
      <trkpt lat="45.08738" lon="6.43398">
        <ele>1939.4</ele>
        <time>2022-07-17T10:09:12Z</time>
      </trkpt>
      <trkpt lat="45.08739" lon="6.43396">
        <ele>1939.4</ele>
        <time>2022-07-17T10:09:13Z</time>
      </trkpt>
      <trkpt lat="45.08741" lon="6.43395">
        <ele>1939.8</ele>
        <time>2022-07-17T10:09:14Z</time>
      </trkpt>
      <trkpt lat="45.08742" lon="6.43394">
        <ele>1939.8</ele>
        <time>2022-07-17T10:09:15Z</time>
      </trkpt>
      <trkpt lat="45.08744" lon="6.43392">
        <ele>1940.2</ele>
        <time>2022-07-17T10:09:16Z</time>
      </trkpt>
      <trkpt lat="45.08745" lon="6.43391">
        <ele>1940.4</ele>
        <time>2022-07-17T10:09:17Z</time>
      </trkpt>
      <trkpt lat="45.08747" lon="6.4339">
        <ele>1940.8</ele>
        <time>2022-07-17T10:09:18Z</time>
      </trkpt>
      <trkpt lat="45.08748" lon="6.43388">
        <ele>1940.8</ele>
        <time>2022-07-17T10:09:19Z</time>
      </trkpt>
      <trkpt lat="45.0875" lon="6.43387">
        <ele>1941.2</ele>
        <time>2022-07-17T10:09:20Z</time>
      </trkpt>
      <trkpt lat="45.08752" lon="6.43385">
        <ele>1941.2</ele>
        <time>2022-07-17T10:09:21Z</time>
      </trkpt>
      <trkpt lat="45.08753" lon="6.43384">
        <ele>1941.6</ele>
        <time>2022-07-17T10:09:22Z</time>
      </trkpt>
      <trkpt lat="45.08755" lon="6.43382">
        <ele>1941.6</ele>
        <time>2022-07-17T10:09:23Z</time>
      </trkpt>
      <trkpt lat="45.08757" lon="6.4338">
        <ele>1942</ele>
        <time>2022-07-17T10:09:24Z</time>
      </trkpt>
      <trkpt lat="45.08758" lon="6.43378">
        <ele>1942.2</ele>
        <time>2022-07-17T10:09:25Z</time>
      </trkpt>
      <trkpt lat="45.0876" lon="6.43377">
        <ele>1942.2</ele>
        <time>2022-07-17T10:09:26Z</time>
      </trkpt>
      <trkpt lat="45.08762" lon="6.43375">
        <ele>1942.6</ele>
        <time>2022-07-17T10:09:27Z</time>
      </trkpt>
      <trkpt lat="45.08764" lon="6.43374">
        <ele>1942.6</ele>
        <time>2022-07-17T10:09:28Z</time>
      </trkpt>
      <trkpt lat="45.08766" lon="6.43373">
        <ele>1943</ele>
        <time>2022-07-17T10:09:29Z</time>
      </trkpt>
      <trkpt lat="45.08768" lon="6.43372">
        <ele>1943</ele>
        <time>2022-07-17T10:09:30Z</time>
      </trkpt>
      <trkpt lat="45.0877" lon="6.4337">
        <ele>1943.2</ele>
        <time>2022-07-17T10:09:31Z</time>
      </trkpt>
      <trkpt lat="45.08772" lon="6.43368">
        <ele>1943.2</ele>
        <time>2022-07-17T10:09:32Z</time>
      </trkpt>
      <trkpt lat="45.08773" lon="6.43367">
        <ele>1943.6</ele>
        <time>2022-07-17T10:09:33Z</time>
      </trkpt>
      <trkpt lat="45.08775" lon="6.43365">
        <ele>1943.8</ele>
        <time>2022-07-17T10:09:34Z</time>
      </trkpt>
      <trkpt lat="45.08777" lon="6.43364">
        <ele>1944.2</ele>
        <time>2022-07-17T10:09:35Z</time>
      </trkpt>
      <trkpt lat="45.08779" lon="6.43362">
        <ele>1944.2</ele>
        <time>2022-07-17T10:09:36Z</time>
      </trkpt>
      <trkpt lat="45.08781" lon="6.43361">
        <ele>1944.4</ele>
        <time>2022-07-17T10:09:37Z</time>
      </trkpt>
      <trkpt lat="45.08783" lon="6.4336">
        <ele>1944.8</ele>
        <time>2022-07-17T10:09:38Z</time>
      </trkpt>
      <trkpt lat="45.08784" lon="6.43358">
        <ele>1945</ele>
        <time>2022-07-17T10:09:39Z</time>
      </trkpt>
      <trkpt lat="45.08786" lon="6.43357">
        <ele>1945</ele>
        <time>2022-07-17T10:09:40Z</time>
      </trkpt>
      <trkpt lat="45.08788" lon="6.43355">
        <ele>1945.4</ele>
        <time>2022-07-17T10:09:41Z</time>
      </trkpt>
      <trkpt lat="45.08789" lon="6.43353">
        <ele>1945.6</ele>
        <time>2022-07-17T10:09:42Z</time>
      </trkpt>
      <trkpt lat="45.08791" lon="6.43351">
        <ele>1945.6</ele>
        <time>2022-07-17T10:09:43Z</time>
      </trkpt>
      <trkpt lat="45.08792" lon="6.43349">
        <ele>1946</ele>
        <time>2022-07-17T10:09:44Z</time>
      </trkpt>
      <trkpt lat="45.08794" lon="6.43348">
        <ele>1946.2</ele>
        <time>2022-07-17T10:09:45Z</time>
      </trkpt>
      <trkpt lat="45.08795" lon="6.43346">
        <ele>1946.6</ele>
        <time>2022-07-17T10:09:46Z</time>
      </trkpt>
      <trkpt lat="45.08797" lon="6.43343">
        <ele>1946.6</ele>
        <time>2022-07-17T10:09:47Z</time>
      </trkpt>
      <trkpt lat="45.08798" lon="6.43341">
        <ele>1946.8</ele>
        <time>2022-07-17T10:09:48Z</time>
      </trkpt>
      <trkpt lat="45.08799" lon="6.43339">
        <ele>1946.8</ele>
        <time>2022-07-17T10:09:49Z</time>
      </trkpt>
      <trkpt lat="45.08801" lon="6.43337">
        <ele>1947.2</ele>
        <time>2022-07-17T10:09:50Z</time>
      </trkpt>
      <trkpt lat="45.08802" lon="6.43335">
        <ele>1947.2</ele>
        <time>2022-07-17T10:09:51Z</time>
      </trkpt>
      <trkpt lat="45.08804" lon="6.43333">
        <ele>1947.2</ele>
        <time>2022-07-17T10:09:52Z</time>
      </trkpt>
      <trkpt lat="45.08805" lon="6.43332">
        <ele>1947.4</ele>
        <time>2022-07-17T10:09:53Z</time>
      </trkpt>
      <trkpt lat="45.08806" lon="6.4333">
        <ele>1947.4</ele>
        <time>2022-07-17T10:09:54Z</time>
      </trkpt>
      <trkpt lat="45.08807" lon="6.43327">
        <ele>1947.8</ele>
        <time>2022-07-17T10:09:55Z</time>
      </trkpt>
      <trkpt lat="45.08808" lon="6.43325">
        <ele>1947.8</ele>
        <time>2022-07-17T10:09:56Z</time>
      </trkpt>
      <trkpt lat="45.0881" lon="6.43323">
        <ele>1948</ele>
        <time>2022-07-17T10:09:57Z</time>
      </trkpt>
      <trkpt lat="45.08811" lon="6.43321">
        <ele>1948</ele>
        <time>2022-07-17T10:09:58Z</time>
      </trkpt>
      <trkpt lat="45.08812" lon="6.43319">
        <ele>1948.4</ele>
        <time>2022-07-17T10:09:59Z</time>
      </trkpt>
      <trkpt lat="45.08813" lon="6.43316">
        <ele>1948.4</ele>
        <time>2022-07-17T10:10:00Z</time>
      </trkpt>
      <trkpt lat="45.08814" lon="6.43314">
        <ele>1948.6</ele>
        <time>2022-07-17T10:10:01Z</time>
      </trkpt>
      <trkpt lat="45.08814" lon="6.43311">
        <ele>1948.6</ele>
        <time>2022-07-17T10:10:02Z</time>
      </trkpt>
      <trkpt lat="45.08815" lon="6.43309">
        <ele>1949</ele>
        <time>2022-07-17T10:10:03Z</time>
      </trkpt>
      <trkpt lat="45.08816" lon="6.43306">
        <ele>1949</ele>
        <time>2022-07-17T10:10:04Z</time>
      </trkpt>
      <trkpt lat="45.08817" lon="6.43304">
        <ele>1949.2</ele>
        <time>2022-07-17T10:10:05Z</time>
      </trkpt>
      <trkpt lat="45.08818" lon="6.43301">
        <ele>1949.2</ele>
        <time>2022-07-17T10:10:06Z</time>
      </trkpt>
      <trkpt lat="45.08819" lon="6.43299">
        <ele>1949.4</ele>
        <time>2022-07-17T10:10:07Z</time>
      </trkpt>
      <trkpt lat="45.08819" lon="6.43296">
        <ele>1949.4</ele>
        <time>2022-07-17T10:10:08Z</time>
      </trkpt>
      <trkpt lat="45.0882" lon="6.43294">
        <ele>1949.8</ele>
        <time>2022-07-17T10:10:09Z</time>
      </trkpt>
      <trkpt lat="45.0882" lon="6.43291">
        <ele>1950</ele>
        <time>2022-07-17T10:10:10Z</time>
      </trkpt>
      <trkpt lat="45.0882" lon="6.43288">
        <ele>1950</ele>
        <time>2022-07-17T10:10:11Z</time>
      </trkpt>
      <trkpt lat="45.08821" lon="6.43285">
        <ele>1950</ele>
        <time>2022-07-17T10:10:12Z</time>
      </trkpt>
      <trkpt lat="45.08822" lon="6.43283">
        <ele>1950.2</ele>
        <time>2022-07-17T10:10:13Z</time>
      </trkpt>
      <trkpt lat="45.08822" lon="6.4328">
        <ele>1950.4</ele>
        <time>2022-07-17T10:10:14Z</time>
      </trkpt>
      <trkpt lat="45.08822" lon="6.43278">
        <ele>1950.4</ele>
        <time>2022-07-17T10:10:15Z</time>
      </trkpt>
      <trkpt lat="45.08822" lon="6.43275">
        <ele>1950.8</ele>
        <time>2022-07-17T10:10:16Z</time>
      </trkpt>
      <trkpt lat="45.08822" lon="6.43272">
        <ele>1950.8</ele>
        <time>2022-07-17T10:10:17Z</time>
      </trkpt>
      <trkpt lat="45.08822" lon="6.43269">
        <ele>1951.2</ele>
        <time>2022-07-17T10:10:18Z</time>
      </trkpt>
      <trkpt lat="45.08823" lon="6.43267">
        <ele>1951.2</ele>
        <time>2022-07-17T10:10:19Z</time>
      </trkpt>
      <trkpt lat="45.08823" lon="6.43264">
        <ele>1951.4</ele>
        <time>2022-07-17T10:10:20Z</time>
      </trkpt>
      <trkpt lat="45.08824" lon="6.43262">
        <ele>1951.4</ele>
        <time>2022-07-17T10:10:21Z</time>
      </trkpt>
      <trkpt lat="45.08824" lon="6.43259">
        <ele>1951.8</ele>
        <time>2022-07-17T10:10:22Z</time>
      </trkpt>
      <trkpt lat="45.08824" lon="6.43257">
        <ele>1952</ele>
        <time>2022-07-17T10:10:23Z</time>
      </trkpt>
      <trkpt lat="45.08825" lon="6.43254">
        <ele>1952.2</ele>
        <time>2022-07-17T10:10:24Z</time>
      </trkpt>
      <trkpt lat="45.08826" lon="6.43252">
        <ele>1952.2</ele>
        <time>2022-07-17T10:10:25Z</time>
      </trkpt>
      <trkpt lat="45.08827" lon="6.4325">
        <ele>1952.6</ele>
        <time>2022-07-17T10:10:26Z</time>
      </trkpt>
      <trkpt lat="45.08828" lon="6.43249">
        <ele>1952.6</ele>
        <time>2022-07-17T10:10:27Z</time>
      </trkpt>
      <trkpt lat="45.0883" lon="6.43247">
        <ele>1953</ele>
        <time>2022-07-17T10:10:28Z</time>
      </trkpt>
      <trkpt lat="45.08832" lon="6.43246">
        <ele>1953</ele>
        <time>2022-07-17T10:10:29Z</time>
      </trkpt>
      <trkpt lat="45.08833" lon="6.43244">
        <ele>1953.4</ele>
        <time>2022-07-17T10:10:30Z</time>
      </trkpt>
      <trkpt lat="45.08835" lon="6.43243">
        <ele>1953.6</ele>
        <time>2022-07-17T10:10:31Z</time>
      </trkpt>
      <trkpt lat="45.08837" lon="6.43241">
        <ele>1953.8</ele>
        <time>2022-07-17T10:10:32Z</time>
      </trkpt>
      <trkpt lat="45.08839" lon="6.4324">
        <ele>1954.2</ele>
        <time>2022-07-17T10:10:33Z</time>
      </trkpt>
      <trkpt lat="45.0884" lon="6.43239">
        <ele>1954.4</ele>
        <time>2022-07-17T10:10:34Z</time>
      </trkpt>
      <trkpt lat="45.08842" lon="6.43238">
        <ele>1954.4</ele>
        <time>2022-07-17T10:10:35Z</time>
      </trkpt>
      <trkpt lat="45.08844" lon="6.43237">
        <ele>1954.8</ele>
        <time>2022-07-17T10:10:36Z</time>
      </trkpt>
      <trkpt lat="45.08845" lon="6.43236">
        <ele>1954.8</ele>
        <time>2022-07-17T10:10:37Z</time>
      </trkpt>
      <trkpt lat="45.08847" lon="6.43235">
        <ele>1955.2</ele>
        <time>2022-07-17T10:10:38Z</time>
      </trkpt>
      <trkpt lat="45.08849" lon="6.43233">
        <ele>1955.4</ele>
        <time>2022-07-17T10:10:39Z</time>
      </trkpt>
      <trkpt lat="45.08851" lon="6.43232">
        <ele>1955.6</ele>
        <time>2022-07-17T10:10:40Z</time>
      </trkpt>
      <trkpt lat="45.08853" lon="6.43231">
        <ele>1955.6</ele>
        <time>2022-07-17T10:10:41Z</time>
      </trkpt>
      <trkpt lat="45.08854" lon="6.4323">
        <ele>1956</ele>
        <time>2022-07-17T10:10:42Z</time>
      </trkpt>
      <trkpt lat="45.08856" lon="6.43228">
        <ele>1956.4</ele>
        <time>2022-07-17T10:10:43Z</time>
      </trkpt>
      <trkpt lat="45.08858" lon="6.43227">
        <ele>1956.6</ele>
        <time>2022-07-17T10:10:44Z</time>
      </trkpt>
      <trkpt lat="45.0886" lon="6.43226">
        <ele>1956.6</ele>
        <time>2022-07-17T10:10:45Z</time>
      </trkpt>
      <trkpt lat="45.08862" lon="6.43224">
        <ele>1957</ele>
        <time>2022-07-17T10:10:46Z</time>
      </trkpt>
      <trkpt lat="45.08863" lon="6.43223">
        <ele>1957.2</ele>
        <time>2022-07-17T10:10:47Z</time>
      </trkpt>
      <trkpt lat="45.08865" lon="6.43221">
        <ele>1957.4</ele>
        <time>2022-07-17T10:10:48Z</time>
      </trkpt>
      <trkpt lat="45.08866" lon="6.4322">
        <ele>1957.6</ele>
        <time>2022-07-17T10:10:49Z</time>
      </trkpt>
      <trkpt lat="45.08868" lon="6.43218">
        <ele>1957.8</ele>
        <time>2022-07-17T10:10:50Z</time>
      </trkpt>
      <trkpt lat="45.0887" lon="6.43217">
        <ele>1958.2</ele>
        <time>2022-07-17T10:10:51Z</time>
      </trkpt>
      <trkpt lat="45.08871" lon="6.43215">
        <ele>1958.4</ele>
        <time>2022-07-17T10:10:52Z</time>
      </trkpt>
      <trkpt lat="45.08873" lon="6.43214">
        <ele>1958.4</ele>
        <time>2022-07-17T10:10:53Z</time>
      </trkpt>
      <trkpt lat="45.08874" lon="6.43212">
        <ele>1958.6</ele>
        <time>2022-07-17T10:10:54Z</time>
      </trkpt>
      <trkpt lat="45.08876" lon="6.43211">
        <ele>1958.6</ele>
        <time>2022-07-17T10:10:55Z</time>
      </trkpt>
      <trkpt lat="45.08878" lon="6.43209">
        <ele>1959</ele>
        <time>2022-07-17T10:10:56Z</time>
      </trkpt>
      <trkpt lat="45.08879" lon="6.43207">
        <ele>1959</ele>
        <time>2022-07-17T10:10:57Z</time>
      </trkpt>
      <trkpt lat="45.08881" lon="6.43206">
        <ele>1959.4</ele>
        <time>2022-07-17T10:10:58Z</time>
      </trkpt>
      <trkpt lat="45.08883" lon="6.43204">
        <ele>1959.4</ele>
        <time>2022-07-17T10:10:59Z</time>
      </trkpt>
      <trkpt lat="45.08884" lon="6.43202">
        <ele>1959.6</ele>
        <time>2022-07-17T10:11:00Z</time>
      </trkpt>
      <trkpt lat="45.08886" lon="6.43201">
        <ele>1959.8</ele>
        <time>2022-07-17T10:11:01Z</time>
      </trkpt>
      <trkpt lat="45.08887" lon="6.43199">
        <ele>1960</ele>
        <time>2022-07-17T10:11:02Z</time>
      </trkpt>
      <trkpt lat="45.08889" lon="6.43197">
        <ele>1960.2</ele>
        <time>2022-07-17T10:11:03Z</time>
      </trkpt>
      <trkpt lat="45.0889" lon="6.43196">
        <ele>1960.6</ele>
        <time>2022-07-17T10:11:04Z</time>
      </trkpt>
      <trkpt lat="45.08892" lon="6.43195">
        <ele>1960.6</ele>
        <time>2022-07-17T10:11:05Z</time>
      </trkpt>
      <trkpt lat="45.08893" lon="6.43193">
        <ele>1960.8</ele>
        <time>2022-07-17T10:11:06Z</time>
      </trkpt>
      <trkpt lat="45.08895" lon="6.43191">
        <ele>1960.8</ele>
        <time>2022-07-17T10:11:07Z</time>
      </trkpt>
      <trkpt lat="45.08897" lon="6.4319">
        <ele>1961.2</ele>
        <time>2022-07-17T10:11:08Z</time>
      </trkpt>
      <trkpt lat="45.08899" lon="6.43189">
        <ele>1961.2</ele>
        <time>2022-07-17T10:11:09Z</time>
      </trkpt>
      <trkpt lat="45.089" lon="6.43187">
        <ele>1961.6</ele>
        <time>2022-07-17T10:11:10Z</time>
      </trkpt>
      <trkpt lat="45.08902" lon="6.43185">
        <ele>1961.6</ele>
        <time>2022-07-17T10:11:11Z</time>
      </trkpt>
      <trkpt lat="45.08904" lon="6.43184">
        <ele>1961.8</ele>
        <time>2022-07-17T10:11:12Z</time>
      </trkpt>
      <trkpt lat="45.08906" lon="6.43182">
        <ele>1962</ele>
        <time>2022-07-17T10:11:13Z</time>
      </trkpt>
      <trkpt lat="45.08908" lon="6.43181">
        <ele>1962.4</ele>
        <time>2022-07-17T10:11:14Z</time>
      </trkpt>
      <trkpt lat="45.0891" lon="6.4318">
        <ele>1962.6</ele>
        <time>2022-07-17T10:11:15Z</time>
      </trkpt>
      <trkpt lat="45.08912" lon="6.43179">
        <ele>1962.6</ele>
        <time>2022-07-17T10:11:16Z</time>
      </trkpt>
      <trkpt lat="45.08913" lon="6.43178">
        <ele>1963</ele>
        <time>2022-07-17T10:11:17Z</time>
      </trkpt>
      <trkpt lat="45.08915" lon="6.43177">
        <ele>1963.2</ele>
        <time>2022-07-17T10:11:18Z</time>
      </trkpt>
      <trkpt lat="45.08917" lon="6.43176">
        <ele>1963.6</ele>
        <time>2022-07-17T10:11:19Z</time>
      </trkpt>
      <trkpt lat="45.08919" lon="6.43175">
        <ele>1963.6</ele>
        <time>2022-07-17T10:11:20Z</time>
      </trkpt>
      <trkpt lat="45.08921" lon="6.43174">
        <ele>1964</ele>
        <time>2022-07-17T10:11:21Z</time>
      </trkpt>
      <trkpt lat="45.08923" lon="6.43172">
        <ele>1964.2</ele>
        <time>2022-07-17T10:11:22Z</time>
      </trkpt>
      <trkpt lat="45.08925" lon="6.43171">
        <ele>1964.4</ele>
        <time>2022-07-17T10:11:23Z</time>
      </trkpt>
      <trkpt lat="45.08927" lon="6.4317">
        <ele>1964.8</ele>
        <time>2022-07-17T10:11:24Z</time>
      </trkpt>
      <trkpt lat="45.08929" lon="6.43169">
        <ele>1964.8</ele>
        <time>2022-07-17T10:11:25Z</time>
      </trkpt>
      <trkpt lat="45.08931" lon="6.43167">
        <ele>1965</ele>
        <time>2022-07-17T10:11:26Z</time>
      </trkpt>
      <trkpt lat="45.08933" lon="6.43166">
        <ele>1965</ele>
        <time>2022-07-17T10:11:27Z</time>
      </trkpt>
      <trkpt lat="45.08935" lon="6.43165">
        <ele>1965.2</ele>
        <time>2022-07-17T10:11:28Z</time>
      </trkpt>
      <trkpt lat="45.08937" lon="6.43164">
        <ele>1965.4</ele>
        <time>2022-07-17T10:11:29Z</time>
      </trkpt>
      <trkpt lat="45.08939" lon="6.43163">
        <ele>1965.4</ele>
        <time>2022-07-17T10:11:30Z</time>
      </trkpt>
      <trkpt lat="45.08941" lon="6.43162">
        <ele>1965.8</ele>
        <time>2022-07-17T10:11:31Z</time>
      </trkpt>
      <trkpt lat="45.08943" lon="6.43161">
        <ele>1966</ele>
        <time>2022-07-17T10:11:32Z</time>
      </trkpt>
      <trkpt lat="45.08944" lon="6.43159">
        <ele>1966</ele>
        <time>2022-07-17T10:11:33Z</time>
      </trkpt>
      <trkpt lat="45.08946" lon="6.43158">
        <ele>1966.6</ele>
        <time>2022-07-17T10:11:34Z</time>
      </trkpt>
      <trkpt lat="45.08948" lon="6.43157">
        <ele>1966.6</ele>
        <time>2022-07-17T10:11:35Z</time>
      </trkpt>
      <trkpt lat="45.0895" lon="6.43155">
        <ele>1966.8</ele>
        <time>2022-07-17T10:11:36Z</time>
      </trkpt>
      <trkpt lat="45.08951" lon="6.43154">
        <ele>1966.8</ele>
        <time>2022-07-17T10:11:37Z</time>
      </trkpt>
      <trkpt lat="45.08953" lon="6.43153">
        <ele>1967.2</ele>
        <time>2022-07-17T10:11:38Z</time>
      </trkpt>
      <trkpt lat="45.08955" lon="6.43152">
        <ele>1967.2</ele>
        <time>2022-07-17T10:11:39Z</time>
      </trkpt>
      <trkpt lat="45.08957" lon="6.4315">
        <ele>1967.4</ele>
        <time>2022-07-17T10:11:40Z</time>
      </trkpt>
      <trkpt lat="45.08958" lon="6.43149">
        <ele>1967.6</ele>
        <time>2022-07-17T10:11:41Z</time>
      </trkpt>
      <trkpt lat="45.0896" lon="6.43148">
        <ele>1967.6</ele>
        <time>2022-07-17T10:11:42Z</time>
      </trkpt>
      <trkpt lat="45.08962" lon="6.43146">
        <ele>1968</ele>
        <time>2022-07-17T10:11:43Z</time>
      </trkpt>
      <trkpt lat="45.08964" lon="6.43145">
        <ele>1968</ele>
        <time>2022-07-17T10:11:44Z</time>
      </trkpt>
      <trkpt lat="45.08966" lon="6.43144">
        <ele>1968.4</ele>
        <time>2022-07-17T10:11:45Z</time>
      </trkpt>
      <trkpt lat="45.08968" lon="6.43143">
        <ele>1968.6</ele>
        <time>2022-07-17T10:11:46Z</time>
      </trkpt>
      <trkpt lat="45.0897" lon="6.43142">
        <ele>1968.6</ele>
        <time>2022-07-17T10:11:47Z</time>
      </trkpt>
      <trkpt lat="45.08972" lon="6.43141">
        <ele>1968.8</ele>
        <time>2022-07-17T10:11:48Z</time>
      </trkpt>
      <trkpt lat="45.08974" lon="6.4314">
        <ele>1969</ele>
        <time>2022-07-17T10:11:49Z</time>
      </trkpt>
      <trkpt lat="45.08975" lon="6.43138">
        <ele>1969.2</ele>
        <time>2022-07-17T10:11:50Z</time>
      </trkpt>
      <trkpt lat="45.08977" lon="6.43137">
        <ele>1969.2</ele>
        <time>2022-07-17T10:11:51Z</time>
      </trkpt>
      <trkpt lat="45.08979" lon="6.43136">
        <ele>1969.6</ele>
        <time>2022-07-17T10:11:52Z</time>
      </trkpt>
      <trkpt lat="45.08981" lon="6.43135">
        <ele>1969.6</ele>
        <time>2022-07-17T10:11:53Z</time>
      </trkpt>
      <trkpt lat="45.08983" lon="6.43134">
        <ele>1970</ele>
        <time>2022-07-17T10:11:54Z</time>
      </trkpt>
      <trkpt lat="45.08985" lon="6.43134">
        <ele>1970.2</ele>
        <time>2022-07-17T10:11:55Z</time>
      </trkpt>
      <trkpt lat="45.08987" lon="6.43133">
        <ele>1970.4</ele>
        <time>2022-07-17T10:11:56Z</time>
      </trkpt>
      <trkpt lat="45.08989" lon="6.43132">
        <ele>1970.4</ele>
        <time>2022-07-17T10:11:57Z</time>
      </trkpt>
      <trkpt lat="45.08992" lon="6.43131">
        <ele>1970.6</ele>
        <time>2022-07-17T10:11:58Z</time>
      </trkpt>
      <trkpt lat="45.08994" lon="6.4313">
        <ele>1970.8</ele>
        <time>2022-07-17T10:11:59Z</time>
      </trkpt>
      <trkpt lat="45.08996" lon="6.43129">
        <ele>1970.8</ele>
        <time>2022-07-17T10:12:00Z</time>
      </trkpt>
      <trkpt lat="45.08998" lon="6.43128">
        <ele>1971.2</ele>
        <time>2022-07-17T10:12:01Z</time>
      </trkpt>
      <trkpt lat="45.09" lon="6.43126">
        <ele>1971.2</ele>
        <time>2022-07-17T10:12:02Z</time>
      </trkpt>
      <trkpt lat="45.09002" lon="6.43124">
        <ele>1971.6</ele>
        <time>2022-07-17T10:12:03Z</time>
      </trkpt>
      <trkpt lat="45.09003" lon="6.43122">
        <ele>1971.8</ele>
        <time>2022-07-17T10:12:04Z</time>
      </trkpt>
      <trkpt lat="45.09004" lon="6.4312">
        <ele>1972</ele>
        <time>2022-07-17T10:12:05Z</time>
      </trkpt>
      <trkpt lat="45.09005" lon="6.43118">
        <ele>1972</ele>
        <time>2022-07-17T10:12:06Z</time>
      </trkpt>
      <trkpt lat="45.09005" lon="6.43115">
        <ele>1972</ele>
        <time>2022-07-17T10:12:07Z</time>
      </trkpt>
      <trkpt lat="45.09004" lon="6.43112">
        <ele>1972</ele>
        <time>2022-07-17T10:12:08Z</time>
      </trkpt>
      <trkpt lat="45.09004" lon="6.43109">
        <ele>1972.2</ele>
        <time>2022-07-17T10:12:09Z</time>
      </trkpt>
      <trkpt lat="45.09003" lon="6.43106">
        <ele>1972.2</ele>
        <time>2022-07-17T10:12:10Z</time>
      </trkpt>
      <trkpt lat="45.09001" lon="6.43104">
        <ele>1972.2</ele>
        <time>2022-07-17T10:12:11Z</time>
      </trkpt>
      <trkpt lat="45.08999" lon="6.43102">
        <ele>1972.2</ele>
        <time>2022-07-17T10:12:12Z</time>
      </trkpt>
      <trkpt lat="45.08997" lon="6.43101">
        <ele>1972.2</ele>
        <time>2022-07-17T10:12:13Z</time>
      </trkpt>
      <trkpt lat="45.08994" lon="6.43101">
        <ele>1972.6</ele>
        <time>2022-07-17T10:12:14Z</time>
      </trkpt>
      <trkpt lat="45.08992" lon="6.43102">
        <ele>1972.6</ele>
        <time>2022-07-17T10:12:15Z</time>
      </trkpt>
      <trkpt lat="45.08989" lon="6.43104">
        <ele>1972.6</ele>
        <time>2022-07-17T10:12:16Z</time>
      </trkpt>
      <trkpt lat="45.08986" lon="6.43106">
        <ele>1972.2</ele>
        <time>2022-07-17T10:12:17Z</time>
      </trkpt>
      <trkpt lat="45.08984" lon="6.43108">
        <ele>1972</ele>
        <time>2022-07-17T10:12:18Z</time>
      </trkpt>
      <trkpt lat="45.08982" lon="6.43109">
        <ele>1972</ele>
        <time>2022-07-17T10:12:19Z</time>
      </trkpt>
      <trkpt lat="45.08979" lon="6.43111">
        <ele>1972</ele>
        <time>2022-07-17T10:12:20Z</time>
      </trkpt>
      <trkpt lat="45.08977" lon="6.43112">
        <ele>1972</ele>
        <time>2022-07-17T10:12:21Z</time>
      </trkpt>
      <trkpt lat="45.08975" lon="6.43113">
        <ele>1972</ele>
        <time>2022-07-17T10:12:22Z</time>
      </trkpt>
      <trkpt lat="45.08973" lon="6.43115">
        <ele>1972</ele>
        <time>2022-07-17T10:12:23Z</time>
      </trkpt>
      <trkpt lat="45.08971" lon="6.43116">
        <ele>1972.2</ele>
        <time>2022-07-17T10:12:24Z</time>
      </trkpt>
      <trkpt lat="45.08969" lon="6.43117">
        <ele>1972.6</ele>
        <time>2022-07-17T10:12:25Z</time>
      </trkpt>
      <trkpt lat="45.08967" lon="6.43118">
        <ele>1972.8</ele>
        <time>2022-07-17T10:12:26Z</time>
      </trkpt>
      <trkpt lat="45.08965" lon="6.43119">
        <ele>1973</ele>
        <time>2022-07-17T10:12:27Z</time>
      </trkpt>
      <trkpt lat="45.08963" lon="6.43119">
        <ele>1973.2</ele>
        <time>2022-07-17T10:12:28Z</time>
      </trkpt>
      <trkpt lat="45.08961" lon="6.4312">
        <ele>1973.6</ele>
        <time>2022-07-17T10:12:29Z</time>
      </trkpt>
      <trkpt lat="45.08959" lon="6.43121">
        <ele>1973.8</ele>
        <time>2022-07-17T10:12:30Z</time>
      </trkpt>
      <trkpt lat="45.08957" lon="6.43123">
        <ele>1974</ele>
        <time>2022-07-17T10:12:31Z</time>
      </trkpt>
      <trkpt lat="45.08955" lon="6.43124">
        <ele>1974</ele>
        <time>2022-07-17T10:12:32Z</time>
      </trkpt>
      <trkpt lat="45.08953" lon="6.43125">
        <ele>1974.4</ele>
        <time>2022-07-17T10:12:33Z</time>
      </trkpt>
      <trkpt lat="45.08951" lon="6.43126">
        <ele>1974.6</ele>
        <time>2022-07-17T10:12:34Z</time>
      </trkpt>
      <trkpt lat="45.08949" lon="6.43128">
        <ele>1974.6</ele>
        <time>2022-07-17T10:12:35Z</time>
      </trkpt>
      <trkpt lat="45.08947" lon="6.43129">
        <ele>1975</ele>
        <time>2022-07-17T10:12:36Z</time>
      </trkpt>
      <trkpt lat="45.08945" lon="6.4313">
        <ele>1975</ele>
        <time>2022-07-17T10:12:37Z</time>
      </trkpt>
      <trkpt lat="45.08943" lon="6.43132">
        <ele>1975.4</ele>
        <time>2022-07-17T10:12:38Z</time>
      </trkpt>
      <trkpt lat="45.08941" lon="6.43133">
        <ele>1975.6</ele>
        <time>2022-07-17T10:12:39Z</time>
      </trkpt>
      <trkpt lat="45.08939" lon="6.43133">
        <ele>1976</ele>
        <time>2022-07-17T10:12:40Z</time>
      </trkpt>
      <trkpt lat="45.08937" lon="6.43134">
        <ele>1976</ele>
        <time>2022-07-17T10:12:41Z</time>
      </trkpt>
      <trkpt lat="45.08935" lon="6.43134">
        <ele>1976.4</ele>
        <time>2022-07-17T10:12:42Z</time>
      </trkpt>
      <trkpt lat="45.08933" lon="6.43135">
        <ele>1976.8</ele>
        <time>2022-07-17T10:12:43Z</time>
      </trkpt>
      <trkpt lat="45.08931" lon="6.43136">
        <ele>1977</ele>
        <time>2022-07-17T10:12:44Z</time>
      </trkpt>
      <trkpt lat="45.08929" lon="6.43136">
        <ele>1977.2</ele>
        <time>2022-07-17T10:12:45Z</time>
      </trkpt>
      <trkpt lat="45.08926" lon="6.43137">
        <ele>1977.4</ele>
        <time>2022-07-17T10:12:46Z</time>
      </trkpt>
      <trkpt lat="45.08924" lon="6.43136">
        <ele>1977.6</ele>
        <time>2022-07-17T10:12:47Z</time>
      </trkpt>
      <trkpt lat="45.08922" lon="6.43136">
        <ele>1978</ele>
        <time>2022-07-17T10:12:48Z</time>
      </trkpt>
      <trkpt lat="45.0892" lon="6.43136">
        <ele>1978</ele>
        <time>2022-07-17T10:12:49Z</time>
      </trkpt>
      <trkpt lat="45.08918" lon="6.43136">
        <ele>1978.2</ele>
        <time>2022-07-17T10:12:50Z</time>
      </trkpt>
      <trkpt lat="45.08916" lon="6.43136">
        <ele>1978.6</ele>
        <time>2022-07-17T10:12:51Z</time>
      </trkpt>
      <trkpt lat="45.08913" lon="6.43136">
        <ele>1978.8</ele>
        <time>2022-07-17T10:12:52Z</time>
      </trkpt>
      <trkpt lat="45.08911" lon="6.43135">
        <ele>1978.8</ele>
        <time>2022-07-17T10:12:53Z</time>
      </trkpt>
      <trkpt lat="45.08909" lon="6.43135">
        <ele>1979.2</ele>
        <time>2022-07-17T10:12:54Z</time>
      </trkpt>
      <trkpt lat="45.08907" lon="6.43135">
        <ele>1979.2</ele>
        <time>2022-07-17T10:12:55Z</time>
      </trkpt>
      <trkpt lat="45.08905" lon="6.43134">
        <ele>1979.6</ele>
        <time>2022-07-17T10:12:56Z</time>
      </trkpt>
      <trkpt lat="45.08903" lon="6.43135">
        <ele>1979.6</ele>
        <time>2022-07-17T10:12:57Z</time>
      </trkpt>
      <trkpt lat="45.089" lon="6.43135">
        <ele>1979.8</ele>
        <time>2022-07-17T10:12:58Z</time>
      </trkpt>
      <trkpt lat="45.08898" lon="6.43135">
        <ele>1979.8</ele>
        <time>2022-07-17T10:12:59Z</time>
      </trkpt>
      <trkpt lat="45.08896" lon="6.43135">
        <ele>1980.2</ele>
        <time>2022-07-17T10:13:00Z</time>
      </trkpt>
      <trkpt lat="45.08894" lon="6.43135">
        <ele>1980.2</ele>
        <time>2022-07-17T10:13:01Z</time>
      </trkpt>
      <trkpt lat="45.08892" lon="6.43136">
        <ele>1980.6</ele>
        <time>2022-07-17T10:13:02Z</time>
      </trkpt>
      <trkpt lat="45.0889" lon="6.43136">
        <ele>1980.8</ele>
        <time>2022-07-17T10:13:03Z</time>
      </trkpt>
      <trkpt lat="45.08888" lon="6.43137">
        <ele>1981</ele>
        <time>2022-07-17T10:13:04Z</time>
      </trkpt>
      <trkpt lat="45.08886" lon="6.43138">
        <ele>1981</ele>
        <time>2022-07-17T10:13:05Z</time>
      </trkpt>
      <trkpt lat="45.08884" lon="6.43138">
        <ele>1981.2</ele>
        <time>2022-07-17T10:13:06Z</time>
      </trkpt>
      <trkpt lat="45.08882" lon="6.43139">
        <ele>1981.2</ele>
        <time>2022-07-17T10:13:07Z</time>
      </trkpt>
      <trkpt lat="45.0888" lon="6.43139">
        <ele>1981.6</ele>
        <time>2022-07-17T10:13:08Z</time>
      </trkpt>
      <trkpt lat="45.08878" lon="6.4314">
        <ele>1981.6</ele>
        <time>2022-07-17T10:13:09Z</time>
      </trkpt>
      <trkpt lat="45.08876" lon="6.4314">
        <ele>1982</ele>
        <time>2022-07-17T10:13:10Z</time>
      </trkpt>
      <trkpt lat="45.08874" lon="6.43139">
        <ele>1982.2</ele>
        <time>2022-07-17T10:13:11Z</time>
      </trkpt>
      <trkpt lat="45.08872" lon="6.43137">
        <ele>1982.4</ele>
        <time>2022-07-17T10:13:12Z</time>
      </trkpt>
      <trkpt lat="45.08871" lon="6.43134">
        <ele>1982.6</ele>
        <time>2022-07-17T10:13:13Z</time>
      </trkpt>
      <trkpt lat="45.08871" lon="6.43131">
        <ele>1982.6</ele>
        <time>2022-07-17T10:13:14Z</time>
      </trkpt>
      <trkpt lat="45.08871" lon="6.43128">
        <ele>1983</ele>
        <time>2022-07-17T10:13:15Z</time>
      </trkpt>
      <trkpt lat="45.08872" lon="6.43125">
        <ele>1983.2</ele>
        <time>2022-07-17T10:13:16Z</time>
      </trkpt>
      <trkpt lat="45.08874" lon="6.43122">
        <ele>1983.2</ele>
        <time>2022-07-17T10:13:17Z</time>
      </trkpt>
      <trkpt lat="45.08876" lon="6.4312">
        <ele>1983.6</ele>
        <time>2022-07-17T10:13:18Z</time>
      </trkpt>
      <trkpt lat="45.08878" lon="6.43119">
        <ele>1983.6</ele>
        <time>2022-07-17T10:13:19Z</time>
      </trkpt>
      <trkpt lat="45.0888" lon="6.43119">
        <ele>1983.8</ele>
        <time>2022-07-17T10:13:20Z</time>
      </trkpt>
      <trkpt lat="45.08882" lon="6.43119">
        <ele>1983.8</ele>
        <time>2022-07-17T10:13:21Z</time>
      </trkpt>
      <trkpt lat="45.08885" lon="6.43119">
        <ele>1984</ele>
        <time>2022-07-17T10:13:22Z</time>
      </trkpt>
      <trkpt lat="45.08887" lon="6.43119">
        <ele>1984</ele>
        <time>2022-07-17T10:13:23Z</time>
      </trkpt>
      <trkpt lat="45.08889" lon="6.43119">
        <ele>1984.2</ele>
        <time>2022-07-17T10:13:24Z</time>
      </trkpt>
      <trkpt lat="45.08891" lon="6.43119">
        <ele>1984.2</ele>
        <time>2022-07-17T10:13:25Z</time>
      </trkpt>
      <trkpt lat="45.08893" lon="6.43119">
        <ele>1984.6</ele>
        <time>2022-07-17T10:13:26Z</time>
      </trkpt>
      <trkpt lat="45.08896" lon="6.43119">
        <ele>1984.6</ele>
        <time>2022-07-17T10:13:27Z</time>
      </trkpt>
      <trkpt lat="45.08898" lon="6.4312">
        <ele>1984.8</ele>
        <time>2022-07-17T10:13:28Z</time>
      </trkpt>
      <trkpt lat="45.089" lon="6.4312">
        <ele>1984.8</ele>
        <time>2022-07-17T10:13:29Z</time>
      </trkpt>
      <trkpt lat="45.08902" lon="6.4312">
        <ele>1985.2</ele>
        <time>2022-07-17T10:13:30Z</time>
      </trkpt>
      <trkpt lat="45.08905" lon="6.43121">
        <ele>1985.2</ele>
        <time>2022-07-17T10:13:31Z</time>
      </trkpt>
      <trkpt lat="45.08907" lon="6.43121">
        <ele>1985.6</ele>
        <time>2022-07-17T10:13:32Z</time>
      </trkpt>
      <trkpt lat="45.08909" lon="6.43121">
        <ele>1985.8</ele>
        <time>2022-07-17T10:13:33Z</time>
      </trkpt>
      <trkpt lat="45.08911" lon="6.43121">
        <ele>1986.2</ele>
        <time>2022-07-17T10:13:34Z</time>
      </trkpt>
      <trkpt lat="45.08913" lon="6.43121">
        <ele>1986.4</ele>
        <time>2022-07-17T10:13:35Z</time>
      </trkpt>
      <trkpt lat="45.08915" lon="6.4312">
        <ele>1986.8</ele>
        <time>2022-07-17T10:13:36Z</time>
      </trkpt>
      <trkpt lat="45.08917" lon="6.4312">
        <ele>1987</ele>
        <time>2022-07-17T10:13:37Z</time>
      </trkpt>
      <trkpt lat="45.08919" lon="6.43119">
        <ele>1987.4</ele>
        <time>2022-07-17T10:13:38Z</time>
      </trkpt>
      <trkpt lat="45.08922" lon="6.43119">
        <ele>1987.6</ele>
        <time>2022-07-17T10:13:39Z</time>
      </trkpt>
      <trkpt lat="45.08924" lon="6.43118">
        <ele>1987.6</ele>
        <time>2022-07-17T10:13:40Z</time>
      </trkpt>
      <trkpt lat="45.08926" lon="6.43117">
        <ele>1988</ele>
        <time>2022-07-17T10:13:41Z</time>
      </trkpt>
      <trkpt lat="45.08928" lon="6.43116">
        <ele>1988.2</ele>
        <time>2022-07-17T10:13:42Z</time>
      </trkpt>
      <trkpt lat="45.0893" lon="6.43115">
        <ele>1988.2</ele>
        <time>2022-07-17T10:13:43Z</time>
      </trkpt>
      <trkpt lat="45.08932" lon="6.43114">
        <ele>1988.6</ele>
        <time>2022-07-17T10:13:44Z</time>
      </trkpt>
      <trkpt lat="45.08934" lon="6.43113">
        <ele>1989</ele>
        <time>2022-07-17T10:13:45Z</time>
      </trkpt>
      <trkpt lat="45.08935" lon="6.43111">
        <ele>1989</ele>
        <time>2022-07-17T10:13:46Z</time>
      </trkpt>
      <trkpt lat="45.08937" lon="6.4311">
        <ele>1989.2</ele>
        <time>2022-07-17T10:13:47Z</time>
      </trkpt>
      <trkpt lat="45.08939" lon="6.43109">
        <ele>1989.4</ele>
        <time>2022-07-17T10:13:48Z</time>
      </trkpt>
      <trkpt lat="45.08941" lon="6.43107">
        <ele>1989.6</ele>
        <time>2022-07-17T10:13:49Z</time>
      </trkpt>
      <trkpt lat="45.08943" lon="6.43106">
        <ele>1989.8</ele>
        <time>2022-07-17T10:13:50Z</time>
      </trkpt>
      <trkpt lat="45.08945" lon="6.43105">
        <ele>1989.8</ele>
        <time>2022-07-17T10:13:51Z</time>
      </trkpt>
      <trkpt lat="45.08946" lon="6.43103">
        <ele>1990.2</ele>
        <time>2022-07-17T10:13:52Z</time>
      </trkpt>
      <trkpt lat="45.08948" lon="6.43102">
        <ele>1990.4</ele>
        <time>2022-07-17T10:13:53Z</time>
      </trkpt>
      <trkpt lat="45.0895" lon="6.431">
        <ele>1990.4</ele>
        <time>2022-07-17T10:13:54Z</time>
      </trkpt>
      <trkpt lat="45.08951" lon="6.43098">
        <ele>1990.6</ele>
        <time>2022-07-17T10:13:55Z</time>
      </trkpt>
      <trkpt lat="45.08953" lon="6.43096">
        <ele>1990.6</ele>
        <time>2022-07-17T10:13:56Z</time>
      </trkpt>
      <trkpt lat="45.08954" lon="6.43094">
        <ele>1991</ele>
        <time>2022-07-17T10:13:57Z</time>
      </trkpt>
      <trkpt lat="45.08956" lon="6.43092">
        <ele>1991</ele>
        <time>2022-07-17T10:13:58Z</time>
      </trkpt>
      <trkpt lat="45.08958" lon="6.43091">
        <ele>1991.2</ele>
        <time>2022-07-17T10:13:59Z</time>
      </trkpt>
      <trkpt lat="45.0896" lon="6.43089">
        <ele>1991.2</ele>
        <time>2022-07-17T10:14:00Z</time>
      </trkpt>
      <trkpt lat="45.08962" lon="6.43088">
        <ele>1991.6</ele>
        <time>2022-07-17T10:14:01Z</time>
      </trkpt>
      <trkpt lat="45.08964" lon="6.43087">
        <ele>1991.6</ele>
        <time>2022-07-17T10:14:02Z</time>
      </trkpt>
      <trkpt lat="45.08966" lon="6.43085">
        <ele>1991.8</ele>
        <time>2022-07-17T10:14:03Z</time>
      </trkpt>
      <trkpt lat="45.08968" lon="6.43084">
        <ele>1991.8</ele>
        <time>2022-07-17T10:14:04Z</time>
      </trkpt>
      <trkpt lat="45.0897" lon="6.43083">
        <ele>1992</ele>
        <time>2022-07-17T10:14:05Z</time>
      </trkpt>
      <trkpt lat="45.08972" lon="6.43082">
        <ele>1992.4</ele>
        <time>2022-07-17T10:14:06Z</time>
      </trkpt>
      <trkpt lat="45.08974" lon="6.43081">
        <ele>1992.4</ele>
        <time>2022-07-17T10:14:07Z</time>
      </trkpt>
      <trkpt lat="45.08976" lon="6.4308">
        <ele>1992.6</ele>
        <time>2022-07-17T10:14:08Z</time>
      </trkpt>
      <trkpt lat="45.08978" lon="6.4308">
        <ele>1992.6</ele>
        <time>2022-07-17T10:14:09Z</time>
      </trkpt>
      <trkpt lat="45.0898" lon="6.43079">
        <ele>1993</ele>
        <time>2022-07-17T10:14:10Z</time>
      </trkpt>
      <trkpt lat="45.08982" lon="6.43079">
        <ele>1993.2</ele>
        <time>2022-07-17T10:14:11Z</time>
      </trkpt>
      <trkpt lat="45.08984" lon="6.43078">
        <ele>1993.2</ele>
        <time>2022-07-17T10:14:12Z</time>
      </trkpt>
      <trkpt lat="45.08987" lon="6.43078">
        <ele>1993.6</ele>
        <time>2022-07-17T10:14:13Z</time>
      </trkpt>
      <trkpt lat="45.08989" lon="6.43077">
        <ele>1993.8</ele>
        <time>2022-07-17T10:14:14Z</time>
      </trkpt>
      <trkpt lat="45.08991" lon="6.43077">
        <ele>1993.8</ele>
        <time>2022-07-17T10:14:15Z</time>
      </trkpt>
      <trkpt lat="45.08993" lon="6.43076">
        <ele>1994</ele>
        <time>2022-07-17T10:14:16Z</time>
      </trkpt>
      <trkpt lat="45.08995" lon="6.43075">
        <ele>1994</ele>
        <time>2022-07-17T10:14:17Z</time>
      </trkpt>
      <trkpt lat="45.08997" lon="6.43075">
        <ele>1994.4</ele>
        <time>2022-07-17T10:14:18Z</time>
      </trkpt>
      <trkpt lat="45.08999" lon="6.43074">
        <ele>1994.8</ele>
        <time>2022-07-17T10:14:19Z</time>
      </trkpt>
      <trkpt lat="45.09002" lon="6.43073">
        <ele>1995</ele>
        <time>2022-07-17T10:14:20Z</time>
      </trkpt>
      <trkpt lat="45.09004" lon="6.43072">
        <ele>1995</ele>
        <time>2022-07-17T10:14:21Z</time>
      </trkpt>
      <trkpt lat="45.09006" lon="6.43071">
        <ele>1995.2</ele>
        <time>2022-07-17T10:14:22Z</time>
      </trkpt>
      <trkpt lat="45.09007" lon="6.4307">
        <ele>1995.2</ele>
        <time>2022-07-17T10:14:23Z</time>
      </trkpt>
      <trkpt lat="45.09009" lon="6.43068">
        <ele>1995.6</ele>
        <time>2022-07-17T10:14:24Z</time>
      </trkpt>
      <trkpt lat="45.09011" lon="6.43067">
        <ele>1996</ele>
        <time>2022-07-17T10:14:25Z</time>
      </trkpt>
      <trkpt lat="45.09013" lon="6.43065">
        <ele>1996</ele>
        <time>2022-07-17T10:14:26Z</time>
      </trkpt>
      <trkpt lat="45.09014" lon="6.43064">
        <ele>1996.4</ele>
        <time>2022-07-17T10:14:27Z</time>
      </trkpt>
      <trkpt lat="45.09016" lon="6.43062">
        <ele>1996.4</ele>
        <time>2022-07-17T10:14:28Z</time>
      </trkpt>
      <trkpt lat="45.09018" lon="6.4306">
        <ele>1996.8</ele>
        <time>2022-07-17T10:14:29Z</time>
      </trkpt>
      <trkpt lat="45.09019" lon="6.43059">
        <ele>1996.8</ele>
        <time>2022-07-17T10:14:30Z</time>
      </trkpt>
      <trkpt lat="45.09021" lon="6.43057">
        <ele>1997.2</ele>
        <time>2022-07-17T10:14:31Z</time>
      </trkpt>
      <trkpt lat="45.09022" lon="6.43055">
        <ele>1997.2</ele>
        <time>2022-07-17T10:14:32Z</time>
      </trkpt>
      <trkpt lat="45.09024" lon="6.43054">
        <ele>1997.4</ele>
        <time>2022-07-17T10:14:33Z</time>
      </trkpt>
      <trkpt lat="45.09026" lon="6.43052">
        <ele>1997.4</ele>
        <time>2022-07-17T10:14:34Z</time>
      </trkpt>
      <trkpt lat="45.09028" lon="6.4305">
        <ele>1997.6</ele>
        <time>2022-07-17T10:14:35Z</time>
      </trkpt>
      <trkpt lat="45.09029" lon="6.43048">
        <ele>1997.6</ele>
        <time>2022-07-17T10:14:36Z</time>
      </trkpt>
      <trkpt lat="45.09031" lon="6.43047">
        <ele>1997.8</ele>
        <time>2022-07-17T10:14:37Z</time>
      </trkpt>
      <trkpt lat="45.09033" lon="6.43045">
        <ele>1997.8</ele>
        <time>2022-07-17T10:14:38Z</time>
      </trkpt>
      <trkpt lat="45.09035" lon="6.43043">
        <ele>1998.2</ele>
        <time>2022-07-17T10:14:39Z</time>
      </trkpt>
      <trkpt lat="45.09037" lon="6.43042">
        <ele>1998.2</ele>
        <time>2022-07-17T10:14:40Z</time>
      </trkpt>
      <trkpt lat="45.09038" lon="6.4304">
        <ele>1998.4</ele>
        <time>2022-07-17T10:14:41Z</time>
      </trkpt>
      <trkpt lat="45.0904" lon="6.43038">
        <ele>1998.6</ele>
        <time>2022-07-17T10:14:42Z</time>
      </trkpt>
      <trkpt lat="45.09042" lon="6.43037">
        <ele>1998.8</ele>
        <time>2022-07-17T10:14:43Z</time>
      </trkpt>
      <trkpt lat="45.09044" lon="6.43035">
        <ele>1998.8</ele>
        <time>2022-07-17T10:14:44Z</time>
      </trkpt>
      <trkpt lat="45.09046" lon="6.43033">
        <ele>1998.8</ele>
        <time>2022-07-17T10:14:45Z</time>
      </trkpt>
      <trkpt lat="45.09048" lon="6.43031">
        <ele>1999.2</ele>
        <time>2022-07-17T10:14:46Z</time>
      </trkpt>
      <trkpt lat="45.0905" lon="6.43029">
        <ele>1999.2</ele>
        <time>2022-07-17T10:14:47Z</time>
      </trkpt>
      <trkpt lat="45.09053" lon="6.43028">
        <ele>1999.4</ele>
        <time>2022-07-17T10:14:48Z</time>
      </trkpt>
      <trkpt lat="45.09055" lon="6.43026">
        <ele>1999.4</ele>
        <time>2022-07-17T10:14:49Z</time>
      </trkpt>
      <trkpt lat="45.09057" lon="6.43024">
        <ele>1999.8</ele>
        <time>2022-07-17T10:14:50Z</time>
      </trkpt>
      <trkpt lat="45.09059" lon="6.43022">
        <ele>1999.8</ele>
        <time>2022-07-17T10:14:51Z</time>
      </trkpt>
      <trkpt lat="45.09061" lon="6.4302">
        <ele>2000.2</ele>
        <time>2022-07-17T10:14:52Z</time>
      </trkpt>
      <trkpt lat="45.09063" lon="6.43018">
        <ele>2000.2</ele>
        <time>2022-07-17T10:14:53Z</time>
      </trkpt>
      <trkpt lat="45.09064" lon="6.43016">
        <ele>2000.4</ele>
        <time>2022-07-17T10:14:54Z</time>
      </trkpt>
      <trkpt lat="45.09065" lon="6.43014">
        <ele>2000.4</ele>
        <time>2022-07-17T10:14:55Z</time>
      </trkpt>
      <trkpt lat="45.09066" lon="6.43011">
        <ele>2000.6</ele>
        <time>2022-07-17T10:14:56Z</time>
      </trkpt>
      <trkpt lat="45.09067" lon="6.43008">
        <ele>2000.6</ele>
        <time>2022-07-17T10:14:57Z</time>
      </trkpt>
      <trkpt lat="45.09067" lon="6.43005">
        <ele>2000.8</ele>
        <time>2022-07-17T10:14:58Z</time>
      </trkpt>
      <trkpt lat="45.09066" lon="6.43002">
        <ele>2000.8</ele>
        <time>2022-07-17T10:14:59Z</time>
      </trkpt>
      <trkpt lat="45.09065" lon="6.42999">
        <ele>2000.8</ele>
        <time>2022-07-17T10:15:00Z</time>
      </trkpt>
      <trkpt lat="45.09064" lon="6.42997">
        <ele>2000.8</ele>
        <time>2022-07-17T10:15:01Z</time>
      </trkpt>
      <trkpt lat="45.09062" lon="6.42994">
        <ele>2001.2</ele>
        <time>2022-07-17T10:15:02Z</time>
      </trkpt>
      <trkpt lat="45.0906" lon="6.42993">
        <ele>2001.2</ele>
        <time>2022-07-17T10:15:03Z</time>
      </trkpt>
      <trkpt lat="45.09058" lon="6.42993">
        <ele>2001.2</ele>
        <time>2022-07-17T10:15:04Z</time>
      </trkpt>
      <trkpt lat="45.09056" lon="6.42993">
        <ele>2001.2</ele>
        <time>2022-07-17T10:15:05Z</time>
      </trkpt>
      <trkpt lat="45.09051" lon="6.42995">
        <ele>2001.2</ele>
        <time>2022-07-17T10:15:06Z</time>
      </trkpt>
      <trkpt lat="45.09049" lon="6.42997">
        <ele>2001.2</ele>
        <time>2022-07-17T10:15:07Z</time>
      </trkpt>
      <trkpt lat="45.09047" lon="6.42999">
        <ele>2001.4</ele>
        <time>2022-07-17T10:15:08Z</time>
      </trkpt>
      <trkpt lat="45.09045" lon="6.43001">
        <ele>2001.6</ele>
        <time>2022-07-17T10:15:09Z</time>
      </trkpt>
      <trkpt lat="45.09042" lon="6.43003">
        <ele>2001.6</ele>
        <time>2022-07-17T10:15:10Z</time>
      </trkpt>
      <trkpt lat="45.0904" lon="6.43005">
        <ele>2001.6</ele>
        <time>2022-07-17T10:15:11Z</time>
      </trkpt>
      <trkpt lat="45.09037" lon="6.43007">
        <ele>2002</ele>
        <time>2022-07-17T10:15:12Z</time>
      </trkpt>
      <trkpt lat="45.09035" lon="6.43009">
        <ele>2002</ele>
        <time>2022-07-17T10:15:13Z</time>
      </trkpt>
      <trkpt lat="45.09032" lon="6.43011">
        <ele>2002</ele>
        <time>2022-07-17T10:15:14Z</time>
      </trkpt>
      <trkpt lat="45.0903" lon="6.43013">
        <ele>2002</ele>
        <time>2022-07-17T10:15:15Z</time>
      </trkpt>
      <trkpt lat="45.09027" lon="6.43016">
        <ele>2002.2</ele>
        <time>2022-07-17T10:15:16Z</time>
      </trkpt>
      <trkpt lat="45.09025" lon="6.43018">
        <ele>2002.2</ele>
        <time>2022-07-17T10:15:17Z</time>
      </trkpt>
      <trkpt lat="45.09022" lon="6.43019">
        <ele>2002.6</ele>
        <time>2022-07-17T10:15:18Z</time>
      </trkpt>
      <trkpt lat="45.0902" lon="6.43021">
        <ele>2002.6</ele>
        <time>2022-07-17T10:15:19Z</time>
      </trkpt>
      <trkpt lat="45.09017" lon="6.43023">
        <ele>2003</ele>
        <time>2022-07-17T10:15:20Z</time>
      </trkpt>
      <trkpt lat="45.09014" lon="6.43024">
        <ele>2003</ele>
        <time>2022-07-17T10:15:21Z</time>
      </trkpt>
      <trkpt lat="45.09011" lon="6.43025">
        <ele>2003.2</ele>
        <time>2022-07-17T10:15:22Z</time>
      </trkpt>
      <trkpt lat="45.09008" lon="6.43026">
        <ele>2003.2</ele>
        <time>2022-07-17T10:15:23Z</time>
      </trkpt>
      <trkpt lat="45.09005" lon="6.43027">
        <ele>2003.2</ele>
        <time>2022-07-17T10:15:24Z</time>
      </trkpt>
      <trkpt lat="45.09002" lon="6.43027">
        <ele>2003.4</ele>
        <time>2022-07-17T10:15:25Z</time>
      </trkpt>
      <trkpt lat="45.08999" lon="6.43028">
        <ele>2003.4</ele>
        <time>2022-07-17T10:15:26Z</time>
      </trkpt>
      <trkpt lat="45.08996" lon="6.43028">
        <ele>2003.8</ele>
        <time>2022-07-17T10:15:27Z</time>
      </trkpt>
      <trkpt lat="45.08994" lon="6.43029">
        <ele>2003.8</ele>
        <time>2022-07-17T10:15:28Z</time>
      </trkpt>
      <trkpt lat="45.08991" lon="6.43029">
        <ele>2004</ele>
        <time>2022-07-17T10:15:29Z</time>
      </trkpt>
      <trkpt lat="45.08989" lon="6.4303">
        <ele>2004.2</ele>
        <time>2022-07-17T10:15:30Z</time>
      </trkpt>
      <trkpt lat="45.08986" lon="6.4303">
        <ele>2004.4</ele>
        <time>2022-07-17T10:15:31Z</time>
      </trkpt>
      <trkpt lat="45.08984" lon="6.43031">
        <ele>2004.4</ele>
        <time>2022-07-17T10:15:32Z</time>
      </trkpt>
      <trkpt lat="45.08982" lon="6.43032">
        <ele>2004.8</ele>
        <time>2022-07-17T10:15:33Z</time>
      </trkpt>
      <trkpt lat="45.0898" lon="6.43033">
        <ele>2004.8</ele>
        <time>2022-07-17T10:15:34Z</time>
      </trkpt>
      <trkpt lat="45.08978" lon="6.43033">
        <ele>2005.4</ele>
        <time>2022-07-17T10:15:35Z</time>
      </trkpt>
      <trkpt lat="45.08975" lon="6.43033">
        <ele>2005.6</ele>
        <time>2022-07-17T10:15:36Z</time>
      </trkpt>
      <trkpt lat="45.08973" lon="6.43033">
        <ele>2005.8</ele>
        <time>2022-07-17T10:15:37Z</time>
      </trkpt>
      <trkpt lat="45.08971" lon="6.43034">
        <ele>2006.2</ele>
        <time>2022-07-17T10:15:38Z</time>
      </trkpt>
      <trkpt lat="45.08969" lon="6.43035">
        <ele>2006.4</ele>
        <time>2022-07-17T10:15:39Z</time>
      </trkpt>
      <trkpt lat="45.08968" lon="6.43036">
        <ele>2006.6</ele>
        <time>2022-07-17T10:15:40Z</time>
      </trkpt>
      <trkpt lat="45.08966" lon="6.43037">
        <ele>2006.8</ele>
        <time>2022-07-17T10:15:41Z</time>
      </trkpt>
      <trkpt lat="45.08964" lon="6.43037">
        <ele>2007</ele>
        <time>2022-07-17T10:15:42Z</time>
      </trkpt>
      <trkpt lat="45.08962" lon="6.43038">
        <ele>2007.4</ele>
        <time>2022-07-17T10:15:43Z</time>
      </trkpt>
      <trkpt lat="45.0896" lon="6.43038">
        <ele>2007.6</ele>
        <time>2022-07-17T10:15:44Z</time>
      </trkpt>
      <trkpt lat="45.08958" lon="6.43039">
        <ele>2008</ele>
        <time>2022-07-17T10:15:45Z</time>
      </trkpt>
      <trkpt lat="45.08956" lon="6.43039">
        <ele>2008.2</ele>
        <time>2022-07-17T10:15:46Z</time>
      </trkpt>
      <trkpt lat="45.08953" lon="6.43039">
        <ele>2008.4</ele>
        <time>2022-07-17T10:15:47Z</time>
      </trkpt>
      <trkpt lat="45.08951" lon="6.43039">
        <ele>2008.8</ele>
        <time>2022-07-17T10:15:48Z</time>
      </trkpt>
      <trkpt lat="45.08949" lon="6.43039">
        <ele>2009</ele>
        <time>2022-07-17T10:15:49Z</time>
      </trkpt>
      <trkpt lat="45.08947" lon="6.43039">
        <ele>2009</ele>
        <time>2022-07-17T10:15:50Z</time>
      </trkpt>
      <trkpt lat="45.08945" lon="6.43038">
        <ele>2009.4</ele>
        <time>2022-07-17T10:15:51Z</time>
      </trkpt>
      <trkpt lat="45.08943" lon="6.43038">
        <ele>2009.6</ele>
        <time>2022-07-17T10:15:52Z</time>
      </trkpt>
      <trkpt lat="45.08941" lon="6.43037">
        <ele>2009.6</ele>
        <time>2022-07-17T10:15:53Z</time>
      </trkpt>
      <trkpt lat="45.08939" lon="6.43036">
        <ele>2009.8</ele>
        <time>2022-07-17T10:15:54Z</time>
      </trkpt>
      <trkpt lat="45.08937" lon="6.43036">
        <ele>2009.8</ele>
        <time>2022-07-17T10:15:55Z</time>
      </trkpt>
      <trkpt lat="45.08935" lon="6.43035">
        <ele>2010.4</ele>
        <time>2022-07-17T10:15:57Z</time>
      </trkpt>
      <trkpt lat="45.08933" lon="6.43034">
        <ele>2010.4</ele>
        <time>2022-07-17T10:15:58Z</time>
      </trkpt>
      <trkpt lat="45.08932" lon="6.43033">
        <ele>2010.8</ele>
        <time>2022-07-17T10:15:59Z</time>
      </trkpt>
      <trkpt lat="45.0893" lon="6.43032">
        <ele>2011</ele>
        <time>2022-07-17T10:16:00Z</time>
      </trkpt>
      <trkpt lat="45.08928" lon="6.43032">
        <ele>2011.2</ele>
        <time>2022-07-17T10:16:01Z</time>
      </trkpt>
      <trkpt lat="45.08926" lon="6.4303">
        <ele>2011.2</ele>
        <time>2022-07-17T10:16:02Z</time>
      </trkpt>
      <trkpt lat="45.08924" lon="6.43029">
        <ele>2011.6</ele>
        <time>2022-07-17T10:16:03Z</time>
      </trkpt>
      <trkpt lat="45.08923" lon="6.43027">
        <ele>2012</ele>
        <time>2022-07-17T10:16:04Z</time>
      </trkpt>
      <trkpt lat="45.08921" lon="6.43026">
        <ele>2012</ele>
        <time>2022-07-17T10:16:05Z</time>
      </trkpt>
      <trkpt lat="45.08919" lon="6.43025">
        <ele>2012.2</ele>
        <time>2022-07-17T10:16:06Z</time>
      </trkpt>
      <trkpt lat="45.08917" lon="6.43025">
        <ele>2012.2</ele>
        <time>2022-07-17T10:16:07Z</time>
      </trkpt>
      <trkpt lat="45.08915" lon="6.43024">
        <ele>2012.6</ele>
        <time>2022-07-17T10:16:08Z</time>
      </trkpt>
      <trkpt lat="45.08913" lon="6.43024">
        <ele>2012.6</ele>
        <time>2022-07-17T10:16:09Z</time>
      </trkpt>
      <trkpt lat="45.08912" lon="6.43023">
        <ele>2013</ele>
        <time>2022-07-17T10:16:10Z</time>
      </trkpt>
      <trkpt lat="45.0891" lon="6.43023">
        <ele>2013</ele>
        <time>2022-07-17T10:16:11Z</time>
      </trkpt>
      <trkpt lat="45.08908" lon="6.43023">
        <ele>2013.4</ele>
        <time>2022-07-17T10:16:12Z</time>
      </trkpt>
      <trkpt lat="45.08906" lon="6.43022">
        <ele>2013.6</ele>
        <time>2022-07-17T10:16:13Z</time>
      </trkpt>
      <trkpt lat="45.08904" lon="6.43022">
        <ele>2013.8</ele>
        <time>2022-07-17T10:16:14Z</time>
      </trkpt>
      <trkpt lat="45.08902" lon="6.43021">
        <ele>2014</ele>
        <time>2022-07-17T10:16:15Z</time>
      </trkpt>
      <trkpt lat="45.089" lon="6.4302">
        <ele>2014.4</ele>
        <time>2022-07-17T10:16:16Z</time>
      </trkpt>
      <trkpt lat="45.08899" lon="6.4302">
        <ele>2014.6</ele>
        <time>2022-07-17T10:16:17Z</time>
      </trkpt>
      <trkpt lat="45.08897" lon="6.43019">
        <ele>2014.8</ele>
        <time>2022-07-17T10:16:18Z</time>
      </trkpt>
      <trkpt lat="45.08895" lon="6.43018">
        <ele>2014.8</ele>
        <time>2022-07-17T10:16:19Z</time>
      </trkpt>
      <trkpt lat="45.08893" lon="6.43018">
        <ele>2015.2</ele>
        <time>2022-07-17T10:16:20Z</time>
      </trkpt>
      <trkpt lat="45.08892" lon="6.43017">
        <ele>2015.4</ele>
        <time>2022-07-17T10:16:21Z</time>
      </trkpt>
      <trkpt lat="45.0889" lon="6.43017">
        <ele>2015.6</ele>
        <time>2022-07-17T10:16:22Z</time>
      </trkpt>
      <trkpt lat="45.08888" lon="6.43016">
        <ele>2015.6</ele>
        <time>2022-07-17T10:16:23Z</time>
      </trkpt>
      <trkpt lat="45.08886" lon="6.43016">
        <ele>2016</ele>
        <time>2022-07-17T10:16:24Z</time>
      </trkpt>
      <trkpt lat="45.08885" lon="6.43015">
        <ele>2016</ele>
        <time>2022-07-17T10:16:25Z</time>
      </trkpt>
      <trkpt lat="45.08883" lon="6.43015">
        <ele>2016.4</ele>
        <time>2022-07-17T10:16:26Z</time>
      </trkpt>
      <trkpt lat="45.08881" lon="6.43014">
        <ele>2016.4</ele>
        <time>2022-07-17T10:16:27Z</time>
      </trkpt>
      <trkpt lat="45.08879" lon="6.43013">
        <ele>2016.6</ele>
        <time>2022-07-17T10:16:28Z</time>
      </trkpt>
      <trkpt lat="45.08877" lon="6.43013">
        <ele>2016.6</ele>
        <time>2022-07-17T10:16:29Z</time>
      </trkpt>
      <trkpt lat="45.08876" lon="6.43013">
        <ele>2017</ele>
        <time>2022-07-17T10:16:30Z</time>
      </trkpt>
      <trkpt lat="45.08874" lon="6.43013">
        <ele>2017</ele>
        <time>2022-07-17T10:16:31Z</time>
      </trkpt>
      <trkpt lat="45.08872" lon="6.43013">
        <ele>2017.2</ele>
        <time>2022-07-17T10:16:32Z</time>
      </trkpt>
      <trkpt lat="45.0887" lon="6.43013">
        <ele>2017.2</ele>
        <time>2022-07-17T10:16:33Z</time>
      </trkpt>
      <trkpt lat="45.08869" lon="6.43013">
        <ele>2017.6</ele>
        <time>2022-07-17T10:16:34Z</time>
      </trkpt>
      <trkpt lat="45.08867" lon="6.43012">
        <ele>2017.8</ele>
        <time>2022-07-17T10:16:35Z</time>
      </trkpt>
      <trkpt lat="45.08865" lon="6.43012">
        <ele>2017.8</ele>
        <time>2022-07-17T10:16:36Z</time>
      </trkpt>
      <trkpt lat="45.08863" lon="6.43013">
        <ele>2018.2</ele>
        <time>2022-07-17T10:16:37Z</time>
      </trkpt>
      <trkpt lat="45.08861" lon="6.43013">
        <ele>2018.2</ele>
        <time>2022-07-17T10:16:38Z</time>
      </trkpt>
      <trkpt lat="45.0886" lon="6.43014">
        <ele>2018.4</ele>
        <time>2022-07-17T10:16:39Z</time>
      </trkpt>
      <trkpt lat="45.08858" lon="6.43014">
        <ele>2018.4</ele>
        <time>2022-07-17T10:16:40Z</time>
      </trkpt>
      <trkpt lat="45.08856" lon="6.43014">
        <ele>2018.8</ele>
        <time>2022-07-17T10:16:41Z</time>
      </trkpt>
      <trkpt lat="45.08854" lon="6.43015">
        <ele>2019.2</ele>
        <time>2022-07-17T10:16:42Z</time>
      </trkpt>
      <trkpt lat="45.08852" lon="6.43015">
        <ele>2019.2</ele>
        <time>2022-07-17T10:16:43Z</time>
      </trkpt>
      <trkpt lat="45.0885" lon="6.43016">
        <ele>2019.4</ele>
        <time>2022-07-17T10:16:44Z</time>
      </trkpt>
      <trkpt lat="45.08848" lon="6.43016">
        <ele>2019.4</ele>
        <time>2022-07-17T10:16:45Z</time>
      </trkpt>
      <trkpt lat="45.08846" lon="6.43017">
        <ele>2019.8</ele>
        <time>2022-07-17T10:16:46Z</time>
      </trkpt>
      <trkpt lat="45.08844" lon="6.43018">
        <ele>2020</ele>
        <time>2022-07-17T10:16:47Z</time>
      </trkpt>
      <trkpt lat="45.08843" lon="6.43018">
        <ele>2020</ele>
        <time>2022-07-17T10:16:48Z</time>
      </trkpt>
      <trkpt lat="45.08841" lon="6.43019">
        <ele>2020.4</ele>
        <time>2022-07-17T10:16:49Z</time>
      </trkpt>
      <trkpt lat="45.08839" lon="6.43019">
        <ele>2020.6</ele>
        <time>2022-07-17T10:16:50Z</time>
      </trkpt>
      <trkpt lat="45.08837" lon="6.4302">
        <ele>2021</ele>
        <time>2022-07-17T10:16:51Z</time>
      </trkpt>
      <trkpt lat="45.08835" lon="6.4302">
        <ele>2021</ele>
        <time>2022-07-17T10:16:52Z</time>
      </trkpt>
      <trkpt lat="45.08833" lon="6.43021">
        <ele>2021.4</ele>
        <time>2022-07-17T10:16:53Z</time>
      </trkpt>
      <trkpt lat="45.08831" lon="6.43021">
        <ele>2021.6</ele>
        <time>2022-07-17T10:16:54Z</time>
      </trkpt>
      <trkpt lat="45.08829" lon="6.43021">
        <ele>2021.8</ele>
        <time>2022-07-17T10:16:55Z</time>
      </trkpt>
      <trkpt lat="45.08827" lon="6.43021">
        <ele>2022.2</ele>
        <time>2022-07-17T10:16:56Z</time>
      </trkpt>
      <trkpt lat="45.08825" lon="6.43021">
        <ele>2022.2</ele>
        <time>2022-07-17T10:16:57Z</time>
      </trkpt>
      <trkpt lat="45.08823" lon="6.43021">
        <ele>2022.6</ele>
        <time>2022-07-17T10:16:58Z</time>
      </trkpt>
      <trkpt lat="45.08821" lon="6.43021">
        <ele>2022.8</ele>
        <time>2022-07-17T10:16:59Z</time>
      </trkpt>
      <trkpt lat="45.08819" lon="6.43021">
        <ele>2023</ele>
        <time>2022-07-17T10:17:00Z</time>
      </trkpt>
      <trkpt lat="45.08818" lon="6.43021">
        <ele>2023</ele>
        <time>2022-07-17T10:17:01Z</time>
      </trkpt>
      <trkpt lat="45.08816" lon="6.43021">
        <ele>2023.4</ele>
        <time>2022-07-17T10:17:02Z</time>
      </trkpt>
      <trkpt lat="45.08814" lon="6.43021">
        <ele>2023.6</ele>
        <time>2022-07-17T10:17:03Z</time>
      </trkpt>
      <trkpt lat="45.08812" lon="6.43021">
        <ele>2023.6</ele>
        <time>2022-07-17T10:17:04Z</time>
      </trkpt>
      <trkpt lat="45.0881" lon="6.4302">
        <ele>2024</ele>
        <time>2022-07-17T10:17:05Z</time>
      </trkpt>
      <trkpt lat="45.08808" lon="6.4302">
        <ele>2024</ele>
        <time>2022-07-17T10:17:06Z</time>
      </trkpt>
      <trkpt lat="45.08806" lon="6.4302">
        <ele>2024.4</ele>
        <time>2022-07-17T10:17:07Z</time>
      </trkpt>
      <trkpt lat="45.08804" lon="6.4302">
        <ele>2024.6</ele>
        <time>2022-07-17T10:17:08Z</time>
      </trkpt>
      <trkpt lat="45.08802" lon="6.43019">
        <ele>2024.6</ele>
        <time>2022-07-17T10:17:09Z</time>
      </trkpt>
      <trkpt lat="45.08801" lon="6.43019">
        <ele>2024.8</ele>
        <time>2022-07-17T10:17:10Z</time>
      </trkpt>
      <trkpt lat="45.08799" lon="6.43019">
        <ele>2024.8</ele>
        <time>2022-07-17T10:17:11Z</time>
      </trkpt>
      <trkpt lat="45.08797" lon="6.43018">
        <ele>2025.2</ele>
        <time>2022-07-17T10:17:12Z</time>
      </trkpt>
      <trkpt lat="45.08795" lon="6.43018">
        <ele>2025.2</ele>
        <time>2022-07-17T10:17:13Z</time>
      </trkpt>
      <trkpt lat="45.08793" lon="6.43017">
        <ele>2025.4</ele>
        <time>2022-07-17T10:17:14Z</time>
      </trkpt>
      <trkpt lat="45.08791" lon="6.43017">
        <ele>2025.4</ele>
        <time>2022-07-17T10:17:15Z</time>
      </trkpt>
      <trkpt lat="45.0879" lon="6.43017">
        <ele>2025.8</ele>
        <time>2022-07-17T10:17:16Z</time>
      </trkpt>
      <trkpt lat="45.08788" lon="6.43017">
        <ele>2025.8</ele>
        <time>2022-07-17T10:17:17Z</time>
      </trkpt>
      <trkpt lat="45.08786" lon="6.43017">
        <ele>2026.2</ele>
        <time>2022-07-17T10:17:18Z</time>
      </trkpt>
      <trkpt lat="45.08784" lon="6.43017">
        <ele>2026.2</ele>
        <time>2022-07-17T10:17:19Z</time>
      </trkpt>
      <trkpt lat="45.08782" lon="6.43017">
        <ele>2026.4</ele>
        <time>2022-07-17T10:17:20Z</time>
      </trkpt>
      <trkpt lat="45.08781" lon="6.43017">
        <ele>2026.4</ele>
        <time>2022-07-17T10:17:21Z</time>
      </trkpt>
      <trkpt lat="45.08779" lon="6.43018">
        <ele>2026.8</ele>
        <time>2022-07-17T10:17:22Z</time>
      </trkpt>
      <trkpt lat="45.08777" lon="6.43018">
        <ele>2026.8</ele>
        <time>2022-07-17T10:17:23Z</time>
      </trkpt>
      <trkpt lat="45.08775" lon="6.43019">
        <ele>2027.2</ele>
        <time>2022-07-17T10:17:24Z</time>
      </trkpt>
      <trkpt lat="45.08774" lon="6.43019">
        <ele>2027.2</ele>
        <time>2022-07-17T10:17:25Z</time>
      </trkpt>
      <trkpt lat="45.08772" lon="6.4302">
        <ele>2027.4</ele>
        <time>2022-07-17T10:17:26Z</time>
      </trkpt>
      <trkpt lat="45.0877" lon="6.43021">
        <ele>2027.4</ele>
        <time>2022-07-17T10:17:27Z</time>
      </trkpt>
      <trkpt lat="45.08769" lon="6.43022">
        <ele>2027.8</ele>
        <time>2022-07-17T10:17:28Z</time>
      </trkpt>
      <trkpt lat="45.08767" lon="6.43022">
        <ele>2027.8</ele>
        <time>2022-07-17T10:17:29Z</time>
      </trkpt>
      <trkpt lat="45.08766" lon="6.43023">
        <ele>2028.2</ele>
        <time>2022-07-17T10:17:30Z</time>
      </trkpt>
      <trkpt lat="45.08764" lon="6.43023">
        <ele>2028.2</ele>
        <time>2022-07-17T10:17:31Z</time>
      </trkpt>
      <trkpt lat="45.08762" lon="6.43024">
        <ele>2028.6</ele>
        <time>2022-07-17T10:17:32Z</time>
      </trkpt>
      <trkpt lat="45.08761" lon="6.43025">
        <ele>2028.8</ele>
        <time>2022-07-17T10:17:33Z</time>
      </trkpt>
      <trkpt lat="45.08759" lon="6.43025">
        <ele>2029</ele>
        <time>2022-07-17T10:17:34Z</time>
      </trkpt>
      <trkpt lat="45.08757" lon="6.43026">
        <ele>2029</ele>
        <time>2022-07-17T10:17:35Z</time>
      </trkpt>
      <trkpt lat="45.08756" lon="6.43027">
        <ele>2029.4</ele>
        <time>2022-07-17T10:17:36Z</time>
      </trkpt>
      <trkpt lat="45.08754" lon="6.43027">
        <ele>2029.6</ele>
        <time>2022-07-17T10:17:37Z</time>
      </trkpt>
      <trkpt lat="45.08752" lon="6.43028">
        <ele>2029.8</ele>
        <time>2022-07-17T10:17:38Z</time>
      </trkpt>
      <trkpt lat="45.0875" lon="6.43028">
        <ele>2029.8</ele>
        <time>2022-07-17T10:17:39Z</time>
      </trkpt>
      <trkpt lat="45.08748" lon="6.43029">
        <ele>2030.2</ele>
        <time>2022-07-17T10:17:40Z</time>
      </trkpt>
      <trkpt lat="45.08747" lon="6.43029">
        <ele>2030.6</ele>
        <time>2022-07-17T10:17:41Z</time>
      </trkpt>
      <trkpt lat="45.08745" lon="6.43029">
        <ele>2030.8</ele>
        <time>2022-07-17T10:17:42Z</time>
      </trkpt>
      <trkpt lat="45.08743" lon="6.43029">
        <ele>2031</ele>
        <time>2022-07-17T10:17:43Z</time>
      </trkpt>
      <trkpt lat="45.08741" lon="6.4303">
        <ele>2031</ele>
        <time>2022-07-17T10:17:44Z</time>
      </trkpt>
      <trkpt lat="45.08739" lon="6.4303">
        <ele>2031.2</ele>
        <time>2022-07-17T10:17:45Z</time>
      </trkpt>
      <trkpt lat="45.08738" lon="6.43031">
        <ele>2031.2</ele>
        <time>2022-07-17T10:17:46Z</time>
      </trkpt>
      <trkpt lat="45.08736" lon="6.43031">
        <ele>2031.6</ele>
        <time>2022-07-17T10:17:47Z</time>
      </trkpt>
      <trkpt lat="45.08734" lon="6.43031">
        <ele>2031.8</ele>
        <time>2022-07-17T10:17:48Z</time>
      </trkpt>
      <trkpt lat="45.08732" lon="6.43031">
        <ele>2031.8</ele>
        <time>2022-07-17T10:17:49Z</time>
      </trkpt>
      <trkpt lat="45.0873" lon="6.43032">
        <ele>2032.2</ele>
        <time>2022-07-17T10:17:50Z</time>
      </trkpt>
      <trkpt lat="45.08729" lon="6.43032">
        <ele>2032.4</ele>
        <time>2022-07-17T10:17:51Z</time>
      </trkpt>
      <trkpt lat="45.08727" lon="6.43033">
        <ele>2032.8</ele>
        <time>2022-07-17T10:17:52Z</time>
      </trkpt>
      <trkpt lat="45.08725" lon="6.43033">
        <ele>2032.8</ele>
        <time>2022-07-17T10:17:53Z</time>
      </trkpt>
      <trkpt lat="45.08723" lon="6.43033">
        <ele>2033</ele>
        <time>2022-07-17T10:17:54Z</time>
      </trkpt>
      <trkpt lat="45.08721" lon="6.43033">
        <ele>2033.2</ele>
        <time>2022-07-17T10:17:55Z</time>
      </trkpt>
      <trkpt lat="45.0872" lon="6.43034">
        <ele>2033.2</ele>
        <time>2022-07-17T10:17:56Z</time>
      </trkpt>
      <trkpt lat="45.08718" lon="6.43034">
        <ele>2033.6</ele>
        <time>2022-07-17T10:17:57Z</time>
      </trkpt>
      <trkpt lat="45.08716" lon="6.43035">
        <ele>2033.6</ele>
        <time>2022-07-17T10:17:58Z</time>
      </trkpt>
      <trkpt lat="45.08714" lon="6.43035">
        <ele>2034</ele>
        <time>2022-07-17T10:17:59Z</time>
      </trkpt>
      <trkpt lat="45.08712" lon="6.43036">
        <ele>2034</ele>
        <time>2022-07-17T10:18:00Z</time>
      </trkpt>
      <trkpt lat="45.08711" lon="6.43036">
        <ele>2034.4</ele>
        <time>2022-07-17T10:18:01Z</time>
      </trkpt>
      <trkpt lat="45.08709" lon="6.43036">
        <ele>2034.4</ele>
        <time>2022-07-17T10:18:02Z</time>
      </trkpt>
      <trkpt lat="45.08707" lon="6.43037">
        <ele>2034.8</ele>
        <time>2022-07-17T10:18:03Z</time>
      </trkpt>
      <trkpt lat="45.08705" lon="6.43037">
        <ele>2034.8</ele>
        <time>2022-07-17T10:18:04Z</time>
      </trkpt>
      <trkpt lat="45.08703" lon="6.43038">
        <ele>2035.2</ele>
        <time>2022-07-17T10:18:05Z</time>
      </trkpt>
      <trkpt lat="45.08702" lon="6.43039">
        <ele>2035.4</ele>
        <time>2022-07-17T10:18:06Z</time>
      </trkpt>
      <trkpt lat="45.087" lon="6.4304">
        <ele>2035.4</ele>
        <time>2022-07-17T10:18:07Z</time>
      </trkpt>
      <trkpt lat="45.08698" lon="6.43041">
        <ele>2035.8</ele>
        <time>2022-07-17T10:18:08Z</time>
      </trkpt>
      <trkpt lat="45.08696" lon="6.43042">
        <ele>2035.8</ele>
        <time>2022-07-17T10:18:09Z</time>
      </trkpt>
      <trkpt lat="45.08695" lon="6.43043">
        <ele>2036</ele>
        <time>2022-07-17T10:18:10Z</time>
      </trkpt>
      <trkpt lat="45.08693" lon="6.43045">
        <ele>2036</ele>
        <time>2022-07-17T10:18:11Z</time>
      </trkpt>
      <trkpt lat="45.08692" lon="6.43047">
        <ele>2036.4</ele>
        <time>2022-07-17T10:18:12Z</time>
      </trkpt>
      <trkpt lat="45.08691" lon="6.43049">
        <ele>2036.6</ele>
        <time>2022-07-17T10:18:13Z</time>
      </trkpt>
      <trkpt lat="45.0869" lon="6.43052">
        <ele>2036.8</ele>
        <time>2022-07-17T10:18:14Z</time>
      </trkpt>
      <trkpt lat="45.08689" lon="6.43054">
        <ele>2036.8</ele>
        <time>2022-07-17T10:18:15Z</time>
      </trkpt>
      <trkpt lat="45.08688" lon="6.43057">
        <ele>2037.2</ele>
        <time>2022-07-17T10:18:16Z</time>
      </trkpt>
      <trkpt lat="45.08688" lon="6.43059">
        <ele>2037.2</ele>
        <time>2022-07-17T10:18:17Z</time>
      </trkpt>
      <trkpt lat="45.08688" lon="6.43062">
        <ele>2037.4</ele>
        <time>2022-07-17T10:18:18Z</time>
      </trkpt>
      <trkpt lat="45.08688" lon="6.43065">
        <ele>2037.6</ele>
        <time>2022-07-17T10:18:19Z</time>
      </trkpt>
      <trkpt lat="45.08688" lon="6.43068">
        <ele>2038</ele>
        <time>2022-07-17T10:18:20Z</time>
      </trkpt>
      <trkpt lat="45.08688" lon="6.43071">
        <ele>2038</ele>
        <time>2022-07-17T10:18:21Z</time>
      </trkpt>
      <trkpt lat="45.08688" lon="6.43074">
        <ele>2038.2</ele>
        <time>2022-07-17T10:18:22Z</time>
      </trkpt>
      <trkpt lat="45.08689" lon="6.43076">
        <ele>2038.4</ele>
        <time>2022-07-17T10:18:23Z</time>
      </trkpt>
      <trkpt lat="45.08689" lon="6.43079">
        <ele>2038.6</ele>
        <time>2022-07-17T10:18:24Z</time>
      </trkpt>
      <trkpt lat="45.08689" lon="6.43082">
        <ele>2039</ele>
        <time>2022-07-17T10:18:25Z</time>
      </trkpt>
      <trkpt lat="45.0869" lon="6.43085">
        <ele>2039</ele>
        <time>2022-07-17T10:18:26Z</time>
      </trkpt>
      <trkpt lat="45.08691" lon="6.43088">
        <ele>2039.4</ele>
        <time>2022-07-17T10:18:27Z</time>
      </trkpt>
      <trkpt lat="45.08691" lon="6.43091">
        <ele>2039.4</ele>
        <time>2022-07-17T10:18:28Z</time>
      </trkpt>
      <trkpt lat="45.08691" lon="6.43093">
        <ele>2039.6</ele>
        <time>2022-07-17T10:18:29Z</time>
      </trkpt>
      <trkpt lat="45.08691" lon="6.43096">
        <ele>2039.6</ele>
        <time>2022-07-17T10:18:30Z</time>
      </trkpt>
      <trkpt lat="45.08691" lon="6.43099">
        <ele>2040</ele>
        <time>2022-07-17T10:18:31Z</time>
      </trkpt>
      <trkpt lat="45.08691" lon="6.43101">
        <ele>2040.2</ele>
        <time>2022-07-17T10:18:32Z</time>
      </trkpt>
      <trkpt lat="45.08691" lon="6.43104">
        <ele>2040.4</ele>
        <time>2022-07-17T10:18:33Z</time>
      </trkpt>
      <trkpt lat="45.08691" lon="6.43107">
        <ele>2040.8</ele>
        <time>2022-07-17T10:18:34Z</time>
      </trkpt>
      <trkpt lat="45.08691" lon="6.43109">
        <ele>2040.8</ele>
        <time>2022-07-17T10:18:35Z</time>
      </trkpt>
      <trkpt lat="45.08691" lon="6.43112">
        <ele>2041</ele>
        <time>2022-07-17T10:18:36Z</time>
      </trkpt>
      <trkpt lat="45.08691" lon="6.43114">
        <ele>2041</ele>
        <time>2022-07-17T10:18:37Z</time>
      </trkpt>
      <trkpt lat="45.08691" lon="6.43117">
        <ele>2041</ele>
        <time>2022-07-17T10:18:38Z</time>
      </trkpt>
      <trkpt lat="45.08691" lon="6.43119">
        <ele>2041</ele>
        <time>2022-07-17T10:18:39Z</time>
      </trkpt>
      <trkpt lat="45.08691" lon="6.43122">
        <ele>2041.4</ele>
        <time>2022-07-17T10:18:40Z</time>
      </trkpt>
      <trkpt lat="45.0869" lon="6.43124">
        <ele>2041.6</ele>
        <time>2022-07-17T10:18:41Z</time>
      </trkpt>
      <trkpt lat="45.0869" lon="6.43127">
        <ele>2041.8</ele>
        <time>2022-07-17T10:18:42Z</time>
      </trkpt>
      <trkpt lat="45.08689" lon="6.43129">
        <ele>2041.8</ele>
        <time>2022-07-17T10:18:43Z</time>
      </trkpt>
      <trkpt lat="45.08689" lon="6.43132">
        <ele>2042</ele>
        <time>2022-07-17T10:18:44Z</time>
      </trkpt>
      <trkpt lat="45.0869" lon="6.43134">
        <ele>2042</ele>
        <time>2022-07-17T10:18:45Z</time>
      </trkpt>
      <trkpt lat="45.0869" lon="6.43137">
        <ele>2042.4</ele>
        <time>2022-07-17T10:18:46Z</time>
      </trkpt>
      <trkpt lat="45.08689" lon="6.4314">
        <ele>2042.4</ele>
        <time>2022-07-17T10:18:47Z</time>
      </trkpt>
      <trkpt lat="45.08689" lon="6.43143">
        <ele>2042.8</ele>
        <time>2022-07-17T10:18:48Z</time>
      </trkpt>
      <trkpt lat="45.08689" lon="6.43145">
        <ele>2043.2</ele>
        <time>2022-07-17T10:18:49Z</time>
      </trkpt>
      <trkpt lat="45.08689" lon="6.43148">
        <ele>2043.4</ele>
        <time>2022-07-17T10:18:50Z</time>
      </trkpt>
      <trkpt lat="45.08688" lon="6.4315">
        <ele>2043.4</ele>
        <time>2022-07-17T10:18:51Z</time>
      </trkpt>
      <trkpt lat="45.08688" lon="6.43153">
        <ele>2043.8</ele>
        <time>2022-07-17T10:18:52Z</time>
      </trkpt>
      <trkpt lat="45.08688" lon="6.43156">
        <ele>2044</ele>
        <time>2022-07-17T10:18:53Z</time>
      </trkpt>
      <trkpt lat="45.08688" lon="6.43158">
        <ele>2044</ele>
        <time>2022-07-17T10:18:54Z</time>
      </trkpt>
      <trkpt lat="45.08687" lon="6.43161">
        <ele>2044.2</ele>
        <time>2022-07-17T10:18:55Z</time>
      </trkpt>
      <trkpt lat="45.08687" lon="6.43163">
        <ele>2044.6</ele>
        <time>2022-07-17T10:18:56Z</time>
      </trkpt>
      <trkpt lat="45.08686" lon="6.43166">
        <ele>2044.8</ele>
        <time>2022-07-17T10:18:57Z</time>
      </trkpt>
      <trkpt lat="45.08686" lon="6.43168">
        <ele>2044.8</ele>
        <time>2022-07-17T10:18:58Z</time>
      </trkpt>
      <trkpt lat="45.08685" lon="6.43171">
        <ele>2044.8</ele>
        <time>2022-07-17T10:18:59Z</time>
      </trkpt>
      <trkpt lat="45.08684" lon="6.43173">
        <ele>2045</ele>
        <time>2022-07-17T10:19:00Z</time>
      </trkpt>
      <trkpt lat="45.08683" lon="6.43176">
        <ele>2045</ele>
        <time>2022-07-17T10:19:01Z</time>
      </trkpt>
      <trkpt lat="45.08683" lon="6.43178">
        <ele>2045.4</ele>
        <time>2022-07-17T10:19:02Z</time>
      </trkpt>
      <trkpt lat="45.08682" lon="6.4318">
        <ele>2045.4</ele>
        <time>2022-07-17T10:19:03Z</time>
      </trkpt>
      <trkpt lat="45.08681" lon="6.43183">
        <ele>2045.8</ele>
        <time>2022-07-17T10:19:04Z</time>
      </trkpt>
      <trkpt lat="45.0868" lon="6.43185">
        <ele>2045.8</ele>
        <time>2022-07-17T10:19:05Z</time>
      </trkpt>
      <trkpt lat="45.08679" lon="6.43187">
        <ele>2046</ele>
        <time>2022-07-17T10:19:06Z</time>
      </trkpt>
      <trkpt lat="45.08678" lon="6.43189">
        <ele>2046</ele>
        <time>2022-07-17T10:19:07Z</time>
      </trkpt>
      <trkpt lat="45.08676" lon="6.43191">
        <ele>2046.2</ele>
        <time>2022-07-17T10:19:08Z</time>
      </trkpt>
      <trkpt lat="45.08675" lon="6.43193">
        <ele>2046.2</ele>
        <time>2022-07-17T10:19:09Z</time>
      </trkpt>
      <trkpt lat="45.08674" lon="6.43195">
        <ele>2046.2</ele>
        <time>2022-07-17T10:19:10Z</time>
      </trkpt>
      <trkpt lat="45.08673" lon="6.43197">
        <ele>2046.6</ele>
        <time>2022-07-17T10:19:11Z</time>
      </trkpt>
      <trkpt lat="45.08671" lon="6.43199">
        <ele>2046.6</ele>
        <time>2022-07-17T10:19:12Z</time>
      </trkpt>
      <trkpt lat="45.0867" lon="6.43201">
        <ele>2047.2</ele>
        <time>2022-07-17T10:19:13Z</time>
      </trkpt>
      <trkpt lat="45.08668" lon="6.43203">
        <ele>2047.2</ele>
        <time>2022-07-17T10:19:14Z</time>
      </trkpt>
      <trkpt lat="45.08667" lon="6.43204">
        <ele>2047.4</ele>
        <time>2022-07-17T10:19:15Z</time>
      </trkpt>
      <trkpt lat="45.08665" lon="6.43206">
        <ele>2047.4</ele>
        <time>2022-07-17T10:19:16Z</time>
      </trkpt>
      <trkpt lat="45.08664" lon="6.43207">
        <ele>2047.8</ele>
        <time>2022-07-17T10:19:17Z</time>
      </trkpt>
      <trkpt lat="45.08662" lon="6.43209">
        <ele>2048</ele>
        <time>2022-07-17T10:19:18Z</time>
      </trkpt>
      <trkpt lat="45.08661" lon="6.4321">
        <ele>2048</ele>
        <time>2022-07-17T10:19:19Z</time>
      </trkpt>
      <trkpt lat="45.08659" lon="6.43212">
        <ele>2048.4</ele>
        <time>2022-07-17T10:19:20Z</time>
      </trkpt>
      <trkpt lat="45.08657" lon="6.43213">
        <ele>2048.4</ele>
        <time>2022-07-17T10:19:21Z</time>
      </trkpt>
      <trkpt lat="45.08656" lon="6.43214">
        <ele>2048.8</ele>
        <time>2022-07-17T10:19:22Z</time>
      </trkpt>
      <trkpt lat="45.08654" lon="6.43216">
        <ele>2048.8</ele>
        <time>2022-07-17T10:19:23Z</time>
      </trkpt>
      <trkpt lat="45.08652" lon="6.43217">
        <ele>2049</ele>
        <time>2022-07-17T10:19:24Z</time>
      </trkpt>
      <trkpt lat="45.08651" lon="6.43218">
        <ele>2049</ele>
        <time>2022-07-17T10:19:25Z</time>
      </trkpt>
      <trkpt lat="45.08649" lon="6.43219">
        <ele>2049.4</ele>
        <time>2022-07-17T10:19:26Z</time>
      </trkpt>
      <trkpt lat="45.08647" lon="6.43221">
        <ele>2049.4</ele>
        <time>2022-07-17T10:19:27Z</time>
      </trkpt>
      <trkpt lat="45.08646" lon="6.43222">
        <ele>2049.8</ele>
        <time>2022-07-17T10:19:28Z</time>
      </trkpt>
      <trkpt lat="45.08644" lon="6.43223">
        <ele>2049.8</ele>
        <time>2022-07-17T10:19:29Z</time>
      </trkpt>
      <trkpt lat="45.08642" lon="6.43224">
        <ele>2050</ele>
        <time>2022-07-17T10:19:30Z</time>
      </trkpt>
      <trkpt lat="45.08641" lon="6.43225">
        <ele>2050</ele>
        <time>2022-07-17T10:19:31Z</time>
      </trkpt>
      <trkpt lat="45.08639" lon="6.43227">
        <ele>2050.4</ele>
        <time>2022-07-17T10:19:32Z</time>
      </trkpt>
      <trkpt lat="45.08638" lon="6.43228">
        <ele>2050.6</ele>
        <time>2022-07-17T10:19:33Z</time>
      </trkpt>
      <trkpt lat="45.08636" lon="6.43229">
        <ele>2050.6</ele>
        <time>2022-07-17T10:19:34Z</time>
      </trkpt>
      <trkpt lat="45.08635" lon="6.4323">
        <ele>2051</ele>
        <time>2022-07-17T10:19:35Z</time>
      </trkpt>
      <trkpt lat="45.08633" lon="6.43231">
        <ele>2051.2</ele>
        <time>2022-07-17T10:19:36Z</time>
      </trkpt>
      <trkpt lat="45.08631" lon="6.43232">
        <ele>2051.4</ele>
        <time>2022-07-17T10:19:37Z</time>
      </trkpt>
      <trkpt lat="45.0863" lon="6.43234">
        <ele>2051.6</ele>
        <time>2022-07-17T10:19:38Z</time>
      </trkpt>
      <trkpt lat="45.08628" lon="6.43235">
        <ele>2051.8</ele>
        <time>2022-07-17T10:19:39Z</time>
      </trkpt>
      <trkpt lat="45.08627" lon="6.43236">
        <ele>2052</ele>
        <time>2022-07-17T10:19:40Z</time>
      </trkpt>
      <trkpt lat="45.08625" lon="6.43237">
        <ele>2052</ele>
        <time>2022-07-17T10:19:41Z</time>
      </trkpt>
      <trkpt lat="45.08624" lon="6.43238">
        <ele>2052.4</ele>
        <time>2022-07-17T10:19:42Z</time>
      </trkpt>
      <trkpt lat="45.08622" lon="6.43239">
        <ele>2052.8</ele>
        <time>2022-07-17T10:19:43Z</time>
      </trkpt>
      <trkpt lat="45.08621" lon="6.4324">
        <ele>2053</ele>
        <time>2022-07-17T10:19:44Z</time>
      </trkpt>
      <trkpt lat="45.08619" lon="6.43242">
        <ele>2053</ele>
        <time>2022-07-17T10:19:45Z</time>
      </trkpt>
      <trkpt lat="45.08617" lon="6.43243">
        <ele>2053.4</ele>
        <time>2022-07-17T10:19:46Z</time>
      </trkpt>
      <trkpt lat="45.08616" lon="6.43244">
        <ele>2053.4</ele>
        <time>2022-07-17T10:19:47Z</time>
      </trkpt>
      <trkpt lat="45.08614" lon="6.43245">
        <ele>2053.8</ele>
        <time>2022-07-17T10:19:48Z</time>
      </trkpt>
      <trkpt lat="45.08612" lon="6.43246">
        <ele>2054</ele>
        <time>2022-07-17T10:19:49Z</time>
      </trkpt>
      <trkpt lat="45.08611" lon="6.43247">
        <ele>2054</ele>
        <time>2022-07-17T10:19:50Z</time>
      </trkpt>
      <trkpt lat="45.08609" lon="6.43248">
        <ele>2054.4</ele>
        <time>2022-07-17T10:19:51Z</time>
      </trkpt>
      <trkpt lat="45.08607" lon="6.43248">
        <ele>2054.6</ele>
        <time>2022-07-17T10:19:52Z</time>
      </trkpt>
      <trkpt lat="45.08606" lon="6.43249">
        <ele>2054.6</ele>
        <time>2022-07-17T10:19:53Z</time>
      </trkpt>
      <trkpt lat="45.08604" lon="6.43249">
        <ele>2054.8</ele>
        <time>2022-07-17T10:19:54Z</time>
      </trkpt>
      <trkpt lat="45.08602" lon="6.43249">
        <ele>2054.8</ele>
        <time>2022-07-17T10:19:55Z</time>
      </trkpt>
      <trkpt lat="45.08601" lon="6.43249">
        <ele>2055.2</ele>
        <time>2022-07-17T10:19:56Z</time>
      </trkpt>
      <trkpt lat="45.08599" lon="6.43249">
        <ele>2055.4</ele>
        <time>2022-07-17T10:19:57Z</time>
      </trkpt>
      <trkpt lat="45.08597" lon="6.43248">
        <ele>2055.4</ele>
        <time>2022-07-17T10:19:58Z</time>
      </trkpt>
      <trkpt lat="45.08596" lon="6.43247">
        <ele>2055.8</ele>
        <time>2022-07-17T10:19:59Z</time>
      </trkpt>
      <trkpt lat="45.08595" lon="6.43245">
        <ele>2055.8</ele>
        <time>2022-07-17T10:20:00Z</time>
      </trkpt>
      <trkpt lat="45.08593" lon="6.43244">
        <ele>2056</ele>
        <time>2022-07-17T10:20:01Z</time>
      </trkpt>
      <trkpt lat="45.08592" lon="6.43242">
        <ele>2056</ele>
        <time>2022-07-17T10:20:02Z</time>
      </trkpt>
      <trkpt lat="45.0859" lon="6.43241">
        <ele>2056.4</ele>
        <time>2022-07-17T10:20:03Z</time>
      </trkpt>
      <trkpt lat="45.08589" lon="6.43239">
        <ele>2056.4</ele>
        <time>2022-07-17T10:20:04Z</time>
      </trkpt>
      <trkpt lat="45.08587" lon="6.43237">
        <ele>2056.8</ele>
        <time>2022-07-17T10:20:05Z</time>
      </trkpt>
      <trkpt lat="45.08586" lon="6.43235">
        <ele>2056.8</ele>
        <time>2022-07-17T10:20:06Z</time>
      </trkpt>
      <trkpt lat="45.08585" lon="6.43233">
        <ele>2057.2</ele>
        <time>2022-07-17T10:20:07Z</time>
      </trkpt>
      <trkpt lat="45.08584" lon="6.43231">
        <ele>2057.2</ele>
        <time>2022-07-17T10:20:08Z</time>
      </trkpt>
      <trkpt lat="45.08583" lon="6.43228">
        <ele>2057.4</ele>
        <time>2022-07-17T10:20:09Z</time>
      </trkpt>
      <trkpt lat="45.08582" lon="6.43226">
        <ele>2057.4</ele>
        <time>2022-07-17T10:20:10Z</time>
      </trkpt>
      <trkpt lat="45.08581" lon="6.43224">
        <ele>2057.6</ele>
        <time>2022-07-17T10:20:11Z</time>
      </trkpt>
      <trkpt lat="45.0858" lon="6.43221">
        <ele>2057.6</ele>
        <time>2022-07-17T10:20:12Z</time>
      </trkpt>
      <trkpt lat="45.0858" lon="6.43219">
        <ele>2057.8</ele>
        <time>2022-07-17T10:20:13Z</time>
      </trkpt>
      <trkpt lat="45.08579" lon="6.43217">
        <ele>2057.8</ele>
        <time>2022-07-17T10:20:14Z</time>
      </trkpt>
      <trkpt lat="45.08578" lon="6.43214">
        <ele>2058.2</ele>
        <time>2022-07-17T10:20:15Z</time>
      </trkpt>
      <trkpt lat="45.08578" lon="6.43212">
        <ele>2058.2</ele>
        <time>2022-07-17T10:20:16Z</time>
      </trkpt>
      <trkpt lat="45.08577" lon="6.43209">
        <ele>2058.6</ele>
        <time>2022-07-17T10:20:17Z</time>
      </trkpt>
      <trkpt lat="45.08577" lon="6.43207">
        <ele>2058.6</ele>
        <time>2022-07-17T10:20:18Z</time>
      </trkpt>
      <trkpt lat="45.08577" lon="6.43204">
        <ele>2059</ele>
        <time>2022-07-17T10:20:19Z</time>
      </trkpt>
      <trkpt lat="45.08577" lon="6.43202">
        <ele>2059</ele>
        <time>2022-07-17T10:20:20Z</time>
      </trkpt>
      <trkpt lat="45.08577" lon="6.43199">
        <ele>2059.2</ele>
        <time>2022-07-17T10:20:21Z</time>
      </trkpt>
      <trkpt lat="45.08576" lon="6.43197">
        <ele>2059.4</ele>
        <time>2022-07-17T10:20:22Z</time>
      </trkpt>
      <trkpt lat="45.08576" lon="6.43194">
        <ele>2059.4</ele>
        <time>2022-07-17T10:20:23Z</time>
      </trkpt>
      <trkpt lat="45.08576" lon="6.43192">
        <ele>2059.8</ele>
        <time>2022-07-17T10:20:24Z</time>
      </trkpt>
      <trkpt lat="45.08576" lon="6.43189">
        <ele>2059.8</ele>
        <time>2022-07-17T10:20:25Z</time>
      </trkpt>
      <trkpt lat="45.08576" lon="6.43187">
        <ele>2060.2</ele>
        <time>2022-07-17T10:20:26Z</time>
      </trkpt>
      <trkpt lat="45.08576" lon="6.43184">
        <ele>2060.4</ele>
        <time>2022-07-17T10:20:27Z</time>
      </trkpt>
      <trkpt lat="45.08576" lon="6.43182">
        <ele>2060.4</ele>
        <time>2022-07-17T10:20:28Z</time>
      </trkpt>
      <trkpt lat="45.08575" lon="6.43179">
        <ele>2060.8</ele>
        <time>2022-07-17T10:20:29Z</time>
      </trkpt>
      <trkpt lat="45.08575" lon="6.43177">
        <ele>2061</ele>
        <time>2022-07-17T10:20:30Z</time>
      </trkpt>
      <trkpt lat="45.08575" lon="6.43175">
        <ele>2061</ele>
        <time>2022-07-17T10:20:31Z</time>
      </trkpt>
      <trkpt lat="45.08576" lon="6.43172">
        <ele>2061.2</ele>
        <time>2022-07-17T10:20:32Z</time>
      </trkpt>
      <trkpt lat="45.08576" lon="6.43169">
        <ele>2061.4</ele>
        <time>2022-07-17T10:20:33Z</time>
      </trkpt>
      <trkpt lat="45.08576" lon="6.43167">
        <ele>2061.4</ele>
        <time>2022-07-17T10:20:34Z</time>
      </trkpt>
      <trkpt lat="45.08576" lon="6.43164">
        <ele>2061.8</ele>
        <time>2022-07-17T10:20:35Z</time>
      </trkpt>
      <trkpt lat="45.08576" lon="6.43162">
        <ele>2062</ele>
        <time>2022-07-17T10:20:36Z</time>
      </trkpt>
      <trkpt lat="45.08576" lon="6.4316">
        <ele>2062</ele>
        <time>2022-07-17T10:20:37Z</time>
      </trkpt>
      <trkpt lat="45.08576" lon="6.43157">
        <ele>2062.4</ele>
        <time>2022-07-17T10:20:38Z</time>
      </trkpt>
      <trkpt lat="45.08576" lon="6.43155">
        <ele>2062.4</ele>
        <time>2022-07-17T10:20:39Z</time>
      </trkpt>
      <trkpt lat="45.08576" lon="6.43153">
        <ele>2062.8</ele>
        <time>2022-07-17T10:20:40Z</time>
      </trkpt>
      <trkpt lat="45.08576" lon="6.4315">
        <ele>2063</ele>
        <time>2022-07-17T10:20:41Z</time>
      </trkpt>
      <trkpt lat="45.08577" lon="6.43148">
        <ele>2063.4</ele>
        <time>2022-07-17T10:20:42Z</time>
      </trkpt>
      <trkpt lat="45.08577" lon="6.43145">
        <ele>2063.4</ele>
        <time>2022-07-17T10:20:43Z</time>
      </trkpt>
      <trkpt lat="45.08577" lon="6.43143">
        <ele>2063.6</ele>
        <time>2022-07-17T10:20:44Z</time>
      </trkpt>
      <trkpt lat="45.08577" lon="6.43141">
        <ele>2063.6</ele>
        <time>2022-07-17T10:20:45Z</time>
      </trkpt>
      <trkpt lat="45.08577" lon="6.43138">
        <ele>2064</ele>
        <time>2022-07-17T10:20:46Z</time>
      </trkpt>
      <trkpt lat="45.08577" lon="6.43136">
        <ele>2064</ele>
        <time>2022-07-17T10:20:47Z</time>
      </trkpt>
      <trkpt lat="45.08577" lon="6.43134">
        <ele>2064.4</ele>
        <time>2022-07-17T10:20:48Z</time>
      </trkpt>
      <trkpt lat="45.08578" lon="6.43131">
        <ele>2064.4</ele>
        <time>2022-07-17T10:20:49Z</time>
      </trkpt>
      <trkpt lat="45.08578" lon="6.43129">
        <ele>2064.6</ele>
        <time>2022-07-17T10:20:50Z</time>
      </trkpt>
      <trkpt lat="45.08578" lon="6.43126">
        <ele>2064.6</ele>
        <time>2022-07-17T10:20:51Z</time>
      </trkpt>
      <trkpt lat="45.08578" lon="6.43124">
        <ele>2065</ele>
        <time>2022-07-17T10:20:52Z</time>
      </trkpt>
      <trkpt lat="45.08578" lon="6.43122">
        <ele>2065.2</ele>
        <time>2022-07-17T10:20:53Z</time>
      </trkpt>
      <trkpt lat="45.08578" lon="6.43119">
        <ele>2065.4</ele>
        <time>2022-07-17T10:20:54Z</time>
      </trkpt>
      <trkpt lat="45.08579" lon="6.43117">
        <ele>2065.4</ele>
        <time>2022-07-17T10:20:55Z</time>
      </trkpt>
      <trkpt lat="45.08579" lon="6.43114">
        <ele>2065.8</ele>
        <time>2022-07-17T10:20:56Z</time>
      </trkpt>
      <trkpt lat="45.08579" lon="6.43112">
        <ele>2066.2</ele>
        <time>2022-07-17T10:20:57Z</time>
      </trkpt>
      <trkpt lat="45.08579" lon="6.4311">
        <ele>2066.2</ele>
        <time>2022-07-17T10:20:58Z</time>
      </trkpt>
      <trkpt lat="45.08579" lon="6.43107">
        <ele>2066.6</ele>
        <time>2022-07-17T10:20:59Z</time>
      </trkpt>
      <trkpt lat="45.0858" lon="6.43105">
        <ele>2066.8</ele>
        <time>2022-07-17T10:21:00Z</time>
      </trkpt>
      <trkpt lat="45.0858" lon="6.43103">
        <ele>2067</ele>
        <time>2022-07-17T10:21:01Z</time>
      </trkpt>
      <trkpt lat="45.08581" lon="6.431">
        <ele>2067</ele>
        <time>2022-07-17T10:21:02Z</time>
      </trkpt>
      <trkpt lat="45.08581" lon="6.43098">
        <ele>2067.2</ele>
        <time>2022-07-17T10:21:03Z</time>
      </trkpt>
      <trkpt lat="45.08582" lon="6.43095">
        <ele>2067.2</ele>
        <time>2022-07-17T10:21:04Z</time>
      </trkpt>
      <trkpt lat="45.08582" lon="6.43093">
        <ele>2067.2</ele>
        <time>2022-07-17T10:21:05Z</time>
      </trkpt>
      <trkpt lat="45.08583" lon="6.4309">
        <ele>2067.4</ele>
        <time>2022-07-17T10:21:06Z</time>
      </trkpt>
      <trkpt lat="45.08584" lon="6.43088">
        <ele>2067.4</ele>
        <time>2022-07-17T10:21:07Z</time>
      </trkpt>
      <trkpt lat="45.08584" lon="6.43085">
        <ele>2067.8</ele>
        <time>2022-07-17T10:21:08Z</time>
      </trkpt>
      <trkpt lat="45.08585" lon="6.43083">
        <ele>2067.8</ele>
        <time>2022-07-17T10:21:09Z</time>
      </trkpt>
      <trkpt lat="45.08586" lon="6.43081">
        <ele>2068</ele>
        <time>2022-07-17T10:21:10Z</time>
      </trkpt>
      <trkpt lat="45.08587" lon="6.43079">
        <ele>2068</ele>
        <time>2022-07-17T10:21:11Z</time>
      </trkpt>
      <trkpt lat="45.08588" lon="6.43077">
        <ele>2068.4</ele>
        <time>2022-07-17T10:21:12Z</time>
      </trkpt>
      <trkpt lat="45.08588" lon="6.43075">
        <ele>2068.4</ele>
        <time>2022-07-17T10:21:13Z</time>
      </trkpt>
      <trkpt lat="45.08589" lon="6.43073">
        <ele>2068.8</ele>
        <time>2022-07-17T10:21:14Z</time>
      </trkpt>
      <trkpt lat="45.0859" lon="6.43071">
        <ele>2069</ele>
        <time>2022-07-17T10:21:15Z</time>
      </trkpt>
      <trkpt lat="45.08591" lon="6.43069">
        <ele>2069</ele>
        <time>2022-07-17T10:21:16Z</time>
      </trkpt>
      <trkpt lat="45.08592" lon="6.43067">
        <ele>2069.4</ele>
        <time>2022-07-17T10:21:17Z</time>
      </trkpt>
      <trkpt lat="45.08593" lon="6.43064">
        <ele>2069.4</ele>
        <time>2022-07-17T10:21:18Z</time>
      </trkpt>
      <trkpt lat="45.08594" lon="6.43062">
        <ele>2070</ele>
        <time>2022-07-17T10:21:19Z</time>
      </trkpt>
      <trkpt lat="45.08596" lon="6.4306">
        <ele>2070</ele>
        <time>2022-07-17T10:21:20Z</time>
      </trkpt>
      <trkpt lat="45.08597" lon="6.43058">
        <ele>2070.4</ele>
        <time>2022-07-17T10:21:21Z</time>
      </trkpt>
      <trkpt lat="45.08598" lon="6.43056">
        <ele>2070.6</ele>
        <time>2022-07-17T10:21:22Z</time>
      </trkpt>
      <trkpt lat="45.08599" lon="6.43054">
        <ele>2070.6</ele>
        <time>2022-07-17T10:21:23Z</time>
      </trkpt>
      <trkpt lat="45.086" lon="6.43052">
        <ele>2071</ele>
        <time>2022-07-17T10:21:24Z</time>
      </trkpt>
      <trkpt lat="45.08601" lon="6.4305">
        <ele>2071</ele>
        <time>2022-07-17T10:21:25Z</time>
      </trkpt>
      <trkpt lat="45.08602" lon="6.43048">
        <ele>2071.4</ele>
        <time>2022-07-17T10:21:26Z</time>
      </trkpt>
      <trkpt lat="45.08603" lon="6.43046">
        <ele>2071.4</ele>
        <time>2022-07-17T10:21:27Z</time>
      </trkpt>
      <trkpt lat="45.08604" lon="6.43044">
        <ele>2071.6</ele>
        <time>2022-07-17T10:21:28Z</time>
      </trkpt>
      <trkpt lat="45.08605" lon="6.43042">
        <ele>2071.8</ele>
        <time>2022-07-17T10:21:29Z</time>
      </trkpt>
      <trkpt lat="45.08606" lon="6.4304">
        <ele>2072</ele>
        <time>2022-07-17T10:21:30Z</time>
      </trkpt>
      <trkpt lat="45.08607" lon="6.43038">
        <ele>2072.2</ele>
        <time>2022-07-17T10:21:31Z</time>
      </trkpt>
      <trkpt lat="45.08608" lon="6.43036">
        <ele>2072.2</ele>
        <time>2022-07-17T10:21:32Z</time>
      </trkpt>
      <trkpt lat="45.08609" lon="6.43034">
        <ele>2072.6</ele>
        <time>2022-07-17T10:21:33Z</time>
      </trkpt>
      <trkpt lat="45.0861" lon="6.43032">
        <ele>2072.6</ele>
        <time>2022-07-17T10:21:34Z</time>
      </trkpt>
      <trkpt lat="45.08611" lon="6.4303">
        <ele>2073</ele>
        <time>2022-07-17T10:21:35Z</time>
      </trkpt>
      <trkpt lat="45.08612" lon="6.43028">
        <ele>2073</ele>
        <time>2022-07-17T10:21:36Z</time>
      </trkpt>
      <trkpt lat="45.08613" lon="6.43026">
        <ele>2073.2</ele>
        <time>2022-07-17T10:21:37Z</time>
      </trkpt>
      <trkpt lat="45.08614" lon="6.43023">
        <ele>2073.4</ele>
        <time>2022-07-17T10:21:38Z</time>
      </trkpt>
      <trkpt lat="45.08615" lon="6.43021">
        <ele>2073.8</ele>
        <time>2022-07-17T10:21:39Z</time>
      </trkpt>
      <trkpt lat="45.08616" lon="6.43019">
        <ele>2074</ele>
        <time>2022-07-17T10:21:40Z</time>
      </trkpt>
      <trkpt lat="45.08617" lon="6.43017">
        <ele>2074</ele>
        <time>2022-07-17T10:21:41Z</time>
      </trkpt>
      <trkpt lat="45.08618" lon="6.43014">
        <ele>2074.2</ele>
        <time>2022-07-17T10:21:42Z</time>
      </trkpt>
      <trkpt lat="45.08619" lon="6.43012">
        <ele>2074.2</ele>
        <time>2022-07-17T10:21:43Z</time>
      </trkpt>
      <trkpt lat="45.0862" lon="6.4301">
        <ele>2074.4</ele>
        <time>2022-07-17T10:21:44Z</time>
      </trkpt>
      <trkpt lat="45.08621" lon="6.43008">
        <ele>2074.4</ele>
        <time>2022-07-17T10:21:45Z</time>
      </trkpt>
      <trkpt lat="45.08623" lon="6.43006">
        <ele>2074.4</ele>
        <time>2022-07-17T10:21:46Z</time>
      </trkpt>
      <trkpt lat="45.08624" lon="6.43004">
        <ele>2074.6</ele>
        <time>2022-07-17T10:21:47Z</time>
      </trkpt>
      <trkpt lat="45.08626" lon="6.43001">
        <ele>2074.6</ele>
        <time>2022-07-17T10:21:48Z</time>
      </trkpt>
      <trkpt lat="45.08627" lon="6.42999">
        <ele>2075</ele>
        <time>2022-07-17T10:21:49Z</time>
      </trkpt>
      <trkpt lat="45.08628" lon="6.42997">
        <ele>2075.2</ele>
        <time>2022-07-17T10:21:50Z</time>
      </trkpt>
      <trkpt lat="45.0863" lon="6.42996">
        <ele>2075.2</ele>
        <time>2022-07-17T10:21:51Z</time>
      </trkpt>
      <trkpt lat="45.08631" lon="6.42994">
        <ele>2075.6</ele>
        <time>2022-07-17T10:21:52Z</time>
      </trkpt>
      <trkpt lat="45.08633" lon="6.42993">
        <ele>2075.6</ele>
        <time>2022-07-17T10:21:53Z</time>
      </trkpt>
      <trkpt lat="45.08635" lon="6.42991">
        <ele>2075.6</ele>
        <time>2022-07-17T10:21:54Z</time>
      </trkpt>
      <trkpt lat="45.08636" lon="6.42989">
        <ele>2075.8</ele>
        <time>2022-07-17T10:21:55Z</time>
      </trkpt>
      <trkpt lat="45.08638" lon="6.42988">
        <ele>2075.8</ele>
        <time>2022-07-17T10:21:56Z</time>
      </trkpt>
      <trkpt lat="45.0864" lon="6.42986">
        <ele>2076</ele>
        <time>2022-07-17T10:21:57Z</time>
      </trkpt>
      <trkpt lat="45.08642" lon="6.42985">
        <ele>2076</ele>
        <time>2022-07-17T10:21:58Z</time>
      </trkpt>
      <trkpt lat="45.08644" lon="6.42984">
        <ele>2076.2</ele>
        <time>2022-07-17T10:21:59Z</time>
      </trkpt>
      <trkpt lat="45.08646" lon="6.42982">
        <ele>2076.6</ele>
        <time>2022-07-17T10:22:00Z</time>
      </trkpt>
      <trkpt lat="45.08647" lon="6.42981">
        <ele>2076.6</ele>
        <time>2022-07-17T10:22:01Z</time>
      </trkpt>
      <trkpt lat="45.08649" lon="6.42979">
        <ele>2076.8</ele>
        <time>2022-07-17T10:22:02Z</time>
      </trkpt>
      <trkpt lat="45.08651" lon="6.42978">
        <ele>2076.8</ele>
        <time>2022-07-17T10:22:03Z</time>
      </trkpt>
      <trkpt lat="45.08653" lon="6.42977">
        <ele>2076.8</ele>
        <time>2022-07-17T10:22:04Z</time>
      </trkpt>
      <trkpt lat="45.08656" lon="6.42976">
        <ele>2077.2</ele>
        <time>2022-07-17T10:22:05Z</time>
      </trkpt>
      <trkpt lat="45.08658" lon="6.42975">
        <ele>2077.4</ele>
        <time>2022-07-17T10:22:06Z</time>
      </trkpt>
      <trkpt lat="45.0866" lon="6.42973">
        <ele>2077.8</ele>
        <time>2022-07-17T10:22:07Z</time>
      </trkpt>
      <trkpt lat="45.08662" lon="6.42971">
        <ele>2078</ele>
        <time>2022-07-17T10:22:08Z</time>
      </trkpt>
      <trkpt lat="45.08664" lon="6.4297">
        <ele>2078</ele>
        <time>2022-07-17T10:22:09Z</time>
      </trkpt>
      <trkpt lat="45.08666" lon="6.42968">
        <ele>2078</ele>
        <time>2022-07-17T10:22:10Z</time>
      </trkpt>
      <trkpt lat="45.08667" lon="6.42966">
        <ele>2078.2</ele>
        <time>2022-07-17T10:22:11Z</time>
      </trkpt>
      <trkpt lat="45.08669" lon="6.42964">
        <ele>2078.2</ele>
        <time>2022-07-17T10:22:12Z</time>
      </trkpt>
      <trkpt lat="45.0867" lon="6.42961">
        <ele>2078.2</ele>
        <time>2022-07-17T10:22:13Z</time>
      </trkpt>
      <trkpt lat="45.08671" lon="6.42959">
        <ele>2078.6</ele>
        <time>2022-07-17T10:22:14Z</time>
      </trkpt>
      <trkpt lat="45.08672" lon="6.42956">
        <ele>2078.6</ele>
        <time>2022-07-17T10:22:15Z</time>
      </trkpt>
      <trkpt lat="45.08673" lon="6.42953">
        <ele>2078.6</ele>
        <time>2022-07-17T10:22:16Z</time>
      </trkpt>
      <trkpt lat="45.08673" lon="6.4295">
        <ele>2078.8</ele>
        <time>2022-07-17T10:22:17Z</time>
      </trkpt>
      <trkpt lat="45.08673" lon="6.42947">
        <ele>2078.8</ele>
        <time>2022-07-17T10:22:18Z</time>
      </trkpt>
      <trkpt lat="45.08673" lon="6.42944">
        <ele>2078.8</ele>
        <time>2022-07-17T10:22:19Z</time>
      </trkpt>
      <trkpt lat="45.08672" lon="6.42941">
        <ele>2079</ele>
        <time>2022-07-17T10:22:20Z</time>
      </trkpt>
      <trkpt lat="45.08671" lon="6.42938">
        <ele>2079</ele>
        <time>2022-07-17T10:22:21Z</time>
      </trkpt>
      <trkpt lat="45.08669" lon="6.42936">
        <ele>2079</ele>
        <time>2022-07-17T10:22:22Z</time>
      </trkpt>
      <trkpt lat="45.08668" lon="6.42933">
        <ele>2079</ele>
        <time>2022-07-17T10:22:23Z</time>
      </trkpt>
      <trkpt lat="45.08666" lon="6.42931">
        <ele>2079</ele>
        <time>2022-07-17T10:22:24Z</time>
      </trkpt>
      <trkpt lat="45.08664" lon="6.42929">
        <ele>2079</ele>
        <time>2022-07-17T10:22:25Z</time>
      </trkpt>
      <trkpt lat="45.08662" lon="6.42927">
        <ele>2079</ele>
        <time>2022-07-17T10:22:26Z</time>
      </trkpt>
      <trkpt lat="45.08659" lon="6.42927">
        <ele>2079</ele>
        <time>2022-07-17T10:22:27Z</time>
      </trkpt>
      <trkpt lat="45.08656" lon="6.42927">
        <ele>2079</ele>
        <time>2022-07-17T10:22:28Z</time>
      </trkpt>
      <trkpt lat="45.08653" lon="6.42928">
        <ele>2079</ele>
        <time>2022-07-17T10:22:29Z</time>
      </trkpt>
      <trkpt lat="45.08651" lon="6.4293">
        <ele>2079</ele>
        <time>2022-07-17T10:22:30Z</time>
      </trkpt>
      <trkpt lat="45.08648" lon="6.42932">
        <ele>2079</ele>
        <time>2022-07-17T10:22:31Z</time>
      </trkpt>
      <trkpt lat="45.08646" lon="6.42935">
        <ele>2079</ele>
        <time>2022-07-17T10:22:32Z</time>
      </trkpt>
      <trkpt lat="45.08644" lon="6.42938">
        <ele>2079</ele>
        <time>2022-07-17T10:22:33Z</time>
      </trkpt>
      <trkpt lat="45.08642" lon="6.42941">
        <ele>2079</ele>
        <time>2022-07-17T10:22:34Z</time>
      </trkpt>
      <trkpt lat="45.08641" lon="6.42944">
        <ele>2079</ele>
        <time>2022-07-17T10:22:35Z</time>
      </trkpt>
      <trkpt lat="45.08639" lon="6.42947">
        <ele>2079</ele>
        <time>2022-07-17T10:22:36Z</time>
      </trkpt>
      <trkpt lat="45.08637" lon="6.4295">
        <ele>2078.8</ele>
        <time>2022-07-17T10:22:37Z</time>
      </trkpt>
      <trkpt lat="45.08636" lon="6.42953">
        <ele>2078.8</ele>
        <time>2022-07-17T10:22:38Z</time>
      </trkpt>
      <trkpt lat="45.08634" lon="6.42955">
        <ele>2079</ele>
        <time>2022-07-17T10:22:39Z</time>
      </trkpt>
      <trkpt lat="45.08632" lon="6.42958">
        <ele>2079</ele>
        <time>2022-07-17T10:22:40Z</time>
      </trkpt>
      <trkpt lat="45.08631" lon="6.4296">
        <ele>2079.2</ele>
        <time>2022-07-17T10:22:41Z</time>
      </trkpt>
      <trkpt lat="45.08629" lon="6.42962">
        <ele>2079.2</ele>
        <time>2022-07-17T10:22:42Z</time>
      </trkpt>
      <trkpt lat="45.08628" lon="6.42964">
        <ele>2079.8</ele>
        <time>2022-07-17T10:22:43Z</time>
      </trkpt>
      <trkpt lat="45.08626" lon="6.42966">
        <ele>2079.8</ele>
        <time>2022-07-17T10:22:44Z</time>
      </trkpt>
      <trkpt lat="45.08624" lon="6.42968">
        <ele>2080</ele>
        <time>2022-07-17T10:22:45Z</time>
      </trkpt>
      <trkpt lat="45.08622" lon="6.42969">
        <ele>2080</ele>
        <time>2022-07-17T10:22:46Z</time>
      </trkpt>
      <trkpt lat="45.0862" lon="6.42972">
        <ele>2080.4</ele>
        <time>2022-07-17T10:22:47Z</time>
      </trkpt>
      <trkpt lat="45.08618" lon="6.42974">
        <ele>2080.4</ele>
        <time>2022-07-17T10:22:48Z</time>
      </trkpt>
      <trkpt lat="45.08616" lon="6.42975">
        <ele>2080.8</ele>
        <time>2022-07-17T10:22:49Z</time>
      </trkpt>
      <trkpt lat="45.08614" lon="6.42977">
        <ele>2080.8</ele>
        <time>2022-07-17T10:22:50Z</time>
      </trkpt>
      <trkpt lat="45.08613" lon="6.42978">
        <ele>2081</ele>
        <time>2022-07-17T10:22:51Z</time>
      </trkpt>
      <trkpt lat="45.08611" lon="6.42979">
        <ele>2081.2</ele>
        <time>2022-07-17T10:22:52Z</time>
      </trkpt>
      <trkpt lat="45.0861" lon="6.42981">
        <ele>2081.6</ele>
        <time>2022-07-17T10:22:53Z</time>
      </trkpt>
      <trkpt lat="45.08608" lon="6.42982">
        <ele>2081.8</ele>
        <time>2022-07-17T10:22:54Z</time>
      </trkpt>
      <trkpt lat="45.08606" lon="6.42983">
        <ele>2082.2</ele>
        <time>2022-07-17T10:22:55Z</time>
      </trkpt>
      <trkpt lat="45.08605" lon="6.42984">
        <ele>2082.4</ele>
        <time>2022-07-17T10:22:56Z</time>
      </trkpt>
      <trkpt lat="45.08603" lon="6.42985">
        <ele>2082.6</ele>
        <time>2022-07-17T10:22:57Z</time>
      </trkpt>
      <trkpt lat="45.08601" lon="6.42986">
        <ele>2083</ele>
        <time>2022-07-17T10:22:58Z</time>
      </trkpt>
      <trkpt lat="45.08599" lon="6.42987">
        <ele>2083</ele>
        <time>2022-07-17T10:22:59Z</time>
      </trkpt>
      <trkpt lat="45.08597" lon="6.42987">
        <ele>2083.2</ele>
        <time>2022-07-17T10:23:00Z</time>
      </trkpt>
      <trkpt lat="45.08596" lon="6.42988">
        <ele>2083.6</ele>
        <time>2022-07-17T10:23:01Z</time>
      </trkpt>
      <trkpt lat="45.08594" lon="6.42988">
        <ele>2083.6</ele>
        <time>2022-07-17T10:23:02Z</time>
      </trkpt>
      <trkpt lat="45.08592" lon="6.42988">
        <ele>2083.8</ele>
        <time>2022-07-17T10:23:03Z</time>
      </trkpt>
      <trkpt lat="45.0859" lon="6.42989">
        <ele>2084</ele>
        <time>2022-07-17T10:23:04Z</time>
      </trkpt>
      <trkpt lat="45.08588" lon="6.42989">
        <ele>2084.2</ele>
        <time>2022-07-17T10:23:05Z</time>
      </trkpt>
      <trkpt lat="45.08586" lon="6.4299">
        <ele>2084.6</ele>
        <time>2022-07-17T10:23:06Z</time>
      </trkpt>
      <trkpt lat="45.08584" lon="6.4299">
        <ele>2084.8</ele>
        <time>2022-07-17T10:23:07Z</time>
      </trkpt>
      <trkpt lat="45.08582" lon="6.4299">
        <ele>2084.8</ele>
        <time>2022-07-17T10:23:08Z</time>
      </trkpt>
      <trkpt lat="45.0858" lon="6.4299">
        <ele>2085</ele>
        <time>2022-07-17T10:23:09Z</time>
      </trkpt>
      <trkpt lat="45.08578" lon="6.4299">
        <ele>2085</ele>
        <time>2022-07-17T10:23:10Z</time>
      </trkpt>
      <trkpt lat="45.08576" lon="6.4299">
        <ele>2085.4</ele>
        <time>2022-07-17T10:23:11Z</time>
      </trkpt>
      <trkpt lat="45.08574" lon="6.4299">
        <ele>2085.8</ele>
        <time>2022-07-17T10:23:12Z</time>
      </trkpt>
      <trkpt lat="45.08572" lon="6.4299">
        <ele>2086</ele>
        <time>2022-07-17T10:23:13Z</time>
      </trkpt>
      <trkpt lat="45.0857" lon="6.42991">
        <ele>2086.2</ele>
        <time>2022-07-17T10:23:14Z</time>
      </trkpt>
      <trkpt lat="45.08568" lon="6.42991">
        <ele>2086.4</ele>
        <time>2022-07-17T10:23:15Z</time>
      </trkpt>
      <trkpt lat="45.08566" lon="6.42991">
        <ele>2086.4</ele>
        <time>2022-07-17T10:23:16Z</time>
      </trkpt>
      <trkpt lat="45.08564" lon="6.42992">
        <ele>2086.8</ele>
        <time>2022-07-17T10:23:17Z</time>
      </trkpt>
      <trkpt lat="45.08562" lon="6.42992">
        <ele>2087</ele>
        <time>2022-07-17T10:23:18Z</time>
      </trkpt>
      <trkpt lat="45.0856" lon="6.42992">
        <ele>2087.2</ele>
        <time>2022-07-17T10:23:19Z</time>
      </trkpt>
      <trkpt lat="45.08558" lon="6.42992">
        <ele>2087.4</ele>
        <time>2022-07-17T10:23:20Z</time>
      </trkpt>
      <trkpt lat="45.08556" lon="6.42992">
        <ele>2087.4</ele>
        <time>2022-07-17T10:23:21Z</time>
      </trkpt>
      <trkpt lat="45.08554" lon="6.42992">
        <ele>2087.8</ele>
        <time>2022-07-17T10:23:22Z</time>
      </trkpt>
      <trkpt lat="45.08552" lon="6.42992">
        <ele>2087.8</ele>
        <time>2022-07-17T10:23:23Z</time>
      </trkpt>
      <trkpt lat="45.0855" lon="6.42992">
        <ele>2088.2</ele>
        <time>2022-07-17T10:23:24Z</time>
      </trkpt>
      <trkpt lat="45.08549" lon="6.42992">
        <ele>2088.2</ele>
        <time>2022-07-17T10:23:25Z</time>
      </trkpt>
      <trkpt lat="45.08547" lon="6.42992">
        <ele>2088.6</ele>
        <time>2022-07-17T10:23:26Z</time>
      </trkpt>
      <trkpt lat="45.08545" lon="6.42991">
        <ele>2088.8</ele>
        <time>2022-07-17T10:23:27Z</time>
      </trkpt>
      <trkpt lat="45.08543" lon="6.42991">
        <ele>2089</ele>
        <time>2022-07-17T10:23:28Z</time>
      </trkpt>
      <trkpt lat="45.08542" lon="6.4299">
        <ele>2089</ele>
        <time>2022-07-17T10:23:29Z</time>
      </trkpt>
      <trkpt lat="45.0854" lon="6.42989">
        <ele>2089.2</ele>
        <time>2022-07-17T10:23:30Z</time>
      </trkpt>
      <trkpt lat="45.08538" lon="6.42989">
        <ele>2089.4</ele>
        <time>2022-07-17T10:23:31Z</time>
      </trkpt>
      <trkpt lat="45.08536" lon="6.42988">
        <ele>2089.8</ele>
        <time>2022-07-17T10:23:32Z</time>
      </trkpt>
      <trkpt lat="45.08535" lon="6.42987">
        <ele>2089.8</ele>
        <time>2022-07-17T10:23:33Z</time>
      </trkpt>
      <trkpt lat="45.08533" lon="6.42986">
        <ele>2090.2</ele>
        <time>2022-07-17T10:23:34Z</time>
      </trkpt>
      <trkpt lat="45.08531" lon="6.42985">
        <ele>2090.2</ele>
        <time>2022-07-17T10:23:35Z</time>
      </trkpt>
      <trkpt lat="45.0853" lon="6.42984">
        <ele>2090.6</ele>
        <time>2022-07-17T10:23:36Z</time>
      </trkpt>
      <trkpt lat="45.08528" lon="6.42983">
        <ele>2090.8</ele>
        <time>2022-07-17T10:23:37Z</time>
      </trkpt>
      <trkpt lat="45.08526" lon="6.42981">
        <ele>2090.8</ele>
        <time>2022-07-17T10:23:38Z</time>
      </trkpt>
      <trkpt lat="45.08524" lon="6.4298">
        <ele>2091.2</ele>
        <time>2022-07-17T10:23:39Z</time>
      </trkpt>
      <trkpt lat="45.08521" lon="6.42978">
        <ele>2091.4</ele>
        <time>2022-07-17T10:23:40Z</time>
      </trkpt>
      <trkpt lat="45.08519" lon="6.42976">
        <ele>2091.4</ele>
        <time>2022-07-17T10:23:41Z</time>
      </trkpt>
      <trkpt lat="45.08517" lon="6.42975">
        <ele>2091.6</ele>
        <time>2022-07-17T10:23:42Z</time>
      </trkpt>
      <trkpt lat="45.08516" lon="6.42974">
        <ele>2091.6</ele>
        <time>2022-07-17T10:23:43Z</time>
      </trkpt>
      <trkpt lat="45.08514" lon="6.42972">
        <ele>2091.6</ele>
        <time>2022-07-17T10:23:44Z</time>
      </trkpt>
      <trkpt lat="45.08513" lon="6.42971">
        <ele>2092</ele>
        <time>2022-07-17T10:23:45Z</time>
      </trkpt>
      <trkpt lat="45.08512" lon="6.42969">
        <ele>2092</ele>
        <time>2022-07-17T10:23:46Z</time>
      </trkpt>
      <trkpt lat="45.0851" lon="6.42966">
        <ele>2092.2</ele>
        <time>2022-07-17T10:23:47Z</time>
      </trkpt>
      <trkpt lat="45.08509" lon="6.42964">
        <ele>2092.2</ele>
        <time>2022-07-17T10:23:48Z</time>
      </trkpt>
      <trkpt lat="45.08509" lon="6.42962">
        <ele>2092.6</ele>
        <time>2022-07-17T10:23:49Z</time>
      </trkpt>
      <trkpt lat="45.08508" lon="6.42959">
        <ele>2092.6</ele>
        <time>2022-07-17T10:23:50Z</time>
      </trkpt>
      <trkpt lat="45.08507" lon="6.42957">
        <ele>2093</ele>
        <time>2022-07-17T10:23:51Z</time>
      </trkpt>
      <trkpt lat="45.08506" lon="6.42954">
        <ele>2093</ele>
        <time>2022-07-17T10:23:52Z</time>
      </trkpt>
      <trkpt lat="45.08506" lon="6.42952">
        <ele>2093.4</ele>
        <time>2022-07-17T10:23:53Z</time>
      </trkpt>
      <trkpt lat="45.08505" lon="6.4295">
        <ele>2093.4</ele>
        <time>2022-07-17T10:23:54Z</time>
      </trkpt>
      <trkpt lat="45.08504" lon="6.42948">
        <ele>2093.8</ele>
        <time>2022-07-17T10:23:55Z</time>
      </trkpt>
      <trkpt lat="45.08504" lon="6.42945">
        <ele>2093.8</ele>
        <time>2022-07-17T10:23:56Z</time>
      </trkpt>
      <trkpt lat="45.08503" lon="6.42943">
        <ele>2094</ele>
        <time>2022-07-17T10:23:57Z</time>
      </trkpt>
      <trkpt lat="45.08503" lon="6.42941">
        <ele>2094</ele>
        <time>2022-07-17T10:23:58Z</time>
      </trkpt>
      <trkpt lat="45.08502" lon="6.42939">
        <ele>2094.2</ele>
        <time>2022-07-17T10:23:59Z</time>
      </trkpt>
      <trkpt lat="45.08501" lon="6.42936">
        <ele>2094.2</ele>
        <time>2022-07-17T10:24:00Z</time>
      </trkpt>
      <trkpt lat="45.08501" lon="6.42934">
        <ele>2094.6</ele>
        <time>2022-07-17T10:24:01Z</time>
      </trkpt>
      <trkpt lat="45.085" lon="6.42932">
        <ele>2094.6</ele>
        <time>2022-07-17T10:24:02Z</time>
      </trkpt>
      <trkpt lat="45.08499" lon="6.4293">
        <ele>2094.8</ele>
        <time>2022-07-17T10:24:03Z</time>
      </trkpt>
      <trkpt lat="45.08498" lon="6.42928">
        <ele>2094.8</ele>
        <time>2022-07-17T10:24:04Z</time>
      </trkpt>
      <trkpt lat="45.08498" lon="6.42925">
        <ele>2095.2</ele>
        <time>2022-07-17T10:24:05Z</time>
      </trkpt>
      <trkpt lat="45.08497" lon="6.42923">
        <ele>2095.2</ele>
        <time>2022-07-17T10:24:06Z</time>
      </trkpt>
      <trkpt lat="45.08496" lon="6.42921">
        <ele>2095.4</ele>
        <time>2022-07-17T10:24:07Z</time>
      </trkpt>
      <trkpt lat="45.08495" lon="6.4292">
        <ele>2095.4</ele>
        <time>2022-07-17T10:24:08Z</time>
      </trkpt>
      <trkpt lat="45.08495" lon="6.42918">
        <ele>2095.8</ele>
        <time>2022-07-17T10:24:09Z</time>
      </trkpt>
      <trkpt lat="45.08494" lon="6.42916">
        <ele>2095.8</ele>
        <time>2022-07-17T10:24:10Z</time>
      </trkpt>
      <trkpt lat="45.08493" lon="6.42914">
        <ele>2096</ele>
        <time>2022-07-17T10:24:11Z</time>
      </trkpt>
      <trkpt lat="45.08492" lon="6.42912">
        <ele>2096.2</ele>
        <time>2022-07-17T10:24:12Z</time>
      </trkpt>
      <trkpt lat="45.08492" lon="6.4291">
        <ele>2096.6</ele>
        <time>2022-07-17T10:24:13Z</time>
      </trkpt>
      <trkpt lat="45.08491" lon="6.42909">
        <ele>2096.8</ele>
        <time>2022-07-17T10:24:14Z</time>
      </trkpt>
      <trkpt lat="45.08489" lon="6.42907">
        <ele>2097</ele>
        <time>2022-07-17T10:24:15Z</time>
      </trkpt>
      <trkpt lat="45.08488" lon="6.42905">
        <ele>2097</ele>
        <time>2022-07-17T10:24:16Z</time>
      </trkpt>
      <trkpt lat="45.08487" lon="6.42904">
        <ele>2097.4</ele>
        <time>2022-07-17T10:24:17Z</time>
      </trkpt>
      <trkpt lat="45.08486" lon="6.42902">
        <ele>2097.4</ele>
        <time>2022-07-17T10:24:18Z</time>
      </trkpt>
      <trkpt lat="45.08484" lon="6.42901">
        <ele>2097.6</ele>
        <time>2022-07-17T10:24:19Z</time>
      </trkpt>
      <trkpt lat="45.08483" lon="6.42899">
        <ele>2097.6</ele>
        <time>2022-07-17T10:24:20Z</time>
      </trkpt>
      <trkpt lat="45.08482" lon="6.42897">
        <ele>2098</ele>
        <time>2022-07-17T10:24:21Z</time>
      </trkpt>
      <trkpt lat="45.08481" lon="6.42896">
        <ele>2098</ele>
        <time>2022-07-17T10:24:22Z</time>
      </trkpt>
      <trkpt lat="45.0848" lon="6.42894">
        <ele>2098.2</ele>
        <time>2022-07-17T10:24:23Z</time>
      </trkpt>
      <trkpt lat="45.08478" lon="6.42892">
        <ele>2098.2</ele>
        <time>2022-07-17T10:24:24Z</time>
      </trkpt>
      <trkpt lat="45.08477" lon="6.4289">
        <ele>2098.6</ele>
        <time>2022-07-17T10:24:25Z</time>
      </trkpt>
      <trkpt lat="45.08476" lon="6.42888">
        <ele>2098.8</ele>
        <time>2022-07-17T10:24:26Z</time>
      </trkpt>
      <trkpt lat="45.08475" lon="6.42886">
        <ele>2099</ele>
        <time>2022-07-17T10:24:27Z</time>
      </trkpt>
      <trkpt lat="45.08474" lon="6.42884">
        <ele>2099.2</ele>
        <time>2022-07-17T10:24:28Z</time>
      </trkpt>
      <trkpt lat="45.08473" lon="6.42883">
        <ele>2099.4</ele>
        <time>2022-07-17T10:24:29Z</time>
      </trkpt>
      <trkpt lat="45.08471" lon="6.42881">
        <ele>2099.4</ele>
        <time>2022-07-17T10:24:30Z</time>
      </trkpt>
      <trkpt lat="45.0847" lon="6.42879">
        <ele>2099.8</ele>
        <time>2022-07-17T10:24:32Z</time>
      </trkpt>
      <trkpt lat="45.08469" lon="6.42877">
        <ele>2100.2</ele>
        <time>2022-07-17T10:24:33Z</time>
      </trkpt>
      <trkpt lat="45.08468" lon="6.42876">
        <ele>2100.2</ele>
        <time>2022-07-17T10:24:34Z</time>
      </trkpt>
      <trkpt lat="45.08467" lon="6.42874">
        <ele>2100.6</ele>
        <time>2022-07-17T10:24:35Z</time>
      </trkpt>
      <trkpt lat="45.08465" lon="6.42872">
        <ele>2100.8</ele>
        <time>2022-07-17T10:24:36Z</time>
      </trkpt>
      <trkpt lat="45.08464" lon="6.4287">
        <ele>2101</ele>
        <time>2022-07-17T10:24:37Z</time>
      </trkpt>
      <trkpt lat="45.08463" lon="6.42868">
        <ele>2101.2</ele>
        <time>2022-07-17T10:24:38Z</time>
      </trkpt>
      <trkpt lat="45.08462" lon="6.42866">
        <ele>2101.2</ele>
        <time>2022-07-17T10:24:39Z</time>
      </trkpt>
      <trkpt lat="45.08461" lon="6.42864">
        <ele>2101.4</ele>
        <time>2022-07-17T10:24:40Z</time>
      </trkpt>
      <trkpt lat="45.0846" lon="6.42863">
        <ele>2101.6</ele>
        <time>2022-07-17T10:24:41Z</time>
      </trkpt>
      <trkpt lat="45.0846" lon="6.42861">
        <ele>2101.6</ele>
        <time>2022-07-17T10:24:42Z</time>
      </trkpt>
      <trkpt lat="45.08459" lon="6.42859">
        <ele>2102</ele>
        <time>2022-07-17T10:24:43Z</time>
      </trkpt>
      <trkpt lat="45.08458" lon="6.42857">
        <ele>2102</ele>
        <time>2022-07-17T10:24:44Z</time>
      </trkpt>
      <trkpt lat="45.08457" lon="6.42855">
        <ele>2102.4</ele>
        <time>2022-07-17T10:24:45Z</time>
      </trkpt>
      <trkpt lat="45.08456" lon="6.42853">
        <ele>2102.6</ele>
        <time>2022-07-17T10:24:46Z</time>
      </trkpt>
      <trkpt lat="45.08455" lon="6.42851">
        <ele>2102.6</ele>
        <time>2022-07-17T10:24:47Z</time>
      </trkpt>
      <trkpt lat="45.08454" lon="6.42849">
        <ele>2102.8</ele>
        <time>2022-07-17T10:24:48Z</time>
      </trkpt>
      <trkpt lat="45.08453" lon="6.42847">
        <ele>2102.8</ele>
        <time>2022-07-17T10:24:49Z</time>
      </trkpt>
      <trkpt lat="45.08452" lon="6.42845">
        <ele>2103</ele>
        <time>2022-07-17T10:24:50Z</time>
      </trkpt>
      <trkpt lat="45.08451" lon="6.42843">
        <ele>2103</ele>
        <time>2022-07-17T10:24:51Z</time>
      </trkpt>
      <trkpt lat="45.0845" lon="6.42841">
        <ele>2103.2</ele>
        <time>2022-07-17T10:24:52Z</time>
      </trkpt>
      <trkpt lat="45.08449" lon="6.42839">
        <ele>2103.2</ele>
        <time>2022-07-17T10:24:53Z</time>
      </trkpt>
      <trkpt lat="45.08448" lon="6.42837">
        <ele>2103.8</ele>
        <time>2022-07-17T10:24:54Z</time>
      </trkpt>
      <trkpt lat="45.08447" lon="6.42835">
        <ele>2103.8</ele>
        <time>2022-07-17T10:24:55Z</time>
      </trkpt>
      <trkpt lat="45.08446" lon="6.42833">
        <ele>2104</ele>
        <time>2022-07-17T10:24:56Z</time>
      </trkpt>
      <trkpt lat="45.08446" lon="6.42831">
        <ele>2104</ele>
        <time>2022-07-17T10:24:57Z</time>
      </trkpt>
      <trkpt lat="45.08445" lon="6.42829">
        <ele>2104.2</ele>
        <time>2022-07-17T10:24:58Z</time>
      </trkpt>
      <trkpt lat="45.08444" lon="6.42827">
        <ele>2104.2</ele>
        <time>2022-07-17T10:24:59Z</time>
      </trkpt>
      <trkpt lat="45.08443" lon="6.42825">
        <ele>2104.6</ele>
        <time>2022-07-17T10:25:00Z</time>
      </trkpt>
      <trkpt lat="45.08442" lon="6.42823">
        <ele>2104.6</ele>
        <time>2022-07-17T10:25:01Z</time>
      </trkpt>
      <trkpt lat="45.08441" lon="6.42821">
        <ele>2104.8</ele>
        <time>2022-07-17T10:25:02Z</time>
      </trkpt>
      <trkpt lat="45.0844" lon="6.42819">
        <ele>2104.8</ele>
        <time>2022-07-17T10:25:03Z</time>
      </trkpt>
      <trkpt lat="45.08439" lon="6.42818">
        <ele>2105.2</ele>
        <time>2022-07-17T10:25:04Z</time>
      </trkpt>
      <trkpt lat="45.08438" lon="6.42816">
        <ele>2105.2</ele>
        <time>2022-07-17T10:25:05Z</time>
      </trkpt>
      <trkpt lat="45.08437" lon="6.42814">
        <ele>2105.6</ele>
        <time>2022-07-17T10:25:06Z</time>
      </trkpt>
      <trkpt lat="45.08436" lon="6.42812">
        <ele>2105.6</ele>
        <time>2022-07-17T10:25:07Z</time>
      </trkpt>
      <trkpt lat="45.08435" lon="6.4281">
        <ele>2106</ele>
        <time>2022-07-17T10:25:08Z</time>
      </trkpt>
      <trkpt lat="45.08434" lon="6.42808">
        <ele>2106.2</ele>
        <time>2022-07-17T10:25:09Z</time>
      </trkpt>
      <trkpt lat="45.08433" lon="6.42806">
        <ele>2106.2</ele>
        <time>2022-07-17T10:25:10Z</time>
      </trkpt>
      <trkpt lat="45.08432" lon="6.42805">
        <ele>2106.4</ele>
        <time>2022-07-17T10:25:11Z</time>
      </trkpt>
      <trkpt lat="45.08431" lon="6.42803">
        <ele>2106.6</ele>
        <time>2022-07-17T10:25:12Z</time>
      </trkpt>
      <trkpt lat="45.0843" lon="6.42801">
        <ele>2107</ele>
        <time>2022-07-17T10:25:13Z</time>
      </trkpt>
      <trkpt lat="45.08429" lon="6.42799">
        <ele>2107.2</ele>
        <time>2022-07-17T10:25:14Z</time>
      </trkpt>
      <trkpt lat="45.08428" lon="6.42798">
        <ele>2107.4</ele>
        <time>2022-07-17T10:25:15Z</time>
      </trkpt>
      <trkpt lat="45.08426" lon="6.42796">
        <ele>2107.6</ele>
        <time>2022-07-17T10:25:16Z</time>
      </trkpt>
      <trkpt lat="45.08425" lon="6.42795">
        <ele>2107.6</ele>
        <time>2022-07-17T10:25:17Z</time>
      </trkpt>
      <trkpt lat="45.08424" lon="6.42793">
        <ele>2108</ele>
        <time>2022-07-17T10:25:18Z</time>
      </trkpt>
      <trkpt lat="45.08423" lon="6.42792">
        <ele>2108</ele>
        <time>2022-07-17T10:25:19Z</time>
      </trkpt>
      <trkpt lat="45.08421" lon="6.42791">
        <ele>2108.4</ele>
        <time>2022-07-17T10:25:20Z</time>
      </trkpt>
      <trkpt lat="45.0842" lon="6.4279">
        <ele>2108.6</ele>
        <time>2022-07-17T10:25:21Z</time>
      </trkpt>
      <trkpt lat="45.08418" lon="6.42789">
        <ele>2108.6</ele>
        <time>2022-07-17T10:25:22Z</time>
      </trkpt>
      <trkpt lat="45.08417" lon="6.42787">
        <ele>2108.8</ele>
        <time>2022-07-17T10:25:23Z</time>
      </trkpt>
      <trkpt lat="45.08416" lon="6.42786">
        <ele>2108.8</ele>
        <time>2022-07-17T10:25:24Z</time>
      </trkpt>
      <trkpt lat="45.08414" lon="6.42785">
        <ele>2109.2</ele>
        <time>2022-07-17T10:25:25Z</time>
      </trkpt>
      <trkpt lat="45.08412" lon="6.42785">
        <ele>2109.2</ele>
        <time>2022-07-17T10:25:26Z</time>
      </trkpt>
      <trkpt lat="45.08411" lon="6.42784">
        <ele>2109.4</ele>
        <time>2022-07-17T10:25:27Z</time>
      </trkpt>
      <trkpt lat="45.08409" lon="6.42783">
        <ele>2109.4</ele>
        <time>2022-07-17T10:25:28Z</time>
      </trkpt>
      <trkpt lat="45.08408" lon="6.42782">
        <ele>2109.8</ele>
        <time>2022-07-17T10:25:29Z</time>
      </trkpt>
      <trkpt lat="45.08406" lon="6.42781">
        <ele>2109.8</ele>
        <time>2022-07-17T10:25:30Z</time>
      </trkpt>
      <trkpt lat="45.08405" lon="6.4278">
        <ele>2110.2</ele>
        <time>2022-07-17T10:25:31Z</time>
      </trkpt>
      <trkpt lat="45.08403" lon="6.4278">
        <ele>2110.2</ele>
        <time>2022-07-17T10:25:32Z</time>
      </trkpt>
      <trkpt lat="45.08402" lon="6.42779">
        <ele>2110.6</ele>
        <time>2022-07-17T10:25:33Z</time>
      </trkpt>
      <trkpt lat="45.084" lon="6.42778">
        <ele>2110.6</ele>
        <time>2022-07-17T10:25:34Z</time>
      </trkpt>
      <trkpt lat="45.08398" lon="6.42777">
        <ele>2110.8</ele>
        <time>2022-07-17T10:25:35Z</time>
      </trkpt>
      <trkpt lat="45.08397" lon="6.42777">
        <ele>2110.8</ele>
        <time>2022-07-17T10:25:36Z</time>
      </trkpt>
      <trkpt lat="45.08395" lon="6.42776">
        <ele>2111.2</ele>
        <time>2022-07-17T10:25:37Z</time>
      </trkpt>
      <trkpt lat="45.08394" lon="6.42775">
        <ele>2111.4</ele>
        <time>2022-07-17T10:25:38Z</time>
      </trkpt>
      <trkpt lat="45.08392" lon="6.42774">
        <ele>2111.4</ele>
        <time>2022-07-17T10:25:39Z</time>
      </trkpt>
      <trkpt lat="45.08391" lon="6.42773">
        <ele>2111.6</ele>
        <time>2022-07-17T10:25:40Z</time>
      </trkpt>
      <trkpt lat="45.08389" lon="6.42772">
        <ele>2111.6</ele>
        <time>2022-07-17T10:25:41Z</time>
      </trkpt>
      <trkpt lat="45.08388" lon="6.42771">
        <ele>2112</ele>
        <time>2022-07-17T10:25:42Z</time>
      </trkpt>
      <trkpt lat="45.08386" lon="6.4277">
        <ele>2112</ele>
        <time>2022-07-17T10:25:43Z</time>
      </trkpt>
      <trkpt lat="45.08384" lon="6.42769">
        <ele>2112.4</ele>
        <time>2022-07-17T10:25:44Z</time>
      </trkpt>
      <trkpt lat="45.08383" lon="6.42768">
        <ele>2112.6</ele>
        <time>2022-07-17T10:25:45Z</time>
      </trkpt>
      <trkpt lat="45.08382" lon="6.42767">
        <ele>2112.8</ele>
        <time>2022-07-17T10:25:46Z</time>
      </trkpt>
      <trkpt lat="45.0838" lon="6.42766">
        <ele>2113</ele>
        <time>2022-07-17T10:25:47Z</time>
      </trkpt>
      <trkpt lat="45.08379" lon="6.42765">
        <ele>2113</ele>
        <time>2022-07-17T10:25:48Z</time>
      </trkpt>
      <trkpt lat="45.08377" lon="6.42764">
        <ele>2113.4</ele>
        <time>2022-07-17T10:25:49Z</time>
      </trkpt>
      <trkpt lat="45.08376" lon="6.42762">
        <ele>2113.6</ele>
        <time>2022-07-17T10:25:50Z</time>
      </trkpt>
      <trkpt lat="45.08375" lon="6.42761">
        <ele>2113.8</ele>
        <time>2022-07-17T10:25:51Z</time>
      </trkpt>
      <trkpt lat="45.08373" lon="6.4276">
        <ele>2114.2</ele>
        <time>2022-07-17T10:25:52Z</time>
      </trkpt>
      <trkpt lat="45.08372" lon="6.42758">
        <ele>2114.4</ele>
        <time>2022-07-17T10:25:53Z</time>
      </trkpt>
      <trkpt lat="45.08371" lon="6.42756">
        <ele>2114.6</ele>
        <time>2022-07-17T10:25:54Z</time>
      </trkpt>
      <trkpt lat="45.0837" lon="6.42755">
        <ele>2114.6</ele>
        <time>2022-07-17T10:25:55Z</time>
      </trkpt>
      <trkpt lat="45.08369" lon="6.42753">
        <ele>2114.8</ele>
        <time>2022-07-17T10:25:56Z</time>
      </trkpt>
      <trkpt lat="45.08367" lon="6.42752">
        <ele>2114.8</ele>
        <time>2022-07-17T10:25:57Z</time>
      </trkpt>
      <trkpt lat="45.08366" lon="6.4275">
        <ele>2115.2</ele>
        <time>2022-07-17T10:25:58Z</time>
      </trkpt>
      <trkpt lat="45.08365" lon="6.42749">
        <ele>2115.2</ele>
        <time>2022-07-17T10:25:59Z</time>
      </trkpt>
      <trkpt lat="45.08364" lon="6.42747">
        <ele>2115.4</ele>
        <time>2022-07-17T10:26:00Z</time>
      </trkpt>
      <trkpt lat="45.08363" lon="6.42745">
        <ele>2115.4</ele>
        <time>2022-07-17T10:26:01Z</time>
      </trkpt>
      <trkpt lat="45.08362" lon="6.42744">
        <ele>2115.8</ele>
        <time>2022-07-17T10:26:02Z</time>
      </trkpt>
      <trkpt lat="45.0836" lon="6.42742">
        <ele>2115.8</ele>
        <time>2022-07-17T10:26:03Z</time>
      </trkpt>
      <trkpt lat="45.08359" lon="6.4274">
        <ele>2116.2</ele>
        <time>2022-07-17T10:26:04Z</time>
      </trkpt>
      <trkpt lat="45.08358" lon="6.42739">
        <ele>2116.2</ele>
        <time>2022-07-17T10:26:05Z</time>
      </trkpt>
      <trkpt lat="45.08357" lon="6.42737">
        <ele>2116.4</ele>
        <time>2022-07-17T10:26:06Z</time>
      </trkpt>
      <trkpt lat="45.08355" lon="6.42735">
        <ele>2116.4</ele>
        <time>2022-07-17T10:26:07Z</time>
      </trkpt>
      <trkpt lat="45.08354" lon="6.42733">
        <ele>2116.6</ele>
        <time>2022-07-17T10:26:08Z</time>
      </trkpt>
      <trkpt lat="45.08353" lon="6.42732">
        <ele>2116.6</ele>
        <time>2022-07-17T10:26:09Z</time>
      </trkpt>
      <trkpt lat="45.08352" lon="6.4273">
        <ele>2117</ele>
        <time>2022-07-17T10:26:10Z</time>
      </trkpt>
      <trkpt lat="45.08351" lon="6.42728">
        <ele>2117</ele>
        <time>2022-07-17T10:26:11Z</time>
      </trkpt>
      <trkpt lat="45.08349" lon="6.42726">
        <ele>2117.4</ele>
        <time>2022-07-17T10:26:12Z</time>
      </trkpt>
      <trkpt lat="45.08348" lon="6.42725">
        <ele>2117.4</ele>
        <time>2022-07-17T10:26:13Z</time>
      </trkpt>
      <trkpt lat="45.08346" lon="6.42724">
        <ele>2117.6</ele>
        <time>2022-07-17T10:26:14Z</time>
      </trkpt>
      <trkpt lat="45.08345" lon="6.42723">
        <ele>2117.6</ele>
        <time>2022-07-17T10:26:15Z</time>
      </trkpt>
      <trkpt lat="45.08344" lon="6.42721">
        <ele>2118</ele>
        <time>2022-07-17T10:26:16Z</time>
      </trkpt>
      <trkpt lat="45.08342" lon="6.4272">
        <ele>2118</ele>
        <time>2022-07-17T10:26:17Z</time>
      </trkpt>
      <trkpt lat="45.08341" lon="6.42719">
        <ele>2118.4</ele>
        <time>2022-07-17T10:26:18Z</time>
      </trkpt>
      <trkpt lat="45.08339" lon="6.42718">
        <ele>2118.4</ele>
        <time>2022-07-17T10:26:19Z</time>
      </trkpt>
      <trkpt lat="45.08338" lon="6.42718">
        <ele>2118.8</ele>
        <time>2022-07-17T10:26:20Z</time>
      </trkpt>
      <trkpt lat="45.08336" lon="6.42717">
        <ele>2119</ele>
        <time>2022-07-17T10:26:21Z</time>
      </trkpt>
      <trkpt lat="45.08335" lon="6.42716">
        <ele>2119</ele>
        <time>2022-07-17T10:26:22Z</time>
      </trkpt>
      <trkpt lat="45.08333" lon="6.42716">
        <ele>2119.4</ele>
        <time>2022-07-17T10:26:23Z</time>
      </trkpt>
      <trkpt lat="45.08331" lon="6.42715">
        <ele>2119.4</ele>
        <time>2022-07-17T10:26:24Z</time>
      </trkpt>
      <trkpt lat="45.0833" lon="6.42715">
        <ele>2119.6</ele>
        <time>2022-07-17T10:26:25Z</time>
      </trkpt>
      <trkpt lat="45.08328" lon="6.42714">
        <ele>2119.6</ele>
        <time>2022-07-17T10:26:26Z</time>
      </trkpt>
      <trkpt lat="45.08327" lon="6.42713">
        <ele>2120</ele>
        <time>2022-07-17T10:26:27Z</time>
      </trkpt>
      <trkpt lat="45.08325" lon="6.42712">
        <ele>2120</ele>
        <time>2022-07-17T10:26:28Z</time>
      </trkpt>
      <trkpt lat="45.08324" lon="6.42712">
        <ele>2120.4</ele>
        <time>2022-07-17T10:26:29Z</time>
      </trkpt>
      <trkpt lat="45.08322" lon="6.42711">
        <ele>2120.4</ele>
        <time>2022-07-17T10:26:30Z</time>
      </trkpt>
      <trkpt lat="45.08321" lon="6.42711">
        <ele>2120.6</ele>
        <time>2022-07-17T10:26:31Z</time>
      </trkpt>
      <trkpt lat="45.08319" lon="6.4271">
        <ele>2120.6</ele>
        <time>2022-07-17T10:26:32Z</time>
      </trkpt>
      <trkpt lat="45.08318" lon="6.42709">
        <ele>2121</ele>
        <time>2022-07-17T10:26:33Z</time>
      </trkpt>
      <trkpt lat="45.08316" lon="6.42709">
        <ele>2121.2</ele>
        <time>2022-07-17T10:26:34Z</time>
      </trkpt>
      <trkpt lat="45.08314" lon="6.42708">
        <ele>2121.4</ele>
        <time>2022-07-17T10:26:35Z</time>
      </trkpt>
      <trkpt lat="45.08313" lon="6.42708">
        <ele>2121.4</ele>
        <time>2022-07-17T10:26:36Z</time>
      </trkpt>
      <trkpt lat="45.08311" lon="6.42707">
        <ele>2121.8</ele>
        <time>2022-07-17T10:26:37Z</time>
      </trkpt>
      <trkpt lat="45.0831" lon="6.42707">
        <ele>2121.8</ele>
        <time>2022-07-17T10:26:38Z</time>
      </trkpt>
      <trkpt lat="45.08308" lon="6.42706">
        <ele>2122</ele>
        <time>2022-07-17T10:26:39Z</time>
      </trkpt>
      <trkpt lat="45.08307" lon="6.42706">
        <ele>2122</ele>
        <time>2022-07-17T10:26:40Z</time>
      </trkpt>
      <trkpt lat="45.08305" lon="6.42706">
        <ele>2122.4</ele>
        <time>2022-07-17T10:26:41Z</time>
      </trkpt>
      <trkpt lat="45.08304" lon="6.42705">
        <ele>2122.8</ele>
        <time>2022-07-17T10:26:42Z</time>
      </trkpt>
      <trkpt lat="45.08302" lon="6.42704">
        <ele>2122.8</ele>
        <time>2022-07-17T10:26:43Z</time>
      </trkpt>
      <trkpt lat="45.08301" lon="6.42703">
        <ele>2123.2</ele>
        <time>2022-07-17T10:26:44Z</time>
      </trkpt>
      <trkpt lat="45.08299" lon="6.42702">
        <ele>2123.2</ele>
        <time>2022-07-17T10:26:45Z</time>
      </trkpt>
      <trkpt lat="45.08298" lon="6.427">
        <ele>2123.4</ele>
        <time>2022-07-17T10:26:46Z</time>
      </trkpt>
      <trkpt lat="45.08296" lon="6.42699">
        <ele>2123.4</ele>
        <time>2022-07-17T10:26:47Z</time>
      </trkpt>
      <trkpt lat="45.08295" lon="6.42699">
        <ele>2123.6</ele>
        <time>2022-07-17T10:26:48Z</time>
      </trkpt>
      <trkpt lat="45.08293" lon="6.42698">
        <ele>2123.6</ele>
        <time>2022-07-17T10:26:49Z</time>
      </trkpt>
      <trkpt lat="45.08292" lon="6.42697">
        <ele>2123.6</ele>
        <time>2022-07-17T10:26:50Z</time>
      </trkpt>
      <trkpt lat="45.0829" lon="6.42697">
        <ele>2124</ele>
        <time>2022-07-17T10:26:51Z</time>
      </trkpt>
      <trkpt lat="45.08289" lon="6.42696">
        <ele>2124.2</ele>
        <time>2022-07-17T10:26:52Z</time>
      </trkpt>
      <trkpt lat="45.08287" lon="6.42696">
        <ele>2124.2</ele>
        <time>2022-07-17T10:26:53Z</time>
      </trkpt>
      <trkpt lat="45.08286" lon="6.42696">
        <ele>2124.6</ele>
        <time>2022-07-17T10:26:54Z</time>
      </trkpt>
      <trkpt lat="45.08284" lon="6.42695">
        <ele>2124.6</ele>
        <time>2022-07-17T10:26:55Z</time>
      </trkpt>
      <trkpt lat="45.08283" lon="6.42695">
        <ele>2124.8</ele>
        <time>2022-07-17T10:26:56Z</time>
      </trkpt>
      <trkpt lat="45.08281" lon="6.42694">
        <ele>2124.8</ele>
        <time>2022-07-17T10:26:57Z</time>
      </trkpt>
      <trkpt lat="45.0828" lon="6.42694">
        <ele>2124.8</ele>
        <time>2022-07-17T10:26:58Z</time>
      </trkpt>
      <trkpt lat="45.08278" lon="6.42693">
        <ele>2125.2</ele>
        <time>2022-07-17T10:26:59Z</time>
      </trkpt>
      <trkpt lat="45.08277" lon="6.42693">
        <ele>2125.4</ele>
        <time>2022-07-17T10:27:00Z</time>
      </trkpt>
      <trkpt lat="45.08275" lon="6.42691">
        <ele>2125.6</ele>
        <time>2022-07-17T10:27:01Z</time>
      </trkpt>
      <trkpt lat="45.08274" lon="6.4269">
        <ele>2125.6</ele>
        <time>2022-07-17T10:27:02Z</time>
      </trkpt>
      <trkpt lat="45.08272" lon="6.42689">
        <ele>2126</ele>
        <time>2022-07-17T10:27:03Z</time>
      </trkpt>
      <trkpt lat="45.08272" lon="6.42687">
        <ele>2126</ele>
        <time>2022-07-17T10:27:04Z</time>
      </trkpt>
      <trkpt lat="45.08271" lon="6.42687">
        <ele>2126.2</ele>
        <time>2022-07-17T10:27:05Z</time>
      </trkpt>
      <trkpt lat="45.08263" lon="6.42684">
        <ele>2127</ele>
        <time>2022-07-17T10:28:25Z</time>
      </trkpt>
      <trkpt lat="45.08262" lon="6.42683">
        <ele>2127.2</ele>
        <time>2022-07-17T10:28:26Z</time>
      </trkpt>
      <trkpt lat="45.08261" lon="6.42682">
        <ele>2127.2</ele>
        <time>2022-07-17T10:28:27Z</time>
      </trkpt>
      <trkpt lat="45.08259" lon="6.42682">
        <ele>2127.4</ele>
        <time>2022-07-17T10:28:28Z</time>
      </trkpt>
      <trkpt lat="45.08258" lon="6.42681">
        <ele>2127.4</ele>
        <time>2022-07-17T10:28:29Z</time>
      </trkpt>
      <trkpt lat="45.08256" lon="6.4268">
        <ele>2127.4</ele>
        <time>2022-07-17T10:28:30Z</time>
      </trkpt>
      <trkpt lat="45.08255" lon="6.4268">
        <ele>2127.8</ele>
        <time>2022-07-17T10:28:31Z</time>
      </trkpt>
      <trkpt lat="45.08253" lon="6.42679">
        <ele>2127.8</ele>
        <time>2022-07-17T10:28:32Z</time>
      </trkpt>
      <trkpt lat="45.08251" lon="6.42679">
        <ele>2128</ele>
        <time>2022-07-17T10:28:33Z</time>
      </trkpt>
      <trkpt lat="45.0825" lon="6.42678">
        <ele>2128</ele>
        <time>2022-07-17T10:28:34Z</time>
      </trkpt>
      <trkpt lat="45.08248" lon="6.42678">
        <ele>2128.2</ele>
        <time>2022-07-17T10:28:35Z</time>
      </trkpt>
      <trkpt lat="45.08247" lon="6.42677">
        <ele>2128.2</ele>
        <time>2022-07-17T10:28:36Z</time>
      </trkpt>
      <trkpt lat="45.08245" lon="6.42677">
        <ele>2128.6</ele>
        <time>2022-07-17T10:28:37Z</time>
      </trkpt>
      <trkpt lat="45.08243" lon="6.42676">
        <ele>2128.6</ele>
        <time>2022-07-17T10:28:38Z</time>
      </trkpt>
      <trkpt lat="45.08242" lon="6.42676">
        <ele>2128.8</ele>
        <time>2022-07-17T10:28:39Z</time>
      </trkpt>
      <trkpt lat="45.0824" lon="6.42675">
        <ele>2128.8</ele>
        <time>2022-07-17T10:28:40Z</time>
      </trkpt>
      <trkpt lat="45.08239" lon="6.42675">
        <ele>2129.2</ele>
        <time>2022-07-17T10:28:41Z</time>
      </trkpt>
      <trkpt lat="45.08238" lon="6.42674">
        <ele>2129.4</ele>
        <time>2022-07-17T10:28:42Z</time>
      </trkpt>
      <trkpt lat="45.08236" lon="6.42673">
        <ele>2129.6</ele>
        <time>2022-07-17T10:28:43Z</time>
      </trkpt>
      <trkpt lat="45.08235" lon="6.42673">
        <ele>2129.8</ele>
        <time>2022-07-17T10:28:44Z</time>
      </trkpt>
      <trkpt lat="45.08233" lon="6.42672">
        <ele>2129.8</ele>
        <time>2022-07-17T10:28:45Z</time>
      </trkpt>
      <trkpt lat="45.08231" lon="6.42671">
        <ele>2130.2</ele>
        <time>2022-07-17T10:28:46Z</time>
      </trkpt>
      <trkpt lat="45.0823" lon="6.42671">
        <ele>2130.2</ele>
        <time>2022-07-17T10:28:47Z</time>
      </trkpt>
      <trkpt lat="45.08228" lon="6.4267">
        <ele>2130.4</ele>
        <time>2022-07-17T10:28:48Z</time>
      </trkpt>
      <trkpt lat="45.08227" lon="6.42669">
        <ele>2130.8</ele>
        <time>2022-07-17T10:28:50Z</time>
      </trkpt>
      <trkpt lat="45.08225" lon="6.42668">
        <ele>2130.8</ele>
        <time>2022-07-17T10:28:51Z</time>
      </trkpt>
      <trkpt lat="45.08224" lon="6.42667">
        <ele>2131.2</ele>
        <time>2022-07-17T10:28:52Z</time>
      </trkpt>
      <trkpt lat="45.08223" lon="6.42666">
        <ele>2131.2</ele>
        <time>2022-07-17T10:28:53Z</time>
      </trkpt>
      <trkpt lat="45.08221" lon="6.42665">
        <ele>2131.6</ele>
        <time>2022-07-17T10:28:54Z</time>
      </trkpt>
      <trkpt lat="45.0822" lon="6.42664">
        <ele>2131.6</ele>
        <time>2022-07-17T10:28:55Z</time>
      </trkpt>
      <trkpt lat="45.08218" lon="6.42663">
        <ele>2131.8</ele>
        <time>2022-07-17T10:28:56Z</time>
      </trkpt>
      <trkpt lat="45.08217" lon="6.42663">
        <ele>2131.8</ele>
        <time>2022-07-17T10:28:57Z</time>
      </trkpt>
      <trkpt lat="45.08216" lon="6.42662">
        <ele>2132.2</ele>
        <time>2022-07-17T10:28:58Z</time>
      </trkpt>
      <trkpt lat="45.08214" lon="6.42661">
        <ele>2132.2</ele>
        <time>2022-07-17T10:28:59Z</time>
      </trkpt>
      <trkpt lat="45.08213" lon="6.4266">
        <ele>2132.6</ele>
        <time>2022-07-17T10:29:00Z</time>
      </trkpt>
      <trkpt lat="45.08211" lon="6.42659">
        <ele>2132.6</ele>
        <time>2022-07-17T10:29:01Z</time>
      </trkpt>
      <trkpt lat="45.0821" lon="6.42658">
        <ele>2132.8</ele>
        <time>2022-07-17T10:29:02Z</time>
      </trkpt>
      <trkpt lat="45.08209" lon="6.42657">
        <ele>2133</ele>
        <time>2022-07-17T10:29:03Z</time>
      </trkpt>
      <trkpt lat="45.08207" lon="6.42656">
        <ele>2133.2</ele>
        <time>2022-07-17T10:29:04Z</time>
      </trkpt>
      <trkpt lat="45.08206" lon="6.42655">
        <ele>2133.2</ele>
        <time>2022-07-17T10:29:05Z</time>
      </trkpt>
      <trkpt lat="45.08204" lon="6.42654">
        <ele>2133.6</ele>
        <time>2022-07-17T10:29:06Z</time>
      </trkpt>
      <trkpt lat="45.08203" lon="6.42653">
        <ele>2133.6</ele>
        <time>2022-07-17T10:29:07Z</time>
      </trkpt>
      <trkpt lat="45.08201" lon="6.42652">
        <ele>2134</ele>
        <time>2022-07-17T10:29:08Z</time>
      </trkpt>
      <trkpt lat="45.082" lon="6.42651">
        <ele>2134.2</ele>
        <time>2022-07-17T10:29:09Z</time>
      </trkpt>
      <trkpt lat="45.08198" lon="6.4265">
        <ele>2134.4</ele>
        <time>2022-07-17T10:29:10Z</time>
      </trkpt>
      <trkpt lat="45.08197" lon="6.42649">
        <ele>2134.8</ele>
        <time>2022-07-17T10:29:11Z</time>
      </trkpt>
      <trkpt lat="45.08195" lon="6.42648">
        <ele>2134.8</ele>
        <time>2022-07-17T10:29:12Z</time>
      </trkpt>
      <trkpt lat="45.08194" lon="6.42647">
        <ele>2135.2</ele>
        <time>2022-07-17T10:29:13Z</time>
      </trkpt>
      <trkpt lat="45.08192" lon="6.42646">
        <ele>2135.2</ele>
        <time>2022-07-17T10:29:14Z</time>
      </trkpt>
      <trkpt lat="45.0819" lon="6.42645">
        <ele>2135.4</ele>
        <time>2022-07-17T10:29:15Z</time>
      </trkpt>
      <trkpt lat="45.08189" lon="6.42644">
        <ele>2135.4</ele>
        <time>2022-07-17T10:29:16Z</time>
      </trkpt>
      <trkpt lat="45.08187" lon="6.42644">
        <ele>2135.8</ele>
        <time>2022-07-17T10:29:17Z</time>
      </trkpt>
      <trkpt lat="45.08186" lon="6.42643">
        <ele>2135.8</ele>
        <time>2022-07-17T10:29:18Z</time>
      </trkpt>
      <trkpt lat="45.08184" lon="6.42642">
        <ele>2136.2</ele>
        <time>2022-07-17T10:29:19Z</time>
      </trkpt>
      <trkpt lat="45.08183" lon="6.42641">
        <ele>2136.2</ele>
        <time>2022-07-17T10:29:20Z</time>
      </trkpt>
      <trkpt lat="45.08181" lon="6.4264">
        <ele>2136.4</ele>
        <time>2022-07-17T10:29:21Z</time>
      </trkpt>
      <trkpt lat="45.0818" lon="6.42639">
        <ele>2136.8</ele>
        <time>2022-07-17T10:29:22Z</time>
      </trkpt>
      <trkpt lat="45.08179" lon="6.42638">
        <ele>2137</ele>
        <time>2022-07-17T10:29:23Z</time>
      </trkpt>
      <trkpt lat="45.08177" lon="6.42637">
        <ele>2137</ele>
        <time>2022-07-17T10:29:24Z</time>
      </trkpt>
      <trkpt lat="45.08176" lon="6.42636">
        <ele>2137.2</ele>
        <time>2022-07-17T10:29:25Z</time>
      </trkpt>
      <trkpt lat="45.08175" lon="6.42635">
        <ele>2137.2</ele>
        <time>2022-07-17T10:29:26Z</time>
      </trkpt>
      <trkpt lat="45.08173" lon="6.42634">
        <ele>2137.6</ele>
        <time>2022-07-17T10:29:27Z</time>
      </trkpt>
      <trkpt lat="45.08172" lon="6.42633">
        <ele>2137.6</ele>
        <time>2022-07-17T10:29:28Z</time>
      </trkpt>
      <trkpt lat="45.0817" lon="6.42632">
        <ele>2137.8</ele>
        <time>2022-07-17T10:29:29Z</time>
      </trkpt>
      <trkpt lat="45.08169" lon="6.42632">
        <ele>2137.8</ele>
        <time>2022-07-17T10:29:30Z</time>
      </trkpt>
      <trkpt lat="45.08167" lon="6.42631">
        <ele>2138.2</ele>
        <time>2022-07-17T10:29:31Z</time>
      </trkpt>
      <trkpt lat="45.08166" lon="6.4263">
        <ele>2138.2</ele>
        <time>2022-07-17T10:29:32Z</time>
      </trkpt>
      <trkpt lat="45.08165" lon="6.42629">
        <ele>2138.6</ele>
        <time>2022-07-17T10:29:33Z</time>
      </trkpt>
      <trkpt lat="45.08163" lon="6.42628">
        <ele>2138.6</ele>
        <time>2022-07-17T10:29:34Z</time>
      </trkpt>
      <trkpt lat="45.08162" lon="6.42627">
        <ele>2139</ele>
        <time>2022-07-17T10:29:35Z</time>
      </trkpt>
      <trkpt lat="45.0816" lon="6.42626">
        <ele>2139</ele>
        <time>2022-07-17T10:29:36Z</time>
      </trkpt>
      <trkpt lat="45.08159" lon="6.42626">
        <ele>2139.2</ele>
        <time>2022-07-17T10:29:37Z</time>
      </trkpt>
      <trkpt lat="45.08157" lon="6.42625">
        <ele>2139.2</ele>
        <time>2022-07-17T10:29:38Z</time>
      </trkpt>
      <trkpt lat="45.08156" lon="6.42624">
        <ele>2139.4</ele>
        <time>2022-07-17T10:29:39Z</time>
      </trkpt>
      <trkpt lat="45.08154" lon="6.42623">
        <ele>2139.4</ele>
        <time>2022-07-17T10:29:40Z</time>
      </trkpt>
      <trkpt lat="45.08153" lon="6.42622">
        <ele>2139.6</ele>
        <time>2022-07-17T10:29:41Z</time>
      </trkpt>
      <trkpt lat="45.08151" lon="6.42621">
        <ele>2139.6</ele>
        <time>2022-07-17T10:29:42Z</time>
      </trkpt>
      <trkpt lat="45.0815" lon="6.4262">
        <ele>2140</ele>
        <time>2022-07-17T10:29:43Z</time>
      </trkpt>
      <trkpt lat="45.08148" lon="6.42619">
        <ele>2140</ele>
        <time>2022-07-17T10:29:44Z</time>
      </trkpt>
      <trkpt lat="45.08147" lon="6.42618">
        <ele>2140.2</ele>
        <time>2022-07-17T10:29:45Z</time>
      </trkpt>
      <trkpt lat="45.08145" lon="6.42617">
        <ele>2140.2</ele>
        <time>2022-07-17T10:29:46Z</time>
      </trkpt>
      <trkpt lat="45.08144" lon="6.42616">
        <ele>2140.4</ele>
        <time>2022-07-17T10:29:47Z</time>
      </trkpt>
      <trkpt lat="45.08142" lon="6.42615">
        <ele>2140.4</ele>
        <time>2022-07-17T10:29:48Z</time>
      </trkpt>
      <trkpt lat="45.08141" lon="6.42614">
        <ele>2140.8</ele>
        <time>2022-07-17T10:29:49Z</time>
      </trkpt>
      <trkpt lat="45.08139" lon="6.42613">
        <ele>2140.8</ele>
        <time>2022-07-17T10:29:50Z</time>
      </trkpt>
      <trkpt lat="45.08138" lon="6.42612">
        <ele>2141</ele>
        <time>2022-07-17T10:29:51Z</time>
      </trkpt>
      <trkpt lat="45.08136" lon="6.42611">
        <ele>2141</ele>
        <time>2022-07-17T10:29:52Z</time>
      </trkpt>
      <trkpt lat="45.08135" lon="6.4261">
        <ele>2141.2</ele>
        <time>2022-07-17T10:29:53Z</time>
      </trkpt>
      <trkpt lat="45.08133" lon="6.42609">
        <ele>2141.2</ele>
        <time>2022-07-17T10:29:54Z</time>
      </trkpt>
      <trkpt lat="45.08132" lon="6.42608">
        <ele>2141.6</ele>
        <time>2022-07-17T10:29:55Z</time>
      </trkpt>
      <trkpt lat="45.08131" lon="6.42607">
        <ele>2141.6</ele>
        <time>2022-07-17T10:29:56Z</time>
      </trkpt>
      <trkpt lat="45.08129" lon="6.42606">
        <ele>2141.8</ele>
        <time>2022-07-17T10:29:57Z</time>
      </trkpt>
      <trkpt lat="45.08128" lon="6.42606">
        <ele>2141.8</ele>
        <time>2022-07-17T10:29:58Z</time>
      </trkpt>
      <trkpt lat="45.08126" lon="6.42605">
        <ele>2141.8</ele>
        <time>2022-07-17T10:29:59Z</time>
      </trkpt>
      <trkpt lat="45.08125" lon="6.42604">
        <ele>2142.2</ele>
        <time>2022-07-17T10:30:00Z</time>
      </trkpt>
      <trkpt lat="45.08124" lon="6.42603">
        <ele>2142.2</ele>
        <time>2022-07-17T10:30:01Z</time>
      </trkpt>
      <trkpt lat="45.08122" lon="6.42602">
        <ele>2142.4</ele>
        <time>2022-07-17T10:30:02Z</time>
      </trkpt>
      <trkpt lat="45.0812" lon="6.42601">
        <ele>2142.6</ele>
        <time>2022-07-17T10:30:03Z</time>
      </trkpt>
      <trkpt lat="45.08119" lon="6.426">
        <ele>2142.6</ele>
        <time>2022-07-17T10:30:04Z</time>
      </trkpt>
      <trkpt lat="45.08117" lon="6.426">
        <ele>2143</ele>
        <time>2022-07-17T10:30:05Z</time>
      </trkpt>
      <trkpt lat="45.08116" lon="6.42599">
        <ele>2143</ele>
        <time>2022-07-17T10:30:06Z</time>
      </trkpt>
      <trkpt lat="45.08114" lon="6.42598">
        <ele>2143.4</ele>
        <time>2022-07-17T10:30:07Z</time>
      </trkpt>
      <trkpt lat="45.08113" lon="6.42597">
        <ele>2143.4</ele>
        <time>2022-07-17T10:30:08Z</time>
      </trkpt>
      <trkpt lat="45.08111" lon="6.42596">
        <ele>2143.6</ele>
        <time>2022-07-17T10:30:09Z</time>
      </trkpt>
      <trkpt lat="45.08109" lon="6.42595">
        <ele>2143.6</ele>
        <time>2022-07-17T10:30:10Z</time>
      </trkpt>
      <trkpt lat="45.08108" lon="6.42594">
        <ele>2143.6</ele>
        <time>2022-07-17T10:30:11Z</time>
      </trkpt>
      <trkpt lat="45.08106" lon="6.42594">
        <ele>2144</ele>
        <time>2022-07-17T10:30:12Z</time>
      </trkpt>
      <trkpt lat="45.08105" lon="6.42593">
        <ele>2144</ele>
        <time>2022-07-17T10:30:13Z</time>
      </trkpt>
      <trkpt lat="45.08103" lon="6.42592">
        <ele>2144.4</ele>
        <time>2022-07-17T10:30:14Z</time>
      </trkpt>
      <trkpt lat="45.08102" lon="6.42591">
        <ele>2144.4</ele>
        <time>2022-07-17T10:30:15Z</time>
      </trkpt>
      <trkpt lat="45.081" lon="6.42591">
        <ele>2144.6</ele>
        <time>2022-07-17T10:30:16Z</time>
      </trkpt>
      <trkpt lat="45.08098" lon="6.4259">
        <ele>2144.6</ele>
        <time>2022-07-17T10:30:17Z</time>
      </trkpt>
      <trkpt lat="45.08097" lon="6.4259">
        <ele>2145</ele>
        <time>2022-07-17T10:30:18Z</time>
      </trkpt>
      <trkpt lat="45.08095" lon="6.4259">
        <ele>2145</ele>
        <time>2022-07-17T10:30:19Z</time>
      </trkpt>
      <trkpt lat="45.08094" lon="6.42589">
        <ele>2145.2</ele>
        <time>2022-07-17T10:30:20Z</time>
      </trkpt>
      <trkpt lat="45.08092" lon="6.42589">
        <ele>2145.2</ele>
        <time>2022-07-17T10:30:21Z</time>
      </trkpt>
      <trkpt lat="45.08091" lon="6.42589">
        <ele>2145.6</ele>
        <time>2022-07-17T10:30:22Z</time>
      </trkpt>
      <trkpt lat="45.08089" lon="6.4259">
        <ele>2145.6</ele>
        <time>2022-07-17T10:30:23Z</time>
      </trkpt>
      <trkpt lat="45.08088" lon="6.4259">
        <ele>2145.8</ele>
        <time>2022-07-17T10:30:24Z</time>
      </trkpt>
      <trkpt lat="45.08086" lon="6.42591">
        <ele>2145.8</ele>
        <time>2022-07-17T10:30:25Z</time>
      </trkpt>
      <trkpt lat="45.08084" lon="6.42592">
        <ele>2146.2</ele>
        <time>2022-07-17T10:30:26Z</time>
      </trkpt>
      <trkpt lat="45.08083" lon="6.42593">
        <ele>2146.2</ele>
        <time>2022-07-17T10:30:27Z</time>
      </trkpt>
      <trkpt lat="45.08081" lon="6.42593">
        <ele>2146.4</ele>
        <time>2022-07-17T10:30:28Z</time>
      </trkpt>
      <trkpt lat="45.08079" lon="6.42594">
        <ele>2146.4</ele>
        <time>2022-07-17T10:30:29Z</time>
      </trkpt>
      <trkpt lat="45.08078" lon="6.42595">
        <ele>2146.6</ele>
        <time>2022-07-17T10:30:30Z</time>
      </trkpt>
      <trkpt lat="45.08076" lon="6.42597">
        <ele>2147</ele>
        <time>2022-07-17T10:30:31Z</time>
      </trkpt>
      <trkpt lat="45.08075" lon="6.42599">
        <ele>2147</ele>
        <time>2022-07-17T10:30:32Z</time>
      </trkpt>
      <trkpt lat="45.08074" lon="6.426">
        <ele>2147</ele>
        <time>2022-07-17T10:30:33Z</time>
      </trkpt>
      <trkpt lat="45.08072" lon="6.42602">
        <ele>2147.2</ele>
        <time>2022-07-17T10:30:34Z</time>
      </trkpt>
      <trkpt lat="45.08071" lon="6.42604">
        <ele>2147.2</ele>
        <time>2022-07-17T10:30:35Z</time>
      </trkpt>
      <trkpt lat="45.08069" lon="6.42605">
        <ele>2147.4</ele>
        <time>2022-07-17T10:30:36Z</time>
      </trkpt>
      <trkpt lat="45.08068" lon="6.42607">
        <ele>2147.4</ele>
        <time>2022-07-17T10:30:37Z</time>
      </trkpt>
      <trkpt lat="45.08067" lon="6.42609">
        <ele>2147.6</ele>
        <time>2022-07-17T10:30:38Z</time>
      </trkpt>
      <trkpt lat="45.08066" lon="6.42611">
        <ele>2147.6</ele>
        <time>2022-07-17T10:30:39Z</time>
      </trkpt>
      <trkpt lat="45.08065" lon="6.42613">
        <ele>2148</ele>
        <time>2022-07-17T10:30:40Z</time>
      </trkpt>
      <trkpt lat="45.08064" lon="6.42615">
        <ele>2148</ele>
        <time>2022-07-17T10:30:41Z</time>
      </trkpt>
      <trkpt lat="45.08063" lon="6.42616">
        <ele>2148.2</ele>
        <time>2022-07-17T10:30:42Z</time>
      </trkpt>
      <trkpt lat="45.08062" lon="6.42618">
        <ele>2148.2</ele>
        <time>2022-07-17T10:30:43Z</time>
      </trkpt>
      <trkpt lat="45.08061" lon="6.4262">
        <ele>2148.4</ele>
        <time>2022-07-17T10:30:44Z</time>
      </trkpt>
      <trkpt lat="45.0806" lon="6.42622">
        <ele>2148.4</ele>
        <time>2022-07-17T10:30:45Z</time>
      </trkpt>
      <trkpt lat="45.08059" lon="6.42623">
        <ele>2148.8</ele>
        <time>2022-07-17T10:30:46Z</time>
      </trkpt>
      <trkpt lat="45.08058" lon="6.42625">
        <ele>2148.8</ele>
        <time>2022-07-17T10:30:47Z</time>
      </trkpt>
      <trkpt lat="45.08056" lon="6.42627">
        <ele>2149</ele>
        <time>2022-07-17T10:30:48Z</time>
      </trkpt>
      <trkpt lat="45.08055" lon="6.42629">
        <ele>2149</ele>
        <time>2022-07-17T10:30:49Z</time>
      </trkpt>
      <trkpt lat="45.08054" lon="6.4263">
        <ele>2149</ele>
        <time>2022-07-17T10:30:50Z</time>
      </trkpt>
      <trkpt lat="45.08053" lon="6.42632">
        <ele>2149.2</ele>
        <time>2022-07-17T10:30:51Z</time>
      </trkpt>
      <trkpt lat="45.08051" lon="6.42634">
        <ele>2149.2</ele>
        <time>2022-07-17T10:30:52Z</time>
      </trkpt>
      <trkpt lat="45.0805" lon="6.42636">
        <ele>2149.6</ele>
        <time>2022-07-17T10:30:53Z</time>
      </trkpt>
      <trkpt lat="45.08049" lon="6.42637">
        <ele>2149.6</ele>
        <time>2022-07-17T10:30:54Z</time>
      </trkpt>
      <trkpt lat="45.08048" lon="6.42639">
        <ele>2149.8</ele>
        <time>2022-07-17T10:30:55Z</time>
      </trkpt>
      <trkpt lat="45.08047" lon="6.42641">
        <ele>2149.8</ele>
        <time>2022-07-17T10:30:56Z</time>
      </trkpt>
      <trkpt lat="45.08045" lon="6.42643">
        <ele>2150.2</ele>
        <time>2022-07-17T10:30:57Z</time>
      </trkpt>
      <trkpt lat="45.08044" lon="6.42645">
        <ele>2150.4</ele>
        <time>2022-07-17T10:30:58Z</time>
      </trkpt>
      <trkpt lat="45.08042" lon="6.42646">
        <ele>2150.6</ele>
        <time>2022-07-17T10:30:59Z</time>
      </trkpt>
      <trkpt lat="45.08041" lon="6.42648">
        <ele>2150.6</ele>
        <time>2022-07-17T10:31:00Z</time>
      </trkpt>
      <trkpt lat="45.08039" lon="6.42649">
        <ele>2151</ele>
        <time>2022-07-17T10:31:01Z</time>
      </trkpt>
      <trkpt lat="45.08038" lon="6.42651">
        <ele>2151.2</ele>
        <time>2022-07-17T10:31:02Z</time>
      </trkpt>
      <trkpt lat="45.08036" lon="6.42652">
        <ele>2151.4</ele>
        <time>2022-07-17T10:31:03Z</time>
      </trkpt>
      <trkpt lat="45.08034" lon="6.42653">
        <ele>2151.4</ele>
        <time>2022-07-17T10:31:04Z</time>
      </trkpt>
      <trkpt lat="45.08033" lon="6.42654">
        <ele>2151.8</ele>
        <time>2022-07-17T10:31:05Z</time>
      </trkpt>
      <trkpt lat="45.08031" lon="6.42654">
        <ele>2151.8</ele>
        <time>2022-07-17T10:31:06Z</time>
      </trkpt>
      <trkpt lat="45.0803" lon="6.42655">
        <ele>2152</ele>
        <time>2022-07-17T10:31:07Z</time>
      </trkpt>
      <trkpt lat="45.08028" lon="6.42655">
        <ele>2152</ele>
        <time>2022-07-17T10:31:08Z</time>
      </trkpt>
      <trkpt lat="45.08026" lon="6.42656">
        <ele>2152.4</ele>
        <time>2022-07-17T10:31:09Z</time>
      </trkpt>
      <trkpt lat="45.08024" lon="6.42656">
        <ele>2152.4</ele>
        <time>2022-07-17T10:31:10Z</time>
      </trkpt>
      <trkpt lat="45.08023" lon="6.42657">
        <ele>2152.6</ele>
        <time>2022-07-17T10:31:11Z</time>
      </trkpt>
      <trkpt lat="45.08021" lon="6.42657">
        <ele>2152.6</ele>
        <time>2022-07-17T10:31:12Z</time>
      </trkpt>
      <trkpt lat="45.08019" lon="6.42657">
        <ele>2153</ele>
        <time>2022-07-17T10:31:13Z</time>
      </trkpt>
      <trkpt lat="45.08017" lon="6.42657">
        <ele>2153</ele>
        <time>2022-07-17T10:31:14Z</time>
      </trkpt>
      <trkpt lat="45.08016" lon="6.42658">
        <ele>2153.4</ele>
        <time>2022-07-17T10:31:15Z</time>
      </trkpt>
      <trkpt lat="45.08014" lon="6.42658">
        <ele>2153.4</ele>
        <time>2022-07-17T10:31:16Z</time>
      </trkpt>
      <trkpt lat="45.08013" lon="6.42659">
        <ele>2153.6</ele>
        <time>2022-07-17T10:31:17Z</time>
      </trkpt>
      <trkpt lat="45.08011" lon="6.4266">
        <ele>2153.6</ele>
        <time>2022-07-17T10:31:18Z</time>
      </trkpt>
      <trkpt lat="45.08009" lon="6.4266">
        <ele>2154</ele>
        <time>2022-07-17T10:31:19Z</time>
      </trkpt>
      <trkpt lat="45.08008" lon="6.4266">
        <ele>2154</ele>
        <time>2022-07-17T10:31:20Z</time>
      </trkpt>
      <trkpt lat="45.08006" lon="6.42661">
        <ele>2154.2</ele>
        <time>2022-07-17T10:31:21Z</time>
      </trkpt>
      <trkpt lat="45.08004" lon="6.42661">
        <ele>2154.2</ele>
        <time>2022-07-17T10:31:22Z</time>
      </trkpt>
      <trkpt lat="45.08002" lon="6.42661">
        <ele>2154.6</ele>
        <time>2022-07-17T10:31:23Z</time>
      </trkpt>
      <trkpt lat="45.08001" lon="6.42662">
        <ele>2154.6</ele>
        <time>2022-07-17T10:31:24Z</time>
      </trkpt>
      <trkpt lat="45.07999" lon="6.42662">
        <ele>2155</ele>
        <time>2022-07-17T10:31:25Z</time>
      </trkpt>
      <trkpt lat="45.07997" lon="6.42663">
        <ele>2155.2</ele>
        <time>2022-07-17T10:31:26Z</time>
      </trkpt>
      <trkpt lat="45.07995" lon="6.42663">
        <ele>2155.2</ele>
        <time>2022-07-17T10:31:27Z</time>
      </trkpt>
      <trkpt lat="45.07993" lon="6.42663">
        <ele>2155.4</ele>
        <time>2022-07-17T10:31:28Z</time>
      </trkpt>
      <trkpt lat="45.07992" lon="6.42664">
        <ele>2155.4</ele>
        <time>2022-07-17T10:31:29Z</time>
      </trkpt>
      <trkpt lat="45.0799" lon="6.42664">
        <ele>2155.6</ele>
        <time>2022-07-17T10:31:30Z</time>
      </trkpt>
      <trkpt lat="45.07988" lon="6.42665">
        <ele>2156</ele>
        <time>2022-07-17T10:31:31Z</time>
      </trkpt>
      <trkpt lat="45.07987" lon="6.42666">
        <ele>2156</ele>
        <time>2022-07-17T10:31:32Z</time>
      </trkpt>
      <trkpt lat="45.07985" lon="6.42666">
        <ele>2156.2</ele>
        <time>2022-07-17T10:31:33Z</time>
      </trkpt>
      <trkpt lat="45.07983" lon="6.42666">
        <ele>2156.2</ele>
        <time>2022-07-17T10:31:34Z</time>
      </trkpt>
      <trkpt lat="45.07982" lon="6.42667">
        <ele>2156.4</ele>
        <time>2022-07-17T10:31:35Z</time>
      </trkpt>
      <trkpt lat="45.0798" lon="6.42667">
        <ele>2156.4</ele>
        <time>2022-07-17T10:31:36Z</time>
      </trkpt>
      <trkpt lat="45.07978" lon="6.42667">
        <ele>2156.8</ele>
        <time>2022-07-17T10:31:37Z</time>
      </trkpt>
      <trkpt lat="45.07977" lon="6.42668">
        <ele>2157</ele>
        <time>2022-07-17T10:31:38Z</time>
      </trkpt>
      <trkpt lat="45.07975" lon="6.42668">
        <ele>2157.2</ele>
        <time>2022-07-17T10:31:39Z</time>
      </trkpt>
      <trkpt lat="45.07973" lon="6.42668">
        <ele>2157.2</ele>
        <time>2022-07-17T10:31:40Z</time>
      </trkpt>
      <trkpt lat="45.07972" lon="6.42668">
        <ele>2157.6</ele>
        <time>2022-07-17T10:31:41Z</time>
      </trkpt>
      <trkpt lat="45.0797" lon="6.42668">
        <ele>2157.6</ele>
        <time>2022-07-17T10:31:42Z</time>
      </trkpt>
      <trkpt lat="45.07968" lon="6.42667">
        <ele>2158</ele>
        <time>2022-07-17T10:31:43Z</time>
      </trkpt>
      <trkpt lat="45.07967" lon="6.42667">
        <ele>2158</ele>
        <time>2022-07-17T10:31:44Z</time>
      </trkpt>
      <trkpt lat="45.07965" lon="6.42666">
        <ele>2158.2</ele>
        <time>2022-07-17T10:31:45Z</time>
      </trkpt>
      <trkpt lat="45.07963" lon="6.42666">
        <ele>2158.2</ele>
        <time>2022-07-17T10:31:46Z</time>
      </trkpt>
      <trkpt lat="45.07962" lon="6.42665">
        <ele>2158.6</ele>
        <time>2022-07-17T10:31:47Z</time>
      </trkpt>
      <trkpt lat="45.0796" lon="6.42664">
        <ele>2159</ele>
        <time>2022-07-17T10:31:48Z</time>
      </trkpt>
      <trkpt lat="45.07958" lon="6.42663">
        <ele>2159.2</ele>
        <time>2022-07-17T10:31:49Z</time>
      </trkpt>
      <trkpt lat="45.07957" lon="6.42662">
        <ele>2159.4</ele>
        <time>2022-07-17T10:31:50Z</time>
      </trkpt>
      <trkpt lat="45.07956" lon="6.42661">
        <ele>2159.4</ele>
        <time>2022-07-17T10:31:51Z</time>
      </trkpt>
      <trkpt lat="45.07954" lon="6.4266">
        <ele>2159.8</ele>
        <time>2022-07-17T10:31:52Z</time>
      </trkpt>
      <trkpt lat="45.07953" lon="6.42659">
        <ele>2159.8</ele>
        <time>2022-07-17T10:31:53Z</time>
      </trkpt>
      <trkpt lat="45.07952" lon="6.42657">
        <ele>2160</ele>
        <time>2022-07-17T10:31:54Z</time>
      </trkpt>
      <trkpt lat="45.0795" lon="6.42656">
        <ele>2160</ele>
        <time>2022-07-17T10:31:55Z</time>
      </trkpt>
      <trkpt lat="45.07949" lon="6.42655">
        <ele>2160.4</ele>
        <time>2022-07-17T10:31:56Z</time>
      </trkpt>
      <trkpt lat="45.07948" lon="6.42653">
        <ele>2160.4</ele>
        <time>2022-07-17T10:31:57Z</time>
      </trkpt>
      <trkpt lat="45.07946" lon="6.42652">
        <ele>2160.6</ele>
        <time>2022-07-17T10:31:58Z</time>
      </trkpt>
      <trkpt lat="45.07945" lon="6.42651">
        <ele>2160.6</ele>
        <time>2022-07-17T10:31:59Z</time>
      </trkpt>
      <trkpt lat="45.07943" lon="6.42649">
        <ele>2161</ele>
        <time>2022-07-17T10:32:00Z</time>
      </trkpt>
      <trkpt lat="45.07941" lon="6.42648">
        <ele>2161</ele>
        <time>2022-07-17T10:32:01Z</time>
      </trkpt>
      <trkpt lat="45.0794" lon="6.42647">
        <ele>2161.2</ele>
        <time>2022-07-17T10:32:02Z</time>
      </trkpt>
      <trkpt lat="45.07938" lon="6.42646">
        <ele>2161.6</ele>
        <time>2022-07-17T10:32:03Z</time>
      </trkpt>
      <trkpt lat="45.07937" lon="6.42644">
        <ele>2161.6</ele>
        <time>2022-07-17T10:32:04Z</time>
      </trkpt>
      <trkpt lat="45.07935" lon="6.42643">
        <ele>2161.8</ele>
        <time>2022-07-17T10:32:05Z</time>
      </trkpt>
      <trkpt lat="45.07934" lon="6.42642">
        <ele>2161.8</ele>
        <time>2022-07-17T10:32:06Z</time>
      </trkpt>
      <trkpt lat="45.07932" lon="6.42641">
        <ele>2162</ele>
        <time>2022-07-17T10:32:07Z</time>
      </trkpt>
      <trkpt lat="45.07931" lon="6.4264">
        <ele>2162</ele>
        <time>2022-07-17T10:32:08Z</time>
      </trkpt>
      <trkpt lat="45.0793" lon="6.42638">
        <ele>2162.4</ele>
        <time>2022-07-17T10:32:09Z</time>
      </trkpt>
      <trkpt lat="45.07929" lon="6.42637">
        <ele>2162.4</ele>
        <time>2022-07-17T10:32:10Z</time>
      </trkpt>
      <trkpt lat="45.07927" lon="6.42635">
        <ele>2162.8</ele>
        <time>2022-07-17T10:32:11Z</time>
      </trkpt>
      <trkpt lat="45.07926" lon="6.42634">
        <ele>2163</ele>
        <time>2022-07-17T10:32:12Z</time>
      </trkpt>
      <trkpt lat="45.07924" lon="6.42633">
        <ele>2163</ele>
        <time>2022-07-17T10:32:13Z</time>
      </trkpt>
      <trkpt lat="45.07923" lon="6.42632">
        <ele>2163.4</ele>
        <time>2022-07-17T10:32:14Z</time>
      </trkpt>
      <trkpt lat="45.07921" lon="6.4263">
        <ele>2163.4</ele>
        <time>2022-07-17T10:32:15Z</time>
      </trkpt>
      <trkpt lat="45.0792" lon="6.42629">
        <ele>2163.6</ele>
        <time>2022-07-17T10:32:16Z</time>
      </trkpt>
      <trkpt lat="45.07918" lon="6.42628">
        <ele>2163.6</ele>
        <time>2022-07-17T10:32:17Z</time>
      </trkpt>
      <trkpt lat="45.07917" lon="6.42627">
        <ele>2164</ele>
        <time>2022-07-17T10:32:18Z</time>
      </trkpt>
      <trkpt lat="45.07915" lon="6.42626">
        <ele>2164</ele>
        <time>2022-07-17T10:32:19Z</time>
      </trkpt>
      <trkpt lat="45.07914" lon="6.42624">
        <ele>2164.2</ele>
        <time>2022-07-17T10:32:20Z</time>
      </trkpt>
      <trkpt lat="45.07912" lon="6.42623">
        <ele>2164.2</ele>
        <time>2022-07-17T10:32:21Z</time>
      </trkpt>
      <trkpt lat="45.07911" lon="6.42622">
        <ele>2164.6</ele>
        <time>2022-07-17T10:32:22Z</time>
      </trkpt>
      <trkpt lat="45.07909" lon="6.42621">
        <ele>2164.6</ele>
        <time>2022-07-17T10:32:23Z</time>
      </trkpt>
      <trkpt lat="45.07908" lon="6.42619">
        <ele>2164.8</ele>
        <time>2022-07-17T10:32:24Z</time>
      </trkpt>
      <trkpt lat="45.07906" lon="6.42618">
        <ele>2164.8</ele>
        <time>2022-07-17T10:32:25Z</time>
      </trkpt>
      <trkpt lat="45.07905" lon="6.42617">
        <ele>2165.2</ele>
        <time>2022-07-17T10:32:26Z</time>
      </trkpt>
      <trkpt lat="45.07904" lon="6.42616">
        <ele>2165.2</ele>
        <time>2022-07-17T10:32:27Z</time>
      </trkpt>
      <trkpt lat="45.07902" lon="6.42614">
        <ele>2165.6</ele>
        <time>2022-07-17T10:32:28Z</time>
      </trkpt>
      <trkpt lat="45.07901" lon="6.42613">
        <ele>2165.6</ele>
        <time>2022-07-17T10:32:29Z</time>
      </trkpt>
      <trkpt lat="45.079" lon="6.42612">
        <ele>2166</ele>
        <time>2022-07-17T10:32:30Z</time>
      </trkpt>
      <trkpt lat="45.07898" lon="6.4261">
        <ele>2166</ele>
        <time>2022-07-17T10:32:31Z</time>
      </trkpt>
      <trkpt lat="45.07897" lon="6.42609">
        <ele>2166.4</ele>
        <time>2022-07-17T10:32:32Z</time>
      </trkpt>
      <trkpt lat="45.07896" lon="6.42607">
        <ele>2166.4</ele>
        <time>2022-07-17T10:32:33Z</time>
      </trkpt>
      <trkpt lat="45.07894" lon="6.42606">
        <ele>2166.8</ele>
        <time>2022-07-17T10:32:34Z</time>
      </trkpt>
      <trkpt lat="45.07893" lon="6.42605">
        <ele>2166.8</ele>
        <time>2022-07-17T10:32:35Z</time>
      </trkpt>
      <trkpt lat="45.07892" lon="6.42604">
        <ele>2167</ele>
        <time>2022-07-17T10:32:36Z</time>
      </trkpt>
      <trkpt lat="45.0789" lon="6.42602">
        <ele>2167</ele>
        <time>2022-07-17T10:32:37Z</time>
      </trkpt>
      <trkpt lat="45.07889" lon="6.42601">
        <ele>2167.4</ele>
        <time>2022-07-17T10:32:38Z</time>
      </trkpt>
      <trkpt lat="45.07888" lon="6.42599">
        <ele>2167.4</ele>
        <time>2022-07-17T10:32:39Z</time>
      </trkpt>
      <trkpt lat="45.07886" lon="6.42598">
        <ele>2167.6</ele>
        <time>2022-07-17T10:32:40Z</time>
      </trkpt>
      <trkpt lat="45.07885" lon="6.42597">
        <ele>2167.6</ele>
        <time>2022-07-17T10:32:41Z</time>
      </trkpt>
      <trkpt lat="45.07883" lon="6.42596">
        <ele>2168</ele>
        <time>2022-07-17T10:32:42Z</time>
      </trkpt>
      <trkpt lat="45.07882" lon="6.42595">
        <ele>2168</ele>
        <time>2022-07-17T10:32:43Z</time>
      </trkpt>
      <trkpt lat="45.07881" lon="6.42593">
        <ele>2168.2</ele>
        <time>2022-07-17T10:32:44Z</time>
      </trkpt>
      <trkpt lat="45.0788" lon="6.42592">
        <ele>2168.2</ele>
        <time>2022-07-17T10:32:45Z</time>
      </trkpt>
      <trkpt lat="45.07878" lon="6.42591">
        <ele>2168.6</ele>
        <time>2022-07-17T10:32:46Z</time>
      </trkpt>
      <trkpt lat="45.07877" lon="6.4259">
        <ele>2168.8</ele>
        <time>2022-07-17T10:32:47Z</time>
      </trkpt>
      <trkpt lat="45.07876" lon="6.42589">
        <ele>2168.8</ele>
        <time>2022-07-17T10:32:48Z</time>
      </trkpt>
      <trkpt lat="45.07874" lon="6.42587">
        <ele>2169.2</ele>
        <time>2022-07-17T10:32:49Z</time>
      </trkpt>
      <trkpt lat="45.07873" lon="6.42586">
        <ele>2169.2</ele>
        <time>2022-07-17T10:32:50Z</time>
      </trkpt>
      <trkpt lat="45.07872" lon="6.42585">
        <ele>2169.4</ele>
        <time>2022-07-17T10:32:51Z</time>
      </trkpt>
      <trkpt lat="45.0787" lon="6.42584">
        <ele>2169.4</ele>
        <time>2022-07-17T10:32:52Z</time>
      </trkpt>
      <trkpt lat="45.07869" lon="6.42582">
        <ele>2169.8</ele>
        <time>2022-07-17T10:32:53Z</time>
      </trkpt>
      <trkpt lat="45.07868" lon="6.42581">
        <ele>2169.8</ele>
        <time>2022-07-17T10:32:54Z</time>
      </trkpt>
      <trkpt lat="45.07867" lon="6.4258">
        <ele>2170</ele>
        <time>2022-07-17T10:32:55Z</time>
      </trkpt>
      <trkpt lat="45.07865" lon="6.4258">
        <ele>2170</ele>
        <time>2022-07-17T10:32:56Z</time>
      </trkpt>
      <trkpt lat="45.07864" lon="6.42578">
        <ele>2170.4</ele>
        <time>2022-07-17T10:32:57Z</time>
      </trkpt>
      <trkpt lat="45.07863" lon="6.42577">
        <ele>2170.4</ele>
        <time>2022-07-17T10:32:58Z</time>
      </trkpt>
      <trkpt lat="45.07861" lon="6.42576">
        <ele>2170.6</ele>
        <time>2022-07-17T10:32:59Z</time>
      </trkpt>
      <trkpt lat="45.0786" lon="6.42575">
        <ele>2170.6</ele>
        <time>2022-07-17T10:33:00Z</time>
      </trkpt>
      <trkpt lat="45.07858" lon="6.42574">
        <ele>2171</ele>
        <time>2022-07-17T10:33:01Z</time>
      </trkpt>
      <trkpt lat="45.07857" lon="6.42572">
        <ele>2171</ele>
        <time>2022-07-17T10:33:02Z</time>
      </trkpt>
      <trkpt lat="45.07856" lon="6.42571">
        <ele>2171.2</ele>
        <time>2022-07-17T10:33:03Z</time>
      </trkpt>
      <trkpt lat="45.07854" lon="6.42569">
        <ele>2171.2</ele>
        <time>2022-07-17T10:33:04Z</time>
      </trkpt>
      <trkpt lat="45.07853" lon="6.42568">
        <ele>2171.6</ele>
        <time>2022-07-17T10:33:05Z</time>
      </trkpt>
      <trkpt lat="45.07852" lon="6.42567">
        <ele>2171.6</ele>
        <time>2022-07-17T10:33:06Z</time>
      </trkpt>
      <trkpt lat="45.0785" lon="6.42566">
        <ele>2171.8</ele>
        <time>2022-07-17T10:33:07Z</time>
      </trkpt>
      <trkpt lat="45.07849" lon="6.42564">
        <ele>2171.8</ele>
        <time>2022-07-17T10:33:08Z</time>
      </trkpt>
      <trkpt lat="45.07847" lon="6.42563">
        <ele>2172.2</ele>
        <time>2022-07-17T10:33:09Z</time>
      </trkpt>
      <trkpt lat="45.07846" lon="6.42562">
        <ele>2172.2</ele>
        <time>2022-07-17T10:33:10Z</time>
      </trkpt>
      <trkpt lat="45.07845" lon="6.42561">
        <ele>2172.6</ele>
        <time>2022-07-17T10:33:11Z</time>
      </trkpt>
      <trkpt lat="45.07843" lon="6.42559">
        <ele>2172.6</ele>
        <time>2022-07-17T10:33:12Z</time>
      </trkpt>
      <trkpt lat="45.07842" lon="6.42558">
        <ele>2172.8</ele>
        <time>2022-07-17T10:33:13Z</time>
      </trkpt>
      <trkpt lat="45.0784" lon="6.42557">
        <ele>2172.8</ele>
        <time>2022-07-17T10:33:14Z</time>
      </trkpt>
      <trkpt lat="45.07839" lon="6.42556">
        <ele>2173</ele>
        <time>2022-07-17T10:33:15Z</time>
      </trkpt>
      <trkpt lat="45.07838" lon="6.42555">
        <ele>2173</ele>
        <time>2022-07-17T10:33:16Z</time>
      </trkpt>
      <trkpt lat="45.07836" lon="6.42554">
        <ele>2173.4</ele>
        <time>2022-07-17T10:33:17Z</time>
      </trkpt>
      <trkpt lat="45.07835" lon="6.42552">
        <ele>2173.4</ele>
        <time>2022-07-17T10:33:18Z</time>
      </trkpt>
      <trkpt lat="45.07834" lon="6.42551">
        <ele>2173.8</ele>
        <time>2022-07-17T10:33:19Z</time>
      </trkpt>
      <trkpt lat="45.07833" lon="6.4255">
        <ele>2174</ele>
        <time>2022-07-17T10:33:20Z</time>
      </trkpt>
      <trkpt lat="45.07831" lon="6.42549">
        <ele>2174</ele>
        <time>2022-07-17T10:33:21Z</time>
      </trkpt>
      <trkpt lat="45.0783" lon="6.42548">
        <ele>2174.4</ele>
        <time>2022-07-17T10:33:22Z</time>
      </trkpt>
      <trkpt lat="45.07828" lon="6.42546">
        <ele>2174.6</ele>
        <time>2022-07-17T10:33:23Z</time>
      </trkpt>
      <trkpt lat="45.07827" lon="6.42545">
        <ele>2174.8</ele>
        <time>2022-07-17T10:33:24Z</time>
      </trkpt>
      <trkpt lat="45.07826" lon="6.42544">
        <ele>2174.8</ele>
        <time>2022-07-17T10:33:25Z</time>
      </trkpt>
      <trkpt lat="45.07824" lon="6.42542">
        <ele>2175.2</ele>
        <time>2022-07-17T10:33:26Z</time>
      </trkpt>
      <trkpt lat="45.07823" lon="6.42541">
        <ele>2175.2</ele>
        <time>2022-07-17T10:33:27Z</time>
      </trkpt>
      <trkpt lat="45.07821" lon="6.4254">
        <ele>2175.6</ele>
        <time>2022-07-17T10:33:28Z</time>
      </trkpt>
      <trkpt lat="45.0782" lon="6.42539">
        <ele>2175.6</ele>
        <time>2022-07-17T10:33:29Z</time>
      </trkpt>
      <trkpt lat="45.07819" lon="6.42538">
        <ele>2175.8</ele>
        <time>2022-07-17T10:33:30Z</time>
      </trkpt>
      <trkpt lat="45.07817" lon="6.42536">
        <ele>2175.8</ele>
        <time>2022-07-17T10:33:31Z</time>
      </trkpt>
      <trkpt lat="45.07816" lon="6.42535">
        <ele>2176.2</ele>
        <time>2022-07-17T10:33:32Z</time>
      </trkpt>
      <trkpt lat="45.07815" lon="6.42534">
        <ele>2176.2</ele>
        <time>2022-07-17T10:33:33Z</time>
      </trkpt>
      <trkpt lat="45.07813" lon="6.42533">
        <ele>2176.6</ele>
        <time>2022-07-17T10:33:34Z</time>
      </trkpt>
      <trkpt lat="45.07812" lon="6.42531">
        <ele>2176.6</ele>
        <time>2022-07-17T10:33:35Z</time>
      </trkpt>
      <trkpt lat="45.07811" lon="6.4253">
        <ele>2177</ele>
        <time>2022-07-17T10:33:36Z</time>
      </trkpt>
      <trkpt lat="45.0781" lon="6.42529">
        <ele>2177</ele>
        <time>2022-07-17T10:33:37Z</time>
      </trkpt>
      <trkpt lat="45.07808" lon="6.42528">
        <ele>2177.2</ele>
        <time>2022-07-17T10:33:38Z</time>
      </trkpt>
      <trkpt lat="45.07807" lon="6.42527">
        <ele>2177.4</ele>
        <time>2022-07-17T10:33:39Z</time>
      </trkpt>
      <trkpt lat="45.07806" lon="6.42525">
        <ele>2177.4</ele>
        <time>2022-07-17T10:33:40Z</time>
      </trkpt>
      <trkpt lat="45.07805" lon="6.42524">
        <ele>2177.8</ele>
        <time>2022-07-17T10:33:41Z</time>
      </trkpt>
      <trkpt lat="45.07803" lon="6.42523">
        <ele>2177.8</ele>
        <time>2022-07-17T10:33:42Z</time>
      </trkpt>
      <trkpt lat="45.07802" lon="6.42521">
        <ele>2178.2</ele>
        <time>2022-07-17T10:33:43Z</time>
      </trkpt>
      <trkpt lat="45.07801" lon="6.4252">
        <ele>2178.2</ele>
        <time>2022-07-17T10:33:44Z</time>
      </trkpt>
      <trkpt lat="45.078" lon="6.42519">
        <ele>2178.6</ele>
        <time>2022-07-17T10:33:45Z</time>
      </trkpt>
      <trkpt lat="45.07799" lon="6.42517">
        <ele>2178.6</ele>
        <time>2022-07-17T10:33:46Z</time>
      </trkpt>
      <trkpt lat="45.07798" lon="6.42515">
        <ele>2178.8</ele>
        <time>2022-07-17T10:33:47Z</time>
      </trkpt>
      <trkpt lat="45.07797" lon="6.42514">
        <ele>2178.8</ele>
        <time>2022-07-17T10:33:48Z</time>
      </trkpt>
      <trkpt lat="45.07796" lon="6.42512">
        <ele>2179.2</ele>
        <time>2022-07-17T10:33:49Z</time>
      </trkpt>
      <trkpt lat="45.07796" lon="6.4251">
        <ele>2179.2</ele>
        <time>2022-07-17T10:33:50Z</time>
      </trkpt>
      <trkpt lat="45.07795" lon="6.42507">
        <ele>2179.4</ele>
        <time>2022-07-17T10:33:51Z</time>
      </trkpt>
      <trkpt lat="45.07794" lon="6.42505">
        <ele>2179.4</ele>
        <time>2022-07-17T10:33:52Z</time>
      </trkpt>
      <trkpt lat="45.07794" lon="6.42503">
        <ele>2179.8</ele>
        <time>2022-07-17T10:33:53Z</time>
      </trkpt>
      <trkpt lat="45.07793" lon="6.425">
        <ele>2179.8</ele>
        <time>2022-07-17T10:33:54Z</time>
      </trkpt>
      <trkpt lat="45.07793" lon="6.42498">
        <ele>2180</ele>
        <time>2022-07-17T10:33:55Z</time>
      </trkpt>
      <trkpt lat="45.07793" lon="6.42496">
        <ele>2180</ele>
        <time>2022-07-17T10:33:56Z</time>
      </trkpt>
      <trkpt lat="45.07793" lon="6.42493">
        <ele>2180.2</ele>
        <time>2022-07-17T10:33:57Z</time>
      </trkpt>
      <trkpt lat="45.07793" lon="6.42491">
        <ele>2180.2</ele>
        <time>2022-07-17T10:33:58Z</time>
      </trkpt>
      <trkpt lat="45.07793" lon="6.42489">
        <ele>2180.6</ele>
        <time>2022-07-17T10:33:59Z</time>
      </trkpt>
      <trkpt lat="45.07794" lon="6.42487">
        <ele>2180.8</ele>
        <time>2022-07-17T10:34:00Z</time>
      </trkpt>
      <trkpt lat="45.07794" lon="6.42484">
        <ele>2181.2</ele>
        <time>2022-07-17T10:34:01Z</time>
      </trkpt>
      <trkpt lat="45.07795" lon="6.42482">
        <ele>2181.4</ele>
        <time>2022-07-17T10:34:02Z</time>
      </trkpt>
      <trkpt lat="45.07796" lon="6.4248">
        <ele>2181.4</ele>
        <time>2022-07-17T10:34:03Z</time>
      </trkpt>
      <trkpt lat="45.07797" lon="6.42478">
        <ele>2181.6</ele>
        <time>2022-07-17T10:34:04Z</time>
      </trkpt>
      <trkpt lat="45.07798" lon="6.42476">
        <ele>2182</ele>
        <time>2022-07-17T10:34:05Z</time>
      </trkpt>
      <trkpt lat="45.07799" lon="6.42475">
        <ele>2182</ele>
        <time>2022-07-17T10:34:06Z</time>
      </trkpt>
      <trkpt lat="45.078" lon="6.42473">
        <ele>2182.2</ele>
        <time>2022-07-17T10:34:07Z</time>
      </trkpt>
      <trkpt lat="45.07801" lon="6.42471">
        <ele>2182.2</ele>
        <time>2022-07-17T10:34:08Z</time>
      </trkpt>
      <trkpt lat="45.07803" lon="6.4247">
        <ele>2182.6</ele>
        <time>2022-07-17T10:34:09Z</time>
      </trkpt>
      <trkpt lat="45.07804" lon="6.42469">
        <ele>2182.8</ele>
        <time>2022-07-17T10:34:10Z</time>
      </trkpt>
      <trkpt lat="45.07806" lon="6.42468">
        <ele>2183</ele>
        <time>2022-07-17T10:34:11Z</time>
      </trkpt>
      <trkpt lat="45.07808" lon="6.42468">
        <ele>2183</ele>
        <time>2022-07-17T10:34:12Z</time>
      </trkpt>
      <trkpt lat="45.07809" lon="6.42467">
        <ele>2183.4</ele>
        <time>2022-07-17T10:34:13Z</time>
      </trkpt>
      <trkpt lat="45.07811" lon="6.42467">
        <ele>2183.4</ele>
        <time>2022-07-17T10:34:14Z</time>
      </trkpt>
      <trkpt lat="45.07813" lon="6.42466">
        <ele>2183.8</ele>
        <time>2022-07-17T10:34:15Z</time>
      </trkpt>
      <trkpt lat="45.07814" lon="6.42465">
        <ele>2183.8</ele>
        <time>2022-07-17T10:34:16Z</time>
      </trkpt>
      <trkpt lat="45.07816" lon="6.42464">
        <ele>2184</ele>
        <time>2022-07-17T10:34:17Z</time>
      </trkpt>
      <trkpt lat="45.07818" lon="6.42464">
        <ele>2184</ele>
        <time>2022-07-17T10:34:18Z</time>
      </trkpt>
      <trkpt lat="45.07819" lon="6.42463">
        <ele>2184.4</ele>
        <time>2022-07-17T10:34:19Z</time>
      </trkpt>
      <trkpt lat="45.07821" lon="6.42462">
        <ele>2184.4</ele>
        <time>2022-07-17T10:34:20Z</time>
      </trkpt>
      <trkpt lat="45.07822" lon="6.4246">
        <ele>2184.4</ele>
        <time>2022-07-17T10:34:21Z</time>
      </trkpt>
      <trkpt lat="45.07824" lon="6.42459">
        <ele>2184.8</ele>
        <time>2022-07-17T10:34:22Z</time>
      </trkpt>
      <trkpt lat="45.07825" lon="6.42458">
        <ele>2184.8</ele>
        <time>2022-07-17T10:34:23Z</time>
      </trkpt>
      <trkpt lat="45.07827" lon="6.42456">
        <ele>2185.2</ele>
        <time>2022-07-17T10:34:24Z</time>
      </trkpt>
      <trkpt lat="45.07828" lon="6.42455">
        <ele>2185.2</ele>
        <time>2022-07-17T10:34:25Z</time>
      </trkpt>
      <trkpt lat="45.07829" lon="6.42454">
        <ele>2185.4</ele>
        <time>2022-07-17T10:34:26Z</time>
      </trkpt>
      <trkpt lat="45.07831" lon="6.42452">
        <ele>2185.4</ele>
        <time>2022-07-17T10:34:27Z</time>
      </trkpt>
      <trkpt lat="45.07832" lon="6.42451">
        <ele>2185.8</ele>
        <time>2022-07-17T10:34:28Z</time>
      </trkpt>
      <trkpt lat="45.07833" lon="6.42449">
        <ele>2186</ele>
        <time>2022-07-17T10:34:29Z</time>
      </trkpt>
      <trkpt lat="45.07835" lon="6.42447">
        <ele>2186.2</ele>
        <time>2022-07-17T10:34:30Z</time>
      </trkpt>
      <trkpt lat="45.07836" lon="6.42446">
        <ele>2186.4</ele>
        <time>2022-07-17T10:34:31Z</time>
      </trkpt>
      <trkpt lat="45.07837" lon="6.42444">
        <ele>2186.4</ele>
        <time>2022-07-17T10:34:32Z</time>
      </trkpt>
      <trkpt lat="45.07838" lon="6.42442">
        <ele>2186.8</ele>
        <time>2022-07-17T10:34:33Z</time>
      </trkpt>
      <trkpt lat="45.07839" lon="6.42441">
        <ele>2186.8</ele>
        <time>2022-07-17T10:34:34Z</time>
      </trkpt>
      <trkpt lat="45.07841" lon="6.42439">
        <ele>2187</ele>
        <time>2022-07-17T10:34:35Z</time>
      </trkpt>
      <trkpt lat="45.07842" lon="6.42437">
        <ele>2187</ele>
        <time>2022-07-17T10:34:36Z</time>
      </trkpt>
      <trkpt lat="45.07843" lon="6.42435">
        <ele>2187.4</ele>
        <time>2022-07-17T10:34:37Z</time>
      </trkpt>
      <trkpt lat="45.07844" lon="6.42433">
        <ele>2187.6</ele>
        <time>2022-07-17T10:34:38Z</time>
      </trkpt>
      <trkpt lat="45.07845" lon="6.42432">
        <ele>2187.6</ele>
        <time>2022-07-17T10:34:39Z</time>
      </trkpt>
      <trkpt lat="45.07848" lon="6.42429">
        <ele>2188</ele>
        <time>2022-07-17T10:34:40Z</time>
      </trkpt>
      <trkpt lat="45.07849" lon="6.42427">
        <ele>2188</ele>
        <time>2022-07-17T10:34:41Z</time>
      </trkpt>
      <trkpt lat="45.07851" lon="6.42426">
        <ele>2188.4</ele>
        <time>2022-07-17T10:34:42Z</time>
      </trkpt>
      <trkpt lat="45.07852" lon="6.42424">
        <ele>2188.4</ele>
        <time>2022-07-17T10:34:43Z</time>
      </trkpt>
      <trkpt lat="45.07853" lon="6.42423">
        <ele>2188.6</ele>
        <time>2022-07-17T10:34:44Z</time>
      </trkpt>
      <trkpt lat="45.07854" lon="6.42421">
        <ele>2188.6</ele>
        <time>2022-07-17T10:34:45Z</time>
      </trkpt>
      <trkpt lat="45.07855" lon="6.42419">
        <ele>2189</ele>
        <time>2022-07-17T10:34:46Z</time>
      </trkpt>
      <trkpt lat="45.07857" lon="6.42418">
        <ele>2189</ele>
        <time>2022-07-17T10:34:47Z</time>
      </trkpt>
      <trkpt lat="45.07858" lon="6.42416">
        <ele>2189.2</ele>
        <time>2022-07-17T10:34:48Z</time>
      </trkpt>
      <trkpt lat="45.07859" lon="6.42414">
        <ele>2189.4</ele>
        <time>2022-07-17T10:34:49Z</time>
      </trkpt>
      <trkpt lat="45.0786" lon="6.42412">
        <ele>2189.4</ele>
        <time>2022-07-17T10:34:50Z</time>
      </trkpt>
      <trkpt lat="45.07862" lon="6.42411">
        <ele>2189.8</ele>
        <time>2022-07-17T10:34:51Z</time>
      </trkpt>
      <trkpt lat="45.07863" lon="6.42409">
        <ele>2189.8</ele>
        <time>2022-07-17T10:34:52Z</time>
      </trkpt>
      <trkpt lat="45.07864" lon="6.42407">
        <ele>2189.8</ele>
        <time>2022-07-17T10:34:53Z</time>
      </trkpt>
      <trkpt lat="45.07865" lon="6.42405">
        <ele>2190</ele>
        <time>2022-07-17T10:34:54Z</time>
      </trkpt>
      <trkpt lat="45.07866" lon="6.42404">
        <ele>2190.2</ele>
        <time>2022-07-17T10:34:55Z</time>
      </trkpt>
      <trkpt lat="45.07867" lon="6.42402">
        <ele>2190.2</ele>
        <time>2022-07-17T10:34:56Z</time>
      </trkpt>
      <trkpt lat="45.07869" lon="6.42401">
        <ele>2190.6</ele>
        <time>2022-07-17T10:34:57Z</time>
      </trkpt>
      <trkpt lat="45.0787" lon="6.42399">
        <ele>2190.6</ele>
        <time>2022-07-17T10:34:58Z</time>
      </trkpt>
      <trkpt lat="45.07871" lon="6.42397">
        <ele>2191</ele>
        <time>2022-07-17T10:35:00Z</time>
      </trkpt>
      <trkpt lat="45.07872" lon="6.42395">
        <ele>2191.2</ele>
        <time>2022-07-17T10:35:01Z</time>
      </trkpt>
      <trkpt lat="45.07873" lon="6.42394">
        <ele>2191.2</ele>
        <time>2022-07-17T10:35:02Z</time>
      </trkpt>
      <trkpt lat="45.07874" lon="6.42392">
        <ele>2191.4</ele>
        <time>2022-07-17T10:35:03Z</time>
      </trkpt>
      <trkpt lat="45.07875" lon="6.42391">
        <ele>2191.4</ele>
        <time>2022-07-17T10:35:04Z</time>
      </trkpt>
      <trkpt lat="45.07877" lon="6.42389">
        <ele>2191.6</ele>
        <time>2022-07-17T10:35:05Z</time>
      </trkpt>
      <trkpt lat="45.07878" lon="6.42387">
        <ele>2191.6</ele>
        <time>2022-07-17T10:35:06Z</time>
      </trkpt>
      <trkpt lat="45.07879" lon="6.42386">
        <ele>2191.6</ele>
        <time>2022-07-17T10:35:07Z</time>
      </trkpt>
      <trkpt lat="45.0788" lon="6.42384">
        <ele>2191.6</ele>
        <time>2022-07-17T10:35:08Z</time>
      </trkpt>
      <trkpt lat="45.07882" lon="6.42382">
        <ele>2192</ele>
        <time>2022-07-17T10:35:09Z</time>
      </trkpt>
      <trkpt lat="45.07883" lon="6.42381">
        <ele>2192</ele>
        <time>2022-07-17T10:35:10Z</time>
      </trkpt>
      <trkpt lat="45.07883" lon="6.42379">
        <ele>2192.2</ele>
        <time>2022-07-17T10:35:11Z</time>
      </trkpt>
      <trkpt lat="45.07884" lon="6.42377">
        <ele>2192.2</ele>
        <time>2022-07-17T10:35:12Z</time>
      </trkpt>
      <trkpt lat="45.07885" lon="6.42375">
        <ele>2192.6</ele>
        <time>2022-07-17T10:35:13Z</time>
      </trkpt>
      <trkpt lat="45.07885" lon="6.42373">
        <ele>2192.8</ele>
        <time>2022-07-17T10:35:14Z</time>
      </trkpt>
      <trkpt lat="45.07886" lon="6.4237">
        <ele>2192.8</ele>
        <time>2022-07-17T10:35:15Z</time>
      </trkpt>
      <trkpt lat="45.07886" lon="6.42368">
        <ele>2193.2</ele>
        <time>2022-07-17T10:35:16Z</time>
      </trkpt>
      <trkpt lat="45.07886" lon="6.42366">
        <ele>2193.2</ele>
        <time>2022-07-17T10:35:17Z</time>
      </trkpt>
      <trkpt lat="45.07886" lon="6.42363">
        <ele>2193.2</ele>
        <time>2022-07-17T10:35:18Z</time>
      </trkpt>
      <trkpt lat="45.07886" lon="6.42361">
        <ele>2193.4</ele>
        <time>2022-07-17T10:35:19Z</time>
      </trkpt>
      <trkpt lat="45.07887" lon="6.42358">
        <ele>2193.4</ele>
        <time>2022-07-17T10:35:20Z</time>
      </trkpt>
      <trkpt lat="45.07887" lon="6.42355">
        <ele>2193.8</ele>
        <time>2022-07-17T10:35:21Z</time>
      </trkpt>
      <trkpt lat="45.07887" lon="6.42353">
        <ele>2193.8</ele>
        <time>2022-07-17T10:35:22Z</time>
      </trkpt>
      <trkpt lat="45.07887" lon="6.42351">
        <ele>2193.8</ele>
        <time>2022-07-17T10:35:23Z</time>
      </trkpt>
      <trkpt lat="45.07887" lon="6.42348">
        <ele>2194</ele>
        <time>2022-07-17T10:35:24Z</time>
      </trkpt>
      <trkpt lat="45.07887" lon="6.42345">
        <ele>2194</ele>
        <time>2022-07-17T10:35:25Z</time>
      </trkpt>
      <trkpt lat="45.07888" lon="6.42343">
        <ele>2194.4</ele>
        <time>2022-07-17T10:35:26Z</time>
      </trkpt>
      <trkpt lat="45.07888" lon="6.4234">
        <ele>2194.4</ele>
        <time>2022-07-17T10:35:27Z</time>
      </trkpt>
      <trkpt lat="45.07888" lon="6.42337">
        <ele>2194.6</ele>
        <time>2022-07-17T10:35:28Z</time>
      </trkpt>
      <trkpt lat="45.07888" lon="6.42335">
        <ele>2194.8</ele>
        <time>2022-07-17T10:35:29Z</time>
      </trkpt>
      <trkpt lat="45.07888" lon="6.42332">
        <ele>2194.8</ele>
        <time>2022-07-17T10:35:30Z</time>
      </trkpt>
      <trkpt lat="45.07889" lon="6.4233">
        <ele>2195</ele>
        <time>2022-07-17T10:35:31Z</time>
      </trkpt>
      <trkpt lat="45.07889" lon="6.42327">
        <ele>2195</ele>
        <time>2022-07-17T10:35:32Z</time>
      </trkpt>
      <trkpt lat="45.07889" lon="6.42325">
        <ele>2195.2</ele>
        <time>2022-07-17T10:35:33Z</time>
      </trkpt>
      <trkpt lat="45.0789" lon="6.42322">
        <ele>2195.2</ele>
        <time>2022-07-17T10:35:34Z</time>
      </trkpt>
      <trkpt lat="45.0789" lon="6.4232">
        <ele>2195.6</ele>
        <time>2022-07-17T10:35:35Z</time>
      </trkpt>
      <trkpt lat="45.0789" lon="6.42317">
        <ele>2195.6</ele>
        <time>2022-07-17T10:35:36Z</time>
      </trkpt>
      <trkpt lat="45.07891" lon="6.42315">
        <ele>2195.8</ele>
        <time>2022-07-17T10:35:37Z</time>
      </trkpt>
      <trkpt lat="45.07891" lon="6.42312">
        <ele>2195.8</ele>
        <time>2022-07-17T10:35:38Z</time>
      </trkpt>
      <trkpt lat="45.07891" lon="6.4231">
        <ele>2196.2</ele>
        <time>2022-07-17T10:35:39Z</time>
      </trkpt>
      <trkpt lat="45.07892" lon="6.42307">
        <ele>2196.2</ele>
        <time>2022-07-17T10:35:40Z</time>
      </trkpt>
      <trkpt lat="45.07892" lon="6.42305">
        <ele>2196.6</ele>
        <time>2022-07-17T10:35:41Z</time>
      </trkpt>
      <trkpt lat="45.07893" lon="6.42302">
        <ele>2196.6</ele>
        <time>2022-07-17T10:35:42Z</time>
      </trkpt>
      <trkpt lat="45.07893" lon="6.423">
        <ele>2196.8</ele>
        <time>2022-07-17T10:35:43Z</time>
      </trkpt>
      <trkpt lat="45.07894" lon="6.42298">
        <ele>2196.8</ele>
        <time>2022-07-17T10:35:44Z</time>
      </trkpt>
      <trkpt lat="45.07894" lon="6.42295">
        <ele>2197</ele>
        <time>2022-07-17T10:35:45Z</time>
      </trkpt>
      <trkpt lat="45.07895" lon="6.42293">
        <ele>2197</ele>
        <time>2022-07-17T10:35:46Z</time>
      </trkpt>
      <trkpt lat="45.07895" lon="6.4229">
        <ele>2197.4</ele>
        <time>2022-07-17T10:35:47Z</time>
      </trkpt>
      <trkpt lat="45.07896" lon="6.42288">
        <ele>2197.4</ele>
        <time>2022-07-17T10:35:48Z</time>
      </trkpt>
      <trkpt lat="45.07896" lon="6.42285">
        <ele>2197.6</ele>
        <time>2022-07-17T10:35:49Z</time>
      </trkpt>
      <trkpt lat="45.07897" lon="6.42283">
        <ele>2197.6</ele>
        <time>2022-07-17T10:35:50Z</time>
      </trkpt>
      <trkpt lat="45.07898" lon="6.42281">
        <ele>2197.8</ele>
        <time>2022-07-17T10:35:51Z</time>
      </trkpt>
      <trkpt lat="45.07899" lon="6.42278">
        <ele>2197.8</ele>
        <time>2022-07-17T10:35:52Z</time>
      </trkpt>
      <trkpt lat="45.079" lon="6.42276">
        <ele>2198</ele>
        <time>2022-07-17T10:35:53Z</time>
      </trkpt>
      <trkpt lat="45.07901" lon="6.42274">
        <ele>2198</ele>
        <time>2022-07-17T10:35:54Z</time>
      </trkpt>
      <trkpt lat="45.07903" lon="6.42272">
        <ele>2198.4</ele>
        <time>2022-07-17T10:35:55Z</time>
      </trkpt>
      <trkpt lat="45.07904" lon="6.4227">
        <ele>2198.4</ele>
        <time>2022-07-17T10:35:56Z</time>
      </trkpt>
      <trkpt lat="45.07905" lon="6.42268">
        <ele>2198.6</ele>
        <time>2022-07-17T10:35:57Z</time>
      </trkpt>
      <trkpt lat="45.07906" lon="6.42266">
        <ele>2198.6</ele>
        <time>2022-07-17T10:35:58Z</time>
      </trkpt>
      <trkpt lat="45.07908" lon="6.42264">
        <ele>2198.6</ele>
        <time>2022-07-17T10:35:59Z</time>
      </trkpt>
      <trkpt lat="45.07909" lon="6.42262">
        <ele>2199</ele>
        <time>2022-07-17T10:36:00Z</time>
      </trkpt>
      <trkpt lat="45.0791" lon="6.4226">
        <ele>2199</ele>
        <time>2022-07-17T10:36:01Z</time>
      </trkpt>
      <trkpt lat="45.07912" lon="6.42258">
        <ele>2199.2</ele>
        <time>2022-07-17T10:36:02Z</time>
      </trkpt>
      <trkpt lat="45.07913" lon="6.42256">
        <ele>2199.2</ele>
        <time>2022-07-17T10:36:03Z</time>
      </trkpt>
      <trkpt lat="45.07914" lon="6.42254">
        <ele>2199.4</ele>
        <time>2022-07-17T10:36:04Z</time>
      </trkpt>
      <trkpt lat="45.07916" lon="6.42252">
        <ele>2199.4</ele>
        <time>2022-07-17T10:36:05Z</time>
      </trkpt>
      <trkpt lat="45.07917" lon="6.4225">
        <ele>2199.8</ele>
        <time>2022-07-17T10:36:06Z</time>
      </trkpt>
      <trkpt lat="45.07918" lon="6.42248">
        <ele>2199.8</ele>
        <time>2022-07-17T10:36:07Z</time>
      </trkpt>
      <trkpt lat="45.0792" lon="6.42246">
        <ele>2200</ele>
        <time>2022-07-17T10:36:08Z</time>
      </trkpt>
      <trkpt lat="45.07921" lon="6.42245">
        <ele>2200</ele>
        <time>2022-07-17T10:36:09Z</time>
      </trkpt>
      <trkpt lat="45.07923" lon="6.42243">
        <ele>2200.2</ele>
        <time>2022-07-17T10:36:10Z</time>
      </trkpt>
      <trkpt lat="45.07924" lon="6.4224">
        <ele>2200.2</ele>
        <time>2022-07-17T10:36:11Z</time>
      </trkpt>
      <trkpt lat="45.07925" lon="6.42239">
        <ele>2200.4</ele>
        <time>2022-07-17T10:36:12Z</time>
      </trkpt>
      <trkpt lat="45.07927" lon="6.42237">
        <ele>2200.4</ele>
        <time>2022-07-17T10:36:13Z</time>
      </trkpt>
      <trkpt lat="45.07928" lon="6.42235">
        <ele>2200.8</ele>
        <time>2022-07-17T10:36:14Z</time>
      </trkpt>
      <trkpt lat="45.07929" lon="6.42233">
        <ele>2200.8</ele>
        <time>2022-07-17T10:36:15Z</time>
      </trkpt>
      <trkpt lat="45.07931" lon="6.42231">
        <ele>2201</ele>
        <time>2022-07-17T10:36:16Z</time>
      </trkpt>
      <trkpt lat="45.07932" lon="6.42229">
        <ele>2201</ele>
        <time>2022-07-17T10:36:17Z</time>
      </trkpt>
      <trkpt lat="45.07934" lon="6.42228">
        <ele>2201.2</ele>
        <time>2022-07-17T10:36:18Z</time>
      </trkpt>
      <trkpt lat="45.07935" lon="6.42226">
        <ele>2201.2</ele>
        <time>2022-07-17T10:36:19Z</time>
      </trkpt>
      <trkpt lat="45.07937" lon="6.42224">
        <ele>2201.6</ele>
        <time>2022-07-17T10:36:20Z</time>
      </trkpt>
      <trkpt lat="45.07938" lon="6.42222">
        <ele>2201.6</ele>
        <time>2022-07-17T10:36:21Z</time>
      </trkpt>
      <trkpt lat="45.07939" lon="6.4222">
        <ele>2201.8</ele>
        <time>2022-07-17T10:36:22Z</time>
      </trkpt>
      <trkpt lat="45.07941" lon="6.42218">
        <ele>2201.8</ele>
        <time>2022-07-17T10:36:23Z</time>
      </trkpt>
      <trkpt lat="45.07942" lon="6.42217">
        <ele>2202</ele>
        <time>2022-07-17T10:36:24Z</time>
      </trkpt>
      <trkpt lat="45.07944" lon="6.42215">
        <ele>2202</ele>
        <time>2022-07-17T10:36:25Z</time>
      </trkpt>
      <trkpt lat="45.07945" lon="6.42213">
        <ele>2202.4</ele>
        <time>2022-07-17T10:36:26Z</time>
      </trkpt>
      <trkpt lat="45.07947" lon="6.42211">
        <ele>2202.6</ele>
        <time>2022-07-17T10:36:27Z</time>
      </trkpt>
      <trkpt lat="45.07948" lon="6.42209">
        <ele>2202.8</ele>
        <time>2022-07-17T10:36:28Z</time>
      </trkpt>
      <trkpt lat="45.07949" lon="6.42207">
        <ele>2203.2</ele>
        <time>2022-07-17T10:36:29Z</time>
      </trkpt>
      <trkpt lat="45.07951" lon="6.42205">
        <ele>2203.2</ele>
        <time>2022-07-17T10:36:30Z</time>
      </trkpt>
      <trkpt lat="45.07952" lon="6.42203">
        <ele>2203.4</ele>
        <time>2022-07-17T10:36:31Z</time>
      </trkpt>
      <trkpt lat="45.07953" lon="6.42201">
        <ele>2203.4</ele>
        <time>2022-07-17T10:36:32Z</time>
      </trkpt>
      <trkpt lat="45.07955" lon="6.422">
        <ele>2203.8</ele>
        <time>2022-07-17T10:36:33Z</time>
      </trkpt>
      <trkpt lat="45.07956" lon="6.42198">
        <ele>2203.8</ele>
        <time>2022-07-17T10:36:34Z</time>
      </trkpt>
      <trkpt lat="45.07958" lon="6.42196">
        <ele>2204</ele>
        <time>2022-07-17T10:36:35Z</time>
      </trkpt>
      <trkpt lat="45.07959" lon="6.42194">
        <ele>2204</ele>
        <time>2022-07-17T10:36:36Z</time>
      </trkpt>
      <trkpt lat="45.07961" lon="6.42193">
        <ele>2204.4</ele>
        <time>2022-07-17T10:36:37Z</time>
      </trkpt>
      <trkpt lat="45.07963" lon="6.42191">
        <ele>2204.4</ele>
        <time>2022-07-17T10:36:38Z</time>
      </trkpt>
      <trkpt lat="45.07965" lon="6.4219">
        <ele>2204.6</ele>
        <time>2022-07-17T10:36:39Z</time>
      </trkpt>
      <trkpt lat="45.07966" lon="6.42189">
        <ele>2204.6</ele>
        <time>2022-07-17T10:36:40Z</time>
      </trkpt>
      <trkpt lat="45.07968" lon="6.42188">
        <ele>2205</ele>
        <time>2022-07-17T10:36:41Z</time>
      </trkpt>
      <trkpt lat="45.0797" lon="6.42188">
        <ele>2205</ele>
        <time>2022-07-17T10:36:42Z</time>
      </trkpt>
      <trkpt lat="45.07972" lon="6.42188">
        <ele>2205.4</ele>
        <time>2022-07-17T10:36:43Z</time>
      </trkpt>
      <trkpt lat="45.07974" lon="6.42188">
        <ele>2205.4</ele>
        <time>2022-07-17T10:36:44Z</time>
      </trkpt>
      <trkpt lat="45.07976" lon="6.42188">
        <ele>2205.8</ele>
        <time>2022-07-17T10:36:45Z</time>
      </trkpt>
      <trkpt lat="45.07978" lon="6.42189">
        <ele>2205.8</ele>
        <time>2022-07-17T10:36:46Z</time>
      </trkpt>
      <trkpt lat="45.0798" lon="6.4219">
        <ele>2205.8</ele>
        <time>2022-07-17T10:36:47Z</time>
      </trkpt>
      <trkpt lat="45.07981" lon="6.42192">
        <ele>2206</ele>
        <time>2022-07-17T10:36:48Z</time>
      </trkpt>
      <trkpt lat="45.07983" lon="6.42193">
        <ele>2206</ele>
        <time>2022-07-17T10:36:49Z</time>
      </trkpt>
      <trkpt lat="45.07984" lon="6.42195">
        <ele>2206.4</ele>
        <time>2022-07-17T10:36:50Z</time>
      </trkpt>
      <trkpt lat="45.07986" lon="6.42196">
        <ele>2206.4</ele>
        <time>2022-07-17T10:36:51Z</time>
      </trkpt>
      <trkpt lat="45.07987" lon="6.42198">
        <ele>2206.4</ele>
        <time>2022-07-17T10:36:52Z</time>
      </trkpt>
      <trkpt lat="45.07989" lon="6.422">
        <ele>2206.8</ele>
        <time>2022-07-17T10:36:53Z</time>
      </trkpt>
      <trkpt lat="45.0799" lon="6.42202">
        <ele>2206.8</ele>
        <time>2022-07-17T10:36:54Z</time>
      </trkpt>
      <trkpt lat="45.07991" lon="6.42204">
        <ele>2207</ele>
        <time>2022-07-17T10:36:55Z</time>
      </trkpt>
      <trkpt lat="45.07992" lon="6.42207">
        <ele>2207</ele>
        <time>2022-07-17T10:36:56Z</time>
      </trkpt>
      <trkpt lat="45.07993" lon="6.42209">
        <ele>2207</ele>
        <time>2022-07-17T10:36:57Z</time>
      </trkpt>
      <trkpt lat="45.07994" lon="6.42212">
        <ele>2207.2</ele>
        <time>2022-07-17T10:36:58Z</time>
      </trkpt>
      <trkpt lat="45.07994" lon="6.42215">
        <ele>2207.2</ele>
        <time>2022-07-17T10:36:59Z</time>
      </trkpt>
      <trkpt lat="45.07995" lon="6.42217">
        <ele>2207.2</ele>
        <time>2022-07-17T10:37:00Z</time>
      </trkpt>
      <trkpt lat="45.07995" lon="6.4222">
        <ele>2207.4</ele>
        <time>2022-07-17T10:37:01Z</time>
      </trkpt>
      <trkpt lat="45.07995" lon="6.42223">
        <ele>2207.4</ele>
        <time>2022-07-17T10:37:02Z</time>
      </trkpt>
      <trkpt lat="45.07995" lon="6.42226">
        <ele>2207.4</ele>
        <time>2022-07-17T10:37:03Z</time>
      </trkpt>
      <trkpt lat="45.07995" lon="6.42229">
        <ele>2207.6</ele>
        <time>2022-07-17T10:37:04Z</time>
      </trkpt>
      <trkpt lat="45.07995" lon="6.42231">
        <ele>2207.6</ele>
        <time>2022-07-17T10:37:05Z</time>
      </trkpt>
      <trkpt lat="45.07995" lon="6.42234">
        <ele>2208</ele>
        <time>2022-07-17T10:37:06Z</time>
      </trkpt>
      <trkpt lat="45.07995" lon="6.42236">
        <ele>2208.2</ele>
        <time>2022-07-17T10:37:07Z</time>
      </trkpt>
      <trkpt lat="45.07995" lon="6.42239">
        <ele>2208.2</ele>
        <time>2022-07-17T10:37:08Z</time>
      </trkpt>
      <trkpt lat="45.07995" lon="6.42242">
        <ele>2208.6</ele>
        <time>2022-07-17T10:37:09Z</time>
      </trkpt>
      <trkpt lat="45.07996" lon="6.42245">
        <ele>2208.6</ele>
        <time>2022-07-17T10:37:10Z</time>
      </trkpt>
      <trkpt lat="45.07996" lon="6.42247">
        <ele>2208.8</ele>
        <time>2022-07-17T10:37:11Z</time>
      </trkpt>
      <trkpt lat="45.07997" lon="6.4225">
        <ele>2208.8</ele>
        <time>2022-07-17T10:37:12Z</time>
      </trkpt>
      <trkpt lat="45.07997" lon="6.42252">
        <ele>2209</ele>
        <time>2022-07-17T10:37:13Z</time>
      </trkpt>
      <trkpt lat="45.07998" lon="6.42254">
        <ele>2209.2</ele>
        <time>2022-07-17T10:37:14Z</time>
      </trkpt>
      <trkpt lat="45.07999" lon="6.42257">
        <ele>2209.2</ele>
        <time>2022-07-17T10:37:15Z</time>
      </trkpt>
      <trkpt lat="45.08001" lon="6.42259">
        <ele>2209.6</ele>
        <time>2022-07-17T10:37:16Z</time>
      </trkpt>
      <trkpt lat="45.08002" lon="6.42261">
        <ele>2209.8</ele>
        <time>2022-07-17T10:37:17Z</time>
      </trkpt>
      <trkpt lat="45.08004" lon="6.42263">
        <ele>2209.8</ele>
        <time>2022-07-17T10:37:18Z</time>
      </trkpt>
      <trkpt lat="45.08006" lon="6.42265">
        <ele>2210</ele>
        <time>2022-07-17T10:37:19Z</time>
      </trkpt>
      <trkpt lat="45.08007" lon="6.42266">
        <ele>2210</ele>
        <time>2022-07-17T10:37:20Z</time>
      </trkpt>
      <trkpt lat="45.08009" lon="6.42268">
        <ele>2210</ele>
        <time>2022-07-17T10:37:21Z</time>
      </trkpt>
      <trkpt lat="45.08011" lon="6.4227">
        <ele>2210.4</ele>
        <time>2022-07-17T10:37:22Z</time>
      </trkpt>
      <trkpt lat="45.08012" lon="6.42271">
        <ele>2210.4</ele>
        <time>2022-07-17T10:37:23Z</time>
      </trkpt>
      <trkpt lat="45.08014" lon="6.42273">
        <ele>2210.8</ele>
        <time>2022-07-17T10:37:24Z</time>
      </trkpt>
      <trkpt lat="45.08015" lon="6.42275">
        <ele>2211</ele>
        <time>2022-07-17T10:37:25Z</time>
      </trkpt>
      <trkpt lat="45.08016" lon="6.42277">
        <ele>2211</ele>
        <time>2022-07-17T10:37:26Z</time>
      </trkpt>
      <trkpt lat="45.08018" lon="6.42279">
        <ele>2211.2</ele>
        <time>2022-07-17T10:37:27Z</time>
      </trkpt>
      <trkpt lat="45.08019" lon="6.42281">
        <ele>2211.2</ele>
        <time>2022-07-17T10:37:28Z</time>
      </trkpt>
      <trkpt lat="45.0802" lon="6.42283">
        <ele>2211.4</ele>
        <time>2022-07-17T10:37:29Z</time>
      </trkpt>
      <trkpt lat="45.08021" lon="6.42286">
        <ele>2211.4</ele>
        <time>2022-07-17T10:37:30Z</time>
      </trkpt>
      <trkpt lat="45.08022" lon="6.42288">
        <ele>2211.6</ele>
        <time>2022-07-17T10:37:31Z</time>
      </trkpt>
      <trkpt lat="45.08023" lon="6.4229">
        <ele>2211.6</ele>
        <time>2022-07-17T10:37:32Z</time>
      </trkpt>
      <trkpt lat="45.08024" lon="6.42293">
        <ele>2212</ele>
        <time>2022-07-17T10:37:33Z</time>
      </trkpt>
      <trkpt lat="45.08024" lon="6.42296">
        <ele>2212</ele>
        <time>2022-07-17T10:37:34Z</time>
      </trkpt>
      <trkpt lat="45.08025" lon="6.42298">
        <ele>2212.2</ele>
        <time>2022-07-17T10:37:35Z</time>
      </trkpt>
      <trkpt lat="45.08026" lon="6.42301">
        <ele>2212.2</ele>
        <time>2022-07-17T10:37:36Z</time>
      </trkpt>
      <trkpt lat="45.08026" lon="6.42304">
        <ele>2212.4</ele>
        <time>2022-07-17T10:37:37Z</time>
      </trkpt>
      <trkpt lat="45.08027" lon="6.42307">
        <ele>2212.4</ele>
        <time>2022-07-17T10:37:38Z</time>
      </trkpt>
      <trkpt lat="45.08027" lon="6.4231">
        <ele>2212.4</ele>
        <time>2022-07-17T10:37:39Z</time>
      </trkpt>
      <trkpt lat="45.08027" lon="6.42313">
        <ele>2212.8</ele>
        <time>2022-07-17T10:37:40Z</time>
      </trkpt>
      <trkpt lat="45.08027" lon="6.42316">
        <ele>2212.8</ele>
        <time>2022-07-17T10:37:41Z</time>
      </trkpt>
      <trkpt lat="45.08027" lon="6.42319">
        <ele>2212.8</ele>
        <time>2022-07-17T10:37:42Z</time>
      </trkpt>
      <trkpt lat="45.08027" lon="6.42322">
        <ele>2213.2</ele>
        <time>2022-07-17T10:37:43Z</time>
      </trkpt>
      <trkpt lat="45.08027" lon="6.42325">
        <ele>2213.2</ele>
        <time>2022-07-17T10:37:44Z</time>
      </trkpt>
      <trkpt lat="45.08027" lon="6.42328">
        <ele>2213.4</ele>
        <time>2022-07-17T10:37:45Z</time>
      </trkpt>
      <trkpt lat="45.08026" lon="6.4233">
        <ele>2213.4</ele>
        <time>2022-07-17T10:37:46Z</time>
      </trkpt>
      <trkpt lat="45.08026" lon="6.42333">
        <ele>2213.8</ele>
        <time>2022-07-17T10:37:47Z</time>
      </trkpt>
      <trkpt lat="45.08026" lon="6.42336">
        <ele>2213.8</ele>
        <time>2022-07-17T10:37:48Z</time>
      </trkpt>
      <trkpt lat="45.08025" lon="6.42339">
        <ele>2214</ele>
        <time>2022-07-17T10:37:49Z</time>
      </trkpt>
      <trkpt lat="45.08024" lon="6.42342">
        <ele>2214</ele>
        <time>2022-07-17T10:37:50Z</time>
      </trkpt>
      <trkpt lat="45.08023" lon="6.42345">
        <ele>2214.4</ele>
        <time>2022-07-17T10:37:51Z</time>
      </trkpt>
      <trkpt lat="45.08022" lon="6.42348">
        <ele>2214.4</ele>
        <time>2022-07-17T10:37:52Z</time>
      </trkpt>
      <trkpt lat="45.08022" lon="6.42351">
        <ele>2214.4</ele>
        <time>2022-07-17T10:37:53Z</time>
      </trkpt>
      <trkpt lat="45.08021" lon="6.42354">
        <ele>2214.6</ele>
        <time>2022-07-17T10:37:54Z</time>
      </trkpt>
      <trkpt lat="45.0802" lon="6.42358">
        <ele>2214.6</ele>
        <time>2022-07-17T10:37:55Z</time>
      </trkpt>
      <trkpt lat="45.08019" lon="6.42361">
        <ele>2214.6</ele>
        <time>2022-07-17T10:37:56Z</time>
      </trkpt>
      <trkpt lat="45.08018" lon="6.42365">
        <ele>2214.6</ele>
        <time>2022-07-17T10:37:57Z</time>
      </trkpt>
      <trkpt lat="45.08018" lon="6.42368">
        <ele>2214.6</ele>
        <time>2022-07-17T10:37:58Z</time>
      </trkpt>
      <trkpt lat="45.08017" lon="6.42372">
        <ele>2215</ele>
        <time>2022-07-17T10:37:59Z</time>
      </trkpt>
      <trkpt lat="45.08017" lon="6.42375">
        <ele>2215</ele>
        <time>2022-07-17T10:38:00Z</time>
      </trkpt>
      <trkpt lat="45.08017" lon="6.42379">
        <ele>2215.4</ele>
        <time>2022-07-17T10:38:01Z</time>
      </trkpt>
      <trkpt lat="45.08017" lon="6.42382">
        <ele>2215.4</ele>
        <time>2022-07-17T10:38:02Z</time>
      </trkpt>
      <trkpt lat="45.08018" lon="6.42385">
        <ele>2215.8</ele>
        <time>2022-07-17T10:38:03Z</time>
      </trkpt>
      <trkpt lat="45.08019" lon="6.42389">
        <ele>2216</ele>
        <time>2022-07-17T10:38:04Z</time>
      </trkpt>
      <trkpt lat="45.08021" lon="6.42391">
        <ele>2216.4</ele>
        <time>2022-07-17T10:38:05Z</time>
      </trkpt>
      <trkpt lat="45.08023" lon="6.42393">
        <ele>2216.6</ele>
        <time>2022-07-17T10:38:06Z</time>
      </trkpt>
      <trkpt lat="45.08025" lon="6.42395">
        <ele>2216.6</ele>
        <time>2022-07-17T10:38:07Z</time>
      </trkpt>
      <trkpt lat="45.08027" lon="6.42397">
        <ele>2217</ele>
        <time>2022-07-17T10:38:08Z</time>
      </trkpt>
      <trkpt lat="45.08029" lon="6.42398">
        <ele>2217.4</ele>
        <time>2022-07-17T10:38:09Z</time>
      </trkpt>
      <trkpt lat="45.08031" lon="6.42398">
        <ele>2217.6</ele>
        <time>2022-07-17T10:38:10Z</time>
      </trkpt>
      <trkpt lat="45.08033" lon="6.42398">
        <ele>2217.6</ele>
        <time>2022-07-17T10:38:11Z</time>
      </trkpt>
      <trkpt lat="45.08035" lon="6.42397">
        <ele>2218</ele>
        <time>2022-07-17T10:38:12Z</time>
      </trkpt>
      <trkpt lat="45.08037" lon="6.42395">
        <ele>2218</ele>
        <time>2022-07-17T10:38:13Z</time>
      </trkpt>
      <trkpt lat="45.0804" lon="6.42393">
        <ele>2218.2</ele>
        <time>2022-07-17T10:38:14Z</time>
      </trkpt>
      <trkpt lat="45.08041" lon="6.4239">
        <ele>2218.2</ele>
        <time>2022-07-17T10:38:15Z</time>
      </trkpt>
      <trkpt lat="45.08043" lon="6.42387">
        <ele>2218.4</ele>
        <time>2022-07-17T10:38:16Z</time>
      </trkpt>
      <trkpt lat="45.08044" lon="6.42384">
        <ele>2218.4</ele>
        <time>2022-07-17T10:38:17Z</time>
      </trkpt>
      <trkpt lat="45.08045" lon="6.4238">
        <ele>2218.8</ele>
        <time>2022-07-17T10:38:18Z</time>
      </trkpt>
      <trkpt lat="45.08045" lon="6.42376">
        <ele>2218.8</ele>
        <time>2022-07-17T10:38:19Z</time>
      </trkpt>
      <trkpt lat="45.08044" lon="6.42373">
        <ele>2218.8</ele>
        <time>2022-07-17T10:38:20Z</time>
      </trkpt>
      <trkpt lat="45.08044" lon="6.42369">
        <ele>2219</ele>
        <time>2022-07-17T10:38:21Z</time>
      </trkpt>
      <trkpt lat="45.08044" lon="6.42366">
        <ele>2219</ele>
        <time>2022-07-17T10:38:22Z</time>
      </trkpt>
      <trkpt lat="45.08044" lon="6.42362">
        <ele>2219.2</ele>
        <time>2022-07-17T10:38:23Z</time>
      </trkpt>
      <trkpt lat="45.08044" lon="6.42359">
        <ele>2219.2</ele>
        <time>2022-07-17T10:38:24Z</time>
      </trkpt>
      <trkpt lat="45.08044" lon="6.42356">
        <ele>2219.2</ele>
        <time>2022-07-17T10:38:25Z</time>
      </trkpt>
      <trkpt lat="45.08045" lon="6.42352">
        <ele>2219.4</ele>
        <time>2022-07-17T10:38:26Z</time>
      </trkpt>
      <trkpt lat="45.08045" lon="6.42349">
        <ele>2219.4</ele>
        <time>2022-07-17T10:38:27Z</time>
      </trkpt>
      <trkpt lat="45.08045" lon="6.42346">
        <ele>2219.6</ele>
        <time>2022-07-17T10:38:28Z</time>
      </trkpt>
      <trkpt lat="45.08046" lon="6.42343">
        <ele>2219.6</ele>
        <time>2022-07-17T10:38:29Z</time>
      </trkpt>
      <trkpt lat="45.08047" lon="6.4234">
        <ele>2220</ele>
        <time>2022-07-17T10:38:30Z</time>
      </trkpt>
      <trkpt lat="45.08047" lon="6.42336">
        <ele>2220</ele>
        <time>2022-07-17T10:38:31Z</time>
      </trkpt>
      <trkpt lat="45.08048" lon="6.42333">
        <ele>2220.4</ele>
        <time>2022-07-17T10:38:32Z</time>
      </trkpt>
      <trkpt lat="45.08048" lon="6.4233">
        <ele>2220.4</ele>
        <time>2022-07-17T10:38:33Z</time>
      </trkpt>
      <trkpt lat="45.08049" lon="6.42327">
        <ele>2220.6</ele>
        <time>2022-07-17T10:38:34Z</time>
      </trkpt>
      <trkpt lat="45.08049" lon="6.42324">
        <ele>2220.6</ele>
        <time>2022-07-17T10:38:35Z</time>
      </trkpt>
      <trkpt lat="45.0805" lon="6.42321">
        <ele>2221</ele>
        <time>2022-07-17T10:38:36Z</time>
      </trkpt>
      <trkpt lat="45.08051" lon="6.42319">
        <ele>2221</ele>
        <time>2022-07-17T10:38:37Z</time>
      </trkpt>
      <trkpt lat="45.08051" lon="6.42316">
        <ele>2221.2</ele>
        <time>2022-07-17T10:38:38Z</time>
      </trkpt>
      <trkpt lat="45.08052" lon="6.42313">
        <ele>2221.2</ele>
        <time>2022-07-17T10:38:39Z</time>
      </trkpt>
      <trkpt lat="45.08053" lon="6.42309">
        <ele>2221.4</ele>
        <time>2022-07-17T10:38:40Z</time>
      </trkpt>
      <trkpt lat="45.08053" lon="6.42306">
        <ele>2221.4</ele>
        <time>2022-07-17T10:38:41Z</time>
      </trkpt>
      <trkpt lat="45.08054" lon="6.42303">
        <ele>2221.8</ele>
        <time>2022-07-17T10:38:42Z</time>
      </trkpt>
      <trkpt lat="45.08055" lon="6.423">
        <ele>2221.8</ele>
        <time>2022-07-17T10:38:43Z</time>
      </trkpt>
      <trkpt lat="45.08056" lon="6.42297">
        <ele>2222</ele>
        <time>2022-07-17T10:38:44Z</time>
      </trkpt>
      <trkpt lat="45.08056" lon="6.42294">
        <ele>2222</ele>
        <time>2022-07-17T10:38:45Z</time>
      </trkpt>
      <trkpt lat="45.08057" lon="6.42291">
        <ele>2222.2</ele>
        <time>2022-07-17T10:38:46Z</time>
      </trkpt>
      <trkpt lat="45.08058" lon="6.42288">
        <ele>2222.2</ele>
        <time>2022-07-17T10:38:47Z</time>
      </trkpt>
      <trkpt lat="45.08058" lon="6.42285">
        <ele>2222.6</ele>
        <time>2022-07-17T10:38:48Z</time>
      </trkpt>
      <trkpt lat="45.08059" lon="6.42282">
        <ele>2222.6</ele>
        <time>2022-07-17T10:38:49Z</time>
      </trkpt>
      <trkpt lat="45.0806" lon="6.42279">
        <ele>2222.8</ele>
        <time>2022-07-17T10:38:50Z</time>
      </trkpt>
      <trkpt lat="45.0806" lon="6.42276">
        <ele>2222.8</ele>
        <time>2022-07-17T10:38:51Z</time>
      </trkpt>
      <trkpt lat="45.08061" lon="6.42273">
        <ele>2223.2</ele>
        <time>2022-07-17T10:38:52Z</time>
      </trkpt>
      <trkpt lat="45.08062" lon="6.4227">
        <ele>2223.2</ele>
        <time>2022-07-17T10:38:53Z</time>
      </trkpt>
      <trkpt lat="45.08063" lon="6.42267">
        <ele>2223.6</ele>
        <time>2022-07-17T10:38:54Z</time>
      </trkpt>
      <trkpt lat="45.08064" lon="6.42264">
        <ele>2223.6</ele>
        <time>2022-07-17T10:38:55Z</time>
      </trkpt>
      <trkpt lat="45.08064" lon="6.42261">
        <ele>2224</ele>
        <time>2022-07-17T10:38:56Z</time>
      </trkpt>
      <trkpt lat="45.08065" lon="6.42258">
        <ele>2224.2</ele>
        <time>2022-07-17T10:38:57Z</time>
      </trkpt>
      <trkpt lat="45.08066" lon="6.42255">
        <ele>2224.2</ele>
        <time>2022-07-17T10:38:58Z</time>
      </trkpt>
      <trkpt lat="45.08067" lon="6.42252">
        <ele>2224.6</ele>
        <time>2022-07-17T10:38:59Z</time>
      </trkpt>
      <trkpt lat="45.08068" lon="6.42249">
        <ele>2224.6</ele>
        <time>2022-07-17T10:39:00Z</time>
      </trkpt>
      <trkpt lat="45.08069" lon="6.42247">
        <ele>2224.8</ele>
        <time>2022-07-17T10:39:01Z</time>
      </trkpt>
      <trkpt lat="45.0807" lon="6.42244">
        <ele>2224.8</ele>
        <time>2022-07-17T10:39:02Z</time>
      </trkpt>
      <trkpt lat="45.08071" lon="6.42241">
        <ele>2225.2</ele>
        <time>2022-07-17T10:39:03Z</time>
      </trkpt>
      <trkpt lat="45.08072" lon="6.42239">
        <ele>2225.2</ele>
        <time>2022-07-17T10:39:04Z</time>
      </trkpt>
      <trkpt lat="45.08073" lon="6.42236">
        <ele>2225.4</ele>
        <time>2022-07-17T10:39:05Z</time>
      </trkpt>
      <trkpt lat="45.08074" lon="6.42233">
        <ele>2225.4</ele>
        <time>2022-07-17T10:39:06Z</time>
      </trkpt>
      <trkpt lat="45.08075" lon="6.4223">
        <ele>2225.8</ele>
        <time>2022-07-17T10:39:07Z</time>
      </trkpt>
      <trkpt lat="45.08076" lon="6.42228">
        <ele>2226</ele>
        <time>2022-07-17T10:39:08Z</time>
      </trkpt>
      <trkpt lat="45.08077" lon="6.42225">
        <ele>2226</ele>
        <time>2022-07-17T10:39:09Z</time>
      </trkpt>
      <trkpt lat="45.08078" lon="6.42222">
        <ele>2226.4</ele>
        <time>2022-07-17T10:39:10Z</time>
      </trkpt>
      <trkpt lat="45.08079" lon="6.4222">
        <ele>2226.4</ele>
        <time>2022-07-17T10:39:11Z</time>
      </trkpt>
      <trkpt lat="45.0808" lon="6.42217">
        <ele>2226.6</ele>
        <time>2022-07-17T10:39:12Z</time>
      </trkpt>
      <trkpt lat="45.08081" lon="6.42215">
        <ele>2226.6</ele>
        <time>2022-07-17T10:39:13Z</time>
      </trkpt>
      <trkpt lat="45.08082" lon="6.42212">
        <ele>2226.8</ele>
        <time>2022-07-17T10:39:14Z</time>
      </trkpt>
      <trkpt lat="45.08083" lon="6.4221">
        <ele>2227</ele>
        <time>2022-07-17T10:39:15Z</time>
      </trkpt>
      <trkpt lat="45.08084" lon="6.42208">
        <ele>2227.2</ele>
        <time>2022-07-17T10:39:16Z</time>
      </trkpt>
      <trkpt lat="45.08085" lon="6.42205">
        <ele>2227.2</ele>
        <time>2022-07-17T10:39:17Z</time>
      </trkpt>
      <trkpt lat="45.08086" lon="6.42202">
        <ele>2227.6</ele>
        <time>2022-07-17T10:39:18Z</time>
      </trkpt>
      <trkpt lat="45.08087" lon="6.42199">
        <ele>2227.6</ele>
        <time>2022-07-17T10:39:19Z</time>
      </trkpt>
      <trkpt lat="45.08087" lon="6.42197">
        <ele>2227.8</ele>
        <time>2022-07-17T10:39:20Z</time>
      </trkpt>
      <trkpt lat="45.08088" lon="6.42194">
        <ele>2227.8</ele>
        <time>2022-07-17T10:39:21Z</time>
      </trkpt>
      <trkpt lat="45.08089" lon="6.42192">
        <ele>2228.2</ele>
        <time>2022-07-17T10:39:22Z</time>
      </trkpt>
      <trkpt lat="45.0809" lon="6.42189">
        <ele>2228.4</ele>
        <time>2022-07-17T10:39:23Z</time>
      </trkpt>
      <trkpt lat="45.08091" lon="6.42186">
        <ele>2228.4</ele>
        <time>2022-07-17T10:39:24Z</time>
      </trkpt>
      <trkpt lat="45.08091" lon="6.42184">
        <ele>2228.6</ele>
        <time>2022-07-17T10:39:25Z</time>
      </trkpt>
      <trkpt lat="45.08092" lon="6.42181">
        <ele>2228.6</ele>
        <time>2022-07-17T10:39:26Z</time>
      </trkpt>
      <trkpt lat="45.08093" lon="6.42179">
        <ele>2229</ele>
        <time>2022-07-17T10:39:27Z</time>
      </trkpt>
      <trkpt lat="45.08093" lon="6.42176">
        <ele>2229.2</ele>
        <time>2022-07-17T10:39:28Z</time>
      </trkpt>
      <trkpt lat="45.08094" lon="6.42174">
        <ele>2229.4</ele>
        <time>2022-07-17T10:39:29Z</time>
      </trkpt>
      <trkpt lat="45.08094" lon="6.42171">
        <ele>2229.4</ele>
        <time>2022-07-17T10:39:30Z</time>
      </trkpt>
      <trkpt lat="45.08094" lon="6.42169">
        <ele>2229.8</ele>
        <time>2022-07-17T10:39:31Z</time>
      </trkpt>
      <trkpt lat="45.08095" lon="6.42166">
        <ele>2230</ele>
        <time>2022-07-17T10:39:32Z</time>
      </trkpt>
      <trkpt lat="45.08095" lon="6.42164">
        <ele>2230</ele>
        <time>2022-07-17T10:39:33Z</time>
      </trkpt>
      <trkpt lat="45.08096" lon="6.42162">
        <ele>2230.4</ele>
        <time>2022-07-17T10:39:34Z</time>
      </trkpt>
      <trkpt lat="45.08096" lon="6.42159">
        <ele>2230.6</ele>
        <time>2022-07-17T10:39:35Z</time>
      </trkpt>
      <trkpt lat="45.08097" lon="6.42156">
        <ele>2230.6</ele>
        <time>2022-07-17T10:39:36Z</time>
      </trkpt>
      <trkpt lat="45.08097" lon="6.42154">
        <ele>2230.8</ele>
        <time>2022-07-17T10:39:37Z</time>
      </trkpt>
      <trkpt lat="45.08098" lon="6.42151">
        <ele>2230.8</ele>
        <time>2022-07-17T10:39:38Z</time>
      </trkpt>
      <trkpt lat="45.08098" lon="6.42148">
        <ele>2231</ele>
        <time>2022-07-17T10:39:39Z</time>
      </trkpt>
      <trkpt lat="45.08098" lon="6.42146">
        <ele>2231</ele>
        <time>2022-07-17T10:39:40Z</time>
      </trkpt>
      <trkpt lat="45.08098" lon="6.42143">
        <ele>2231.4</ele>
        <time>2022-07-17T10:39:41Z</time>
      </trkpt>
      <trkpt lat="45.08098" lon="6.42141">
        <ele>2231.4</ele>
        <time>2022-07-17T10:39:42Z</time>
      </trkpt>
      <trkpt lat="45.08098" lon="6.42138">
        <ele>2231.6</ele>
        <time>2022-07-17T10:39:43Z</time>
      </trkpt>
      <trkpt lat="45.08099" lon="6.42135">
        <ele>2231.6</ele>
        <time>2022-07-17T10:39:44Z</time>
      </trkpt>
      <trkpt lat="45.08099" lon="6.42133">
        <ele>2231.8</ele>
        <time>2022-07-17T10:39:45Z</time>
      </trkpt>
      <trkpt lat="45.081" lon="6.4213">
        <ele>2231.8</ele>
        <time>2022-07-17T10:39:46Z</time>
      </trkpt>
      <trkpt lat="45.081" lon="6.42127">
        <ele>2232.2</ele>
        <time>2022-07-17T10:39:47Z</time>
      </trkpt>
      <trkpt lat="45.08101" lon="6.42125">
        <ele>2232.2</ele>
        <time>2022-07-17T10:39:48Z</time>
      </trkpt>
      <trkpt lat="45.08101" lon="6.42122">
        <ele>2232.6</ele>
        <time>2022-07-17T10:39:49Z</time>
      </trkpt>
      <trkpt lat="45.08102" lon="6.4212">
        <ele>2232.6</ele>
        <time>2022-07-17T10:39:50Z</time>
      </trkpt>
      <trkpt lat="45.08102" lon="6.42117">
        <ele>2232.8</ele>
        <time>2022-07-17T10:39:51Z</time>
      </trkpt>
      <trkpt lat="45.08103" lon="6.42115">
        <ele>2232.8</ele>
        <time>2022-07-17T10:39:52Z</time>
      </trkpt>
      <trkpt lat="45.08104" lon="6.42112">
        <ele>2233.2</ele>
        <time>2022-07-17T10:39:53Z</time>
      </trkpt>
      <trkpt lat="45.08104" lon="6.4211">
        <ele>2233.2</ele>
        <time>2022-07-17T10:39:54Z</time>
      </trkpt>
      <trkpt lat="45.08105" lon="6.42107">
        <ele>2233.4</ele>
        <time>2022-07-17T10:39:55Z</time>
      </trkpt>
      <trkpt lat="45.08106" lon="6.42105">
        <ele>2233.4</ele>
        <time>2022-07-17T10:39:56Z</time>
      </trkpt>
      <trkpt lat="45.08106" lon="6.42102">
        <ele>2233.8</ele>
        <time>2022-07-17T10:39:57Z</time>
      </trkpt>
      <trkpt lat="45.08107" lon="6.421">
        <ele>2233.8</ele>
        <time>2022-07-17T10:39:58Z</time>
      </trkpt>
      <trkpt lat="45.08107" lon="6.42098">
        <ele>2234</ele>
        <time>2022-07-17T10:39:59Z</time>
      </trkpt>
      <trkpt lat="45.08108" lon="6.42095">
        <ele>2234</ele>
        <time>2022-07-17T10:40:00Z</time>
      </trkpt>
      <trkpt lat="45.08108" lon="6.42093">
        <ele>2234.4</ele>
        <time>2022-07-17T10:40:01Z</time>
      </trkpt>
      <trkpt lat="45.08109" lon="6.4209">
        <ele>2234.4</ele>
        <time>2022-07-17T10:40:02Z</time>
      </trkpt>
      <trkpt lat="45.08109" lon="6.42088">
        <ele>2234.6</ele>
        <time>2022-07-17T10:40:03Z</time>
      </trkpt>
      <trkpt lat="45.08109" lon="6.42085">
        <ele>2234.6</ele>
        <time>2022-07-17T10:40:04Z</time>
      </trkpt>
      <trkpt lat="45.0811" lon="6.42083">
        <ele>2235</ele>
        <time>2022-07-17T10:40:05Z</time>
      </trkpt>
      <trkpt lat="45.0811" lon="6.42081">
        <ele>2235</ele>
        <time>2022-07-17T10:40:06Z</time>
      </trkpt>
      <trkpt lat="45.0811" lon="6.42078">
        <ele>2235.4</ele>
        <time>2022-07-17T10:40:07Z</time>
      </trkpt>
      <trkpt lat="45.0811" lon="6.42076">
        <ele>2235.4</ele>
        <time>2022-07-17T10:40:08Z</time>
      </trkpt>
      <trkpt lat="45.0811" lon="6.42073">
        <ele>2235.6</ele>
        <time>2022-07-17T10:40:09Z</time>
      </trkpt>
      <trkpt lat="45.0811" lon="6.4207">
        <ele>2235.6</ele>
        <time>2022-07-17T10:40:10Z</time>
      </trkpt>
      <trkpt lat="45.0811" lon="6.42068">
        <ele>2235.8</ele>
        <time>2022-07-17T10:40:11Z</time>
      </trkpt>
      <trkpt lat="45.08109" lon="6.42065">
        <ele>2235.8</ele>
        <time>2022-07-17T10:40:12Z</time>
      </trkpt>
      <trkpt lat="45.08109" lon="6.42062">
        <ele>2236</ele>
        <time>2022-07-17T10:40:13Z</time>
      </trkpt>
      <trkpt lat="45.08109" lon="6.4206">
        <ele>2236</ele>
        <time>2022-07-17T10:40:14Z</time>
      </trkpt>
      <trkpt lat="45.08109" lon="6.42057">
        <ele>2236.4</ele>
        <time>2022-07-17T10:40:15Z</time>
      </trkpt>
      <trkpt lat="45.08108" lon="6.42054">
        <ele>2236.4</ele>
        <time>2022-07-17T10:40:16Z</time>
      </trkpt>
      <trkpt lat="45.08108" lon="6.42052">
        <ele>2236.4</ele>
        <time>2022-07-17T10:40:17Z</time>
      </trkpt>
      <trkpt lat="45.08107" lon="6.42049">
        <ele>2236.8</ele>
        <time>2022-07-17T10:40:18Z</time>
      </trkpt>
      <trkpt lat="45.08107" lon="6.42046">
        <ele>2236.8</ele>
        <time>2022-07-17T10:40:19Z</time>
      </trkpt>
      <trkpt lat="45.08107" lon="6.42043">
        <ele>2237.2</ele>
        <time>2022-07-17T10:40:20Z</time>
      </trkpt>
      <trkpt lat="45.08106" lon="6.42041">
        <ele>2237.2</ele>
        <time>2022-07-17T10:40:21Z</time>
      </trkpt>
      <trkpt lat="45.08106" lon="6.42038">
        <ele>2237.6</ele>
        <time>2022-07-17T10:40:22Z</time>
      </trkpt>
      <trkpt lat="45.08105" lon="6.42035">
        <ele>2237.6</ele>
        <time>2022-07-17T10:40:23Z</time>
      </trkpt>
      <trkpt lat="45.08105" lon="6.42032">
        <ele>2238</ele>
        <time>2022-07-17T10:40:24Z</time>
      </trkpt>
      <trkpt lat="45.08104" lon="6.42029">
        <ele>2238</ele>
        <time>2022-07-17T10:40:25Z</time>
      </trkpt>
      <trkpt lat="45.08104" lon="6.42027">
        <ele>2238.2</ele>
        <time>2022-07-17T10:40:26Z</time>
      </trkpt>
      <trkpt lat="45.08103" lon="6.42024">
        <ele>2238.2</ele>
        <time>2022-07-17T10:40:27Z</time>
      </trkpt>
      <trkpt lat="45.08103" lon="6.42021">
        <ele>2238.4</ele>
        <time>2022-07-17T10:40:28Z</time>
      </trkpt>
      <trkpt lat="45.08102" lon="6.42018">
        <ele>2238.4</ele>
        <time>2022-07-17T10:40:29Z</time>
      </trkpt>
      <trkpt lat="45.08101" lon="6.42015">
        <ele>2238.8</ele>
        <time>2022-07-17T10:40:30Z</time>
      </trkpt>
      <trkpt lat="45.08101" lon="6.42013">
        <ele>2238.8</ele>
        <time>2022-07-17T10:40:31Z</time>
      </trkpt>
      <trkpt lat="45.08101" lon="6.4201">
        <ele>2239</ele>
        <time>2022-07-17T10:40:32Z</time>
      </trkpt>
      <trkpt lat="45.081" lon="6.42008">
        <ele>2239</ele>
        <time>2022-07-17T10:40:33Z</time>
      </trkpt>
      <trkpt lat="45.081" lon="6.42005">
        <ele>2239</ele>
        <time>2022-07-17T10:40:34Z</time>
      </trkpt>
      <trkpt lat="45.08099" lon="6.42003">
        <ele>2239.2</ele>
        <time>2022-07-17T10:40:35Z</time>
      </trkpt>
      <trkpt lat="45.08099" lon="6.42001">
        <ele>2239.2</ele>
        <time>2022-07-17T10:40:36Z</time>
      </trkpt>
      <trkpt lat="45.08098" lon="6.41998">
        <ele>2239.2</ele>
        <time>2022-07-17T10:40:37Z</time>
      </trkpt>
      <trkpt lat="45.08098" lon="6.41996">
        <ele>2239.4</ele>
        <time>2022-07-17T10:40:38Z</time>
      </trkpt>
      <trkpt lat="45.08098" lon="6.41993">
        <ele>2239.4</ele>
        <time>2022-07-17T10:40:39Z</time>
      </trkpt>
      <trkpt lat="45.08097" lon="6.41991">
        <ele>2239.6</ele>
        <time>2022-07-17T10:40:40Z</time>
      </trkpt>
      <trkpt lat="45.08097" lon="6.41988">
        <ele>2239.6</ele>
        <time>2022-07-17T10:40:41Z</time>
      </trkpt>
      <trkpt lat="45.08096" lon="6.41986">
        <ele>2239.6</ele>
        <time>2022-07-17T10:40:42Z</time>
      </trkpt>
      <trkpt lat="45.08096" lon="6.41983">
        <ele>2240</ele>
        <time>2022-07-17T10:40:43Z</time>
      </trkpt>
      <trkpt lat="45.08095" lon="6.41981">
        <ele>2240</ele>
        <time>2022-07-17T10:40:44Z</time>
      </trkpt>
      <trkpt lat="45.08095" lon="6.41978">
        <ele>2240.4</ele>
        <time>2022-07-17T10:40:45Z</time>
      </trkpt>
      <trkpt lat="45.08094" lon="6.41976">
        <ele>2240.4</ele>
        <time>2022-07-17T10:40:46Z</time>
      </trkpt>
      <trkpt lat="45.08094" lon="6.41974">
        <ele>2240.6</ele>
        <time>2022-07-17T10:40:47Z</time>
      </trkpt>
      <trkpt lat="45.08093" lon="6.41971">
        <ele>2240.6</ele>
        <time>2022-07-17T10:40:48Z</time>
      </trkpt>
      <trkpt lat="45.08093" lon="6.41969">
        <ele>2240.8</ele>
        <time>2022-07-17T10:40:49Z</time>
      </trkpt>
      <trkpt lat="45.08092" lon="6.41966">
        <ele>2240.8</ele>
        <time>2022-07-17T10:40:50Z</time>
      </trkpt>
      <trkpt lat="45.08092" lon="6.41964">
        <ele>2240.8</ele>
        <time>2022-07-17T10:40:51Z</time>
      </trkpt>
      <trkpt lat="45.08092" lon="6.41961">
        <ele>2241.2</ele>
        <time>2022-07-17T10:40:52Z</time>
      </trkpt>
      <trkpt lat="45.08091" lon="6.41959">
        <ele>2241.2</ele>
        <time>2022-07-17T10:40:53Z</time>
      </trkpt>
      <trkpt lat="45.08091" lon="6.41957">
        <ele>2241.4</ele>
        <time>2022-07-17T10:40:54Z</time>
      </trkpt>
      <trkpt lat="45.0809" lon="6.41954">
        <ele>2241.4</ele>
        <time>2022-07-17T10:40:55Z</time>
      </trkpt>
      <trkpt lat="45.0809" lon="6.41952">
        <ele>2241.8</ele>
        <time>2022-07-17T10:40:56Z</time>
      </trkpt>
      <trkpt lat="45.0809" lon="6.41949">
        <ele>2241.8</ele>
        <time>2022-07-17T10:40:57Z</time>
      </trkpt>
      <trkpt lat="45.08089" lon="6.41947">
        <ele>2242</ele>
        <time>2022-07-17T10:40:58Z</time>
      </trkpt>
      <trkpt lat="45.08088" lon="6.41945">
        <ele>2242</ele>
        <time>2022-07-17T10:40:59Z</time>
      </trkpt>
      <trkpt lat="45.08088" lon="6.41942">
        <ele>2242.2</ele>
        <time>2022-07-17T10:41:00Z</time>
      </trkpt>
      <trkpt lat="45.08087" lon="6.4194">
        <ele>2242.2</ele>
        <time>2022-07-17T10:41:01Z</time>
      </trkpt>
      <trkpt lat="45.08087" lon="6.41937">
        <ele>2242.2</ele>
        <time>2022-07-17T10:41:02Z</time>
      </trkpt>
      <trkpt lat="45.08087" lon="6.41935">
        <ele>2242.6</ele>
        <time>2022-07-17T10:41:03Z</time>
      </trkpt>
      <trkpt lat="45.08086" lon="6.41932">
        <ele>2242.8</ele>
        <time>2022-07-17T10:41:04Z</time>
      </trkpt>
      <trkpt lat="45.08086" lon="6.41929">
        <ele>2242.8</ele>
        <time>2022-07-17T10:41:05Z</time>
      </trkpt>
      <trkpt lat="45.08086" lon="6.41927">
        <ele>2243.2</ele>
        <time>2022-07-17T10:41:06Z</time>
      </trkpt>
      <trkpt lat="45.08086" lon="6.41924">
        <ele>2243.4</ele>
        <time>2022-07-17T10:41:07Z</time>
      </trkpt>
      <trkpt lat="45.08086" lon="6.41922">
        <ele>2243.4</ele>
        <time>2022-07-17T10:41:08Z</time>
      </trkpt>
      <trkpt lat="45.08085" lon="6.41919">
        <ele>2243.8</ele>
        <time>2022-07-17T10:41:09Z</time>
      </trkpt>
      <trkpt lat="45.08085" lon="6.41914">
        <ele>2243.8</ele>
        <time>2022-07-17T10:41:10Z</time>
      </trkpt>
      <trkpt lat="45.08085" lon="6.41911">
        <ele>2244</ele>
        <time>2022-07-17T10:41:11Z</time>
      </trkpt>
      <trkpt lat="45.08085" lon="6.41908">
        <ele>2244</ele>
        <time>2022-07-17T10:41:12Z</time>
      </trkpt>
      <trkpt lat="45.08085" lon="6.41906">
        <ele>2244.2</ele>
        <time>2022-07-17T10:41:13Z</time>
      </trkpt>
      <trkpt lat="45.08085" lon="6.41903">
        <ele>2244.4</ele>
        <time>2022-07-17T10:41:14Z</time>
      </trkpt>
      <trkpt lat="45.08085" lon="6.41901">
        <ele>2244.4</ele>
        <time>2022-07-17T10:41:15Z</time>
      </trkpt>
      <trkpt lat="45.08085" lon="6.41898">
        <ele>2244.6</ele>
        <time>2022-07-17T10:41:16Z</time>
      </trkpt>
      <trkpt lat="45.08085" lon="6.41896">
        <ele>2244.6</ele>
        <time>2022-07-17T10:41:17Z</time>
      </trkpt>
      <trkpt lat="45.08085" lon="6.41893">
        <ele>2245</ele>
        <time>2022-07-17T10:41:18Z</time>
      </trkpt>
      <trkpt lat="45.08085" lon="6.41891">
        <ele>2245</ele>
        <time>2022-07-17T10:41:19Z</time>
      </trkpt>
      <trkpt lat="45.08085" lon="6.41889">
        <ele>2245.2</ele>
        <time>2022-07-17T10:41:20Z</time>
      </trkpt>
      <trkpt lat="45.08085" lon="6.41886">
        <ele>2245.2</ele>
        <time>2022-07-17T10:41:21Z</time>
      </trkpt>
      <trkpt lat="45.08085" lon="6.41883">
        <ele>2245.4</ele>
        <time>2022-07-17T10:41:22Z</time>
      </trkpt>
      <trkpt lat="45.08085" lon="6.41881">
        <ele>2245.4</ele>
        <time>2022-07-17T10:41:23Z</time>
      </trkpt>
      <trkpt lat="45.08085" lon="6.41878">
        <ele>2245.8</ele>
        <time>2022-07-17T10:41:24Z</time>
      </trkpt>
      <trkpt lat="45.08085" lon="6.41876">
        <ele>2245.8</ele>
        <time>2022-07-17T10:41:25Z</time>
      </trkpt>
      <trkpt lat="45.08085" lon="6.41873">
        <ele>2246.2</ele>
        <time>2022-07-17T10:41:26Z</time>
      </trkpt>
      <trkpt lat="45.08085" lon="6.41871">
        <ele>2246.2</ele>
        <time>2022-07-17T10:41:27Z</time>
      </trkpt>
      <trkpt lat="45.08085" lon="6.41869">
        <ele>2246.4</ele>
        <time>2022-07-17T10:41:28Z</time>
      </trkpt>
      <trkpt lat="45.08085" lon="6.41866">
        <ele>2246.4</ele>
        <time>2022-07-17T10:41:29Z</time>
      </trkpt>
      <trkpt lat="45.08085" lon="6.41863">
        <ele>2246.8</ele>
        <time>2022-07-17T10:41:30Z</time>
      </trkpt>
      <trkpt lat="45.08085" lon="6.41861">
        <ele>2246.8</ele>
        <time>2022-07-17T10:41:31Z</time>
      </trkpt>
      <trkpt lat="45.08085" lon="6.41858">
        <ele>2247</ele>
        <time>2022-07-17T10:41:32Z</time>
      </trkpt>
      <trkpt lat="45.08084" lon="6.41856">
        <ele>2247</ele>
        <time>2022-07-17T10:41:33Z</time>
      </trkpt>
      <trkpt lat="45.08084" lon="6.41853">
        <ele>2247.2</ele>
        <time>2022-07-17T10:41:34Z</time>
      </trkpt>
      <trkpt lat="45.08084" lon="6.4185">
        <ele>2247.2</ele>
        <time>2022-07-17T10:41:35Z</time>
      </trkpt>
      <trkpt lat="45.08084" lon="6.41848">
        <ele>2247.6</ele>
        <time>2022-07-17T10:41:36Z</time>
      </trkpt>
      <trkpt lat="45.08084" lon="6.41846">
        <ele>2247.6</ele>
        <time>2022-07-17T10:41:37Z</time>
      </trkpt>
      <trkpt lat="45.08084" lon="6.41843">
        <ele>2247.6</ele>
        <time>2022-07-17T10:41:38Z</time>
      </trkpt>
      <trkpt lat="45.08084" lon="6.41841">
        <ele>2247.8</ele>
        <time>2022-07-17T10:41:39Z</time>
      </trkpt>
      <trkpt lat="45.08084" lon="6.41838">
        <ele>2247.8</ele>
        <time>2022-07-17T10:41:40Z</time>
      </trkpt>
      <trkpt lat="45.08084" lon="6.41836">
        <ele>2248</ele>
        <time>2022-07-17T10:41:41Z</time>
      </trkpt>
      <trkpt lat="45.08084" lon="6.41833">
        <ele>2248</ele>
        <time>2022-07-17T10:41:42Z</time>
      </trkpt>
      <trkpt lat="45.08083" lon="6.41831">
        <ele>2248.2</ele>
        <time>2022-07-17T10:41:43Z</time>
      </trkpt>
      <trkpt lat="45.08083" lon="6.41828">
        <ele>2248.2</ele>
        <time>2022-07-17T10:41:44Z</time>
      </trkpt>
      <trkpt lat="45.08083" lon="6.41826">
        <ele>2248.6</ele>
        <time>2022-07-17T10:41:45Z</time>
      </trkpt>
      <trkpt lat="45.08083" lon="6.41823">
        <ele>2248.6</ele>
        <time>2022-07-17T10:41:46Z</time>
      </trkpt>
      <trkpt lat="45.08083" lon="6.41821">
        <ele>2249</ele>
        <time>2022-07-17T10:41:47Z</time>
      </trkpt>
      <trkpt lat="45.08083" lon="6.41819">
        <ele>2249</ele>
        <time>2022-07-17T10:41:48Z</time>
      </trkpt>
      <trkpt lat="45.08083" lon="6.41816">
        <ele>2249.4</ele>
        <time>2022-07-17T10:41:50Z</time>
      </trkpt>
      <trkpt lat="45.08083" lon="6.41814">
        <ele>2249.6</ele>
        <time>2022-07-17T10:41:51Z</time>
      </trkpt>
      <trkpt lat="45.08083" lon="6.41811">
        <ele>2249.6</ele>
        <time>2022-07-17T10:41:52Z</time>
      </trkpt>
      <trkpt lat="45.08083" lon="6.41809">
        <ele>2249.8</ele>
        <time>2022-07-17T10:41:53Z</time>
      </trkpt>
      <trkpt lat="45.08082" lon="6.41806">
        <ele>2249.8</ele>
        <time>2022-07-17T10:41:54Z</time>
      </trkpt>
      <trkpt lat="45.08082" lon="6.41804">
        <ele>2250.2</ele>
        <time>2022-07-17T10:41:55Z</time>
      </trkpt>
      <trkpt lat="45.08082" lon="6.41801">
        <ele>2250.2</ele>
        <time>2022-07-17T10:41:56Z</time>
      </trkpt>
      <trkpt lat="45.08082" lon="6.41799">
        <ele>2250.4</ele>
        <time>2022-07-17T10:41:57Z</time>
      </trkpt>
      <trkpt lat="45.08082" lon="6.41796">
        <ele>2250.4</ele>
        <time>2022-07-17T10:41:58Z</time>
      </trkpt>
      <trkpt lat="45.08082" lon="6.41794">
        <ele>2250.6</ele>
        <time>2022-07-17T10:41:59Z</time>
      </trkpt>
      <trkpt lat="45.08082" lon="6.41791">
        <ele>2250.6</ele>
        <time>2022-07-17T10:42:00Z</time>
      </trkpt>
      <trkpt lat="45.08081" lon="6.41789">
        <ele>2250.8</ele>
        <time>2022-07-17T10:42:01Z</time>
      </trkpt>
      <trkpt lat="45.08082" lon="6.41786">
        <ele>2250.8</ele>
        <time>2022-07-17T10:42:02Z</time>
      </trkpt>
      <trkpt lat="45.08082" lon="6.41783">
        <ele>2251</ele>
        <time>2022-07-17T10:42:03Z</time>
      </trkpt>
      <trkpt lat="45.08081" lon="6.41781">
        <ele>2251.2</ele>
        <time>2022-07-17T10:42:04Z</time>
      </trkpt>
      <trkpt lat="45.08081" lon="6.41778">
        <ele>2251.2</ele>
        <time>2022-07-17T10:42:05Z</time>
      </trkpt>
      <trkpt lat="45.08081" lon="6.41776">
        <ele>2251.6</ele>
        <time>2022-07-17T10:42:06Z</time>
      </trkpt>
      <trkpt lat="45.08081" lon="6.41773">
        <ele>2251.6</ele>
        <time>2022-07-17T10:42:07Z</time>
      </trkpt>
      <trkpt lat="45.08081" lon="6.41771">
        <ele>2252</ele>
        <time>2022-07-17T10:42:08Z</time>
      </trkpt>
      <trkpt lat="45.08081" lon="6.41769">
        <ele>2252</ele>
        <time>2022-07-17T10:42:09Z</time>
      </trkpt>
      <trkpt lat="45.08081" lon="6.41766">
        <ele>2252.2</ele>
        <time>2022-07-17T10:42:10Z</time>
      </trkpt>
      <trkpt lat="45.0808" lon="6.41764">
        <ele>2252.2</ele>
        <time>2022-07-17T10:42:11Z</time>
      </trkpt>
      <trkpt lat="45.0808" lon="6.41761">
        <ele>2252.6</ele>
        <time>2022-07-17T10:42:12Z</time>
      </trkpt>
      <trkpt lat="45.0808" lon="6.41759">
        <ele>2252.6</ele>
        <time>2022-07-17T10:42:13Z</time>
      </trkpt>
      <trkpt lat="45.0808" lon="6.41756">
        <ele>2252.8</ele>
        <time>2022-07-17T10:42:14Z</time>
      </trkpt>
      <trkpt lat="45.08079" lon="6.41753">
        <ele>2252.8</ele>
        <time>2022-07-17T10:42:15Z</time>
      </trkpt>
      <trkpt lat="45.08079" lon="6.41751">
        <ele>2253.2</ele>
        <time>2022-07-17T10:42:16Z</time>
      </trkpt>
      <trkpt lat="45.08079" lon="6.41748">
        <ele>2253.4</ele>
        <time>2022-07-17T10:42:17Z</time>
      </trkpt>
      <trkpt lat="45.08079" lon="6.41745">
        <ele>2253.4</ele>
        <time>2022-07-17T10:42:18Z</time>
      </trkpt>
      <trkpt lat="45.08078" lon="6.41743">
        <ele>2253.8</ele>
        <time>2022-07-17T10:42:19Z</time>
      </trkpt>
      <trkpt lat="45.08078" lon="6.4174">
        <ele>2253.8</ele>
        <time>2022-07-17T10:42:20Z</time>
      </trkpt>
      <trkpt lat="45.08077" lon="6.41738">
        <ele>2254</ele>
        <time>2022-07-17T10:42:21Z</time>
      </trkpt>
      <trkpt lat="45.08076" lon="6.41735">
        <ele>2254</ele>
        <time>2022-07-17T10:42:22Z</time>
      </trkpt>
      <trkpt lat="45.08076" lon="6.41733">
        <ele>2254.4</ele>
        <time>2022-07-17T10:42:23Z</time>
      </trkpt>
      <trkpt lat="45.08075" lon="6.4173">
        <ele>2254.4</ele>
        <time>2022-07-17T10:42:24Z</time>
      </trkpt>
      <trkpt lat="45.08074" lon="6.41728">
        <ele>2254.6</ele>
        <time>2022-07-17T10:42:25Z</time>
      </trkpt>
      <trkpt lat="45.08073" lon="6.41725">
        <ele>2254.6</ele>
        <time>2022-07-17T10:42:26Z</time>
      </trkpt>
      <trkpt lat="45.08073" lon="6.41723">
        <ele>2254.8</ele>
        <time>2022-07-17T10:42:27Z</time>
      </trkpt>
      <trkpt lat="45.08072" lon="6.41721">
        <ele>2254.8</ele>
        <time>2022-07-17T10:42:28Z</time>
      </trkpt>
      <trkpt lat="45.08071" lon="6.41719">
        <ele>2255</ele>
        <time>2022-07-17T10:42:29Z</time>
      </trkpt>
      <trkpt lat="45.0807" lon="6.41716">
        <ele>2255</ele>
        <time>2022-07-17T10:42:30Z</time>
      </trkpt>
      <trkpt lat="45.08068" lon="6.41714">
        <ele>2255.4</ele>
        <time>2022-07-17T10:42:31Z</time>
      </trkpt>
      <trkpt lat="45.08067" lon="6.41712">
        <ele>2255.4</ele>
        <time>2022-07-17T10:42:32Z</time>
      </trkpt>
      <trkpt lat="45.08066" lon="6.4171">
        <ele>2255.8</ele>
        <time>2022-07-17T10:42:33Z</time>
      </trkpt>
      <trkpt lat="45.08065" lon="6.41707">
        <ele>2255.8</ele>
        <time>2022-07-17T10:42:34Z</time>
      </trkpt>
      <trkpt lat="45.08064" lon="6.41705">
        <ele>2256</ele>
        <time>2022-07-17T10:42:35Z</time>
      </trkpt>
      <trkpt lat="45.08063" lon="6.41703">
        <ele>2256</ele>
        <time>2022-07-17T10:42:36Z</time>
      </trkpt>
      <trkpt lat="45.08062" lon="6.417">
        <ele>2256.2</ele>
        <time>2022-07-17T10:42:37Z</time>
      </trkpt>
      <trkpt lat="45.08061" lon="6.41698">
        <ele>2256.2</ele>
        <time>2022-07-17T10:42:38Z</time>
      </trkpt>
      <trkpt lat="45.08059" lon="6.41696">
        <ele>2256.6</ele>
        <time>2022-07-17T10:42:39Z</time>
      </trkpt>
      <trkpt lat="45.08058" lon="6.41694">
        <ele>2256.6</ele>
        <time>2022-07-17T10:42:40Z</time>
      </trkpt>
      <trkpt lat="45.08057" lon="6.41691">
        <ele>2257</ele>
        <time>2022-07-17T10:42:41Z</time>
      </trkpt>
      <trkpt lat="45.08056" lon="6.41689">
        <ele>2257</ele>
        <time>2022-07-17T10:42:42Z</time>
      </trkpt>
      <trkpt lat="45.08056" lon="6.41686">
        <ele>2257.2</ele>
        <time>2022-07-17T10:42:43Z</time>
      </trkpt>
      <trkpt lat="45.08054" lon="6.41684">
        <ele>2257.2</ele>
        <time>2022-07-17T10:42:44Z</time>
      </trkpt>
      <trkpt lat="45.08053" lon="6.41683">
        <ele>2257.4</ele>
        <time>2022-07-17T10:42:45Z</time>
      </trkpt>
      <trkpt lat="45.08052" lon="6.41681">
        <ele>2257.4</ele>
        <time>2022-07-17T10:42:46Z</time>
      </trkpt>
      <trkpt lat="45.08051" lon="6.41679">
        <ele>2257.8</ele>
        <time>2022-07-17T10:42:47Z</time>
      </trkpt>
      <trkpt lat="45.0805" lon="6.41677">
        <ele>2257.8</ele>
        <time>2022-07-17T10:42:48Z</time>
      </trkpt>
      <trkpt lat="45.08048" lon="6.41675">
        <ele>2258.2</ele>
        <time>2022-07-17T10:42:49Z</time>
      </trkpt>
      <trkpt lat="45.08047" lon="6.41674">
        <ele>2258.2</ele>
        <time>2022-07-17T10:42:50Z</time>
      </trkpt>
      <trkpt lat="45.08046" lon="6.41672">
        <ele>2258.6</ele>
        <time>2022-07-17T10:42:51Z</time>
      </trkpt>
      <trkpt lat="45.08044" lon="6.4167">
        <ele>2258.6</ele>
        <time>2022-07-17T10:42:52Z</time>
      </trkpt>
      <trkpt lat="45.08043" lon="6.41669">
        <ele>2258.8</ele>
        <time>2022-07-17T10:42:53Z</time>
      </trkpt>
      <trkpt lat="45.08041" lon="6.41667">
        <ele>2258.8</ele>
        <time>2022-07-17T10:42:54Z</time>
      </trkpt>
      <trkpt lat="45.0804" lon="6.41666">
        <ele>2259</ele>
        <time>2022-07-17T10:42:55Z</time>
      </trkpt>
      <trkpt lat="45.08038" lon="6.41665">
        <ele>2259</ele>
        <time>2022-07-17T10:42:56Z</time>
      </trkpt>
      <trkpt lat="45.08036" lon="6.41664">
        <ele>2259.4</ele>
        <time>2022-07-17T10:42:57Z</time>
      </trkpt>
      <trkpt lat="45.08035" lon="6.41662">
        <ele>2259.4</ele>
        <time>2022-07-17T10:42:58Z</time>
      </trkpt>
      <trkpt lat="45.08033" lon="6.41661">
        <ele>2259.6</ele>
        <time>2022-07-17T10:42:59Z</time>
      </trkpt>
      <trkpt lat="45.08032" lon="6.4166">
        <ele>2259.6</ele>
        <time>2022-07-17T10:43:00Z</time>
      </trkpt>
      <trkpt lat="45.0803" lon="6.41659">
        <ele>2260</ele>
        <time>2022-07-17T10:43:01Z</time>
      </trkpt>
      <trkpt lat="45.08029" lon="6.41658">
        <ele>2260.2</ele>
        <time>2022-07-17T10:43:02Z</time>
      </trkpt>
      <trkpt lat="45.08027" lon="6.41656">
        <ele>2260.2</ele>
        <time>2022-07-17T10:43:03Z</time>
      </trkpt>
      <trkpt lat="45.08025" lon="6.41655">
        <ele>2260.2</ele>
        <time>2022-07-17T10:43:04Z</time>
      </trkpt>
      <trkpt lat="45.08024" lon="6.41654">
        <ele>2260.4</ele>
        <time>2022-07-17T10:43:05Z</time>
      </trkpt>
      <trkpt lat="45.08022" lon="6.41653">
        <ele>2260.4</ele>
        <time>2022-07-17T10:43:06Z</time>
      </trkpt>
      <trkpt lat="45.0802" lon="6.41652">
        <ele>2260.6</ele>
        <time>2022-07-17T10:43:07Z</time>
      </trkpt>
      <trkpt lat="45.08019" lon="6.41651">
        <ele>2260.6</ele>
        <time>2022-07-17T10:43:08Z</time>
      </trkpt>
      <trkpt lat="45.08017" lon="6.4165">
        <ele>2261</ele>
        <time>2022-07-17T10:43:09Z</time>
      </trkpt>
      <trkpt lat="45.08016" lon="6.41649">
        <ele>2261</ele>
        <time>2022-07-17T10:43:10Z</time>
      </trkpt>
      <trkpt lat="45.08014" lon="6.41648">
        <ele>2261.2</ele>
        <time>2022-07-17T10:43:11Z</time>
      </trkpt>
      <trkpt lat="45.08012" lon="6.41647">
        <ele>2261.2</ele>
        <time>2022-07-17T10:43:12Z</time>
      </trkpt>
      <trkpt lat="45.0801" lon="6.41646">
        <ele>2261.2</ele>
        <time>2022-07-17T10:43:13Z</time>
      </trkpt>
      <trkpt lat="45.08009" lon="6.41644">
        <ele>2261.6</ele>
        <time>2022-07-17T10:43:14Z</time>
      </trkpt>
      <trkpt lat="45.08007" lon="6.41643">
        <ele>2261.6</ele>
        <time>2022-07-17T10:43:15Z</time>
      </trkpt>
      <trkpt lat="45.08005" lon="6.41642">
        <ele>2261.6</ele>
        <time>2022-07-17T10:43:16Z</time>
      </trkpt>
      <trkpt lat="45.08004" lon="6.41641">
        <ele>2262</ele>
        <time>2022-07-17T10:43:17Z</time>
      </trkpt>
      <trkpt lat="45.08002" lon="6.4164">
        <ele>2262</ele>
        <time>2022-07-17T10:43:18Z</time>
      </trkpt>
      <trkpt lat="45.08" lon="6.41639">
        <ele>2262</ele>
        <time>2022-07-17T10:43:19Z</time>
      </trkpt>
      <trkpt lat="45.07999" lon="6.41639">
        <ele>2262.2</ele>
        <time>2022-07-17T10:43:20Z</time>
      </trkpt>
      <trkpt lat="45.07997" lon="6.41637">
        <ele>2262.2</ele>
        <time>2022-07-17T10:43:21Z</time>
      </trkpt>
      <trkpt lat="45.07995" lon="6.41636">
        <ele>2262.4</ele>
        <time>2022-07-17T10:43:22Z</time>
      </trkpt>
      <trkpt lat="45.07994" lon="6.41635">
        <ele>2262.4</ele>
        <time>2022-07-17T10:43:23Z</time>
      </trkpt>
      <trkpt lat="45.07992" lon="6.41634">
        <ele>2262.8</ele>
        <time>2022-07-17T10:43:24Z</time>
      </trkpt>
      <trkpt lat="45.07991" lon="6.41632">
        <ele>2262.8</ele>
        <time>2022-07-17T10:43:25Z</time>
      </trkpt>
      <trkpt lat="45.07989" lon="6.41631">
        <ele>2263</ele>
        <time>2022-07-17T10:43:26Z</time>
      </trkpt>
      <trkpt lat="45.07987" lon="6.4163">
        <ele>2263</ele>
        <time>2022-07-17T10:43:27Z</time>
      </trkpt>
      <trkpt lat="45.07986" lon="6.41629">
        <ele>2263.4</ele>
        <time>2022-07-17T10:43:28Z</time>
      </trkpt>
      <trkpt lat="45.07984" lon="6.41628">
        <ele>2263.6</ele>
        <time>2022-07-17T10:43:29Z</time>
      </trkpt>
      <trkpt lat="45.07982" lon="6.41627">
        <ele>2263.6</ele>
        <time>2022-07-17T10:43:30Z</time>
      </trkpt>
      <trkpt lat="45.07981" lon="6.41626">
        <ele>2264</ele>
        <time>2022-07-17T10:43:31Z</time>
      </trkpt>
      <trkpt lat="45.07979" lon="6.41625">
        <ele>2264</ele>
        <time>2022-07-17T10:43:32Z</time>
      </trkpt>
      <trkpt lat="45.07978" lon="6.41624">
        <ele>2264.2</ele>
        <time>2022-07-17T10:43:33Z</time>
      </trkpt>
      <trkpt lat="45.07976" lon="6.41623">
        <ele>2264.4</ele>
        <time>2022-07-17T10:43:34Z</time>
      </trkpt>
      <trkpt lat="45.07974" lon="6.41621">
        <ele>2264.4</ele>
        <time>2022-07-17T10:43:35Z</time>
      </trkpt>
      <trkpt lat="45.07973" lon="6.4162">
        <ele>2264.8</ele>
        <time>2022-07-17T10:43:36Z</time>
      </trkpt>
      <trkpt lat="45.07971" lon="6.41619">
        <ele>2264.8</ele>
        <time>2022-07-17T10:43:37Z</time>
      </trkpt>
      <trkpt lat="45.07969" lon="6.41618">
        <ele>2265</ele>
        <time>2022-07-17T10:43:38Z</time>
      </trkpt>
      <trkpt lat="45.07968" lon="6.41617">
        <ele>2265</ele>
        <time>2022-07-17T10:43:39Z</time>
      </trkpt>
      <trkpt lat="45.07966" lon="6.41616">
        <ele>2265.4</ele>
        <time>2022-07-17T10:43:40Z</time>
      </trkpt>
      <trkpt lat="45.07965" lon="6.41615">
        <ele>2265.6</ele>
        <time>2022-07-17T10:43:41Z</time>
      </trkpt>
      <trkpt lat="45.07963" lon="6.41613">
        <ele>2265.6</ele>
        <time>2022-07-17T10:43:42Z</time>
      </trkpt>
      <trkpt lat="45.07962" lon="6.41612">
        <ele>2266</ele>
        <time>2022-07-17T10:43:43Z</time>
      </trkpt>
      <trkpt lat="45.0796" lon="6.4161">
        <ele>2266</ele>
        <time>2022-07-17T10:43:44Z</time>
      </trkpt>
      <trkpt lat="45.07959" lon="6.41608">
        <ele>2266.4</ele>
        <time>2022-07-17T10:43:45Z</time>
      </trkpt>
      <trkpt lat="45.07958" lon="6.41606">
        <ele>2266.4</ele>
        <time>2022-07-17T10:43:46Z</time>
      </trkpt>
      <trkpt lat="45.07957" lon="6.41604">
        <ele>2266.6</ele>
        <time>2022-07-17T10:43:47Z</time>
      </trkpt>
      <trkpt lat="45.07956" lon="6.41602">
        <ele>2266.6</ele>
        <time>2022-07-17T10:43:48Z</time>
      </trkpt>
      <trkpt lat="45.07955" lon="6.416">
        <ele>2267</ele>
        <time>2022-07-17T10:43:49Z</time>
      </trkpt>
      <trkpt lat="45.07954" lon="6.41597">
        <ele>2267.2</ele>
        <time>2022-07-17T10:43:50Z</time>
      </trkpt>
      <trkpt lat="45.07953" lon="6.41595">
        <ele>2267.4</ele>
        <time>2022-07-17T10:43:51Z</time>
      </trkpt>
      <trkpt lat="45.07951" lon="6.41593">
        <ele>2267.4</ele>
        <time>2022-07-17T10:43:52Z</time>
      </trkpt>
      <trkpt lat="45.0795" lon="6.41591">
        <ele>2267.8</ele>
        <time>2022-07-17T10:43:53Z</time>
      </trkpt>
      <trkpt lat="45.07949" lon="6.41589">
        <ele>2267.8</ele>
        <time>2022-07-17T10:43:54Z</time>
      </trkpt>
      <trkpt lat="45.07948" lon="6.41587">
        <ele>2268</ele>
        <time>2022-07-17T10:43:55Z</time>
      </trkpt>
      <trkpt lat="45.07947" lon="6.41585">
        <ele>2268</ele>
        <time>2022-07-17T10:43:56Z</time>
      </trkpt>
      <trkpt lat="45.07946" lon="6.41583">
        <ele>2268.4</ele>
        <time>2022-07-17T10:43:57Z</time>
      </trkpt>
      <trkpt lat="45.07945" lon="6.41581">
        <ele>2268.4</ele>
        <time>2022-07-17T10:43:58Z</time>
      </trkpt>
      <trkpt lat="45.07944" lon="6.41579">
        <ele>2268.6</ele>
        <time>2022-07-17T10:43:59Z</time>
      </trkpt>
      <trkpt lat="45.07943" lon="6.41577">
        <ele>2268.8</ele>
        <time>2022-07-17T10:44:00Z</time>
      </trkpt>
      <trkpt lat="45.07942" lon="6.41575">
        <ele>2268.8</ele>
        <time>2022-07-17T10:44:01Z</time>
      </trkpt>
      <trkpt lat="45.07941" lon="6.41574">
        <ele>2269</ele>
        <time>2022-07-17T10:44:02Z</time>
      </trkpt>
      <trkpt lat="45.07939" lon="6.41572">
        <ele>2269</ele>
        <time>2022-07-17T10:44:03Z</time>
      </trkpt>
      <trkpt lat="45.07938" lon="6.4157">
        <ele>2269.2</ele>
        <time>2022-07-17T10:44:04Z</time>
      </trkpt>
      <trkpt lat="45.07937" lon="6.41568">
        <ele>2269.2</ele>
        <time>2022-07-17T10:44:05Z</time>
      </trkpt>
      <trkpt lat="45.07936" lon="6.41565">
        <ele>2269.6</ele>
        <time>2022-07-17T10:44:06Z</time>
      </trkpt>
      <trkpt lat="45.07935" lon="6.41563">
        <ele>2269.6</ele>
        <time>2022-07-17T10:44:07Z</time>
      </trkpt>
      <trkpt lat="45.07934" lon="6.41561">
        <ele>2270</ele>
        <time>2022-07-17T10:44:08Z</time>
      </trkpt>
      <trkpt lat="45.07933" lon="6.41559">
        <ele>2270.2</ele>
        <time>2022-07-17T10:44:09Z</time>
      </trkpt>
      <trkpt lat="45.07932" lon="6.41556">
        <ele>2270.2</ele>
        <time>2022-07-17T10:44:10Z</time>
      </trkpt>
      <trkpt lat="45.07931" lon="6.41554">
        <ele>2270.6</ele>
        <time>2022-07-17T10:44:11Z</time>
      </trkpt>
      <trkpt lat="45.0793" lon="6.41552">
        <ele>2270.6</ele>
        <time>2022-07-17T10:44:12Z</time>
      </trkpt>
      <trkpt lat="45.07929" lon="6.4155">
        <ele>2270.8</ele>
        <time>2022-07-17T10:44:13Z</time>
      </trkpt>
      <trkpt lat="45.07929" lon="6.41548">
        <ele>2270.8</ele>
        <time>2022-07-17T10:44:14Z</time>
      </trkpt>
      <trkpt lat="45.07928" lon="6.41547">
        <ele>2271</ele>
        <time>2022-07-17T10:44:15Z</time>
      </trkpt>
      <trkpt lat="45.07927" lon="6.41544">
        <ele>2271</ele>
        <time>2022-07-17T10:44:16Z</time>
      </trkpt>
      <trkpt lat="45.07927" lon="6.41542">
        <ele>2271.2</ele>
        <time>2022-07-17T10:44:17Z</time>
      </trkpt>
      <trkpt lat="45.07926" lon="6.41539">
        <ele>2271.2</ele>
        <time>2022-07-17T10:44:18Z</time>
      </trkpt>
      <trkpt lat="45.07926" lon="6.41536">
        <ele>2271.6</ele>
        <time>2022-07-17T10:44:19Z</time>
      </trkpt>
      <trkpt lat="45.07925" lon="6.41534">
        <ele>2271.8</ele>
        <time>2022-07-17T10:44:20Z</time>
      </trkpt>
      <trkpt lat="45.07925" lon="6.41532">
        <ele>2271.8</ele>
        <time>2022-07-17T10:44:21Z</time>
      </trkpt>
      <trkpt lat="45.07924" lon="6.41529">
        <ele>2272</ele>
        <time>2022-07-17T10:44:22Z</time>
      </trkpt>
      <trkpt lat="45.07924" lon="6.41526">
        <ele>2272</ele>
        <time>2022-07-17T10:44:23Z</time>
      </trkpt>
      <trkpt lat="45.07924" lon="6.41524">
        <ele>2272.4</ele>
        <time>2022-07-17T10:44:24Z</time>
      </trkpt>
      <trkpt lat="45.07923" lon="6.41521">
        <ele>2272.4</ele>
        <time>2022-07-17T10:44:25Z</time>
      </trkpt>
      <trkpt lat="45.07923" lon="6.41519">
        <ele>2272.6</ele>
        <time>2022-07-17T10:44:26Z</time>
      </trkpt>
      <trkpt lat="45.07923" lon="6.41516">
        <ele>2272.6</ele>
        <time>2022-07-17T10:44:27Z</time>
      </trkpt>
      <trkpt lat="45.07922" lon="6.41514">
        <ele>2273</ele>
        <time>2022-07-17T10:44:28Z</time>
      </trkpt>
      <trkpt lat="45.07922" lon="6.41511">
        <ele>2273.2</ele>
        <time>2022-07-17T10:44:29Z</time>
      </trkpt>
      <trkpt lat="45.07922" lon="6.41508">
        <ele>2273.4</ele>
        <time>2022-07-17T10:44:30Z</time>
      </trkpt>
      <trkpt lat="45.07922" lon="6.41506">
        <ele>2273.6</ele>
        <time>2022-07-17T10:44:31Z</time>
      </trkpt>
      <trkpt lat="45.07921" lon="6.41503">
        <ele>2273.6</ele>
        <time>2022-07-17T10:44:32Z</time>
      </trkpt>
      <trkpt lat="45.07921" lon="6.415">
        <ele>2274</ele>
        <time>2022-07-17T10:44:33Z</time>
      </trkpt>
      <trkpt lat="45.07921" lon="6.41498">
        <ele>2274</ele>
        <time>2022-07-17T10:44:34Z</time>
      </trkpt>
      <trkpt lat="45.0792" lon="6.41495">
        <ele>2274.2</ele>
        <time>2022-07-17T10:44:35Z</time>
      </trkpt>
      <trkpt lat="45.0792" lon="6.41493">
        <ele>2274.2</ele>
        <time>2022-07-17T10:44:36Z</time>
      </trkpt>
      <trkpt lat="45.07919" lon="6.4149">
        <ele>2274.4</ele>
        <time>2022-07-17T10:44:37Z</time>
      </trkpt>
      <trkpt lat="45.07919" lon="6.41488">
        <ele>2274.4</ele>
        <time>2022-07-17T10:44:38Z</time>
      </trkpt>
      <trkpt lat="45.07918" lon="6.41485">
        <ele>2274.8</ele>
        <time>2022-07-17T10:44:39Z</time>
      </trkpt>
      <trkpt lat="45.07918" lon="6.41483">
        <ele>2274.8</ele>
        <time>2022-07-17T10:44:40Z</time>
      </trkpt>
      <trkpt lat="45.07917" lon="6.4148">
        <ele>2275.2</ele>
        <time>2022-07-17T10:44:41Z</time>
      </trkpt>
      <trkpt lat="45.07916" lon="6.41478">
        <ele>2275.2</ele>
        <time>2022-07-17T10:44:42Z</time>
      </trkpt>
      <trkpt lat="45.07915" lon="6.41476">
        <ele>2275.6</ele>
        <time>2022-07-17T10:44:43Z</time>
      </trkpt>
      <trkpt lat="45.07914" lon="6.41474">
        <ele>2275.6</ele>
        <time>2022-07-17T10:44:44Z</time>
      </trkpt>
      <trkpt lat="45.07913" lon="6.41472">
        <ele>2275.8</ele>
        <time>2022-07-17T10:44:45Z</time>
      </trkpt>
      <trkpt lat="45.07912" lon="6.4147">
        <ele>2275.8</ele>
        <time>2022-07-17T10:44:46Z</time>
      </trkpt>
      <trkpt lat="45.07911" lon="6.41468">
        <ele>2276.2</ele>
        <time>2022-07-17T10:44:47Z</time>
      </trkpt>
      <trkpt lat="45.0791" lon="6.41465">
        <ele>2276.2</ele>
        <time>2022-07-17T10:44:48Z</time>
      </trkpt>
      <trkpt lat="45.07909" lon="6.41463">
        <ele>2276.4</ele>
        <time>2022-07-17T10:44:49Z</time>
      </trkpt>
      <trkpt lat="45.07908" lon="6.41461">
        <ele>2276.4</ele>
        <time>2022-07-17T10:44:50Z</time>
      </trkpt>
      <trkpt lat="45.07907" lon="6.41459">
        <ele>2276.8</ele>
        <time>2022-07-17T10:44:51Z</time>
      </trkpt>
      <trkpt lat="45.07906" lon="6.41457">
        <ele>2276.8</ele>
        <time>2022-07-17T10:44:52Z</time>
      </trkpt>
      <trkpt lat="45.07905" lon="6.41455">
        <ele>2277</ele>
        <time>2022-07-17T10:44:53Z</time>
      </trkpt>
      <trkpt lat="45.07904" lon="6.41454">
        <ele>2277</ele>
        <time>2022-07-17T10:44:54Z</time>
      </trkpt>
      <trkpt lat="45.07903" lon="6.41452">
        <ele>2277.2</ele>
        <time>2022-07-17T10:44:55Z</time>
      </trkpt>
      <trkpt lat="45.07902" lon="6.4145">
        <ele>2277.2</ele>
        <time>2022-07-17T10:44:56Z</time>
      </trkpt>
      <trkpt lat="45.07901" lon="6.41448">
        <ele>2277.6</ele>
        <time>2022-07-17T10:44:57Z</time>
      </trkpt>
      <trkpt lat="45.079" lon="6.41446">
        <ele>2277.6</ele>
        <time>2022-07-17T10:44:58Z</time>
      </trkpt>
      <trkpt lat="45.07899" lon="6.41444">
        <ele>2277.8</ele>
        <time>2022-07-17T10:44:59Z</time>
      </trkpt>
      <trkpt lat="45.07898" lon="6.41442">
        <ele>2278</ele>
        <time>2022-07-17T10:45:00Z</time>
      </trkpt>
      <trkpt lat="45.07897" lon="6.4144">
        <ele>2278</ele>
        <time>2022-07-17T10:45:01Z</time>
      </trkpt>
      <trkpt lat="45.07896" lon="6.41439">
        <ele>2278.4</ele>
        <time>2022-07-17T10:45:02Z</time>
      </trkpt>
      <trkpt lat="45.07894" lon="6.41437">
        <ele>2278.4</ele>
        <time>2022-07-17T10:45:03Z</time>
      </trkpt>
      <trkpt lat="45.07893" lon="6.41435">
        <ele>2278.6</ele>
        <time>2022-07-17T10:45:04Z</time>
      </trkpt>
      <trkpt lat="45.07892" lon="6.41433">
        <ele>2278.6</ele>
        <time>2022-07-17T10:45:05Z</time>
      </trkpt>
      <trkpt lat="45.07891" lon="6.41431">
        <ele>2278.8</ele>
        <time>2022-07-17T10:45:06Z</time>
      </trkpt>
      <trkpt lat="45.0789" lon="6.41429">
        <ele>2278.8</ele>
        <time>2022-07-17T10:45:07Z</time>
      </trkpt>
      <trkpt lat="45.07889" lon="6.41427">
        <ele>2279</ele>
        <time>2022-07-17T10:45:08Z</time>
      </trkpt>
      <trkpt lat="45.07888" lon="6.41425">
        <ele>2279</ele>
        <time>2022-07-17T10:45:09Z</time>
      </trkpt>
      <trkpt lat="45.07887" lon="6.41423">
        <ele>2279.4</ele>
        <time>2022-07-17T10:45:10Z</time>
      </trkpt>
      <trkpt lat="45.07886" lon="6.41422">
        <ele>2279.4</ele>
        <time>2022-07-17T10:45:11Z</time>
      </trkpt>
      <trkpt lat="45.07885" lon="6.4142">
        <ele>2279.6</ele>
        <time>2022-07-17T10:45:12Z</time>
      </trkpt>
      <trkpt lat="45.07883" lon="6.41418">
        <ele>2279.6</ele>
        <time>2022-07-17T10:45:13Z</time>
      </trkpt>
      <trkpt lat="45.07882" lon="6.41416">
        <ele>2279.8</ele>
        <time>2022-07-17T10:45:14Z</time>
      </trkpt>
      <trkpt lat="45.07881" lon="6.41414">
        <ele>2279.8</ele>
        <time>2022-07-17T10:45:15Z</time>
      </trkpt>
      <trkpt lat="45.0788" lon="6.41413">
        <ele>2280</ele>
        <time>2022-07-17T10:45:16Z</time>
      </trkpt>
      <trkpt lat="45.07878" lon="6.41412">
        <ele>2280</ele>
        <time>2022-07-17T10:45:17Z</time>
      </trkpt>
      <trkpt lat="45.07877" lon="6.4141">
        <ele>2280.4</ele>
        <time>2022-07-17T10:45:18Z</time>
      </trkpt>
      <trkpt lat="45.07875" lon="6.41409">
        <ele>2280.4</ele>
        <time>2022-07-17T10:45:19Z</time>
      </trkpt>
      <trkpt lat="45.07874" lon="6.41408">
        <ele>2280.4</ele>
        <time>2022-07-17T10:45:20Z</time>
      </trkpt>
      <trkpt lat="45.07873" lon="6.41406">
        <ele>2280.8</ele>
        <time>2022-07-17T10:45:21Z</time>
      </trkpt>
      <trkpt lat="45.07871" lon="6.41405">
        <ele>2280.8</ele>
        <time>2022-07-17T10:45:22Z</time>
      </trkpt>
      <trkpt lat="45.0787" lon="6.41403">
        <ele>2281</ele>
        <time>2022-07-17T10:45:23Z</time>
      </trkpt>
      <trkpt lat="45.07868" lon="6.41402">
        <ele>2281</ele>
        <time>2022-07-17T10:45:24Z</time>
      </trkpt>
      <trkpt lat="45.07867" lon="6.41401">
        <ele>2281.4</ele>
        <time>2022-07-17T10:45:25Z</time>
      </trkpt>
      <trkpt lat="45.07865" lon="6.41399">
        <ele>2281.4</ele>
        <time>2022-07-17T10:45:26Z</time>
      </trkpt>
      <trkpt lat="45.07864" lon="6.41398">
        <ele>2281.6</ele>
        <time>2022-07-17T10:45:27Z</time>
      </trkpt>
      <trkpt lat="45.07862" lon="6.41397">
        <ele>2281.6</ele>
        <time>2022-07-17T10:45:28Z</time>
      </trkpt>
      <trkpt lat="45.0786" lon="6.41395">
        <ele>2281.6</ele>
        <time>2022-07-17T10:45:29Z</time>
      </trkpt>
      <trkpt lat="45.07859" lon="6.41394">
        <ele>2281.8</ele>
        <time>2022-07-17T10:45:30Z</time>
      </trkpt>
      <trkpt lat="45.07857" lon="6.41393">
        <ele>2281.8</ele>
        <time>2022-07-17T10:45:31Z</time>
      </trkpt>
      <trkpt lat="45.07855" lon="6.41391">
        <ele>2282.2</ele>
        <time>2022-07-17T10:45:32Z</time>
      </trkpt>
      <trkpt lat="45.07854" lon="6.4139">
        <ele>2282.2</ele>
        <time>2022-07-17T10:45:33Z</time>
      </trkpt>
      <trkpt lat="45.07852" lon="6.41389">
        <ele>2282.4</ele>
        <time>2022-07-17T10:45:34Z</time>
      </trkpt>
      <trkpt lat="45.07851" lon="6.41387">
        <ele>2282.4</ele>
        <time>2022-07-17T10:45:35Z</time>
      </trkpt>
      <trkpt lat="45.07849" lon="6.41386">
        <ele>2282.8</ele>
        <time>2022-07-17T10:45:36Z</time>
      </trkpt>
      <trkpt lat="45.07848" lon="6.41385">
        <ele>2282.8</ele>
        <time>2022-07-17T10:45:37Z</time>
      </trkpt>
      <trkpt lat="45.07846" lon="6.41383">
        <ele>2283</ele>
        <time>2022-07-17T10:45:38Z</time>
      </trkpt>
      <trkpt lat="45.07844" lon="6.41382">
        <ele>2283</ele>
        <time>2022-07-17T10:45:39Z</time>
      </trkpt>
      <trkpt lat="45.07843" lon="6.41381">
        <ele>2283.2</ele>
        <time>2022-07-17T10:45:40Z</time>
      </trkpt>
      <trkpt lat="45.07841" lon="6.41379">
        <ele>2283.4</ele>
        <time>2022-07-17T10:45:41Z</time>
      </trkpt>
      <trkpt lat="45.0784" lon="6.41378">
        <ele>2283.8</ele>
        <time>2022-07-17T10:45:42Z</time>
      </trkpt>
      <trkpt lat="45.07838" lon="6.41376">
        <ele>2283.8</ele>
        <time>2022-07-17T10:45:43Z</time>
      </trkpt>
      <trkpt lat="45.07836" lon="6.41375">
        <ele>2284</ele>
        <time>2022-07-17T10:45:44Z</time>
      </trkpt>
      <trkpt lat="45.07835" lon="6.41374">
        <ele>2284</ele>
        <time>2022-07-17T10:45:45Z</time>
      </trkpt>
      <trkpt lat="45.07833" lon="6.41372">
        <ele>2284.4</ele>
        <time>2022-07-17T10:45:46Z</time>
      </trkpt>
      <trkpt lat="45.07832" lon="6.41371">
        <ele>2284.4</ele>
        <time>2022-07-17T10:45:47Z</time>
      </trkpt>
      <trkpt lat="45.0783" lon="6.4137">
        <ele>2284.6</ele>
        <time>2022-07-17T10:45:48Z</time>
      </trkpt>
      <trkpt lat="45.07828" lon="6.41369">
        <ele>2284.6</ele>
        <time>2022-07-17T10:45:49Z</time>
      </trkpt>
      <trkpt lat="45.07826" lon="6.41367">
        <ele>2284.8</ele>
        <time>2022-07-17T10:45:50Z</time>
      </trkpt>
      <trkpt lat="45.07825" lon="6.41365">
        <ele>2284.8</ele>
        <time>2022-07-17T10:45:51Z</time>
      </trkpt>
      <trkpt lat="45.07823" lon="6.41364">
        <ele>2285.2</ele>
        <time>2022-07-17T10:45:52Z</time>
      </trkpt>
      <trkpt lat="45.07822" lon="6.41363">
        <ele>2285.2</ele>
        <time>2022-07-17T10:45:53Z</time>
      </trkpt>
      <trkpt lat="45.0782" lon="6.41361">
        <ele>2285.4</ele>
        <time>2022-07-17T10:45:54Z</time>
      </trkpt>
      <trkpt lat="45.07818" lon="6.4136">
        <ele>2285.4</ele>
        <time>2022-07-17T10:45:55Z</time>
      </trkpt>
      <trkpt lat="45.07817" lon="6.41359">
        <ele>2285.8</ele>
        <time>2022-07-17T10:45:56Z</time>
      </trkpt>
      <trkpt lat="45.07815" lon="6.41358">
        <ele>2285.8</ele>
        <time>2022-07-17T10:45:57Z</time>
      </trkpt>
      <trkpt lat="45.07813" lon="6.41356">
        <ele>2286</ele>
        <time>2022-07-17T10:45:58Z</time>
      </trkpt>
      <trkpt lat="45.07812" lon="6.41355">
        <ele>2286</ele>
        <time>2022-07-17T10:45:59Z</time>
      </trkpt>
      <trkpt lat="45.0781" lon="6.41354">
        <ele>2286.2</ele>
        <time>2022-07-17T10:46:00Z</time>
      </trkpt>
      <trkpt lat="45.07809" lon="6.41352">
        <ele>2286.2</ele>
        <time>2022-07-17T10:46:01Z</time>
      </trkpt>
      <trkpt lat="45.07807" lon="6.41351">
        <ele>2286.6</ele>
        <time>2022-07-17T10:46:02Z</time>
      </trkpt>
      <trkpt lat="45.07806" lon="6.4135">
        <ele>2286.6</ele>
        <time>2022-07-17T10:46:03Z</time>
      </trkpt>
      <trkpt lat="45.07804" lon="6.41348">
        <ele>2286.8</ele>
        <time>2022-07-17T10:46:04Z</time>
      </trkpt>
      <trkpt lat="45.07803" lon="6.41347">
        <ele>2286.8</ele>
        <time>2022-07-17T10:46:05Z</time>
      </trkpt>
      <trkpt lat="45.07801" lon="6.41346">
        <ele>2286.8</ele>
        <time>2022-07-17T10:46:06Z</time>
      </trkpt>
      <trkpt lat="45.078" lon="6.41344">
        <ele>2287</ele>
        <time>2022-07-17T10:46:07Z</time>
      </trkpt>
      <trkpt lat="45.07798" lon="6.41342">
        <ele>2287</ele>
        <time>2022-07-17T10:46:08Z</time>
      </trkpt>
      <trkpt lat="45.07796" lon="6.41341">
        <ele>2287</ele>
        <time>2022-07-17T10:46:09Z</time>
      </trkpt>
      <trkpt lat="45.07795" lon="6.4134">
        <ele>2287.4</ele>
        <time>2022-07-17T10:46:10Z</time>
      </trkpt>
      <trkpt lat="45.07793" lon="6.41338">
        <ele>2287.4</ele>
        <time>2022-07-17T10:46:11Z</time>
      </trkpt>
      <trkpt lat="45.07792" lon="6.41337">
        <ele>2287.6</ele>
        <time>2022-07-17T10:46:12Z</time>
      </trkpt>
      <trkpt lat="45.0779" lon="6.41336">
        <ele>2287.6</ele>
        <time>2022-07-17T10:46:13Z</time>
      </trkpt>
      <trkpt lat="45.07788" lon="6.41335">
        <ele>2288</ele>
        <time>2022-07-17T10:46:14Z</time>
      </trkpt>
      <trkpt lat="45.07787" lon="6.41334">
        <ele>2288</ele>
        <time>2022-07-17T10:46:15Z</time>
      </trkpt>
      <trkpt lat="45.07785" lon="6.41333">
        <ele>2288</ele>
        <time>2022-07-17T10:46:16Z</time>
      </trkpt>
      <trkpt lat="45.07784" lon="6.41332">
        <ele>2288.2</ele>
        <time>2022-07-17T10:46:17Z</time>
      </trkpt>
      <trkpt lat="45.07782" lon="6.4133">
        <ele>2288.2</ele>
        <time>2022-07-17T10:46:18Z</time>
      </trkpt>
      <trkpt lat="45.07781" lon="6.41329">
        <ele>2288.6</ele>
        <time>2022-07-17T10:46:19Z</time>
      </trkpt>
      <trkpt lat="45.07779" lon="6.41328">
        <ele>2288.6</ele>
        <time>2022-07-17T10:46:20Z</time>
      </trkpt>
      <trkpt lat="45.07778" lon="6.41326">
        <ele>2288.8</ele>
        <time>2022-07-17T10:46:21Z</time>
      </trkpt>
      <trkpt lat="45.07776" lon="6.41325">
        <ele>2288.8</ele>
        <time>2022-07-17T10:46:22Z</time>
      </trkpt>
      <trkpt lat="45.07774" lon="6.41324">
        <ele>2289.2</ele>
        <time>2022-07-17T10:46:23Z</time>
      </trkpt>
      <trkpt lat="45.07773" lon="6.41323">
        <ele>2289.2</ele>
        <time>2022-07-17T10:46:24Z</time>
      </trkpt>
      <trkpt lat="45.07771" lon="6.41321">
        <ele>2289.4</ele>
        <time>2022-07-17T10:46:25Z</time>
      </trkpt>
      <trkpt lat="45.0777" lon="6.4132">
        <ele>2289.4</ele>
        <time>2022-07-17T10:46:26Z</time>
      </trkpt>
      <trkpt lat="45.07768" lon="6.41319">
        <ele>2289.8</ele>
        <time>2022-07-17T10:46:27Z</time>
      </trkpt>
      <trkpt lat="45.07767" lon="6.41317">
        <ele>2289.8</ele>
        <time>2022-07-17T10:46:28Z</time>
      </trkpt>
      <trkpt lat="45.07765" lon="6.41316">
        <ele>2290</ele>
        <time>2022-07-17T10:46:29Z</time>
      </trkpt>
      <trkpt lat="45.07764" lon="6.41314">
        <ele>2290</ele>
        <time>2022-07-17T10:46:30Z</time>
      </trkpt>
      <trkpt lat="45.07762" lon="6.41313">
        <ele>2290.4</ele>
        <time>2022-07-17T10:46:31Z</time>
      </trkpt>
      <trkpt lat="45.07761" lon="6.41311">
        <ele>2290.4</ele>
        <time>2022-07-17T10:46:32Z</time>
      </trkpt>
      <trkpt lat="45.07759" lon="6.4131">
        <ele>2290.4</ele>
        <time>2022-07-17T10:46:33Z</time>
      </trkpt>
      <trkpt lat="45.07758" lon="6.41308">
        <ele>2290.8</ele>
        <time>2022-07-17T10:46:34Z</time>
      </trkpt>
      <trkpt lat="45.07756" lon="6.41306">
        <ele>2290.8</ele>
        <time>2022-07-17T10:46:35Z</time>
      </trkpt>
      <trkpt lat="45.07755" lon="6.41305">
        <ele>2291</ele>
        <time>2022-07-17T10:46:36Z</time>
      </trkpt>
      <trkpt lat="45.07753" lon="6.41303">
        <ele>2291.2</ele>
        <time>2022-07-17T10:46:37Z</time>
      </trkpt>
      <trkpt lat="45.07752" lon="6.41301">
        <ele>2291.2</ele>
        <time>2022-07-17T10:46:38Z</time>
      </trkpt>
      <trkpt lat="45.07751" lon="6.413">
        <ele>2291.2</ele>
        <time>2022-07-17T10:46:39Z</time>
      </trkpt>
      <trkpt lat="45.07749" lon="6.41298">
        <ele>2291.6</ele>
        <time>2022-07-17T10:46:40Z</time>
      </trkpt>
      <trkpt lat="45.07748" lon="6.41296">
        <ele>2291.6</ele>
        <time>2022-07-17T10:46:41Z</time>
      </trkpt>
      <trkpt lat="45.07746" lon="6.41294">
        <ele>2291.6</ele>
        <time>2022-07-17T10:46:42Z</time>
      </trkpt>
      <trkpt lat="45.07745" lon="6.41292">
        <ele>2291.8</ele>
        <time>2022-07-17T10:46:43Z</time>
      </trkpt>
      <trkpt lat="45.07744" lon="6.41291">
        <ele>2291.8</ele>
        <time>2022-07-17T10:46:44Z</time>
      </trkpt>
      <trkpt lat="45.07742" lon="6.41289">
        <ele>2292</ele>
        <time>2022-07-17T10:46:45Z</time>
      </trkpt>
      <trkpt lat="45.07741" lon="6.41287">
        <ele>2292</ele>
        <time>2022-07-17T10:46:46Z</time>
      </trkpt>
      <trkpt lat="45.0774" lon="6.41285">
        <ele>2292.2</ele>
        <time>2022-07-17T10:46:47Z</time>
      </trkpt>
      <trkpt lat="45.07739" lon="6.41283">
        <ele>2292.2</ele>
        <time>2022-07-17T10:46:48Z</time>
      </trkpt>
      <trkpt lat="45.07737" lon="6.41281">
        <ele>2292.4</ele>
        <time>2022-07-17T10:46:49Z</time>
      </trkpt>
      <trkpt lat="45.07736" lon="6.4128">
        <ele>2292.4</ele>
        <time>2022-07-17T10:46:50Z</time>
      </trkpt>
      <trkpt lat="45.07735" lon="6.41278">
        <ele>2292.8</ele>
        <time>2022-07-17T10:46:51Z</time>
      </trkpt>
      <trkpt lat="45.07733" lon="6.41276">
        <ele>2292.8</ele>
        <time>2022-07-17T10:46:52Z</time>
      </trkpt>
      <trkpt lat="45.07732" lon="6.41274">
        <ele>2293</ele>
        <time>2022-07-17T10:46:53Z</time>
      </trkpt>
      <trkpt lat="45.07731" lon="6.41272">
        <ele>2293</ele>
        <time>2022-07-17T10:46:54Z</time>
      </trkpt>
      <trkpt lat="45.07729" lon="6.41271">
        <ele>2293.4</ele>
        <time>2022-07-17T10:46:55Z</time>
      </trkpt>
      <trkpt lat="45.07728" lon="6.41269">
        <ele>2293.4</ele>
        <time>2022-07-17T10:46:56Z</time>
      </trkpt>
      <trkpt lat="45.07726" lon="6.41268">
        <ele>2293.6</ele>
        <time>2022-07-17T10:46:57Z</time>
      </trkpt>
      <trkpt lat="45.07725" lon="6.41266">
        <ele>2293.6</ele>
        <time>2022-07-17T10:46:58Z</time>
      </trkpt>
      <trkpt lat="45.07723" lon="6.41265">
        <ele>2293.8</ele>
        <time>2022-07-17T10:46:59Z</time>
      </trkpt>
      <trkpt lat="45.07722" lon="6.41263">
        <ele>2293.8</ele>
        <time>2022-07-17T10:47:00Z</time>
      </trkpt>
      <trkpt lat="45.0772" lon="6.41261">
        <ele>2293.8</ele>
        <time>2022-07-17T10:47:01Z</time>
      </trkpt>
      <trkpt lat="45.07719" lon="6.4126">
        <ele>2294.2</ele>
        <time>2022-07-17T10:47:02Z</time>
      </trkpt>
      <trkpt lat="45.07717" lon="6.41259">
        <ele>2294.2</ele>
        <time>2022-07-17T10:47:03Z</time>
      </trkpt>
      <trkpt lat="45.07716" lon="6.41257">
        <ele>2294.2</ele>
        <time>2022-07-17T10:47:04Z</time>
      </trkpt>
      <trkpt lat="45.07714" lon="6.41256">
        <ele>2294.4</ele>
        <time>2022-07-17T10:47:05Z</time>
      </trkpt>
      <trkpt lat="45.07713" lon="6.41255">
        <ele>2294.4</ele>
        <time>2022-07-17T10:47:06Z</time>
      </trkpt>
      <trkpt lat="45.07711" lon="6.41253">
        <ele>2294.8</ele>
        <time>2022-07-17T10:47:07Z</time>
      </trkpt>
      <trkpt lat="45.0771" lon="6.41252">
        <ele>2294.8</ele>
        <time>2022-07-17T10:47:08Z</time>
      </trkpt>
      <trkpt lat="45.07708" lon="6.4125">
        <ele>2295</ele>
        <time>2022-07-17T10:47:09Z</time>
      </trkpt>
      <trkpt lat="45.07707" lon="6.41249">
        <ele>2295</ele>
        <time>2022-07-17T10:47:10Z</time>
      </trkpt>
      <trkpt lat="45.07705" lon="6.41248">
        <ele>2295.2</ele>
        <time>2022-07-17T10:47:11Z</time>
      </trkpt>
      <trkpt lat="45.07703" lon="6.41247">
        <ele>2295.2</ele>
        <time>2022-07-17T10:47:12Z</time>
      </trkpt>
      <trkpt lat="45.07701" lon="6.41245">
        <ele>2295.2</ele>
        <time>2022-07-17T10:47:13Z</time>
      </trkpt>
      <trkpt lat="45.077" lon="6.41244">
        <ele>2295.6</ele>
        <time>2022-07-17T10:47:14Z</time>
      </trkpt>
      <trkpt lat="45.07698" lon="6.41242">
        <ele>2295.6</ele>
        <time>2022-07-17T10:47:15Z</time>
      </trkpt>
      <trkpt lat="45.07697" lon="6.41241">
        <ele>2295.8</ele>
        <time>2022-07-17T10:47:16Z</time>
      </trkpt>
      <trkpt lat="45.07695" lon="6.4124">
        <ele>2295.8</ele>
        <time>2022-07-17T10:47:17Z</time>
      </trkpt>
      <trkpt lat="45.07694" lon="6.41238">
        <ele>2296</ele>
        <time>2022-07-17T10:47:18Z</time>
      </trkpt>
      <trkpt lat="45.07692" lon="6.41237">
        <ele>2296</ele>
        <time>2022-07-17T10:47:19Z</time>
      </trkpt>
      <trkpt lat="45.07691" lon="6.41235">
        <ele>2296.2</ele>
        <time>2022-07-17T10:47:20Z</time>
      </trkpt>
      <trkpt lat="45.07689" lon="6.41234">
        <ele>2296.2</ele>
        <time>2022-07-17T10:47:21Z</time>
      </trkpt>
      <trkpt lat="45.07688" lon="6.41233">
        <ele>2296.6</ele>
        <time>2022-07-17T10:47:22Z</time>
      </trkpt>
      <trkpt lat="45.07686" lon="6.41231">
        <ele>2296.6</ele>
        <time>2022-07-17T10:47:23Z</time>
      </trkpt>
      <trkpt lat="45.07685" lon="6.4123">
        <ele>2296.8</ele>
        <time>2022-07-17T10:47:24Z</time>
      </trkpt>
      <trkpt lat="45.07683" lon="6.41229">
        <ele>2296.8</ele>
        <time>2022-07-17T10:47:25Z</time>
      </trkpt>
      <trkpt lat="45.07682" lon="6.41227">
        <ele>2297</ele>
        <time>2022-07-17T10:47:26Z</time>
      </trkpt>
      <trkpt lat="45.0768" lon="6.41226">
        <ele>2297</ele>
        <time>2022-07-17T10:47:27Z</time>
      </trkpt>
      <trkpt lat="45.07679" lon="6.41225">
        <ele>2297</ele>
        <time>2022-07-17T10:47:28Z</time>
      </trkpt>
      <trkpt lat="45.07677" lon="6.41223">
        <ele>2297.4</ele>
        <time>2022-07-17T10:47:29Z</time>
      </trkpt>
      <trkpt lat="45.07676" lon="6.41221">
        <ele>2297.4</ele>
        <time>2022-07-17T10:47:30Z</time>
      </trkpt>
      <trkpt lat="45.07674" lon="6.4122">
        <ele>2297.6</ele>
        <time>2022-07-17T10:47:31Z</time>
      </trkpt>
      <trkpt lat="45.07673" lon="6.41218">
        <ele>2297.8</ele>
        <time>2022-07-17T10:47:32Z</time>
      </trkpt>
      <trkpt lat="45.07671" lon="6.41217">
        <ele>2297.8</ele>
        <time>2022-07-17T10:47:33Z</time>
      </trkpt>
      <trkpt lat="45.0767" lon="6.41215">
        <ele>2298.2</ele>
        <time>2022-07-17T10:47:34Z</time>
      </trkpt>
      <trkpt lat="45.07668" lon="6.41214">
        <ele>2298.2</ele>
        <time>2022-07-17T10:47:35Z</time>
      </trkpt>
      <trkpt lat="45.07667" lon="6.41213">
        <ele>2298.4</ele>
        <time>2022-07-17T10:47:36Z</time>
      </trkpt>
      <trkpt lat="45.07665" lon="6.41212">
        <ele>2298.4</ele>
        <time>2022-07-17T10:47:37Z</time>
      </trkpt>
      <trkpt lat="45.07663" lon="6.4121">
        <ele>2298.4</ele>
        <time>2022-07-17T10:47:38Z</time>
      </trkpt>
      <trkpt lat="45.07662" lon="6.41209">
        <ele>2298.8</ele>
        <time>2022-07-17T10:47:39Z</time>
      </trkpt>
      <trkpt lat="45.0766" lon="6.41207">
        <ele>2298.8</ele>
        <time>2022-07-17T10:47:40Z</time>
      </trkpt>
      <trkpt lat="45.07658" lon="6.41206">
        <ele>2299.2</ele>
        <time>2022-07-17T10:47:41Z</time>
      </trkpt>
      <trkpt lat="45.07657" lon="6.41205">
        <ele>2299.2</ele>
        <time>2022-07-17T10:47:42Z</time>
      </trkpt>
      <trkpt lat="45.07655" lon="6.41204">
        <ele>2299.4</ele>
        <time>2022-07-17T10:47:43Z</time>
      </trkpt>
      <trkpt lat="45.07653" lon="6.41203">
        <ele>2299.4</ele>
        <time>2022-07-17T10:47:44Z</time>
      </trkpt>
      <trkpt lat="45.07652" lon="6.41202">
        <ele>2299.8</ele>
        <time>2022-07-17T10:47:45Z</time>
      </trkpt>
      <trkpt lat="45.0765" lon="6.41201">
        <ele>2299.8</ele>
        <time>2022-07-17T10:47:46Z</time>
      </trkpt>
      <trkpt lat="45.07648" lon="6.41199">
        <ele>2300</ele>
        <time>2022-07-17T10:47:47Z</time>
      </trkpt>
      <trkpt lat="45.07647" lon="6.41198">
        <ele>2300.4</ele>
        <time>2022-07-17T10:47:48Z</time>
      </trkpt>
      <trkpt lat="45.07645" lon="6.41197">
        <ele>2300.4</ele>
        <time>2022-07-17T10:47:49Z</time>
      </trkpt>
      <trkpt lat="45.07644" lon="6.41196">
        <ele>2300.6</ele>
        <time>2022-07-17T10:47:50Z</time>
      </trkpt>
      <trkpt lat="45.07642" lon="6.41195">
        <ele>2300.8</ele>
        <time>2022-07-17T10:47:51Z</time>
      </trkpt>
      <trkpt lat="45.0764" lon="6.41194">
        <ele>2301.2</ele>
        <time>2022-07-17T10:47:52Z</time>
      </trkpt>
      <trkpt lat="45.07639" lon="6.41193">
        <ele>2301.2</ele>
        <time>2022-07-17T10:47:53Z</time>
      </trkpt>
      <trkpt lat="45.07637" lon="6.41192">
        <ele>2301.4</ele>
        <time>2022-07-17T10:47:54Z</time>
      </trkpt>
      <trkpt lat="45.07636" lon="6.41191">
        <ele>2301.4</ele>
        <time>2022-07-17T10:47:55Z</time>
      </trkpt>
      <trkpt lat="45.07634" lon="6.4119">
        <ele>2301.6</ele>
        <time>2022-07-17T10:47:56Z</time>
      </trkpt>
      <trkpt lat="45.07633" lon="6.4119">
        <ele>2301.6</ele>
        <time>2022-07-17T10:47:57Z</time>
      </trkpt>
      <trkpt lat="45.07631" lon="6.41189">
        <ele>2301.6</ele>
        <time>2022-07-17T10:47:58Z</time>
      </trkpt>
      <trkpt lat="45.0763" lon="6.41188">
        <ele>2302</ele>
        <time>2022-07-17T10:47:59Z</time>
      </trkpt>
      <trkpt lat="45.07628" lon="6.41187">
        <ele>2302</ele>
        <time>2022-07-17T10:48:00Z</time>
      </trkpt>
      <trkpt lat="45.07627" lon="6.41186">
        <ele>2302.2</ele>
        <time>2022-07-17T10:48:01Z</time>
      </trkpt>
      <trkpt lat="45.07625" lon="6.41186">
        <ele>2302.2</ele>
        <time>2022-07-17T10:48:02Z</time>
      </trkpt>
      <trkpt lat="45.07624" lon="6.41185">
        <ele>2302.2</ele>
        <time>2022-07-17T10:48:03Z</time>
      </trkpt>
      <trkpt lat="45.07622" lon="6.41185">
        <ele>2302.6</ele>
        <time>2022-07-17T10:48:04Z</time>
      </trkpt>
      <trkpt lat="45.0762" lon="6.41185">
        <ele>2302.6</ele>
        <time>2022-07-17T10:48:05Z</time>
      </trkpt>
      <trkpt lat="45.07618" lon="6.41184">
        <ele>2302.8</ele>
        <time>2022-07-17T10:48:06Z</time>
      </trkpt>
      <trkpt lat="45.07616" lon="6.41184">
        <ele>2302.8</ele>
        <time>2022-07-17T10:48:07Z</time>
      </trkpt>
      <trkpt lat="45.07615" lon="6.41184">
        <ele>2303.2</ele>
        <time>2022-07-17T10:48:08Z</time>
      </trkpt>
      <trkpt lat="45.07614" lon="6.41183">
        <ele>2303.4</ele>
        <time>2022-07-17T10:48:09Z</time>
      </trkpt>
      <trkpt lat="45.07614" lon="6.41184">
        <ele>2303.6</ele>
        <time>2022-07-17T10:48:11Z</time>
      </trkpt>
      <trkpt lat="45.07609" lon="6.41189">
        <ele>2304.4</ele>
        <time>2022-07-17T10:53:03Z</time>
      </trkpt>
      <trkpt lat="45.07608" lon="6.4119">
        <ele>2304.4</ele>
        <time>2022-07-17T10:53:04Z</time>
      </trkpt>
      <trkpt lat="45.07607" lon="6.41192">
        <ele>2304.4</ele>
        <time>2022-07-17T10:53:05Z</time>
      </trkpt>
      <trkpt lat="45.07605" lon="6.41193">
        <ele>2304.4</ele>
        <time>2022-07-17T10:53:06Z</time>
      </trkpt>
      <trkpt lat="45.07604" lon="6.41194">
        <ele>2304.4</ele>
        <time>2022-07-17T10:53:07Z</time>
      </trkpt>
      <trkpt lat="45.07603" lon="6.41196">
        <ele>2304.6</ele>
        <time>2022-07-17T10:53:08Z</time>
      </trkpt>
      <trkpt lat="45.07602" lon="6.41198">
        <ele>2304.6</ele>
        <time>2022-07-17T10:53:09Z</time>
      </trkpt>
      <trkpt lat="45.07601" lon="6.412">
        <ele>2304.8</ele>
        <time>2022-07-17T10:53:10Z</time>
      </trkpt>
      <trkpt lat="45.076" lon="6.41201">
        <ele>2304.8</ele>
        <time>2022-07-17T10:53:11Z</time>
      </trkpt>
      <trkpt lat="45.07599" lon="6.41203">
        <ele>2305.2</ele>
        <time>2022-07-17T10:53:12Z</time>
      </trkpt>
      <trkpt lat="45.07598" lon="6.41206">
        <ele>2305.2</ele>
        <time>2022-07-17T10:53:13Z</time>
      </trkpt>
      <trkpt lat="45.07597" lon="6.41208">
        <ele>2305.6</ele>
        <time>2022-07-17T10:53:14Z</time>
      </trkpt>
      <trkpt lat="45.07597" lon="6.4121">
        <ele>2305.8</ele>
        <time>2022-07-17T10:53:15Z</time>
      </trkpt>
      <trkpt lat="45.07596" lon="6.41212">
        <ele>2305.8</ele>
        <time>2022-07-17T10:53:16Z</time>
      </trkpt>
      <trkpt lat="45.07596" lon="6.41214">
        <ele>2305.8</ele>
        <time>2022-07-17T10:53:17Z</time>
      </trkpt>
      <trkpt lat="45.07596" lon="6.41217">
        <ele>2306</ele>
        <time>2022-07-17T10:53:18Z</time>
      </trkpt>
      <trkpt lat="45.07596" lon="6.41219">
        <ele>2306</ele>
        <time>2022-07-17T10:53:19Z</time>
      </trkpt>
      <trkpt lat="45.07596" lon="6.41222">
        <ele>2306.4</ele>
        <time>2022-07-17T10:53:20Z</time>
      </trkpt>
      <trkpt lat="45.07596" lon="6.41225">
        <ele>2306.4</ele>
        <time>2022-07-17T10:53:21Z</time>
      </trkpt>
      <trkpt lat="45.07596" lon="6.41227">
        <ele>2306.6</ele>
        <time>2022-07-17T10:53:22Z</time>
      </trkpt>
      <trkpt lat="45.07596" lon="6.4123">
        <ele>2306.6</ele>
        <time>2022-07-17T10:53:23Z</time>
      </trkpt>
      <trkpt lat="45.07596" lon="6.41232">
        <ele>2307</ele>
        <time>2022-07-17T10:53:24Z</time>
      </trkpt>
      <trkpt lat="45.07596" lon="6.41233">
        <ele>2307</ele>
        <time>2022-07-17T10:53:25Z</time>
      </trkpt>
      <trkpt lat="45.07596" lon="6.41235">
        <ele>2307.2</ele>
        <time>2022-07-17T10:53:27Z</time>
      </trkpt>
      <trkpt lat="45.07596" lon="6.41238">
        <ele>2307.4</ele>
        <time>2022-07-17T10:53:28Z</time>
      </trkpt>
      <trkpt lat="45.07596" lon="6.4124">
        <ele>2307.4</ele>
        <time>2022-07-17T10:53:29Z</time>
      </trkpt>
      <trkpt lat="45.07595" lon="6.41243">
        <ele>2307.8</ele>
        <time>2022-07-17T10:53:30Z</time>
      </trkpt>
      <trkpt lat="45.07594" lon="6.41245">
        <ele>2307.8</ele>
        <time>2022-07-17T10:53:31Z</time>
      </trkpt>
      <trkpt lat="45.07594" lon="6.41247">
        <ele>2308</ele>
        <time>2022-07-17T10:53:32Z</time>
      </trkpt>
      <trkpt lat="45.07593" lon="6.41249">
        <ele>2308</ele>
        <time>2022-07-17T10:53:33Z</time>
      </trkpt>
      <trkpt lat="45.07592" lon="6.41251">
        <ele>2308.4</ele>
        <time>2022-07-17T10:53:34Z</time>
      </trkpt>
      <trkpt lat="45.07591" lon="6.41253">
        <ele>2308.4</ele>
        <time>2022-07-17T10:53:35Z</time>
      </trkpt>
      <trkpt lat="45.0759" lon="6.41255">
        <ele>2308.8</ele>
        <time>2022-07-17T10:53:36Z</time>
      </trkpt>
      <trkpt lat="45.07589" lon="6.41257">
        <ele>2308.8</ele>
        <time>2022-07-17T10:53:37Z</time>
      </trkpt>
      <trkpt lat="45.07587" lon="6.41259">
        <ele>2309</ele>
        <time>2022-07-17T10:53:38Z</time>
      </trkpt>
      <trkpt lat="45.07586" lon="6.4126">
        <ele>2309</ele>
        <time>2022-07-17T10:53:39Z</time>
      </trkpt>
      <trkpt lat="45.07585" lon="6.41262">
        <ele>2309.2</ele>
        <time>2022-07-17T10:53:40Z</time>
      </trkpt>
      <trkpt lat="45.07583" lon="6.41264">
        <ele>2309.2</ele>
        <time>2022-07-17T10:53:41Z</time>
      </trkpt>
      <trkpt lat="45.07581" lon="6.41265">
        <ele>2309.6</ele>
        <time>2022-07-17T10:53:42Z</time>
      </trkpt>
      <trkpt lat="45.0758" lon="6.41267">
        <ele>2309.6</ele>
        <time>2022-07-17T10:53:43Z</time>
      </trkpt>
      <trkpt lat="45.07578" lon="6.41268">
        <ele>2310</ele>
        <time>2022-07-17T10:53:44Z</time>
      </trkpt>
      <trkpt lat="45.07577" lon="6.4127">
        <ele>2310</ele>
        <time>2022-07-17T10:53:45Z</time>
      </trkpt>
      <trkpt lat="45.07575" lon="6.41271">
        <ele>2310.2</ele>
        <time>2022-07-17T10:53:46Z</time>
      </trkpt>
      <trkpt lat="45.07574" lon="6.41273">
        <ele>2310.2</ele>
        <time>2022-07-17T10:53:47Z</time>
      </trkpt>
      <trkpt lat="45.07572" lon="6.41274">
        <ele>2310.2</ele>
        <time>2022-07-17T10:53:48Z</time>
      </trkpt>
      <trkpt lat="45.07571" lon="6.41275">
        <ele>2310.6</ele>
        <time>2022-07-17T10:53:49Z</time>
      </trkpt>
      <trkpt lat="45.07569" lon="6.41276">
        <ele>2310.6</ele>
        <time>2022-07-17T10:53:50Z</time>
      </trkpt>
      <trkpt lat="45.07567" lon="6.41276">
        <ele>2310.8</ele>
        <time>2022-07-17T10:53:51Z</time>
      </trkpt>
      <trkpt lat="45.07566" lon="6.41277">
        <ele>2311.2</ele>
        <time>2022-07-17T10:53:52Z</time>
      </trkpt>
      <trkpt lat="45.07564" lon="6.41278">
        <ele>2311.2</ele>
        <time>2022-07-17T10:53:53Z</time>
      </trkpt>
      <trkpt lat="45.07563" lon="6.41279">
        <ele>2311.4</ele>
        <time>2022-07-17T10:53:54Z</time>
      </trkpt>
      <trkpt lat="45.07561" lon="6.41281">
        <ele>2311.6</ele>
        <time>2022-07-17T10:53:55Z</time>
      </trkpt>
      <trkpt lat="45.0756" lon="6.41282">
        <ele>2311.6</ele>
        <time>2022-07-17T10:53:56Z</time>
      </trkpt>
      <trkpt lat="45.07558" lon="6.41283">
        <ele>2311.6</ele>
        <time>2022-07-17T10:53:57Z</time>
      </trkpt>
      <trkpt lat="45.07556" lon="6.41284">
        <ele>2312</ele>
        <time>2022-07-17T10:53:58Z</time>
      </trkpt>
      <trkpt lat="45.07555" lon="6.41285">
        <ele>2312</ele>
        <time>2022-07-17T10:53:59Z</time>
      </trkpt>
      <trkpt lat="45.07553" lon="6.41286">
        <ele>2312.2</ele>
        <time>2022-07-17T10:54:00Z</time>
      </trkpt>
      <trkpt lat="45.07552" lon="6.41287">
        <ele>2312.2</ele>
        <time>2022-07-17T10:54:01Z</time>
      </trkpt>
      <trkpt lat="45.0755" lon="6.41288">
        <ele>2312.4</ele>
        <time>2022-07-17T10:54:02Z</time>
      </trkpt>
      <trkpt lat="45.07549" lon="6.4129">
        <ele>2312.4</ele>
        <time>2022-07-17T10:54:03Z</time>
      </trkpt>
      <trkpt lat="45.07547" lon="6.41291">
        <ele>2312.8</ele>
        <time>2022-07-17T10:54:04Z</time>
      </trkpt>
      <trkpt lat="45.07545" lon="6.41292">
        <ele>2312.8</ele>
        <time>2022-07-17T10:54:05Z</time>
      </trkpt>
      <trkpt lat="45.07544" lon="6.41293">
        <ele>2313</ele>
        <time>2022-07-17T10:54:06Z</time>
      </trkpt>
      <trkpt lat="45.07542" lon="6.41294">
        <ele>2313</ele>
        <time>2022-07-17T10:54:07Z</time>
      </trkpt>
      <trkpt lat="45.07541" lon="6.41295">
        <ele>2313.4</ele>
        <time>2022-07-17T10:54:08Z</time>
      </trkpt>
      <trkpt lat="45.0754" lon="6.41297">
        <ele>2313.4</ele>
        <time>2022-07-17T10:54:09Z</time>
      </trkpt>
      <trkpt lat="45.07538" lon="6.41298">
        <ele>2313.4</ele>
        <time>2022-07-17T10:54:10Z</time>
      </trkpt>
      <trkpt lat="45.07537" lon="6.41299">
        <ele>2313.6</ele>
        <time>2022-07-17T10:54:11Z</time>
      </trkpt>
      <trkpt lat="45.07535" lon="6.413">
        <ele>2313.6</ele>
        <time>2022-07-17T10:54:12Z</time>
      </trkpt>
      <trkpt lat="45.07533" lon="6.41302">
        <ele>2314</ele>
        <time>2022-07-17T10:54:13Z</time>
      </trkpt>
      <trkpt lat="45.07532" lon="6.41303">
        <ele>2314</ele>
        <time>2022-07-17T10:54:14Z</time>
      </trkpt>
      <trkpt lat="45.0753" lon="6.41304">
        <ele>2314.2</ele>
        <time>2022-07-17T10:54:15Z</time>
      </trkpt>
      <trkpt lat="45.07529" lon="6.41305">
        <ele>2314.2</ele>
        <time>2022-07-17T10:54:16Z</time>
      </trkpt>
      <trkpt lat="45.07527" lon="6.41306">
        <ele>2314.2</ele>
        <time>2022-07-17T10:54:17Z</time>
      </trkpt>
      <trkpt lat="45.07525" lon="6.41307">
        <ele>2314.6</ele>
        <time>2022-07-17T10:54:18Z</time>
      </trkpt>
      <trkpt lat="45.07524" lon="6.41309">
        <ele>2314.6</ele>
        <time>2022-07-17T10:54:19Z</time>
      </trkpt>
      <trkpt lat="45.07522" lon="6.4131">
        <ele>2314.8</ele>
        <time>2022-07-17T10:54:20Z</time>
      </trkpt>
      <trkpt lat="45.07521" lon="6.41311">
        <ele>2314.8</ele>
        <time>2022-07-17T10:54:21Z</time>
      </trkpt>
      <trkpt lat="45.07519" lon="6.41312">
        <ele>2315.2</ele>
        <time>2022-07-17T10:54:22Z</time>
      </trkpt>
      <trkpt lat="45.07517" lon="6.41313">
        <ele>2315.2</ele>
        <time>2022-07-17T10:54:23Z</time>
      </trkpt>
      <trkpt lat="45.07516" lon="6.41314">
        <ele>2315.6</ele>
        <time>2022-07-17T10:54:24Z</time>
      </trkpt>
      <trkpt lat="45.07514" lon="6.41315">
        <ele>2315.6</ele>
        <time>2022-07-17T10:54:25Z</time>
      </trkpt>
      <trkpt lat="45.07513" lon="6.41316">
        <ele>2315.8</ele>
        <time>2022-07-17T10:54:26Z</time>
      </trkpt>
      <trkpt lat="45.07511" lon="6.41317">
        <ele>2316</ele>
        <time>2022-07-17T10:54:27Z</time>
      </trkpt>
      <trkpt lat="45.0751" lon="6.41318">
        <ele>2316</ele>
        <time>2022-07-17T10:54:28Z</time>
      </trkpt>
      <trkpt lat="45.07508" lon="6.41319">
        <ele>2316.4</ele>
        <time>2022-07-17T10:54:29Z</time>
      </trkpt>
      <trkpt lat="45.07507" lon="6.4132">
        <ele>2316.4</ele>
        <time>2022-07-17T10:54:30Z</time>
      </trkpt>
      <trkpt lat="45.07505" lon="6.41321">
        <ele>2316.6</ele>
        <time>2022-07-17T10:54:31Z</time>
      </trkpt>
      <trkpt lat="45.07503" lon="6.41322">
        <ele>2317</ele>
        <time>2022-07-17T10:54:32Z</time>
      </trkpt>
      <trkpt lat="45.07502" lon="6.41322">
        <ele>2317</ele>
        <time>2022-07-17T10:54:33Z</time>
      </trkpt>
      <trkpt lat="45.075" lon="6.41323">
        <ele>2317.2</ele>
        <time>2022-07-17T10:54:34Z</time>
      </trkpt>
      <trkpt lat="45.07498" lon="6.41323">
        <ele>2317.2</ele>
        <time>2022-07-17T10:54:35Z</time>
      </trkpt>
      <trkpt lat="45.07497" lon="6.41324">
        <ele>2317.4</ele>
        <time>2022-07-17T10:54:36Z</time>
      </trkpt>
      <trkpt lat="45.07495" lon="6.41324">
        <ele>2317.4</ele>
        <time>2022-07-17T10:54:37Z</time>
      </trkpt>
      <trkpt lat="45.07494" lon="6.41324">
        <ele>2317.8</ele>
        <time>2022-07-17T10:54:38Z</time>
      </trkpt>
      <trkpt lat="45.07492" lon="6.41325">
        <ele>2318</ele>
        <time>2022-07-17T10:54:39Z</time>
      </trkpt>
      <trkpt lat="45.0749" lon="6.41325">
        <ele>2318</ele>
        <time>2022-07-17T10:54:40Z</time>
      </trkpt>
      <trkpt lat="45.07489" lon="6.41325">
        <ele>2318.2</ele>
        <time>2022-07-17T10:54:41Z</time>
      </trkpt>
      <trkpt lat="45.07487" lon="6.41325">
        <ele>2318.2</ele>
        <time>2022-07-17T10:54:42Z</time>
      </trkpt>
      <trkpt lat="45.07486" lon="6.41325">
        <ele>2318.6</ele>
        <time>2022-07-17T10:54:43Z</time>
      </trkpt>
      <trkpt lat="45.07484" lon="6.41326">
        <ele>2318.6</ele>
        <time>2022-07-17T10:54:44Z</time>
      </trkpt>
      <trkpt lat="45.07482" lon="6.41326">
        <ele>2318.8</ele>
        <time>2022-07-17T10:54:45Z</time>
      </trkpt>
      <trkpt lat="45.07481" lon="6.41326">
        <ele>2318.8</ele>
        <time>2022-07-17T10:54:46Z</time>
      </trkpt>
      <trkpt lat="45.07479" lon="6.41326">
        <ele>2319.2</ele>
        <time>2022-07-17T10:54:47Z</time>
      </trkpt>
      <trkpt lat="45.07477" lon="6.41326">
        <ele>2319.2</ele>
        <time>2022-07-17T10:54:48Z</time>
      </trkpt>
      <trkpt lat="45.07475" lon="6.41326">
        <ele>2319.4</ele>
        <time>2022-07-17T10:54:49Z</time>
      </trkpt>
      <trkpt lat="45.07474" lon="6.41326">
        <ele>2319.4</ele>
        <time>2022-07-17T10:54:50Z</time>
      </trkpt>
      <trkpt lat="45.07472" lon="6.41327">
        <ele>2319.6</ele>
        <time>2022-07-17T10:54:51Z</time>
      </trkpt>
      <trkpt lat="45.0747" lon="6.41327">
        <ele>2319.6</ele>
        <time>2022-07-17T10:54:52Z</time>
      </trkpt>
      <trkpt lat="45.07469" lon="6.41327">
        <ele>2320</ele>
        <time>2022-07-17T10:54:53Z</time>
      </trkpt>
      <trkpt lat="45.07467" lon="6.41327">
        <ele>2320</ele>
        <time>2022-07-17T10:54:54Z</time>
      </trkpt>
      <trkpt lat="45.07465" lon="6.41327">
        <ele>2320.2</ele>
        <time>2022-07-17T10:54:55Z</time>
      </trkpt>
      <trkpt lat="45.07464" lon="6.41327">
        <ele>2320.2</ele>
        <time>2022-07-17T10:54:56Z</time>
      </trkpt>
      <trkpt lat="45.07462" lon="6.41328">
        <ele>2320.6</ele>
        <time>2022-07-17T10:54:57Z</time>
      </trkpt>
      <trkpt lat="45.0746" lon="6.41328">
        <ele>2320.6</ele>
        <time>2022-07-17T10:54:58Z</time>
      </trkpt>
      <trkpt lat="45.07458" lon="6.41329">
        <ele>2320.8</ele>
        <time>2022-07-17T10:54:59Z</time>
      </trkpt>
      <trkpt lat="45.07457" lon="6.41328">
        <ele>2320.8</ele>
        <time>2022-07-17T10:55:00Z</time>
      </trkpt>
      <trkpt lat="45.07455" lon="6.41328">
        <ele>2321.2</ele>
        <time>2022-07-17T10:55:01Z</time>
      </trkpt>
      <trkpt lat="45.07453" lon="6.41328">
        <ele>2321.2</ele>
        <time>2022-07-17T10:55:02Z</time>
      </trkpt>
      <trkpt lat="45.07452" lon="6.41329">
        <ele>2321.4</ele>
        <time>2022-07-17T10:55:03Z</time>
      </trkpt>
      <trkpt lat="45.0745" lon="6.41329">
        <ele>2321.4</ele>
        <time>2022-07-17T10:55:04Z</time>
      </trkpt>
      <trkpt lat="45.07448" lon="6.41329">
        <ele>2321.8</ele>
        <time>2022-07-17T10:55:05Z</time>
      </trkpt>
      <trkpt lat="45.07447" lon="6.41329">
        <ele>2321.8</ele>
        <time>2022-07-17T10:55:06Z</time>
      </trkpt>
      <trkpt lat="45.07445" lon="6.41329">
        <ele>2322</ele>
        <time>2022-07-17T10:55:07Z</time>
      </trkpt>
      <trkpt lat="45.07443" lon="6.4133">
        <ele>2322</ele>
        <time>2022-07-17T10:55:08Z</time>
      </trkpt>
      <trkpt lat="45.07442" lon="6.4133">
        <ele>2322.4</ele>
        <time>2022-07-17T10:55:09Z</time>
      </trkpt>
      <trkpt lat="45.0744" lon="6.4133">
        <ele>2322.4</ele>
        <time>2022-07-17T10:55:10Z</time>
      </trkpt>
      <trkpt lat="45.07438" lon="6.4133">
        <ele>2322.6</ele>
        <time>2022-07-17T10:55:11Z</time>
      </trkpt>
      <trkpt lat="45.07437" lon="6.4133">
        <ele>2322.6</ele>
        <time>2022-07-17T10:55:12Z</time>
      </trkpt>
      <trkpt lat="45.07435" lon="6.4133">
        <ele>2323</ele>
        <time>2022-07-17T10:55:13Z</time>
      </trkpt>
      <trkpt lat="45.07433" lon="6.4133">
        <ele>2323</ele>
        <time>2022-07-17T10:55:14Z</time>
      </trkpt>
      <trkpt lat="45.07432" lon="6.41331">
        <ele>2323.2</ele>
        <time>2022-07-17T10:55:15Z</time>
      </trkpt>
      <trkpt lat="45.0743" lon="6.41331">
        <ele>2323.2</ele>
        <time>2022-07-17T10:55:16Z</time>
      </trkpt>
      <trkpt lat="45.07428" lon="6.41331">
        <ele>2323.6</ele>
        <time>2022-07-17T10:55:17Z</time>
      </trkpt>
      <trkpt lat="45.07427" lon="6.41331">
        <ele>2323.6</ele>
        <time>2022-07-17T10:55:18Z</time>
      </trkpt>
      <trkpt lat="45.07425" lon="6.41331">
        <ele>2323.8</ele>
        <time>2022-07-17T10:55:19Z</time>
      </trkpt>
      <trkpt lat="45.07423" lon="6.41332">
        <ele>2323.8</ele>
        <time>2022-07-17T10:55:20Z</time>
      </trkpt>
      <trkpt lat="45.07422" lon="6.41332">
        <ele>2324.2</ele>
        <time>2022-07-17T10:55:21Z</time>
      </trkpt>
      <trkpt lat="45.0742" lon="6.41331">
        <ele>2324.2</ele>
        <time>2022-07-17T10:55:22Z</time>
      </trkpt>
      <trkpt lat="45.07418" lon="6.41331">
        <ele>2324.4</ele>
        <time>2022-07-17T10:55:23Z</time>
      </trkpt>
      <trkpt lat="45.07417" lon="6.4133">
        <ele>2324.4</ele>
        <time>2022-07-17T10:55:24Z</time>
      </trkpt>
      <trkpt lat="45.07415" lon="6.41329">
        <ele>2324.8</ele>
        <time>2022-07-17T10:55:25Z</time>
      </trkpt>
      <trkpt lat="45.07413" lon="6.41328">
        <ele>2324.8</ele>
        <time>2022-07-17T10:55:26Z</time>
      </trkpt>
      <trkpt lat="45.07412" lon="6.41327">
        <ele>2325.4</ele>
        <time>2022-07-17T10:55:27Z</time>
      </trkpt>
      <trkpt lat="45.07411" lon="6.41325">
        <ele>2325.4</ele>
        <time>2022-07-17T10:55:28Z</time>
      </trkpt>
      <trkpt lat="45.0741" lon="6.41323">
        <ele>2325.6</ele>
        <time>2022-07-17T10:55:29Z</time>
      </trkpt>
      <trkpt lat="45.07408" lon="6.41322">
        <ele>2325.6</ele>
        <time>2022-07-17T10:55:30Z</time>
      </trkpt>
      <trkpt lat="45.07407" lon="6.4132">
        <ele>2326</ele>
        <time>2022-07-17T10:55:31Z</time>
      </trkpt>
      <trkpt lat="45.07406" lon="6.41318">
        <ele>2326</ele>
        <time>2022-07-17T10:55:32Z</time>
      </trkpt>
      <trkpt lat="45.07405" lon="6.41317">
        <ele>2326.2</ele>
        <time>2022-07-17T10:55:33Z</time>
      </trkpt>
      <trkpt lat="45.07404" lon="6.41315">
        <ele>2326.2</ele>
        <time>2022-07-17T10:55:34Z</time>
      </trkpt>
      <trkpt lat="45.07403" lon="6.41313">
        <ele>2326.4</ele>
        <time>2022-07-17T10:55:35Z</time>
      </trkpt>
      <trkpt lat="45.07402" lon="6.41311">
        <ele>2326.4</ele>
        <time>2022-07-17T10:55:36Z</time>
      </trkpt>
      <trkpt lat="45.07401" lon="6.41309">
        <ele>2326.6</ele>
        <time>2022-07-17T10:55:37Z</time>
      </trkpt>
      <trkpt lat="45.074" lon="6.41307">
        <ele>2326.6</ele>
        <time>2022-07-17T10:55:38Z</time>
      </trkpt>
      <trkpt lat="45.07399" lon="6.41305">
        <ele>2327</ele>
        <time>2022-07-17T10:55:39Z</time>
      </trkpt>
      <trkpt lat="45.07398" lon="6.41304">
        <ele>2327</ele>
        <time>2022-07-17T10:55:40Z</time>
      </trkpt>
      <trkpt lat="45.07397" lon="6.41302">
        <ele>2327.4</ele>
        <time>2022-07-17T10:55:41Z</time>
      </trkpt>
      <trkpt lat="45.07396" lon="6.413">
        <ele>2327.4</ele>
        <time>2022-07-17T10:55:42Z</time>
      </trkpt>
      <trkpt lat="45.07394" lon="6.41298">
        <ele>2327.8</ele>
        <time>2022-07-17T10:55:43Z</time>
      </trkpt>
      <trkpt lat="45.07393" lon="6.41296">
        <ele>2327.8</ele>
        <time>2022-07-17T10:55:44Z</time>
      </trkpt>
      <trkpt lat="45.07392" lon="6.41294">
        <ele>2327.8</ele>
        <time>2022-07-17T10:55:45Z</time>
      </trkpt>
      <trkpt lat="45.07391" lon="6.41292">
        <ele>2328</ele>
        <time>2022-07-17T10:55:46Z</time>
      </trkpt>
      <trkpt lat="45.0739" lon="6.4129">
        <ele>2328</ele>
        <time>2022-07-17T10:55:47Z</time>
      </trkpt>
      <trkpt lat="45.07389" lon="6.41288">
        <ele>2328.2</ele>
        <time>2022-07-17T10:55:48Z</time>
      </trkpt>
      <trkpt lat="45.07388" lon="6.41286">
        <ele>2328.2</ele>
        <time>2022-07-17T10:55:49Z</time>
      </trkpt>
      <trkpt lat="45.07386" lon="6.41284">
        <ele>2328.6</ele>
        <time>2022-07-17T10:55:50Z</time>
      </trkpt>
      <trkpt lat="45.07385" lon="6.41283">
        <ele>2328.6</ele>
        <time>2022-07-17T10:55:51Z</time>
      </trkpt>
      <trkpt lat="45.07383" lon="6.41281">
        <ele>2329</ele>
        <time>2022-07-17T10:55:52Z</time>
      </trkpt>
      <trkpt lat="45.07382" lon="6.4128">
        <ele>2329</ele>
        <time>2022-07-17T10:55:53Z</time>
      </trkpt>
      <trkpt lat="45.0738" lon="6.41278">
        <ele>2329</ele>
        <time>2022-07-17T10:55:54Z</time>
      </trkpt>
      <trkpt lat="45.07378" lon="6.41277">
        <ele>2329.2</ele>
        <time>2022-07-17T10:55:55Z</time>
      </trkpt>
      <trkpt lat="45.07377" lon="6.41275">
        <ele>2329.2</ele>
        <time>2022-07-17T10:55:56Z</time>
      </trkpt>
      <trkpt lat="45.07375" lon="6.41274">
        <ele>2329.4</ele>
        <time>2022-07-17T10:55:57Z</time>
      </trkpt>
      <trkpt lat="45.07373" lon="6.41273">
        <ele>2329.4</ele>
        <time>2022-07-17T10:55:58Z</time>
      </trkpt>
      <trkpt lat="45.07371" lon="6.41273">
        <ele>2329.4</ele>
        <time>2022-07-17T10:55:59Z</time>
      </trkpt>
      <trkpt lat="45.07369" lon="6.41273">
        <ele>2329.8</ele>
        <time>2022-07-17T10:56:00Z</time>
      </trkpt>
      <trkpt lat="45.07367" lon="6.41272">
        <ele>2329.8</ele>
        <time>2022-07-17T10:56:01Z</time>
      </trkpt>
      <trkpt lat="45.07365" lon="6.41272">
        <ele>2329.8</ele>
        <time>2022-07-17T10:56:02Z</time>
      </trkpt>
      <trkpt lat="45.07363" lon="6.41272">
        <ele>2330</ele>
        <time>2022-07-17T10:56:03Z</time>
      </trkpt>
      <trkpt lat="45.07361" lon="6.41273">
        <ele>2330</ele>
        <time>2022-07-17T10:56:04Z</time>
      </trkpt>
      <trkpt lat="45.07359" lon="6.41273">
        <ele>2330.4</ele>
        <time>2022-07-17T10:56:05Z</time>
      </trkpt>
      <trkpt lat="45.07357" lon="6.41273">
        <ele>2330.6</ele>
        <time>2022-07-17T10:56:06Z</time>
      </trkpt>
      <trkpt lat="45.07356" lon="6.41274">
        <ele>2330.6</ele>
        <time>2022-07-17T10:56:07Z</time>
      </trkpt>
      <trkpt lat="45.07354" lon="6.41274">
        <ele>2331</ele>
        <time>2022-07-17T10:56:08Z</time>
      </trkpt>
      <trkpt lat="45.07352" lon="6.41275">
        <ele>2331</ele>
        <time>2022-07-17T10:56:09Z</time>
      </trkpt>
      <trkpt lat="45.0735" lon="6.41275">
        <ele>2331.2</ele>
        <time>2022-07-17T10:56:10Z</time>
      </trkpt>
      <trkpt lat="45.07348" lon="6.41276">
        <ele>2331.2</ele>
        <time>2022-07-17T10:56:11Z</time>
      </trkpt>
      <trkpt lat="45.07347" lon="6.41276">
        <ele>2331.4</ele>
        <time>2022-07-17T10:56:12Z</time>
      </trkpt>
      <trkpt lat="45.07345" lon="6.41277">
        <ele>2331.4</ele>
        <time>2022-07-17T10:56:13Z</time>
      </trkpt>
      <trkpt lat="45.07343" lon="6.41277">
        <ele>2331.8</ele>
        <time>2022-07-17T10:56:14Z</time>
      </trkpt>
      <trkpt lat="45.07341" lon="6.41278">
        <ele>2331.8</ele>
        <time>2022-07-17T10:56:15Z</time>
      </trkpt>
      <trkpt lat="45.0734" lon="6.41278">
        <ele>2332.2</ele>
        <time>2022-07-17T10:56:16Z</time>
      </trkpt>
      <trkpt lat="45.07338" lon="6.41279">
        <ele>2332.2</ele>
        <time>2022-07-17T10:56:17Z</time>
      </trkpt>
      <trkpt lat="45.07336" lon="6.4128">
        <ele>2332.4</ele>
        <time>2022-07-17T10:56:18Z</time>
      </trkpt>
      <trkpt lat="45.07334" lon="6.4128">
        <ele>2332.8</ele>
        <time>2022-07-17T10:56:19Z</time>
      </trkpt>
      <trkpt lat="45.07332" lon="6.41281">
        <ele>2332.8</ele>
        <time>2022-07-17T10:56:20Z</time>
      </trkpt>
      <trkpt lat="45.0733" lon="6.41281">
        <ele>2333</ele>
        <time>2022-07-17T10:56:21Z</time>
      </trkpt>
      <trkpt lat="45.07328" lon="6.41281">
        <ele>2333</ele>
        <time>2022-07-17T10:56:22Z</time>
      </trkpt>
      <trkpt lat="45.07326" lon="6.41281">
        <ele>2333.4</ele>
        <time>2022-07-17T10:56:23Z</time>
      </trkpt>
      <trkpt lat="45.07324" lon="6.41281">
        <ele>2333.4</ele>
        <time>2022-07-17T10:56:24Z</time>
      </trkpt>
      <trkpt lat="45.07322" lon="6.41281">
        <ele>2333.8</ele>
        <time>2022-07-17T10:56:25Z</time>
      </trkpt>
      <trkpt lat="45.0732" lon="6.41281">
        <ele>2334.2</ele>
        <time>2022-07-17T10:56:26Z</time>
      </trkpt>
      <trkpt lat="45.07318" lon="6.41281">
        <ele>2334.2</ele>
        <time>2022-07-17T10:56:27Z</time>
      </trkpt>
      <trkpt lat="45.07317" lon="6.41281">
        <ele>2334.6</ele>
        <time>2022-07-17T10:56:28Z</time>
      </trkpt>
      <trkpt lat="45.07315" lon="6.41281">
        <ele>2334.6</ele>
        <time>2022-07-17T10:56:29Z</time>
      </trkpt>
      <trkpt lat="45.07313" lon="6.41281">
        <ele>2335</ele>
        <time>2022-07-17T10:56:30Z</time>
      </trkpt>
      <trkpt lat="45.07311" lon="6.41281">
        <ele>2335</ele>
        <time>2022-07-17T10:56:31Z</time>
      </trkpt>
      <trkpt lat="45.07309" lon="6.41281">
        <ele>2335.4</ele>
        <time>2022-07-17T10:56:32Z</time>
      </trkpt>
      <trkpt lat="45.07307" lon="6.41281">
        <ele>2335.4</ele>
        <time>2022-07-17T10:56:33Z</time>
      </trkpt>
      <trkpt lat="45.07305" lon="6.41281">
        <ele>2335.6</ele>
        <time>2022-07-17T10:56:34Z</time>
      </trkpt>
      <trkpt lat="45.07304" lon="6.41281">
        <ele>2335.6</ele>
        <time>2022-07-17T10:56:35Z</time>
      </trkpt>
      <trkpt lat="45.07302" lon="6.41281">
        <ele>2335.8</ele>
        <time>2022-07-17T10:56:36Z</time>
      </trkpt>
      <trkpt lat="45.073" lon="6.41281">
        <ele>2336</ele>
        <time>2022-07-17T10:56:37Z</time>
      </trkpt>
      <trkpt lat="45.07298" lon="6.41281">
        <ele>2336</ele>
        <time>2022-07-17T10:56:38Z</time>
      </trkpt>
      <trkpt lat="45.07296" lon="6.41281">
        <ele>2336.4</ele>
        <time>2022-07-17T10:56:39Z</time>
      </trkpt>
      <trkpt lat="45.07294" lon="6.41281">
        <ele>2336.6</ele>
        <time>2022-07-17T10:56:40Z</time>
      </trkpt>
      <trkpt lat="45.07292" lon="6.41281">
        <ele>2336.6</ele>
        <time>2022-07-17T10:56:41Z</time>
      </trkpt>
      <trkpt lat="45.0729" lon="6.41282">
        <ele>2336.8</ele>
        <time>2022-07-17T10:56:42Z</time>
      </trkpt>
      <trkpt lat="45.07288" lon="6.41283">
        <ele>2336.8</ele>
        <time>2022-07-17T10:56:43Z</time>
      </trkpt>
      <trkpt lat="45.07286" lon="6.41283">
        <ele>2337.2</ele>
        <time>2022-07-17T10:56:44Z</time>
      </trkpt>
      <trkpt lat="45.07284" lon="6.41284">
        <ele>2337.2</ele>
        <time>2022-07-17T10:56:45Z</time>
      </trkpt>
      <trkpt lat="45.07282" lon="6.41285">
        <ele>2337.4</ele>
        <time>2022-07-17T10:56:46Z</time>
      </trkpt>
      <trkpt lat="45.0728" lon="6.41286">
        <ele>2337.4</ele>
        <time>2022-07-17T10:56:47Z</time>
      </trkpt>
      <trkpt lat="45.07279" lon="6.41286">
        <ele>2337.8</ele>
        <time>2022-07-17T10:56:48Z</time>
      </trkpt>
      <trkpt lat="45.07277" lon="6.41287">
        <ele>2337.8</ele>
        <time>2022-07-17T10:56:49Z</time>
      </trkpt>
      <trkpt lat="45.07275" lon="6.41287">
        <ele>2337.8</ele>
        <time>2022-07-17T10:56:50Z</time>
      </trkpt>
      <trkpt lat="45.07273" lon="6.41288">
        <ele>2337.8</ele>
        <time>2022-07-17T10:56:51Z</time>
      </trkpt>
      <trkpt lat="45.07271" lon="6.41289">
        <ele>2338</ele>
        <time>2022-07-17T10:56:52Z</time>
      </trkpt>
      <trkpt lat="45.07269" lon="6.41289">
        <ele>2338</ele>
        <time>2022-07-17T10:56:53Z</time>
      </trkpt>
      <trkpt lat="45.07268" lon="6.4129">
        <ele>2338.4</ele>
        <time>2022-07-17T10:56:54Z</time>
      </trkpt>
      <trkpt lat="45.07266" lon="6.41291">
        <ele>2338.4</ele>
        <time>2022-07-17T10:56:55Z</time>
      </trkpt>
      <trkpt lat="45.07264" lon="6.41292">
        <ele>2338.6</ele>
        <time>2022-07-17T10:56:56Z</time>
      </trkpt>
      <trkpt lat="45.07263" lon="6.41292">
        <ele>2338.6</ele>
        <time>2022-07-17T10:56:57Z</time>
      </trkpt>
      <trkpt lat="45.07261" lon="6.41293">
        <ele>2338.6</ele>
        <time>2022-07-17T10:56:58Z</time>
      </trkpt>
      <trkpt lat="45.07259" lon="6.41294">
        <ele>2339</ele>
        <time>2022-07-17T10:56:59Z</time>
      </trkpt>
      <trkpt lat="45.07257" lon="6.41294">
        <ele>2339</ele>
        <time>2022-07-17T10:57:00Z</time>
      </trkpt>
      <trkpt lat="45.07255" lon="6.41294">
        <ele>2339.2</ele>
        <time>2022-07-17T10:57:01Z</time>
      </trkpt>
      <trkpt lat="45.07254" lon="6.41294">
        <ele>2339.2</ele>
        <time>2022-07-17T10:57:02Z</time>
      </trkpt>
      <trkpt lat="45.07252" lon="6.41294">
        <ele>2339.4</ele>
        <time>2022-07-17T10:57:03Z</time>
      </trkpt>
      <trkpt lat="45.0725" lon="6.41295">
        <ele>2339.6</ele>
        <time>2022-07-17T10:57:04Z</time>
      </trkpt>
      <trkpt lat="45.07248" lon="6.41295">
        <ele>2339.6</ele>
        <time>2022-07-17T10:57:05Z</time>
      </trkpt>
      <trkpt lat="45.07247" lon="6.41295">
        <ele>2340</ele>
        <time>2022-07-17T10:57:06Z</time>
      </trkpt>
      <trkpt lat="45.07245" lon="6.41296">
        <ele>2340</ele>
        <time>2022-07-17T10:57:07Z</time>
      </trkpt>
      <trkpt lat="45.07243" lon="6.41296">
        <ele>2340.4</ele>
        <time>2022-07-17T10:57:08Z</time>
      </trkpt>
      <trkpt lat="45.07241" lon="6.41296">
        <ele>2340.4</ele>
        <time>2022-07-17T10:57:09Z</time>
      </trkpt>
      <trkpt lat="45.0724" lon="6.41296">
        <ele>2340.6</ele>
        <time>2022-07-17T10:57:10Z</time>
      </trkpt>
      <trkpt lat="45.07238" lon="6.41297">
        <ele>2340.6</ele>
        <time>2022-07-17T10:57:11Z</time>
      </trkpt>
      <trkpt lat="45.07236" lon="6.41297">
        <ele>2340.8</ele>
        <time>2022-07-17T10:57:12Z</time>
      </trkpt>
      <trkpt lat="45.07234" lon="6.41298">
        <ele>2340.8</ele>
        <time>2022-07-17T10:57:13Z</time>
      </trkpt>
      <trkpt lat="45.07232" lon="6.41298">
        <ele>2341.2</ele>
        <time>2022-07-17T10:57:14Z</time>
      </trkpt>
      <trkpt lat="45.0723" lon="6.41298">
        <ele>2341.2</ele>
        <time>2022-07-17T10:57:15Z</time>
      </trkpt>
      <trkpt lat="45.07228" lon="6.41299">
        <ele>2341.2</ele>
        <time>2022-07-17T10:57:16Z</time>
      </trkpt>
      <trkpt lat="45.07226" lon="6.41299">
        <ele>2341.2</ele>
        <time>2022-07-17T10:57:17Z</time>
      </trkpt>
      <trkpt lat="45.07224" lon="6.41298">
        <ele>2341.4</ele>
        <time>2022-07-17T10:57:18Z</time>
      </trkpt>
      <trkpt lat="45.07222" lon="6.41297">
        <ele>2341.4</ele>
        <time>2022-07-17T10:57:19Z</time>
      </trkpt>
      <trkpt lat="45.07221" lon="6.41296">
        <ele>2341.4</ele>
        <time>2022-07-17T10:57:20Z</time>
      </trkpt>
      <trkpt lat="45.07219" lon="6.41294">
        <ele>2341.6</ele>
        <time>2022-07-17T10:57:21Z</time>
      </trkpt>
      <trkpt lat="45.07218" lon="6.41292">
        <ele>2341.6</ele>
        <time>2022-07-17T10:57:22Z</time>
      </trkpt>
      <trkpt lat="45.07216" lon="6.4129">
        <ele>2341.8</ele>
        <time>2022-07-17T10:57:23Z</time>
      </trkpt>
      <trkpt lat="45.07215" lon="6.41287">
        <ele>2341.8</ele>
        <time>2022-07-17T10:57:24Z</time>
      </trkpt>
      <trkpt lat="45.07214" lon="6.41284">
        <ele>2342.2</ele>
        <time>2022-07-17T10:57:25Z</time>
      </trkpt>
      <trkpt lat="45.07213" lon="6.41281">
        <ele>2342.2</ele>
        <time>2022-07-17T10:57:26Z</time>
      </trkpt>
      <trkpt lat="45.07212" lon="6.41278">
        <ele>2342.4</ele>
        <time>2022-07-17T10:57:27Z</time>
      </trkpt>
      <trkpt lat="45.07211" lon="6.41276">
        <ele>2342.4</ele>
        <time>2022-07-17T10:57:28Z</time>
      </trkpt>
      <trkpt lat="45.07211" lon="6.41273">
        <ele>2342.6</ele>
        <time>2022-07-17T10:57:29Z</time>
      </trkpt>
      <trkpt lat="45.07211" lon="6.41269">
        <ele>2342.6</ele>
        <time>2022-07-17T10:57:30Z</time>
      </trkpt>
      <trkpt lat="45.0721" lon="6.41266">
        <ele>2342.6</ele>
        <time>2022-07-17T10:57:31Z</time>
      </trkpt>
      <trkpt lat="45.0721" lon="6.41263">
        <ele>2343</ele>
        <time>2022-07-17T10:57:32Z</time>
      </trkpt>
      <trkpt lat="45.0721" lon="6.4126">
        <ele>2343</ele>
        <time>2022-07-17T10:57:33Z</time>
      </trkpt>
      <trkpt lat="45.0721" lon="6.41257">
        <ele>2343</ele>
        <time>2022-07-17T10:57:34Z</time>
      </trkpt>
      <trkpt lat="45.0721" lon="6.41255">
        <ele>2343</ele>
        <time>2022-07-17T10:57:35Z</time>
      </trkpt>
      <trkpt lat="45.0721" lon="6.41252">
        <ele>2343</ele>
        <time>2022-07-17T10:57:36Z</time>
      </trkpt>
      <trkpt lat="45.07211" lon="6.41249">
        <ele>2343.2</ele>
        <time>2022-07-17T10:57:37Z</time>
      </trkpt>
      <trkpt lat="45.07211" lon="6.41246">
        <ele>2343.2</ele>
        <time>2022-07-17T10:57:38Z</time>
      </trkpt>
      <trkpt lat="45.07212" lon="6.41244">
        <ele>2343.2</ele>
        <time>2022-07-17T10:57:39Z</time>
      </trkpt>
      <trkpt lat="45.07212" lon="6.41241">
        <ele>2343.2</ele>
        <time>2022-07-17T10:57:40Z</time>
      </trkpt>
      <trkpt lat="45.07212" lon="6.41238">
        <ele>2343.4</ele>
        <time>2022-07-17T10:57:41Z</time>
      </trkpt>
      <trkpt lat="45.07213" lon="6.41235">
        <ele>2343.4</ele>
        <time>2022-07-17T10:57:42Z</time>
      </trkpt>
      <trkpt lat="45.07213" lon="6.41232">
        <ele>2343.4</ele>
        <time>2022-07-17T10:57:43Z</time>
      </trkpt>
      <trkpt lat="45.07214" lon="6.4123">
        <ele>2343.6</ele>
        <time>2022-07-17T10:57:44Z</time>
      </trkpt>
      <trkpt lat="45.07214" lon="6.41227">
        <ele>2343.6</ele>
        <time>2022-07-17T10:57:45Z</time>
      </trkpt>
      <trkpt lat="45.07214" lon="6.41224">
        <ele>2343.8</ele>
        <time>2022-07-17T10:57:46Z</time>
      </trkpt>
      <trkpt lat="45.07215" lon="6.41222">
        <ele>2344.2</ele>
        <time>2022-07-17T10:57:47Z</time>
      </trkpt>
      <trkpt lat="45.07215" lon="6.41219">
        <ele>2344.2</ele>
        <time>2022-07-17T10:57:48Z</time>
      </trkpt>
      <trkpt lat="45.07215" lon="6.41216">
        <ele>2344.6</ele>
        <time>2022-07-17T10:57:49Z</time>
      </trkpt>
      <trkpt lat="45.07216" lon="6.41214">
        <ele>2344.6</ele>
        <time>2022-07-17T10:57:50Z</time>
      </trkpt>
      <trkpt lat="45.07216" lon="6.41212">
        <ele>2344.8</ele>
        <time>2022-07-17T10:57:51Z</time>
      </trkpt>
      <trkpt lat="45.07216" lon="6.41209">
        <ele>2344.8</ele>
        <time>2022-07-17T10:57:52Z</time>
      </trkpt>
      <trkpt lat="45.07217" lon="6.41206">
        <ele>2345.2</ele>
        <time>2022-07-17T10:57:53Z</time>
      </trkpt>
      <trkpt lat="45.07217" lon="6.41204">
        <ele>2345.2</ele>
        <time>2022-07-17T10:57:54Z</time>
      </trkpt>
      <trkpt lat="45.07217" lon="6.41201">
        <ele>2345.4</ele>
        <time>2022-07-17T10:57:55Z</time>
      </trkpt>
      <trkpt lat="45.07217" lon="6.41198">
        <ele>2345.4</ele>
        <time>2022-07-17T10:57:56Z</time>
      </trkpt>
      <trkpt lat="45.07217" lon="6.41196">
        <ele>2345.8</ele>
        <time>2022-07-17T10:57:57Z</time>
      </trkpt>
      <trkpt lat="45.07217" lon="6.41193">
        <ele>2345.8</ele>
        <time>2022-07-17T10:57:58Z</time>
      </trkpt>
      <trkpt lat="45.07217" lon="6.4119">
        <ele>2346</ele>
        <time>2022-07-17T10:57:59Z</time>
      </trkpt>
      <trkpt lat="45.07217" lon="6.41187">
        <ele>2346</ele>
        <time>2022-07-17T10:58:00Z</time>
      </trkpt>
      <trkpt lat="45.07216" lon="6.41185">
        <ele>2346.2</ele>
        <time>2022-07-17T10:58:01Z</time>
      </trkpt>
      <trkpt lat="45.07215" lon="6.41183">
        <ele>2346.2</ele>
        <time>2022-07-17T10:58:02Z</time>
      </trkpt>
      <trkpt lat="45.07214" lon="6.4118">
        <ele>2346.6</ele>
        <time>2022-07-17T10:58:03Z</time>
      </trkpt>
      <trkpt lat="45.07213" lon="6.41178">
        <ele>2346.6</ele>
        <time>2022-07-17T10:58:04Z</time>
      </trkpt>
      <trkpt lat="45.07212" lon="6.41176">
        <ele>2346.8</ele>
        <time>2022-07-17T10:58:05Z</time>
      </trkpt>
      <trkpt lat="45.07211" lon="6.41174">
        <ele>2346.8</ele>
        <time>2022-07-17T10:58:06Z</time>
      </trkpt>
      <trkpt lat="45.07209" lon="6.41172">
        <ele>2347</ele>
        <time>2022-07-17T10:58:07Z</time>
      </trkpt>
      <trkpt lat="45.07208" lon="6.4117">
        <ele>2347</ele>
        <time>2022-07-17T10:58:08Z</time>
      </trkpt>
      <trkpt lat="45.07207" lon="6.41169">
        <ele>2347.4</ele>
        <time>2022-07-17T10:58:09Z</time>
      </trkpt>
      <trkpt lat="45.07205" lon="6.41167">
        <ele>2347.4</ele>
        <time>2022-07-17T10:58:10Z</time>
      </trkpt>
      <trkpt lat="45.07204" lon="6.41166">
        <ele>2347.6</ele>
        <time>2022-07-17T10:58:11Z</time>
      </trkpt>
      <trkpt lat="45.07202" lon="6.41164">
        <ele>2347.6</ele>
        <time>2022-07-17T10:58:12Z</time>
      </trkpt>
      <trkpt lat="45.07201" lon="6.41163">
        <ele>2347.8</ele>
        <time>2022-07-17T10:58:13Z</time>
      </trkpt>
      <trkpt lat="45.07199" lon="6.41162">
        <ele>2347.8</ele>
        <time>2022-07-17T10:58:14Z</time>
      </trkpt>
      <trkpt lat="45.07197" lon="6.41161">
        <ele>2347.8</ele>
        <time>2022-07-17T10:58:15Z</time>
      </trkpt>
      <trkpt lat="45.07195" lon="6.4116">
        <ele>2348.2</ele>
        <time>2022-07-17T10:58:16Z</time>
      </trkpt>
      <trkpt lat="45.07193" lon="6.4116">
        <ele>2348.2</ele>
        <time>2022-07-17T10:58:17Z</time>
      </trkpt>
      <trkpt lat="45.07191" lon="6.41159">
        <ele>2348.4</ele>
        <time>2022-07-17T10:58:18Z</time>
      </trkpt>
      <trkpt lat="45.07189" lon="6.41159">
        <ele>2348.6</ele>
        <time>2022-07-17T10:58:19Z</time>
      </trkpt>
      <trkpt lat="45.07188" lon="6.41158">
        <ele>2348.6</ele>
        <time>2022-07-17T10:58:20Z</time>
      </trkpt>
      <trkpt lat="45.07186" lon="6.41157">
        <ele>2348.6</ele>
        <time>2022-07-17T10:58:21Z</time>
      </trkpt>
      <trkpt lat="45.07184" lon="6.41156">
        <ele>2349</ele>
        <time>2022-07-17T10:58:22Z</time>
      </trkpt>
      <trkpt lat="45.07182" lon="6.41156">
        <ele>2349</ele>
        <time>2022-07-17T10:58:23Z</time>
      </trkpt>
      <trkpt lat="45.0718" lon="6.41155">
        <ele>2349.2</ele>
        <time>2022-07-17T10:58:24Z</time>
      </trkpt>
      <trkpt lat="45.07179" lon="6.41155">
        <ele>2349.2</ele>
        <time>2022-07-17T10:58:25Z</time>
      </trkpt>
      <trkpt lat="45.07177" lon="6.41154">
        <ele>2349.6</ele>
        <time>2022-07-17T10:58:26Z</time>
      </trkpt>
      <trkpt lat="45.07175" lon="6.41154">
        <ele>2349.6</ele>
        <time>2022-07-17T10:58:27Z</time>
      </trkpt>
      <trkpt lat="45.07173" lon="6.41154">
        <ele>2349.6</ele>
        <time>2022-07-17T10:58:28Z</time>
      </trkpt>
      <trkpt lat="45.07172" lon="6.41153">
        <ele>2349.8</ele>
        <time>2022-07-17T10:58:29Z</time>
      </trkpt>
      <trkpt lat="45.0717" lon="6.41153">
        <ele>2349.8</ele>
        <time>2022-07-17T10:58:30Z</time>
      </trkpt>
      <trkpt lat="45.07168" lon="6.41153">
        <ele>2350</ele>
        <time>2022-07-17T10:58:31Z</time>
      </trkpt>
      <trkpt lat="45.07166" lon="6.41152">
        <ele>2350</ele>
        <time>2022-07-17T10:58:32Z</time>
      </trkpt>
      <trkpt lat="45.07165" lon="6.41152">
        <ele>2350.2</ele>
        <time>2022-07-17T10:58:33Z</time>
      </trkpt>
      <trkpt lat="45.07163" lon="6.41152">
        <ele>2350.2</ele>
        <time>2022-07-17T10:58:34Z</time>
      </trkpt>
      <trkpt lat="45.07161" lon="6.41152">
        <ele>2350.4</ele>
        <time>2022-07-17T10:58:35Z</time>
      </trkpt>
      <trkpt lat="45.0716" lon="6.41152">
        <ele>2350.4</ele>
        <time>2022-07-17T10:58:36Z</time>
      </trkpt>
      <trkpt lat="45.07158" lon="6.41152">
        <ele>2350.8</ele>
        <time>2022-07-17T10:58:37Z</time>
      </trkpt>
      <trkpt lat="45.07156" lon="6.41151">
        <ele>2350.8</ele>
        <time>2022-07-17T10:58:38Z</time>
      </trkpt>
      <trkpt lat="45.07155" lon="6.41151">
        <ele>2351</ele>
        <time>2022-07-17T10:58:39Z</time>
      </trkpt>
      <trkpt lat="45.07153" lon="6.4115">
        <ele>2351</ele>
        <time>2022-07-17T10:58:40Z</time>
      </trkpt>
      <trkpt lat="45.07151" lon="6.4115">
        <ele>2351.4</ele>
        <time>2022-07-17T10:58:41Z</time>
      </trkpt>
      <trkpt lat="45.07149" lon="6.4115">
        <ele>2351.4</ele>
        <time>2022-07-17T10:58:42Z</time>
      </trkpt>
      <trkpt lat="45.07147" lon="6.4115">
        <ele>2351.6</ele>
        <time>2022-07-17T10:58:43Z</time>
      </trkpt>
      <trkpt lat="45.07145" lon="6.4115">
        <ele>2351.6</ele>
        <time>2022-07-17T10:58:44Z</time>
      </trkpt>
      <trkpt lat="45.07143" lon="6.4115">
        <ele>2351.8</ele>
        <time>2022-07-17T10:58:45Z</time>
      </trkpt>
      <trkpt lat="45.07141" lon="6.4115">
        <ele>2351.8</ele>
        <time>2022-07-17T10:58:46Z</time>
      </trkpt>
      <trkpt lat="45.07139" lon="6.41149">
        <ele>2352.2</ele>
        <time>2022-07-17T10:58:47Z</time>
      </trkpt>
      <trkpt lat="45.07137" lon="6.41149">
        <ele>2352.2</ele>
        <time>2022-07-17T10:58:48Z</time>
      </trkpt>
      <trkpt lat="45.07135" lon="6.41149">
        <ele>2352.4</ele>
        <time>2022-07-17T10:58:49Z</time>
      </trkpt>
      <trkpt lat="45.07133" lon="6.41149">
        <ele>2352.4</ele>
        <time>2022-07-17T10:58:50Z</time>
      </trkpt>
      <trkpt lat="45.07132" lon="6.41149">
        <ele>2352.8</ele>
        <time>2022-07-17T10:58:51Z</time>
      </trkpt>
      <trkpt lat="45.0713" lon="6.41148">
        <ele>2352.8</ele>
        <time>2022-07-17T10:58:52Z</time>
      </trkpt>
      <trkpt lat="45.07128" lon="6.41148">
        <ele>2352.8</ele>
        <time>2022-07-17T10:58:53Z</time>
      </trkpt>
      <trkpt lat="45.07126" lon="6.41148">
        <ele>2353.2</ele>
        <time>2022-07-17T10:58:54Z</time>
      </trkpt>
      <trkpt lat="45.07124" lon="6.41148">
        <ele>2353.2</ele>
        <time>2022-07-17T10:58:55Z</time>
      </trkpt>
      <trkpt lat="45.07122" lon="6.41149">
        <ele>2353.4</ele>
        <time>2022-07-17T10:58:56Z</time>
      </trkpt>
      <trkpt lat="45.0712" lon="6.41149">
        <ele>2353.4</ele>
        <time>2022-07-17T10:58:57Z</time>
      </trkpt>
      <trkpt lat="45.07118" lon="6.41148">
        <ele>2353.8</ele>
        <time>2022-07-17T10:58:58Z</time>
      </trkpt>
      <trkpt lat="45.07117" lon="6.41148">
        <ele>2353.8</ele>
        <time>2022-07-17T10:58:59Z</time>
      </trkpt>
      <trkpt lat="45.07115" lon="6.41148">
        <ele>2354</ele>
        <time>2022-07-17T10:59:00Z</time>
      </trkpt>
      <trkpt lat="45.07113" lon="6.41148">
        <ele>2354</ele>
        <time>2022-07-17T10:59:01Z</time>
      </trkpt>
      <trkpt lat="45.07111" lon="6.41148">
        <ele>2354.2</ele>
        <time>2022-07-17T10:59:02Z</time>
      </trkpt>
      <trkpt lat="45.07109" lon="6.41147">
        <ele>2354.2</ele>
        <time>2022-07-17T10:59:03Z</time>
      </trkpt>
      <trkpt lat="45.07107" lon="6.41146">
        <ele>2354.6</ele>
        <time>2022-07-17T10:59:04Z</time>
      </trkpt>
      <trkpt lat="45.07105" lon="6.41146">
        <ele>2354.8</ele>
        <time>2022-07-17T10:59:05Z</time>
      </trkpt>
      <trkpt lat="45.07103" lon="6.41145">
        <ele>2354.8</ele>
        <time>2022-07-17T10:59:06Z</time>
      </trkpt>
      <trkpt lat="45.07101" lon="6.41144">
        <ele>2354.8</ele>
        <time>2022-07-17T10:59:07Z</time>
      </trkpt>
      <trkpt lat="45.071" lon="6.41143">
        <ele>2355.2</ele>
        <time>2022-07-17T10:59:08Z</time>
      </trkpt>
      <trkpt lat="45.07098" lon="6.41141">
        <ele>2355.2</ele>
        <time>2022-07-17T10:59:09Z</time>
      </trkpt>
      <trkpt lat="45.07096" lon="6.41141">
        <ele>2355.4</ele>
        <time>2022-07-17T10:59:10Z</time>
      </trkpt>
      <trkpt lat="45.07094" lon="6.41139">
        <ele>2355.4</ele>
        <time>2022-07-17T10:59:11Z</time>
      </trkpt>
      <trkpt lat="45.07093" lon="6.41138">
        <ele>2355.8</ele>
        <time>2022-07-17T10:59:12Z</time>
      </trkpt>
      <trkpt lat="45.07091" lon="6.41137">
        <ele>2355.8</ele>
        <time>2022-07-17T10:59:13Z</time>
      </trkpt>
      <trkpt lat="45.0709" lon="6.41136">
        <ele>2356</ele>
        <time>2022-07-17T10:59:14Z</time>
      </trkpt>
      <trkpt lat="45.07088" lon="6.41134">
        <ele>2356</ele>
        <time>2022-07-17T10:59:15Z</time>
      </trkpt>
      <trkpt lat="45.07086" lon="6.41133">
        <ele>2356</ele>
        <time>2022-07-17T10:59:16Z</time>
      </trkpt>
      <trkpt lat="45.07085" lon="6.41132">
        <ele>2356.4</ele>
        <time>2022-07-17T10:59:17Z</time>
      </trkpt>
      <trkpt lat="45.07083" lon="6.41131">
        <ele>2356.4</ele>
        <time>2022-07-17T10:59:18Z</time>
      </trkpt>
      <trkpt lat="45.07081" lon="6.41129">
        <ele>2356.6</ele>
        <time>2022-07-17T10:59:19Z</time>
      </trkpt>
      <trkpt lat="45.0708" lon="6.41128">
        <ele>2356.6</ele>
        <time>2022-07-17T10:59:20Z</time>
      </trkpt>
      <trkpt lat="45.07078" lon="6.41127">
        <ele>2356.8</ele>
        <time>2022-07-17T10:59:21Z</time>
      </trkpt>
      <trkpt lat="45.07076" lon="6.41126">
        <ele>2356.8</ele>
        <time>2022-07-17T10:59:22Z</time>
      </trkpt>
      <trkpt lat="45.07074" lon="6.41125">
        <ele>2357.2</ele>
        <time>2022-07-17T10:59:23Z</time>
      </trkpt>
      <trkpt lat="45.07072" lon="6.41123">
        <ele>2357.2</ele>
        <time>2022-07-17T10:59:24Z</time>
      </trkpt>
      <trkpt lat="45.07071" lon="6.41122">
        <ele>2357.4</ele>
        <time>2022-07-17T10:59:25Z</time>
      </trkpt>
      <trkpt lat="45.07069" lon="6.41121">
        <ele>2357.4</ele>
        <time>2022-07-17T10:59:26Z</time>
      </trkpt>
      <trkpt lat="45.07067" lon="6.41119">
        <ele>2357.6</ele>
        <time>2022-07-17T10:59:27Z</time>
      </trkpt>
      <trkpt lat="45.07066" lon="6.41118">
        <ele>2357.6</ele>
        <time>2022-07-17T10:59:28Z</time>
      </trkpt>
      <trkpt lat="45.07064" lon="6.41117">
        <ele>2357.6</ele>
        <time>2022-07-17T10:59:29Z</time>
      </trkpt>
      <trkpt lat="45.07062" lon="6.41116">
        <ele>2358</ele>
        <time>2022-07-17T10:59:30Z</time>
      </trkpt>
      <trkpt lat="45.07061" lon="6.41115">
        <ele>2358</ele>
        <time>2022-07-17T10:59:31Z</time>
      </trkpt>
      <trkpt lat="45.07059" lon="6.41114">
        <ele>2358.2</ele>
        <time>2022-07-17T10:59:32Z</time>
      </trkpt>
      <trkpt lat="45.07057" lon="6.41113">
        <ele>2358.2</ele>
        <time>2022-07-17T10:59:33Z</time>
      </trkpt>
      <trkpt lat="45.07055" lon="6.41112">
        <ele>2358.4</ele>
        <time>2022-07-17T10:59:34Z</time>
      </trkpt>
      <trkpt lat="45.07054" lon="6.4111">
        <ele>2358.4</ele>
        <time>2022-07-17T10:59:35Z</time>
      </trkpt>
      <trkpt lat="45.07052" lon="6.41109">
        <ele>2358.8</ele>
        <time>2022-07-17T10:59:36Z</time>
      </trkpt>
      <trkpt lat="45.0705" lon="6.41108">
        <ele>2358.8</ele>
        <time>2022-07-17T10:59:37Z</time>
      </trkpt>
      <trkpt lat="45.07049" lon="6.41107">
        <ele>2359</ele>
        <time>2022-07-17T10:59:38Z</time>
      </trkpt>
      <trkpt lat="45.07047" lon="6.41106">
        <ele>2359</ele>
        <time>2022-07-17T10:59:39Z</time>
      </trkpt>
      <trkpt lat="45.07045" lon="6.41104">
        <ele>2359.4</ele>
        <time>2022-07-17T10:59:40Z</time>
      </trkpt>
      <trkpt lat="45.07044" lon="6.41103">
        <ele>2359.4</ele>
        <time>2022-07-17T10:59:41Z</time>
      </trkpt>
      <trkpt lat="45.07042" lon="6.41101">
        <ele>2359.8</ele>
        <time>2022-07-17T10:59:42Z</time>
      </trkpt>
      <trkpt lat="45.07041" lon="6.411">
        <ele>2360</ele>
        <time>2022-07-17T10:59:43Z</time>
      </trkpt>
      <trkpt lat="45.07039" lon="6.41098">
        <ele>2360</ele>
        <time>2022-07-17T10:59:44Z</time>
      </trkpt>
      <trkpt lat="45.07037" lon="6.41097">
        <ele>2360.4</ele>
        <time>2022-07-17T10:59:45Z</time>
      </trkpt>
      <trkpt lat="45.07036" lon="6.41096">
        <ele>2360.4</ele>
        <time>2022-07-17T10:59:46Z</time>
      </trkpt>
      <trkpt lat="45.07034" lon="6.41094">
        <ele>2360.6</ele>
        <time>2022-07-17T10:59:47Z</time>
      </trkpt>
      <trkpt lat="45.07032" lon="6.41093">
        <ele>2360.6</ele>
        <time>2022-07-17T10:59:48Z</time>
      </trkpt>
      <trkpt lat="45.0703" lon="6.41092">
        <ele>2361</ele>
        <time>2022-07-17T10:59:49Z</time>
      </trkpt>
      <trkpt lat="45.07028" lon="6.41091">
        <ele>2361</ele>
        <time>2022-07-17T10:59:50Z</time>
      </trkpt>
      <trkpt lat="45.07026" lon="6.4109">
        <ele>2361.2</ele>
        <time>2022-07-17T10:59:51Z</time>
      </trkpt>
      <trkpt lat="45.07024" lon="6.41089">
        <ele>2361.2</ele>
        <time>2022-07-17T10:59:52Z</time>
      </trkpt>
      <trkpt lat="45.07022" lon="6.41089">
        <ele>2361.4</ele>
        <time>2022-07-17T10:59:53Z</time>
      </trkpt>
      <trkpt lat="45.07021" lon="6.41088">
        <ele>2361.4</ele>
        <time>2022-07-17T10:59:54Z</time>
      </trkpt>
      <trkpt lat="45.07019" lon="6.41087">
        <ele>2361.8</ele>
        <time>2022-07-17T10:59:55Z</time>
      </trkpt>
      <trkpt lat="45.07017" lon="6.41087">
        <ele>2361.8</ele>
        <time>2022-07-17T10:59:56Z</time>
      </trkpt>
      <trkpt lat="45.07015" lon="6.41086">
        <ele>2362</ele>
        <time>2022-07-17T10:59:57Z</time>
      </trkpt>
      <trkpt lat="45.07013" lon="6.41085">
        <ele>2362</ele>
        <time>2022-07-17T10:59:58Z</time>
      </trkpt>
      <trkpt lat="45.07011" lon="6.41085">
        <ele>2362.2</ele>
        <time>2022-07-17T10:59:59Z</time>
      </trkpt>
      <trkpt lat="45.07009" lon="6.41085">
        <ele>2362.2</ele>
        <time>2022-07-17T11:00:00Z</time>
      </trkpt>
      <trkpt lat="45.07007" lon="6.41084">
        <ele>2362.6</ele>
        <time>2022-07-17T11:00:01Z</time>
      </trkpt>
      <trkpt lat="45.07005" lon="6.41084">
        <ele>2362.6</ele>
        <time>2022-07-17T11:00:02Z</time>
      </trkpt>
      <trkpt lat="45.07003" lon="6.41084">
        <ele>2363</ele>
        <time>2022-07-17T11:00:03Z</time>
      </trkpt>
      <trkpt lat="45.07001" lon="6.41084">
        <ele>2363</ele>
        <time>2022-07-17T11:00:04Z</time>
      </trkpt>
      <trkpt lat="45.06999" lon="6.41084">
        <ele>2363.2</ele>
        <time>2022-07-17T11:00:05Z</time>
      </trkpt>
      <trkpt lat="45.06997" lon="6.41083">
        <ele>2363.2</ele>
        <time>2022-07-17T11:00:06Z</time>
      </trkpt>
      <trkpt lat="45.06995" lon="6.41083">
        <ele>2363.6</ele>
        <time>2022-07-17T11:00:07Z</time>
      </trkpt>
      <trkpt lat="45.06993" lon="6.41083">
        <ele>2363.6</ele>
        <time>2022-07-17T11:00:08Z</time>
      </trkpt>
      <trkpt lat="45.06991" lon="6.41083">
        <ele>2363.8</ele>
        <time>2022-07-17T11:00:09Z</time>
      </trkpt>
      <trkpt lat="45.06989" lon="6.41083">
        <ele>2363.8</ele>
        <time>2022-07-17T11:00:10Z</time>
      </trkpt>
      <trkpt lat="45.06987" lon="6.41083">
        <ele>2364.2</ele>
        <time>2022-07-17T11:00:11Z</time>
      </trkpt>
      <trkpt lat="45.06985" lon="6.41082">
        <ele>2364.2</ele>
        <time>2022-07-17T11:00:12Z</time>
      </trkpt>
      <trkpt lat="45.06983" lon="6.41082">
        <ele>2364.4</ele>
        <time>2022-07-17T11:00:13Z</time>
      </trkpt>
      <trkpt lat="45.06981" lon="6.41082">
        <ele>2364.4</ele>
        <time>2022-07-17T11:00:14Z</time>
      </trkpt>
      <trkpt lat="45.06979" lon="6.41081">
        <ele>2364.8</ele>
        <time>2022-07-17T11:00:15Z</time>
      </trkpt>
      <trkpt lat="45.06977" lon="6.41081">
        <ele>2364.8</ele>
        <time>2022-07-17T11:00:16Z</time>
      </trkpt>
      <trkpt lat="45.06975" lon="6.41082">
        <ele>2365</ele>
        <time>2022-07-17T11:00:17Z</time>
      </trkpt>
      <trkpt lat="45.06973" lon="6.41081">
        <ele>2365</ele>
        <time>2022-07-17T11:00:18Z</time>
      </trkpt>
      <trkpt lat="45.06971" lon="6.4108">
        <ele>2365.2</ele>
        <time>2022-07-17T11:00:19Z</time>
      </trkpt>
      <trkpt lat="45.06969" lon="6.4108">
        <ele>2365.2</ele>
        <time>2022-07-17T11:00:20Z</time>
      </trkpt>
      <trkpt lat="45.06967" lon="6.41079">
        <ele>2365.6</ele>
        <time>2022-07-17T11:00:21Z</time>
      </trkpt>
      <trkpt lat="45.06965" lon="6.41078">
        <ele>2365.6</ele>
        <time>2022-07-17T11:00:22Z</time>
      </trkpt>
      <trkpt lat="45.06963" lon="6.41078">
        <ele>2366</ele>
        <time>2022-07-17T11:00:23Z</time>
      </trkpt>
      <trkpt lat="45.06962" lon="6.41077">
        <ele>2366</ele>
        <time>2022-07-17T11:00:24Z</time>
      </trkpt>
      <trkpt lat="45.0696" lon="6.41076">
        <ele>2366.4</ele>
        <time>2022-07-17T11:00:25Z</time>
      </trkpt>
      <trkpt lat="45.06958" lon="6.41075">
        <ele>2366.4</ele>
        <time>2022-07-17T11:00:26Z</time>
      </trkpt>
      <trkpt lat="45.06956" lon="6.41074">
        <ele>2366.6</ele>
        <time>2022-07-17T11:00:27Z</time>
      </trkpt>
      <trkpt lat="45.06954" lon="6.41073">
        <ele>2366.6</ele>
        <time>2022-07-17T11:00:28Z</time>
      </trkpt>
      <trkpt lat="45.06952" lon="6.41072">
        <ele>2366.8</ele>
        <time>2022-07-17T11:00:29Z</time>
      </trkpt>
      <trkpt lat="45.06951" lon="6.41071">
        <ele>2366.8</ele>
        <time>2022-07-17T11:00:30Z</time>
      </trkpt>
      <trkpt lat="45.06949" lon="6.4107">
        <ele>2367.2</ele>
        <time>2022-07-17T11:00:31Z</time>
      </trkpt>
      <trkpt lat="45.06947" lon="6.41069">
        <ele>2367.2</ele>
        <time>2022-07-17T11:00:32Z</time>
      </trkpt>
      <trkpt lat="45.06945" lon="6.41068">
        <ele>2367.6</ele>
        <time>2022-07-17T11:00:33Z</time>
      </trkpt>
      <trkpt lat="45.06943" lon="6.41067">
        <ele>2367.6</ele>
        <time>2022-07-17T11:00:34Z</time>
      </trkpt>
      <trkpt lat="45.06942" lon="6.41066">
        <ele>2368</ele>
        <time>2022-07-17T11:00:35Z</time>
      </trkpt>
      <trkpt lat="45.0694" lon="6.41065">
        <ele>2368</ele>
        <time>2022-07-17T11:00:36Z</time>
      </trkpt>
      <trkpt lat="45.06938" lon="6.41064">
        <ele>2368.2</ele>
        <time>2022-07-17T11:00:37Z</time>
      </trkpt>
      <trkpt lat="45.06936" lon="6.41063">
        <ele>2368.2</ele>
        <time>2022-07-17T11:00:38Z</time>
      </trkpt>
      <trkpt lat="45.06935" lon="6.41062">
        <ele>2368.4</ele>
        <time>2022-07-17T11:00:39Z</time>
      </trkpt>
      <trkpt lat="45.06933" lon="6.41061">
        <ele>2368.4</ele>
        <time>2022-07-17T11:00:40Z</time>
      </trkpt>
      <trkpt lat="45.06931" lon="6.4106">
        <ele>2368.8</ele>
        <time>2022-07-17T11:00:41Z</time>
      </trkpt>
      <trkpt lat="45.0693" lon="6.41058">
        <ele>2368.8</ele>
        <time>2022-07-17T11:00:42Z</time>
      </trkpt>
      <trkpt lat="45.06928" lon="6.41056">
        <ele>2369.2</ele>
        <time>2022-07-17T11:00:43Z</time>
      </trkpt>
      <trkpt lat="45.06927" lon="6.41055">
        <ele>2369.2</ele>
        <time>2022-07-17T11:00:44Z</time>
      </trkpt>
      <trkpt lat="45.06926" lon="6.41053">
        <ele>2369.4</ele>
        <time>2022-07-17T11:00:45Z</time>
      </trkpt>
      <trkpt lat="45.06925" lon="6.4105">
        <ele>2369.4</ele>
        <time>2022-07-17T11:00:46Z</time>
      </trkpt>
      <trkpt lat="45.06924" lon="6.41048">
        <ele>2369.6</ele>
        <time>2022-07-17T11:00:47Z</time>
      </trkpt>
      <trkpt lat="45.06924" lon="6.41045">
        <ele>2369.6</ele>
        <time>2022-07-17T11:00:48Z</time>
      </trkpt>
      <trkpt lat="45.06924" lon="6.41042">
        <ele>2370</ele>
        <time>2022-07-17T11:00:49Z</time>
      </trkpt>
      <trkpt lat="45.06924" lon="6.41039">
        <ele>2370</ele>
        <time>2022-07-17T11:00:50Z</time>
      </trkpt>
      <trkpt lat="45.06923" lon="6.41036">
        <ele>2370.2</ele>
        <time>2022-07-17T11:00:51Z</time>
      </trkpt>
      <trkpt lat="45.06923" lon="6.41033">
        <ele>2370.2</ele>
        <time>2022-07-17T11:00:52Z</time>
      </trkpt>
      <trkpt lat="45.06924" lon="6.4103">
        <ele>2370.6</ele>
        <time>2022-07-17T11:00:53Z</time>
      </trkpt>
      <trkpt lat="45.06924" lon="6.41027">
        <ele>2370.6</ele>
        <time>2022-07-17T11:00:54Z</time>
      </trkpt>
      <trkpt lat="45.06925" lon="6.41024">
        <ele>2370.8</ele>
        <time>2022-07-17T11:00:55Z</time>
      </trkpt>
      <trkpt lat="45.06926" lon="6.41022">
        <ele>2370.8</ele>
        <time>2022-07-17T11:00:56Z</time>
      </trkpt>
      <trkpt lat="45.06927" lon="6.41019">
        <ele>2371</ele>
        <time>2022-07-17T11:00:57Z</time>
      </trkpt>
      <trkpt lat="45.06927" lon="6.41016">
        <ele>2371</ele>
        <time>2022-07-17T11:00:58Z</time>
      </trkpt>
      <trkpt lat="45.06928" lon="6.41014">
        <ele>2371.4</ele>
        <time>2022-07-17T11:00:59Z</time>
      </trkpt>
      <trkpt lat="45.06929" lon="6.41011">
        <ele>2371.4</ele>
        <time>2022-07-17T11:01:00Z</time>
      </trkpt>
      <trkpt lat="45.0693" lon="6.41008">
        <ele>2371.6</ele>
        <time>2022-07-17T11:01:01Z</time>
      </trkpt>
      <trkpt lat="45.06931" lon="6.41006">
        <ele>2371.6</ele>
        <time>2022-07-17T11:01:02Z</time>
      </trkpt>
      <trkpt lat="45.06931" lon="6.41003">
        <ele>2372</ele>
        <time>2022-07-17T11:01:03Z</time>
      </trkpt>
      <trkpt lat="45.06932" lon="6.41">
        <ele>2372</ele>
        <time>2022-07-17T11:01:04Z</time>
      </trkpt>
      <trkpt lat="45.06932" lon="6.40997">
        <ele>2372.2</ele>
        <time>2022-07-17T11:01:05Z</time>
      </trkpt>
      <trkpt lat="45.06931" lon="6.40995">
        <ele>2372.2</ele>
        <time>2022-07-17T11:01:06Z</time>
      </trkpt>
      <trkpt lat="45.06931" lon="6.40989">
        <ele>2372.6</ele>
        <time>2022-07-17T11:01:07Z</time>
      </trkpt>
      <trkpt lat="45.06931" lon="6.40987">
        <ele>2372.8</ele>
        <time>2022-07-17T11:01:08Z</time>
      </trkpt>
      <trkpt lat="45.06931" lon="6.40985">
        <ele>2372.8</ele>
        <time>2022-07-17T11:01:09Z</time>
      </trkpt>
      <trkpt lat="45.0693" lon="6.40982">
        <ele>2373</ele>
        <time>2022-07-17T11:01:10Z</time>
      </trkpt>
      <trkpt lat="45.06929" lon="6.4098">
        <ele>2373</ele>
        <time>2022-07-17T11:01:11Z</time>
      </trkpt>
      <trkpt lat="45.06929" lon="6.40978">
        <ele>2373.2</ele>
        <time>2022-07-17T11:01:12Z</time>
      </trkpt>
      <trkpt lat="45.06927" lon="6.40976">
        <ele>2373.2</ele>
        <time>2022-07-17T11:01:13Z</time>
      </trkpt>
      <trkpt lat="45.06926" lon="6.40975">
        <ele>2373.6</ele>
        <time>2022-07-17T11:01:14Z</time>
      </trkpt>
      <trkpt lat="45.06924" lon="6.40974">
        <ele>2373.6</ele>
        <time>2022-07-17T11:01:15Z</time>
      </trkpt>
      <trkpt lat="45.06923" lon="6.40973">
        <ele>2373.8</ele>
        <time>2022-07-17T11:01:16Z</time>
      </trkpt>
      <trkpt lat="45.06921" lon="6.40972">
        <ele>2373.8</ele>
        <time>2022-07-17T11:01:17Z</time>
      </trkpt>
      <trkpt lat="45.06919" lon="6.40972">
        <ele>2374.2</ele>
        <time>2022-07-17T11:01:18Z</time>
      </trkpt>
      <trkpt lat="45.06917" lon="6.40972">
        <ele>2374.2</ele>
        <time>2022-07-17T11:01:19Z</time>
      </trkpt>
      <trkpt lat="45.06916" lon="6.40972">
        <ele>2374.4</ele>
        <time>2022-07-17T11:01:20Z</time>
      </trkpt>
      <trkpt lat="45.06914" lon="6.40973">
        <ele>2374.4</ele>
        <time>2022-07-17T11:01:21Z</time>
      </trkpt>
      <trkpt lat="45.06912" lon="6.40974">
        <ele>2374.8</ele>
        <time>2022-07-17T11:01:22Z</time>
      </trkpt>
      <trkpt lat="45.06911" lon="6.40976">
        <ele>2374.8</ele>
        <time>2022-07-17T11:01:23Z</time>
      </trkpt>
      <trkpt lat="45.06909" lon="6.40977">
        <ele>2375</ele>
        <time>2022-07-17T11:01:24Z</time>
      </trkpt>
      <trkpt lat="45.06908" lon="6.40979">
        <ele>2375</ele>
        <time>2022-07-17T11:01:25Z</time>
      </trkpt>
      <trkpt lat="45.06906" lon="6.40981">
        <ele>2375.2</ele>
        <time>2022-07-17T11:01:26Z</time>
      </trkpt>
      <trkpt lat="45.06905" lon="6.40982">
        <ele>2375.2</ele>
        <time>2022-07-17T11:01:27Z</time>
      </trkpt>
      <trkpt lat="45.06903" lon="6.40984">
        <ele>2375.4</ele>
        <time>2022-07-17T11:01:28Z</time>
      </trkpt>
      <trkpt lat="45.06902" lon="6.40985">
        <ele>2375.4</ele>
        <time>2022-07-17T11:01:29Z</time>
      </trkpt>
      <trkpt lat="45.069" lon="6.40987">
        <ele>2375.8</ele>
        <time>2022-07-17T11:01:30Z</time>
      </trkpt>
      <trkpt lat="45.06899" lon="6.40988">
        <ele>2375.8</ele>
        <time>2022-07-17T11:01:31Z</time>
      </trkpt>
      <trkpt lat="45.06897" lon="6.40989">
        <ele>2376.2</ele>
        <time>2022-07-17T11:01:32Z</time>
      </trkpt>
      <trkpt lat="45.06896" lon="6.4099">
        <ele>2376.2</ele>
        <time>2022-07-17T11:01:33Z</time>
      </trkpt>
      <trkpt lat="45.06894" lon="6.40992">
        <ele>2376.4</ele>
        <time>2022-07-17T11:01:34Z</time>
      </trkpt>
      <trkpt lat="45.06892" lon="6.40992">
        <ele>2376.4</ele>
        <time>2022-07-17T11:01:35Z</time>
      </trkpt>
      <trkpt lat="45.06891" lon="6.40993">
        <ele>2376.8</ele>
        <time>2022-07-17T11:01:36Z</time>
      </trkpt>
      <trkpt lat="45.06889" lon="6.40993">
        <ele>2376.8</ele>
        <time>2022-07-17T11:01:37Z</time>
      </trkpt>
      <trkpt lat="45.06887" lon="6.40993">
        <ele>2377.2</ele>
        <time>2022-07-17T11:01:38Z</time>
      </trkpt>
      <trkpt lat="45.06885" lon="6.40993">
        <ele>2377.2</ele>
        <time>2022-07-17T11:01:39Z</time>
      </trkpt>
      <trkpt lat="45.06883" lon="6.40993">
        <ele>2377.6</ele>
        <time>2022-07-17T11:01:40Z</time>
      </trkpt>
      <trkpt lat="45.06882" lon="6.40993">
        <ele>2377.6</ele>
        <time>2022-07-17T11:01:41Z</time>
      </trkpt>
      <trkpt lat="45.0688" lon="6.40994">
        <ele>2378</ele>
        <time>2022-07-17T11:01:42Z</time>
      </trkpt>
      <trkpt lat="45.06878" lon="6.40994">
        <ele>2378</ele>
        <time>2022-07-17T11:01:43Z</time>
      </trkpt>
      <trkpt lat="45.06877" lon="6.40994">
        <ele>2378.2</ele>
        <time>2022-07-17T11:01:44Z</time>
      </trkpt>
      <trkpt lat="45.06875" lon="6.40995">
        <ele>2378.2</ele>
        <time>2022-07-17T11:01:45Z</time>
      </trkpt>
      <trkpt lat="45.06873" lon="6.40995">
        <ele>2378.4</ele>
        <time>2022-07-17T11:01:46Z</time>
      </trkpt>
      <trkpt lat="45.06871" lon="6.40995">
        <ele>2378.6</ele>
        <time>2022-07-17T11:01:47Z</time>
      </trkpt>
      <trkpt lat="45.06869" lon="6.40996">
        <ele>2378.6</ele>
        <time>2022-07-17T11:01:48Z</time>
      </trkpt>
      <trkpt lat="45.06867" lon="6.40996">
        <ele>2379</ele>
        <time>2022-07-17T11:01:49Z</time>
      </trkpt>
      <trkpt lat="45.06866" lon="6.40997">
        <ele>2379.2</ele>
        <time>2022-07-17T11:01:50Z</time>
      </trkpt>
      <trkpt lat="45.06864" lon="6.40997">
        <ele>2379.2</ele>
        <time>2022-07-17T11:01:51Z</time>
      </trkpt>
      <trkpt lat="45.06862" lon="6.40998">
        <ele>2379.4</ele>
        <time>2022-07-17T11:01:52Z</time>
      </trkpt>
      <trkpt lat="45.06861" lon="6.40998">
        <ele>2379.4</ele>
        <time>2022-07-17T11:01:53Z</time>
      </trkpt>
      <trkpt lat="45.06859" lon="6.40999">
        <ele>2379.8</ele>
        <time>2022-07-17T11:01:55Z</time>
      </trkpt>
      <trkpt lat="45.06857" lon="6.40999">
        <ele>2380</ele>
        <time>2022-07-17T11:01:56Z</time>
      </trkpt>
      <trkpt lat="45.06856" lon="6.41">
        <ele>2380.2</ele>
        <time>2022-07-17T11:01:57Z</time>
      </trkpt>
      <trkpt lat="45.06854" lon="6.41">
        <ele>2380.2</ele>
        <time>2022-07-17T11:01:58Z</time>
      </trkpt>
      <trkpt lat="45.06852" lon="6.41001">
        <ele>2380.6</ele>
        <time>2022-07-17T11:01:59Z</time>
      </trkpt>
      <trkpt lat="45.06851" lon="6.41002">
        <ele>2380.8</ele>
        <time>2022-07-17T11:02:00Z</time>
      </trkpt>
      <trkpt lat="45.06849" lon="6.41003">
        <ele>2380.8</ele>
        <time>2022-07-17T11:02:01Z</time>
      </trkpt>
      <trkpt lat="45.06847" lon="6.41004">
        <ele>2381</ele>
        <time>2022-07-17T11:02:02Z</time>
      </trkpt>
      <trkpt lat="45.06846" lon="6.41005">
        <ele>2381</ele>
        <time>2022-07-17T11:02:03Z</time>
      </trkpt>
      <trkpt lat="45.06844" lon="6.41006">
        <ele>2381.4</ele>
        <time>2022-07-17T11:02:04Z</time>
      </trkpt>
      <trkpt lat="45.06843" lon="6.41007">
        <ele>2381.4</ele>
        <time>2022-07-17T11:02:05Z</time>
      </trkpt>
      <trkpt lat="45.06841" lon="6.41009">
        <ele>2381.8</ele>
        <time>2022-07-17T11:02:06Z</time>
      </trkpt>
      <trkpt lat="45.0684" lon="6.4101">
        <ele>2381.8</ele>
        <time>2022-07-17T11:02:07Z</time>
      </trkpt>
      <trkpt lat="45.06839" lon="6.41012">
        <ele>2382</ele>
        <time>2022-07-17T11:02:08Z</time>
      </trkpt>
      <trkpt lat="45.06838" lon="6.41013">
        <ele>2382.2</ele>
        <time>2022-07-17T11:02:09Z</time>
      </trkpt>
      <trkpt lat="45.06836" lon="6.41015">
        <ele>2382.2</ele>
        <time>2022-07-17T11:02:10Z</time>
      </trkpt>
      <trkpt lat="45.06835" lon="6.41016">
        <ele>2382.6</ele>
        <time>2022-07-17T11:02:11Z</time>
      </trkpt>
      <trkpt lat="45.06834" lon="6.41018">
        <ele>2382.6</ele>
        <time>2022-07-17T11:02:12Z</time>
      </trkpt>
      <trkpt lat="45.06832" lon="6.41019">
        <ele>2383</ele>
        <time>2022-07-17T11:02:13Z</time>
      </trkpt>
      <trkpt lat="45.06831" lon="6.41021">
        <ele>2383</ele>
        <time>2022-07-17T11:02:14Z</time>
      </trkpt>
      <trkpt lat="45.0683" lon="6.41023">
        <ele>2383.2</ele>
        <time>2022-07-17T11:02:15Z</time>
      </trkpt>
      <trkpt lat="45.06829" lon="6.41025">
        <ele>2383.2</ele>
        <time>2022-07-17T11:02:16Z</time>
      </trkpt>
      <trkpt lat="45.06827" lon="6.41027">
        <ele>2383.6</ele>
        <time>2022-07-17T11:02:17Z</time>
      </trkpt>
      <trkpt lat="45.06826" lon="6.41028">
        <ele>2383.6</ele>
        <time>2022-07-17T11:02:18Z</time>
      </trkpt>
      <trkpt lat="45.06825" lon="6.4103">
        <ele>2384</ele>
        <time>2022-07-17T11:02:19Z</time>
      </trkpt>
      <trkpt lat="45.06824" lon="6.41032">
        <ele>2384.2</ele>
        <time>2022-07-17T11:02:20Z</time>
      </trkpt>
      <trkpt lat="45.06823" lon="6.41034">
        <ele>2384.2</ele>
        <time>2022-07-17T11:02:21Z</time>
      </trkpt>
      <trkpt lat="45.06822" lon="6.41036">
        <ele>2384.4</ele>
        <time>2022-07-17T11:02:22Z</time>
      </trkpt>
      <trkpt lat="45.06821" lon="6.41039">
        <ele>2384.8</ele>
        <time>2022-07-17T11:02:23Z</time>
      </trkpt>
      <trkpt lat="45.06821" lon="6.41041">
        <ele>2384.8</ele>
        <time>2022-07-17T11:02:24Z</time>
      </trkpt>
      <trkpt lat="45.0682" lon="6.41044">
        <ele>2385</ele>
        <time>2022-07-17T11:02:25Z</time>
      </trkpt>
      <trkpt lat="45.0682" lon="6.41046">
        <ele>2385</ele>
        <time>2022-07-17T11:02:26Z</time>
      </trkpt>
      <trkpt lat="45.0682" lon="6.41049">
        <ele>2385.2</ele>
        <time>2022-07-17T11:02:27Z</time>
      </trkpt>
      <trkpt lat="45.0682" lon="6.41052">
        <ele>2385.2</ele>
        <time>2022-07-17T11:02:28Z</time>
      </trkpt>
      <trkpt lat="45.0682" lon="6.41054">
        <ele>2385.6</ele>
        <time>2022-07-17T11:02:29Z</time>
      </trkpt>
      <trkpt lat="45.0682" lon="6.41057">
        <ele>2385.6</ele>
        <time>2022-07-17T11:02:30Z</time>
      </trkpt>
      <trkpt lat="45.06821" lon="6.4106">
        <ele>2385.8</ele>
        <time>2022-07-17T11:02:31Z</time>
      </trkpt>
      <trkpt lat="45.06821" lon="6.41063">
        <ele>2385.8</ele>
        <time>2022-07-17T11:02:32Z</time>
      </trkpt>
      <trkpt lat="45.06821" lon="6.41066">
        <ele>2386</ele>
        <time>2022-07-17T11:02:33Z</time>
      </trkpt>
      <trkpt lat="45.06821" lon="6.41068">
        <ele>2386</ele>
        <time>2022-07-17T11:02:34Z</time>
      </trkpt>
      <trkpt lat="45.06821" lon="6.41071">
        <ele>2386.4</ele>
        <time>2022-07-17T11:02:35Z</time>
      </trkpt>
      <trkpt lat="45.06821" lon="6.41074">
        <ele>2386.4</ele>
        <time>2022-07-17T11:02:36Z</time>
      </trkpt>
      <trkpt lat="45.06821" lon="6.41077">
        <ele>2386.6</ele>
        <time>2022-07-17T11:02:37Z</time>
      </trkpt>
      <trkpt lat="45.0682" lon="6.4108">
        <ele>2386.6</ele>
        <time>2022-07-17T11:02:38Z</time>
      </trkpt>
      <trkpt lat="45.0682" lon="6.41083">
        <ele>2386.6</ele>
        <time>2022-07-17T11:02:39Z</time>
      </trkpt>
      <trkpt lat="45.06819" lon="6.41085">
        <ele>2387</ele>
        <time>2022-07-17T11:02:40Z</time>
      </trkpt>
      <trkpt lat="45.06817" lon="6.41087">
        <ele>2387</ele>
        <time>2022-07-17T11:02:41Z</time>
      </trkpt>
      <trkpt lat="45.06816" lon="6.41089">
        <ele>2387.4</ele>
        <time>2022-07-17T11:02:42Z</time>
      </trkpt>
      <trkpt lat="45.06814" lon="6.4109">
        <ele>2387.6</ele>
        <time>2022-07-17T11:02:43Z</time>
      </trkpt>
      <trkpt lat="45.06812" lon="6.4109">
        <ele>2387.6</ele>
        <time>2022-07-17T11:02:44Z</time>
      </trkpt>
      <trkpt lat="45.0681" lon="6.4109">
        <ele>2388</ele>
        <time>2022-07-17T11:02:45Z</time>
      </trkpt>
      <trkpt lat="45.06808" lon="6.41089">
        <ele>2388</ele>
        <time>2022-07-17T11:02:46Z</time>
      </trkpt>
      <trkpt lat="45.06806" lon="6.41088">
        <ele>2388.2</ele>
        <time>2022-07-17T11:02:47Z</time>
      </trkpt>
      <trkpt lat="45.06804" lon="6.41086">
        <ele>2388.2</ele>
        <time>2022-07-17T11:02:48Z</time>
      </trkpt>
      <trkpt lat="45.06803" lon="6.41084">
        <ele>2388.4</ele>
        <time>2022-07-17T11:02:49Z</time>
      </trkpt>
      <trkpt lat="45.06802" lon="6.41081">
        <ele>2388.4</ele>
        <time>2022-07-17T11:02:50Z</time>
      </trkpt>
      <trkpt lat="45.06802" lon="6.41078">
        <ele>2388.6</ele>
        <time>2022-07-17T11:02:51Z</time>
      </trkpt>
      <trkpt lat="45.06802" lon="6.41075">
        <ele>2388.6</ele>
        <time>2022-07-17T11:02:52Z</time>
      </trkpt>
      <trkpt lat="45.06802" lon="6.41073">
        <ele>2389</ele>
        <time>2022-07-17T11:02:53Z</time>
      </trkpt>
      <trkpt lat="45.06802" lon="6.4107">
        <ele>2389</ele>
        <time>2022-07-17T11:02:54Z</time>
      </trkpt>
      <trkpt lat="45.06802" lon="6.41067">
        <ele>2389.2</ele>
        <time>2022-07-17T11:02:55Z</time>
      </trkpt>
      <trkpt lat="45.06802" lon="6.41065">
        <ele>2389.2</ele>
        <time>2022-07-17T11:02:56Z</time>
      </trkpt>
      <trkpt lat="45.06803" lon="6.41062">
        <ele>2389.6</ele>
        <time>2022-07-17T11:02:57Z</time>
      </trkpt>
      <trkpt lat="45.06803" lon="6.41059">
        <ele>2389.6</ele>
        <time>2022-07-17T11:02:58Z</time>
      </trkpt>
      <trkpt lat="45.06803" lon="6.41057">
        <ele>2389.8</ele>
        <time>2022-07-17T11:02:59Z</time>
      </trkpt>
      <trkpt lat="45.06803" lon="6.41054">
        <ele>2390</ele>
        <time>2022-07-17T11:03:00Z</time>
      </trkpt>
      <trkpt lat="45.06804" lon="6.41052">
        <ele>2390</ele>
        <time>2022-07-17T11:03:01Z</time>
      </trkpt>
      <trkpt lat="45.06804" lon="6.41049">
        <ele>2390.4</ele>
        <time>2022-07-17T11:03:02Z</time>
      </trkpt>
      <trkpt lat="45.06804" lon="6.41047">
        <ele>2390.6</ele>
        <time>2022-07-17T11:03:03Z</time>
      </trkpt>
      <trkpt lat="45.06805" lon="6.41044">
        <ele>2390.8</ele>
        <time>2022-07-17T11:03:04Z</time>
      </trkpt>
      <trkpt lat="45.06805" lon="6.41042">
        <ele>2390.8</ele>
        <time>2022-07-17T11:03:05Z</time>
      </trkpt>
      <trkpt lat="45.06805" lon="6.41039">
        <ele>2391.2</ele>
        <time>2022-07-17T11:03:06Z</time>
      </trkpt>
      <trkpt lat="45.06806" lon="6.41037">
        <ele>2391.2</ele>
        <time>2022-07-17T11:03:07Z</time>
      </trkpt>
      <trkpt lat="45.06806" lon="6.41034">
        <ele>2391.6</ele>
        <time>2022-07-17T11:03:08Z</time>
      </trkpt>
      <trkpt lat="45.06806" lon="6.41031">
        <ele>2391.6</ele>
        <time>2022-07-17T11:03:09Z</time>
      </trkpt>
      <trkpt lat="45.06806" lon="6.41029">
        <ele>2391.6</ele>
        <time>2022-07-17T11:03:10Z</time>
      </trkpt>
      <trkpt lat="45.06807" lon="6.41026">
        <ele>2391.8</ele>
        <time>2022-07-17T11:03:11Z</time>
      </trkpt>
      <trkpt lat="45.06807" lon="6.41024">
        <ele>2391.8</ele>
        <time>2022-07-17T11:03:12Z</time>
      </trkpt>
      <trkpt lat="45.06807" lon="6.41021">
        <ele>2392</ele>
        <time>2022-07-17T11:03:13Z</time>
      </trkpt>
      <trkpt lat="45.06807" lon="6.41019">
        <ele>2392</ele>
        <time>2022-07-17T11:03:14Z</time>
      </trkpt>
      <trkpt lat="45.06808" lon="6.41016">
        <ele>2392.4</ele>
        <time>2022-07-17T11:03:15Z</time>
      </trkpt>
      <trkpt lat="45.06808" lon="6.41013">
        <ele>2392.4</ele>
        <time>2022-07-17T11:03:16Z</time>
      </trkpt>
      <trkpt lat="45.06808" lon="6.41011">
        <ele>2392.6</ele>
        <time>2022-07-17T11:03:17Z</time>
      </trkpt>
      <trkpt lat="45.06808" lon="6.41008">
        <ele>2392.6</ele>
        <time>2022-07-17T11:03:18Z</time>
      </trkpt>
      <trkpt lat="45.06808" lon="6.41006">
        <ele>2393</ele>
        <time>2022-07-17T11:03:19Z</time>
      </trkpt>
      <trkpt lat="45.06808" lon="6.41004">
        <ele>2393</ele>
        <time>2022-07-17T11:03:20Z</time>
      </trkpt>
      <trkpt lat="45.06809" lon="6.41001">
        <ele>2393.2</ele>
        <time>2022-07-17T11:03:21Z</time>
      </trkpt>
      <trkpt lat="45.06809" lon="6.40998">
        <ele>2393.2</ele>
        <time>2022-07-17T11:03:22Z</time>
      </trkpt>
      <trkpt lat="45.06809" lon="6.40996">
        <ele>2393.6</ele>
        <time>2022-07-17T11:03:23Z</time>
      </trkpt>
      <trkpt lat="45.06809" lon="6.40993">
        <ele>2393.6</ele>
        <time>2022-07-17T11:03:24Z</time>
      </trkpt>
      <trkpt lat="45.06809" lon="6.40991">
        <ele>2394</ele>
        <time>2022-07-17T11:03:25Z</time>
      </trkpt>
      <trkpt lat="45.06809" lon="6.40989">
        <ele>2394.2</ele>
        <time>2022-07-17T11:03:26Z</time>
      </trkpt>
      <trkpt lat="45.06809" lon="6.40986">
        <ele>2394.2</ele>
        <time>2022-07-17T11:03:27Z</time>
      </trkpt>
      <trkpt lat="45.06809" lon="6.40984">
        <ele>2394.4</ele>
        <time>2022-07-17T11:03:28Z</time>
      </trkpt>
      <trkpt lat="45.06809" lon="6.40982">
        <ele>2394.4</ele>
        <time>2022-07-17T11:03:29Z</time>
      </trkpt>
      <trkpt lat="45.0681" lon="6.40979">
        <ele>2394.6</ele>
        <time>2022-07-17T11:03:30Z</time>
      </trkpt>
      <trkpt lat="45.0681" lon="6.40977">
        <ele>2395</ele>
        <time>2022-07-17T11:03:31Z</time>
      </trkpt>
      <trkpt lat="45.0681" lon="6.40975">
        <ele>2395</ele>
        <time>2022-07-17T11:03:32Z</time>
      </trkpt>
      <trkpt lat="45.0681" lon="6.40973">
        <ele>2395.2</ele>
        <time>2022-07-17T11:03:33Z</time>
      </trkpt>
      <trkpt lat="45.06811" lon="6.4097">
        <ele>2395.4</ele>
        <time>2022-07-17T11:03:34Z</time>
      </trkpt>
      <trkpt lat="45.06811" lon="6.40968">
        <ele>2395.6</ele>
        <time>2022-07-17T11:03:35Z</time>
      </trkpt>
      <trkpt lat="45.06811" lon="6.40966">
        <ele>2395.6</ele>
        <time>2022-07-17T11:03:36Z</time>
      </trkpt>
      <trkpt lat="45.06811" lon="6.40964">
        <ele>2396</ele>
        <time>2022-07-17T11:03:37Z</time>
      </trkpt>
      <trkpt lat="45.06811" lon="6.40961">
        <ele>2396</ele>
        <time>2022-07-17T11:03:38Z</time>
      </trkpt>
      <trkpt lat="45.06812" lon="6.40959">
        <ele>2396.2</ele>
        <time>2022-07-17T11:03:39Z</time>
      </trkpt>
      <trkpt lat="45.06812" lon="6.40956">
        <ele>2396.2</ele>
        <time>2022-07-17T11:03:40Z</time>
      </trkpt>
      <trkpt lat="45.06812" lon="6.40953">
        <ele>2396.4</ele>
        <time>2022-07-17T11:03:41Z</time>
      </trkpt>
      <trkpt lat="45.06813" lon="6.40951">
        <ele>2396.4</ele>
        <time>2022-07-17T11:03:42Z</time>
      </trkpt>
      <trkpt lat="45.06814" lon="6.40949">
        <ele>2396.8</ele>
        <time>2022-07-17T11:03:43Z</time>
      </trkpt>
      <trkpt lat="45.06815" lon="6.40946">
        <ele>2396.8</ele>
        <time>2022-07-17T11:03:44Z</time>
      </trkpt>
      <trkpt lat="45.06815" lon="6.40944">
        <ele>2397</ele>
        <time>2022-07-17T11:03:45Z</time>
      </trkpt>
      <trkpt lat="45.06817" lon="6.40943">
        <ele>2397</ele>
        <time>2022-07-17T11:03:46Z</time>
      </trkpt>
      <trkpt lat="45.06818" lon="6.40941">
        <ele>2397.2</ele>
        <time>2022-07-17T11:03:47Z</time>
      </trkpt>
      <trkpt lat="45.06819" lon="6.4094">
        <ele>2397.6</ele>
        <time>2022-07-17T11:03:48Z</time>
      </trkpt>
      <trkpt lat="45.06821" lon="6.40938">
        <ele>2397.8</ele>
        <time>2022-07-17T11:03:49Z</time>
      </trkpt>
      <trkpt lat="45.06823" lon="6.40937">
        <ele>2397.8</ele>
        <time>2022-07-17T11:03:50Z</time>
      </trkpt>
      <trkpt lat="45.06824" lon="6.40936">
        <ele>2398</ele>
        <time>2022-07-17T11:03:51Z</time>
      </trkpt>
      <trkpt lat="45.06826" lon="6.40935">
        <ele>2398</ele>
        <time>2022-07-17T11:03:52Z</time>
      </trkpt>
      <trkpt lat="45.06828" lon="6.40934">
        <ele>2398.2</ele>
        <time>2022-07-17T11:03:53Z</time>
      </trkpt>
      <trkpt lat="45.0683" lon="6.40933">
        <ele>2398.2</ele>
        <time>2022-07-17T11:03:54Z</time>
      </trkpt>
      <trkpt lat="45.06832" lon="6.40933">
        <ele>2398.4</ele>
        <time>2022-07-17T11:03:55Z</time>
      </trkpt>
      <trkpt lat="45.06834" lon="6.40933">
        <ele>2398.4</ele>
        <time>2022-07-17T11:03:56Z</time>
      </trkpt>
      <trkpt lat="45.06836" lon="6.40933">
        <ele>2398.6</ele>
        <time>2022-07-17T11:03:57Z</time>
      </trkpt>
      <trkpt lat="45.06838" lon="6.40932">
        <ele>2398.6</ele>
        <time>2022-07-17T11:03:58Z</time>
      </trkpt>
      <trkpt lat="45.0684" lon="6.40932">
        <ele>2399</ele>
        <time>2022-07-17T11:03:59Z</time>
      </trkpt>
      <trkpt lat="45.06842" lon="6.40932">
        <ele>2399</ele>
        <time>2022-07-17T11:04:00Z</time>
      </trkpt>
      <trkpt lat="45.06844" lon="6.40932">
        <ele>2399.4</ele>
        <time>2022-07-17T11:04:01Z</time>
      </trkpt>
      <trkpt lat="45.06846" lon="6.40931">
        <ele>2399.4</ele>
        <time>2022-07-17T11:04:02Z</time>
      </trkpt>
      <trkpt lat="45.06848" lon="6.40931">
        <ele>2399.6</ele>
        <time>2022-07-17T11:04:03Z</time>
      </trkpt>
      <trkpt lat="45.0685" lon="6.4093">
        <ele>2399.6</ele>
        <time>2022-07-17T11:04:04Z</time>
      </trkpt>
      <trkpt lat="45.06851" lon="6.40929">
        <ele>2399.8</ele>
        <time>2022-07-17T11:04:05Z</time>
      </trkpt>
      <trkpt lat="45.06853" lon="6.40928">
        <ele>2399.8</ele>
        <time>2022-07-17T11:04:06Z</time>
      </trkpt>
      <trkpt lat="45.06854" lon="6.40927">
        <ele>2400.2</ele>
        <time>2022-07-17T11:04:07Z</time>
      </trkpt>
      <trkpt lat="45.06856" lon="6.40925">
        <ele>2400.2</ele>
        <time>2022-07-17T11:04:08Z</time>
      </trkpt>
      <trkpt lat="45.06857" lon="6.40924">
        <ele>2400.6</ele>
        <time>2022-07-17T11:04:09Z</time>
      </trkpt>
      <trkpt lat="45.06859" lon="6.40922">
        <ele>2400.6</ele>
        <time>2022-07-17T11:04:10Z</time>
      </trkpt>
      <trkpt lat="45.0686" lon="6.4092">
        <ele>2400.8</ele>
        <time>2022-07-17T11:04:11Z</time>
      </trkpt>
      <trkpt lat="45.06861" lon="6.40918">
        <ele>2400.8</ele>
        <time>2022-07-17T11:04:12Z</time>
      </trkpt>
      <trkpt lat="45.06862" lon="6.40915">
        <ele>2401.2</ele>
        <time>2022-07-17T11:04:13Z</time>
      </trkpt>
      <trkpt lat="45.06863" lon="6.40913">
        <ele>2401.2</ele>
        <time>2022-07-17T11:04:14Z</time>
      </trkpt>
      <trkpt lat="45.06864" lon="6.4091">
        <ele>2401.4</ele>
        <time>2022-07-17T11:04:15Z</time>
      </trkpt>
      <trkpt lat="45.06865" lon="6.40908">
        <ele>2401.4</ele>
        <time>2022-07-17T11:04:16Z</time>
      </trkpt>
      <trkpt lat="45.06866" lon="6.40905">
        <ele>2401.8</ele>
        <time>2022-07-17T11:04:17Z</time>
      </trkpt>
      <trkpt lat="45.06866" lon="6.40903">
        <ele>2401.8</ele>
        <time>2022-07-17T11:04:18Z</time>
      </trkpt>
      <trkpt lat="45.06866" lon="6.409">
        <ele>2402.2</ele>
        <time>2022-07-17T11:04:19Z</time>
      </trkpt>
      <trkpt lat="45.06866" lon="6.40897">
        <ele>2402.4</ele>
        <time>2022-07-17T11:04:20Z</time>
      </trkpt>
      <trkpt lat="45.06866" lon="6.40895">
        <ele>2402.4</ele>
        <time>2022-07-17T11:04:21Z</time>
      </trkpt>
      <trkpt lat="45.06865" lon="6.40892">
        <ele>2402.6</ele>
        <time>2022-07-17T11:04:22Z</time>
      </trkpt>
      <trkpt lat="45.06865" lon="6.4089">
        <ele>2402.6</ele>
        <time>2022-07-17T11:04:23Z</time>
      </trkpt>
      <trkpt lat="45.06864" lon="6.40887">
        <ele>2403</ele>
        <time>2022-07-17T11:04:24Z</time>
      </trkpt>
      <trkpt lat="45.06863" lon="6.40885">
        <ele>2403</ele>
        <time>2022-07-17T11:04:25Z</time>
      </trkpt>
      <trkpt lat="45.06862" lon="6.40882">
        <ele>2403.2</ele>
        <time>2022-07-17T11:04:26Z</time>
      </trkpt>
      <trkpt lat="45.06861" lon="6.4088">
        <ele>2403.2</ele>
        <time>2022-07-17T11:04:27Z</time>
      </trkpt>
      <trkpt lat="45.0686" lon="6.40878">
        <ele>2403.6</ele>
        <time>2022-07-17T11:04:28Z</time>
      </trkpt>
      <trkpt lat="45.06859" lon="6.40876">
        <ele>2403.6</ele>
        <time>2022-07-17T11:04:29Z</time>
      </trkpt>
      <trkpt lat="45.06858" lon="6.40874">
        <ele>2403.8</ele>
        <time>2022-07-17T11:04:30Z</time>
      </trkpt>
      <trkpt lat="45.06857" lon="6.40872">
        <ele>2403.8</ele>
        <time>2022-07-17T11:04:31Z</time>
      </trkpt>
      <trkpt lat="45.06855" lon="6.4087">
        <ele>2404.2</ele>
        <time>2022-07-17T11:04:32Z</time>
      </trkpt>
      <trkpt lat="45.06854" lon="6.40869">
        <ele>2404.4</ele>
        <time>2022-07-17T11:04:33Z</time>
      </trkpt>
      <trkpt lat="45.06853" lon="6.40868">
        <ele>2404.4</ele>
        <time>2022-07-17T11:04:34Z</time>
      </trkpt>
      <trkpt lat="45.06851" lon="6.40867">
        <ele>2404.6</ele>
        <time>2022-07-17T11:04:35Z</time>
      </trkpt>
      <trkpt lat="45.06849" lon="6.40866">
        <ele>2404.6</ele>
        <time>2022-07-17T11:04:36Z</time>
      </trkpt>
      <trkpt lat="45.06848" lon="6.40865">
        <ele>2405</ele>
        <time>2022-07-17T11:04:37Z</time>
      </trkpt>
      <trkpt lat="45.06846" lon="6.40863">
        <ele>2405</ele>
        <time>2022-07-17T11:04:38Z</time>
      </trkpt>
      <trkpt lat="45.06845" lon="6.40863">
        <ele>2405.2</ele>
        <time>2022-07-17T11:04:39Z</time>
      </trkpt>
      <trkpt lat="45.06843" lon="6.40862">
        <ele>2405.2</ele>
        <time>2022-07-17T11:04:40Z</time>
      </trkpt>
      <trkpt lat="45.06841" lon="6.40862">
        <ele>2405.4</ele>
        <time>2022-07-17T11:04:41Z</time>
      </trkpt>
      <trkpt lat="45.0684" lon="6.40862">
        <ele>2405.4</ele>
        <time>2022-07-17T11:04:42Z</time>
      </trkpt>
      <trkpt lat="45.06838" lon="6.40862">
        <ele>2405.4</ele>
        <time>2022-07-17T11:04:43Z</time>
      </trkpt>
      <trkpt lat="45.06837" lon="6.40862">
        <ele>2405.8</ele>
        <time>2022-07-17T11:04:44Z</time>
      </trkpt>
      <trkpt lat="45.06835" lon="6.40862">
        <ele>2405.8</ele>
        <time>2022-07-17T11:04:45Z</time>
      </trkpt>
      <trkpt lat="45.06833" lon="6.40862">
        <ele>2406</ele>
        <time>2022-07-17T11:04:46Z</time>
      </trkpt>
      <trkpt lat="45.06832" lon="6.40862">
        <ele>2406</ele>
        <time>2022-07-17T11:04:47Z</time>
      </trkpt>
      <trkpt lat="45.0683" lon="6.40863">
        <ele>2406.4</ele>
        <time>2022-07-17T11:04:48Z</time>
      </trkpt>
      <trkpt lat="45.06828" lon="6.40863">
        <ele>2406.4</ele>
        <time>2022-07-17T11:04:49Z</time>
      </trkpt>
      <trkpt lat="45.06827" lon="6.40864">
        <ele>2406.6</ele>
        <time>2022-07-17T11:04:50Z</time>
      </trkpt>
      <trkpt lat="45.06825" lon="6.40864">
        <ele>2406.6</ele>
        <time>2022-07-17T11:04:51Z</time>
      </trkpt>
      <trkpt lat="45.06823" lon="6.40865">
        <ele>2407</ele>
        <time>2022-07-17T11:04:52Z</time>
      </trkpt>
      <trkpt lat="45.06822" lon="6.40866">
        <ele>2407.2</ele>
        <time>2022-07-17T11:04:53Z</time>
      </trkpt>
      <trkpt lat="45.0682" lon="6.40866">
        <ele>2407.2</ele>
        <time>2022-07-17T11:04:54Z</time>
      </trkpt>
      <trkpt lat="45.06818" lon="6.40867">
        <ele>2407.4</ele>
        <time>2022-07-17T11:04:55Z</time>
      </trkpt>
      <trkpt lat="45.06817" lon="6.40868">
        <ele>2407.8</ele>
        <time>2022-07-17T11:04:56Z</time>
      </trkpt>
      <trkpt lat="45.06815" lon="6.40869">
        <ele>2407.8</ele>
        <time>2022-07-17T11:04:57Z</time>
      </trkpt>
      <trkpt lat="45.06814" lon="6.4087">
        <ele>2408</ele>
        <time>2022-07-17T11:04:58Z</time>
      </trkpt>
      <trkpt lat="45.06812" lon="6.4087">
        <ele>2408</ele>
        <time>2022-07-17T11:04:59Z</time>
      </trkpt>
      <trkpt lat="45.0681" lon="6.40871">
        <ele>2408.4</ele>
        <time>2022-07-17T11:05:00Z</time>
      </trkpt>
      <trkpt lat="45.06809" lon="6.40872">
        <ele>2408.4</ele>
        <time>2022-07-17T11:05:01Z</time>
      </trkpt>
      <trkpt lat="45.06807" lon="6.40873">
        <ele>2408.6</ele>
        <time>2022-07-17T11:05:02Z</time>
      </trkpt>
      <trkpt lat="45.06805" lon="6.40874">
        <ele>2408.6</ele>
        <time>2022-07-17T11:05:03Z</time>
      </trkpt>
      <trkpt lat="45.06804" lon="6.40874">
        <ele>2409</ele>
        <time>2022-07-17T11:05:04Z</time>
      </trkpt>
      <trkpt lat="45.06802" lon="6.40875">
        <ele>2409</ele>
        <time>2022-07-17T11:05:05Z</time>
      </trkpt>
      <trkpt lat="45.06801" lon="6.40876">
        <ele>2409.2</ele>
        <time>2022-07-17T11:05:06Z</time>
      </trkpt>
      <trkpt lat="45.068" lon="6.40877">
        <ele>2409.2</ele>
        <time>2022-07-17T11:05:07Z</time>
      </trkpt>
      <trkpt lat="45.06798" lon="6.40878">
        <ele>2409.6</ele>
        <time>2022-07-17T11:05:08Z</time>
      </trkpt>
      <trkpt lat="45.06796" lon="6.40878">
        <ele>2409.6</ele>
        <time>2022-07-17T11:05:09Z</time>
      </trkpt>
      <trkpt lat="45.06795" lon="6.40879">
        <ele>2409.8</ele>
        <time>2022-07-17T11:05:10Z</time>
      </trkpt>
      <trkpt lat="45.06793" lon="6.40879">
        <ele>2409.8</ele>
        <time>2022-07-17T11:05:11Z</time>
      </trkpt>
      <trkpt lat="45.06792" lon="6.4088">
        <ele>2410.2</ele>
        <time>2022-07-17T11:05:12Z</time>
      </trkpt>
      <trkpt lat="45.0679" lon="6.40881">
        <ele>2410.2</ele>
        <time>2022-07-17T11:05:13Z</time>
      </trkpt>
      <trkpt lat="45.06789" lon="6.40882">
        <ele>2410.2</ele>
        <time>2022-07-17T11:05:14Z</time>
      </trkpt>
      <trkpt lat="45.06787" lon="6.40883">
        <ele>2410.6</ele>
        <time>2022-07-17T11:05:15Z</time>
      </trkpt>
      <trkpt lat="45.06786" lon="6.40884">
        <ele>2410.6</ele>
        <time>2022-07-17T11:05:16Z</time>
      </trkpt>
      <trkpt lat="45.06784" lon="6.40885">
        <ele>2410.8</ele>
        <time>2022-07-17T11:05:17Z</time>
      </trkpt>
      <trkpt lat="45.06783" lon="6.40885">
        <ele>2410.8</ele>
        <time>2022-07-17T11:05:18Z</time>
      </trkpt>
      <trkpt lat="45.06781" lon="6.40886">
        <ele>2411.2</ele>
        <time>2022-07-17T11:05:19Z</time>
      </trkpt>
      <trkpt lat="45.0678" lon="6.40887">
        <ele>2411.4</ele>
        <time>2022-07-17T11:05:20Z</time>
      </trkpt>
      <trkpt lat="45.06778" lon="6.40888">
        <ele>2411.4</ele>
        <time>2022-07-17T11:05:21Z</time>
      </trkpt>
      <trkpt lat="45.06776" lon="6.40888">
        <ele>2411.8</ele>
        <time>2022-07-17T11:05:22Z</time>
      </trkpt>
      <trkpt lat="45.06775" lon="6.40889">
        <ele>2412</ele>
        <time>2022-07-17T11:05:23Z</time>
      </trkpt>
      <trkpt lat="45.06774" lon="6.4089">
        <ele>2412</ele>
        <time>2022-07-17T11:05:24Z</time>
      </trkpt>
      <trkpt lat="45.06772" lon="6.40891">
        <ele>2412.4</ele>
        <time>2022-07-17T11:05:25Z</time>
      </trkpt>
      <trkpt lat="45.06771" lon="6.40892">
        <ele>2412.4</ele>
        <time>2022-07-17T11:05:26Z</time>
      </trkpt>
      <trkpt lat="45.06769" lon="6.40893">
        <ele>2412.6</ele>
        <time>2022-07-17T11:05:27Z</time>
      </trkpt>
      <trkpt lat="45.06768" lon="6.40894">
        <ele>2412.6</ele>
        <time>2022-07-17T11:05:28Z</time>
      </trkpt>
      <trkpt lat="45.06766" lon="6.40895">
        <ele>2413</ele>
        <time>2022-07-17T11:05:29Z</time>
      </trkpt>
      <trkpt lat="45.06765" lon="6.40896">
        <ele>2413</ele>
        <time>2022-07-17T11:05:30Z</time>
      </trkpt>
      <trkpt lat="45.06763" lon="6.40898">
        <ele>2413.2</ele>
        <time>2022-07-17T11:05:31Z</time>
      </trkpt>
      <trkpt lat="45.06762" lon="6.40899">
        <ele>2413.2</ele>
        <time>2022-07-17T11:05:32Z</time>
      </trkpt>
      <trkpt lat="45.06761" lon="6.40901">
        <ele>2413.6</ele>
        <time>2022-07-17T11:05:33Z</time>
      </trkpt>
      <trkpt lat="45.0676" lon="6.40902">
        <ele>2413.6</ele>
        <time>2022-07-17T11:05:34Z</time>
      </trkpt>
      <trkpt lat="45.06759" lon="6.40903">
        <ele>2413.8</ele>
        <time>2022-07-17T11:05:35Z</time>
      </trkpt>
      <trkpt lat="45.06758" lon="6.40905">
        <ele>2413.8</ele>
        <time>2022-07-17T11:05:36Z</time>
      </trkpt>
      <trkpt lat="45.06757" lon="6.40907">
        <ele>2414.2</ele>
        <time>2022-07-17T11:05:37Z</time>
      </trkpt>
      <trkpt lat="45.06756" lon="6.40908">
        <ele>2414.2</ele>
        <time>2022-07-17T11:05:38Z</time>
      </trkpt>
      <trkpt lat="45.06755" lon="6.4091">
        <ele>2414.4</ele>
        <time>2022-07-17T11:05:39Z</time>
      </trkpt>
      <trkpt lat="45.06754" lon="6.40912">
        <ele>2414.4</ele>
        <time>2022-07-17T11:05:40Z</time>
      </trkpt>
      <trkpt lat="45.06754" lon="6.40913">
        <ele>2414.8</ele>
        <time>2022-07-17T11:05:41Z</time>
      </trkpt>
      <trkpt lat="45.06753" lon="6.40915">
        <ele>2414.8</ele>
        <time>2022-07-17T11:05:42Z</time>
      </trkpt>
      <trkpt lat="45.06752" lon="6.40917">
        <ele>2415</ele>
        <time>2022-07-17T11:05:43Z</time>
      </trkpt>
      <trkpt lat="45.06752" lon="6.40919">
        <ele>2415</ele>
        <time>2022-07-17T11:05:44Z</time>
      </trkpt>
      <trkpt lat="45.06751" lon="6.40921">
        <ele>2415.2</ele>
        <time>2022-07-17T11:05:45Z</time>
      </trkpt>
      <trkpt lat="45.0675" lon="6.40923">
        <ele>2415.2</ele>
        <time>2022-07-17T11:05:46Z</time>
      </trkpt>
      <trkpt lat="45.0675" lon="6.40924">
        <ele>2415.6</ele>
        <time>2022-07-17T11:05:47Z</time>
      </trkpt>
      <trkpt lat="45.0675" lon="6.40926">
        <ele>2415.8</ele>
        <time>2022-07-17T11:05:48Z</time>
      </trkpt>
      <trkpt lat="45.06749" lon="6.40928">
        <ele>2415.8</ele>
        <time>2022-07-17T11:05:49Z</time>
      </trkpt>
      <trkpt lat="45.06749" lon="6.4093">
        <ele>2416</ele>
        <time>2022-07-17T11:05:50Z</time>
      </trkpt>
      <trkpt lat="45.06748" lon="6.40932">
        <ele>2416</ele>
        <time>2022-07-17T11:05:51Z</time>
      </trkpt>
      <trkpt lat="45.06748" lon="6.40934">
        <ele>2416.4</ele>
        <time>2022-07-17T11:05:52Z</time>
      </trkpt>
      <trkpt lat="45.06748" lon="6.40936">
        <ele>2416.4</ele>
        <time>2022-07-17T11:05:53Z</time>
      </trkpt>
      <trkpt lat="45.06747" lon="6.40938">
        <ele>2416.6</ele>
        <time>2022-07-17T11:05:54Z</time>
      </trkpt>
      <trkpt lat="45.06747" lon="6.4094">
        <ele>2416.6</ele>
        <time>2022-07-17T11:05:55Z</time>
      </trkpt>
      <trkpt lat="45.06746" lon="6.40942">
        <ele>2417</ele>
        <time>2022-07-17T11:05:56Z</time>
      </trkpt>
      <trkpt lat="45.06746" lon="6.40944">
        <ele>2417</ele>
        <time>2022-07-17T11:05:57Z</time>
      </trkpt>
      <trkpt lat="45.06746" lon="6.40946">
        <ele>2417.2</ele>
        <time>2022-07-17T11:05:58Z</time>
      </trkpt>
      <trkpt lat="45.06745" lon="6.40948">
        <ele>2417.2</ele>
        <time>2022-07-17T11:05:59Z</time>
      </trkpt>
      <trkpt lat="45.06745" lon="6.4095">
        <ele>2417.6</ele>
        <time>2022-07-17T11:06:00Z</time>
      </trkpt>
      <trkpt lat="45.06744" lon="6.40953">
        <ele>2417.6</ele>
        <time>2022-07-17T11:06:01Z</time>
      </trkpt>
      <trkpt lat="45.06744" lon="6.40955">
        <ele>2417.8</ele>
        <time>2022-07-17T11:06:02Z</time>
      </trkpt>
      <trkpt lat="45.06743" lon="6.40957">
        <ele>2417.8</ele>
        <time>2022-07-17T11:06:03Z</time>
      </trkpt>
      <trkpt lat="45.06742" lon="6.40959">
        <ele>2418</ele>
        <time>2022-07-17T11:06:04Z</time>
      </trkpt>
      <trkpt lat="45.06742" lon="6.40961">
        <ele>2418</ele>
        <time>2022-07-17T11:06:05Z</time>
      </trkpt>
      <trkpt lat="45.06742" lon="6.40964">
        <ele>2418.4</ele>
        <time>2022-07-17T11:06:06Z</time>
      </trkpt>
      <trkpt lat="45.06742" lon="6.40966">
        <ele>2418.4</ele>
        <time>2022-07-17T11:06:07Z</time>
      </trkpt>
      <trkpt lat="45.06741" lon="6.40968">
        <ele>2418.6</ele>
        <time>2022-07-17T11:06:08Z</time>
      </trkpt>
      <trkpt lat="45.06741" lon="6.4097">
        <ele>2418.6</ele>
        <time>2022-07-17T11:06:09Z</time>
      </trkpt>
      <trkpt lat="45.0674" lon="6.40973">
        <ele>2419</ele>
        <time>2022-07-17T11:06:10Z</time>
      </trkpt>
      <trkpt lat="45.0674" lon="6.40975">
        <ele>2419</ele>
        <time>2022-07-17T11:06:11Z</time>
      </trkpt>
      <trkpt lat="45.06739" lon="6.40977">
        <ele>2419.2</ele>
        <time>2022-07-17T11:06:12Z</time>
      </trkpt>
      <trkpt lat="45.06739" lon="6.40979">
        <ele>2419.2</ele>
        <time>2022-07-17T11:06:13Z</time>
      </trkpt>
      <trkpt lat="45.06739" lon="6.40982">
        <ele>2419.6</ele>
        <time>2022-07-17T11:06:14Z</time>
      </trkpt>
      <trkpt lat="45.06738" lon="6.40984">
        <ele>2419.6</ele>
        <time>2022-07-17T11:06:15Z</time>
      </trkpt>
      <trkpt lat="45.06738" lon="6.40986">
        <ele>2419.8</ele>
        <time>2022-07-17T11:06:16Z</time>
      </trkpt>
      <trkpt lat="45.06738" lon="6.40988">
        <ele>2419.8</ele>
        <time>2022-07-17T11:06:17Z</time>
      </trkpt>
      <trkpt lat="45.06737" lon="6.40991">
        <ele>2420</ele>
        <time>2022-07-17T11:06:18Z</time>
      </trkpt>
      <trkpt lat="45.06737" lon="6.40993">
        <ele>2420</ele>
        <time>2022-07-17T11:06:19Z</time>
      </trkpt>
      <trkpt lat="45.06737" lon="6.40995">
        <ele>2420.4</ele>
        <time>2022-07-17T11:06:20Z</time>
      </trkpt>
      <trkpt lat="45.06736" lon="6.40997">
        <ele>2420.4</ele>
        <time>2022-07-17T11:06:21Z</time>
      </trkpt>
      <trkpt lat="45.06736" lon="6.41">
        <ele>2420.8</ele>
        <time>2022-07-17T11:06:22Z</time>
      </trkpt>
      <trkpt lat="45.06736" lon="6.41002">
        <ele>2420.8</ele>
        <time>2022-07-17T11:06:23Z</time>
      </trkpt>
      <trkpt lat="45.06735" lon="6.41004">
        <ele>2421.2</ele>
        <time>2022-07-17T11:06:24Z</time>
      </trkpt>
      <trkpt lat="45.06735" lon="6.41006">
        <ele>2421.4</ele>
        <time>2022-07-17T11:06:25Z</time>
      </trkpt>
      <trkpt lat="45.06735" lon="6.41009">
        <ele>2421.4</ele>
        <time>2022-07-17T11:06:26Z</time>
      </trkpt>
      <trkpt lat="45.06734" lon="6.41011">
        <ele>2421.8</ele>
        <time>2022-07-17T11:06:27Z</time>
      </trkpt>
      <trkpt lat="45.06734" lon="6.41013">
        <ele>2421.8</ele>
        <time>2022-07-17T11:06:28Z</time>
      </trkpt>
      <trkpt lat="45.06734" lon="6.41015">
        <ele>2422</ele>
        <time>2022-07-17T11:06:29Z</time>
      </trkpt>
      <trkpt lat="45.06734" lon="6.41017">
        <ele>2422.2</ele>
        <time>2022-07-17T11:06:30Z</time>
      </trkpt>
      <trkpt lat="45.06734" lon="6.4102">
        <ele>2422.2</ele>
        <time>2022-07-17T11:06:31Z</time>
      </trkpt>
      <trkpt lat="45.06733" lon="6.41022">
        <ele>2422.6</ele>
        <time>2022-07-17T11:06:32Z</time>
      </trkpt>
      <trkpt lat="45.06733" lon="6.41024">
        <ele>2422.6</ele>
        <time>2022-07-17T11:06:33Z</time>
      </trkpt>
      <trkpt lat="45.06733" lon="6.41027">
        <ele>2422.8</ele>
        <time>2022-07-17T11:06:34Z</time>
      </trkpt>
      <trkpt lat="45.06733" lon="6.41029">
        <ele>2422.8</ele>
        <time>2022-07-17T11:06:35Z</time>
      </trkpt>
      <trkpt lat="45.06733" lon="6.41031">
        <ele>2423.2</ele>
        <time>2022-07-17T11:06:36Z</time>
      </trkpt>
      <trkpt lat="45.06733" lon="6.41034">
        <ele>2423.2</ele>
        <time>2022-07-17T11:06:37Z</time>
      </trkpt>
      <trkpt lat="45.06733" lon="6.41036">
        <ele>2423.4</ele>
        <time>2022-07-17T11:06:38Z</time>
      </trkpt>
      <trkpt lat="45.06733" lon="6.41038">
        <ele>2423.4</ele>
        <time>2022-07-17T11:06:39Z</time>
      </trkpt>
      <trkpt lat="45.06733" lon="6.4104">
        <ele>2423.6</ele>
        <time>2022-07-17T11:06:40Z</time>
      </trkpt>
      <trkpt lat="45.06733" lon="6.41042">
        <ele>2423.6</ele>
        <time>2022-07-17T11:06:41Z</time>
      </trkpt>
      <trkpt lat="45.06733" lon="6.41044">
        <ele>2424</ele>
        <time>2022-07-17T11:06:42Z</time>
      </trkpt>
      <trkpt lat="45.06734" lon="6.41047">
        <ele>2424</ele>
        <time>2022-07-17T11:06:43Z</time>
      </trkpt>
      <trkpt lat="45.06734" lon="6.41049">
        <ele>2424.2</ele>
        <time>2022-07-17T11:06:44Z</time>
      </trkpt>
      <trkpt lat="45.06734" lon="6.41051">
        <ele>2424.2</ele>
        <time>2022-07-17T11:06:45Z</time>
      </trkpt>
      <trkpt lat="45.06734" lon="6.41054">
        <ele>2424.6</ele>
        <time>2022-07-17T11:06:46Z</time>
      </trkpt>
      <trkpt lat="45.06734" lon="6.41056">
        <ele>2424.6</ele>
        <time>2022-07-17T11:06:47Z</time>
      </trkpt>
      <trkpt lat="45.06733" lon="6.41059">
        <ele>2424.6</ele>
        <time>2022-07-17T11:06:48Z</time>
      </trkpt>
      <trkpt lat="45.06733" lon="6.41061">
        <ele>2425</ele>
        <time>2022-07-17T11:06:49Z</time>
      </trkpt>
      <trkpt lat="45.06732" lon="6.41064">
        <ele>2425</ele>
        <time>2022-07-17T11:06:50Z</time>
      </trkpt>
      <trkpt lat="45.06731" lon="6.41066">
        <ele>2425.2</ele>
        <time>2022-07-17T11:06:51Z</time>
      </trkpt>
      <trkpt lat="45.0673" lon="6.41068">
        <ele>2425.4</ele>
        <time>2022-07-17T11:06:52Z</time>
      </trkpt>
      <trkpt lat="45.06729" lon="6.4107">
        <ele>2425.4</ele>
        <time>2022-07-17T11:06:53Z</time>
      </trkpt>
      <trkpt lat="45.06728" lon="6.41071">
        <ele>2425.8</ele>
        <time>2022-07-17T11:06:54Z</time>
      </trkpt>
      <trkpt lat="45.06726" lon="6.41072">
        <ele>2425.8</ele>
        <time>2022-07-17T11:06:55Z</time>
      </trkpt>
      <trkpt lat="45.06725" lon="6.41072">
        <ele>2426</ele>
        <time>2022-07-17T11:06:56Z</time>
      </trkpt>
      <trkpt lat="45.06723" lon="6.41072">
        <ele>2426</ele>
        <time>2022-07-17T11:06:57Z</time>
      </trkpt>
      <trkpt lat="45.06721" lon="6.41072">
        <ele>2426</ele>
        <time>2022-07-17T11:06:58Z</time>
      </trkpt>
      <trkpt lat="45.06719" lon="6.41071">
        <ele>2426.2</ele>
        <time>2022-07-17T11:06:59Z</time>
      </trkpt>
      <trkpt lat="45.06718" lon="6.41069">
        <ele>2426.2</ele>
        <time>2022-07-17T11:07:00Z</time>
      </trkpt>
      <trkpt lat="45.06716" lon="6.41067">
        <ele>2426.2</ele>
        <time>2022-07-17T11:07:01Z</time>
      </trkpt>
      <trkpt lat="45.06715" lon="6.41065">
        <ele>2426.2</ele>
        <time>2022-07-17T11:07:02Z</time>
      </trkpt>
      <trkpt lat="45.06715" lon="6.41063">
        <ele>2426.4</ele>
        <time>2022-07-17T11:07:03Z</time>
      </trkpt>
      <trkpt lat="45.06714" lon="6.41061">
        <ele>2426.4</ele>
        <time>2022-07-17T11:07:04Z</time>
      </trkpt>
      <trkpt lat="45.06713" lon="6.41059">
        <ele>2426.4</ele>
        <time>2022-07-17T11:07:05Z</time>
      </trkpt>
      <trkpt lat="45.06713" lon="6.41056">
        <ele>2426.8</ele>
        <time>2022-07-17T11:07:06Z</time>
      </trkpt>
      <trkpt lat="45.06712" lon="6.41054">
        <ele>2426.8</ele>
        <time>2022-07-17T11:07:07Z</time>
      </trkpt>
      <trkpt lat="45.06712" lon="6.41052">
        <ele>2427</ele>
        <time>2022-07-17T11:07:08Z</time>
      </trkpt>
      <trkpt lat="45.06712" lon="6.4105">
        <ele>2427</ele>
        <time>2022-07-17T11:07:09Z</time>
      </trkpt>
      <trkpt lat="45.06712" lon="6.41047">
        <ele>2427.4</ele>
        <time>2022-07-17T11:07:10Z</time>
      </trkpt>
      <trkpt lat="45.06711" lon="6.41045">
        <ele>2427.4</ele>
        <time>2022-07-17T11:07:11Z</time>
      </trkpt>
      <trkpt lat="45.06711" lon="6.41042">
        <ele>2427.4</ele>
        <time>2022-07-17T11:07:12Z</time>
      </trkpt>
      <trkpt lat="45.06711" lon="6.4104">
        <ele>2427.4</ele>
        <time>2022-07-17T11:07:13Z</time>
      </trkpt>
      <trkpt lat="45.06711" lon="6.41038">
        <ele>2427.6</ele>
        <time>2022-07-17T11:07:14Z</time>
      </trkpt>
      <trkpt lat="45.06711" lon="6.41035">
        <ele>2427.6</ele>
        <time>2022-07-17T11:07:15Z</time>
      </trkpt>
      <trkpt lat="45.06711" lon="6.41033">
        <ele>2428</ele>
        <time>2022-07-17T11:07:16Z</time>
      </trkpt>
      <trkpt lat="45.06711" lon="6.4103">
        <ele>2428</ele>
        <time>2022-07-17T11:07:17Z</time>
      </trkpt>
      <trkpt lat="45.0671" lon="6.41028">
        <ele>2428.2</ele>
        <time>2022-07-17T11:07:18Z</time>
      </trkpt>
      <trkpt lat="45.0671" lon="6.41026">
        <ele>2428.2</ele>
        <time>2022-07-17T11:07:19Z</time>
      </trkpt>
      <trkpt lat="45.06709" lon="6.41023">
        <ele>2428.6</ele>
        <time>2022-07-17T11:07:20Z</time>
      </trkpt>
      <trkpt lat="45.06709" lon="6.41021">
        <ele>2428.6</ele>
        <time>2022-07-17T11:07:21Z</time>
      </trkpt>
      <trkpt lat="45.06708" lon="6.41019">
        <ele>2428.8</ele>
        <time>2022-07-17T11:07:22Z</time>
      </trkpt>
      <trkpt lat="45.06708" lon="6.41016">
        <ele>2428.8</ele>
        <time>2022-07-17T11:07:23Z</time>
      </trkpt>
      <trkpt lat="45.06707" lon="6.41014">
        <ele>2429.2</ele>
        <time>2022-07-17T11:07:24Z</time>
      </trkpt>
      <trkpt lat="45.06707" lon="6.41012">
        <ele>2429.2</ele>
        <time>2022-07-17T11:07:25Z</time>
      </trkpt>
      <trkpt lat="45.06707" lon="6.41009">
        <ele>2429.4</ele>
        <time>2022-07-17T11:07:26Z</time>
      </trkpt>
      <trkpt lat="45.06706" lon="6.41007">
        <ele>2429.4</ele>
        <time>2022-07-17T11:07:27Z</time>
      </trkpt>
      <trkpt lat="45.06706" lon="6.41005">
        <ele>2429.8</ele>
        <time>2022-07-17T11:07:28Z</time>
      </trkpt>
      <trkpt lat="45.06705" lon="6.41002">
        <ele>2429.8</ele>
        <time>2022-07-17T11:07:29Z</time>
      </trkpt>
      <trkpt lat="45.06704" lon="6.41">
        <ele>2430.2</ele>
        <time>2022-07-17T11:07:30Z</time>
      </trkpt>
      <trkpt lat="45.06704" lon="6.40998">
        <ele>2430.2</ele>
        <time>2022-07-17T11:07:31Z</time>
      </trkpt>
      <trkpt lat="45.06704" lon="6.40996">
        <ele>2430.6</ele>
        <time>2022-07-17T11:07:32Z</time>
      </trkpt>
      <trkpt lat="45.06704" lon="6.40993">
        <ele>2430.8</ele>
        <time>2022-07-17T11:07:33Z</time>
      </trkpt>
      <trkpt lat="45.06703" lon="6.40991">
        <ele>2430.8</ele>
        <time>2022-07-17T11:07:34Z</time>
      </trkpt>
      <trkpt lat="45.06703" lon="6.40988">
        <ele>2431.2</ele>
        <time>2022-07-17T11:07:35Z</time>
      </trkpt>
      <trkpt lat="45.06702" lon="6.40986">
        <ele>2431.2</ele>
        <time>2022-07-17T11:07:36Z</time>
      </trkpt>
      <trkpt lat="45.06702" lon="6.40984">
        <ele>2431.4</ele>
        <time>2022-07-17T11:07:37Z</time>
      </trkpt>
      <trkpt lat="45.06701" lon="6.40981">
        <ele>2431.4</ele>
        <time>2022-07-17T11:07:38Z</time>
      </trkpt>
      <trkpt lat="45.06701" lon="6.40979">
        <ele>2431.6</ele>
        <time>2022-07-17T11:07:39Z</time>
      </trkpt>
      <trkpt lat="45.06701" lon="6.40977">
        <ele>2431.6</ele>
        <time>2022-07-17T11:07:40Z</time>
      </trkpt>
      <trkpt lat="45.06701" lon="6.40974">
        <ele>2431.6</ele>
        <time>2022-07-17T11:07:41Z</time>
      </trkpt>
      <trkpt lat="45.067" lon="6.40972">
        <ele>2432</ele>
        <time>2022-07-17T11:07:42Z</time>
      </trkpt>
      <trkpt lat="45.067" lon="6.4097">
        <ele>2432</ele>
        <time>2022-07-17T11:07:43Z</time>
      </trkpt>
      <trkpt lat="45.067" lon="6.40967">
        <ele>2432.2</ele>
        <time>2022-07-17T11:07:44Z</time>
      </trkpt>
      <trkpt lat="45.067" lon="6.40965">
        <ele>2432.2</ele>
        <time>2022-07-17T11:07:45Z</time>
      </trkpt>
      <trkpt lat="45.067" lon="6.40962">
        <ele>2432.6</ele>
        <time>2022-07-17T11:07:46Z</time>
      </trkpt>
      <trkpt lat="45.06699" lon="6.4096">
        <ele>2432.6</ele>
        <time>2022-07-17T11:07:47Z</time>
      </trkpt>
      <trkpt lat="45.06699" lon="6.40957">
        <ele>2433</ele>
        <time>2022-07-17T11:07:48Z</time>
      </trkpt>
      <trkpt lat="45.06699" lon="6.40955">
        <ele>2433</ele>
        <time>2022-07-17T11:07:49Z</time>
      </trkpt>
      <trkpt lat="45.06699" lon="6.40953">
        <ele>2433.2</ele>
        <time>2022-07-17T11:07:50Z</time>
      </trkpt>
      <trkpt lat="45.06699" lon="6.4095">
        <ele>2433.2</ele>
        <time>2022-07-17T11:07:51Z</time>
      </trkpt>
      <trkpt lat="45.06699" lon="6.40948">
        <ele>2433.6</ele>
        <time>2022-07-17T11:07:52Z</time>
      </trkpt>
      <trkpt lat="45.06699" lon="6.40946">
        <ele>2433.6</ele>
        <time>2022-07-17T11:07:53Z</time>
      </trkpt>
      <trkpt lat="45.06699" lon="6.40944">
        <ele>2434</ele>
        <time>2022-07-17T11:07:54Z</time>
      </trkpt>
      <trkpt lat="45.06698" lon="6.40941">
        <ele>2434</ele>
        <time>2022-07-17T11:07:55Z</time>
      </trkpt>
      <trkpt lat="45.06698" lon="6.40939">
        <ele>2434</ele>
        <time>2022-07-17T11:07:56Z</time>
      </trkpt>
      <trkpt lat="45.06698" lon="6.40937">
        <ele>2434.2</ele>
        <time>2022-07-17T11:07:57Z</time>
      </trkpt>
      <trkpt lat="45.06698" lon="6.40935">
        <ele>2434.2</ele>
        <time>2022-07-17T11:07:58Z</time>
      </trkpt>
      <trkpt lat="45.06698" lon="6.40932">
        <ele>2434.6</ele>
        <time>2022-07-17T11:07:59Z</time>
      </trkpt>
      <trkpt lat="45.06698" lon="6.4093">
        <ele>2434.6</ele>
        <time>2022-07-17T11:08:00Z</time>
      </trkpt>
      <trkpt lat="45.06698" lon="6.40927">
        <ele>2434.8</ele>
        <time>2022-07-17T11:08:01Z</time>
      </trkpt>
      <trkpt lat="45.06698" lon="6.40925">
        <ele>2434.8</ele>
        <time>2022-07-17T11:08:02Z</time>
      </trkpt>
      <trkpt lat="45.06698" lon="6.40923">
        <ele>2435.2</ele>
        <time>2022-07-17T11:08:03Z</time>
      </trkpt>
      <trkpt lat="45.06698" lon="6.40921">
        <ele>2435.2</ele>
        <time>2022-07-17T11:08:04Z</time>
      </trkpt>
      <trkpt lat="45.06697" lon="6.40919">
        <ele>2435.4</ele>
        <time>2022-07-17T11:08:05Z</time>
      </trkpt>
      <trkpt lat="45.06697" lon="6.40916">
        <ele>2435.4</ele>
        <time>2022-07-17T11:08:06Z</time>
      </trkpt>
      <trkpt lat="45.06696" lon="6.40914">
        <ele>2435.8</ele>
        <time>2022-07-17T11:08:07Z</time>
      </trkpt>
      <trkpt lat="45.06696" lon="6.40912">
        <ele>2435.8</ele>
        <time>2022-07-17T11:08:08Z</time>
      </trkpt>
      <trkpt lat="45.06696" lon="6.4091">
        <ele>2436</ele>
        <time>2022-07-17T11:08:09Z</time>
      </trkpt>
      <trkpt lat="45.06695" lon="6.40908">
        <ele>2436</ele>
        <time>2022-07-17T11:08:10Z</time>
      </trkpt>
      <trkpt lat="45.06695" lon="6.40907">
        <ele>2436.2</ele>
        <time>2022-07-17T11:08:11Z</time>
      </trkpt>
      <trkpt lat="45.06694" lon="6.40905">
        <ele>2436.2</ele>
        <time>2022-07-17T11:08:12Z</time>
      </trkpt>
      <trkpt lat="45.06693" lon="6.40903">
        <ele>2436.6</ele>
        <time>2022-07-17T11:08:13Z</time>
      </trkpt>
      <trkpt lat="45.06692" lon="6.40903">
        <ele>2436.6</ele>
        <time>2022-07-17T11:08:14Z</time>
      </trkpt>
      <trkpt lat="45.0669" lon="6.40903">
        <ele>2436.8</ele>
        <time>2022-07-17T11:08:15Z</time>
      </trkpt>
      <trkpt lat="45.06689" lon="6.40904">
        <ele>2436.8</ele>
        <time>2022-07-17T11:08:16Z</time>
      </trkpt>
      <trkpt lat="45.06686" lon="6.40906">
        <ele>2437</ele>
        <time>2022-07-17T11:08:17Z</time>
      </trkpt>
      <trkpt lat="45.06685" lon="6.40908">
        <ele>2437</ele>
        <time>2022-07-17T11:08:18Z</time>
      </trkpt>
      <trkpt lat="45.06682" lon="6.4091">
        <ele>2437</ele>
        <time>2022-07-17T11:08:19Z</time>
      </trkpt>
      <trkpt lat="45.0668" lon="6.40912">
        <ele>2437</ele>
        <time>2022-07-17T11:08:20Z</time>
      </trkpt>
      <trkpt lat="45.06679" lon="6.40914">
        <ele>2437.2</ele>
        <time>2022-07-17T11:08:21Z</time>
      </trkpt>
      <trkpt lat="45.06677" lon="6.40916">
        <ele>2437.2</ele>
        <time>2022-07-17T11:08:22Z</time>
      </trkpt>
      <trkpt lat="45.06676" lon="6.40918">
        <ele>2437.4</ele>
        <time>2022-07-17T11:08:23Z</time>
      </trkpt>
      <trkpt lat="45.06674" lon="6.4092">
        <ele>2437.4</ele>
        <time>2022-07-17T11:08:24Z</time>
      </trkpt>
      <trkpt lat="45.06673" lon="6.40922">
        <ele>2437.8</ele>
        <time>2022-07-17T11:08:25Z</time>
      </trkpt>
      <trkpt lat="45.06671" lon="6.40924">
        <ele>2437.8</ele>
        <time>2022-07-17T11:08:26Z</time>
      </trkpt>
      <trkpt lat="45.0667" lon="6.40926">
        <ele>2438</ele>
        <time>2022-07-17T11:08:27Z</time>
      </trkpt>
      <trkpt lat="45.06669" lon="6.40927">
        <ele>2438</ele>
        <time>2022-07-17T11:08:28Z</time>
      </trkpt>
      <trkpt lat="45.06667" lon="6.40929">
        <ele>2438.4</ele>
        <time>2022-07-17T11:08:29Z</time>
      </trkpt>
      <trkpt lat="45.06666" lon="6.40931">
        <ele>2438.6</ele>
        <time>2022-07-17T11:08:30Z</time>
      </trkpt>
      <trkpt lat="45.06665" lon="6.40933">
        <ele>2438.6</ele>
        <time>2022-07-17T11:08:31Z</time>
      </trkpt>
      <trkpt lat="45.06664" lon="6.40935">
        <ele>2438.8</ele>
        <time>2022-07-17T11:08:32Z</time>
      </trkpt>
      <trkpt lat="45.06663" lon="6.40937">
        <ele>2438.8</ele>
        <time>2022-07-17T11:08:33Z</time>
      </trkpt>
      <trkpt lat="45.06662" lon="6.40938">
        <ele>2439.4</ele>
        <time>2022-07-17T11:08:34Z</time>
      </trkpt>
      <trkpt lat="45.06661" lon="6.4094">
        <ele>2439.4</ele>
        <time>2022-07-17T11:08:35Z</time>
      </trkpt>
      <trkpt lat="45.06659" lon="6.40942">
        <ele>2439.6</ele>
        <time>2022-07-17T11:08:36Z</time>
      </trkpt>
      <trkpt lat="45.06658" lon="6.40943">
        <ele>2439.6</ele>
        <time>2022-07-17T11:08:37Z</time>
      </trkpt>
      <trkpt lat="45.06657" lon="6.40944">
        <ele>2440</ele>
        <time>2022-07-17T11:08:38Z</time>
      </trkpt>
      <trkpt lat="45.06655" lon="6.40945">
        <ele>2440</ele>
        <time>2022-07-17T11:08:39Z</time>
      </trkpt>
      <trkpt lat="45.06654" lon="6.40947">
        <ele>2440.4</ele>
        <time>2022-07-17T11:08:40Z</time>
      </trkpt>
      <trkpt lat="45.06652" lon="6.40949">
        <ele>2440.4</ele>
        <time>2022-07-17T11:08:41Z</time>
      </trkpt>
      <trkpt lat="45.06651" lon="6.4095">
        <ele>2440.8</ele>
        <time>2022-07-17T11:08:42Z</time>
      </trkpt>
      <trkpt lat="45.0665" lon="6.40951">
        <ele>2441</ele>
        <time>2022-07-17T11:08:43Z</time>
      </trkpt>
      <trkpt lat="45.06648" lon="6.40952">
        <ele>2441.2</ele>
        <time>2022-07-17T11:08:44Z</time>
      </trkpt>
      <trkpt lat="45.06646" lon="6.40953">
        <ele>2441.6</ele>
        <time>2022-07-17T11:08:45Z</time>
      </trkpt>
      <trkpt lat="45.06644" lon="6.40953">
        <ele>2441.8</ele>
        <time>2022-07-17T11:08:46Z</time>
      </trkpt>
      <trkpt lat="45.06642" lon="6.40953">
        <ele>2441.8</ele>
        <time>2022-07-17T11:08:47Z</time>
      </trkpt>
      <trkpt lat="45.0664" lon="6.40952">
        <ele>2442.2</ele>
        <time>2022-07-17T11:08:48Z</time>
      </trkpt>
      <trkpt lat="45.06636" lon="6.40951">
        <ele>2442.2</ele>
        <time>2022-07-17T11:08:49Z</time>
      </trkpt>
      <trkpt lat="45.06635" lon="6.4095">
        <ele>2442.6</ele>
        <time>2022-07-17T11:08:50Z</time>
      </trkpt>
      <trkpt lat="45.06633" lon="6.40948">
        <ele>2442.8</ele>
        <time>2022-07-17T11:08:51Z</time>
      </trkpt>
      <trkpt lat="45.06632" lon="6.40947">
        <ele>2443.2</ele>
        <time>2022-07-17T11:08:52Z</time>
      </trkpt>
      <trkpt lat="45.0663" lon="6.40945">
        <ele>2443.4</ele>
        <time>2022-07-17T11:08:53Z</time>
      </trkpt>
      <trkpt lat="45.06629" lon="6.40943">
        <ele>2443.8</ele>
        <time>2022-07-17T11:08:54Z</time>
      </trkpt>
      <trkpt lat="45.06628" lon="6.4094">
        <ele>2443.8</ele>
        <time>2022-07-17T11:08:55Z</time>
      </trkpt>
      <trkpt lat="45.06627" lon="6.40938">
        <ele>2444</ele>
        <time>2022-07-17T11:08:56Z</time>
      </trkpt>
      <trkpt lat="45.06626" lon="6.40936">
        <ele>2444</ele>
        <time>2022-07-17T11:08:57Z</time>
      </trkpt>
      <trkpt lat="45.06625" lon="6.40934">
        <ele>2444.4</ele>
        <time>2022-07-17T11:08:58Z</time>
      </trkpt>
      <trkpt lat="45.06624" lon="6.40932">
        <ele>2444.6</ele>
        <time>2022-07-17T11:08:59Z</time>
      </trkpt>
      <trkpt lat="45.06624" lon="6.4093">
        <ele>2444.6</ele>
        <time>2022-07-17T11:09:00Z</time>
      </trkpt>
      <trkpt lat="45.06623" lon="6.40927">
        <ele>2444.8</ele>
        <time>2022-07-17T11:09:01Z</time>
      </trkpt>
      <trkpt lat="45.06622" lon="6.40925">
        <ele>2444.8</ele>
        <time>2022-07-17T11:09:02Z</time>
      </trkpt>
      <trkpt lat="45.06621" lon="6.40923">
        <ele>2445.2</ele>
        <time>2022-07-17T11:09:03Z</time>
      </trkpt>
      <trkpt lat="45.0662" lon="6.40921">
        <ele>2445.2</ele>
        <time>2022-07-17T11:09:04Z</time>
      </trkpt>
      <trkpt lat="45.0662" lon="6.40919">
        <ele>2445.6</ele>
        <time>2022-07-17T11:09:05Z</time>
      </trkpt>
      <trkpt lat="45.06619" lon="6.40916">
        <ele>2445.8</ele>
        <time>2022-07-17T11:09:06Z</time>
      </trkpt>
      <trkpt lat="45.06619" lon="6.40914">
        <ele>2446</ele>
        <time>2022-07-17T11:09:07Z</time>
      </trkpt>
      <trkpt lat="45.06618" lon="6.40912">
        <ele>2446</ele>
        <time>2022-07-17T11:09:08Z</time>
      </trkpt>
      <trkpt lat="45.06617" lon="6.4091">
        <ele>2446.4</ele>
        <time>2022-07-17T11:09:09Z</time>
      </trkpt>
      <trkpt lat="45.06616" lon="6.40908">
        <ele>2446.4</ele>
        <time>2022-07-17T11:09:10Z</time>
      </trkpt>
      <trkpt lat="45.06615" lon="6.40907">
        <ele>2446.6</ele>
        <time>2022-07-17T11:09:11Z</time>
      </trkpt>
      <trkpt lat="45.06613" lon="6.40906">
        <ele>2446.6</ele>
        <time>2022-07-17T11:09:12Z</time>
      </trkpt>
      <trkpt lat="45.06611" lon="6.40905">
        <ele>2447</ele>
        <time>2022-07-17T11:09:13Z</time>
      </trkpt>
      <trkpt lat="45.0661" lon="6.40905">
        <ele>2447.2</ele>
        <time>2022-07-17T11:09:14Z</time>
      </trkpt>
      <trkpt lat="45.06608" lon="6.40905">
        <ele>2447.2</ele>
        <time>2022-07-17T11:09:15Z</time>
      </trkpt>
      <trkpt lat="45.06606" lon="6.40906">
        <ele>2447.6</ele>
        <time>2022-07-17T11:09:16Z</time>
      </trkpt>
      <trkpt lat="45.06605" lon="6.40907">
        <ele>2447.6</ele>
        <time>2022-07-17T11:09:17Z</time>
      </trkpt>
      <trkpt lat="45.06603" lon="6.40908">
        <ele>2447.8</ele>
        <time>2022-07-17T11:09:18Z</time>
      </trkpt>
      <trkpt lat="45.06602" lon="6.40909">
        <ele>2447.8</ele>
        <time>2022-07-17T11:09:19Z</time>
      </trkpt>
      <trkpt lat="45.06601" lon="6.40911">
        <ele>2448</ele>
        <time>2022-07-17T11:09:20Z</time>
      </trkpt>
      <trkpt lat="45.066" lon="6.40913">
        <ele>2448</ele>
        <time>2022-07-17T11:09:21Z</time>
      </trkpt>
      <trkpt lat="45.06599" lon="6.40915">
        <ele>2448</ele>
        <time>2022-07-17T11:09:22Z</time>
      </trkpt>
      <trkpt lat="45.06598" lon="6.40917">
        <ele>2448.4</ele>
        <time>2022-07-17T11:09:23Z</time>
      </trkpt>
      <trkpt lat="45.06597" lon="6.40919">
        <ele>2448.4</ele>
        <time>2022-07-17T11:09:24Z</time>
      </trkpt>
      <trkpt lat="45.06596" lon="6.40922">
        <ele>2448.8</ele>
        <time>2022-07-17T11:09:25Z</time>
      </trkpt>
      <trkpt lat="45.06596" lon="6.40924">
        <ele>2449</ele>
        <time>2022-07-17T11:09:26Z</time>
      </trkpt>
      <trkpt lat="45.06597" lon="6.40927">
        <ele>2449.2</ele>
        <time>2022-07-17T11:09:27Z</time>
      </trkpt>
      <trkpt lat="45.06597" lon="6.40929">
        <ele>2449.2</ele>
        <time>2022-07-17T11:09:28Z</time>
      </trkpt>
      <trkpt lat="45.06597" lon="6.40931">
        <ele>2449.6</ele>
        <time>2022-07-17T11:09:29Z</time>
      </trkpt>
      <trkpt lat="45.06597" lon="6.40934">
        <ele>2449.6</ele>
        <time>2022-07-17T11:09:30Z</time>
      </trkpt>
      <trkpt lat="45.06598" lon="6.40936">
        <ele>2449.8</ele>
        <time>2022-07-17T11:09:32Z</time>
      </trkpt>
      <trkpt lat="45.06598" lon="6.40938">
        <ele>2450.2</ele>
        <time>2022-07-17T11:09:33Z</time>
      </trkpt>
      <trkpt lat="45.06599" lon="6.4094">
        <ele>2450.2</ele>
        <time>2022-07-17T11:09:34Z</time>
      </trkpt>
      <trkpt lat="45.06599" lon="6.40942">
        <ele>2450.6</ele>
        <time>2022-07-17T11:09:35Z</time>
      </trkpt>
      <trkpt lat="45.066" lon="6.40945">
        <ele>2450.6</ele>
        <time>2022-07-17T11:09:36Z</time>
      </trkpt>
      <trkpt lat="45.066" lon="6.40947">
        <ele>2451</ele>
        <time>2022-07-17T11:09:37Z</time>
      </trkpt>
      <trkpt lat="45.06601" lon="6.40949">
        <ele>2451</ele>
        <time>2022-07-17T11:09:38Z</time>
      </trkpt>
      <trkpt lat="45.06602" lon="6.40951">
        <ele>2451.4</ele>
        <time>2022-07-17T11:09:39Z</time>
      </trkpt>
      <trkpt lat="45.06602" lon="6.40953">
        <ele>2451.6</ele>
        <time>2022-07-17T11:09:40Z</time>
      </trkpt>
      <trkpt lat="45.06603" lon="6.40955">
        <ele>2451.8</ele>
        <time>2022-07-17T11:09:41Z</time>
      </trkpt>
      <trkpt lat="45.06604" lon="6.40957">
        <ele>2451.8</ele>
        <time>2022-07-17T11:09:42Z</time>
      </trkpt>
      <trkpt lat="45.06605" lon="6.40959">
        <ele>2452</ele>
        <time>2022-07-17T11:09:43Z</time>
      </trkpt>
      <trkpt lat="45.06606" lon="6.40961">
        <ele>2452</ele>
        <time>2022-07-17T11:09:44Z</time>
      </trkpt>
      <trkpt lat="45.06607" lon="6.40963">
        <ele>2452</ele>
        <time>2022-07-17T11:09:45Z</time>
      </trkpt>
      <trkpt lat="45.06608" lon="6.40965">
        <ele>2452.4</ele>
        <time>2022-07-17T11:09:46Z</time>
      </trkpt>
      <trkpt lat="45.06609" lon="6.40967">
        <ele>2452.6</ele>
        <time>2022-07-17T11:09:47Z</time>
      </trkpt>
      <trkpt lat="45.0661" lon="6.40969">
        <ele>2452.6</ele>
        <time>2022-07-17T11:09:48Z</time>
      </trkpt>
      <trkpt lat="45.06611" lon="6.40971">
        <ele>2453</ele>
        <time>2022-07-17T11:09:49Z</time>
      </trkpt>
      <trkpt lat="45.06611" lon="6.40974">
        <ele>2453.2</ele>
        <time>2022-07-17T11:09:50Z</time>
      </trkpt>
      <trkpt lat="45.06612" lon="6.40976">
        <ele>2453.4</ele>
        <time>2022-07-17T11:09:51Z</time>
      </trkpt>
      <trkpt lat="45.06613" lon="6.40978">
        <ele>2453.4</ele>
        <time>2022-07-17T11:09:52Z</time>
      </trkpt>
      <trkpt lat="45.06614" lon="6.4098">
        <ele>2453.8</ele>
        <time>2022-07-17T11:09:53Z</time>
      </trkpt>
      <trkpt lat="45.06615" lon="6.40981">
        <ele>2453.8</ele>
        <time>2022-07-17T11:09:54Z</time>
      </trkpt>
      <trkpt lat="45.06616" lon="6.40983">
        <ele>2454</ele>
        <time>2022-07-17T11:09:55Z</time>
      </trkpt>
      <trkpt lat="45.06617" lon="6.40985">
        <ele>2454</ele>
        <time>2022-07-17T11:09:56Z</time>
      </trkpt>
      <trkpt lat="45.06617" lon="6.40987">
        <ele>2454.4</ele>
        <time>2022-07-17T11:09:57Z</time>
      </trkpt>
      <trkpt lat="45.06618" lon="6.40989">
        <ele>2454.4</ele>
        <time>2022-07-17T11:09:58Z</time>
      </trkpt>
      <trkpt lat="45.06619" lon="6.40991">
        <ele>2454.6</ele>
        <time>2022-07-17T11:09:59Z</time>
      </trkpt>
      <trkpt lat="45.0662" lon="6.40993">
        <ele>2454.6</ele>
        <time>2022-07-17T11:10:00Z</time>
      </trkpt>
      <trkpt lat="45.06621" lon="6.40995">
        <ele>2455</ele>
        <time>2022-07-17T11:10:01Z</time>
      </trkpt>
      <trkpt lat="45.06622" lon="6.40997">
        <ele>2455.2</ele>
        <time>2022-07-17T11:10:02Z</time>
      </trkpt>
      <trkpt lat="45.06622" lon="6.40999">
        <ele>2455.2</ele>
        <time>2022-07-17T11:10:03Z</time>
      </trkpt>
      <trkpt lat="45.06623" lon="6.41001">
        <ele>2455.4</ele>
        <time>2022-07-17T11:10:04Z</time>
      </trkpt>
      <trkpt lat="45.06624" lon="6.41003">
        <ele>2455.4</ele>
        <time>2022-07-17T11:10:05Z</time>
      </trkpt>
      <trkpt lat="45.06625" lon="6.41005">
        <ele>2455.8</ele>
        <time>2022-07-17T11:10:06Z</time>
      </trkpt>
      <trkpt lat="45.06626" lon="6.41007">
        <ele>2455.8</ele>
        <time>2022-07-17T11:10:07Z</time>
      </trkpt>
      <trkpt lat="45.06626" lon="6.41009">
        <ele>2456.2</ele>
        <time>2022-07-17T11:10:08Z</time>
      </trkpt>
      <trkpt lat="45.06627" lon="6.41011">
        <ele>2456.4</ele>
        <time>2022-07-17T11:10:09Z</time>
      </trkpt>
      <trkpt lat="45.06627" lon="6.41013">
        <ele>2456.4</ele>
        <time>2022-07-17T11:10:10Z</time>
      </trkpt>
      <trkpt lat="45.06628" lon="6.41016">
        <ele>2456.8</ele>
        <time>2022-07-17T11:10:11Z</time>
      </trkpt>
      <trkpt lat="45.06629" lon="6.41018">
        <ele>2456.8</ele>
        <time>2022-07-17T11:10:12Z</time>
      </trkpt>
      <trkpt lat="45.0663" lon="6.4102">
        <ele>2457.2</ele>
        <time>2022-07-17T11:10:13Z</time>
      </trkpt>
      <trkpt lat="45.0663" lon="6.41022">
        <ele>2457.4</ele>
        <time>2022-07-17T11:10:14Z</time>
      </trkpt>
      <trkpt lat="45.06631" lon="6.41024">
        <ele>2457.4</ele>
        <time>2022-07-17T11:10:15Z</time>
      </trkpt>
      <trkpt lat="45.06631" lon="6.41026">
        <ele>2457.6</ele>
        <time>2022-07-17T11:10:16Z</time>
      </trkpt>
      <trkpt lat="45.06632" lon="6.41028">
        <ele>2457.6</ele>
        <time>2022-07-17T11:10:17Z</time>
      </trkpt>
      <trkpt lat="45.06633" lon="6.4103">
        <ele>2458</ele>
        <time>2022-07-17T11:10:18Z</time>
      </trkpt>
      <trkpt lat="45.06633" lon="6.41032">
        <ele>2458</ele>
        <time>2022-07-17T11:10:19Z</time>
      </trkpt>
      <trkpt lat="45.06634" lon="6.41034">
        <ele>2458.2</ele>
        <time>2022-07-17T11:10:20Z</time>
      </trkpt>
      <trkpt lat="45.06634" lon="6.41036">
        <ele>2458.2</ele>
        <time>2022-07-17T11:10:21Z</time>
      </trkpt>
      <trkpt lat="45.06635" lon="6.41038">
        <ele>2458.6</ele>
        <time>2022-07-17T11:10:22Z</time>
      </trkpt>
      <trkpt lat="45.06635" lon="6.4104">
        <ele>2458.6</ele>
        <time>2022-07-17T11:10:23Z</time>
      </trkpt>
      <trkpt lat="45.06635" lon="6.41042">
        <ele>2458.8</ele>
        <time>2022-07-17T11:10:24Z</time>
      </trkpt>
      <trkpt lat="45.06636" lon="6.41044">
        <ele>2459.2</ele>
        <time>2022-07-17T11:10:25Z</time>
      </trkpt>
      <trkpt lat="45.06637" lon="6.41046">
        <ele>2459.2</ele>
        <time>2022-07-17T11:10:26Z</time>
      </trkpt>
      <trkpt lat="45.06637" lon="6.41048">
        <ele>2459.4</ele>
        <time>2022-07-17T11:10:27Z</time>
      </trkpt>
      <trkpt lat="45.06637" lon="6.4105">
        <ele>2459.4</ele>
        <time>2022-07-17T11:10:28Z</time>
      </trkpt>
      <trkpt lat="45.06638" lon="6.41053">
        <ele>2459.8</ele>
        <time>2022-07-17T11:10:29Z</time>
      </trkpt>
      <trkpt lat="45.06638" lon="6.41055">
        <ele>2459.8</ele>
        <time>2022-07-17T11:10:30Z</time>
      </trkpt>
      <trkpt lat="45.06639" lon="6.41057">
        <ele>2460</ele>
        <time>2022-07-17T11:10:31Z</time>
      </trkpt>
      <trkpt lat="45.06639" lon="6.41059">
        <ele>2460</ele>
        <time>2022-07-17T11:10:32Z</time>
      </trkpt>
      <trkpt lat="45.0664" lon="6.41061">
        <ele>2460.4</ele>
        <time>2022-07-17T11:10:33Z</time>
      </trkpt>
      <trkpt lat="45.0664" lon="6.41063">
        <ele>2460.6</ele>
        <time>2022-07-17T11:10:34Z</time>
      </trkpt>
      <trkpt lat="45.06641" lon="6.41065">
        <ele>2460.6</ele>
        <time>2022-07-17T11:10:35Z</time>
      </trkpt>
      <trkpt lat="45.06641" lon="6.41066">
        <ele>2461</ele>
        <time>2022-07-17T11:10:36Z</time>
      </trkpt>
      <trkpt lat="45.06642" lon="6.41068">
        <ele>2461.2</ele>
        <time>2022-07-17T11:10:37Z</time>
      </trkpt>
      <trkpt lat="45.06643" lon="6.4107">
        <ele>2461.4</ele>
        <time>2022-07-17T11:10:38Z</time>
      </trkpt>
      <trkpt lat="45.06643" lon="6.41072">
        <ele>2461.4</ele>
        <time>2022-07-17T11:10:39Z</time>
      </trkpt>
      <trkpt lat="45.06644" lon="6.41074">
        <ele>2461.8</ele>
        <time>2022-07-17T11:10:40Z</time>
      </trkpt>
      <trkpt lat="45.06645" lon="6.41076">
        <ele>2461.8</ele>
        <time>2022-07-17T11:10:41Z</time>
      </trkpt>
      <trkpt lat="45.06646" lon="6.41078">
        <ele>2462</ele>
        <time>2022-07-17T11:10:42Z</time>
      </trkpt>
      <trkpt lat="45.06647" lon="6.41079">
        <ele>2462</ele>
        <time>2022-07-17T11:10:43Z</time>
      </trkpt>
      <trkpt lat="45.06649" lon="6.41081">
        <ele>2462.4</ele>
        <time>2022-07-17T11:10:44Z</time>
      </trkpt>
      <trkpt lat="45.0665" lon="6.41082">
        <ele>2462.4</ele>
        <time>2022-07-17T11:10:45Z</time>
      </trkpt>
      <trkpt lat="45.06651" lon="6.41084">
        <ele>2462.6</ele>
        <time>2022-07-17T11:10:46Z</time>
      </trkpt>
      <trkpt lat="45.06651" lon="6.41086">
        <ele>2463</ele>
        <time>2022-07-17T11:10:47Z</time>
      </trkpt>
      <trkpt lat="45.06652" lon="6.41088">
        <ele>2463</ele>
        <time>2022-07-17T11:10:48Z</time>
      </trkpt>
      <trkpt lat="45.06653" lon="6.41089">
        <ele>2463.2</ele>
        <time>2022-07-17T11:10:49Z</time>
      </trkpt>
      <trkpt lat="45.06654" lon="6.41091">
        <ele>2463.2</ele>
        <time>2022-07-17T11:10:50Z</time>
      </trkpt>
      <trkpt lat="45.06655" lon="6.41092">
        <ele>2463.6</ele>
        <time>2022-07-17T11:10:51Z</time>
      </trkpt>
      <trkpt lat="45.06656" lon="6.41094">
        <ele>2463.6</ele>
        <time>2022-07-17T11:10:52Z</time>
      </trkpt>
      <trkpt lat="45.06657" lon="6.41096">
        <ele>2463.8</ele>
        <time>2022-07-17T11:10:53Z</time>
      </trkpt>
      <trkpt lat="45.06658" lon="6.41098">
        <ele>2463.8</ele>
        <time>2022-07-17T11:10:54Z</time>
      </trkpt>
      <trkpt lat="45.06659" lon="6.41099">
        <ele>2464.2</ele>
        <time>2022-07-17T11:10:55Z</time>
      </trkpt>
      <trkpt lat="45.0666" lon="6.41101">
        <ele>2464.2</ele>
        <time>2022-07-17T11:10:56Z</time>
      </trkpt>
      <trkpt lat="45.06661" lon="6.41103">
        <ele>2464.6</ele>
        <time>2022-07-17T11:10:57Z</time>
      </trkpt>
      <trkpt lat="45.06662" lon="6.41105">
        <ele>2464.6</ele>
        <time>2022-07-17T11:10:58Z</time>
      </trkpt>
      <trkpt lat="45.06663" lon="6.41106">
        <ele>2464.8</ele>
        <time>2022-07-17T11:10:59Z</time>
      </trkpt>
      <trkpt lat="45.06665" lon="6.41108">
        <ele>2464.8</ele>
        <time>2022-07-17T11:11:00Z</time>
      </trkpt>
      <trkpt lat="45.06666" lon="6.41109">
        <ele>2465.2</ele>
        <time>2022-07-17T11:11:01Z</time>
      </trkpt>
      <trkpt lat="45.06667" lon="6.41111">
        <ele>2465.2</ele>
        <time>2022-07-17T11:11:02Z</time>
      </trkpt>
      <trkpt lat="45.06668" lon="6.41113">
        <ele>2465.4</ele>
        <time>2022-07-17T11:11:03Z</time>
      </trkpt>
      <trkpt lat="45.06669" lon="6.41115">
        <ele>2465.4</ele>
        <time>2022-07-17T11:11:04Z</time>
      </trkpt>
      <trkpt lat="45.0667" lon="6.41117">
        <ele>2465.8</ele>
        <time>2022-07-17T11:11:05Z</time>
      </trkpt>
      <trkpt lat="45.06671" lon="6.41118">
        <ele>2466.2</ele>
        <time>2022-07-17T11:11:06Z</time>
      </trkpt>
      <trkpt lat="45.06672" lon="6.4112">
        <ele>2466.2</ele>
        <time>2022-07-17T11:11:07Z</time>
      </trkpt>
      <trkpt lat="45.06673" lon="6.41122">
        <ele>2466.4</ele>
        <time>2022-07-17T11:11:08Z</time>
      </trkpt>
      <trkpt lat="45.06674" lon="6.41124">
        <ele>2466.6</ele>
        <time>2022-07-17T11:11:09Z</time>
      </trkpt>
      <trkpt lat="45.06675" lon="6.41126">
        <ele>2466.6</ele>
        <time>2022-07-17T11:11:10Z</time>
      </trkpt>
      <trkpt lat="45.06675" lon="6.41128">
        <ele>2467</ele>
        <time>2022-07-17T11:11:11Z</time>
      </trkpt>
      <trkpt lat="45.06676" lon="6.41131">
        <ele>2467.2</ele>
        <time>2022-07-17T11:11:12Z</time>
      </trkpt>
      <trkpt lat="45.06676" lon="6.41133">
        <ele>2467.4</ele>
        <time>2022-07-17T11:11:13Z</time>
      </trkpt>
      <trkpt lat="45.06676" lon="6.41136">
        <ele>2467.8</ele>
        <time>2022-07-17T11:11:14Z</time>
      </trkpt>
      <trkpt lat="45.06676" lon="6.41138">
        <ele>2468</ele>
        <time>2022-07-17T11:11:15Z</time>
      </trkpt>
      <trkpt lat="45.06676" lon="6.4114">
        <ele>2468.2</ele>
        <time>2022-07-17T11:11:16Z</time>
      </trkpt>
      <trkpt lat="45.06675" lon="6.41143">
        <ele>2468.4</ele>
        <time>2022-07-17T11:11:17Z</time>
      </trkpt>
      <trkpt lat="45.06674" lon="6.41145">
        <ele>2468.6</ele>
        <time>2022-07-17T11:11:18Z</time>
      </trkpt>
      <trkpt lat="45.06673" lon="6.41147">
        <ele>2468.6</ele>
        <time>2022-07-17T11:11:19Z</time>
      </trkpt>
      <trkpt lat="45.06673" lon="6.41149">
        <ele>2469</ele>
        <time>2022-07-17T11:11:20Z</time>
      </trkpt>
      <trkpt lat="45.06673" lon="6.41151">
        <ele>2469</ele>
        <time>2022-07-17T11:11:21Z</time>
      </trkpt>
      <trkpt lat="45.06672" lon="6.41153">
        <ele>2469.4</ele>
        <time>2022-07-17T11:11:22Z</time>
      </trkpt>
      <trkpt lat="45.06672" lon="6.41155">
        <ele>2469.6</ele>
        <time>2022-07-17T11:11:23Z</time>
      </trkpt>
      <trkpt lat="45.06671" lon="6.41157">
        <ele>2469.6</ele>
        <time>2022-07-17T11:11:24Z</time>
      </trkpt>
      <trkpt lat="45.0667" lon="6.41159">
        <ele>2469.8</ele>
        <time>2022-07-17T11:11:25Z</time>
      </trkpt>
      <trkpt lat="45.06669" lon="6.4116">
        <ele>2469.8</ele>
        <time>2022-07-17T11:11:26Z</time>
      </trkpt>
      <trkpt lat="45.06668" lon="6.41162">
        <ele>2470.2</ele>
        <time>2022-07-17T11:11:27Z</time>
      </trkpt>
      <trkpt lat="45.06667" lon="6.41164">
        <ele>2470.4</ele>
        <time>2022-07-17T11:11:28Z</time>
      </trkpt>
      <trkpt lat="45.06666" lon="6.41165">
        <ele>2470.6</ele>
        <time>2022-07-17T11:11:29Z</time>
      </trkpt>
      <trkpt lat="45.06665" lon="6.41167">
        <ele>2470.6</ele>
        <time>2022-07-17T11:11:30Z</time>
      </trkpt>
      <trkpt lat="45.06664" lon="6.41168">
        <ele>2471</ele>
        <time>2022-07-17T11:11:31Z</time>
      </trkpt>
      <trkpt lat="45.06663" lon="6.4117">
        <ele>2471</ele>
        <time>2022-07-17T11:11:32Z</time>
      </trkpt>
      <trkpt lat="45.06662" lon="6.41172">
        <ele>2471.4</ele>
        <time>2022-07-17T11:11:33Z</time>
      </trkpt>
      <trkpt lat="45.06661" lon="6.41173">
        <ele>2471.6</ele>
        <time>2022-07-17T11:11:34Z</time>
      </trkpt>
      <trkpt lat="45.0666" lon="6.41175">
        <ele>2471.6</ele>
        <time>2022-07-17T11:11:35Z</time>
      </trkpt>
      <trkpt lat="45.06659" lon="6.41177">
        <ele>2472</ele>
        <time>2022-07-17T11:11:36Z</time>
      </trkpt>
      <trkpt lat="45.06658" lon="6.41179">
        <ele>2472</ele>
        <time>2022-07-17T11:11:37Z</time>
      </trkpt>
      <trkpt lat="45.06658" lon="6.4118">
        <ele>2472.2</ele>
        <time>2022-07-17T11:11:38Z</time>
      </trkpt>
      <trkpt lat="45.06657" lon="6.41182">
        <ele>2472.2</ele>
        <time>2022-07-17T11:11:39Z</time>
      </trkpt>
      <trkpt lat="45.06655" lon="6.41183">
        <ele>2472.4</ele>
        <time>2022-07-17T11:11:40Z</time>
      </trkpt>
      <trkpt lat="45.06655" lon="6.41185">
        <ele>2472.6</ele>
        <time>2022-07-17T11:11:41Z</time>
      </trkpt>
      <trkpt lat="45.06654" lon="6.41187">
        <ele>2472.6</ele>
        <time>2022-07-17T11:11:42Z</time>
      </trkpt>
      <trkpt lat="45.06653" lon="6.41189">
        <ele>2473</ele>
        <time>2022-07-17T11:11:43Z</time>
      </trkpt>
      <trkpt lat="45.06653" lon="6.41191">
        <ele>2473</ele>
        <time>2022-07-17T11:11:44Z</time>
      </trkpt>
      <trkpt lat="45.06652" lon="6.41193">
        <ele>2473.4</ele>
        <time>2022-07-17T11:11:45Z</time>
      </trkpt>
      <trkpt lat="45.06652" lon="6.41195">
        <ele>2473.6</ele>
        <time>2022-07-17T11:11:46Z</time>
      </trkpt>
      <trkpt lat="45.06651" lon="6.41197">
        <ele>2473.8</ele>
        <time>2022-07-17T11:11:47Z</time>
      </trkpt>
      <trkpt lat="45.0665" lon="6.41198">
        <ele>2474</ele>
        <time>2022-07-17T11:11:48Z</time>
      </trkpt>
      <trkpt lat="45.0665" lon="6.412">
        <ele>2474</ele>
        <time>2022-07-17T11:11:49Z</time>
      </trkpt>
      <trkpt lat="45.06649" lon="6.41202">
        <ele>2474.4</ele>
        <time>2022-07-17T11:11:50Z</time>
      </trkpt>
      <trkpt lat="45.06648" lon="6.41204">
        <ele>2474.6</ele>
        <time>2022-07-17T11:11:51Z</time>
      </trkpt>
      <trkpt lat="45.06648" lon="6.41206">
        <ele>2474.6</ele>
        <time>2022-07-17T11:11:52Z</time>
      </trkpt>
      <trkpt lat="45.06647" lon="6.41208">
        <ele>2474.8</ele>
        <time>2022-07-17T11:11:53Z</time>
      </trkpt>
      <trkpt lat="45.06646" lon="6.4121">
        <ele>2475.2</ele>
        <time>2022-07-17T11:11:54Z</time>
      </trkpt>
      <trkpt lat="45.06646" lon="6.41212">
        <ele>2475.4</ele>
        <time>2022-07-17T11:11:55Z</time>
      </trkpt>
      <trkpt lat="45.06646" lon="6.41214">
        <ele>2475.4</ele>
        <time>2022-07-17T11:11:56Z</time>
      </trkpt>
      <trkpt lat="45.06645" lon="6.41216">
        <ele>2475.6</ele>
        <time>2022-07-17T11:11:57Z</time>
      </trkpt>
      <trkpt lat="45.06644" lon="6.41218">
        <ele>2475.6</ele>
        <time>2022-07-17T11:11:58Z</time>
      </trkpt>
      <trkpt lat="45.06643" lon="6.4122">
        <ele>2476</ele>
        <time>2022-07-17T11:11:59Z</time>
      </trkpt>
      <trkpt lat="45.06642" lon="6.41221">
        <ele>2476.2</ele>
        <time>2022-07-17T11:12:00Z</time>
      </trkpt>
      <trkpt lat="45.06642" lon="6.41223">
        <ele>2476.2</ele>
        <time>2022-07-17T11:12:01Z</time>
      </trkpt>
      <trkpt lat="45.06641" lon="6.41225">
        <ele>2476.4</ele>
        <time>2022-07-17T11:12:02Z</time>
      </trkpt>
      <trkpt lat="45.0664" lon="6.41227">
        <ele>2476.4</ele>
        <time>2022-07-17T11:12:03Z</time>
      </trkpt>
      <trkpt lat="45.06639" lon="6.41229">
        <ele>2476.8</ele>
        <time>2022-07-17T11:12:04Z</time>
      </trkpt>
      <trkpt lat="45.06638" lon="6.41231">
        <ele>2476.8</ele>
        <time>2022-07-17T11:12:05Z</time>
      </trkpt>
      <trkpt lat="45.06637" lon="6.41232">
        <ele>2477.2</ele>
        <time>2022-07-17T11:12:06Z</time>
      </trkpt>
      <trkpt lat="45.06636" lon="6.41234">
        <ele>2477.4</ele>
        <time>2022-07-17T11:12:07Z</time>
      </trkpt>
      <trkpt lat="45.06635" lon="6.41236">
        <ele>2477.4</ele>
        <time>2022-07-17T11:12:08Z</time>
      </trkpt>
      <trkpt lat="45.06635" lon="6.41238">
        <ele>2477.8</ele>
        <time>2022-07-17T11:12:09Z</time>
      </trkpt>
      <trkpt lat="45.06634" lon="6.4124">
        <ele>2477.8</ele>
        <time>2022-07-17T11:12:10Z</time>
      </trkpt>
      <trkpt lat="45.06633" lon="6.41241">
        <ele>2477.8</ele>
        <time>2022-07-17T11:12:11Z</time>
      </trkpt>
      <trkpt lat="45.06632" lon="6.41243">
        <ele>2478.2</ele>
        <time>2022-07-17T11:12:12Z</time>
      </trkpt>
      <trkpt lat="45.06631" lon="6.41245">
        <ele>2478.4</ele>
        <time>2022-07-17T11:12:13Z</time>
      </trkpt>
      <trkpt lat="45.0663" lon="6.41247">
        <ele>2478.4</ele>
        <time>2022-07-17T11:12:14Z</time>
      </trkpt>
      <trkpt lat="45.06629" lon="6.41248">
        <ele>2478.6</ele>
        <time>2022-07-17T11:12:15Z</time>
      </trkpt>
      <trkpt lat="45.06629" lon="6.4125">
        <ele>2478.6</ele>
        <time>2022-07-17T11:12:16Z</time>
      </trkpt>
      <trkpt lat="45.06628" lon="6.41252">
        <ele>2479</ele>
        <time>2022-07-17T11:12:17Z</time>
      </trkpt>
      <trkpt lat="45.06627" lon="6.41254">
        <ele>2479</ele>
        <time>2022-07-17T11:12:18Z</time>
      </trkpt>
      <trkpt lat="45.06626" lon="6.41256">
        <ele>2479.4</ele>
        <time>2022-07-17T11:12:19Z</time>
      </trkpt>
      <trkpt lat="45.06626" lon="6.41258">
        <ele>2479.4</ele>
        <time>2022-07-17T11:12:20Z</time>
      </trkpt>
      <trkpt lat="45.06625" lon="6.4126">
        <ele>2479.6</ele>
        <time>2022-07-17T11:12:21Z</time>
      </trkpt>
      <trkpt lat="45.06624" lon="6.41261">
        <ele>2479.6</ele>
        <time>2022-07-17T11:12:22Z</time>
      </trkpt>
      <trkpt lat="45.06623" lon="6.41263">
        <ele>2480</ele>
        <time>2022-07-17T11:12:23Z</time>
      </trkpt>
      <trkpt lat="45.06622" lon="6.41264">
        <ele>2480</ele>
        <time>2022-07-17T11:12:24Z</time>
      </trkpt>
      <trkpt lat="45.06621" lon="6.41266">
        <ele>2480.4</ele>
        <time>2022-07-17T11:12:25Z</time>
      </trkpt>
      <trkpt lat="45.0662" lon="6.41268">
        <ele>2480.4</ele>
        <time>2022-07-17T11:12:26Z</time>
      </trkpt>
      <trkpt lat="45.06619" lon="6.41269">
        <ele>2480.6</ele>
        <time>2022-07-17T11:12:27Z</time>
      </trkpt>
      <trkpt lat="45.06618" lon="6.41271">
        <ele>2480.6</ele>
        <time>2022-07-17T11:12:28Z</time>
      </trkpt>
      <trkpt lat="45.06617" lon="6.41273">
        <ele>2481</ele>
        <time>2022-07-17T11:12:29Z</time>
      </trkpt>
      <trkpt lat="45.06616" lon="6.41274">
        <ele>2481.2</ele>
        <time>2022-07-17T11:12:30Z</time>
      </trkpt>
      <trkpt lat="45.06616" lon="6.41276">
        <ele>2481.4</ele>
        <time>2022-07-17T11:12:31Z</time>
      </trkpt>
      <trkpt lat="45.06615" lon="6.41278">
        <ele>2481.4</ele>
        <time>2022-07-17T11:12:32Z</time>
      </trkpt>
      <trkpt lat="45.06614" lon="6.4128">
        <ele>2481.6</ele>
        <time>2022-07-17T11:12:33Z</time>
      </trkpt>
      <trkpt lat="45.06613" lon="6.41281">
        <ele>2481.6</ele>
        <time>2022-07-17T11:12:34Z</time>
      </trkpt>
      <trkpt lat="45.06612" lon="6.41283">
        <ele>2482</ele>
        <time>2022-07-17T11:12:35Z</time>
      </trkpt>
      <trkpt lat="45.06611" lon="6.41285">
        <ele>2482</ele>
        <time>2022-07-17T11:12:36Z</time>
      </trkpt>
      <trkpt lat="45.0661" lon="6.41287">
        <ele>2482.4</ele>
        <time>2022-07-17T11:12:37Z</time>
      </trkpt>
      <trkpt lat="45.0661" lon="6.41288">
        <ele>2482.4</ele>
        <time>2022-07-17T11:12:38Z</time>
      </trkpt>
      <trkpt lat="45.06609" lon="6.4129">
        <ele>2482.8</ele>
        <time>2022-07-17T11:12:39Z</time>
      </trkpt>
      <trkpt lat="45.06608" lon="6.41292">
        <ele>2482.8</ele>
        <time>2022-07-17T11:12:40Z</time>
      </trkpt>
      <trkpt lat="45.06607" lon="6.41294">
        <ele>2483</ele>
        <time>2022-07-17T11:12:41Z</time>
      </trkpt>
      <trkpt lat="45.06606" lon="6.41296">
        <ele>2483</ele>
        <time>2022-07-17T11:12:42Z</time>
      </trkpt>
      <trkpt lat="45.06605" lon="6.41298">
        <ele>2483.2</ele>
        <time>2022-07-17T11:12:43Z</time>
      </trkpt>
      <trkpt lat="45.06604" lon="6.413">
        <ele>2483.2</ele>
        <time>2022-07-17T11:12:44Z</time>
      </trkpt>
      <trkpt lat="45.06603" lon="6.41301">
        <ele>2483.4</ele>
        <time>2022-07-17T11:12:45Z</time>
      </trkpt>
      <trkpt lat="45.06602" lon="6.41302">
        <ele>2483.4</ele>
        <time>2022-07-17T11:12:46Z</time>
      </trkpt>
      <trkpt lat="45.06601" lon="6.41303">
        <ele>2483.8</ele>
        <time>2022-07-17T11:12:47Z</time>
      </trkpt>
      <trkpt lat="45.06599" lon="6.41304">
        <ele>2483.8</ele>
        <time>2022-07-17T11:12:48Z</time>
      </trkpt>
      <trkpt lat="45.06598" lon="6.41304">
        <ele>2484.2</ele>
        <time>2022-07-17T11:12:49Z</time>
      </trkpt>
      <trkpt lat="45.06596" lon="6.41304">
        <ele>2484.2</ele>
        <time>2022-07-17T11:12:50Z</time>
      </trkpt>
      <trkpt lat="45.06595" lon="6.41302">
        <ele>2484.6</ele>
        <time>2022-07-17T11:12:51Z</time>
      </trkpt>
      <trkpt lat="45.06594" lon="6.41301">
        <ele>2484.6</ele>
        <time>2022-07-17T11:12:52Z</time>
      </trkpt>
      <trkpt lat="45.06594" lon="6.41298">
        <ele>2485</ele>
        <time>2022-07-17T11:12:53Z</time>
      </trkpt>
      <trkpt lat="45.06594" lon="6.41297">
        <ele>2485.2</ele>
        <time>2022-07-17T11:12:54Z</time>
      </trkpt>
      <trkpt lat="45.06595" lon="6.41295">
        <ele>2485.2</ele>
        <time>2022-07-17T11:12:55Z</time>
      </trkpt>
      <trkpt lat="45.06595" lon="6.41293">
        <ele>2485.6</ele>
        <time>2022-07-17T11:12:56Z</time>
      </trkpt>
      <trkpt lat="45.06596" lon="6.41291">
        <ele>2485.6</ele>
        <time>2022-07-17T11:12:57Z</time>
      </trkpt>
      <trkpt lat="45.06597" lon="6.41289">
        <ele>2485.6</ele>
        <time>2022-07-17T11:12:58Z</time>
      </trkpt>
      <trkpt lat="45.06598" lon="6.41288">
        <ele>2485.8</ele>
        <time>2022-07-17T11:12:59Z</time>
      </trkpt>
      <trkpt lat="45.06599" lon="6.41286">
        <ele>2485.8</ele>
        <time>2022-07-17T11:13:00Z</time>
      </trkpt>
      <trkpt lat="45.066" lon="6.41285">
        <ele>2486.2</ele>
        <time>2022-07-17T11:13:01Z</time>
      </trkpt>
      <trkpt lat="45.06601" lon="6.41283">
        <ele>2486.2</ele>
        <time>2022-07-17T11:13:02Z</time>
      </trkpt>
      <trkpt lat="45.06602" lon="6.41281">
        <ele>2486.6</ele>
        <time>2022-07-17T11:13:03Z</time>
      </trkpt>
      <trkpt lat="45.06602" lon="6.41279">
        <ele>2486.6</ele>
        <time>2022-07-17T11:13:04Z</time>
      </trkpt>
      <trkpt lat="45.06603" lon="6.41277">
        <ele>2486.8</ele>
        <time>2022-07-17T11:13:05Z</time>
      </trkpt>
      <trkpt lat="45.06604" lon="6.41275">
        <ele>2486.8</ele>
        <time>2022-07-17T11:13:06Z</time>
      </trkpt>
      <trkpt lat="45.06605" lon="6.41273">
        <ele>2487.2</ele>
        <time>2022-07-17T11:13:07Z</time>
      </trkpt>
      <trkpt lat="45.06606" lon="6.41271">
        <ele>2487.2</ele>
        <time>2022-07-17T11:13:08Z</time>
      </trkpt>
      <trkpt lat="45.06607" lon="6.41269">
        <ele>2487.6</ele>
        <time>2022-07-17T11:13:09Z</time>
      </trkpt>
      <trkpt lat="45.06607" lon="6.41267">
        <ele>2487.6</ele>
        <time>2022-07-17T11:13:10Z</time>
      </trkpt>
      <trkpt lat="45.06608" lon="6.41265">
        <ele>2487.8</ele>
        <time>2022-07-17T11:13:11Z</time>
      </trkpt>
      <trkpt lat="45.06609" lon="6.41262">
        <ele>2487.8</ele>
        <time>2022-07-17T11:13:12Z</time>
      </trkpt>
      <trkpt lat="45.06609" lon="6.4126">
        <ele>2488</ele>
        <time>2022-07-17T11:13:13Z</time>
      </trkpt>
      <trkpt lat="45.0661" lon="6.41258">
        <ele>2488</ele>
        <time>2022-07-17T11:13:14Z</time>
      </trkpt>
      <trkpt lat="45.0661" lon="6.41256">
        <ele>2488</ele>
        <time>2022-07-17T11:13:15Z</time>
      </trkpt>
      <trkpt lat="45.06611" lon="6.41254">
        <ele>2488.2</ele>
        <time>2022-07-17T11:13:16Z</time>
      </trkpt>
      <trkpt lat="45.06611" lon="6.41252">
        <ele>2488.4</ele>
        <time>2022-07-17T11:13:17Z</time>
      </trkpt>
      <trkpt lat="45.06612" lon="6.4125">
        <ele>2488.4</ele>
        <time>2022-07-17T11:13:18Z</time>
      </trkpt>
      <trkpt lat="45.06612" lon="6.41248">
        <ele>2488.8</ele>
        <time>2022-07-17T11:13:19Z</time>
      </trkpt>
      <trkpt lat="45.06613" lon="6.41245">
        <ele>2488.8</ele>
        <time>2022-07-17T11:13:20Z</time>
      </trkpt>
      <trkpt lat="45.06613" lon="6.41243">
        <ele>2489</ele>
        <time>2022-07-17T11:13:21Z</time>
      </trkpt>
      <trkpt lat="45.06614" lon="6.41241">
        <ele>2489</ele>
        <time>2022-07-17T11:13:22Z</time>
      </trkpt>
      <trkpt lat="45.06614" lon="6.41238">
        <ele>2489.4</ele>
        <time>2022-07-17T11:13:23Z</time>
      </trkpt>
      <trkpt lat="45.06615" lon="6.41236">
        <ele>2489.4</ele>
        <time>2022-07-17T11:13:24Z</time>
      </trkpt>
      <trkpt lat="45.06615" lon="6.41233">
        <ele>2489.8</ele>
        <time>2022-07-17T11:13:25Z</time>
      </trkpt>
      <trkpt lat="45.06616" lon="6.41231">
        <ele>2489.8</ele>
        <time>2022-07-17T11:13:26Z</time>
      </trkpt>
      <trkpt lat="45.06616" lon="6.41229">
        <ele>2489.8</ele>
        <time>2022-07-17T11:13:27Z</time>
      </trkpt>
      <trkpt lat="45.06617" lon="6.41226">
        <ele>2490.2</ele>
        <time>2022-07-17T11:13:28Z</time>
      </trkpt>
      <trkpt lat="45.06617" lon="6.41224">
        <ele>2490.2</ele>
        <time>2022-07-17T11:13:29Z</time>
      </trkpt>
      <trkpt lat="45.06617" lon="6.41222">
        <ele>2490.4</ele>
        <time>2022-07-17T11:13:30Z</time>
      </trkpt>
      <trkpt lat="45.06618" lon="6.41219">
        <ele>2490.4</ele>
        <time>2022-07-17T11:13:31Z</time>
      </trkpt>
      <trkpt lat="45.06618" lon="6.41217">
        <ele>2490.6</ele>
        <time>2022-07-17T11:13:32Z</time>
      </trkpt>
      <trkpt lat="45.06618" lon="6.41214">
        <ele>2490.6</ele>
        <time>2022-07-17T11:13:33Z</time>
      </trkpt>
      <trkpt lat="45.06619" lon="6.41212">
        <ele>2491</ele>
        <time>2022-07-17T11:13:34Z</time>
      </trkpt>
      <trkpt lat="45.06619" lon="6.41209">
        <ele>2491</ele>
        <time>2022-07-17T11:13:35Z</time>
      </trkpt>
      <trkpt lat="45.06619" lon="6.41207">
        <ele>2491</ele>
        <time>2022-07-17T11:13:36Z</time>
      </trkpt>
      <trkpt lat="45.0662" lon="6.41204">
        <ele>2491.2</ele>
        <time>2022-07-17T11:13:37Z</time>
      </trkpt>
      <trkpt lat="45.06619" lon="6.41202">
        <ele>2491.2</ele>
        <time>2022-07-17T11:13:38Z</time>
      </trkpt>
      <trkpt lat="45.06619" lon="6.412">
        <ele>2491.2</ele>
        <time>2022-07-17T11:13:39Z</time>
      </trkpt>
      <trkpt lat="45.06619" lon="6.41197">
        <ele>2491.4</ele>
        <time>2022-07-17T11:13:40Z</time>
      </trkpt>
      <trkpt lat="45.06619" lon="6.41195">
        <ele>2491.4</ele>
        <time>2022-07-17T11:13:41Z</time>
      </trkpt>
      <trkpt lat="45.06619" lon="6.41192">
        <ele>2491.8</ele>
        <time>2022-07-17T11:13:42Z</time>
      </trkpt>
      <trkpt lat="45.06619" lon="6.4119">
        <ele>2491.8</ele>
        <time>2022-07-17T11:13:43Z</time>
      </trkpt>
      <trkpt lat="45.06619" lon="6.41188">
        <ele>2492</ele>
        <time>2022-07-17T11:13:44Z</time>
      </trkpt>
      <trkpt lat="45.06618" lon="6.41185">
        <ele>2492</ele>
        <time>2022-07-17T11:13:45Z</time>
      </trkpt>
      <trkpt lat="45.06618" lon="6.41183">
        <ele>2492</ele>
        <time>2022-07-17T11:13:46Z</time>
      </trkpt>
      <trkpt lat="45.06618" lon="6.41181">
        <ele>2492.4</ele>
        <time>2022-07-17T11:13:47Z</time>
      </trkpt>
      <trkpt lat="45.06618" lon="6.41178">
        <ele>2492.4</ele>
        <time>2022-07-17T11:13:48Z</time>
      </trkpt>
      <trkpt lat="45.06619" lon="6.41175">
        <ele>2492.8</ele>
        <time>2022-07-17T11:13:49Z</time>
      </trkpt>
      <trkpt lat="45.06619" lon="6.41172">
        <ele>2493</ele>
        <time>2022-07-17T11:13:50Z</time>
      </trkpt>
      <trkpt lat="45.06619" lon="6.4117">
        <ele>2493</ele>
        <time>2022-07-17T11:13:51Z</time>
      </trkpt>
      <trkpt lat="45.06619" lon="6.41168">
        <ele>2493.4</ele>
        <time>2022-07-17T11:13:52Z</time>
      </trkpt>
      <trkpt lat="45.06619" lon="6.41165">
        <ele>2493.4</ele>
        <time>2022-07-17T11:13:53Z</time>
      </trkpt>
      <trkpt lat="45.06619" lon="6.41163">
        <ele>2493.8</ele>
        <time>2022-07-17T11:13:54Z</time>
      </trkpt>
      <trkpt lat="45.06619" lon="6.4116">
        <ele>2493.8</ele>
        <time>2022-07-17T11:13:55Z</time>
      </trkpt>
      <trkpt lat="45.0662" lon="6.41158">
        <ele>2494.2</ele>
        <time>2022-07-17T11:13:56Z</time>
      </trkpt>
      <trkpt lat="45.0662" lon="6.41155">
        <ele>2494.2</ele>
        <time>2022-07-17T11:13:57Z</time>
      </trkpt>
      <trkpt lat="45.0662" lon="6.41153">
        <ele>2494.6</ele>
        <time>2022-07-17T11:13:58Z</time>
      </trkpt>
      <trkpt lat="45.0662" lon="6.4115">
        <ele>2494.6</ele>
        <time>2022-07-17T11:13:59Z</time>
      </trkpt>
      <trkpt lat="45.0662" lon="6.41148">
        <ele>2495</ele>
        <time>2022-07-17T11:14:00Z</time>
      </trkpt>
      <trkpt lat="45.06621" lon="6.41145">
        <ele>2495.2</ele>
        <time>2022-07-17T11:14:01Z</time>
      </trkpt>
      <trkpt lat="45.06621" lon="6.41143">
        <ele>2495.4</ele>
        <time>2022-07-17T11:14:02Z</time>
      </trkpt>
      <trkpt lat="45.0662" lon="6.4114">
        <ele>2495.4</ele>
        <time>2022-07-17T11:14:03Z</time>
      </trkpt>
      <trkpt lat="45.0662" lon="6.41138">
        <ele>2495.8</ele>
        <time>2022-07-17T11:14:04Z</time>
      </trkpt>
      <trkpt lat="45.0662" lon="6.41135">
        <ele>2495.8</ele>
        <time>2022-07-17T11:14:05Z</time>
      </trkpt>
      <trkpt lat="45.0662" lon="6.41133">
        <ele>2496</ele>
        <time>2022-07-17T11:14:06Z</time>
      </trkpt>
      <trkpt lat="45.06619" lon="6.41131">
        <ele>2496</ele>
        <time>2022-07-17T11:14:07Z</time>
      </trkpt>
      <trkpt lat="45.06618" lon="6.41129">
        <ele>2496.4</ele>
        <time>2022-07-17T11:14:08Z</time>
      </trkpt>
      <trkpt lat="45.06617" lon="6.41127">
        <ele>2496.4</ele>
        <time>2022-07-17T11:14:09Z</time>
      </trkpt>
      <trkpt lat="45.06616" lon="6.41125">
        <ele>2496.8</ele>
        <time>2022-07-17T11:14:10Z</time>
      </trkpt>
      <trkpt lat="45.06614" lon="6.41124">
        <ele>2496.8</ele>
        <time>2022-07-17T11:14:11Z</time>
      </trkpt>
      <trkpt lat="45.06612" lon="6.41123">
        <ele>2496.8</ele>
        <time>2022-07-17T11:14:12Z</time>
      </trkpt>
      <trkpt lat="45.06611" lon="6.41122">
        <ele>2496.8</ele>
        <time>2022-07-17T11:14:13Z</time>
      </trkpt>
      <trkpt lat="45.06609" lon="6.41121">
        <ele>2496.8</ele>
        <time>2022-07-17T11:14:14Z</time>
      </trkpt>
      <trkpt lat="45.06607" lon="6.4112">
        <ele>2496.8</ele>
        <time>2022-07-17T11:14:15Z</time>
      </trkpt>
      <trkpt lat="45.06605" lon="6.41119">
        <ele>2496.8</ele>
        <time>2022-07-17T11:14:16Z</time>
      </trkpt>
      <trkpt lat="45.06603" lon="6.41118">
        <ele>2496.8</ele>
        <time>2022-07-17T11:14:17Z</time>
      </trkpt>
      <trkpt lat="45.06601" lon="6.41117">
        <ele>2497</ele>
        <time>2022-07-17T11:14:18Z</time>
      </trkpt>
      <trkpt lat="45.06599" lon="6.41116">
        <ele>2497</ele>
        <time>2022-07-17T11:14:19Z</time>
      </trkpt>
      <trkpt lat="45.06597" lon="6.41115">
        <ele>2497</ele>
        <time>2022-07-17T11:14:20Z</time>
      </trkpt>
      <trkpt lat="45.06595" lon="6.41114">
        <ele>2497.2</ele>
        <time>2022-07-17T11:14:21Z</time>
      </trkpt>
      <trkpt lat="45.06593" lon="6.41113">
        <ele>2497.2</ele>
        <time>2022-07-17T11:14:22Z</time>
      </trkpt>
      <trkpt lat="45.06591" lon="6.41111">
        <ele>2497.2</ele>
        <time>2022-07-17T11:14:23Z</time>
      </trkpt>
      <trkpt lat="45.06589" lon="6.4111">
        <ele>2497.6</ele>
        <time>2022-07-17T11:14:24Z</time>
      </trkpt>
      <trkpt lat="45.06587" lon="6.41109">
        <ele>2497.6</ele>
        <time>2022-07-17T11:14:25Z</time>
      </trkpt>
      <trkpt lat="45.06585" lon="6.41107">
        <ele>2497.8</ele>
        <time>2022-07-17T11:14:26Z</time>
      </trkpt>
      <trkpt lat="45.06583" lon="6.41106">
        <ele>2497.8</ele>
        <time>2022-07-17T11:14:27Z</time>
      </trkpt>
      <trkpt lat="45.06581" lon="6.41105">
        <ele>2498</ele>
        <time>2022-07-17T11:14:28Z</time>
      </trkpt>
      <trkpt lat="45.06578" lon="6.41104">
        <ele>2498</ele>
        <time>2022-07-17T11:14:29Z</time>
      </trkpt>
      <trkpt lat="45.06576" lon="6.41103">
        <ele>2498</ele>
        <time>2022-07-17T11:14:30Z</time>
      </trkpt>
      <trkpt lat="45.06574" lon="6.41102">
        <ele>2498.4</ele>
        <time>2022-07-17T11:14:31Z</time>
      </trkpt>
      <trkpt lat="45.06572" lon="6.41101">
        <ele>2498.4</ele>
        <time>2022-07-17T11:14:32Z</time>
      </trkpt>
      <trkpt lat="45.0657" lon="6.411">
        <ele>2498.6</ele>
        <time>2022-07-17T11:14:33Z</time>
      </trkpt>
      <trkpt lat="45.06568" lon="6.41099">
        <ele>2498.6</ele>
        <time>2022-07-17T11:14:34Z</time>
      </trkpt>
      <trkpt lat="45.06566" lon="6.41098">
        <ele>2498.6</ele>
        <time>2022-07-17T11:14:35Z</time>
      </trkpt>
      <trkpt lat="45.06564" lon="6.41097">
        <ele>2499</ele>
        <time>2022-07-17T11:14:36Z</time>
      </trkpt>
      <trkpt lat="45.06562" lon="6.41095">
        <ele>2499</ele>
        <time>2022-07-17T11:14:37Z</time>
      </trkpt>
      <trkpt lat="45.0656" lon="6.41094">
        <ele>2499</ele>
        <time>2022-07-17T11:14:38Z</time>
      </trkpt>
      <trkpt lat="45.06558" lon="6.41093">
        <ele>2499.2</ele>
        <time>2022-07-17T11:14:39Z</time>
      </trkpt>
      <trkpt lat="45.06556" lon="6.41092">
        <ele>2499.2</ele>
        <time>2022-07-17T11:14:40Z</time>
      </trkpt>
      <trkpt lat="45.06554" lon="6.41091">
        <ele>2499.6</ele>
        <time>2022-07-17T11:14:41Z</time>
      </trkpt>
      <trkpt lat="45.06552" lon="6.41089">
        <ele>2499.8</ele>
        <time>2022-07-17T11:14:42Z</time>
      </trkpt>
      <trkpt lat="45.06551" lon="6.41088">
        <ele>2499.8</ele>
        <time>2022-07-17T11:14:43Z</time>
      </trkpt>
      <trkpt lat="45.06549" lon="6.41086">
        <ele>2500.2</ele>
        <time>2022-07-17T11:14:44Z</time>
      </trkpt>
      <trkpt lat="45.06548" lon="6.41083">
        <ele>2500.4</ele>
        <time>2022-07-17T11:14:45Z</time>
      </trkpt>
      <trkpt lat="45.06546" lon="6.41081">
        <ele>2500.6</ele>
        <time>2022-07-17T11:14:46Z</time>
      </trkpt>
      <trkpt lat="45.06545" lon="6.41079">
        <ele>2500.8</ele>
        <time>2022-07-17T11:14:47Z</time>
      </trkpt>
      <trkpt lat="45.06543" lon="6.41077">
        <ele>2501.2</ele>
        <time>2022-07-17T11:14:48Z</time>
      </trkpt>
      <trkpt lat="45.06542" lon="6.41075">
        <ele>2501.4</ele>
        <time>2022-07-17T11:14:49Z</time>
      </trkpt>
      <trkpt lat="45.06541" lon="6.41073">
        <ele>2501.4</ele>
        <time>2022-07-17T11:14:50Z</time>
      </trkpt>
      <trkpt lat="45.0654" lon="6.41071">
        <ele>2501.8</ele>
        <time>2022-07-17T11:14:51Z</time>
      </trkpt>
      <trkpt lat="45.06539" lon="6.41068">
        <ele>2501.8</ele>
        <time>2022-07-17T11:14:52Z</time>
      </trkpt>
      <trkpt lat="45.06539" lon="6.41066">
        <ele>2502.2</ele>
        <time>2022-07-17T11:14:53Z</time>
      </trkpt>
      <trkpt lat="45.06538" lon="6.41064">
        <ele>2502.2</ele>
        <time>2022-07-17T11:14:54Z</time>
      </trkpt>
      <trkpt lat="45.06537" lon="6.41062">
        <ele>2502.6</ele>
        <time>2022-07-17T11:14:55Z</time>
      </trkpt>
      <trkpt lat="45.06536" lon="6.41059">
        <ele>2502.6</ele>
        <time>2022-07-17T11:14:56Z</time>
      </trkpt>
      <trkpt lat="45.06535" lon="6.41057">
        <ele>2502.8</ele>
        <time>2022-07-17T11:14:57Z</time>
      </trkpt>
      <trkpt lat="45.06535" lon="6.41055">
        <ele>2502.8</ele>
        <time>2022-07-17T11:14:58Z</time>
      </trkpt>
      <trkpt lat="45.06534" lon="6.41053">
        <ele>2503.2</ele>
        <time>2022-07-17T11:14:59Z</time>
      </trkpt>
      <trkpt lat="45.06533" lon="6.41051">
        <ele>2503.4</ele>
        <time>2022-07-17T11:15:00Z</time>
      </trkpt>
      <trkpt lat="45.06532" lon="6.41049">
        <ele>2503.6</ele>
        <time>2022-07-17T11:15:01Z</time>
      </trkpt>
      <trkpt lat="45.06532" lon="6.41046">
        <ele>2503.6</ele>
        <time>2022-07-17T11:15:02Z</time>
      </trkpt>
      <trkpt lat="45.06531" lon="6.41044">
        <ele>2503.8</ele>
        <time>2022-07-17T11:15:03Z</time>
      </trkpt>
      <trkpt lat="45.0653" lon="6.41042">
        <ele>2503.8</ele>
        <time>2022-07-17T11:15:04Z</time>
      </trkpt>
      <trkpt lat="45.06529" lon="6.4104">
        <ele>2504.2</ele>
        <time>2022-07-17T11:15:05Z</time>
      </trkpt>
      <trkpt lat="45.06528" lon="6.41039">
        <ele>2504.2</ele>
        <time>2022-07-17T11:15:06Z</time>
      </trkpt>
      <trkpt lat="45.06527" lon="6.41037">
        <ele>2504.6</ele>
        <time>2022-07-17T11:15:07Z</time>
      </trkpt>
      <trkpt lat="45.06526" lon="6.41035">
        <ele>2504.6</ele>
        <time>2022-07-17T11:15:08Z</time>
      </trkpt>
      <trkpt lat="45.06525" lon="6.41033">
        <ele>2505</ele>
        <time>2022-07-17T11:15:09Z</time>
      </trkpt>
      <trkpt lat="45.06524" lon="6.41032">
        <ele>2505.2</ele>
        <time>2022-07-17T11:15:10Z</time>
      </trkpt>
      <trkpt lat="45.06523" lon="6.4103">
        <ele>2505.4</ele>
        <time>2022-07-17T11:15:11Z</time>
      </trkpt>
      <trkpt lat="45.06521" lon="6.41028">
        <ele>2505.6</ele>
        <time>2022-07-17T11:15:12Z</time>
      </trkpt>
      <trkpt lat="45.0652" lon="6.41026">
        <ele>2505.6</ele>
        <time>2022-07-17T11:15:13Z</time>
      </trkpt>
      <trkpt lat="45.06519" lon="6.41024">
        <ele>2506</ele>
        <time>2022-07-17T11:15:14Z</time>
      </trkpt>
      <trkpt lat="45.06518" lon="6.41022">
        <ele>2506.4</ele>
        <time>2022-07-17T11:15:15Z</time>
      </trkpt>
      <trkpt lat="45.06517" lon="6.4102">
        <ele>2506.4</ele>
        <time>2022-07-17T11:15:16Z</time>
      </trkpt>
      <trkpt lat="45.06516" lon="6.41018">
        <ele>2506.8</ele>
        <time>2022-07-17T11:15:17Z</time>
      </trkpt>
      <trkpt lat="45.06515" lon="6.41016">
        <ele>2506.8</ele>
        <time>2022-07-17T11:15:18Z</time>
      </trkpt>
      <trkpt lat="45.06514" lon="6.41014">
        <ele>2507.2</ele>
        <time>2022-07-17T11:15:19Z</time>
      </trkpt>
      <trkpt lat="45.06513" lon="6.41012">
        <ele>2507.2</ele>
        <time>2022-07-17T11:15:20Z</time>
      </trkpt>
      <trkpt lat="45.06512" lon="6.4101">
        <ele>2507.6</ele>
        <time>2022-07-17T11:15:21Z</time>
      </trkpt>
      <trkpt lat="45.06511" lon="6.41008">
        <ele>2507.8</ele>
        <time>2022-07-17T11:15:22Z</time>
      </trkpt>
      <trkpt lat="45.0651" lon="6.41006">
        <ele>2508</ele>
        <time>2022-07-17T11:15:23Z</time>
      </trkpt>
      <trkpt lat="45.06509" lon="6.41004">
        <ele>2508</ele>
        <time>2022-07-17T11:15:24Z</time>
      </trkpt>
      <trkpt lat="45.06508" lon="6.41003">
        <ele>2508.4</ele>
        <time>2022-07-17T11:15:25Z</time>
      </trkpt>
      <trkpt lat="45.06507" lon="6.41001">
        <ele>2508.4</ele>
        <time>2022-07-17T11:15:26Z</time>
      </trkpt>
      <trkpt lat="45.06506" lon="6.40999">
        <ele>2508.8</ele>
        <time>2022-07-17T11:15:27Z</time>
      </trkpt>
      <trkpt lat="45.06505" lon="6.40997">
        <ele>2508.8</ele>
        <time>2022-07-17T11:15:28Z</time>
      </trkpt>
      <trkpt lat="45.06505" lon="6.40995">
        <ele>2509</ele>
        <time>2022-07-17T11:15:29Z</time>
      </trkpt>
      <trkpt lat="45.06504" lon="6.40993">
        <ele>2509</ele>
        <time>2022-07-17T11:15:30Z</time>
      </trkpt>
      <trkpt lat="45.06503" lon="6.40991">
        <ele>2509.4</ele>
        <time>2022-07-17T11:15:31Z</time>
      </trkpt>
      <trkpt lat="45.06502" lon="6.40989">
        <ele>2509.6</ele>
        <time>2022-07-17T11:15:32Z</time>
      </trkpt>
      <trkpt lat="45.06501" lon="6.40988">
        <ele>2509.6</ele>
        <time>2022-07-17T11:15:33Z</time>
      </trkpt>
      <trkpt lat="45.065" lon="6.40986">
        <ele>2510</ele>
        <time>2022-07-17T11:15:34Z</time>
      </trkpt>
      <trkpt lat="45.06499" lon="6.40984">
        <ele>2510</ele>
        <time>2022-07-17T11:15:35Z</time>
      </trkpt>
      <trkpt lat="45.06498" lon="6.40983">
        <ele>2510.4</ele>
        <time>2022-07-17T11:15:36Z</time>
      </trkpt>
      <trkpt lat="45.06497" lon="6.40981">
        <ele>2510.4</ele>
        <time>2022-07-17T11:15:37Z</time>
      </trkpt>
      <trkpt lat="45.06497" lon="6.40978">
        <ele>2510.6</ele>
        <time>2022-07-17T11:15:38Z</time>
      </trkpt>
      <trkpt lat="45.06496" lon="6.40976">
        <ele>2510.6</ele>
        <time>2022-07-17T11:15:39Z</time>
      </trkpt>
      <trkpt lat="45.06495" lon="6.40975">
        <ele>2511</ele>
        <time>2022-07-17T11:15:40Z</time>
      </trkpt>
      <trkpt lat="45.06494" lon="6.40973">
        <ele>2511</ele>
        <time>2022-07-17T11:15:41Z</time>
      </trkpt>
      <trkpt lat="45.06493" lon="6.40971">
        <ele>2511.4</ele>
        <time>2022-07-17T11:15:42Z</time>
      </trkpt>
      <trkpt lat="45.06492" lon="6.40969">
        <ele>2511.4</ele>
        <time>2022-07-17T11:15:43Z</time>
      </trkpt>
      <trkpt lat="45.06492" lon="6.40967">
        <ele>2511.8</ele>
        <time>2022-07-17T11:15:44Z</time>
      </trkpt>
      <trkpt lat="45.0649" lon="6.40965">
        <ele>2511.8</ele>
        <time>2022-07-17T11:15:45Z</time>
      </trkpt>
      <trkpt lat="45.06489" lon="6.40963">
        <ele>2512</ele>
        <time>2022-07-17T11:15:46Z</time>
      </trkpt>
      <trkpt lat="45.06488" lon="6.40961">
        <ele>2512</ele>
        <time>2022-07-17T11:15:47Z</time>
      </trkpt>
      <trkpt lat="45.06487" lon="6.4096">
        <ele>2512</ele>
        <time>2022-07-17T11:15:48Z</time>
      </trkpt>
      <trkpt lat="45.06486" lon="6.40958">
        <ele>2512.2</ele>
        <time>2022-07-17T11:15:49Z</time>
      </trkpt>
      <trkpt lat="45.06484" lon="6.40957">
        <ele>2512.2</ele>
        <time>2022-07-17T11:15:50Z</time>
      </trkpt>
      <trkpt lat="45.06483" lon="6.40956">
        <ele>2512.2</ele>
        <time>2022-07-17T11:15:51Z</time>
      </trkpt>
      <trkpt lat="45.06481" lon="6.40954">
        <ele>2512.6</ele>
        <time>2022-07-17T11:15:52Z</time>
      </trkpt>
      <trkpt lat="45.0648" lon="6.40953">
        <ele>2512.6</ele>
        <time>2022-07-17T11:15:53Z</time>
      </trkpt>
      <trkpt lat="45.06479" lon="6.40952">
        <ele>2512.8</ele>
        <time>2022-07-17T11:15:54Z</time>
      </trkpt>
      <trkpt lat="45.06477" lon="6.4095">
        <ele>2513</ele>
        <time>2022-07-17T11:15:55Z</time>
      </trkpt>
      <trkpt lat="45.06476" lon="6.40949">
        <ele>2513.2</ele>
        <time>2022-07-17T11:15:56Z</time>
      </trkpt>
      <trkpt lat="45.06474" lon="6.40948">
        <ele>2513.2</ele>
        <time>2022-07-17T11:15:57Z</time>
      </trkpt>
      <trkpt lat="45.06473" lon="6.40946">
        <ele>2513.6</ele>
        <time>2022-07-17T11:15:58Z</time>
      </trkpt>
      <trkpt lat="45.06472" lon="6.40945">
        <ele>2513.6</ele>
        <time>2022-07-17T11:15:59Z</time>
      </trkpt>
      <trkpt lat="45.0647" lon="6.40944">
        <ele>2513.8</ele>
        <time>2022-07-17T11:16:00Z</time>
      </trkpt>
      <trkpt lat="45.06469" lon="6.40943">
        <ele>2513.8</ele>
        <time>2022-07-17T11:16:01Z</time>
      </trkpt>
      <trkpt lat="45.06468" lon="6.40941">
        <ele>2514</ele>
        <time>2022-07-17T11:16:02Z</time>
      </trkpt>
      <trkpt lat="45.06466" lon="6.4094">
        <ele>2514</ele>
        <time>2022-07-17T11:16:03Z</time>
      </trkpt>
      <trkpt lat="45.06465" lon="6.40939">
        <ele>2514</ele>
        <time>2022-07-17T11:16:04Z</time>
      </trkpt>
      <trkpt lat="45.06464" lon="6.40938">
        <ele>2514.2</ele>
        <time>2022-07-17T11:16:05Z</time>
      </trkpt>
      <trkpt lat="45.06462" lon="6.40936">
        <ele>2514.2</ele>
        <time>2022-07-17T11:16:06Z</time>
      </trkpt>
      <trkpt lat="45.06461" lon="6.40935">
        <ele>2514.6</ele>
        <time>2022-07-17T11:16:07Z</time>
      </trkpt>
      <trkpt lat="45.0646" lon="6.40933">
        <ele>2514.8</ele>
        <time>2022-07-17T11:16:08Z</time>
      </trkpt>
      <trkpt lat="45.06459" lon="6.40931">
        <ele>2515.2</ele>
        <time>2022-07-17T11:16:09Z</time>
      </trkpt>
      <trkpt lat="45.06458" lon="6.4093">
        <ele>2515.2</ele>
        <time>2022-07-17T11:16:10Z</time>
      </trkpt>
      <trkpt lat="45.06456" lon="6.40928">
        <ele>2515.4</ele>
        <time>2022-07-17T11:16:11Z</time>
      </trkpt>
      <trkpt lat="45.06455" lon="6.40927">
        <ele>2515.4</ele>
        <time>2022-07-17T11:16:12Z</time>
      </trkpt>
      <trkpt lat="45.06454" lon="6.40925">
        <ele>2515.8</ele>
        <time>2022-07-17T11:16:13Z</time>
      </trkpt>
      <trkpt lat="45.06453" lon="6.40924">
        <ele>2515.8</ele>
        <time>2022-07-17T11:16:14Z</time>
      </trkpt>
      <trkpt lat="45.06452" lon="6.40922">
        <ele>2516</ele>
        <time>2022-07-17T11:16:15Z</time>
      </trkpt>
      <trkpt lat="45.06451" lon="6.4092">
        <ele>2516.2</ele>
        <time>2022-07-17T11:16:16Z</time>
      </trkpt>
      <trkpt lat="45.0645" lon="6.40918">
        <ele>2516.2</ele>
        <time>2022-07-17T11:16:17Z</time>
      </trkpt>
      <trkpt lat="45.06449" lon="6.40916">
        <ele>2516.6</ele>
        <time>2022-07-17T11:16:18Z</time>
      </trkpt>
      <trkpt lat="45.06449" lon="6.40914">
        <ele>2516.8</ele>
        <time>2022-07-17T11:16:19Z</time>
      </trkpt>
      <trkpt lat="45.06448" lon="6.40912">
        <ele>2516.8</ele>
        <time>2022-07-17T11:16:20Z</time>
      </trkpt>
      <trkpt lat="45.06447" lon="6.4091">
        <ele>2517.2</ele>
        <time>2022-07-17T11:16:21Z</time>
      </trkpt>
      <trkpt lat="45.06446" lon="6.40908">
        <ele>2517.2</ele>
        <time>2022-07-17T11:16:22Z</time>
      </trkpt>
      <trkpt lat="45.06446" lon="6.40906">
        <ele>2517.6</ele>
        <time>2022-07-17T11:16:23Z</time>
      </trkpt>
      <trkpt lat="45.06445" lon="6.40904">
        <ele>2517.6</ele>
        <time>2022-07-17T11:16:24Z</time>
      </trkpt>
      <trkpt lat="45.06444" lon="6.40902">
        <ele>2518</ele>
        <time>2022-07-17T11:16:25Z</time>
      </trkpt>
      <trkpt lat="45.06443" lon="6.409">
        <ele>2518</ele>
        <time>2022-07-17T11:16:26Z</time>
      </trkpt>
      <trkpt lat="45.06442" lon="6.40897">
        <ele>2518</ele>
        <time>2022-07-17T11:16:27Z</time>
      </trkpt>
      <trkpt lat="45.06441" lon="6.40895">
        <ele>2518.2</ele>
        <time>2022-07-17T11:16:28Z</time>
      </trkpt>
      <trkpt lat="45.0644" lon="6.40893">
        <ele>2518.2</ele>
        <time>2022-07-17T11:16:29Z</time>
      </trkpt>
      <trkpt lat="45.0644" lon="6.40891">
        <ele>2518.6</ele>
        <time>2022-07-17T11:16:30Z</time>
      </trkpt>
      <trkpt lat="45.06438" lon="6.40886">
        <ele>2518.6</ele>
        <time>2022-07-17T11:16:31Z</time>
      </trkpt>
      <trkpt lat="45.06438" lon="6.40884">
        <ele>2518.8</ele>
        <time>2022-07-17T11:16:32Z</time>
      </trkpt>
      <trkpt lat="45.06437" lon="6.40882">
        <ele>2518.8</ele>
        <time>2022-07-17T11:16:33Z</time>
      </trkpt>
      <trkpt lat="45.06436" lon="6.4088">
        <ele>2519.2</ele>
        <time>2022-07-17T11:16:34Z</time>
      </trkpt>
      <trkpt lat="45.06435" lon="6.40878">
        <ele>2519.2</ele>
        <time>2022-07-17T11:16:35Z</time>
      </trkpt>
      <trkpt lat="45.06435" lon="6.40875">
        <ele>2519.4</ele>
        <time>2022-07-17T11:16:36Z</time>
      </trkpt>
      <trkpt lat="45.06435" lon="6.40873">
        <ele>2519.4</ele>
        <time>2022-07-17T11:16:37Z</time>
      </trkpt>
      <trkpt lat="45.06434" lon="6.40871">
        <ele>2519.8</ele>
        <time>2022-07-17T11:16:38Z</time>
      </trkpt>
      <trkpt lat="45.06434" lon="6.40869">
        <ele>2520</ele>
        <time>2022-07-17T11:16:39Z</time>
      </trkpt>
      <trkpt lat="45.06433" lon="6.40866">
        <ele>2520</ele>
        <time>2022-07-17T11:16:40Z</time>
      </trkpt>
      <trkpt lat="45.06433" lon="6.40864">
        <ele>2520.2</ele>
        <time>2022-07-17T11:16:41Z</time>
      </trkpt>
      <trkpt lat="45.06432" lon="6.40862">
        <ele>2520.6</ele>
        <time>2022-07-17T11:16:42Z</time>
      </trkpt>
      <trkpt lat="45.06431" lon="6.4086">
        <ele>2520.6</ele>
        <time>2022-07-17T11:16:43Z</time>
      </trkpt>
      <trkpt lat="45.06431" lon="6.40857">
        <ele>2520.8</ele>
        <time>2022-07-17T11:16:44Z</time>
      </trkpt>
      <trkpt lat="45.0643" lon="6.40855">
        <ele>2520.8</ele>
        <time>2022-07-17T11:16:45Z</time>
      </trkpt>
      <trkpt lat="45.0643" lon="6.40853">
        <ele>2521.2</ele>
        <time>2022-07-17T11:16:46Z</time>
      </trkpt>
      <trkpt lat="45.06429" lon="6.4085">
        <ele>2521.2</ele>
        <time>2022-07-17T11:16:47Z</time>
      </trkpt>
      <trkpt lat="45.06428" lon="6.40848">
        <ele>2521.4</ele>
        <time>2022-07-17T11:16:48Z</time>
      </trkpt>
      <trkpt lat="45.06428" lon="6.40846">
        <ele>2521.4</ele>
        <time>2022-07-17T11:16:49Z</time>
      </trkpt>
      <trkpt lat="45.06427" lon="6.40844">
        <ele>2521.8</ele>
        <time>2022-07-17T11:16:50Z</time>
      </trkpt>
      <trkpt lat="45.06426" lon="6.40841">
        <ele>2522</ele>
        <time>2022-07-17T11:16:51Z</time>
      </trkpt>
      <trkpt lat="45.06426" lon="6.40839">
        <ele>2522</ele>
        <time>2022-07-17T11:16:52Z</time>
      </trkpt>
      <trkpt lat="45.06426" lon="6.40837">
        <ele>2522.4</ele>
        <time>2022-07-17T11:16:53Z</time>
      </trkpt>
      <trkpt lat="45.06425" lon="6.40834">
        <ele>2522.6</ele>
        <time>2022-07-17T11:16:54Z</time>
      </trkpt>
      <trkpt lat="45.06425" lon="6.40832">
        <ele>2522.6</ele>
        <time>2022-07-17T11:16:55Z</time>
      </trkpt>
      <trkpt lat="45.06425" lon="6.40829">
        <ele>2523</ele>
        <time>2022-07-17T11:16:56Z</time>
      </trkpt>
      <trkpt lat="45.06425" lon="6.40827">
        <ele>2523.2</ele>
        <time>2022-07-17T11:16:57Z</time>
      </trkpt>
      <trkpt lat="45.06425" lon="6.40825">
        <ele>2523.2</ele>
        <time>2022-07-17T11:16:58Z</time>
      </trkpt>
      <trkpt lat="45.06425" lon="6.40822">
        <ele>2523.4</ele>
        <time>2022-07-17T11:16:59Z</time>
      </trkpt>
      <trkpt lat="45.06424" lon="6.4082">
        <ele>2523.4</ele>
        <time>2022-07-17T11:17:00Z</time>
      </trkpt>
      <trkpt lat="45.06424" lon="6.40818">
        <ele>2523.8</ele>
        <time>2022-07-17T11:17:01Z</time>
      </trkpt>
      <trkpt lat="45.06424" lon="6.40816">
        <ele>2523.8</ele>
        <time>2022-07-17T11:17:02Z</time>
      </trkpt>
      <trkpt lat="45.06424" lon="6.40814">
        <ele>2524</ele>
        <time>2022-07-17T11:17:03Z</time>
      </trkpt>
      <trkpt lat="45.06424" lon="6.40812">
        <ele>2524</ele>
        <time>2022-07-17T11:17:04Z</time>
      </trkpt>
      <trkpt lat="45.06424" lon="6.4081">
        <ele>2524.4</ele>
        <time>2022-07-17T11:17:05Z</time>
      </trkpt>
      <trkpt lat="45.06424" lon="6.40808">
        <ele>2524.4</ele>
        <time>2022-07-17T11:17:06Z</time>
      </trkpt>
      <trkpt lat="45.06424" lon="6.40805">
        <ele>2524.6</ele>
        <time>2022-07-17T11:17:07Z</time>
      </trkpt>
      <trkpt lat="45.06424" lon="6.40803">
        <ele>2524.8</ele>
        <time>2022-07-17T11:17:08Z</time>
      </trkpt>
      <trkpt lat="45.06425" lon="6.40801">
        <ele>2524.8</ele>
        <time>2022-07-17T11:17:09Z</time>
      </trkpt>
      <trkpt lat="45.06424" lon="6.40799">
        <ele>2525.2</ele>
        <time>2022-07-17T11:17:10Z</time>
      </trkpt>
      <trkpt lat="45.06424" lon="6.40797">
        <ele>2525.4</ele>
        <time>2022-07-17T11:17:11Z</time>
      </trkpt>
      <trkpt lat="45.06423" lon="6.40795">
        <ele>2525.4</ele>
        <time>2022-07-17T11:17:12Z</time>
      </trkpt>
      <trkpt lat="45.06423" lon="6.40792">
        <ele>2527</ele>
        <time>2022-07-17T11:26:20Z</time>
      </trkpt>
      <trkpt lat="45.06421" lon="6.40791">
        <ele>2527</ele>
        <time>2022-07-17T11:26:21Z</time>
      </trkpt>
      <trkpt lat="45.06419" lon="6.4079">
        <ele>2526.8</ele>
        <time>2022-07-17T11:26:22Z</time>
      </trkpt>
      <trkpt lat="45.06417" lon="6.40789">
        <ele>2526.8</ele>
        <time>2022-07-17T11:26:23Z</time>
      </trkpt>
      <trkpt lat="45.06415" lon="6.40789">
        <ele>2526.8</ele>
        <time>2022-07-17T11:26:24Z</time>
      </trkpt>
      <trkpt lat="45.06413" lon="6.4079">
        <ele>2526.4</ele>
        <time>2022-07-17T11:26:25Z</time>
      </trkpt>
      <trkpt lat="45.0641" lon="6.40793">
        <ele>2526.2</ele>
        <time>2022-07-17T11:26:26Z</time>
      </trkpt>
      <trkpt lat="45.06408" lon="6.40797">
        <ele>2526</ele>
        <time>2022-07-17T11:26:27Z</time>
      </trkpt>
      <trkpt lat="45.06405" lon="6.40803">
        <ele>2526</ele>
        <time>2022-07-17T11:26:28Z</time>
      </trkpt>
      <trkpt lat="45.06402" lon="6.4081">
        <ele>2525.4</ele>
        <time>2022-07-17T11:26:30Z</time>
      </trkpt>
      <trkpt lat="45.064" lon="6.40818">
        <ele>2525</ele>
        <time>2022-07-17T11:26:31Z</time>
      </trkpt>
      <trkpt lat="45.06397" lon="6.40827">
        <ele>2524.4</ele>
        <time>2022-07-17T11:26:32Z</time>
      </trkpt>
      <trkpt lat="45.06395" lon="6.40837">
        <ele>2523.8</ele>
        <time>2022-07-17T11:26:33Z</time>
      </trkpt>
      <trkpt lat="45.06391" lon="6.40849">
        <ele>2523.2</ele>
        <time>2022-07-17T11:26:34Z</time>
      </trkpt>
      <trkpt lat="45.06388" lon="6.4086">
        <ele>2522.4</ele>
        <time>2022-07-17T11:26:35Z</time>
      </trkpt>
      <trkpt lat="45.06384" lon="6.40872">
        <ele>2521.6</ele>
        <time>2022-07-17T11:26:36Z</time>
      </trkpt>
      <trkpt lat="45.0638" lon="6.40883">
        <ele>2520.8</ele>
        <time>2022-07-17T11:26:37Z</time>
      </trkpt>
      <trkpt lat="45.06376" lon="6.40892">
        <ele>2520</ele>
        <time>2022-07-17T11:26:38Z</time>
      </trkpt>
      <trkpt lat="45.06371" lon="6.409">
        <ele>2519.4</ele>
        <time>2022-07-17T11:26:39Z</time>
      </trkpt>
      <trkpt lat="45.06365" lon="6.40906">
        <ele>2518.8</ele>
        <time>2022-07-17T11:26:40Z</time>
      </trkpt>
      <trkpt lat="45.06359" lon="6.40912">
        <ele>2518.2</ele>
        <time>2022-07-17T11:26:41Z</time>
      </trkpt>
      <trkpt lat="45.06353" lon="6.40919">
        <ele>2517.4</ele>
        <time>2022-07-17T11:26:42Z</time>
      </trkpt>
      <trkpt lat="45.06348" lon="6.40927">
        <ele>2516.8</ele>
        <time>2022-07-17T11:26:43Z</time>
      </trkpt>
      <trkpt lat="45.06344" lon="6.40936">
        <ele>2516</ele>
        <time>2022-07-17T11:26:44Z</time>
      </trkpt>
      <trkpt lat="45.0634" lon="6.40947">
        <ele>2515</ele>
        <time>2022-07-17T11:26:45Z</time>
      </trkpt>
      <trkpt lat="45.06336" lon="6.40958">
        <ele>2514.2</ele>
        <time>2022-07-17T11:26:46Z</time>
      </trkpt>
      <trkpt lat="45.06334" lon="6.4097">
        <ele>2513.4</ele>
        <time>2022-07-17T11:26:47Z</time>
      </trkpt>
      <trkpt lat="45.0633" lon="6.40982">
        <ele>2512.6</ele>
        <time>2022-07-17T11:26:48Z</time>
      </trkpt>
      <trkpt lat="45.06326" lon="6.40993">
        <ele>2512</ele>
        <time>2022-07-17T11:26:49Z</time>
      </trkpt>
      <trkpt lat="45.06321" lon="6.41005">
        <ele>2511</ele>
        <time>2022-07-17T11:26:50Z</time>
      </trkpt>
      <trkpt lat="45.06315" lon="6.41013">
        <ele>2509.8</ele>
        <time>2022-07-17T11:26:51Z</time>
      </trkpt>
      <trkpt lat="45.06308" lon="6.4102">
        <ele>2509</ele>
        <time>2022-07-17T11:26:52Z</time>
      </trkpt>
      <trkpt lat="45.06302" lon="6.41028">
        <ele>2508</ele>
        <time>2022-07-17T11:26:53Z</time>
      </trkpt>
      <trkpt lat="45.06297" lon="6.41038">
        <ele>2507</ele>
        <time>2022-07-17T11:26:54Z</time>
      </trkpt>
      <trkpt lat="45.06292" lon="6.41049">
        <ele>2506</ele>
        <time>2022-07-17T11:26:55Z</time>
      </trkpt>
      <trkpt lat="45.06288" lon="6.41061">
        <ele>2505</ele>
        <time>2022-07-17T11:26:56Z</time>
      </trkpt>
      <trkpt lat="45.06285" lon="6.41074">
        <ele>2504</ele>
        <time>2022-07-17T11:26:57Z</time>
      </trkpt>
      <trkpt lat="45.06283" lon="6.41088">
        <ele>2502.8</ele>
        <time>2022-07-17T11:26:58Z</time>
      </trkpt>
      <trkpt lat="45.0628" lon="6.41102">
        <ele>2501.6</ele>
        <time>2022-07-17T11:26:59Z</time>
      </trkpt>
      <trkpt lat="45.06278" lon="6.41116">
        <ele>2500.4</ele>
        <time>2022-07-17T11:27:00Z</time>
      </trkpt>
      <trkpt lat="45.06276" lon="6.41128">
        <ele>2499.2</ele>
        <time>2022-07-17T11:27:01Z</time>
      </trkpt>
      <trkpt lat="45.06274" lon="6.4114">
        <ele>2498</ele>
        <time>2022-07-17T11:27:02Z</time>
      </trkpt>
      <trkpt lat="45.06272" lon="6.41151">
        <ele>2497</ele>
        <time>2022-07-17T11:27:03Z</time>
      </trkpt>
      <trkpt lat="45.06269" lon="6.41159">
        <ele>2496.2</ele>
        <time>2022-07-17T11:27:04Z</time>
      </trkpt>
      <trkpt lat="45.06266" lon="6.41165">
        <ele>2495.4</ele>
        <time>2022-07-17T11:27:05Z</time>
      </trkpt>
      <trkpt lat="45.06262" lon="6.41167">
        <ele>2494.6</ele>
        <time>2022-07-17T11:27:06Z</time>
      </trkpt>
      <trkpt lat="45.06259" lon="6.41167">
        <ele>2494</ele>
        <time>2022-07-17T11:27:07Z</time>
      </trkpt>
      <trkpt lat="45.06256" lon="6.41164">
        <ele>2493.4</ele>
        <time>2022-07-17T11:27:08Z</time>
      </trkpt>
      <trkpt lat="45.06254" lon="6.41158">
        <ele>2492.8</ele>
        <time>2022-07-17T11:27:09Z</time>
      </trkpt>
      <trkpt lat="45.06255" lon="6.4115">
        <ele>2492.2</ele>
        <time>2022-07-17T11:27:10Z</time>
      </trkpt>
      <trkpt lat="45.06257" lon="6.41142">
        <ele>2491.2</ele>
        <time>2022-07-17T11:27:11Z</time>
      </trkpt>
      <trkpt lat="45.06259" lon="6.41133">
        <ele>2490.6</ele>
        <time>2022-07-17T11:27:12Z</time>
      </trkpt>
      <trkpt lat="45.06261" lon="6.41122">
        <ele>2490</ele>
        <time>2022-07-17T11:27:13Z</time>
      </trkpt>
      <trkpt lat="45.06262" lon="6.41113">
        <ele>2489.4</ele>
        <time>2022-07-17T11:27:14Z</time>
      </trkpt>
      <trkpt lat="45.06263" lon="6.41104">
        <ele>2489</ele>
        <time>2022-07-17T11:27:15Z</time>
      </trkpt>
      <trkpt lat="45.06262" lon="6.41097">
        <ele>2488.6</ele>
        <time>2022-07-17T11:27:16Z</time>
      </trkpt>
      <trkpt lat="45.0626" lon="6.41092">
        <ele>2488</ele>
        <time>2022-07-17T11:27:17Z</time>
      </trkpt>
      <trkpt lat="45.06257" lon="6.4109">
        <ele>2487.8</ele>
        <time>2022-07-17T11:27:18Z</time>
      </trkpt>
      <trkpt lat="45.06255" lon="6.4109">
        <ele>2487.8</ele>
        <time>2022-07-17T11:27:19Z</time>
      </trkpt>
      <trkpt lat="45.06253" lon="6.41094">
        <ele>2487.2</ele>
        <time>2022-07-17T11:27:20Z</time>
      </trkpt>
      <trkpt lat="45.06252" lon="6.411">
        <ele>2486.8</ele>
        <time>2022-07-17T11:27:21Z</time>
      </trkpt>
      <trkpt lat="45.06251" lon="6.41107">
        <ele>2486.4</ele>
        <time>2022-07-17T11:27:22Z</time>
      </trkpt>
      <trkpt lat="45.0625" lon="6.41115">
        <ele>2486</ele>
        <time>2022-07-17T11:27:23Z</time>
      </trkpt>
      <trkpt lat="45.06248" lon="6.41124">
        <ele>2485.6</ele>
        <time>2022-07-17T11:27:24Z</time>
      </trkpt>
      <trkpt lat="45.06246" lon="6.41132">
        <ele>2485.2</ele>
        <time>2022-07-17T11:27:25Z</time>
      </trkpt>
      <trkpt lat="45.06244" lon="6.4114">
        <ele>2484.8</ele>
        <time>2022-07-17T11:27:26Z</time>
      </trkpt>
      <trkpt lat="45.06241" lon="6.41148">
        <ele>2484.2</ele>
        <time>2022-07-17T11:27:27Z</time>
      </trkpt>
      <trkpt lat="45.06239" lon="6.41154">
        <ele>2483.8</ele>
        <time>2022-07-17T11:27:28Z</time>
      </trkpt>
      <trkpt lat="45.06236" lon="6.41157">
        <ele>2483.2</ele>
        <time>2022-07-17T11:27:29Z</time>
      </trkpt>
      <trkpt lat="45.06233" lon="6.41156">
        <ele>2482.8</ele>
        <time>2022-07-17T11:27:30Z</time>
      </trkpt>
      <trkpt lat="45.06231" lon="6.41153">
        <ele>2482.4</ele>
        <time>2022-07-17T11:27:31Z</time>
      </trkpt>
      <trkpt lat="45.06229" lon="6.41148">
        <ele>2482.2</ele>
        <time>2022-07-17T11:27:32Z</time>
      </trkpt>
      <trkpt lat="45.0623" lon="6.41141">
        <ele>2481.8</ele>
        <time>2022-07-17T11:27:33Z</time>
      </trkpt>
      <trkpt lat="45.06231" lon="6.41135">
        <ele>2481.6</ele>
        <time>2022-07-17T11:27:34Z</time>
      </trkpt>
      <trkpt lat="45.06233" lon="6.41127">
        <ele>2481.2</ele>
        <time>2022-07-17T11:27:35Z</time>
      </trkpt>
      <trkpt lat="45.06234" lon="6.41118">
        <ele>2480.8</ele>
        <time>2022-07-17T11:27:36Z</time>
      </trkpt>
      <trkpt lat="45.06234" lon="6.41109">
        <ele>2480.4</ele>
        <time>2022-07-17T11:27:37Z</time>
      </trkpt>
      <trkpt lat="45.06233" lon="6.41098">
        <ele>2480</ele>
        <time>2022-07-17T11:27:38Z</time>
      </trkpt>
      <trkpt lat="45.06231" lon="6.41088">
        <ele>2479.6</ele>
        <time>2022-07-17T11:27:39Z</time>
      </trkpt>
      <trkpt lat="45.06229" lon="6.41076">
        <ele>2479.2</ele>
        <time>2022-07-17T11:27:40Z</time>
      </trkpt>
      <trkpt lat="45.06229" lon="6.41064">
        <ele>2478.6</ele>
        <time>2022-07-17T11:27:41Z</time>
      </trkpt>
      <trkpt lat="45.06228" lon="6.41052">
        <ele>2478</ele>
        <time>2022-07-17T11:27:42Z</time>
      </trkpt>
      <trkpt lat="45.06228" lon="6.4104">
        <ele>2477.2</ele>
        <time>2022-07-17T11:27:43Z</time>
      </trkpt>
      <trkpt lat="45.06228" lon="6.41029">
        <ele>2476.6</ele>
        <time>2022-07-17T11:27:44Z</time>
      </trkpt>
      <trkpt lat="45.06227" lon="6.41018">
        <ele>2475.8</ele>
        <time>2022-07-17T11:27:45Z</time>
      </trkpt>
      <trkpt lat="45.06227" lon="6.41008">
        <ele>2475.2</ele>
        <time>2022-07-17T11:27:46Z</time>
      </trkpt>
      <trkpt lat="45.06227" lon="6.40998">
        <ele>2474.4</ele>
        <time>2022-07-17T11:27:47Z</time>
      </trkpt>
      <trkpt lat="45.06228" lon="6.40987">
        <ele>2473.6</ele>
        <time>2022-07-17T11:27:48Z</time>
      </trkpt>
      <trkpt lat="45.06231" lon="6.40976">
        <ele>2473</ele>
        <time>2022-07-17T11:27:49Z</time>
      </trkpt>
      <trkpt lat="45.06234" lon="6.40965">
        <ele>2472</ele>
        <time>2022-07-17T11:27:50Z</time>
      </trkpt>
      <trkpt lat="45.06238" lon="6.40953">
        <ele>2471.2</ele>
        <time>2022-07-17T11:27:51Z</time>
      </trkpt>
      <trkpt lat="45.06242" lon="6.4094">
        <ele>2470.2</ele>
        <time>2022-07-17T11:27:52Z</time>
      </trkpt>
      <trkpt lat="45.06247" lon="6.40927">
        <ele>2469.2</ele>
        <time>2022-07-17T11:27:53Z</time>
      </trkpt>
      <trkpt lat="45.06254" lon="6.40914">
        <ele>2468</ele>
        <time>2022-07-17T11:27:54Z</time>
      </trkpt>
      <trkpt lat="45.0626" lon="6.40902">
        <ele>2467.2</ele>
        <time>2022-07-17T11:27:55Z</time>
      </trkpt>
      <trkpt lat="45.06267" lon="6.40889">
        <ele>2466.4</ele>
        <time>2022-07-17T11:27:56Z</time>
      </trkpt>
      <trkpt lat="45.06274" lon="6.40878">
        <ele>2465.2</ele>
        <time>2022-07-17T11:27:57Z</time>
      </trkpt>
      <trkpt lat="45.06281" lon="6.40871">
        <ele>2464.4</ele>
        <time>2022-07-17T11:27:58Z</time>
      </trkpt>
      <trkpt lat="45.06288" lon="6.40863">
        <ele>2463.4</ele>
        <time>2022-07-17T11:27:59Z</time>
      </trkpt>
      <trkpt lat="45.06292" lon="6.40854">
        <ele>2462.4</ele>
        <time>2022-07-17T11:28:00Z</time>
      </trkpt>
      <trkpt lat="45.06296" lon="6.40843">
        <ele>2461.6</ele>
        <time>2022-07-17T11:28:01Z</time>
      </trkpt>
      <trkpt lat="45.06298" lon="6.40831">
        <ele>2460.8</ele>
        <time>2022-07-17T11:28:02Z</time>
      </trkpt>
      <trkpt lat="45.06299" lon="6.40818">
        <ele>2460</ele>
        <time>2022-07-17T11:28:03Z</time>
      </trkpt>
      <trkpt lat="45.06299" lon="6.40805">
        <ele>2459.4</ele>
        <time>2022-07-17T11:28:04Z</time>
      </trkpt>
      <trkpt lat="45.06299" lon="6.40792">
        <ele>2458.6</ele>
        <time>2022-07-17T11:28:05Z</time>
      </trkpt>
      <trkpt lat="45.06298" lon="6.40779">
        <ele>2458</ele>
        <time>2022-07-17T11:28:06Z</time>
      </trkpt>
      <trkpt lat="45.06298" lon="6.40767">
        <ele>2457.4</ele>
        <time>2022-07-17T11:28:07Z</time>
      </trkpt>
      <trkpt lat="45.06298" lon="6.40755">
        <ele>2456.6</ele>
        <time>2022-07-17T11:28:08Z</time>
      </trkpt>
      <trkpt lat="45.06298" lon="6.40744">
        <ele>2455.4</ele>
        <time>2022-07-17T11:28:09Z</time>
      </trkpt>
      <trkpt lat="45.06297" lon="6.40734">
        <ele>2454.2</ele>
        <time>2022-07-17T11:28:10Z</time>
      </trkpt>
      <trkpt lat="45.06296" lon="6.40725">
        <ele>2453.2</ele>
        <time>2022-07-17T11:28:11Z</time>
      </trkpt>
      <trkpt lat="45.06293" lon="6.40718">
        <ele>2452.2</ele>
        <time>2022-07-17T11:28:12Z</time>
      </trkpt>
      <trkpt lat="45.06291" lon="6.40711">
        <ele>2451.2</ele>
        <time>2022-07-17T11:28:13Z</time>
      </trkpt>
      <trkpt lat="45.06288" lon="6.40706">
        <ele>2450.2</ele>
        <time>2022-07-17T11:28:14Z</time>
      </trkpt>
      <trkpt lat="45.06286" lon="6.407">
        <ele>2449.4</ele>
        <time>2022-07-17T11:28:15Z</time>
      </trkpt>
      <trkpt lat="45.06285" lon="6.40695">
        <ele>2448.6</ele>
        <time>2022-07-17T11:28:16Z</time>
      </trkpt>
      <trkpt lat="45.06284" lon="6.40691">
        <ele>2448</ele>
        <time>2022-07-17T11:28:17Z</time>
      </trkpt>
      <trkpt lat="45.06284" lon="6.40688">
        <ele>2447.4</ele>
        <time>2022-07-17T11:28:18Z</time>
      </trkpt>
      <trkpt lat="45.06283" lon="6.40687">
        <ele>2447</ele>
        <time>2022-07-17T11:28:19Z</time>
      </trkpt>
      <trkpt lat="45.06282" lon="6.40684">
        <ele>2446.2</ele>
        <time>2022-07-17T11:28:22Z</time>
      </trkpt>
      <trkpt lat="45.06281" lon="6.40682">
        <ele>2446</ele>
        <time>2022-07-17T11:28:23Z</time>
      </trkpt>
      <trkpt lat="45.0628" lon="6.40679">
        <ele>2446</ele>
        <time>2022-07-17T11:28:24Z</time>
      </trkpt>
      <trkpt lat="45.06277" lon="6.40677">
        <ele>2445.6</ele>
        <time>2022-07-17T11:28:25Z</time>
      </trkpt>
      <trkpt lat="45.06274" lon="6.40675">
        <ele>2445.6</ele>
        <time>2022-07-17T11:28:26Z</time>
      </trkpt>
      <trkpt lat="45.06271" lon="6.40674">
        <ele>2445.6</ele>
        <time>2022-07-17T11:28:27Z</time>
      </trkpt>
      <trkpt lat="45.06268" lon="6.40672">
        <ele>2445.6</ele>
        <time>2022-07-17T11:28:28Z</time>
      </trkpt>
      <trkpt lat="45.06264" lon="6.4067">
        <ele>2445.4</ele>
        <time>2022-07-17T11:28:29Z</time>
      </trkpt>
      <trkpt lat="45.06257" lon="6.40667">
        <ele>2445.4</ele>
        <time>2022-07-17T11:28:31Z</time>
      </trkpt>
      <trkpt lat="45.06252" lon="6.40665">
        <ele>2444.8</ele>
        <time>2022-07-17T11:28:33Z</time>
      </trkpt>
      <trkpt lat="45.06248" lon="6.40663">
        <ele>2444.6</ele>
        <time>2022-07-17T11:28:34Z</time>
      </trkpt>
      <trkpt lat="45.06243" lon="6.4066">
        <ele>2444.4</ele>
        <time>2022-07-17T11:28:35Z</time>
      </trkpt>
      <trkpt lat="45.06238" lon="6.40657">
        <ele>2444.4</ele>
        <time>2022-07-17T11:28:36Z</time>
      </trkpt>
      <trkpt lat="45.06232" lon="6.40652">
        <ele>2444</ele>
        <time>2022-07-17T11:28:37Z</time>
      </trkpt>
      <trkpt lat="45.06227" lon="6.40646">
        <ele>2443.8</ele>
        <time>2022-07-17T11:28:38Z</time>
      </trkpt>
      <trkpt lat="45.06223" lon="6.40638">
        <ele>2443.4</ele>
        <time>2022-07-17T11:28:39Z</time>
      </trkpt>
      <trkpt lat="45.06218" lon="6.4063">
        <ele>2443</ele>
        <time>2022-07-17T11:28:40Z</time>
      </trkpt>
      <trkpt lat="45.06214" lon="6.40622">
        <ele>2442.6</ele>
        <time>2022-07-17T11:28:41Z</time>
      </trkpt>
      <trkpt lat="45.0621" lon="6.40614">
        <ele>2442.2</ele>
        <time>2022-07-17T11:28:42Z</time>
      </trkpt>
      <trkpt lat="45.06206" lon="6.40606">
        <ele>2441.8</ele>
        <time>2022-07-17T11:28:43Z</time>
      </trkpt>
      <trkpt lat="45.06201" lon="6.40599">
        <ele>2441.4</ele>
        <time>2022-07-17T11:28:44Z</time>
      </trkpt>
      <trkpt lat="45.06198" lon="6.40593">
        <ele>2441</ele>
        <time>2022-07-17T11:28:45Z</time>
      </trkpt>
      <trkpt lat="45.06194" lon="6.40587">
        <ele>2440.8</ele>
        <time>2022-07-17T11:28:46Z</time>
      </trkpt>
      <trkpt lat="45.0619" lon="6.40582">
        <ele>2440.4</ele>
        <time>2022-07-17T11:28:47Z</time>
      </trkpt>
      <trkpt lat="45.06186" lon="6.40578">
        <ele>2440</ele>
        <time>2022-07-17T11:28:48Z</time>
      </trkpt>
      <trkpt lat="45.06181" lon="6.40575">
        <ele>2439.6</ele>
        <time>2022-07-17T11:28:49Z</time>
      </trkpt>
      <trkpt lat="45.06175" lon="6.40574">
        <ele>2439.2</ele>
        <time>2022-07-17T11:28:50Z</time>
      </trkpt>
      <trkpt lat="45.06169" lon="6.40575">
        <ele>2439</ele>
        <time>2022-07-17T11:28:51Z</time>
      </trkpt>
      <trkpt lat="45.06163" lon="6.40577">
        <ele>2438.6</ele>
        <time>2022-07-17T11:28:52Z</time>
      </trkpt>
      <trkpt lat="45.06158" lon="6.40582">
        <ele>2438.4</ele>
        <time>2022-07-17T11:28:53Z</time>
      </trkpt>
      <trkpt lat="45.06153" lon="6.40588">
        <ele>2438</ele>
        <time>2022-07-17T11:28:54Z</time>
      </trkpt>
      <trkpt lat="45.06149" lon="6.40597">
        <ele>2437.6</ele>
        <time>2022-07-17T11:28:55Z</time>
      </trkpt>
      <trkpt lat="45.06148" lon="6.40607">
        <ele>2437.2</ele>
        <time>2022-07-17T11:28:56Z</time>
      </trkpt>
      <trkpt lat="45.06148" lon="6.40617">
        <ele>2437</ele>
        <time>2022-07-17T11:28:57Z</time>
      </trkpt>
      <trkpt lat="45.06149" lon="6.40627">
        <ele>2436.8</ele>
        <time>2022-07-17T11:28:58Z</time>
      </trkpt>
      <trkpt lat="45.06152" lon="6.40636">
        <ele>2436.4</ele>
        <time>2022-07-17T11:28:59Z</time>
      </trkpt>
      <trkpt lat="45.06157" lon="6.40645">
        <ele>2436.2</ele>
        <time>2022-07-17T11:29:00Z</time>
      </trkpt>
      <trkpt lat="45.06163" lon="6.40654">
        <ele>2435.8</ele>
        <time>2022-07-17T11:29:01Z</time>
      </trkpt>
      <trkpt lat="45.0617" lon="6.40663">
        <ele>2435.6</ele>
        <time>2022-07-17T11:29:02Z</time>
      </trkpt>
      <trkpt lat="45.06177" lon="6.40671">
        <ele>2435.2</ele>
        <time>2022-07-17T11:29:03Z</time>
      </trkpt>
      <trkpt lat="45.06186" lon="6.4068">
        <ele>2434.8</ele>
        <time>2022-07-17T11:29:04Z</time>
      </trkpt>
      <trkpt lat="45.06195" lon="6.40688">
        <ele>2433.8</ele>
        <time>2022-07-17T11:29:05Z</time>
      </trkpt>
      <trkpt lat="45.06203" lon="6.40694">
        <ele>2433.4</ele>
        <time>2022-07-17T11:29:06Z</time>
      </trkpt>
      <trkpt lat="45.06212" lon="6.40699">
        <ele>2432.8</ele>
        <time>2022-07-17T11:29:07Z</time>
      </trkpt>
      <trkpt lat="45.06221" lon="6.40705">
        <ele>2432.2</ele>
        <time>2022-07-17T11:29:08Z</time>
      </trkpt>
      <trkpt lat="45.06231" lon="6.40711">
        <ele>2432</ele>
        <time>2022-07-17T11:29:09Z</time>
      </trkpt>
      <trkpt lat="45.06239" lon="6.40718">
        <ele>2431.2</ele>
        <time>2022-07-17T11:29:10Z</time>
      </trkpt>
      <trkpt lat="45.06246" lon="6.40725">
        <ele>2430.6</ele>
        <time>2022-07-17T11:29:11Z</time>
      </trkpt>
      <trkpt lat="45.06251" lon="6.40735">
        <ele>2429.8</ele>
        <time>2022-07-17T11:29:12Z</time>
      </trkpt>
      <trkpt lat="45.06255" lon="6.40746">
        <ele>2429.2</ele>
        <time>2022-07-17T11:29:13Z</time>
      </trkpt>
      <trkpt lat="45.06254" lon="6.40757">
        <ele>2428.6</ele>
        <time>2022-07-17T11:29:14Z</time>
      </trkpt>
      <trkpt lat="45.0625" lon="6.40768">
        <ele>2428.2</ele>
        <time>2022-07-17T11:29:15Z</time>
      </trkpt>
      <trkpt lat="45.06245" lon="6.40779">
        <ele>2428</ele>
        <time>2022-07-17T11:29:16Z</time>
      </trkpt>
      <trkpt lat="45.06238" lon="6.40788">
        <ele>2427.6</ele>
        <time>2022-07-17T11:29:17Z</time>
      </trkpt>
      <trkpt lat="45.0623" lon="6.40795">
        <ele>2427</ele>
        <time>2022-07-17T11:29:18Z</time>
      </trkpt>
      <trkpt lat="45.06221" lon="6.40802">
        <ele>2426.6</ele>
        <time>2022-07-17T11:29:19Z</time>
      </trkpt>
      <trkpt lat="45.06211" lon="6.40808">
        <ele>2426.2</ele>
        <time>2022-07-17T11:29:20Z</time>
      </trkpt>
      <trkpt lat="45.06201" lon="6.40814">
        <ele>2425.8</ele>
        <time>2022-07-17T11:29:21Z</time>
      </trkpt>
      <trkpt lat="45.06191" lon="6.4082">
        <ele>2425.4</ele>
        <time>2022-07-17T11:29:22Z</time>
      </trkpt>
      <trkpt lat="45.06182" lon="6.40826">
        <ele>2424.8</ele>
        <time>2022-07-17T11:29:23Z</time>
      </trkpt>
      <trkpt lat="45.06174" lon="6.40834">
        <ele>2424.4</ele>
        <time>2022-07-17T11:29:24Z</time>
      </trkpt>
      <trkpt lat="45.06166" lon="6.40842">
        <ele>2424</ele>
        <time>2022-07-17T11:29:25Z</time>
      </trkpt>
      <trkpt lat="45.0616" lon="6.40852">
        <ele>2423.4</ele>
        <time>2022-07-17T11:29:26Z</time>
      </trkpt>
      <trkpt lat="45.06155" lon="6.40863">
        <ele>2423</ele>
        <time>2022-07-17T11:29:27Z</time>
      </trkpt>
      <trkpt lat="45.06152" lon="6.40874">
        <ele>2422.6</ele>
        <time>2022-07-17T11:29:28Z</time>
      </trkpt>
      <trkpt lat="45.0615" lon="6.40887">
        <ele>2422.2</ele>
        <time>2022-07-17T11:29:29Z</time>
      </trkpt>
      <trkpt lat="45.06149" lon="6.409">
        <ele>2421.6</ele>
        <time>2022-07-17T11:29:30Z</time>
      </trkpt>
      <trkpt lat="45.0615" lon="6.40915">
        <ele>2421</ele>
        <time>2022-07-17T11:29:31Z</time>
      </trkpt>
      <trkpt lat="45.06151" lon="6.40929">
        <ele>2420.4</ele>
        <time>2022-07-17T11:29:32Z</time>
      </trkpt>
      <trkpt lat="45.06152" lon="6.40944">
        <ele>2419.8</ele>
        <time>2022-07-17T11:29:33Z</time>
      </trkpt>
      <trkpt lat="45.06149" lon="6.40956">
        <ele>2419.2</ele>
        <time>2022-07-17T11:29:34Z</time>
      </trkpt>
      <trkpt lat="45.06144" lon="6.40969">
        <ele>2418.6</ele>
        <time>2022-07-17T11:29:35Z</time>
      </trkpt>
      <trkpt lat="45.06137" lon="6.4098">
        <ele>2418</ele>
        <time>2022-07-17T11:29:36Z</time>
      </trkpt>
      <trkpt lat="45.0613" lon="6.40991">
        <ele>2417.4</ele>
        <time>2022-07-17T11:29:37Z</time>
      </trkpt>
      <trkpt lat="45.06122" lon="6.41003">
        <ele>2416.8</ele>
        <time>2022-07-17T11:29:38Z</time>
      </trkpt>
      <trkpt lat="45.06115" lon="6.41016">
        <ele>2416</ele>
        <time>2022-07-17T11:29:39Z</time>
      </trkpt>
      <trkpt lat="45.06107" lon="6.4103">
        <ele>2415.2</ele>
        <time>2022-07-17T11:29:40Z</time>
      </trkpt>
      <trkpt lat="45.061" lon="6.41043">
        <ele>2414.6</ele>
        <time>2022-07-17T11:29:41Z</time>
      </trkpt>
      <trkpt lat="45.06093" lon="6.41055">
        <ele>2414</ele>
        <time>2022-07-17T11:29:42Z</time>
      </trkpt>
      <trkpt lat="45.06086" lon="6.41066">
        <ele>2413.4</ele>
        <time>2022-07-17T11:29:43Z</time>
      </trkpt>
      <trkpt lat="45.06081" lon="6.41076">
        <ele>2413</ele>
        <time>2022-07-17T11:29:44Z</time>
      </trkpt>
      <trkpt lat="45.06076" lon="6.41088">
        <ele>2412.8</ele>
        <time>2022-07-17T11:29:45Z</time>
      </trkpt>
      <trkpt lat="45.06073" lon="6.41102">
        <ele>2412.2</ele>
        <time>2022-07-17T11:29:46Z</time>
      </trkpt>
      <trkpt lat="45.0607" lon="6.41117">
        <ele>2411.8</ele>
        <time>2022-07-17T11:29:47Z</time>
      </trkpt>
      <trkpt lat="45.06069" lon="6.4113">
        <ele>2411.2</ele>
        <time>2022-07-17T11:29:48Z</time>
      </trkpt>
      <trkpt lat="45.06066" lon="6.41141">
        <ele>2411</ele>
        <time>2022-07-17T11:29:49Z</time>
      </trkpt>
      <trkpt lat="45.06063" lon="6.41151">
        <ele>2410.6</ele>
        <time>2022-07-17T11:29:50Z</time>
      </trkpt>
      <trkpt lat="45.06059" lon="6.41158">
        <ele>2410</ele>
        <time>2022-07-17T11:29:51Z</time>
      </trkpt>
      <trkpt lat="45.06054" lon="6.41164">
        <ele>2409.6</ele>
        <time>2022-07-17T11:29:52Z</time>
      </trkpt>
      <trkpt lat="45.06049" lon="6.41166">
        <ele>2409.2</ele>
        <time>2022-07-17T11:29:53Z</time>
      </trkpt>
      <trkpt lat="45.06043" lon="6.41164">
        <ele>2408.8</ele>
        <time>2022-07-17T11:29:54Z</time>
      </trkpt>
      <trkpt lat="45.06039" lon="6.41159">
        <ele>2408.4</ele>
        <time>2022-07-17T11:29:55Z</time>
      </trkpt>
      <trkpt lat="45.06036" lon="6.41152">
        <ele>2408</ele>
        <time>2022-07-17T11:29:56Z</time>
      </trkpt>
      <trkpt lat="45.06034" lon="6.41143">
        <ele>2407.8</ele>
        <time>2022-07-17T11:29:57Z</time>
      </trkpt>
      <trkpt lat="45.06035" lon="6.41134">
        <ele>2407.4</ele>
        <time>2022-07-17T11:29:58Z</time>
      </trkpt>
      <trkpt lat="45.06038" lon="6.41125">
        <ele>2407</ele>
        <time>2022-07-17T11:29:59Z</time>
      </trkpt>
      <trkpt lat="45.06042" lon="6.41115">
        <ele>2406.4</ele>
        <time>2022-07-17T11:30:00Z</time>
      </trkpt>
      <trkpt lat="45.06047" lon="6.41106">
        <ele>2406</ele>
        <time>2022-07-17T11:30:01Z</time>
      </trkpt>
      <trkpt lat="45.06052" lon="6.41096">
        <ele>2405.8</ele>
        <time>2022-07-17T11:30:02Z</time>
      </trkpt>
      <trkpt lat="45.06057" lon="6.41086">
        <ele>2405.4</ele>
        <time>2022-07-17T11:30:03Z</time>
      </trkpt>
      <trkpt lat="45.06062" lon="6.41075">
        <ele>2405</ele>
        <time>2022-07-17T11:30:04Z</time>
      </trkpt>
      <trkpt lat="45.06067" lon="6.41064">
        <ele>2404.4</ele>
        <time>2022-07-17T11:30:05Z</time>
      </trkpt>
      <trkpt lat="45.06073" lon="6.41052">
        <ele>2404.2</ele>
        <time>2022-07-17T11:30:06Z</time>
      </trkpt>
      <trkpt lat="45.06079" lon="6.4104">
        <ele>2403.6</ele>
        <time>2022-07-17T11:30:07Z</time>
      </trkpt>
      <trkpt lat="45.06084" lon="6.41028">
        <ele>2403</ele>
        <time>2022-07-17T11:30:08Z</time>
      </trkpt>
      <trkpt lat="45.06089" lon="6.41015">
        <ele>2402.4</ele>
        <time>2022-07-17T11:30:09Z</time>
      </trkpt>
      <trkpt lat="45.06093" lon="6.41002">
        <ele>2402.4</ele>
        <time>2022-07-17T11:30:10Z</time>
      </trkpt>
      <trkpt lat="45.06096" lon="6.40988">
        <ele>2401.6</ele>
        <time>2022-07-17T11:30:11Z</time>
      </trkpt>
      <trkpt lat="45.06097" lon="6.40975">
        <ele>2401</ele>
        <time>2022-07-17T11:30:12Z</time>
      </trkpt>
      <trkpt lat="45.06098" lon="6.40961">
        <ele>2400.6</ele>
        <time>2022-07-17T11:30:13Z</time>
      </trkpt>
      <trkpt lat="45.06098" lon="6.40948">
        <ele>2400.2</ele>
        <time>2022-07-17T11:30:14Z</time>
      </trkpt>
      <trkpt lat="45.06098" lon="6.40933">
        <ele>2399.6</ele>
        <time>2022-07-17T11:30:15Z</time>
      </trkpt>
      <trkpt lat="45.06097" lon="6.40918">
        <ele>2398.8</ele>
        <time>2022-07-17T11:30:16Z</time>
      </trkpt>
      <trkpt lat="45.06097" lon="6.40903">
        <ele>2398</ele>
        <time>2022-07-17T11:30:17Z</time>
      </trkpt>
      <trkpt lat="45.06096" lon="6.40889">
        <ele>2397.2</ele>
        <time>2022-07-17T11:30:18Z</time>
      </trkpt>
      <trkpt lat="45.06096" lon="6.40875">
        <ele>2396.4</ele>
        <time>2022-07-17T11:30:19Z</time>
      </trkpt>
      <trkpt lat="45.06096" lon="6.40861">
        <ele>2396</ele>
        <time>2022-07-17T11:30:20Z</time>
      </trkpt>
      <trkpt lat="45.06097" lon="6.40848">
        <ele>2395.4</ele>
        <time>2022-07-17T11:30:21Z</time>
      </trkpt>
      <trkpt lat="45.06099" lon="6.40832">
        <ele>2395</ele>
        <time>2022-07-17T11:30:22Z</time>
      </trkpt>
      <trkpt lat="45.06101" lon="6.40818">
        <ele>2394.6</ele>
        <time>2022-07-17T11:30:23Z</time>
      </trkpt>
      <trkpt lat="45.06103" lon="6.40804">
        <ele>2394</ele>
        <time>2022-07-17T11:30:24Z</time>
      </trkpt>
      <trkpt lat="45.06105" lon="6.40791">
        <ele>2393.4</ele>
        <time>2022-07-17T11:30:25Z</time>
      </trkpt>
      <trkpt lat="45.06106" lon="6.40778">
        <ele>2392.8</ele>
        <time>2022-07-17T11:30:26Z</time>
      </trkpt>
      <trkpt lat="45.06106" lon="6.40766">
        <ele>2392.2</ele>
        <time>2022-07-17T11:30:27Z</time>
      </trkpt>
      <trkpt lat="45.06105" lon="6.40755">
        <ele>2391.4</ele>
        <time>2022-07-17T11:30:28Z</time>
      </trkpt>
      <trkpt lat="45.06101" lon="6.40745">
        <ele>2390.8</ele>
        <time>2022-07-17T11:30:29Z</time>
      </trkpt>
      <trkpt lat="45.06097" lon="6.40736">
        <ele>2390.2</ele>
        <time>2022-07-17T11:30:30Z</time>
      </trkpt>
      <trkpt lat="45.06092" lon="6.40727">
        <ele>2389.6</ele>
        <time>2022-07-17T11:30:31Z</time>
      </trkpt>
      <trkpt lat="45.06085" lon="6.40719">
        <ele>2389.2</ele>
        <time>2022-07-17T11:30:32Z</time>
      </trkpt>
      <trkpt lat="45.06078" lon="6.40712">
        <ele>2388.6</ele>
        <time>2022-07-17T11:30:33Z</time>
      </trkpt>
      <trkpt lat="45.06069" lon="6.40707">
        <ele>2388</ele>
        <time>2022-07-17T11:30:34Z</time>
      </trkpt>
      <trkpt lat="45.0606" lon="6.40702">
        <ele>2387.4</ele>
        <time>2022-07-17T11:30:35Z</time>
      </trkpt>
      <trkpt lat="45.0605" lon="6.40698">
        <ele>2386.6</ele>
        <time>2022-07-17T11:30:36Z</time>
      </trkpt>
      <trkpt lat="45.0604" lon="6.40694">
        <ele>2385.8</ele>
        <time>2022-07-17T11:30:37Z</time>
      </trkpt>
      <trkpt lat="45.0603" lon="6.4069">
        <ele>2385</ele>
        <time>2022-07-17T11:30:38Z</time>
      </trkpt>
      <trkpt lat="45.06019" lon="6.40687">
        <ele>2384.2</ele>
        <time>2022-07-17T11:30:39Z</time>
      </trkpt>
      <trkpt lat="45.06008" lon="6.40685">
        <ele>2383.4</ele>
        <time>2022-07-17T11:30:40Z</time>
      </trkpt>
      <trkpt lat="45.05996" lon="6.40685">
        <ele>2382.8</ele>
        <time>2022-07-17T11:30:41Z</time>
      </trkpt>
      <trkpt lat="45.05984" lon="6.40688">
        <ele>2382.4</ele>
        <time>2022-07-17T11:30:42Z</time>
      </trkpt>
      <trkpt lat="45.05971" lon="6.40691">
        <ele>2381.6</ele>
        <time>2022-07-17T11:30:43Z</time>
      </trkpt>
      <trkpt lat="45.05959" lon="6.40693">
        <ele>2380.6</ele>
        <time>2022-07-17T11:30:44Z</time>
      </trkpt>
      <trkpt lat="45.05946" lon="6.40696">
        <ele>2379.8</ele>
        <time>2022-07-17T11:30:45Z</time>
      </trkpt>
      <trkpt lat="45.05934" lon="6.40701">
        <ele>2379</ele>
        <time>2022-07-17T11:30:46Z</time>
      </trkpt>
      <trkpt lat="45.05921" lon="6.40706">
        <ele>2378.4</ele>
        <time>2022-07-17T11:30:47Z</time>
      </trkpt>
      <trkpt lat="45.05909" lon="6.40711">
        <ele>2377.4</ele>
        <time>2022-07-17T11:30:48Z</time>
      </trkpt>
      <trkpt lat="45.05897" lon="6.40716">
        <ele>2376.6</ele>
        <time>2022-07-17T11:30:49Z</time>
      </trkpt>
      <trkpt lat="45.05885" lon="6.40721">
        <ele>2376</ele>
        <time>2022-07-17T11:30:50Z</time>
      </trkpt>
      <trkpt lat="45.05872" lon="6.40725">
        <ele>2375.2</ele>
        <time>2022-07-17T11:30:51Z</time>
      </trkpt>
      <trkpt lat="45.05859" lon="6.4073">
        <ele>2374.4</ele>
        <time>2022-07-17T11:30:52Z</time>
      </trkpt>
      <trkpt lat="45.05847" lon="6.40736">
        <ele>2373.6</ele>
        <time>2022-07-17T11:30:53Z</time>
      </trkpt>
      <trkpt lat="45.05835" lon="6.40741">
        <ele>2372.8</ele>
        <time>2022-07-17T11:30:54Z</time>
      </trkpt>
      <trkpt lat="45.05823" lon="6.40746">
        <ele>2372.2</ele>
        <time>2022-07-17T11:30:55Z</time>
      </trkpt>
      <trkpt lat="45.05812" lon="6.40752">
        <ele>2371.4</ele>
        <time>2022-07-17T11:30:56Z</time>
      </trkpt>
      <trkpt lat="45.05802" lon="6.40758">
        <ele>2370.8</ele>
        <time>2022-07-17T11:30:57Z</time>
      </trkpt>
      <trkpt lat="45.05791" lon="6.40763">
        <ele>2370.2</ele>
        <time>2022-07-17T11:30:58Z</time>
      </trkpt>
      <trkpt lat="45.0578" lon="6.40767">
        <ele>2369.4</ele>
        <time>2022-07-17T11:30:59Z</time>
      </trkpt>
      <trkpt lat="45.0577" lon="6.40771">
        <ele>2368.6</ele>
        <time>2022-07-17T11:31:00Z</time>
      </trkpt>
      <trkpt lat="45.0576" lon="6.40775">
        <ele>2367.8</ele>
        <time>2022-07-17T11:31:01Z</time>
      </trkpt>
      <trkpt lat="45.05749" lon="6.40779">
        <ele>2367</ele>
        <time>2022-07-17T11:31:02Z</time>
      </trkpt>
      <trkpt lat="45.05739" lon="6.40783">
        <ele>2366.4</ele>
        <time>2022-07-17T11:31:03Z</time>
      </trkpt>
      <trkpt lat="45.0573" lon="6.40791">
        <ele>2365.6</ele>
        <time>2022-07-17T11:31:04Z</time>
      </trkpt>
      <trkpt lat="45.05721" lon="6.408">
        <ele>2365</ele>
        <time>2022-07-17T11:31:05Z</time>
      </trkpt>
      <trkpt lat="45.05713" lon="6.40811">
        <ele>2364.4</ele>
        <time>2022-07-17T11:31:06Z</time>
      </trkpt>
      <trkpt lat="45.05707" lon="6.40823">
        <ele>2363.6</ele>
        <time>2022-07-17T11:31:07Z</time>
      </trkpt>
      <trkpt lat="45.05702" lon="6.40835">
        <ele>2362.8</ele>
        <time>2022-07-17T11:31:08Z</time>
      </trkpt>
      <trkpt lat="45.05697" lon="6.40845">
        <ele>2362.4</ele>
        <time>2022-07-17T11:31:09Z</time>
      </trkpt>
      <trkpt lat="45.05691" lon="6.40852">
        <ele>2361.6</ele>
        <time>2022-07-17T11:31:10Z</time>
      </trkpt>
      <trkpt lat="45.05684" lon="6.40856">
        <ele>2361</ele>
        <time>2022-07-17T11:31:11Z</time>
      </trkpt>
      <trkpt lat="45.05676" lon="6.40857">
        <ele>2360.4</ele>
        <time>2022-07-17T11:31:12Z</time>
      </trkpt>
      <trkpt lat="45.05667" lon="6.40856">
        <ele>2359.8</ele>
        <time>2022-07-17T11:31:13Z</time>
      </trkpt>
      <trkpt lat="45.05658" lon="6.40856">
        <ele>2359.4</ele>
        <time>2022-07-17T11:31:14Z</time>
      </trkpt>
      <trkpt lat="45.05648" lon="6.40854">
        <ele>2358.8</ele>
        <time>2022-07-17T11:31:15Z</time>
      </trkpt>
      <trkpt lat="45.05638" lon="6.40853">
        <ele>2358.2</ele>
        <time>2022-07-17T11:31:16Z</time>
      </trkpt>
      <trkpt lat="45.05628" lon="6.40853">
        <ele>2357.6</ele>
        <time>2022-07-17T11:31:17Z</time>
      </trkpt>
      <trkpt lat="45.05619" lon="6.40853">
        <ele>2357</ele>
        <time>2022-07-17T11:31:18Z</time>
      </trkpt>
      <trkpt lat="45.05609" lon="6.40853">
        <ele>2356.2</ele>
        <time>2022-07-17T11:31:19Z</time>
      </trkpt>
      <trkpt lat="45.05599" lon="6.40854">
        <ele>2355.6</ele>
        <time>2022-07-17T11:31:20Z</time>
      </trkpt>
      <trkpt lat="45.05591" lon="6.40854">
        <ele>2355</ele>
        <time>2022-07-17T11:31:21Z</time>
      </trkpt>
      <trkpt lat="45.05584" lon="6.40854">
        <ele>2354.4</ele>
        <time>2022-07-17T11:31:22Z</time>
      </trkpt>
      <trkpt lat="45.05577" lon="6.40853">
        <ele>2354</ele>
        <time>2022-07-17T11:31:23Z</time>
      </trkpt>
      <trkpt lat="45.05571" lon="6.4085">
        <ele>2353.6</ele>
        <time>2022-07-17T11:31:24Z</time>
      </trkpt>
      <trkpt lat="45.05564" lon="6.40846">
        <ele>2353.2</ele>
        <time>2022-07-17T11:31:25Z</time>
      </trkpt>
      <trkpt lat="45.05558" lon="6.4084">
        <ele>2353</ele>
        <time>2022-07-17T11:31:26Z</time>
      </trkpt>
      <trkpt lat="45.05553" lon="6.40833">
        <ele>2352.4</ele>
        <time>2022-07-17T11:31:27Z</time>
      </trkpt>
      <trkpt lat="45.05548" lon="6.40825">
        <ele>2351.8</ele>
        <time>2022-07-17T11:31:28Z</time>
      </trkpt>
      <trkpt lat="45.05544" lon="6.40816">
        <ele>2351.4</ele>
        <time>2022-07-17T11:31:29Z</time>
      </trkpt>
      <trkpt lat="45.05541" lon="6.40806">
        <ele>2350.8</ele>
        <time>2022-07-17T11:31:30Z</time>
      </trkpt>
      <trkpt lat="45.05538" lon="6.40796">
        <ele>2350.4</ele>
        <time>2022-07-17T11:31:31Z</time>
      </trkpt>
      <trkpt lat="45.05536" lon="6.40784">
        <ele>2349.8</ele>
        <time>2022-07-17T11:31:32Z</time>
      </trkpt>
      <trkpt lat="45.05533" lon="6.40773">
        <ele>2349.4</ele>
        <time>2022-07-17T11:31:33Z</time>
      </trkpt>
      <trkpt lat="45.05529" lon="6.40761">
        <ele>2348.8</ele>
        <time>2022-07-17T11:31:34Z</time>
      </trkpt>
      <trkpt lat="45.05526" lon="6.4075">
        <ele>2348.2</ele>
        <time>2022-07-17T11:31:35Z</time>
      </trkpt>
      <trkpt lat="45.05522" lon="6.40738">
        <ele>2347.6</ele>
        <time>2022-07-17T11:31:36Z</time>
      </trkpt>
      <trkpt lat="45.05518" lon="6.40725">
        <ele>2347</ele>
        <time>2022-07-17T11:31:37Z</time>
      </trkpt>
      <trkpt lat="45.05514" lon="6.40712">
        <ele>2346.6</ele>
        <time>2022-07-17T11:31:38Z</time>
      </trkpt>
      <trkpt lat="45.0551" lon="6.40699">
        <ele>2346</ele>
        <time>2022-07-17T11:31:39Z</time>
      </trkpt>
      <trkpt lat="45.05505" lon="6.40687">
        <ele>2345.4</ele>
        <time>2022-07-17T11:31:40Z</time>
      </trkpt>
      <trkpt lat="45.055" lon="6.40674">
        <ele>2344.8</ele>
        <time>2022-07-17T11:31:41Z</time>
      </trkpt>
      <trkpt lat="45.05495" lon="6.40662">
        <ele>2344.2</ele>
        <time>2022-07-17T11:31:42Z</time>
      </trkpt>
      <trkpt lat="45.05489" lon="6.40649">
        <ele>2343.6</ele>
        <time>2022-07-17T11:31:43Z</time>
      </trkpt>
      <trkpt lat="45.05483" lon="6.40637">
        <ele>2343.4</ele>
        <time>2022-07-17T11:31:44Z</time>
      </trkpt>
      <trkpt lat="45.05477" lon="6.40624">
        <ele>2342.6</ele>
        <time>2022-07-17T11:31:45Z</time>
      </trkpt>
      <trkpt lat="45.0547" lon="6.40612">
        <ele>2342</ele>
        <time>2022-07-17T11:31:46Z</time>
      </trkpt>
      <trkpt lat="45.05463" lon="6.40601">
        <ele>2341.4</ele>
        <time>2022-07-17T11:31:47Z</time>
      </trkpt>
      <trkpt lat="45.05456" lon="6.40591">
        <ele>2340.8</ele>
        <time>2022-07-17T11:31:48Z</time>
      </trkpt>
      <trkpt lat="45.05449" lon="6.4058">
        <ele>2340.2</ele>
        <time>2022-07-17T11:31:49Z</time>
      </trkpt>
      <trkpt lat="45.05442" lon="6.40567">
        <ele>2339.6</ele>
        <time>2022-07-17T11:31:50Z</time>
      </trkpt>
      <trkpt lat="45.05436" lon="6.40555">
        <ele>2339.2</ele>
        <time>2022-07-17T11:31:51Z</time>
      </trkpt>
      <trkpt lat="45.05431" lon="6.40542">
        <ele>2338.8</ele>
        <time>2022-07-17T11:31:52Z</time>
      </trkpt>
      <trkpt lat="45.05426" lon="6.40529">
        <ele>2338.4</ele>
        <time>2022-07-17T11:31:53Z</time>
      </trkpt>
      <trkpt lat="45.0542" lon="6.40516">
        <ele>2338</ele>
        <time>2022-07-17T11:31:54Z</time>
      </trkpt>
      <trkpt lat="45.05416" lon="6.40503">
        <ele>2337.6</ele>
        <time>2022-07-17T11:31:55Z</time>
      </trkpt>
      <trkpt lat="45.05411" lon="6.4049">
        <ele>2337</ele>
        <time>2022-07-17T11:31:56Z</time>
      </trkpt>
      <trkpt lat="45.05407" lon="6.40477">
        <ele>2336.4</ele>
        <time>2022-07-17T11:31:57Z</time>
      </trkpt>
      <trkpt lat="45.05403" lon="6.40464">
        <ele>2335.6</ele>
        <time>2022-07-17T11:31:58Z</time>
      </trkpt>
      <trkpt lat="45.05398" lon="6.40453">
        <ele>2335</ele>
        <time>2022-07-17T11:31:59Z</time>
      </trkpt>
      <trkpt lat="45.05394" lon="6.40441">
        <ele>2334.4</ele>
        <time>2022-07-17T11:32:00Z</time>
      </trkpt>
      <trkpt lat="45.0539" lon="6.40429">
        <ele>2333.6</ele>
        <time>2022-07-17T11:32:01Z</time>
      </trkpt>
      <trkpt lat="45.05387" lon="6.40417">
        <ele>2333</ele>
        <time>2022-07-17T11:32:02Z</time>
      </trkpt>
      <trkpt lat="45.05385" lon="6.40404">
        <ele>2332.4</ele>
        <time>2022-07-17T11:32:03Z</time>
      </trkpt>
      <trkpt lat="45.05384" lon="6.40392">
        <ele>2331.8</ele>
        <time>2022-07-17T11:32:04Z</time>
      </trkpt>
      <trkpt lat="45.05385" lon="6.4038">
        <ele>2330.8</ele>
        <time>2022-07-17T11:32:05Z</time>
      </trkpt>
      <trkpt lat="45.05386" lon="6.40367">
        <ele>2330.2</ele>
        <time>2022-07-17T11:32:06Z</time>
      </trkpt>
      <trkpt lat="45.05388" lon="6.40354">
        <ele>2329.4</ele>
        <time>2022-07-17T11:32:07Z</time>
      </trkpt>
      <trkpt lat="45.05391" lon="6.4034">
        <ele>2328.8</ele>
        <time>2022-07-17T11:32:08Z</time>
      </trkpt>
      <trkpt lat="45.05394" lon="6.40328">
        <ele>2328</ele>
        <time>2022-07-17T11:32:09Z</time>
      </trkpt>
      <trkpt lat="45.05397" lon="6.40315">
        <ele>2327.4</ele>
        <time>2022-07-17T11:32:10Z</time>
      </trkpt>
      <trkpt lat="45.05398" lon="6.40303">
        <ele>2326.8</ele>
        <time>2022-07-17T11:32:11Z</time>
      </trkpt>
      <trkpt lat="45.05397" lon="6.40291">
        <ele>2326.2</ele>
        <time>2022-07-17T11:32:12Z</time>
      </trkpt>
      <trkpt lat="45.05395" lon="6.4028">
        <ele>2325.6</ele>
        <time>2022-07-17T11:32:13Z</time>
      </trkpt>
      <trkpt lat="45.05393" lon="6.4027">
        <ele>2325</ele>
        <time>2022-07-17T11:32:14Z</time>
      </trkpt>
      <trkpt lat="45.0539" lon="6.40262">
        <ele>2324.4</ele>
        <time>2022-07-17T11:32:15Z</time>
      </trkpt>
      <trkpt lat="45.05385" lon="6.40255">
        <ele>2323.8</ele>
        <time>2022-07-17T11:32:16Z</time>
      </trkpt>
      <trkpt lat="45.05379" lon="6.4025">
        <ele>2323</ele>
        <time>2022-07-17T11:32:17Z</time>
      </trkpt>
      <trkpt lat="45.05371" lon="6.40248">
        <ele>2322.4</ele>
        <time>2022-07-17T11:32:18Z</time>
      </trkpt>
      <trkpt lat="45.05363" lon="6.40248">
        <ele>2322</ele>
        <time>2022-07-17T11:32:19Z</time>
      </trkpt>
      <trkpt lat="45.05354" lon="6.40251">
        <ele>2321.2</ele>
        <time>2022-07-17T11:32:20Z</time>
      </trkpt>
      <trkpt lat="45.05346" lon="6.40254">
        <ele>2320.4</ele>
        <time>2022-07-17T11:32:21Z</time>
      </trkpt>
      <trkpt lat="45.05338" lon="6.40255">
        <ele>2319.8</ele>
        <time>2022-07-17T11:32:22Z</time>
      </trkpt>
      <trkpt lat="45.0533" lon="6.40253">
        <ele>2319</ele>
        <time>2022-07-17T11:32:23Z</time>
      </trkpt>
      <trkpt lat="45.05324" lon="6.40247">
        <ele>2318.6</ele>
        <time>2022-07-17T11:32:24Z</time>
      </trkpt>
      <trkpt lat="45.05319" lon="6.40239">
        <ele>2318</ele>
        <time>2022-07-17T11:32:25Z</time>
      </trkpt>
      <trkpt lat="45.05316" lon="6.40229">
        <ele>2317.6</ele>
        <time>2022-07-17T11:32:26Z</time>
      </trkpt>
      <trkpt lat="45.05313" lon="6.40218">
        <ele>2317</ele>
        <time>2022-07-17T11:32:27Z</time>
      </trkpt>
      <trkpt lat="45.05313" lon="6.40206">
        <ele>2316.6</ele>
        <time>2022-07-17T11:32:28Z</time>
      </trkpt>
      <trkpt lat="45.05313" lon="6.40194">
        <ele>2316</ele>
        <time>2022-07-17T11:32:29Z</time>
      </trkpt>
      <trkpt lat="45.05313" lon="6.40181">
        <ele>2315.2</ele>
        <time>2022-07-17T11:32:30Z</time>
      </trkpt>
      <trkpt lat="45.05313" lon="6.40166">
        <ele>2314.6</ele>
        <time>2022-07-17T11:32:31Z</time>
      </trkpt>
      <trkpt lat="45.05311" lon="6.40151">
        <ele>2314</ele>
        <time>2022-07-17T11:32:32Z</time>
      </trkpt>
      <trkpt lat="45.05308" lon="6.40136">
        <ele>2313</ele>
        <time>2022-07-17T11:32:33Z</time>
      </trkpt>
      <trkpt lat="45.05304" lon="6.40121">
        <ele>2312.2</ele>
        <time>2022-07-17T11:32:34Z</time>
      </trkpt>
      <trkpt lat="45.05301" lon="6.40107">
        <ele>2311.4</ele>
        <time>2022-07-17T11:32:35Z</time>
      </trkpt>
      <trkpt lat="45.05298" lon="6.40092">
        <ele>2310.6</ele>
        <time>2022-07-17T11:32:36Z</time>
      </trkpt>
      <trkpt lat="45.05295" lon="6.40078">
        <ele>2310.2</ele>
        <time>2022-07-17T11:32:37Z</time>
      </trkpt>
      <trkpt lat="45.05292" lon="6.40065">
        <ele>2309.4</ele>
        <time>2022-07-17T11:32:38Z</time>
      </trkpt>
      <trkpt lat="45.0529" lon="6.40053">
        <ele>2308.8</ele>
        <time>2022-07-17T11:32:39Z</time>
      </trkpt>
      <trkpt lat="45.05289" lon="6.4004">
        <ele>2308.4</ele>
        <time>2022-07-17T11:32:40Z</time>
      </trkpt>
      <trkpt lat="45.0529" lon="6.40026">
        <ele>2307.6</ele>
        <time>2022-07-17T11:32:41Z</time>
      </trkpt>
      <trkpt lat="45.05293" lon="6.40013">
        <ele>2306.8</ele>
        <time>2022-07-17T11:32:42Z</time>
      </trkpt>
      <trkpt lat="45.05297" lon="6.4">
        <ele>2306</ele>
        <time>2022-07-17T11:32:43Z</time>
      </trkpt>
      <trkpt lat="45.05301" lon="6.39986">
        <ele>2305.2</ele>
        <time>2022-07-17T11:32:44Z</time>
      </trkpt>
      <trkpt lat="45.05305" lon="6.3997">
        <ele>2304</ele>
        <time>2022-07-17T11:32:45Z</time>
      </trkpt>
      <trkpt lat="45.0531" lon="6.39955">
        <ele>2303.2</ele>
        <time>2022-07-17T11:32:46Z</time>
      </trkpt>
      <trkpt lat="45.05315" lon="6.3994">
        <ele>2302</ele>
        <time>2022-07-17T11:32:47Z</time>
      </trkpt>
      <trkpt lat="45.05319" lon="6.39926">
        <ele>2301</ele>
        <time>2022-07-17T11:32:48Z</time>
      </trkpt>
      <trkpt lat="45.05323" lon="6.3991">
        <ele>2300</ele>
        <time>2022-07-17T11:32:49Z</time>
      </trkpt>
      <trkpt lat="45.05326" lon="6.39894">
        <ele>2299</ele>
        <time>2022-07-17T11:32:50Z</time>
      </trkpt>
      <trkpt lat="45.05329" lon="6.39877">
        <ele>2298.2</ele>
        <time>2022-07-17T11:32:51Z</time>
      </trkpt>
      <trkpt lat="45.05331" lon="6.3986">
        <ele>2297.4</ele>
        <time>2022-07-17T11:32:52Z</time>
      </trkpt>
      <trkpt lat="45.05332" lon="6.39843">
        <ele>2296.6</ele>
        <time>2022-07-17T11:32:53Z</time>
      </trkpt>
      <trkpt lat="45.05333" lon="6.39826">
        <ele>2295.6</ele>
        <time>2022-07-17T11:32:54Z</time>
      </trkpt>
      <trkpt lat="45.05334" lon="6.39808">
        <ele>2294.6</ele>
        <time>2022-07-17T11:32:55Z</time>
      </trkpt>
      <trkpt lat="45.05335" lon="6.39791">
        <ele>2294</ele>
        <time>2022-07-17T11:32:56Z</time>
      </trkpt>
      <trkpt lat="45.05336" lon="6.39774">
        <ele>2293.4</ele>
        <time>2022-07-17T11:32:57Z</time>
      </trkpt>
      <trkpt lat="45.05337" lon="6.39758">
        <ele>2292.4</ele>
        <time>2022-07-17T11:32:58Z</time>
      </trkpt>
      <trkpt lat="45.05338" lon="6.39741">
        <ele>2291.6</ele>
        <time>2022-07-17T11:32:59Z</time>
      </trkpt>
      <trkpt lat="45.05338" lon="6.39724">
        <ele>2290.4</ele>
        <time>2022-07-17T11:33:00Z</time>
      </trkpt>
      <trkpt lat="45.05338" lon="6.39706">
        <ele>2289.6</ele>
        <time>2022-07-17T11:33:01Z</time>
      </trkpt>
      <trkpt lat="45.05339" lon="6.39689">
        <ele>2288.4</ele>
        <time>2022-07-17T11:33:02Z</time>
      </trkpt>
      <trkpt lat="45.05339" lon="6.39671">
        <ele>2287.6</ele>
        <time>2022-07-17T11:33:03Z</time>
      </trkpt>
      <trkpt lat="45.05338" lon="6.39654">
        <ele>2286.6</ele>
        <time>2022-07-17T11:33:04Z</time>
      </trkpt>
      <trkpt lat="45.05338" lon="6.39637">
        <ele>2285.4</ele>
        <time>2022-07-17T11:33:05Z</time>
      </trkpt>
      <trkpt lat="45.05338" lon="6.3962">
        <ele>2284.8</ele>
        <time>2022-07-17T11:33:06Z</time>
      </trkpt>
      <trkpt lat="45.05337" lon="6.39604">
        <ele>2284.2</ele>
        <time>2022-07-17T11:33:07Z</time>
      </trkpt>
      <trkpt lat="45.05335" lon="6.39587">
        <ele>2283.2</ele>
        <time>2022-07-17T11:33:08Z</time>
      </trkpt>
      <trkpt lat="45.05332" lon="6.39572">
        <ele>2282</ele>
        <time>2022-07-17T11:33:09Z</time>
      </trkpt>
      <trkpt lat="45.05329" lon="6.39557">
        <ele>2281.2</ele>
        <time>2022-07-17T11:33:10Z</time>
      </trkpt>
      <trkpt lat="45.05325" lon="6.39541">
        <ele>2280.2</ele>
        <time>2022-07-17T11:33:11Z</time>
      </trkpt>
      <trkpt lat="45.05321" lon="6.39525">
        <ele>2279.6</ele>
        <time>2022-07-17T11:33:12Z</time>
      </trkpt>
      <trkpt lat="45.05316" lon="6.3951">
        <ele>2278.8</ele>
        <time>2022-07-17T11:33:13Z</time>
      </trkpt>
      <trkpt lat="45.05312" lon="6.39495">
        <ele>2278.2</ele>
        <time>2022-07-17T11:33:14Z</time>
      </trkpt>
      <trkpt lat="45.05308" lon="6.39481">
        <ele>2277.6</ele>
        <time>2022-07-17T11:33:15Z</time>
      </trkpt>
      <trkpt lat="45.05305" lon="6.39468">
        <ele>2277</ele>
        <time>2022-07-17T11:33:16Z</time>
      </trkpt>
      <trkpt lat="45.05301" lon="6.39455">
        <ele>2276.4</ele>
        <time>2022-07-17T11:33:17Z</time>
      </trkpt>
      <trkpt lat="45.05297" lon="6.39443">
        <ele>2275.8</ele>
        <time>2022-07-17T11:33:18Z</time>
      </trkpt>
      <trkpt lat="45.05291" lon="6.39433">
        <ele>2275.2</ele>
        <time>2022-07-17T11:33:19Z</time>
      </trkpt>
      <trkpt lat="45.05284" lon="6.39425">
        <ele>2274.6</ele>
        <time>2022-07-17T11:33:20Z</time>
      </trkpt>
      <trkpt lat="45.05275" lon="6.39418">
        <ele>2274</ele>
        <time>2022-07-17T11:33:21Z</time>
      </trkpt>
      <trkpt lat="45.05266" lon="6.39412">
        <ele>2273.4</ele>
        <time>2022-07-17T11:33:22Z</time>
      </trkpt>
      <trkpt lat="45.05258" lon="6.39407">
        <ele>2272.8</ele>
        <time>2022-07-17T11:33:23Z</time>
      </trkpt>
      <trkpt lat="45.05251" lon="6.394">
        <ele>2272.2</ele>
        <time>2022-07-17T11:33:24Z</time>
      </trkpt>
      <trkpt lat="45.05246" lon="6.39392">
        <ele>2271.6</ele>
        <time>2022-07-17T11:33:25Z</time>
      </trkpt>
      <trkpt lat="45.05241" lon="6.39382">
        <ele>2271.2</ele>
        <time>2022-07-17T11:33:26Z</time>
      </trkpt>
      <trkpt lat="45.05239" lon="6.39371">
        <ele>2271</ele>
        <time>2022-07-17T11:33:27Z</time>
      </trkpt>
      <trkpt lat="45.05237" lon="6.39359">
        <ele>2270.8</ele>
        <time>2022-07-17T11:33:28Z</time>
      </trkpt>
      <trkpt lat="45.05235" lon="6.39347">
        <ele>2270</ele>
        <time>2022-07-17T11:33:29Z</time>
      </trkpt>
      <trkpt lat="45.05233" lon="6.39335">
        <ele>2269.6</ele>
        <time>2022-07-17T11:33:30Z</time>
      </trkpt>
      <trkpt lat="45.0523" lon="6.39323">
        <ele>2269</ele>
        <time>2022-07-17T11:33:31Z</time>
      </trkpt>
      <trkpt lat="45.05227" lon="6.39312">
        <ele>2268.6</ele>
        <time>2022-07-17T11:33:32Z</time>
      </trkpt>
      <trkpt lat="45.05222" lon="6.39302">
        <ele>2268</ele>
        <time>2022-07-17T11:33:33Z</time>
      </trkpt>
      <trkpt lat="45.05216" lon="6.39293">
        <ele>2267.4</ele>
        <time>2022-07-17T11:33:34Z</time>
      </trkpt>
      <trkpt lat="45.05209" lon="6.39285">
        <ele>2266.8</ele>
        <time>2022-07-17T11:33:35Z</time>
      </trkpt>
      <trkpt lat="45.05201" lon="6.39279">
        <ele>2266.4</ele>
        <time>2022-07-17T11:33:36Z</time>
      </trkpt>
      <trkpt lat="45.05192" lon="6.39273">
        <ele>2266</ele>
        <time>2022-07-17T11:33:37Z</time>
      </trkpt>
      <trkpt lat="45.05185" lon="6.39268">
        <ele>2265.8</ele>
        <time>2022-07-17T11:33:38Z</time>
      </trkpt>
      <trkpt lat="45.05178" lon="6.39261">
        <ele>2265.2</ele>
        <time>2022-07-17T11:33:39Z</time>
      </trkpt>
      <trkpt lat="45.05173" lon="6.39253">
        <ele>2264.8</ele>
        <time>2022-07-17T11:33:40Z</time>
      </trkpt>
      <trkpt lat="45.05169" lon="6.39244">
        <ele>2264.4</ele>
        <time>2022-07-17T11:33:41Z</time>
      </trkpt>
      <trkpt lat="45.05166" lon="6.39233">
        <ele>2264.2</ele>
        <time>2022-07-17T11:33:42Z</time>
      </trkpt>
      <trkpt lat="45.05166" lon="6.39222">
        <ele>2263.8</ele>
        <time>2022-07-17T11:33:43Z</time>
      </trkpt>
      <trkpt lat="45.05168" lon="6.39211">
        <ele>2263.4</ele>
        <time>2022-07-17T11:33:44Z</time>
      </trkpt>
      <trkpt lat="45.0517" lon="6.392">
        <ele>2262.8</ele>
        <time>2022-07-17T11:33:45Z</time>
      </trkpt>
      <trkpt lat="45.05173" lon="6.39188">
        <ele>2262.4</ele>
        <time>2022-07-17T11:33:46Z</time>
      </trkpt>
      <trkpt lat="45.05176" lon="6.39177">
        <ele>2262</ele>
        <time>2022-07-17T11:33:47Z</time>
      </trkpt>
      <trkpt lat="45.0518" lon="6.39165">
        <ele>2261.4</ele>
        <time>2022-07-17T11:33:48Z</time>
      </trkpt>
      <trkpt lat="45.05184" lon="6.39151">
        <ele>2260.8</ele>
        <time>2022-07-17T11:33:49Z</time>
      </trkpt>
      <trkpt lat="45.05188" lon="6.39139">
        <ele>2260.2</ele>
        <time>2022-07-17T11:33:50Z</time>
      </trkpt>
      <trkpt lat="45.05191" lon="6.39127">
        <ele>2259.8</ele>
        <time>2022-07-17T11:33:51Z</time>
      </trkpt>
      <trkpt lat="45.05195" lon="6.39114">
        <ele>2259.2</ele>
        <time>2022-07-17T11:33:52Z</time>
      </trkpt>
      <trkpt lat="45.05199" lon="6.39101">
        <ele>2258.8</ele>
        <time>2022-07-17T11:33:53Z</time>
      </trkpt>
      <trkpt lat="45.05209" lon="6.39077">
        <ele>2257.6</ele>
        <time>2022-07-17T11:33:54Z</time>
      </trkpt>
      <trkpt lat="45.05216" lon="6.39065">
        <ele>2257.2</ele>
        <time>2022-07-17T11:33:56Z</time>
      </trkpt>
      <trkpt lat="45.05224" lon="6.39053">
        <ele>2256.4</ele>
        <time>2022-07-17T11:33:57Z</time>
      </trkpt>
      <trkpt lat="45.05231" lon="6.39044">
        <ele>2255.6</ele>
        <time>2022-07-17T11:33:58Z</time>
      </trkpt>
      <trkpt lat="45.05238" lon="6.39035">
        <ele>2255</ele>
        <time>2022-07-17T11:33:59Z</time>
      </trkpt>
      <trkpt lat="45.05244" lon="6.39027">
        <ele>2254.4</ele>
        <time>2022-07-17T11:34:00Z</time>
      </trkpt>
      <trkpt lat="45.05247" lon="6.39018">
        <ele>2253.6</ele>
        <time>2022-07-17T11:34:01Z</time>
      </trkpt>
      <trkpt lat="45.05248" lon="6.39007">
        <ele>2253</ele>
        <time>2022-07-17T11:34:02Z</time>
      </trkpt>
      <trkpt lat="45.05247" lon="6.38996">
        <ele>2252.6</ele>
        <time>2022-07-17T11:34:03Z</time>
      </trkpt>
      <trkpt lat="45.05244" lon="6.38985">
        <ele>2252</ele>
        <time>2022-07-17T11:34:04Z</time>
      </trkpt>
      <trkpt lat="45.0524" lon="6.38976">
        <ele>2251.6</ele>
        <time>2022-07-17T11:34:05Z</time>
      </trkpt>
      <trkpt lat="45.05234" lon="6.38966">
        <ele>2251</ele>
        <time>2022-07-17T11:34:06Z</time>
      </trkpt>
      <trkpt lat="45.05227" lon="6.38959">
        <ele>2250.4</ele>
        <time>2022-07-17T11:34:07Z</time>
      </trkpt>
      <trkpt lat="45.05219" lon="6.38953">
        <ele>2250</ele>
        <time>2022-07-17T11:34:08Z</time>
      </trkpt>
      <trkpt lat="45.05211" lon="6.38949">
        <ele>2249.4</ele>
        <time>2022-07-17T11:34:09Z</time>
      </trkpt>
      <trkpt lat="45.05203" lon="6.38947">
        <ele>2249</ele>
        <time>2022-07-17T11:34:10Z</time>
      </trkpt>
      <trkpt lat="45.05195" lon="6.38947">
        <ele>2248.6</ele>
        <time>2022-07-17T11:34:11Z</time>
      </trkpt>
      <trkpt lat="45.05187" lon="6.38952">
        <ele>2248.2</ele>
        <time>2022-07-17T11:34:12Z</time>
      </trkpt>
      <trkpt lat="45.0518" lon="6.38959">
        <ele>2247.8</ele>
        <time>2022-07-17T11:34:13Z</time>
      </trkpt>
      <trkpt lat="45.05174" lon="6.38969">
        <ele>2247.2</ele>
        <time>2022-07-17T11:34:14Z</time>
      </trkpt>
      <trkpt lat="45.05168" lon="6.3898">
        <ele>2246.8</ele>
        <time>2022-07-17T11:34:15Z</time>
      </trkpt>
      <trkpt lat="45.05162" lon="6.38993">
        <ele>2246.2</ele>
        <time>2022-07-17T11:34:16Z</time>
      </trkpt>
      <trkpt lat="45.05156" lon="6.39005">
        <ele>2245.6</ele>
        <time>2022-07-17T11:34:17Z</time>
      </trkpt>
      <trkpt lat="45.0515" lon="6.39018">
        <ele>2245</ele>
        <time>2022-07-17T11:34:18Z</time>
      </trkpt>
      <trkpt lat="45.05144" lon="6.3903">
        <ele>2244.2</ele>
        <time>2022-07-17T11:34:19Z</time>
      </trkpt>
      <trkpt lat="45.05137" lon="6.39044">
        <ele>2243.4</ele>
        <time>2022-07-17T11:34:20Z</time>
      </trkpt>
      <trkpt lat="45.0513" lon="6.39057">
        <ele>2242.6</ele>
        <time>2022-07-17T11:34:21Z</time>
      </trkpt>
      <trkpt lat="45.05123" lon="6.39069">
        <ele>2242</ele>
        <time>2022-07-17T11:34:22Z</time>
      </trkpt>
      <trkpt lat="45.05117" lon="6.39081">
        <ele>2241.2</ele>
        <time>2022-07-17T11:34:23Z</time>
      </trkpt>
      <trkpt lat="45.0511" lon="6.39093">
        <ele>2240.6</ele>
        <time>2022-07-17T11:34:24Z</time>
      </trkpt>
      <trkpt lat="45.05103" lon="6.39104">
        <ele>2239.6</ele>
        <time>2022-07-17T11:34:25Z</time>
      </trkpt>
      <trkpt lat="45.05094" lon="6.39115">
        <ele>2238.8</ele>
        <time>2022-07-17T11:34:26Z</time>
      </trkpt>
      <trkpt lat="45.05084" lon="6.39124">
        <ele>2238</ele>
        <time>2022-07-17T11:34:27Z</time>
      </trkpt>
      <trkpt lat="45.05075" lon="6.39134">
        <ele>2237.4</ele>
        <time>2022-07-17T11:34:28Z</time>
      </trkpt>
      <trkpt lat="45.05066" lon="6.39144">
        <ele>2236.4</ele>
        <time>2022-07-17T11:34:29Z</time>
      </trkpt>
      <trkpt lat="45.05057" lon="6.39153">
        <ele>2235.6</ele>
        <time>2022-07-17T11:34:30Z</time>
      </trkpt>
      <trkpt lat="45.05049" lon="6.39163">
        <ele>2234.8</ele>
        <time>2022-07-17T11:34:31Z</time>
      </trkpt>
      <trkpt lat="45.0504" lon="6.39172">
        <ele>2234</ele>
        <time>2022-07-17T11:34:32Z</time>
      </trkpt>
      <trkpt lat="45.05032" lon="6.39181">
        <ele>2233</ele>
        <time>2022-07-17T11:34:33Z</time>
      </trkpt>
      <trkpt lat="45.05024" lon="6.3919">
        <ele>2232.2</ele>
        <time>2022-07-17T11:34:34Z</time>
      </trkpt>
      <trkpt lat="45.05017" lon="6.392">
        <ele>2231.6</ele>
        <time>2022-07-17T11:34:35Z</time>
      </trkpt>
      <trkpt lat="45.05013" lon="6.39211">
        <ele>2230.8</ele>
        <time>2022-07-17T11:34:36Z</time>
      </trkpt>
      <trkpt lat="45.05009" lon="6.39223">
        <ele>2230</ele>
        <time>2022-07-17T11:34:37Z</time>
      </trkpt>
      <trkpt lat="45.05007" lon="6.39236">
        <ele>2229.4</ele>
        <time>2022-07-17T11:34:38Z</time>
      </trkpt>
      <trkpt lat="45.05007" lon="6.39252">
        <ele>2228.6</ele>
        <time>2022-07-17T11:34:39Z</time>
      </trkpt>
      <trkpt lat="45.05008" lon="6.39268">
        <ele>2227.8</ele>
        <time>2022-07-17T11:34:40Z</time>
      </trkpt>
      <trkpt lat="45.0501" lon="6.39283">
        <ele>2227</ele>
        <time>2022-07-17T11:34:41Z</time>
      </trkpt>
      <trkpt lat="45.05012" lon="6.39296">
        <ele>2226.4</ele>
        <time>2022-07-17T11:34:42Z</time>
      </trkpt>
      <trkpt lat="45.05013" lon="6.39309">
        <ele>2225.8</ele>
        <time>2022-07-17T11:34:43Z</time>
      </trkpt>
      <trkpt lat="45.05013" lon="6.3932">
        <ele>2225</ele>
        <time>2022-07-17T11:34:44Z</time>
      </trkpt>
      <trkpt lat="45.05011" lon="6.3933">
        <ele>2224</ele>
        <time>2022-07-17T11:34:45Z</time>
      </trkpt>
      <trkpt lat="45.05007" lon="6.39339">
        <ele>2223.2</ele>
        <time>2022-07-17T11:34:46Z</time>
      </trkpt>
      <trkpt lat="45.05002" lon="6.39347">
        <ele>2222.4</ele>
        <time>2022-07-17T11:34:47Z</time>
      </trkpt>
      <trkpt lat="45.04995" lon="6.39354">
        <ele>2221.6</ele>
        <time>2022-07-17T11:34:48Z</time>
      </trkpt>
      <trkpt lat="45.04987" lon="6.39359">
        <ele>2220.8</ele>
        <time>2022-07-17T11:34:49Z</time>
      </trkpt>
      <trkpt lat="45.04977" lon="6.39364">
        <ele>2220</ele>
        <time>2022-07-17T11:34:50Z</time>
      </trkpt>
      <trkpt lat="45.04967" lon="6.3937">
        <ele>2219.2</ele>
        <time>2022-07-17T11:34:51Z</time>
      </trkpt>
      <trkpt lat="45.04957" lon="6.39375">
        <ele>2218.4</ele>
        <time>2022-07-17T11:34:52Z</time>
      </trkpt>
      <trkpt lat="45.04947" lon="6.3938">
        <ele>2217.8</ele>
        <time>2022-07-17T11:34:53Z</time>
      </trkpt>
      <trkpt lat="45.04937" lon="6.39386">
        <ele>2217</ele>
        <time>2022-07-17T11:34:54Z</time>
      </trkpt>
      <trkpt lat="45.04926" lon="6.39395">
        <ele>2216.2</ele>
        <time>2022-07-17T11:34:55Z</time>
      </trkpt>
      <trkpt lat="45.04917" lon="6.39406">
        <ele>2215.2</ele>
        <time>2022-07-17T11:34:56Z</time>
      </trkpt>
      <trkpt lat="45.04908" lon="6.39418">
        <ele>2214.6</ele>
        <time>2022-07-17T11:34:57Z</time>
      </trkpt>
      <trkpt lat="45.04901" lon="6.3943">
        <ele>2213.8</ele>
        <time>2022-07-17T11:34:58Z</time>
      </trkpt>
      <trkpt lat="45.04893" lon="6.39442">
        <ele>2213</ele>
        <time>2022-07-17T11:34:59Z</time>
      </trkpt>
      <trkpt lat="45.04886" lon="6.39454">
        <ele>2212</ele>
        <time>2022-07-17T11:35:00Z</time>
      </trkpt>
      <trkpt lat="45.0488" lon="6.39466">
        <ele>2211</ele>
        <time>2022-07-17T11:35:01Z</time>
      </trkpt>
      <trkpt lat="45.04875" lon="6.39477">
        <ele>2210</ele>
        <time>2022-07-17T11:35:02Z</time>
      </trkpt>
      <trkpt lat="45.04872" lon="6.3949">
        <ele>2208.8</ele>
        <time>2022-07-17T11:35:03Z</time>
      </trkpt>
      <trkpt lat="45.04871" lon="6.39503">
        <ele>2208</ele>
        <time>2022-07-17T11:35:04Z</time>
      </trkpt>
      <trkpt lat="45.0487" lon="6.39518">
        <ele>2207.2</ele>
        <time>2022-07-17T11:35:05Z</time>
      </trkpt>
      <trkpt lat="45.04869" lon="6.39533">
        <ele>2206.4</ele>
        <time>2022-07-17T11:35:06Z</time>
      </trkpt>
      <trkpt lat="45.04869" lon="6.3955">
        <ele>2205.4</ele>
        <time>2022-07-17T11:35:07Z</time>
      </trkpt>
      <trkpt lat="45.04868" lon="6.39565">
        <ele>2204.8</ele>
        <time>2022-07-17T11:35:08Z</time>
      </trkpt>
      <trkpt lat="45.04866" lon="6.3958">
        <ele>2204</ele>
        <time>2022-07-17T11:35:09Z</time>
      </trkpt>
      <trkpt lat="45.04863" lon="6.39595">
        <ele>2203.2</ele>
        <time>2022-07-17T11:35:10Z</time>
      </trkpt>
      <trkpt lat="45.04859" lon="6.39611">
        <ele>2202.6</ele>
        <time>2022-07-17T11:35:11Z</time>
      </trkpt>
      <trkpt lat="45.04854" lon="6.39625">
        <ele>2201.8</ele>
        <time>2022-07-17T11:35:12Z</time>
      </trkpt>
      <trkpt lat="45.04847" lon="6.39638">
        <ele>2200.8</ele>
        <time>2022-07-17T11:35:13Z</time>
      </trkpt>
      <trkpt lat="45.04839" lon="6.3965">
        <ele>2200.2</ele>
        <time>2022-07-17T11:35:14Z</time>
      </trkpt>
      <trkpt lat="45.0483" lon="6.39661">
        <ele>2199.2</ele>
        <time>2022-07-17T11:35:15Z</time>
      </trkpt>
      <trkpt lat="45.0482" lon="6.39673">
        <ele>2198.2</ele>
        <time>2022-07-17T11:35:16Z</time>
      </trkpt>
      <trkpt lat="45.0481" lon="6.39685">
        <ele>2197.2</ele>
        <time>2022-07-17T11:35:17Z</time>
      </trkpt>
      <trkpt lat="45.04801" lon="6.39698">
        <ele>2196.2</ele>
        <time>2022-07-17T11:35:18Z</time>
      </trkpt>
      <trkpt lat="45.04791" lon="6.39712">
        <ele>2195.2</ele>
        <time>2022-07-17T11:35:19Z</time>
      </trkpt>
      <trkpt lat="45.04782" lon="6.39726">
        <ele>2194.4</ele>
        <time>2022-07-17T11:35:20Z</time>
      </trkpt>
      <trkpt lat="45.04773" lon="6.3974">
        <ele>2193.4</ele>
        <time>2022-07-17T11:35:21Z</time>
      </trkpt>
      <trkpt lat="45.04764" lon="6.39755">
        <ele>2192.2</ele>
        <time>2022-07-17T11:35:22Z</time>
      </trkpt>
      <trkpt lat="45.04756" lon="6.39769">
        <ele>2191.2</ele>
        <time>2022-07-17T11:35:23Z</time>
      </trkpt>
      <trkpt lat="45.04747" lon="6.39783">
        <ele>2190</ele>
        <time>2022-07-17T11:35:24Z</time>
      </trkpt>
      <trkpt lat="45.04739" lon="6.39796">
        <ele>2189.2</ele>
        <time>2022-07-17T11:35:25Z</time>
      </trkpt>
      <trkpt lat="45.0473" lon="6.3981">
        <ele>2188.2</ele>
        <time>2022-07-17T11:35:26Z</time>
      </trkpt>
      <trkpt lat="45.04721" lon="6.39824">
        <ele>2187.2</ele>
        <time>2022-07-17T11:35:27Z</time>
      </trkpt>
      <trkpt lat="45.04712" lon="6.39838">
        <ele>2186</ele>
        <time>2022-07-17T11:35:28Z</time>
      </trkpt>
      <trkpt lat="45.04703" lon="6.39851">
        <ele>2185.2</ele>
        <time>2022-07-17T11:35:29Z</time>
      </trkpt>
      <trkpt lat="45.04694" lon="6.39864">
        <ele>2184.2</ele>
        <time>2022-07-17T11:35:30Z</time>
      </trkpt>
      <trkpt lat="45.04686" lon="6.39875">
        <ele>2183.2</ele>
        <time>2022-07-17T11:35:31Z</time>
      </trkpt>
      <trkpt lat="45.04677" lon="6.39887">
        <ele>2182.4</ele>
        <time>2022-07-17T11:35:32Z</time>
      </trkpt>
      <trkpt lat="45.04668" lon="6.39899">
        <ele>2181.8</ele>
        <time>2022-07-17T11:35:33Z</time>
      </trkpt>
      <trkpt lat="45.04659" lon="6.39909">
        <ele>2181</ele>
        <time>2022-07-17T11:35:34Z</time>
      </trkpt>
      <trkpt lat="45.0465" lon="6.3992">
        <ele>2180.2</ele>
        <time>2022-07-17T11:35:35Z</time>
      </trkpt>
      <trkpt lat="45.04641" lon="6.39932">
        <ele>2179.6</ele>
        <time>2022-07-17T11:35:36Z</time>
      </trkpt>
      <trkpt lat="45.0463" lon="6.39943">
        <ele>2178.6</ele>
        <time>2022-07-17T11:35:37Z</time>
      </trkpt>
      <trkpt lat="45.0462" lon="6.39954">
        <ele>2177.6</ele>
        <time>2022-07-17T11:35:38Z</time>
      </trkpt>
      <trkpt lat="45.04611" lon="6.39964">
        <ele>2176.6</ele>
        <time>2022-07-17T11:35:39Z</time>
      </trkpt>
      <trkpt lat="45.04601" lon="6.39975">
        <ele>2176</ele>
        <time>2022-07-17T11:35:40Z</time>
      </trkpt>
      <trkpt lat="45.04591" lon="6.39986">
        <ele>2175.2</ele>
        <time>2022-07-17T11:35:41Z</time>
      </trkpt>
      <trkpt lat="45.04581" lon="6.39997">
        <ele>2174</ele>
        <time>2022-07-17T11:35:42Z</time>
      </trkpt>
      <trkpt lat="45.0457" lon="6.40008">
        <ele>2173.2</ele>
        <time>2022-07-17T11:35:43Z</time>
      </trkpt>
      <trkpt lat="45.0456" lon="6.40019">
        <ele>2172.2</ele>
        <time>2022-07-17T11:35:44Z</time>
      </trkpt>
      <trkpt lat="45.04551" lon="6.40029">
        <ele>2171.2</ele>
        <time>2022-07-17T11:35:45Z</time>
      </trkpt>
      <trkpt lat="45.0454" lon="6.40039">
        <ele>2170.2</ele>
        <time>2022-07-17T11:35:46Z</time>
      </trkpt>
      <trkpt lat="45.04531" lon="6.40049">
        <ele>2169.4</ele>
        <time>2022-07-17T11:35:47Z</time>
      </trkpt>
      <trkpt lat="45.04522" lon="6.40059">
        <ele>2168.6</ele>
        <time>2022-07-17T11:35:48Z</time>
      </trkpt>
      <trkpt lat="45.04513" lon="6.40066">
        <ele>2167.8</ele>
        <time>2022-07-17T11:35:49Z</time>
      </trkpt>
      <trkpt lat="45.04504" lon="6.40074">
        <ele>2166.8</ele>
        <time>2022-07-17T11:35:50Z</time>
      </trkpt>
      <trkpt lat="45.04496" lon="6.4008">
        <ele>2165.8</ele>
        <time>2022-07-17T11:35:51Z</time>
      </trkpt>
      <trkpt lat="45.04486" lon="6.40084">
        <ele>2164.8</ele>
        <time>2022-07-17T11:35:52Z</time>
      </trkpt>
      <trkpt lat="45.04475" lon="6.40086">
        <ele>2164</ele>
        <time>2022-07-17T11:35:53Z</time>
      </trkpt>
      <trkpt lat="45.04464" lon="6.40087">
        <ele>2163.2</ele>
        <time>2022-07-17T11:35:54Z</time>
      </trkpt>
      <trkpt lat="45.04454" lon="6.40088">
        <ele>2162.4</ele>
        <time>2022-07-17T11:35:55Z</time>
      </trkpt>
      <trkpt lat="45.04444" lon="6.40091">
        <ele>2161.6</ele>
        <time>2022-07-17T11:35:56Z</time>
      </trkpt>
      <trkpt lat="45.04434" lon="6.40097">
        <ele>2160.8</ele>
        <time>2022-07-17T11:35:57Z</time>
      </trkpt>
      <trkpt lat="45.04426" lon="6.40106">
        <ele>2160.2</ele>
        <time>2022-07-17T11:35:58Z</time>
      </trkpt>
      <trkpt lat="45.04419" lon="6.40117">
        <ele>2159.4</ele>
        <time>2022-07-17T11:35:59Z</time>
      </trkpt>
      <trkpt lat="45.04412" lon="6.4013">
        <ele>2158.6</ele>
        <time>2022-07-17T11:36:00Z</time>
      </trkpt>
      <trkpt lat="45.04407" lon="6.40143">
        <ele>2157.8</ele>
        <time>2022-07-17T11:36:01Z</time>
      </trkpt>
      <trkpt lat="45.04402" lon="6.40156">
        <ele>2157.2</ele>
        <time>2022-07-17T11:36:02Z</time>
      </trkpt>
      <trkpt lat="45.04397" lon="6.40167">
        <ele>2156.6</ele>
        <time>2022-07-17T11:36:03Z</time>
      </trkpt>
      <trkpt lat="45.04391" lon="6.40175">
        <ele>2155.8</ele>
        <time>2022-07-17T11:36:04Z</time>
      </trkpt>
      <trkpt lat="45.04385" lon="6.40182">
        <ele>2155</ele>
        <time>2022-07-17T11:36:05Z</time>
      </trkpt>
      <trkpt lat="45.04377" lon="6.40185">
        <ele>2154.4</ele>
        <time>2022-07-17T11:36:06Z</time>
      </trkpt>
      <trkpt lat="45.0437" lon="6.40187">
        <ele>2153.8</ele>
        <time>2022-07-17T11:36:07Z</time>
      </trkpt>
      <trkpt lat="45.04362" lon="6.40187">
        <ele>2153.4</ele>
        <time>2022-07-17T11:36:08Z</time>
      </trkpt>
      <trkpt lat="45.04355" lon="6.40184">
        <ele>2152.8</ele>
        <time>2022-07-17T11:36:09Z</time>
      </trkpt>
      <trkpt lat="45.04348" lon="6.40177">
        <ele>2152.4</ele>
        <time>2022-07-17T11:36:10Z</time>
      </trkpt>
      <trkpt lat="45.04342" lon="6.40169">
        <ele>2151.8</ele>
        <time>2022-07-17T11:36:11Z</time>
      </trkpt>
      <trkpt lat="45.04337" lon="6.40158">
        <ele>2150.8</ele>
        <time>2022-07-17T11:36:13Z</time>
      </trkpt>
      <trkpt lat="45.04332" lon="6.40146">
        <ele>2150.2</ele>
        <time>2022-07-17T11:36:14Z</time>
      </trkpt>
      <trkpt lat="45.04326" lon="6.40132">
        <ele>2149.4</ele>
        <time>2022-07-17T11:36:15Z</time>
      </trkpt>
      <trkpt lat="45.04321" lon="6.4012">
        <ele>2148.8</ele>
        <time>2022-07-17T11:36:16Z</time>
      </trkpt>
      <trkpt lat="45.04315" lon="6.40107">
        <ele>2148.4</ele>
        <time>2022-07-17T11:36:17Z</time>
      </trkpt>
      <trkpt lat="45.0431" lon="6.40094">
        <ele>2147.4</ele>
        <time>2022-07-17T11:36:18Z</time>
      </trkpt>
      <trkpt lat="45.04305" lon="6.40081">
        <ele>2146.6</ele>
        <time>2022-07-17T11:36:19Z</time>
      </trkpt>
      <trkpt lat="45.04299" lon="6.40068">
        <ele>2146.2</ele>
        <time>2022-07-17T11:36:20Z</time>
      </trkpt>
      <trkpt lat="45.04292" lon="6.40055">
        <ele>2145.2</ele>
        <time>2022-07-17T11:36:21Z</time>
      </trkpt>
      <trkpt lat="45.04285" lon="6.40042">
        <ele>2144.4</ele>
        <time>2022-07-17T11:36:22Z</time>
      </trkpt>
      <trkpt lat="45.04277" lon="6.40029">
        <ele>2143.8</ele>
        <time>2022-07-17T11:36:23Z</time>
      </trkpt>
      <trkpt lat="45.04269" lon="6.40016">
        <ele>2143.2</ele>
        <time>2022-07-17T11:36:24Z</time>
      </trkpt>
      <trkpt lat="45.04261" lon="6.40003">
        <ele>2142</ele>
        <time>2022-07-17T11:36:25Z</time>
      </trkpt>
      <trkpt lat="45.04253" lon="6.39991">
        <ele>2141.4</ele>
        <time>2022-07-17T11:36:26Z</time>
      </trkpt>
      <trkpt lat="45.04245" lon="6.39979">
        <ele>2140.4</ele>
        <time>2022-07-17T11:36:27Z</time>
      </trkpt>
      <trkpt lat="45.04237" lon="6.39968">
        <ele>2139.4</ele>
        <time>2022-07-17T11:36:28Z</time>
      </trkpt>
      <trkpt lat="45.04229" lon="6.39957">
        <ele>2138.6</ele>
        <time>2022-07-17T11:36:29Z</time>
      </trkpt>
      <trkpt lat="45.04221" lon="6.39946">
        <ele>2137.6</ele>
        <time>2022-07-17T11:36:30Z</time>
      </trkpt>
      <trkpt lat="45.04213" lon="6.39936">
        <ele>2136.6</ele>
        <time>2022-07-17T11:36:31Z</time>
      </trkpt>
      <trkpt lat="45.04196" lon="6.39915">
        <ele>2136</ele>
        <time>2022-07-17T11:36:32Z</time>
      </trkpt>
      <trkpt lat="45.04186" lon="6.39906">
        <ele>2135</ele>
        <time>2022-07-17T11:36:33Z</time>
      </trkpt>
      <trkpt lat="45.04175" lon="6.39899">
        <ele>2134</ele>
        <time>2022-07-17T11:36:34Z</time>
      </trkpt>
      <trkpt lat="45.04165" lon="6.39893">
        <ele>2132.8</ele>
        <time>2022-07-17T11:36:35Z</time>
      </trkpt>
      <trkpt lat="45.04154" lon="6.39888">
        <ele>2131.6</ele>
        <time>2022-07-17T11:36:36Z</time>
      </trkpt>
      <trkpt lat="45.04144" lon="6.39881">
        <ele>2130.4</ele>
        <time>2022-07-17T11:36:37Z</time>
      </trkpt>
      <trkpt lat="45.04134" lon="6.39875">
        <ele>2129.4</ele>
        <time>2022-07-17T11:36:38Z</time>
      </trkpt>
      <trkpt lat="45.04124" lon="6.39868">
        <ele>2128.6</ele>
        <time>2022-07-17T11:36:39Z</time>
      </trkpt>
      <trkpt lat="45.04115" lon="6.3986">
        <ele>2127.6</ele>
        <time>2022-07-17T11:36:40Z</time>
      </trkpt>
      <trkpt lat="45.04105" lon="6.39851">
        <ele>2126.6</ele>
        <time>2022-07-17T11:36:41Z</time>
      </trkpt>
      <trkpt lat="45.04095" lon="6.39842">
        <ele>2125.6</ele>
        <time>2022-07-17T11:36:42Z</time>
      </trkpt>
      <trkpt lat="45.04085" lon="6.39833">
        <ele>2125</ele>
        <time>2022-07-17T11:36:43Z</time>
      </trkpt>
      <trkpt lat="45.04076" lon="6.39825">
        <ele>2124.2</ele>
        <time>2022-07-17T11:36:44Z</time>
      </trkpt>
      <trkpt lat="45.04067" lon="6.39817">
        <ele>2123.4</ele>
        <time>2022-07-17T11:36:45Z</time>
      </trkpt>
      <trkpt lat="45.04058" lon="6.39809">
        <ele>2122.4</ele>
        <time>2022-07-17T11:36:46Z</time>
      </trkpt>
      <trkpt lat="45.0405" lon="6.398">
        <ele>2121.6</ele>
        <time>2022-07-17T11:36:47Z</time>
      </trkpt>
      <trkpt lat="45.0404" lon="6.39792">
        <ele>2120.4</ele>
        <time>2022-07-17T11:36:48Z</time>
      </trkpt>
      <trkpt lat="45.04032" lon="6.39783">
        <ele>2119.4</ele>
        <time>2022-07-17T11:36:49Z</time>
      </trkpt>
      <trkpt lat="45.04022" lon="6.39775">
        <ele>2118.4</ele>
        <time>2022-07-17T11:36:50Z</time>
      </trkpt>
      <trkpt lat="45.04013" lon="6.39767">
        <ele>2117.6</ele>
        <time>2022-07-17T11:36:51Z</time>
      </trkpt>
      <trkpt lat="45.04004" lon="6.39759">
        <ele>2116.8</ele>
        <time>2022-07-17T11:36:52Z</time>
      </trkpt>
      <trkpt lat="45.03995" lon="6.3975">
        <ele>2116</ele>
        <time>2022-07-17T11:36:53Z</time>
      </trkpt>
      <trkpt lat="45.03986" lon="6.39742">
        <ele>2115.2</ele>
        <time>2022-07-17T11:36:54Z</time>
      </trkpt>
      <trkpt lat="45.03978" lon="6.39731">
        <ele>2114.2</ele>
        <time>2022-07-17T11:36:55Z</time>
      </trkpt>
      <trkpt lat="45.0397" lon="6.39719">
        <ele>2113.2</ele>
        <time>2022-07-17T11:36:56Z</time>
      </trkpt>
      <trkpt lat="45.03962" lon="6.39708">
        <ele>2112.2</ele>
        <time>2022-07-17T11:36:57Z</time>
      </trkpt>
      <trkpt lat="45.03955" lon="6.39696">
        <ele>2111.6</ele>
        <time>2022-07-17T11:36:58Z</time>
      </trkpt>
      <trkpt lat="45.03947" lon="6.39684">
        <ele>2110.8</ele>
        <time>2022-07-17T11:36:59Z</time>
      </trkpt>
      <trkpt lat="45.03939" lon="6.39672">
        <ele>2110.4</ele>
        <time>2022-07-17T11:37:00Z</time>
      </trkpt>
      <trkpt lat="45.03932" lon="6.3966">
        <ele>2110</ele>
        <time>2022-07-17T11:37:01Z</time>
      </trkpt>
      <trkpt lat="45.03925" lon="6.39647">
        <ele>2109.4</ele>
        <time>2022-07-17T11:37:02Z</time>
      </trkpt>
      <trkpt lat="45.03917" lon="6.39634">
        <ele>2108.4</ele>
        <time>2022-07-17T11:37:03Z</time>
      </trkpt>
      <trkpt lat="45.0391" lon="6.39622">
        <ele>2107.2</ele>
        <time>2022-07-17T11:37:04Z</time>
      </trkpt>
      <trkpt lat="45.03903" lon="6.39609">
        <ele>2106.4</ele>
        <time>2022-07-17T11:37:05Z</time>
      </trkpt>
      <trkpt lat="45.03896" lon="6.39597">
        <ele>2105.4</ele>
        <time>2022-07-17T11:37:06Z</time>
      </trkpt>
      <trkpt lat="45.03889" lon="6.39586">
        <ele>2105</ele>
        <time>2022-07-17T11:37:07Z</time>
      </trkpt>
      <trkpt lat="45.03882" lon="6.39574">
        <ele>2103.8</ele>
        <time>2022-07-17T11:37:08Z</time>
      </trkpt>
      <trkpt lat="45.03875" lon="6.39563">
        <ele>2102.6</ele>
        <time>2022-07-17T11:37:09Z</time>
      </trkpt>
      <trkpt lat="45.03868" lon="6.39552">
        <ele>2101.6</ele>
        <time>2022-07-17T11:37:10Z</time>
      </trkpt>
      <trkpt lat="45.03861" lon="6.39541">
        <ele>2100.4</ele>
        <time>2022-07-17T11:37:11Z</time>
      </trkpt>
      <trkpt lat="45.03855" lon="6.3953">
        <ele>2100.4</ele>
        <time>2022-07-17T11:37:12Z</time>
      </trkpt>
      <trkpt lat="45.0385" lon="6.39519">
        <ele>2099.2</ele>
        <time>2022-07-17T11:37:13Z</time>
      </trkpt>
      <trkpt lat="45.03846" lon="6.39506">
        <ele>2098.4</ele>
        <time>2022-07-17T11:37:14Z</time>
      </trkpt>
      <trkpt lat="45.03843" lon="6.39492">
        <ele>2097.8</ele>
        <time>2022-07-17T11:37:15Z</time>
      </trkpt>
      <trkpt lat="45.03841" lon="6.39478">
        <ele>2097</ele>
        <time>2022-07-17T11:37:16Z</time>
      </trkpt>
      <trkpt lat="45.0384" lon="6.39463">
        <ele>2096</ele>
        <time>2022-07-17T11:37:17Z</time>
      </trkpt>
      <trkpt lat="45.03838" lon="6.39449">
        <ele>2095.2</ele>
        <time>2022-07-17T11:37:18Z</time>
      </trkpt>
      <trkpt lat="45.03837" lon="6.39434">
        <ele>2094.4</ele>
        <time>2022-07-17T11:37:19Z</time>
      </trkpt>
      <trkpt lat="45.03835" lon="6.39419">
        <ele>2093.6</ele>
        <time>2022-07-17T11:37:20Z</time>
      </trkpt>
      <trkpt lat="45.03833" lon="6.39404">
        <ele>2092</ele>
        <time>2022-07-17T11:37:21Z</time>
      </trkpt>
      <trkpt lat="45.03831" lon="6.39389">
        <ele>2091.2</ele>
        <time>2022-07-17T11:37:22Z</time>
      </trkpt>
      <trkpt lat="45.03829" lon="6.39374">
        <ele>2090.6</ele>
        <time>2022-07-17T11:37:23Z</time>
      </trkpt>
      <trkpt lat="45.03829" lon="6.3936">
        <ele>2089.8</ele>
        <time>2022-07-17T11:37:24Z</time>
      </trkpt>
      <trkpt lat="45.03829" lon="6.39347">
        <ele>2089</ele>
        <time>2022-07-17T11:37:25Z</time>
      </trkpt>
      <trkpt lat="45.03831" lon="6.39333">
        <ele>2088.4</ele>
        <time>2022-07-17T11:37:26Z</time>
      </trkpt>
      <trkpt lat="45.03833" lon="6.39321">
        <ele>2087.8</ele>
        <time>2022-07-17T11:37:27Z</time>
      </trkpt>
      <trkpt lat="45.03834" lon="6.3931">
        <ele>2087.2</ele>
        <time>2022-07-17T11:37:28Z</time>
      </trkpt>
      <trkpt lat="45.03834" lon="6.39301">
        <ele>2086.8</ele>
        <time>2022-07-17T11:37:29Z</time>
      </trkpt>
      <trkpt lat="45.03833" lon="6.39293">
        <ele>2086.4</ele>
        <time>2022-07-17T11:37:30Z</time>
      </trkpt>
      <trkpt lat="45.03831" lon="6.39287">
        <ele>2086</ele>
        <time>2022-07-17T11:37:31Z</time>
      </trkpt>
      <trkpt lat="45.03827" lon="6.39284">
        <ele>2085.4</ele>
        <time>2022-07-17T11:37:32Z</time>
      </trkpt>
      <trkpt lat="45.03821" lon="6.39281">
        <ele>2085.2</ele>
        <time>2022-07-17T11:37:33Z</time>
      </trkpt>
      <trkpt lat="45.03815" lon="6.39284">
        <ele>2084.8</ele>
        <time>2022-07-17T11:37:34Z</time>
      </trkpt>
      <trkpt lat="45.0381" lon="6.39289">
        <ele>2084.4</ele>
        <time>2022-07-17T11:37:35Z</time>
      </trkpt>
      <trkpt lat="45.03806" lon="6.39298">
        <ele>2084</ele>
        <time>2022-07-17T11:37:36Z</time>
      </trkpt>
      <trkpt lat="45.03803" lon="6.39307">
        <ele>2083.6</ele>
        <time>2022-07-17T11:37:37Z</time>
      </trkpt>
      <trkpt lat="45.03803" lon="6.39318">
        <ele>2083.2</ele>
        <time>2022-07-17T11:37:38Z</time>
      </trkpt>
      <trkpt lat="45.03804" lon="6.3933">
        <ele>2082.8</ele>
        <time>2022-07-17T11:37:39Z</time>
      </trkpt>
      <trkpt lat="45.03806" lon="6.39341">
        <ele>2082.4</ele>
        <time>2022-07-17T11:37:40Z</time>
      </trkpt>
      <trkpt lat="45.03807" lon="6.39353">
        <ele>2082</ele>
        <time>2022-07-17T11:37:41Z</time>
      </trkpt>
      <trkpt lat="45.03808" lon="6.39366">
        <ele>2081.4</ele>
        <time>2022-07-17T11:37:42Z</time>
      </trkpt>
      <trkpt lat="45.03807" lon="6.39379">
        <ele>2080.8</ele>
        <time>2022-07-17T11:37:43Z</time>
      </trkpt>
      <trkpt lat="45.03806" lon="6.39395">
        <ele>2080.2</ele>
        <time>2022-07-17T11:37:44Z</time>
      </trkpt>
      <trkpt lat="45.03806" lon="6.3941">
        <ele>2079.6</ele>
        <time>2022-07-17T11:37:45Z</time>
      </trkpt>
      <trkpt lat="45.03804" lon="6.39426">
        <ele>2079</ele>
        <time>2022-07-17T11:37:46Z</time>
      </trkpt>
      <trkpt lat="45.03803" lon="6.39443">
        <ele>2078.2</ele>
        <time>2022-07-17T11:37:47Z</time>
      </trkpt>
      <trkpt lat="45.03801" lon="6.39458">
        <ele>2077.4</ele>
        <time>2022-07-17T11:37:48Z</time>
      </trkpt>
      <trkpt lat="45.03798" lon="6.39474">
        <ele>2076.6</ele>
        <time>2022-07-17T11:37:49Z</time>
      </trkpt>
      <trkpt lat="45.03793" lon="6.39488">
        <ele>2075.8</ele>
        <time>2022-07-17T11:37:50Z</time>
      </trkpt>
      <trkpt lat="45.03787" lon="6.39503">
        <ele>2074.8</ele>
        <time>2022-07-17T11:37:51Z</time>
      </trkpt>
      <trkpt lat="45.0378" lon="6.39517">
        <ele>2074</ele>
        <time>2022-07-17T11:37:52Z</time>
      </trkpt>
      <trkpt lat="45.03774" lon="6.39531">
        <ele>2073</ele>
        <time>2022-07-17T11:37:53Z</time>
      </trkpt>
      <trkpt lat="45.03768" lon="6.39545">
        <ele>2072.2</ele>
        <time>2022-07-17T11:37:54Z</time>
      </trkpt>
      <trkpt lat="45.03757" lon="6.39571">
        <ele>2071.2</ele>
        <time>2022-07-17T11:37:55Z</time>
      </trkpt>
      <trkpt lat="45.03752" lon="6.39585">
        <ele>2070.6</ele>
        <time>2022-07-17T11:37:56Z</time>
      </trkpt>
      <trkpt lat="45.03748" lon="6.396">
        <ele>2069.8</ele>
        <time>2022-07-17T11:37:57Z</time>
      </trkpt>
      <trkpt lat="45.03744" lon="6.39615">
        <ele>2069.2</ele>
        <time>2022-07-17T11:37:58Z</time>
      </trkpt>
      <trkpt lat="45.03741" lon="6.39631">
        <ele>2068.4</ele>
        <time>2022-07-17T11:37:59Z</time>
      </trkpt>
      <trkpt lat="45.03738" lon="6.39647">
        <ele>2067.6</ele>
        <time>2022-07-17T11:38:00Z</time>
      </trkpt>
      <trkpt lat="45.03736" lon="6.39663">
        <ele>2066.6</ele>
        <time>2022-07-17T11:38:01Z</time>
      </trkpt>
      <trkpt lat="45.03734" lon="6.39679">
        <ele>2065.8</ele>
        <time>2022-07-17T11:38:02Z</time>
      </trkpt>
      <trkpt lat="45.03733" lon="6.39695">
        <ele>2065</ele>
        <time>2022-07-17T11:38:03Z</time>
      </trkpt>
      <trkpt lat="45.03732" lon="6.39711">
        <ele>2064</ele>
        <time>2022-07-17T11:38:04Z</time>
      </trkpt>
      <trkpt lat="45.0373" lon="6.39727">
        <ele>2063</ele>
        <time>2022-07-17T11:38:05Z</time>
      </trkpt>
      <trkpt lat="45.0373" lon="6.39742">
        <ele>2062</ele>
        <time>2022-07-17T11:38:06Z</time>
      </trkpt>
      <trkpt lat="45.03729" lon="6.39756">
        <ele>2061</ele>
        <time>2022-07-17T11:38:07Z</time>
      </trkpt>
      <trkpt lat="45.03729" lon="6.3977">
        <ele>2060</ele>
        <time>2022-07-17T11:38:08Z</time>
      </trkpt>
      <trkpt lat="45.03731" lon="6.39783">
        <ele>2058.8</ele>
        <time>2022-07-17T11:38:09Z</time>
      </trkpt>
      <trkpt lat="45.03734" lon="6.39795">
        <ele>2058</ele>
        <time>2022-07-17T11:38:10Z</time>
      </trkpt>
      <trkpt lat="45.03738" lon="6.39807">
        <ele>2057</ele>
        <time>2022-07-17T11:38:11Z</time>
      </trkpt>
      <trkpt lat="45.03744" lon="6.39817">
        <ele>2056.2</ele>
        <time>2022-07-17T11:38:12Z</time>
      </trkpt>
      <trkpt lat="45.0375" lon="6.39826">
        <ele>2055.4</ele>
        <time>2022-07-17T11:38:13Z</time>
      </trkpt>
      <trkpt lat="45.03758" lon="6.39832">
        <ele>2054.6</ele>
        <time>2022-07-17T11:38:14Z</time>
      </trkpt>
      <trkpt lat="45.03766" lon="6.39837">
        <ele>2054</ele>
        <time>2022-07-17T11:38:15Z</time>
      </trkpt>
      <trkpt lat="45.03776" lon="6.39838">
        <ele>2053.2</ele>
        <time>2022-07-17T11:38:16Z</time>
      </trkpt>
      <trkpt lat="45.03786" lon="6.39837">
        <ele>2052.6</ele>
        <time>2022-07-17T11:38:17Z</time>
      </trkpt>
      <trkpt lat="45.03796" lon="6.39836">
        <ele>2051.8</ele>
        <time>2022-07-17T11:38:19Z</time>
      </trkpt>
      <trkpt lat="45.03806" lon="6.39836">
        <ele>2051.2</ele>
        <time>2022-07-17T11:38:20Z</time>
      </trkpt>
      <trkpt lat="45.03816" lon="6.39837">
        <ele>2050.4</ele>
        <time>2022-07-17T11:38:21Z</time>
      </trkpt>
      <trkpt lat="45.03826" lon="6.39839">
        <ele>2049.8</ele>
        <time>2022-07-17T11:38:22Z</time>
      </trkpt>
      <trkpt lat="45.03836" lon="6.39844">
        <ele>2049.4</ele>
        <time>2022-07-17T11:38:23Z</time>
      </trkpt>
      <trkpt lat="45.03845" lon="6.3985">
        <ele>2048.6</ele>
        <time>2022-07-17T11:38:24Z</time>
      </trkpt>
      <trkpt lat="45.03854" lon="6.3986">
        <ele>2048</ele>
        <time>2022-07-17T11:38:25Z</time>
      </trkpt>
      <trkpt lat="45.03862" lon="6.39871">
        <ele>2047.4</ele>
        <time>2022-07-17T11:38:26Z</time>
      </trkpt>
      <trkpt lat="45.03871" lon="6.39882">
        <ele>2046.6</ele>
        <time>2022-07-17T11:38:27Z</time>
      </trkpt>
      <trkpt lat="45.03879" lon="6.39894">
        <ele>2046</ele>
        <time>2022-07-17T11:38:28Z</time>
      </trkpt>
      <trkpt lat="45.03888" lon="6.39906">
        <ele>2045.2</ele>
        <time>2022-07-17T11:38:29Z</time>
      </trkpt>
      <trkpt lat="45.03897" lon="6.39918">
        <ele>2044.2</ele>
        <time>2022-07-17T11:38:30Z</time>
      </trkpt>
      <trkpt lat="45.03907" lon="6.3993">
        <ele>2043.4</ele>
        <time>2022-07-17T11:38:31Z</time>
      </trkpt>
      <trkpt lat="45.03916" lon="6.39941">
        <ele>2042.4</ele>
        <time>2022-07-17T11:38:32Z</time>
      </trkpt>
      <trkpt lat="45.03926" lon="6.39954">
        <ele>2041.4</ele>
        <time>2022-07-17T11:38:33Z</time>
      </trkpt>
      <trkpt lat="45.03936" lon="6.39967">
        <ele>2040.4</ele>
        <time>2022-07-17T11:38:34Z</time>
      </trkpt>
      <trkpt lat="45.03945" lon="6.39979">
        <ele>2039.6</ele>
        <time>2022-07-17T11:38:35Z</time>
      </trkpt>
      <trkpt lat="45.03953" lon="6.3999">
        <ele>2038.6</ele>
        <time>2022-07-17T11:38:36Z</time>
      </trkpt>
      <trkpt lat="45.03962" lon="6.40002">
        <ele>2037.8</ele>
        <time>2022-07-17T11:38:37Z</time>
      </trkpt>
      <trkpt lat="45.03971" lon="6.40013">
        <ele>2036.8</ele>
        <time>2022-07-17T11:38:38Z</time>
      </trkpt>
      <trkpt lat="45.0398" lon="6.40024">
        <ele>2035.8</ele>
        <time>2022-07-17T11:38:39Z</time>
      </trkpt>
      <trkpt lat="45.03988" lon="6.40036">
        <ele>2034.8</ele>
        <time>2022-07-17T11:38:40Z</time>
      </trkpt>
      <trkpt lat="45.03997" lon="6.40046">
        <ele>2033.8</ele>
        <time>2022-07-17T11:38:41Z</time>
      </trkpt>
      <trkpt lat="45.04006" lon="6.40058">
        <ele>2032.8</ele>
        <time>2022-07-17T11:38:42Z</time>
      </trkpt>
      <trkpt lat="45.04014" lon="6.4007">
        <ele>2031.8</ele>
        <time>2022-07-17T11:38:43Z</time>
      </trkpt>
      <trkpt lat="45.04021" lon="6.40079">
        <ele>2030.8</ele>
        <time>2022-07-17T11:38:44Z</time>
      </trkpt>
      <trkpt lat="45.04029" lon="6.40088">
        <ele>2030</ele>
        <time>2022-07-17T11:38:45Z</time>
      </trkpt>
      <trkpt lat="45.04037" lon="6.40096">
        <ele>2029.2</ele>
        <time>2022-07-17T11:38:46Z</time>
      </trkpt>
      <trkpt lat="45.04045" lon="6.40103">
        <ele>2028.6</ele>
        <time>2022-07-17T11:38:47Z</time>
      </trkpt>
      <trkpt lat="45.04053" lon="6.40107">
        <ele>2028</ele>
        <time>2022-07-17T11:38:48Z</time>
      </trkpt>
      <trkpt lat="45.04062" lon="6.40111">
        <ele>2027.4</ele>
        <time>2022-07-17T11:38:49Z</time>
      </trkpt>
      <trkpt lat="45.0407" lon="6.40115">
        <ele>2026.6</ele>
        <time>2022-07-17T11:38:50Z</time>
      </trkpt>
      <trkpt lat="45.04078" lon="6.40119">
        <ele>2025.8</ele>
        <time>2022-07-17T11:38:51Z</time>
      </trkpt>
      <trkpt lat="45.04084" lon="6.40125">
        <ele>2025.2</ele>
        <time>2022-07-17T11:38:52Z</time>
      </trkpt>
      <trkpt lat="45.04088" lon="6.40132">
        <ele>2024.8</ele>
        <time>2022-07-17T11:38:53Z</time>
      </trkpt>
      <trkpt lat="45.04091" lon="6.40141">
        <ele>2024.2</ele>
        <time>2022-07-17T11:38:54Z</time>
      </trkpt>
      <trkpt lat="45.04091" lon="6.4015">
        <ele>2023.8</ele>
        <time>2022-07-17T11:38:55Z</time>
      </trkpt>
      <trkpt lat="45.04088" lon="6.40158">
        <ele>2023.2</ele>
        <time>2022-07-17T11:38:56Z</time>
      </trkpt>
      <trkpt lat="45.04083" lon="6.40163">
        <ele>2022.8</ele>
        <time>2022-07-17T11:38:57Z</time>
      </trkpt>
      <trkpt lat="45.04076" lon="6.40166">
        <ele>2022.6</ele>
        <time>2022-07-17T11:38:58Z</time>
      </trkpt>
      <trkpt lat="45.04069" lon="6.40165">
        <ele>2022.2</ele>
        <time>2022-07-17T11:38:59Z</time>
      </trkpt>
      <trkpt lat="45.04063" lon="6.40161">
        <ele>2022.2</ele>
        <time>2022-07-17T11:39:00Z</time>
      </trkpt>
      <trkpt lat="45.04056" lon="6.40155">
        <ele>2022</ele>
        <time>2022-07-17T11:39:01Z</time>
      </trkpt>
      <trkpt lat="45.0405" lon="6.40149">
        <ele>2021.6</ele>
        <time>2022-07-17T11:39:02Z</time>
      </trkpt>
      <trkpt lat="45.04044" lon="6.40142">
        <ele>2021.4</ele>
        <time>2022-07-17T11:39:03Z</time>
      </trkpt>
      <trkpt lat="45.04037" lon="6.40135">
        <ele>2021.2</ele>
        <time>2022-07-17T11:39:04Z</time>
      </trkpt>
      <trkpt lat="45.04031" lon="6.40128">
        <ele>2021.2</ele>
        <time>2022-07-17T11:39:05Z</time>
      </trkpt>
      <trkpt lat="45.04024" lon="6.40123">
        <ele>2020.4</ele>
        <time>2022-07-17T11:39:06Z</time>
      </trkpt>
      <trkpt lat="45.04016" lon="6.40117">
        <ele>2019.8</ele>
        <time>2022-07-17T11:39:07Z</time>
      </trkpt>
      <trkpt lat="45.04008" lon="6.40112">
        <ele>2019.2</ele>
        <time>2022-07-17T11:39:08Z</time>
      </trkpt>
      <trkpt lat="45.03999" lon="6.40107">
        <ele>2018.8</ele>
        <time>2022-07-17T11:39:09Z</time>
      </trkpt>
      <trkpt lat="45.0399" lon="6.40102">
        <ele>2018.2</ele>
        <time>2022-07-17T11:39:10Z</time>
      </trkpt>
      <trkpt lat="45.03981" lon="6.40097">
        <ele>2017.4</ele>
        <time>2022-07-17T11:39:11Z</time>
      </trkpt>
      <trkpt lat="45.03971" lon="6.40091">
        <ele>2016.8</ele>
        <time>2022-07-17T11:39:12Z</time>
      </trkpt>
      <trkpt lat="45.03962" lon="6.40086">
        <ele>2016</ele>
        <time>2022-07-17T11:39:13Z</time>
      </trkpt>
      <trkpt lat="45.03952" lon="6.40082">
        <ele>2015.4</ele>
        <time>2022-07-17T11:39:14Z</time>
      </trkpt>
      <trkpt lat="45.03942" lon="6.40078">
        <ele>2014.8</ele>
        <time>2022-07-17T11:39:15Z</time>
      </trkpt>
      <trkpt lat="45.03933" lon="6.40074">
        <ele>2013.8</ele>
        <time>2022-07-17T11:39:16Z</time>
      </trkpt>
      <trkpt lat="45.03923" lon="6.4007">
        <ele>2013.4</ele>
        <time>2022-07-17T11:39:17Z</time>
      </trkpt>
      <trkpt lat="45.03913" lon="6.40068">
        <ele>2012.8</ele>
        <time>2022-07-17T11:39:18Z</time>
      </trkpt>
      <trkpt lat="45.03904" lon="6.40068">
        <ele>2012.2</ele>
        <time>2022-07-17T11:39:19Z</time>
      </trkpt>
      <trkpt lat="45.03894" lon="6.4007">
        <ele>2011.4</ele>
        <time>2022-07-17T11:39:20Z</time>
      </trkpt>
      <trkpt lat="45.03884" lon="6.40076">
        <ele>2010.6</ele>
        <time>2022-07-17T11:39:21Z</time>
      </trkpt>
      <trkpt lat="45.03876" lon="6.40085">
        <ele>2009.6</ele>
        <time>2022-07-17T11:39:22Z</time>
      </trkpt>
      <trkpt lat="45.03868" lon="6.40096">
        <ele>2008.8</ele>
        <time>2022-07-17T11:39:23Z</time>
      </trkpt>
      <trkpt lat="45.03861" lon="6.4011">
        <ele>2007.8</ele>
        <time>2022-07-17T11:39:24Z</time>
      </trkpt>
      <trkpt lat="45.03857" lon="6.40125">
        <ele>2006.8</ele>
        <time>2022-07-17T11:39:25Z</time>
      </trkpt>
      <trkpt lat="45.03853" lon="6.40141">
        <ele>2006</ele>
        <time>2022-07-17T11:39:26Z</time>
      </trkpt>
      <trkpt lat="45.03849" lon="6.40157">
        <ele>2005</ele>
        <time>2022-07-17T11:39:27Z</time>
      </trkpt>
      <trkpt lat="45.03845" lon="6.40173">
        <ele>2004</ele>
        <time>2022-07-17T11:39:28Z</time>
      </trkpt>
      <trkpt lat="45.03842" lon="6.4019">
        <ele>2003.2</ele>
        <time>2022-07-17T11:39:29Z</time>
      </trkpt>
      <trkpt lat="45.03838" lon="6.40207">
        <ele>2002.4</ele>
        <time>2022-07-17T11:39:30Z</time>
      </trkpt>
      <trkpt lat="45.03834" lon="6.40222">
        <ele>2001.4</ele>
        <time>2022-07-17T11:39:31Z</time>
      </trkpt>
      <trkpt lat="45.0383" lon="6.40237">
        <ele>2000.2</ele>
        <time>2022-07-17T11:39:32Z</time>
      </trkpt>
      <trkpt lat="45.03827" lon="6.40252">
        <ele>1999.4</ele>
        <time>2022-07-17T11:39:33Z</time>
      </trkpt>
      <trkpt lat="45.03823" lon="6.40262">
        <ele>1998.4</ele>
        <time>2022-07-17T11:39:34Z</time>
      </trkpt>
      <trkpt lat="45.03819" lon="6.40271">
        <ele>1997.4</ele>
        <time>2022-07-17T11:39:35Z</time>
      </trkpt>
      <trkpt lat="45.03815" lon="6.40279">
        <ele>1996.6</ele>
        <time>2022-07-17T11:39:36Z</time>
      </trkpt>
      <trkpt lat="45.0381" lon="6.40284">
        <ele>1996</ele>
        <time>2022-07-17T11:39:37Z</time>
      </trkpt>
      <trkpt lat="45.03804" lon="6.40286">
        <ele>1995.2</ele>
        <time>2022-07-17T11:39:38Z</time>
      </trkpt>
      <trkpt lat="45.03796" lon="6.40286">
        <ele>1994.4</ele>
        <time>2022-07-17T11:39:39Z</time>
      </trkpt>
      <trkpt lat="45.03787" lon="6.40284">
        <ele>1993.8</ele>
        <time>2022-07-17T11:39:40Z</time>
      </trkpt>
      <trkpt lat="45.03778" lon="6.40281">
        <ele>1993.2</ele>
        <time>2022-07-17T11:39:41Z</time>
      </trkpt>
      <trkpt lat="45.03768" lon="6.40278">
        <ele>1992.8</ele>
        <time>2022-07-17T11:39:42Z</time>
      </trkpt>
      <trkpt lat="45.03758" lon="6.40278">
        <ele>1992.2</ele>
        <time>2022-07-17T11:39:43Z</time>
      </trkpt>
      <trkpt lat="45.03748" lon="6.40281">
        <ele>1991.4</ele>
        <time>2022-07-17T11:39:44Z</time>
      </trkpt>
      <trkpt lat="45.0374" lon="6.40288">
        <ele>1990.8</ele>
        <time>2022-07-17T11:39:45Z</time>
      </trkpt>
      <trkpt lat="45.03731" lon="6.40297">
        <ele>1990.2</ele>
        <time>2022-07-17T11:39:46Z</time>
      </trkpt>
      <trkpt lat="45.03725" lon="6.40308">
        <ele>1989.4</ele>
        <time>2022-07-17T11:39:47Z</time>
      </trkpt>
      <trkpt lat="45.03719" lon="6.4032">
        <ele>1988.8</ele>
        <time>2022-07-17T11:39:48Z</time>
      </trkpt>
      <trkpt lat="45.03715" lon="6.40334">
        <ele>1988.6</ele>
        <time>2022-07-17T11:39:49Z</time>
      </trkpt>
      <trkpt lat="45.0371" lon="6.40346">
        <ele>1988.2</ele>
        <time>2022-07-17T11:39:50Z</time>
      </trkpt>
      <trkpt lat="45.03704" lon="6.40358">
        <ele>1988</ele>
        <time>2022-07-17T11:39:51Z</time>
      </trkpt>
      <trkpt lat="45.03699" lon="6.4037">
        <ele>1987.2</ele>
        <time>2022-07-17T11:39:52Z</time>
      </trkpt>
      <trkpt lat="45.03693" lon="6.4038">
        <ele>1986.8</ele>
        <time>2022-07-17T11:39:53Z</time>
      </trkpt>
      <trkpt lat="45.03687" lon="6.4039">
        <ele>1986.4</ele>
        <time>2022-07-17T11:39:54Z</time>
      </trkpt>
      <trkpt lat="45.03682" lon="6.40399">
        <ele>1986.2</ele>
        <time>2022-07-17T11:39:55Z</time>
      </trkpt>
      <trkpt lat="45.03676" lon="6.40407">
        <ele>1985.8</ele>
        <time>2022-07-17T11:39:56Z</time>
      </trkpt>
      <trkpt lat="45.0367" lon="6.40415">
        <ele>1985.4</ele>
        <time>2022-07-17T11:39:57Z</time>
      </trkpt>
      <trkpt lat="45.03664" lon="6.40422">
        <ele>1985.2</ele>
        <time>2022-07-17T11:39:58Z</time>
      </trkpt>
      <trkpt lat="45.03657" lon="6.40428">
        <ele>1984.8</ele>
        <time>2022-07-17T11:39:59Z</time>
      </trkpt>
      <trkpt lat="45.0365" lon="6.40433">
        <ele>1984.6</ele>
        <time>2022-07-17T11:40:00Z</time>
      </trkpt>
      <trkpt lat="45.03644" lon="6.40438">
        <ele>1984.2</ele>
        <time>2022-07-17T11:40:01Z</time>
      </trkpt>
      <trkpt lat="45.03637" lon="6.40442">
        <ele>1984.2</ele>
        <time>2022-07-17T11:40:02Z</time>
      </trkpt>
      <trkpt lat="45.0363" lon="6.40447">
        <ele>1983.8</ele>
        <time>2022-07-17T11:40:03Z</time>
      </trkpt>
      <trkpt lat="45.03624" lon="6.40452">
        <ele>1983.8</ele>
        <time>2022-07-17T11:40:04Z</time>
      </trkpt>
      <trkpt lat="45.03617" lon="6.40456">
        <ele>1983.4</ele>
        <time>2022-07-17T11:40:05Z</time>
      </trkpt>
      <trkpt lat="45.0361" lon="6.40461">
        <ele>1983.4</ele>
        <time>2022-07-17T11:40:06Z</time>
      </trkpt>
      <trkpt lat="45.03604" lon="6.40465">
        <ele>1983.2</ele>
        <time>2022-07-17T11:40:07Z</time>
      </trkpt>
      <trkpt lat="45.03597" lon="6.40469">
        <ele>1983</ele>
        <time>2022-07-17T11:40:08Z</time>
      </trkpt>
      <trkpt lat="45.03591" lon="6.40473">
        <ele>1983</ele>
        <time>2022-07-17T11:40:09Z</time>
      </trkpt>
      <trkpt lat="45.03585" lon="6.40477">
        <ele>1982.6</ele>
        <time>2022-07-17T11:40:10Z</time>
      </trkpt>
      <trkpt lat="45.0358" lon="6.40481">
        <ele>1982.6</ele>
        <time>2022-07-17T11:40:11Z</time>
      </trkpt>
      <trkpt lat="45.03574" lon="6.40485">
        <ele>1982.2</ele>
        <time>2022-07-17T11:40:12Z</time>
      </trkpt>
      <trkpt lat="45.03568" lon="6.40489">
        <ele>1982</ele>
        <time>2022-07-17T11:40:13Z</time>
      </trkpt>
      <trkpt lat="45.03563" lon="6.40493">
        <ele>1981.6</ele>
        <time>2022-07-17T11:40:14Z</time>
      </trkpt>
      <trkpt lat="45.03558" lon="6.40496">
        <ele>1981.4</ele>
        <time>2022-07-17T11:40:15Z</time>
      </trkpt>
      <trkpt lat="45.03553" lon="6.405">
        <ele>1981.2</ele>
        <time>2022-07-17T11:40:16Z</time>
      </trkpt>
      <trkpt lat="45.03549" lon="6.40503">
        <ele>1981.2</ele>
        <time>2022-07-17T11:40:17Z</time>
      </trkpt>
      <trkpt lat="45.03545" lon="6.40505">
        <ele>1980.8</ele>
        <time>2022-07-17T11:40:18Z</time>
      </trkpt>
      <trkpt lat="45.03542" lon="6.40506">
        <ele>1980.8</ele>
        <time>2022-07-17T11:40:19Z</time>
      </trkpt>
      <trkpt lat="45.03538" lon="6.40507">
        <ele>1980.4</ele>
        <time>2022-07-17T11:40:20Z</time>
      </trkpt>
      <trkpt lat="45.03535" lon="6.40508">
        <ele>1980.4</ele>
        <time>2022-07-17T11:40:21Z</time>
      </trkpt>
      <trkpt lat="45.03533" lon="6.40509">
        <ele>1980</ele>
        <time>2022-07-17T11:40:22Z</time>
      </trkpt>
      <trkpt lat="45.03531" lon="6.40509">
        <ele>1980</ele>
        <time>2022-07-17T11:40:23Z</time>
      </trkpt>
      <trkpt lat="45.03531" lon="6.4051">
        <ele>1979.8</ele>
        <time>2022-07-17T11:40:24Z</time>
      </trkpt>
      <trkpt lat="45.03532" lon="6.40515">
        <ele>1979.8</ele>
        <time>2022-07-17T11:41:22Z</time>
      </trkpt>
      <trkpt lat="45.03532" lon="6.40517">
        <ele>1979.8</ele>
        <time>2022-07-17T11:41:23Z</time>
      </trkpt>
      <trkpt lat="45.03533" lon="6.40519">
        <ele>1979.8</ele>
        <time>2022-07-17T11:41:24Z</time>
      </trkpt>
      <trkpt lat="45.03533" lon="6.4052">
        <ele>1979.6</ele>
        <time>2022-07-17T11:41:25Z</time>
      </trkpt>
      <trkpt lat="45.03532" lon="6.40522">
        <ele>1979.6</ele>
        <time>2022-07-17T11:41:26Z</time>
      </trkpt>
      <trkpt lat="45.03532" lon="6.40524">
        <ele>1979.6</ele>
        <time>2022-07-17T11:41:27Z</time>
      </trkpt>
      <trkpt lat="45.03532" lon="6.40525">
        <ele>1979.6</ele>
        <time>2022-07-17T11:41:28Z</time>
      </trkpt>
      <trkpt lat="45.03531" lon="6.40527">
        <ele>1979.6</ele>
        <time>2022-07-17T11:41:29Z</time>
      </trkpt>
      <trkpt lat="45.03531" lon="6.40529">
        <ele>1979.6</ele>
        <time>2022-07-17T11:41:30Z</time>
      </trkpt>
      <trkpt lat="45.03531" lon="6.4053">
        <ele>1979.6</ele>
        <time>2022-07-17T11:41:31Z</time>
      </trkpt>
      <trkpt lat="45.0353" lon="6.40532">
        <ele>1979.6</ele>
        <time>2022-07-17T11:41:32Z</time>
      </trkpt>
      <trkpt lat="45.0353" lon="6.40533">
        <ele>1979.6</ele>
        <time>2022-07-17T11:41:33Z</time>
      </trkpt>
      <trkpt lat="45.03529" lon="6.40535">
        <ele>1979.6</ele>
        <time>2022-07-17T11:41:34Z</time>
      </trkpt>
      <trkpt lat="45.03529" lon="6.40537">
        <ele>1979.8</ele>
        <time>2022-07-17T11:41:35Z</time>
      </trkpt>
      <trkpt lat="45.03528" lon="6.40538">
        <ele>1979.8</ele>
        <time>2022-07-17T11:41:36Z</time>
      </trkpt>
      <trkpt lat="45.03528" lon="6.4054">
        <ele>1979.8</ele>
        <time>2022-07-17T11:41:37Z</time>
      </trkpt>
      <trkpt lat="45.03527" lon="6.40541">
        <ele>1979.8</ele>
        <time>2022-07-17T11:41:38Z</time>
      </trkpt>
      <trkpt lat="45.03527" lon="6.40542">
        <ele>1979.8</ele>
        <time>2022-07-17T11:41:39Z</time>
      </trkpt>
      <trkpt lat="45.03526" lon="6.40544">
        <ele>1979.8</ele>
        <time>2022-07-17T11:41:40Z</time>
      </trkpt>
      <trkpt lat="45.03525" lon="6.40545">
        <ele>1979.8</ele>
        <time>2022-07-17T11:41:41Z</time>
      </trkpt>
      <trkpt lat="45.03524" lon="6.40546">
        <ele>1980</ele>
        <time>2022-07-17T11:41:43Z</time>
      </trkpt>
      <trkpt lat="45.03523" lon="6.40546">
        <ele>1980.4</ele>
        <time>2022-07-17T11:41:44Z</time>
      </trkpt>
      <trkpt lat="45.03522" lon="6.40546">
        <ele>1980.4</ele>
        <time>2022-07-17T11:41:45Z</time>
      </trkpt>
      <trkpt lat="45.03521" lon="6.40547">
        <ele>1980.4</ele>
        <time>2022-07-17T11:41:46Z</time>
      </trkpt>
      <trkpt lat="45.0352" lon="6.40547">
        <ele>1980.4</ele>
        <time>2022-07-17T11:41:47Z</time>
      </trkpt>
      <trkpt lat="45.03518" lon="6.40547">
        <ele>1980.4</ele>
        <time>2022-07-17T11:41:48Z</time>
      </trkpt>
      <trkpt lat="45.03517" lon="6.40547">
        <ele>1980.4</ele>
        <time>2022-07-17T11:41:49Z</time>
      </trkpt>
      <trkpt lat="45.03516" lon="6.40546">
        <ele>1980</ele>
        <time>2022-07-17T11:41:50Z</time>
      </trkpt>
      <trkpt lat="45.03515" lon="6.40546">
        <ele>1980</ele>
        <time>2022-07-17T11:41:51Z</time>
      </trkpt>
      <trkpt lat="45.03514" lon="6.40546">
        <ele>1980</ele>
        <time>2022-07-17T11:41:52Z</time>
      </trkpt>
      <trkpt lat="45.03513" lon="6.40546">
        <ele>1980</ele>
        <time>2022-07-17T11:41:53Z</time>
      </trkpt>
      <trkpt lat="45.03512" lon="6.40546">
        <ele>1979.8</ele>
        <time>2022-07-17T11:41:54Z</time>
      </trkpt>
      <trkpt lat="45.03511" lon="6.40545">
        <ele>1979.8</ele>
        <time>2022-07-17T11:41:56Z</time>
      </trkpt>
      <trkpt lat="45.0351" lon="6.40545">
        <ele>1979.8</ele>
        <time>2022-07-17T11:41:57Z</time>
      </trkpt>
      <trkpt lat="45.03509" lon="6.40545">
        <ele>1979.8</ele>
        <time>2022-07-17T11:41:58Z</time>
      </trkpt>
      <trkpt lat="45.03508" lon="6.40544">
        <ele>1979.8</ele>
        <time>2022-07-17T11:41:59Z</time>
      </trkpt>
      <trkpt lat="45.03507" lon="6.40544">
        <ele>1979.8</ele>
        <time>2022-07-17T11:42:00Z</time>
      </trkpt>
      <trkpt lat="45.03506" lon="6.40543">
        <ele>1979.8</ele>
        <time>2022-07-17T11:42:01Z</time>
      </trkpt>
      <trkpt lat="45.03505" lon="6.40542">
        <ele>1979.8</ele>
        <time>2022-07-17T11:42:02Z</time>
      </trkpt>
      <trkpt lat="45.03504" lon="6.40542">
        <ele>1980</ele>
        <time>2022-07-17T11:42:03Z</time>
      </trkpt>
      <trkpt lat="45.03503" lon="6.40542">
        <ele>1980</ele>
        <time>2022-07-17T11:42:05Z</time>
      </trkpt>
      <trkpt lat="45.03497" lon="6.40541">
        <ele>1979.8</ele>
        <time>2022-07-17T11:42:13Z</time>
      </trkpt>
      <trkpt lat="45.03496" lon="6.40541">
        <ele>1979.8</ele>
        <time>2022-07-17T11:42:14Z</time>
      </trkpt>
      <trkpt lat="45.03495" lon="6.40541">
        <ele>1979.8</ele>
        <time>2022-07-17T11:42:15Z</time>
      </trkpt>
      <trkpt lat="45.03494" lon="6.40541">
        <ele>1979.8</ele>
        <time>2022-07-17T11:42:17Z</time>
      </trkpt>
      <trkpt lat="45.03494" lon="6.40541">
        <ele>1979.8</ele>
        <time>2022-07-17T12:38:46Z</time>
      </trkpt>
      <trkpt lat="45.03494" lon="6.40537">
        <ele>1979.4</ele>
        <time>2022-07-17T12:38:49Z</time>
      </trkpt>
      <trkpt lat="45.03495" lon="6.40538">
        <ele>1979.4</ele>
        <time>2022-07-17T12:38:50Z</time>
      </trkpt>
      <trkpt lat="45.03496" lon="6.40538">
        <ele>1979.4</ele>
        <time>2022-07-17T12:38:51Z</time>
      </trkpt>
      <trkpt lat="45.03497" lon="6.40538">
        <ele>1979.4</ele>
        <time>2022-07-17T12:38:52Z</time>
      </trkpt>
      <trkpt lat="45.03498" lon="6.40539">
        <ele>1979.4</ele>
        <time>2022-07-17T12:38:53Z</time>
      </trkpt>
      <trkpt lat="45.03499" lon="6.40539">
        <ele>1979.2</ele>
        <time>2022-07-17T12:38:54Z</time>
      </trkpt>
      <trkpt lat="45.03499" lon="6.4054">
        <ele>1979.2</ele>
        <time>2022-07-17T12:38:55Z</time>
      </trkpt>
      <trkpt lat="45.035" lon="6.4054">
        <ele>1979.2</ele>
        <time>2022-07-17T12:38:56Z</time>
      </trkpt>
      <trkpt lat="45.035" lon="6.40541">
        <ele>1979.2</ele>
        <time>2022-07-17T12:38:57Z</time>
      </trkpt>
      <trkpt lat="45.03504" lon="6.40542">
        <ele>1979</ele>
        <time>2022-07-17T12:39:04Z</time>
      </trkpt>
      <trkpt lat="45.03505" lon="6.40543">
        <ele>1979</ele>
        <time>2022-07-17T12:39:06Z</time>
      </trkpt>
      <trkpt lat="45.03507" lon="6.40543">
        <ele>1979</ele>
        <time>2022-07-17T12:39:07Z</time>
      </trkpt>
      <trkpt lat="45.03509" lon="6.40543">
        <ele>1979.4</ele>
        <time>2022-07-17T12:39:08Z</time>
      </trkpt>
      <trkpt lat="45.03511" lon="6.40542">
        <ele>1979.4</ele>
        <time>2022-07-17T12:39:09Z</time>
      </trkpt>
      <trkpt lat="45.03513" lon="6.40541">
        <ele>1979.6</ele>
        <time>2022-07-17T12:39:10Z</time>
      </trkpt>
      <trkpt lat="45.03514" lon="6.40539">
        <ele>1979.6</ele>
        <time>2022-07-17T12:39:11Z</time>
      </trkpt>
      <trkpt lat="45.03515" lon="6.40537">
        <ele>1979.6</ele>
        <time>2022-07-17T12:39:12Z</time>
      </trkpt>
      <trkpt lat="45.03516" lon="6.40534">
        <ele>1979.8</ele>
        <time>2022-07-17T12:39:13Z</time>
      </trkpt>
      <trkpt lat="45.03517" lon="6.40531">
        <ele>1979.8</ele>
        <time>2022-07-17T12:39:14Z</time>
      </trkpt>
      <trkpt lat="45.03517" lon="6.40528">
        <ele>1979.8</ele>
        <time>2022-07-17T12:39:15Z</time>
      </trkpt>
      <trkpt lat="45.03518" lon="6.40526">
        <ele>1979.8</ele>
        <time>2022-07-17T12:39:16Z</time>
      </trkpt>
      <trkpt lat="45.0352" lon="6.40524">
        <ele>1979.8</ele>
        <time>2022-07-17T12:39:17Z</time>
      </trkpt>
      <trkpt lat="45.03523" lon="6.40524">
        <ele>1979.8</ele>
        <time>2022-07-17T12:39:18Z</time>
      </trkpt>
      <trkpt lat="45.03525" lon="6.40524">
        <ele>1979.6</ele>
        <time>2022-07-17T12:39:19Z</time>
      </trkpt>
      <trkpt lat="45.03526" lon="6.40523">
        <ele>1979.6</ele>
        <time>2022-07-17T12:39:20Z</time>
      </trkpt>
      <trkpt lat="45.03527" lon="6.40523">
        <ele>1979.6</ele>
        <time>2022-07-17T12:39:21Z</time>
      </trkpt>
      <trkpt lat="45.03529" lon="6.40522">
        <ele>1979.6</ele>
        <time>2022-07-17T12:39:22Z</time>
      </trkpt>
      <trkpt lat="45.0353" lon="6.40523">
        <ele>1979.6</ele>
        <time>2022-07-17T12:39:23Z</time>
      </trkpt>
      <trkpt lat="45.03532" lon="6.40524">
        <ele>1979.6</ele>
        <time>2022-07-17T12:39:24Z</time>
      </trkpt>
      <trkpt lat="45.03534" lon="6.40524">
        <ele>1979.4</ele>
        <time>2022-07-17T12:39:25Z</time>
      </trkpt>
      <trkpt lat="45.03536" lon="6.40524">
        <ele>1979.4</ele>
        <time>2022-07-17T12:39:26Z</time>
      </trkpt>
      <trkpt lat="45.03539" lon="6.40524">
        <ele>1979.4</ele>
        <time>2022-07-17T12:39:27Z</time>
      </trkpt>
      <trkpt lat="45.03542" lon="6.40525">
        <ele>1979</ele>
        <time>2022-07-17T12:39:28Z</time>
      </trkpt>
      <trkpt lat="45.03544" lon="6.40525">
        <ele>1979</ele>
        <time>2022-07-17T12:39:29Z</time>
      </trkpt>
      <trkpt lat="45.03547" lon="6.40526">
        <ele>1979</ele>
        <time>2022-07-17T12:39:30Z</time>
      </trkpt>
      <trkpt lat="45.0355" lon="6.40528">
        <ele>1979</ele>
        <time>2022-07-17T12:39:31Z</time>
      </trkpt>
      <trkpt lat="45.03553" lon="6.4053">
        <ele>1979</ele>
        <time>2022-07-17T12:39:32Z</time>
      </trkpt>
      <trkpt lat="45.03555" lon="6.40532">
        <ele>1978.6</ele>
        <time>2022-07-17T12:39:33Z</time>
      </trkpt>
      <trkpt lat="45.03558" lon="6.40535">
        <ele>1978.4</ele>
        <time>2022-07-17T12:39:34Z</time>
      </trkpt>
      <trkpt lat="45.03561" lon="6.40539">
        <ele>1978.4</ele>
        <time>2022-07-17T12:39:35Z</time>
      </trkpt>
      <trkpt lat="45.03564" lon="6.40542">
        <ele>1978.2</ele>
        <time>2022-07-17T12:39:36Z</time>
      </trkpt>
      <trkpt lat="45.03568" lon="6.40546">
        <ele>1978.2</ele>
        <time>2022-07-17T12:39:37Z</time>
      </trkpt>
      <trkpt lat="45.03572" lon="6.4055">
        <ele>1978.2</ele>
        <time>2022-07-17T12:39:38Z</time>
      </trkpt>
      <trkpt lat="45.03575" lon="6.40555">
        <ele>1978</ele>
        <time>2022-07-17T12:39:39Z</time>
      </trkpt>
      <trkpt lat="45.03579" lon="6.40561">
        <ele>1978</ele>
        <time>2022-07-17T12:39:40Z</time>
      </trkpt>
      <trkpt lat="45.03583" lon="6.40566">
        <ele>1977.6</ele>
        <time>2022-07-17T12:39:41Z</time>
      </trkpt>
      <trkpt lat="45.03588" lon="6.40573">
        <ele>1977.6</ele>
        <time>2022-07-17T12:39:42Z</time>
      </trkpt>
      <trkpt lat="45.03593" lon="6.40579">
        <ele>1977</ele>
        <time>2022-07-17T12:39:43Z</time>
      </trkpt>
      <trkpt lat="45.03598" lon="6.40585">
        <ele>1976.8</ele>
        <time>2022-07-17T12:39:44Z</time>
      </trkpt>
      <trkpt lat="45.03604" lon="6.40592">
        <ele>1976.6</ele>
        <time>2022-07-17T12:39:45Z</time>
      </trkpt>
      <trkpt lat="45.0361" lon="6.40597">
        <ele>1976.2</ele>
        <time>2022-07-17T12:39:46Z</time>
      </trkpt>
      <trkpt lat="45.03616" lon="6.40603">
        <ele>1975.8</ele>
        <time>2022-07-17T12:39:47Z</time>
      </trkpt>
      <trkpt lat="45.03624" lon="6.40607">
        <ele>1975.2</ele>
        <time>2022-07-17T12:39:48Z</time>
      </trkpt>
      <trkpt lat="45.03632" lon="6.4061">
        <ele>1974.8</ele>
        <time>2022-07-17T12:39:49Z</time>
      </trkpt>
      <trkpt lat="45.0364" lon="6.40612">
        <ele>1974.4</ele>
        <time>2022-07-17T12:39:50Z</time>
      </trkpt>
      <trkpt lat="45.03649" lon="6.40613">
        <ele>1974</ele>
        <time>2022-07-17T12:39:51Z</time>
      </trkpt>
      <trkpt lat="45.03658" lon="6.40612">
        <ele>1973.6</ele>
        <time>2022-07-17T12:39:52Z</time>
      </trkpt>
      <trkpt lat="45.03667" lon="6.4061">
        <ele>1973.4</ele>
        <time>2022-07-17T12:39:53Z</time>
      </trkpt>
      <trkpt lat="45.03675" lon="6.40606">
        <ele>1973.2</ele>
        <time>2022-07-17T12:39:54Z</time>
      </trkpt>
      <trkpt lat="45.03684" lon="6.406">
        <ele>1972.8</ele>
        <time>2022-07-17T12:39:55Z</time>
      </trkpt>
      <trkpt lat="45.03691" lon="6.40594">
        <ele>1972.4</ele>
        <time>2022-07-17T12:39:56Z</time>
      </trkpt>
      <trkpt lat="45.03699" lon="6.40585">
        <ele>1972.2</ele>
        <time>2022-07-17T12:39:57Z</time>
      </trkpt>
      <trkpt lat="45.03705" lon="6.40576">
        <ele>1971.8</ele>
        <time>2022-07-17T12:39:58Z</time>
      </trkpt>
      <trkpt lat="45.03711" lon="6.40565">
        <ele>1971.6</ele>
        <time>2022-07-17T12:39:59Z</time>
      </trkpt>
      <trkpt lat="45.03716" lon="6.40553">
        <ele>1971.6</ele>
        <time>2022-07-17T12:40:00Z</time>
      </trkpt>
      <trkpt lat="45.0372" lon="6.4054">
        <ele>1971.2</ele>
        <time>2022-07-17T12:40:01Z</time>
      </trkpt>
      <trkpt lat="45.03724" lon="6.40528">
        <ele>1970.4</ele>
        <time>2022-07-17T12:40:02Z</time>
      </trkpt>
      <trkpt lat="45.03728" lon="6.40516">
        <ele>1969.6</ele>
        <time>2022-07-17T12:40:03Z</time>
      </trkpt>
      <trkpt lat="45.03733" lon="6.40504">
        <ele>1968.6</ele>
        <time>2022-07-17T12:40:04Z</time>
      </trkpt>
      <trkpt lat="45.03737" lon="6.40492">
        <ele>1968</ele>
        <time>2022-07-17T12:40:05Z</time>
      </trkpt>
      <trkpt lat="45.03743" lon="6.40481">
        <ele>1967.2</ele>
        <time>2022-07-17T12:40:06Z</time>
      </trkpt>
      <trkpt lat="45.03749" lon="6.40471">
        <ele>1966.2</ele>
        <time>2022-07-17T12:40:07Z</time>
      </trkpt>
      <trkpt lat="45.03756" lon="6.40462">
        <ele>1965.6</ele>
        <time>2022-07-17T12:40:08Z</time>
      </trkpt>
      <trkpt lat="45.03763" lon="6.40453">
        <ele>1965</ele>
        <time>2022-07-17T12:40:09Z</time>
      </trkpt>
      <trkpt lat="45.03772" lon="6.40447">
        <ele>1964.6</ele>
        <time>2022-07-17T12:40:10Z</time>
      </trkpt>
      <trkpt lat="45.03781" lon="6.40442">
        <ele>1963.6</ele>
        <time>2022-07-17T12:40:11Z</time>
      </trkpt>
      <trkpt lat="45.0379" lon="6.40437">
        <ele>1963.2</ele>
        <time>2022-07-17T12:40:12Z</time>
      </trkpt>
      <trkpt lat="45.038" lon="6.40435">
        <ele>1962.4</ele>
        <time>2022-07-17T12:40:13Z</time>
      </trkpt>
      <trkpt lat="45.0381" lon="6.40434">
        <ele>1961.8</ele>
        <time>2022-07-17T12:40:14Z</time>
      </trkpt>
      <trkpt lat="45.0382" lon="6.40435">
        <ele>1961.2</ele>
        <time>2022-07-17T12:40:15Z</time>
      </trkpt>
      <trkpt lat="45.0383" lon="6.40438">
        <ele>1960.4</ele>
        <time>2022-07-17T12:40:16Z</time>
      </trkpt>
      <trkpt lat="45.0384" lon="6.40442">
        <ele>1960</ele>
        <time>2022-07-17T12:40:17Z</time>
      </trkpt>
      <trkpt lat="45.0385" lon="6.40447">
        <ele>1959.2</ele>
        <time>2022-07-17T12:40:18Z</time>
      </trkpt>
      <trkpt lat="45.0386" lon="6.40453">
        <ele>1958.4</ele>
        <time>2022-07-17T12:40:19Z</time>
      </trkpt>
      <trkpt lat="45.0387" lon="6.4046">
        <ele>1957.8</ele>
        <time>2022-07-17T12:40:20Z</time>
      </trkpt>
      <trkpt lat="45.03879" lon="6.40467">
        <ele>1957.2</ele>
        <time>2022-07-17T12:40:21Z</time>
      </trkpt>
      <trkpt lat="45.03889" lon="6.40475">
        <ele>1956.8</ele>
        <time>2022-07-17T12:40:22Z</time>
      </trkpt>
      <trkpt lat="45.03898" lon="6.40483">
        <ele>1956.2</ele>
        <time>2022-07-17T12:40:23Z</time>
      </trkpt>
      <trkpt lat="45.03907" lon="6.40491">
        <ele>1955.8</ele>
        <time>2022-07-17T12:40:24Z</time>
      </trkpt>
      <trkpt lat="45.03916" lon="6.40499">
        <ele>1955.2</ele>
        <time>2022-07-17T12:40:25Z</time>
      </trkpt>
      <trkpt lat="45.03925" lon="6.40507">
        <ele>1954.6</ele>
        <time>2022-07-17T12:40:26Z</time>
      </trkpt>
      <trkpt lat="45.03933" lon="6.40517">
        <ele>1954.2</ele>
        <time>2022-07-17T12:40:27Z</time>
      </trkpt>
      <trkpt lat="45.03941" lon="6.40527">
        <ele>1953.8</ele>
        <time>2022-07-17T12:40:28Z</time>
      </trkpt>
      <trkpt lat="45.03947" lon="6.40538">
        <ele>1953.6</ele>
        <time>2022-07-17T12:40:29Z</time>
      </trkpt>
      <trkpt lat="45.03953" lon="6.40551">
        <ele>1953.2</ele>
        <time>2022-07-17T12:40:30Z</time>
      </trkpt>
      <trkpt lat="45.03957" lon="6.40565">
        <ele>1952.8</ele>
        <time>2022-07-17T12:40:31Z</time>
      </trkpt>
      <trkpt lat="45.03961" lon="6.40579">
        <ele>1952.4</ele>
        <time>2022-07-17T12:40:32Z</time>
      </trkpt>
      <trkpt lat="45.03963" lon="6.40594">
        <ele>1951.8</ele>
        <time>2022-07-17T12:40:33Z</time>
      </trkpt>
      <trkpt lat="45.03964" lon="6.4061">
        <ele>1951.4</ele>
        <time>2022-07-17T12:40:34Z</time>
      </trkpt>
      <trkpt lat="45.03963" lon="6.40626">
        <ele>1950.8</ele>
        <time>2022-07-17T12:40:35Z</time>
      </trkpt>
      <trkpt lat="45.03961" lon="6.40642">
        <ele>1950.6</ele>
        <time>2022-07-17T12:40:36Z</time>
      </trkpt>
      <trkpt lat="45.03958" lon="6.40658">
        <ele>1950</ele>
        <time>2022-07-17T12:40:37Z</time>
      </trkpt>
      <trkpt lat="45.03953" lon="6.40673">
        <ele>1949.8</ele>
        <time>2022-07-17T12:40:38Z</time>
      </trkpt>
      <trkpt lat="45.03947" lon="6.40688">
        <ele>1949.8</ele>
        <time>2022-07-17T12:40:39Z</time>
      </trkpt>
      <trkpt lat="45.03941" lon="6.40703">
        <ele>1949.4</ele>
        <time>2022-07-17T12:40:40Z</time>
      </trkpt>
      <trkpt lat="45.03935" lon="6.40718">
        <ele>1949.2</ele>
        <time>2022-07-17T12:40:41Z</time>
      </trkpt>
      <trkpt lat="45.03929" lon="6.40733">
        <ele>1948.8</ele>
        <time>2022-07-17T12:40:42Z</time>
      </trkpt>
      <trkpt lat="45.03923" lon="6.40748">
        <ele>1948.4</ele>
        <time>2022-07-17T12:40:43Z</time>
      </trkpt>
      <trkpt lat="45.03917" lon="6.40763">
        <ele>1948</ele>
        <time>2022-07-17T12:40:44Z</time>
      </trkpt>
      <trkpt lat="45.03911" lon="6.40778">
        <ele>1947.4</ele>
        <time>2022-07-17T12:40:45Z</time>
      </trkpt>
      <trkpt lat="45.03905" lon="6.40793">
        <ele>1947</ele>
        <time>2022-07-17T12:40:46Z</time>
      </trkpt>
      <trkpt lat="45.03899" lon="6.40808">
        <ele>1946.4</ele>
        <time>2022-07-17T12:40:47Z</time>
      </trkpt>
      <trkpt lat="45.03893" lon="6.40823">
        <ele>1946</ele>
        <time>2022-07-17T12:40:48Z</time>
      </trkpt>
      <trkpt lat="45.03887" lon="6.40837">
        <ele>1945.6</ele>
        <time>2022-07-17T12:40:49Z</time>
      </trkpt>
      <trkpt lat="45.03881" lon="6.40852">
        <ele>1945.2</ele>
        <time>2022-07-17T12:40:50Z</time>
      </trkpt>
      <trkpt lat="45.03875" lon="6.40866">
        <ele>1944.6</ele>
        <time>2022-07-17T12:40:51Z</time>
      </trkpt>
      <trkpt lat="45.03868" lon="6.40881">
        <ele>1944</ele>
        <time>2022-07-17T12:40:52Z</time>
      </trkpt>
      <trkpt lat="45.03862" lon="6.40896">
        <ele>1943.4</ele>
        <time>2022-07-17T12:40:53Z</time>
      </trkpt>
      <trkpt lat="45.03858" lon="6.40911">
        <ele>1943</ele>
        <time>2022-07-17T12:40:54Z</time>
      </trkpt>
      <trkpt lat="45.03854" lon="6.40926">
        <ele>1942.4</ele>
        <time>2022-07-17T12:40:55Z</time>
      </trkpt>
      <trkpt lat="45.03852" lon="6.40942">
        <ele>1942</ele>
        <time>2022-07-17T12:40:56Z</time>
      </trkpt>
      <trkpt lat="45.03851" lon="6.40959">
        <ele>1941.6</ele>
        <time>2022-07-17T12:40:57Z</time>
      </trkpt>
      <trkpt lat="45.03851" lon="6.40975">
        <ele>1941.4</ele>
        <time>2022-07-17T12:40:58Z</time>
      </trkpt>
      <trkpt lat="45.03852" lon="6.40992">
        <ele>1941</ele>
        <time>2022-07-17T12:40:59Z</time>
      </trkpt>
      <trkpt lat="45.03854" lon="6.41009">
        <ele>1940.8</ele>
        <time>2022-07-17T12:41:00Z</time>
      </trkpt>
      <trkpt lat="45.03857" lon="6.41025">
        <ele>1940.4</ele>
        <time>2022-07-17T12:41:01Z</time>
      </trkpt>
      <trkpt lat="45.0386" lon="6.41042">
        <ele>1940</ele>
        <time>2022-07-17T12:41:02Z</time>
      </trkpt>
      <trkpt lat="45.03865" lon="6.41059">
        <ele>1939.6</ele>
        <time>2022-07-17T12:41:03Z</time>
      </trkpt>
      <trkpt lat="45.0387" lon="6.41075">
        <ele>1939</ele>
        <time>2022-07-17T12:41:04Z</time>
      </trkpt>
      <trkpt lat="45.03876" lon="6.41093">
        <ele>1938.4</ele>
        <time>2022-07-17T12:41:05Z</time>
      </trkpt>
      <trkpt lat="45.03882" lon="6.41109">
        <ele>1937.8</ele>
        <time>2022-07-17T12:41:06Z</time>
      </trkpt>
      <trkpt lat="45.0389" lon="6.41125">
        <ele>1937.4</ele>
        <time>2022-07-17T12:41:07Z</time>
      </trkpt>
      <trkpt lat="45.03896" lon="6.41143">
        <ele>1936.8</ele>
        <time>2022-07-17T12:41:08Z</time>
      </trkpt>
      <trkpt lat="45.03904" lon="6.4116">
        <ele>1936.2</ele>
        <time>2022-07-17T12:41:09Z</time>
      </trkpt>
      <trkpt lat="45.03914" lon="6.41177">
        <ele>1935.2</ele>
        <time>2022-07-17T12:41:10Z</time>
      </trkpt>
      <trkpt lat="45.03922" lon="6.41193">
        <ele>1934.4</ele>
        <time>2022-07-17T12:41:11Z</time>
      </trkpt>
      <trkpt lat="45.03931" lon="6.41208">
        <ele>1933.8</ele>
        <time>2022-07-17T12:41:12Z</time>
      </trkpt>
      <trkpt lat="45.0394" lon="6.41224">
        <ele>1933</ele>
        <time>2022-07-17T12:41:13Z</time>
      </trkpt>
      <trkpt lat="45.03949" lon="6.4124">
        <ele>1932</ele>
        <time>2022-07-17T12:41:14Z</time>
      </trkpt>
      <trkpt lat="45.03958" lon="6.41256">
        <ele>1931.2</ele>
        <time>2022-07-17T12:41:15Z</time>
      </trkpt>
      <trkpt lat="45.03967" lon="6.41271">
        <ele>1930.6</ele>
        <time>2022-07-17T12:41:16Z</time>
      </trkpt>
      <trkpt lat="45.03976" lon="6.41286">
        <ele>1929.8</ele>
        <time>2022-07-17T12:41:17Z</time>
      </trkpt>
      <trkpt lat="45.03986" lon="6.41301">
        <ele>1929.2</ele>
        <time>2022-07-17T12:41:18Z</time>
      </trkpt>
      <trkpt lat="45.03995" lon="6.41316">
        <ele>1928.8</ele>
        <time>2022-07-17T12:41:19Z</time>
      </trkpt>
      <trkpt lat="45.04004" lon="6.41331">
        <ele>1928.2</ele>
        <time>2022-07-17T12:41:20Z</time>
      </trkpt>
      <trkpt lat="45.04013" lon="6.41347">
        <ele>1927.8</ele>
        <time>2022-07-17T12:41:21Z</time>
      </trkpt>
      <trkpt lat="45.04022" lon="6.41362">
        <ele>1927.4</ele>
        <time>2022-07-17T12:41:22Z</time>
      </trkpt>
      <trkpt lat="45.04031" lon="6.41376">
        <ele>1926.8</ele>
        <time>2022-07-17T12:41:23Z</time>
      </trkpt>
      <trkpt lat="45.04042" lon="6.41388">
        <ele>1926.4</ele>
        <time>2022-07-17T12:41:24Z</time>
      </trkpt>
      <trkpt lat="45.04052" lon="6.414">
        <ele>1925.6</ele>
        <time>2022-07-17T12:41:25Z</time>
      </trkpt>
      <trkpt lat="45.04063" lon="6.4141">
        <ele>1924.8</ele>
        <time>2022-07-17T12:41:26Z</time>
      </trkpt>
      <trkpt lat="45.04075" lon="6.41417">
        <ele>1924</ele>
        <time>2022-07-17T12:41:27Z</time>
      </trkpt>
      <trkpt lat="45.04087" lon="6.41426">
        <ele>1923</ele>
        <time>2022-07-17T12:41:28Z</time>
      </trkpt>
      <trkpt lat="45.04099" lon="6.41435">
        <ele>1922.2</ele>
        <time>2022-07-17T12:41:29Z</time>
      </trkpt>
      <trkpt lat="45.0411" lon="6.41446">
        <ele>1921.4</ele>
        <time>2022-07-17T12:41:30Z</time>
      </trkpt>
      <trkpt lat="45.04118" lon="6.41459">
        <ele>1920.6</ele>
        <time>2022-07-17T12:41:31Z</time>
      </trkpt>
      <trkpt lat="45.04128" lon="6.4147">
        <ele>1919.8</ele>
        <time>2022-07-17T12:41:32Z</time>
      </trkpt>
      <trkpt lat="45.04138" lon="6.41481">
        <ele>1918.8</ele>
        <time>2022-07-17T12:41:33Z</time>
      </trkpt>
      <trkpt lat="45.04149" lon="6.41489">
        <ele>1918</ele>
        <time>2022-07-17T12:41:34Z</time>
      </trkpt>
      <trkpt lat="45.04159" lon="6.415">
        <ele>1917.4</ele>
        <time>2022-07-17T12:41:35Z</time>
      </trkpt>
      <trkpt lat="45.04168" lon="6.4151">
        <ele>1916.8</ele>
        <time>2022-07-17T12:41:36Z</time>
      </trkpt>
      <trkpt lat="45.04188" lon="6.41496">
        <ele>1916.2</ele>
        <time>2022-07-17T12:41:37Z</time>
      </trkpt>
      <trkpt lat="45.04198" lon="6.41503">
        <ele>1915.6</ele>
        <time>2022-07-17T12:41:38Z</time>
      </trkpt>
      <trkpt lat="45.04207" lon="6.4151">
        <ele>1914.6</ele>
        <time>2022-07-17T12:41:39Z</time>
      </trkpt>
      <trkpt lat="45.04214" lon="6.4152">
        <ele>1913.8</ele>
        <time>2022-07-17T12:41:40Z</time>
      </trkpt>
      <trkpt lat="45.04222" lon="6.4153">
        <ele>1912.8</ele>
        <time>2022-07-17T12:41:41Z</time>
      </trkpt>
      <trkpt lat="45.0423" lon="6.41542">
        <ele>1912.2</ele>
        <time>2022-07-17T12:41:42Z</time>
      </trkpt>
      <trkpt lat="45.04236" lon="6.41554">
        <ele>1911.2</ele>
        <time>2022-07-17T12:41:43Z</time>
      </trkpt>
      <trkpt lat="45.04242" lon="6.41567">
        <ele>1910.8</ele>
        <time>2022-07-17T12:41:44Z</time>
      </trkpt>
      <trkpt lat="45.04248" lon="6.41578">
        <ele>1910.2</ele>
        <time>2022-07-17T12:41:45Z</time>
      </trkpt>
      <trkpt lat="45.04254" lon="6.4159">
        <ele>1910</ele>
        <time>2022-07-17T12:41:46Z</time>
      </trkpt>
      <trkpt lat="45.0426" lon="6.41604">
        <ele>1909.6</ele>
        <time>2022-07-17T12:41:47Z</time>
      </trkpt>
      <trkpt lat="45.04266" lon="6.41616">
        <ele>1909.6</ele>
        <time>2022-07-17T12:41:48Z</time>
      </trkpt>
      <trkpt lat="45.04272" lon="6.4163">
        <ele>1909.2</ele>
        <time>2022-07-17T12:41:49Z</time>
      </trkpt>
      <trkpt lat="45.04277" lon="6.41644">
        <ele>1908.8</ele>
        <time>2022-07-17T12:41:50Z</time>
      </trkpt>
      <trkpt lat="45.04281" lon="6.41659">
        <ele>1908.6</ele>
        <time>2022-07-17T12:41:51Z</time>
      </trkpt>
      <trkpt lat="45.04283" lon="6.41674">
        <ele>1908.2</ele>
        <time>2022-07-17T12:41:52Z</time>
      </trkpt>
      <trkpt lat="45.04284" lon="6.41689">
        <ele>1908</ele>
        <time>2022-07-17T12:41:53Z</time>
      </trkpt>
      <trkpt lat="45.04282" lon="6.41705">
        <ele>1907.6</ele>
        <time>2022-07-17T12:41:54Z</time>
      </trkpt>
      <trkpt lat="45.04278" lon="6.41717">
        <ele>1907</ele>
        <time>2022-07-17T12:41:55Z</time>
      </trkpt>
      <trkpt lat="45.04271" lon="6.4173">
        <ele>1906.6</ele>
        <time>2022-07-17T12:41:56Z</time>
      </trkpt>
      <trkpt lat="45.04262" lon="6.41739">
        <ele>1906.2</ele>
        <time>2022-07-17T12:41:57Z</time>
      </trkpt>
      <trkpt lat="45.04252" lon="6.41748">
        <ele>1906</ele>
        <time>2022-07-17T12:41:58Z</time>
      </trkpt>
      <trkpt lat="45.04243" lon="6.41756">
        <ele>1906</ele>
        <time>2022-07-17T12:41:59Z</time>
      </trkpt>
      <trkpt lat="45.04235" lon="6.41764">
        <ele>1905.2</ele>
        <time>2022-07-17T12:42:00Z</time>
      </trkpt>
      <trkpt lat="45.04226" lon="6.41773">
        <ele>1904.8</ele>
        <time>2022-07-17T12:42:01Z</time>
      </trkpt>
      <trkpt lat="45.04217" lon="6.41782">
        <ele>1904.2</ele>
        <time>2022-07-17T12:42:02Z</time>
      </trkpt>
      <trkpt lat="45.04208" lon="6.4179">
        <ele>1903.8</ele>
        <time>2022-07-17T12:42:03Z</time>
      </trkpt>
      <trkpt lat="45.04201" lon="6.418">
        <ele>1903.2</ele>
        <time>2022-07-17T12:42:04Z</time>
      </trkpt>
      <trkpt lat="45.04192" lon="6.41808">
        <ele>1903</ele>
        <time>2022-07-17T12:42:05Z</time>
      </trkpt>
      <trkpt lat="45.04184" lon="6.4182">
        <ele>1902.6</ele>
        <time>2022-07-17T12:42:06Z</time>
      </trkpt>
      <trkpt lat="45.04178" lon="6.41833">
        <ele>1902.2</ele>
        <time>2022-07-17T12:42:07Z</time>
      </trkpt>
      <trkpt lat="45.04173" lon="6.41846">
        <ele>1901.8</ele>
        <time>2022-07-17T12:42:08Z</time>
      </trkpt>
      <trkpt lat="45.04168" lon="6.4186">
        <ele>1901.6</ele>
        <time>2022-07-17T12:42:09Z</time>
      </trkpt>
      <trkpt lat="45.04163" lon="6.41874">
        <ele>1901</ele>
        <time>2022-07-17T12:42:10Z</time>
      </trkpt>
      <trkpt lat="45.0416" lon="6.41888">
        <ele>1900.6</ele>
        <time>2022-07-17T12:42:11Z</time>
      </trkpt>
      <trkpt lat="45.04158" lon="6.41902">
        <ele>1900.2</ele>
        <time>2022-07-17T12:42:12Z</time>
      </trkpt>
      <trkpt lat="45.04156" lon="6.41918">
        <ele>1899.8</ele>
        <time>2022-07-17T12:42:13Z</time>
      </trkpt>
      <trkpt lat="45.04154" lon="6.41933">
        <ele>1899.6</ele>
        <time>2022-07-17T12:42:14Z</time>
      </trkpt>
      <trkpt lat="45.04153" lon="6.41949">
        <ele>1899.2</ele>
        <time>2022-07-17T12:42:15Z</time>
      </trkpt>
      <trkpt lat="45.04152" lon="6.41966">
        <ele>1898.6</ele>
        <time>2022-07-17T12:42:16Z</time>
      </trkpt>
      <trkpt lat="45.04152" lon="6.41983">
        <ele>1898</ele>
        <time>2022-07-17T12:42:17Z</time>
      </trkpt>
      <trkpt lat="45.04151" lon="6.41999">
        <ele>1897.2</ele>
        <time>2022-07-17T12:42:18Z</time>
      </trkpt>
      <trkpt lat="45.04151" lon="6.42017">
        <ele>1896.4</ele>
        <time>2022-07-17T12:42:19Z</time>
      </trkpt>
      <trkpt lat="45.04151" lon="6.42033">
        <ele>1895.8</ele>
        <time>2022-07-17T12:42:20Z</time>
      </trkpt>
      <trkpt lat="45.04151" lon="6.4205">
        <ele>1895</ele>
        <time>2022-07-17T12:42:21Z</time>
      </trkpt>
      <trkpt lat="45.04151" lon="6.42068">
        <ele>1894.4</ele>
        <time>2022-07-17T12:42:22Z</time>
      </trkpt>
      <trkpt lat="45.04153" lon="6.42085">
        <ele>1893.8</ele>
        <time>2022-07-17T12:42:23Z</time>
      </trkpt>
      <trkpt lat="45.04154" lon="6.42103">
        <ele>1893.4</ele>
        <time>2022-07-17T12:42:24Z</time>
      </trkpt>
      <trkpt lat="45.04156" lon="6.4212">
        <ele>1892.8</ele>
        <time>2022-07-17T12:42:25Z</time>
      </trkpt>
      <trkpt lat="45.04159" lon="6.42135">
        <ele>1892</ele>
        <time>2022-07-17T12:42:26Z</time>
      </trkpt>
      <trkpt lat="45.04162" lon="6.4215">
        <ele>1891.2</ele>
        <time>2022-07-17T12:42:27Z</time>
      </trkpt>
      <trkpt lat="45.04166" lon="6.42162">
        <ele>1890.6</ele>
        <time>2022-07-17T12:42:28Z</time>
      </trkpt>
      <trkpt lat="45.04169" lon="6.42172">
        <ele>1889.8</ele>
        <time>2022-07-17T12:42:29Z</time>
      </trkpt>
      <trkpt lat="45.04172" lon="6.42181">
        <ele>1889.2</ele>
        <time>2022-07-17T12:42:30Z</time>
      </trkpt>
      <trkpt lat="45.04176" lon="6.4219">
        <ele>1888.6</ele>
        <time>2022-07-17T12:42:31Z</time>
      </trkpt>
      <trkpt lat="45.04179" lon="6.42197">
        <ele>1888</ele>
        <time>2022-07-17T12:42:32Z</time>
      </trkpt>
      <trkpt lat="45.04181" lon="6.42202">
        <ele>1887.4</ele>
        <time>2022-07-17T12:42:33Z</time>
      </trkpt>
      <trkpt lat="45.04184" lon="6.42205">
        <ele>1887</ele>
        <time>2022-07-17T12:42:34Z</time>
      </trkpt>
      <trkpt lat="45.04188" lon="6.42206">
        <ele>1886.6</ele>
        <time>2022-07-17T12:42:35Z</time>
      </trkpt>
      <trkpt lat="45.0419" lon="6.42207">
        <ele>1886.2</ele>
        <time>2022-07-17T12:42:36Z</time>
      </trkpt>
      <trkpt lat="45.04192" lon="6.42208">
        <ele>1886</ele>
        <time>2022-07-17T12:42:37Z</time>
      </trkpt>
      <trkpt lat="45.04193" lon="6.42208">
        <ele>1885.8</ele>
        <time>2022-07-17T12:42:38Z</time>
      </trkpt>
      <trkpt lat="45.04192" lon="6.42207">
        <ele>1885.8</ele>
        <time>2022-07-17T12:42:39Z</time>
      </trkpt>
      <trkpt lat="45.04195" lon="6.42209">
        <ele>1885.2</ele>
        <time>2022-07-17T12:44:41Z</time>
      </trkpt>
      <trkpt lat="45.04198" lon="6.42208">
        <ele>1885</ele>
        <time>2022-07-17T12:44:43Z</time>
      </trkpt>
      <trkpt lat="45.04202" lon="6.42206">
        <ele>1885</ele>
        <time>2022-07-17T12:44:44Z</time>
      </trkpt>
      <trkpt lat="45.04206" lon="6.42204">
        <ele>1885</ele>
        <time>2022-07-17T12:44:45Z</time>
      </trkpt>
      <trkpt lat="45.0421" lon="6.42203">
        <ele>1885</ele>
        <time>2022-07-17T12:44:46Z</time>
      </trkpt>
      <trkpt lat="45.04215" lon="6.42201">
        <ele>1884.6</ele>
        <time>2022-07-17T12:44:47Z</time>
      </trkpt>
      <trkpt lat="45.0422" lon="6.42198">
        <ele>1884.2</ele>
        <time>2022-07-17T12:44:48Z</time>
      </trkpt>
      <trkpt lat="45.04225" lon="6.42194">
        <ele>1884</ele>
        <time>2022-07-17T12:44:49Z</time>
      </trkpt>
      <trkpt lat="45.04231" lon="6.42189">
        <ele>1883.6</ele>
        <time>2022-07-17T12:44:50Z</time>
      </trkpt>
      <trkpt lat="45.04236" lon="6.42184">
        <ele>1883.6</ele>
        <time>2022-07-17T12:44:51Z</time>
      </trkpt>
      <trkpt lat="45.04242" lon="6.42179">
        <ele>1883.2</ele>
        <time>2022-07-17T12:44:52Z</time>
      </trkpt>
      <trkpt lat="45.04248" lon="6.42174">
        <ele>1883.2</ele>
        <time>2022-07-17T12:44:53Z</time>
      </trkpt>
      <trkpt lat="45.04254" lon="6.42168">
        <ele>1883</ele>
        <time>2022-07-17T12:44:54Z</time>
      </trkpt>
      <trkpt lat="45.04261" lon="6.42163">
        <ele>1882.4</ele>
        <time>2022-07-17T12:44:55Z</time>
      </trkpt>
      <trkpt lat="45.04268" lon="6.42159">
        <ele>1882.2</ele>
        <time>2022-07-17T12:44:56Z</time>
      </trkpt>
      <trkpt lat="45.04276" lon="6.42157">
        <ele>1881.8</ele>
        <time>2022-07-17T12:44:57Z</time>
      </trkpt>
      <trkpt lat="45.04284" lon="6.4216">
        <ele>1881.2</ele>
        <time>2022-07-17T12:44:58Z</time>
      </trkpt>
      <trkpt lat="45.04291" lon="6.42164">
        <ele>1880.4</ele>
        <time>2022-07-17T12:44:59Z</time>
      </trkpt>
      <trkpt lat="45.04298" lon="6.42172">
        <ele>1879.8</ele>
        <time>2022-07-17T12:45:00Z</time>
      </trkpt>
      <trkpt lat="45.04304" lon="6.42182">
        <ele>1879.2</ele>
        <time>2022-07-17T12:45:01Z</time>
      </trkpt>
      <trkpt lat="45.04308" lon="6.42196">
        <ele>1878.4</ele>
        <time>2022-07-17T12:45:02Z</time>
      </trkpt>
      <trkpt lat="45.04309" lon="6.42211">
        <ele>1877.8</ele>
        <time>2022-07-17T12:45:03Z</time>
      </trkpt>
      <trkpt lat="45.04309" lon="6.42225">
        <ele>1877.4</ele>
        <time>2022-07-17T12:45:04Z</time>
      </trkpt>
      <trkpt lat="45.04309" lon="6.42239">
        <ele>1876.6</ele>
        <time>2022-07-17T12:45:05Z</time>
      </trkpt>
      <trkpt lat="45.04309" lon="6.42255">
        <ele>1876</ele>
        <time>2022-07-17T12:45:06Z</time>
      </trkpt>
      <trkpt lat="45.04309" lon="6.4227">
        <ele>1875.4</ele>
        <time>2022-07-17T12:45:07Z</time>
      </trkpt>
      <trkpt lat="45.04309" lon="6.42286">
        <ele>1874.6</ele>
        <time>2022-07-17T12:45:08Z</time>
      </trkpt>
      <trkpt lat="45.04309" lon="6.42302">
        <ele>1874</ele>
        <time>2022-07-17T12:45:09Z</time>
      </trkpt>
      <trkpt lat="45.0431" lon="6.42317">
        <ele>1873.6</ele>
        <time>2022-07-17T12:45:10Z</time>
      </trkpt>
      <trkpt lat="45.0431" lon="6.42332">
        <ele>1873</ele>
        <time>2022-07-17T12:45:11Z</time>
      </trkpt>
      <trkpt lat="45.04309" lon="6.42346">
        <ele>1872.4</ele>
        <time>2022-07-17T12:45:12Z</time>
      </trkpt>
      <trkpt lat="45.04309" lon="6.4236">
        <ele>1871.6</ele>
        <time>2022-07-17T12:45:13Z</time>
      </trkpt>
      <trkpt lat="45.04309" lon="6.42375">
        <ele>1871</ele>
        <time>2022-07-17T12:45:14Z</time>
      </trkpt>
      <trkpt lat="45.04307" lon="6.42392">
        <ele>1870.4</ele>
        <time>2022-07-17T12:45:15Z</time>
      </trkpt>
      <trkpt lat="45.04304" lon="6.42408">
        <ele>1869.6</ele>
        <time>2022-07-17T12:45:16Z</time>
      </trkpt>
      <trkpt lat="45.043" lon="6.42423">
        <ele>1869</ele>
        <time>2022-07-17T12:45:17Z</time>
      </trkpt>
      <trkpt lat="45.04296" lon="6.42441">
        <ele>1868.6</ele>
        <time>2022-07-17T12:45:18Z</time>
      </trkpt>
      <trkpt lat="45.04293" lon="6.42458">
        <ele>1868.2</ele>
        <time>2022-07-17T12:45:19Z</time>
      </trkpt>
      <trkpt lat="45.04291" lon="6.42475">
        <ele>1867.6</ele>
        <time>2022-07-17T12:45:20Z</time>
      </trkpt>
      <trkpt lat="45.0429" lon="6.42492">
        <ele>1867.2</ele>
        <time>2022-07-17T12:45:21Z</time>
      </trkpt>
      <trkpt lat="45.04288" lon="6.42509">
        <ele>1866.4</ele>
        <time>2022-07-17T12:45:22Z</time>
      </trkpt>
      <trkpt lat="45.04286" lon="6.42525">
        <ele>1865.6</ele>
        <time>2022-07-17T12:45:23Z</time>
      </trkpt>
      <trkpt lat="45.04283" lon="6.42541">
        <ele>1865.2</ele>
        <time>2022-07-17T12:45:24Z</time>
      </trkpt>
      <trkpt lat="45.04278" lon="6.42557">
        <ele>1864.6</ele>
        <time>2022-07-17T12:45:25Z</time>
      </trkpt>
      <trkpt lat="45.04274" lon="6.42573">
        <ele>1863.8</ele>
        <time>2022-07-17T12:45:26Z</time>
      </trkpt>
      <trkpt lat="45.04271" lon="6.4259">
        <ele>1862.8</ele>
        <time>2022-07-17T12:45:27Z</time>
      </trkpt>
      <trkpt lat="45.04268" lon="6.42608">
        <ele>1862</ele>
        <time>2022-07-17T12:45:28Z</time>
      </trkpt>
      <trkpt lat="45.04262" lon="6.42623">
        <ele>1861.2</ele>
        <time>2022-07-17T12:45:29Z</time>
      </trkpt>
      <trkpt lat="45.04254" lon="6.42636">
        <ele>1860.4</ele>
        <time>2022-07-17T12:45:30Z</time>
      </trkpt>
      <trkpt lat="45.04244" lon="6.42649">
        <ele>1859.6</ele>
        <time>2022-07-17T12:45:31Z</time>
      </trkpt>
      <trkpt lat="45.04234" lon="6.4266">
        <ele>1858.8</ele>
        <time>2022-07-17T12:45:32Z</time>
      </trkpt>
      <trkpt lat="45.04223" lon="6.4267">
        <ele>1858.2</ele>
        <time>2022-07-17T12:45:33Z</time>
      </trkpt>
      <trkpt lat="45.04211" lon="6.4268">
        <ele>1857.4</ele>
        <time>2022-07-17T12:45:34Z</time>
      </trkpt>
      <trkpt lat="45.04199" lon="6.4269">
        <ele>1856.8</ele>
        <time>2022-07-17T12:45:35Z</time>
      </trkpt>
      <trkpt lat="45.04187" lon="6.427">
        <ele>1856.2</ele>
        <time>2022-07-17T12:45:36Z</time>
      </trkpt>
      <trkpt lat="45.04175" lon="6.42708">
        <ele>1855.4</ele>
        <time>2022-07-17T12:45:37Z</time>
      </trkpt>
      <trkpt lat="45.04164" lon="6.42719">
        <ele>1854.6</ele>
        <time>2022-07-17T12:45:38Z</time>
      </trkpt>
      <trkpt lat="45.04152" lon="6.42726">
        <ele>1854</ele>
        <time>2022-07-17T12:45:39Z</time>
      </trkpt>
      <trkpt lat="45.0414" lon="6.42734">
        <ele>1853.2</ele>
        <time>2022-07-17T12:45:40Z</time>
      </trkpt>
      <trkpt lat="45.04129" lon="6.42741">
        <ele>1852.8</ele>
        <time>2022-07-17T12:45:41Z</time>
      </trkpt>
      <trkpt lat="45.04119" lon="6.42751">
        <ele>1852.4</ele>
        <time>2022-07-17T12:45:42Z</time>
      </trkpt>
      <trkpt lat="45.04108" lon="6.42761">
        <ele>1851.8</ele>
        <time>2022-07-17T12:45:43Z</time>
      </trkpt>
      <trkpt lat="45.04098" lon="6.42772">
        <ele>1851</ele>
        <time>2022-07-17T12:45:44Z</time>
      </trkpt>
      <trkpt lat="45.04088" lon="6.42782">
        <ele>1850.2</ele>
        <time>2022-07-17T12:45:45Z</time>
      </trkpt>
      <trkpt lat="45.04078" lon="6.42793">
        <ele>1849.8</ele>
        <time>2022-07-17T12:45:46Z</time>
      </trkpt>
      <trkpt lat="45.04068" lon="6.42805">
        <ele>1849.2</ele>
        <time>2022-07-17T12:45:47Z</time>
      </trkpt>
      <trkpt lat="45.04059" lon="6.42818">
        <ele>1848.4</ele>
        <time>2022-07-17T12:45:48Z</time>
      </trkpt>
      <trkpt lat="45.04049" lon="6.42831">
        <ele>1847.6</ele>
        <time>2022-07-17T12:45:49Z</time>
      </trkpt>
      <trkpt lat="45.0404" lon="6.42845">
        <ele>1847</ele>
        <time>2022-07-17T12:45:50Z</time>
      </trkpt>
      <trkpt lat="45.04032" lon="6.4286">
        <ele>1846.2</ele>
        <time>2022-07-17T12:45:51Z</time>
      </trkpt>
      <trkpt lat="45.04025" lon="6.42875">
        <ele>1845.4</ele>
        <time>2022-07-17T12:45:52Z</time>
      </trkpt>
      <trkpt lat="45.04019" lon="6.4289">
        <ele>1844.6</ele>
        <time>2022-07-17T12:45:53Z</time>
      </trkpt>
      <trkpt lat="45.04012" lon="6.42906">
        <ele>1844</ele>
        <time>2022-07-17T12:45:54Z</time>
      </trkpt>
      <trkpt lat="45.04007" lon="6.42922">
        <ele>1843</ele>
        <time>2022-07-17T12:45:55Z</time>
      </trkpt>
      <trkpt lat="45.04002" lon="6.42939">
        <ele>1842.6</ele>
        <time>2022-07-17T12:45:56Z</time>
      </trkpt>
      <trkpt lat="45.03997" lon="6.42956">
        <ele>1842</ele>
        <time>2022-07-17T12:45:57Z</time>
      </trkpt>
      <trkpt lat="45.03992" lon="6.42974">
        <ele>1841.2</ele>
        <time>2022-07-17T12:45:58Z</time>
      </trkpt>
      <trkpt lat="45.03988" lon="6.42992">
        <ele>1840.6</ele>
        <time>2022-07-17T12:45:59Z</time>
      </trkpt>
      <trkpt lat="45.03984" lon="6.4301">
        <ele>1840</ele>
        <time>2022-07-17T12:46:00Z</time>
      </trkpt>
      <trkpt lat="45.03981" lon="6.43029">
        <ele>1839.2</ele>
        <time>2022-07-17T12:46:01Z</time>
      </trkpt>
      <trkpt lat="45.03978" lon="6.43048">
        <ele>1838.6</ele>
        <time>2022-07-17T12:46:02Z</time>
      </trkpt>
      <trkpt lat="45.03974" lon="6.43066">
        <ele>1838</ele>
        <time>2022-07-17T12:46:03Z</time>
      </trkpt>
      <trkpt lat="45.03971" lon="6.43085">
        <ele>1837.4</ele>
        <time>2022-07-17T12:46:04Z</time>
      </trkpt>
      <trkpt lat="45.03968" lon="6.43103">
        <ele>1836.6</ele>
        <time>2022-07-17T12:46:05Z</time>
      </trkpt>
      <trkpt lat="45.03964" lon="6.4312">
        <ele>1836</ele>
        <time>2022-07-17T12:46:06Z</time>
      </trkpt>
      <trkpt lat="45.03959" lon="6.43138">
        <ele>1835.2</ele>
        <time>2022-07-17T12:46:07Z</time>
      </trkpt>
      <trkpt lat="45.03954" lon="6.43156">
        <ele>1834.6</ele>
        <time>2022-07-17T12:46:08Z</time>
      </trkpt>
      <trkpt lat="45.03947" lon="6.43172">
        <ele>1833.8</ele>
        <time>2022-07-17T12:46:09Z</time>
      </trkpt>
      <trkpt lat="45.03939" lon="6.43188">
        <ele>1833.2</ele>
        <time>2022-07-17T12:46:10Z</time>
      </trkpt>
      <trkpt lat="45.03932" lon="6.43204">
        <ele>1832.4</ele>
        <time>2022-07-17T12:46:11Z</time>
      </trkpt>
      <trkpt lat="45.03925" lon="6.43219">
        <ele>1831.8</ele>
        <time>2022-07-17T12:46:12Z</time>
      </trkpt>
      <trkpt lat="45.03916" lon="6.43231">
        <ele>1831.4</ele>
        <time>2022-07-17T12:46:13Z</time>
      </trkpt>
      <trkpt lat="45.03906" lon="6.43244">
        <ele>1830.6</ele>
        <time>2022-07-17T12:46:14Z</time>
      </trkpt>
      <trkpt lat="45.03897" lon="6.43258">
        <ele>1829.8</ele>
        <time>2022-07-17T12:46:15Z</time>
      </trkpt>
      <trkpt lat="45.03887" lon="6.43273">
        <ele>1829</ele>
        <time>2022-07-17T12:46:16Z</time>
      </trkpt>
      <trkpt lat="45.03877" lon="6.43285">
        <ele>1828</ele>
        <time>2022-07-17T12:46:17Z</time>
      </trkpt>
      <trkpt lat="45.03867" lon="6.43298">
        <ele>1827.2</ele>
        <time>2022-07-17T12:46:18Z</time>
      </trkpt>
      <trkpt lat="45.03856" lon="6.4331">
        <ele>1826.2</ele>
        <time>2022-07-17T12:46:19Z</time>
      </trkpt>
      <trkpt lat="45.03846" lon="6.4332">
        <ele>1825.2</ele>
        <time>2022-07-17T12:46:20Z</time>
      </trkpt>
      <trkpt lat="45.03834" lon="6.4333">
        <ele>1824.4</ele>
        <time>2022-07-17T12:46:21Z</time>
      </trkpt>
      <trkpt lat="45.03824" lon="6.43338">
        <ele>1823.6</ele>
        <time>2022-07-17T12:46:22Z</time>
      </trkpt>
      <trkpt lat="45.03813" lon="6.43348">
        <ele>1822.8</ele>
        <time>2022-07-17T12:46:23Z</time>
      </trkpt>
      <trkpt lat="45.03803" lon="6.43361">
        <ele>1822</ele>
        <time>2022-07-17T12:46:24Z</time>
      </trkpt>
      <trkpt lat="45.03795" lon="6.43374">
        <ele>1821.2</ele>
        <time>2022-07-17T12:46:25Z</time>
      </trkpt>
      <trkpt lat="45.03787" lon="6.43388">
        <ele>1820.6</ele>
        <time>2022-07-17T12:46:26Z</time>
      </trkpt>
      <trkpt lat="45.03779" lon="6.43402">
        <ele>1820.2</ele>
        <time>2022-07-17T12:46:27Z</time>
      </trkpt>
      <trkpt lat="45.03769" lon="6.43415">
        <ele>1819.6</ele>
        <time>2022-07-17T12:46:28Z</time>
      </trkpt>
      <trkpt lat="45.03758" lon="6.43425">
        <ele>1818.8</ele>
        <time>2022-07-17T12:46:29Z</time>
      </trkpt>
      <trkpt lat="45.03746" lon="6.43434">
        <ele>1817.8</ele>
        <time>2022-07-17T12:46:30Z</time>
      </trkpt>
      <trkpt lat="45.03735" lon="6.43443">
        <ele>1817</ele>
        <time>2022-07-17T12:46:31Z</time>
      </trkpt>
      <trkpt lat="45.03726" lon="6.43454">
        <ele>1816.4</ele>
        <time>2022-07-17T12:46:32Z</time>
      </trkpt>
      <trkpt lat="45.03716" lon="6.43467">
        <ele>1815.6</ele>
        <time>2022-07-17T12:46:33Z</time>
      </trkpt>
      <trkpt lat="45.03706" lon="6.4348">
        <ele>1814.8</ele>
        <time>2022-07-17T12:46:34Z</time>
      </trkpt>
      <trkpt lat="45.03696" lon="6.43493">
        <ele>1814.2</ele>
        <time>2022-07-17T12:46:35Z</time>
      </trkpt>
      <trkpt lat="45.03687" lon="6.43505">
        <ele>1813.4</ele>
        <time>2022-07-17T12:46:36Z</time>
      </trkpt>
      <trkpt lat="45.03678" lon="6.43516">
        <ele>1812.4</ele>
        <time>2022-07-17T12:46:37Z</time>
      </trkpt>
      <trkpt lat="45.03668" lon="6.43528">
        <ele>1811.6</ele>
        <time>2022-07-17T12:46:38Z</time>
      </trkpt>
      <trkpt lat="45.03659" lon="6.43541">
        <ele>1810.8</ele>
        <time>2022-07-17T12:46:39Z</time>
      </trkpt>
      <trkpt lat="45.03651" lon="6.43556">
        <ele>1809.8</ele>
        <time>2022-07-17T12:46:40Z</time>
      </trkpt>
      <trkpt lat="45.03644" lon="6.43571">
        <ele>1809</ele>
        <time>2022-07-17T12:46:41Z</time>
      </trkpt>
      <trkpt lat="45.03636" lon="6.43586">
        <ele>1808.2</ele>
        <time>2022-07-17T12:46:42Z</time>
      </trkpt>
      <trkpt lat="45.03629" lon="6.43601">
        <ele>1807.6</ele>
        <time>2022-07-17T12:46:43Z</time>
      </trkpt>
      <trkpt lat="45.03621" lon="6.43616">
        <ele>1806.8</ele>
        <time>2022-07-17T12:46:44Z</time>
      </trkpt>
      <trkpt lat="45.03613" lon="6.4363">
        <ele>1806</ele>
        <time>2022-07-17T12:46:45Z</time>
      </trkpt>
      <trkpt lat="45.03605" lon="6.43643">
        <ele>1805.2</ele>
        <time>2022-07-17T12:46:46Z</time>
      </trkpt>
      <trkpt lat="45.03597" lon="6.43656">
        <ele>1804.2</ele>
        <time>2022-07-17T12:46:47Z</time>
      </trkpt>
      <trkpt lat="45.03589" lon="6.43671">
        <ele>1803.6</ele>
        <time>2022-07-17T12:46:48Z</time>
      </trkpt>
      <trkpt lat="45.0358" lon="6.43685">
        <ele>1803</ele>
        <time>2022-07-17T12:46:49Z</time>
      </trkpt>
      <trkpt lat="45.03571" lon="6.43698">
        <ele>1802.2</ele>
        <time>2022-07-17T12:46:50Z</time>
      </trkpt>
      <trkpt lat="45.03561" lon="6.43709">
        <ele>1801.8</ele>
        <time>2022-07-17T12:46:51Z</time>
      </trkpt>
      <trkpt lat="45.0355" lon="6.43719">
        <ele>1801.2</ele>
        <time>2022-07-17T12:46:52Z</time>
      </trkpt>
      <trkpt lat="45.03538" lon="6.43729">
        <ele>1800.8</ele>
        <time>2022-07-17T12:46:53Z</time>
      </trkpt>
      <trkpt lat="45.03528" lon="6.43739">
        <ele>1800.2</ele>
        <time>2022-07-17T12:46:54Z</time>
      </trkpt>
      <trkpt lat="45.03518" lon="6.4375">
        <ele>1799.6</ele>
        <time>2022-07-17T12:46:55Z</time>
      </trkpt>
      <trkpt lat="45.03507" lon="6.4376">
        <ele>1799.2</ele>
        <time>2022-07-17T12:46:56Z</time>
      </trkpt>
      <trkpt lat="45.03496" lon="6.43769">
        <ele>1799</ele>
        <time>2022-07-17T12:46:57Z</time>
      </trkpt>
      <trkpt lat="45.03485" lon="6.43778">
        <ele>1798.8</ele>
        <time>2022-07-17T12:46:58Z</time>
      </trkpt>
      <trkpt lat="45.03473" lon="6.43788">
        <ele>1798.2</ele>
        <time>2022-07-17T12:46:59Z</time>
      </trkpt>
      <trkpt lat="45.03462" lon="6.43798">
        <ele>1797.8</ele>
        <time>2022-07-17T12:47:00Z</time>
      </trkpt>
      <trkpt lat="45.03452" lon="6.43808">
        <ele>1797</ele>
        <time>2022-07-17T12:47:01Z</time>
      </trkpt>
      <trkpt lat="45.03442" lon="6.43818">
        <ele>1796.6</ele>
        <time>2022-07-17T12:47:02Z</time>
      </trkpt>
      <trkpt lat="45.03431" lon="6.43827">
        <ele>1796.4</ele>
        <time>2022-07-17T12:47:03Z</time>
      </trkpt>
      <trkpt lat="45.0342" lon="6.43837">
        <ele>1795.8</ele>
        <time>2022-07-17T12:47:04Z</time>
      </trkpt>
      <trkpt lat="45.0341" lon="6.43848">
        <ele>1795</ele>
        <time>2022-07-17T12:47:05Z</time>
      </trkpt>
      <trkpt lat="45.03399" lon="6.43859">
        <ele>1794.2</ele>
        <time>2022-07-17T12:47:06Z</time>
      </trkpt>
      <trkpt lat="45.03387" lon="6.4387">
        <ele>1793.4</ele>
        <time>2022-07-17T12:47:07Z</time>
      </trkpt>
      <trkpt lat="45.03376" lon="6.43881">
        <ele>1792.6</ele>
        <time>2022-07-17T12:47:08Z</time>
      </trkpt>
      <trkpt lat="45.03364" lon="6.43892">
        <ele>1792</ele>
        <time>2022-07-17T12:47:09Z</time>
      </trkpt>
      <trkpt lat="45.03353" lon="6.43905">
        <ele>1791.2</ele>
        <time>2022-07-17T12:47:10Z</time>
      </trkpt>
      <trkpt lat="45.03342" lon="6.43918">
        <ele>1790.6</ele>
        <time>2022-07-17T12:47:11Z</time>
      </trkpt>
      <trkpt lat="45.03331" lon="6.43929">
        <ele>1790</ele>
        <time>2022-07-17T12:47:12Z</time>
      </trkpt>
      <trkpt lat="45.03319" lon="6.43939">
        <ele>1789</ele>
        <time>2022-07-17T12:47:13Z</time>
      </trkpt>
      <trkpt lat="45.03307" lon="6.43952">
        <ele>1788.2</ele>
        <time>2022-07-17T12:47:14Z</time>
      </trkpt>
      <trkpt lat="45.03297" lon="6.43965">
        <ele>1787.4</ele>
        <time>2022-07-17T12:47:15Z</time>
      </trkpt>
      <trkpt lat="45.03286" lon="6.43979">
        <ele>1786.6</ele>
        <time>2022-07-17T12:47:16Z</time>
      </trkpt>
      <trkpt lat="45.03275" lon="6.43991">
        <ele>1785.6</ele>
        <time>2022-07-17T12:47:17Z</time>
      </trkpt>
      <trkpt lat="45.03263" lon="6.44004">
        <ele>1784.8</ele>
        <time>2022-07-17T12:47:18Z</time>
      </trkpt>
      <trkpt lat="45.03252" lon="6.44018">
        <ele>1784</ele>
        <time>2022-07-17T12:47:19Z</time>
      </trkpt>
      <trkpt lat="45.0324" lon="6.44032">
        <ele>1783.2</ele>
        <time>2022-07-17T12:47:20Z</time>
      </trkpt>
      <trkpt lat="45.03229" lon="6.44046">
        <ele>1782.4</ele>
        <time>2022-07-17T12:47:21Z</time>
      </trkpt>
      <trkpt lat="45.03217" lon="6.44059">
        <ele>1781.6</ele>
        <time>2022-07-17T12:47:22Z</time>
      </trkpt>
      <trkpt lat="45.03206" lon="6.44073">
        <ele>1780.8</ele>
        <time>2022-07-17T12:47:23Z</time>
      </trkpt>
      <trkpt lat="45.03195" lon="6.44088">
        <ele>1780</ele>
        <time>2022-07-17T12:47:24Z</time>
      </trkpt>
      <trkpt lat="45.03185" lon="6.44102">
        <ele>1779</ele>
        <time>2022-07-17T12:47:25Z</time>
      </trkpt>
      <trkpt lat="45.03173" lon="6.44117">
        <ele>1778.2</ele>
        <time>2022-07-17T12:47:26Z</time>
      </trkpt>
      <trkpt lat="45.03163" lon="6.44131">
        <ele>1777.4</ele>
        <time>2022-07-17T12:47:27Z</time>
      </trkpt>
      <trkpt lat="45.03153" lon="6.44147">
        <ele>1776.6</ele>
        <time>2022-07-17T12:47:28Z</time>
      </trkpt>
      <trkpt lat="45.03143" lon="6.44163">
        <ele>1775.8</ele>
        <time>2022-07-17T12:47:29Z</time>
      </trkpt>
      <trkpt lat="45.03133" lon="6.44181">
        <ele>1775</ele>
        <time>2022-07-17T12:47:30Z</time>
      </trkpt>
      <trkpt lat="45.03124" lon="6.44198">
        <ele>1774.4</ele>
        <time>2022-07-17T12:47:31Z</time>
      </trkpt>
      <trkpt lat="45.03114" lon="6.44215">
        <ele>1773.8</ele>
        <time>2022-07-17T12:47:32Z</time>
      </trkpt>
      <trkpt lat="45.03105" lon="6.44233">
        <ele>1773.2</ele>
        <time>2022-07-17T12:47:33Z</time>
      </trkpt>
      <trkpt lat="45.03096" lon="6.44252">
        <ele>1772.2</ele>
        <time>2022-07-17T12:47:34Z</time>
      </trkpt>
      <trkpt lat="45.03088" lon="6.44273">
        <ele>1771.2</ele>
        <time>2022-07-17T12:47:35Z</time>
      </trkpt>
      <trkpt lat="45.0308" lon="6.44292">
        <ele>1770.2</ele>
        <time>2022-07-17T12:47:36Z</time>
      </trkpt>
      <trkpt lat="45.03073" lon="6.44313">
        <ele>1769.4</ele>
        <time>2022-07-17T12:47:37Z</time>
      </trkpt>
      <trkpt lat="45.03066" lon="6.44333">
        <ele>1768.4</ele>
        <time>2022-07-17T12:47:38Z</time>
      </trkpt>
      <trkpt lat="45.03059" lon="6.44354">
        <ele>1767.4</ele>
        <time>2022-07-17T12:47:39Z</time>
      </trkpt>
      <trkpt lat="45.03053" lon="6.44376">
        <ele>1766.4</ele>
        <time>2022-07-17T12:47:40Z</time>
      </trkpt>
      <trkpt lat="45.03046" lon="6.44395">
        <ele>1765.6</ele>
        <time>2022-07-17T12:47:41Z</time>
      </trkpt>
      <trkpt lat="45.03037" lon="6.44415">
        <ele>1764.6</ele>
        <time>2022-07-17T12:47:42Z</time>
      </trkpt>
      <trkpt lat="45.03027" lon="6.44432">
        <ele>1763.8</ele>
        <time>2022-07-17T12:47:43Z</time>
      </trkpt>
      <trkpt lat="45.03017" lon="6.44449">
        <ele>1763.2</ele>
        <time>2022-07-17T12:47:44Z</time>
      </trkpt>
      <trkpt lat="45.03007" lon="6.44466">
        <ele>1762.2</ele>
        <time>2022-07-17T12:47:45Z</time>
      </trkpt>
      <trkpt lat="45.02995" lon="6.44481">
        <ele>1761.4</ele>
        <time>2022-07-17T12:47:46Z</time>
      </trkpt>
      <trkpt lat="45.02983" lon="6.44495">
        <ele>1760.6</ele>
        <time>2022-07-17T12:47:47Z</time>
      </trkpt>
      <trkpt lat="45.02971" lon="6.4451">
        <ele>1759.8</ele>
        <time>2022-07-17T12:47:48Z</time>
      </trkpt>
      <trkpt lat="45.0296" lon="6.44526">
        <ele>1759</ele>
        <time>2022-07-17T12:47:49Z</time>
      </trkpt>
      <trkpt lat="45.02948" lon="6.44542">
        <ele>1758.2</ele>
        <time>2022-07-17T12:47:50Z</time>
      </trkpt>
      <trkpt lat="45.02937" lon="6.44557">
        <ele>1757.4</ele>
        <time>2022-07-17T12:47:51Z</time>
      </trkpt>
      <trkpt lat="45.02928" lon="6.44572">
        <ele>1756.8</ele>
        <time>2022-07-17T12:47:52Z</time>
      </trkpt>
      <trkpt lat="45.0292" lon="6.44589">
        <ele>1756</ele>
        <time>2022-07-17T12:47:53Z</time>
      </trkpt>
      <trkpt lat="45.02913" lon="6.44606">
        <ele>1755.6</ele>
        <time>2022-07-17T12:47:54Z</time>
      </trkpt>
      <trkpt lat="45.02905" lon="6.44623">
        <ele>1754.6</ele>
        <time>2022-07-17T12:47:55Z</time>
      </trkpt>
      <trkpt lat="45.02898" lon="6.44642">
        <ele>1753.6</ele>
        <time>2022-07-17T12:47:56Z</time>
      </trkpt>
      <trkpt lat="45.02891" lon="6.4466">
        <ele>1752.6</ele>
        <time>2022-07-17T12:47:57Z</time>
      </trkpt>
      <trkpt lat="45.02883" lon="6.44679">
        <ele>1751.6</ele>
        <time>2022-07-17T12:47:58Z</time>
      </trkpt>
      <trkpt lat="45.02874" lon="6.44696">
        <ele>1751</ele>
        <time>2022-07-17T12:47:59Z</time>
      </trkpt>
      <trkpt lat="45.02862" lon="6.4471">
        <ele>1750.4</ele>
        <time>2022-07-17T12:48:00Z</time>
      </trkpt>
      <trkpt lat="45.02851" lon="6.44724">
        <ele>1749.6</ele>
        <time>2022-07-17T12:48:01Z</time>
      </trkpt>
      <trkpt lat="45.02839" lon="6.44737">
        <ele>1749</ele>
        <time>2022-07-17T12:48:02Z</time>
      </trkpt>
      <trkpt lat="45.02827" lon="6.44747">
        <ele>1748.4</ele>
        <time>2022-07-17T12:48:03Z</time>
      </trkpt>
      <trkpt lat="45.02814" lon="6.44759">
        <ele>1747.6</ele>
        <time>2022-07-17T12:48:04Z</time>
      </trkpt>
      <trkpt lat="45.02801" lon="6.4477">
        <ele>1747</ele>
        <time>2022-07-17T12:48:05Z</time>
      </trkpt>
      <trkpt lat="45.02789" lon="6.4478">
        <ele>1746.6</ele>
        <time>2022-07-17T12:48:06Z</time>
      </trkpt>
      <trkpt lat="45.02776" lon="6.44792">
        <ele>1745.8</ele>
        <time>2022-07-17T12:48:07Z</time>
      </trkpt>
      <trkpt lat="45.02765" lon="6.44805">
        <ele>1744.8</ele>
        <time>2022-07-17T12:48:08Z</time>
      </trkpt>
      <trkpt lat="45.02753" lon="6.44818">
        <ele>1743.8</ele>
        <time>2022-07-17T12:48:09Z</time>
      </trkpt>
      <trkpt lat="45.02743" lon="6.44831">
        <ele>1742.8</ele>
        <time>2022-07-17T12:48:10Z</time>
      </trkpt>
      <trkpt lat="45.02732" lon="6.44847">
        <ele>1742</ele>
        <time>2022-07-17T12:48:11Z</time>
      </trkpt>
      <trkpt lat="45.02722" lon="6.44862">
        <ele>1741.2</ele>
        <time>2022-07-17T12:48:12Z</time>
      </trkpt>
      <trkpt lat="45.02711" lon="6.44876">
        <ele>1740.4</ele>
        <time>2022-07-17T12:48:13Z</time>
      </trkpt>
      <trkpt lat="45.02701" lon="6.4489">
        <ele>1739.6</ele>
        <time>2022-07-17T12:48:14Z</time>
      </trkpt>
      <trkpt lat="45.02691" lon="6.44905">
        <ele>1738.8</ele>
        <time>2022-07-17T12:48:15Z</time>
      </trkpt>
      <trkpt lat="45.0268" lon="6.44919">
        <ele>1738</ele>
        <time>2022-07-17T12:48:16Z</time>
      </trkpt>
      <trkpt lat="45.0267" lon="6.44933">
        <ele>1737.2</ele>
        <time>2022-07-17T12:48:17Z</time>
      </trkpt>
      <trkpt lat="45.02659" lon="6.44948">
        <ele>1736.6</ele>
        <time>2022-07-17T12:48:18Z</time>
      </trkpt>
      <trkpt lat="45.02648" lon="6.44962">
        <ele>1736</ele>
        <time>2022-07-17T12:48:19Z</time>
      </trkpt>
      <trkpt lat="45.02638" lon="6.44978">
        <ele>1735.2</ele>
        <time>2022-07-17T12:48:20Z</time>
      </trkpt>
      <trkpt lat="45.02628" lon="6.44995">
        <ele>1734.8</ele>
        <time>2022-07-17T12:48:21Z</time>
      </trkpt>
      <trkpt lat="45.02617" lon="6.45011">
        <ele>1734</ele>
        <time>2022-07-17T12:48:22Z</time>
      </trkpt>
      <trkpt lat="45.02608" lon="6.45026">
        <ele>1733.2</ele>
        <time>2022-07-17T12:48:23Z</time>
      </trkpt>
      <trkpt lat="45.02598" lon="6.45042">
        <ele>1732.4</ele>
        <time>2022-07-17T12:48:24Z</time>
      </trkpt>
      <trkpt lat="45.02589" lon="6.45058">
        <ele>1731.6</ele>
        <time>2022-07-17T12:48:25Z</time>
      </trkpt>
      <trkpt lat="45.0258" lon="6.45074">
        <ele>1730.8</ele>
        <time>2022-07-17T12:48:26Z</time>
      </trkpt>
      <trkpt lat="45.02572" lon="6.45092">
        <ele>1730</ele>
        <time>2022-07-17T12:48:27Z</time>
      </trkpt>
      <trkpt lat="45.02564" lon="6.45108">
        <ele>1729</ele>
        <time>2022-07-17T12:48:28Z</time>
      </trkpt>
      <trkpt lat="45.02555" lon="6.45124">
        <ele>1728.4</ele>
        <time>2022-07-17T12:48:29Z</time>
      </trkpt>
      <trkpt lat="45.02547" lon="6.4514">
        <ele>1727.4</ele>
        <time>2022-07-17T12:48:30Z</time>
      </trkpt>
      <trkpt lat="45.02539" lon="6.45158">
        <ele>1726.4</ele>
        <time>2022-07-17T12:48:31Z</time>
      </trkpt>
      <trkpt lat="45.02532" lon="6.45176">
        <ele>1725.8</ele>
        <time>2022-07-17T12:48:32Z</time>
      </trkpt>
      <trkpt lat="45.02525" lon="6.45193">
        <ele>1725</ele>
        <time>2022-07-17T12:48:33Z</time>
      </trkpt>
      <trkpt lat="45.02518" lon="6.45211">
        <ele>1724.4</ele>
        <time>2022-07-17T12:48:34Z</time>
      </trkpt>
      <trkpt lat="45.02512" lon="6.45229">
        <ele>1723.6</ele>
        <time>2022-07-17T12:48:35Z</time>
      </trkpt>
      <trkpt lat="45.02507" lon="6.45247">
        <ele>1723</ele>
        <time>2022-07-17T12:48:36Z</time>
      </trkpt>
      <trkpt lat="45.02502" lon="6.45266">
        <ele>1722.2</ele>
        <time>2022-07-17T12:48:37Z</time>
      </trkpt>
      <trkpt lat="45.02497" lon="6.45285">
        <ele>1721.4</ele>
        <time>2022-07-17T12:48:38Z</time>
      </trkpt>
      <trkpt lat="45.02491" lon="6.45303">
        <ele>1720.6</ele>
        <time>2022-07-17T12:48:39Z</time>
      </trkpt>
      <trkpt lat="45.02484" lon="6.4532">
        <ele>1720</ele>
        <time>2022-07-17T12:48:40Z</time>
      </trkpt>
      <trkpt lat="45.02476" lon="6.45336">
        <ele>1719.2</ele>
        <time>2022-07-17T12:48:41Z</time>
      </trkpt>
      <trkpt lat="45.02468" lon="6.45352">
        <ele>1718.4</ele>
        <time>2022-07-17T12:48:42Z</time>
      </trkpt>
      <trkpt lat="45.0246" lon="6.45368">
        <ele>1717.8</ele>
        <time>2022-07-17T12:48:43Z</time>
      </trkpt>
      <trkpt lat="45.02453" lon="6.45385">
        <ele>1717</ele>
        <time>2022-07-17T12:48:44Z</time>
      </trkpt>
      <trkpt lat="45.02446" lon="6.45402">
        <ele>1716.2</ele>
        <time>2022-07-17T12:48:45Z</time>
      </trkpt>
      <trkpt lat="45.02439" lon="6.45418">
        <ele>1715.4</ele>
        <time>2022-07-17T12:48:46Z</time>
      </trkpt>
      <trkpt lat="45.02432" lon="6.45435">
        <ele>1714.6</ele>
        <time>2022-07-17T12:48:47Z</time>
      </trkpt>
      <trkpt lat="45.02422" lon="6.45451">
        <ele>1714.2</ele>
        <time>2022-07-17T12:48:48Z</time>
      </trkpt>
      <trkpt lat="45.02413" lon="6.45466">
        <ele>1713.6</ele>
        <time>2022-07-17T12:48:49Z</time>
      </trkpt>
      <trkpt lat="45.02403" lon="6.45479">
        <ele>1712.8</ele>
        <time>2022-07-17T12:48:50Z</time>
      </trkpt>
      <trkpt lat="45.02394" lon="6.45492">
        <ele>1712</ele>
        <time>2022-07-17T12:48:51Z</time>
      </trkpt>
      <trkpt lat="45.02384" lon="6.45505">
        <ele>1711</ele>
        <time>2022-07-17T12:48:52Z</time>
      </trkpt>
      <trkpt lat="45.02375" lon="6.45518">
        <ele>1710.4</ele>
        <time>2022-07-17T12:48:53Z</time>
      </trkpt>
      <trkpt lat="45.02365" lon="6.45533">
        <ele>1709.6</ele>
        <time>2022-07-17T12:48:54Z</time>
      </trkpt>
      <trkpt lat="45.02355" lon="6.45547">
        <ele>1709.2</ele>
        <time>2022-07-17T12:48:55Z</time>
      </trkpt>
      <trkpt lat="45.02345" lon="6.45561">
        <ele>1708.4</ele>
        <time>2022-07-17T12:48:56Z</time>
      </trkpt>
      <trkpt lat="45.02336" lon="6.45576">
        <ele>1707.6</ele>
        <time>2022-07-17T12:48:57Z</time>
      </trkpt>
      <trkpt lat="45.02327" lon="6.45592">
        <ele>1706.8</ele>
        <time>2022-07-17T12:48:58Z</time>
      </trkpt>
      <trkpt lat="45.02317" lon="6.45607">
        <ele>1706.2</ele>
        <time>2022-07-17T12:48:59Z</time>
      </trkpt>
      <trkpt lat="45.02307" lon="6.45621">
        <ele>1705.6</ele>
        <time>2022-07-17T12:49:00Z</time>
      </trkpt>
      <trkpt lat="45.02297" lon="6.45631">
        <ele>1705</ele>
        <time>2022-07-17T12:49:01Z</time>
      </trkpt>
      <trkpt lat="45.02285" lon="6.45642">
        <ele>1704.2</ele>
        <time>2022-07-17T12:49:02Z</time>
      </trkpt>
      <trkpt lat="45.02273" lon="6.45652">
        <ele>1703.4</ele>
        <time>2022-07-17T12:49:03Z</time>
      </trkpt>
      <trkpt lat="45.02262" lon="6.45663">
        <ele>1702.4</ele>
        <time>2022-07-17T12:49:04Z</time>
      </trkpt>
      <trkpt lat="45.02252" lon="6.45676">
        <ele>1701.8</ele>
        <time>2022-07-17T12:49:05Z</time>
      </trkpt>
      <trkpt lat="45.02241" lon="6.45688">
        <ele>1701</ele>
        <time>2022-07-17T12:49:06Z</time>
      </trkpt>
      <trkpt lat="45.02231" lon="6.45703">
        <ele>1700.2</ele>
        <time>2022-07-17T12:49:07Z</time>
      </trkpt>
      <trkpt lat="45.02222" lon="6.45717">
        <ele>1699.4</ele>
        <time>2022-07-17T12:49:08Z</time>
      </trkpt>
      <trkpt lat="45.02212" lon="6.45734">
        <ele>1698.6</ele>
        <time>2022-07-17T12:49:09Z</time>
      </trkpt>
      <trkpt lat="45.02203" lon="6.45751">
        <ele>1698</ele>
        <time>2022-07-17T12:49:10Z</time>
      </trkpt>
      <trkpt lat="45.02196" lon="6.45767">
        <ele>1697.2</ele>
        <time>2022-07-17T12:49:11Z</time>
      </trkpt>
      <trkpt lat="45.02189" lon="6.45786">
        <ele>1696.4</ele>
        <time>2022-07-17T12:49:12Z</time>
      </trkpt>
      <trkpt lat="45.02181" lon="6.45803">
        <ele>1695.6</ele>
        <time>2022-07-17T12:49:13Z</time>
      </trkpt>
      <trkpt lat="45.02175" lon="6.4582">
        <ele>1694.8</ele>
        <time>2022-07-17T12:49:14Z</time>
      </trkpt>
      <trkpt lat="45.02168" lon="6.45838">
        <ele>1694.2</ele>
        <time>2022-07-17T12:49:15Z</time>
      </trkpt>
      <trkpt lat="45.0216" lon="6.45854">
        <ele>1693.6</ele>
        <time>2022-07-17T12:49:16Z</time>
      </trkpt>
      <trkpt lat="45.02151" lon="6.45871">
        <ele>1692.8</ele>
        <time>2022-07-17T12:49:17Z</time>
      </trkpt>
      <trkpt lat="45.02142" lon="6.45886">
        <ele>1692</ele>
        <time>2022-07-17T12:49:18Z</time>
      </trkpt>
      <trkpt lat="45.02133" lon="6.45902">
        <ele>1691.4</ele>
        <time>2022-07-17T12:49:19Z</time>
      </trkpt>
      <trkpt lat="45.02125" lon="6.45918">
        <ele>1690.8</ele>
        <time>2022-07-17T12:49:20Z</time>
      </trkpt>
      <trkpt lat="45.02116" lon="6.45934">
        <ele>1690.2</ele>
        <time>2022-07-17T12:49:21Z</time>
      </trkpt>
      <trkpt lat="45.02108" lon="6.4595">
        <ele>1689.6</ele>
        <time>2022-07-17T12:49:22Z</time>
      </trkpt>
      <trkpt lat="45.021" lon="6.45966">
        <ele>1689</ele>
        <time>2022-07-17T12:49:23Z</time>
      </trkpt>
      <trkpt lat="45.02094" lon="6.45984">
        <ele>1688.2</ele>
        <time>2022-07-17T12:49:24Z</time>
      </trkpt>
      <trkpt lat="45.02087" lon="6.46002">
        <ele>1687.4</ele>
        <time>2022-07-17T12:49:25Z</time>
      </trkpt>
      <trkpt lat="45.02081" lon="6.4602">
        <ele>1686.6</ele>
        <time>2022-07-17T12:49:26Z</time>
      </trkpt>
      <trkpt lat="45.02074" lon="6.46038">
        <ele>1685.8</ele>
        <time>2022-07-17T12:49:27Z</time>
      </trkpt>
      <trkpt lat="45.02067" lon="6.46056">
        <ele>1685</ele>
        <time>2022-07-17T12:49:28Z</time>
      </trkpt>
      <trkpt lat="45.02061" lon="6.46074">
        <ele>1684.4</ele>
        <time>2022-07-17T12:49:29Z</time>
      </trkpt>
      <trkpt lat="45.02055" lon="6.46091">
        <ele>1683.6</ele>
        <time>2022-07-17T12:49:30Z</time>
      </trkpt>
      <trkpt lat="45.02048" lon="6.4611">
        <ele>1683</ele>
        <time>2022-07-17T12:49:31Z</time>
      </trkpt>
      <trkpt lat="45.02043" lon="6.46129">
        <ele>1682.6</ele>
        <time>2022-07-17T12:49:32Z</time>
      </trkpt>
      <trkpt lat="45.02039" lon="6.46149">
        <ele>1681.6</ele>
        <time>2022-07-17T12:49:33Z</time>
      </trkpt>
      <trkpt lat="45.02035" lon="6.46168">
        <ele>1680.6</ele>
        <time>2022-07-17T12:49:34Z</time>
      </trkpt>
      <trkpt lat="45.02031" lon="6.46188">
        <ele>1679.6</ele>
        <time>2022-07-17T12:49:35Z</time>
      </trkpt>
      <trkpt lat="45.02026" lon="6.46208">
        <ele>1678.8</ele>
        <time>2022-07-17T12:49:36Z</time>
      </trkpt>
      <trkpt lat="45.02018" lon="6.46226">
        <ele>1678</ele>
        <time>2022-07-17T12:49:37Z</time>
      </trkpt>
      <trkpt lat="45.02011" lon="6.46244">
        <ele>1677.6</ele>
        <time>2022-07-17T12:49:38Z</time>
      </trkpt>
      <trkpt lat="45.02003" lon="6.46262">
        <ele>1676.6</ele>
        <time>2022-07-17T12:49:39Z</time>
      </trkpt>
      <trkpt lat="45.01995" lon="6.4628">
        <ele>1675.6</ele>
        <time>2022-07-17T12:49:40Z</time>
      </trkpt>
      <trkpt lat="45.01986" lon="6.46297">
        <ele>1675</ele>
        <time>2022-07-17T12:49:41Z</time>
      </trkpt>
      <trkpt lat="45.01976" lon="6.46313">
        <ele>1674.4</ele>
        <time>2022-07-17T12:49:42Z</time>
      </trkpt>
      <trkpt lat="45.01964" lon="6.46327">
        <ele>1673.8</ele>
        <time>2022-07-17T12:49:43Z</time>
      </trkpt>
      <trkpt lat="45.01952" lon="6.46339">
        <ele>1672.8</ele>
        <time>2022-07-17T12:49:44Z</time>
      </trkpt>
      <trkpt lat="45.0194" lon="6.46351">
        <ele>1672</ele>
        <time>2022-07-17T12:49:45Z</time>
      </trkpt>
      <trkpt lat="45.01928" lon="6.46362">
        <ele>1671</ele>
        <time>2022-07-17T12:49:46Z</time>
      </trkpt>
      <trkpt lat="45.01917" lon="6.46374">
        <ele>1670.4</ele>
        <time>2022-07-17T12:49:47Z</time>
      </trkpt>
      <trkpt lat="45.01906" lon="6.46385">
        <ele>1669.6</ele>
        <time>2022-07-17T12:49:48Z</time>
      </trkpt>
      <trkpt lat="45.01898" lon="6.46398">
        <ele>1669</ele>
        <time>2022-07-17T12:49:49Z</time>
      </trkpt>
      <trkpt lat="45.01889" lon="6.46412">
        <ele>1668.2</ele>
        <time>2022-07-17T12:49:50Z</time>
      </trkpt>
      <trkpt lat="45.01881" lon="6.46426">
        <ele>1667.6</ele>
        <time>2022-07-17T12:49:51Z</time>
      </trkpt>
      <trkpt lat="45.01875" lon="6.46441">
        <ele>1667</ele>
        <time>2022-07-17T12:49:52Z</time>
      </trkpt>
      <trkpt lat="45.0187" lon="6.46457">
        <ele>1666.2</ele>
        <time>2022-07-17T12:49:53Z</time>
      </trkpt>
      <trkpt lat="45.01866" lon="6.46473">
        <ele>1665.6</ele>
        <time>2022-07-17T12:49:54Z</time>
      </trkpt>
      <trkpt lat="45.01864" lon="6.4649">
        <ele>1665.2</ele>
        <time>2022-07-17T12:49:55Z</time>
      </trkpt>
      <trkpt lat="45.01864" lon="6.46507">
        <ele>1664.2</ele>
        <time>2022-07-17T12:49:56Z</time>
      </trkpt>
      <trkpt lat="45.01864" lon="6.46524">
        <ele>1663.4</ele>
        <time>2022-07-17T12:49:57Z</time>
      </trkpt>
      <trkpt lat="45.01863" lon="6.4654">
        <ele>1662.8</ele>
        <time>2022-07-17T12:49:58Z</time>
      </trkpt>
      <trkpt lat="45.01859" lon="6.46552">
        <ele>1662.2</ele>
        <time>2022-07-17T12:49:59Z</time>
      </trkpt>
      <trkpt lat="45.01852" lon="6.46563">
        <ele>1661.8</ele>
        <time>2022-07-17T12:50:00Z</time>
      </trkpt>
      <trkpt lat="45.01843" lon="6.46573">
        <ele>1661.4</ele>
        <time>2022-07-17T12:50:01Z</time>
      </trkpt>
      <trkpt lat="45.01835" lon="6.46582">
        <ele>1661</ele>
        <time>2022-07-17T12:50:02Z</time>
      </trkpt>
      <trkpt lat="45.01827" lon="6.46589">
        <ele>1660.2</ele>
        <time>2022-07-17T12:50:03Z</time>
      </trkpt>
      <trkpt lat="45.01818" lon="6.46596">
        <ele>1659.4</ele>
        <time>2022-07-17T12:50:04Z</time>
      </trkpt>
      <trkpt lat="45.01809" lon="6.46603">
        <ele>1658.8</ele>
        <time>2022-07-17T12:50:05Z</time>
      </trkpt>
      <trkpt lat="45.018" lon="6.46607">
        <ele>1658.2</ele>
        <time>2022-07-17T12:50:06Z</time>
      </trkpt>
      <trkpt lat="45.0179" lon="6.46609">
        <ele>1657.8</ele>
        <time>2022-07-17T12:50:07Z</time>
      </trkpt>
      <trkpt lat="45.01781" lon="6.46606">
        <ele>1657.2</ele>
        <time>2022-07-17T12:50:08Z</time>
      </trkpt>
      <trkpt lat="45.01771" lon="6.466">
        <ele>1656.6</ele>
        <time>2022-07-17T12:50:09Z</time>
      </trkpt>
      <trkpt lat="45.01763" lon="6.46594">
        <ele>1656</ele>
        <time>2022-07-17T12:50:10Z</time>
      </trkpt>
      <trkpt lat="45.01754" lon="6.46586">
        <ele>1655.6</ele>
        <time>2022-07-17T12:50:11Z</time>
      </trkpt>
      <trkpt lat="45.01746" lon="6.46579">
        <ele>1654.8</ele>
        <time>2022-07-17T12:50:12Z</time>
      </trkpt>
      <trkpt lat="45.01737" lon="6.46573">
        <ele>1654.2</ele>
        <time>2022-07-17T12:50:13Z</time>
      </trkpt>
      <trkpt lat="45.01727" lon="6.46569">
        <ele>1653.4</ele>
        <time>2022-07-17T12:50:14Z</time>
      </trkpt>
      <trkpt lat="45.01718" lon="6.46563">
        <ele>1652.6</ele>
        <time>2022-07-17T12:50:15Z</time>
      </trkpt>
      <trkpt lat="45.01708" lon="6.46558">
        <ele>1651.8</ele>
        <time>2022-07-17T12:50:16Z</time>
      </trkpt>
      <trkpt lat="45.01697" lon="6.46557">
        <ele>1651.2</ele>
        <time>2022-07-17T12:50:17Z</time>
      </trkpt>
      <trkpt lat="45.01686" lon="6.46552">
        <ele>1650.6</ele>
        <time>2022-07-17T12:50:18Z</time>
      </trkpt>
      <trkpt lat="45.01676" lon="6.46547">
        <ele>1650.2</ele>
        <time>2022-07-17T12:50:19Z</time>
      </trkpt>
      <trkpt lat="45.01665" lon="6.46541">
        <ele>1649.6</ele>
        <time>2022-07-17T12:50:20Z</time>
      </trkpt>
      <trkpt lat="45.01655" lon="6.46536">
        <ele>1649.2</ele>
        <time>2022-07-17T12:50:21Z</time>
      </trkpt>
      <trkpt lat="45.01645" lon="6.46531">
        <ele>1648.6</ele>
        <time>2022-07-17T12:50:22Z</time>
      </trkpt>
      <trkpt lat="45.01635" lon="6.46527">
        <ele>1648</ele>
        <time>2022-07-17T12:50:23Z</time>
      </trkpt>
      <trkpt lat="45.01624" lon="6.46526">
        <ele>1647.4</ele>
        <time>2022-07-17T12:50:24Z</time>
      </trkpt>
      <trkpt lat="45.01612" lon="6.46527">
        <ele>1646.8</ele>
        <time>2022-07-17T12:50:25Z</time>
      </trkpt>
      <trkpt lat="45.016" lon="6.46529">
        <ele>1646.2</ele>
        <time>2022-07-17T12:50:26Z</time>
      </trkpt>
      <trkpt lat="45.01589" lon="6.46535">
        <ele>1645.6</ele>
        <time>2022-07-17T12:50:27Z</time>
      </trkpt>
      <trkpt lat="45.01578" lon="6.46541">
        <ele>1645</ele>
        <time>2022-07-17T12:50:28Z</time>
      </trkpt>
      <trkpt lat="45.01568" lon="6.4655">
        <ele>1644.4</ele>
        <time>2022-07-17T12:50:29Z</time>
      </trkpt>
      <trkpt lat="45.01559" lon="6.4656">
        <ele>1643.8</ele>
        <time>2022-07-17T12:50:30Z</time>
      </trkpt>
      <trkpt lat="45.0155" lon="6.46571">
        <ele>1643.2</ele>
        <time>2022-07-17T12:50:31Z</time>
      </trkpt>
      <trkpt lat="45.01541" lon="6.46583">
        <ele>1642.6</ele>
        <time>2022-07-17T12:50:32Z</time>
      </trkpt>
      <trkpt lat="45.01531" lon="6.46596">
        <ele>1642</ele>
        <time>2022-07-17T12:50:33Z</time>
      </trkpt>
      <trkpt lat="45.01522" lon="6.4661">
        <ele>1641.2</ele>
        <time>2022-07-17T12:50:34Z</time>
      </trkpt>
      <trkpt lat="45.01513" lon="6.46624">
        <ele>1640.6</ele>
        <time>2022-07-17T12:50:35Z</time>
      </trkpt>
      <trkpt lat="45.01503" lon="6.46639">
        <ele>1640</ele>
        <time>2022-07-17T12:50:36Z</time>
      </trkpt>
      <trkpt lat="45.01494" lon="6.46656">
        <ele>1639.2</ele>
        <time>2022-07-17T12:50:37Z</time>
      </trkpt>
      <trkpt lat="45.01486" lon="6.46672">
        <ele>1638.4</ele>
        <time>2022-07-17T12:50:38Z</time>
      </trkpt>
      <trkpt lat="45.01477" lon="6.46686">
        <ele>1637.6</ele>
        <time>2022-07-17T12:50:39Z</time>
      </trkpt>
      <trkpt lat="45.01466" lon="6.46699">
        <ele>1636.8</ele>
        <time>2022-07-17T12:50:40Z</time>
      </trkpt>
      <trkpt lat="45.01455" lon="6.46709">
        <ele>1636</ele>
        <time>2022-07-17T12:50:41Z</time>
      </trkpt>
      <trkpt lat="45.01442" lon="6.4672">
        <ele>1635.2</ele>
        <time>2022-07-17T12:50:42Z</time>
      </trkpt>
      <trkpt lat="45.01429" lon="6.46728">
        <ele>1634.6</ele>
        <time>2022-07-17T12:50:43Z</time>
      </trkpt>
      <trkpt lat="45.01415" lon="6.46737">
        <ele>1634.2</ele>
        <time>2022-07-17T12:50:44Z</time>
      </trkpt>
      <trkpt lat="45.01402" lon="6.46742">
        <ele>1633.8</ele>
        <time>2022-07-17T12:50:45Z</time>
      </trkpt>
      <trkpt lat="45.01388" lon="6.46745">
        <ele>1633.6</ele>
        <time>2022-07-17T12:50:46Z</time>
      </trkpt>
      <trkpt lat="45.01376" lon="6.46748">
        <ele>1633.2</ele>
        <time>2022-07-17T12:50:47Z</time>
      </trkpt>
      <trkpt lat="45.01363" lon="6.46749">
        <ele>1632.8</ele>
        <time>2022-07-17T12:50:48Z</time>
      </trkpt>
      <trkpt lat="45.0135" lon="6.46751">
        <ele>1632.4</ele>
        <time>2022-07-17T12:50:49Z</time>
      </trkpt>
      <trkpt lat="45.01337" lon="6.46755">
        <ele>1631.6</ele>
        <time>2022-07-17T12:50:50Z</time>
      </trkpt>
      <trkpt lat="45.01325" lon="6.46761">
        <ele>1631</ele>
        <time>2022-07-17T12:50:51Z</time>
      </trkpt>
      <trkpt lat="45.01313" lon="6.46768">
        <ele>1630.4</ele>
        <time>2022-07-17T12:50:52Z</time>
      </trkpt>
      <trkpt lat="45.01301" lon="6.46777">
        <ele>1630</ele>
        <time>2022-07-17T12:50:53Z</time>
      </trkpt>
      <trkpt lat="45.0129" lon="6.46786">
        <ele>1629.2</ele>
        <time>2022-07-17T12:50:54Z</time>
      </trkpt>
      <trkpt lat="45.0128" lon="6.46796">
        <ele>1628.6</ele>
        <time>2022-07-17T12:50:55Z</time>
      </trkpt>
      <trkpt lat="45.01271" lon="6.46807">
        <ele>1628</ele>
        <time>2022-07-17T12:50:56Z</time>
      </trkpt>
      <trkpt lat="45.01263" lon="6.46822">
        <ele>1627.4</ele>
        <time>2022-07-17T12:50:57Z</time>
      </trkpt>
      <trkpt lat="45.01254" lon="6.46836">
        <ele>1626.4</ele>
        <time>2022-07-17T12:50:58Z</time>
      </trkpt>
      <trkpt lat="45.01245" lon="6.4685">
        <ele>1625.6</ele>
        <time>2022-07-17T12:50:59Z</time>
      </trkpt>
      <trkpt lat="45.01236" lon="6.46863">
        <ele>1624.8</ele>
        <time>2022-07-17T12:51:00Z</time>
      </trkpt>
      <trkpt lat="45.01225" lon="6.46875">
        <ele>1624.8</ele>
        <time>2022-07-17T12:51:01Z</time>
      </trkpt>
      <trkpt lat="45.01213" lon="6.46886">
        <ele>1624</ele>
        <time>2022-07-17T12:51:02Z</time>
      </trkpt>
      <trkpt lat="45.01202" lon="6.46898">
        <ele>1623.2</ele>
        <time>2022-07-17T12:51:03Z</time>
      </trkpt>
      <trkpt lat="45.01192" lon="6.46908">
        <ele>1622.4</ele>
        <time>2022-07-17T12:51:04Z</time>
      </trkpt>
      <trkpt lat="45.0118" lon="6.46918">
        <ele>1621.8</ele>
        <time>2022-07-17T12:51:05Z</time>
      </trkpt>
      <trkpt lat="45.0117" lon="6.4693">
        <ele>1621.4</ele>
        <time>2022-07-17T12:51:06Z</time>
      </trkpt>
      <trkpt lat="45.01159" lon="6.46941">
        <ele>1620.6</ele>
        <time>2022-07-17T12:51:07Z</time>
      </trkpt>
      <trkpt lat="45.01147" lon="6.46952">
        <ele>1619.8</ele>
        <time>2022-07-17T12:51:08Z</time>
      </trkpt>
      <trkpt lat="45.01136" lon="6.46964">
        <ele>1619</ele>
        <time>2022-07-17T12:51:09Z</time>
      </trkpt>
      <trkpt lat="45.01124" lon="6.46976">
        <ele>1618.6</ele>
        <time>2022-07-17T12:51:10Z</time>
      </trkpt>
      <trkpt lat="45.01111" lon="6.46984">
        <ele>1617.8</ele>
        <time>2022-07-17T12:51:11Z</time>
      </trkpt>
      <trkpt lat="45.01099" lon="6.46994">
        <ele>1617.2</ele>
        <time>2022-07-17T12:51:12Z</time>
      </trkpt>
      <trkpt lat="45.01086" lon="6.47002">
        <ele>1616.6</ele>
        <time>2022-07-17T12:51:13Z</time>
      </trkpt>
      <trkpt lat="45.01073" lon="6.47011">
        <ele>1615.8</ele>
        <time>2022-07-17T12:51:14Z</time>
      </trkpt>
      <trkpt lat="45.01062" lon="6.47019">
        <ele>1614.8</ele>
        <time>2022-07-17T12:51:15Z</time>
      </trkpt>
      <trkpt lat="45.0105" lon="6.47028">
        <ele>1614</ele>
        <time>2022-07-17T12:51:16Z</time>
      </trkpt>
      <trkpt lat="45.01037" lon="6.47036">
        <ele>1613.4</ele>
        <time>2022-07-17T12:51:17Z</time>
      </trkpt>
      <trkpt lat="45.01023" lon="6.47043">
        <ele>1612.4</ele>
        <time>2022-07-17T12:51:18Z</time>
      </trkpt>
      <trkpt lat="45.01009" lon="6.47049">
        <ele>1611.6</ele>
        <time>2022-07-17T12:51:19Z</time>
      </trkpt>
      <trkpt lat="45.00996" lon="6.47054">
        <ele>1611.2</ele>
        <time>2022-07-17T12:51:20Z</time>
      </trkpt>
      <trkpt lat="45.00984" lon="6.47061">
        <ele>1610.4</ele>
        <time>2022-07-17T12:51:21Z</time>
      </trkpt>
      <trkpt lat="45.00971" lon="6.47067">
        <ele>1609.6</ele>
        <time>2022-07-17T12:51:22Z</time>
      </trkpt>
      <trkpt lat="45.0096" lon="6.47075">
        <ele>1609.2</ele>
        <time>2022-07-17T12:51:23Z</time>
      </trkpt>
      <trkpt lat="45.00949" lon="6.47083">
        <ele>1608.4</ele>
        <time>2022-07-17T12:51:24Z</time>
      </trkpt>
      <trkpt lat="45.00938" lon="6.47091">
        <ele>1607.8</ele>
        <time>2022-07-17T12:51:25Z</time>
      </trkpt>
      <trkpt lat="45.00925" lon="6.47097">
        <ele>1607.2</ele>
        <time>2022-07-17T12:51:26Z</time>
      </trkpt>
      <trkpt lat="45.00914" lon="6.47103">
        <ele>1606.6</ele>
        <time>2022-07-17T12:51:27Z</time>
      </trkpt>
      <trkpt lat="45.00902" lon="6.4711">
        <ele>1606.2</ele>
        <time>2022-07-17T12:51:28Z</time>
      </trkpt>
      <trkpt lat="45.0089" lon="6.47116">
        <ele>1605.6</ele>
        <time>2022-07-17T12:51:29Z</time>
      </trkpt>
      <trkpt lat="45.00878" lon="6.47125">
        <ele>1605.2</ele>
        <time>2022-07-17T12:51:30Z</time>
      </trkpt>
      <trkpt lat="45.00868" lon="6.47136">
        <ele>1604.4</ele>
        <time>2022-07-17T12:51:31Z</time>
      </trkpt>
      <trkpt lat="45.00859" lon="6.4715">
        <ele>1603.6</ele>
        <time>2022-07-17T12:51:32Z</time>
      </trkpt>
      <trkpt lat="45.0085" lon="6.47163">
        <ele>1603</ele>
        <time>2022-07-17T12:51:33Z</time>
      </trkpt>
      <trkpt lat="45.00841" lon="6.47177">
        <ele>1602.4</ele>
        <time>2022-07-17T12:51:34Z</time>
      </trkpt>
      <trkpt lat="45.00831" lon="6.4719">
        <ele>1601.6</ele>
        <time>2022-07-17T12:51:35Z</time>
      </trkpt>
      <trkpt lat="45.0082" lon="6.472">
        <ele>1601</ele>
        <time>2022-07-17T12:51:36Z</time>
      </trkpt>
      <trkpt lat="45.00808" lon="6.47208">
        <ele>1600.2</ele>
        <time>2022-07-17T12:51:37Z</time>
      </trkpt>
      <trkpt lat="45.00794" lon="6.47214">
        <ele>1599.6</ele>
        <time>2022-07-17T12:51:38Z</time>
      </trkpt>
      <trkpt lat="45.0078" lon="6.47218">
        <ele>1599.2</ele>
        <time>2022-07-17T12:51:39Z</time>
      </trkpt>
      <trkpt lat="45.00767" lon="6.47221">
        <ele>1598.4</ele>
        <time>2022-07-17T12:51:40Z</time>
      </trkpt>
      <trkpt lat="45.00753" lon="6.47226">
        <ele>1598</ele>
        <time>2022-07-17T12:51:41Z</time>
      </trkpt>
      <trkpt lat="45.0074" lon="6.47232">
        <ele>1597.4</ele>
        <time>2022-07-17T12:51:42Z</time>
      </trkpt>
      <trkpt lat="45.00727" lon="6.47238">
        <ele>1596.6</ele>
        <time>2022-07-17T12:51:43Z</time>
      </trkpt>
      <trkpt lat="45.00714" lon="6.47245">
        <ele>1595.8</ele>
        <time>2022-07-17T12:51:44Z</time>
      </trkpt>
      <trkpt lat="45.007" lon="6.47251">
        <ele>1595</ele>
        <time>2022-07-17T12:51:45Z</time>
      </trkpt>
      <trkpt lat="45.00686" lon="6.47256">
        <ele>1594.6</ele>
        <time>2022-07-17T12:51:46Z</time>
      </trkpt>
      <trkpt lat="45.00672" lon="6.47261">
        <ele>1593.8</ele>
        <time>2022-07-17T12:51:47Z</time>
      </trkpt>
      <trkpt lat="45.00658" lon="6.47266">
        <ele>1592.6</ele>
        <time>2022-07-17T12:51:48Z</time>
      </trkpt>
      <trkpt lat="45.00644" lon="6.47271">
        <ele>1592</ele>
        <time>2022-07-17T12:51:49Z</time>
      </trkpt>
      <trkpt lat="45.0063" lon="6.47274">
        <ele>1591.2</ele>
        <time>2022-07-17T12:51:50Z</time>
      </trkpt>
      <trkpt lat="45.00616" lon="6.47274">
        <ele>1590.4</ele>
        <time>2022-07-17T12:51:51Z</time>
      </trkpt>
      <trkpt lat="45.00602" lon="6.47273">
        <ele>1589.4</ele>
        <time>2022-07-17T12:51:52Z</time>
      </trkpt>
      <trkpt lat="45.00589" lon="6.4727">
        <ele>1588.6</ele>
        <time>2022-07-17T12:51:53Z</time>
      </trkpt>
      <trkpt lat="45.00575" lon="6.47266">
        <ele>1587.8</ele>
        <time>2022-07-17T12:51:54Z</time>
      </trkpt>
      <trkpt lat="45.00563" lon="6.47263">
        <ele>1587.2</ele>
        <time>2022-07-17T12:51:55Z</time>
      </trkpt>
      <trkpt lat="45.00551" lon="6.47262">
        <ele>1586.4</ele>
        <time>2022-07-17T12:51:56Z</time>
      </trkpt>
      <trkpt lat="45.0054" lon="6.47263">
        <ele>1585.8</ele>
        <time>2022-07-17T12:51:57Z</time>
      </trkpt>
      <trkpt lat="45.00528" lon="6.47267">
        <ele>1585</ele>
        <time>2022-07-17T12:51:58Z</time>
      </trkpt>
      <trkpt lat="45.00517" lon="6.47274">
        <ele>1584.6</ele>
        <time>2022-07-17T12:51:59Z</time>
      </trkpt>
      <trkpt lat="45.00507" lon="6.47283">
        <ele>1584</ele>
        <time>2022-07-17T12:52:00Z</time>
      </trkpt>
      <trkpt lat="45.00498" lon="6.47295">
        <ele>1583.4</ele>
        <time>2022-07-17T12:52:01Z</time>
      </trkpt>
      <trkpt lat="45.00488" lon="6.47307">
        <ele>1582.8</ele>
        <time>2022-07-17T12:52:02Z</time>
      </trkpt>
      <trkpt lat="45.00478" lon="6.4732">
        <ele>1582</ele>
        <time>2022-07-17T12:52:03Z</time>
      </trkpt>
      <trkpt lat="45.00468" lon="6.47332">
        <ele>1581.6</ele>
        <time>2022-07-17T12:52:04Z</time>
      </trkpt>
      <trkpt lat="45.00458" lon="6.47344">
        <ele>1581</ele>
        <time>2022-07-17T12:52:05Z</time>
      </trkpt>
      <trkpt lat="45.00447" lon="6.47355">
        <ele>1580.4</ele>
        <time>2022-07-17T12:52:06Z</time>
      </trkpt>
      <trkpt lat="45.00434" lon="6.47365">
        <ele>1579.8</ele>
        <time>2022-07-17T12:52:07Z</time>
      </trkpt>
      <trkpt lat="45.00421" lon="6.47373">
        <ele>1579.2</ele>
        <time>2022-07-17T12:52:08Z</time>
      </trkpt>
      <trkpt lat="45.00409" lon="6.47382">
        <ele>1578.6</ele>
        <time>2022-07-17T12:52:09Z</time>
      </trkpt>
      <trkpt lat="45.00396" lon="6.47392">
        <ele>1578.2</ele>
        <time>2022-07-17T12:52:10Z</time>
      </trkpt>
      <trkpt lat="45.00384" lon="6.47403">
        <ele>1577.6</ele>
        <time>2022-07-17T12:52:11Z</time>
      </trkpt>
      <trkpt lat="45.00373" lon="6.47415">
        <ele>1577</ele>
        <time>2022-07-17T12:52:12Z</time>
      </trkpt>
      <trkpt lat="45.00361" lon="6.47428">
        <ele>1576.4</ele>
        <time>2022-07-17T12:52:13Z</time>
      </trkpt>
      <trkpt lat="45.0035" lon="6.47441">
        <ele>1575.6</ele>
        <time>2022-07-17T12:52:14Z</time>
      </trkpt>
      <trkpt lat="45.00338" lon="6.47454">
        <ele>1575</ele>
        <time>2022-07-17T12:52:15Z</time>
      </trkpt>
      <trkpt lat="45.00327" lon="6.47467">
        <ele>1574</ele>
        <time>2022-07-17T12:52:16Z</time>
      </trkpt>
      <trkpt lat="45.00316" lon="6.4748">
        <ele>1573</ele>
        <time>2022-07-17T12:52:17Z</time>
      </trkpt>
      <trkpt lat="45.00305" lon="6.47494">
        <ele>1572.4</ele>
        <time>2022-07-17T12:52:18Z</time>
      </trkpt>
      <trkpt lat="45.00294" lon="6.47509">
        <ele>1571.6</ele>
        <time>2022-07-17T12:52:19Z</time>
      </trkpt>
      <trkpt lat="45.00283" lon="6.47524">
        <ele>1570.8</ele>
        <time>2022-07-17T12:52:20Z</time>
      </trkpt>
      <trkpt lat="45.00271" lon="6.47538">
        <ele>1570</ele>
        <time>2022-07-17T12:52:21Z</time>
      </trkpt>
      <trkpt lat="45.00258" lon="6.4755">
        <ele>1569.4</ele>
        <time>2022-07-17T12:52:22Z</time>
      </trkpt>
      <trkpt lat="45.00244" lon="6.47559">
        <ele>1568.6</ele>
        <time>2022-07-17T12:52:23Z</time>
      </trkpt>
      <trkpt lat="45.0023" lon="6.47568">
        <ele>1567.6</ele>
        <time>2022-07-17T12:52:24Z</time>
      </trkpt>
      <trkpt lat="45.00217" lon="6.47577">
        <ele>1566.8</ele>
        <time>2022-07-17T12:52:25Z</time>
      </trkpt>
      <trkpt lat="45.00203" lon="6.47586">
        <ele>1566.4</ele>
        <time>2022-07-17T12:52:26Z</time>
      </trkpt>
      <trkpt lat="45.00189" lon="6.47594">
        <ele>1565.6</ele>
        <time>2022-07-17T12:52:27Z</time>
      </trkpt>
      <trkpt lat="45.00176" lon="6.47603">
        <ele>1565</ele>
        <time>2022-07-17T12:52:28Z</time>
      </trkpt>
      <trkpt lat="45.00162" lon="6.47613">
        <ele>1564.2</ele>
        <time>2022-07-17T12:52:29Z</time>
      </trkpt>
      <trkpt lat="45.0015" lon="6.47623">
        <ele>1563.2</ele>
        <time>2022-07-17T12:52:30Z</time>
      </trkpt>
      <trkpt lat="45.00138" lon="6.47635">
        <ele>1562.4</ele>
        <time>2022-07-17T12:52:31Z</time>
      </trkpt>
      <trkpt lat="45.00126" lon="6.47647">
        <ele>1561.6</ele>
        <time>2022-07-17T12:52:32Z</time>
      </trkpt>
      <trkpt lat="45.00114" lon="6.47659">
        <ele>1560.8</ele>
        <time>2022-07-17T12:52:33Z</time>
      </trkpt>
      <trkpt lat="45.00102" lon="6.4767">
        <ele>1560</ele>
        <time>2022-07-17T12:52:34Z</time>
      </trkpt>
      <trkpt lat="45.00089" lon="6.47679">
        <ele>1559</ele>
        <time>2022-07-17T12:52:35Z</time>
      </trkpt>
      <trkpt lat="45.00076" lon="6.47684">
        <ele>1558.2</ele>
        <time>2022-07-17T12:52:36Z</time>
      </trkpt>
      <trkpt lat="45.00061" lon="6.47686">
        <ele>1557.8</ele>
        <time>2022-07-17T12:52:37Z</time>
      </trkpt>
      <trkpt lat="45.00047" lon="6.47688">
        <ele>1557</ele>
        <time>2022-07-17T12:52:38Z</time>
      </trkpt>
      <trkpt lat="45.00033" lon="6.47688">
        <ele>1556.6</ele>
        <time>2022-07-17T12:52:39Z</time>
      </trkpt>
      <trkpt lat="45.00019" lon="6.47689">
        <ele>1555.6</ele>
        <time>2022-07-17T12:52:40Z</time>
      </trkpt>
      <trkpt lat="45.00005" lon="6.4769">
        <ele>1554.6</ele>
        <time>2022-07-17T12:52:41Z</time>
      </trkpt>
      <trkpt lat="44.9999" lon="6.47692">
        <ele>1553.6</ele>
        <time>2022-07-17T12:52:42Z</time>
      </trkpt>
      <trkpt lat="44.99976" lon="6.47696">
        <ele>1552.8</ele>
        <time>2022-07-17T12:52:43Z</time>
      </trkpt>
      <trkpt lat="44.99962" lon="6.47701">
        <ele>1552</ele>
        <time>2022-07-17T12:52:44Z</time>
      </trkpt>
      <trkpt lat="44.99935" lon="6.47713">
        <ele>1551.2</ele>
        <time>2022-07-17T12:52:45Z</time>
      </trkpt>
      <trkpt lat="44.99922" lon="6.4772">
        <ele>1550</ele>
        <time>2022-07-17T12:52:47Z</time>
      </trkpt>
      <trkpt lat="44.99909" lon="6.47729">
        <ele>1549.4</ele>
        <time>2022-07-17T12:52:48Z</time>
      </trkpt>
      <trkpt lat="44.99896" lon="6.47738">
        <ele>1549</ele>
        <time>2022-07-17T12:52:49Z</time>
      </trkpt>
      <trkpt lat="44.99884" lon="6.47749">
        <ele>1548.4</ele>
        <time>2022-07-17T12:52:50Z</time>
      </trkpt>
      <trkpt lat="44.99871" lon="6.47759">
        <ele>1547.6</ele>
        <time>2022-07-17T12:52:51Z</time>
      </trkpt>
      <trkpt lat="44.99858" lon="6.47768">
        <ele>1546.6</ele>
        <time>2022-07-17T12:52:52Z</time>
      </trkpt>
      <trkpt lat="44.99845" lon="6.47776">
        <ele>1545.6</ele>
        <time>2022-07-17T12:52:53Z</time>
      </trkpt>
      <trkpt lat="44.99831" lon="6.47781">
        <ele>1544.8</ele>
        <time>2022-07-17T12:52:54Z</time>
      </trkpt>
      <trkpt lat="44.99818" lon="6.47785">
        <ele>1544.2</ele>
        <time>2022-07-17T12:52:55Z</time>
      </trkpt>
      <trkpt lat="44.99804" lon="6.47788">
        <ele>1543.8</ele>
        <time>2022-07-17T12:52:56Z</time>
      </trkpt>
      <trkpt lat="44.99792" lon="6.47793">
        <ele>1543.2</ele>
        <time>2022-07-17T12:52:57Z</time>
      </trkpt>
      <trkpt lat="44.99781" lon="6.47801">
        <ele>1542.6</ele>
        <time>2022-07-17T12:52:58Z</time>
      </trkpt>
      <trkpt lat="44.9977" lon="6.47811">
        <ele>1542.2</ele>
        <time>2022-07-17T12:52:59Z</time>
      </trkpt>
      <trkpt lat="44.9976" lon="6.47823">
        <ele>1541.6</ele>
        <time>2022-07-17T12:53:00Z</time>
      </trkpt>
      <trkpt lat="44.99749" lon="6.47834">
        <ele>1541.2</ele>
        <time>2022-07-17T12:53:01Z</time>
      </trkpt>
      <trkpt lat="44.99738" lon="6.47844">
        <ele>1540.8</ele>
        <time>2022-07-17T12:53:02Z</time>
      </trkpt>
      <trkpt lat="44.99726" lon="6.47853">
        <ele>1540.4</ele>
        <time>2022-07-17T12:53:03Z</time>
      </trkpt>
      <trkpt lat="44.99713" lon="6.47859">
        <ele>1539.8</ele>
        <time>2022-07-17T12:53:04Z</time>
      </trkpt>
      <trkpt lat="44.997" lon="6.47863">
        <ele>1539.4</ele>
        <time>2022-07-17T12:53:05Z</time>
      </trkpt>
      <trkpt lat="44.99687" lon="6.47865">
        <ele>1539.2</ele>
        <time>2022-07-17T12:53:06Z</time>
      </trkpt>
      <trkpt lat="44.99674" lon="6.47867">
        <ele>1538</ele>
        <time>2022-07-17T12:53:07Z</time>
      </trkpt>
      <trkpt lat="44.99662" lon="6.47868">
        <ele>1537.6</ele>
        <time>2022-07-17T12:53:08Z</time>
      </trkpt>
      <trkpt lat="44.9965" lon="6.47869">
        <ele>1537.2</ele>
        <time>2022-07-17T12:53:09Z</time>
      </trkpt>
      <trkpt lat="44.99639" lon="6.47872">
        <ele>1537</ele>
        <time>2022-07-17T12:53:10Z</time>
      </trkpt>
      <trkpt lat="44.99629" lon="6.47877">
        <ele>1537</ele>
        <time>2022-07-17T12:53:11Z</time>
      </trkpt>
      <trkpt lat="44.99619" lon="6.47885">
        <ele>1536.6</ele>
        <time>2022-07-17T12:53:12Z</time>
      </trkpt>
      <trkpt lat="44.99611" lon="6.47894">
        <ele>1536.6</ele>
        <time>2022-07-17T12:53:13Z</time>
      </trkpt>
      <trkpt lat="44.99604" lon="6.47905">
        <ele>1536.2</ele>
        <time>2022-07-17T12:53:14Z</time>
      </trkpt>
      <trkpt lat="44.99596" lon="6.47917">
        <ele>1535.8</ele>
        <time>2022-07-17T12:53:15Z</time>
      </trkpt>
      <trkpt lat="44.99588" lon="6.47928">
        <ele>1535.6</ele>
        <time>2022-07-17T12:53:16Z</time>
      </trkpt>
      <trkpt lat="44.9958" lon="6.4794">
        <ele>1535.4</ele>
        <time>2022-07-17T12:53:17Z</time>
      </trkpt>
      <trkpt lat="44.99572" lon="6.47951">
        <ele>1535.2</ele>
        <time>2022-07-17T12:53:18Z</time>
      </trkpt>
      <trkpt lat="44.99564" lon="6.47961">
        <ele>1534.8</ele>
        <time>2022-07-17T12:53:19Z</time>
      </trkpt>
      <trkpt lat="44.99555" lon="6.47969">
        <ele>1534.4</ele>
        <time>2022-07-17T12:53:20Z</time>
      </trkpt>
      <trkpt lat="44.99547" lon="6.47978">
        <ele>1533.8</ele>
        <time>2022-07-17T12:53:21Z</time>
      </trkpt>
      <trkpt lat="44.99538" lon="6.47985">
        <ele>1533.6</ele>
        <time>2022-07-17T12:53:22Z</time>
      </trkpt>
      <trkpt lat="44.99529" lon="6.47992">
        <ele>1533.2</ele>
        <time>2022-07-17T12:53:23Z</time>
      </trkpt>
      <trkpt lat="44.99519" lon="6.47999">
        <ele>1533</ele>
        <time>2022-07-17T12:53:24Z</time>
      </trkpt>
      <trkpt lat="44.99509" lon="6.48006">
        <ele>1533</ele>
        <time>2022-07-17T12:53:25Z</time>
      </trkpt>
      <trkpt lat="44.99499" lon="6.48012">
        <ele>1532.6</ele>
        <time>2022-07-17T12:53:26Z</time>
      </trkpt>
      <trkpt lat="44.9949" lon="6.48019">
        <ele>1532.2</ele>
        <time>2022-07-17T12:53:27Z</time>
      </trkpt>
      <trkpt lat="44.99479" lon="6.48025">
        <ele>1532</ele>
        <time>2022-07-17T12:53:28Z</time>
      </trkpt>
      <trkpt lat="44.99469" lon="6.48031">
        <ele>1531.8</ele>
        <time>2022-07-17T12:53:29Z</time>
      </trkpt>
      <trkpt lat="44.99458" lon="6.48037">
        <ele>1531.6</ele>
        <time>2022-07-17T12:53:30Z</time>
      </trkpt>
      <trkpt lat="44.99447" lon="6.48043">
        <ele>1531</ele>
        <time>2022-07-17T12:53:31Z</time>
      </trkpt>
      <trkpt lat="44.99437" lon="6.4805">
        <ele>1530.6</ele>
        <time>2022-07-17T12:53:32Z</time>
      </trkpt>
      <trkpt lat="44.99427" lon="6.48058">
        <ele>1530.4</ele>
        <time>2022-07-17T12:53:33Z</time>
      </trkpt>
      <trkpt lat="44.99418" lon="6.48065">
        <ele>1530</ele>
        <time>2022-07-17T12:53:34Z</time>
      </trkpt>
      <trkpt lat="44.99408" lon="6.48074">
        <ele>1529.6</ele>
        <time>2022-07-17T12:53:35Z</time>
      </trkpt>
      <trkpt lat="44.99398" lon="6.48081">
        <ele>1529.4</ele>
        <time>2022-07-17T12:53:36Z</time>
      </trkpt>
      <trkpt lat="44.99388" lon="6.48089">
        <ele>1529.2</ele>
        <time>2022-07-17T12:53:37Z</time>
      </trkpt>
      <trkpt lat="44.99378" lon="6.48097">
        <ele>1528.8</ele>
        <time>2022-07-17T12:53:38Z</time>
      </trkpt>
      <trkpt lat="44.99367" lon="6.48104">
        <ele>1528.6</ele>
        <time>2022-07-17T12:53:39Z</time>
      </trkpt>
      <trkpt lat="44.99356" lon="6.48111">
        <ele>1528.4</ele>
        <time>2022-07-17T12:53:40Z</time>
      </trkpt>
      <trkpt lat="44.99345" lon="6.48119">
        <ele>1528.4</ele>
        <time>2022-07-17T12:53:41Z</time>
      </trkpt>
      <trkpt lat="44.99336" lon="6.48128">
        <ele>1528</ele>
        <time>2022-07-17T12:53:42Z</time>
      </trkpt>
      <trkpt lat="44.99328" lon="6.48138">
        <ele>1527.8</ele>
        <time>2022-07-17T12:53:43Z</time>
      </trkpt>
      <trkpt lat="44.9932" lon="6.48149">
        <ele>1527.8</ele>
        <time>2022-07-17T12:53:44Z</time>
      </trkpt>
      <trkpt lat="44.99313" lon="6.48161">
        <ele>1527.4</ele>
        <time>2022-07-17T12:53:45Z</time>
      </trkpt>
      <trkpt lat="44.99304" lon="6.48174">
        <ele>1527</ele>
        <time>2022-07-17T12:53:46Z</time>
      </trkpt>
      <trkpt lat="44.99296" lon="6.48183">
        <ele>1526.8</ele>
        <time>2022-07-17T12:53:47Z</time>
      </trkpt>
      <trkpt lat="44.99286" lon="6.48192">
        <ele>1526.6</ele>
        <time>2022-07-17T12:53:48Z</time>
      </trkpt>
      <trkpt lat="44.99277" lon="6.48201">
        <ele>1526.4</ele>
        <time>2022-07-17T12:53:49Z</time>
      </trkpt>
      <trkpt lat="44.99267" lon="6.48211">
        <ele>1526</ele>
        <time>2022-07-17T12:53:50Z</time>
      </trkpt>
      <trkpt lat="44.99259" lon="6.48221">
        <ele>1525.8</ele>
        <time>2022-07-17T12:53:51Z</time>
      </trkpt>
      <trkpt lat="44.99251" lon="6.48233">
        <ele>1525.4</ele>
        <time>2022-07-17T12:53:52Z</time>
      </trkpt>
      <trkpt lat="44.99243" lon="6.48246">
        <ele>1525.2</ele>
        <time>2022-07-17T12:53:53Z</time>
      </trkpt>
      <trkpt lat="44.99237" lon="6.4826">
        <ele>1524.8</ele>
        <time>2022-07-17T12:53:54Z</time>
      </trkpt>
      <trkpt lat="44.99231" lon="6.48273">
        <ele>1524.6</ele>
        <time>2022-07-17T12:53:55Z</time>
      </trkpt>
      <trkpt lat="44.99226" lon="6.48287">
        <ele>1524.4</ele>
        <time>2022-07-17T12:53:56Z</time>
      </trkpt>
      <trkpt lat="44.99221" lon="6.48302">
        <ele>1524</ele>
        <time>2022-07-17T12:53:57Z</time>
      </trkpt>
      <trkpt lat="44.99216" lon="6.48317">
        <ele>1523.6</ele>
        <time>2022-07-17T12:53:58Z</time>
      </trkpt>
      <trkpt lat="44.9921" lon="6.48331">
        <ele>1523.2</ele>
        <time>2022-07-17T12:53:59Z</time>
      </trkpt>
      <trkpt lat="44.99203" lon="6.48344">
        <ele>1523.2</ele>
        <time>2022-07-17T12:54:00Z</time>
      </trkpt>
      <trkpt lat="44.99197" lon="6.48357">
        <ele>1522.8</ele>
        <time>2022-07-17T12:54:01Z</time>
      </trkpt>
      <trkpt lat="44.9919" lon="6.4837">
        <ele>1522.8</ele>
        <time>2022-07-17T12:54:02Z</time>
      </trkpt>
      <trkpt lat="44.99184" lon="6.48383">
        <ele>1522.4</ele>
        <time>2022-07-17T12:54:03Z</time>
      </trkpt>
      <trkpt lat="44.99178" lon="6.48397">
        <ele>1522</ele>
        <time>2022-07-17T12:54:04Z</time>
      </trkpt>
      <trkpt lat="44.99172" lon="6.4841">
        <ele>1521.6</ele>
        <time>2022-07-17T12:54:05Z</time>
      </trkpt>
      <trkpt lat="44.99166" lon="6.48423">
        <ele>1521.4</ele>
        <time>2022-07-17T12:54:06Z</time>
      </trkpt>
      <trkpt lat="44.99159" lon="6.48437">
        <ele>1521</ele>
        <time>2022-07-17T12:54:07Z</time>
      </trkpt>
      <trkpt lat="44.99152" lon="6.48449">
        <ele>1520.8</ele>
        <time>2022-07-17T12:54:08Z</time>
      </trkpt>
      <trkpt lat="44.99144" lon="6.4846">
        <ele>1520.4</ele>
        <time>2022-07-17T12:54:09Z</time>
      </trkpt>
      <trkpt lat="44.99136" lon="6.4847">
        <ele>1520</ele>
        <time>2022-07-17T12:54:10Z</time>
      </trkpt>
      <trkpt lat="44.99128" lon="6.48481">
        <ele>1519.6</ele>
        <time>2022-07-17T12:54:11Z</time>
      </trkpt>
      <trkpt lat="44.9912" lon="6.48492">
        <ele>1519.6</ele>
        <time>2022-07-17T12:54:12Z</time>
      </trkpt>
      <trkpt lat="44.99113" lon="6.48503">
        <ele>1519.2</ele>
        <time>2022-07-17T12:54:13Z</time>
      </trkpt>
      <trkpt lat="44.99106" lon="6.48515">
        <ele>1518.8</ele>
        <time>2022-07-17T12:54:14Z</time>
      </trkpt>
      <trkpt lat="44.99098" lon="6.48526">
        <ele>1518.4</ele>
        <time>2022-07-17T12:54:15Z</time>
      </trkpt>
      <trkpt lat="44.99091" lon="6.48536">
        <ele>1518</ele>
        <time>2022-07-17T12:54:16Z</time>
      </trkpt>
      <trkpt lat="44.99083" lon="6.48547">
        <ele>1518</ele>
        <time>2022-07-17T12:54:17Z</time>
      </trkpt>
      <trkpt lat="44.99077" lon="6.48556">
        <ele>1517.4</ele>
        <time>2022-07-17T12:54:18Z</time>
      </trkpt>
      <trkpt lat="44.9907" lon="6.48567">
        <ele>1517.2</ele>
        <time>2022-07-17T12:54:19Z</time>
      </trkpt>
      <trkpt lat="44.99062" lon="6.48576">
        <ele>1517.2</ele>
        <time>2022-07-17T12:54:20Z</time>
      </trkpt>
      <trkpt lat="44.99054" lon="6.48586">
        <ele>1516.8</ele>
        <time>2022-07-17T12:54:21Z</time>
      </trkpt>
      <trkpt lat="44.99046" lon="6.48597">
        <ele>1516.8</ele>
        <time>2022-07-17T12:54:22Z</time>
      </trkpt>
      <trkpt lat="44.9904" lon="6.48608">
        <ele>1516.4</ele>
        <time>2022-07-17T12:54:23Z</time>
      </trkpt>
      <trkpt lat="44.99033" lon="6.4862">
        <ele>1516</ele>
        <time>2022-07-17T12:54:24Z</time>
      </trkpt>
      <trkpt lat="44.99027" lon="6.48632">
        <ele>1515.8</ele>
        <time>2022-07-17T12:54:25Z</time>
      </trkpt>
      <trkpt lat="44.9902" lon="6.48644">
        <ele>1515.4</ele>
        <time>2022-07-17T12:54:26Z</time>
      </trkpt>
      <trkpt lat="44.99014" lon="6.48656">
        <ele>1515.2</ele>
        <time>2022-07-17T12:54:27Z</time>
      </trkpt>
      <trkpt lat="44.99007" lon="6.48668">
        <ele>1514.8</ele>
        <time>2022-07-17T12:54:28Z</time>
      </trkpt>
      <trkpt lat="44.99" lon="6.4868">
        <ele>1514.4</ele>
        <time>2022-07-17T12:54:29Z</time>
      </trkpt>
      <trkpt lat="44.98994" lon="6.48691">
        <ele>1514.2</ele>
        <time>2022-07-17T12:54:30Z</time>
      </trkpt>
      <trkpt lat="44.98988" lon="6.48704">
        <ele>1513.8</ele>
        <time>2022-07-17T12:54:31Z</time>
      </trkpt>
      <trkpt lat="44.98982" lon="6.48715">
        <ele>1513.8</ele>
        <time>2022-07-17T12:54:32Z</time>
      </trkpt>
      <trkpt lat="44.98976" lon="6.48726">
        <ele>1513.4</ele>
        <time>2022-07-17T12:54:33Z</time>
      </trkpt>
      <trkpt lat="44.9897" lon="6.48738">
        <ele>1513</ele>
        <time>2022-07-17T12:54:34Z</time>
      </trkpt>
      <trkpt lat="44.98964" lon="6.48749">
        <ele>1512.8</ele>
        <time>2022-07-17T12:54:35Z</time>
      </trkpt>
      <trkpt lat="44.98958" lon="6.4876">
        <ele>1512.4</ele>
        <time>2022-07-17T12:54:36Z</time>
      </trkpt>
      <trkpt lat="44.98952" lon="6.48771">
        <ele>1512.4</ele>
        <time>2022-07-17T12:54:37Z</time>
      </trkpt>
      <trkpt lat="44.98946" lon="6.48782">
        <ele>1512</ele>
        <time>2022-07-17T12:54:38Z</time>
      </trkpt>
      <trkpt lat="44.9894" lon="6.48794">
        <ele>1512</ele>
        <time>2022-07-17T12:54:39Z</time>
      </trkpt>
      <trkpt lat="44.98934" lon="6.48805">
        <ele>1511.6</ele>
        <time>2022-07-17T12:54:40Z</time>
      </trkpt>
      <trkpt lat="44.98928" lon="6.48817">
        <ele>1511.2</ele>
        <time>2022-07-17T12:54:41Z</time>
      </trkpt>
      <trkpt lat="44.98922" lon="6.48828">
        <ele>1510.8</ele>
        <time>2022-07-17T12:54:42Z</time>
      </trkpt>
      <trkpt lat="44.98917" lon="6.4884">
        <ele>1510.4</ele>
        <time>2022-07-17T12:54:43Z</time>
      </trkpt>
      <trkpt lat="44.98911" lon="6.48851">
        <ele>1510</ele>
        <time>2022-07-17T12:54:44Z</time>
      </trkpt>
      <trkpt lat="44.98906" lon="6.48861">
        <ele>1509.8</ele>
        <time>2022-07-17T12:54:45Z</time>
      </trkpt>
      <trkpt lat="44.98901" lon="6.48871">
        <ele>1509.6</ele>
        <time>2022-07-17T12:54:46Z</time>
      </trkpt>
      <trkpt lat="44.98897" lon="6.48879">
        <ele>1509.2</ele>
        <time>2022-07-17T12:54:47Z</time>
      </trkpt>
      <trkpt lat="44.98893" lon="6.48887">
        <ele>1509.2</ele>
        <time>2022-07-17T12:54:48Z</time>
      </trkpt>
      <trkpt lat="44.9889" lon="6.48893">
        <ele>1508.8</ele>
        <time>2022-07-17T12:54:49Z</time>
      </trkpt>
      <trkpt lat="44.98888" lon="6.48898">
        <ele>1508.6</ele>
        <time>2022-07-17T12:54:50Z</time>
      </trkpt>
      <trkpt lat="44.98887" lon="6.48901">
        <ele>1508.6</ele>
        <time>2022-07-17T12:54:51Z</time>
      </trkpt>
      <trkpt lat="44.98886" lon="6.48904">
        <ele>1508.2</ele>
        <time>2022-07-17T12:54:52Z</time>
      </trkpt>
      <trkpt lat="44.98885" lon="6.48905">
        <ele>1508.2</ele>
        <time>2022-07-17T12:54:53Z</time>
      </trkpt>
      <trkpt lat="44.98885" lon="6.48906">
        <ele>1508</ele>
        <time>2022-07-17T12:54:54Z</time>
      </trkpt>
      <trkpt lat="44.98885" lon="6.48909">
        <ele>1507.4</ele>
        <time>2022-07-17T12:57:00Z</time>
      </trkpt>
      <trkpt lat="44.98883" lon="6.48914">
        <ele>1507.4</ele>
        <time>2022-07-17T12:57:01Z</time>
      </trkpt>
      <trkpt lat="44.98882" lon="6.48918">
        <ele>1507.4</ele>
        <time>2022-07-17T12:57:02Z</time>
      </trkpt>
      <trkpt lat="44.98881" lon="6.48922">
        <ele>1507.4</ele>
        <time>2022-07-17T12:57:03Z</time>
      </trkpt>
      <trkpt lat="44.98879" lon="6.48927">
        <ele>1507.2</ele>
        <time>2022-07-17T12:57:04Z</time>
      </trkpt>
      <trkpt lat="44.98878" lon="6.48932">
        <ele>1507.2</ele>
        <time>2022-07-17T12:57:05Z</time>
      </trkpt>
      <trkpt lat="44.98877" lon="6.48938">
        <ele>1507.2</ele>
        <time>2022-07-17T12:57:06Z</time>
      </trkpt>
      <trkpt lat="44.98875" lon="6.48944">
        <ele>1506.8</ele>
        <time>2022-07-17T12:57:07Z</time>
      </trkpt>
      <trkpt lat="44.98873" lon="6.4895">
        <ele>1506.8</ele>
        <time>2022-07-17T12:57:08Z</time>
      </trkpt>
      <trkpt lat="44.98871" lon="6.48957">
        <ele>1506.6</ele>
        <time>2022-07-17T12:57:09Z</time>
      </trkpt>
      <trkpt lat="44.9887" lon="6.48964">
        <ele>1506.6</ele>
        <time>2022-07-17T12:57:10Z</time>
      </trkpt>
      <trkpt lat="44.98868" lon="6.48971">
        <ele>1506.6</ele>
        <time>2022-07-17T12:57:11Z</time>
      </trkpt>
      <trkpt lat="44.98866" lon="6.48978">
        <ele>1506.6</ele>
        <time>2022-07-17T12:57:12Z</time>
      </trkpt>
      <trkpt lat="44.98864" lon="6.48986">
        <ele>1506.4</ele>
        <time>2022-07-17T12:57:13Z</time>
      </trkpt>
      <trkpt lat="44.98861" lon="6.48994">
        <ele>1506.4</ele>
        <time>2022-07-17T12:57:14Z</time>
      </trkpt>
      <trkpt lat="44.98859" lon="6.49002">
        <ele>1506</ele>
        <time>2022-07-17T12:57:15Z</time>
      </trkpt>
      <trkpt lat="44.98856" lon="6.49011">
        <ele>1505.8</ele>
        <time>2022-07-17T12:57:16Z</time>
      </trkpt>
      <trkpt lat="44.98852" lon="6.49019">
        <ele>1505.4</ele>
        <time>2022-07-17T12:57:17Z</time>
      </trkpt>
      <trkpt lat="44.98848" lon="6.49027">
        <ele>1505.2</ele>
        <time>2022-07-17T12:57:18Z</time>
      </trkpt>
      <trkpt lat="44.98843" lon="6.49035">
        <ele>1505.2</ele>
        <time>2022-07-17T12:57:19Z</time>
      </trkpt>
      <trkpt lat="44.98838" lon="6.49042">
        <ele>1504.8</ele>
        <time>2022-07-17T12:57:20Z</time>
      </trkpt>
      <trkpt lat="44.98832" lon="6.49049">
        <ele>1504.8</ele>
        <time>2022-07-17T12:57:21Z</time>
      </trkpt>
      <trkpt lat="44.98826" lon="6.49055">
        <ele>1504.6</ele>
        <time>2022-07-17T12:57:22Z</time>
      </trkpt>
      <trkpt lat="44.9882" lon="6.49062">
        <ele>1504.6</ele>
        <time>2022-07-17T12:57:23Z</time>
      </trkpt>
      <trkpt lat="44.98814" lon="6.49068">
        <ele>1504.6</ele>
        <time>2022-07-17T12:57:24Z</time>
      </trkpt>
      <trkpt lat="44.98808" lon="6.49075">
        <ele>1504.2</ele>
        <time>2022-07-17T12:57:25Z</time>
      </trkpt>
      <trkpt lat="44.98802" lon="6.49082">
        <ele>1504.2</ele>
        <time>2022-07-17T12:57:26Z</time>
      </trkpt>
      <trkpt lat="44.98795" lon="6.49089">
        <ele>1504</ele>
        <time>2022-07-17T12:57:27Z</time>
      </trkpt>
      <trkpt lat="44.98789" lon="6.49096">
        <ele>1504</ele>
        <time>2022-07-17T12:57:28Z</time>
      </trkpt>
      <trkpt lat="44.98783" lon="6.49104">
        <ele>1503.8</ele>
        <time>2022-07-17T12:57:29Z</time>
      </trkpt>
      <trkpt lat="44.98777" lon="6.49112">
        <ele>1503.6</ele>
        <time>2022-07-17T12:57:30Z</time>
      </trkpt>
      <trkpt lat="44.98772" lon="6.49121">
        <ele>1503.6</ele>
        <time>2022-07-17T12:57:31Z</time>
      </trkpt>
      <trkpt lat="44.98766" lon="6.49131">
        <ele>1503.2</ele>
        <time>2022-07-17T12:57:32Z</time>
      </trkpt>
      <trkpt lat="44.9876" lon="6.49139">
        <ele>1503.2</ele>
        <time>2022-07-17T12:57:33Z</time>
      </trkpt>
      <trkpt lat="44.98753" lon="6.49148">
        <ele>1502.8</ele>
        <time>2022-07-17T12:57:34Z</time>
      </trkpt>
      <trkpt lat="44.98746" lon="6.49156">
        <ele>1502.4</ele>
        <time>2022-07-17T12:57:35Z</time>
      </trkpt>
      <trkpt lat="44.98739" lon="6.49163">
        <ele>1502.2</ele>
        <time>2022-07-17T12:57:36Z</time>
      </trkpt>
      <trkpt lat="44.98732" lon="6.4917">
        <ele>1502.2</ele>
        <time>2022-07-17T12:57:37Z</time>
      </trkpt>
      <trkpt lat="44.98725" lon="6.49178">
        <ele>1502</ele>
        <time>2022-07-17T12:57:38Z</time>
      </trkpt>
      <trkpt lat="44.98717" lon="6.49187">
        <ele>1501.6</ele>
        <time>2022-07-17T12:57:39Z</time>
      </trkpt>
      <trkpt lat="44.98711" lon="6.49196">
        <ele>1501.4</ele>
        <time>2022-07-17T12:57:40Z</time>
      </trkpt>
      <trkpt lat="44.98705" lon="6.49208">
        <ele>1501.2</ele>
        <time>2022-07-17T12:57:41Z</time>
      </trkpt>
      <trkpt lat="44.987" lon="6.4922">
        <ele>1501</ele>
        <time>2022-07-17T12:57:42Z</time>
      </trkpt>
      <trkpt lat="44.98696" lon="6.49234">
        <ele>1500.6</ele>
        <time>2022-07-17T12:57:43Z</time>
      </trkpt>
      <trkpt lat="44.98692" lon="6.49247">
        <ele>1500.6</ele>
        <time>2022-07-17T12:57:44Z</time>
      </trkpt>
      <trkpt lat="44.98689" lon="6.49261">
        <ele>1500.4</ele>
        <time>2022-07-17T12:57:45Z</time>
      </trkpt>
      <trkpt lat="44.98685" lon="6.49274">
        <ele>1500</ele>
        <time>2022-07-17T12:57:46Z</time>
      </trkpt>
      <trkpt lat="44.98682" lon="6.49287">
        <ele>1500</ele>
        <time>2022-07-17T12:57:47Z</time>
      </trkpt>
      <trkpt lat="44.98678" lon="6.49301">
        <ele>1499.6</ele>
        <time>2022-07-17T12:57:48Z</time>
      </trkpt>
      <trkpt lat="44.98674" lon="6.49316">
        <ele>1499.4</ele>
        <time>2022-07-17T12:57:49Z</time>
      </trkpt>
      <trkpt lat="44.9867" lon="6.49329">
        <ele>1499</ele>
        <time>2022-07-17T12:57:50Z</time>
      </trkpt>
      <trkpt lat="44.98665" lon="6.49341">
        <ele>1498.6</ele>
        <time>2022-07-17T12:57:51Z</time>
      </trkpt>
      <trkpt lat="44.98659" lon="6.49353">
        <ele>1498.6</ele>
        <time>2022-07-17T12:57:52Z</time>
      </trkpt>
      <trkpt lat="44.98652" lon="6.49366">
        <ele>1498</ele>
        <time>2022-07-17T12:57:53Z</time>
      </trkpt>
      <trkpt lat="44.98645" lon="6.49378">
        <ele>1497.6</ele>
        <time>2022-07-17T12:57:54Z</time>
      </trkpt>
      <trkpt lat="44.98638" lon="6.49391">
        <ele>1497</ele>
        <time>2022-07-17T12:57:55Z</time>
      </trkpt>
      <trkpt lat="44.9863" lon="6.49402">
        <ele>1496.6</ele>
        <time>2022-07-17T12:57:56Z</time>
      </trkpt>
      <trkpt lat="44.98623" lon="6.49413">
        <ele>1496.4</ele>
        <time>2022-07-17T12:57:57Z</time>
      </trkpt>
      <trkpt lat="44.98615" lon="6.49425">
        <ele>1496</ele>
        <time>2022-07-17T12:57:58Z</time>
      </trkpt>
      <trkpt lat="44.98607" lon="6.49436">
        <ele>1495.8</ele>
        <time>2022-07-17T12:57:59Z</time>
      </trkpt>
      <trkpt lat="44.98599" lon="6.49446">
        <ele>1495.4</ele>
        <time>2022-07-17T12:58:00Z</time>
      </trkpt>
      <trkpt lat="44.98591" lon="6.49457">
        <ele>1495.4</ele>
        <time>2022-07-17T12:58:01Z</time>
      </trkpt>
      <trkpt lat="44.98584" lon="6.49468">
        <ele>1495</ele>
        <time>2022-07-17T12:58:02Z</time>
      </trkpt>
      <trkpt lat="44.98576" lon="6.49478">
        <ele>1494.6</ele>
        <time>2022-07-17T12:58:03Z</time>
      </trkpt>
      <trkpt lat="44.98567" lon="6.49487">
        <ele>1494.6</ele>
        <time>2022-07-17T12:58:04Z</time>
      </trkpt>
      <trkpt lat="44.98558" lon="6.49493">
        <ele>1494.2</ele>
        <time>2022-07-17T12:58:05Z</time>
      </trkpt>
      <trkpt lat="44.98548" lon="6.49499">
        <ele>1494</ele>
        <time>2022-07-17T12:58:06Z</time>
      </trkpt>
      <trkpt lat="44.98539" lon="6.49505">
        <ele>1493.6</ele>
        <time>2022-07-17T12:58:07Z</time>
      </trkpt>
      <trkpt lat="44.98531" lon="6.49513">
        <ele>1493.4</ele>
        <time>2022-07-17T12:58:08Z</time>
      </trkpt>
      <trkpt lat="44.98523" lon="6.49523">
        <ele>1493</ele>
        <time>2022-07-17T12:58:09Z</time>
      </trkpt>
      <trkpt lat="44.98515" lon="6.49533">
        <ele>1492.6</ele>
        <time>2022-07-17T12:58:10Z</time>
      </trkpt>
      <trkpt lat="44.98507" lon="6.49544">
        <ele>1492.4</ele>
        <time>2022-07-17T12:58:11Z</time>
      </trkpt>
      <trkpt lat="44.985" lon="6.49555">
        <ele>1492.2</ele>
        <time>2022-07-17T12:58:12Z</time>
      </trkpt>
      <trkpt lat="44.98492" lon="6.49565">
        <ele>1492.2</ele>
        <time>2022-07-17T12:58:13Z</time>
      </trkpt>
      <trkpt lat="44.98486" lon="6.49575">
        <ele>1491.8</ele>
        <time>2022-07-17T12:58:14Z</time>
      </trkpt>
      <trkpt lat="44.98479" lon="6.49587">
        <ele>1491.6</ele>
        <time>2022-07-17T12:58:15Z</time>
      </trkpt>
      <trkpt lat="44.98472" lon="6.49599">
        <ele>1491.2</ele>
        <time>2022-07-17T12:58:16Z</time>
      </trkpt>
      <trkpt lat="44.98465" lon="6.49612">
        <ele>1491.2</ele>
        <time>2022-07-17T12:58:17Z</time>
      </trkpt>
      <trkpt lat="44.98458" lon="6.49625">
        <ele>1491</ele>
        <time>2022-07-17T12:58:18Z</time>
      </trkpt>
      <trkpt lat="44.98451" lon="6.49638">
        <ele>1490.6</ele>
        <time>2022-07-17T12:58:19Z</time>
      </trkpt>
      <trkpt lat="44.98444" lon="6.4965">
        <ele>1490.6</ele>
        <time>2022-07-17T12:58:20Z</time>
      </trkpt>
      <trkpt lat="44.98437" lon="6.49663">
        <ele>1490.4</ele>
        <time>2022-07-17T12:58:21Z</time>
      </trkpt>
      <trkpt lat="44.9843" lon="6.49676">
        <ele>1490</ele>
        <time>2022-07-17T12:58:22Z</time>
      </trkpt>
      <trkpt lat="44.98423" lon="6.49688">
        <ele>1489.8</ele>
        <time>2022-07-17T12:58:23Z</time>
      </trkpt>
      <trkpt lat="44.98415" lon="6.49701">
        <ele>1489.4</ele>
        <time>2022-07-17T12:58:24Z</time>
      </trkpt>
      <trkpt lat="44.98408" lon="6.49714">
        <ele>1489.2</ele>
        <time>2022-07-17T12:58:25Z</time>
      </trkpt>
      <trkpt lat="44.984" lon="6.49728">
        <ele>1488.8</ele>
        <time>2022-07-17T12:58:26Z</time>
      </trkpt>
      <trkpt lat="44.98394" lon="6.49742">
        <ele>1488.6</ele>
        <time>2022-07-17T12:58:27Z</time>
      </trkpt>
      <trkpt lat="44.98388" lon="6.49756">
        <ele>1488.2</ele>
        <time>2022-07-17T12:58:28Z</time>
      </trkpt>
      <trkpt lat="44.98382" lon="6.49769">
        <ele>1488</ele>
        <time>2022-07-17T12:58:29Z</time>
      </trkpt>
      <trkpt lat="44.98376" lon="6.49782">
        <ele>1487.8</ele>
        <time>2022-07-17T12:58:30Z</time>
      </trkpt>
      <trkpt lat="44.98369" lon="6.49793">
        <ele>1487.4</ele>
        <time>2022-07-17T12:58:31Z</time>
      </trkpt>
      <trkpt lat="44.98362" lon="6.49804">
        <ele>1487.2</ele>
        <time>2022-07-17T12:58:32Z</time>
      </trkpt>
      <trkpt lat="44.98355" lon="6.49814">
        <ele>1486.6</ele>
        <time>2022-07-17T12:58:33Z</time>
      </trkpt>
      <trkpt lat="44.98348" lon="6.49825">
        <ele>1486.2</ele>
        <time>2022-07-17T12:58:34Z</time>
      </trkpt>
      <trkpt lat="44.98339" lon="6.49835">
        <ele>1486</ele>
        <time>2022-07-17T12:58:35Z</time>
      </trkpt>
      <trkpt lat="44.98331" lon="6.49846">
        <ele>1486</ele>
        <time>2022-07-17T12:58:36Z</time>
      </trkpt>
      <trkpt lat="44.98322" lon="6.49856">
        <ele>1486</ele>
        <time>2022-07-17T12:58:37Z</time>
      </trkpt>
      <trkpt lat="44.98312" lon="6.49865">
        <ele>1485.8</ele>
        <time>2022-07-17T12:58:38Z</time>
      </trkpt>
      <trkpt lat="44.98301" lon="6.49874">
        <ele>1485.8</ele>
        <time>2022-07-17T12:58:39Z</time>
      </trkpt>
      <trkpt lat="44.98291" lon="6.49882">
        <ele>1485.4</ele>
        <time>2022-07-17T12:58:40Z</time>
      </trkpt>
      <trkpt lat="44.98282" lon="6.4989">
        <ele>1485</ele>
        <time>2022-07-17T12:58:41Z</time>
      </trkpt>
      <trkpt lat="44.98273" lon="6.49897">
        <ele>1484.8</ele>
        <time>2022-07-17T12:58:42Z</time>
      </trkpt>
      <trkpt lat="44.98264" lon="6.49904">
        <ele>1484.2</ele>
        <time>2022-07-17T12:58:43Z</time>
      </trkpt>
      <trkpt lat="44.98255" lon="6.4991">
        <ele>1484</ele>
        <time>2022-07-17T12:58:44Z</time>
      </trkpt>
      <trkpt lat="44.98246" lon="6.49916">
        <ele>1484</ele>
        <time>2022-07-17T12:58:45Z</time>
      </trkpt>
      <trkpt lat="44.98235" lon="6.49923">
        <ele>1483.6</ele>
        <time>2022-07-17T12:58:46Z</time>
      </trkpt>
      <trkpt lat="44.98226" lon="6.49928">
        <ele>1483.2</ele>
        <time>2022-07-17T12:58:47Z</time>
      </trkpt>
      <trkpt lat="44.98216" lon="6.49932">
        <ele>1482.8</ele>
        <time>2022-07-17T12:58:48Z</time>
      </trkpt>
      <trkpt lat="44.98205" lon="6.49935">
        <ele>1482.6</ele>
        <time>2022-07-17T12:58:49Z</time>
      </trkpt>
      <trkpt lat="44.98194" lon="6.49938">
        <ele>1482.2</ele>
        <time>2022-07-17T12:58:50Z</time>
      </trkpt>
      <trkpt lat="44.98184" lon="6.49939">
        <ele>1482</ele>
        <time>2022-07-17T12:58:51Z</time>
      </trkpt>
      <trkpt lat="44.98173" lon="6.4994">
        <ele>1481.6</ele>
        <time>2022-07-17T12:58:52Z</time>
      </trkpt>
      <trkpt lat="44.98161" lon="6.4994">
        <ele>1481.4</ele>
        <time>2022-07-17T12:58:53Z</time>
      </trkpt>
      <trkpt lat="44.98151" lon="6.49938">
        <ele>1480.8</ele>
        <time>2022-07-17T12:58:54Z</time>
      </trkpt>
      <trkpt lat="44.9814" lon="6.49936">
        <ele>1480.6</ele>
        <time>2022-07-17T12:58:55Z</time>
      </trkpt>
      <trkpt lat="44.98129" lon="6.49933">
        <ele>1480.4</ele>
        <time>2022-07-17T12:58:56Z</time>
      </trkpt>
      <trkpt lat="44.98119" lon="6.4993">
        <ele>1480</ele>
        <time>2022-07-17T12:58:57Z</time>
      </trkpt>
      <trkpt lat="44.98109" lon="6.49926">
        <ele>1479.6</ele>
        <time>2022-07-17T12:58:58Z</time>
      </trkpt>
      <trkpt lat="44.98099" lon="6.49921">
        <ele>1479.6</ele>
        <time>2022-07-17T12:58:59Z</time>
      </trkpt>
      <trkpt lat="44.98089" lon="6.49917">
        <ele>1479.2</ele>
        <time>2022-07-17T12:59:00Z</time>
      </trkpt>
      <trkpt lat="44.98079" lon="6.49913">
        <ele>1479</ele>
        <time>2022-07-17T12:59:01Z</time>
      </trkpt>
      <trkpt lat="44.9807" lon="6.49909">
        <ele>1479</ele>
        <time>2022-07-17T12:59:02Z</time>
      </trkpt>
      <trkpt lat="44.98061" lon="6.49906">
        <ele>1478.8</ele>
        <time>2022-07-17T12:59:03Z</time>
      </trkpt>
      <trkpt lat="44.98051" lon="6.49904">
        <ele>1478.8</ele>
        <time>2022-07-17T12:59:04Z</time>
      </trkpt>
      <trkpt lat="44.98042" lon="6.49905">
        <ele>1478.4</ele>
        <time>2022-07-17T12:59:05Z</time>
      </trkpt>
      <trkpt lat="44.98033" lon="6.49906">
        <ele>1478.2</ele>
        <time>2022-07-17T12:59:06Z</time>
      </trkpt>
      <trkpt lat="44.98022" lon="6.49911">
        <ele>1478</ele>
        <time>2022-07-17T12:59:07Z</time>
      </trkpt>
      <trkpt lat="44.98013" lon="6.49915">
        <ele>1478</ele>
        <time>2022-07-17T12:59:08Z</time>
      </trkpt>
      <trkpt lat="44.98004" lon="6.49921">
        <ele>1477.6</ele>
        <time>2022-07-17T12:59:09Z</time>
      </trkpt>
      <trkpt lat="44.97995" lon="6.49928">
        <ele>1477.6</ele>
        <time>2022-07-17T12:59:10Z</time>
      </trkpt>
      <trkpt lat="44.97987" lon="6.49935">
        <ele>1477.6</ele>
        <time>2022-07-17T12:59:11Z</time>
      </trkpt>
      <trkpt lat="44.97979" lon="6.49943">
        <ele>1477.2</ele>
        <time>2022-07-17T12:59:12Z</time>
      </trkpt>
      <trkpt lat="44.97972" lon="6.49952">
        <ele>1477.2</ele>
        <time>2022-07-17T12:59:13Z</time>
      </trkpt>
      <trkpt lat="44.97965" lon="6.49961">
        <ele>1477</ele>
        <time>2022-07-17T12:59:14Z</time>
      </trkpt>
      <trkpt lat="44.97957" lon="6.4997">
        <ele>1477</ele>
        <time>2022-07-17T12:59:15Z</time>
      </trkpt>
      <trkpt lat="44.97949" lon="6.49978">
        <ele>1476.6</ele>
        <time>2022-07-17T12:59:16Z</time>
      </trkpt>
      <trkpt lat="44.97942" lon="6.49985">
        <ele>1476.6</ele>
        <time>2022-07-17T12:59:17Z</time>
      </trkpt>
      <trkpt lat="44.97936" lon="6.49992">
        <ele>1476.2</ele>
        <time>2022-07-17T12:59:18Z</time>
      </trkpt>
      <trkpt lat="44.97929" lon="6.50001">
        <ele>1476.2</ele>
        <time>2022-07-17T12:59:19Z</time>
      </trkpt>
      <trkpt lat="44.97922" lon="6.50009">
        <ele>1475.8</ele>
        <time>2022-07-17T12:59:20Z</time>
      </trkpt>
      <trkpt lat="44.97915" lon="6.50018">
        <ele>1475.6</ele>
        <time>2022-07-17T12:59:21Z</time>
      </trkpt>
      <trkpt lat="44.97908" lon="6.5003">
        <ele>1475.2</ele>
        <time>2022-07-17T12:59:22Z</time>
      </trkpt>
      <trkpt lat="44.97901" lon="6.50042">
        <ele>1475</ele>
        <time>2022-07-17T12:59:23Z</time>
      </trkpt>
      <trkpt lat="44.97895" lon="6.50054">
        <ele>1474.6</ele>
        <time>2022-07-17T12:59:24Z</time>
      </trkpt>
      <trkpt lat="44.97889" lon="6.50067">
        <ele>1474.4</ele>
        <time>2022-07-17T12:59:25Z</time>
      </trkpt>
      <trkpt lat="44.97884" lon="6.5008">
        <ele>1474.2</ele>
        <time>2022-07-17T12:59:26Z</time>
      </trkpt>
      <trkpt lat="44.97878" lon="6.50093">
        <ele>1474</ele>
        <time>2022-07-17T12:59:27Z</time>
      </trkpt>
      <trkpt lat="44.97874" lon="6.50108">
        <ele>1473.6</ele>
        <time>2022-07-17T12:59:28Z</time>
      </trkpt>
      <trkpt lat="44.9787" lon="6.50122">
        <ele>1473.6</ele>
        <time>2022-07-17T12:59:29Z</time>
      </trkpt>
      <trkpt lat="44.97865" lon="6.50135">
        <ele>1473</ele>
        <time>2022-07-17T12:59:30Z</time>
      </trkpt>
      <trkpt lat="44.9786" lon="6.50148">
        <ele>1472.8</ele>
        <time>2022-07-17T12:59:31Z</time>
      </trkpt>
      <trkpt lat="44.97856" lon="6.50162">
        <ele>1472.8</ele>
        <time>2022-07-17T12:59:32Z</time>
      </trkpt>
      <trkpt lat="44.97852" lon="6.50175">
        <ele>1472.4</ele>
        <time>2022-07-17T12:59:33Z</time>
      </trkpt>
      <trkpt lat="44.97848" lon="6.5019">
        <ele>1472</ele>
        <time>2022-07-17T12:59:34Z</time>
      </trkpt>
      <trkpt lat="44.97844" lon="6.50205">
        <ele>1471.8</ele>
        <time>2022-07-17T12:59:35Z</time>
      </trkpt>
      <trkpt lat="44.9784" lon="6.50221">
        <ele>1471.4</ele>
        <time>2022-07-17T12:59:36Z</time>
      </trkpt>
      <trkpt lat="44.97837" lon="6.50235">
        <ele>1471</ele>
        <time>2022-07-17T12:59:37Z</time>
      </trkpt>
      <trkpt lat="44.97834" lon="6.50248">
        <ele>1470.6</ele>
        <time>2022-07-17T12:59:38Z</time>
      </trkpt>
      <trkpt lat="44.9783" lon="6.50261">
        <ele>1470</ele>
        <time>2022-07-17T12:59:39Z</time>
      </trkpt>
      <trkpt lat="44.97826" lon="6.50274">
        <ele>1469.6</ele>
        <time>2022-07-17T12:59:40Z</time>
      </trkpt>
      <trkpt lat="44.97823" lon="6.50286">
        <ele>1469.2</ele>
        <time>2022-07-17T12:59:41Z</time>
      </trkpt>
      <trkpt lat="44.9782" lon="6.50298">
        <ele>1468.8</ele>
        <time>2022-07-17T12:59:42Z</time>
      </trkpt>
      <trkpt lat="44.97816" lon="6.5031">
        <ele>1468.4</ele>
        <time>2022-07-17T12:59:43Z</time>
      </trkpt>
      <trkpt lat="44.97813" lon="6.5032">
        <ele>1468</ele>
        <time>2022-07-17T12:59:44Z</time>
      </trkpt>
      <trkpt lat="44.97809" lon="6.5033">
        <ele>1467.6</ele>
        <time>2022-07-17T12:59:45Z</time>
      </trkpt>
      <trkpt lat="44.97806" lon="6.5034">
        <ele>1467.2</ele>
        <time>2022-07-17T12:59:46Z</time>
      </trkpt>
      <trkpt lat="44.97803" lon="6.50348">
        <ele>1466.8</ele>
        <time>2022-07-17T12:59:47Z</time>
      </trkpt>
      <trkpt lat="44.97801" lon="6.50356">
        <ele>1466.6</ele>
        <time>2022-07-17T12:59:48Z</time>
      </trkpt>
      <trkpt lat="44.97798" lon="6.50364">
        <ele>1466.2</ele>
        <time>2022-07-17T12:59:49Z</time>
      </trkpt>
      <trkpt lat="44.97795" lon="6.50372">
        <ele>1466</ele>
        <time>2022-07-17T12:59:50Z</time>
      </trkpt>
      <trkpt lat="44.97792" lon="6.50378">
        <ele>1465.8</ele>
        <time>2022-07-17T12:59:51Z</time>
      </trkpt>
      <trkpt lat="44.97789" lon="6.50384">
        <ele>1465.6</ele>
        <time>2022-07-17T12:59:52Z</time>
      </trkpt>
      <trkpt lat="44.97787" lon="6.5039">
        <ele>1465.4</ele>
        <time>2022-07-17T12:59:53Z</time>
      </trkpt>
      <trkpt lat="44.97784" lon="6.50396">
        <ele>1465.4</ele>
        <time>2022-07-17T12:59:54Z</time>
      </trkpt>
      <trkpt lat="44.97782" lon="6.50402">
        <ele>1465</ele>
        <time>2022-07-17T12:59:55Z</time>
      </trkpt>
      <trkpt lat="44.97779" lon="6.50408">
        <ele>1464.8</ele>
        <time>2022-07-17T12:59:56Z</time>
      </trkpt>
      <trkpt lat="44.97777" lon="6.50414">
        <ele>1464.6</ele>
        <time>2022-07-17T12:59:57Z</time>
      </trkpt>
      <trkpt lat="44.97774" lon="6.50419">
        <ele>1464.2</ele>
        <time>2022-07-17T12:59:58Z</time>
      </trkpt>
      <trkpt lat="44.97772" lon="6.50424">
        <ele>1464.2</ele>
        <time>2022-07-17T12:59:59Z</time>
      </trkpt>
      <trkpt lat="44.97769" lon="6.5043">
        <ele>1463.8</ele>
        <time>2022-07-17T13:00:00Z</time>
      </trkpt>
      <trkpt lat="44.97767" lon="6.50435">
        <ele>1463.6</ele>
        <time>2022-07-17T13:00:01Z</time>
      </trkpt>
      <trkpt lat="44.97764" lon="6.50439">
        <ele>1463.4</ele>
        <time>2022-07-17T13:00:02Z</time>
      </trkpt>
      <trkpt lat="44.97762" lon="6.50443">
        <ele>1463.4</ele>
        <time>2022-07-17T13:00:03Z</time>
      </trkpt>
      <trkpt lat="44.9776" lon="6.50447">
        <ele>1463</ele>
        <time>2022-07-17T13:00:04Z</time>
      </trkpt>
      <trkpt lat="44.97758" lon="6.50451">
        <ele>1463</ele>
        <time>2022-07-17T13:00:05Z</time>
      </trkpt>
      <trkpt lat="44.97756" lon="6.50454">
        <ele>1462.6</ele>
        <time>2022-07-17T13:00:06Z</time>
      </trkpt>
      <trkpt lat="44.97755" lon="6.50456">
        <ele>1462.6</ele>
        <time>2022-07-17T13:00:07Z</time>
      </trkpt>
      <trkpt lat="44.97754" lon="6.50459">
        <ele>1462.4</ele>
        <time>2022-07-17T13:00:08Z</time>
      </trkpt>
      <trkpt lat="44.97753" lon="6.50462">
        <ele>1462.4</ele>
        <time>2022-07-17T13:00:09Z</time>
      </trkpt>
      <trkpt lat="44.97751" lon="6.50466">
        <ele>1462.2</ele>
        <time>2022-07-17T13:00:10Z</time>
      </trkpt>
      <trkpt lat="44.97749" lon="6.5047">
        <ele>1462.2</ele>
        <time>2022-07-17T13:00:11Z</time>
      </trkpt>
      <trkpt lat="44.97747" lon="6.50475">
        <ele>1462</ele>
        <time>2022-07-17T13:00:12Z</time>
      </trkpt>
      <trkpt lat="44.97745" lon="6.5048">
        <ele>1462</ele>
        <time>2022-07-17T13:00:13Z</time>
      </trkpt>
      <trkpt lat="44.97742" lon="6.50485">
        <ele>1461.6</ele>
        <time>2022-07-17T13:00:14Z</time>
      </trkpt>
      <trkpt lat="44.97739" lon="6.50491">
        <ele>1461.6</ele>
        <time>2022-07-17T13:00:15Z</time>
      </trkpt>
      <trkpt lat="44.97736" lon="6.50497">
        <ele>1461.4</ele>
        <time>2022-07-17T13:00:16Z</time>
      </trkpt>
      <trkpt lat="44.97734" lon="6.50502">
        <ele>1461.4</ele>
        <time>2022-07-17T13:00:17Z</time>
      </trkpt>
      <trkpt lat="44.97732" lon="6.50506">
        <ele>1461</ele>
        <time>2022-07-17T13:00:18Z</time>
      </trkpt>
      <trkpt lat="44.9773" lon="6.5051">
        <ele>1461</ele>
        <time>2022-07-17T13:00:19Z</time>
      </trkpt>
      <trkpt lat="44.97728" lon="6.50514">
        <ele>1460.8</ele>
        <time>2022-07-17T13:00:20Z</time>
      </trkpt>
      <trkpt lat="44.97726" lon="6.50517">
        <ele>1460.8</ele>
        <time>2022-07-17T13:00:21Z</time>
      </trkpt>
      <trkpt lat="44.97725" lon="6.50519">
        <ele>1460.6</ele>
        <time>2022-07-17T13:00:22Z</time>
      </trkpt>
      <trkpt lat="44.97724" lon="6.50521">
        <ele>1460.6</ele>
        <time>2022-07-17T13:00:23Z</time>
      </trkpt>
      <trkpt lat="44.97724" lon="6.50522">
        <ele>1460.4</ele>
        <time>2022-07-17T13:00:24Z</time>
      </trkpt>
      <trkpt lat="44.97724" lon="6.50523">
        <ele>1460.4</ele>
        <time>2022-07-17T13:00:26Z</time>
      </trkpt>
      <trkpt lat="44.97722" lon="6.50528">
        <ele>1460.2</ele>
        <time>2022-07-17T13:00:53Z</time>
      </trkpt>
      <trkpt lat="44.97721" lon="6.50531">
        <ele>1460.2</ele>
        <time>2022-07-17T13:00:54Z</time>
      </trkpt>
      <trkpt lat="44.97719" lon="6.50536">
        <ele>1460.2</ele>
        <time>2022-07-17T13:00:55Z</time>
      </trkpt>
      <trkpt lat="44.97716" lon="6.50541">
        <ele>1460.2</ele>
        <time>2022-07-17T13:00:56Z</time>
      </trkpt>
      <trkpt lat="44.97714" lon="6.50547">
        <ele>1460.2</ele>
        <time>2022-07-17T13:00:57Z</time>
      </trkpt>
      <trkpt lat="44.97712" lon="6.50552">
        <ele>1460.2</ele>
        <time>2022-07-17T13:00:58Z</time>
      </trkpt>
      <trkpt lat="44.97709" lon="6.50558">
        <ele>1459.8</ele>
        <time>2022-07-17T13:00:59Z</time>
      </trkpt>
      <trkpt lat="44.97706" lon="6.50564">
        <ele>1459.6</ele>
        <time>2022-07-17T13:01:00Z</time>
      </trkpt>
      <trkpt lat="44.97703" lon="6.5057">
        <ele>1459.6</ele>
        <time>2022-07-17T13:01:01Z</time>
      </trkpt>
      <trkpt lat="44.977" lon="6.50577">
        <ele>1459.6</ele>
        <time>2022-07-17T13:01:02Z</time>
      </trkpt>
      <trkpt lat="44.97697" lon="6.50584">
        <ele>1459.6</ele>
        <time>2022-07-17T13:01:03Z</time>
      </trkpt>
      <trkpt lat="44.97694" lon="6.5059">
        <ele>1459.4</ele>
        <time>2022-07-17T13:01:04Z</time>
      </trkpt>
      <trkpt lat="44.97691" lon="6.50597">
        <ele>1459.4</ele>
        <time>2022-07-17T13:01:05Z</time>
      </trkpt>
      <trkpt lat="44.97688" lon="6.50604">
        <ele>1459.4</ele>
        <time>2022-07-17T13:01:06Z</time>
      </trkpt>
      <trkpt lat="44.97685" lon="6.50611">
        <ele>1459.4</ele>
        <time>2022-07-17T13:01:07Z</time>
      </trkpt>
      <trkpt lat="44.97681" lon="6.50617">
        <ele>1459.4</ele>
        <time>2022-07-17T13:01:08Z</time>
      </trkpt>
      <trkpt lat="44.97678" lon="6.50624">
        <ele>1459</ele>
        <time>2022-07-17T13:01:09Z</time>
      </trkpt>
      <trkpt lat="44.97674" lon="6.50632">
        <ele>1459</ele>
        <time>2022-07-17T13:01:10Z</time>
      </trkpt>
      <trkpt lat="44.97671" lon="6.50639">
        <ele>1459</ele>
        <time>2022-07-17T13:01:11Z</time>
      </trkpt>
      <trkpt lat="44.97668" lon="6.50646">
        <ele>1458.8</ele>
        <time>2022-07-17T13:01:12Z</time>
      </trkpt>
      <trkpt lat="44.97664" lon="6.50654">
        <ele>1458.8</ele>
        <time>2022-07-17T13:01:13Z</time>
      </trkpt>
      <trkpt lat="44.97661" lon="6.50661">
        <ele>1458.8</ele>
        <time>2022-07-17T13:01:14Z</time>
      </trkpt>
      <trkpt lat="44.97657" lon="6.50669">
        <ele>1458.4</ele>
        <time>2022-07-17T13:01:15Z</time>
      </trkpt>
      <trkpt lat="44.97653" lon="6.50676">
        <ele>1458.4</ele>
        <time>2022-07-17T13:01:16Z</time>
      </trkpt>
      <trkpt lat="44.97649" lon="6.50683">
        <ele>1458.2</ele>
        <time>2022-07-17T13:01:17Z</time>
      </trkpt>
      <trkpt lat="44.97646" lon="6.5069">
        <ele>1458.2</ele>
        <time>2022-07-17T13:01:18Z</time>
      </trkpt>
      <trkpt lat="44.97643" lon="6.50697">
        <ele>1458.2</ele>
        <time>2022-07-17T13:01:19Z</time>
      </trkpt>
      <trkpt lat="44.97641" lon="6.50704">
        <ele>1458</ele>
        <time>2022-07-17T13:01:20Z</time>
      </trkpt>
      <trkpt lat="44.97638" lon="6.50711">
        <ele>1458</ele>
        <time>2022-07-17T13:01:21Z</time>
      </trkpt>
      <trkpt lat="44.97636" lon="6.50717">
        <ele>1458</ele>
        <time>2022-07-17T13:01:22Z</time>
      </trkpt>
      <trkpt lat="44.97633" lon="6.50723">
        <ele>1458</ele>
        <time>2022-07-17T13:01:23Z</time>
      </trkpt>
      <trkpt lat="44.9763" lon="6.50729">
        <ele>1458</ele>
        <time>2022-07-17T13:01:24Z</time>
      </trkpt>
      <trkpt lat="44.97628" lon="6.50735">
        <ele>1457.6</ele>
        <time>2022-07-17T13:01:25Z</time>
      </trkpt>
      <trkpt lat="44.97626" lon="6.50741">
        <ele>1457.6</ele>
        <time>2022-07-17T13:01:26Z</time>
      </trkpt>
      <trkpt lat="44.97624" lon="6.50747">
        <ele>1457.2</ele>
        <time>2022-07-17T13:01:27Z</time>
      </trkpt>
      <trkpt lat="44.97622" lon="6.50753">
        <ele>1457</ele>
        <time>2022-07-17T13:01:28Z</time>
      </trkpt>
      <trkpt lat="44.9762" lon="6.5076">
        <ele>1457</ele>
        <time>2022-07-17T13:01:29Z</time>
      </trkpt>
      <trkpt lat="44.97617" lon="6.50767">
        <ele>1456.6</ele>
        <time>2022-07-17T13:01:30Z</time>
      </trkpt>
      <trkpt lat="44.97614" lon="6.50775">
        <ele>1456.4</ele>
        <time>2022-07-17T13:01:31Z</time>
      </trkpt>
      <trkpt lat="44.97611" lon="6.50782">
        <ele>1456.2</ele>
        <time>2022-07-17T13:01:32Z</time>
      </trkpt>
      <trkpt lat="44.97607" lon="6.50791">
        <ele>1455.8</ele>
        <time>2022-07-17T13:01:33Z</time>
      </trkpt>
      <trkpt lat="44.97604" lon="6.508">
        <ele>1455.6</ele>
        <time>2022-07-17T13:01:34Z</time>
      </trkpt>
      <trkpt lat="44.97601" lon="6.5081">
        <ele>1455.2</ele>
        <time>2022-07-17T13:01:35Z</time>
      </trkpt>
      <trkpt lat="44.97599" lon="6.5082">
        <ele>1455</ele>
        <time>2022-07-17T13:01:36Z</time>
      </trkpt>
      <trkpt lat="44.97596" lon="6.50831">
        <ele>1454.6</ele>
        <time>2022-07-17T13:01:37Z</time>
      </trkpt>
      <trkpt lat="44.97594" lon="6.50843">
        <ele>1454.4</ele>
        <time>2022-07-17T13:01:38Z</time>
      </trkpt>
      <trkpt lat="44.97594" lon="6.50855">
        <ele>1454</ele>
        <time>2022-07-17T13:01:39Z</time>
      </trkpt>
      <trkpt lat="44.97594" lon="6.50867">
        <ele>1453.8</ele>
        <time>2022-07-17T13:01:40Z</time>
      </trkpt>
      <trkpt lat="44.97594" lon="6.5088">
        <ele>1453.4</ele>
        <time>2022-07-17T13:01:41Z</time>
      </trkpt>
      <trkpt lat="44.97595" lon="6.50892">
        <ele>1453.2</ele>
        <time>2022-07-17T13:01:42Z</time>
      </trkpt>
      <trkpt lat="44.97596" lon="6.50904">
        <ele>1453.2</ele>
        <time>2022-07-17T13:01:43Z</time>
      </trkpt>
      <trkpt lat="44.97596" lon="6.50915">
        <ele>1453.2</ele>
        <time>2022-07-17T13:01:44Z</time>
      </trkpt>
      <trkpt lat="44.97597" lon="6.50927">
        <ele>1453</ele>
        <time>2022-07-17T13:01:45Z</time>
      </trkpt>
      <trkpt lat="44.97598" lon="6.50938">
        <ele>1453</ele>
        <time>2022-07-17T13:01:46Z</time>
      </trkpt>
      <trkpt lat="44.97599" lon="6.5095">
        <ele>1453</ele>
        <time>2022-07-17T13:01:47Z</time>
      </trkpt>
      <trkpt lat="44.976" lon="6.50961">
        <ele>1452.4</ele>
        <time>2022-07-17T13:01:48Z</time>
      </trkpt>
      <trkpt lat="44.97599" lon="6.50972">
        <ele>1452.4</ele>
        <time>2022-07-17T13:01:49Z</time>
      </trkpt>
      <trkpt lat="44.97598" lon="6.50984">
        <ele>1452.4</ele>
        <time>2022-07-17T13:01:50Z</time>
      </trkpt>
      <trkpt lat="44.97597" lon="6.50995">
        <ele>1452.2</ele>
        <time>2022-07-17T13:01:51Z</time>
      </trkpt>
      <trkpt lat="44.97596" lon="6.51006">
        <ele>1452.2</ele>
        <time>2022-07-17T13:01:52Z</time>
      </trkpt>
      <trkpt lat="44.97594" lon="6.51018">
        <ele>1452</ele>
        <time>2022-07-17T13:01:53Z</time>
      </trkpt>
      <trkpt lat="44.97593" lon="6.51029">
        <ele>1452</ele>
        <time>2022-07-17T13:01:54Z</time>
      </trkpt>
      <trkpt lat="44.9759" lon="6.5104">
        <ele>1452</ele>
        <time>2022-07-17T13:01:55Z</time>
      </trkpt>
      <trkpt lat="44.97588" lon="6.51051">
        <ele>1452</ele>
        <time>2022-07-17T13:01:56Z</time>
      </trkpt>
      <trkpt lat="44.97586" lon="6.51062">
        <ele>1452</ele>
        <time>2022-07-17T13:01:57Z</time>
      </trkpt>
      <trkpt lat="44.97584" lon="6.51073">
        <ele>1451.6</ele>
        <time>2022-07-17T13:01:58Z</time>
      </trkpt>
      <trkpt lat="44.97582" lon="6.51084">
        <ele>1451.2</ele>
        <time>2022-07-17T13:01:59Z</time>
      </trkpt>
      <trkpt lat="44.9758" lon="6.51096">
        <ele>1451</ele>
        <time>2022-07-17T13:02:00Z</time>
      </trkpt>
      <trkpt lat="44.97579" lon="6.51107">
        <ele>1450.8</ele>
        <time>2022-07-17T13:02:01Z</time>
      </trkpt>
      <trkpt lat="44.97578" lon="6.51119">
        <ele>1450.8</ele>
        <time>2022-07-17T13:02:02Z</time>
      </trkpt>
      <trkpt lat="44.97577" lon="6.51131">
        <ele>1450.4</ele>
        <time>2022-07-17T13:02:03Z</time>
      </trkpt>
      <trkpt lat="44.97576" lon="6.51143">
        <ele>1450.4</ele>
        <time>2022-07-17T13:02:04Z</time>
      </trkpt>
      <trkpt lat="44.97575" lon="6.51156">
        <ele>1450</ele>
        <time>2022-07-17T13:02:05Z</time>
      </trkpt>
      <trkpt lat="44.97575" lon="6.51168">
        <ele>1450</ele>
        <time>2022-07-17T13:02:06Z</time>
      </trkpt>
      <trkpt lat="44.97575" lon="6.51182">
        <ele>1449.6</ele>
        <time>2022-07-17T13:02:07Z</time>
      </trkpt>
      <trkpt lat="44.97575" lon="6.51196">
        <ele>1449.6</ele>
        <time>2022-07-17T13:02:08Z</time>
      </trkpt>
      <trkpt lat="44.97577" lon="6.51209">
        <ele>1449.4</ele>
        <time>2022-07-17T13:02:09Z</time>
      </trkpt>
      <trkpt lat="44.97581" lon="6.51222">
        <ele>1449</ele>
        <time>2022-07-17T13:02:10Z</time>
      </trkpt>
      <trkpt lat="44.97585" lon="6.51235">
        <ele>1448.6</ele>
        <time>2022-07-17T13:02:11Z</time>
      </trkpt>
      <trkpt lat="44.97591" lon="6.51249">
        <ele>1448.2</ele>
        <time>2022-07-17T13:02:12Z</time>
      </trkpt>
      <trkpt lat="44.97597" lon="6.51262">
        <ele>1447.8</ele>
        <time>2022-07-17T13:02:13Z</time>
      </trkpt>
      <trkpt lat="44.97603" lon="6.51275">
        <ele>1447.6</ele>
        <time>2022-07-17T13:02:14Z</time>
      </trkpt>
      <trkpt lat="44.97608" lon="6.51288">
        <ele>1447.2</ele>
        <time>2022-07-17T13:02:15Z</time>
      </trkpt>
      <trkpt lat="44.97614" lon="6.51302">
        <ele>1446.6</ele>
        <time>2022-07-17T13:02:16Z</time>
      </trkpt>
      <trkpt lat="44.97619" lon="6.51317">
        <ele>1446</ele>
        <time>2022-07-17T13:02:17Z</time>
      </trkpt>
      <trkpt lat="44.97623" lon="6.51333">
        <ele>1445.6</ele>
        <time>2022-07-17T13:02:18Z</time>
      </trkpt>
      <trkpt lat="44.97626" lon="6.51349">
        <ele>1445</ele>
        <time>2022-07-17T13:02:19Z</time>
      </trkpt>
      <trkpt lat="44.97627" lon="6.51366">
        <ele>1444.4</ele>
        <time>2022-07-17T13:02:20Z</time>
      </trkpt>
      <trkpt lat="44.97626" lon="6.51382">
        <ele>1443.8</ele>
        <time>2022-07-17T13:02:21Z</time>
      </trkpt>
      <trkpt lat="44.97624" lon="6.51399">
        <ele>1443.6</ele>
        <time>2022-07-17T13:02:22Z</time>
      </trkpt>
      <trkpt lat="44.9762" lon="6.51414">
        <ele>1443</ele>
        <time>2022-07-17T13:02:23Z</time>
      </trkpt>
      <trkpt lat="44.97617" lon="6.51429">
        <ele>1442.6</ele>
        <time>2022-07-17T13:02:24Z</time>
      </trkpt>
      <trkpt lat="44.97612" lon="6.51445">
        <ele>1442.2</ele>
        <time>2022-07-17T13:02:25Z</time>
      </trkpt>
      <trkpt lat="44.97606" lon="6.51459">
        <ele>1441.8</ele>
        <time>2022-07-17T13:02:26Z</time>
      </trkpt>
      <trkpt lat="44.976" lon="6.51475">
        <ele>1441.4</ele>
        <time>2022-07-17T13:02:27Z</time>
      </trkpt>
      <trkpt lat="44.97595" lon="6.51491">
        <ele>1440.8</ele>
        <time>2022-07-17T13:02:28Z</time>
      </trkpt>
      <trkpt lat="44.9759" lon="6.51507">
        <ele>1440.4</ele>
        <time>2022-07-17T13:02:29Z</time>
      </trkpt>
      <trkpt lat="44.97585" lon="6.51522">
        <ele>1439.8</ele>
        <time>2022-07-17T13:02:30Z</time>
      </trkpt>
      <trkpt lat="44.97581" lon="6.51538">
        <ele>1439.2</ele>
        <time>2022-07-17T13:02:31Z</time>
      </trkpt>
      <trkpt lat="44.97576" lon="6.51553">
        <ele>1439</ele>
        <time>2022-07-17T13:02:32Z</time>
      </trkpt>
      <trkpt lat="44.97571" lon="6.5157">
        <ele>1438.4</ele>
        <time>2022-07-17T13:02:33Z</time>
      </trkpt>
      <trkpt lat="44.97566" lon="6.51585">
        <ele>1437.8</ele>
        <time>2022-07-17T13:02:34Z</time>
      </trkpt>
      <trkpt lat="44.97559" lon="6.51598">
        <ele>1437.4</ele>
        <time>2022-07-17T13:02:35Z</time>
      </trkpt>
      <trkpt lat="44.97552" lon="6.51612">
        <ele>1437</ele>
        <time>2022-07-17T13:02:36Z</time>
      </trkpt>
      <trkpt lat="44.97545" lon="6.51625">
        <ele>1436.4</ele>
        <time>2022-07-17T13:02:37Z</time>
      </trkpt>
      <trkpt lat="44.97536" lon="6.51637">
        <ele>1436</ele>
        <time>2022-07-17T13:02:38Z</time>
      </trkpt>
      <trkpt lat="44.97526" lon="6.5165">
        <ele>1435.6</ele>
        <time>2022-07-17T13:02:39Z</time>
      </trkpt>
      <trkpt lat="44.97517" lon="6.5166">
        <ele>1435.4</ele>
        <time>2022-07-17T13:02:40Z</time>
      </trkpt>
      <trkpt lat="44.97506" lon="6.5167">
        <ele>1435</ele>
        <time>2022-07-17T13:02:41Z</time>
      </trkpt>
      <trkpt lat="44.97496" lon="6.51678">
        <ele>1434.4</ele>
        <time>2022-07-17T13:02:42Z</time>
      </trkpt>
      <trkpt lat="44.97484" lon="6.51686">
        <ele>1434</ele>
        <time>2022-07-17T13:02:43Z</time>
      </trkpt>
      <trkpt lat="44.97472" lon="6.51692">
        <ele>1433.6</ele>
        <time>2022-07-17T13:02:44Z</time>
      </trkpt>
      <trkpt lat="44.97461" lon="6.51697">
        <ele>1433.2</ele>
        <time>2022-07-17T13:02:45Z</time>
      </trkpt>
      <trkpt lat="44.97449" lon="6.51702">
        <ele>1432.6</ele>
        <time>2022-07-17T13:02:46Z</time>
      </trkpt>
      <trkpt lat="44.97438" lon="6.51706">
        <ele>1432.2</ele>
        <time>2022-07-17T13:02:47Z</time>
      </trkpt>
      <trkpt lat="44.97426" lon="6.51711">
        <ele>1431.8</ele>
        <time>2022-07-17T13:02:48Z</time>
      </trkpt>
      <trkpt lat="44.97415" lon="6.51715">
        <ele>1431.2</ele>
        <time>2022-07-17T13:02:49Z</time>
      </trkpt>
      <trkpt lat="44.97405" lon="6.51721">
        <ele>1430.8</ele>
        <time>2022-07-17T13:02:50Z</time>
      </trkpt>
      <trkpt lat="44.97395" lon="6.51729">
        <ele>1430.4</ele>
        <time>2022-07-17T13:02:51Z</time>
      </trkpt>
      <trkpt lat="44.97385" lon="6.51737">
        <ele>1430.2</ele>
        <time>2022-07-17T13:02:52Z</time>
      </trkpt>
      <trkpt lat="44.97375" lon="6.51748">
        <ele>1430</ele>
        <time>2022-07-17T13:02:53Z</time>
      </trkpt>
      <trkpt lat="44.97367" lon="6.51759">
        <ele>1429.4</ele>
        <time>2022-07-17T13:02:54Z</time>
      </trkpt>
      <trkpt lat="44.97358" lon="6.51771">
        <ele>1428.8</ele>
        <time>2022-07-17T13:02:55Z</time>
      </trkpt>
      <trkpt lat="44.9735" lon="6.51784">
        <ele>1428.2</ele>
        <time>2022-07-17T13:02:56Z</time>
      </trkpt>
      <trkpt lat="44.97342" lon="6.51797">
        <ele>1427.8</ele>
        <time>2022-07-17T13:02:57Z</time>
      </trkpt>
      <trkpt lat="44.97335" lon="6.51808">
        <ele>1427.4</ele>
        <time>2022-07-17T13:02:58Z</time>
      </trkpt>
      <trkpt lat="44.97326" lon="6.5182">
        <ele>1426.8</ele>
        <time>2022-07-17T13:02:59Z</time>
      </trkpt>
      <trkpt lat="44.97318" lon="6.51831">
        <ele>1426.4</ele>
        <time>2022-07-17T13:03:00Z</time>
      </trkpt>
      <trkpt lat="44.97309" lon="6.51843">
        <ele>1426</ele>
        <time>2022-07-17T13:03:01Z</time>
      </trkpt>
      <trkpt lat="44.97301" lon="6.51853">
        <ele>1425.6</ele>
        <time>2022-07-17T13:03:02Z</time>
      </trkpt>
      <trkpt lat="44.97293" lon="6.51864">
        <ele>1425.4</ele>
        <time>2022-07-17T13:03:03Z</time>
      </trkpt>
      <trkpt lat="44.97283" lon="6.51875">
        <ele>1425</ele>
        <time>2022-07-17T13:03:04Z</time>
      </trkpt>
      <trkpt lat="44.97274" lon="6.51886">
        <ele>1424.4</ele>
        <time>2022-07-17T13:03:05Z</time>
      </trkpt>
      <trkpt lat="44.97265" lon="6.51897">
        <ele>1424.2</ele>
        <time>2022-07-17T13:03:06Z</time>
      </trkpt>
      <trkpt lat="44.97256" lon="6.51907">
        <ele>1423.8</ele>
        <time>2022-07-17T13:03:07Z</time>
      </trkpt>
      <trkpt lat="44.97247" lon="6.51919">
        <ele>1423.6</ele>
        <time>2022-07-17T13:03:08Z</time>
      </trkpt>
      <trkpt lat="44.97239" lon="6.51931">
        <ele>1423.6</ele>
        <time>2022-07-17T13:03:09Z</time>
      </trkpt>
      <trkpt lat="44.97232" lon="6.51943">
        <ele>1423</ele>
        <time>2022-07-17T13:03:10Z</time>
      </trkpt>
      <trkpt lat="44.97224" lon="6.51956">
        <ele>1422.4</ele>
        <time>2022-07-17T13:03:11Z</time>
      </trkpt>
      <trkpt lat="44.97217" lon="6.51968">
        <ele>1422.2</ele>
        <time>2022-07-17T13:03:12Z</time>
      </trkpt>
      <trkpt lat="44.97211" lon="6.51981">
        <ele>1421.6</ele>
        <time>2022-07-17T13:03:13Z</time>
      </trkpt>
      <trkpt lat="44.97204" lon="6.51996">
        <ele>1421.4</ele>
        <time>2022-07-17T13:03:14Z</time>
      </trkpt>
      <trkpt lat="44.97198" lon="6.5201">
        <ele>1420.8</ele>
        <time>2022-07-17T13:03:15Z</time>
      </trkpt>
      <trkpt lat="44.97193" lon="6.52023">
        <ele>1420.2</ele>
        <time>2022-07-17T13:03:16Z</time>
      </trkpt>
      <trkpt lat="44.97187" lon="6.52037">
        <ele>1419.6</ele>
        <time>2022-07-17T13:03:17Z</time>
      </trkpt>
      <trkpt lat="44.97182" lon="6.52052">
        <ele>1419.2</ele>
        <time>2022-07-17T13:03:18Z</time>
      </trkpt>
      <trkpt lat="44.97177" lon="6.52066">
        <ele>1418.8</ele>
        <time>2022-07-17T13:03:19Z</time>
      </trkpt>
      <trkpt lat="44.97172" lon="6.5208">
        <ele>1418.4</ele>
        <time>2022-07-17T13:03:20Z</time>
      </trkpt>
      <trkpt lat="44.97167" lon="6.52095">
        <ele>1418</ele>
        <time>2022-07-17T13:03:21Z</time>
      </trkpt>
      <trkpt lat="44.97162" lon="6.52109">
        <ele>1417.6</ele>
        <time>2022-07-17T13:03:22Z</time>
      </trkpt>
      <trkpt lat="44.97157" lon="6.52123">
        <ele>1417.6</ele>
        <time>2022-07-17T13:03:23Z</time>
      </trkpt>
      <trkpt lat="44.97153" lon="6.52136">
        <ele>1417.6</ele>
        <time>2022-07-17T13:03:24Z</time>
      </trkpt>
      <trkpt lat="44.97148" lon="6.52149">
        <ele>1417.4</ele>
        <time>2022-07-17T13:03:25Z</time>
      </trkpt>
      <trkpt lat="44.97144" lon="6.52162">
        <ele>1417.4</ele>
        <time>2022-07-17T13:03:26Z</time>
      </trkpt>
      <trkpt lat="44.97139" lon="6.52177">
        <ele>1417</ele>
        <time>2022-07-17T13:03:27Z</time>
      </trkpt>
      <trkpt lat="44.97135" lon="6.5219">
        <ele>1417</ele>
        <time>2022-07-17T13:03:28Z</time>
      </trkpt>
      <trkpt lat="44.9713" lon="6.52203">
        <ele>1417</ele>
        <time>2022-07-17T13:03:29Z</time>
      </trkpt>
      <trkpt lat="44.97125" lon="6.52215">
        <ele>1416.6</ele>
        <time>2022-07-17T13:03:30Z</time>
      </trkpt>
      <trkpt lat="44.9712" lon="6.52228">
        <ele>1416.6</ele>
        <time>2022-07-17T13:03:31Z</time>
      </trkpt>
      <trkpt lat="44.97115" lon="6.52239">
        <ele>1416.4</ele>
        <time>2022-07-17T13:03:32Z</time>
      </trkpt>
      <trkpt lat="44.9711" lon="6.5225">
        <ele>1416.4</ele>
        <time>2022-07-17T13:03:33Z</time>
      </trkpt>
      <trkpt lat="44.97103" lon="6.5226">
        <ele>1416.4</ele>
        <time>2022-07-17T13:03:34Z</time>
      </trkpt>
      <trkpt lat="44.97095" lon="6.52269">
        <ele>1416.2</ele>
        <time>2022-07-17T13:03:35Z</time>
      </trkpt>
      <trkpt lat="44.97088" lon="6.52277">
        <ele>1416.2</ele>
        <time>2022-07-17T13:03:36Z</time>
      </trkpt>
      <trkpt lat="44.9708" lon="6.52284">
        <ele>1416</ele>
        <time>2022-07-17T13:03:37Z</time>
      </trkpt>
      <trkpt lat="44.97072" lon="6.52289">
        <ele>1416</ele>
        <time>2022-07-17T13:03:38Z</time>
      </trkpt>
      <trkpt lat="44.97064" lon="6.52296">
        <ele>1415.8</ele>
        <time>2022-07-17T13:03:39Z</time>
      </trkpt>
      <trkpt lat="44.97055" lon="6.523">
        <ele>1415.8</ele>
        <time>2022-07-17T13:03:40Z</time>
      </trkpt>
      <trkpt lat="44.97047" lon="6.52305">
        <ele>1415.8</ele>
        <time>2022-07-17T13:03:41Z</time>
      </trkpt>
      <trkpt lat="44.97038" lon="6.52309">
        <ele>1415.6</ele>
        <time>2022-07-17T13:03:42Z</time>
      </trkpt>
      <trkpt lat="44.97029" lon="6.52314">
        <ele>1415.6</ele>
        <time>2022-07-17T13:03:43Z</time>
      </trkpt>
      <trkpt lat="44.97021" lon="6.52317">
        <ele>1415.6</ele>
        <time>2022-07-17T13:03:44Z</time>
      </trkpt>
      <trkpt lat="44.97012" lon="6.52321">
        <ele>1415.6</ele>
        <time>2022-07-17T13:03:45Z</time>
      </trkpt>
      <trkpt lat="44.97004" lon="6.52325">
        <ele>1415.4</ele>
        <time>2022-07-17T13:03:46Z</time>
      </trkpt>
      <trkpt lat="44.96996" lon="6.52329">
        <ele>1415.4</ele>
        <time>2022-07-17T13:03:47Z</time>
      </trkpt>
      <trkpt lat="44.96988" lon="6.52333">
        <ele>1415.2</ele>
        <time>2022-07-17T13:03:48Z</time>
      </trkpt>
      <trkpt lat="44.9698" lon="6.52336">
        <ele>1415.2</ele>
        <time>2022-07-17T13:03:49Z</time>
      </trkpt>
      <trkpt lat="44.96972" lon="6.5234">
        <ele>1415.2</ele>
        <time>2022-07-17T13:03:50Z</time>
      </trkpt>
      <trkpt lat="44.96964" lon="6.52344">
        <ele>1415.2</ele>
        <time>2022-07-17T13:03:51Z</time>
      </trkpt>
      <trkpt lat="44.96956" lon="6.52348">
        <ele>1415.2</ele>
        <time>2022-07-17T13:03:52Z</time>
      </trkpt>
      <trkpt lat="44.96949" lon="6.52352">
        <ele>1415.2</ele>
        <time>2022-07-17T13:03:53Z</time>
      </trkpt>
      <trkpt lat="44.96941" lon="6.52356">
        <ele>1415.2</ele>
        <time>2022-07-17T13:03:54Z</time>
      </trkpt>
      <trkpt lat="44.96934" lon="6.52361">
        <ele>1415.2</ele>
        <time>2022-07-17T13:03:55Z</time>
      </trkpt>
      <trkpt lat="44.96927" lon="6.52366">
        <ele>1415.2</ele>
        <time>2022-07-17T13:03:56Z</time>
      </trkpt>
      <trkpt lat="44.9692" lon="6.52371">
        <ele>1415.2</ele>
        <time>2022-07-17T13:03:57Z</time>
      </trkpt>
      <trkpt lat="44.96913" lon="6.52377">
        <ele>1415.2</ele>
        <time>2022-07-17T13:03:58Z</time>
      </trkpt>
      <trkpt lat="44.96906" lon="6.52384">
        <ele>1415.2</ele>
        <time>2022-07-17T13:03:59Z</time>
      </trkpt>
      <trkpt lat="44.969" lon="6.52391">
        <ele>1414.8</ele>
        <time>2022-07-17T13:04:00Z</time>
      </trkpt>
      <trkpt lat="44.96894" lon="6.52399">
        <ele>1414.8</ele>
        <time>2022-07-17T13:04:01Z</time>
      </trkpt>
      <trkpt lat="44.96889" lon="6.52408">
        <ele>1414.8</ele>
        <time>2022-07-17T13:04:02Z</time>
      </trkpt>
      <trkpt lat="44.96884" lon="6.52417">
        <ele>1414.6</ele>
        <time>2022-07-17T13:04:03Z</time>
      </trkpt>
      <trkpt lat="44.96879" lon="6.52426">
        <ele>1414.8</ele>
        <time>2022-07-17T13:04:04Z</time>
      </trkpt>
      <trkpt lat="44.96875" lon="6.52436">
        <ele>1414.8</ele>
        <time>2022-07-17T13:04:05Z</time>
      </trkpt>
      <trkpt lat="44.96871" lon="6.52447">
        <ele>1414.4</ele>
        <time>2022-07-17T13:04:06Z</time>
      </trkpt>
      <trkpt lat="44.96867" lon="6.52457">
        <ele>1414.4</ele>
        <time>2022-07-17T13:04:07Z</time>
      </trkpt>
      <trkpt lat="44.96864" lon="6.52468">
        <ele>1414</ele>
        <time>2022-07-17T13:04:08Z</time>
      </trkpt>
      <trkpt lat="44.9686" lon="6.5248">
        <ele>1413.8</ele>
        <time>2022-07-17T13:04:09Z</time>
      </trkpt>
      <trkpt lat="44.96857" lon="6.52491">
        <ele>1413.8</ele>
        <time>2022-07-17T13:04:10Z</time>
      </trkpt>
      <trkpt lat="44.96854" lon="6.52502">
        <ele>1413.8</ele>
        <time>2022-07-17T13:04:11Z</time>
      </trkpt>
      <trkpt lat="44.9685" lon="6.52513">
        <ele>1413.6</ele>
        <time>2022-07-17T13:04:12Z</time>
      </trkpt>
      <trkpt lat="44.96847" lon="6.52525">
        <ele>1413.2</ele>
        <time>2022-07-17T13:04:13Z</time>
      </trkpt>
      <trkpt lat="44.96844" lon="6.52536">
        <ele>1413.2</ele>
        <time>2022-07-17T13:04:14Z</time>
      </trkpt>
      <trkpt lat="44.96841" lon="6.52548">
        <ele>1413</ele>
        <time>2022-07-17T13:04:15Z</time>
      </trkpt>
      <trkpt lat="44.96838" lon="6.52559">
        <ele>1413</ele>
        <time>2022-07-17T13:04:16Z</time>
      </trkpt>
      <trkpt lat="44.96836" lon="6.52571">
        <ele>1412.6</ele>
        <time>2022-07-17T13:04:17Z</time>
      </trkpt>
      <trkpt lat="44.96834" lon="6.52583">
        <ele>1412.6</ele>
        <time>2022-07-17T13:04:18Z</time>
      </trkpt>
      <trkpt lat="44.96831" lon="6.52595">
        <ele>1412.4</ele>
        <time>2022-07-17T13:04:19Z</time>
      </trkpt>
      <trkpt lat="44.9683" lon="6.52607">
        <ele>1412.4</ele>
        <time>2022-07-17T13:04:20Z</time>
      </trkpt>
      <trkpt lat="44.96828" lon="6.52619">
        <ele>1412</ele>
        <time>2022-07-17T13:04:21Z</time>
      </trkpt>
      <trkpt lat="44.96826" lon="6.52632">
        <ele>1411.8</ele>
        <time>2022-07-17T13:04:22Z</time>
      </trkpt>
      <trkpt lat="44.96824" lon="6.52645">
        <ele>1411.8</ele>
        <time>2022-07-17T13:04:23Z</time>
      </trkpt>
      <trkpt lat="44.96822" lon="6.52658">
        <ele>1411.8</ele>
        <time>2022-07-17T13:04:24Z</time>
      </trkpt>
      <trkpt lat="44.9682" lon="6.52671">
        <ele>1411.4</ele>
        <time>2022-07-17T13:04:25Z</time>
      </trkpt>
      <trkpt lat="44.96818" lon="6.52683">
        <ele>1411.2</ele>
        <time>2022-07-17T13:04:26Z</time>
      </trkpt>
      <trkpt lat="44.96815" lon="6.52695">
        <ele>1411</ele>
        <time>2022-07-17T13:04:27Z</time>
      </trkpt>
      <trkpt lat="44.96812" lon="6.52707">
        <ele>1410.8</ele>
        <time>2022-07-17T13:04:28Z</time>
      </trkpt>
      <trkpt lat="44.96808" lon="6.52719">
        <ele>1410.8</ele>
        <time>2022-07-17T13:04:29Z</time>
      </trkpt>
      <trkpt lat="44.96804" lon="6.52732">
        <ele>1410.4</ele>
        <time>2022-07-17T13:04:30Z</time>
      </trkpt>
      <trkpt lat="44.968" lon="6.52744">
        <ele>1410.2</ele>
        <time>2022-07-17T13:04:31Z</time>
      </trkpt>
      <trkpt lat="44.96796" lon="6.52756">
        <ele>1409.8</ele>
        <time>2022-07-17T13:04:32Z</time>
      </trkpt>
      <trkpt lat="44.96793" lon="6.52768">
        <ele>1409.6</ele>
        <time>2022-07-17T13:04:33Z</time>
      </trkpt>
      <trkpt lat="44.9679" lon="6.5278">
        <ele>1409.6</ele>
        <time>2022-07-17T13:04:34Z</time>
      </trkpt>
      <trkpt lat="44.96786" lon="6.52792">
        <ele>1409.4</ele>
        <time>2022-07-17T13:04:35Z</time>
      </trkpt>
      <trkpt lat="44.96783" lon="6.52805">
        <ele>1409.2</ele>
        <time>2022-07-17T13:04:36Z</time>
      </trkpt>
      <trkpt lat="44.9678" lon="6.52817">
        <ele>1409.2</ele>
        <time>2022-07-17T13:04:37Z</time>
      </trkpt>
      <trkpt lat="44.96777" lon="6.52829">
        <ele>1408.8</ele>
        <time>2022-07-17T13:04:38Z</time>
      </trkpt>
      <trkpt lat="44.96775" lon="6.52841">
        <ele>1408.8</ele>
        <time>2022-07-17T13:04:39Z</time>
      </trkpt>
      <trkpt lat="44.96774" lon="6.52855">
        <ele>1408.8</ele>
        <time>2022-07-17T13:04:40Z</time>
      </trkpt>
      <trkpt lat="44.96773" lon="6.52868">
        <ele>1408.4</ele>
        <time>2022-07-17T13:04:41Z</time>
      </trkpt>
      <trkpt lat="44.96773" lon="6.52881">
        <ele>1408.2</ele>
        <time>2022-07-17T13:04:42Z</time>
      </trkpt>
      <trkpt lat="44.96774" lon="6.52895">
        <ele>1408.2</ele>
        <time>2022-07-17T13:04:43Z</time>
      </trkpt>
      <trkpt lat="44.96774" lon="6.52908">
        <ele>1407.8</ele>
        <time>2022-07-17T13:04:44Z</time>
      </trkpt>
      <trkpt lat="44.96775" lon="6.52922">
        <ele>1407.8</ele>
        <time>2022-07-17T13:04:45Z</time>
      </trkpt>
      <trkpt lat="44.96776" lon="6.52934">
        <ele>1407.4</ele>
        <time>2022-07-17T13:04:46Z</time>
      </trkpt>
      <trkpt lat="44.96777" lon="6.52948">
        <ele>1407.2</ele>
        <time>2022-07-17T13:04:47Z</time>
      </trkpt>
      <trkpt lat="44.96778" lon="6.52961">
        <ele>1407</ele>
        <time>2022-07-17T13:04:48Z</time>
      </trkpt>
      <trkpt lat="44.96778" lon="6.52974">
        <ele>1407</ele>
        <time>2022-07-17T13:04:49Z</time>
      </trkpt>
      <trkpt lat="44.9678" lon="6.52988">
        <ele>1406.8</ele>
        <time>2022-07-17T13:04:50Z</time>
      </trkpt>
      <trkpt lat="44.96781" lon="6.53002">
        <ele>1406.8</ele>
        <time>2022-07-17T13:04:51Z</time>
      </trkpt>
      <trkpt lat="44.96781" lon="6.53016">
        <ele>1406.4</ele>
        <time>2022-07-17T13:04:52Z</time>
      </trkpt>
      <trkpt lat="44.96781" lon="6.5303">
        <ele>1406.2</ele>
        <time>2022-07-17T13:04:53Z</time>
      </trkpt>
      <trkpt lat="44.9678" lon="6.53043">
        <ele>1405.8</ele>
        <time>2022-07-17T13:04:54Z</time>
      </trkpt>
      <trkpt lat="44.96779" lon="6.53056">
        <ele>1405.6</ele>
        <time>2022-07-17T13:04:55Z</time>
      </trkpt>
      <trkpt lat="44.96776" lon="6.53069">
        <ele>1405.2</ele>
        <time>2022-07-17T13:04:56Z</time>
      </trkpt>
      <trkpt lat="44.96772" lon="6.53082">
        <ele>1404.8</ele>
        <time>2022-07-17T13:04:57Z</time>
      </trkpt>
      <trkpt lat="44.96768" lon="6.53095">
        <ele>1404.6</ele>
        <time>2022-07-17T13:04:58Z</time>
      </trkpt>
      <trkpt lat="44.96763" lon="6.53107">
        <ele>1404.2</ele>
        <time>2022-07-17T13:04:59Z</time>
      </trkpt>
      <trkpt lat="44.96758" lon="6.53119">
        <ele>1404.2</ele>
        <time>2022-07-17T13:05:00Z</time>
      </trkpt>
      <trkpt lat="44.96752" lon="6.5313">
        <ele>1403.8</ele>
        <time>2022-07-17T13:05:01Z</time>
      </trkpt>
      <trkpt lat="44.96746" lon="6.5314">
        <ele>1403.6</ele>
        <time>2022-07-17T13:05:02Z</time>
      </trkpt>
      <trkpt lat="44.96739" lon="6.53149">
        <ele>1403.4</ele>
        <time>2022-07-17T13:05:03Z</time>
      </trkpt>
      <trkpt lat="44.96732" lon="6.53158">
        <ele>1403</ele>
        <time>2022-07-17T13:05:04Z</time>
      </trkpt>
      <trkpt lat="44.96724" lon="6.53166">
        <ele>1402.8</ele>
        <time>2022-07-17T13:05:05Z</time>
      </trkpt>
      <trkpt lat="44.96716" lon="6.53174">
        <ele>1402.6</ele>
        <time>2022-07-17T13:05:06Z</time>
      </trkpt>
      <trkpt lat="44.96709" lon="6.53182">
        <ele>1402.4</ele>
        <time>2022-07-17T13:05:07Z</time>
      </trkpt>
      <trkpt lat="44.96701" lon="6.5319">
        <ele>1402.4</ele>
        <time>2022-07-17T13:05:08Z</time>
      </trkpt>
      <trkpt lat="44.96693" lon="6.53198">
        <ele>1402</ele>
        <time>2022-07-17T13:05:09Z</time>
      </trkpt>
      <trkpt lat="44.96686" lon="6.53206">
        <ele>1402</ele>
        <time>2022-07-17T13:05:10Z</time>
      </trkpt>
      <trkpt lat="44.96679" lon="6.53214">
        <ele>1402</ele>
        <time>2022-07-17T13:05:11Z</time>
      </trkpt>
      <trkpt lat="44.96671" lon="6.53223">
        <ele>1401.6</ele>
        <time>2022-07-17T13:05:12Z</time>
      </trkpt>
      <trkpt lat="44.96665" lon="6.53232">
        <ele>1401.4</ele>
        <time>2022-07-17T13:05:13Z</time>
      </trkpt>
      <trkpt lat="44.96658" lon="6.53241">
        <ele>1401.2</ele>
        <time>2022-07-17T13:05:14Z</time>
      </trkpt>
      <trkpt lat="44.96651" lon="6.53251">
        <ele>1401.2</ele>
        <time>2022-07-17T13:05:15Z</time>
      </trkpt>
      <trkpt lat="44.96644" lon="6.53259">
        <ele>1401</ele>
        <time>2022-07-17T13:05:16Z</time>
      </trkpt>
      <trkpt lat="44.96638" lon="6.53269">
        <ele>1400.8</ele>
        <time>2022-07-17T13:05:17Z</time>
      </trkpt>
      <trkpt lat="44.96631" lon="6.53278">
        <ele>1400.8</ele>
        <time>2022-07-17T13:05:18Z</time>
      </trkpt>
      <trkpt lat="44.96625" lon="6.53287">
        <ele>1400.4</ele>
        <time>2022-07-17T13:05:19Z</time>
      </trkpt>
      <trkpt lat="44.96618" lon="6.53297">
        <ele>1400.4</ele>
        <time>2022-07-17T13:05:20Z</time>
      </trkpt>
      <trkpt lat="44.96611" lon="6.53307">
        <ele>1400</ele>
        <time>2022-07-17T13:05:21Z</time>
      </trkpt>
      <trkpt lat="44.96605" lon="6.53317">
        <ele>1400</ele>
        <time>2022-07-17T13:05:22Z</time>
      </trkpt>
      <trkpt lat="44.96599" lon="6.53327">
        <ele>1399.8</ele>
        <time>2022-07-17T13:05:23Z</time>
      </trkpt>
      <trkpt lat="44.96593" lon="6.53338">
        <ele>1399.6</ele>
        <time>2022-07-17T13:05:24Z</time>
      </trkpt>
      <trkpt lat="44.96587" lon="6.53348">
        <ele>1399.4</ele>
        <time>2022-07-17T13:05:25Z</time>
      </trkpt>
      <trkpt lat="44.9658" lon="6.53358">
        <ele>1399</ele>
        <time>2022-07-17T13:05:26Z</time>
      </trkpt>
      <trkpt lat="44.96574" lon="6.5337">
        <ele>1398.8</ele>
        <time>2022-07-17T13:05:27Z</time>
      </trkpt>
      <trkpt lat="44.96569" lon="6.53381">
        <ele>1398.6</ele>
        <time>2022-07-17T13:05:28Z</time>
      </trkpt>
      <trkpt lat="44.96563" lon="6.53392">
        <ele>1398.2</ele>
        <time>2022-07-17T13:05:29Z</time>
      </trkpt>
      <trkpt lat="44.96557" lon="6.534">
        <ele>1397.8</ele>
        <time>2022-07-17T13:05:30Z</time>
      </trkpt>
      <trkpt lat="44.9655" lon="6.53411">
        <ele>1397.8</ele>
        <time>2022-07-17T13:05:31Z</time>
      </trkpt>
      <trkpt lat="44.96545" lon="6.53421">
        <ele>1397.6</ele>
        <time>2022-07-17T13:05:32Z</time>
      </trkpt>
      <trkpt lat="44.96538" lon="6.5343">
        <ele>1397.2</ele>
        <time>2022-07-17T13:05:33Z</time>
      </trkpt>
      <trkpt lat="44.96532" lon="6.53441">
        <ele>1397</ele>
        <time>2022-07-17T13:05:34Z</time>
      </trkpt>
      <trkpt lat="44.96525" lon="6.53452">
        <ele>1396.6</ele>
        <time>2022-07-17T13:05:35Z</time>
      </trkpt>
      <trkpt lat="44.96518" lon="6.53463">
        <ele>1396.6</ele>
        <time>2022-07-17T13:05:36Z</time>
      </trkpt>
      <trkpt lat="44.96512" lon="6.53473">
        <ele>1396.2</ele>
        <time>2022-07-17T13:05:37Z</time>
      </trkpt>
      <trkpt lat="44.96506" lon="6.53484">
        <ele>1396</ele>
        <time>2022-07-17T13:05:38Z</time>
      </trkpt>
      <trkpt lat="44.965" lon="6.53495">
        <ele>1395.6</ele>
        <time>2022-07-17T13:05:39Z</time>
      </trkpt>
      <trkpt lat="44.96495" lon="6.53504">
        <ele>1395.4</ele>
        <time>2022-07-17T13:05:40Z</time>
      </trkpt>
      <trkpt lat="44.96489" lon="6.53515">
        <ele>1395.2</ele>
        <time>2022-07-17T13:05:41Z</time>
      </trkpt>
      <trkpt lat="44.96483" lon="6.53526">
        <ele>1394.8</ele>
        <time>2022-07-17T13:05:42Z</time>
      </trkpt>
      <trkpt lat="44.96477" lon="6.53536">
        <ele>1394.6</ele>
        <time>2022-07-17T13:05:43Z</time>
      </trkpt>
      <trkpt lat="44.96471" lon="6.53547">
        <ele>1394.6</ele>
        <time>2022-07-17T13:05:44Z</time>
      </trkpt>
      <trkpt lat="44.96465" lon="6.53557">
        <ele>1394.2</ele>
        <time>2022-07-17T13:05:45Z</time>
      </trkpt>
      <trkpt lat="44.96458" lon="6.53567">
        <ele>1393.8</ele>
        <time>2022-07-17T13:05:46Z</time>
      </trkpt>
      <trkpt lat="44.96452" lon="6.53577">
        <ele>1393.6</ele>
        <time>2022-07-17T13:05:47Z</time>
      </trkpt>
      <trkpt lat="44.96445" lon="6.53587">
        <ele>1393.4</ele>
        <time>2022-07-17T13:05:48Z</time>
      </trkpt>
      <trkpt lat="44.96439" lon="6.53597">
        <ele>1393.2</ele>
        <time>2022-07-17T13:05:49Z</time>
      </trkpt>
      <trkpt lat="44.96431" lon="6.53606">
        <ele>1393.2</ele>
        <time>2022-07-17T13:05:50Z</time>
      </trkpt>
      <trkpt lat="44.96423" lon="6.53614">
        <ele>1392.8</ele>
        <time>2022-07-17T13:05:51Z</time>
      </trkpt>
      <trkpt lat="44.96415" lon="6.5362">
        <ele>1392.6</ele>
        <time>2022-07-17T13:05:52Z</time>
      </trkpt>
      <trkpt lat="44.96407" lon="6.53627">
        <ele>1392.2</ele>
        <time>2022-07-17T13:05:53Z</time>
      </trkpt>
      <trkpt lat="44.96399" lon="6.53634">
        <ele>1392</ele>
        <time>2022-07-17T13:05:54Z</time>
      </trkpt>
      <trkpt lat="44.9639" lon="6.5364">
        <ele>1391.8</ele>
        <time>2022-07-17T13:05:55Z</time>
      </trkpt>
      <trkpt lat="44.96382" lon="6.53645">
        <ele>1391.8</ele>
        <time>2022-07-17T13:05:56Z</time>
      </trkpt>
      <trkpt lat="44.96373" lon="6.53652">
        <ele>1391.8</ele>
        <time>2022-07-17T13:05:57Z</time>
      </trkpt>
      <trkpt lat="44.96365" lon="6.53658">
        <ele>1391.4</ele>
        <time>2022-07-17T13:05:58Z</time>
      </trkpt>
      <trkpt lat="44.96357" lon="6.53664">
        <ele>1391</ele>
        <time>2022-07-17T13:05:59Z</time>
      </trkpt>
      <trkpt lat="44.96348" lon="6.53671">
        <ele>1390.8</ele>
        <time>2022-07-17T13:06:00Z</time>
      </trkpt>
      <trkpt lat="44.9634" lon="6.53676">
        <ele>1390.8</ele>
        <time>2022-07-17T13:06:01Z</time>
      </trkpt>
      <trkpt lat="44.96332" lon="6.53683">
        <ele>1390.4</ele>
        <time>2022-07-17T13:06:02Z</time>
      </trkpt>
      <trkpt lat="44.96324" lon="6.53689">
        <ele>1390.2</ele>
        <time>2022-07-17T13:06:03Z</time>
      </trkpt>
      <trkpt lat="44.96315" lon="6.53696">
        <ele>1390</ele>
        <time>2022-07-17T13:06:04Z</time>
      </trkpt>
      <trkpt lat="44.96307" lon="6.53703">
        <ele>1389.8</ele>
        <time>2022-07-17T13:06:05Z</time>
      </trkpt>
      <trkpt lat="44.96298" lon="6.53709">
        <ele>1389.8</ele>
        <time>2022-07-17T13:06:06Z</time>
      </trkpt>
      <trkpt lat="44.96289" lon="6.53716">
        <ele>1389.8</ele>
        <time>2022-07-17T13:06:07Z</time>
      </trkpt>
      <trkpt lat="44.96281" lon="6.53722">
        <ele>1389.4</ele>
        <time>2022-07-17T13:06:08Z</time>
      </trkpt>
      <trkpt lat="44.96273" lon="6.53727">
        <ele>1389.2</ele>
        <time>2022-07-17T13:06:09Z</time>
      </trkpt>
      <trkpt lat="44.96264" lon="6.53734">
        <ele>1388.8</ele>
        <time>2022-07-17T13:06:10Z</time>
      </trkpt>
      <trkpt lat="44.96257" lon="6.5374">
        <ele>1388.6</ele>
        <time>2022-07-17T13:06:11Z</time>
      </trkpt>
      <trkpt lat="44.9625" lon="6.53745">
        <ele>1388.6</ele>
        <time>2022-07-17T13:06:12Z</time>
      </trkpt>
      <trkpt lat="44.96242" lon="6.53751">
        <ele>1388.6</ele>
        <time>2022-07-17T13:06:13Z</time>
      </trkpt>
      <trkpt lat="44.96235" lon="6.53757">
        <ele>1388.4</ele>
        <time>2022-07-17T13:06:14Z</time>
      </trkpt>
      <trkpt lat="44.96227" lon="6.53763">
        <ele>1388.4</ele>
        <time>2022-07-17T13:06:15Z</time>
      </trkpt>
      <trkpt lat="44.9622" lon="6.5377">
        <ele>1388.2</ele>
        <time>2022-07-17T13:06:16Z</time>
      </trkpt>
      <trkpt lat="44.96211" lon="6.53777">
        <ele>1387.8</ele>
        <time>2022-07-17T13:06:17Z</time>
      </trkpt>
      <trkpt lat="44.96204" lon="6.53784">
        <ele>1387.6</ele>
        <time>2022-07-17T13:06:18Z</time>
      </trkpt>
      <trkpt lat="44.96196" lon="6.53791">
        <ele>1387.4</ele>
        <time>2022-07-17T13:06:19Z</time>
      </trkpt>
      <trkpt lat="44.96188" lon="6.53799">
        <ele>1387.4</ele>
        <time>2022-07-17T13:06:20Z</time>
      </trkpt>
      <trkpt lat="44.9618" lon="6.53806">
        <ele>1387.2</ele>
        <time>2022-07-17T13:06:21Z</time>
      </trkpt>
      <trkpt lat="44.96172" lon="6.53813">
        <ele>1386.8</ele>
        <time>2022-07-17T13:06:22Z</time>
      </trkpt>
      <trkpt lat="44.96164" lon="6.53818">
        <ele>1386.6</ele>
        <time>2022-07-17T13:06:23Z</time>
      </trkpt>
      <trkpt lat="44.96155" lon="6.53826">
        <ele>1386.6</ele>
        <time>2022-07-17T13:06:24Z</time>
      </trkpt>
      <trkpt lat="44.96147" lon="6.53834">
        <ele>1386.4</ele>
        <time>2022-07-17T13:06:25Z</time>
      </trkpt>
      <trkpt lat="44.96139" lon="6.53842">
        <ele>1386.2</ele>
        <time>2022-07-17T13:06:26Z</time>
      </trkpt>
      <trkpt lat="44.96132" lon="6.53851">
        <ele>1386</ele>
        <time>2022-07-17T13:06:27Z</time>
      </trkpt>
      <trkpt lat="44.96125" lon="6.53858">
        <ele>1385.6</ele>
        <time>2022-07-17T13:06:28Z</time>
      </trkpt>
      <trkpt lat="44.96118" lon="6.53866">
        <ele>1385.6</ele>
        <time>2022-07-17T13:06:29Z</time>
      </trkpt>
      <trkpt lat="44.9611" lon="6.53874">
        <ele>1385.4</ele>
        <time>2022-07-17T13:06:30Z</time>
      </trkpt>
      <trkpt lat="44.96103" lon="6.53881">
        <ele>1385.4</ele>
        <time>2022-07-17T13:06:31Z</time>
      </trkpt>
      <trkpt lat="44.96096" lon="6.53889">
        <ele>1385.4</ele>
        <time>2022-07-17T13:06:32Z</time>
      </trkpt>
      <trkpt lat="44.96089" lon="6.53897">
        <ele>1385.4</ele>
        <time>2022-07-17T13:06:33Z</time>
      </trkpt>
      <trkpt lat="44.96082" lon="6.53903">
        <ele>1385.4</ele>
        <time>2022-07-17T13:06:34Z</time>
      </trkpt>
      <trkpt lat="44.96075" lon="6.53911">
        <ele>1385.4</ele>
        <time>2022-07-17T13:06:35Z</time>
      </trkpt>
      <trkpt lat="44.96068" lon="6.53919">
        <ele>1385</ele>
        <time>2022-07-17T13:06:36Z</time>
      </trkpt>
      <trkpt lat="44.96061" lon="6.53927">
        <ele>1385</ele>
        <time>2022-07-17T13:06:37Z</time>
      </trkpt>
      <trkpt lat="44.96054" lon="6.53935">
        <ele>1385</ele>
        <time>2022-07-17T13:06:38Z</time>
      </trkpt>
      <trkpt lat="44.96047" lon="6.53943">
        <ele>1384.8</ele>
        <time>2022-07-17T13:06:39Z</time>
      </trkpt>
      <trkpt lat="44.96041" lon="6.5395">
        <ele>1384.8</ele>
        <time>2022-07-17T13:06:40Z</time>
      </trkpt>
      <trkpt lat="44.96034" lon="6.53958">
        <ele>1384.8</ele>
        <time>2022-07-17T13:06:41Z</time>
      </trkpt>
      <trkpt lat="44.96028" lon="6.53965">
        <ele>1384.8</ele>
        <time>2022-07-17T13:06:42Z</time>
      </trkpt>
      <trkpt lat="44.96021" lon="6.53973">
        <ele>1384.8</ele>
        <time>2022-07-17T13:06:43Z</time>
      </trkpt>
      <trkpt lat="44.96015" lon="6.5398">
        <ele>1384.6</ele>
        <time>2022-07-17T13:06:44Z</time>
      </trkpt>
      <trkpt lat="44.96008" lon="6.53988">
        <ele>1384.6</ele>
        <time>2022-07-17T13:06:45Z</time>
      </trkpt>
      <trkpt lat="44.96002" lon="6.53995">
        <ele>1384.6</ele>
        <time>2022-07-17T13:06:46Z</time>
      </trkpt>
      <trkpt lat="44.95995" lon="6.54003">
        <ele>1384.6</ele>
        <time>2022-07-17T13:06:47Z</time>
      </trkpt>
      <trkpt lat="44.95989" lon="6.54011">
        <ele>1384.6</ele>
        <time>2022-07-17T13:06:48Z</time>
      </trkpt>
      <trkpt lat="44.95983" lon="6.54018">
        <ele>1384.6</ele>
        <time>2022-07-17T13:06:49Z</time>
      </trkpt>
      <trkpt lat="44.95976" lon="6.54026">
        <ele>1384.6</ele>
        <time>2022-07-17T13:06:50Z</time>
      </trkpt>
      <trkpt lat="44.9597" lon="6.54033">
        <ele>1384.6</ele>
        <time>2022-07-17T13:06:51Z</time>
      </trkpt>
      <trkpt lat="44.95964" lon="6.54041">
        <ele>1384.6</ele>
        <time>2022-07-17T13:06:52Z</time>
      </trkpt>
      <trkpt lat="44.95958" lon="6.54048">
        <ele>1384.6</ele>
        <time>2022-07-17T13:06:53Z</time>
      </trkpt>
      <trkpt lat="44.95951" lon="6.54056">
        <ele>1384.6</ele>
        <time>2022-07-17T13:06:54Z</time>
      </trkpt>
      <trkpt lat="44.95945" lon="6.54063">
        <ele>1384.6</ele>
        <time>2022-07-17T13:06:55Z</time>
      </trkpt>
      <trkpt lat="44.95939" lon="6.5407">
        <ele>1384.6</ele>
        <time>2022-07-17T13:06:56Z</time>
      </trkpt>
      <trkpt lat="44.95932" lon="6.54078">
        <ele>1384.2</ele>
        <time>2022-07-17T13:06:57Z</time>
      </trkpt>
      <trkpt lat="44.95925" lon="6.54086">
        <ele>1384</ele>
        <time>2022-07-17T13:06:58Z</time>
      </trkpt>
      <trkpt lat="44.95918" lon="6.54093">
        <ele>1384</ele>
        <time>2022-07-17T13:06:59Z</time>
      </trkpt>
      <trkpt lat="44.95911" lon="6.54101">
        <ele>1383.6</ele>
        <time>2022-07-17T13:07:00Z</time>
      </trkpt>
      <trkpt lat="44.95904" lon="6.54109">
        <ele>1383.6</ele>
        <time>2022-07-17T13:07:01Z</time>
      </trkpt>
      <trkpt lat="44.95896" lon="6.54119">
        <ele>1383</ele>
        <time>2022-07-17T13:07:02Z</time>
      </trkpt>
      <trkpt lat="44.95889" lon="6.54128">
        <ele>1383</ele>
        <time>2022-07-17T13:07:03Z</time>
      </trkpt>
      <trkpt lat="44.95881" lon="6.54137">
        <ele>1382.6</ele>
        <time>2022-07-17T13:07:04Z</time>
      </trkpt>
      <trkpt lat="44.95873" lon="6.54146">
        <ele>1382.2</ele>
        <time>2022-07-17T13:07:05Z</time>
      </trkpt>
      <trkpt lat="44.95865" lon="6.54156">
        <ele>1381.8</ele>
        <time>2022-07-17T13:07:06Z</time>
      </trkpt>
      <trkpt lat="44.95856" lon="6.54166">
        <ele>1381.6</ele>
        <time>2022-07-17T13:07:07Z</time>
      </trkpt>
      <trkpt lat="44.95849" lon="6.54175">
        <ele>1381.2</ele>
        <time>2022-07-17T13:07:08Z</time>
      </trkpt>
      <trkpt lat="44.95842" lon="6.54185">
        <ele>1381</ele>
        <time>2022-07-17T13:07:09Z</time>
      </trkpt>
      <trkpt lat="44.95835" lon="6.54196">
        <ele>1380.6</ele>
        <time>2022-07-17T13:07:10Z</time>
      </trkpt>
      <trkpt lat="44.95829" lon="6.54208">
        <ele>1380.2</ele>
        <time>2022-07-17T13:07:11Z</time>
      </trkpt>
      <trkpt lat="44.95824" lon="6.54221">
        <ele>1380</ele>
        <time>2022-07-17T13:07:12Z</time>
      </trkpt>
      <trkpt lat="44.95819" lon="6.54233">
        <ele>1380</ele>
        <time>2022-07-17T13:07:13Z</time>
      </trkpt>
      <trkpt lat="44.95815" lon="6.54246">
        <ele>1379.6</ele>
        <time>2022-07-17T13:07:14Z</time>
      </trkpt>
      <trkpt lat="44.95812" lon="6.54259">
        <ele>1379.6</ele>
        <time>2022-07-17T13:07:15Z</time>
      </trkpt>
      <trkpt lat="44.95809" lon="6.54271">
        <ele>1379.2</ele>
        <time>2022-07-17T13:07:16Z</time>
      </trkpt>
      <trkpt lat="44.95807" lon="6.54284">
        <ele>1379.2</ele>
        <time>2022-07-17T13:07:17Z</time>
      </trkpt>
      <trkpt lat="44.95805" lon="6.54297">
        <ele>1379.2</ele>
        <time>2022-07-17T13:07:18Z</time>
      </trkpt>
      <trkpt lat="44.95803" lon="6.54311">
        <ele>1379</ele>
        <time>2022-07-17T13:07:19Z</time>
      </trkpt>
      <trkpt lat="44.95801" lon="6.54323">
        <ele>1379</ele>
        <time>2022-07-17T13:07:20Z</time>
      </trkpt>
      <trkpt lat="44.95799" lon="6.54336">
        <ele>1378.6</ele>
        <time>2022-07-17T13:07:21Z</time>
      </trkpt>
      <trkpt lat="44.95797" lon="6.54349">
        <ele>1378.4</ele>
        <time>2022-07-17T13:07:22Z</time>
      </trkpt>
      <trkpt lat="44.95794" lon="6.54363">
        <ele>1378.4</ele>
        <time>2022-07-17T13:07:23Z</time>
      </trkpt>
      <trkpt lat="44.95791" lon="6.54376">
        <ele>1378.6</ele>
        <time>2022-07-17T13:07:24Z</time>
      </trkpt>
      <trkpt lat="44.95789" lon="6.54389">
        <ele>1378.6</ele>
        <time>2022-07-17T13:07:25Z</time>
      </trkpt>
      <trkpt lat="44.95786" lon="6.54403">
        <ele>1378.6</ele>
        <time>2022-07-17T13:07:26Z</time>
      </trkpt>
      <trkpt lat="44.95784" lon="6.54417">
        <ele>1378.6</ele>
        <time>2022-07-17T13:07:27Z</time>
      </trkpt>
      <trkpt lat="44.95783" lon="6.54431">
        <ele>1378.6</ele>
        <time>2022-07-17T13:07:28Z</time>
      </trkpt>
      <trkpt lat="44.9578" lon="6.54443">
        <ele>1378.4</ele>
        <time>2022-07-17T13:07:29Z</time>
      </trkpt>
      <trkpt lat="44.95779" lon="6.54455">
        <ele>1378.2</ele>
        <time>2022-07-17T13:07:30Z</time>
      </trkpt>
      <trkpt lat="44.95776" lon="6.54467">
        <ele>1378.2</ele>
        <time>2022-07-17T13:07:31Z</time>
      </trkpt>
      <trkpt lat="44.95774" lon="6.5448">
        <ele>1378</ele>
        <time>2022-07-17T13:07:32Z</time>
      </trkpt>
      <trkpt lat="44.95771" lon="6.54491">
        <ele>1378</ele>
        <time>2022-07-17T13:07:33Z</time>
      </trkpt>
      <trkpt lat="44.95768" lon="6.54503">
        <ele>1377.6</ele>
        <time>2022-07-17T13:07:34Z</time>
      </trkpt>
      <trkpt lat="44.95766" lon="6.54515">
        <ele>1377.6</ele>
        <time>2022-07-17T13:07:35Z</time>
      </trkpt>
      <trkpt lat="44.95763" lon="6.54527">
        <ele>1377.4</ele>
        <time>2022-07-17T13:07:36Z</time>
      </trkpt>
      <trkpt lat="44.9576" lon="6.54538">
        <ele>1377.4</ele>
        <time>2022-07-17T13:07:37Z</time>
      </trkpt>
      <trkpt lat="44.95757" lon="6.54549">
        <ele>1377</ele>
        <time>2022-07-17T13:07:38Z</time>
      </trkpt>
      <trkpt lat="44.95753" lon="6.5456">
        <ele>1377</ele>
        <time>2022-07-17T13:07:39Z</time>
      </trkpt>
      <trkpt lat="44.95749" lon="6.5457">
        <ele>1377</ele>
        <time>2022-07-17T13:07:40Z</time>
      </trkpt>
      <trkpt lat="44.95744" lon="6.54581">
        <ele>1376.8</ele>
        <time>2022-07-17T13:07:41Z</time>
      </trkpt>
      <trkpt lat="44.95739" lon="6.5459">
        <ele>1376.8</ele>
        <time>2022-07-17T13:07:42Z</time>
      </trkpt>
      <trkpt lat="44.95734" lon="6.546">
        <ele>1376.4</ele>
        <time>2022-07-17T13:07:43Z</time>
      </trkpt>
      <trkpt lat="44.95729" lon="6.54609">
        <ele>1376.4</ele>
        <time>2022-07-17T13:07:44Z</time>
      </trkpt>
      <trkpt lat="44.95723" lon="6.54618">
        <ele>1376.4</ele>
        <time>2022-07-17T13:07:45Z</time>
      </trkpt>
      <trkpt lat="44.95718" lon="6.54627">
        <ele>1376.4</ele>
        <time>2022-07-17T13:07:46Z</time>
      </trkpt>
      <trkpt lat="44.95712" lon="6.54635">
        <ele>1376</ele>
        <time>2022-07-17T13:07:47Z</time>
      </trkpt>
      <trkpt lat="44.95707" lon="6.54644">
        <ele>1376</ele>
        <time>2022-07-17T13:07:48Z</time>
      </trkpt>
      <trkpt lat="44.95701" lon="6.54653">
        <ele>1375.6</ele>
        <time>2022-07-17T13:07:49Z</time>
      </trkpt>
      <trkpt lat="44.95696" lon="6.54661">
        <ele>1375.6</ele>
        <time>2022-07-17T13:07:50Z</time>
      </trkpt>
      <trkpt lat="44.9569" lon="6.5467">
        <ele>1375.2</ele>
        <time>2022-07-17T13:07:51Z</time>
      </trkpt>
      <trkpt lat="44.95685" lon="6.54678">
        <ele>1375.2</ele>
        <time>2022-07-17T13:07:52Z</time>
      </trkpt>
      <trkpt lat="44.9568" lon="6.54687">
        <ele>1375</ele>
        <time>2022-07-17T13:07:53Z</time>
      </trkpt>
      <trkpt lat="44.95674" lon="6.54696">
        <ele>1375</ele>
        <time>2022-07-17T13:07:54Z</time>
      </trkpt>
      <trkpt lat="44.95669" lon="6.54704">
        <ele>1374.8</ele>
        <time>2022-07-17T13:07:55Z</time>
      </trkpt>
      <trkpt lat="44.95663" lon="6.54713">
        <ele>1374.8</ele>
        <time>2022-07-17T13:07:56Z</time>
      </trkpt>
      <trkpt lat="44.95658" lon="6.54722">
        <ele>1374.4</ele>
        <time>2022-07-17T13:07:57Z</time>
      </trkpt>
      <trkpt lat="44.95652" lon="6.5473">
        <ele>1374.4</ele>
        <time>2022-07-17T13:07:58Z</time>
      </trkpt>
      <trkpt lat="44.95647" lon="6.54739">
        <ele>1374.4</ele>
        <time>2022-07-17T13:07:59Z</time>
      </trkpt>
      <trkpt lat="44.95642" lon="6.54748">
        <ele>1374.2</ele>
        <time>2022-07-17T13:08:00Z</time>
      </trkpt>
      <trkpt lat="44.95636" lon="6.54757">
        <ele>1374.2</ele>
        <time>2022-07-17T13:08:01Z</time>
      </trkpt>
      <trkpt lat="44.95631" lon="6.54765">
        <ele>1373.8</ele>
        <time>2022-07-17T13:08:02Z</time>
      </trkpt>
      <trkpt lat="44.95626" lon="6.54774">
        <ele>1373.8</ele>
        <time>2022-07-17T13:08:03Z</time>
      </trkpt>
      <trkpt lat="44.9562" lon="6.54783">
        <ele>1373.8</ele>
        <time>2022-07-17T13:08:04Z</time>
      </trkpt>
      <trkpt lat="44.95615" lon="6.54791">
        <ele>1373.8</ele>
        <time>2022-07-17T13:08:05Z</time>
      </trkpt>
      <trkpt lat="44.9561" lon="6.548">
        <ele>1373.4</ele>
        <time>2022-07-17T13:08:06Z</time>
      </trkpt>
      <trkpt lat="44.95605" lon="6.54808">
        <ele>1373.4</ele>
        <time>2022-07-17T13:08:07Z</time>
      </trkpt>
      <trkpt lat="44.956" lon="6.54816">
        <ele>1373.4</ele>
        <time>2022-07-17T13:08:08Z</time>
      </trkpt>
      <trkpt lat="44.95594" lon="6.54824">
        <ele>1373.4</ele>
        <time>2022-07-17T13:08:09Z</time>
      </trkpt>
      <trkpt lat="44.95589" lon="6.54832">
        <ele>1373.2</ele>
        <time>2022-07-17T13:08:10Z</time>
      </trkpt>
      <trkpt lat="44.95583" lon="6.5484">
        <ele>1373.2</ele>
        <time>2022-07-17T13:08:11Z</time>
      </trkpt>
      <trkpt lat="44.95577" lon="6.54847">
        <ele>1373</ele>
        <time>2022-07-17T13:08:12Z</time>
      </trkpt>
      <trkpt lat="44.9557" lon="6.54854">
        <ele>1373</ele>
        <time>2022-07-17T13:08:13Z</time>
      </trkpt>
      <trkpt lat="44.95564" lon="6.5486">
        <ele>1373</ele>
        <time>2022-07-17T13:08:14Z</time>
      </trkpt>
      <trkpt lat="44.95557" lon="6.54866">
        <ele>1373</ele>
        <time>2022-07-17T13:08:15Z</time>
      </trkpt>
      <trkpt lat="44.9555" lon="6.54872">
        <ele>1372.6</ele>
        <time>2022-07-17T13:08:16Z</time>
      </trkpt>
      <trkpt lat="44.95544" lon="6.54878">
        <ele>1372.6</ele>
        <time>2022-07-17T13:08:17Z</time>
      </trkpt>
      <trkpt lat="44.95537" lon="6.54883">
        <ele>1372.8</ele>
        <time>2022-07-17T13:08:18Z</time>
      </trkpt>
      <trkpt lat="44.95531" lon="6.54889">
        <ele>1372.8</ele>
        <time>2022-07-17T13:08:19Z</time>
      </trkpt>
      <trkpt lat="44.95525" lon="6.54894">
        <ele>1372.8</ele>
        <time>2022-07-17T13:08:20Z</time>
      </trkpt>
      <trkpt lat="44.95519" lon="6.54899">
        <ele>1372.8</ele>
        <time>2022-07-17T13:08:21Z</time>
      </trkpt>
      <trkpt lat="44.95512" lon="6.54905">
        <ele>1372.8</ele>
        <time>2022-07-17T13:08:22Z</time>
      </trkpt>
      <trkpt lat="44.95506" lon="6.5491">
        <ele>1372.8</ele>
        <time>2022-07-17T13:08:23Z</time>
      </trkpt>
      <trkpt lat="44.955" lon="6.54915">
        <ele>1372.8</ele>
        <time>2022-07-17T13:08:24Z</time>
      </trkpt>
      <trkpt lat="44.95494" lon="6.5492">
        <ele>1372.6</ele>
        <time>2022-07-17T13:08:25Z</time>
      </trkpt>
      <trkpt lat="44.95487" lon="6.54925">
        <ele>1373</ele>
        <time>2022-07-17T13:08:26Z</time>
      </trkpt>
      <trkpt lat="44.95481" lon="6.54931">
        <ele>1373</ele>
        <time>2022-07-17T13:08:27Z</time>
      </trkpt>
      <trkpt lat="44.95475" lon="6.54936">
        <ele>1373</ele>
        <time>2022-07-17T13:08:28Z</time>
      </trkpt>
      <trkpt lat="44.95468" lon="6.54941">
        <ele>1372.6</ele>
        <time>2022-07-17T13:08:29Z</time>
      </trkpt>
      <trkpt lat="44.95462" lon="6.54946">
        <ele>1372.8</ele>
        <time>2022-07-17T13:08:30Z</time>
      </trkpt>
      <trkpt lat="44.95456" lon="6.54951">
        <ele>1372.8</ele>
        <time>2022-07-17T13:08:31Z</time>
      </trkpt>
      <trkpt lat="44.95449" lon="6.54957">
        <ele>1372.6</ele>
        <time>2022-07-17T13:08:32Z</time>
      </trkpt>
      <trkpt lat="44.95443" lon="6.54962">
        <ele>1372.6</ele>
        <time>2022-07-17T13:08:33Z</time>
      </trkpt>
      <trkpt lat="44.95437" lon="6.54967">
        <ele>1372.6</ele>
        <time>2022-07-17T13:08:34Z</time>
      </trkpt>
      <trkpt lat="44.95431" lon="6.54973">
        <ele>1372.6</ele>
        <time>2022-07-17T13:08:35Z</time>
      </trkpt>
      <trkpt lat="44.95425" lon="6.54978">
        <ele>1372.6</ele>
        <time>2022-07-17T13:08:36Z</time>
      </trkpt>
      <trkpt lat="44.95419" lon="6.54984">
        <ele>1372.6</ele>
        <time>2022-07-17T13:08:37Z</time>
      </trkpt>
      <trkpt lat="44.95414" lon="6.54991">
        <ele>1372.6</ele>
        <time>2022-07-17T13:08:38Z</time>
      </trkpt>
      <trkpt lat="44.95409" lon="6.54998">
        <ele>1372.6</ele>
        <time>2022-07-17T13:08:39Z</time>
      </trkpt>
      <trkpt lat="44.95404" lon="6.55005">
        <ele>1372.6</ele>
        <time>2022-07-17T13:08:40Z</time>
      </trkpt>
      <trkpt lat="44.95399" lon="6.55013">
        <ele>1372.2</ele>
        <time>2022-07-17T13:08:41Z</time>
      </trkpt>
      <trkpt lat="44.95394" lon="6.5502">
        <ele>1372.2</ele>
        <time>2022-07-17T13:08:42Z</time>
      </trkpt>
      <trkpt lat="44.9539" lon="6.55029">
        <ele>1372</ele>
        <time>2022-07-17T13:08:43Z</time>
      </trkpt>
      <trkpt lat="44.95385" lon="6.55037">
        <ele>1371.6</ele>
        <time>2022-07-17T13:08:44Z</time>
      </trkpt>
      <trkpt lat="44.95381" lon="6.55045">
        <ele>1371.4</ele>
        <time>2022-07-17T13:08:45Z</time>
      </trkpt>
      <trkpt lat="44.95376" lon="6.55053">
        <ele>1371</ele>
        <time>2022-07-17T13:08:46Z</time>
      </trkpt>
      <trkpt lat="44.95372" lon="6.55061">
        <ele>1370.8</ele>
        <time>2022-07-17T13:08:47Z</time>
      </trkpt>
      <trkpt lat="44.95367" lon="6.55069">
        <ele>1370.8</ele>
        <time>2022-07-17T13:08:48Z</time>
      </trkpt>
      <trkpt lat="44.95362" lon="6.55077">
        <ele>1370.8</ele>
        <time>2022-07-17T13:08:49Z</time>
      </trkpt>
      <trkpt lat="44.95357" lon="6.55085">
        <ele>1370.8</ele>
        <time>2022-07-17T13:08:50Z</time>
      </trkpt>
      <trkpt lat="44.95352" lon="6.55092">
        <ele>1370.8</ele>
        <time>2022-07-17T13:08:51Z</time>
      </trkpt>
      <trkpt lat="44.95347" lon="6.551">
        <ele>1370.8</ele>
        <time>2022-07-17T13:08:52Z</time>
      </trkpt>
      <trkpt lat="44.95341" lon="6.55108">
        <ele>1370.6</ele>
        <time>2022-07-17T13:08:53Z</time>
      </trkpt>
      <trkpt lat="44.95336" lon="6.55116">
        <ele>1370.6</ele>
        <time>2022-07-17T13:08:54Z</time>
      </trkpt>
      <trkpt lat="44.95331" lon="6.55123">
        <ele>1370.6</ele>
        <time>2022-07-17T13:08:55Z</time>
      </trkpt>
      <trkpt lat="44.95325" lon="6.55131">
        <ele>1370.2</ele>
        <time>2022-07-17T13:08:56Z</time>
      </trkpt>
      <trkpt lat="44.9532" lon="6.55139">
        <ele>1370.2</ele>
        <time>2022-07-17T13:08:57Z</time>
      </trkpt>
      <trkpt lat="44.95315" lon="6.55147">
        <ele>1370.2</ele>
        <time>2022-07-17T13:08:58Z</time>
      </trkpt>
      <trkpt lat="44.9531" lon="6.55155">
        <ele>1370.2</ele>
        <time>2022-07-17T13:08:59Z</time>
      </trkpt>
      <trkpt lat="44.95304" lon="6.55162">
        <ele>1370</ele>
        <time>2022-07-17T13:09:00Z</time>
      </trkpt>
      <trkpt lat="44.95299" lon="6.5517">
        <ele>1370</ele>
        <time>2022-07-17T13:09:01Z</time>
      </trkpt>
      <trkpt lat="44.95294" lon="6.55178">
        <ele>1369.8</ele>
        <time>2022-07-17T13:09:02Z</time>
      </trkpt>
      <trkpt lat="44.95288" lon="6.55186">
        <ele>1369.8</ele>
        <time>2022-07-17T13:09:03Z</time>
      </trkpt>
      <trkpt lat="44.95283" lon="6.55193">
        <ele>1369.8</ele>
        <time>2022-07-17T13:09:04Z</time>
      </trkpt>
      <trkpt lat="44.95277" lon="6.55201">
        <ele>1369.6</ele>
        <time>2022-07-17T13:09:05Z</time>
      </trkpt>
      <trkpt lat="44.95272" lon="6.55209">
        <ele>1369.6</ele>
        <time>2022-07-17T13:09:06Z</time>
      </trkpt>
      <trkpt lat="44.95266" lon="6.55217">
        <ele>1369.6</ele>
        <time>2022-07-17T13:09:07Z</time>
      </trkpt>
      <trkpt lat="44.95255" lon="6.55233">
        <ele>1369.2</ele>
        <time>2022-07-17T13:09:08Z</time>
      </trkpt>
      <trkpt lat="44.95249" lon="6.55241">
        <ele>1369.2</ele>
        <time>2022-07-17T13:09:09Z</time>
      </trkpt>
      <trkpt lat="44.95244" lon="6.55249">
        <ele>1369</ele>
        <time>2022-07-17T13:09:11Z</time>
      </trkpt>
      <trkpt lat="44.95238" lon="6.55257">
        <ele>1369</ele>
        <time>2022-07-17T13:09:12Z</time>
      </trkpt>
      <trkpt lat="44.95232" lon="6.55265">
        <ele>1369</ele>
        <time>2022-07-17T13:09:13Z</time>
      </trkpt>
      <trkpt lat="44.95226" lon="6.55273">
        <ele>1368.8</ele>
        <time>2022-07-17T13:09:14Z</time>
      </trkpt>
      <trkpt lat="44.95221" lon="6.55281">
        <ele>1368.6</ele>
        <time>2022-07-17T13:09:15Z</time>
      </trkpt>
      <trkpt lat="44.95214" lon="6.55289">
        <ele>1368.6</ele>
        <time>2022-07-17T13:09:16Z</time>
      </trkpt>
      <trkpt lat="44.95209" lon="6.55297">
        <ele>1368.6</ele>
        <time>2022-07-17T13:09:17Z</time>
      </trkpt>
      <trkpt lat="44.95203" lon="6.55305">
        <ele>1368.2</ele>
        <time>2022-07-17T13:09:18Z</time>
      </trkpt>
      <trkpt lat="44.95198" lon="6.55313">
        <ele>1368.2</ele>
        <time>2022-07-17T13:09:19Z</time>
      </trkpt>
      <trkpt lat="44.95193" lon="6.5532">
        <ele>1368</ele>
        <time>2022-07-17T13:09:20Z</time>
      </trkpt>
      <trkpt lat="44.95187" lon="6.55328">
        <ele>1368</ele>
        <time>2022-07-17T13:09:21Z</time>
      </trkpt>
      <trkpt lat="44.95182" lon="6.55335">
        <ele>1368</ele>
        <time>2022-07-17T13:09:22Z</time>
      </trkpt>
      <trkpt lat="44.95177" lon="6.55343">
        <ele>1368</ele>
        <time>2022-07-17T13:09:23Z</time>
      </trkpt>
      <trkpt lat="44.95172" lon="6.5535">
        <ele>1368</ele>
        <time>2022-07-17T13:09:24Z</time>
      </trkpt>
      <trkpt lat="44.95167" lon="6.55357">
        <ele>1367.8</ele>
        <time>2022-07-17T13:09:25Z</time>
      </trkpt>
      <trkpt lat="44.95162" lon="6.55364">
        <ele>1367.8</ele>
        <time>2022-07-17T13:09:26Z</time>
      </trkpt>
      <trkpt lat="44.95157" lon="6.55371">
        <ele>1367.6</ele>
        <time>2022-07-17T13:09:27Z</time>
      </trkpt>
      <trkpt lat="44.95152" lon="6.55378">
        <ele>1367.6</ele>
        <time>2022-07-17T13:09:28Z</time>
      </trkpt>
      <trkpt lat="44.95147" lon="6.55384">
        <ele>1367.6</ele>
        <time>2022-07-17T13:09:29Z</time>
      </trkpt>
      <trkpt lat="44.95143" lon="6.55391">
        <ele>1367.6</ele>
        <time>2022-07-17T13:09:30Z</time>
      </trkpt>
      <trkpt lat="44.95138" lon="6.55398">
        <ele>1367.2</ele>
        <time>2022-07-17T13:09:31Z</time>
      </trkpt>
      <trkpt lat="44.95133" lon="6.55404">
        <ele>1367.2</ele>
        <time>2022-07-17T13:09:32Z</time>
      </trkpt>
      <trkpt lat="44.95128" lon="6.55411">
        <ele>1367.2</ele>
        <time>2022-07-17T13:09:33Z</time>
      </trkpt>
      <trkpt lat="44.95123" lon="6.55418">
        <ele>1367</ele>
        <time>2022-07-17T13:09:34Z</time>
      </trkpt>
      <trkpt lat="44.95117" lon="6.55426">
        <ele>1367</ele>
        <time>2022-07-17T13:09:35Z</time>
      </trkpt>
      <trkpt lat="44.95112" lon="6.55433">
        <ele>1367</ele>
        <time>2022-07-17T13:09:36Z</time>
      </trkpt>
      <trkpt lat="44.95107" lon="6.55441">
        <ele>1367</ele>
        <time>2022-07-17T13:09:37Z</time>
      </trkpt>
      <trkpt lat="44.95101" lon="6.55448">
        <ele>1366.8</ele>
        <time>2022-07-17T13:09:38Z</time>
      </trkpt>
      <trkpt lat="44.95096" lon="6.55456">
        <ele>1366.8</ele>
        <time>2022-07-17T13:09:39Z</time>
      </trkpt>
      <trkpt lat="44.9509" lon="6.55463">
        <ele>1366.8</ele>
        <time>2022-07-17T13:09:40Z</time>
      </trkpt>
      <trkpt lat="44.95085" lon="6.55471">
        <ele>1366.8</ele>
        <time>2022-07-17T13:09:41Z</time>
      </trkpt>
      <trkpt lat="44.95079" lon="6.55478">
        <ele>1366.8</ele>
        <time>2022-07-17T13:09:42Z</time>
      </trkpt>
      <trkpt lat="44.95074" lon="6.55486">
        <ele>1366.6</ele>
        <time>2022-07-17T13:09:43Z</time>
      </trkpt>
      <trkpt lat="44.95069" lon="6.55493">
        <ele>1366.6</ele>
        <time>2022-07-17T13:09:44Z</time>
      </trkpt>
      <trkpt lat="44.95063" lon="6.55501">
        <ele>1366.6</ele>
        <time>2022-07-17T13:09:45Z</time>
      </trkpt>
      <trkpt lat="44.95057" lon="6.55508">
        <ele>1366.6</ele>
        <time>2022-07-17T13:09:46Z</time>
      </trkpt>
      <trkpt lat="44.95051" lon="6.55515">
        <ele>1366.2</ele>
        <time>2022-07-17T13:09:47Z</time>
      </trkpt>
      <trkpt lat="44.95045" lon="6.55522">
        <ele>1366.2</ele>
        <time>2022-07-17T13:09:48Z</time>
      </trkpt>
      <trkpt lat="44.9504" lon="6.5553">
        <ele>1366</ele>
        <time>2022-07-17T13:09:49Z</time>
      </trkpt>
      <trkpt lat="44.95034" lon="6.55537">
        <ele>1366</ele>
        <time>2022-07-17T13:09:50Z</time>
      </trkpt>
      <trkpt lat="44.95028" lon="6.55544">
        <ele>1366</ele>
        <time>2022-07-17T13:09:51Z</time>
      </trkpt>
      <trkpt lat="44.95023" lon="6.55552">
        <ele>1366</ele>
        <time>2022-07-17T13:09:52Z</time>
      </trkpt>
      <trkpt lat="44.95017" lon="6.55559">
        <ele>1365.6</ele>
        <time>2022-07-17T13:09:53Z</time>
      </trkpt>
      <trkpt lat="44.95012" lon="6.55567">
        <ele>1365.6</ele>
        <time>2022-07-17T13:09:54Z</time>
      </trkpt>
      <trkpt lat="44.95006" lon="6.55574">
        <ele>1365.6</ele>
        <time>2022-07-17T13:09:55Z</time>
      </trkpt>
      <trkpt lat="44.95001" lon="6.55581">
        <ele>1365.6</ele>
        <time>2022-07-17T13:09:56Z</time>
      </trkpt>
      <trkpt lat="44.94996" lon="6.55588">
        <ele>1365.6</ele>
        <time>2022-07-17T13:09:57Z</time>
      </trkpt>
      <trkpt lat="44.94991" lon="6.55595">
        <ele>1365.6</ele>
        <time>2022-07-17T13:09:58Z</time>
      </trkpt>
      <trkpt lat="44.94986" lon="6.55602">
        <ele>1365.6</ele>
        <time>2022-07-17T13:09:59Z</time>
      </trkpt>
      <trkpt lat="44.94981" lon="6.5561">
        <ele>1365.6</ele>
        <time>2022-07-17T13:10:00Z</time>
      </trkpt>
      <trkpt lat="44.94977" lon="6.55617">
        <ele>1365.6</ele>
        <time>2022-07-17T13:10:01Z</time>
      </trkpt>
      <trkpt lat="44.94972" lon="6.55624">
        <ele>1365.6</ele>
        <time>2022-07-17T13:10:02Z</time>
      </trkpt>
      <trkpt lat="44.94967" lon="6.55631">
        <ele>1365.6</ele>
        <time>2022-07-17T13:10:03Z</time>
      </trkpt>
      <trkpt lat="44.94962" lon="6.55638">
        <ele>1365.6</ele>
        <time>2022-07-17T13:10:04Z</time>
      </trkpt>
      <trkpt lat="44.94958" lon="6.55645">
        <ele>1365.6</ele>
        <time>2022-07-17T13:10:05Z</time>
      </trkpt>
      <trkpt lat="44.94953" lon="6.55652">
        <ele>1365.6</ele>
        <time>2022-07-17T13:10:06Z</time>
      </trkpt>
      <trkpt lat="44.94949" lon="6.55658">
        <ele>1365.6</ele>
        <time>2022-07-17T13:10:07Z</time>
      </trkpt>
      <trkpt lat="44.94944" lon="6.55665">
        <ele>1365.6</ele>
        <time>2022-07-17T13:10:08Z</time>
      </trkpt>
      <trkpt lat="44.94939" lon="6.55672">
        <ele>1365.6</ele>
        <time>2022-07-17T13:10:09Z</time>
      </trkpt>
      <trkpt lat="44.94935" lon="6.55679">
        <ele>1365.6</ele>
        <time>2022-07-17T13:10:10Z</time>
      </trkpt>
      <trkpt lat="44.9493" lon="6.55686">
        <ele>1365.6</ele>
        <time>2022-07-17T13:10:11Z</time>
      </trkpt>
      <trkpt lat="44.94925" lon="6.55692">
        <ele>1365.6</ele>
        <time>2022-07-17T13:10:12Z</time>
      </trkpt>
      <trkpt lat="44.9492" lon="6.55699">
        <ele>1365.4</ele>
        <time>2022-07-17T13:10:14Z</time>
      </trkpt>
      <trkpt lat="44.94911" lon="6.55712">
        <ele>1365.4</ele>
        <time>2022-07-17T13:10:15Z</time>
      </trkpt>
      <trkpt lat="44.94905" lon="6.55719">
        <ele>1365.4</ele>
        <time>2022-07-17T13:10:16Z</time>
      </trkpt>
      <trkpt lat="44.949" lon="6.55726">
        <ele>1365.2</ele>
        <time>2022-07-17T13:10:17Z</time>
      </trkpt>
      <trkpt lat="44.94895" lon="6.55733">
        <ele>1364.8</ele>
        <time>2022-07-17T13:10:18Z</time>
      </trkpt>
      <trkpt lat="44.9489" lon="6.5574">
        <ele>1364.8</ele>
        <time>2022-07-17T13:10:19Z</time>
      </trkpt>
      <trkpt lat="44.94885" lon="6.55747">
        <ele>1364.4</ele>
        <time>2022-07-17T13:10:20Z</time>
      </trkpt>
      <trkpt lat="44.94879" lon="6.55754">
        <ele>1364.2</ele>
        <time>2022-07-17T13:10:21Z</time>
      </trkpt>
      <trkpt lat="44.94874" lon="6.55761">
        <ele>1364</ele>
        <time>2022-07-17T13:10:22Z</time>
      </trkpt>
      <trkpt lat="44.94868" lon="6.55768">
        <ele>1363.8</ele>
        <time>2022-07-17T13:10:23Z</time>
      </trkpt>
      <trkpt lat="44.94863" lon="6.55775">
        <ele>1363.8</ele>
        <time>2022-07-17T13:10:24Z</time>
      </trkpt>
      <trkpt lat="44.94857" lon="6.55782">
        <ele>1363.4</ele>
        <time>2022-07-17T13:10:25Z</time>
      </trkpt>
      <trkpt lat="44.94851" lon="6.5579">
        <ele>1363.4</ele>
        <time>2022-07-17T13:10:26Z</time>
      </trkpt>
      <trkpt lat="44.94845" lon="6.55798">
        <ele>1363.2</ele>
        <time>2022-07-17T13:10:27Z</time>
      </trkpt>
      <trkpt lat="44.94839" lon="6.55805">
        <ele>1362.8</ele>
        <time>2022-07-17T13:10:28Z</time>
      </trkpt>
      <trkpt lat="44.94833" lon="6.55813">
        <ele>1362.8</ele>
        <time>2022-07-17T13:10:29Z</time>
      </trkpt>
      <trkpt lat="44.94827" lon="6.55821">
        <ele>1362.6</ele>
        <time>2022-07-17T13:10:30Z</time>
      </trkpt>
      <trkpt lat="44.94821" lon="6.55829">
        <ele>1362.6</ele>
        <time>2022-07-17T13:10:31Z</time>
      </trkpt>
      <trkpt lat="44.94815" lon="6.55836">
        <ele>1362.2</ele>
        <time>2022-07-17T13:10:32Z</time>
      </trkpt>
      <trkpt lat="44.94808" lon="6.55844">
        <ele>1362</ele>
        <time>2022-07-17T13:10:33Z</time>
      </trkpt>
      <trkpt lat="44.94802" lon="6.55851">
        <ele>1361.8</ele>
        <time>2022-07-17T13:10:34Z</time>
      </trkpt>
      <trkpt lat="44.94795" lon="6.55858">
        <ele>1361.6</ele>
        <time>2022-07-17T13:10:35Z</time>
      </trkpt>
      <trkpt lat="44.94787" lon="6.55864">
        <ele>1361.2</ele>
        <time>2022-07-17T13:10:36Z</time>
      </trkpt>
      <trkpt lat="44.9478" lon="6.55871">
        <ele>1361</ele>
        <time>2022-07-17T13:10:37Z</time>
      </trkpt>
      <trkpt lat="44.94773" lon="6.55877">
        <ele>1360.8</ele>
        <time>2022-07-17T13:10:38Z</time>
      </trkpt>
      <trkpt lat="44.94766" lon="6.55883">
        <ele>1360.4</ele>
        <time>2022-07-17T13:10:39Z</time>
      </trkpt>
      <trkpt lat="44.94758" lon="6.55889">
        <ele>1360.4</ele>
        <time>2022-07-17T13:10:40Z</time>
      </trkpt>
      <trkpt lat="44.94751" lon="6.55895">
        <ele>1360.4</ele>
        <time>2022-07-17T13:10:41Z</time>
      </trkpt>
      <trkpt lat="44.94744" lon="6.559">
        <ele>1360.2</ele>
        <time>2022-07-17T13:10:42Z</time>
      </trkpt>
      <trkpt lat="44.94736" lon="6.55905">
        <ele>1360.2</ele>
        <time>2022-07-17T13:10:43Z</time>
      </trkpt>
      <trkpt lat="44.94729" lon="6.5591">
        <ele>1360.2</ele>
        <time>2022-07-17T13:10:44Z</time>
      </trkpt>
      <trkpt lat="44.94721" lon="6.55914">
        <ele>1359.8</ele>
        <time>2022-07-17T13:10:45Z</time>
      </trkpt>
      <trkpt lat="44.94714" lon="6.55918">
        <ele>1359.8</ele>
        <time>2022-07-17T13:10:46Z</time>
      </trkpt>
      <trkpt lat="44.94707" lon="6.55922">
        <ele>1359.8</ele>
        <time>2022-07-17T13:10:47Z</time>
      </trkpt>
      <trkpt lat="44.947" lon="6.55926">
        <ele>1359.8</ele>
        <time>2022-07-17T13:10:48Z</time>
      </trkpt>
      <trkpt lat="44.94692" lon="6.5593">
        <ele>1359.8</ele>
        <time>2022-07-17T13:10:49Z</time>
      </trkpt>
      <trkpt lat="44.94685" lon="6.55934">
        <ele>1359.8</ele>
        <time>2022-07-17T13:10:50Z</time>
      </trkpt>
      <trkpt lat="44.94678" lon="6.55938">
        <ele>1359.8</ele>
        <time>2022-07-17T13:10:51Z</time>
      </trkpt>
      <trkpt lat="44.94671" lon="6.55942">
        <ele>1359.8</ele>
        <time>2022-07-17T13:10:52Z</time>
      </trkpt>
      <trkpt lat="44.94664" lon="6.55947">
        <ele>1359.8</ele>
        <time>2022-07-17T13:10:53Z</time>
      </trkpt>
      <trkpt lat="44.94657" lon="6.55952">
        <ele>1359.8</ele>
        <time>2022-07-17T13:10:54Z</time>
      </trkpt>
      <trkpt lat="44.94651" lon="6.55958">
        <ele>1359.8</ele>
        <time>2022-07-17T13:10:55Z</time>
      </trkpt>
      <trkpt lat="44.94644" lon="6.55965">
        <ele>1359.4</ele>
        <time>2022-07-17T13:10:56Z</time>
      </trkpt>
      <trkpt lat="44.94638" lon="6.55972">
        <ele>1359.4</ele>
        <time>2022-07-17T13:10:57Z</time>
      </trkpt>
      <trkpt lat="44.94632" lon="6.55979">
        <ele>1359.2</ele>
        <time>2022-07-17T13:10:58Z</time>
      </trkpt>
      <trkpt lat="44.94627" lon="6.55987">
        <ele>1359.2</ele>
        <time>2022-07-17T13:10:59Z</time>
      </trkpt>
      <trkpt lat="44.94621" lon="6.55995">
        <ele>1359</ele>
        <time>2022-07-17T13:11:00Z</time>
      </trkpt>
      <trkpt lat="44.94616" lon="6.56002">
        <ele>1359</ele>
        <time>2022-07-17T13:11:01Z</time>
      </trkpt>
      <trkpt lat="44.9461" lon="6.5601">
        <ele>1358.6</ele>
        <time>2022-07-17T13:11:02Z</time>
      </trkpt>
      <trkpt lat="44.94605" lon="6.56017">
        <ele>1358.6</ele>
        <time>2022-07-17T13:11:03Z</time>
      </trkpt>
      <trkpt lat="44.94599" lon="6.56025">
        <ele>1358.2</ele>
        <time>2022-07-17T13:11:04Z</time>
      </trkpt>
      <trkpt lat="44.94594" lon="6.56032">
        <ele>1358</ele>
        <time>2022-07-17T13:11:05Z</time>
      </trkpt>
      <trkpt lat="44.94589" lon="6.56039">
        <ele>1358</ele>
        <time>2022-07-17T13:11:06Z</time>
      </trkpt>
      <trkpt lat="44.94583" lon="6.56046">
        <ele>1357.6</ele>
        <time>2022-07-17T13:11:07Z</time>
      </trkpt>
      <trkpt lat="44.94578" lon="6.56052">
        <ele>1357.6</ele>
        <time>2022-07-17T13:11:08Z</time>
      </trkpt>
      <trkpt lat="44.94573" lon="6.56057">
        <ele>1357.4</ele>
        <time>2022-07-17T13:11:09Z</time>
      </trkpt>
      <trkpt lat="44.94568" lon="6.56061">
        <ele>1357.4</ele>
        <time>2022-07-17T13:11:10Z</time>
      </trkpt>
      <trkpt lat="44.94562" lon="6.56064">
        <ele>1357.4</ele>
        <time>2022-07-17T13:11:11Z</time>
      </trkpt>
      <trkpt lat="44.94556" lon="6.56064">
        <ele>1357.4</ele>
        <time>2022-07-17T13:11:12Z</time>
      </trkpt>
      <trkpt lat="44.9455" lon="6.56065">
        <ele>1357.4</ele>
        <time>2022-07-17T13:11:13Z</time>
      </trkpt>
      <trkpt lat="44.94544" lon="6.56067">
        <ele>1357.4</ele>
        <time>2022-07-17T13:11:14Z</time>
      </trkpt>
      <trkpt lat="44.9454" lon="6.56071">
        <ele>1357.4</ele>
        <time>2022-07-17T13:11:15Z</time>
      </trkpt>
      <trkpt lat="44.94536" lon="6.56077">
        <ele>1357.4</ele>
        <time>2022-07-17T13:11:16Z</time>
      </trkpt>
      <trkpt lat="44.94536" lon="6.56085">
        <ele>1357.4</ele>
        <time>2022-07-17T13:11:17Z</time>
      </trkpt>
      <trkpt lat="44.94536" lon="6.56094">
        <ele>1357.4</ele>
        <time>2022-07-17T13:11:18Z</time>
      </trkpt>
      <trkpt lat="44.94536" lon="6.56103">
        <ele>1357.2</ele>
        <time>2022-07-17T13:11:19Z</time>
      </trkpt>
      <trkpt lat="44.94535" lon="6.56113">
        <ele>1357.2</ele>
        <time>2022-07-17T13:11:20Z</time>
      </trkpt>
      <trkpt lat="44.94533" lon="6.56123">
        <ele>1357.2</ele>
        <time>2022-07-17T13:11:21Z</time>
      </trkpt>
      <trkpt lat="44.9453" lon="6.56133">
        <ele>1357.2</ele>
        <time>2022-07-17T13:11:22Z</time>
      </trkpt>
      <trkpt lat="44.94526" lon="6.56143">
        <ele>1356.8</ele>
        <time>2022-07-17T13:11:23Z</time>
      </trkpt>
      <trkpt lat="44.94523" lon="6.56153">
        <ele>1356.6</ele>
        <time>2022-07-17T13:11:24Z</time>
      </trkpt>
      <trkpt lat="44.94519" lon="6.56164">
        <ele>1356.6</ele>
        <time>2022-07-17T13:11:25Z</time>
      </trkpt>
      <trkpt lat="44.94516" lon="6.56174">
        <ele>1356.6</ele>
        <time>2022-07-17T13:11:26Z</time>
      </trkpt>
      <trkpt lat="44.94512" lon="6.56184">
        <ele>1356.2</ele>
        <time>2022-07-17T13:11:27Z</time>
      </trkpt>
      <trkpt lat="44.94508" lon="6.56194">
        <ele>1356.2</ele>
        <time>2022-07-17T13:11:28Z</time>
      </trkpt>
      <trkpt lat="44.94505" lon="6.56204">
        <ele>1356</ele>
        <time>2022-07-17T13:11:29Z</time>
      </trkpt>
      <trkpt lat="44.94501" lon="6.56214">
        <ele>1356</ele>
        <time>2022-07-17T13:11:30Z</time>
      </trkpt>
      <trkpt lat="44.94498" lon="6.56224">
        <ele>1356</ele>
        <time>2022-07-17T13:11:31Z</time>
      </trkpt>
      <trkpt lat="44.94495" lon="6.56234">
        <ele>1356</ele>
        <time>2022-07-17T13:11:32Z</time>
      </trkpt>
      <trkpt lat="44.94492" lon="6.56245">
        <ele>1356</ele>
        <time>2022-07-17T13:11:33Z</time>
      </trkpt>
      <trkpt lat="44.94489" lon="6.56255">
        <ele>1355.6</ele>
        <time>2022-07-17T13:11:34Z</time>
      </trkpt>
      <trkpt lat="44.94487" lon="6.56266">
        <ele>1355.6</ele>
        <time>2022-07-17T13:11:35Z</time>
      </trkpt>
      <trkpt lat="44.94484" lon="6.56276">
        <ele>1355.4</ele>
        <time>2022-07-17T13:11:36Z</time>
      </trkpt>
      <trkpt lat="44.94481" lon="6.56286">
        <ele>1355.4</ele>
        <time>2022-07-17T13:11:37Z</time>
      </trkpt>
      <trkpt lat="44.94478" lon="6.56296">
        <ele>1355.4</ele>
        <time>2022-07-17T13:11:38Z</time>
      </trkpt>
      <trkpt lat="44.94475" lon="6.56306">
        <ele>1355.2</ele>
        <time>2022-07-17T13:11:39Z</time>
      </trkpt>
      <trkpt lat="44.94471" lon="6.56316">
        <ele>1355.2</ele>
        <time>2022-07-17T13:11:40Z</time>
      </trkpt>
      <trkpt lat="44.94468" lon="6.56325">
        <ele>1355.2</ele>
        <time>2022-07-17T13:11:41Z</time>
      </trkpt>
      <trkpt lat="44.94464" lon="6.56335">
        <ele>1355.2</ele>
        <time>2022-07-17T13:11:42Z</time>
      </trkpt>
      <trkpt lat="44.94459" lon="6.56344">
        <ele>1355.2</ele>
        <time>2022-07-17T13:11:43Z</time>
      </trkpt>
      <trkpt lat="44.94455" lon="6.56352">
        <ele>1355.2</ele>
        <time>2022-07-17T13:11:44Z</time>
      </trkpt>
      <trkpt lat="44.94451" lon="6.56361">
        <ele>1355.2</ele>
        <time>2022-07-17T13:11:45Z</time>
      </trkpt>
      <trkpt lat="44.94447" lon="6.56369">
        <ele>1355.2</ele>
        <time>2022-07-17T13:11:46Z</time>
      </trkpt>
      <trkpt lat="44.94443" lon="6.56378">
        <ele>1355.2</ele>
        <time>2022-07-17T13:11:47Z</time>
      </trkpt>
      <trkpt lat="44.94439" lon="6.56386">
        <ele>1355.2</ele>
        <time>2022-07-17T13:11:48Z</time>
      </trkpt>
      <trkpt lat="44.94435" lon="6.56395">
        <ele>1355.2</ele>
        <time>2022-07-17T13:11:49Z</time>
      </trkpt>
      <trkpt lat="44.9443" lon="6.56403">
        <ele>1355.4</ele>
        <time>2022-07-17T13:11:50Z</time>
      </trkpt>
      <trkpt lat="44.94426" lon="6.56412">
        <ele>1355.4</ele>
        <time>2022-07-17T13:11:51Z</time>
      </trkpt>
      <trkpt lat="44.94422" lon="6.56421">
        <ele>1355.4</ele>
        <time>2022-07-17T13:11:52Z</time>
      </trkpt>
      <trkpt lat="44.94417" lon="6.5643">
        <ele>1355.4</ele>
        <time>2022-07-17T13:11:53Z</time>
      </trkpt>
      <trkpt lat="44.94413" lon="6.56438">
        <ele>1355.4</ele>
        <time>2022-07-17T13:11:54Z</time>
      </trkpt>
      <trkpt lat="44.94408" lon="6.56447">
        <ele>1355.4</ele>
        <time>2022-07-17T13:11:55Z</time>
      </trkpt>
      <trkpt lat="44.94404" lon="6.56456">
        <ele>1355.4</ele>
        <time>2022-07-17T13:11:56Z</time>
      </trkpt>
      <trkpt lat="44.944" lon="6.56465">
        <ele>1355.4</ele>
        <time>2022-07-17T13:11:57Z</time>
      </trkpt>
      <trkpt lat="44.94396" lon="6.56474">
        <ele>1355.4</ele>
        <time>2022-07-17T13:11:58Z</time>
      </trkpt>
      <trkpt lat="44.94392" lon="6.56484">
        <ele>1355.4</ele>
        <time>2022-07-17T13:11:59Z</time>
      </trkpt>
      <trkpt lat="44.94389" lon="6.56494">
        <ele>1355.4</ele>
        <time>2022-07-17T13:12:00Z</time>
      </trkpt>
      <trkpt lat="44.94385" lon="6.56503">
        <ele>1355.4</ele>
        <time>2022-07-17T13:12:01Z</time>
      </trkpt>
      <trkpt lat="44.94381" lon="6.56513">
        <ele>1355.4</ele>
        <time>2022-07-17T13:12:02Z</time>
      </trkpt>
      <trkpt lat="44.94377" lon="6.56523">
        <ele>1355.4</ele>
        <time>2022-07-17T13:12:03Z</time>
      </trkpt>
      <trkpt lat="44.94373" lon="6.56533">
        <ele>1355.4</ele>
        <time>2022-07-17T13:12:04Z</time>
      </trkpt>
      <trkpt lat="44.94369" lon="6.56543">
        <ele>1355.4</ele>
        <time>2022-07-17T13:12:05Z</time>
      </trkpt>
      <trkpt lat="44.94366" lon="6.56553">
        <ele>1355.4</ele>
        <time>2022-07-17T13:12:06Z</time>
      </trkpt>
      <trkpt lat="44.94362" lon="6.56563">
        <ele>1355</ele>
        <time>2022-07-17T13:12:07Z</time>
      </trkpt>
      <trkpt lat="44.94358" lon="6.56574">
        <ele>1355</ele>
        <time>2022-07-17T13:12:08Z</time>
      </trkpt>
      <trkpt lat="44.94355" lon="6.56584">
        <ele>1354.8</ele>
        <time>2022-07-17T13:12:09Z</time>
      </trkpt>
      <trkpt lat="44.94351" lon="6.56594">
        <ele>1354.8</ele>
        <time>2022-07-17T13:12:10Z</time>
      </trkpt>
      <trkpt lat="44.94348" lon="6.56605">
        <ele>1354.6</ele>
        <time>2022-07-17T13:12:11Z</time>
      </trkpt>
      <trkpt lat="44.94344" lon="6.56614">
        <ele>1354.6</ele>
        <time>2022-07-17T13:12:12Z</time>
      </trkpt>
      <trkpt lat="44.94341" lon="6.56624">
        <ele>1354.6</ele>
        <time>2022-07-17T13:12:13Z</time>
      </trkpt>
      <trkpt lat="44.94338" lon="6.56634">
        <ele>1354.6</ele>
        <time>2022-07-17T13:12:14Z</time>
      </trkpt>
      <trkpt lat="44.94335" lon="6.56644">
        <ele>1354.6</ele>
        <time>2022-07-17T13:12:15Z</time>
      </trkpt>
      <trkpt lat="44.94332" lon="6.56654">
        <ele>1354.6</ele>
        <time>2022-07-17T13:12:16Z</time>
      </trkpt>
      <trkpt lat="44.94329" lon="6.56664">
        <ele>1354.6</ele>
        <time>2022-07-17T13:12:17Z</time>
      </trkpt>
      <trkpt lat="44.94325" lon="6.56674">
        <ele>1354.6</ele>
        <time>2022-07-17T13:12:18Z</time>
      </trkpt>
      <trkpt lat="44.94322" lon="6.56684">
        <ele>1354.4</ele>
        <time>2022-07-17T13:12:19Z</time>
      </trkpt>
      <trkpt lat="44.94319" lon="6.56693">
        <ele>1354.2</ele>
        <time>2022-07-17T13:12:20Z</time>
      </trkpt>
      <trkpt lat="44.94315" lon="6.56704">
        <ele>1354.2</ele>
        <time>2022-07-17T13:12:21Z</time>
      </trkpt>
      <trkpt lat="44.94312" lon="6.56714">
        <ele>1354</ele>
        <time>2022-07-17T13:12:22Z</time>
      </trkpt>
      <trkpt lat="44.94308" lon="6.56723">
        <ele>1354</ele>
        <time>2022-07-17T13:12:23Z</time>
      </trkpt>
      <trkpt lat="44.94304" lon="6.56733">
        <ele>1354</ele>
        <time>2022-07-17T13:12:24Z</time>
      </trkpt>
      <trkpt lat="44.94299" lon="6.56743">
        <ele>1353.6</ele>
        <time>2022-07-17T13:12:25Z</time>
      </trkpt>
      <trkpt lat="44.94295" lon="6.56752">
        <ele>1353.2</ele>
        <time>2022-07-17T13:12:26Z</time>
      </trkpt>
      <trkpt lat="44.9429" lon="6.56762">
        <ele>1353</ele>
        <time>2022-07-17T13:12:27Z</time>
      </trkpt>
      <trkpt lat="44.94286" lon="6.56772">
        <ele>1352.8</ele>
        <time>2022-07-17T13:12:28Z</time>
      </trkpt>
      <trkpt lat="44.94281" lon="6.56781">
        <ele>1352.8</ele>
        <time>2022-07-17T13:12:29Z</time>
      </trkpt>
      <trkpt lat="44.94275" lon="6.56791">
        <ele>1352.4</ele>
        <time>2022-07-17T13:12:30Z</time>
      </trkpt>
      <trkpt lat="44.9427" lon="6.56801">
        <ele>1352.2</ele>
        <time>2022-07-17T13:12:31Z</time>
      </trkpt>
      <trkpt lat="44.94264" lon="6.56811">
        <ele>1352</ele>
        <time>2022-07-17T13:12:32Z</time>
      </trkpt>
      <trkpt lat="44.94259" lon="6.56821">
        <ele>1351.8</ele>
        <time>2022-07-17T13:12:33Z</time>
      </trkpt>
      <trkpt lat="44.94253" lon="6.56831">
        <ele>1351.4</ele>
        <time>2022-07-17T13:12:34Z</time>
      </trkpt>
      <trkpt lat="44.94246" lon="6.5684">
        <ele>1351.2</ele>
        <time>2022-07-17T13:12:35Z</time>
      </trkpt>
      <trkpt lat="44.94239" lon="6.56848">
        <ele>1351</ele>
        <time>2022-07-17T13:12:36Z</time>
      </trkpt>
      <trkpt lat="44.94232" lon="6.56856">
        <ele>1350.6</ele>
        <time>2022-07-17T13:12:37Z</time>
      </trkpt>
      <trkpt lat="44.94225" lon="6.56864">
        <ele>1350.6</ele>
        <time>2022-07-17T13:12:38Z</time>
      </trkpt>
      <trkpt lat="44.94218" lon="6.56873">
        <ele>1350.4</ele>
        <time>2022-07-17T13:12:39Z</time>
      </trkpt>
      <trkpt lat="44.94211" lon="6.5688">
        <ele>1350.4</ele>
        <time>2022-07-17T13:12:40Z</time>
      </trkpt>
      <trkpt lat="44.94205" lon="6.56888">
        <ele>1350</ele>
        <time>2022-07-17T13:12:41Z</time>
      </trkpt>
      <trkpt lat="44.94198" lon="6.56895">
        <ele>1350</ele>
        <time>2022-07-17T13:12:42Z</time>
      </trkpt>
      <trkpt lat="44.94191" lon="6.56902">
        <ele>1350</ele>
        <time>2022-07-17T13:12:43Z</time>
      </trkpt>
      <trkpt lat="44.94185" lon="6.56908">
        <ele>1350</ele>
        <time>2022-07-17T13:12:44Z</time>
      </trkpt>
      <trkpt lat="44.94179" lon="6.56914">
        <ele>1350</ele>
        <time>2022-07-17T13:12:45Z</time>
      </trkpt>
      <trkpt lat="44.94173" lon="6.5692">
        <ele>1350</ele>
        <time>2022-07-17T13:12:46Z</time>
      </trkpt>
      <trkpt lat="44.94166" lon="6.56926">
        <ele>1350</ele>
        <time>2022-07-17T13:12:47Z</time>
      </trkpt>
      <trkpt lat="44.94161" lon="6.56931">
        <ele>1350.4</ele>
        <time>2022-07-17T13:12:48Z</time>
      </trkpt>
      <trkpt lat="44.94155" lon="6.56936">
        <ele>1350.4</ele>
        <time>2022-07-17T13:12:49Z</time>
      </trkpt>
      <trkpt lat="44.94149" lon="6.56941">
        <ele>1350.6</ele>
        <time>2022-07-17T13:12:50Z</time>
      </trkpt>
      <trkpt lat="44.94143" lon="6.56946">
        <ele>1350.6</ele>
        <time>2022-07-17T13:12:51Z</time>
      </trkpt>
      <trkpt lat="44.94137" lon="6.56951">
        <ele>1350.6</ele>
        <time>2022-07-17T13:12:52Z</time>
      </trkpt>
      <trkpt lat="44.94132" lon="6.56957">
        <ele>1350.6</ele>
        <time>2022-07-17T13:12:53Z</time>
      </trkpt>
      <trkpt lat="44.94126" lon="6.56962">
        <ele>1350.8</ele>
        <time>2022-07-17T13:12:54Z</time>
      </trkpt>
      <trkpt lat="44.94121" lon="6.56968">
        <ele>1350.8</ele>
        <time>2022-07-17T13:12:55Z</time>
      </trkpt>
      <trkpt lat="44.94115" lon="6.56973">
        <ele>1350.8</ele>
        <time>2022-07-17T13:12:56Z</time>
      </trkpt>
      <trkpt lat="44.9411" lon="6.56979">
        <ele>1350.8</ele>
        <time>2022-07-17T13:12:57Z</time>
      </trkpt>
      <trkpt lat="44.94104" lon="6.56985">
        <ele>1351.2</ele>
        <time>2022-07-17T13:12:58Z</time>
      </trkpt>
      <trkpt lat="44.94099" lon="6.56991">
        <ele>1351.2</ele>
        <time>2022-07-17T13:12:59Z</time>
      </trkpt>
      <trkpt lat="44.94094" lon="6.56998">
        <ele>1351.2</ele>
        <time>2022-07-17T13:13:00Z</time>
      </trkpt>
      <trkpt lat="44.94088" lon="6.57005">
        <ele>1351.2</ele>
        <time>2022-07-17T13:13:01Z</time>
      </trkpt>
      <trkpt lat="44.94083" lon="6.57012">
        <ele>1351.2</ele>
        <time>2022-07-17T13:13:02Z</time>
      </trkpt>
      <trkpt lat="44.94077" lon="6.57019">
        <ele>1351.4</ele>
        <time>2022-07-17T13:13:03Z</time>
      </trkpt>
      <trkpt lat="44.94072" lon="6.57025">
        <ele>1351.4</ele>
        <time>2022-07-17T13:13:04Z</time>
      </trkpt>
      <trkpt lat="44.94067" lon="6.57032">
        <ele>1351.4</ele>
        <time>2022-07-17T13:13:05Z</time>
      </trkpt>
      <trkpt lat="44.94062" lon="6.57039">
        <ele>1351.6</ele>
        <time>2022-07-17T13:13:06Z</time>
      </trkpt>
      <trkpt lat="44.94057" lon="6.57047">
        <ele>1351.6</ele>
        <time>2022-07-17T13:13:07Z</time>
      </trkpt>
      <trkpt lat="44.94052" lon="6.57054">
        <ele>1351.6</ele>
        <time>2022-07-17T13:13:08Z</time>
      </trkpt>
      <trkpt lat="44.94047" lon="6.57061">
        <ele>1351.6</ele>
        <time>2022-07-17T13:13:09Z</time>
      </trkpt>
      <trkpt lat="44.94042" lon="6.57068">
        <ele>1351.6</ele>
        <time>2022-07-17T13:13:10Z</time>
      </trkpt>
      <trkpt lat="44.94038" lon="6.57076">
        <ele>1351.6</ele>
        <time>2022-07-17T13:13:11Z</time>
      </trkpt>
      <trkpt lat="44.94033" lon="6.57084">
        <ele>1351.6</ele>
        <time>2022-07-17T13:13:12Z</time>
      </trkpt>
      <trkpt lat="44.94028" lon="6.57092">
        <ele>1351.6</ele>
        <time>2022-07-17T13:13:13Z</time>
      </trkpt>
      <trkpt lat="44.94024" lon="6.571">
        <ele>1351.6</ele>
        <time>2022-07-17T13:13:14Z</time>
      </trkpt>
      <trkpt lat="44.94019" lon="6.57109">
        <ele>1351.6</ele>
        <time>2022-07-17T13:13:15Z</time>
      </trkpt>
      <trkpt lat="44.94015" lon="6.57117">
        <ele>1351.6</ele>
        <time>2022-07-17T13:13:16Z</time>
      </trkpt>
      <trkpt lat="44.9401" lon="6.57126">
        <ele>1352</ele>
        <time>2022-07-17T13:13:17Z</time>
      </trkpt>
      <trkpt lat="44.94005" lon="6.57135">
        <ele>1352</ele>
        <time>2022-07-17T13:13:18Z</time>
      </trkpt>
      <trkpt lat="44.94001" lon="6.57143">
        <ele>1352</ele>
        <time>2022-07-17T13:13:19Z</time>
      </trkpt>
      <trkpt lat="44.93997" lon="6.57152">
        <ele>1352</ele>
        <time>2022-07-17T13:13:20Z</time>
      </trkpt>
      <trkpt lat="44.93992" lon="6.57161">
        <ele>1352</ele>
        <time>2022-07-17T13:13:21Z</time>
      </trkpt>
      <trkpt lat="44.93988" lon="6.5717">
        <ele>1351.6</ele>
        <time>2022-07-17T13:13:22Z</time>
      </trkpt>
      <trkpt lat="44.93984" lon="6.57179">
        <ele>1351.6</ele>
        <time>2022-07-17T13:13:23Z</time>
      </trkpt>
      <trkpt lat="44.9398" lon="6.57189">
        <ele>1351.6</ele>
        <time>2022-07-17T13:13:24Z</time>
      </trkpt>
      <trkpt lat="44.93977" lon="6.57198">
        <ele>1351.6</ele>
        <time>2022-07-17T13:13:25Z</time>
      </trkpt>
      <trkpt lat="44.93973" lon="6.57208">
        <ele>1351.6</ele>
        <time>2022-07-17T13:13:26Z</time>
      </trkpt>
      <trkpt lat="44.93969" lon="6.57218">
        <ele>1351.4</ele>
        <time>2022-07-17T13:13:27Z</time>
      </trkpt>
      <trkpt lat="44.93965" lon="6.57227">
        <ele>1351.4</ele>
        <time>2022-07-17T13:13:28Z</time>
      </trkpt>
      <trkpt lat="44.93962" lon="6.57237">
        <ele>1351.2</ele>
        <time>2022-07-17T13:13:29Z</time>
      </trkpt>
      <trkpt lat="44.93958" lon="6.57247">
        <ele>1351.2</ele>
        <time>2022-07-17T13:13:30Z</time>
      </trkpt>
      <trkpt lat="44.93955" lon="6.57257">
        <ele>1351.2</ele>
        <time>2022-07-17T13:13:31Z</time>
      </trkpt>
      <trkpt lat="44.93951" lon="6.57267">
        <ele>1351.2</ele>
        <time>2022-07-17T13:13:32Z</time>
      </trkpt>
      <trkpt lat="44.93948" lon="6.57278">
        <ele>1351</ele>
        <time>2022-07-17T13:13:33Z</time>
      </trkpt>
      <trkpt lat="44.93945" lon="6.57288">
        <ele>1351</ele>
        <time>2022-07-17T13:13:34Z</time>
      </trkpt>
      <trkpt lat="44.93942" lon="6.57299">
        <ele>1351</ele>
        <time>2022-07-17T13:13:35Z</time>
      </trkpt>
      <trkpt lat="44.93939" lon="6.57309">
        <ele>1351</ele>
        <time>2022-07-17T13:13:36Z</time>
      </trkpt>
      <trkpt lat="44.93936" lon="6.5732">
        <ele>1350.6</ele>
        <time>2022-07-17T13:13:37Z</time>
      </trkpt>
      <trkpt lat="44.93934" lon="6.57331">
        <ele>1350.6</ele>
        <time>2022-07-17T13:13:38Z</time>
      </trkpt>
      <trkpt lat="44.93931" lon="6.57341">
        <ele>1350.4</ele>
        <time>2022-07-17T13:13:39Z</time>
      </trkpt>
      <trkpt lat="44.93928" lon="6.57352">
        <ele>1350.4</ele>
        <time>2022-07-17T13:13:40Z</time>
      </trkpt>
      <trkpt lat="44.93925" lon="6.57362">
        <ele>1350.2</ele>
        <time>2022-07-17T13:13:41Z</time>
      </trkpt>
      <trkpt lat="44.93922" lon="6.57373">
        <ele>1350.2</ele>
        <time>2022-07-17T13:13:42Z</time>
      </trkpt>
      <trkpt lat="44.93919" lon="6.57384">
        <ele>1350.2</ele>
        <time>2022-07-17T13:13:43Z</time>
      </trkpt>
      <trkpt lat="44.93916" lon="6.57394">
        <ele>1350.2</ele>
        <time>2022-07-17T13:13:44Z</time>
      </trkpt>
      <trkpt lat="44.93913" lon="6.57405">
        <ele>1350.2</ele>
        <time>2022-07-17T13:13:45Z</time>
      </trkpt>
      <trkpt lat="44.93911" lon="6.57415">
        <ele>1350</ele>
        <time>2022-07-17T13:13:46Z</time>
      </trkpt>
      <trkpt lat="44.93908" lon="6.57426">
        <ele>1350</ele>
        <time>2022-07-17T13:13:47Z</time>
      </trkpt>
      <trkpt lat="44.93905" lon="6.57436">
        <ele>1350</ele>
        <time>2022-07-17T13:13:48Z</time>
      </trkpt>
      <trkpt lat="44.93902" lon="6.57447">
        <ele>1349.8</ele>
        <time>2022-07-17T13:13:49Z</time>
      </trkpt>
      <trkpt lat="44.93899" lon="6.57457">
        <ele>1349.8</ele>
        <time>2022-07-17T13:13:50Z</time>
      </trkpt>
      <trkpt lat="44.93896" lon="6.57468">
        <ele>1349.8</ele>
        <time>2022-07-17T13:13:51Z</time>
      </trkpt>
      <trkpt lat="44.93893" lon="6.57479">
        <ele>1349.6</ele>
        <time>2022-07-17T13:13:52Z</time>
      </trkpt>
      <trkpt lat="44.93891" lon="6.57489">
        <ele>1349.6</ele>
        <time>2022-07-17T13:13:53Z</time>
      </trkpt>
      <trkpt lat="44.93887" lon="6.575">
        <ele>1349.6</ele>
        <time>2022-07-17T13:13:54Z</time>
      </trkpt>
      <trkpt lat="44.93884" lon="6.57511">
        <ele>1349.6</ele>
        <time>2022-07-17T13:13:55Z</time>
      </trkpt>
      <trkpt lat="44.93881" lon="6.57521">
        <ele>1349.6</ele>
        <time>2022-07-17T13:13:56Z</time>
      </trkpt>
      <trkpt lat="44.93878" lon="6.57532">
        <ele>1349.6</ele>
        <time>2022-07-17T13:13:57Z</time>
      </trkpt>
      <trkpt lat="44.93875" lon="6.57542">
        <ele>1349.2</ele>
        <time>2022-07-17T13:13:58Z</time>
      </trkpt>
      <trkpt lat="44.93872" lon="6.57552">
        <ele>1349.2</ele>
        <time>2022-07-17T13:13:59Z</time>
      </trkpt>
      <trkpt lat="44.93869" lon="6.57563">
        <ele>1349.2</ele>
        <time>2022-07-17T13:14:00Z</time>
      </trkpt>
      <trkpt lat="44.93866" lon="6.57573">
        <ele>1349.2</ele>
        <time>2022-07-17T13:14:01Z</time>
      </trkpt>
      <trkpt lat="44.93864" lon="6.57583">
        <ele>1349</ele>
        <time>2022-07-17T13:14:02Z</time>
      </trkpt>
      <trkpt lat="44.93861" lon="6.57593">
        <ele>1349</ele>
        <time>2022-07-17T13:14:03Z</time>
      </trkpt>
      <trkpt lat="44.93858" lon="6.57603">
        <ele>1348.6</ele>
        <time>2022-07-17T13:14:04Z</time>
      </trkpt>
      <trkpt lat="44.93855" lon="6.57614">
        <ele>1348.6</ele>
        <time>2022-07-17T13:14:05Z</time>
      </trkpt>
      <trkpt lat="44.93852" lon="6.57624">
        <ele>1348.4</ele>
        <time>2022-07-17T13:14:06Z</time>
      </trkpt>
      <trkpt lat="44.9385" lon="6.57635">
        <ele>1348.4</ele>
        <time>2022-07-17T13:14:07Z</time>
      </trkpt>
      <trkpt lat="44.93847" lon="6.57646">
        <ele>1348.4</ele>
        <time>2022-07-17T13:14:08Z</time>
      </trkpt>
      <trkpt lat="44.93844" lon="6.57657">
        <ele>1348</ele>
        <time>2022-07-17T13:14:09Z</time>
      </trkpt>
      <trkpt lat="44.93841" lon="6.57667">
        <ele>1348</ele>
        <time>2022-07-17T13:14:10Z</time>
      </trkpt>
      <trkpt lat="44.93838" lon="6.57678">
        <ele>1347.6</ele>
        <time>2022-07-17T13:14:11Z</time>
      </trkpt>
      <trkpt lat="44.93834" lon="6.5769">
        <ele>1347.2</ele>
        <time>2022-07-17T13:14:12Z</time>
      </trkpt>
      <trkpt lat="44.93831" lon="6.57701">
        <ele>1347.2</ele>
        <time>2022-07-17T13:14:13Z</time>
      </trkpt>
      <trkpt lat="44.93828" lon="6.57713">
        <ele>1346.6</ele>
        <time>2022-07-17T13:14:14Z</time>
      </trkpt>
      <trkpt lat="44.93825" lon="6.57725">
        <ele>1346</ele>
        <time>2022-07-17T13:14:15Z</time>
      </trkpt>
      <trkpt lat="44.93822" lon="6.57737">
        <ele>1345.6</ele>
        <time>2022-07-17T13:14:16Z</time>
      </trkpt>
      <trkpt lat="44.93819" lon="6.5775">
        <ele>1345</ele>
        <time>2022-07-17T13:14:17Z</time>
      </trkpt>
      <trkpt lat="44.93815" lon="6.57763">
        <ele>1344.6</ele>
        <time>2022-07-17T13:14:18Z</time>
      </trkpt>
      <trkpt lat="44.93812" lon="6.57777">
        <ele>1344.2</ele>
        <time>2022-07-17T13:14:19Z</time>
      </trkpt>
      <trkpt lat="44.93809" lon="6.57791">
        <ele>1343.6</ele>
        <time>2022-07-17T13:14:20Z</time>
      </trkpt>
      <trkpt lat="44.93805" lon="6.57804">
        <ele>1343</ele>
        <time>2022-07-17T13:14:21Z</time>
      </trkpt>
      <trkpt lat="44.93802" lon="6.57817">
        <ele>1342.6</ele>
        <time>2022-07-17T13:14:22Z</time>
      </trkpt>
      <trkpt lat="44.93799" lon="6.57831">
        <ele>1342</ele>
        <time>2022-07-17T13:14:23Z</time>
      </trkpt>
      <trkpt lat="44.93796" lon="6.57844">
        <ele>1341.6</ele>
        <time>2022-07-17T13:14:24Z</time>
      </trkpt>
      <trkpt lat="44.93792" lon="6.57858">
        <ele>1341</ele>
        <time>2022-07-17T13:14:25Z</time>
      </trkpt>
      <trkpt lat="44.93789" lon="6.57872">
        <ele>1340.8</ele>
        <time>2022-07-17T13:14:26Z</time>
      </trkpt>
      <trkpt lat="44.93786" lon="6.57886">
        <ele>1340.4</ele>
        <time>2022-07-17T13:14:27Z</time>
      </trkpt>
      <trkpt lat="44.93782" lon="6.57899">
        <ele>1340</ele>
        <time>2022-07-17T13:14:28Z</time>
      </trkpt>
      <trkpt lat="44.93778" lon="6.57912">
        <ele>1339.4</ele>
        <time>2022-07-17T13:14:29Z</time>
      </trkpt>
      <trkpt lat="44.93773" lon="6.57925">
        <ele>1338.8</ele>
        <time>2022-07-17T13:14:30Z</time>
      </trkpt>
      <trkpt lat="44.9377" lon="6.57939">
        <ele>1338.4</ele>
        <time>2022-07-17T13:14:31Z</time>
      </trkpt>
      <trkpt lat="44.93766" lon="6.57952">
        <ele>1337.8</ele>
        <time>2022-07-17T13:14:32Z</time>
      </trkpt>
      <trkpt lat="44.93763" lon="6.57966">
        <ele>1337.4</ele>
        <time>2022-07-17T13:14:33Z</time>
      </trkpt>
      <trkpt lat="44.93759" lon="6.57979">
        <ele>1336.8</ele>
        <time>2022-07-17T13:14:34Z</time>
      </trkpt>
      <trkpt lat="44.93756" lon="6.57993">
        <ele>1336.6</ele>
        <time>2022-07-17T13:14:35Z</time>
      </trkpt>
      <trkpt lat="44.93752" lon="6.58007">
        <ele>1336.4</ele>
        <time>2022-07-17T13:14:36Z</time>
      </trkpt>
      <trkpt lat="44.93748" lon="6.5802">
        <ele>1336</ele>
        <time>2022-07-17T13:14:37Z</time>
      </trkpt>
      <trkpt lat="44.93745" lon="6.58032">
        <ele>1336</ele>
        <time>2022-07-17T13:14:38Z</time>
      </trkpt>
      <trkpt lat="44.93741" lon="6.58045">
        <ele>1335.8</ele>
        <time>2022-07-17T13:14:39Z</time>
      </trkpt>
      <trkpt lat="44.93738" lon="6.58057">
        <ele>1335.8</ele>
        <time>2022-07-17T13:14:40Z</time>
      </trkpt>
      <trkpt lat="44.93735" lon="6.58069">
        <ele>1335.4</ele>
        <time>2022-07-17T13:14:41Z</time>
      </trkpt>
      <trkpt lat="44.93732" lon="6.58081">
        <ele>1335.4</ele>
        <time>2022-07-17T13:14:42Z</time>
      </trkpt>
      <trkpt lat="44.9373" lon="6.58092">
        <ele>1335.2</ele>
        <time>2022-07-17T13:14:43Z</time>
      </trkpt>
      <trkpt lat="44.93726" lon="6.58105">
        <ele>1335</ele>
        <time>2022-07-17T13:14:44Z</time>
      </trkpt>
      <trkpt lat="44.93723" lon="6.58116">
        <ele>1335</ele>
        <time>2022-07-17T13:14:45Z</time>
      </trkpt>
      <trkpt lat="44.9372" lon="6.58128">
        <ele>1334.6</ele>
        <time>2022-07-17T13:14:46Z</time>
      </trkpt>
      <trkpt lat="44.93717" lon="6.5814">
        <ele>1334.4</ele>
        <time>2022-07-17T13:14:47Z</time>
      </trkpt>
      <trkpt lat="44.93713" lon="6.58151">
        <ele>1334.4</ele>
        <time>2022-07-17T13:14:48Z</time>
      </trkpt>
      <trkpt lat="44.9371" lon="6.58162">
        <ele>1334.2</ele>
        <time>2022-07-17T13:14:49Z</time>
      </trkpt>
      <trkpt lat="44.93707" lon="6.58174">
        <ele>1334</ele>
        <time>2022-07-17T13:14:50Z</time>
      </trkpt>
      <trkpt lat="44.93704" lon="6.58185">
        <ele>1334</ele>
        <time>2022-07-17T13:14:51Z</time>
      </trkpt>
      <trkpt lat="44.93701" lon="6.58197">
        <ele>1334</ele>
        <time>2022-07-17T13:14:52Z</time>
      </trkpt>
      <trkpt lat="44.93698" lon="6.58208">
        <ele>1333.8</ele>
        <time>2022-07-17T13:14:53Z</time>
      </trkpt>
      <trkpt lat="44.93695" lon="6.5822">
        <ele>1333.8</ele>
        <time>2022-07-17T13:14:54Z</time>
      </trkpt>
      <trkpt lat="44.93692" lon="6.58231">
        <ele>1333.8</ele>
        <time>2022-07-17T13:14:55Z</time>
      </trkpt>
      <trkpt lat="44.93688" lon="6.58241">
        <ele>1333.4</ele>
        <time>2022-07-17T13:14:56Z</time>
      </trkpt>
      <trkpt lat="44.93685" lon="6.58252">
        <ele>1333.4</ele>
        <time>2022-07-17T13:14:57Z</time>
      </trkpt>
      <trkpt lat="44.93681" lon="6.58263">
        <ele>1333.4</ele>
        <time>2022-07-17T13:14:58Z</time>
      </trkpt>
      <trkpt lat="44.93677" lon="6.58273">
        <ele>1333.2</ele>
        <time>2022-07-17T13:14:59Z</time>
      </trkpt>
      <trkpt lat="44.93673" lon="6.58283">
        <ele>1333.2</ele>
        <time>2022-07-17T13:15:00Z</time>
      </trkpt>
      <trkpt lat="44.93668" lon="6.58294">
        <ele>1333</ele>
        <time>2022-07-17T13:15:01Z</time>
      </trkpt>
      <trkpt lat="44.93664" lon="6.58304">
        <ele>1333</ele>
        <time>2022-07-17T13:15:02Z</time>
      </trkpt>
      <trkpt lat="44.93659" lon="6.58314">
        <ele>1332.8</ele>
        <time>2022-07-17T13:15:03Z</time>
      </trkpt>
      <trkpt lat="44.93654" lon="6.58324">
        <ele>1332.8</ele>
        <time>2022-07-17T13:15:04Z</time>
      </trkpt>
      <trkpt lat="44.9365" lon="6.58334">
        <ele>1332.4</ele>
        <time>2022-07-17T13:15:05Z</time>
      </trkpt>
      <trkpt lat="44.93645" lon="6.58344">
        <ele>1332.4</ele>
        <time>2022-07-17T13:15:06Z</time>
      </trkpt>
      <trkpt lat="44.93641" lon="6.58355">
        <ele>1332.2</ele>
        <time>2022-07-17T13:15:07Z</time>
      </trkpt>
      <trkpt lat="44.93636" lon="6.58365">
        <ele>1332.2</ele>
        <time>2022-07-17T13:15:08Z</time>
      </trkpt>
      <trkpt lat="44.93632" lon="6.58375">
        <ele>1332.2</ele>
        <time>2022-07-17T13:15:09Z</time>
      </trkpt>
      <trkpt lat="44.93627" lon="6.58385">
        <ele>1332.2</ele>
        <time>2022-07-17T13:15:10Z</time>
      </trkpt>
      <trkpt lat="44.93622" lon="6.58395">
        <ele>1332.2</ele>
        <time>2022-07-17T13:15:11Z</time>
      </trkpt>
      <trkpt lat="44.93618" lon="6.58405">
        <ele>1332.2</ele>
        <time>2022-07-17T13:15:12Z</time>
      </trkpt>
      <trkpt lat="44.93613" lon="6.58415">
        <ele>1332.2</ele>
        <time>2022-07-17T13:15:13Z</time>
      </trkpt>
      <trkpt lat="44.93609" lon="6.58424">
        <ele>1332.2</ele>
        <time>2022-07-17T13:15:14Z</time>
      </trkpt>
      <trkpt lat="44.93604" lon="6.58434">
        <ele>1332.2</ele>
        <time>2022-07-17T13:15:15Z</time>
      </trkpt>
      <trkpt lat="44.936" lon="6.58443">
        <ele>1332.2</ele>
        <time>2022-07-17T13:15:16Z</time>
      </trkpt>
      <trkpt lat="44.93595" lon="6.58452">
        <ele>1332.2</ele>
        <time>2022-07-17T13:15:17Z</time>
      </trkpt>
      <trkpt lat="44.93591" lon="6.58461">
        <ele>1332.4</ele>
        <time>2022-07-17T13:15:18Z</time>
      </trkpt>
      <trkpt lat="44.93587" lon="6.58469">
        <ele>1332.4</ele>
        <time>2022-07-17T13:15:19Z</time>
      </trkpt>
      <trkpt lat="44.93582" lon="6.58477">
        <ele>1332.4</ele>
        <time>2022-07-17T13:15:20Z</time>
      </trkpt>
      <trkpt lat="44.93578" lon="6.58486">
        <ele>1332.6</ele>
        <time>2022-07-17T13:15:21Z</time>
      </trkpt>
      <trkpt lat="44.93574" lon="6.58493">
        <ele>1332.6</ele>
        <time>2022-07-17T13:15:22Z</time>
      </trkpt>
      <trkpt lat="44.9357" lon="6.58501">
        <ele>1333</ele>
        <time>2022-07-17T13:15:23Z</time>
      </trkpt>
      <trkpt lat="44.93566" lon="6.58508">
        <ele>1333</ele>
        <time>2022-07-17T13:15:24Z</time>
      </trkpt>
      <trkpt lat="44.93562" lon="6.58516">
        <ele>1333</ele>
        <time>2022-07-17T13:15:25Z</time>
      </trkpt>
      <trkpt lat="44.93558" lon="6.58523">
        <ele>1333.4</ele>
        <time>2022-07-17T13:15:26Z</time>
      </trkpt>
      <trkpt lat="44.93554" lon="6.5853">
        <ele>1333.4</ele>
        <time>2022-07-17T13:15:27Z</time>
      </trkpt>
      <trkpt lat="44.93551" lon="6.58536">
        <ele>1333.8</ele>
        <time>2022-07-17T13:15:28Z</time>
      </trkpt>
      <trkpt lat="44.93547" lon="6.58543">
        <ele>1334</ele>
        <time>2022-07-17T13:15:29Z</time>
      </trkpt>
      <trkpt lat="44.93543" lon="6.5855">
        <ele>1334.2</ele>
        <time>2022-07-17T13:15:30Z</time>
      </trkpt>
      <trkpt lat="44.9354" lon="6.58556">
        <ele>1334.2</ele>
        <time>2022-07-17T13:15:31Z</time>
      </trkpt>
      <trkpt lat="44.93536" lon="6.58563">
        <ele>1334.6</ele>
        <time>2022-07-17T13:15:32Z</time>
      </trkpt>
      <trkpt lat="44.93533" lon="6.58569">
        <ele>1334.8</ele>
        <time>2022-07-17T13:15:33Z</time>
      </trkpt>
      <trkpt lat="44.9353" lon="6.58575">
        <ele>1335.2</ele>
        <time>2022-07-17T13:15:34Z</time>
      </trkpt>
      <trkpt lat="44.93526" lon="6.58581">
        <ele>1335.4</ele>
        <time>2022-07-17T13:15:35Z</time>
      </trkpt>
      <trkpt lat="44.93523" lon="6.58587">
        <ele>1335.6</ele>
        <time>2022-07-17T13:15:36Z</time>
      </trkpt>
      <trkpt lat="44.9352" lon="6.58593">
        <ele>1336</ele>
        <time>2022-07-17T13:15:37Z</time>
      </trkpt>
      <trkpt lat="44.93516" lon="6.58598">
        <ele>1336.4</ele>
        <time>2022-07-17T13:15:38Z</time>
      </trkpt>
      <trkpt lat="44.93513" lon="6.58604">
        <ele>1336.6</ele>
        <time>2022-07-17T13:15:39Z</time>
      </trkpt>
      <trkpt lat="44.9351" lon="6.5861">
        <ele>1337</ele>
        <time>2022-07-17T13:15:40Z</time>
      </trkpt>
      <trkpt lat="44.93507" lon="6.58615">
        <ele>1337.2</ele>
        <time>2022-07-17T13:15:41Z</time>
      </trkpt>
      <trkpt lat="44.93504" lon="6.5862">
        <ele>1337.6</ele>
        <time>2022-07-17T13:15:42Z</time>
      </trkpt>
      <trkpt lat="44.93502" lon="6.58626">
        <ele>1337.8</ele>
        <time>2022-07-17T13:15:43Z</time>
      </trkpt>
      <trkpt lat="44.93499" lon="6.58631">
        <ele>1338</ele>
        <time>2022-07-17T13:15:44Z</time>
      </trkpt>
      <trkpt lat="44.93496" lon="6.58636">
        <ele>1338.2</ele>
        <time>2022-07-17T13:15:45Z</time>
      </trkpt>
      <trkpt lat="44.93493" lon="6.58641">
        <ele>1338.6</ele>
        <time>2022-07-17T13:15:46Z</time>
      </trkpt>
      <trkpt lat="44.9349" lon="6.58647">
        <ele>1338.6</ele>
        <time>2022-07-17T13:15:47Z</time>
      </trkpt>
      <trkpt lat="44.93487" lon="6.58652">
        <ele>1339</ele>
        <time>2022-07-17T13:15:48Z</time>
      </trkpt>
      <trkpt lat="44.93484" lon="6.58657">
        <ele>1339.2</ele>
        <time>2022-07-17T13:15:49Z</time>
      </trkpt>
      <trkpt lat="44.93481" lon="6.58663">
        <ele>1339.4</ele>
        <time>2022-07-17T13:15:50Z</time>
      </trkpt>
      <trkpt lat="44.93478" lon="6.58668">
        <ele>1339.4</ele>
        <time>2022-07-17T13:15:51Z</time>
      </trkpt>
      <trkpt lat="44.93475" lon="6.58673">
        <ele>1339.6</ele>
        <time>2022-07-17T13:15:52Z</time>
      </trkpt>
      <trkpt lat="44.93472" lon="6.58679">
        <ele>1339.6</ele>
        <time>2022-07-17T13:15:53Z</time>
      </trkpt>
      <trkpt lat="44.93468" lon="6.58684">
        <ele>1340</ele>
        <time>2022-07-17T13:15:54Z</time>
      </trkpt>
      <trkpt lat="44.93465" lon="6.5869">
        <ele>1340</ele>
        <time>2022-07-17T13:15:55Z</time>
      </trkpt>
      <trkpt lat="44.93462" lon="6.58695">
        <ele>1340.4</ele>
        <time>2022-07-17T13:15:56Z</time>
      </trkpt>
      <trkpt lat="44.93458" lon="6.58701">
        <ele>1340.6</ele>
        <time>2022-07-17T13:15:57Z</time>
      </trkpt>
      <trkpt lat="44.93454" lon="6.58707">
        <ele>1340.8</ele>
        <time>2022-07-17T13:15:58Z</time>
      </trkpt>
      <trkpt lat="44.93451" lon="6.58712">
        <ele>1341</ele>
        <time>2022-07-17T13:15:59Z</time>
      </trkpt>
      <trkpt lat="44.93448" lon="6.58718">
        <ele>1341</ele>
        <time>2022-07-17T13:16:00Z</time>
      </trkpt>
      <trkpt lat="44.93444" lon="6.58723">
        <ele>1341.4</ele>
        <time>2022-07-17T13:16:01Z</time>
      </trkpt>
      <trkpt lat="44.93441" lon="6.58729">
        <ele>1341.4</ele>
        <time>2022-07-17T13:16:02Z</time>
      </trkpt>
      <trkpt lat="44.93438" lon="6.58734">
        <ele>1341.6</ele>
        <time>2022-07-17T13:16:03Z</time>
      </trkpt>
      <trkpt lat="44.93435" lon="6.58739">
        <ele>1341.6</ele>
        <time>2022-07-17T13:16:04Z</time>
      </trkpt>
      <trkpt lat="44.93433" lon="6.58745">
        <ele>1341.8</ele>
        <time>2022-07-17T13:16:05Z</time>
      </trkpt>
      <trkpt lat="44.9343" lon="6.58751">
        <ele>1341.8</ele>
        <time>2022-07-17T13:16:06Z</time>
      </trkpt>
      <trkpt lat="44.93427" lon="6.58756">
        <ele>1342.2</ele>
        <time>2022-07-17T13:16:07Z</time>
      </trkpt>
      <trkpt lat="44.93424" lon="6.58762">
        <ele>1342.2</ele>
        <time>2022-07-17T13:16:08Z</time>
      </trkpt>
      <trkpt lat="44.93421" lon="6.58768">
        <ele>1342.4</ele>
        <time>2022-07-17T13:16:09Z</time>
      </trkpt>
      <trkpt lat="44.93417" lon="6.58774">
        <ele>1342.6</ele>
        <time>2022-07-17T13:16:10Z</time>
      </trkpt>
      <trkpt lat="44.93414" lon="6.5878">
        <ele>1342.6</ele>
        <time>2022-07-17T13:16:11Z</time>
      </trkpt>
      <trkpt lat="44.9341" lon="6.58785">
        <ele>1343</ele>
        <time>2022-07-17T13:16:12Z</time>
      </trkpt>
      <trkpt lat="44.93407" lon="6.58791">
        <ele>1343</ele>
        <time>2022-07-17T13:16:13Z</time>
      </trkpt>
      <trkpt lat="44.93403" lon="6.58796">
        <ele>1343</ele>
        <time>2022-07-17T13:16:14Z</time>
      </trkpt>
      <trkpt lat="44.93399" lon="6.58801">
        <ele>1343.4</ele>
        <time>2022-07-17T13:16:15Z</time>
      </trkpt>
      <trkpt lat="44.93395" lon="6.58806">
        <ele>1343.4</ele>
        <time>2022-07-17T13:16:16Z</time>
      </trkpt>
      <trkpt lat="44.93392" lon="6.58812">
        <ele>1343.4</ele>
        <time>2022-07-17T13:16:17Z</time>
      </trkpt>
      <trkpt lat="44.93389" lon="6.58817">
        <ele>1343.6</ele>
        <time>2022-07-17T13:16:18Z</time>
      </trkpt>
      <trkpt lat="44.93385" lon="6.58823">
        <ele>1343.6</ele>
        <time>2022-07-17T13:16:19Z</time>
      </trkpt>
      <trkpt lat="44.93381" lon="6.58828">
        <ele>1343.6</ele>
        <time>2022-07-17T13:16:20Z</time>
      </trkpt>
      <trkpt lat="44.93377" lon="6.58833">
        <ele>1343.6</ele>
        <time>2022-07-17T13:16:21Z</time>
      </trkpt>
      <trkpt lat="44.93374" lon="6.58839">
        <ele>1343.6</ele>
        <time>2022-07-17T13:16:22Z</time>
      </trkpt>
      <trkpt lat="44.9337" lon="6.58844">
        <ele>1343.6</ele>
        <time>2022-07-17T13:16:23Z</time>
      </trkpt>
      <trkpt lat="44.93366" lon="6.5885">
        <ele>1343.6</ele>
        <time>2022-07-17T13:16:24Z</time>
      </trkpt>
      <trkpt lat="44.93362" lon="6.58856">
        <ele>1343.6</ele>
        <time>2022-07-17T13:16:25Z</time>
      </trkpt>
      <trkpt lat="44.93358" lon="6.58862">
        <ele>1343.6</ele>
        <time>2022-07-17T13:16:26Z</time>
      </trkpt>
      <trkpt lat="44.93354" lon="6.58868">
        <ele>1343.6</ele>
        <time>2022-07-17T13:16:27Z</time>
      </trkpt>
      <trkpt lat="44.93349" lon="6.58874">
        <ele>1343.6</ele>
        <time>2022-07-17T13:16:28Z</time>
      </trkpt>
      <trkpt lat="44.93345" lon="6.5888">
        <ele>1343.6</ele>
        <time>2022-07-17T13:16:29Z</time>
      </trkpt>
      <trkpt lat="44.93341" lon="6.58887">
        <ele>1343.6</ele>
        <time>2022-07-17T13:16:30Z</time>
      </trkpt>
      <trkpt lat="44.93337" lon="6.58893">
        <ele>1343.6</ele>
        <time>2022-07-17T13:16:31Z</time>
      </trkpt>
      <trkpt lat="44.93332" lon="6.58899">
        <ele>1343.6</ele>
        <time>2022-07-17T13:16:32Z</time>
      </trkpt>
      <trkpt lat="44.93328" lon="6.58905">
        <ele>1343.6</ele>
        <time>2022-07-17T13:16:33Z</time>
      </trkpt>
      <trkpt lat="44.93323" lon="6.58911">
        <ele>1343.6</ele>
        <time>2022-07-17T13:16:34Z</time>
      </trkpt>
      <trkpt lat="44.93319" lon="6.58917">
        <ele>1343.6</ele>
        <time>2022-07-17T13:16:35Z</time>
      </trkpt>
      <trkpt lat="44.93314" lon="6.58923">
        <ele>1343.6</ele>
        <time>2022-07-17T13:16:36Z</time>
      </trkpt>
      <trkpt lat="44.93309" lon="6.5893">
        <ele>1343.6</ele>
        <time>2022-07-17T13:16:37Z</time>
      </trkpt>
      <trkpt lat="44.93305" lon="6.58936">
        <ele>1343.6</ele>
        <time>2022-07-17T13:16:38Z</time>
      </trkpt>
      <trkpt lat="44.933" lon="6.58943">
        <ele>1343.4</ele>
        <time>2022-07-17T13:16:39Z</time>
      </trkpt>
      <trkpt lat="44.93296" lon="6.5895">
        <ele>1343.4</ele>
        <time>2022-07-17T13:16:40Z</time>
      </trkpt>
      <trkpt lat="44.93287" lon="6.58964">
        <ele>1343.4</ele>
        <time>2022-07-17T13:16:41Z</time>
      </trkpt>
      <trkpt lat="44.93278" lon="6.58977">
        <ele>1343.2</ele>
        <time>2022-07-17T13:16:43Z</time>
      </trkpt>
      <trkpt lat="44.93273" lon="6.58984">
        <ele>1343.2</ele>
        <time>2022-07-17T13:16:44Z</time>
      </trkpt>
      <trkpt lat="44.93269" lon="6.58991">
        <ele>1342.8</ele>
        <time>2022-07-17T13:16:46Z</time>
      </trkpt>
      <trkpt lat="44.93265" lon="6.58999">
        <ele>1342.8</ele>
        <time>2022-07-17T13:16:47Z</time>
      </trkpt>
      <trkpt lat="44.9326" lon="6.59006">
        <ele>1342.8</ele>
        <time>2022-07-17T13:16:48Z</time>
      </trkpt>
      <trkpt lat="44.93256" lon="6.59013">
        <ele>1342.8</ele>
        <time>2022-07-17T13:16:49Z</time>
      </trkpt>
      <trkpt lat="44.93252" lon="6.5902">
        <ele>1342.8</ele>
        <time>2022-07-17T13:16:50Z</time>
      </trkpt>
      <trkpt lat="44.93248" lon="6.59027">
        <ele>1342.8</ele>
        <time>2022-07-17T13:16:51Z</time>
      </trkpt>
      <trkpt lat="44.93244" lon="6.59035">
        <ele>1342.8</ele>
        <time>2022-07-17T13:16:52Z</time>
      </trkpt>
      <trkpt lat="44.9324" lon="6.59042">
        <ele>1342.8</ele>
        <time>2022-07-17T13:16:53Z</time>
      </trkpt>
      <trkpt lat="44.93236" lon="6.59049">
        <ele>1342.8</ele>
        <time>2022-07-17T13:16:54Z</time>
      </trkpt>
      <trkpt lat="44.93232" lon="6.59055">
        <ele>1342.8</ele>
        <time>2022-07-17T13:16:55Z</time>
      </trkpt>
      <trkpt lat="44.93228" lon="6.59062">
        <ele>1342.6</ele>
        <time>2022-07-17T13:16:56Z</time>
      </trkpt>
      <trkpt lat="44.93219" lon="6.59077">
        <ele>1342.6</ele>
        <time>2022-07-17T13:16:57Z</time>
      </trkpt>
      <trkpt lat="44.93215" lon="6.59084">
        <ele>1342.6</ele>
        <time>2022-07-17T13:16:58Z</time>
      </trkpt>
      <trkpt lat="44.9321" lon="6.59092">
        <ele>1342.4</ele>
        <time>2022-07-17T13:16:59Z</time>
      </trkpt>
      <trkpt lat="44.93206" lon="6.59099">
        <ele>1342.4</ele>
        <time>2022-07-17T13:17:00Z</time>
      </trkpt>
      <trkpt lat="44.93201" lon="6.59106">
        <ele>1342.4</ele>
        <time>2022-07-17T13:17:01Z</time>
      </trkpt>
      <trkpt lat="44.93196" lon="6.59114">
        <ele>1342</ele>
        <time>2022-07-17T13:17:02Z</time>
      </trkpt>
      <trkpt lat="44.93191" lon="6.59122">
        <ele>1342</ele>
        <time>2022-07-17T13:17:03Z</time>
      </trkpt>
      <trkpt lat="44.93187" lon="6.5913">
        <ele>1341.8</ele>
        <time>2022-07-17T13:17:04Z</time>
      </trkpt>
      <trkpt lat="44.93182" lon="6.59138">
        <ele>1341.8</ele>
        <time>2022-07-17T13:17:05Z</time>
      </trkpt>
      <trkpt lat="44.93177" lon="6.59146">
        <ele>1341.4</ele>
        <time>2022-07-17T13:17:06Z</time>
      </trkpt>
      <trkpt lat="44.93172" lon="6.59155">
        <ele>1341.4</ele>
        <time>2022-07-17T13:17:07Z</time>
      </trkpt>
      <trkpt lat="44.93167" lon="6.59163">
        <ele>1341</ele>
        <time>2022-07-17T13:17:08Z</time>
      </trkpt>
      <trkpt lat="44.93162" lon="6.59172">
        <ele>1340.8</ele>
        <time>2022-07-17T13:17:09Z</time>
      </trkpt>
      <trkpt lat="44.93157" lon="6.5918">
        <ele>1340.6</ele>
        <time>2022-07-17T13:17:10Z</time>
      </trkpt>
      <trkpt lat="44.93152" lon="6.59189">
        <ele>1340.2</ele>
        <time>2022-07-17T13:17:11Z</time>
      </trkpt>
      <trkpt lat="44.93146" lon="6.59197">
        <ele>1340</ele>
        <time>2022-07-17T13:17:12Z</time>
      </trkpt>
      <trkpt lat="44.93141" lon="6.59206">
        <ele>1339.6</ele>
        <time>2022-07-17T13:17:13Z</time>
      </trkpt>
      <trkpt lat="44.93135" lon="6.59215">
        <ele>1339.4</ele>
        <time>2022-07-17T13:17:14Z</time>
      </trkpt>
      <trkpt lat="44.9313" lon="6.59224">
        <ele>1339</ele>
        <time>2022-07-17T13:17:15Z</time>
      </trkpt>
      <trkpt lat="44.93124" lon="6.59233">
        <ele>1338.8</ele>
        <time>2022-07-17T13:17:16Z</time>
      </trkpt>
      <trkpt lat="44.93118" lon="6.59242">
        <ele>1338.4</ele>
        <time>2022-07-17T13:17:17Z</time>
      </trkpt>
      <trkpt lat="44.93113" lon="6.59252">
        <ele>1338.2</ele>
        <time>2022-07-17T13:17:18Z</time>
      </trkpt>
      <trkpt lat="44.93107" lon="6.59261">
        <ele>1337.8</ele>
        <time>2022-07-17T13:17:19Z</time>
      </trkpt>
      <trkpt lat="44.93101" lon="6.59271">
        <ele>1337.4</ele>
        <time>2022-07-17T13:17:20Z</time>
      </trkpt>
      <trkpt lat="44.93095" lon="6.5928">
        <ele>1337.2</ele>
        <time>2022-07-17T13:17:21Z</time>
      </trkpt>
      <trkpt lat="44.93089" lon="6.5929">
        <ele>1336.8</ele>
        <time>2022-07-17T13:17:22Z</time>
      </trkpt>
      <trkpt lat="44.93082" lon="6.593">
        <ele>1336.4</ele>
        <time>2022-07-17T13:17:23Z</time>
      </trkpt>
      <trkpt lat="44.93076" lon="6.59308">
        <ele>1336</ele>
        <time>2022-07-17T13:17:24Z</time>
      </trkpt>
      <trkpt lat="44.9307" lon="6.59315">
        <ele>1335.4</ele>
        <time>2022-07-17T13:17:25Z</time>
      </trkpt>
      <trkpt lat="44.93064" lon="6.59321">
        <ele>1335</ele>
        <time>2022-07-17T13:17:26Z</time>
      </trkpt>
      <trkpt lat="44.93057" lon="6.59327">
        <ele>1334.6</ele>
        <time>2022-07-17T13:17:27Z</time>
      </trkpt>
      <trkpt lat="44.93051" lon="6.59334">
        <ele>1334.4</ele>
        <time>2022-07-17T13:17:28Z</time>
      </trkpt>
      <trkpt lat="44.93047" lon="6.59343">
        <ele>1334</ele>
        <time>2022-07-17T13:17:29Z</time>
      </trkpt>
      <trkpt lat="44.93043" lon="6.59353">
        <ele>1333.6</ele>
        <time>2022-07-17T13:17:30Z</time>
      </trkpt>
      <trkpt lat="44.93039" lon="6.59365">
        <ele>1333.2</ele>
        <time>2022-07-17T13:17:31Z</time>
      </trkpt>
      <trkpt lat="44.93034" lon="6.59375">
        <ele>1332.8</ele>
        <time>2022-07-17T13:17:32Z</time>
      </trkpt>
      <trkpt lat="44.93029" lon="6.59386">
        <ele>1332.6</ele>
        <time>2022-07-17T13:17:33Z</time>
      </trkpt>
      <trkpt lat="44.93023" lon="6.59396">
        <ele>1332</ele>
        <time>2022-07-17T13:17:34Z</time>
      </trkpt>
      <trkpt lat="44.93016" lon="6.59407">
        <ele>1331.8</ele>
        <time>2022-07-17T13:17:35Z</time>
      </trkpt>
      <trkpt lat="44.9301" lon="6.59417">
        <ele>1331.2</ele>
        <time>2022-07-17T13:17:36Z</time>
      </trkpt>
      <trkpt lat="44.93004" lon="6.59427">
        <ele>1331</ele>
        <time>2022-07-17T13:17:37Z</time>
      </trkpt>
      <trkpt lat="44.92998" lon="6.59439">
        <ele>1330.6</ele>
        <time>2022-07-17T13:17:38Z</time>
      </trkpt>
      <trkpt lat="44.92992" lon="6.5945">
        <ele>1330.4</ele>
        <time>2022-07-17T13:17:39Z</time>
      </trkpt>
      <trkpt lat="44.92985" lon="6.59461">
        <ele>1330</ele>
        <time>2022-07-17T13:17:40Z</time>
      </trkpt>
      <trkpt lat="44.92979" lon="6.59473">
        <ele>1329.8</ele>
        <time>2022-07-17T13:17:41Z</time>
      </trkpt>
      <trkpt lat="44.92973" lon="6.59484">
        <ele>1329.6</ele>
        <time>2022-07-17T13:17:42Z</time>
      </trkpt>
      <trkpt lat="44.92967" lon="6.59496">
        <ele>1329.6</ele>
        <time>2022-07-17T13:17:43Z</time>
      </trkpt>
      <trkpt lat="44.92961" lon="6.59507">
        <ele>1329.4</ele>
        <time>2022-07-17T13:17:44Z</time>
      </trkpt>
      <trkpt lat="44.92955" lon="6.59519">
        <ele>1329.4</ele>
        <time>2022-07-17T13:17:45Z</time>
      </trkpt>
      <trkpt lat="44.92949" lon="6.59529">
        <ele>1329.2</ele>
        <time>2022-07-17T13:17:46Z</time>
      </trkpt>
      <trkpt lat="44.92944" lon="6.5954">
        <ele>1329</ele>
        <time>2022-07-17T13:17:47Z</time>
      </trkpt>
      <trkpt lat="44.9294" lon="6.5955">
        <ele>1329</ele>
        <time>2022-07-17T13:17:48Z</time>
      </trkpt>
      <trkpt lat="44.92935" lon="6.59561">
        <ele>1329</ele>
        <time>2022-07-17T13:17:49Z</time>
      </trkpt>
      <trkpt lat="44.9293" lon="6.59571">
        <ele>1329</ele>
        <time>2022-07-17T13:17:50Z</time>
      </trkpt>
      <trkpt lat="44.92925" lon="6.59581">
        <ele>1328.6</ele>
        <time>2022-07-17T13:17:51Z</time>
      </trkpt>
      <trkpt lat="44.92921" lon="6.5959">
        <ele>1328.6</ele>
        <time>2022-07-17T13:17:52Z</time>
      </trkpt>
      <trkpt lat="44.92917" lon="6.596">
        <ele>1328.4</ele>
        <time>2022-07-17T13:17:53Z</time>
      </trkpt>
      <trkpt lat="44.92912" lon="6.59609">
        <ele>1328.4</ele>
        <time>2022-07-17T13:17:54Z</time>
      </trkpt>
      <trkpt lat="44.92908" lon="6.59618">
        <ele>1328.2</ele>
        <time>2022-07-17T13:17:55Z</time>
      </trkpt>
      <trkpt lat="44.92904" lon="6.59627">
        <ele>1328.2</ele>
        <time>2022-07-17T13:17:56Z</time>
      </trkpt>
      <trkpt lat="44.929" lon="6.59636">
        <ele>1328</ele>
        <time>2022-07-17T13:17:57Z</time>
      </trkpt>
      <trkpt lat="44.92896" lon="6.59644">
        <ele>1328</ele>
        <time>2022-07-17T13:17:58Z</time>
      </trkpt>
      <trkpt lat="44.92892" lon="6.59653">
        <ele>1328</ele>
        <time>2022-07-17T13:17:59Z</time>
      </trkpt>
      <trkpt lat="44.92888" lon="6.59662">
        <ele>1327.8</ele>
        <time>2022-07-17T13:18:00Z</time>
      </trkpt>
      <trkpt lat="44.92884" lon="6.5967">
        <ele>1327.8</ele>
        <time>2022-07-17T13:18:01Z</time>
      </trkpt>
      <trkpt lat="44.9288" lon="6.59679">
        <ele>1327.6</ele>
        <time>2022-07-17T13:18:02Z</time>
      </trkpt>
      <trkpt lat="44.92876" lon="6.59688">
        <ele>1327.6</ele>
        <time>2022-07-17T13:18:03Z</time>
      </trkpt>
      <trkpt lat="44.92872" lon="6.59697">
        <ele>1327.6</ele>
        <time>2022-07-17T13:18:04Z</time>
      </trkpt>
      <trkpt lat="44.92868" lon="6.59706">
        <ele>1327.6</ele>
        <time>2022-07-17T13:18:05Z</time>
      </trkpt>
      <trkpt lat="44.92864" lon="6.59715">
        <ele>1327.4</ele>
        <time>2022-07-17T13:18:06Z</time>
      </trkpt>
      <trkpt lat="44.9286" lon="6.59725">
        <ele>1327.4</ele>
        <time>2022-07-17T13:18:07Z</time>
      </trkpt>
      <trkpt lat="44.92856" lon="6.59734">
        <ele>1327.4</ele>
        <time>2022-07-17T13:18:08Z</time>
      </trkpt>
      <trkpt lat="44.92852" lon="6.59743">
        <ele>1327.4</ele>
        <time>2022-07-17T13:18:09Z</time>
      </trkpt>
      <trkpt lat="44.92848" lon="6.59752">
        <ele>1327.4</ele>
        <time>2022-07-17T13:18:10Z</time>
      </trkpt>
      <trkpt lat="44.92843" lon="6.59761">
        <ele>1327.4</ele>
        <time>2022-07-17T13:18:11Z</time>
      </trkpt>
      <trkpt lat="44.92839" lon="6.5977">
        <ele>1327.4</ele>
        <time>2022-07-17T13:18:12Z</time>
      </trkpt>
      <trkpt lat="44.92835" lon="6.5978">
        <ele>1327.4</ele>
        <time>2022-07-17T13:18:13Z</time>
      </trkpt>
      <trkpt lat="44.92831" lon="6.59789">
        <ele>1327.4</ele>
        <time>2022-07-17T13:18:14Z</time>
      </trkpt>
      <trkpt lat="44.92827" lon="6.59799">
        <ele>1327.4</ele>
        <time>2022-07-17T13:18:15Z</time>
      </trkpt>
      <trkpt lat="44.92822" lon="6.59808">
        <ele>1327.4</ele>
        <time>2022-07-17T13:18:16Z</time>
      </trkpt>
      <trkpt lat="44.92818" lon="6.59818">
        <ele>1327</ele>
        <time>2022-07-17T13:18:17Z</time>
      </trkpt>
      <trkpt lat="44.92814" lon="6.59827">
        <ele>1327</ele>
        <time>2022-07-17T13:18:18Z</time>
      </trkpt>
      <trkpt lat="44.9281" lon="6.59836">
        <ele>1327</ele>
        <time>2022-07-17T13:18:19Z</time>
      </trkpt>
      <trkpt lat="44.92805" lon="6.59846">
        <ele>1327</ele>
        <time>2022-07-17T13:18:20Z</time>
      </trkpt>
      <trkpt lat="44.92801" lon="6.59855">
        <ele>1326.6</ele>
        <time>2022-07-17T13:18:21Z</time>
      </trkpt>
      <trkpt lat="44.92797" lon="6.59864">
        <ele>1326.6</ele>
        <time>2022-07-17T13:18:22Z</time>
      </trkpt>
      <trkpt lat="44.92793" lon="6.59873">
        <ele>1326.4</ele>
        <time>2022-07-17T13:18:23Z</time>
      </trkpt>
      <trkpt lat="44.92789" lon="6.59883">
        <ele>1326.4</ele>
        <time>2022-07-17T13:18:24Z</time>
      </trkpt>
      <trkpt lat="44.92785" lon="6.59892">
        <ele>1326.4</ele>
        <time>2022-07-17T13:18:25Z</time>
      </trkpt>
      <trkpt lat="44.92781" lon="6.59902">
        <ele>1326.4</ele>
        <time>2022-07-17T13:18:26Z</time>
      </trkpt>
      <trkpt lat="44.92776" lon="6.59911">
        <ele>1326</ele>
        <time>2022-07-17T13:18:27Z</time>
      </trkpt>
      <trkpt lat="44.92772" lon="6.59921">
        <ele>1326</ele>
        <time>2022-07-17T13:18:28Z</time>
      </trkpt>
      <trkpt lat="44.92768" lon="6.5993">
        <ele>1325.6</ele>
        <time>2022-07-17T13:18:29Z</time>
      </trkpt>
      <trkpt lat="44.92763" lon="6.5994">
        <ele>1325.6</ele>
        <time>2022-07-17T13:18:30Z</time>
      </trkpt>
      <trkpt lat="44.92759" lon="6.59949">
        <ele>1325.4</ele>
        <time>2022-07-17T13:18:31Z</time>
      </trkpt>
      <trkpt lat="44.92754" lon="6.59959">
        <ele>1325.2</ele>
        <time>2022-07-17T13:18:32Z</time>
      </trkpt>
      <trkpt lat="44.9275" lon="6.59969">
        <ele>1325.2</ele>
        <time>2022-07-17T13:18:33Z</time>
      </trkpt>
      <trkpt lat="44.92746" lon="6.59979">
        <ele>1325.2</ele>
        <time>2022-07-17T13:18:34Z</time>
      </trkpt>
      <trkpt lat="44.92741" lon="6.59989">
        <ele>1325</ele>
        <time>2022-07-17T13:18:35Z</time>
      </trkpt>
      <trkpt lat="44.92737" lon="6.59999">
        <ele>1324.6</ele>
        <time>2022-07-17T13:18:36Z</time>
      </trkpt>
      <trkpt lat="44.92732" lon="6.60009">
        <ele>1324.4</ele>
        <time>2022-07-17T13:18:37Z</time>
      </trkpt>
      <trkpt lat="44.92727" lon="6.60019">
        <ele>1324</ele>
        <time>2022-07-17T13:18:38Z</time>
      </trkpt>
      <trkpt lat="44.92723" lon="6.6003">
        <ele>1324</ele>
        <time>2022-07-17T13:18:39Z</time>
      </trkpt>
      <trkpt lat="44.92718" lon="6.60041">
        <ele>1323.8</ele>
        <time>2022-07-17T13:18:40Z</time>
      </trkpt>
      <trkpt lat="44.92713" lon="6.60051">
        <ele>1323.4</ele>
        <time>2022-07-17T13:18:41Z</time>
      </trkpt>
      <trkpt lat="44.92709" lon="6.60062">
        <ele>1323.2</ele>
        <time>2022-07-17T13:18:42Z</time>
      </trkpt>
      <trkpt lat="44.92704" lon="6.60073">
        <ele>1323</ele>
        <time>2022-07-17T13:18:43Z</time>
      </trkpt>
      <trkpt lat="44.92699" lon="6.60084">
        <ele>1323</ele>
        <time>2022-07-17T13:18:44Z</time>
      </trkpt>
      <trkpt lat="44.92694" lon="6.60094">
        <ele>1322.6</ele>
        <time>2022-07-17T13:18:45Z</time>
      </trkpt>
      <trkpt lat="44.92689" lon="6.60106">
        <ele>1322.6</ele>
        <time>2022-07-17T13:18:46Z</time>
      </trkpt>
      <trkpt lat="44.92684" lon="6.60117">
        <ele>1322.2</ele>
        <time>2022-07-17T13:18:47Z</time>
      </trkpt>
      <trkpt lat="44.92679" lon="6.60129">
        <ele>1321.8</ele>
        <time>2022-07-17T13:18:48Z</time>
      </trkpt>
      <trkpt lat="44.92674" lon="6.6014">
        <ele>1321.6</ele>
        <time>2022-07-17T13:18:49Z</time>
      </trkpt>
      <trkpt lat="44.92669" lon="6.60152">
        <ele>1321.4</ele>
        <time>2022-07-17T13:18:50Z</time>
      </trkpt>
      <trkpt lat="44.92664" lon="6.60163">
        <ele>1321.2</ele>
        <time>2022-07-17T13:18:51Z</time>
      </trkpt>
      <trkpt lat="44.92658" lon="6.60175">
        <ele>1321.2</ele>
        <time>2022-07-17T13:18:52Z</time>
      </trkpt>
      <trkpt lat="44.92653" lon="6.60187">
        <ele>1320.6</ele>
        <time>2022-07-17T13:18:53Z</time>
      </trkpt>
      <trkpt lat="44.92647" lon="6.602">
        <ele>1320.4</ele>
        <time>2022-07-17T13:18:54Z</time>
      </trkpt>
      <trkpt lat="44.92642" lon="6.60212">
        <ele>1320</ele>
        <time>2022-07-17T13:18:55Z</time>
      </trkpt>
      <trkpt lat="44.92636" lon="6.60224">
        <ele>1319.6</ele>
        <time>2022-07-17T13:18:56Z</time>
      </trkpt>
      <trkpt lat="44.92631" lon="6.60236">
        <ele>1319.2</ele>
        <time>2022-07-17T13:18:57Z</time>
      </trkpt>
      <trkpt lat="44.92626" lon="6.60248">
        <ele>1319</ele>
        <time>2022-07-17T13:18:58Z</time>
      </trkpt>
      <trkpt lat="44.92621" lon="6.60259">
        <ele>1318.6</ele>
        <time>2022-07-17T13:18:59Z</time>
      </trkpt>
      <trkpt lat="44.92616" lon="6.60271">
        <ele>1318.4</ele>
        <time>2022-07-17T13:19:00Z</time>
      </trkpt>
      <trkpt lat="44.92611" lon="6.60283">
        <ele>1318</ele>
        <time>2022-07-17T13:19:01Z</time>
      </trkpt>
      <trkpt lat="44.92606" lon="6.60295">
        <ele>1318</ele>
        <time>2022-07-17T13:19:02Z</time>
      </trkpt>
      <trkpt lat="44.926" lon="6.60307">
        <ele>1317.6</ele>
        <time>2022-07-17T13:19:03Z</time>
      </trkpt>
      <trkpt lat="44.92594" lon="6.60318">
        <ele>1317.2</ele>
        <time>2022-07-17T13:19:04Z</time>
      </trkpt>
      <trkpt lat="44.92588" lon="6.60331">
        <ele>1316.8</ele>
        <time>2022-07-17T13:19:05Z</time>
      </trkpt>
      <trkpt lat="44.92582" lon="6.60342">
        <ele>1316.6</ele>
        <time>2022-07-17T13:19:06Z</time>
      </trkpt>
      <trkpt lat="44.92576" lon="6.60355">
        <ele>1316.2</ele>
        <time>2022-07-17T13:19:07Z</time>
      </trkpt>
      <trkpt lat="44.92571" lon="6.60367">
        <ele>1315.8</ele>
        <time>2022-07-17T13:19:08Z</time>
      </trkpt>
      <trkpt lat="44.92566" lon="6.60379">
        <ele>1315.6</ele>
        <time>2022-07-17T13:19:09Z</time>
      </trkpt>
      <trkpt lat="44.9256" lon="6.60391">
        <ele>1315.4</ele>
        <time>2022-07-17T13:19:10Z</time>
      </trkpt>
      <trkpt lat="44.92555" lon="6.60402">
        <ele>1315.2</ele>
        <time>2022-07-17T13:19:11Z</time>
      </trkpt>
      <trkpt lat="44.92549" lon="6.60414">
        <ele>1314.8</ele>
        <time>2022-07-17T13:19:12Z</time>
      </trkpt>
      <trkpt lat="44.92544" lon="6.60427">
        <ele>1314.4</ele>
        <time>2022-07-17T13:19:13Z</time>
      </trkpt>
      <trkpt lat="44.92538" lon="6.6044">
        <ele>1314</ele>
        <time>2022-07-17T13:19:14Z</time>
      </trkpt>
      <trkpt lat="44.92532" lon="6.60453">
        <ele>1313.6</ele>
        <time>2022-07-17T13:19:15Z</time>
      </trkpt>
      <trkpt lat="44.92527" lon="6.60465">
        <ele>1313.2</ele>
        <time>2022-07-17T13:19:16Z</time>
      </trkpt>
      <trkpt lat="44.92521" lon="6.60477">
        <ele>1312.8</ele>
        <time>2022-07-17T13:19:17Z</time>
      </trkpt>
      <trkpt lat="44.92516" lon="6.60488">
        <ele>1312.6</ele>
        <time>2022-07-17T13:19:18Z</time>
      </trkpt>
      <trkpt lat="44.92511" lon="6.605">
        <ele>1312.6</ele>
        <time>2022-07-17T13:19:19Z</time>
      </trkpt>
      <trkpt lat="44.92506" lon="6.60511">
        <ele>1312</ele>
        <time>2022-07-17T13:19:20Z</time>
      </trkpt>
      <trkpt lat="44.92501" lon="6.60523">
        <ele>1311.8</ele>
        <time>2022-07-17T13:19:21Z</time>
      </trkpt>
      <trkpt lat="44.92496" lon="6.60534">
        <ele>1311.4</ele>
        <time>2022-07-17T13:19:22Z</time>
      </trkpt>
      <trkpt lat="44.92491" lon="6.60544">
        <ele>1311.2</ele>
        <time>2022-07-17T13:19:23Z</time>
      </trkpt>
      <trkpt lat="44.92487" lon="6.60555">
        <ele>1311.2</ele>
        <time>2022-07-17T13:19:24Z</time>
      </trkpt>
      <trkpt lat="44.92482" lon="6.60566">
        <ele>1311.2</ele>
        <time>2022-07-17T13:19:25Z</time>
      </trkpt>
      <trkpt lat="44.92478" lon="6.60576">
        <ele>1311.2</ele>
        <time>2022-07-17T13:19:26Z</time>
      </trkpt>
      <trkpt lat="44.92473" lon="6.60587">
        <ele>1311.2</ele>
        <time>2022-07-17T13:19:27Z</time>
      </trkpt>
      <trkpt lat="44.92469" lon="6.60597">
        <ele>1311.2</ele>
        <time>2022-07-17T13:19:28Z</time>
      </trkpt>
      <trkpt lat="44.92465" lon="6.60607">
        <ele>1310.8</ele>
        <time>2022-07-17T13:19:29Z</time>
      </trkpt>
      <trkpt lat="44.9246" lon="6.60617">
        <ele>1310.8</ele>
        <time>2022-07-17T13:19:30Z</time>
      </trkpt>
      <trkpt lat="44.92456" lon="6.60627">
        <ele>1310.8</ele>
        <time>2022-07-17T13:19:31Z</time>
      </trkpt>
      <trkpt lat="44.92452" lon="6.60637">
        <ele>1310.8</ele>
        <time>2022-07-17T13:19:32Z</time>
      </trkpt>
      <trkpt lat="44.92448" lon="6.60646">
        <ele>1310.8</ele>
        <time>2022-07-17T13:19:33Z</time>
      </trkpt>
      <trkpt lat="44.92444" lon="6.60656">
        <ele>1310.8</ele>
        <time>2022-07-17T13:19:34Z</time>
      </trkpt>
      <trkpt lat="44.92439" lon="6.60666">
        <ele>1310.8</ele>
        <time>2022-07-17T13:19:35Z</time>
      </trkpt>
      <trkpt lat="44.92435" lon="6.60675">
        <ele>1310.8</ele>
        <time>2022-07-17T13:19:36Z</time>
      </trkpt>
      <trkpt lat="44.92431" lon="6.60685">
        <ele>1310.8</ele>
        <time>2022-07-17T13:19:37Z</time>
      </trkpt>
      <trkpt lat="44.92427" lon="6.60694">
        <ele>1310.8</ele>
        <time>2022-07-17T13:19:38Z</time>
      </trkpt>
      <trkpt lat="44.92423" lon="6.60703">
        <ele>1310.6</ele>
        <time>2022-07-17T13:19:39Z</time>
      </trkpt>
      <trkpt lat="44.92419" lon="6.60712">
        <ele>1310.6</ele>
        <time>2022-07-17T13:19:41Z</time>
      </trkpt>
      <trkpt lat="44.92415" lon="6.60721">
        <ele>1311</ele>
        <time>2022-07-17T13:19:42Z</time>
      </trkpt>
      <trkpt lat="44.92411" lon="6.6073">
        <ele>1311</ele>
        <time>2022-07-17T13:19:43Z</time>
      </trkpt>
      <trkpt lat="44.92407" lon="6.60739">
        <ele>1311</ele>
        <time>2022-07-17T13:19:44Z</time>
      </trkpt>
      <trkpt lat="44.92403" lon="6.60748">
        <ele>1311</ele>
        <time>2022-07-17T13:19:45Z</time>
      </trkpt>
      <trkpt lat="44.924" lon="6.60757">
        <ele>1311</ele>
        <time>2022-07-17T13:19:46Z</time>
      </trkpt>
      <trkpt lat="44.92396" lon="6.60766">
        <ele>1311</ele>
        <time>2022-07-17T13:19:47Z</time>
      </trkpt>
      <trkpt lat="44.92393" lon="6.60775">
        <ele>1311.2</ele>
        <time>2022-07-17T13:19:48Z</time>
      </trkpt>
      <trkpt lat="44.92389" lon="6.60783">
        <ele>1311.2</ele>
        <time>2022-07-17T13:19:49Z</time>
      </trkpt>
      <trkpt lat="44.92386" lon="6.60792">
        <ele>1311.2</ele>
        <time>2022-07-17T13:19:50Z</time>
      </trkpt>
      <trkpt lat="44.92382" lon="6.60801">
        <ele>1311.2</ele>
        <time>2022-07-17T13:19:51Z</time>
      </trkpt>
      <trkpt lat="44.92378" lon="6.6081">
        <ele>1311.2</ele>
        <time>2022-07-17T13:19:52Z</time>
      </trkpt>
      <trkpt lat="44.92375" lon="6.60819">
        <ele>1311.2</ele>
        <time>2022-07-17T13:19:53Z</time>
      </trkpt>
      <trkpt lat="44.92371" lon="6.60828">
        <ele>1311.2</ele>
        <time>2022-07-17T13:19:54Z</time>
      </trkpt>
      <trkpt lat="44.92367" lon="6.60838">
        <ele>1311.2</ele>
        <time>2022-07-17T13:19:55Z</time>
      </trkpt>
      <trkpt lat="44.92363" lon="6.60847">
        <ele>1311.2</ele>
        <time>2022-07-17T13:19:56Z</time>
      </trkpt>
      <trkpt lat="44.92359" lon="6.60856">
        <ele>1311.2</ele>
        <time>2022-07-17T13:19:57Z</time>
      </trkpt>
      <trkpt lat="44.92355" lon="6.60865">
        <ele>1311.2</ele>
        <time>2022-07-17T13:19:58Z</time>
      </trkpt>
      <trkpt lat="44.92352" lon="6.60875">
        <ele>1311.2</ele>
        <time>2022-07-17T13:19:59Z</time>
      </trkpt>
      <trkpt lat="44.92348" lon="6.60884">
        <ele>1311.2</ele>
        <time>2022-07-17T13:20:00Z</time>
      </trkpt>
      <trkpt lat="44.92344" lon="6.60894">
        <ele>1311.2</ele>
        <time>2022-07-17T13:20:01Z</time>
      </trkpt>
      <trkpt lat="44.9234" lon="6.60903">
        <ele>1311.2</ele>
        <time>2022-07-17T13:20:02Z</time>
      </trkpt>
      <trkpt lat="44.92336" lon="6.60912">
        <ele>1311.2</ele>
        <time>2022-07-17T13:20:03Z</time>
      </trkpt>
      <trkpt lat="44.92333" lon="6.60922">
        <ele>1311.2</ele>
        <time>2022-07-17T13:20:04Z</time>
      </trkpt>
      <trkpt lat="44.92329" lon="6.60931">
        <ele>1311.2</ele>
        <time>2022-07-17T13:20:05Z</time>
      </trkpt>
      <trkpt lat="44.92325" lon="6.6094">
        <ele>1311.2</ele>
        <time>2022-07-17T13:20:06Z</time>
      </trkpt>
      <trkpt lat="44.92322" lon="6.60949">
        <ele>1311.2</ele>
        <time>2022-07-17T13:20:07Z</time>
      </trkpt>
      <trkpt lat="44.92318" lon="6.60958">
        <ele>1311.2</ele>
        <time>2022-07-17T13:20:08Z</time>
      </trkpt>
      <trkpt lat="44.92314" lon="6.60967">
        <ele>1311.2</ele>
        <time>2022-07-17T13:20:09Z</time>
      </trkpt>
      <trkpt lat="44.92311" lon="6.60977">
        <ele>1311.2</ele>
        <time>2022-07-17T13:20:10Z</time>
      </trkpt>
      <trkpt lat="44.92307" lon="6.60986">
        <ele>1311.2</ele>
        <time>2022-07-17T13:20:11Z</time>
      </trkpt>
      <trkpt lat="44.92304" lon="6.60995">
        <ele>1311.2</ele>
        <time>2022-07-17T13:20:12Z</time>
      </trkpt>
      <trkpt lat="44.923" lon="6.61005">
        <ele>1311.2</ele>
        <time>2022-07-17T13:20:13Z</time>
      </trkpt>
      <trkpt lat="44.92297" lon="6.61014">
        <ele>1311.2</ele>
        <time>2022-07-17T13:20:14Z</time>
      </trkpt>
      <trkpt lat="44.92293" lon="6.61024">
        <ele>1311.2</ele>
        <time>2022-07-17T13:20:15Z</time>
      </trkpt>
      <trkpt lat="44.9229" lon="6.61033">
        <ele>1311.2</ele>
        <time>2022-07-17T13:20:16Z</time>
      </trkpt>
      <trkpt lat="44.92287" lon="6.61043">
        <ele>1311.2</ele>
        <time>2022-07-17T13:20:17Z</time>
      </trkpt>
      <trkpt lat="44.92284" lon="6.61053">
        <ele>1311.2</ele>
        <time>2022-07-17T13:20:18Z</time>
      </trkpt>
      <trkpt lat="44.92281" lon="6.61062">
        <ele>1311.2</ele>
        <time>2022-07-17T13:20:19Z</time>
      </trkpt>
      <trkpt lat="44.92278" lon="6.61072">
        <ele>1311.2</ele>
        <time>2022-07-17T13:20:20Z</time>
      </trkpt>
      <trkpt lat="44.92275" lon="6.61082">
        <ele>1311.2</ele>
        <time>2022-07-17T13:20:21Z</time>
      </trkpt>
      <trkpt lat="44.92272" lon="6.61091">
        <ele>1311.2</ele>
        <time>2022-07-17T13:20:22Z</time>
      </trkpt>
      <trkpt lat="44.9227" lon="6.611">
        <ele>1311.2</ele>
        <time>2022-07-17T13:20:23Z</time>
      </trkpt>
      <trkpt lat="44.92267" lon="6.61109">
        <ele>1311.2</ele>
        <time>2022-07-17T13:20:24Z</time>
      </trkpt>
      <trkpt lat="44.92264" lon="6.61118">
        <ele>1311.2</ele>
        <time>2022-07-17T13:20:25Z</time>
      </trkpt>
      <trkpt lat="44.92262" lon="6.61128">
        <ele>1311</ele>
        <time>2022-07-17T13:20:26Z</time>
      </trkpt>
      <trkpt lat="44.92259" lon="6.61137">
        <ele>1311</ele>
        <time>2022-07-17T13:20:27Z</time>
      </trkpt>
      <trkpt lat="44.92256" lon="6.61146">
        <ele>1311</ele>
        <time>2022-07-17T13:20:28Z</time>
      </trkpt>
      <trkpt lat="44.92254" lon="6.61156">
        <ele>1310.8</ele>
        <time>2022-07-17T13:20:29Z</time>
      </trkpt>
      <trkpt lat="44.92251" lon="6.61165">
        <ele>1310.8</ele>
        <time>2022-07-17T13:20:30Z</time>
      </trkpt>
      <trkpt lat="44.92248" lon="6.61174">
        <ele>1310.8</ele>
        <time>2022-07-17T13:20:31Z</time>
      </trkpt>
      <trkpt lat="44.92246" lon="6.61181">
        <ele>1310.8</ele>
        <time>2022-07-17T13:20:32Z</time>
      </trkpt>
      <trkpt lat="44.92244" lon="6.61187">
        <ele>1310.8</ele>
        <time>2022-07-17T13:20:33Z</time>
      </trkpt>
      <trkpt lat="44.92242" lon="6.61192">
        <ele>1310.8</ele>
        <time>2022-07-17T13:20:34Z</time>
      </trkpt>
      <trkpt lat="44.9224" lon="6.61196">
        <ele>1310.6</ele>
        <time>2022-07-17T13:20:35Z</time>
      </trkpt>
      <trkpt lat="44.92237" lon="6.61199">
        <ele>1310.6</ele>
        <time>2022-07-17T13:20:36Z</time>
      </trkpt>
      <trkpt lat="44.92234" lon="6.61203">
        <ele>1310.6</ele>
        <time>2022-07-17T13:20:37Z</time>
      </trkpt>
      <trkpt lat="44.92231" lon="6.61207">
        <ele>1310.6</ele>
        <time>2022-07-17T13:20:38Z</time>
      </trkpt>
      <trkpt lat="44.92229" lon="6.61212">
        <ele>1310.6</ele>
        <time>2022-07-17T13:20:39Z</time>
      </trkpt>
      <trkpt lat="44.92228" lon="6.61218">
        <ele>1310.6</ele>
        <time>2022-07-17T13:20:40Z</time>
      </trkpt>
      <trkpt lat="44.92228" lon="6.61225">
        <ele>1310.6</ele>
        <time>2022-07-17T13:20:41Z</time>
      </trkpt>
      <trkpt lat="44.92229" lon="6.61233">
        <ele>1310.6</ele>
        <time>2022-07-17T13:20:42Z</time>
      </trkpt>
      <trkpt lat="44.92232" lon="6.6124">
        <ele>1310.6</ele>
        <time>2022-07-17T13:20:43Z</time>
      </trkpt>
      <trkpt lat="44.92235" lon="6.61246">
        <ele>1310.6</ele>
        <time>2022-07-17T13:20:44Z</time>
      </trkpt>
      <trkpt lat="44.92238" lon="6.61253">
        <ele>1310.6</ele>
        <time>2022-07-17T13:20:45Z</time>
      </trkpt>
      <trkpt lat="44.92241" lon="6.61261">
        <ele>1310.6</ele>
        <time>2022-07-17T13:20:46Z</time>
      </trkpt>
      <trkpt lat="44.92243" lon="6.61268">
        <ele>1310.6</ele>
        <time>2022-07-17T13:20:47Z</time>
      </trkpt>
      <trkpt lat="44.92243" lon="6.61277">
        <ele>1310.6</ele>
        <time>2022-07-17T13:20:48Z</time>
      </trkpt>
      <trkpt lat="44.92242" lon="6.61286">
        <ele>1310.6</ele>
        <time>2022-07-17T13:20:49Z</time>
      </trkpt>
      <trkpt lat="44.92242" lon="6.61295">
        <ele>1310.6</ele>
        <time>2022-07-17T13:20:50Z</time>
      </trkpt>
      <trkpt lat="44.92242" lon="6.61305">
        <ele>1310.6</ele>
        <time>2022-07-17T13:20:51Z</time>
      </trkpt>
      <trkpt lat="44.92242" lon="6.61314">
        <ele>1310.6</ele>
        <time>2022-07-17T13:20:52Z</time>
      </trkpt>
      <trkpt lat="44.92241" lon="6.61324">
        <ele>1310.6</ele>
        <time>2022-07-17T13:20:53Z</time>
      </trkpt>
      <trkpt lat="44.92241" lon="6.61334">
        <ele>1310.6</ele>
        <time>2022-07-17T13:20:54Z</time>
      </trkpt>
      <trkpt lat="44.92241" lon="6.61344">
        <ele>1310.6</ele>
        <time>2022-07-17T13:20:55Z</time>
      </trkpt>
      <trkpt lat="44.92241" lon="6.61354">
        <ele>1310.6</ele>
        <time>2022-07-17T13:20:56Z</time>
      </trkpt>
      <trkpt lat="44.9224" lon="6.61364">
        <ele>1310.6</ele>
        <time>2022-07-17T13:20:57Z</time>
      </trkpt>
      <trkpt lat="44.92239" lon="6.61375">
        <ele>1310.6</ele>
        <time>2022-07-17T13:20:58Z</time>
      </trkpt>
      <trkpt lat="44.92238" lon="6.61385">
        <ele>1310.6</ele>
        <time>2022-07-17T13:20:59Z</time>
      </trkpt>
      <trkpt lat="44.92237" lon="6.61395">
        <ele>1310.6</ele>
        <time>2022-07-17T13:21:00Z</time>
      </trkpt>
      <trkpt lat="44.92235" lon="6.61405">
        <ele>1310.6</ele>
        <time>2022-07-17T13:21:01Z</time>
      </trkpt>
      <trkpt lat="44.92234" lon="6.61416">
        <ele>1310.4</ele>
        <time>2022-07-17T13:21:02Z</time>
      </trkpt>
      <trkpt lat="44.92231" lon="6.61426">
        <ele>1310.4</ele>
        <time>2022-07-17T13:21:03Z</time>
      </trkpt>
      <trkpt lat="44.92229" lon="6.61436">
        <ele>1310.4</ele>
        <time>2022-07-17T13:21:04Z</time>
      </trkpt>
      <trkpt lat="44.92227" lon="6.61447">
        <ele>1310.4</ele>
        <time>2022-07-17T13:21:05Z</time>
      </trkpt>
      <trkpt lat="44.92224" lon="6.61457">
        <ele>1310</ele>
        <time>2022-07-17T13:21:06Z</time>
      </trkpt>
      <trkpt lat="44.9222" lon="6.61467">
        <ele>1310</ele>
        <time>2022-07-17T13:21:07Z</time>
      </trkpt>
      <trkpt lat="44.92217" lon="6.61477">
        <ele>1310</ele>
        <time>2022-07-17T13:21:08Z</time>
      </trkpt>
      <trkpt lat="44.92213" lon="6.61487">
        <ele>1309.8</ele>
        <time>2022-07-17T13:21:09Z</time>
      </trkpt>
      <trkpt lat="44.92209" lon="6.61496">
        <ele>1309.6</ele>
        <time>2022-07-17T13:21:10Z</time>
      </trkpt>
      <trkpt lat="44.92205" lon="6.61505">
        <ele>1309.6</ele>
        <time>2022-07-17T13:21:11Z</time>
      </trkpt>
      <trkpt lat="44.922" lon="6.61514">
        <ele>1309.6</ele>
        <time>2022-07-17T13:21:12Z</time>
      </trkpt>
      <trkpt lat="44.92195" lon="6.61523">
        <ele>1309.6</ele>
        <time>2022-07-17T13:21:13Z</time>
      </trkpt>
      <trkpt lat="44.9219" lon="6.61532">
        <ele>1309.6</ele>
        <time>2022-07-17T13:21:14Z</time>
      </trkpt>
      <trkpt lat="44.92185" lon="6.6154">
        <ele>1309.6</ele>
        <time>2022-07-17T13:21:15Z</time>
      </trkpt>
      <trkpt lat="44.9218" lon="6.61548">
        <ele>1309.6</ele>
        <time>2022-07-17T13:21:16Z</time>
      </trkpt>
      <trkpt lat="44.92175" lon="6.61556">
        <ele>1309.6</ele>
        <time>2022-07-17T13:21:17Z</time>
      </trkpt>
      <trkpt lat="44.9217" lon="6.61564">
        <ele>1309.6</ele>
        <time>2022-07-17T13:21:18Z</time>
      </trkpt>
      <trkpt lat="44.92164" lon="6.61572">
        <ele>1309.6</ele>
        <time>2022-07-17T13:21:19Z</time>
      </trkpt>
      <trkpt lat="44.92159" lon="6.6158">
        <ele>1309.6</ele>
        <time>2022-07-17T13:21:20Z</time>
      </trkpt>
      <trkpt lat="44.92154" lon="6.61588">
        <ele>1309.6</ele>
        <time>2022-07-17T13:21:21Z</time>
      </trkpt>
      <trkpt lat="44.92148" lon="6.61596">
        <ele>1309.6</ele>
        <time>2022-07-17T13:21:22Z</time>
      </trkpt>
      <trkpt lat="44.92144" lon="6.61604">
        <ele>1309.6</ele>
        <time>2022-07-17T13:21:23Z</time>
      </trkpt>
      <trkpt lat="44.92138" lon="6.61612">
        <ele>1309.6</ele>
        <time>2022-07-17T13:21:24Z</time>
      </trkpt>
      <trkpt lat="44.92133" lon="6.6162">
        <ele>1309.6</ele>
        <time>2022-07-17T13:21:25Z</time>
      </trkpt>
      <trkpt lat="44.92128" lon="6.61628">
        <ele>1309.6</ele>
        <time>2022-07-17T13:21:26Z</time>
      </trkpt>
      <trkpt lat="44.92123" lon="6.61635">
        <ele>1309.6</ele>
        <time>2022-07-17T13:21:27Z</time>
      </trkpt>
      <trkpt lat="44.92117" lon="6.61643">
        <ele>1309.4</ele>
        <time>2022-07-17T13:21:28Z</time>
      </trkpt>
      <trkpt lat="44.92111" lon="6.61651">
        <ele>1309.4</ele>
        <time>2022-07-17T13:21:29Z</time>
      </trkpt>
      <trkpt lat="44.92106" lon="6.61658">
        <ele>1309.4</ele>
        <time>2022-07-17T13:21:30Z</time>
      </trkpt>
      <trkpt lat="44.921" lon="6.61665">
        <ele>1309.4</ele>
        <time>2022-07-17T13:21:31Z</time>
      </trkpt>
      <trkpt lat="44.92095" lon="6.61673">
        <ele>1309.4</ele>
        <time>2022-07-17T13:21:32Z</time>
      </trkpt>
      <trkpt lat="44.9209" lon="6.6168">
        <ele>1309.4</ele>
        <time>2022-07-17T13:21:33Z</time>
      </trkpt>
      <trkpt lat="44.92084" lon="6.61687">
        <ele>1309.4</ele>
        <time>2022-07-17T13:21:34Z</time>
      </trkpt>
      <trkpt lat="44.92079" lon="6.61695">
        <ele>1309.4</ele>
        <time>2022-07-17T13:21:35Z</time>
      </trkpt>
      <trkpt lat="44.92074" lon="6.61702">
        <ele>1309.4</ele>
        <time>2022-07-17T13:21:36Z</time>
      </trkpt>
      <trkpt lat="44.92069" lon="6.61709">
        <ele>1309.4</ele>
        <time>2022-07-17T13:21:37Z</time>
      </trkpt>
      <trkpt lat="44.92063" lon="6.61716">
        <ele>1309.4</ele>
        <time>2022-07-17T13:21:38Z</time>
      </trkpt>
      <trkpt lat="44.92058" lon="6.61723">
        <ele>1309.4</ele>
        <time>2022-07-17T13:21:39Z</time>
      </trkpt>
      <trkpt lat="44.92053" lon="6.6173">
        <ele>1309.4</ele>
        <time>2022-07-17T13:21:40Z</time>
      </trkpt>
      <trkpt lat="44.92047" lon="6.61737">
        <ele>1309.6</ele>
        <time>2022-07-17T13:21:41Z</time>
      </trkpt>
      <trkpt lat="44.92042" lon="6.61744">
        <ele>1309.6</ele>
        <time>2022-07-17T13:21:42Z</time>
      </trkpt>
      <trkpt lat="44.92037" lon="6.61751">
        <ele>1309.6</ele>
        <time>2022-07-17T13:21:43Z</time>
      </trkpt>
      <trkpt lat="44.92031" lon="6.61757">
        <ele>1309.6</ele>
        <time>2022-07-17T13:21:44Z</time>
      </trkpt>
      <trkpt lat="44.92026" lon="6.61764">
        <ele>1309.6</ele>
        <time>2022-07-17T13:21:45Z</time>
      </trkpt>
      <trkpt lat="44.92021" lon="6.61771">
        <ele>1309.6</ele>
        <time>2022-07-17T13:21:46Z</time>
      </trkpt>
      <trkpt lat="44.92015" lon="6.61777">
        <ele>1309.8</ele>
        <time>2022-07-17T13:21:47Z</time>
      </trkpt>
      <trkpt lat="44.9201" lon="6.61784">
        <ele>1309.8</ele>
        <time>2022-07-17T13:21:48Z</time>
      </trkpt>
      <trkpt lat="44.92005" lon="6.61791">
        <ele>1309.8</ele>
        <time>2022-07-17T13:21:49Z</time>
      </trkpt>
      <trkpt lat="44.92" lon="6.61797">
        <ele>1309.8</ele>
        <time>2022-07-17T13:21:50Z</time>
      </trkpt>
      <trkpt lat="44.91995" lon="6.61804">
        <ele>1310.2</ele>
        <time>2022-07-17T13:21:51Z</time>
      </trkpt>
      <trkpt lat="44.9199" lon="6.6181">
        <ele>1310.2</ele>
        <time>2022-07-17T13:21:52Z</time>
      </trkpt>
      <trkpt lat="44.91985" lon="6.61816">
        <ele>1310.4</ele>
        <time>2022-07-17T13:21:53Z</time>
      </trkpt>
      <trkpt lat="44.91981" lon="6.61822">
        <ele>1310.4</ele>
        <time>2022-07-17T13:21:54Z</time>
      </trkpt>
      <trkpt lat="44.91976" lon="6.61828">
        <ele>1310.6</ele>
        <time>2022-07-17T13:21:55Z</time>
      </trkpt>
      <trkpt lat="44.91972" lon="6.61833">
        <ele>1310.6</ele>
        <time>2022-07-17T13:21:56Z</time>
      </trkpt>
      <trkpt lat="44.91967" lon="6.61839">
        <ele>1311.2</ele>
        <time>2022-07-17T13:21:57Z</time>
      </trkpt>
      <trkpt lat="44.91963" lon="6.61844">
        <ele>1311.4</ele>
        <time>2022-07-17T13:21:58Z</time>
      </trkpt>
      <trkpt lat="44.91959" lon="6.61849">
        <ele>1311.4</ele>
        <time>2022-07-17T13:21:59Z</time>
      </trkpt>
      <trkpt lat="44.91955" lon="6.61854">
        <ele>1311.8</ele>
        <time>2022-07-17T13:22:00Z</time>
      </trkpt>
      <trkpt lat="44.91951" lon="6.61859">
        <ele>1312.2</ele>
        <time>2022-07-17T13:22:01Z</time>
      </trkpt>
      <trkpt lat="44.91947" lon="6.61864">
        <ele>1312.4</ele>
        <time>2022-07-17T13:22:02Z</time>
      </trkpt>
      <trkpt lat="44.91943" lon="6.61869">
        <ele>1312.8</ele>
        <time>2022-07-17T13:22:03Z</time>
      </trkpt>
      <trkpt lat="44.9194" lon="6.61874">
        <ele>1313</ele>
        <time>2022-07-17T13:22:04Z</time>
      </trkpt>
      <trkpt lat="44.91936" lon="6.61878">
        <ele>1313.2</ele>
        <time>2022-07-17T13:22:05Z</time>
      </trkpt>
      <trkpt lat="44.91932" lon="6.61883">
        <ele>1313.2</ele>
        <time>2022-07-17T13:22:06Z</time>
      </trkpt>
      <trkpt lat="44.91929" lon="6.61887">
        <ele>1313.8</ele>
        <time>2022-07-17T13:22:07Z</time>
      </trkpt>
      <trkpt lat="44.91925" lon="6.61891">
        <ele>1313.8</ele>
        <time>2022-07-17T13:22:08Z</time>
      </trkpt>
      <trkpt lat="44.91921" lon="6.61895">
        <ele>1314.2</ele>
        <time>2022-07-17T13:22:09Z</time>
      </trkpt>
      <trkpt lat="44.91918" lon="6.61899">
        <ele>1314.4</ele>
        <time>2022-07-17T13:22:10Z</time>
      </trkpt>
      <trkpt lat="44.91914" lon="6.61903">
        <ele>1314.6</ele>
        <time>2022-07-17T13:22:11Z</time>
      </trkpt>
      <trkpt lat="44.91911" lon="6.61907">
        <ele>1314.8</ele>
        <time>2022-07-17T13:22:12Z</time>
      </trkpt>
      <trkpt lat="44.91908" lon="6.61912">
        <ele>1315.4</ele>
        <time>2022-07-17T13:22:13Z</time>
      </trkpt>
      <trkpt lat="44.91904" lon="6.61917">
        <ele>1315.4</ele>
        <time>2022-07-17T13:22:14Z</time>
      </trkpt>
      <trkpt lat="44.91901" lon="6.61922">
        <ele>1315.8</ele>
        <time>2022-07-17T13:22:15Z</time>
      </trkpt>
      <trkpt lat="44.91897" lon="6.61927">
        <ele>1316</ele>
        <time>2022-07-17T13:22:16Z</time>
      </trkpt>
      <trkpt lat="44.91893" lon="6.61932">
        <ele>1316.2</ele>
        <time>2022-07-17T13:22:17Z</time>
      </trkpt>
      <trkpt lat="44.9189" lon="6.61937">
        <ele>1316.2</ele>
        <time>2022-07-17T13:22:18Z</time>
      </trkpt>
      <trkpt lat="44.91886" lon="6.61943">
        <ele>1316.6</ele>
        <time>2022-07-17T13:22:19Z</time>
      </trkpt>
      <trkpt lat="44.91883" lon="6.61949">
        <ele>1316.6</ele>
        <time>2022-07-17T13:22:20Z</time>
      </trkpt>
      <trkpt lat="44.91879" lon="6.61955">
        <ele>1316.8</ele>
        <time>2022-07-17T13:22:21Z</time>
      </trkpt>
      <trkpt lat="44.91876" lon="6.61961">
        <ele>1316.8</ele>
        <time>2022-07-17T13:22:22Z</time>
      </trkpt>
      <trkpt lat="44.91873" lon="6.61967">
        <ele>1316.8</ele>
        <time>2022-07-17T13:22:23Z</time>
      </trkpt>
      <trkpt lat="44.91869" lon="6.61973">
        <ele>1316.8</ele>
        <time>2022-07-17T13:22:24Z</time>
      </trkpt>
      <trkpt lat="44.91865" lon="6.6198">
        <ele>1316.8</ele>
        <time>2022-07-17T13:22:25Z</time>
      </trkpt>
      <trkpt lat="44.91861" lon="6.61987">
        <ele>1316.8</ele>
        <time>2022-07-17T13:22:26Z</time>
      </trkpt>
      <trkpt lat="44.91857" lon="6.61994">
        <ele>1316.6</ele>
        <time>2022-07-17T13:22:27Z</time>
      </trkpt>
      <trkpt lat="44.91854" lon="6.62001">
        <ele>1316.6</ele>
        <time>2022-07-17T13:22:28Z</time>
      </trkpt>
      <trkpt lat="44.91849" lon="6.62009">
        <ele>1316.6</ele>
        <time>2022-07-17T13:22:29Z</time>
      </trkpt>
      <trkpt lat="44.91845" lon="6.62016">
        <ele>1316.4</ele>
        <time>2022-07-17T13:22:30Z</time>
      </trkpt>
      <trkpt lat="44.91841" lon="6.62024">
        <ele>1316</ele>
        <time>2022-07-17T13:22:31Z</time>
      </trkpt>
      <trkpt lat="44.91836" lon="6.62032">
        <ele>1316</ele>
        <time>2022-07-17T13:22:32Z</time>
      </trkpt>
      <trkpt lat="44.91832" lon="6.6204">
        <ele>1316</ele>
        <time>2022-07-17T13:22:33Z</time>
      </trkpt>
      <trkpt lat="44.91827" lon="6.62049">
        <ele>1315.6</ele>
        <time>2022-07-17T13:22:34Z</time>
      </trkpt>
      <trkpt lat="44.91822" lon="6.62057">
        <ele>1315.4</ele>
        <time>2022-07-17T13:22:35Z</time>
      </trkpt>
      <trkpt lat="44.91817" lon="6.62066">
        <ele>1315.4</ele>
        <time>2022-07-17T13:22:36Z</time>
      </trkpt>
      <trkpt lat="44.91812" lon="6.62075">
        <ele>1315</ele>
        <time>2022-07-17T13:22:37Z</time>
      </trkpt>
      <trkpt lat="44.91807" lon="6.62084">
        <ele>1315</ele>
        <time>2022-07-17T13:22:38Z</time>
      </trkpt>
      <trkpt lat="44.91802" lon="6.62092">
        <ele>1314.6</ele>
        <time>2022-07-17T13:22:39Z</time>
      </trkpt>
      <trkpt lat="44.91797" lon="6.62101">
        <ele>1314.6</ele>
        <time>2022-07-17T13:22:40Z</time>
      </trkpt>
      <trkpt lat="44.91792" lon="6.6211">
        <ele>1314.2</ele>
        <time>2022-07-17T13:22:41Z</time>
      </trkpt>
      <trkpt lat="44.91787" lon="6.62119">
        <ele>1313.8</ele>
        <time>2022-07-17T13:22:42Z</time>
      </trkpt>
      <trkpt lat="44.91781" lon="6.62128">
        <ele>1313.6</ele>
        <time>2022-07-17T13:22:43Z</time>
      </trkpt>
      <trkpt lat="44.91776" lon="6.62137">
        <ele>1313.4</ele>
        <time>2022-07-17T13:22:44Z</time>
      </trkpt>
      <trkpt lat="44.91771" lon="6.62146">
        <ele>1313.4</ele>
        <time>2022-07-17T13:22:45Z</time>
      </trkpt>
      <trkpt lat="44.91766" lon="6.62155">
        <ele>1313</ele>
        <time>2022-07-17T13:22:46Z</time>
      </trkpt>
      <trkpt lat="44.9176" lon="6.62164">
        <ele>1312.8</ele>
        <time>2022-07-17T13:22:47Z</time>
      </trkpt>
      <trkpt lat="44.91754" lon="6.62172">
        <ele>1312.8</ele>
        <time>2022-07-17T13:22:48Z</time>
      </trkpt>
      <trkpt lat="44.9174" lon="6.62187">
        <ele>1312.2</ele>
        <time>2022-07-17T13:22:49Z</time>
      </trkpt>
      <trkpt lat="44.91732" lon="6.62193">
        <ele>1312</ele>
        <time>2022-07-17T13:22:50Z</time>
      </trkpt>
      <trkpt lat="44.91725" lon="6.62198">
        <ele>1311.6</ele>
        <time>2022-07-17T13:22:51Z</time>
      </trkpt>
      <trkpt lat="44.91718" lon="6.62203">
        <ele>1311.4</ele>
        <time>2022-07-17T13:22:52Z</time>
      </trkpt>
      <trkpt lat="44.9171" lon="6.62209">
        <ele>1311.2</ele>
        <time>2022-07-17T13:22:53Z</time>
      </trkpt>
      <trkpt lat="44.91703" lon="6.62214">
        <ele>1310.8</ele>
        <time>2022-07-17T13:22:54Z</time>
      </trkpt>
      <trkpt lat="44.91695" lon="6.62218">
        <ele>1310.6</ele>
        <time>2022-07-17T13:22:55Z</time>
      </trkpt>
      <trkpt lat="44.91688" lon="6.62222">
        <ele>1310.6</ele>
        <time>2022-07-17T13:22:56Z</time>
      </trkpt>
      <trkpt lat="44.91681" lon="6.62226">
        <ele>1310.2</ele>
        <time>2022-07-17T13:22:57Z</time>
      </trkpt>
      <trkpt lat="44.91673" lon="6.6223">
        <ele>1310.2</ele>
        <time>2022-07-17T13:22:58Z</time>
      </trkpt>
      <trkpt lat="44.91666" lon="6.62234">
        <ele>1310.2</ele>
        <time>2022-07-17T13:22:59Z</time>
      </trkpt>
      <trkpt lat="44.91659" lon="6.62237">
        <ele>1310</ele>
        <time>2022-07-17T13:23:00Z</time>
      </trkpt>
      <trkpt lat="44.91652" lon="6.6224">
        <ele>1310</ele>
        <time>2022-07-17T13:23:01Z</time>
      </trkpt>
      <trkpt lat="44.91644" lon="6.62244">
        <ele>1309.6</ele>
        <time>2022-07-17T13:23:02Z</time>
      </trkpt>
      <trkpt lat="44.91637" lon="6.62247">
        <ele>1309.4</ele>
        <time>2022-07-17T13:23:03Z</time>
      </trkpt>
      <trkpt lat="44.91629" lon="6.62251">
        <ele>1309</ele>
        <time>2022-07-17T13:23:04Z</time>
      </trkpt>
      <trkpt lat="44.91621" lon="6.62254">
        <ele>1309</ele>
        <time>2022-07-17T13:23:05Z</time>
      </trkpt>
      <trkpt lat="44.91612" lon="6.62257">
        <ele>1308.6</ele>
        <time>2022-07-17T13:23:06Z</time>
      </trkpt>
      <trkpt lat="44.91604" lon="6.6226">
        <ele>1308.2</ele>
        <time>2022-07-17T13:23:07Z</time>
      </trkpt>
      <trkpt lat="44.91596" lon="6.62263">
        <ele>1307.8</ele>
        <time>2022-07-17T13:23:08Z</time>
      </trkpt>
      <trkpt lat="44.91588" lon="6.62265">
        <ele>1307.6</ele>
        <time>2022-07-17T13:23:09Z</time>
      </trkpt>
      <trkpt lat="44.91581" lon="6.62267">
        <ele>1307.2</ele>
        <time>2022-07-17T13:23:10Z</time>
      </trkpt>
      <trkpt lat="44.91573" lon="6.62269">
        <ele>1306.8</ele>
        <time>2022-07-17T13:23:11Z</time>
      </trkpt>
      <trkpt lat="44.91566" lon="6.62271">
        <ele>1306.4</ele>
        <time>2022-07-17T13:23:12Z</time>
      </trkpt>
      <trkpt lat="44.9156" lon="6.62273">
        <ele>1306</ele>
        <time>2022-07-17T13:23:13Z</time>
      </trkpt>
      <trkpt lat="44.91554" lon="6.62275">
        <ele>1305.6</ele>
        <time>2022-07-17T13:23:14Z</time>
      </trkpt>
      <trkpt lat="44.91547" lon="6.62277">
        <ele>1305.2</ele>
        <time>2022-07-17T13:23:15Z</time>
      </trkpt>
      <trkpt lat="44.91541" lon="6.62278">
        <ele>1304.8</ele>
        <time>2022-07-17T13:23:16Z</time>
      </trkpt>
      <trkpt lat="44.91536" lon="6.6228">
        <ele>1304.4</ele>
        <time>2022-07-17T13:23:17Z</time>
      </trkpt>
      <trkpt lat="44.9153" lon="6.62282">
        <ele>1304</ele>
        <time>2022-07-17T13:23:18Z</time>
      </trkpt>
      <trkpt lat="44.91524" lon="6.62283">
        <ele>1303.4</ele>
        <time>2022-07-17T13:23:19Z</time>
      </trkpt>
      <trkpt lat="44.91518" lon="6.62285">
        <ele>1303.2</ele>
        <time>2022-07-17T13:23:20Z</time>
      </trkpt>
      <trkpt lat="44.91512" lon="6.62286">
        <ele>1302.8</ele>
        <time>2022-07-17T13:23:21Z</time>
      </trkpt>
      <trkpt lat="44.91506" lon="6.62288">
        <ele>1302.4</ele>
        <time>2022-07-17T13:23:22Z</time>
      </trkpt>
      <trkpt lat="44.91499" lon="6.62291">
        <ele>1301.8</ele>
        <time>2022-07-17T13:23:23Z</time>
      </trkpt>
      <trkpt lat="44.91491" lon="6.62293">
        <ele>1301.4</ele>
        <time>2022-07-17T13:23:24Z</time>
      </trkpt>
      <trkpt lat="44.91484" lon="6.62295">
        <ele>1301</ele>
        <time>2022-07-17T13:23:25Z</time>
      </trkpt>
      <trkpt lat="44.91476" lon="6.62298">
        <ele>1300.6</ele>
        <time>2022-07-17T13:23:26Z</time>
      </trkpt>
      <trkpt lat="44.91468" lon="6.623">
        <ele>1300.2</ele>
        <time>2022-07-17T13:23:27Z</time>
      </trkpt>
      <trkpt lat="44.91459" lon="6.62303">
        <ele>1299.8</ele>
        <time>2022-07-17T13:23:28Z</time>
      </trkpt>
      <trkpt lat="44.91451" lon="6.62305">
        <ele>1299.4</ele>
        <time>2022-07-17T13:23:29Z</time>
      </trkpt>
      <trkpt lat="44.91443" lon="6.62308">
        <ele>1298.8</ele>
        <time>2022-07-17T13:23:30Z</time>
      </trkpt>
      <trkpt lat="44.91434" lon="6.6231">
        <ele>1298.4</ele>
        <time>2022-07-17T13:23:31Z</time>
      </trkpt>
      <trkpt lat="44.91425" lon="6.62313">
        <ele>1298</ele>
        <time>2022-07-17T13:23:32Z</time>
      </trkpt>
      <trkpt lat="44.91416" lon="6.62316">
        <ele>1297.4</ele>
        <time>2022-07-17T13:23:33Z</time>
      </trkpt>
      <trkpt lat="44.91406" lon="6.62319">
        <ele>1297</ele>
        <time>2022-07-17T13:23:34Z</time>
      </trkpt>
      <trkpt lat="44.91397" lon="6.62323">
        <ele>1296.6</ele>
        <time>2022-07-17T13:23:35Z</time>
      </trkpt>
      <trkpt lat="44.91388" lon="6.62326">
        <ele>1296</ele>
        <time>2022-07-17T13:23:36Z</time>
      </trkpt>
      <trkpt lat="44.91378" lon="6.62328">
        <ele>1295.8</ele>
        <time>2022-07-17T13:23:37Z</time>
      </trkpt>
      <trkpt lat="44.91369" lon="6.62331">
        <ele>1295.4</ele>
        <time>2022-07-17T13:23:38Z</time>
      </trkpt>
      <trkpt lat="44.9136" lon="6.62336">
        <ele>1295</ele>
        <time>2022-07-17T13:23:39Z</time>
      </trkpt>
      <trkpt lat="44.91351" lon="6.62341">
        <ele>1294.6</ele>
        <time>2022-07-17T13:23:40Z</time>
      </trkpt>
      <trkpt lat="44.91342" lon="6.62347">
        <ele>1294.2</ele>
        <time>2022-07-17T13:23:41Z</time>
      </trkpt>
      <trkpt lat="44.91334" lon="6.62356">
        <ele>1293.4</ele>
        <time>2022-07-17T13:23:42Z</time>
      </trkpt>
      <trkpt lat="44.91326" lon="6.62367">
        <ele>1292.6</ele>
        <time>2022-07-17T13:23:43Z</time>
      </trkpt>
      <trkpt lat="44.91318" lon="6.62374">
        <ele>1292</ele>
        <time>2022-07-17T13:23:44Z</time>
      </trkpt>
      <trkpt lat="44.9131" lon="6.62383">
        <ele>1291.6</ele>
        <time>2022-07-17T13:23:45Z</time>
      </trkpt>
      <trkpt lat="44.91301" lon="6.62393">
        <ele>1291.2</ele>
        <time>2022-07-17T13:23:46Z</time>
      </trkpt>
      <trkpt lat="44.91291" lon="6.62398">
        <ele>1290.6</ele>
        <time>2022-07-17T13:23:47Z</time>
      </trkpt>
      <trkpt lat="44.91281" lon="6.62401">
        <ele>1290</ele>
        <time>2022-07-17T13:23:48Z</time>
      </trkpt>
      <trkpt lat="44.9127" lon="6.62404">
        <ele>1289.6</ele>
        <time>2022-07-17T13:23:49Z</time>
      </trkpt>
      <trkpt lat="44.91259" lon="6.62407">
        <ele>1289.2</ele>
        <time>2022-07-17T13:23:50Z</time>
      </trkpt>
      <trkpt lat="44.91248" lon="6.62405">
        <ele>1288.8</ele>
        <time>2022-07-17T13:23:51Z</time>
      </trkpt>
      <trkpt lat="44.91238" lon="6.62402">
        <ele>1288.2</ele>
        <time>2022-07-17T13:23:52Z</time>
      </trkpt>
      <trkpt lat="44.91227" lon="6.624">
        <ele>1288</ele>
        <time>2022-07-17T13:23:53Z</time>
      </trkpt>
      <trkpt lat="44.91217" lon="6.62401">
        <ele>1287.4</ele>
        <time>2022-07-17T13:23:54Z</time>
      </trkpt>
      <trkpt lat="44.91206" lon="6.62402">
        <ele>1287</ele>
        <time>2022-07-17T13:23:55Z</time>
      </trkpt>
      <trkpt lat="44.91195" lon="6.62402">
        <ele>1286.6</ele>
        <time>2022-07-17T13:23:56Z</time>
      </trkpt>
      <trkpt lat="44.91186" lon="6.62402">
        <ele>1286</ele>
        <time>2022-07-17T13:23:57Z</time>
      </trkpt>
      <trkpt lat="44.91177" lon="6.62405">
        <ele>1285.4</ele>
        <time>2022-07-17T13:23:58Z</time>
      </trkpt>
      <trkpt lat="44.91167" lon="6.62409">
        <ele>1285</ele>
        <time>2022-07-17T13:23:59Z</time>
      </trkpt>
      <trkpt lat="44.91157" lon="6.62412">
        <ele>1284.4</ele>
        <time>2022-07-17T13:24:00Z</time>
      </trkpt>
      <trkpt lat="44.91147" lon="6.62414">
        <ele>1283.8</ele>
        <time>2022-07-17T13:24:01Z</time>
      </trkpt>
      <trkpt lat="44.91139" lon="6.62416">
        <ele>1283.2</ele>
        <time>2022-07-17T13:24:02Z</time>
      </trkpt>
      <trkpt lat="44.91129" lon="6.62422">
        <ele>1282.6</ele>
        <time>2022-07-17T13:24:03Z</time>
      </trkpt>
      <trkpt lat="44.91119" lon="6.62427">
        <ele>1282.2</ele>
        <time>2022-07-17T13:24:04Z</time>
      </trkpt>
      <trkpt lat="44.91112" lon="6.62433">
        <ele>1281.6</ele>
        <time>2022-07-17T13:24:05Z</time>
      </trkpt>
      <trkpt lat="44.91104" lon="6.62442">
        <ele>1281</ele>
        <time>2022-07-17T13:24:06Z</time>
      </trkpt>
      <trkpt lat="44.91097" lon="6.62454">
        <ele>1280.6</ele>
        <time>2022-07-17T13:24:07Z</time>
      </trkpt>
      <trkpt lat="44.9109" lon="6.62465">
        <ele>1280.2</ele>
        <time>2022-07-17T13:24:08Z</time>
      </trkpt>
      <trkpt lat="44.91082" lon="6.62476">
        <ele>1280</ele>
        <time>2022-07-17T13:24:09Z</time>
      </trkpt>
      <trkpt lat="44.91076" lon="6.62487">
        <ele>1279.8</ele>
        <time>2022-07-17T13:24:10Z</time>
      </trkpt>
      <trkpt lat="44.91069" lon="6.62496">
        <ele>1279.4</ele>
        <time>2022-07-17T13:24:11Z</time>
      </trkpt>
      <trkpt lat="44.91062" lon="6.62506">
        <ele>1279</ele>
        <time>2022-07-17T13:24:12Z</time>
      </trkpt>
      <trkpt lat="44.91055" lon="6.62515">
        <ele>1279</ele>
        <time>2022-07-17T13:24:13Z</time>
      </trkpt>
      <trkpt lat="44.91048" lon="6.62524">
        <ele>1278.6</ele>
        <time>2022-07-17T13:24:14Z</time>
      </trkpt>
      <trkpt lat="44.91042" lon="6.62532">
        <ele>1278.4</ele>
        <time>2022-07-17T13:24:15Z</time>
      </trkpt>
      <trkpt lat="44.91036" lon="6.62541">
        <ele>1278</ele>
        <time>2022-07-17T13:24:16Z</time>
      </trkpt>
      <trkpt lat="44.91029" lon="6.6255">
        <ele>1277.6</ele>
        <time>2022-07-17T13:24:17Z</time>
      </trkpt>
      <trkpt lat="44.91022" lon="6.62559">
        <ele>1277.4</ele>
        <time>2022-07-17T13:24:18Z</time>
      </trkpt>
      <trkpt lat="44.91015" lon="6.62567">
        <ele>1277</ele>
        <time>2022-07-17T13:24:19Z</time>
      </trkpt>
      <trkpt lat="44.91008" lon="6.62575">
        <ele>1276.8</ele>
        <time>2022-07-17T13:24:20Z</time>
      </trkpt>
      <trkpt lat="44.91001" lon="6.62585">
        <ele>1276.4</ele>
        <time>2022-07-17T13:24:21Z</time>
      </trkpt>
      <trkpt lat="44.90994" lon="6.62593">
        <ele>1276</ele>
        <time>2022-07-17T13:24:22Z</time>
      </trkpt>
      <trkpt lat="44.90987" lon="6.62598">
        <ele>1275.8</ele>
        <time>2022-07-17T13:24:23Z</time>
      </trkpt>
      <trkpt lat="44.90979" lon="6.62605">
        <ele>1275.2</ele>
        <time>2022-07-17T13:24:24Z</time>
      </trkpt>
      <trkpt lat="44.90971" lon="6.62612">
        <ele>1274.8</ele>
        <time>2022-07-17T13:24:25Z</time>
      </trkpt>
      <trkpt lat="44.90962" lon="6.62617">
        <ele>1274.4</ele>
        <time>2022-07-17T13:24:26Z</time>
      </trkpt>
      <trkpt lat="44.90954" lon="6.62622">
        <ele>1274</ele>
        <time>2022-07-17T13:24:27Z</time>
      </trkpt>
      <trkpt lat="44.90946" lon="6.62629">
        <ele>1273.6</ele>
        <time>2022-07-17T13:24:28Z</time>
      </trkpt>
      <trkpt lat="44.90938" lon="6.62636">
        <ele>1273.2</ele>
        <time>2022-07-17T13:24:29Z</time>
      </trkpt>
      <trkpt lat="44.9093" lon="6.62641">
        <ele>1273.2</ele>
        <time>2022-07-17T13:24:30Z</time>
      </trkpt>
      <trkpt lat="44.90922" lon="6.62646">
        <ele>1272.6</ele>
        <time>2022-07-17T13:24:31Z</time>
      </trkpt>
      <trkpt lat="44.90915" lon="6.62652">
        <ele>1272.2</ele>
        <time>2022-07-17T13:24:32Z</time>
      </trkpt>
      <trkpt lat="44.90906" lon="6.62658">
        <ele>1272</ele>
        <time>2022-07-17T13:24:33Z</time>
      </trkpt>
      <trkpt lat="44.90897" lon="6.62665">
        <ele>1271.6</ele>
        <time>2022-07-17T13:24:34Z</time>
      </trkpt>
      <trkpt lat="44.90889" lon="6.6267">
        <ele>1271.2</ele>
        <time>2022-07-17T13:24:35Z</time>
      </trkpt>
      <trkpt lat="44.90881" lon="6.62677">
        <ele>1270.8</ele>
        <time>2022-07-17T13:24:36Z</time>
      </trkpt>
      <trkpt lat="44.90872" lon="6.62686">
        <ele>1270.4</ele>
        <time>2022-07-17T13:24:37Z</time>
      </trkpt>
      <trkpt lat="44.90863" lon="6.62692">
        <ele>1270</ele>
        <time>2022-07-17T13:24:38Z</time>
      </trkpt>
      <trkpt lat="44.90854" lon="6.62697">
        <ele>1269.2</ele>
        <time>2022-07-17T13:24:39Z</time>
      </trkpt>
      <trkpt lat="44.90844" lon="6.62704">
        <ele>1268.6</ele>
        <time>2022-07-17T13:24:40Z</time>
      </trkpt>
      <trkpt lat="44.90835" lon="6.62713">
        <ele>1268</ele>
        <time>2022-07-17T13:24:41Z</time>
      </trkpt>
      <trkpt lat="44.90825" lon="6.62719">
        <ele>1267.2</ele>
        <time>2022-07-17T13:24:42Z</time>
      </trkpt>
      <trkpt lat="44.90817" lon="6.62724">
        <ele>1266.6</ele>
        <time>2022-07-17T13:24:43Z</time>
      </trkpt>
      <trkpt lat="44.90808" lon="6.62731">
        <ele>1266</ele>
        <time>2022-07-17T13:24:44Z</time>
      </trkpt>
      <trkpt lat="44.908" lon="6.62738">
        <ele>1265.4</ele>
        <time>2022-07-17T13:24:45Z</time>
      </trkpt>
      <trkpt lat="44.90791" lon="6.62745">
        <ele>1264.8</ele>
        <time>2022-07-17T13:24:46Z</time>
      </trkpt>
      <trkpt lat="44.9078" lon="6.62749">
        <ele>1264</ele>
        <time>2022-07-17T13:24:47Z</time>
      </trkpt>
      <trkpt lat="44.90769" lon="6.62753">
        <ele>1263.4</ele>
        <time>2022-07-17T13:24:48Z</time>
      </trkpt>
      <trkpt lat="44.90759" lon="6.62756">
        <ele>1262.6</ele>
        <time>2022-07-17T13:24:49Z</time>
      </trkpt>
      <trkpt lat="44.90748" lon="6.6276">
        <ele>1261.6</ele>
        <time>2022-07-17T13:24:50Z</time>
      </trkpt>
      <trkpt lat="44.90736" lon="6.62764">
        <ele>1261.6</ele>
        <time>2022-07-17T13:24:51Z</time>
      </trkpt>
      <trkpt lat="44.90724" lon="6.62764">
        <ele>1260.8</ele>
        <time>2022-07-17T13:24:52Z</time>
      </trkpt>
      <trkpt lat="44.90714" lon="6.62763">
        <ele>1260</ele>
        <time>2022-07-17T13:24:53Z</time>
      </trkpt>
      <trkpt lat="44.90704" lon="6.62763">
        <ele>1259.2</ele>
        <time>2022-07-17T13:24:54Z</time>
      </trkpt>
      <trkpt lat="44.90693" lon="6.62765">
        <ele>1258.6</ele>
        <time>2022-07-17T13:24:55Z</time>
      </trkpt>
      <trkpt lat="44.90683" lon="6.62769">
        <ele>1258</ele>
        <time>2022-07-17T13:24:56Z</time>
      </trkpt>
      <trkpt lat="44.90673" lon="6.62769">
        <ele>1257.4</ele>
        <time>2022-07-17T13:24:57Z</time>
      </trkpt>
      <trkpt lat="44.90663" lon="6.62769">
        <ele>1256.8</ele>
        <time>2022-07-17T13:24:58Z</time>
      </trkpt>
      <trkpt lat="44.90653" lon="6.6277">
        <ele>1256.2</ele>
        <time>2022-07-17T13:24:59Z</time>
      </trkpt>
      <trkpt lat="44.90644" lon="6.62772">
        <ele>1255.4</ele>
        <time>2022-07-17T13:25:00Z</time>
      </trkpt>
      <trkpt lat="44.90634" lon="6.62777">
        <ele>1254.6</ele>
        <time>2022-07-17T13:25:01Z</time>
      </trkpt>
      <trkpt lat="44.90625" lon="6.62783">
        <ele>1253.6</ele>
        <time>2022-07-17T13:25:02Z</time>
      </trkpt>
      <trkpt lat="44.90614" lon="6.62787">
        <ele>1252.8</ele>
        <time>2022-07-17T13:25:03Z</time>
      </trkpt>
      <trkpt lat="44.90605" lon="6.6279">
        <ele>1252</ele>
        <time>2022-07-17T13:25:04Z</time>
      </trkpt>
      <trkpt lat="44.90597" lon="6.62796">
        <ele>1251.2</ele>
        <time>2022-07-17T13:25:05Z</time>
      </trkpt>
      <trkpt lat="44.90591" lon="6.62801">
        <ele>1250.4</ele>
        <time>2022-07-17T13:25:06Z</time>
      </trkpt>
      <trkpt lat="44.90584" lon="6.62807">
        <ele>1249.6</ele>
        <time>2022-07-17T13:25:07Z</time>
      </trkpt>
      <trkpt lat="44.90577" lon="6.6281">
        <ele>1248.8</ele>
        <time>2022-07-17T13:25:08Z</time>
      </trkpt>
      <trkpt lat="44.9057" lon="6.62813">
        <ele>1248</ele>
        <time>2022-07-17T13:25:09Z</time>
      </trkpt>
      <trkpt lat="44.90564" lon="6.62816">
        <ele>1247.2</ele>
        <time>2022-07-17T13:25:10Z</time>
      </trkpt>
      <trkpt lat="44.90557" lon="6.62818">
        <ele>1246.6</ele>
        <time>2022-07-17T13:25:11Z</time>
      </trkpt>
      <trkpt lat="44.9055" lon="6.6282">
        <ele>1246</ele>
        <time>2022-07-17T13:25:12Z</time>
      </trkpt>
      <trkpt lat="44.90541" lon="6.62821">
        <ele>1245.6</ele>
        <time>2022-07-17T13:25:13Z</time>
      </trkpt>
      <trkpt lat="44.90533" lon="6.62822">
        <ele>1245</ele>
        <time>2022-07-17T13:25:14Z</time>
      </trkpt>
      <trkpt lat="44.90524" lon="6.62821">
        <ele>1244.4</ele>
        <time>2022-07-17T13:25:15Z</time>
      </trkpt>
      <trkpt lat="44.90516" lon="6.62818">
        <ele>1244</ele>
        <time>2022-07-17T13:25:16Z</time>
      </trkpt>
      <trkpt lat="44.90507" lon="6.62814">
        <ele>1243.4</ele>
        <time>2022-07-17T13:25:17Z</time>
      </trkpt>
      <trkpt lat="44.90498" lon="6.62808">
        <ele>1243</ele>
        <time>2022-07-17T13:25:18Z</time>
      </trkpt>
      <trkpt lat="44.90488" lon="6.62804">
        <ele>1242.6</ele>
        <time>2022-07-17T13:25:19Z</time>
      </trkpt>
      <trkpt lat="44.90479" lon="6.62802">
        <ele>1242.2</ele>
        <time>2022-07-17T13:25:20Z</time>
      </trkpt>
      <trkpt lat="44.90469" lon="6.628">
        <ele>1242</ele>
        <time>2022-07-17T13:25:21Z</time>
      </trkpt>
      <trkpt lat="44.9046" lon="6.62796">
        <ele>1241.4</ele>
        <time>2022-07-17T13:25:22Z</time>
      </trkpt>
      <trkpt lat="44.9045" lon="6.62794">
        <ele>1241</ele>
        <time>2022-07-17T13:25:23Z</time>
      </trkpt>
      <trkpt lat="44.90442" lon="6.62793">
        <ele>1240.4</ele>
        <time>2022-07-17T13:25:24Z</time>
      </trkpt>
      <trkpt lat="44.90434" lon="6.62793">
        <ele>1240.4</ele>
        <time>2022-07-17T13:25:25Z</time>
      </trkpt>
      <trkpt lat="44.90426" lon="6.62797">
        <ele>1240</ele>
        <time>2022-07-17T13:25:26Z</time>
      </trkpt>
      <trkpt lat="44.90418" lon="6.62802">
        <ele>1239.4</ele>
        <time>2022-07-17T13:25:27Z</time>
      </trkpt>
      <trkpt lat="44.9041" lon="6.62807">
        <ele>1238.8</ele>
        <time>2022-07-17T13:25:28Z</time>
      </trkpt>
      <trkpt lat="44.90404" lon="6.62812">
        <ele>1238.2</ele>
        <time>2022-07-17T13:25:29Z</time>
      </trkpt>
      <trkpt lat="44.90397" lon="6.62817">
        <ele>1237.8</ele>
        <time>2022-07-17T13:25:30Z</time>
      </trkpt>
      <trkpt lat="44.90389" lon="6.62823">
        <ele>1237.4</ele>
        <time>2022-07-17T13:25:31Z</time>
      </trkpt>
      <trkpt lat="44.90383" lon="6.62829">
        <ele>1236.8</ele>
        <time>2022-07-17T13:25:32Z</time>
      </trkpt>
      <trkpt lat="44.90376" lon="6.62837">
        <ele>1236.4</ele>
        <time>2022-07-17T13:25:33Z</time>
      </trkpt>
      <trkpt lat="44.9037" lon="6.62845">
        <ele>1236</ele>
        <time>2022-07-17T13:25:34Z</time>
      </trkpt>
      <trkpt lat="44.90363" lon="6.62854">
        <ele>1235.6</ele>
        <time>2022-07-17T13:25:35Z</time>
      </trkpt>
      <trkpt lat="44.90358" lon="6.62864">
        <ele>1235.4</ele>
        <time>2022-07-17T13:25:36Z</time>
      </trkpt>
      <trkpt lat="44.90353" lon="6.62875">
        <ele>1235</ele>
        <time>2022-07-17T13:25:37Z</time>
      </trkpt>
      <trkpt lat="44.90349" lon="6.62886">
        <ele>1234.8</ele>
        <time>2022-07-17T13:25:38Z</time>
      </trkpt>
      <trkpt lat="44.90346" lon="6.629">
        <ele>1234.2</ele>
        <time>2022-07-17T13:25:39Z</time>
      </trkpt>
      <trkpt lat="44.90344" lon="6.62912">
        <ele>1233.8</ele>
        <time>2022-07-17T13:25:40Z</time>
      </trkpt>
      <trkpt lat="44.90342" lon="6.62923">
        <ele>1233.4</ele>
        <time>2022-07-17T13:25:41Z</time>
      </trkpt>
      <trkpt lat="44.90341" lon="6.62934">
        <ele>1233</ele>
        <time>2022-07-17T13:25:42Z</time>
      </trkpt>
      <trkpt lat="44.9034" lon="6.62945">
        <ele>1232.6</ele>
        <time>2022-07-17T13:25:43Z</time>
      </trkpt>
      <trkpt lat="44.90339" lon="6.62955">
        <ele>1232.2</ele>
        <time>2022-07-17T13:25:44Z</time>
      </trkpt>
      <trkpt lat="44.9034" lon="6.62964">
        <ele>1231.8</ele>
        <time>2022-07-17T13:25:45Z</time>
      </trkpt>
      <trkpt lat="44.9034" lon="6.62972">
        <ele>1231.4</ele>
        <time>2022-07-17T13:25:46Z</time>
      </trkpt>
      <trkpt lat="44.9034" lon="6.62978">
        <ele>1231.2</ele>
        <time>2022-07-17T13:25:47Z</time>
      </trkpt>
      <trkpt lat="44.90341" lon="6.62983">
        <ele>1230.8</ele>
        <time>2022-07-17T13:25:48Z</time>
      </trkpt>
      <trkpt lat="44.90341" lon="6.62988">
        <ele>1230.6</ele>
        <time>2022-07-17T13:25:49Z</time>
      </trkpt>
      <trkpt lat="44.90341" lon="6.62992">
        <ele>1230.6</ele>
        <time>2022-07-17T13:25:50Z</time>
      </trkpt>
      <trkpt lat="44.90341" lon="6.62997">
        <ele>1230.4</ele>
        <time>2022-07-17T13:25:51Z</time>
      </trkpt>
      <trkpt lat="44.90341" lon="6.63003">
        <ele>1230.4</ele>
        <time>2022-07-17T13:25:52Z</time>
      </trkpt>
      <trkpt lat="44.9034" lon="6.63009">
        <ele>1230</ele>
        <time>2022-07-17T13:25:53Z</time>
      </trkpt>
      <trkpt lat="44.90339" lon="6.63015">
        <ele>1230</ele>
        <time>2022-07-17T13:25:54Z</time>
      </trkpt>
      <trkpt lat="44.90337" lon="6.63021">
        <ele>1229.6</ele>
        <time>2022-07-17T13:25:55Z</time>
      </trkpt>
      <trkpt lat="44.90335" lon="6.63028">
        <ele>1229.6</ele>
        <time>2022-07-17T13:25:56Z</time>
      </trkpt>
      <trkpt lat="44.90331" lon="6.63034">
        <ele>1229.6</ele>
        <time>2022-07-17T13:25:57Z</time>
      </trkpt>
      <trkpt lat="44.90328" lon="6.63041">
        <ele>1229.2</ele>
        <time>2022-07-17T13:25:58Z</time>
      </trkpt>
      <trkpt lat="44.90324" lon="6.63047">
        <ele>1229.2</ele>
        <time>2022-07-17T13:25:59Z</time>
      </trkpt>
      <trkpt lat="44.90319" lon="6.63053">
        <ele>1229</ele>
        <time>2022-07-17T13:26:00Z</time>
      </trkpt>
      <trkpt lat="44.90315" lon="6.6306">
        <ele>1228.6</ele>
        <time>2022-07-17T13:26:01Z</time>
      </trkpt>
      <trkpt lat="44.9031" lon="6.63067">
        <ele>1228.6</ele>
        <time>2022-07-17T13:26:02Z</time>
      </trkpt>
      <trkpt lat="44.90306" lon="6.63074">
        <ele>1228.2</ele>
        <time>2022-07-17T13:26:03Z</time>
      </trkpt>
      <trkpt lat="44.90302" lon="6.63081">
        <ele>1227.8</ele>
        <time>2022-07-17T13:26:04Z</time>
      </trkpt>
      <trkpt lat="44.90298" lon="6.63086">
        <ele>1227.6</ele>
        <time>2022-07-17T13:26:05Z</time>
      </trkpt>
      <trkpt lat="44.90294" lon="6.63091">
        <ele>1227.2</ele>
        <time>2022-07-17T13:26:06Z</time>
      </trkpt>
      <trkpt lat="44.9029" lon="6.63096">
        <ele>1227</ele>
        <time>2022-07-17T13:26:07Z</time>
      </trkpt>
      <trkpt lat="44.90287" lon="6.63101">
        <ele>1226.4</ele>
        <time>2022-07-17T13:26:08Z</time>
      </trkpt>
      <trkpt lat="44.90283" lon="6.63106">
        <ele>1226</ele>
        <time>2022-07-17T13:26:09Z</time>
      </trkpt>
      <trkpt lat="44.90279" lon="6.63111">
        <ele>1225.6</ele>
        <time>2022-07-17T13:26:10Z</time>
      </trkpt>
      <trkpt lat="44.90276" lon="6.63116">
        <ele>1225.4</ele>
        <time>2022-07-17T13:26:11Z</time>
      </trkpt>
      <trkpt lat="44.90273" lon="6.63122">
        <ele>1225.4</ele>
        <time>2022-07-17T13:26:12Z</time>
      </trkpt>
      <trkpt lat="44.9027" lon="6.63128">
        <ele>1224.8</ele>
        <time>2022-07-17T13:26:13Z</time>
      </trkpt>
      <trkpt lat="44.90266" lon="6.63134">
        <ele>1224.6</ele>
        <time>2022-07-17T13:26:14Z</time>
      </trkpt>
      <trkpt lat="44.90261" lon="6.63139">
        <ele>1224.4</ele>
        <time>2022-07-17T13:26:15Z</time>
      </trkpt>
      <trkpt lat="44.90256" lon="6.63144">
        <ele>1224</ele>
        <time>2022-07-17T13:26:16Z</time>
      </trkpt>
      <trkpt lat="44.9025" lon="6.63149">
        <ele>1223.8</ele>
        <time>2022-07-17T13:26:17Z</time>
      </trkpt>
      <trkpt lat="44.90243" lon="6.63153">
        <ele>1223.4</ele>
        <time>2022-07-17T13:26:18Z</time>
      </trkpt>
      <trkpt lat="44.90236" lon="6.63156">
        <ele>1223.2</ele>
        <time>2022-07-17T13:26:19Z</time>
      </trkpt>
      <trkpt lat="44.90228" lon="6.63157">
        <ele>1222.6</ele>
        <time>2022-07-17T13:26:20Z</time>
      </trkpt>
      <trkpt lat="44.90219" lon="6.63158">
        <ele>1222.4</ele>
        <time>2022-07-17T13:26:21Z</time>
      </trkpt>
      <trkpt lat="44.90211" lon="6.63158">
        <ele>1222</ele>
        <time>2022-07-17T13:26:22Z</time>
      </trkpt>
      <trkpt lat="44.90203" lon="6.63158">
        <ele>1221.4</ele>
        <time>2022-07-17T13:26:23Z</time>
      </trkpt>
      <trkpt lat="44.90195" lon="6.6316">
        <ele>1220.8</ele>
        <time>2022-07-17T13:26:24Z</time>
      </trkpt>
      <trkpt lat="44.90188" lon="6.63162">
        <ele>1220</ele>
        <time>2022-07-17T13:26:25Z</time>
      </trkpt>
      <trkpt lat="44.9018" lon="6.63165">
        <ele>1219.4</ele>
        <time>2022-07-17T13:26:26Z</time>
      </trkpt>
      <trkpt lat="44.90172" lon="6.6317">
        <ele>1218.8</ele>
        <time>2022-07-17T13:26:27Z</time>
      </trkpt>
      <trkpt lat="44.90165" lon="6.63175">
        <ele>1218.2</ele>
        <time>2022-07-17T13:26:28Z</time>
      </trkpt>
      <trkpt lat="44.90157" lon="6.63181">
        <ele>1217.6</ele>
        <time>2022-07-17T13:26:29Z</time>
      </trkpt>
      <trkpt lat="44.9015" lon="6.63186">
        <ele>1216.8</ele>
        <time>2022-07-17T13:26:30Z</time>
      </trkpt>
      <trkpt lat="44.90143" lon="6.63191">
        <ele>1216.4</ele>
        <time>2022-07-17T13:26:31Z</time>
      </trkpt>
      <trkpt lat="44.90136" lon="6.63196">
        <ele>1215.8</ele>
        <time>2022-07-17T13:26:32Z</time>
      </trkpt>
      <trkpt lat="44.90129" lon="6.63201">
        <ele>1215.2</ele>
        <time>2022-07-17T13:26:33Z</time>
      </trkpt>
      <trkpt lat="44.90123" lon="6.63206">
        <ele>1214.6</ele>
        <time>2022-07-17T13:26:34Z</time>
      </trkpt>
      <trkpt lat="44.90116" lon="6.63211">
        <ele>1213.6</ele>
        <time>2022-07-17T13:26:36Z</time>
      </trkpt>
      <trkpt lat="44.90109" lon="6.63216">
        <ele>1213</ele>
        <time>2022-07-17T13:26:37Z</time>
      </trkpt>
      <trkpt lat="44.90103" lon="6.63221">
        <ele>1212.4</ele>
        <time>2022-07-17T13:26:38Z</time>
      </trkpt>
      <trkpt lat="44.90096" lon="6.63226">
        <ele>1211.8</ele>
        <time>2022-07-17T13:26:39Z</time>
      </trkpt>
      <trkpt lat="44.90089" lon="6.63232">
        <ele>1211.6</ele>
        <time>2022-07-17T13:26:40Z</time>
      </trkpt>
      <trkpt lat="44.90082" lon="6.63238">
        <ele>1211.2</ele>
        <time>2022-07-17T13:26:41Z</time>
      </trkpt>
      <trkpt lat="44.90075" lon="6.63243">
        <ele>1210.8</ele>
        <time>2022-07-17T13:26:42Z</time>
      </trkpt>
      <trkpt lat="44.90068" lon="6.63249">
        <ele>1210.2</ele>
        <time>2022-07-17T13:26:43Z</time>
      </trkpt>
      <trkpt lat="44.90061" lon="6.63254">
        <ele>1209.8</ele>
        <time>2022-07-17T13:26:44Z</time>
      </trkpt>
      <trkpt lat="44.90054" lon="6.6326">
        <ele>1209.6</ele>
        <time>2022-07-17T13:26:45Z</time>
      </trkpt>
      <trkpt lat="44.90046" lon="6.63266">
        <ele>1209.2</ele>
        <time>2022-07-17T13:26:46Z</time>
      </trkpt>
      <trkpt lat="44.90039" lon="6.63271">
        <ele>1209.2</ele>
        <time>2022-07-17T13:26:47Z</time>
      </trkpt>
      <trkpt lat="44.90031" lon="6.63276">
        <ele>1209.2</ele>
        <time>2022-07-17T13:26:48Z</time>
      </trkpt>
      <trkpt lat="44.90025" lon="6.6328">
        <ele>1208.8</ele>
        <time>2022-07-17T13:26:49Z</time>
      </trkpt>
      <trkpt lat="44.90018" lon="6.63285">
        <ele>1208.8</ele>
        <time>2022-07-17T13:26:50Z</time>
      </trkpt>
      <trkpt lat="44.90011" lon="6.63289">
        <ele>1208.2</ele>
        <time>2022-07-17T13:26:51Z</time>
      </trkpt>
      <trkpt lat="44.90005" lon="6.63294">
        <ele>1208</ele>
        <time>2022-07-17T13:26:52Z</time>
      </trkpt>
      <trkpt lat="44.89999" lon="6.63298">
        <ele>1207.8</ele>
        <time>2022-07-17T13:26:53Z</time>
      </trkpt>
      <trkpt lat="44.89993" lon="6.63302">
        <ele>1207.8</ele>
        <time>2022-07-17T13:26:54Z</time>
      </trkpt>
      <trkpt lat="44.89987" lon="6.63306">
        <ele>1207.4</ele>
        <time>2022-07-17T13:26:55Z</time>
      </trkpt>
      <trkpt lat="44.89981" lon="6.6331">
        <ele>1207.4</ele>
        <time>2022-07-17T13:26:56Z</time>
      </trkpt>
      <trkpt lat="44.89976" lon="6.63314">
        <ele>1207</ele>
        <time>2022-07-17T13:26:57Z</time>
      </trkpt>
      <trkpt lat="44.8997" lon="6.63318">
        <ele>1206.8</ele>
        <time>2022-07-17T13:26:58Z</time>
      </trkpt>
      <trkpt lat="44.89964" lon="6.63322">
        <ele>1206.6</ele>
        <time>2022-07-17T13:26:59Z</time>
      </trkpt>
      <trkpt lat="44.89958" lon="6.63326">
        <ele>1206.6</ele>
        <time>2022-07-17T13:27:00Z</time>
      </trkpt>
      <trkpt lat="44.89953" lon="6.63331">
        <ele>1206.2</ele>
        <time>2022-07-17T13:27:01Z</time>
      </trkpt>
      <trkpt lat="44.89947" lon="6.63335">
        <ele>1206.2</ele>
        <time>2022-07-17T13:27:02Z</time>
      </trkpt>
      <trkpt lat="44.89942" lon="6.6334">
        <ele>1206.2</ele>
        <time>2022-07-17T13:27:03Z</time>
      </trkpt>
      <trkpt lat="44.89937" lon="6.63343">
        <ele>1206</ele>
        <time>2022-07-17T13:27:04Z</time>
      </trkpt>
      <trkpt lat="44.89931" lon="6.63347">
        <ele>1206</ele>
        <time>2022-07-17T13:27:05Z</time>
      </trkpt>
      <trkpt lat="44.89927" lon="6.63351">
        <ele>1205.8</ele>
        <time>2022-07-17T13:27:06Z</time>
      </trkpt>
      <trkpt lat="44.89922" lon="6.63354">
        <ele>1205.8</ele>
        <time>2022-07-17T13:27:07Z</time>
      </trkpt>
      <trkpt lat="44.89918" lon="6.63357">
        <ele>1205.6</ele>
        <time>2022-07-17T13:27:08Z</time>
      </trkpt>
      <trkpt lat="44.89915" lon="6.63359">
        <ele>1205.6</ele>
        <time>2022-07-17T13:27:09Z</time>
      </trkpt>
      <trkpt lat="44.89912" lon="6.63361">
        <ele>1205.4</ele>
        <time>2022-07-17T13:27:10Z</time>
      </trkpt>
      <trkpt lat="44.89909" lon="6.63362">
        <ele>1205.4</ele>
        <time>2022-07-17T13:27:11Z</time>
      </trkpt>
      <trkpt lat="44.89907" lon="6.63364">
        <ele>1205.4</ele>
        <time>2022-07-17T13:27:12Z</time>
      </trkpt>
      <trkpt lat="44.89905" lon="6.63366">
        <ele>1205</ele>
        <time>2022-07-17T13:27:13Z</time>
      </trkpt>
      <trkpt lat="44.89903" lon="6.63368">
        <ele>1205</ele>
        <time>2022-07-17T13:27:14Z</time>
      </trkpt>
      <trkpt lat="44.899" lon="6.6337">
        <ele>1205</ele>
        <time>2022-07-17T13:27:15Z</time>
      </trkpt>
      <trkpt lat="44.89897" lon="6.63373">
        <ele>1204.8</ele>
        <time>2022-07-17T13:27:16Z</time>
      </trkpt>
      <trkpt lat="44.89894" lon="6.63376">
        <ele>1204.8</ele>
        <time>2022-07-17T13:27:17Z</time>
      </trkpt>
      <trkpt lat="44.89891" lon="6.63379">
        <ele>1204.8</ele>
        <time>2022-07-17T13:27:18Z</time>
      </trkpt>
      <trkpt lat="44.89886" lon="6.6338">
        <ele>1204.4</ele>
        <time>2022-07-17T13:27:19Z</time>
      </trkpt>
      <trkpt lat="44.89881" lon="6.63381">
        <ele>1204.4</ele>
        <time>2022-07-17T13:27:20Z</time>
      </trkpt>
      <trkpt lat="44.89876" lon="6.63382">
        <ele>1204.2</ele>
        <time>2022-07-17T13:27:21Z</time>
      </trkpt>
      <trkpt lat="44.8987" lon="6.63383">
        <ele>1204.2</ele>
        <time>2022-07-17T13:27:22Z</time>
      </trkpt>
      <trkpt lat="44.89865" lon="6.63385">
        <ele>1203.8</ele>
        <time>2022-07-17T13:27:23Z</time>
      </trkpt>
      <trkpt lat="44.8986" lon="6.63386">
        <ele>1203.6</ele>
        <time>2022-07-17T13:27:24Z</time>
      </trkpt>
      <trkpt lat="44.89854" lon="6.63388">
        <ele>1203.6</ele>
        <time>2022-07-17T13:27:25Z</time>
      </trkpt>
      <trkpt lat="44.89848" lon="6.63388">
        <ele>1203.4</ele>
        <time>2022-07-17T13:27:26Z</time>
      </trkpt>
      <trkpt lat="44.89842" lon="6.63389">
        <ele>1203.4</ele>
        <time>2022-07-17T13:27:27Z</time>
      </trkpt>
      <trkpt lat="44.89836" lon="6.6339">
        <ele>1203.4</ele>
        <time>2022-07-17T13:27:28Z</time>
      </trkpt>
      <trkpt lat="44.8983" lon="6.63392">
        <ele>1203.4</ele>
        <time>2022-07-17T13:27:29Z</time>
      </trkpt>
      <trkpt lat="44.89823" lon="6.63395">
        <ele>1203</ele>
        <time>2022-07-17T13:27:30Z</time>
      </trkpt>
      <trkpt lat="44.89817" lon="6.63397">
        <ele>1202.8</ele>
        <time>2022-07-17T13:27:31Z</time>
      </trkpt>
      <trkpt lat="44.8981" lon="6.634">
        <ele>1202.8</ele>
        <time>2022-07-17T13:27:32Z</time>
      </trkpt>
      <trkpt lat="44.89803" lon="6.63402">
        <ele>1202.6</ele>
        <time>2022-07-17T13:27:33Z</time>
      </trkpt>
      <trkpt lat="44.89797" lon="6.63405">
        <ele>1202.6</ele>
        <time>2022-07-17T13:27:34Z</time>
      </trkpt>
      <trkpt lat="44.89791" lon="6.63407">
        <ele>1202.2</ele>
        <time>2022-07-17T13:27:35Z</time>
      </trkpt>
      <trkpt lat="44.89784" lon="6.6341">
        <ele>1202</ele>
        <time>2022-07-17T13:27:36Z</time>
      </trkpt>
      <trkpt lat="44.89778" lon="6.63413">
        <ele>1202</ele>
        <time>2022-07-17T13:27:37Z</time>
      </trkpt>
      <trkpt lat="44.89771" lon="6.63415">
        <ele>1201.6</ele>
        <time>2022-07-17T13:27:38Z</time>
      </trkpt>
      <trkpt lat="44.89765" lon="6.63418">
        <ele>1201.6</ele>
        <time>2022-07-17T13:27:39Z</time>
      </trkpt>
      <trkpt lat="44.89758" lon="6.63419">
        <ele>1201.4</ele>
        <time>2022-07-17T13:27:40Z</time>
      </trkpt>
      <trkpt lat="44.89752" lon="6.63421">
        <ele>1201.4</ele>
        <time>2022-07-17T13:27:41Z</time>
      </trkpt>
      <trkpt lat="44.89746" lon="6.63422">
        <ele>1201.4</ele>
        <time>2022-07-17T13:27:42Z</time>
      </trkpt>
      <trkpt lat="44.8974" lon="6.63424">
        <ele>1201</ele>
        <time>2022-07-17T13:27:43Z</time>
      </trkpt>
      <trkpt lat="44.89734" lon="6.63426">
        <ele>1200.8</ele>
        <time>2022-07-17T13:27:44Z</time>
      </trkpt>
      <trkpt lat="44.89727" lon="6.63429">
        <ele>1200.8</ele>
        <time>2022-07-17T13:27:45Z</time>
      </trkpt>
      <trkpt lat="44.89721" lon="6.63432">
        <ele>1200.8</ele>
        <time>2022-07-17T13:27:46Z</time>
      </trkpt>
      <trkpt lat="44.89716" lon="6.63435">
        <ele>1200.6</ele>
        <time>2022-07-17T13:27:47Z</time>
      </trkpt>
      <trkpt lat="44.8971" lon="6.63438">
        <ele>1200.6</ele>
        <time>2022-07-17T13:27:48Z</time>
      </trkpt>
      <trkpt lat="44.89704" lon="6.6344">
        <ele>1200.6</ele>
        <time>2022-07-17T13:27:49Z</time>
      </trkpt>
      <trkpt lat="44.89698" lon="6.63442">
        <ele>1200.2</ele>
        <time>2022-07-17T13:27:50Z</time>
      </trkpt>
      <trkpt lat="44.89693" lon="6.63444">
        <ele>1200.2</ele>
        <time>2022-07-17T13:27:51Z</time>
      </trkpt>
      <trkpt lat="44.89688" lon="6.63445">
        <ele>1200.2</ele>
        <time>2022-07-17T13:27:52Z</time>
      </trkpt>
      <trkpt lat="44.89682" lon="6.63446">
        <ele>1200.2</ele>
        <time>2022-07-17T13:27:53Z</time>
      </trkpt>
      <trkpt lat="44.89677" lon="6.63446">
        <ele>1200</ele>
        <time>2022-07-17T13:27:54Z</time>
      </trkpt>
      <trkpt lat="44.89673" lon="6.63446">
        <ele>1200</ele>
        <time>2022-07-17T13:27:55Z</time>
      </trkpt>
      <trkpt lat="44.89669" lon="6.63447">
        <ele>1199.6</ele>
        <time>2022-07-17T13:27:56Z</time>
      </trkpt>
      <trkpt lat="44.89665" lon="6.63446">
        <ele>1199.6</ele>
        <time>2022-07-17T13:27:57Z</time>
      </trkpt>
      <trkpt lat="44.89661" lon="6.63447">
        <ele>1199.6</ele>
        <time>2022-07-17T13:27:58Z</time>
      </trkpt>
      <trkpt lat="44.89658" lon="6.6345">
        <ele>1199.4</ele>
        <time>2022-07-17T13:27:59Z</time>
      </trkpt>
      <trkpt lat="44.89655" lon="6.63454">
        <ele>1199.4</ele>
        <time>2022-07-17T13:28:00Z</time>
      </trkpt>
      <trkpt lat="44.89654" lon="6.6346">
        <ele>1199.4</ele>
        <time>2022-07-17T13:28:01Z</time>
      </trkpt>
      <trkpt lat="44.89652" lon="6.63466">
        <ele>1199.8</ele>
        <time>2022-07-17T13:28:02Z</time>
      </trkpt>
      <trkpt lat="44.89651" lon="6.63472">
        <ele>1199.8</ele>
        <time>2022-07-17T13:28:03Z</time>
      </trkpt>
      <trkpt lat="44.89649" lon="6.63479">
        <ele>1199.8</ele>
        <time>2022-07-17T13:28:04Z</time>
      </trkpt>
      <trkpt lat="44.89648" lon="6.63485">
        <ele>1200</ele>
        <time>2022-07-17T13:28:05Z</time>
      </trkpt>
      <trkpt lat="44.89647" lon="6.63492">
        <ele>1200</ele>
        <time>2022-07-17T13:28:06Z</time>
      </trkpt>
      <trkpt lat="44.89645" lon="6.63499">
        <ele>1200</ele>
        <time>2022-07-17T13:28:07Z</time>
      </trkpt>
      <trkpt lat="44.89644" lon="6.63506">
        <ele>1199.8</ele>
        <time>2022-07-17T13:28:08Z</time>
      </trkpt>
      <trkpt lat="44.89643" lon="6.63513">
        <ele>1199.8</ele>
        <time>2022-07-17T13:28:09Z</time>
      </trkpt>
      <trkpt lat="44.89641" lon="6.63519">
        <ele>1199.4</ele>
        <time>2022-07-17T13:28:10Z</time>
      </trkpt>
      <trkpt lat="44.89639" lon="6.63527">
        <ele>1199.4</ele>
        <time>2022-07-17T13:28:11Z</time>
      </trkpt>
      <trkpt lat="44.89637" lon="6.63535">
        <ele>1199</ele>
        <time>2022-07-17T13:28:12Z</time>
      </trkpt>
      <trkpt lat="44.89635" lon="6.63542">
        <ele>1199</ele>
        <time>2022-07-17T13:28:13Z</time>
      </trkpt>
      <trkpt lat="44.89633" lon="6.63549">
        <ele>1198.8</ele>
        <time>2022-07-17T13:28:14Z</time>
      </trkpt>
      <trkpt lat="44.89632" lon="6.63556">
        <ele>1198.8</ele>
        <time>2022-07-17T13:28:15Z</time>
      </trkpt>
      <trkpt lat="44.8963" lon="6.63563">
        <ele>1198.8</ele>
        <time>2022-07-17T13:28:16Z</time>
      </trkpt>
      <trkpt lat="44.89629" lon="6.63569">
        <ele>1198.8</ele>
        <time>2022-07-17T13:28:17Z</time>
      </trkpt>
      <trkpt lat="44.89628" lon="6.63574">
        <ele>1198.8</ele>
        <time>2022-07-17T13:28:18Z</time>
      </trkpt>
      <trkpt lat="44.89626" lon="6.6358">
        <ele>1198.8</ele>
        <time>2022-07-17T13:28:19Z</time>
      </trkpt>
      <trkpt lat="44.89624" lon="6.63585">
        <ele>1198.8</ele>
        <time>2022-07-17T13:28:20Z</time>
      </trkpt>
      <trkpt lat="44.89623" lon="6.6359">
        <ele>1198.8</ele>
        <time>2022-07-17T13:28:21Z</time>
      </trkpt>
      <trkpt lat="44.89621" lon="6.63595">
        <ele>1198.8</ele>
        <time>2022-07-17T13:28:22Z</time>
      </trkpt>
      <trkpt lat="44.8962" lon="6.636">
        <ele>1198.8</ele>
        <time>2022-07-17T13:28:23Z</time>
      </trkpt>
      <trkpt lat="44.89618" lon="6.63605">
        <ele>1198.8</ele>
        <time>2022-07-17T13:28:24Z</time>
      </trkpt>
      <trkpt lat="44.89617" lon="6.6361">
        <ele>1198.6</ele>
        <time>2022-07-17T13:28:25Z</time>
      </trkpt>
      <trkpt lat="44.89616" lon="6.63614">
        <ele>1198.6</ele>
        <time>2022-07-17T13:28:26Z</time>
      </trkpt>
      <trkpt lat="44.89615" lon="6.63618">
        <ele>1198.4</ele>
        <time>2022-07-17T13:28:27Z</time>
      </trkpt>
      <trkpt lat="44.89613" lon="6.63622">
        <ele>1198.4</ele>
        <time>2022-07-17T13:28:28Z</time>
      </trkpt>
      <trkpt lat="44.89611" lon="6.63626">
        <ele>1198.4</ele>
        <time>2022-07-17T13:28:29Z</time>
      </trkpt>
      <trkpt lat="44.89608" lon="6.63629">
        <ele>1198.4</ele>
        <time>2022-07-17T13:28:30Z</time>
      </trkpt>
      <trkpt lat="44.89604" lon="6.63632">
        <ele>1198.4</ele>
        <time>2022-07-17T13:28:31Z</time>
      </trkpt>
      <trkpt lat="44.896" lon="6.63634">
        <ele>1198</ele>
        <time>2022-07-17T13:28:32Z</time>
      </trkpt>
      <trkpt lat="44.89596" lon="6.63638">
        <ele>1198</ele>
        <time>2022-07-17T13:28:33Z</time>
      </trkpt>
      <trkpt lat="44.89591" lon="6.63641">
        <ele>1197.6</ele>
        <time>2022-07-17T13:28:34Z</time>
      </trkpt>
      <trkpt lat="44.89586" lon="6.63645">
        <ele>1197.4</ele>
        <time>2022-07-17T13:28:35Z</time>
      </trkpt>
      <trkpt lat="44.89581" lon="6.63649">
        <ele>1197.4</ele>
        <time>2022-07-17T13:28:36Z</time>
      </trkpt>
      <trkpt lat="44.89576" lon="6.63652">
        <ele>1197.4</ele>
        <time>2022-07-17T13:28:37Z</time>
      </trkpt>
      <trkpt lat="44.89571" lon="6.63655">
        <ele>1197.2</ele>
        <time>2022-07-17T13:28:38Z</time>
      </trkpt>
      <trkpt lat="44.89566" lon="6.63657">
        <ele>1197.2</ele>
        <time>2022-07-17T13:28:39Z</time>
      </trkpt>
      <trkpt lat="44.8956" lon="6.63661">
        <ele>1197</ele>
        <time>2022-07-17T13:28:40Z</time>
      </trkpt>
      <trkpt lat="44.89554" lon="6.63663">
        <ele>1197</ele>
        <time>2022-07-17T13:28:41Z</time>
      </trkpt>
      <trkpt lat="44.89549" lon="6.63666">
        <ele>1197</ele>
        <time>2022-07-17T13:28:42Z</time>
      </trkpt>
      <trkpt lat="44.89544" lon="6.63669">
        <ele>1196.8</ele>
        <time>2022-07-17T13:28:43Z</time>
      </trkpt>
      <trkpt lat="44.89539" lon="6.63673">
        <ele>1196.8</ele>
        <time>2022-07-17T13:28:44Z</time>
      </trkpt>
      <trkpt lat="44.89534" lon="6.63676">
        <ele>1196.8</ele>
        <time>2022-07-17T13:28:45Z</time>
      </trkpt>
      <trkpt lat="44.8953" lon="6.63678">
        <ele>1196.8</ele>
        <time>2022-07-17T13:28:46Z</time>
      </trkpt>
      <trkpt lat="44.89527" lon="6.6368">
        <ele>1196.6</ele>
        <time>2022-07-17T13:28:47Z</time>
      </trkpt>
      <trkpt lat="44.89524" lon="6.63682">
        <ele>1196.6</ele>
        <time>2022-07-17T13:28:48Z</time>
      </trkpt>
      <trkpt lat="44.89523" lon="6.63682">
        <ele>1196.6</ele>
        <time>2022-07-17T13:28:49Z</time>
      </trkpt>
      <trkpt lat="44.89521" lon="6.63682">
        <ele>1196.6</ele>
        <time>2022-07-17T13:28:50Z</time>
      </trkpt>
      <trkpt lat="44.8952" lon="6.63682">
        <ele>1196.6</ele>
        <time>2022-07-17T13:28:52Z</time>
      </trkpt>
      <trkpt lat="44.89519" lon="6.63682">
        <ele>1196.6</ele>
        <time>2022-07-17T13:28:53Z</time>
      </trkpt>
      <trkpt lat="44.89517" lon="6.6368">
        <ele>1196.6</ele>
        <time>2022-07-17T13:28:54Z</time>
      </trkpt>
      <trkpt lat="44.89515" lon="6.63679">
        <ele>1196.6</ele>
        <time>2022-07-17T13:28:55Z</time>
      </trkpt>
      <trkpt lat="44.89513" lon="6.63677">
        <ele>1196.6</ele>
        <time>2022-07-17T13:28:56Z</time>
      </trkpt>
      <trkpt lat="44.89511" lon="6.63675">
        <ele>1196.6</ele>
        <time>2022-07-17T13:28:57Z</time>
      </trkpt>
      <trkpt lat="44.89508" lon="6.63674">
        <ele>1196.6</ele>
        <time>2022-07-17T13:28:58Z</time>
      </trkpt>
      <trkpt lat="44.89505" lon="6.63674">
        <ele>1196.6</ele>
        <time>2022-07-17T13:28:59Z</time>
      </trkpt>
      <trkpt lat="44.89502" lon="6.63676">
        <ele>1196.2</ele>
        <time>2022-07-17T13:29:00Z</time>
      </trkpt>
      <trkpt lat="44.89499" lon="6.63679">
        <ele>1196.2</ele>
        <time>2022-07-17T13:29:01Z</time>
      </trkpt>
      <trkpt lat="44.89497" lon="6.63684">
        <ele>1196.2</ele>
        <time>2022-07-17T13:29:02Z</time>
      </trkpt>
      <trkpt lat="44.89494" lon="6.6369">
        <ele>1196.2</ele>
        <time>2022-07-17T13:29:03Z</time>
      </trkpt>
      <trkpt lat="44.89491" lon="6.63695">
        <ele>1196.2</ele>
        <time>2022-07-17T13:29:04Z</time>
      </trkpt>
      <trkpt lat="44.89489" lon="6.637">
        <ele>1196.2</ele>
        <time>2022-07-17T13:29:05Z</time>
      </trkpt>
      <trkpt lat="44.89486" lon="6.63704">
        <ele>1196.2</ele>
        <time>2022-07-17T13:29:06Z</time>
      </trkpt>
      <trkpt lat="44.89482" lon="6.63708">
        <ele>1196.2</ele>
        <time>2022-07-17T13:29:07Z</time>
      </trkpt>
      <trkpt lat="44.8948" lon="6.63711">
        <ele>1196.6</ele>
        <time>2022-07-17T13:29:08Z</time>
      </trkpt>
      <trkpt lat="44.89477" lon="6.63714">
        <ele>1196.8</ele>
        <time>2022-07-17T13:29:09Z</time>
      </trkpt>
      <trkpt lat="44.89475" lon="6.63716">
        <ele>1197</ele>
        <time>2022-07-17T13:29:10Z</time>
      </trkpt>
      <trkpt lat="44.89472" lon="6.63719">
        <ele>1197.4</ele>
        <time>2022-07-17T13:29:11Z</time>
      </trkpt>
      <trkpt lat="44.8947" lon="6.63721">
        <ele>1197.4</ele>
        <time>2022-07-17T13:29:12Z</time>
      </trkpt>
      <trkpt lat="44.89467" lon="6.63723">
        <ele>1197.8</ele>
        <time>2022-07-17T13:29:13Z</time>
      </trkpt>
      <trkpt lat="44.89464" lon="6.63725">
        <ele>1198.2</ele>
        <time>2022-07-17T13:29:14Z</time>
      </trkpt>
      <trkpt lat="44.89462" lon="6.63727">
        <ele>1198.4</ele>
        <time>2022-07-17T13:29:15Z</time>
      </trkpt>
      <trkpt lat="44.89459" lon="6.63729">
        <ele>1198.6</ele>
        <time>2022-07-17T13:29:16Z</time>
      </trkpt>
      <trkpt lat="44.89457" lon="6.63731">
        <ele>1199</ele>
        <time>2022-07-17T13:29:17Z</time>
      </trkpt>
      <trkpt lat="44.89455" lon="6.63733">
        <ele>1199.2</ele>
        <time>2022-07-17T13:29:18Z</time>
      </trkpt>
      <trkpt lat="44.89453" lon="6.63734">
        <ele>1199.4</ele>
        <time>2022-07-17T13:29:19Z</time>
      </trkpt>
      <trkpt lat="44.89451" lon="6.63736">
        <ele>1199.8</ele>
        <time>2022-07-17T13:29:20Z</time>
      </trkpt>
      <trkpt lat="44.8945" lon="6.63738">
        <ele>1200</ele>
        <time>2022-07-17T13:29:21Z</time>
      </trkpt>
      <trkpt lat="44.89448" lon="6.63739">
        <ele>1200.4</ele>
        <time>2022-07-17T13:29:22Z</time>
      </trkpt>
      <trkpt lat="44.89445" lon="6.63741">
        <ele>1200.8</ele>
        <time>2022-07-17T13:29:23Z</time>
      </trkpt>
      <trkpt lat="44.89443" lon="6.63743">
        <ele>1201</ele>
        <time>2022-07-17T13:29:24Z</time>
      </trkpt>
      <trkpt lat="44.89441" lon="6.63744">
        <ele>1201.4</ele>
        <time>2022-07-17T13:29:25Z</time>
      </trkpt>
      <trkpt lat="44.89438" lon="6.63746">
        <ele>1201.4</ele>
        <time>2022-07-17T13:29:26Z</time>
      </trkpt>
      <trkpt lat="44.89436" lon="6.63748">
        <ele>1201.8</ele>
        <time>2022-07-17T13:29:27Z</time>
      </trkpt>
      <trkpt lat="44.89434" lon="6.6375">
        <ele>1202.2</ele>
        <time>2022-07-17T13:29:28Z</time>
      </trkpt>
      <trkpt lat="44.89431" lon="6.63751">
        <ele>1202.4</ele>
        <time>2022-07-17T13:29:29Z</time>
      </trkpt>
      <trkpt lat="44.89429" lon="6.63753">
        <ele>1202.8</ele>
        <time>2022-07-17T13:29:30Z</time>
      </trkpt>
      <trkpt lat="44.89427" lon="6.63755">
        <ele>1203</ele>
        <time>2022-07-17T13:29:31Z</time>
      </trkpt>
      <trkpt lat="44.89425" lon="6.63756">
        <ele>1203.2</ele>
        <time>2022-07-17T13:29:32Z</time>
      </trkpt>
      <trkpt lat="44.89423" lon="6.63758">
        <ele>1203.2</ele>
        <time>2022-07-17T13:29:33Z</time>
      </trkpt>
      <trkpt lat="44.8942" lon="6.63759">
        <ele>1203.6</ele>
        <time>2022-07-17T13:29:34Z</time>
      </trkpt>
      <trkpt lat="44.89418" lon="6.63761">
        <ele>1203.8</ele>
        <time>2022-07-17T13:29:35Z</time>
      </trkpt>
      <trkpt lat="44.89416" lon="6.63762">
        <ele>1203.8</ele>
        <time>2022-07-17T13:29:36Z</time>
      </trkpt>
      <trkpt lat="44.89414" lon="6.63763">
        <ele>1204.2</ele>
        <time>2022-07-17T13:29:37Z</time>
      </trkpt>
      <trkpt lat="44.89411" lon="6.63764">
        <ele>1204.4</ele>
        <time>2022-07-17T13:29:38Z</time>
      </trkpt>
      <trkpt lat="44.89408" lon="6.63764">
        <ele>1204.4</ele>
        <time>2022-07-17T13:29:39Z</time>
      </trkpt>
      <trkpt lat="44.89406" lon="6.63765">
        <ele>1204.8</ele>
        <time>2022-07-17T13:29:40Z</time>
      </trkpt>
      <trkpt lat="44.89403" lon="6.63766">
        <ele>1205</ele>
        <time>2022-07-17T13:29:41Z</time>
      </trkpt>
      <trkpt lat="44.894" lon="6.63767">
        <ele>1205.4</ele>
        <time>2022-07-17T13:29:42Z</time>
      </trkpt>
      <trkpt lat="44.89398" lon="6.63768">
        <ele>1205.4</ele>
        <time>2022-07-17T13:29:43Z</time>
      </trkpt>
      <trkpt lat="44.89395" lon="6.63769">
        <ele>1205.8</ele>
        <time>2022-07-17T13:29:44Z</time>
      </trkpt>
      <trkpt lat="44.89392" lon="6.6377">
        <ele>1206</ele>
        <time>2022-07-17T13:29:45Z</time>
      </trkpt>
      <trkpt lat="44.8939" lon="6.63771">
        <ele>1206</ele>
        <time>2022-07-17T13:29:46Z</time>
      </trkpt>
      <trkpt lat="44.89387" lon="6.63771">
        <ele>1206.2</ele>
        <time>2022-07-17T13:29:47Z</time>
      </trkpt>
      <trkpt lat="44.89385" lon="6.63772">
        <ele>1206.6</ele>
        <time>2022-07-17T13:29:48Z</time>
      </trkpt>
      <trkpt lat="44.89382" lon="6.63773">
        <ele>1206.8</ele>
        <time>2022-07-17T13:29:49Z</time>
      </trkpt>
      <trkpt lat="44.8938" lon="6.63774">
        <ele>1207</ele>
        <time>2022-07-17T13:29:50Z</time>
      </trkpt>
      <trkpt lat="44.89377" lon="6.63775">
        <ele>1207</ele>
        <time>2022-07-17T13:29:51Z</time>
      </trkpt>
      <trkpt lat="44.89375" lon="6.63775">
        <ele>1207.4</ele>
        <time>2022-07-17T13:29:52Z</time>
      </trkpt>
      <trkpt lat="44.89372" lon="6.63776">
        <ele>1207.4</ele>
        <time>2022-07-17T13:29:53Z</time>
      </trkpt>
      <trkpt lat="44.89369" lon="6.63776">
        <ele>1207.6</ele>
        <time>2022-07-17T13:29:54Z</time>
      </trkpt>
      <trkpt lat="44.89367" lon="6.63777">
        <ele>1207.8</ele>
        <time>2022-07-17T13:29:55Z</time>
      </trkpt>
      <trkpt lat="44.89364" lon="6.63778">
        <ele>1207.8</ele>
        <time>2022-07-17T13:29:56Z</time>
      </trkpt>
      <trkpt lat="44.89361" lon="6.63779">
        <ele>1208.2</ele>
        <time>2022-07-17T13:29:57Z</time>
      </trkpt>
      <trkpt lat="44.89359" lon="6.63779">
        <ele>1208.2</ele>
        <time>2022-07-17T13:29:58Z</time>
      </trkpt>
      <trkpt lat="44.89356" lon="6.6378">
        <ele>1208.6</ele>
        <time>2022-07-17T13:29:59Z</time>
      </trkpt>
      <trkpt lat="44.89354" lon="6.6378">
        <ele>1208.6</ele>
        <time>2022-07-17T13:30:00Z</time>
      </trkpt>
      <trkpt lat="44.89351" lon="6.63781">
        <ele>1208.8</ele>
        <time>2022-07-17T13:30:01Z</time>
      </trkpt>
      <trkpt lat="44.89349" lon="6.63782">
        <ele>1209</ele>
        <time>2022-07-17T13:30:02Z</time>
      </trkpt>
      <trkpt lat="44.89346" lon="6.63782">
        <ele>1209</ele>
        <time>2022-07-17T13:30:03Z</time>
      </trkpt>
      <trkpt lat="44.89344" lon="6.63783">
        <ele>1209.4</ele>
        <time>2022-07-17T13:30:04Z</time>
      </trkpt>
      <trkpt lat="44.89342" lon="6.63784">
        <ele>1209.6</ele>
        <time>2022-07-17T13:30:05Z</time>
      </trkpt>
      <trkpt lat="44.89339" lon="6.63785">
        <ele>1209.8</ele>
        <time>2022-07-17T13:30:06Z</time>
      </trkpt>
      <trkpt lat="44.89337" lon="6.63785">
        <ele>1210</ele>
        <time>2022-07-17T13:30:07Z</time>
      </trkpt>
      <trkpt lat="44.89334" lon="6.63786">
        <ele>1210</ele>
        <time>2022-07-17T13:30:08Z</time>
      </trkpt>
      <trkpt lat="44.89332" lon="6.63786">
        <ele>1210.4</ele>
        <time>2022-07-17T13:30:09Z</time>
      </trkpt>
      <trkpt lat="44.8933" lon="6.63787">
        <ele>1210.4</ele>
        <time>2022-07-17T13:30:10Z</time>
      </trkpt>
      <trkpt lat="44.89328" lon="6.63787">
        <ele>1210.8</ele>
        <time>2022-07-17T13:30:11Z</time>
      </trkpt>
      <trkpt lat="44.89325" lon="6.63788">
        <ele>1210.8</ele>
        <time>2022-07-17T13:30:12Z</time>
      </trkpt>
      <trkpt lat="44.89323" lon="6.63788">
        <ele>1211</ele>
        <time>2022-07-17T13:30:13Z</time>
      </trkpt>
      <trkpt lat="44.8932" lon="6.63789">
        <ele>1211</ele>
        <time>2022-07-17T13:30:14Z</time>
      </trkpt>
      <trkpt lat="44.89318" lon="6.63789">
        <ele>1211.2</ele>
        <time>2022-07-17T13:30:15Z</time>
      </trkpt>
      <trkpt lat="44.89315" lon="6.6379">
        <ele>1211.2</ele>
        <time>2022-07-17T13:30:16Z</time>
      </trkpt>
      <trkpt lat="44.89313" lon="6.6379">
        <ele>1211.6</ele>
        <time>2022-07-17T13:30:17Z</time>
      </trkpt>
      <trkpt lat="44.8931" lon="6.6379">
        <ele>1212</ele>
        <time>2022-07-17T13:30:18Z</time>
      </trkpt>
      <trkpt lat="44.89307" lon="6.6379">
        <ele>1212</ele>
        <time>2022-07-17T13:30:19Z</time>
      </trkpt>
      <trkpt lat="44.89305" lon="6.6379">
        <ele>1212.2</ele>
        <time>2022-07-17T13:30:20Z</time>
      </trkpt>
      <trkpt lat="44.89302" lon="6.6379">
        <ele>1212.2</ele>
        <time>2022-07-17T13:30:21Z</time>
      </trkpt>
      <trkpt lat="44.89297" lon="6.6379">
        <ele>1212.6</ele>
        <time>2022-07-17T13:30:23Z</time>
      </trkpt>
      <trkpt lat="44.89294" lon="6.63789">
        <ele>1212.8</ele>
        <time>2022-07-17T13:30:24Z</time>
      </trkpt>
      <trkpt lat="44.89291" lon="6.63789">
        <ele>1212.8</ele>
        <time>2022-07-17T13:30:25Z</time>
      </trkpt>
      <trkpt lat="44.89289" lon="6.63789">
        <ele>1213.2</ele>
        <time>2022-07-17T13:30:26Z</time>
      </trkpt>
      <trkpt lat="44.89286" lon="6.63789">
        <ele>1213.2</ele>
        <time>2022-07-17T13:30:27Z</time>
      </trkpt>
      <trkpt lat="44.89284" lon="6.63789">
        <ele>1213.6</ele>
        <time>2022-07-17T13:30:28Z</time>
      </trkpt>
      <trkpt lat="44.89281" lon="6.63788">
        <ele>1213.6</ele>
        <time>2022-07-17T13:30:29Z</time>
      </trkpt>
      <trkpt lat="44.89278" lon="6.63788">
        <ele>1213.8</ele>
        <time>2022-07-17T13:30:30Z</time>
      </trkpt>
      <trkpt lat="44.89276" lon="6.63788">
        <ele>1213.8</ele>
        <time>2022-07-17T13:30:31Z</time>
      </trkpt>
      <trkpt lat="44.89273" lon="6.63788">
        <ele>1214.2</ele>
        <time>2022-07-17T13:30:32Z</time>
      </trkpt>
      <trkpt lat="44.89271" lon="6.63788">
        <ele>1214.2</ele>
        <time>2022-07-17T13:30:33Z</time>
      </trkpt>
      <trkpt lat="44.89268" lon="6.63789">
        <ele>1214.6</ele>
        <time>2022-07-17T13:30:34Z</time>
      </trkpt>
      <trkpt lat="44.89266" lon="6.63789">
        <ele>1214.6</ele>
        <time>2022-07-17T13:30:35Z</time>
      </trkpt>
      <trkpt lat="44.89263" lon="6.63789">
        <ele>1214.8</ele>
        <time>2022-07-17T13:30:36Z</time>
      </trkpt>
      <trkpt lat="44.89261" lon="6.63789">
        <ele>1214.8</ele>
        <time>2022-07-17T13:30:37Z</time>
      </trkpt>
      <trkpt lat="44.89258" lon="6.63789">
        <ele>1215.2</ele>
        <time>2022-07-17T13:30:38Z</time>
      </trkpt>
      <trkpt lat="44.89256" lon="6.63789">
        <ele>1215.2</ele>
        <time>2022-07-17T13:30:39Z</time>
      </trkpt>
      <trkpt lat="44.89253" lon="6.63789">
        <ele>1215.4</ele>
        <time>2022-07-17T13:30:40Z</time>
      </trkpt>
      <trkpt lat="44.8925" lon="6.63788">
        <ele>1215.4</ele>
        <time>2022-07-17T13:30:41Z</time>
      </trkpt>
      <trkpt lat="44.89248" lon="6.63787">
        <ele>1215.8</ele>
        <time>2022-07-17T13:30:42Z</time>
      </trkpt>
      <trkpt lat="44.89245" lon="6.63787">
        <ele>1215.8</ele>
        <time>2022-07-17T13:30:43Z</time>
      </trkpt>
      <trkpt lat="44.89243" lon="6.63787">
        <ele>1216.2</ele>
        <time>2022-07-17T13:30:44Z</time>
      </trkpt>
      <trkpt lat="44.8924" lon="6.63787">
        <ele>1216.2</ele>
        <time>2022-07-17T13:30:45Z</time>
      </trkpt>
      <trkpt lat="44.89238" lon="6.63787">
        <ele>1216.6</ele>
        <time>2022-07-17T13:30:46Z</time>
      </trkpt>
      <trkpt lat="44.89235" lon="6.63787">
        <ele>1216.8</ele>
        <time>2022-07-17T13:30:47Z</time>
      </trkpt>
      <trkpt lat="44.89233" lon="6.63787">
        <ele>1216.8</ele>
        <time>2022-07-17T13:30:48Z</time>
      </trkpt>
      <trkpt lat="44.8923" lon="6.63788">
        <ele>1217.2</ele>
        <time>2022-07-17T13:30:49Z</time>
      </trkpt>
      <trkpt lat="44.89228" lon="6.63788">
        <ele>1217.4</ele>
        <time>2022-07-17T13:30:50Z</time>
      </trkpt>
      <trkpt lat="44.89226" lon="6.63789">
        <ele>1217.4</ele>
        <time>2022-07-17T13:30:51Z</time>
      </trkpt>
      <trkpt lat="44.89223" lon="6.63789">
        <ele>1217.8</ele>
        <time>2022-07-17T13:30:52Z</time>
      </trkpt>
      <trkpt lat="44.8922" lon="6.6379">
        <ele>1217.8</ele>
        <time>2022-07-17T13:30:53Z</time>
      </trkpt>
      <trkpt lat="44.89218" lon="6.63791">
        <ele>1218</ele>
        <time>2022-07-17T13:30:54Z</time>
      </trkpt>
      <trkpt lat="44.89215" lon="6.63792">
        <ele>1218</ele>
        <time>2022-07-17T13:30:55Z</time>
      </trkpt>
      <trkpt lat="44.89212" lon="6.63792">
        <ele>1218.4</ele>
        <time>2022-07-17T13:30:56Z</time>
      </trkpt>
      <trkpt lat="44.8921" lon="6.63793">
        <ele>1218.4</ele>
        <time>2022-07-17T13:30:57Z</time>
      </trkpt>
      <trkpt lat="44.89207" lon="6.63793">
        <ele>1218.6</ele>
        <time>2022-07-17T13:30:58Z</time>
      </trkpt>
      <trkpt lat="44.89204" lon="6.63794">
        <ele>1218.6</ele>
        <time>2022-07-17T13:30:59Z</time>
      </trkpt>
      <trkpt lat="44.89202" lon="6.63795">
        <ele>1218.8</ele>
        <time>2022-07-17T13:31:00Z</time>
      </trkpt>
      <trkpt lat="44.89199" lon="6.63796">
        <ele>1218.8</ele>
        <time>2022-07-17T13:31:01Z</time>
      </trkpt>
      <trkpt lat="44.89197" lon="6.63797">
        <ele>1219</ele>
        <time>2022-07-17T13:31:02Z</time>
      </trkpt>
      <trkpt lat="44.89195" lon="6.63798">
        <ele>1219</ele>
        <time>2022-07-17T13:31:03Z</time>
      </trkpt>
      <trkpt lat="44.89192" lon="6.63798">
        <ele>1219.4</ele>
        <time>2022-07-17T13:31:04Z</time>
      </trkpt>
      <trkpt lat="44.89189" lon="6.63799">
        <ele>1219.4</ele>
        <time>2022-07-17T13:31:05Z</time>
      </trkpt>
      <trkpt lat="44.89187" lon="6.638">
        <ele>1219.8</ele>
        <time>2022-07-17T13:31:06Z</time>
      </trkpt>
      <trkpt lat="44.89185" lon="6.638">
        <ele>1219.8</ele>
        <time>2022-07-17T13:31:07Z</time>
      </trkpt>
      <trkpt lat="44.89182" lon="6.638">
        <ele>1220.2</ele>
        <time>2022-07-17T13:31:08Z</time>
      </trkpt>
      <trkpt lat="44.8918" lon="6.63801">
        <ele>1220.2</ele>
        <time>2022-07-17T13:31:09Z</time>
      </trkpt>
      <trkpt lat="44.89177" lon="6.63802">
        <ele>1220.4</ele>
        <time>2022-07-17T13:31:10Z</time>
      </trkpt>
      <trkpt lat="44.89175" lon="6.63802">
        <ele>1220.4</ele>
        <time>2022-07-17T13:31:11Z</time>
      </trkpt>
      <trkpt lat="44.89172" lon="6.63803">
        <ele>1220.8</ele>
        <time>2022-07-17T13:31:12Z</time>
      </trkpt>
      <trkpt lat="44.8917" lon="6.63804">
        <ele>1220.8</ele>
        <time>2022-07-17T13:31:13Z</time>
      </trkpt>
      <trkpt lat="44.89167" lon="6.63804">
        <ele>1221</ele>
        <time>2022-07-17T13:31:14Z</time>
      </trkpt>
      <trkpt lat="44.89165" lon="6.63805">
        <ele>1221</ele>
        <time>2022-07-17T13:31:15Z</time>
      </trkpt>
      <trkpt lat="44.89162" lon="6.63805">
        <ele>1221.4</ele>
        <time>2022-07-17T13:31:16Z</time>
      </trkpt>
      <trkpt lat="44.8916" lon="6.63806">
        <ele>1221.4</ele>
        <time>2022-07-17T13:31:17Z</time>
      </trkpt>
      <trkpt lat="44.89157" lon="6.63806">
        <ele>1221.6</ele>
        <time>2022-07-17T13:31:18Z</time>
      </trkpt>
      <trkpt lat="44.89155" lon="6.63807">
        <ele>1221.6</ele>
        <time>2022-07-17T13:31:19Z</time>
      </trkpt>
      <trkpt lat="44.89153" lon="6.63808">
        <ele>1222</ele>
        <time>2022-07-17T13:31:20Z</time>
      </trkpt>
      <trkpt lat="44.8915" lon="6.63809">
        <ele>1222</ele>
        <time>2022-07-17T13:31:21Z</time>
      </trkpt>
      <trkpt lat="44.89148" lon="6.6381">
        <ele>1222.4</ele>
        <time>2022-07-17T13:31:22Z</time>
      </trkpt>
      <trkpt lat="44.89145" lon="6.63812">
        <ele>1222.4</ele>
        <time>2022-07-17T13:31:23Z</time>
      </trkpt>
      <trkpt lat="44.89143" lon="6.63813">
        <ele>1222.6</ele>
        <time>2022-07-17T13:31:24Z</time>
      </trkpt>
      <trkpt lat="44.8914" lon="6.63814">
        <ele>1223</ele>
        <time>2022-07-17T13:31:25Z</time>
      </trkpt>
      <trkpt lat="44.89138" lon="6.63816">
        <ele>1223.2</ele>
        <time>2022-07-17T13:31:26Z</time>
      </trkpt>
      <trkpt lat="44.89135" lon="6.63818">
        <ele>1223.2</ele>
        <time>2022-07-17T13:31:27Z</time>
      </trkpt>
      <trkpt lat="44.89132" lon="6.6382">
        <ele>1223.4</ele>
        <time>2022-07-17T13:31:28Z</time>
      </trkpt>
      <trkpt lat="44.8913" lon="6.63822">
        <ele>1223.4</ele>
        <time>2022-07-17T13:31:29Z</time>
      </trkpt>
      <trkpt lat="44.89127" lon="6.63824">
        <ele>1223.8</ele>
        <time>2022-07-17T13:31:30Z</time>
      </trkpt>
      <trkpt lat="44.89126" lon="6.63825">
        <ele>1224.2</ele>
        <time>2022-07-17T13:31:32Z</time>
      </trkpt>
      <trkpt lat="44.89123" lon="6.63826">
        <ele>1224.4</ele>
        <time>2022-07-17T13:31:33Z</time>
      </trkpt>
      <trkpt lat="44.89121" lon="6.63828">
        <ele>1224.4</ele>
        <time>2022-07-17T13:31:34Z</time>
      </trkpt>
      <trkpt lat="44.89119" lon="6.6383">
        <ele>1224.8</ele>
        <time>2022-07-17T13:31:35Z</time>
      </trkpt>
      <trkpt lat="44.89117" lon="6.63832">
        <ele>1224.8</ele>
        <time>2022-07-17T13:31:36Z</time>
      </trkpt>
      <trkpt lat="44.89115" lon="6.63833">
        <ele>1225.2</ele>
        <time>2022-07-17T13:31:37Z</time>
      </trkpt>
      <trkpt lat="44.89112" lon="6.63835">
        <ele>1225.2</ele>
        <time>2022-07-17T13:31:38Z</time>
      </trkpt>
      <trkpt lat="44.8911" lon="6.63837">
        <ele>1225.6</ele>
        <time>2022-07-17T13:31:39Z</time>
      </trkpt>
      <trkpt lat="44.89108" lon="6.63839">
        <ele>1225.6</ele>
        <time>2022-07-17T13:31:40Z</time>
      </trkpt>
      <trkpt lat="44.89105" lon="6.63841">
        <ele>1225.8</ele>
        <time>2022-07-17T13:31:41Z</time>
      </trkpt>
      <trkpt lat="44.89102" lon="6.63843">
        <ele>1225.8</ele>
        <time>2022-07-17T13:31:42Z</time>
      </trkpt>
      <trkpt lat="44.891" lon="6.63845">
        <ele>1226.2</ele>
        <time>2022-07-17T13:31:43Z</time>
      </trkpt>
      <trkpt lat="44.89097" lon="6.63847">
        <ele>1226.4</ele>
        <time>2022-07-17T13:31:44Z</time>
      </trkpt>
      <trkpt lat="44.89095" lon="6.6385">
        <ele>1226.6</ele>
        <time>2022-07-17T13:31:45Z</time>
      </trkpt>
      <trkpt lat="44.89093" lon="6.63852">
        <ele>1226.8</ele>
        <time>2022-07-17T13:31:46Z</time>
      </trkpt>
      <trkpt lat="44.89091" lon="6.63854">
        <ele>1227.2</ele>
        <time>2022-07-17T13:31:47Z</time>
      </trkpt>
      <trkpt lat="44.89088" lon="6.63856">
        <ele>1227.4</ele>
        <time>2022-07-17T13:31:48Z</time>
      </trkpt>
      <trkpt lat="44.89085" lon="6.63858">
        <ele>1227.6</ele>
        <time>2022-07-17T13:31:49Z</time>
      </trkpt>
      <trkpt lat="44.89083" lon="6.6386">
        <ele>1227.6</ele>
        <time>2022-07-17T13:31:50Z</time>
      </trkpt>
      <trkpt lat="44.8908" lon="6.63862">
        <ele>1228</ele>
        <time>2022-07-17T13:31:51Z</time>
      </trkpt>
      <trkpt lat="44.89078" lon="6.63864">
        <ele>1228</ele>
        <time>2022-07-17T13:31:52Z</time>
      </trkpt>
      <trkpt lat="44.89075" lon="6.63865">
        <ele>1228.4</ele>
        <time>2022-07-17T13:31:53Z</time>
      </trkpt>
      <trkpt lat="44.89073" lon="6.63867">
        <ele>1228.6</ele>
        <time>2022-07-17T13:31:54Z</time>
      </trkpt>
      <trkpt lat="44.8907" lon="6.63869">
        <ele>1228.6</ele>
        <time>2022-07-17T13:31:55Z</time>
      </trkpt>
      <trkpt lat="44.89068" lon="6.6387">
        <ele>1228.8</ele>
        <time>2022-07-17T13:31:56Z</time>
      </trkpt>
      <trkpt lat="44.89066" lon="6.63872">
        <ele>1228.8</ele>
        <time>2022-07-17T13:31:57Z</time>
      </trkpt>
      <trkpt lat="44.89065" lon="6.63873">
        <ele>1229.2</ele>
        <time>2022-07-17T13:31:58Z</time>
      </trkpt>
      <trkpt lat="44.89063" lon="6.63874">
        <ele>1229.2</ele>
        <time>2022-07-17T13:31:59Z</time>
      </trkpt>
      <trkpt lat="44.89061" lon="6.63875">
        <ele>1229.6</ele>
        <time>2022-07-17T13:32:00Z</time>
      </trkpt>
      <trkpt lat="44.8906" lon="6.63877">
        <ele>1229.6</ele>
        <time>2022-07-17T13:32:01Z</time>
      </trkpt>
      <trkpt lat="44.89057" lon="6.63879">
        <ele>1229.8</ele>
        <time>2022-07-17T13:32:02Z</time>
      </trkpt>
      <trkpt lat="44.89055" lon="6.6388">
        <ele>1229.8</ele>
        <time>2022-07-17T13:32:03Z</time>
      </trkpt>
      <trkpt lat="44.89053" lon="6.63882">
        <ele>1230.2</ele>
        <time>2022-07-17T13:32:04Z</time>
      </trkpt>
      <trkpt lat="44.89051" lon="6.63884">
        <ele>1230.2</ele>
        <time>2022-07-17T13:32:05Z</time>
      </trkpt>
      <trkpt lat="44.89048" lon="6.63885">
        <ele>1230.6</ele>
        <time>2022-07-17T13:32:06Z</time>
      </trkpt>
      <trkpt lat="44.89046" lon="6.63887">
        <ele>1230.6</ele>
        <time>2022-07-17T13:32:07Z</time>
      </trkpt>
      <trkpt lat="44.89043" lon="6.63888">
        <ele>1231</ele>
        <time>2022-07-17T13:32:08Z</time>
      </trkpt>
      <trkpt lat="44.89041" lon="6.63889">
        <ele>1231</ele>
        <time>2022-07-17T13:32:09Z</time>
      </trkpt>
      <trkpt lat="44.89038" lon="6.6389">
        <ele>1231.4</ele>
        <time>2022-07-17T13:32:10Z</time>
      </trkpt>
      <trkpt lat="44.89036" lon="6.63891">
        <ele>1231.4</ele>
        <time>2022-07-17T13:32:11Z</time>
      </trkpt>
      <trkpt lat="44.89033" lon="6.63892">
        <ele>1231.8</ele>
        <time>2022-07-17T13:32:12Z</time>
      </trkpt>
      <trkpt lat="44.8903" lon="6.63893">
        <ele>1232</ele>
        <time>2022-07-17T13:32:13Z</time>
      </trkpt>
      <trkpt lat="44.89027" lon="6.63893">
        <ele>1232</ele>
        <time>2022-07-17T13:32:14Z</time>
      </trkpt>
      <trkpt lat="44.89024" lon="6.63893">
        <ele>1232.2</ele>
        <time>2022-07-17T13:32:15Z</time>
      </trkpt>
      <trkpt lat="44.89021" lon="6.63894">
        <ele>1232.6</ele>
        <time>2022-07-17T13:32:16Z</time>
      </trkpt>
      <trkpt lat="44.89018" lon="6.63895">
        <ele>1232.6</ele>
        <time>2022-07-17T13:32:17Z</time>
      </trkpt>
      <trkpt lat="44.89016" lon="6.63896">
        <ele>1232.8</ele>
        <time>2022-07-17T13:32:18Z</time>
      </trkpt>
      <trkpt lat="44.89013" lon="6.63896">
        <ele>1232.8</ele>
        <time>2022-07-17T13:32:19Z</time>
      </trkpt>
      <trkpt lat="44.89011" lon="6.63897">
        <ele>1233.2</ele>
        <time>2022-07-17T13:32:20Z</time>
      </trkpt>
      <trkpt lat="44.89008" lon="6.63898">
        <ele>1233.2</ele>
        <time>2022-07-17T13:32:21Z</time>
      </trkpt>
      <trkpt lat="44.89006" lon="6.63898">
        <ele>1233.4</ele>
        <time>2022-07-17T13:32:22Z</time>
      </trkpt>
      <trkpt lat="44.89003" lon="6.63899">
        <ele>1233.4</ele>
        <time>2022-07-17T13:32:23Z</time>
      </trkpt>
      <trkpt lat="44.89" lon="6.63899">
        <ele>1233.8</ele>
        <time>2022-07-17T13:32:24Z</time>
      </trkpt>
      <trkpt lat="44.88998" lon="6.63899">
        <ele>1233.8</ele>
        <time>2022-07-17T13:32:25Z</time>
      </trkpt>
      <trkpt lat="44.88995" lon="6.63899">
        <ele>1234.2</ele>
        <time>2022-07-17T13:32:26Z</time>
      </trkpt>
      <trkpt lat="44.88992" lon="6.63899">
        <ele>1234.2</ele>
        <time>2022-07-17T13:32:27Z</time>
      </trkpt>
      <trkpt lat="44.8899" lon="6.63898">
        <ele>1234.6</ele>
        <time>2022-07-17T13:32:28Z</time>
      </trkpt>
      <trkpt lat="44.88987" lon="6.63898">
        <ele>1234.8</ele>
        <time>2022-07-17T13:32:29Z</time>
      </trkpt>
      <trkpt lat="44.88985" lon="6.63898">
        <ele>1234.8</ele>
        <time>2022-07-17T13:32:30Z</time>
      </trkpt>
      <trkpt lat="44.88982" lon="6.63898">
        <ele>1235.2</ele>
        <time>2022-07-17T13:32:31Z</time>
      </trkpt>
      <trkpt lat="44.88979" lon="6.63899">
        <ele>1235.2</ele>
        <time>2022-07-17T13:32:32Z</time>
      </trkpt>
      <trkpt lat="44.88976" lon="6.63899">
        <ele>1235.6</ele>
        <time>2022-07-17T13:32:33Z</time>
      </trkpt>
      <trkpt lat="44.88974" lon="6.639">
        <ele>1235.8</ele>
        <time>2022-07-17T13:32:34Z</time>
      </trkpt>
      <trkpt lat="44.88971" lon="6.63901">
        <ele>1236</ele>
        <time>2022-07-17T13:32:35Z</time>
      </trkpt>
      <trkpt lat="44.88969" lon="6.63901">
        <ele>1236.2</ele>
        <time>2022-07-17T13:32:36Z</time>
      </trkpt>
      <trkpt lat="44.88966" lon="6.63902">
        <ele>1236.4</ele>
        <time>2022-07-17T13:32:37Z</time>
      </trkpt>
      <trkpt lat="44.88964" lon="6.63902">
        <ele>1236.4</ele>
        <time>2022-07-17T13:32:38Z</time>
      </trkpt>
      <trkpt lat="44.88961" lon="6.63903">
        <ele>1236.8</ele>
        <time>2022-07-17T13:32:39Z</time>
      </trkpt>
      <trkpt lat="44.88958" lon="6.63904">
        <ele>1236.8</ele>
        <time>2022-07-17T13:32:40Z</time>
      </trkpt>
      <trkpt lat="44.88956" lon="6.63906">
        <ele>1236.8</ele>
        <time>2022-07-17T13:32:41Z</time>
      </trkpt>
      <trkpt lat="44.88953" lon="6.63908">
        <ele>1237</ele>
        <time>2022-07-17T13:32:42Z</time>
      </trkpt>
      <trkpt lat="44.88951" lon="6.63909">
        <ele>1237.4</ele>
        <time>2022-07-17T13:32:43Z</time>
      </trkpt>
      <trkpt lat="44.88948" lon="6.63911">
        <ele>1237.6</ele>
        <time>2022-07-17T13:32:44Z</time>
      </trkpt>
      <trkpt lat="44.88945" lon="6.63913">
        <ele>1237.6</ele>
        <time>2022-07-17T13:32:45Z</time>
      </trkpt>
      <trkpt lat="44.88943" lon="6.63915">
        <ele>1238</ele>
        <time>2022-07-17T13:32:46Z</time>
      </trkpt>
      <trkpt lat="44.8894" lon="6.63916">
        <ele>1238</ele>
        <time>2022-07-17T13:32:47Z</time>
      </trkpt>
      <trkpt lat="44.88937" lon="6.63917">
        <ele>1238.6</ele>
        <time>2022-07-17T13:32:48Z</time>
      </trkpt>
      <trkpt lat="44.88935" lon="6.63919">
        <ele>1238.6</ele>
        <time>2022-07-17T13:32:49Z</time>
      </trkpt>
      <trkpt lat="44.88932" lon="6.6392">
        <ele>1239</ele>
        <time>2022-07-17T13:32:50Z</time>
      </trkpt>
      <trkpt lat="44.8893" lon="6.63921">
        <ele>1239</ele>
        <time>2022-07-17T13:32:51Z</time>
      </trkpt>
      <trkpt lat="44.88927" lon="6.63921">
        <ele>1239.4</ele>
        <time>2022-07-17T13:32:52Z</time>
      </trkpt>
      <trkpt lat="44.88925" lon="6.63921">
        <ele>1239.4</ele>
        <time>2022-07-17T13:32:53Z</time>
      </trkpt>
      <trkpt lat="44.88922" lon="6.63921">
        <ele>1239.8</ele>
        <time>2022-07-17T13:32:54Z</time>
      </trkpt>
      <trkpt lat="44.8892" lon="6.63921">
        <ele>1239.8</ele>
        <time>2022-07-17T13:32:55Z</time>
      </trkpt>
      <trkpt lat="44.88917" lon="6.63921">
        <ele>1240</ele>
        <time>2022-07-17T13:32:56Z</time>
      </trkpt>
      <trkpt lat="44.88915" lon="6.63922">
        <ele>1240.2</ele>
        <time>2022-07-17T13:32:57Z</time>
      </trkpt>
      <trkpt lat="44.88912" lon="6.63922">
        <ele>1240.2</ele>
        <time>2022-07-17T13:32:58Z</time>
      </trkpt>
      <trkpt lat="44.8891" lon="6.63922">
        <ele>1240.6</ele>
        <time>2022-07-17T13:32:59Z</time>
      </trkpt>
      <trkpt lat="44.88907" lon="6.63922">
        <ele>1240.6</ele>
        <time>2022-07-17T13:33:00Z</time>
      </trkpt>
      <trkpt lat="44.88904" lon="6.63923">
        <ele>1241</ele>
        <time>2022-07-17T13:33:01Z</time>
      </trkpt>
      <trkpt lat="44.88902" lon="6.63923">
        <ele>1241.2</ele>
        <time>2022-07-17T13:33:02Z</time>
      </trkpt>
      <trkpt lat="44.88899" lon="6.63924">
        <ele>1241.6</ele>
        <time>2022-07-17T13:33:03Z</time>
      </trkpt>
      <trkpt lat="44.88896" lon="6.63924">
        <ele>1241.8</ele>
        <time>2022-07-17T13:33:04Z</time>
      </trkpt>
      <trkpt lat="44.88893" lon="6.63925">
        <ele>1241.8</ele>
        <time>2022-07-17T13:33:05Z</time>
      </trkpt>
      <trkpt lat="44.88891" lon="6.63926">
        <ele>1242.2</ele>
        <time>2022-07-17T13:33:06Z</time>
      </trkpt>
      <trkpt lat="44.88888" lon="6.63927">
        <ele>1242.2</ele>
        <time>2022-07-17T13:33:07Z</time>
      </trkpt>
      <trkpt lat="44.88885" lon="6.63929">
        <ele>1242.6</ele>
        <time>2022-07-17T13:33:08Z</time>
      </trkpt>
      <trkpt lat="44.88883" lon="6.6393">
        <ele>1242.6</ele>
        <time>2022-07-17T13:33:09Z</time>
      </trkpt>
      <trkpt lat="44.8888" lon="6.63932">
        <ele>1242.8</ele>
        <time>2022-07-17T13:33:10Z</time>
      </trkpt>
      <trkpt lat="44.88878" lon="6.63934">
        <ele>1242.8</ele>
        <time>2022-07-17T13:33:11Z</time>
      </trkpt>
      <trkpt lat="44.88876" lon="6.63936">
        <ele>1243</ele>
        <time>2022-07-17T13:33:12Z</time>
      </trkpt>
      <trkpt lat="44.88874" lon="6.63939">
        <ele>1243</ele>
        <time>2022-07-17T13:33:13Z</time>
      </trkpt>
      <trkpt lat="44.88873" lon="6.63942">
        <ele>1243.4</ele>
        <time>2022-07-17T13:33:14Z</time>
      </trkpt>
      <trkpt lat="44.88872" lon="6.63946">
        <ele>1243.4</ele>
        <time>2022-07-17T13:33:15Z</time>
      </trkpt>
      <trkpt lat="44.88871" lon="6.6395">
        <ele>1243.8</ele>
        <time>2022-07-17T13:33:16Z</time>
      </trkpt>
      <trkpt lat="44.88871" lon="6.63954">
        <ele>1244</ele>
        <time>2022-07-17T13:33:17Z</time>
      </trkpt>
      <trkpt lat="44.88871" lon="6.63958">
        <ele>1244</ele>
        <time>2022-07-17T13:33:18Z</time>
      </trkpt>
      <trkpt lat="44.88872" lon="6.63961">
        <ele>1244.2</ele>
        <time>2022-07-17T13:33:19Z</time>
      </trkpt>
      <trkpt lat="44.88872" lon="6.63965">
        <ele>1244.6</ele>
        <time>2022-07-17T13:33:20Z</time>
      </trkpt>
      <trkpt lat="44.88873" lon="6.63968">
        <ele>1244.8</ele>
        <time>2022-07-17T13:33:21Z</time>
      </trkpt>
      <trkpt lat="44.88874" lon="6.63972">
        <ele>1245</ele>
        <time>2022-07-17T13:33:22Z</time>
      </trkpt>
      <trkpt lat="44.88875" lon="6.63975">
        <ele>1245</ele>
        <time>2022-07-17T13:33:23Z</time>
      </trkpt>
      <trkpt lat="44.88876" lon="6.63978">
        <ele>1245.2</ele>
        <time>2022-07-17T13:33:24Z</time>
      </trkpt>
      <trkpt lat="44.88877" lon="6.63981">
        <ele>1245.2</ele>
        <time>2022-07-17T13:33:25Z</time>
      </trkpt>
      <trkpt lat="44.88878" lon="6.63984">
        <ele>1245.6</ele>
        <time>2022-07-17T13:33:26Z</time>
      </trkpt>
      <trkpt lat="44.88879" lon="6.63987">
        <ele>1245.6</ele>
        <time>2022-07-17T13:33:27Z</time>
      </trkpt>
      <trkpt lat="44.88881" lon="6.6399">
        <ele>1245.8</ele>
        <time>2022-07-17T13:33:28Z</time>
      </trkpt>
      <trkpt lat="44.88883" lon="6.63992">
        <ele>1246.2</ele>
        <time>2022-07-17T13:33:29Z</time>
      </trkpt>
      <trkpt lat="44.88885" lon="6.63994">
        <ele>1246.4</ele>
        <time>2022-07-17T13:33:30Z</time>
      </trkpt>
      <trkpt lat="44.88887" lon="6.63997">
        <ele>1246.4</ele>
        <time>2022-07-17T13:33:31Z</time>
      </trkpt>
      <trkpt lat="44.88889" lon="6.63999">
        <ele>1246.6</ele>
        <time>2022-07-17T13:33:32Z</time>
      </trkpt>
      <trkpt lat="44.88891" lon="6.64001">
        <ele>1246.6</ele>
        <time>2022-07-17T13:33:33Z</time>
      </trkpt>
      <trkpt lat="44.88894" lon="6.64004">
        <ele>1247</ele>
        <time>2022-07-17T13:33:34Z</time>
      </trkpt>
      <trkpt lat="44.88896" lon="6.64006">
        <ele>1247</ele>
        <time>2022-07-17T13:33:35Z</time>
      </trkpt>
      <trkpt lat="44.88898" lon="6.64008">
        <ele>1247.4</ele>
        <time>2022-07-17T13:33:36Z</time>
      </trkpt>
      <trkpt lat="44.889" lon="6.6401">
        <ele>1247.6</ele>
        <time>2022-07-17T13:33:37Z</time>
      </trkpt>
      <trkpt lat="44.88903" lon="6.64012">
        <ele>1247.6</ele>
        <time>2022-07-17T13:33:38Z</time>
      </trkpt>
      <trkpt lat="44.88905" lon="6.64015">
        <ele>1247.8</ele>
        <time>2022-07-17T13:33:39Z</time>
      </trkpt>
      <trkpt lat="44.88907" lon="6.64017">
        <ele>1248</ele>
        <time>2022-07-17T13:33:40Z</time>
      </trkpt>
      <trkpt lat="44.8891" lon="6.64019">
        <ele>1248.2</ele>
        <time>2022-07-17T13:33:41Z</time>
      </trkpt>
      <trkpt lat="44.88912" lon="6.64021">
        <ele>1248.2</ele>
        <time>2022-07-17T13:33:42Z</time>
      </trkpt>
      <trkpt lat="44.88915" lon="6.64023">
        <ele>1248.6</ele>
        <time>2022-07-17T13:33:43Z</time>
      </trkpt>
      <trkpt lat="44.88917" lon="6.64026">
        <ele>1248.6</ele>
        <time>2022-07-17T13:33:44Z</time>
      </trkpt>
      <trkpt lat="44.88919" lon="6.64028">
        <ele>1249</ele>
        <time>2022-07-17T13:33:45Z</time>
      </trkpt>
      <trkpt lat="44.88922" lon="6.6403">
        <ele>1249</ele>
        <time>2022-07-17T13:33:46Z</time>
      </trkpt>
      <trkpt lat="44.88924" lon="6.64032">
        <ele>1249.2</ele>
        <time>2022-07-17T13:33:47Z</time>
      </trkpt>
      <trkpt lat="44.88926" lon="6.64033">
        <ele>1249.2</ele>
        <time>2022-07-17T13:33:48Z</time>
      </trkpt>
      <trkpt lat="44.88928" lon="6.64035">
        <ele>1249.6</ele>
        <time>2022-07-17T13:33:49Z</time>
      </trkpt>
      <trkpt lat="44.88931" lon="6.64037">
        <ele>1249.6</ele>
        <time>2022-07-17T13:33:50Z</time>
      </trkpt>
      <trkpt lat="44.88933" lon="6.64038">
        <ele>1249.8</ele>
        <time>2022-07-17T13:33:51Z</time>
      </trkpt>
      <trkpt lat="44.88936" lon="6.6404">
        <ele>1249.8</ele>
        <time>2022-07-17T13:33:52Z</time>
      </trkpt>
      <trkpt lat="44.88938" lon="6.64041">
        <ele>1250.2</ele>
        <time>2022-07-17T13:33:53Z</time>
      </trkpt>
      <trkpt lat="44.8894" lon="6.64043">
        <ele>1250.4</ele>
        <time>2022-07-17T13:33:54Z</time>
      </trkpt>
      <trkpt lat="44.88943" lon="6.64044">
        <ele>1250.4</ele>
        <time>2022-07-17T13:33:55Z</time>
      </trkpt>
      <trkpt lat="44.88945" lon="6.64044">
        <ele>1250.6</ele>
        <time>2022-07-17T13:33:56Z</time>
      </trkpt>
      <trkpt lat="44.88947" lon="6.64045">
        <ele>1251</ele>
        <time>2022-07-17T13:33:57Z</time>
      </trkpt>
      <trkpt lat="44.8895" lon="6.64045">
        <ele>1251</ele>
        <time>2022-07-17T13:33:58Z</time>
      </trkpt>
      <trkpt lat="44.88952" lon="6.64045">
        <ele>1251.4</ele>
        <time>2022-07-17T13:33:59Z</time>
      </trkpt>
      <trkpt lat="44.88954" lon="6.64044">
        <ele>1251.4</ele>
        <time>2022-07-17T13:34:00Z</time>
      </trkpt>
      <trkpt lat="44.88957" lon="6.64042">
        <ele>1251.6</ele>
        <time>2022-07-17T13:34:01Z</time>
      </trkpt>
      <trkpt lat="44.8896" lon="6.64041">
        <ele>1251.8</ele>
        <time>2022-07-17T13:34:02Z</time>
      </trkpt>
      <trkpt lat="44.88962" lon="6.64039">
        <ele>1251.8</ele>
        <time>2022-07-17T13:34:03Z</time>
      </trkpt>
      <trkpt lat="44.88964" lon="6.64037">
        <ele>1252.2</ele>
        <time>2022-07-17T13:34:04Z</time>
      </trkpt>
      <trkpt lat="44.88966" lon="6.64034">
        <ele>1252.2</ele>
        <time>2022-07-17T13:34:05Z</time>
      </trkpt>
      <trkpt lat="44.88968" lon="6.64032">
        <ele>1252.4</ele>
        <time>2022-07-17T13:34:06Z</time>
      </trkpt>
      <trkpt lat="44.8897" lon="6.64029">
        <ele>1252.4</ele>
        <time>2022-07-17T13:34:07Z</time>
      </trkpt>
      <trkpt lat="44.88972" lon="6.64026">
        <ele>1252.8</ele>
        <time>2022-07-17T13:34:08Z</time>
      </trkpt>
      <trkpt lat="44.88974" lon="6.64023">
        <ele>1252.8</ele>
        <time>2022-07-17T13:34:09Z</time>
      </trkpt>
      <trkpt lat="44.88976" lon="6.6402">
        <ele>1253</ele>
        <time>2022-07-17T13:34:10Z</time>
      </trkpt>
      <trkpt lat="44.88978" lon="6.64016">
        <ele>1253</ele>
        <time>2022-07-17T13:34:11Z</time>
      </trkpt>
      <trkpt lat="44.8898" lon="6.64013">
        <ele>1253.4</ele>
        <time>2022-07-17T13:34:12Z</time>
      </trkpt>
      <trkpt lat="44.88982" lon="6.6401">
        <ele>1253.6</ele>
        <time>2022-07-17T13:34:13Z</time>
      </trkpt>
      <trkpt lat="44.88984" lon="6.64007">
        <ele>1253.8</ele>
        <time>2022-07-17T13:34:14Z</time>
      </trkpt>
      <trkpt lat="44.88987" lon="6.64004">
        <ele>1253.8</ele>
        <time>2022-07-17T13:34:15Z</time>
      </trkpt>
      <trkpt lat="44.88989" lon="6.64001">
        <ele>1254.2</ele>
        <time>2022-07-17T13:34:16Z</time>
      </trkpt>
      <trkpt lat="44.88991" lon="6.63999">
        <ele>1254.2</ele>
        <time>2022-07-17T13:34:17Z</time>
      </trkpt>
      <trkpt lat="44.88993" lon="6.63996">
        <ele>1254.6</ele>
        <time>2022-07-17T13:34:18Z</time>
      </trkpt>
      <trkpt lat="44.88996" lon="6.63994">
        <ele>1254.8</ele>
        <time>2022-07-17T13:34:19Z</time>
      </trkpt>
      <trkpt lat="44.88998" lon="6.63992">
        <ele>1254.8</ele>
        <time>2022-07-17T13:34:20Z</time>
      </trkpt>
      <trkpt lat="44.89" lon="6.63991">
        <ele>1255.2</ele>
        <time>2022-07-17T13:34:21Z</time>
      </trkpt>
      <trkpt lat="44.89003" lon="6.6399">
        <ele>1255.2</ele>
        <time>2022-07-17T13:34:22Z</time>
      </trkpt>
      <trkpt lat="44.89005" lon="6.6399">
        <ele>1255.4</ele>
        <time>2022-07-17T13:34:23Z</time>
      </trkpt>
      <trkpt lat="44.89008" lon="6.63989">
        <ele>1255.4</ele>
        <time>2022-07-17T13:34:24Z</time>
      </trkpt>
      <trkpt lat="44.8901" lon="6.63988">
        <ele>1255.8</ele>
        <time>2022-07-17T13:34:25Z</time>
      </trkpt>
      <trkpt lat="44.89013" lon="6.63987">
        <ele>1256</ele>
        <time>2022-07-17T13:34:26Z</time>
      </trkpt>
      <trkpt lat="44.89015" lon="6.63986">
        <ele>1256</ele>
        <time>2022-07-17T13:34:27Z</time>
      </trkpt>
      <trkpt lat="44.89018" lon="6.63986">
        <ele>1256.4</ele>
        <time>2022-07-17T13:34:28Z</time>
      </trkpt>
      <trkpt lat="44.89021" lon="6.63985">
        <ele>1256.6</ele>
        <time>2022-07-17T13:34:29Z</time>
      </trkpt>
      <trkpt lat="44.89024" lon="6.63984">
        <ele>1256.6</ele>
        <time>2022-07-17T13:34:30Z</time>
      </trkpt>
      <trkpt lat="44.89026" lon="6.63984">
        <ele>1257</ele>
        <time>2022-07-17T13:34:31Z</time>
      </trkpt>
      <trkpt lat="44.89029" lon="6.63984">
        <ele>1257.2</ele>
        <time>2022-07-17T13:34:32Z</time>
      </trkpt>
      <trkpt lat="44.89031" lon="6.63984">
        <ele>1257.4</ele>
        <time>2022-07-17T13:34:33Z</time>
      </trkpt>
      <trkpt lat="44.89034" lon="6.63985">
        <ele>1257.4</ele>
        <time>2022-07-17T13:34:34Z</time>
      </trkpt>
      <trkpt lat="44.89036" lon="6.63985">
        <ele>1257.8</ele>
        <time>2022-07-17T13:34:35Z</time>
      </trkpt>
      <trkpt lat="44.89039" lon="6.63986">
        <ele>1257.8</ele>
        <time>2022-07-17T13:34:36Z</time>
      </trkpt>
      <trkpt lat="44.89042" lon="6.63987">
        <ele>1258</ele>
        <time>2022-07-17T13:34:37Z</time>
      </trkpt>
      <trkpt lat="44.89045" lon="6.63988">
        <ele>1258</ele>
        <time>2022-07-17T13:34:38Z</time>
      </trkpt>
      <trkpt lat="44.89047" lon="6.63989">
        <ele>1258.4</ele>
        <time>2022-07-17T13:34:39Z</time>
      </trkpt>
      <trkpt lat="44.8905" lon="6.6399">
        <ele>1258.4</ele>
        <time>2022-07-17T13:34:40Z</time>
      </trkpt>
      <trkpt lat="44.89052" lon="6.63991">
        <ele>1258.8</ele>
        <time>2022-07-17T13:34:41Z</time>
      </trkpt>
      <trkpt lat="44.89055" lon="6.63992">
        <ele>1258.8</ele>
        <time>2022-07-17T13:34:42Z</time>
      </trkpt>
      <trkpt lat="44.89057" lon="6.63994">
        <ele>1259.2</ele>
        <time>2022-07-17T13:34:43Z</time>
      </trkpt>
      <trkpt lat="44.8906" lon="6.63995">
        <ele>1259.2</ele>
        <time>2022-07-17T13:34:44Z</time>
      </trkpt>
      <trkpt lat="44.89062" lon="6.63997">
        <ele>1259.4</ele>
        <time>2022-07-17T13:34:45Z</time>
      </trkpt>
      <trkpt lat="44.89065" lon="6.63998">
        <ele>1259.8</ele>
        <time>2022-07-17T13:34:46Z</time>
      </trkpt>
      <trkpt lat="44.89067" lon="6.63999">
        <ele>1259.8</ele>
        <time>2022-07-17T13:34:47Z</time>
      </trkpt>
      <trkpt lat="44.8907" lon="6.64001">
        <ele>1260</ele>
        <time>2022-07-17T13:34:48Z</time>
      </trkpt>
      <trkpt lat="44.89072" lon="6.64002">
        <ele>1260</ele>
        <time>2022-07-17T13:34:49Z</time>
      </trkpt>
      <trkpt lat="44.89075" lon="6.64004">
        <ele>1260.4</ele>
        <time>2022-07-17T13:34:50Z</time>
      </trkpt>
      <trkpt lat="44.89077" lon="6.64005">
        <ele>1260.4</ele>
        <time>2022-07-17T13:34:51Z</time>
      </trkpt>
      <trkpt lat="44.8908" lon="6.64007">
        <ele>1260.6</ele>
        <time>2022-07-17T13:34:52Z</time>
      </trkpt>
      <trkpt lat="44.89082" lon="6.64008">
        <ele>1260.6</ele>
        <time>2022-07-17T13:34:53Z</time>
      </trkpt>
      <trkpt lat="44.89085" lon="6.64009">
        <ele>1261</ele>
        <time>2022-07-17T13:34:54Z</time>
      </trkpt>
      <trkpt lat="44.89087" lon="6.6401">
        <ele>1261</ele>
        <time>2022-07-17T13:34:55Z</time>
      </trkpt>
      <trkpt lat="44.89089" lon="6.64011">
        <ele>1261.4</ele>
        <time>2022-07-17T13:34:56Z</time>
      </trkpt>
      <trkpt lat="44.89092" lon="6.64012">
        <ele>1261.4</ele>
        <time>2022-07-17T13:34:57Z</time>
      </trkpt>
      <trkpt lat="44.89094" lon="6.64014">
        <ele>1261.6</ele>
        <time>2022-07-17T13:34:58Z</time>
      </trkpt>
      <trkpt lat="44.89096" lon="6.64015">
        <ele>1262</ele>
        <time>2022-07-17T13:34:59Z</time>
      </trkpt>
      <trkpt lat="44.89098" lon="6.64017">
        <ele>1262.2</ele>
        <time>2022-07-17T13:35:00Z</time>
      </trkpt>
      <trkpt lat="44.89101" lon="6.64019">
        <ele>1262.2</ele>
        <time>2022-07-17T13:35:01Z</time>
      </trkpt>
      <trkpt lat="44.89103" lon="6.6402">
        <ele>1262.4</ele>
        <time>2022-07-17T13:35:02Z</time>
      </trkpt>
      <trkpt lat="44.89106" lon="6.64022">
        <ele>1262.4</ele>
        <time>2022-07-17T13:35:03Z</time>
      </trkpt>
      <trkpt lat="44.89108" lon="6.64024">
        <ele>1262.4</ele>
        <time>2022-07-17T13:35:04Z</time>
      </trkpt>
      <trkpt lat="44.8911" lon="6.64026">
        <ele>1262.8</ele>
        <time>2022-07-17T13:35:05Z</time>
      </trkpt>
      <trkpt lat="44.89113" lon="6.64027">
        <ele>1262.8</ele>
        <time>2022-07-17T13:35:06Z</time>
      </trkpt>
      <trkpt lat="44.89115" lon="6.64029">
        <ele>1263.2</ele>
        <time>2022-07-17T13:35:07Z</time>
      </trkpt>
      <trkpt lat="44.89117" lon="6.64031">
        <ele>1263.2</ele>
        <time>2022-07-17T13:35:08Z</time>
      </trkpt>
      <trkpt lat="44.89119" lon="6.64032">
        <ele>1263.2</ele>
        <time>2022-07-17T13:35:09Z</time>
      </trkpt>
      <trkpt lat="44.89122" lon="6.64034">
        <ele>1263.4</ele>
        <time>2022-07-17T13:35:10Z</time>
      </trkpt>
      <trkpt lat="44.89124" lon="6.64035">
        <ele>1263.8</ele>
        <time>2022-07-17T13:35:11Z</time>
      </trkpt>
      <trkpt lat="44.89126" lon="6.64037">
        <ele>1264</ele>
        <time>2022-07-17T13:35:12Z</time>
      </trkpt>
      <trkpt lat="44.89128" lon="6.64039">
        <ele>1264</ele>
        <time>2022-07-17T13:35:13Z</time>
      </trkpt>
      <trkpt lat="44.8913" lon="6.6404">
        <ele>1264.4</ele>
        <time>2022-07-17T13:35:14Z</time>
      </trkpt>
      <trkpt lat="44.89133" lon="6.64042">
        <ele>1264.4</ele>
        <time>2022-07-17T13:35:15Z</time>
      </trkpt>
      <trkpt lat="44.89135" lon="6.64044">
        <ele>1264.6</ele>
        <time>2022-07-17T13:35:16Z</time>
      </trkpt>
      <trkpt lat="44.89137" lon="6.64046">
        <ele>1264.6</ele>
        <time>2022-07-17T13:35:17Z</time>
      </trkpt>
      <trkpt lat="44.89139" lon="6.64048">
        <ele>1265</ele>
        <time>2022-07-17T13:35:18Z</time>
      </trkpt>
      <trkpt lat="44.89142" lon="6.6405">
        <ele>1265</ele>
        <time>2022-07-17T13:35:19Z</time>
      </trkpt>
      <trkpt lat="44.89144" lon="6.64051">
        <ele>1265.2</ele>
        <time>2022-07-17T13:35:20Z</time>
      </trkpt>
      <trkpt lat="44.89146" lon="6.64053">
        <ele>1265.6</ele>
        <time>2022-07-17T13:35:21Z</time>
      </trkpt>
      <trkpt lat="44.89148" lon="6.64056">
        <ele>1265.8</ele>
        <time>2022-07-17T13:35:22Z</time>
      </trkpt>
      <trkpt lat="44.89151" lon="6.64058">
        <ele>1266</ele>
        <time>2022-07-17T13:35:23Z</time>
      </trkpt>
      <trkpt lat="44.89153" lon="6.6406">
        <ele>1266</ele>
        <time>2022-07-17T13:35:24Z</time>
      </trkpt>
      <trkpt lat="44.89155" lon="6.64061">
        <ele>1266.4</ele>
        <time>2022-07-17T13:35:25Z</time>
      </trkpt>
      <trkpt lat="44.89157" lon="6.64062">
        <ele>1266.6</ele>
        <time>2022-07-17T13:35:26Z</time>
      </trkpt>
      <trkpt lat="44.89159" lon="6.64064">
        <ele>1266.6</ele>
        <time>2022-07-17T13:35:27Z</time>
      </trkpt>
      <trkpt lat="44.89162" lon="6.64066">
        <ele>1267</ele>
        <time>2022-07-17T13:35:28Z</time>
      </trkpt>
      <trkpt lat="44.89164" lon="6.64067">
        <ele>1267</ele>
        <time>2022-07-17T13:35:29Z</time>
      </trkpt>
      <trkpt lat="44.89166" lon="6.64069">
        <ele>1267.2</ele>
        <time>2022-07-17T13:35:30Z</time>
      </trkpt>
      <trkpt lat="44.89169" lon="6.6407">
        <ele>1267.2</ele>
        <time>2022-07-17T13:35:31Z</time>
      </trkpt>
      <trkpt lat="44.89171" lon="6.64072">
        <ele>1267.6</ele>
        <time>2022-07-17T13:35:32Z</time>
      </trkpt>
      <trkpt lat="44.89173" lon="6.64072">
        <ele>1267.6</ele>
        <time>2022-07-17T13:35:33Z</time>
      </trkpt>
      <trkpt lat="44.89175" lon="6.64073">
        <ele>1267.8</ele>
        <time>2022-07-17T13:35:34Z</time>
      </trkpt>
      <trkpt lat="44.89178" lon="6.64074">
        <ele>1268.2</ele>
        <time>2022-07-17T13:35:35Z</time>
      </trkpt>
      <trkpt lat="44.8918" lon="6.64074">
        <ele>1268.4</ele>
        <time>2022-07-17T13:35:36Z</time>
      </trkpt>
      <trkpt lat="44.89183" lon="6.64074">
        <ele>1268.4</ele>
        <time>2022-07-17T13:35:37Z</time>
      </trkpt>
      <trkpt lat="44.89185" lon="6.64074">
        <ele>1268.6</ele>
        <time>2022-07-17T13:35:38Z</time>
      </trkpt>
      <trkpt lat="44.89187" lon="6.64074">
        <ele>1268.6</ele>
        <time>2022-07-17T13:35:39Z</time>
      </trkpt>
      <trkpt lat="44.8919" lon="6.64074">
        <ele>1268.8</ele>
        <time>2022-07-17T13:35:40Z</time>
      </trkpt>
      <trkpt lat="44.89192" lon="6.64074">
        <ele>1268.8</ele>
        <time>2022-07-17T13:35:41Z</time>
      </trkpt>
      <trkpt lat="44.89194" lon="6.64074">
        <ele>1268.8</ele>
        <time>2022-07-17T13:35:42Z</time>
      </trkpt>
      <trkpt lat="44.89197" lon="6.64073">
        <ele>1269.2</ele>
        <time>2022-07-17T13:35:43Z</time>
      </trkpt>
      <trkpt lat="44.892" lon="6.64073">
        <ele>1269.2</ele>
        <time>2022-07-17T13:35:44Z</time>
      </trkpt>
      <trkpt lat="44.89202" lon="6.64073">
        <ele>1269.6</ele>
        <time>2022-07-17T13:35:45Z</time>
      </trkpt>
      <trkpt lat="44.89205" lon="6.64072">
        <ele>1269.6</ele>
        <time>2022-07-17T13:35:46Z</time>
      </trkpt>
      <trkpt lat="44.89208" lon="6.64072">
        <ele>1270</ele>
        <time>2022-07-17T13:35:47Z</time>
      </trkpt>
      <trkpt lat="44.8921" lon="6.64072">
        <ele>1270</ele>
        <time>2022-07-17T13:35:48Z</time>
      </trkpt>
      <trkpt lat="44.89213" lon="6.64071">
        <ele>1270.2</ele>
        <time>2022-07-17T13:35:49Z</time>
      </trkpt>
      <trkpt lat="44.89216" lon="6.6407">
        <ele>1270.4</ele>
        <time>2022-07-17T13:35:50Z</time>
      </trkpt>
      <trkpt lat="44.89219" lon="6.6407">
        <ele>1270.4</ele>
        <time>2022-07-17T13:35:51Z</time>
      </trkpt>
      <trkpt lat="44.89221" lon="6.64069">
        <ele>1270.8</ele>
        <time>2022-07-17T13:35:52Z</time>
      </trkpt>
      <trkpt lat="44.89224" lon="6.64069">
        <ele>1270.8</ele>
        <time>2022-07-17T13:35:53Z</time>
      </trkpt>
      <trkpt lat="44.89227" lon="6.64068">
        <ele>1271.2</ele>
        <time>2022-07-17T13:35:54Z</time>
      </trkpt>
      <trkpt lat="44.8923" lon="6.64068">
        <ele>1271.4</ele>
        <time>2022-07-17T13:35:55Z</time>
      </trkpt>
      <trkpt lat="44.89233" lon="6.64067">
        <ele>1271.4</ele>
        <time>2022-07-17T13:35:56Z</time>
      </trkpt>
      <trkpt lat="44.89238" lon="6.64065">
        <ele>1271.8</ele>
        <time>2022-07-17T13:35:57Z</time>
      </trkpt>
      <trkpt lat="44.89241" lon="6.64063">
        <ele>1272</ele>
        <time>2022-07-17T13:35:58Z</time>
      </trkpt>
      <trkpt lat="44.89244" lon="6.64062">
        <ele>1272</ele>
        <time>2022-07-17T13:35:59Z</time>
      </trkpt>
      <trkpt lat="44.89246" lon="6.64059">
        <ele>1272.2</ele>
        <time>2022-07-17T13:36:00Z</time>
      </trkpt>
      <trkpt lat="44.89249" lon="6.64057">
        <ele>1272.2</ele>
        <time>2022-07-17T13:36:01Z</time>
      </trkpt>
      <trkpt lat="44.89252" lon="6.64054">
        <ele>1272.4</ele>
        <time>2022-07-17T13:36:02Z</time>
      </trkpt>
      <trkpt lat="44.89254" lon="6.64051">
        <ele>1272.4</ele>
        <time>2022-07-17T13:36:03Z</time>
      </trkpt>
      <trkpt lat="44.89257" lon="6.64049">
        <ele>1272.4</ele>
        <time>2022-07-17T13:36:04Z</time>
      </trkpt>
      <trkpt lat="44.8926" lon="6.64045">
        <ele>1272.6</ele>
        <time>2022-07-17T13:36:05Z</time>
      </trkpt>
      <trkpt lat="44.89263" lon="6.64042">
        <ele>1272.6</ele>
        <time>2022-07-17T13:36:06Z</time>
      </trkpt>
      <trkpt lat="44.89266" lon="6.6404">
        <ele>1272.6</ele>
        <time>2022-07-17T13:36:07Z</time>
      </trkpt>
      <trkpt lat="44.89269" lon="6.64037">
        <ele>1272.8</ele>
        <time>2022-07-17T13:36:08Z</time>
      </trkpt>
      <trkpt lat="44.89272" lon="6.64034">
        <ele>1272.8</ele>
        <time>2022-07-17T13:36:09Z</time>
      </trkpt>
      <trkpt lat="44.89275" lon="6.64031">
        <ele>1272.8</ele>
        <time>2022-07-17T13:36:10Z</time>
      </trkpt>
      <trkpt lat="44.89278" lon="6.64029">
        <ele>1273.2</ele>
        <time>2022-07-17T13:36:11Z</time>
      </trkpt>
      <trkpt lat="44.89281" lon="6.64027">
        <ele>1273.2</ele>
        <time>2022-07-17T13:36:12Z</time>
      </trkpt>
      <trkpt lat="44.89284" lon="6.64025">
        <ele>1273.2</ele>
        <time>2022-07-17T13:36:13Z</time>
      </trkpt>
      <trkpt lat="44.89288" lon="6.64024">
        <ele>1273.2</ele>
        <time>2022-07-17T13:36:14Z</time>
      </trkpt>
      <trkpt lat="44.8929" lon="6.64023">
        <ele>1273.4</ele>
        <time>2022-07-17T13:36:15Z</time>
      </trkpt>
      <trkpt lat="44.89293" lon="6.64023">
        <ele>1273.4</ele>
        <time>2022-07-17T13:36:16Z</time>
      </trkpt>
      <trkpt lat="44.89296" lon="6.64024">
        <ele>1273.6</ele>
        <time>2022-07-17T13:36:17Z</time>
      </trkpt>
      <trkpt lat="44.89298" lon="6.64025">
        <ele>1273.8</ele>
        <time>2022-07-17T13:36:18Z</time>
      </trkpt>
      <trkpt lat="44.893" lon="6.64026">
        <ele>1274</ele>
        <time>2022-07-17T13:36:19Z</time>
      </trkpt>
      <trkpt lat="44.89302" lon="6.64027">
        <ele>1274</ele>
        <time>2022-07-17T13:36:20Z</time>
      </trkpt>
      <trkpt lat="44.89303" lon="6.64029">
        <ele>1274.6</ele>
        <time>2022-07-17T13:36:21Z</time>
      </trkpt>
      <trkpt lat="44.89304" lon="6.64031">
        <ele>1274.8</ele>
        <time>2022-07-17T13:36:22Z</time>
      </trkpt>
      <trkpt lat="44.89305" lon="6.64033">
        <ele>1275.2</ele>
        <time>2022-07-17T13:36:23Z</time>
      </trkpt>
      <trkpt lat="44.89306" lon="6.64036">
        <ele>1275.4</ele>
        <time>2022-07-17T13:36:24Z</time>
      </trkpt>
      <trkpt lat="44.89306" lon="6.6404">
        <ele>1275.8</ele>
        <time>2022-07-17T13:36:25Z</time>
      </trkpt>
      <trkpt lat="44.89307" lon="6.64044">
        <ele>1276</ele>
        <time>2022-07-17T13:36:26Z</time>
      </trkpt>
      <trkpt lat="44.89307" lon="6.64048">
        <ele>1276.4</ele>
        <time>2022-07-17T13:36:27Z</time>
      </trkpt>
      <trkpt lat="44.89307" lon="6.64051">
        <ele>1276.6</ele>
        <time>2022-07-17T13:36:28Z</time>
      </trkpt>
      <trkpt lat="44.89306" lon="6.64055">
        <ele>1277</ele>
        <time>2022-07-17T13:36:29Z</time>
      </trkpt>
      <trkpt lat="44.89305" lon="6.64059">
        <ele>1277.2</ele>
        <time>2022-07-17T13:36:30Z</time>
      </trkpt>
      <trkpt lat="44.89305" lon="6.64062">
        <ele>1277.4</ele>
        <time>2022-07-17T13:36:31Z</time>
      </trkpt>
      <trkpt lat="44.89304" lon="6.64065">
        <ele>1277.6</ele>
        <time>2022-07-17T13:36:32Z</time>
      </trkpt>
      <trkpt lat="44.89304" lon="6.64068">
        <ele>1277.8</ele>
        <time>2022-07-17T13:36:33Z</time>
      </trkpt>
      <trkpt lat="44.89303" lon="6.64072">
        <ele>1278</ele>
        <time>2022-07-17T13:36:34Z</time>
      </trkpt>
      <trkpt lat="44.89303" lon="6.64075">
        <ele>1278.4</ele>
        <time>2022-07-17T13:36:35Z</time>
      </trkpt>
      <trkpt lat="44.89303" lon="6.64078">
        <ele>1278.6</ele>
        <time>2022-07-17T13:36:36Z</time>
      </trkpt>
      <trkpt lat="44.89303" lon="6.64081">
        <ele>1278.8</ele>
        <time>2022-07-17T13:36:37Z</time>
      </trkpt>
      <trkpt lat="44.89303" lon="6.64085">
        <ele>1279</ele>
        <time>2022-07-17T13:36:38Z</time>
      </trkpt>
      <trkpt lat="44.89303" lon="6.64088">
        <ele>1279.2</ele>
        <time>2022-07-17T13:36:39Z</time>
      </trkpt>
      <trkpt lat="44.89303" lon="6.64092">
        <ele>1279.6</ele>
        <time>2022-07-17T13:36:40Z</time>
      </trkpt>
      <trkpt lat="44.89304" lon="6.64095">
        <ele>1279.8</ele>
        <time>2022-07-17T13:36:41Z</time>
      </trkpt>
      <trkpt lat="44.89304" lon="6.64099">
        <ele>1279.8</ele>
        <time>2022-07-17T13:36:42Z</time>
      </trkpt>
      <trkpt lat="44.89305" lon="6.64103">
        <ele>1280</ele>
        <time>2022-07-17T13:36:43Z</time>
      </trkpt>
      <trkpt lat="44.89306" lon="6.64106">
        <ele>1280</ele>
        <time>2022-07-17T13:36:44Z</time>
      </trkpt>
      <trkpt lat="44.89307" lon="6.6411">
        <ele>1280.4</ele>
        <time>2022-07-17T13:36:45Z</time>
      </trkpt>
      <trkpt lat="44.89307" lon="6.64114">
        <ele>1280.4</ele>
        <time>2022-07-17T13:36:46Z</time>
      </trkpt>
      <trkpt lat="44.89308" lon="6.64117">
        <ele>1280.8</ele>
        <time>2022-07-17T13:36:47Z</time>
      </trkpt>
      <trkpt lat="44.89309" lon="6.6412">
        <ele>1280.8</ele>
        <time>2022-07-17T13:36:48Z</time>
      </trkpt>
      <trkpt lat="44.8931" lon="6.64124">
        <ele>1281.2</ele>
        <time>2022-07-17T13:36:49Z</time>
      </trkpt>
      <trkpt lat="44.89311" lon="6.64127">
        <ele>1281.2</ele>
        <time>2022-07-17T13:36:50Z</time>
      </trkpt>
      <trkpt lat="44.89312" lon="6.6413">
        <ele>1281.4</ele>
        <time>2022-07-17T13:36:51Z</time>
      </trkpt>
      <trkpt lat="44.89312" lon="6.64134">
        <ele>1281.4</ele>
        <time>2022-07-17T13:36:52Z</time>
      </trkpt>
      <trkpt lat="44.89313" lon="6.64137">
        <ele>1281.8</ele>
        <time>2022-07-17T13:36:53Z</time>
      </trkpt>
      <trkpt lat="44.89314" lon="6.6414">
        <ele>1281.8</ele>
        <time>2022-07-17T13:36:54Z</time>
      </trkpt>
      <trkpt lat="44.89315" lon="6.64144">
        <ele>1282.2</ele>
        <time>2022-07-17T13:36:55Z</time>
      </trkpt>
      <trkpt lat="44.89317" lon="6.64147">
        <ele>1282.2</ele>
        <time>2022-07-17T13:36:56Z</time>
      </trkpt>
      <trkpt lat="44.89318" lon="6.6415">
        <ele>1282.4</ele>
        <time>2022-07-17T13:36:57Z</time>
      </trkpt>
      <trkpt lat="44.89318" lon="6.64154">
        <ele>1282.4</ele>
        <time>2022-07-17T13:36:58Z</time>
      </trkpt>
      <trkpt lat="44.89319" lon="6.64157">
        <ele>1282.8</ele>
        <time>2022-07-17T13:36:59Z</time>
      </trkpt>
      <trkpt lat="44.8932" lon="6.64161">
        <ele>1282.8</ele>
        <time>2022-07-17T13:37:00Z</time>
      </trkpt>
      <trkpt lat="44.89321" lon="6.64164">
        <ele>1283</ele>
        <time>2022-07-17T13:37:01Z</time>
      </trkpt>
      <trkpt lat="44.89321" lon="6.64168">
        <ele>1283</ele>
        <time>2022-07-17T13:37:02Z</time>
      </trkpt>
      <trkpt lat="44.89322" lon="6.64172">
        <ele>1283.4</ele>
        <time>2022-07-17T13:37:03Z</time>
      </trkpt>
      <trkpt lat="44.89323" lon="6.64175">
        <ele>1283.4</ele>
        <time>2022-07-17T13:37:04Z</time>
      </trkpt>
      <trkpt lat="44.89324" lon="6.64179">
        <ele>1283.6</ele>
        <time>2022-07-17T13:37:05Z</time>
      </trkpt>
      <trkpt lat="44.89324" lon="6.64182">
        <ele>1283.6</ele>
        <time>2022-07-17T13:37:06Z</time>
      </trkpt>
      <trkpt lat="44.89325" lon="6.64186">
        <ele>1284</ele>
        <time>2022-07-17T13:37:07Z</time>
      </trkpt>
      <trkpt lat="44.89325" lon="6.6419">
        <ele>1284</ele>
        <time>2022-07-17T13:37:08Z</time>
      </trkpt>
      <trkpt lat="44.89325" lon="6.64193">
        <ele>1284.2</ele>
        <time>2022-07-17T13:37:09Z</time>
      </trkpt>
      <trkpt lat="44.89326" lon="6.64197">
        <ele>1284.2</ele>
        <time>2022-07-17T13:37:10Z</time>
      </trkpt>
      <trkpt lat="44.89326" lon="6.642">
        <ele>1284.6</ele>
        <time>2022-07-17T13:37:11Z</time>
      </trkpt>
      <trkpt lat="44.89326" lon="6.64204">
        <ele>1284.6</ele>
        <time>2022-07-17T13:37:12Z</time>
      </trkpt>
      <trkpt lat="44.89325" lon="6.64207">
        <ele>1285</ele>
        <time>2022-07-17T13:37:13Z</time>
      </trkpt>
      <trkpt lat="44.89325" lon="6.64211">
        <ele>1285</ele>
        <time>2022-07-17T13:37:14Z</time>
      </trkpt>
      <trkpt lat="44.89324" lon="6.64214">
        <ele>1285.4</ele>
        <time>2022-07-17T13:37:15Z</time>
      </trkpt>
      <trkpt lat="44.89323" lon="6.64218">
        <ele>1285.4</ele>
        <time>2022-07-17T13:37:16Z</time>
      </trkpt>
      <trkpt lat="44.89322" lon="6.64221">
        <ele>1285.6</ele>
        <time>2022-07-17T13:37:17Z</time>
      </trkpt>
      <trkpt lat="44.89321" lon="6.64223">
        <ele>1285.6</ele>
        <time>2022-07-17T13:37:18Z</time>
      </trkpt>
      <trkpt lat="44.8932" lon="6.64226">
        <ele>1286</ele>
        <time>2022-07-17T13:37:19Z</time>
      </trkpt>
      <trkpt lat="44.89319" lon="6.64229">
        <ele>1286</ele>
        <time>2022-07-17T13:37:20Z</time>
      </trkpt>
      <trkpt lat="44.89318" lon="6.64231">
        <ele>1286.4</ele>
        <time>2022-07-17T13:37:21Z</time>
      </trkpt>
      <trkpt lat="44.89316" lon="6.64234">
        <ele>1286.4</ele>
        <time>2022-07-17T13:37:22Z</time>
      </trkpt>
      <trkpt lat="44.89315" lon="6.64237">
        <ele>1286.6</ele>
        <time>2022-07-17T13:37:23Z</time>
      </trkpt>
      <trkpt lat="44.89314" lon="6.6424">
        <ele>1286.6</ele>
        <time>2022-07-17T13:37:24Z</time>
      </trkpt>
      <trkpt lat="44.89312" lon="6.64242">
        <ele>1287</ele>
        <time>2022-07-17T13:37:25Z</time>
      </trkpt>
      <trkpt lat="44.89311" lon="6.64245">
        <ele>1287</ele>
        <time>2022-07-17T13:37:26Z</time>
      </trkpt>
      <trkpt lat="44.8931" lon="6.64248">
        <ele>1287.4</ele>
        <time>2022-07-17T13:37:27Z</time>
      </trkpt>
      <trkpt lat="44.89308" lon="6.64251">
        <ele>1287.4</ele>
        <time>2022-07-17T13:37:28Z</time>
      </trkpt>
      <trkpt lat="44.89307" lon="6.64254">
        <ele>1287.6</ele>
        <time>2022-07-17T13:37:29Z</time>
      </trkpt>
      <trkpt lat="44.89306" lon="6.64257">
        <ele>1287.6</ele>
        <time>2022-07-17T13:37:30Z</time>
      </trkpt>
      <trkpt lat="44.89305" lon="6.6426">
        <ele>1288</ele>
        <time>2022-07-17T13:37:31Z</time>
      </trkpt>
      <trkpt lat="44.89304" lon="6.64263">
        <ele>1288</ele>
        <time>2022-07-17T13:37:32Z</time>
      </trkpt>
      <trkpt lat="44.89303" lon="6.64266">
        <ele>1288.2</ele>
        <time>2022-07-17T13:37:33Z</time>
      </trkpt>
      <trkpt lat="44.89303" lon="6.64269">
        <ele>1288.2</ele>
        <time>2022-07-17T13:37:34Z</time>
      </trkpt>
      <trkpt lat="44.89302" lon="6.64272">
        <ele>1288.4</ele>
        <time>2022-07-17T13:37:35Z</time>
      </trkpt>
      <trkpt lat="44.89301" lon="6.64276">
        <ele>1288.4</ele>
        <time>2022-07-17T13:37:36Z</time>
      </trkpt>
      <trkpt lat="44.89301" lon="6.64279">
        <ele>1288.6</ele>
        <time>2022-07-17T13:37:37Z</time>
      </trkpt>
      <trkpt lat="44.893" lon="6.64282">
        <ele>1288.6</ele>
        <time>2022-07-17T13:37:38Z</time>
      </trkpt>
      <trkpt lat="44.893" lon="6.64286">
        <ele>1289</ele>
        <time>2022-07-17T13:37:39Z</time>
      </trkpt>
      <trkpt lat="44.89299" lon="6.64289">
        <ele>1289</ele>
        <time>2022-07-17T13:37:40Z</time>
      </trkpt>
      <trkpt lat="44.89299" lon="6.64293">
        <ele>1289.2</ele>
        <time>2022-07-17T13:37:41Z</time>
      </trkpt>
      <trkpt lat="44.89299" lon="6.64296">
        <ele>1289.2</ele>
        <time>2022-07-17T13:37:42Z</time>
      </trkpt>
      <trkpt lat="44.89298" lon="6.64299">
        <ele>1289.6</ele>
        <time>2022-07-17T13:37:43Z</time>
      </trkpt>
      <trkpt lat="44.89298" lon="6.64303">
        <ele>1289.6</ele>
        <time>2022-07-17T13:37:44Z</time>
      </trkpt>
      <trkpt lat="44.89298" lon="6.64307">
        <ele>1289.8</ele>
        <time>2022-07-17T13:37:45Z</time>
      </trkpt>
      <trkpt lat="44.89298" lon="6.6431">
        <ele>1289.8</ele>
        <time>2022-07-17T13:37:46Z</time>
      </trkpt>
      <trkpt lat="44.89298" lon="6.64313">
        <ele>1290.2</ele>
        <time>2022-07-17T13:37:47Z</time>
      </trkpt>
      <trkpt lat="44.89298" lon="6.64317">
        <ele>1290.2</ele>
        <time>2022-07-17T13:37:48Z</time>
      </trkpt>
      <trkpt lat="44.89298" lon="6.6432">
        <ele>1290.4</ele>
        <time>2022-07-17T13:37:49Z</time>
      </trkpt>
      <trkpt lat="44.89298" lon="6.64324">
        <ele>1290.4</ele>
        <time>2022-07-17T13:37:50Z</time>
      </trkpt>
      <trkpt lat="44.89298" lon="6.64328">
        <ele>1290.8</ele>
        <time>2022-07-17T13:37:51Z</time>
      </trkpt>
      <trkpt lat="44.89298" lon="6.64331">
        <ele>1290.8</ele>
        <time>2022-07-17T13:37:52Z</time>
      </trkpt>
      <trkpt lat="44.89298" lon="6.64335">
        <ele>1291</ele>
        <time>2022-07-17T13:37:53Z</time>
      </trkpt>
      <trkpt lat="44.89298" lon="6.64339">
        <ele>1291</ele>
        <time>2022-07-17T13:37:54Z</time>
      </trkpt>
      <trkpt lat="44.89298" lon="6.64343">
        <ele>1291.4</ele>
        <time>2022-07-17T13:37:55Z</time>
      </trkpt>
      <trkpt lat="44.89298" lon="6.64346">
        <ele>1291.4</ele>
        <time>2022-07-17T13:37:56Z</time>
      </trkpt>
      <trkpt lat="44.89298" lon="6.6435">
        <ele>1291.8</ele>
        <time>2022-07-17T13:37:57Z</time>
      </trkpt>
      <trkpt lat="44.89299" lon="6.64354">
        <ele>1292.2</ele>
        <time>2022-07-17T13:37:58Z</time>
      </trkpt>
      <trkpt lat="44.89299" lon="6.64358">
        <ele>1292.4</ele>
        <time>2022-07-17T13:37:59Z</time>
      </trkpt>
      <trkpt lat="44.89299" lon="6.64362">
        <ele>1292.6</ele>
        <time>2022-07-17T13:38:00Z</time>
      </trkpt>
      <trkpt lat="44.89299" lon="6.64366">
        <ele>1292.6</ele>
        <time>2022-07-17T13:38:01Z</time>
      </trkpt>
      <trkpt lat="44.893" lon="6.6437">
        <ele>1292.8</ele>
        <time>2022-07-17T13:38:02Z</time>
      </trkpt>
      <trkpt lat="44.893" lon="6.64374">
        <ele>1292.8</ele>
        <time>2022-07-17T13:38:03Z</time>
      </trkpt>
      <trkpt lat="44.893" lon="6.64377">
        <ele>1293.2</ele>
        <time>2022-07-17T13:38:04Z</time>
      </trkpt>
      <trkpt lat="44.893" lon="6.64381">
        <ele>1293.2</ele>
        <time>2022-07-17T13:38:05Z</time>
      </trkpt>
      <trkpt lat="44.893" lon="6.64385">
        <ele>1293.4</ele>
        <time>2022-07-17T13:38:06Z</time>
      </trkpt>
      <trkpt lat="44.893" lon="6.64388">
        <ele>1293.4</ele>
        <time>2022-07-17T13:38:07Z</time>
      </trkpt>
      <trkpt lat="44.893" lon="6.64392">
        <ele>1293.6</ele>
        <time>2022-07-17T13:38:08Z</time>
      </trkpt>
      <trkpt lat="44.89301" lon="6.64396">
        <ele>1293.8</ele>
        <time>2022-07-17T13:38:09Z</time>
      </trkpt>
      <trkpt lat="44.89301" lon="6.64399">
        <ele>1294</ele>
        <time>2022-07-17T13:38:10Z</time>
      </trkpt>
      <trkpt lat="44.89301" lon="6.64403">
        <ele>1294</ele>
        <time>2022-07-17T13:38:11Z</time>
      </trkpt>
      <trkpt lat="44.89301" lon="6.64407">
        <ele>1294.4</ele>
        <time>2022-07-17T13:38:12Z</time>
      </trkpt>
      <trkpt lat="44.89301" lon="6.6441">
        <ele>1294.4</ele>
        <time>2022-07-17T13:38:13Z</time>
      </trkpt>
      <trkpt lat="44.89301" lon="6.64414">
        <ele>1294.8</ele>
        <time>2022-07-17T13:38:14Z</time>
      </trkpt>
      <trkpt lat="44.893" lon="6.64417">
        <ele>1295</ele>
        <time>2022-07-17T13:38:15Z</time>
      </trkpt>
      <trkpt lat="44.893" lon="6.64421">
        <ele>1295.4</ele>
        <time>2022-07-17T13:38:16Z</time>
      </trkpt>
      <trkpt lat="44.893" lon="6.64424">
        <ele>1295.6</ele>
        <time>2022-07-17T13:38:17Z</time>
      </trkpt>
      <trkpt lat="44.893" lon="6.64428">
        <ele>1295.8</ele>
        <time>2022-07-17T13:38:18Z</time>
      </trkpt>
      <trkpt lat="44.89299" lon="6.64431">
        <ele>1295.8</ele>
        <time>2022-07-17T13:38:19Z</time>
      </trkpt>
      <trkpt lat="44.89298" lon="6.64435">
        <ele>1296.2</ele>
        <time>2022-07-17T13:38:20Z</time>
      </trkpt>
      <trkpt lat="44.89297" lon="6.64438">
        <ele>1296.2</ele>
        <time>2022-07-17T13:38:21Z</time>
      </trkpt>
      <trkpt lat="44.89296" lon="6.64442">
        <ele>1296.4</ele>
        <time>2022-07-17T13:38:22Z</time>
      </trkpt>
      <trkpt lat="44.89295" lon="6.64445">
        <ele>1296.4</ele>
        <time>2022-07-17T13:38:23Z</time>
      </trkpt>
      <trkpt lat="44.89293" lon="6.64449">
        <ele>1296.8</ele>
        <time>2022-07-17T13:38:24Z</time>
      </trkpt>
      <trkpt lat="44.89292" lon="6.64452">
        <ele>1296.8</ele>
        <time>2022-07-17T13:38:25Z</time>
      </trkpt>
      <trkpt lat="44.89291" lon="6.64456">
        <ele>1296.8</ele>
        <time>2022-07-17T13:38:26Z</time>
      </trkpt>
      <trkpt lat="44.8929" lon="6.64459">
        <ele>1297</ele>
        <time>2022-07-17T13:38:27Z</time>
      </trkpt>
      <trkpt lat="44.89289" lon="6.64462">
        <ele>1297.4</ele>
        <time>2022-07-17T13:38:28Z</time>
      </trkpt>
      <trkpt lat="44.89287" lon="6.64464">
        <ele>1297.6</ele>
        <time>2022-07-17T13:38:29Z</time>
      </trkpt>
      <trkpt lat="44.89285" lon="6.64467">
        <ele>1297.8</ele>
        <time>2022-07-17T13:38:30Z</time>
      </trkpt>
      <trkpt lat="44.89284" lon="6.6447">
        <ele>1298.2</ele>
        <time>2022-07-17T13:38:31Z</time>
      </trkpt>
      <trkpt lat="44.89282" lon="6.64474">
        <ele>1298.4</ele>
        <time>2022-07-17T13:38:32Z</time>
      </trkpt>
      <trkpt lat="44.89281" lon="6.64477">
        <ele>1298.6</ele>
        <time>2022-07-17T13:38:33Z</time>
      </trkpt>
      <trkpt lat="44.8928" lon="6.6448">
        <ele>1298.8</ele>
        <time>2022-07-17T13:38:34Z</time>
      </trkpt>
      <trkpt lat="44.89278" lon="6.64483">
        <ele>1298.8</ele>
        <time>2022-07-17T13:38:35Z</time>
      </trkpt>
      <trkpt lat="44.89277" lon="6.64486">
        <ele>1299</ele>
        <time>2022-07-17T13:38:36Z</time>
      </trkpt>
      <trkpt lat="44.89275" lon="6.64489">
        <ele>1299</ele>
        <time>2022-07-17T13:38:37Z</time>
      </trkpt>
      <trkpt lat="44.89274" lon="6.64492">
        <ele>1299.2</ele>
        <time>2022-07-17T13:38:38Z</time>
      </trkpt>
      <trkpt lat="44.89273" lon="6.64496">
        <ele>1299.2</ele>
        <time>2022-07-17T13:38:39Z</time>
      </trkpt>
      <trkpt lat="44.89271" lon="6.64499">
        <ele>1299.8</ele>
        <time>2022-07-17T13:38:40Z</time>
      </trkpt>
      <trkpt lat="44.8927" lon="6.64503">
        <ele>1300</ele>
        <time>2022-07-17T13:38:41Z</time>
      </trkpt>
      <trkpt lat="44.8927" lon="6.64507">
        <ele>1300.2</ele>
        <time>2022-07-17T13:38:42Z</time>
      </trkpt>
      <trkpt lat="44.89269" lon="6.64511">
        <ele>1300.2</ele>
        <time>2022-07-17T13:38:43Z</time>
      </trkpt>
      <trkpt lat="44.89269" lon="6.64515">
        <ele>1300.4</ele>
        <time>2022-07-17T13:38:44Z</time>
      </trkpt>
      <trkpt lat="44.89268" lon="6.64518">
        <ele>1300.4</ele>
        <time>2022-07-17T13:38:45Z</time>
      </trkpt>
      <trkpt lat="44.89268" lon="6.64523">
        <ele>1300.8</ele>
        <time>2022-07-17T13:38:46Z</time>
      </trkpt>
      <trkpt lat="44.89267" lon="6.64527">
        <ele>1301</ele>
        <time>2022-07-17T13:38:47Z</time>
      </trkpt>
      <trkpt lat="44.89267" lon="6.64531">
        <ele>1301</ele>
        <time>2022-07-17T13:38:48Z</time>
      </trkpt>
      <trkpt lat="44.89266" lon="6.64535">
        <ele>1301.4</ele>
        <time>2022-07-17T13:38:49Z</time>
      </trkpt>
      <trkpt lat="44.89266" lon="6.6454">
        <ele>1301.4</ele>
        <time>2022-07-17T13:38:50Z</time>
      </trkpt>
      <trkpt lat="44.89265" lon="6.64544">
        <ele>1301.4</ele>
        <time>2022-07-17T13:38:51Z</time>
      </trkpt>
      <trkpt lat="44.89264" lon="6.64547">
        <ele>1301.6</ele>
        <time>2022-07-17T13:38:52Z</time>
      </trkpt>
      <trkpt lat="44.89263" lon="6.64551">
        <ele>1301.6</ele>
        <time>2022-07-17T13:38:53Z</time>
      </trkpt>
      <trkpt lat="44.89262" lon="6.64555">
        <ele>1302</ele>
        <time>2022-07-17T13:38:54Z</time>
      </trkpt>
      <trkpt lat="44.89261" lon="6.64558">
        <ele>1302</ele>
        <time>2022-07-17T13:38:55Z</time>
      </trkpt>
      <trkpt lat="44.89259" lon="6.64562">
        <ele>1302.4</ele>
        <time>2022-07-17T13:38:56Z</time>
      </trkpt>
      <trkpt lat="44.89259" lon="6.64565">
        <ele>1302.6</ele>
        <time>2022-07-17T13:38:57Z</time>
      </trkpt>
      <trkpt lat="44.89258" lon="6.64568">
        <ele>1302.8</ele>
        <time>2022-07-17T13:38:58Z</time>
      </trkpt>
      <trkpt lat="44.89257" lon="6.64571">
        <ele>1303</ele>
        <time>2022-07-17T13:38:59Z</time>
      </trkpt>
      <trkpt lat="44.89255" lon="6.64574">
        <ele>1303.2</ele>
        <time>2022-07-17T13:39:00Z</time>
      </trkpt>
      <trkpt lat="44.89254" lon="6.64577">
        <ele>1303.6</ele>
        <time>2022-07-17T13:39:01Z</time>
      </trkpt>
      <trkpt lat="44.89252" lon="6.6458">
        <ele>1303.8</ele>
        <time>2022-07-17T13:39:02Z</time>
      </trkpt>
      <trkpt lat="44.8925" lon="6.64583">
        <ele>1303.8</ele>
        <time>2022-07-17T13:39:03Z</time>
      </trkpt>
      <trkpt lat="44.89249" lon="6.64585">
        <ele>1304.2</ele>
        <time>2022-07-17T13:39:04Z</time>
      </trkpt>
      <trkpt lat="44.89246" lon="6.64588">
        <ele>1304.4</ele>
        <time>2022-07-17T13:39:05Z</time>
      </trkpt>
      <trkpt lat="44.89244" lon="6.6459">
        <ele>1304.4</ele>
        <time>2022-07-17T13:39:06Z</time>
      </trkpt>
      <trkpt lat="44.89242" lon="6.64592">
        <ele>1304.8</ele>
        <time>2022-07-17T13:39:07Z</time>
      </trkpt>
      <trkpt lat="44.89239" lon="6.64594">
        <ele>1304.8</ele>
        <time>2022-07-17T13:39:08Z</time>
      </trkpt>
      <trkpt lat="44.89235" lon="6.64595">
        <ele>1305.2</ele>
        <time>2022-07-17T13:39:09Z</time>
      </trkpt>
      <trkpt lat="44.89233" lon="6.64596">
        <ele>1305.2</ele>
        <time>2022-07-17T13:39:10Z</time>
      </trkpt>
      <trkpt lat="44.8923" lon="6.64597">
        <ele>1305.4</ele>
        <time>2022-07-17T13:39:11Z</time>
      </trkpt>
      <trkpt lat="44.89227" lon="6.64598">
        <ele>1305.4</ele>
        <time>2022-07-17T13:39:12Z</time>
      </trkpt>
      <trkpt lat="44.89224" lon="6.64598">
        <ele>1305.8</ele>
        <time>2022-07-17T13:39:13Z</time>
      </trkpt>
      <trkpt lat="44.89221" lon="6.64599">
        <ele>1306</ele>
        <time>2022-07-17T13:39:14Z</time>
      </trkpt>
      <trkpt lat="44.89219" lon="6.646">
        <ele>1306</ele>
        <time>2022-07-17T13:39:15Z</time>
      </trkpt>
      <trkpt lat="44.89216" lon="6.64602">
        <ele>1306.4</ele>
        <time>2022-07-17T13:39:16Z</time>
      </trkpt>
      <trkpt lat="44.89214" lon="6.64603">
        <ele>1306.4</ele>
        <time>2022-07-17T13:39:17Z</time>
      </trkpt>
      <trkpt lat="44.89211" lon="6.64606">
        <ele>1306.6</ele>
        <time>2022-07-17T13:39:18Z</time>
      </trkpt>
      <trkpt lat="44.89209" lon="6.64608">
        <ele>1306.6</ele>
        <time>2022-07-17T13:39:19Z</time>
      </trkpt>
      <trkpt lat="44.89207" lon="6.64611">
        <ele>1307</ele>
        <time>2022-07-17T13:39:20Z</time>
      </trkpt>
      <trkpt lat="44.89206" lon="6.64614">
        <ele>1307</ele>
        <time>2022-07-17T13:39:21Z</time>
      </trkpt>
      <trkpt lat="44.89204" lon="6.64617">
        <ele>1307.4</ele>
        <time>2022-07-17T13:39:22Z</time>
      </trkpt>
      <trkpt lat="44.89203" lon="6.6462">
        <ele>1307.6</ele>
        <time>2022-07-17T13:39:23Z</time>
      </trkpt>
      <trkpt lat="44.89202" lon="6.64623">
        <ele>1307.8</ele>
        <time>2022-07-17T13:39:24Z</time>
      </trkpt>
      <trkpt lat="44.89201" lon="6.64627">
        <ele>1307.8</ele>
        <time>2022-07-17T13:39:25Z</time>
      </trkpt>
      <trkpt lat="44.892" lon="6.6463">
        <ele>1308</ele>
        <time>2022-07-17T13:39:26Z</time>
      </trkpt>
      <trkpt lat="44.89199" lon="6.64634">
        <ele>1308.2</ele>
        <time>2022-07-17T13:39:27Z</time>
      </trkpt>
      <trkpt lat="44.89198" lon="6.64638">
        <ele>1308.2</ele>
        <time>2022-07-17T13:39:28Z</time>
      </trkpt>
      <trkpt lat="44.89197" lon="6.64641">
        <ele>1308.6</ele>
        <time>2022-07-17T13:39:29Z</time>
      </trkpt>
      <trkpt lat="44.89196" lon="6.64645">
        <ele>1308.6</ele>
        <time>2022-07-17T13:39:30Z</time>
      </trkpt>
      <trkpt lat="44.89194" lon="6.64648">
        <ele>1309</ele>
        <time>2022-07-17T13:39:31Z</time>
      </trkpt>
      <trkpt lat="44.89192" lon="6.64652">
        <ele>1309</ele>
        <time>2022-07-17T13:39:32Z</time>
      </trkpt>
      <trkpt lat="44.89191" lon="6.64655">
        <ele>1309.2</ele>
        <time>2022-07-17T13:39:33Z</time>
      </trkpt>
      <trkpt lat="44.89189" lon="6.64658">
        <ele>1309.4</ele>
        <time>2022-07-17T13:39:34Z</time>
      </trkpt>
      <trkpt lat="44.89187" lon="6.64661">
        <ele>1309.8</ele>
        <time>2022-07-17T13:39:35Z</time>
      </trkpt>
      <trkpt lat="44.89185" lon="6.64663">
        <ele>1310</ele>
        <time>2022-07-17T13:39:36Z</time>
      </trkpt>
      <trkpt lat="44.89183" lon="6.64665">
        <ele>1310.2</ele>
        <time>2022-07-17T13:39:37Z</time>
      </trkpt>
      <trkpt lat="44.89181" lon="6.64667">
        <ele>1310.2</ele>
        <time>2022-07-17T13:39:38Z</time>
      </trkpt>
      <trkpt lat="44.89179" lon="6.64669">
        <ele>1310.6</ele>
        <time>2022-07-17T13:39:39Z</time>
      </trkpt>
      <trkpt lat="44.89177" lon="6.6467">
        <ele>1310.6</ele>
        <time>2022-07-17T13:39:40Z</time>
      </trkpt>
      <trkpt lat="44.89175" lon="6.64672">
        <ele>1311</ele>
        <time>2022-07-17T13:39:41Z</time>
      </trkpt>
      <trkpt lat="44.89173" lon="6.64674">
        <ele>1311.2</ele>
        <time>2022-07-17T13:39:42Z</time>
      </trkpt>
      <trkpt lat="44.89171" lon="6.64675">
        <ele>1311.2</ele>
        <time>2022-07-17T13:39:43Z</time>
      </trkpt>
      <trkpt lat="44.89168" lon="6.64677">
        <ele>1311.8</ele>
        <time>2022-07-17T13:39:45Z</time>
      </trkpt>
      <trkpt lat="44.89166" lon="6.64679">
        <ele>1312</ele>
        <time>2022-07-17T13:39:46Z</time>
      </trkpt>
      <trkpt lat="44.89164" lon="6.6468">
        <ele>1312</ele>
        <time>2022-07-17T13:39:47Z</time>
      </trkpt>
      <trkpt lat="44.89162" lon="6.64682">
        <ele>1312.4</ele>
        <time>2022-07-17T13:39:48Z</time>
      </trkpt>
      <trkpt lat="44.89159" lon="6.64683">
        <ele>1312.6</ele>
        <time>2022-07-17T13:39:49Z</time>
      </trkpt>
      <trkpt lat="44.89156" lon="6.64685">
        <ele>1312.8</ele>
        <time>2022-07-17T13:39:50Z</time>
      </trkpt>
      <trkpt lat="44.89153" lon="6.64687">
        <ele>1312.8</ele>
        <time>2022-07-17T13:39:51Z</time>
      </trkpt>
      <trkpt lat="44.8915" lon="6.64688">
        <ele>1313</ele>
        <time>2022-07-17T13:39:52Z</time>
      </trkpt>
      <trkpt lat="44.89147" lon="6.6469">
        <ele>1313</ele>
        <time>2022-07-17T13:39:53Z</time>
      </trkpt>
      <trkpt lat="44.89144" lon="6.64691">
        <ele>1313</ele>
        <time>2022-07-17T13:39:54Z</time>
      </trkpt>
      <trkpt lat="44.89141" lon="6.64693">
        <ele>1313</ele>
        <time>2022-07-17T13:39:55Z</time>
      </trkpt>
      <trkpt lat="44.89137" lon="6.64693">
        <ele>1313</ele>
        <time>2022-07-17T13:39:56Z</time>
      </trkpt>
      <trkpt lat="44.89134" lon="6.64694">
        <ele>1313</ele>
        <time>2022-07-17T13:39:57Z</time>
      </trkpt>
      <trkpt lat="44.8913" lon="6.64694">
        <ele>1313</ele>
        <time>2022-07-17T13:39:58Z</time>
      </trkpt>
      <trkpt lat="44.89126" lon="6.64695">
        <ele>1313</ele>
        <time>2022-07-17T13:39:59Z</time>
      </trkpt>
      <trkpt lat="44.89123" lon="6.64695">
        <ele>1313</ele>
        <time>2022-07-17T13:40:00Z</time>
      </trkpt>
      <trkpt lat="44.8912" lon="6.64696">
        <ele>1313</ele>
        <time>2022-07-17T13:40:01Z</time>
      </trkpt>
      <trkpt lat="44.89116" lon="6.64697">
        <ele>1313</ele>
        <time>2022-07-17T13:40:02Z</time>
      </trkpt>
      <trkpt lat="44.89113" lon="6.64697">
        <ele>1313</ele>
        <time>2022-07-17T13:40:03Z</time>
      </trkpt>
      <trkpt lat="44.8911" lon="6.64698">
        <ele>1313</ele>
        <time>2022-07-17T13:40:04Z</time>
      </trkpt>
      <trkpt lat="44.89107" lon="6.64698">
        <ele>1313</ele>
        <time>2022-07-17T13:40:05Z</time>
      </trkpt>
      <trkpt lat="44.89104" lon="6.64698">
        <ele>1313</ele>
        <time>2022-07-17T13:40:06Z</time>
      </trkpt>
      <trkpt lat="44.891" lon="6.64699">
        <ele>1313.4</ele>
        <time>2022-07-17T13:40:07Z</time>
      </trkpt>
      <trkpt lat="44.89097" lon="6.64698">
        <ele>1313.4</ele>
        <time>2022-07-17T13:40:08Z</time>
      </trkpt>
      <trkpt lat="44.89094" lon="6.64698">
        <ele>1313.6</ele>
        <time>2022-07-17T13:40:09Z</time>
      </trkpt>
      <trkpt lat="44.8909" lon="6.64698">
        <ele>1313.6</ele>
        <time>2022-07-17T13:40:10Z</time>
      </trkpt>
      <trkpt lat="44.89087" lon="6.64698">
        <ele>1313.8</ele>
        <time>2022-07-17T13:40:11Z</time>
      </trkpt>
      <trkpt lat="44.89084" lon="6.64698">
        <ele>1313.8</ele>
        <time>2022-07-17T13:40:12Z</time>
      </trkpt>
      <trkpt lat="44.89081" lon="6.64698">
        <ele>1314.2</ele>
        <time>2022-07-17T13:40:13Z</time>
      </trkpt>
      <trkpt lat="44.89078" lon="6.64699">
        <ele>1314.2</ele>
        <time>2022-07-17T13:40:14Z</time>
      </trkpt>
      <trkpt lat="44.89075" lon="6.64699">
        <ele>1314.4</ele>
        <time>2022-07-17T13:40:15Z</time>
      </trkpt>
      <trkpt lat="44.89072" lon="6.64699">
        <ele>1314.4</ele>
        <time>2022-07-17T13:40:16Z</time>
      </trkpt>
      <trkpt lat="44.89069" lon="6.647">
        <ele>1314.8</ele>
        <time>2022-07-17T13:40:17Z</time>
      </trkpt>
      <trkpt lat="44.89067" lon="6.64701">
        <ele>1315</ele>
        <time>2022-07-17T13:40:18Z</time>
      </trkpt>
      <trkpt lat="44.89064" lon="6.64702">
        <ele>1315.4</ele>
        <time>2022-07-17T13:40:19Z</time>
      </trkpt>
      <trkpt lat="44.89061" lon="6.64704">
        <ele>1315.4</ele>
        <time>2022-07-17T13:40:20Z</time>
      </trkpt>
      <trkpt lat="44.89059" lon="6.64706">
        <ele>1315.6</ele>
        <time>2022-07-17T13:40:21Z</time>
      </trkpt>
      <trkpt lat="44.89057" lon="6.64708">
        <ele>1315.6</ele>
        <time>2022-07-17T13:40:22Z</time>
      </trkpt>
      <trkpt lat="44.89055" lon="6.64711">
        <ele>1315.6</ele>
        <time>2022-07-17T13:40:23Z</time>
      </trkpt>
      <trkpt lat="44.89053" lon="6.64714">
        <ele>1315.8</ele>
        <time>2022-07-17T13:40:24Z</time>
      </trkpt>
      <trkpt lat="44.89051" lon="6.64717">
        <ele>1315.8</ele>
        <time>2022-07-17T13:40:25Z</time>
      </trkpt>
      <trkpt lat="44.89049" lon="6.6472">
        <ele>1316</ele>
        <time>2022-07-17T13:40:26Z</time>
      </trkpt>
      <trkpt lat="44.89047" lon="6.64723">
        <ele>1316</ele>
        <time>2022-07-17T13:40:27Z</time>
      </trkpt>
      <trkpt lat="44.89046" lon="6.64727">
        <ele>1316.4</ele>
        <time>2022-07-17T13:40:28Z</time>
      </trkpt>
      <trkpt lat="44.89044" lon="6.6473">
        <ele>1316.6</ele>
        <time>2022-07-17T13:40:29Z</time>
      </trkpt>
      <trkpt lat="44.89042" lon="6.64733">
        <ele>1316.6</ele>
        <time>2022-07-17T13:40:30Z</time>
      </trkpt>
      <trkpt lat="44.89041" lon="6.64736">
        <ele>1317</ele>
        <time>2022-07-17T13:40:31Z</time>
      </trkpt>
      <trkpt lat="44.89039" lon="6.64739">
        <ele>1317.4</ele>
        <time>2022-07-17T13:40:32Z</time>
      </trkpt>
      <trkpt lat="44.89037" lon="6.64742">
        <ele>1317.4</ele>
        <time>2022-07-17T13:40:33Z</time>
      </trkpt>
      <trkpt lat="44.89035" lon="6.64745">
        <ele>1317.6</ele>
        <time>2022-07-17T13:40:34Z</time>
      </trkpt>
      <trkpt lat="44.89033" lon="6.64748">
        <ele>1317.8</ele>
        <time>2022-07-17T13:40:35Z</time>
      </trkpt>
      <trkpt lat="44.89031" lon="6.64751">
        <ele>1317.8</ele>
        <time>2022-07-17T13:40:36Z</time>
      </trkpt>
      <trkpt lat="44.8903" lon="6.64753">
        <ele>1318.2</ele>
        <time>2022-07-17T13:40:37Z</time>
      </trkpt>
      <trkpt lat="44.89028" lon="6.64756">
        <ele>1318.2</ele>
        <time>2022-07-17T13:40:38Z</time>
      </trkpt>
      <trkpt lat="44.89026" lon="6.64758">
        <ele>1318.4</ele>
        <time>2022-07-17T13:40:39Z</time>
      </trkpt>
      <trkpt lat="44.89024" lon="6.6476">
        <ele>1318.4</ele>
        <time>2022-07-17T13:40:40Z</time>
      </trkpt>
      <trkpt lat="44.89021" lon="6.64762">
        <ele>1318.4</ele>
        <time>2022-07-17T13:40:41Z</time>
      </trkpt>
      <trkpt lat="44.89019" lon="6.64764">
        <ele>1318.8</ele>
        <time>2022-07-17T13:40:42Z</time>
      </trkpt>
      <trkpt lat="44.89016" lon="6.64766">
        <ele>1318.8</ele>
        <time>2022-07-17T13:40:43Z</time>
      </trkpt>
      <trkpt lat="44.89014" lon="6.64768">
        <ele>1319</ele>
        <time>2022-07-17T13:40:44Z</time>
      </trkpt>
      <trkpt lat="44.89012" lon="6.64769">
        <ele>1319</ele>
        <time>2022-07-17T13:40:45Z</time>
      </trkpt>
      <trkpt lat="44.89009" lon="6.6477">
        <ele>1319.4</ele>
        <time>2022-07-17T13:40:46Z</time>
      </trkpt>
      <trkpt lat="44.89006" lon="6.64771">
        <ele>1319.4</ele>
        <time>2022-07-17T13:40:47Z</time>
      </trkpt>
      <trkpt lat="44.89004" lon="6.64772">
        <ele>1319.6</ele>
        <time>2022-07-17T13:40:48Z</time>
      </trkpt>
      <trkpt lat="44.89001" lon="6.64773">
        <ele>1319.6</ele>
        <time>2022-07-17T13:40:49Z</time>
      </trkpt>
      <trkpt lat="44.88998" lon="6.64773">
        <ele>1320</ele>
        <time>2022-07-17T13:40:50Z</time>
      </trkpt>
      <trkpt lat="44.88996" lon="6.64774">
        <ele>1320.2</ele>
        <time>2022-07-17T13:40:51Z</time>
      </trkpt>
      <trkpt lat="44.88993" lon="6.64774">
        <ele>1320.2</ele>
        <time>2022-07-17T13:40:52Z</time>
      </trkpt>
      <trkpt lat="44.8899" lon="6.64774">
        <ele>1320.4</ele>
        <time>2022-07-17T13:40:53Z</time>
      </trkpt>
      <trkpt lat="44.88988" lon="6.64774">
        <ele>1320.8</ele>
        <time>2022-07-17T13:40:54Z</time>
      </trkpt>
      <trkpt lat="44.88985" lon="6.64773">
        <ele>1320.8</ele>
        <time>2022-07-17T13:40:55Z</time>
      </trkpt>
      <trkpt lat="44.88982" lon="6.64773">
        <ele>1321</ele>
        <time>2022-07-17T13:40:56Z</time>
      </trkpt>
      <trkpt lat="44.8898" lon="6.64772">
        <ele>1321</ele>
        <time>2022-07-17T13:40:57Z</time>
      </trkpt>
      <trkpt lat="44.88977" lon="6.64771">
        <ele>1321.4</ele>
        <time>2022-07-17T13:40:58Z</time>
      </trkpt>
      <trkpt lat="44.88975" lon="6.64771">
        <ele>1321.6</ele>
        <time>2022-07-17T13:40:59Z</time>
      </trkpt>
      <trkpt lat="44.88972" lon="6.6477">
        <ele>1321.6</ele>
        <time>2022-07-17T13:41:00Z</time>
      </trkpt>
      <trkpt lat="44.8897" lon="6.6477">
        <ele>1322.2</ele>
        <time>2022-07-17T13:41:01Z</time>
      </trkpt>
      <trkpt lat="44.88967" lon="6.64769">
        <ele>1322.4</ele>
        <time>2022-07-17T13:41:02Z</time>
      </trkpt>
      <trkpt lat="44.88964" lon="6.64767">
        <ele>1322.6</ele>
        <time>2022-07-17T13:41:03Z</time>
      </trkpt>
      <trkpt lat="44.88962" lon="6.64766">
        <ele>1322.8</ele>
        <time>2022-07-17T13:41:04Z</time>
      </trkpt>
      <trkpt lat="44.88959" lon="6.64764">
        <ele>1323</ele>
        <time>2022-07-17T13:41:05Z</time>
      </trkpt>
      <trkpt lat="44.88956" lon="6.64763">
        <ele>1323.4</ele>
        <time>2022-07-17T13:41:06Z</time>
      </trkpt>
      <trkpt lat="44.88954" lon="6.64762">
        <ele>1323.6</ele>
        <time>2022-07-17T13:41:07Z</time>
      </trkpt>
      <trkpt lat="44.88952" lon="6.64761">
        <ele>1323.6</ele>
        <time>2022-07-17T13:41:08Z</time>
      </trkpt>
      <trkpt lat="44.88949" lon="6.64759">
        <ele>1323.8</ele>
        <time>2022-07-17T13:41:09Z</time>
      </trkpt>
      <trkpt lat="44.88947" lon="6.64758">
        <ele>1323.8</ele>
        <time>2022-07-17T13:41:10Z</time>
      </trkpt>
      <trkpt lat="44.88944" lon="6.64758">
        <ele>1324</ele>
        <time>2022-07-17T13:41:11Z</time>
      </trkpt>
      <trkpt lat="44.88941" lon="6.64757">
        <ele>1324</ele>
        <time>2022-07-17T13:41:12Z</time>
      </trkpt>
      <trkpt lat="44.88939" lon="6.64757">
        <ele>1324.4</ele>
        <time>2022-07-17T13:41:13Z</time>
      </trkpt>
      <trkpt lat="44.88936" lon="6.64756">
        <ele>1324.6</ele>
        <time>2022-07-17T13:41:14Z</time>
      </trkpt>
      <trkpt lat="44.88933" lon="6.64756">
        <ele>1325</ele>
        <time>2022-07-17T13:41:15Z</time>
      </trkpt>
      <trkpt lat="44.88931" lon="6.64756">
        <ele>1325.2</ele>
        <time>2022-07-17T13:41:16Z</time>
      </trkpt>
      <trkpt lat="44.88928" lon="6.64756">
        <ele>1325.4</ele>
        <time>2022-07-17T13:41:17Z</time>
      </trkpt>
      <trkpt lat="44.88926" lon="6.64756">
        <ele>1325.4</ele>
        <time>2022-07-17T13:41:18Z</time>
      </trkpt>
      <trkpt lat="44.88923" lon="6.64757">
        <ele>1325.6</ele>
        <time>2022-07-17T13:41:19Z</time>
      </trkpt>
      <trkpt lat="44.8892" lon="6.64757">
        <ele>1325.6</ele>
        <time>2022-07-17T13:41:20Z</time>
      </trkpt>
      <trkpt lat="44.88918" lon="6.64758">
        <ele>1326</ele>
        <time>2022-07-17T13:41:21Z</time>
      </trkpt>
      <trkpt lat="44.88915" lon="6.64759">
        <ele>1326</ele>
        <time>2022-07-17T13:41:22Z</time>
      </trkpt>
      <trkpt lat="44.88912" lon="6.64761">
        <ele>1326.2</ele>
        <time>2022-07-17T13:41:23Z</time>
      </trkpt>
      <trkpt lat="44.88909" lon="6.64762">
        <ele>1326.2</ele>
        <time>2022-07-17T13:41:24Z</time>
      </trkpt>
      <trkpt lat="44.88906" lon="6.64763">
        <ele>1326.6</ele>
        <time>2022-07-17T13:41:25Z</time>
      </trkpt>
      <trkpt lat="44.88903" lon="6.64763">
        <ele>1326.6</ele>
        <time>2022-07-17T13:41:26Z</time>
      </trkpt>
      <trkpt lat="44.889" lon="6.64764">
        <ele>1326.8</ele>
        <time>2022-07-17T13:41:27Z</time>
      </trkpt>
      <trkpt lat="44.88898" lon="6.64765">
        <ele>1326.8</ele>
        <time>2022-07-17T13:41:28Z</time>
      </trkpt>
      <trkpt lat="44.88895" lon="6.64766">
        <ele>1327</ele>
        <time>2022-07-17T13:41:29Z</time>
      </trkpt>
      <trkpt lat="44.88892" lon="6.64767">
        <ele>1327</ele>
        <time>2022-07-17T13:41:30Z</time>
      </trkpt>
      <trkpt lat="44.88889" lon="6.64768">
        <ele>1327.4</ele>
        <time>2022-07-17T13:41:31Z</time>
      </trkpt>
      <trkpt lat="44.88887" lon="6.64769">
        <ele>1327.4</ele>
        <time>2022-07-17T13:41:32Z</time>
      </trkpt>
      <trkpt lat="44.88884" lon="6.6477">
        <ele>1327.6</ele>
        <time>2022-07-17T13:41:33Z</time>
      </trkpt>
      <trkpt lat="44.88881" lon="6.64771">
        <ele>1328</ele>
        <time>2022-07-17T13:41:34Z</time>
      </trkpt>
      <trkpt lat="44.88878" lon="6.64771">
        <ele>1328</ele>
        <time>2022-07-17T13:41:35Z</time>
      </trkpt>
      <trkpt lat="44.88875" lon="6.64772">
        <ele>1328.2</ele>
        <time>2022-07-17T13:41:36Z</time>
      </trkpt>
      <trkpt lat="44.88873" lon="6.64773">
        <ele>1328.4</ele>
        <time>2022-07-17T13:41:37Z</time>
      </trkpt>
      <trkpt lat="44.8887" lon="6.64773">
        <ele>1328.4</ele>
        <time>2022-07-17T13:41:38Z</time>
      </trkpt>
      <trkpt lat="44.88867" lon="6.64774">
        <ele>1328.8</ele>
        <time>2022-07-17T13:41:39Z</time>
      </trkpt>
      <trkpt lat="44.88864" lon="6.64775">
        <ele>1328.8</ele>
        <time>2022-07-17T13:41:40Z</time>
      </trkpt>
      <trkpt lat="44.88861" lon="6.64775">
        <ele>1329</ele>
        <time>2022-07-17T13:41:41Z</time>
      </trkpt>
      <trkpt lat="44.88859" lon="6.64775">
        <ele>1329</ele>
        <time>2022-07-17T13:41:42Z</time>
      </trkpt>
      <trkpt lat="44.88856" lon="6.64775">
        <ele>1329.4</ele>
        <time>2022-07-17T13:41:43Z</time>
      </trkpt>
      <trkpt lat="44.88853" lon="6.64775">
        <ele>1329.6</ele>
        <time>2022-07-17T13:41:44Z</time>
      </trkpt>
      <trkpt lat="44.88851" lon="6.64775">
        <ele>1329.6</ele>
        <time>2022-07-17T13:41:45Z</time>
      </trkpt>
      <trkpt lat="44.88848" lon="6.64775">
        <ele>1330</ele>
        <time>2022-07-17T13:41:46Z</time>
      </trkpt>
      <trkpt lat="44.88846" lon="6.64776">
        <ele>1330</ele>
        <time>2022-07-17T13:41:47Z</time>
      </trkpt>
      <trkpt lat="44.88843" lon="6.64775">
        <ele>1330.2</ele>
        <time>2022-07-17T13:41:48Z</time>
      </trkpt>
      <trkpt lat="44.88841" lon="6.64775">
        <ele>1330.2</ele>
        <time>2022-07-17T13:41:49Z</time>
      </trkpt>
      <trkpt lat="44.88838" lon="6.64775">
        <ele>1330.4</ele>
        <time>2022-07-17T13:41:50Z</time>
      </trkpt>
      <trkpt lat="44.88836" lon="6.64775">
        <ele>1330.4</ele>
        <time>2022-07-17T13:41:51Z</time>
      </trkpt>
      <trkpt lat="44.88833" lon="6.64775">
        <ele>1330.8</ele>
        <time>2022-07-17T13:41:52Z</time>
      </trkpt>
      <trkpt lat="44.8883" lon="6.64775">
        <ele>1330.8</ele>
        <time>2022-07-17T13:41:53Z</time>
      </trkpt>
      <trkpt lat="44.88828" lon="6.64775">
        <ele>1331.2</ele>
        <time>2022-07-17T13:41:54Z</time>
      </trkpt>
      <trkpt lat="44.88825" lon="6.64775">
        <ele>1331.4</ele>
        <time>2022-07-17T13:41:55Z</time>
      </trkpt>
      <trkpt lat="44.88823" lon="6.64775">
        <ele>1331.4</ele>
        <time>2022-07-17T13:41:56Z</time>
      </trkpt>
      <trkpt lat="44.8882" lon="6.64776">
        <ele>1331.6</ele>
        <time>2022-07-17T13:41:57Z</time>
      </trkpt>
      <trkpt lat="44.88817" lon="6.64776">
        <ele>1331.6</ele>
        <time>2022-07-17T13:41:58Z</time>
      </trkpt>
      <trkpt lat="44.88815" lon="6.64776">
        <ele>1331.6</ele>
        <time>2022-07-17T13:41:59Z</time>
      </trkpt>
      <trkpt lat="44.88812" lon="6.64776">
        <ele>1331.8</ele>
        <time>2022-07-17T13:42:00Z</time>
      </trkpt>
      <trkpt lat="44.88809" lon="6.64776">
        <ele>1331.8</ele>
        <time>2022-07-17T13:42:01Z</time>
      </trkpt>
      <trkpt lat="44.88807" lon="6.64776">
        <ele>1332.2</ele>
        <time>2022-07-17T13:42:02Z</time>
      </trkpt>
      <trkpt lat="44.88804" lon="6.64776">
        <ele>1332.2</ele>
        <time>2022-07-17T13:42:03Z</time>
      </trkpt>
      <trkpt lat="44.88801" lon="6.64777">
        <ele>1332.6</ele>
        <time>2022-07-17T13:42:04Z</time>
      </trkpt>
      <trkpt lat="44.88799" lon="6.64777">
        <ele>1332.6</ele>
        <time>2022-07-17T13:42:05Z</time>
      </trkpt>
      <trkpt lat="44.88796" lon="6.64777">
        <ele>1332.8</ele>
        <time>2022-07-17T13:42:06Z</time>
      </trkpt>
      <trkpt lat="44.88793" lon="6.64778">
        <ele>1332.8</ele>
        <time>2022-07-17T13:42:07Z</time>
      </trkpt>
      <trkpt lat="44.88791" lon="6.64778">
        <ele>1333.2</ele>
        <time>2022-07-17T13:42:08Z</time>
      </trkpt>
      <trkpt lat="44.88788" lon="6.64779">
        <ele>1333.2</ele>
        <time>2022-07-17T13:42:09Z</time>
      </trkpt>
      <trkpt lat="44.88785" lon="6.64779">
        <ele>1333.6</ele>
        <time>2022-07-17T13:42:10Z</time>
      </trkpt>
      <trkpt lat="44.88783" lon="6.6478">
        <ele>1334</ele>
        <time>2022-07-17T13:42:11Z</time>
      </trkpt>
      <trkpt lat="44.8878" lon="6.64781">
        <ele>1334</ele>
        <time>2022-07-17T13:42:12Z</time>
      </trkpt>
      <trkpt lat="44.88777" lon="6.64781">
        <ele>1334.4</ele>
        <time>2022-07-17T13:42:13Z</time>
      </trkpt>
      <trkpt lat="44.88774" lon="6.64781">
        <ele>1334.4</ele>
        <time>2022-07-17T13:42:14Z</time>
      </trkpt>
      <trkpt lat="44.88771" lon="6.64782">
        <ele>1334.6</ele>
        <time>2022-07-17T13:42:15Z</time>
      </trkpt>
      <trkpt lat="44.88769" lon="6.64783">
        <ele>1335</ele>
        <time>2022-07-17T13:42:16Z</time>
      </trkpt>
      <trkpt lat="44.88766" lon="6.64783">
        <ele>1335</ele>
        <time>2022-07-17T13:42:17Z</time>
      </trkpt>
      <trkpt lat="44.88763" lon="6.64784">
        <ele>1335.2</ele>
        <time>2022-07-17T13:42:18Z</time>
      </trkpt>
      <trkpt lat="44.8876" lon="6.64784">
        <ele>1335.2</ele>
        <time>2022-07-17T13:42:19Z</time>
      </trkpt>
      <trkpt lat="44.88757" lon="6.64785">
        <ele>1335.6</ele>
        <time>2022-07-17T13:42:20Z</time>
      </trkpt>
      <trkpt lat="44.88754" lon="6.64786">
        <ele>1336</ele>
        <time>2022-07-17T13:42:21Z</time>
      </trkpt>
      <trkpt lat="44.88752" lon="6.64786">
        <ele>1336.2</ele>
        <time>2022-07-17T13:42:22Z</time>
      </trkpt>
      <trkpt lat="44.88749" lon="6.64787">
        <ele>1336.4</ele>
        <time>2022-07-17T13:42:23Z</time>
      </trkpt>
      <trkpt lat="44.88746" lon="6.64787">
        <ele>1336.4</ele>
        <time>2022-07-17T13:42:24Z</time>
      </trkpt>
      <trkpt lat="44.88743" lon="6.64788">
        <ele>1336.8</ele>
        <time>2022-07-17T13:42:25Z</time>
      </trkpt>
      <trkpt lat="44.88741" lon="6.64789">
        <ele>1337</ele>
        <time>2022-07-17T13:42:26Z</time>
      </trkpt>
      <trkpt lat="44.88738" lon="6.64789">
        <ele>1337.2</ele>
        <time>2022-07-17T13:42:27Z</time>
      </trkpt>
      <trkpt lat="44.88735" lon="6.6479">
        <ele>1337.2</ele>
        <time>2022-07-17T13:42:28Z</time>
      </trkpt>
      <trkpt lat="44.88733" lon="6.64791">
        <ele>1337.6</ele>
        <time>2022-07-17T13:42:29Z</time>
      </trkpt>
      <trkpt lat="44.8873" lon="6.64792">
        <ele>1337.8</ele>
        <time>2022-07-17T13:42:30Z</time>
      </trkpt>
      <trkpt lat="44.88727" lon="6.64793">
        <ele>1337.8</ele>
        <time>2022-07-17T13:42:31Z</time>
      </trkpt>
      <trkpt lat="44.88725" lon="6.64794">
        <ele>1338.2</ele>
        <time>2022-07-17T13:42:32Z</time>
      </trkpt>
      <trkpt lat="44.88722" lon="6.64795">
        <ele>1338.2</ele>
        <time>2022-07-17T13:42:33Z</time>
      </trkpt>
      <trkpt lat="44.8872" lon="6.64796">
        <ele>1338.6</ele>
        <time>2022-07-17T13:42:34Z</time>
      </trkpt>
      <trkpt lat="44.88717" lon="6.64797">
        <ele>1338.8</ele>
        <time>2022-07-17T13:42:35Z</time>
      </trkpt>
      <trkpt lat="44.88715" lon="6.64798">
        <ele>1339.2</ele>
        <time>2022-07-17T13:42:36Z</time>
      </trkpt>
      <trkpt lat="44.88712" lon="6.64799">
        <ele>1339.4</ele>
        <time>2022-07-17T13:42:37Z</time>
      </trkpt>
      <trkpt lat="44.8871" lon="6.64801">
        <ele>1339.6</ele>
        <time>2022-07-17T13:42:38Z</time>
      </trkpt>
      <trkpt lat="44.88707" lon="6.64802">
        <ele>1339.8</ele>
        <time>2022-07-17T13:42:39Z</time>
      </trkpt>
      <trkpt lat="44.88704" lon="6.64803">
        <ele>1340</ele>
        <time>2022-07-17T13:42:40Z</time>
      </trkpt>
      <trkpt lat="44.88702" lon="6.64805">
        <ele>1340.2</ele>
        <time>2022-07-17T13:42:41Z</time>
      </trkpt>
      <trkpt lat="44.88699" lon="6.64806">
        <ele>1340.4</ele>
        <time>2022-07-17T13:42:42Z</time>
      </trkpt>
      <trkpt lat="44.88697" lon="6.64807">
        <ele>1340.8</ele>
        <time>2022-07-17T13:42:43Z</time>
      </trkpt>
      <trkpt lat="44.88694" lon="6.64809">
        <ele>1341</ele>
        <time>2022-07-17T13:42:44Z</time>
      </trkpt>
      <trkpt lat="44.88692" lon="6.6481">
        <ele>1341.2</ele>
        <time>2022-07-17T13:42:45Z</time>
      </trkpt>
      <trkpt lat="44.8869" lon="6.64811">
        <ele>1341.4</ele>
        <time>2022-07-17T13:42:46Z</time>
      </trkpt>
      <trkpt lat="44.88687" lon="6.64812">
        <ele>1341.6</ele>
        <time>2022-07-17T13:42:47Z</time>
      </trkpt>
      <trkpt lat="44.88685" lon="6.64813">
        <ele>1342</ele>
        <time>2022-07-17T13:42:48Z</time>
      </trkpt>
      <trkpt lat="44.88683" lon="6.64815">
        <ele>1342.2</ele>
        <time>2022-07-17T13:42:49Z</time>
      </trkpt>
      <trkpt lat="44.8868" lon="6.64816">
        <ele>1342.6</ele>
        <time>2022-07-17T13:42:50Z</time>
      </trkpt>
      <trkpt lat="44.88678" lon="6.64817">
        <ele>1342.8</ele>
        <time>2022-07-17T13:42:51Z</time>
      </trkpt>
      <trkpt lat="44.88676" lon="6.64818">
        <ele>1343</ele>
        <time>2022-07-17T13:42:52Z</time>
      </trkpt>
      <trkpt lat="44.88674" lon="6.64819">
        <ele>1343.2</ele>
        <time>2022-07-17T13:42:53Z</time>
      </trkpt>
      <trkpt lat="44.88672" lon="6.6482">
        <ele>1343.4</ele>
        <time>2022-07-17T13:42:54Z</time>
      </trkpt>
      <trkpt lat="44.8867" lon="6.64822">
        <ele>1343.4</ele>
        <time>2022-07-17T13:42:55Z</time>
      </trkpt>
      <trkpt lat="44.88668" lon="6.64823">
        <ele>1343.8</ele>
        <time>2022-07-17T13:42:56Z</time>
      </trkpt>
      <trkpt lat="44.88666" lon="6.64824">
        <ele>1343.8</ele>
        <time>2022-07-17T13:42:57Z</time>
      </trkpt>
      <trkpt lat="44.88664" lon="6.64827">
        <ele>1344.2</ele>
        <time>2022-07-17T13:42:58Z</time>
      </trkpt>
      <trkpt lat="44.88662" lon="6.64829">
        <ele>1344.4</ele>
        <time>2022-07-17T13:42:59Z</time>
      </trkpt>
      <trkpt lat="44.88661" lon="6.64831">
        <ele>1344.4</ele>
        <time>2022-07-17T13:43:00Z</time>
      </trkpt>
      <trkpt lat="44.88659" lon="6.64834">
        <ele>1344.6</ele>
        <time>2022-07-17T13:43:01Z</time>
      </trkpt>
      <trkpt lat="44.88658" lon="6.64837">
        <ele>1344.6</ele>
        <time>2022-07-17T13:43:02Z</time>
      </trkpt>
      <trkpt lat="44.88656" lon="6.6484">
        <ele>1344.8</ele>
        <time>2022-07-17T13:43:03Z</time>
      </trkpt>
      <trkpt lat="44.88655" lon="6.64844">
        <ele>1344.8</ele>
        <time>2022-07-17T13:43:04Z</time>
      </trkpt>
      <trkpt lat="44.88654" lon="6.64847">
        <ele>1344.8</ele>
        <time>2022-07-17T13:43:05Z</time>
      </trkpt>
      <trkpt lat="44.88653" lon="6.64851">
        <ele>1345.2</ele>
        <time>2022-07-17T13:43:06Z</time>
      </trkpt>
      <trkpt lat="44.88653" lon="6.64856">
        <ele>1345.2</ele>
        <time>2022-07-17T13:43:07Z</time>
      </trkpt>
      <trkpt lat="44.88653" lon="6.6486">
        <ele>1345.4</ele>
        <time>2022-07-17T13:43:08Z</time>
      </trkpt>
      <trkpt lat="44.88653" lon="6.64868">
        <ele>1345.4</ele>
        <time>2022-07-17T13:43:09Z</time>
      </trkpt>
      <trkpt lat="44.88653" lon="6.64872">
        <ele>1345.8</ele>
        <time>2022-07-17T13:43:10Z</time>
      </trkpt>
      <trkpt lat="44.88654" lon="6.64875">
        <ele>1345.8</ele>
        <time>2022-07-17T13:43:11Z</time>
      </trkpt>
      <trkpt lat="44.88654" lon="6.64879">
        <ele>1346</ele>
        <time>2022-07-17T13:43:12Z</time>
      </trkpt>
      <trkpt lat="44.88654" lon="6.64883">
        <ele>1346</ele>
        <time>2022-07-17T13:43:13Z</time>
      </trkpt>
      <trkpt lat="44.88655" lon="6.64886">
        <ele>1346.2</ele>
        <time>2022-07-17T13:43:14Z</time>
      </trkpt>
      <trkpt lat="44.88655" lon="6.6489">
        <ele>1346.4</ele>
        <time>2022-07-17T13:43:15Z</time>
      </trkpt>
      <trkpt lat="44.88655" lon="6.64893">
        <ele>1346.8</ele>
        <time>2022-07-17T13:43:16Z</time>
      </trkpt>
      <trkpt lat="44.88656" lon="6.64896">
        <ele>1347</ele>
        <time>2022-07-17T13:43:17Z</time>
      </trkpt>
      <trkpt lat="44.88656" lon="6.64899">
        <ele>1347.2</ele>
        <time>2022-07-17T13:43:18Z</time>
      </trkpt>
      <trkpt lat="44.88656" lon="6.64902">
        <ele>1347.4</ele>
        <time>2022-07-17T13:43:19Z</time>
      </trkpt>
      <trkpt lat="44.88657" lon="6.64905">
        <ele>1347.6</ele>
        <time>2022-07-17T13:43:20Z</time>
      </trkpt>
      <trkpt lat="44.88658" lon="6.64909">
        <ele>1347.6</ele>
        <time>2022-07-17T13:43:21Z</time>
      </trkpt>
      <trkpt lat="44.88658" lon="6.64912">
        <ele>1348</ele>
        <time>2022-07-17T13:43:22Z</time>
      </trkpt>
      <trkpt lat="44.88658" lon="6.64915">
        <ele>1348.2</ele>
        <time>2022-07-17T13:43:23Z</time>
      </trkpt>
      <trkpt lat="44.88658" lon="6.64919">
        <ele>1348.2</ele>
        <time>2022-07-17T13:43:24Z</time>
      </trkpt>
      <trkpt lat="44.88659" lon="6.64922">
        <ele>1348.4</ele>
        <time>2022-07-17T13:43:25Z</time>
      </trkpt>
      <trkpt lat="44.88658" lon="6.64926">
        <ele>1348.6</ele>
        <time>2022-07-17T13:43:26Z</time>
      </trkpt>
      <trkpt lat="44.88658" lon="6.64929">
        <ele>1348.6</ele>
        <time>2022-07-17T13:43:27Z</time>
      </trkpt>
      <trkpt lat="44.88657" lon="6.64932">
        <ele>1349.2</ele>
        <time>2022-07-17T13:43:28Z</time>
      </trkpt>
      <trkpt lat="44.88656" lon="6.64935">
        <ele>1349.4</ele>
        <time>2022-07-17T13:43:29Z</time>
      </trkpt>
      <trkpt lat="44.88655" lon="6.64938">
        <ele>1349.6</ele>
        <time>2022-07-17T13:43:30Z</time>
      </trkpt>
      <trkpt lat="44.88654" lon="6.64941">
        <ele>1349.8</ele>
        <time>2022-07-17T13:43:31Z</time>
      </trkpt>
      <trkpt lat="44.88653" lon="6.64944">
        <ele>1350.2</ele>
        <time>2022-07-17T13:43:32Z</time>
      </trkpt>
      <trkpt lat="44.88652" lon="6.64946">
        <ele>1350.4</ele>
        <time>2022-07-17T13:43:33Z</time>
      </trkpt>
      <trkpt lat="44.8865" lon="6.64949">
        <ele>1350.6</ele>
        <time>2022-07-17T13:43:34Z</time>
      </trkpt>
      <trkpt lat="44.88648" lon="6.64951">
        <ele>1350.6</ele>
        <time>2022-07-17T13:43:35Z</time>
      </trkpt>
      <trkpt lat="44.88647" lon="6.64953">
        <ele>1351</ele>
        <time>2022-07-17T13:43:36Z</time>
      </trkpt>
      <trkpt lat="44.88645" lon="6.64955">
        <ele>1351</ele>
        <time>2022-07-17T13:43:37Z</time>
      </trkpt>
      <trkpt lat="44.88643" lon="6.64957">
        <ele>1351.4</ele>
        <time>2022-07-17T13:43:38Z</time>
      </trkpt>
      <trkpt lat="44.88641" lon="6.64959">
        <ele>1351.4</ele>
        <time>2022-07-17T13:43:39Z</time>
      </trkpt>
      <trkpt lat="44.88639" lon="6.64962">
        <ele>1351.4</ele>
        <time>2022-07-17T13:43:40Z</time>
      </trkpt>
      <trkpt lat="44.88637" lon="6.64964">
        <ele>1351.6</ele>
        <time>2022-07-17T13:43:41Z</time>
      </trkpt>
      <trkpt lat="44.88635" lon="6.64966">
        <ele>1351.6</ele>
        <time>2022-07-17T13:43:42Z</time>
      </trkpt>
      <trkpt lat="44.88633" lon="6.64968">
        <ele>1352</ele>
        <time>2022-07-17T13:43:43Z</time>
      </trkpt>
      <trkpt lat="44.88631" lon="6.6497">
        <ele>1352</ele>
        <time>2022-07-17T13:43:44Z</time>
      </trkpt>
      <trkpt lat="44.88628" lon="6.64972">
        <ele>1352.4</ele>
        <time>2022-07-17T13:43:45Z</time>
      </trkpt>
      <trkpt lat="44.88626" lon="6.64974">
        <ele>1352.4</ele>
        <time>2022-07-17T13:43:46Z</time>
      </trkpt>
      <trkpt lat="44.88624" lon="6.64976">
        <ele>1352.8</ele>
        <time>2022-07-17T13:43:47Z</time>
      </trkpt>
      <trkpt lat="44.88622" lon="6.64978">
        <ele>1352.8</ele>
        <time>2022-07-17T13:43:48Z</time>
      </trkpt>
      <trkpt lat="44.88621" lon="6.6498">
        <ele>1353.2</ele>
        <time>2022-07-17T13:43:49Z</time>
      </trkpt>
      <trkpt lat="44.88619" lon="6.64982">
        <ele>1353.4</ele>
        <time>2022-07-17T13:43:50Z</time>
      </trkpt>
      <trkpt lat="44.88617" lon="6.64983">
        <ele>1353.4</ele>
        <time>2022-07-17T13:43:51Z</time>
      </trkpt>
      <trkpt lat="44.88615" lon="6.64985">
        <ele>1353.8</ele>
        <time>2022-07-17T13:43:52Z</time>
      </trkpt>
      <trkpt lat="44.88613" lon="6.64987">
        <ele>1354</ele>
        <time>2022-07-17T13:43:53Z</time>
      </trkpt>
      <trkpt lat="44.88612" lon="6.6499">
        <ele>1354.2</ele>
        <time>2022-07-17T13:43:54Z</time>
      </trkpt>
      <trkpt lat="44.8861" lon="6.64992">
        <ele>1354.6</ele>
        <time>2022-07-17T13:43:55Z</time>
      </trkpt>
      <trkpt lat="44.88609" lon="6.64994">
        <ele>1354.8</ele>
        <time>2022-07-17T13:43:56Z</time>
      </trkpt>
      <trkpt lat="44.88607" lon="6.64997">
        <ele>1355</ele>
        <time>2022-07-17T13:43:57Z</time>
      </trkpt>
      <trkpt lat="44.88606" lon="6.65">
        <ele>1355.2</ele>
        <time>2022-07-17T13:43:58Z</time>
      </trkpt>
      <trkpt lat="44.88604" lon="6.65002">
        <ele>1355.4</ele>
        <time>2022-07-17T13:43:59Z</time>
      </trkpt>
      <trkpt lat="44.88603" lon="6.65005">
        <ele>1355.4</ele>
        <time>2022-07-17T13:44:00Z</time>
      </trkpt>
      <trkpt lat="44.88602" lon="6.65008">
        <ele>1355.8</ele>
        <time>2022-07-17T13:44:01Z</time>
      </trkpt>
      <trkpt lat="44.88601" lon="6.65011">
        <ele>1355.8</ele>
        <time>2022-07-17T13:44:02Z</time>
      </trkpt>
      <trkpt lat="44.886" lon="6.65014">
        <ele>1356.2</ele>
        <time>2022-07-17T13:44:03Z</time>
      </trkpt>
      <trkpt lat="44.88599" lon="6.65017">
        <ele>1356.2</ele>
        <time>2022-07-17T13:44:04Z</time>
      </trkpt>
      <trkpt lat="44.88598" lon="6.65021">
        <ele>1356.4</ele>
        <time>2022-07-17T13:44:05Z</time>
      </trkpt>
      <trkpt lat="44.88597" lon="6.65024">
        <ele>1356.4</ele>
        <time>2022-07-17T13:44:06Z</time>
      </trkpt>
      <trkpt lat="44.88596" lon="6.65027">
        <ele>1356.4</ele>
        <time>2022-07-17T13:44:07Z</time>
      </trkpt>
      <trkpt lat="44.88595" lon="6.6503">
        <ele>1356.8</ele>
        <time>2022-07-17T13:44:08Z</time>
      </trkpt>
      <trkpt lat="44.88594" lon="6.65033">
        <ele>1356.8</ele>
        <time>2022-07-17T13:44:09Z</time>
      </trkpt>
      <trkpt lat="44.88593" lon="6.65036">
        <ele>1357.2</ele>
        <time>2022-07-17T13:44:10Z</time>
      </trkpt>
      <trkpt lat="44.88592" lon="6.65039">
        <ele>1357.2</ele>
        <time>2022-07-17T13:44:11Z</time>
      </trkpt>
      <trkpt lat="44.88591" lon="6.65042">
        <ele>1357.4</ele>
        <time>2022-07-17T13:44:12Z</time>
      </trkpt>
      <trkpt lat="44.8859" lon="6.65046">
        <ele>1357.4</ele>
        <time>2022-07-17T13:44:13Z</time>
      </trkpt>
      <trkpt lat="44.88589" lon="6.65049">
        <ele>1357.8</ele>
        <time>2022-07-17T13:44:14Z</time>
      </trkpt>
      <trkpt lat="44.88588" lon="6.65053">
        <ele>1358</ele>
        <time>2022-07-17T13:44:15Z</time>
      </trkpt>
      <trkpt lat="44.88587" lon="6.65056">
        <ele>1358</ele>
        <time>2022-07-17T13:44:16Z</time>
      </trkpt>
      <trkpt lat="44.88587" lon="6.6506">
        <ele>1358.2</ele>
        <time>2022-07-17T13:44:17Z</time>
      </trkpt>
      <trkpt lat="44.88586" lon="6.65063">
        <ele>1358.2</ele>
        <time>2022-07-17T13:44:18Z</time>
      </trkpt>
      <trkpt lat="44.88585" lon="6.65066">
        <ele>1358.6</ele>
        <time>2022-07-17T13:44:19Z</time>
      </trkpt>
      <trkpt lat="44.88584" lon="6.6507">
        <ele>1358.8</ele>
        <time>2022-07-17T13:44:20Z</time>
      </trkpt>
      <trkpt lat="44.88583" lon="6.65073">
        <ele>1358.8</ele>
        <time>2022-07-17T13:44:21Z</time>
      </trkpt>
      <trkpt lat="44.88582" lon="6.65076">
        <ele>1359.2</ele>
        <time>2022-07-17T13:44:22Z</time>
      </trkpt>
      <trkpt lat="44.88581" lon="6.65079">
        <ele>1359.4</ele>
        <time>2022-07-17T13:44:23Z</time>
      </trkpt>
      <trkpt lat="44.8858" lon="6.65082">
        <ele>1359.6</ele>
        <time>2022-07-17T13:44:24Z</time>
      </trkpt>
      <trkpt lat="44.88578" lon="6.65085">
        <ele>1359.6</ele>
        <time>2022-07-17T13:44:25Z</time>
      </trkpt>
      <trkpt lat="44.88576" lon="6.65087">
        <ele>1360</ele>
        <time>2022-07-17T13:44:26Z</time>
      </trkpt>
      <trkpt lat="44.88575" lon="6.65089">
        <ele>1360.2</ele>
        <time>2022-07-17T13:44:27Z</time>
      </trkpt>
      <trkpt lat="44.88573" lon="6.65091">
        <ele>1360.2</ele>
        <time>2022-07-17T13:44:28Z</time>
      </trkpt>
      <trkpt lat="44.8857" lon="6.65093">
        <ele>1360.4</ele>
        <time>2022-07-17T13:44:29Z</time>
      </trkpt>
      <trkpt lat="44.88568" lon="6.65095">
        <ele>1360.4</ele>
        <time>2022-07-17T13:44:30Z</time>
      </trkpt>
      <trkpt lat="44.88566" lon="6.65097">
        <ele>1360.8</ele>
        <time>2022-07-17T13:44:31Z</time>
      </trkpt>
      <trkpt lat="44.88564" lon="6.65099">
        <ele>1360.8</ele>
        <time>2022-07-17T13:44:32Z</time>
      </trkpt>
      <trkpt lat="44.88562" lon="6.65101">
        <ele>1361</ele>
        <time>2022-07-17T13:44:33Z</time>
      </trkpt>
      <trkpt lat="44.8856" lon="6.65103">
        <ele>1361</ele>
        <time>2022-07-17T13:44:34Z</time>
      </trkpt>
      <trkpt lat="44.88559" lon="6.65105">
        <ele>1361.2</ele>
        <time>2022-07-17T13:44:35Z</time>
      </trkpt>
      <trkpt lat="44.88557" lon="6.65106">
        <ele>1361.2</ele>
        <time>2022-07-17T13:44:36Z</time>
      </trkpt>
      <trkpt lat="44.88555" lon="6.65108">
        <ele>1361.6</ele>
        <time>2022-07-17T13:44:37Z</time>
      </trkpt>
      <trkpt lat="44.88554" lon="6.6511">
        <ele>1361.6</ele>
        <time>2022-07-17T13:44:38Z</time>
      </trkpt>
      <trkpt lat="44.88552" lon="6.65113">
        <ele>1361.8</ele>
        <time>2022-07-17T13:44:39Z</time>
      </trkpt>
      <trkpt lat="44.8855" lon="6.65115">
        <ele>1361.8</ele>
        <time>2022-07-17T13:44:40Z</time>
      </trkpt>
      <trkpt lat="44.88549" lon="6.65118">
        <ele>1362.2</ele>
        <time>2022-07-17T13:44:41Z</time>
      </trkpt>
      <trkpt lat="44.88547" lon="6.6512">
        <ele>1362.4</ele>
        <time>2022-07-17T13:44:42Z</time>
      </trkpt>
      <trkpt lat="44.88545" lon="6.65123">
        <ele>1362.4</ele>
        <time>2022-07-17T13:44:43Z</time>
      </trkpt>
      <trkpt lat="44.88543" lon="6.65125">
        <ele>1362.8</ele>
        <time>2022-07-17T13:44:44Z</time>
      </trkpt>
      <trkpt lat="44.88542" lon="6.65128">
        <ele>1363</ele>
        <time>2022-07-17T13:44:45Z</time>
      </trkpt>
      <trkpt lat="44.8854" lon="6.65131">
        <ele>1363.2</ele>
        <time>2022-07-17T13:44:46Z</time>
      </trkpt>
      <trkpt lat="44.88539" lon="6.65134">
        <ele>1363.4</ele>
        <time>2022-07-17T13:44:47Z</time>
      </trkpt>
      <trkpt lat="44.88538" lon="6.65137">
        <ele>1363.4</ele>
        <time>2022-07-17T13:44:48Z</time>
      </trkpt>
      <trkpt lat="44.88536" lon="6.6514">
        <ele>1363.8</ele>
        <time>2022-07-17T13:44:49Z</time>
      </trkpt>
      <trkpt lat="44.88535" lon="6.65142">
        <ele>1364</ele>
        <time>2022-07-17T13:44:50Z</time>
      </trkpt>
      <trkpt lat="44.88534" lon="6.65145">
        <ele>1364</ele>
        <time>2022-07-17T13:44:51Z</time>
      </trkpt>
      <trkpt lat="44.88533" lon="6.65148">
        <ele>1364.2</ele>
        <time>2022-07-17T13:44:52Z</time>
      </trkpt>
      <trkpt lat="44.88532" lon="6.6515">
        <ele>1364.2</ele>
        <time>2022-07-17T13:44:53Z</time>
      </trkpt>
      <trkpt lat="44.88531" lon="6.65153">
        <ele>1364.6</ele>
        <time>2022-07-17T13:44:54Z</time>
      </trkpt>
      <trkpt lat="44.88531" lon="6.65156">
        <ele>1364.6</ele>
        <time>2022-07-17T13:44:55Z</time>
      </trkpt>
      <trkpt lat="44.8853" lon="6.65158">
        <ele>1364.8</ele>
        <time>2022-07-17T13:44:56Z</time>
      </trkpt>
      <trkpt lat="44.88529" lon="6.65161">
        <ele>1364.8</ele>
        <time>2022-07-17T13:44:57Z</time>
      </trkpt>
      <trkpt lat="44.88529" lon="6.65164">
        <ele>1365.2</ele>
        <time>2022-07-17T13:44:58Z</time>
      </trkpt>
      <trkpt lat="44.88528" lon="6.65167">
        <ele>1365.2</ele>
        <time>2022-07-17T13:44:59Z</time>
      </trkpt>
      <trkpt lat="44.88527" lon="6.65169">
        <ele>1365.6</ele>
        <time>2022-07-17T13:45:00Z</time>
      </trkpt>
      <trkpt lat="44.88527" lon="6.65172">
        <ele>1365.6</ele>
        <time>2022-07-17T13:45:01Z</time>
      </trkpt>
      <trkpt lat="44.88526" lon="6.65175">
        <ele>1365.8</ele>
        <time>2022-07-17T13:45:02Z</time>
      </trkpt>
      <trkpt lat="44.88525" lon="6.65178">
        <ele>1365.8</ele>
        <time>2022-07-17T13:45:03Z</time>
      </trkpt>
      <trkpt lat="44.88525" lon="6.65181">
        <ele>1366</ele>
        <time>2022-07-17T13:45:04Z</time>
      </trkpt>
      <trkpt lat="44.88524" lon="6.65184">
        <ele>1366.2</ele>
        <time>2022-07-17T13:45:05Z</time>
      </trkpt>
      <trkpt lat="44.88523" lon="6.65187">
        <ele>1366.2</ele>
        <time>2022-07-17T13:45:06Z</time>
      </trkpt>
      <trkpt lat="44.88523" lon="6.65189">
        <ele>1366.4</ele>
        <time>2022-07-17T13:45:07Z</time>
      </trkpt>
      <trkpt lat="44.88522" lon="6.65192">
        <ele>1366.4</ele>
        <time>2022-07-17T13:45:08Z</time>
      </trkpt>
      <trkpt lat="44.88522" lon="6.65195">
        <ele>1366.8</ele>
        <time>2022-07-17T13:45:09Z</time>
      </trkpt>
      <trkpt lat="44.88521" lon="6.65198">
        <ele>1366.8</ele>
        <time>2022-07-17T13:45:10Z</time>
      </trkpt>
      <trkpt lat="44.88521" lon="6.65202">
        <ele>1367</ele>
        <time>2022-07-17T13:45:11Z</time>
      </trkpt>
      <trkpt lat="44.88521" lon="6.65205">
        <ele>1367.2</ele>
        <time>2022-07-17T13:45:12Z</time>
      </trkpt>
      <trkpt lat="44.8852" lon="6.65208">
        <ele>1367.2</ele>
        <time>2022-07-17T13:45:13Z</time>
      </trkpt>
      <trkpt lat="44.88519" lon="6.65211">
        <ele>1367.6</ele>
        <time>2022-07-17T13:45:14Z</time>
      </trkpt>
      <trkpt lat="44.88519" lon="6.65214">
        <ele>1367.6</ele>
        <time>2022-07-17T13:45:15Z</time>
      </trkpt>
      <trkpt lat="44.88518" lon="6.65216">
        <ele>1367.6</ele>
        <time>2022-07-17T13:45:16Z</time>
      </trkpt>
      <trkpt lat="44.88518" lon="6.65219">
        <ele>1367.8</ele>
        <time>2022-07-17T13:45:17Z</time>
      </trkpt>
      <trkpt lat="44.88518" lon="6.65222">
        <ele>1368.2</ele>
        <time>2022-07-17T13:45:18Z</time>
      </trkpt>
      <trkpt lat="44.88517" lon="6.65224">
        <ele>1368.2</ele>
        <time>2022-07-17T13:45:19Z</time>
      </trkpt>
      <trkpt lat="44.88518" lon="6.65227">
        <ele>1368.4</ele>
        <time>2022-07-17T13:45:20Z</time>
      </trkpt>
      <trkpt lat="44.88518" lon="6.6523">
        <ele>1368.4</ele>
        <time>2022-07-17T13:45:21Z</time>
      </trkpt>
      <trkpt lat="44.88517" lon="6.65233">
        <ele>1368.8</ele>
        <time>2022-07-17T13:45:22Z</time>
      </trkpt>
      <trkpt lat="44.88517" lon="6.65236">
        <ele>1368.8</ele>
        <time>2022-07-17T13:45:23Z</time>
      </trkpt>
      <trkpt lat="44.88517" lon="6.65239">
        <ele>1369.2</ele>
        <time>2022-07-17T13:45:24Z</time>
      </trkpt>
      <trkpt lat="44.88517" lon="6.65243">
        <ele>1369.2</ele>
        <time>2022-07-17T13:45:25Z</time>
      </trkpt>
      <trkpt lat="44.88517" lon="6.65246">
        <ele>1369.4</ele>
        <time>2022-07-17T13:45:26Z</time>
      </trkpt>
      <trkpt lat="44.88517" lon="6.6525">
        <ele>1369.4</ele>
        <time>2022-07-17T13:45:27Z</time>
      </trkpt>
      <trkpt lat="44.88517" lon="6.65254">
        <ele>1369.6</ele>
        <time>2022-07-17T13:45:28Z</time>
      </trkpt>
      <trkpt lat="44.88517" lon="6.65258">
        <ele>1369.6</ele>
        <time>2022-07-17T13:45:29Z</time>
      </trkpt>
      <trkpt lat="44.88517" lon="6.65262">
        <ele>1370</ele>
        <time>2022-07-17T13:45:30Z</time>
      </trkpt>
      <trkpt lat="44.88518" lon="6.65266">
        <ele>1370</ele>
        <time>2022-07-17T13:45:31Z</time>
      </trkpt>
      <trkpt lat="44.88519" lon="6.65271">
        <ele>1370.2</ele>
        <time>2022-07-17T13:45:32Z</time>
      </trkpt>
      <trkpt lat="44.8852" lon="6.65275">
        <ele>1370.2</ele>
        <time>2022-07-17T13:45:33Z</time>
      </trkpt>
      <trkpt lat="44.8852" lon="6.65279">
        <ele>1370.6</ele>
        <time>2022-07-17T13:45:34Z</time>
      </trkpt>
      <trkpt lat="44.88521" lon="6.65283">
        <ele>1370.6</ele>
        <time>2022-07-17T13:45:35Z</time>
      </trkpt>
      <trkpt lat="44.88522" lon="6.65288">
        <ele>1370.6</ele>
        <time>2022-07-17T13:45:36Z</time>
      </trkpt>
      <trkpt lat="44.88523" lon="6.65292">
        <ele>1371</ele>
        <time>2022-07-17T13:45:37Z</time>
      </trkpt>
      <trkpt lat="44.88524" lon="6.65297">
        <ele>1371</ele>
        <time>2022-07-17T13:45:38Z</time>
      </trkpt>
      <trkpt lat="44.88525" lon="6.65302">
        <ele>1371</ele>
        <time>2022-07-17T13:45:39Z</time>
      </trkpt>
      <trkpt lat="44.88525" lon="6.65307">
        <ele>1371</ele>
        <time>2022-07-17T13:45:40Z</time>
      </trkpt>
      <trkpt lat="44.88526" lon="6.65313">
        <ele>1371</ele>
        <time>2022-07-17T13:45:41Z</time>
      </trkpt>
      <trkpt lat="44.88526" lon="6.65318">
        <ele>1371</ele>
        <time>2022-07-17T13:45:42Z</time>
      </trkpt>
      <trkpt lat="44.88525" lon="6.65323">
        <ele>1371</ele>
        <time>2022-07-17T13:45:43Z</time>
      </trkpt>
      <trkpt lat="44.88525" lon="6.65329">
        <ele>1371</ele>
        <time>2022-07-17T13:45:44Z</time>
      </trkpt>
      <trkpt lat="44.88523" lon="6.65334">
        <ele>1371</ele>
        <time>2022-07-17T13:45:45Z</time>
      </trkpt>
      <trkpt lat="44.88522" lon="6.65338">
        <ele>1371</ele>
        <time>2022-07-17T13:45:46Z</time>
      </trkpt>
      <trkpt lat="44.8852" lon="6.65342">
        <ele>1371</ele>
        <time>2022-07-17T13:45:47Z</time>
      </trkpt>
      <trkpt lat="44.88518" lon="6.65347">
        <ele>1371</ele>
        <time>2022-07-17T13:45:48Z</time>
      </trkpt>
      <trkpt lat="44.88517" lon="6.65351">
        <ele>1371</ele>
        <time>2022-07-17T13:45:49Z</time>
      </trkpt>
      <trkpt lat="44.88515" lon="6.65354">
        <ele>1371</ele>
        <time>2022-07-17T13:45:50Z</time>
      </trkpt>
      <trkpt lat="44.88513" lon="6.65358">
        <ele>1371</ele>
        <time>2022-07-17T13:45:51Z</time>
      </trkpt>
      <trkpt lat="44.88511" lon="6.65362">
        <ele>1371</ele>
        <time>2022-07-17T13:45:52Z</time>
      </trkpt>
      <trkpt lat="44.88509" lon="6.65366">
        <ele>1371.2</ele>
        <time>2022-07-17T13:45:53Z</time>
      </trkpt>
      <trkpt lat="44.88506" lon="6.65369">
        <ele>1371.2</ele>
        <time>2022-07-17T13:45:54Z</time>
      </trkpt>
      <trkpt lat="44.88504" lon="6.65373">
        <ele>1371.2</ele>
        <time>2022-07-17T13:45:55Z</time>
      </trkpt>
      <trkpt lat="44.88501" lon="6.65377">
        <ele>1371.2</ele>
        <time>2022-07-17T13:45:56Z</time>
      </trkpt>
      <trkpt lat="44.88498" lon="6.65381">
        <ele>1371.2</ele>
        <time>2022-07-17T13:45:57Z</time>
      </trkpt>
      <trkpt lat="44.88495" lon="6.65384">
        <ele>1371.6</ele>
        <time>2022-07-17T13:45:58Z</time>
      </trkpt>
      <trkpt lat="44.88493" lon="6.65388">
        <ele>1371.6</ele>
        <time>2022-07-17T13:45:59Z</time>
      </trkpt>
      <trkpt lat="44.8849" lon="6.65392">
        <ele>1371.8</ele>
        <time>2022-07-17T13:46:00Z</time>
      </trkpt>
      <trkpt lat="44.88488" lon="6.65395">
        <ele>1371.8</ele>
        <time>2022-07-17T13:46:01Z</time>
      </trkpt>
      <trkpt lat="44.88485" lon="6.65398">
        <ele>1371.8</ele>
        <time>2022-07-17T13:46:02Z</time>
      </trkpt>
      <trkpt lat="44.88483" lon="6.65401">
        <ele>1372.2</ele>
        <time>2022-07-17T13:46:03Z</time>
      </trkpt>
      <trkpt lat="44.88481" lon="6.65403">
        <ele>1372.2</ele>
        <time>2022-07-17T13:46:04Z</time>
      </trkpt>
      <trkpt lat="44.88479" lon="6.65406">
        <ele>1372.4</ele>
        <time>2022-07-17T13:46:05Z</time>
      </trkpt>
      <trkpt lat="44.88477" lon="6.65409">
        <ele>1372.6</ele>
        <time>2022-07-17T13:46:06Z</time>
      </trkpt>
      <trkpt lat="44.88475" lon="6.65412">
        <ele>1373</ele>
        <time>2022-07-17T13:46:07Z</time>
      </trkpt>
      <trkpt lat="44.88473" lon="6.65415">
        <ele>1373.2</ele>
        <time>2022-07-17T13:46:08Z</time>
      </trkpt>
      <trkpt lat="44.88471" lon="6.65419">
        <ele>1373.4</ele>
        <time>2022-07-17T13:46:09Z</time>
      </trkpt>
      <trkpt lat="44.88469" lon="6.65422">
        <ele>1373.6</ele>
        <time>2022-07-17T13:46:10Z</time>
      </trkpt>
      <trkpt lat="44.88468" lon="6.65425">
        <ele>1373.8</ele>
        <time>2022-07-17T13:46:11Z</time>
      </trkpt>
      <trkpt lat="44.88466" lon="6.65429">
        <ele>1374.2</ele>
        <time>2022-07-17T13:46:12Z</time>
      </trkpt>
      <trkpt lat="44.88464" lon="6.65432">
        <ele>1374.8</ele>
        <time>2022-07-17T13:46:14Z</time>
      </trkpt>
      <trkpt lat="44.88463" lon="6.65435">
        <ele>1375</ele>
        <time>2022-07-17T13:46:15Z</time>
      </trkpt>
      <trkpt lat="44.88462" lon="6.65439">
        <ele>1375.2</ele>
        <time>2022-07-17T13:46:16Z</time>
      </trkpt>
      <trkpt lat="44.88461" lon="6.65442">
        <ele>1375.6</ele>
        <time>2022-07-17T13:46:17Z</time>
      </trkpt>
      <trkpt lat="44.8846" lon="6.65445">
        <ele>1375.6</ele>
        <time>2022-07-17T13:46:18Z</time>
      </trkpt>
      <trkpt lat="44.88459" lon="6.65449">
        <ele>1375.8</ele>
        <time>2022-07-17T13:46:19Z</time>
      </trkpt>
      <trkpt lat="44.88458" lon="6.65452">
        <ele>1375.8</ele>
        <time>2022-07-17T13:46:20Z</time>
      </trkpt>
      <trkpt lat="44.88457" lon="6.65456">
        <ele>1376.2</ele>
        <time>2022-07-17T13:46:21Z</time>
      </trkpt>
      <trkpt lat="44.88456" lon="6.65459">
        <ele>1376.2</ele>
        <time>2022-07-17T13:46:22Z</time>
      </trkpt>
      <trkpt lat="44.88455" lon="6.65463">
        <ele>1376.4</ele>
        <time>2022-07-17T13:46:23Z</time>
      </trkpt>
      <trkpt lat="44.88454" lon="6.65467">
        <ele>1376.4</ele>
        <time>2022-07-17T13:46:24Z</time>
      </trkpt>
      <trkpt lat="44.88454" lon="6.65471">
        <ele>1376.8</ele>
        <time>2022-07-17T13:46:25Z</time>
      </trkpt>
      <trkpt lat="44.88453" lon="6.65474">
        <ele>1376.8</ele>
        <time>2022-07-17T13:46:26Z</time>
      </trkpt>
      <trkpt lat="44.88452" lon="6.65478">
        <ele>1376.8</ele>
        <time>2022-07-17T13:46:27Z</time>
      </trkpt>
      <trkpt lat="44.88451" lon="6.65482">
        <ele>1377.2</ele>
        <time>2022-07-17T13:46:28Z</time>
      </trkpt>
      <trkpt lat="44.88451" lon="6.65485">
        <ele>1377.2</ele>
        <time>2022-07-17T13:46:29Z</time>
      </trkpt>
      <trkpt lat="44.8845" lon="6.65489">
        <ele>1377.4</ele>
        <time>2022-07-17T13:46:30Z</time>
      </trkpt>
      <trkpt lat="44.8845" lon="6.65492">
        <ele>1377.4</ele>
        <time>2022-07-17T13:46:31Z</time>
      </trkpt>
      <trkpt lat="44.88449" lon="6.65496">
        <ele>1377.4</ele>
        <time>2022-07-17T13:46:32Z</time>
      </trkpt>
      <trkpt lat="44.88448" lon="6.655">
        <ele>1377.8</ele>
        <time>2022-07-17T13:46:33Z</time>
      </trkpt>
      <trkpt lat="44.88447" lon="6.65503">
        <ele>1377.8</ele>
        <time>2022-07-17T13:46:34Z</time>
      </trkpt>
      <trkpt lat="44.88446" lon="6.65507">
        <ele>1378</ele>
        <time>2022-07-17T13:46:35Z</time>
      </trkpt>
      <trkpt lat="44.88446" lon="6.65511">
        <ele>1378</ele>
        <time>2022-07-17T13:46:36Z</time>
      </trkpt>
      <trkpt lat="44.88445" lon="6.65515">
        <ele>1378.4</ele>
        <time>2022-07-17T13:46:37Z</time>
      </trkpt>
      <trkpt lat="44.88444" lon="6.65519">
        <ele>1378.4</ele>
        <time>2022-07-17T13:46:38Z</time>
      </trkpt>
      <trkpt lat="44.88444" lon="6.65523">
        <ele>1378.6</ele>
        <time>2022-07-17T13:46:39Z</time>
      </trkpt>
      <trkpt lat="44.88443" lon="6.65527">
        <ele>1378.6</ele>
        <time>2022-07-17T13:46:40Z</time>
      </trkpt>
      <trkpt lat="44.88443" lon="6.65532">
        <ele>1378.8</ele>
        <time>2022-07-17T13:46:41Z</time>
      </trkpt>
      <trkpt lat="44.88442" lon="6.65536">
        <ele>1378.8</ele>
        <time>2022-07-17T13:46:42Z</time>
      </trkpt>
      <trkpt lat="44.88441" lon="6.6554">
        <ele>1379</ele>
        <time>2022-07-17T13:46:43Z</time>
      </trkpt>
      <trkpt lat="44.88441" lon="6.65544">
        <ele>1379</ele>
        <time>2022-07-17T13:46:44Z</time>
      </trkpt>
      <trkpt lat="44.8844" lon="6.65548">
        <ele>1379</ele>
        <time>2022-07-17T13:46:45Z</time>
      </trkpt>
      <trkpt lat="44.8844" lon="6.65552">
        <ele>1379.4</ele>
        <time>2022-07-17T13:46:46Z</time>
      </trkpt>
      <trkpt lat="44.88439" lon="6.65557">
        <ele>1379.4</ele>
        <time>2022-07-17T13:46:47Z</time>
      </trkpt>
      <trkpt lat="44.88438" lon="6.65561">
        <ele>1379.4</ele>
        <time>2022-07-17T13:46:48Z</time>
      </trkpt>
      <trkpt lat="44.88438" lon="6.65565">
        <ele>1379.8</ele>
        <time>2022-07-17T13:46:49Z</time>
      </trkpt>
      <trkpt lat="44.88437" lon="6.65569">
        <ele>1379.8</ele>
        <time>2022-07-17T13:46:50Z</time>
      </trkpt>
      <trkpt lat="44.88436" lon="6.65574">
        <ele>1380</ele>
        <time>2022-07-17T13:46:51Z</time>
      </trkpt>
      <trkpt lat="44.88436" lon="6.65578">
        <ele>1380</ele>
        <time>2022-07-17T13:46:52Z</time>
      </trkpt>
      <trkpt lat="44.88435" lon="6.65583">
        <ele>1380.2</ele>
        <time>2022-07-17T13:46:53Z</time>
      </trkpt>
      <trkpt lat="44.88434" lon="6.65587">
        <ele>1380.2</ele>
        <time>2022-07-17T13:46:54Z</time>
      </trkpt>
      <trkpt lat="44.88433" lon="6.65591">
        <ele>1380.6</ele>
        <time>2022-07-17T13:46:55Z</time>
      </trkpt>
      <trkpt lat="44.88432" lon="6.65595">
        <ele>1380.6</ele>
        <time>2022-07-17T13:46:56Z</time>
      </trkpt>
      <trkpt lat="44.88432" lon="6.656">
        <ele>1380.8</ele>
        <time>2022-07-17T13:46:57Z</time>
      </trkpt>
      <trkpt lat="44.88431" lon="6.65604">
        <ele>1380.8</ele>
        <time>2022-07-17T13:46:58Z</time>
      </trkpt>
      <trkpt lat="44.8843" lon="6.65609">
        <ele>1380.8</ele>
        <time>2022-07-17T13:46:59Z</time>
      </trkpt>
      <trkpt lat="44.8843" lon="6.65613">
        <ele>1381.2</ele>
        <time>2022-07-17T13:47:00Z</time>
      </trkpt>
      <trkpt lat="44.88429" lon="6.65618">
        <ele>1381.2</ele>
        <time>2022-07-17T13:47:01Z</time>
      </trkpt>
      <trkpt lat="44.88428" lon="6.65622">
        <ele>1381.2</ele>
        <time>2022-07-17T13:47:02Z</time>
      </trkpt>
      <trkpt lat="44.88427" lon="6.65626">
        <ele>1381.4</ele>
        <time>2022-07-17T13:47:03Z</time>
      </trkpt>
      <trkpt lat="44.88427" lon="6.6563">
        <ele>1381.4</ele>
        <time>2022-07-17T13:47:04Z</time>
      </trkpt>
      <trkpt lat="44.88426" lon="6.65634">
        <ele>1381.4</ele>
        <time>2022-07-17T13:47:05Z</time>
      </trkpt>
      <trkpt lat="44.88425" lon="6.65638">
        <ele>1381.6</ele>
        <time>2022-07-17T13:47:06Z</time>
      </trkpt>
      <trkpt lat="44.88424" lon="6.65642">
        <ele>1381.8</ele>
        <time>2022-07-17T13:47:07Z</time>
      </trkpt>
      <trkpt lat="44.88424" lon="6.65647">
        <ele>1381.8</ele>
        <time>2022-07-17T13:47:08Z</time>
      </trkpt>
      <trkpt lat="44.88423" lon="6.65651">
        <ele>1382.2</ele>
        <time>2022-07-17T13:47:09Z</time>
      </trkpt>
      <trkpt lat="44.88422" lon="6.65655">
        <ele>1382.2</ele>
        <time>2022-07-17T13:47:10Z</time>
      </trkpt>
      <trkpt lat="44.88421" lon="6.65659">
        <ele>1382.4</ele>
        <time>2022-07-17T13:47:11Z</time>
      </trkpt>
      <trkpt lat="44.88421" lon="6.65663">
        <ele>1382.4</ele>
        <time>2022-07-17T13:47:12Z</time>
      </trkpt>
      <trkpt lat="44.8842" lon="6.65667">
        <ele>1382.6</ele>
        <time>2022-07-17T13:47:13Z</time>
      </trkpt>
      <trkpt lat="44.88419" lon="6.65671">
        <ele>1382.6</ele>
        <time>2022-07-17T13:47:14Z</time>
      </trkpt>
      <trkpt lat="44.88418" lon="6.65675">
        <ele>1382.6</ele>
        <time>2022-07-17T13:47:15Z</time>
      </trkpt>
      <trkpt lat="44.88417" lon="6.65679">
        <ele>1383</ele>
        <time>2022-07-17T13:47:16Z</time>
      </trkpt>
      <trkpt lat="44.88417" lon="6.65683">
        <ele>1383.2</ele>
        <time>2022-07-17T13:47:17Z</time>
      </trkpt>
      <trkpt lat="44.88416" lon="6.65687">
        <ele>1383.2</ele>
        <time>2022-07-17T13:47:18Z</time>
      </trkpt>
      <trkpt lat="44.88415" lon="6.65691">
        <ele>1383.6</ele>
        <time>2022-07-17T13:47:19Z</time>
      </trkpt>
      <trkpt lat="44.88414" lon="6.65695">
        <ele>1383.6</ele>
        <time>2022-07-17T13:47:20Z</time>
      </trkpt>
      <trkpt lat="44.88414" lon="6.65699">
        <ele>1383.8</ele>
        <time>2022-07-17T13:47:21Z</time>
      </trkpt>
      <trkpt lat="44.88413" lon="6.65703">
        <ele>1383.8</ele>
        <time>2022-07-17T13:47:22Z</time>
      </trkpt>
      <trkpt lat="44.88412" lon="6.65707">
        <ele>1383.8</ele>
        <time>2022-07-17T13:47:23Z</time>
      </trkpt>
      <trkpt lat="44.88412" lon="6.65711">
        <ele>1384.2</ele>
        <time>2022-07-17T13:47:24Z</time>
      </trkpt>
      <trkpt lat="44.88411" lon="6.65715">
        <ele>1384.4</ele>
        <time>2022-07-17T13:47:25Z</time>
      </trkpt>
      <trkpt lat="44.8841" lon="6.65719">
        <ele>1384.4</ele>
        <time>2022-07-17T13:47:26Z</time>
      </trkpt>
      <trkpt lat="44.8841" lon="6.65723">
        <ele>1384.6</ele>
        <time>2022-07-17T13:47:27Z</time>
      </trkpt>
      <trkpt lat="44.88409" lon="6.65727">
        <ele>1384.6</ele>
        <time>2022-07-17T13:47:28Z</time>
      </trkpt>
      <trkpt lat="44.88408" lon="6.65731">
        <ele>1385</ele>
        <time>2022-07-17T13:47:29Z</time>
      </trkpt>
      <trkpt lat="44.88408" lon="6.65735">
        <ele>1385</ele>
        <time>2022-07-17T13:47:30Z</time>
      </trkpt>
      <trkpt lat="44.88408" lon="6.65739">
        <ele>1385.4</ele>
        <time>2022-07-17T13:47:31Z</time>
      </trkpt>
      <trkpt lat="44.88408" lon="6.65743">
        <ele>1385.6</ele>
        <time>2022-07-17T13:47:32Z</time>
      </trkpt>
      <trkpt lat="44.88407" lon="6.65747">
        <ele>1385.6</ele>
        <time>2022-07-17T13:47:33Z</time>
      </trkpt>
      <trkpt lat="44.88406" lon="6.6575">
        <ele>1386</ele>
        <time>2022-07-17T13:47:34Z</time>
      </trkpt>
      <trkpt lat="44.88406" lon="6.65754">
        <ele>1386.2</ele>
        <time>2022-07-17T13:47:35Z</time>
      </trkpt>
      <trkpt lat="44.88406" lon="6.65758">
        <ele>1386.2</ele>
        <time>2022-07-17T13:47:36Z</time>
      </trkpt>
      <trkpt lat="44.88405" lon="6.65762">
        <ele>1386.6</ele>
        <time>2022-07-17T13:47:37Z</time>
      </trkpt>
      <trkpt lat="44.88405" lon="6.65766">
        <ele>1386.6</ele>
        <time>2022-07-17T13:47:38Z</time>
      </trkpt>
      <trkpt lat="44.88405" lon="6.6577">
        <ele>1386.8</ele>
        <time>2022-07-17T13:47:39Z</time>
      </trkpt>
      <trkpt lat="44.88405" lon="6.65774">
        <ele>1386.8</ele>
        <time>2022-07-17T13:47:40Z</time>
      </trkpt>
      <trkpt lat="44.88405" lon="6.65779">
        <ele>1386.8</ele>
        <time>2022-07-17T13:47:41Z</time>
      </trkpt>
      <trkpt lat="44.88405" lon="6.65783">
        <ele>1387</ele>
        <time>2022-07-17T13:47:42Z</time>
      </trkpt>
      <trkpt lat="44.88405" lon="6.65788">
        <ele>1387</ele>
        <time>2022-07-17T13:47:43Z</time>
      </trkpt>
      <trkpt lat="44.88406" lon="6.65792">
        <ele>1387.4</ele>
        <time>2022-07-17T13:47:44Z</time>
      </trkpt>
      <trkpt lat="44.88406" lon="6.65797">
        <ele>1387.4</ele>
        <time>2022-07-17T13:47:45Z</time>
      </trkpt>
      <trkpt lat="44.88407" lon="6.65801">
        <ele>1387.4</ele>
        <time>2022-07-17T13:47:46Z</time>
      </trkpt>
      <trkpt lat="44.88407" lon="6.65805">
        <ele>1387.6</ele>
        <time>2022-07-17T13:47:47Z</time>
      </trkpt>
      <trkpt lat="44.88408" lon="6.65809">
        <ele>1387.6</ele>
        <time>2022-07-17T13:47:48Z</time>
      </trkpt>
      <trkpt lat="44.88408" lon="6.65813">
        <ele>1388</ele>
        <time>2022-07-17T13:47:49Z</time>
      </trkpt>
      <trkpt lat="44.88409" lon="6.65818">
        <ele>1388</ele>
        <time>2022-07-17T13:47:50Z</time>
      </trkpt>
      <trkpt lat="44.88409" lon="6.65822">
        <ele>1388.2</ele>
        <time>2022-07-17T13:47:51Z</time>
      </trkpt>
      <trkpt lat="44.8841" lon="6.65826">
        <ele>1388.2</ele>
        <time>2022-07-17T13:47:52Z</time>
      </trkpt>
      <trkpt lat="44.8841" lon="6.6583">
        <ele>1388.6</ele>
        <time>2022-07-17T13:47:53Z</time>
      </trkpt>
      <trkpt lat="44.88411" lon="6.65834">
        <ele>1388.6</ele>
        <time>2022-07-17T13:47:54Z</time>
      </trkpt>
      <trkpt lat="44.88412" lon="6.65838">
        <ele>1388.6</ele>
        <time>2022-07-17T13:47:55Z</time>
      </trkpt>
      <trkpt lat="44.88413" lon="6.65842">
        <ele>1388.8</ele>
        <time>2022-07-17T13:47:56Z</time>
      </trkpt>
      <trkpt lat="44.88414" lon="6.65846">
        <ele>1388.8</ele>
        <time>2022-07-17T13:47:57Z</time>
      </trkpt>
      <trkpt lat="44.88415" lon="6.6585">
        <ele>1389.2</ele>
        <time>2022-07-17T13:47:58Z</time>
      </trkpt>
      <trkpt lat="44.88416" lon="6.65854">
        <ele>1389.2</ele>
        <time>2022-07-17T13:47:59Z</time>
      </trkpt>
      <trkpt lat="44.88417" lon="6.65858">
        <ele>1389.4</ele>
        <time>2022-07-17T13:48:00Z</time>
      </trkpt>
      <trkpt lat="44.88418" lon="6.65862">
        <ele>1389.4</ele>
        <time>2022-07-17T13:48:01Z</time>
      </trkpt>
      <trkpt lat="44.88418" lon="6.65866">
        <ele>1389.4</ele>
        <time>2022-07-17T13:48:02Z</time>
      </trkpt>
      <trkpt lat="44.88419" lon="6.6587">
        <ele>1389.6</ele>
        <time>2022-07-17T13:48:03Z</time>
      </trkpt>
      <trkpt lat="44.88421" lon="6.65874">
        <ele>1389.8</ele>
        <time>2022-07-17T13:48:04Z</time>
      </trkpt>
      <trkpt lat="44.88422" lon="6.65878">
        <ele>1389.8</ele>
        <time>2022-07-17T13:48:05Z</time>
      </trkpt>
      <trkpt lat="44.88423" lon="6.65882">
        <ele>1390</ele>
        <time>2022-07-17T13:48:06Z</time>
      </trkpt>
      <trkpt lat="44.88423" lon="6.65886">
        <ele>1390</ele>
        <time>2022-07-17T13:48:07Z</time>
      </trkpt>
      <trkpt lat="44.88424" lon="6.6589">
        <ele>1390</ele>
        <time>2022-07-17T13:48:08Z</time>
      </trkpt>
      <trkpt lat="44.88425" lon="6.65894">
        <ele>1390</ele>
        <time>2022-07-17T13:48:09Z</time>
      </trkpt>
      <trkpt lat="44.88426" lon="6.65899">
        <ele>1390.4</ele>
        <time>2022-07-17T13:48:10Z</time>
      </trkpt>
      <trkpt lat="44.88427" lon="6.65903">
        <ele>1390.4</ele>
        <time>2022-07-17T13:48:11Z</time>
      </trkpt>
      <trkpt lat="44.88428" lon="6.65907">
        <ele>1390.6</ele>
        <time>2022-07-17T13:48:12Z</time>
      </trkpt>
      <trkpt lat="44.88428" lon="6.65912">
        <ele>1390.6</ele>
        <time>2022-07-17T13:48:13Z</time>
      </trkpt>
      <trkpt lat="44.88428" lon="6.65916">
        <ele>1390.8</ele>
        <time>2022-07-17T13:48:14Z</time>
      </trkpt>
      <trkpt lat="44.88428" lon="6.65921">
        <ele>1390.8</ele>
        <time>2022-07-17T13:48:15Z</time>
      </trkpt>
      <trkpt lat="44.88428" lon="6.65925">
        <ele>1391</ele>
        <time>2022-07-17T13:48:16Z</time>
      </trkpt>
      <trkpt lat="44.88427" lon="6.65929">
        <ele>1391</ele>
        <time>2022-07-17T13:48:17Z</time>
      </trkpt>
      <trkpt lat="44.88426" lon="6.65933">
        <ele>1391.4</ele>
        <time>2022-07-17T13:48:18Z</time>
      </trkpt>
      <trkpt lat="44.88424" lon="6.65937">
        <ele>1391.4</ele>
        <time>2022-07-17T13:48:19Z</time>
      </trkpt>
      <trkpt lat="44.88422" lon="6.65939">
        <ele>1391.8</ele>
        <time>2022-07-17T13:48:20Z</time>
      </trkpt>
      <trkpt lat="44.88419" lon="6.65941">
        <ele>1391.8</ele>
        <time>2022-07-17T13:48:21Z</time>
      </trkpt>
      <trkpt lat="44.88416" lon="6.65943">
        <ele>1392</ele>
        <time>2022-07-17T13:48:22Z</time>
      </trkpt>
      <trkpt lat="44.88412" lon="6.65944">
        <ele>1392</ele>
        <time>2022-07-17T13:48:23Z</time>
      </trkpt>
      <trkpt lat="44.88409" lon="6.65945">
        <ele>1392.4</ele>
        <time>2022-07-17T13:48:24Z</time>
      </trkpt>
      <trkpt lat="44.88406" lon="6.65946">
        <ele>1392.4</ele>
        <time>2022-07-17T13:48:25Z</time>
      </trkpt>
      <trkpt lat="44.88402" lon="6.65946">
        <ele>1392.8</ele>
        <time>2022-07-17T13:48:26Z</time>
      </trkpt>
      <trkpt lat="44.88399" lon="6.65946">
        <ele>1392.8</ele>
        <time>2022-07-17T13:48:27Z</time>
      </trkpt>
      <trkpt lat="44.88396" lon="6.65946">
        <ele>1393.2</ele>
        <time>2022-07-17T13:48:28Z</time>
      </trkpt>
      <trkpt lat="44.88392" lon="6.65946">
        <ele>1393.2</ele>
        <time>2022-07-17T13:48:29Z</time>
      </trkpt>
      <trkpt lat="44.88389" lon="6.65946">
        <ele>1393.4</ele>
        <time>2022-07-17T13:48:30Z</time>
      </trkpt>
      <trkpt lat="44.88385" lon="6.65946">
        <ele>1393.4</ele>
        <time>2022-07-17T13:48:31Z</time>
      </trkpt>
      <trkpt lat="44.88381" lon="6.65945">
        <ele>1393.4</ele>
        <time>2022-07-17T13:48:32Z</time>
      </trkpt>
      <trkpt lat="44.88378" lon="6.65945">
        <ele>1393.4</ele>
        <time>2022-07-17T13:48:33Z</time>
      </trkpt>
      <trkpt lat="44.88374" lon="6.65944">
        <ele>1393.6</ele>
        <time>2022-07-17T13:48:34Z</time>
      </trkpt>
      <trkpt lat="44.88371" lon="6.65944">
        <ele>1393.6</ele>
        <time>2022-07-17T13:48:35Z</time>
      </trkpt>
      <trkpt lat="44.88368" lon="6.65943">
        <ele>1394</ele>
        <time>2022-07-17T13:48:36Z</time>
      </trkpt>
      <trkpt lat="44.88365" lon="6.65943">
        <ele>1394</ele>
        <time>2022-07-17T13:48:37Z</time>
      </trkpt>
      <trkpt lat="44.88362" lon="6.65943">
        <ele>1394.2</ele>
        <time>2022-07-17T13:48:38Z</time>
      </trkpt>
      <trkpt lat="44.88358" lon="6.65943">
        <ele>1394.2</ele>
        <time>2022-07-17T13:48:39Z</time>
      </trkpt>
      <trkpt lat="44.88355" lon="6.65944">
        <ele>1394.4</ele>
        <time>2022-07-17T13:48:40Z</time>
      </trkpt>
      <trkpt lat="44.88352" lon="6.65945">
        <ele>1394.4</ele>
        <time>2022-07-17T13:48:41Z</time>
      </trkpt>
      <trkpt lat="44.8835" lon="6.65946">
        <ele>1394.8</ele>
        <time>2022-07-17T13:48:42Z</time>
      </trkpt>
      <trkpt lat="44.88347" lon="6.65947">
        <ele>1395</ele>
        <time>2022-07-17T13:48:43Z</time>
      </trkpt>
      <trkpt lat="44.88345" lon="6.65948">
        <ele>1395</ele>
        <time>2022-07-17T13:48:44Z</time>
      </trkpt>
      <trkpt lat="44.88342" lon="6.6595">
        <ele>1395.2</ele>
        <time>2022-07-17T13:48:45Z</time>
      </trkpt>
      <trkpt lat="44.8834" lon="6.65952">
        <ele>1395.2</ele>
        <time>2022-07-17T13:48:46Z</time>
      </trkpt>
      <trkpt lat="44.88338" lon="6.65955">
        <ele>1395.4</ele>
        <time>2022-07-17T13:48:47Z</time>
      </trkpt>
      <trkpt lat="44.88336" lon="6.65958">
        <ele>1395.4</ele>
        <time>2022-07-17T13:48:48Z</time>
      </trkpt>
      <trkpt lat="44.88334" lon="6.65961">
        <ele>1395.8</ele>
        <time>2022-07-17T13:48:49Z</time>
      </trkpt>
      <trkpt lat="44.88332" lon="6.65964">
        <ele>1395.8</ele>
        <time>2022-07-17T13:48:50Z</time>
      </trkpt>
      <trkpt lat="44.8833" lon="6.65967">
        <ele>1396</ele>
        <time>2022-07-17T13:48:51Z</time>
      </trkpt>
      <trkpt lat="44.88328" lon="6.6597">
        <ele>1396</ele>
        <time>2022-07-17T13:48:52Z</time>
      </trkpt>
      <trkpt lat="44.88326" lon="6.65973">
        <ele>1396.4</ele>
        <time>2022-07-17T13:48:53Z</time>
      </trkpt>
      <trkpt lat="44.88323" lon="6.65977">
        <ele>1396.4</ele>
        <time>2022-07-17T13:48:54Z</time>
      </trkpt>
      <trkpt lat="44.88321" lon="6.6598">
        <ele>1396.6</ele>
        <time>2022-07-17T13:48:55Z</time>
      </trkpt>
      <trkpt lat="44.88318" lon="6.65983">
        <ele>1396.6</ele>
        <time>2022-07-17T13:48:56Z</time>
      </trkpt>
      <trkpt lat="44.88316" lon="6.65985">
        <ele>1396.8</ele>
        <time>2022-07-17T13:48:57Z</time>
      </trkpt>
      <trkpt lat="44.88313" lon="6.65987">
        <ele>1396.8</ele>
        <time>2022-07-17T13:48:58Z</time>
      </trkpt>
      <trkpt lat="44.88311" lon="6.65989">
        <ele>1397</ele>
        <time>2022-07-17T13:48:59Z</time>
      </trkpt>
      <trkpt lat="44.88309" lon="6.65991">
        <ele>1397</ele>
        <time>2022-07-17T13:49:00Z</time>
      </trkpt>
      <trkpt lat="44.88307" lon="6.65993">
        <ele>1397.2</ele>
        <time>2022-07-17T13:49:01Z</time>
      </trkpt>
      <trkpt lat="44.88305" lon="6.65995">
        <ele>1397.2</ele>
        <time>2022-07-17T13:49:02Z</time>
      </trkpt>
      <trkpt lat="44.88302" lon="6.65997">
        <ele>1397.6</ele>
        <time>2022-07-17T13:49:03Z</time>
      </trkpt>
      <trkpt lat="44.883" lon="6.65999">
        <ele>1397.6</ele>
        <time>2022-07-17T13:49:04Z</time>
      </trkpt>
      <trkpt lat="44.88298" lon="6.66002">
        <ele>1397.8</ele>
        <time>2022-07-17T13:49:05Z</time>
      </trkpt>
      <trkpt lat="44.88296" lon="6.66005">
        <ele>1397.8</ele>
        <time>2022-07-17T13:49:06Z</time>
      </trkpt>
      <trkpt lat="44.88293" lon="6.66007">
        <ele>1398</ele>
        <time>2022-07-17T13:49:07Z</time>
      </trkpt>
      <trkpt lat="44.88291" lon="6.6601">
        <ele>1398</ele>
        <time>2022-07-17T13:49:08Z</time>
      </trkpt>
      <trkpt lat="44.8829" lon="6.66012">
        <ele>1398.4</ele>
        <time>2022-07-17T13:49:09Z</time>
      </trkpt>
      <trkpt lat="44.88288" lon="6.66016">
        <ele>1398.4</ele>
        <time>2022-07-17T13:49:10Z</time>
      </trkpt>
      <trkpt lat="44.88287" lon="6.6602">
        <ele>1398.6</ele>
        <time>2022-07-17T13:49:11Z</time>
      </trkpt>
      <trkpt lat="44.88285" lon="6.66024">
        <ele>1398.6</ele>
        <time>2022-07-17T13:49:12Z</time>
      </trkpt>
      <trkpt lat="44.88284" lon="6.66027">
        <ele>1398.8</ele>
        <time>2022-07-17T13:49:13Z</time>
      </trkpt>
      <trkpt lat="44.88282" lon="6.66031">
        <ele>1399</ele>
        <time>2022-07-17T13:49:14Z</time>
      </trkpt>
      <trkpt lat="44.88281" lon="6.66035">
        <ele>1399.2</ele>
        <time>2022-07-17T13:49:15Z</time>
      </trkpt>
      <trkpt lat="44.88279" lon="6.66039">
        <ele>1399.4</ele>
        <time>2022-07-17T13:49:16Z</time>
      </trkpt>
      <trkpt lat="44.88279" lon="6.66043">
        <ele>1399.4</ele>
        <time>2022-07-17T13:49:17Z</time>
      </trkpt>
      <trkpt lat="44.88278" lon="6.66047">
        <ele>1399.4</ele>
        <time>2022-07-17T13:49:18Z</time>
      </trkpt>
      <trkpt lat="44.88277" lon="6.66052">
        <ele>1399.4</ele>
        <time>2022-07-17T13:49:19Z</time>
      </trkpt>
      <trkpt lat="44.88277" lon="6.66057">
        <ele>1399.4</ele>
        <time>2022-07-17T13:49:20Z</time>
      </trkpt>
      <trkpt lat="44.88276" lon="6.66061">
        <ele>1399.4</ele>
        <time>2022-07-17T13:49:21Z</time>
      </trkpt>
      <trkpt lat="44.88276" lon="6.66065">
        <ele>1399.6</ele>
        <time>2022-07-17T13:49:22Z</time>
      </trkpt>
      <trkpt lat="44.88276" lon="6.6607">
        <ele>1399.6</ele>
        <time>2022-07-17T13:49:23Z</time>
      </trkpt>
      <trkpt lat="44.88276" lon="6.66075">
        <ele>1399.6</ele>
        <time>2022-07-17T13:49:24Z</time>
      </trkpt>
      <trkpt lat="44.88276" lon="6.6608">
        <ele>1399.6</ele>
        <time>2022-07-17T13:49:25Z</time>
      </trkpt>
      <trkpt lat="44.88276" lon="6.66084">
        <ele>1400</ele>
        <time>2022-07-17T13:49:26Z</time>
      </trkpt>
      <trkpt lat="44.88276" lon="6.6609">
        <ele>1400</ele>
        <time>2022-07-17T13:49:27Z</time>
      </trkpt>
      <trkpt lat="44.88275" lon="6.66095">
        <ele>1400.2</ele>
        <time>2022-07-17T13:49:28Z</time>
      </trkpt>
      <trkpt lat="44.88275" lon="6.661">
        <ele>1400.2</ele>
        <time>2022-07-17T13:49:29Z</time>
      </trkpt>
      <trkpt lat="44.88275" lon="6.66105">
        <ele>1400.4</ele>
        <time>2022-07-17T13:49:30Z</time>
      </trkpt>
      <trkpt lat="44.88275" lon="6.6611">
        <ele>1400.4</ele>
        <time>2022-07-17T13:49:31Z</time>
      </trkpt>
      <trkpt lat="44.88274" lon="6.66114">
        <ele>1400.8</ele>
        <time>2022-07-17T13:49:32Z</time>
      </trkpt>
      <trkpt lat="44.88274" lon="6.66119">
        <ele>1400.8</ele>
        <time>2022-07-17T13:49:33Z</time>
      </trkpt>
      <trkpt lat="44.88273" lon="6.66123">
        <ele>1401.2</ele>
        <time>2022-07-17T13:49:34Z</time>
      </trkpt>
      <trkpt lat="44.88272" lon="6.66128">
        <ele>1401.2</ele>
        <time>2022-07-17T13:49:35Z</time>
      </trkpt>
      <trkpt lat="44.88272" lon="6.66133">
        <ele>1401.4</ele>
        <time>2022-07-17T13:49:36Z</time>
      </trkpt>
      <trkpt lat="44.88271" lon="6.66137">
        <ele>1401.4</ele>
        <time>2022-07-17T13:49:37Z</time>
      </trkpt>
      <trkpt lat="44.8827" lon="6.66142">
        <ele>1401.4</ele>
        <time>2022-07-17T13:49:38Z</time>
      </trkpt>
      <trkpt lat="44.88268" lon="6.66146">
        <ele>1401.8</ele>
        <time>2022-07-17T13:49:39Z</time>
      </trkpt>
      <trkpt lat="44.88267" lon="6.66151">
        <ele>1401.8</ele>
        <time>2022-07-17T13:49:40Z</time>
      </trkpt>
      <trkpt lat="44.88266" lon="6.66156">
        <ele>1401.8</ele>
        <time>2022-07-17T13:49:41Z</time>
      </trkpt>
      <trkpt lat="44.88264" lon="6.66161">
        <ele>1401.8</ele>
        <time>2022-07-17T13:49:42Z</time>
      </trkpt>
      <trkpt lat="44.88263" lon="6.66165">
        <ele>1402</ele>
        <time>2022-07-17T13:49:43Z</time>
      </trkpt>
      <trkpt lat="44.88261" lon="6.6617">
        <ele>1402</ele>
        <time>2022-07-17T13:49:44Z</time>
      </trkpt>
      <trkpt lat="44.88259" lon="6.66174">
        <ele>1402</ele>
        <time>2022-07-17T13:49:45Z</time>
      </trkpt>
      <trkpt lat="44.88257" lon="6.66178">
        <ele>1402</ele>
        <time>2022-07-17T13:49:46Z</time>
      </trkpt>
      <trkpt lat="44.88255" lon="6.66182">
        <ele>1402.4</ele>
        <time>2022-07-17T13:49:47Z</time>
      </trkpt>
      <trkpt lat="44.88253" lon="6.66185">
        <ele>1402.4</ele>
        <time>2022-07-17T13:49:48Z</time>
      </trkpt>
      <trkpt lat="44.8825" lon="6.66188">
        <ele>1402.8</ele>
        <time>2022-07-17T13:49:49Z</time>
      </trkpt>
      <trkpt lat="44.88249" lon="6.66191">
        <ele>1402.8</ele>
        <time>2022-07-17T13:49:50Z</time>
      </trkpt>
      <trkpt lat="44.88247" lon="6.66194">
        <ele>1403</ele>
        <time>2022-07-17T13:49:51Z</time>
      </trkpt>
      <trkpt lat="44.88245" lon="6.66198">
        <ele>1403</ele>
        <time>2022-07-17T13:49:52Z</time>
      </trkpt>
      <trkpt lat="44.88244" lon="6.66201">
        <ele>1403.4</ele>
        <time>2022-07-17T13:49:53Z</time>
      </trkpt>
      <trkpt lat="44.88242" lon="6.66205">
        <ele>1403.4</ele>
        <time>2022-07-17T13:49:54Z</time>
      </trkpt>
      <trkpt lat="44.8824" lon="6.66208">
        <ele>1403.4</ele>
        <time>2022-07-17T13:49:55Z</time>
      </trkpt>
      <trkpt lat="44.88238" lon="6.66212">
        <ele>1403.4</ele>
        <time>2022-07-17T13:49:56Z</time>
      </trkpt>
      <trkpt lat="44.88236" lon="6.66216">
        <ele>1403.8</ele>
        <time>2022-07-17T13:49:57Z</time>
      </trkpt>
      <trkpt lat="44.88234" lon="6.6622">
        <ele>1403.8</ele>
        <time>2022-07-17T13:49:58Z</time>
      </trkpt>
      <trkpt lat="44.88232" lon="6.66224">
        <ele>1404</ele>
        <time>2022-07-17T13:49:59Z</time>
      </trkpt>
      <trkpt lat="44.8823" lon="6.66227">
        <ele>1404</ele>
        <time>2022-07-17T13:50:00Z</time>
      </trkpt>
      <trkpt lat="44.88229" lon="6.66231">
        <ele>1404.2</ele>
        <time>2022-07-17T13:50:01Z</time>
      </trkpt>
      <trkpt lat="44.88228" lon="6.66236">
        <ele>1404.2</ele>
        <time>2022-07-17T13:50:02Z</time>
      </trkpt>
      <trkpt lat="44.88227" lon="6.66241">
        <ele>1404.4</ele>
        <time>2022-07-17T13:50:03Z</time>
      </trkpt>
      <trkpt lat="44.88225" lon="6.66246">
        <ele>1404.6</ele>
        <time>2022-07-17T13:50:04Z</time>
      </trkpt>
      <trkpt lat="44.88225" lon="6.66251">
        <ele>1404.6</ele>
        <time>2022-07-17T13:50:05Z</time>
      </trkpt>
      <trkpt lat="44.88225" lon="6.66255">
        <ele>1405</ele>
        <time>2022-07-17T13:50:06Z</time>
      </trkpt>
      <trkpt lat="44.88224" lon="6.6626">
        <ele>1405</ele>
        <time>2022-07-17T13:50:07Z</time>
      </trkpt>
      <trkpt lat="44.88224" lon="6.66265">
        <ele>1405.2</ele>
        <time>2022-07-17T13:50:08Z</time>
      </trkpt>
      <trkpt lat="44.88224" lon="6.66269">
        <ele>1405.2</ele>
        <time>2022-07-17T13:50:09Z</time>
      </trkpt>
      <trkpt lat="44.88224" lon="6.66274">
        <ele>1405.6</ele>
        <time>2022-07-17T13:50:10Z</time>
      </trkpt>
      <trkpt lat="44.88224" lon="6.66279">
        <ele>1405.6</ele>
        <time>2022-07-17T13:50:11Z</time>
      </trkpt>
      <trkpt lat="44.88224" lon="6.66284">
        <ele>1405.6</ele>
        <time>2022-07-17T13:50:12Z</time>
      </trkpt>
      <trkpt lat="44.88225" lon="6.66289">
        <ele>1405.8</ele>
        <time>2022-07-17T13:50:13Z</time>
      </trkpt>
      <trkpt lat="44.88226" lon="6.66294">
        <ele>1405.8</ele>
        <time>2022-07-17T13:50:14Z</time>
      </trkpt>
      <trkpt lat="44.88226" lon="6.66299">
        <ele>1405.8</ele>
        <time>2022-07-17T13:50:15Z</time>
      </trkpt>
      <trkpt lat="44.88228" lon="6.66303">
        <ele>1406</ele>
        <time>2022-07-17T13:50:16Z</time>
      </trkpt>
      <trkpt lat="44.88229" lon="6.66308">
        <ele>1406</ele>
        <time>2022-07-17T13:50:17Z</time>
      </trkpt>
      <trkpt lat="44.8823" lon="6.66312">
        <ele>1406</ele>
        <time>2022-07-17T13:50:18Z</time>
      </trkpt>
      <trkpt lat="44.8823" lon="6.66317">
        <ele>1406.2</ele>
        <time>2022-07-17T13:50:19Z</time>
      </trkpt>
      <trkpt lat="44.88231" lon="6.66321">
        <ele>1406.6</ele>
        <time>2022-07-17T13:50:20Z</time>
      </trkpt>
      <trkpt lat="44.88233" lon="6.66325">
        <ele>1406.6</ele>
        <time>2022-07-17T13:50:21Z</time>
      </trkpt>
      <trkpt lat="44.88234" lon="6.6633">
        <ele>1406.6</ele>
        <time>2022-07-17T13:50:22Z</time>
      </trkpt>
      <trkpt lat="44.88235" lon="6.66335">
        <ele>1406.8</ele>
        <time>2022-07-17T13:50:23Z</time>
      </trkpt>
      <trkpt lat="44.88235" lon="6.6634">
        <ele>1406.8</ele>
        <time>2022-07-17T13:50:24Z</time>
      </trkpt>
      <trkpt lat="44.88235" lon="6.66345">
        <ele>1406.8</ele>
        <time>2022-07-17T13:50:25Z</time>
      </trkpt>
      <trkpt lat="44.88234" lon="6.6635">
        <ele>1407.2</ele>
        <time>2022-07-17T13:50:26Z</time>
      </trkpt>
      <trkpt lat="44.88233" lon="6.66355">
        <ele>1407.2</ele>
        <time>2022-07-17T13:50:27Z</time>
      </trkpt>
      <trkpt lat="44.88232" lon="6.66359">
        <ele>1407.4</ele>
        <time>2022-07-17T13:50:28Z</time>
      </trkpt>
      <trkpt lat="44.88231" lon="6.66364">
        <ele>1407.4</ele>
        <time>2022-07-17T13:50:29Z</time>
      </trkpt>
      <trkpt lat="44.8823" lon="6.66368">
        <ele>1407.6</ele>
        <time>2022-07-17T13:50:30Z</time>
      </trkpt>
      <trkpt lat="44.88228" lon="6.66373">
        <ele>1407.8</ele>
        <time>2022-07-17T13:50:31Z</time>
      </trkpt>
      <trkpt lat="44.88227" lon="6.66377">
        <ele>1407.8</ele>
        <time>2022-07-17T13:50:32Z</time>
      </trkpt>
      <trkpt lat="44.88226" lon="6.66382">
        <ele>1408</ele>
        <time>2022-07-17T13:50:33Z</time>
      </trkpt>
      <trkpt lat="44.88225" lon="6.66387">
        <ele>1408</ele>
        <time>2022-07-17T13:50:34Z</time>
      </trkpt>
      <trkpt lat="44.88224" lon="6.66392">
        <ele>1408.2</ele>
        <time>2022-07-17T13:50:35Z</time>
      </trkpt>
      <trkpt lat="44.88222" lon="6.66397">
        <ele>1408.6</ele>
        <time>2022-07-17T13:50:37Z</time>
      </trkpt>
      <trkpt lat="44.8822" lon="6.66401">
        <ele>1408.6</ele>
        <time>2022-07-17T13:50:38Z</time>
      </trkpt>
      <trkpt lat="44.88218" lon="6.66405">
        <ele>1408.6</ele>
        <time>2022-07-17T13:50:39Z</time>
      </trkpt>
      <trkpt lat="44.88216" lon="6.66409">
        <ele>1409</ele>
        <time>2022-07-17T13:50:40Z</time>
      </trkpt>
      <trkpt lat="44.88214" lon="6.66413">
        <ele>1409</ele>
        <time>2022-07-17T13:50:41Z</time>
      </trkpt>
      <trkpt lat="44.88212" lon="6.66417">
        <ele>1409.2</ele>
        <time>2022-07-17T13:50:42Z</time>
      </trkpt>
      <trkpt lat="44.8821" lon="6.66421">
        <ele>1409.2</ele>
        <time>2022-07-17T13:50:43Z</time>
      </trkpt>
      <trkpt lat="44.88208" lon="6.66425">
        <ele>1409.4</ele>
        <time>2022-07-17T13:50:44Z</time>
      </trkpt>
      <trkpt lat="44.88206" lon="6.6643">
        <ele>1409.4</ele>
        <time>2022-07-17T13:50:45Z</time>
      </trkpt>
      <trkpt lat="44.88204" lon="6.66434">
        <ele>1409.4</ele>
        <time>2022-07-17T13:50:46Z</time>
      </trkpt>
      <trkpt lat="44.88202" lon="6.66438">
        <ele>1409.8</ele>
        <time>2022-07-17T13:50:47Z</time>
      </trkpt>
      <trkpt lat="44.88201" lon="6.66443">
        <ele>1409.8</ele>
        <time>2022-07-17T13:50:48Z</time>
      </trkpt>
      <trkpt lat="44.88199" lon="6.66448">
        <ele>1410</ele>
        <time>2022-07-17T13:50:49Z</time>
      </trkpt>
      <trkpt lat="44.88198" lon="6.66453">
        <ele>1410</ele>
        <time>2022-07-17T13:50:50Z</time>
      </trkpt>
      <trkpt lat="44.88197" lon="6.66458">
        <ele>1410.4</ele>
        <time>2022-07-17T13:50:51Z</time>
      </trkpt>
      <trkpt lat="44.88197" lon="6.66463">
        <ele>1410.4</ele>
        <time>2022-07-17T13:50:52Z</time>
      </trkpt>
      <trkpt lat="44.88196" lon="6.66468">
        <ele>1410.4</ele>
        <time>2022-07-17T13:50:53Z</time>
      </trkpt>
      <trkpt lat="44.88194" lon="6.66478">
        <ele>1410.6</ele>
        <time>2022-07-17T13:50:54Z</time>
      </trkpt>
      <trkpt lat="44.88193" lon="6.66483">
        <ele>1410.6</ele>
        <time>2022-07-17T13:50:55Z</time>
      </trkpt>
      <trkpt lat="44.88192" lon="6.66487">
        <ele>1410.6</ele>
        <time>2022-07-17T13:50:56Z</time>
      </trkpt>
      <trkpt lat="44.88191" lon="6.66492">
        <ele>1410.8</ele>
        <time>2022-07-17T13:50:57Z</time>
      </trkpt>
      <trkpt lat="44.88189" lon="6.66496">
        <ele>1411</ele>
        <time>2022-07-17T13:50:58Z</time>
      </trkpt>
      <trkpt lat="44.88187" lon="6.665">
        <ele>1411</ele>
        <time>2022-07-17T13:50:59Z</time>
      </trkpt>
      <trkpt lat="44.88185" lon="6.66504">
        <ele>1411.4</ele>
        <time>2022-07-17T13:51:00Z</time>
      </trkpt>
      <trkpt lat="44.88183" lon="6.66508">
        <ele>1411.4</ele>
        <time>2022-07-17T13:51:01Z</time>
      </trkpt>
      <trkpt lat="44.88181" lon="6.66511">
        <ele>1411.6</ele>
        <time>2022-07-17T13:51:02Z</time>
      </trkpt>
      <trkpt lat="44.88179" lon="6.66515">
        <ele>1411.6</ele>
        <time>2022-07-17T13:51:03Z</time>
      </trkpt>
      <trkpt lat="44.88177" lon="6.66517">
        <ele>1411.8</ele>
        <time>2022-07-17T13:51:04Z</time>
      </trkpt>
      <trkpt lat="44.88175" lon="6.66521">
        <ele>1411.8</ele>
        <time>2022-07-17T13:51:05Z</time>
      </trkpt>
      <trkpt lat="44.88174" lon="6.66524">
        <ele>1412</ele>
        <time>2022-07-17T13:51:06Z</time>
      </trkpt>
      <trkpt lat="44.88173" lon="6.66528">
        <ele>1412</ele>
        <time>2022-07-17T13:51:07Z</time>
      </trkpt>
      <trkpt lat="44.88171" lon="6.66531">
        <ele>1412</ele>
        <time>2022-07-17T13:51:08Z</time>
      </trkpt>
      <trkpt lat="44.8817" lon="6.66534">
        <ele>1412</ele>
        <time>2022-07-17T13:51:09Z</time>
      </trkpt>
      <trkpt lat="44.88168" lon="6.66538">
        <ele>1412</ele>
        <time>2022-07-17T13:51:10Z</time>
      </trkpt>
      <trkpt lat="44.88167" lon="6.66542">
        <ele>1412</ele>
        <time>2022-07-17T13:51:11Z</time>
      </trkpt>
      <trkpt lat="44.88165" lon="6.66547">
        <ele>1412.2</ele>
        <time>2022-07-17T13:51:12Z</time>
      </trkpt>
      <trkpt lat="44.88164" lon="6.66551">
        <ele>1412.2</ele>
        <time>2022-07-17T13:51:13Z</time>
      </trkpt>
      <trkpt lat="44.88163" lon="6.66556">
        <ele>1412.6</ele>
        <time>2022-07-17T13:51:14Z</time>
      </trkpt>
      <trkpt lat="44.88161" lon="6.66561">
        <ele>1412.6</ele>
        <time>2022-07-17T13:51:15Z</time>
      </trkpt>
      <trkpt lat="44.8816" lon="6.66566">
        <ele>1412.6</ele>
        <time>2022-07-17T13:51:16Z</time>
      </trkpt>
      <trkpt lat="44.88158" lon="6.66571">
        <ele>1412.6</ele>
        <time>2022-07-17T13:51:17Z</time>
      </trkpt>
      <trkpt lat="44.88157" lon="6.66577">
        <ele>1412.6</ele>
        <time>2022-07-17T13:51:18Z</time>
      </trkpt>
      <trkpt lat="44.88155" lon="6.66583">
        <ele>1412.6</ele>
        <time>2022-07-17T13:51:19Z</time>
      </trkpt>
      <trkpt lat="44.88154" lon="6.66589">
        <ele>1412.6</ele>
        <time>2022-07-17T13:51:20Z</time>
      </trkpt>
      <trkpt lat="44.88152" lon="6.66595">
        <ele>1412.6</ele>
        <time>2022-07-17T13:51:21Z</time>
      </trkpt>
      <trkpt lat="44.88151" lon="6.66601">
        <ele>1412.6</ele>
        <time>2022-07-17T13:51:22Z</time>
      </trkpt>
      <trkpt lat="44.88149" lon="6.66607">
        <ele>1412.6</ele>
        <time>2022-07-17T13:51:23Z</time>
      </trkpt>
      <trkpt lat="44.88147" lon="6.66613">
        <ele>1412.2</ele>
        <time>2022-07-17T13:51:24Z</time>
      </trkpt>
      <trkpt lat="44.88145" lon="6.66619">
        <ele>1412.2</ele>
        <time>2022-07-17T13:51:25Z</time>
      </trkpt>
      <trkpt lat="44.88144" lon="6.66625">
        <ele>1412.2</ele>
        <time>2022-07-17T13:51:26Z</time>
      </trkpt>
      <trkpt lat="44.88142" lon="6.66632">
        <ele>1412</ele>
        <time>2022-07-17T13:51:27Z</time>
      </trkpt>
      <trkpt lat="44.88141" lon="6.66639">
        <ele>1412</ele>
        <time>2022-07-17T13:51:28Z</time>
      </trkpt>
      <trkpt lat="44.8814" lon="6.66646">
        <ele>1411.6</ele>
        <time>2022-07-17T13:51:29Z</time>
      </trkpt>
      <trkpt lat="44.88139" lon="6.66654">
        <ele>1411.6</ele>
        <time>2022-07-17T13:51:30Z</time>
      </trkpt>
      <trkpt lat="44.88138" lon="6.66662">
        <ele>1411.6</ele>
        <time>2022-07-17T13:51:31Z</time>
      </trkpt>
      <trkpt lat="44.88137" lon="6.66669">
        <ele>1411.6</ele>
        <time>2022-07-17T13:51:32Z</time>
      </trkpt>
      <trkpt lat="44.88137" lon="6.66677">
        <ele>1411.6</ele>
        <time>2022-07-17T13:51:33Z</time>
      </trkpt>
      <trkpt lat="44.88137" lon="6.66684">
        <ele>1411.6</ele>
        <time>2022-07-17T13:51:34Z</time>
      </trkpt>
      <trkpt lat="44.88138" lon="6.66692">
        <ele>1411.2</ele>
        <time>2022-07-17T13:51:35Z</time>
      </trkpt>
      <trkpt lat="44.88139" lon="6.66699">
        <ele>1411.2</ele>
        <time>2022-07-17T13:51:36Z</time>
      </trkpt>
      <trkpt lat="44.8814" lon="6.66707">
        <ele>1410.8</ele>
        <time>2022-07-17T13:51:37Z</time>
      </trkpt>
      <trkpt lat="44.8814" lon="6.66714">
        <ele>1410.8</ele>
        <time>2022-07-17T13:51:38Z</time>
      </trkpt>
      <trkpt lat="44.88142" lon="6.66722">
        <ele>1410.8</ele>
        <time>2022-07-17T13:51:39Z</time>
      </trkpt>
      <trkpt lat="44.88144" lon="6.66729">
        <ele>1410.6</ele>
        <time>2022-07-17T13:51:40Z</time>
      </trkpt>
      <trkpt lat="44.88146" lon="6.66736">
        <ele>1410.2</ele>
        <time>2022-07-17T13:51:41Z</time>
      </trkpt>
      <trkpt lat="44.88148" lon="6.66743">
        <ele>1410</ele>
        <time>2022-07-17T13:51:42Z</time>
      </trkpt>
      <trkpt lat="44.88151" lon="6.6675">
        <ele>1409.6</ele>
        <time>2022-07-17T13:51:43Z</time>
      </trkpt>
      <trkpt lat="44.88154" lon="6.66758">
        <ele>1409.4</ele>
        <time>2022-07-17T13:51:44Z</time>
      </trkpt>
      <trkpt lat="44.88157" lon="6.66766">
        <ele>1409.2</ele>
        <time>2022-07-17T13:51:45Z</time>
      </trkpt>
      <trkpt lat="44.8816" lon="6.66774">
        <ele>1408.8</ele>
        <time>2022-07-17T13:51:46Z</time>
      </trkpt>
      <trkpt lat="44.88163" lon="6.66783">
        <ele>1408.4</ele>
        <time>2022-07-17T13:51:47Z</time>
      </trkpt>
      <trkpt lat="44.88166" lon="6.66793">
        <ele>1408</ele>
        <time>2022-07-17T13:51:48Z</time>
      </trkpt>
      <trkpt lat="44.88168" lon="6.66804">
        <ele>1407.4</ele>
        <time>2022-07-17T13:51:49Z</time>
      </trkpt>
      <trkpt lat="44.88169" lon="6.66815">
        <ele>1407.2</ele>
        <time>2022-07-17T13:51:50Z</time>
      </trkpt>
      <trkpt lat="44.8817" lon="6.66826">
        <ele>1406.8</ele>
        <time>2022-07-17T13:51:51Z</time>
      </trkpt>
      <trkpt lat="44.88171" lon="6.66837">
        <ele>1406.8</ele>
        <time>2022-07-17T13:51:52Z</time>
      </trkpt>
      <trkpt lat="44.88173" lon="6.66849">
        <ele>1406.4</ele>
        <time>2022-07-17T13:51:53Z</time>
      </trkpt>
      <trkpt lat="44.88176" lon="6.66859">
        <ele>1406.2</ele>
        <time>2022-07-17T13:51:54Z</time>
      </trkpt>
      <trkpt lat="44.8818" lon="6.66869">
        <ele>1406.2</ele>
        <time>2022-07-17T13:51:55Z</time>
      </trkpt>
      <trkpt lat="44.88184" lon="6.66878">
        <ele>1406</ele>
        <time>2022-07-17T13:51:56Z</time>
      </trkpt>
      <trkpt lat="44.88189" lon="6.66888">
        <ele>1406</ele>
        <time>2022-07-17T13:51:57Z</time>
      </trkpt>
      <trkpt lat="44.88194" lon="6.66897">
        <ele>1405.6</ele>
        <time>2022-07-17T13:51:58Z</time>
      </trkpt>
      <trkpt lat="44.88198" lon="6.66907">
        <ele>1405.6</ele>
        <time>2022-07-17T13:51:59Z</time>
      </trkpt>
      <trkpt lat="44.882" lon="6.66916">
        <ele>1405.6</ele>
        <time>2022-07-17T13:52:00Z</time>
      </trkpt>
      <trkpt lat="44.882" lon="6.66926">
        <ele>1405.4</ele>
        <time>2022-07-17T13:52:01Z</time>
      </trkpt>
      <trkpt lat="44.88198" lon="6.66936">
        <ele>1405.4</ele>
        <time>2022-07-17T13:52:02Z</time>
      </trkpt>
      <trkpt lat="44.88194" lon="6.66945">
        <ele>1405.4</ele>
        <time>2022-07-17T13:52:03Z</time>
      </trkpt>
      <trkpt lat="44.88189" lon="6.66951">
        <ele>1405</ele>
        <time>2022-07-17T13:52:04Z</time>
      </trkpt>
      <trkpt lat="44.88182" lon="6.66954">
        <ele>1405</ele>
        <time>2022-07-17T13:52:05Z</time>
      </trkpt>
      <trkpt lat="44.88175" lon="6.66955">
        <ele>1405</ele>
        <time>2022-07-17T13:52:06Z</time>
      </trkpt>
      <trkpt lat="44.88168" lon="6.66957">
        <ele>1405</ele>
        <time>2022-07-17T13:52:07Z</time>
      </trkpt>
      <trkpt lat="44.88161" lon="6.66958">
        <ele>1405</ele>
        <time>2022-07-17T13:52:08Z</time>
      </trkpt>
      <trkpt lat="44.88154" lon="6.6696">
        <ele>1405</ele>
        <time>2022-07-17T13:52:09Z</time>
      </trkpt>
      <trkpt lat="44.88147" lon="6.66963">
        <ele>1404.8</ele>
        <time>2022-07-17T13:52:10Z</time>
      </trkpt>
      <trkpt lat="44.88139" lon="6.66966">
        <ele>1404.8</ele>
        <time>2022-07-17T13:52:11Z</time>
      </trkpt>
      <trkpt lat="44.88131" lon="6.66971">
        <ele>1404.4</ele>
        <time>2022-07-17T13:52:12Z</time>
      </trkpt>
      <trkpt lat="44.88123" lon="6.66975">
        <ele>1404.2</ele>
        <time>2022-07-17T13:52:13Z</time>
      </trkpt>
      <trkpt lat="44.88115" lon="6.66979">
        <ele>1404</ele>
        <time>2022-07-17T13:52:14Z</time>
      </trkpt>
      <trkpt lat="44.88106" lon="6.66982">
        <ele>1404</ele>
        <time>2022-07-17T13:52:15Z</time>
      </trkpt>
      <trkpt lat="44.88098" lon="6.66984">
        <ele>1403.6</ele>
        <time>2022-07-17T13:52:16Z</time>
      </trkpt>
      <trkpt lat="44.88089" lon="6.66985">
        <ele>1403.6</ele>
        <time>2022-07-17T13:52:17Z</time>
      </trkpt>
      <trkpt lat="44.8808" lon="6.66985">
        <ele>1403.2</ele>
        <time>2022-07-17T13:52:18Z</time>
      </trkpt>
      <trkpt lat="44.88071" lon="6.66985">
        <ele>1403.2</ele>
        <time>2022-07-17T13:52:19Z</time>
      </trkpt>
      <trkpt lat="44.88064" lon="6.66984">
        <ele>1403.2</ele>
        <time>2022-07-17T13:52:20Z</time>
      </trkpt>
      <trkpt lat="44.88056" lon="6.66985">
        <ele>1403</ele>
        <time>2022-07-17T13:52:21Z</time>
      </trkpt>
      <trkpt lat="44.88049" lon="6.66989">
        <ele>1402.6</ele>
        <time>2022-07-17T13:52:22Z</time>
      </trkpt>
      <trkpt lat="44.88043" lon="6.66994">
        <ele>1402.4</ele>
        <time>2022-07-17T13:52:23Z</time>
      </trkpt>
      <trkpt lat="44.88039" lon="6.67001">
        <ele>1402</ele>
        <time>2022-07-17T13:52:24Z</time>
      </trkpt>
      <trkpt lat="44.88037" lon="6.67011">
        <ele>1401.8</ele>
        <time>2022-07-17T13:52:25Z</time>
      </trkpt>
      <trkpt lat="44.88037" lon="6.67021">
        <ele>1401.4</ele>
        <time>2022-07-17T13:52:26Z</time>
      </trkpt>
      <trkpt lat="44.88036" lon="6.67032">
        <ele>1401</ele>
        <time>2022-07-17T13:52:27Z</time>
      </trkpt>
      <trkpt lat="44.88035" lon="6.67043">
        <ele>1400.6</ele>
        <time>2022-07-17T13:52:28Z</time>
      </trkpt>
      <trkpt lat="44.88034" lon="6.67054">
        <ele>1400.4</ele>
        <time>2022-07-17T13:52:29Z</time>
      </trkpt>
      <trkpt lat="44.88032" lon="6.67065">
        <ele>1400</ele>
        <time>2022-07-17T13:52:30Z</time>
      </trkpt>
      <trkpt lat="44.88031" lon="6.67076">
        <ele>1399.8</ele>
        <time>2022-07-17T13:52:31Z</time>
      </trkpt>
      <trkpt lat="44.8803" lon="6.67087">
        <ele>1399.6</ele>
        <time>2022-07-17T13:52:32Z</time>
      </trkpt>
      <trkpt lat="44.88029" lon="6.67097">
        <ele>1399.6</ele>
        <time>2022-07-17T13:52:33Z</time>
      </trkpt>
      <trkpt lat="44.88028" lon="6.67108">
        <ele>1399.2</ele>
        <time>2022-07-17T13:52:34Z</time>
      </trkpt>
      <trkpt lat="44.88025" lon="6.67118">
        <ele>1398.6</ele>
        <time>2022-07-17T13:52:35Z</time>
      </trkpt>
      <trkpt lat="44.88021" lon="6.67127">
        <ele>1398.2</ele>
        <time>2022-07-17T13:52:36Z</time>
      </trkpt>
      <trkpt lat="44.88015" lon="6.67135">
        <ele>1398</ele>
        <time>2022-07-17T13:52:37Z</time>
      </trkpt>
      <trkpt lat="44.88009" lon="6.67141">
        <ele>1397.6</ele>
        <time>2022-07-17T13:52:38Z</time>
      </trkpt>
      <trkpt lat="44.88003" lon="6.67147">
        <ele>1397.2</ele>
        <time>2022-07-17T13:52:39Z</time>
      </trkpt>
      <trkpt lat="44.87999" lon="6.67155">
        <ele>1396.8</ele>
        <time>2022-07-17T13:52:40Z</time>
      </trkpt>
      <trkpt lat="44.87997" lon="6.67163">
        <ele>1396.8</ele>
        <time>2022-07-17T13:52:41Z</time>
      </trkpt>
      <trkpt lat="44.87996" lon="6.67172">
        <ele>1396.8</ele>
        <time>2022-07-17T13:52:42Z</time>
      </trkpt>
      <trkpt lat="44.87997" lon="6.67181">
        <ele>1396.8</ele>
        <time>2022-07-17T13:52:43Z</time>
      </trkpt>
      <trkpt lat="44.87998" lon="6.67191">
        <ele>1396.4</ele>
        <time>2022-07-17T13:52:44Z</time>
      </trkpt>
      <trkpt lat="44.87999" lon="6.672">
        <ele>1396</ele>
        <time>2022-07-17T13:52:45Z</time>
      </trkpt>
      <trkpt lat="44.87998" lon="6.67209">
        <ele>1395.6</ele>
        <time>2022-07-17T13:52:46Z</time>
      </trkpt>
      <trkpt lat="44.87998" lon="6.67218">
        <ele>1395.2</ele>
        <time>2022-07-17T13:52:47Z</time>
      </trkpt>
      <trkpt lat="44.87996" lon="6.67227">
        <ele>1394.8</ele>
        <time>2022-07-17T13:52:48Z</time>
      </trkpt>
      <trkpt lat="44.87995" lon="6.67235">
        <ele>1394.6</ele>
        <time>2022-07-17T13:52:49Z</time>
      </trkpt>
      <trkpt lat="44.87995" lon="6.67244">
        <ele>1394.4</ele>
        <time>2022-07-17T13:52:50Z</time>
      </trkpt>
      <trkpt lat="44.87995" lon="6.67252">
        <ele>1394.4</ele>
        <time>2022-07-17T13:52:51Z</time>
      </trkpt>
      <trkpt lat="44.87996" lon="6.67261">
        <ele>1394</ele>
        <time>2022-07-17T13:52:52Z</time>
      </trkpt>
      <trkpt lat="44.87996" lon="6.67269">
        <ele>1394</ele>
        <time>2022-07-17T13:52:53Z</time>
      </trkpt>
      <trkpt lat="44.87997" lon="6.67278">
        <ele>1393.8</ele>
        <time>2022-07-17T13:52:54Z</time>
      </trkpt>
      <trkpt lat="44.87998" lon="6.67286">
        <ele>1393.4</ele>
        <time>2022-07-17T13:52:55Z</time>
      </trkpt>
      <trkpt lat="44.87998" lon="6.67294">
        <ele>1393.2</ele>
        <time>2022-07-17T13:52:56Z</time>
      </trkpt>
      <trkpt lat="44.87999" lon="6.67303">
        <ele>1393</ele>
        <time>2022-07-17T13:52:57Z</time>
      </trkpt>
      <trkpt lat="44.87998" lon="6.67311">
        <ele>1393</ele>
        <time>2022-07-17T13:52:58Z</time>
      </trkpt>
      <trkpt lat="44.87997" lon="6.67319">
        <ele>1393</ele>
        <time>2022-07-17T13:52:59Z</time>
      </trkpt>
      <trkpt lat="44.87996" lon="6.67327">
        <ele>1393</ele>
        <time>2022-07-17T13:53:00Z</time>
      </trkpt>
      <trkpt lat="44.87995" lon="6.67334">
        <ele>1393</ele>
        <time>2022-07-17T13:53:01Z</time>
      </trkpt>
      <trkpt lat="44.87994" lon="6.67342">
        <ele>1393</ele>
        <time>2022-07-17T13:53:02Z</time>
      </trkpt>
      <trkpt lat="44.87992" lon="6.67349">
        <ele>1393</ele>
        <time>2022-07-17T13:53:03Z</time>
      </trkpt>
      <trkpt lat="44.8799" lon="6.67357">
        <ele>1393</ele>
        <time>2022-07-17T13:53:04Z</time>
      </trkpt>
      <trkpt lat="44.87989" lon="6.67364">
        <ele>1393</ele>
        <time>2022-07-17T13:53:05Z</time>
      </trkpt>
      <trkpt lat="44.87988" lon="6.67371">
        <ele>1393</ele>
        <time>2022-07-17T13:53:06Z</time>
      </trkpt>
      <trkpt lat="44.87986" lon="6.67378">
        <ele>1393</ele>
        <time>2022-07-17T13:53:07Z</time>
      </trkpt>
      <trkpt lat="44.87986" lon="6.67384">
        <ele>1393</ele>
        <time>2022-07-17T13:53:08Z</time>
      </trkpt>
      <trkpt lat="44.87985" lon="6.67391">
        <ele>1393.4</ele>
        <time>2022-07-17T13:53:09Z</time>
      </trkpt>
      <trkpt lat="44.87986" lon="6.67397">
        <ele>1393.4</ele>
        <time>2022-07-17T13:53:10Z</time>
      </trkpt>
      <trkpt lat="44.87986" lon="6.67404">
        <ele>1393.4</ele>
        <time>2022-07-17T13:53:11Z</time>
      </trkpt>
      <trkpt lat="44.87986" lon="6.6741">
        <ele>1393.4</ele>
        <time>2022-07-17T13:53:12Z</time>
      </trkpt>
      <trkpt lat="44.87986" lon="6.67416">
        <ele>1393.4</ele>
        <time>2022-07-17T13:53:13Z</time>
      </trkpt>
      <trkpt lat="44.87985" lon="6.67423">
        <ele>1393.4</ele>
        <time>2022-07-17T13:53:14Z</time>
      </trkpt>
      <trkpt lat="44.87984" lon="6.6743">
        <ele>1393.4</ele>
        <time>2022-07-17T13:53:15Z</time>
      </trkpt>
      <trkpt lat="44.87983" lon="6.67436">
        <ele>1393.4</ele>
        <time>2022-07-17T13:53:16Z</time>
      </trkpt>
      <trkpt lat="44.87981" lon="6.67442">
        <ele>1393.4</ele>
        <time>2022-07-17T13:53:17Z</time>
      </trkpt>
      <trkpt lat="44.87979" lon="6.67448">
        <ele>1393.4</ele>
        <time>2022-07-17T13:53:18Z</time>
      </trkpt>
      <trkpt lat="44.87976" lon="6.67453">
        <ele>1393.6</ele>
        <time>2022-07-17T13:53:19Z</time>
      </trkpt>
      <trkpt lat="44.87973" lon="6.67458">
        <ele>1393.6</ele>
        <time>2022-07-17T13:53:20Z</time>
      </trkpt>
      <trkpt lat="44.87971" lon="6.67464">
        <ele>1394</ele>
        <time>2022-07-17T13:53:21Z</time>
      </trkpt>
      <trkpt lat="44.87968" lon="6.67469">
        <ele>1394</ele>
        <time>2022-07-17T13:53:22Z</time>
      </trkpt>
      <trkpt lat="44.87966" lon="6.67475">
        <ele>1394.2</ele>
        <time>2022-07-17T13:53:23Z</time>
      </trkpt>
      <trkpt lat="44.87964" lon="6.6748">
        <ele>1394.2</ele>
        <time>2022-07-17T13:53:24Z</time>
      </trkpt>
      <trkpt lat="44.87962" lon="6.67486">
        <ele>1394.2</ele>
        <time>2022-07-17T13:53:25Z</time>
      </trkpt>
      <trkpt lat="44.8796" lon="6.67492">
        <ele>1394.2</ele>
        <time>2022-07-17T13:53:26Z</time>
      </trkpt>
      <trkpt lat="44.87958" lon="6.67498">
        <ele>1394.2</ele>
        <time>2022-07-17T13:53:27Z</time>
      </trkpt>
      <trkpt lat="44.87956" lon="6.67505">
        <ele>1394.2</ele>
        <time>2022-07-17T13:53:28Z</time>
      </trkpt>
      <trkpt lat="44.87955" lon="6.67512">
        <ele>1394.4</ele>
        <time>2022-07-17T13:53:29Z</time>
      </trkpt>
      <trkpt lat="44.87954" lon="6.67519">
        <ele>1394.4</ele>
        <time>2022-07-17T13:53:30Z</time>
      </trkpt>
      <trkpt lat="44.87953" lon="6.67526">
        <ele>1394.4</ele>
        <time>2022-07-17T13:53:31Z</time>
      </trkpt>
      <trkpt lat="44.87952" lon="6.67533">
        <ele>1394.4</ele>
        <time>2022-07-17T13:53:32Z</time>
      </trkpt>
      <trkpt lat="44.87951" lon="6.67539">
        <ele>1394.4</ele>
        <time>2022-07-17T13:53:33Z</time>
      </trkpt>
      <trkpt lat="44.8795" lon="6.67546">
        <ele>1394</ele>
        <time>2022-07-17T13:53:34Z</time>
      </trkpt>
      <trkpt lat="44.87949" lon="6.67552">
        <ele>1393.8</ele>
        <time>2022-07-17T13:53:35Z</time>
      </trkpt>
      <trkpt lat="44.87949" lon="6.67557">
        <ele>1393.8</ele>
        <time>2022-07-17T13:53:36Z</time>
      </trkpt>
      <trkpt lat="44.87948" lon="6.67563">
        <ele>1393.8</ele>
        <time>2022-07-17T13:53:37Z</time>
      </trkpt>
      <trkpt lat="44.87948" lon="6.67569">
        <ele>1393.8</ele>
        <time>2022-07-17T13:53:38Z</time>
      </trkpt>
      <trkpt lat="44.87947" lon="6.67575">
        <ele>1393.8</ele>
        <time>2022-07-17T13:53:39Z</time>
      </trkpt>
      <trkpt lat="44.87947" lon="6.67582">
        <ele>1393.8</ele>
        <time>2022-07-17T13:53:40Z</time>
      </trkpt>
      <trkpt lat="44.87946" lon="6.67589">
        <ele>1393.8</ele>
        <time>2022-07-17T13:53:41Z</time>
      </trkpt>
      <trkpt lat="44.87946" lon="6.67596">
        <ele>1393.8</ele>
        <time>2022-07-17T13:53:42Z</time>
      </trkpt>
      <trkpt lat="44.87945" lon="6.67603">
        <ele>1393.8</ele>
        <time>2022-07-17T13:53:43Z</time>
      </trkpt>
      <trkpt lat="44.87945" lon="6.6761">
        <ele>1393.8</ele>
        <time>2022-07-17T13:53:44Z</time>
      </trkpt>
      <trkpt lat="44.87945" lon="6.67616">
        <ele>1393.8</ele>
        <time>2022-07-17T13:53:45Z</time>
      </trkpt>
      <trkpt lat="44.87944" lon="6.67622">
        <ele>1393.8</ele>
        <time>2022-07-17T13:53:46Z</time>
      </trkpt>
      <trkpt lat="44.87943" lon="6.67627">
        <ele>1393.8</ele>
        <time>2022-07-17T13:53:47Z</time>
      </trkpt>
      <trkpt lat="44.87942" lon="6.67633">
        <ele>1393.8</ele>
        <time>2022-07-17T13:53:48Z</time>
      </trkpt>
      <trkpt lat="44.87942" lon="6.67638">
        <ele>1393.8</ele>
        <time>2022-07-17T13:53:49Z</time>
      </trkpt>
      <trkpt lat="44.87941" lon="6.67645">
        <ele>1393.8</ele>
        <time>2022-07-17T13:53:50Z</time>
      </trkpt>
      <trkpt lat="44.8794" lon="6.67651">
        <ele>1393.8</ele>
        <time>2022-07-17T13:53:51Z</time>
      </trkpt>
      <trkpt lat="44.87939" lon="6.67657">
        <ele>1393.8</ele>
        <time>2022-07-17T13:53:52Z</time>
      </trkpt>
      <trkpt lat="44.87938" lon="6.67664">
        <ele>1393.8</ele>
        <time>2022-07-17T13:53:53Z</time>
      </trkpt>
      <trkpt lat="44.87937" lon="6.67671">
        <ele>1393.8</ele>
        <time>2022-07-17T13:53:54Z</time>
      </trkpt>
      <trkpt lat="44.87936" lon="6.67678">
        <ele>1393.8</ele>
        <time>2022-07-17T13:53:55Z</time>
      </trkpt>
      <trkpt lat="44.87935" lon="6.67685">
        <ele>1393.8</ele>
        <time>2022-07-17T13:53:56Z</time>
      </trkpt>
      <trkpt lat="44.87934" lon="6.67692">
        <ele>1393.8</ele>
        <time>2022-07-17T13:53:57Z</time>
      </trkpt>
      <trkpt lat="44.87932" lon="6.67698">
        <ele>1393.8</ele>
        <time>2022-07-17T13:53:58Z</time>
      </trkpt>
      <trkpt lat="44.8793" lon="6.67705">
        <ele>1393.8</ele>
        <time>2022-07-17T13:53:59Z</time>
      </trkpt>
      <trkpt lat="44.87929" lon="6.67711">
        <ele>1393.8</ele>
        <time>2022-07-17T13:54:00Z</time>
      </trkpt>
      <trkpt lat="44.87928" lon="6.67718">
        <ele>1393.8</ele>
        <time>2022-07-17T13:54:01Z</time>
      </trkpt>
      <trkpt lat="44.87927" lon="6.67724">
        <ele>1393.8</ele>
        <time>2022-07-17T13:54:02Z</time>
      </trkpt>
      <trkpt lat="44.87926" lon="6.6773">
        <ele>1394.2</ele>
        <time>2022-07-17T13:54:03Z</time>
      </trkpt>
      <trkpt lat="44.87924" lon="6.67735">
        <ele>1394.2</ele>
        <time>2022-07-17T13:54:04Z</time>
      </trkpt>
      <trkpt lat="44.87922" lon="6.67741">
        <ele>1394.2</ele>
        <time>2022-07-17T13:54:05Z</time>
      </trkpt>
      <trkpt lat="44.87921" lon="6.67747">
        <ele>1394.4</ele>
        <time>2022-07-17T13:54:06Z</time>
      </trkpt>
      <trkpt lat="44.87919" lon="6.67753">
        <ele>1394.4</ele>
        <time>2022-07-17T13:54:07Z</time>
      </trkpt>
      <trkpt lat="44.87918" lon="6.67759">
        <ele>1394.4</ele>
        <time>2022-07-17T13:54:08Z</time>
      </trkpt>
      <trkpt lat="44.87916" lon="6.67765">
        <ele>1394.6</ele>
        <time>2022-07-17T13:54:09Z</time>
      </trkpt>
      <trkpt lat="44.87915" lon="6.67771">
        <ele>1394.6</ele>
        <time>2022-07-17T13:54:10Z</time>
      </trkpt>
      <trkpt lat="44.87913" lon="6.67777">
        <ele>1395</ele>
        <time>2022-07-17T13:54:11Z</time>
      </trkpt>
      <trkpt lat="44.87911" lon="6.67783">
        <ele>1395</ele>
        <time>2022-07-17T13:54:12Z</time>
      </trkpt>
      <trkpt lat="44.8791" lon="6.67789">
        <ele>1395</ele>
        <time>2022-07-17T13:54:13Z</time>
      </trkpt>
      <trkpt lat="44.87908" lon="6.67795">
        <ele>1395</ele>
        <time>2022-07-17T13:54:14Z</time>
      </trkpt>
      <trkpt lat="44.87907" lon="6.67801">
        <ele>1395</ele>
        <time>2022-07-17T13:54:15Z</time>
      </trkpt>
      <trkpt lat="44.87905" lon="6.67807">
        <ele>1395.2</ele>
        <time>2022-07-17T13:54:16Z</time>
      </trkpt>
      <trkpt lat="44.87904" lon="6.67812">
        <ele>1395.2</ele>
        <time>2022-07-17T13:54:17Z</time>
      </trkpt>
      <trkpt lat="44.87903" lon="6.67818">
        <ele>1395.2</ele>
        <time>2022-07-17T13:54:18Z</time>
      </trkpt>
      <trkpt lat="44.87902" lon="6.67824">
        <ele>1395.2</ele>
        <time>2022-07-17T13:54:19Z</time>
      </trkpt>
      <trkpt lat="44.87901" lon="6.6783">
        <ele>1395.2</ele>
        <time>2022-07-17T13:54:20Z</time>
      </trkpt>
      <trkpt lat="44.87899" lon="6.67835">
        <ele>1395.6</ele>
        <time>2022-07-17T13:54:21Z</time>
      </trkpt>
      <trkpt lat="44.87898" lon="6.67841">
        <ele>1395.8</ele>
        <time>2022-07-17T13:54:22Z</time>
      </trkpt>
      <trkpt lat="44.87897" lon="6.67847">
        <ele>1395.8</ele>
        <time>2022-07-17T13:54:23Z</time>
      </trkpt>
      <trkpt lat="44.87896" lon="6.67853">
        <ele>1395.8</ele>
        <time>2022-07-17T13:54:24Z</time>
      </trkpt>
      <trkpt lat="44.87894" lon="6.67858">
        <ele>1395.8</ele>
        <time>2022-07-17T13:54:25Z</time>
      </trkpt>
      <trkpt lat="44.87893" lon="6.67864">
        <ele>1396.2</ele>
        <time>2022-07-17T13:54:26Z</time>
      </trkpt>
      <trkpt lat="44.87892" lon="6.6787">
        <ele>1396.2</ele>
        <time>2022-07-17T13:54:27Z</time>
      </trkpt>
      <trkpt lat="44.87892" lon="6.67876">
        <ele>1396</ele>
        <time>2022-07-17T13:54:28Z</time>
      </trkpt>
      <trkpt lat="44.87892" lon="6.67882">
        <ele>1396</ele>
        <time>2022-07-17T13:54:29Z</time>
      </trkpt>
      <trkpt lat="44.87891" lon="6.67889">
        <ele>1396</ele>
        <time>2022-07-17T13:54:30Z</time>
      </trkpt>
      <trkpt lat="44.8789" lon="6.67894">
        <ele>1395.6</ele>
        <time>2022-07-17T13:54:31Z</time>
      </trkpt>
      <trkpt lat="44.8789" lon="6.67901">
        <ele>1395.6</ele>
        <time>2022-07-17T13:54:32Z</time>
      </trkpt>
      <trkpt lat="44.87889" lon="6.67907">
        <ele>1395.6</ele>
        <time>2022-07-17T13:54:33Z</time>
      </trkpt>
      <trkpt lat="44.87888" lon="6.67913">
        <ele>1395.6</ele>
        <time>2022-07-17T13:54:34Z</time>
      </trkpt>
      <trkpt lat="44.87886" lon="6.6792">
        <ele>1395.6</ele>
        <time>2022-07-17T13:54:35Z</time>
      </trkpt>
      <trkpt lat="44.87884" lon="6.67925">
        <ele>1395.6</ele>
        <time>2022-07-17T13:54:36Z</time>
      </trkpt>
      <trkpt lat="44.87883" lon="6.67931">
        <ele>1395.6</ele>
        <time>2022-07-17T13:54:37Z</time>
      </trkpt>
      <trkpt lat="44.87882" lon="6.67936">
        <ele>1395.6</ele>
        <time>2022-07-17T13:54:38Z</time>
      </trkpt>
      <trkpt lat="44.8788" lon="6.67941">
        <ele>1396</ele>
        <time>2022-07-17T13:54:39Z</time>
      </trkpt>
      <trkpt lat="44.87879" lon="6.67946">
        <ele>1396</ele>
        <time>2022-07-17T13:54:40Z</time>
      </trkpt>
      <trkpt lat="44.87877" lon="6.67951">
        <ele>1396</ele>
        <time>2022-07-17T13:54:41Z</time>
      </trkpt>
      <trkpt lat="44.87875" lon="6.67956">
        <ele>1396.2</ele>
        <time>2022-07-17T13:54:42Z</time>
      </trkpt>
      <trkpt lat="44.87872" lon="6.67961">
        <ele>1396.2</ele>
        <time>2022-07-17T13:54:43Z</time>
      </trkpt>
      <trkpt lat="44.8787" lon="6.67966">
        <ele>1396.2</ele>
        <time>2022-07-17T13:54:44Z</time>
      </trkpt>
      <trkpt lat="44.87867" lon="6.6797">
        <ele>1396.4</ele>
        <time>2022-07-17T13:54:45Z</time>
      </trkpt>
      <trkpt lat="44.87865" lon="6.67974">
        <ele>1396.4</ele>
        <time>2022-07-17T13:54:46Z</time>
      </trkpt>
      <trkpt lat="44.87863" lon="6.67978">
        <ele>1396.6</ele>
        <time>2022-07-17T13:54:47Z</time>
      </trkpt>
      <trkpt lat="44.87861" lon="6.67983">
        <ele>1396.6</ele>
        <time>2022-07-17T13:54:48Z</time>
      </trkpt>
      <trkpt lat="44.87858" lon="6.67987">
        <ele>1396.6</ele>
        <time>2022-07-17T13:54:49Z</time>
      </trkpt>
      <trkpt lat="44.87856" lon="6.67992">
        <ele>1396.8</ele>
        <time>2022-07-17T13:54:50Z</time>
      </trkpt>
      <trkpt lat="44.87854" lon="6.67996">
        <ele>1396.8</ele>
        <time>2022-07-17T13:54:51Z</time>
      </trkpt>
      <trkpt lat="44.87853" lon="6.68">
        <ele>1397.2</ele>
        <time>2022-07-17T13:54:52Z</time>
      </trkpt>
      <trkpt lat="44.87851" lon="6.68004">
        <ele>1397.2</ele>
        <time>2022-07-17T13:54:53Z</time>
      </trkpt>
      <trkpt lat="44.87848" lon="6.68008">
        <ele>1397.4</ele>
        <time>2022-07-17T13:54:54Z</time>
      </trkpt>
      <trkpt lat="44.87847" lon="6.68011">
        <ele>1397.4</ele>
        <time>2022-07-17T13:54:55Z</time>
      </trkpt>
      <trkpt lat="44.87845" lon="6.68015">
        <ele>1397.4</ele>
        <time>2022-07-17T13:54:56Z</time>
      </trkpt>
      <trkpt lat="44.87843" lon="6.68018">
        <ele>1397.4</ele>
        <time>2022-07-17T13:54:57Z</time>
      </trkpt>
      <trkpt lat="44.87841" lon="6.68022">
        <ele>1397.6</ele>
        <time>2022-07-17T13:54:58Z</time>
      </trkpt>
      <trkpt lat="44.8784" lon="6.68025">
        <ele>1397.6</ele>
        <time>2022-07-17T13:54:59Z</time>
      </trkpt>
      <trkpt lat="44.87838" lon="6.68029">
        <ele>1397.6</ele>
        <time>2022-07-17T13:55:00Z</time>
      </trkpt>
      <trkpt lat="44.87836" lon="6.68032">
        <ele>1397.6</ele>
        <time>2022-07-17T13:55:01Z</time>
      </trkpt>
      <trkpt lat="44.87834" lon="6.68035">
        <ele>1397.6</ele>
        <time>2022-07-17T13:55:02Z</time>
      </trkpt>
      <trkpt lat="44.87832" lon="6.68038">
        <ele>1397.6</ele>
        <time>2022-07-17T13:55:03Z</time>
      </trkpt>
      <trkpt lat="44.8783" lon="6.6804">
        <ele>1397.6</ele>
        <time>2022-07-17T13:55:04Z</time>
      </trkpt>
      <trkpt lat="44.87828" lon="6.68042">
        <ele>1397.6</ele>
        <time>2022-07-17T13:55:05Z</time>
      </trkpt>
      <trkpt lat="44.87826" lon="6.68045">
        <ele>1397.8</ele>
        <time>2022-07-17T13:55:06Z</time>
      </trkpt>
      <trkpt lat="44.87825" lon="6.68049">
        <ele>1397.8</ele>
        <time>2022-07-17T13:55:07Z</time>
      </trkpt>
      <trkpt lat="44.87823" lon="6.68053">
        <ele>1398</ele>
        <time>2022-07-17T13:55:08Z</time>
      </trkpt>
      <trkpt lat="44.87821" lon="6.68056">
        <ele>1398</ele>
        <time>2022-07-17T13:55:09Z</time>
      </trkpt>
      <trkpt lat="44.8782" lon="6.6806">
        <ele>1398.4</ele>
        <time>2022-07-17T13:55:10Z</time>
      </trkpt>
      <trkpt lat="44.87818" lon="6.68064">
        <ele>1398.4</ele>
        <time>2022-07-17T13:55:11Z</time>
      </trkpt>
      <trkpt lat="44.87816" lon="6.68069">
        <ele>1398.6</ele>
        <time>2022-07-17T13:55:12Z</time>
      </trkpt>
      <trkpt lat="44.87815" lon="6.68073">
        <ele>1398.6</ele>
        <time>2022-07-17T13:55:13Z</time>
      </trkpt>
      <trkpt lat="44.87813" lon="6.68077">
        <ele>1399</ele>
        <time>2022-07-17T13:55:14Z</time>
      </trkpt>
      <trkpt lat="44.87811" lon="6.6808">
        <ele>1399</ele>
        <time>2022-07-17T13:55:15Z</time>
      </trkpt>
      <trkpt lat="44.87809" lon="6.68084">
        <ele>1399.2</ele>
        <time>2022-07-17T13:55:16Z</time>
      </trkpt>
      <trkpt lat="44.87807" lon="6.68088">
        <ele>1399.2</ele>
        <time>2022-07-17T13:55:17Z</time>
      </trkpt>
      <trkpt lat="44.87806" lon="6.68091">
        <ele>1399.2</ele>
        <time>2022-07-17T13:55:18Z</time>
      </trkpt>
      <trkpt lat="44.87804" lon="6.68095">
        <ele>1399.4</ele>
        <time>2022-07-17T13:55:19Z</time>
      </trkpt>
      <trkpt lat="44.87802" lon="6.68098">
        <ele>1399.4</ele>
        <time>2022-07-17T13:55:20Z</time>
      </trkpt>
      <trkpt lat="44.878" lon="6.68101">
        <ele>1399.6</ele>
        <time>2022-07-17T13:55:21Z</time>
      </trkpt>
      <trkpt lat="44.87798" lon="6.68105">
        <ele>1399.6</ele>
        <time>2022-07-17T13:55:22Z</time>
      </trkpt>
      <trkpt lat="44.87796" lon="6.68107">
        <ele>1399.6</ele>
        <time>2022-07-17T13:55:23Z</time>
      </trkpt>
      <trkpt lat="44.87794" lon="6.6811">
        <ele>1400</ele>
        <time>2022-07-17T13:55:24Z</time>
      </trkpt>
      <trkpt lat="44.87792" lon="6.68113">
        <ele>1400</ele>
        <time>2022-07-17T13:55:25Z</time>
      </trkpt>
      <trkpt lat="44.8779" lon="6.68116">
        <ele>1400.2</ele>
        <time>2022-07-17T13:55:26Z</time>
      </trkpt>
      <trkpt lat="44.87789" lon="6.68119">
        <ele>1400.2</ele>
        <time>2022-07-17T13:55:27Z</time>
      </trkpt>
      <trkpt lat="44.87787" lon="6.68122">
        <ele>1400.6</ele>
        <time>2022-07-17T13:55:28Z</time>
      </trkpt>
      <trkpt lat="44.87785" lon="6.68124">
        <ele>1400.6</ele>
        <time>2022-07-17T13:55:29Z</time>
      </trkpt>
      <trkpt lat="44.87783" lon="6.68126">
        <ele>1400.8</ele>
        <time>2022-07-17T13:55:30Z</time>
      </trkpt>
      <trkpt lat="44.87782" lon="6.68128">
        <ele>1400.8</ele>
        <time>2022-07-17T13:55:31Z</time>
      </trkpt>
      <trkpt lat="44.87782" lon="6.68129">
        <ele>1400.8</ele>
        <time>2022-07-17T13:55:33Z</time>
      </trkpt>
      <trkpt lat="44.87782" lon="6.68129">
        <ele>1400.6</ele>
        <time>2022-07-17T13:59:36Z</time>
      </trkpt>
      <trkpt lat="44.8778" lon="6.68135">
        <ele>1401</ele>
        <time>2022-07-17T14:03:23Z</time>
      </trkpt>
      <trkpt lat="44.87779" lon="6.68137">
        <ele>1401</ele>
        <time>2022-07-17T14:03:24Z</time>
      </trkpt>
      <trkpt lat="44.87778" lon="6.68138">
        <ele>1401</ele>
        <time>2022-07-17T14:03:25Z</time>
      </trkpt>
      <trkpt lat="44.87777" lon="6.68139">
        <ele>1401</ele>
        <time>2022-07-17T14:03:26Z</time>
      </trkpt>
      <trkpt lat="44.87777" lon="6.68141">
        <ele>1401</ele>
        <time>2022-07-17T14:03:27Z</time>
      </trkpt>
      <trkpt lat="44.87776" lon="6.68142">
        <ele>1401.2</ele>
        <time>2022-07-17T14:03:28Z</time>
      </trkpt>
      <trkpt lat="44.87775" lon="6.68142">
        <ele>1401.2</ele>
        <time>2022-07-17T14:03:29Z</time>
      </trkpt>
      <trkpt lat="44.87774" lon="6.68143">
        <ele>1401.2</ele>
        <time>2022-07-17T14:03:30Z</time>
      </trkpt>
      <trkpt lat="44.87772" lon="6.68146">
        <ele>1401.4</ele>
        <time>2022-07-17T14:03:39Z</time>
      </trkpt>
      <trkpt lat="44.87771" lon="6.68148">
        <ele>1401.4</ele>
        <time>2022-07-17T14:03:40Z</time>
      </trkpt>
      <trkpt lat="44.8777" lon="6.6815">
        <ele>1401.8</ele>
        <time>2022-07-17T14:03:41Z</time>
      </trkpt>
      <trkpt lat="44.87768" lon="6.68152">
        <ele>1401.8</ele>
        <time>2022-07-17T14:03:42Z</time>
      </trkpt>
      <trkpt lat="44.87767" lon="6.68154">
        <ele>1402</ele>
        <time>2022-07-17T14:03:43Z</time>
      </trkpt>
      <trkpt lat="44.87766" lon="6.68157">
        <ele>1402</ele>
        <time>2022-07-17T14:03:44Z</time>
      </trkpt>
      <trkpt lat="44.87765" lon="6.68159">
        <ele>1402</ele>
        <time>2022-07-17T14:03:45Z</time>
      </trkpt>
      <trkpt lat="44.87764" lon="6.68162">
        <ele>1402</ele>
        <time>2022-07-17T14:03:46Z</time>
      </trkpt>
      <trkpt lat="44.87763" lon="6.68164">
        <ele>1402</ele>
        <time>2022-07-17T14:03:47Z</time>
      </trkpt>
      <trkpt lat="44.87762" lon="6.68167">
        <ele>1402.4</ele>
        <time>2022-07-17T14:03:48Z</time>
      </trkpt>
      <trkpt lat="44.87761" lon="6.6817">
        <ele>1402.6</ele>
        <time>2022-07-17T14:03:49Z</time>
      </trkpt>
      <trkpt lat="44.8776" lon="6.68173">
        <ele>1402.6</ele>
        <time>2022-07-17T14:03:50Z</time>
      </trkpt>
      <trkpt lat="44.87758" lon="6.68176">
        <ele>1402.6</ele>
        <time>2022-07-17T14:03:51Z</time>
      </trkpt>
      <trkpt lat="44.87757" lon="6.68179">
        <ele>1402.6</ele>
        <time>2022-07-17T14:03:52Z</time>
      </trkpt>
      <trkpt lat="44.87756" lon="6.68182">
        <ele>1402.8</ele>
        <time>2022-07-17T14:03:53Z</time>
      </trkpt>
      <trkpt lat="44.87755" lon="6.68185">
        <ele>1402.8</ele>
        <time>2022-07-17T14:03:54Z</time>
      </trkpt>
      <trkpt lat="44.87754" lon="6.68188">
        <ele>1402.8</ele>
        <time>2022-07-17T14:03:55Z</time>
      </trkpt>
      <trkpt lat="44.87753" lon="6.68191">
        <ele>1403.2</ele>
        <time>2022-07-17T14:03:56Z</time>
      </trkpt>
      <trkpt lat="44.87751" lon="6.68194">
        <ele>1403.2</ele>
        <time>2022-07-17T14:03:57Z</time>
      </trkpt>
      <trkpt lat="44.8775" lon="6.68197">
        <ele>1403.4</ele>
        <time>2022-07-17T14:03:58Z</time>
      </trkpt>
      <trkpt lat="44.87749" lon="6.68201">
        <ele>1403.4</ele>
        <time>2022-07-17T14:03:59Z</time>
      </trkpt>
      <trkpt lat="44.87748" lon="6.68204">
        <ele>1403.6</ele>
        <time>2022-07-17T14:04:00Z</time>
      </trkpt>
      <trkpt lat="44.87747" lon="6.68208">
        <ele>1404</ele>
        <time>2022-07-17T14:04:01Z</time>
      </trkpt>
      <trkpt lat="44.87746" lon="6.68211">
        <ele>1404.2</ele>
        <time>2022-07-17T14:04:02Z</time>
      </trkpt>
      <trkpt lat="44.87744" lon="6.68214">
        <ele>1404.2</ele>
        <time>2022-07-17T14:04:03Z</time>
      </trkpt>
      <trkpt lat="44.87743" lon="6.68218">
        <ele>1404.8</ele>
        <time>2022-07-17T14:04:04Z</time>
      </trkpt>
      <trkpt lat="44.87742" lon="6.68222">
        <ele>1405</ele>
        <time>2022-07-17T14:04:05Z</time>
      </trkpt>
      <trkpt lat="44.8774" lon="6.68225">
        <ele>1405</ele>
        <time>2022-07-17T14:04:06Z</time>
      </trkpt>
      <trkpt lat="44.87739" lon="6.68229">
        <ele>1405.4</ele>
        <time>2022-07-17T14:04:07Z</time>
      </trkpt>
      <trkpt lat="44.87737" lon="6.68233">
        <ele>1405.4</ele>
        <time>2022-07-17T14:04:08Z</time>
      </trkpt>
      <trkpt lat="44.87736" lon="6.68237">
        <ele>1405.6</ele>
        <time>2022-07-17T14:04:09Z</time>
      </trkpt>
      <trkpt lat="44.87734" lon="6.68241">
        <ele>1405.6</ele>
        <time>2022-07-17T14:04:10Z</time>
      </trkpt>
      <trkpt lat="44.87733" lon="6.68244">
        <ele>1405.6</ele>
        <time>2022-07-17T14:04:11Z</time>
      </trkpt>
      <trkpt lat="44.87731" lon="6.68248">
        <ele>1405.8</ele>
        <time>2022-07-17T14:04:12Z</time>
      </trkpt>
      <trkpt lat="44.8773" lon="6.68252">
        <ele>1405.8</ele>
        <time>2022-07-17T14:04:13Z</time>
      </trkpt>
      <trkpt lat="44.87728" lon="6.68256">
        <ele>1406</ele>
        <time>2022-07-17T14:04:14Z</time>
      </trkpt>
      <trkpt lat="44.87727" lon="6.68259">
        <ele>1406.4</ele>
        <time>2022-07-17T14:04:15Z</time>
      </trkpt>
      <trkpt lat="44.87726" lon="6.68263">
        <ele>1406.6</ele>
        <time>2022-07-17T14:04:16Z</time>
      </trkpt>
      <trkpt lat="44.87725" lon="6.68266">
        <ele>1406.8</ele>
        <time>2022-07-17T14:04:17Z</time>
      </trkpt>
      <trkpt lat="44.87724" lon="6.6827">
        <ele>1407</ele>
        <time>2022-07-17T14:04:18Z</time>
      </trkpt>
      <trkpt lat="44.87722" lon="6.68273">
        <ele>1407.2</ele>
        <time>2022-07-17T14:04:19Z</time>
      </trkpt>
      <trkpt lat="44.87721" lon="6.68277">
        <ele>1407.2</ele>
        <time>2022-07-17T14:04:20Z</time>
      </trkpt>
      <trkpt lat="44.8772" lon="6.68281">
        <ele>1407.6</ele>
        <time>2022-07-17T14:04:21Z</time>
      </trkpt>
      <trkpt lat="44.87719" lon="6.68284">
        <ele>1407.6</ele>
        <time>2022-07-17T14:04:22Z</time>
      </trkpt>
      <trkpt lat="44.87718" lon="6.68288">
        <ele>1408.2</ele>
        <time>2022-07-17T14:04:23Z</time>
      </trkpt>
      <trkpt lat="44.87717" lon="6.68291">
        <ele>1408.4</ele>
        <time>2022-07-17T14:04:24Z</time>
      </trkpt>
      <trkpt lat="44.87717" lon="6.68295">
        <ele>1408.4</ele>
        <time>2022-07-17T14:04:25Z</time>
      </trkpt>
      <trkpt lat="44.87716" lon="6.68299">
        <ele>1408.8</ele>
        <time>2022-07-17T14:04:26Z</time>
      </trkpt>
      <trkpt lat="44.87716" lon="6.68302">
        <ele>1408.8</ele>
        <time>2022-07-17T14:04:27Z</time>
      </trkpt>
      <trkpt lat="44.87715" lon="6.68306">
        <ele>1409</ele>
        <time>2022-07-17T14:04:28Z</time>
      </trkpt>
      <trkpt lat="44.87714" lon="6.6831">
        <ele>1409.2</ele>
        <time>2022-07-17T14:04:29Z</time>
      </trkpt>
      <trkpt lat="44.87714" lon="6.68313">
        <ele>1409.6</ele>
        <time>2022-07-17T14:04:30Z</time>
      </trkpt>
      <trkpt lat="44.87713" lon="6.68317">
        <ele>1409.6</ele>
        <time>2022-07-17T14:04:31Z</time>
      </trkpt>
      <trkpt lat="44.87713" lon="6.68321">
        <ele>1409.8</ele>
        <time>2022-07-17T14:04:32Z</time>
      </trkpt>
      <trkpt lat="44.87712" lon="6.68325">
        <ele>1409.8</ele>
        <time>2022-07-17T14:04:33Z</time>
      </trkpt>
      <trkpt lat="44.87712" lon="6.68328">
        <ele>1410.2</ele>
        <time>2022-07-17T14:04:34Z</time>
      </trkpt>
      <trkpt lat="44.87712" lon="6.68332">
        <ele>1410.2</ele>
        <time>2022-07-17T14:04:35Z</time>
      </trkpt>
      <trkpt lat="44.87712" lon="6.68336">
        <ele>1410.6</ele>
        <time>2022-07-17T14:04:36Z</time>
      </trkpt>
      <trkpt lat="44.87712" lon="6.68339">
        <ele>1410.6</ele>
        <time>2022-07-17T14:04:37Z</time>
      </trkpt>
      <trkpt lat="44.87712" lon="6.68342">
        <ele>1411</ele>
        <time>2022-07-17T14:04:38Z</time>
      </trkpt>
      <trkpt lat="44.87712" lon="6.68345">
        <ele>1411</ele>
        <time>2022-07-17T14:04:39Z</time>
      </trkpt>
      <trkpt lat="44.87712" lon="6.68348">
        <ele>1411.4</ele>
        <time>2022-07-17T14:04:40Z</time>
      </trkpt>
      <trkpt lat="44.87711" lon="6.68352">
        <ele>1411.4</ele>
        <time>2022-07-17T14:04:41Z</time>
      </trkpt>
      <trkpt lat="44.87711" lon="6.68355">
        <ele>1411.8</ele>
        <time>2022-07-17T14:04:42Z</time>
      </trkpt>
      <trkpt lat="44.87711" lon="6.68359">
        <ele>1412</ele>
        <time>2022-07-17T14:04:43Z</time>
      </trkpt>
      <trkpt lat="44.87712" lon="6.68362">
        <ele>1412</ele>
        <time>2022-07-17T14:04:44Z</time>
      </trkpt>
      <trkpt lat="44.87711" lon="6.68366">
        <ele>1412.6</ele>
        <time>2022-07-17T14:04:45Z</time>
      </trkpt>
      <trkpt lat="44.87711" lon="6.68369">
        <ele>1412.8</ele>
        <time>2022-07-17T14:04:46Z</time>
      </trkpt>
      <trkpt lat="44.87711" lon="6.68372">
        <ele>1412.8</ele>
        <time>2022-07-17T14:04:47Z</time>
      </trkpt>
      <trkpt lat="44.87711" lon="6.68375">
        <ele>1413.2</ele>
        <time>2022-07-17T14:04:48Z</time>
      </trkpt>
      <trkpt lat="44.87711" lon="6.68378">
        <ele>1413.6</ele>
        <time>2022-07-17T14:04:49Z</time>
      </trkpt>
      <trkpt lat="44.87711" lon="6.68381">
        <ele>1413.6</ele>
        <time>2022-07-17T14:04:50Z</time>
      </trkpt>
      <trkpt lat="44.87711" lon="6.68384">
        <ele>1413.8</ele>
        <time>2022-07-17T14:04:51Z</time>
      </trkpt>
      <trkpt lat="44.87712" lon="6.68388">
        <ele>1413.8</ele>
        <time>2022-07-17T14:04:52Z</time>
      </trkpt>
      <trkpt lat="44.87712" lon="6.68391">
        <ele>1414.2</ele>
        <time>2022-07-17T14:04:53Z</time>
      </trkpt>
      <trkpt lat="44.87712" lon="6.68393">
        <ele>1414.2</ele>
        <time>2022-07-17T14:04:54Z</time>
      </trkpt>
      <trkpt lat="44.87712" lon="6.68396">
        <ele>1414.6</ele>
        <time>2022-07-17T14:04:55Z</time>
      </trkpt>
      <trkpt lat="44.87711" lon="6.68399">
        <ele>1414.6</ele>
        <time>2022-07-17T14:04:56Z</time>
      </trkpt>
      <trkpt lat="44.87711" lon="6.68402">
        <ele>1414.8</ele>
        <time>2022-07-17T14:04:57Z</time>
      </trkpt>
      <trkpt lat="44.87711" lon="6.68405">
        <ele>1415.2</ele>
        <time>2022-07-17T14:04:58Z</time>
      </trkpt>
      <trkpt lat="44.87711" lon="6.68408">
        <ele>1415.4</ele>
        <time>2022-07-17T14:04:59Z</time>
      </trkpt>
      <trkpt lat="44.87711" lon="6.68411">
        <ele>1415.4</ele>
        <time>2022-07-17T14:05:00Z</time>
      </trkpt>
      <trkpt lat="44.87711" lon="6.68414">
        <ele>1415.4</ele>
        <time>2022-07-17T14:05:01Z</time>
      </trkpt>
      <trkpt lat="44.87711" lon="6.68417">
        <ele>1415.8</ele>
        <time>2022-07-17T14:05:02Z</time>
      </trkpt>
      <trkpt lat="44.87711" lon="6.68419">
        <ele>1416.2</ele>
        <time>2022-07-17T14:05:03Z</time>
      </trkpt>
      <trkpt lat="44.87711" lon="6.68423">
        <ele>1416.4</ele>
        <time>2022-07-17T14:05:04Z</time>
      </trkpt>
      <trkpt lat="44.87711" lon="6.68426">
        <ele>1416.4</ele>
        <time>2022-07-17T14:05:05Z</time>
      </trkpt>
      <trkpt lat="44.87711" lon="6.68429">
        <ele>1416.8</ele>
        <time>2022-07-17T14:05:06Z</time>
      </trkpt>
      <trkpt lat="44.87711" lon="6.68432">
        <ele>1416.8</ele>
        <time>2022-07-17T14:05:07Z</time>
      </trkpt>
      <trkpt lat="44.87711" lon="6.68435">
        <ele>1417.2</ele>
        <time>2022-07-17T14:05:08Z</time>
      </trkpt>
      <trkpt lat="44.87711" lon="6.68438">
        <ele>1417.2</ele>
        <time>2022-07-17T14:05:09Z</time>
      </trkpt>
      <trkpt lat="44.87711" lon="6.68441">
        <ele>1417.4</ele>
        <time>2022-07-17T14:05:10Z</time>
      </trkpt>
      <trkpt lat="44.87711" lon="6.68444">
        <ele>1417.4</ele>
        <time>2022-07-17T14:05:11Z</time>
      </trkpt>
      <trkpt lat="44.87711" lon="6.68447">
        <ele>1417.6</ele>
        <time>2022-07-17T14:05:12Z</time>
      </trkpt>
      <trkpt lat="44.87711" lon="6.6845">
        <ele>1417.6</ele>
        <time>2022-07-17T14:05:13Z</time>
      </trkpt>
      <trkpt lat="44.87711" lon="6.68453">
        <ele>1417.8</ele>
        <time>2022-07-17T14:05:14Z</time>
      </trkpt>
      <trkpt lat="44.87711" lon="6.68456">
        <ele>1417.8</ele>
        <time>2022-07-17T14:05:15Z</time>
      </trkpt>
      <trkpt lat="44.87711" lon="6.6846">
        <ele>1417.8</ele>
        <time>2022-07-17T14:05:16Z</time>
      </trkpt>
      <trkpt lat="44.87711" lon="6.68463">
        <ele>1417.8</ele>
        <time>2022-07-17T14:05:17Z</time>
      </trkpt>
      <trkpt lat="44.87711" lon="6.68467">
        <ele>1418.2</ele>
        <time>2022-07-17T14:05:18Z</time>
      </trkpt>
      <trkpt lat="44.87711" lon="6.6847">
        <ele>1418.2</ele>
        <time>2022-07-17T14:05:19Z</time>
      </trkpt>
      <trkpt lat="44.87711" lon="6.68473">
        <ele>1418.2</ele>
        <time>2022-07-17T14:05:20Z</time>
      </trkpt>
      <trkpt lat="44.87711" lon="6.68476">
        <ele>1418.4</ele>
        <time>2022-07-17T14:05:21Z</time>
      </trkpt>
      <trkpt lat="44.87711" lon="6.68479">
        <ele>1418.4</ele>
        <time>2022-07-17T14:05:22Z</time>
      </trkpt>
      <trkpt lat="44.87711" lon="6.68482">
        <ele>1418.6</ele>
        <time>2022-07-17T14:05:23Z</time>
      </trkpt>
      <trkpt lat="44.87711" lon="6.68485">
        <ele>1418.6</ele>
        <time>2022-07-17T14:05:24Z</time>
      </trkpt>
      <trkpt lat="44.87711" lon="6.68488">
        <ele>1418.8</ele>
        <time>2022-07-17T14:05:25Z</time>
      </trkpt>
      <trkpt lat="44.87711" lon="6.6849">
        <ele>1419</ele>
        <time>2022-07-17T14:05:26Z</time>
      </trkpt>
      <trkpt lat="44.87712" lon="6.68494">
        <ele>1419.4</ele>
        <time>2022-07-17T14:05:27Z</time>
      </trkpt>
      <trkpt lat="44.87712" lon="6.68496">
        <ele>1419.4</ele>
        <time>2022-07-17T14:05:28Z</time>
      </trkpt>
      <trkpt lat="44.87712" lon="6.68499">
        <ele>1419.4</ele>
        <time>2022-07-17T14:05:29Z</time>
      </trkpt>
      <trkpt lat="44.87712" lon="6.68502">
        <ele>1419.6</ele>
        <time>2022-07-17T14:05:30Z</time>
      </trkpt>
      <trkpt lat="44.87712" lon="6.68506">
        <ele>1419.6</ele>
        <time>2022-07-17T14:05:31Z</time>
      </trkpt>
      <trkpt lat="44.87712" lon="6.68509">
        <ele>1420</ele>
        <time>2022-07-17T14:05:32Z</time>
      </trkpt>
      <trkpt lat="44.87712" lon="6.68512">
        <ele>1420.2</ele>
        <time>2022-07-17T14:05:33Z</time>
      </trkpt>
      <trkpt lat="44.87712" lon="6.68515">
        <ele>1420.4</ele>
        <time>2022-07-17T14:05:34Z</time>
      </trkpt>
      <trkpt lat="44.87712" lon="6.68518">
        <ele>1420.4</ele>
        <time>2022-07-17T14:05:35Z</time>
      </trkpt>
      <trkpt lat="44.87713" lon="6.6852">
        <ele>1420.6</ele>
        <time>2022-07-17T14:05:36Z</time>
      </trkpt>
      <trkpt lat="44.87713" lon="6.68523">
        <ele>1420.6</ele>
        <time>2022-07-17T14:05:37Z</time>
      </trkpt>
      <trkpt lat="44.87713" lon="6.68526">
        <ele>1420.6</ele>
        <time>2022-07-17T14:05:38Z</time>
      </trkpt>
      <trkpt lat="44.87713" lon="6.68528">
        <ele>1420.8</ele>
        <time>2022-07-17T14:05:39Z</time>
      </trkpt>
      <trkpt lat="44.87713" lon="6.68531">
        <ele>1420.8</ele>
        <time>2022-07-17T14:05:40Z</time>
      </trkpt>
      <trkpt lat="44.87713" lon="6.68533">
        <ele>1420.8</ele>
        <time>2022-07-17T14:05:41Z</time>
      </trkpt>
      <trkpt lat="44.87713" lon="6.68536">
        <ele>1420.8</ele>
        <time>2022-07-17T14:05:42Z</time>
      </trkpt>
      <trkpt lat="44.87713" lon="6.68538">
        <ele>1421.2</ele>
        <time>2022-07-17T14:05:43Z</time>
      </trkpt>
      <trkpt lat="44.87713" lon="6.68541">
        <ele>1421.2</ele>
        <time>2022-07-17T14:05:44Z</time>
      </trkpt>
      <trkpt lat="44.87713" lon="6.68543">
        <ele>1421.4</ele>
        <time>2022-07-17T14:05:45Z</time>
      </trkpt>
      <trkpt lat="44.87713" lon="6.68546">
        <ele>1421.4</ele>
        <time>2022-07-17T14:05:46Z</time>
      </trkpt>
      <trkpt lat="44.87713" lon="6.68549">
        <ele>1421.6</ele>
        <time>2022-07-17T14:05:47Z</time>
      </trkpt>
      <trkpt lat="44.87713" lon="6.68552">
        <ele>1422</ele>
        <time>2022-07-17T14:05:48Z</time>
      </trkpt>
      <trkpt lat="44.87713" lon="6.68555">
        <ele>1422.2</ele>
        <time>2022-07-17T14:05:49Z</time>
      </trkpt>
      <trkpt lat="44.87713" lon="6.68559">
        <ele>1422.4</ele>
        <time>2022-07-17T14:05:50Z</time>
      </trkpt>
      <trkpt lat="44.87713" lon="6.68562">
        <ele>1422.4</ele>
        <time>2022-07-17T14:05:51Z</time>
      </trkpt>
      <trkpt lat="44.87713" lon="6.68564">
        <ele>1422.6</ele>
        <time>2022-07-17T14:05:52Z</time>
      </trkpt>
      <trkpt lat="44.87713" lon="6.68567">
        <ele>1423</ele>
        <time>2022-07-17T14:05:53Z</time>
      </trkpt>
      <trkpt lat="44.87713" lon="6.6857">
        <ele>1423.2</ele>
        <time>2022-07-17T14:05:54Z</time>
      </trkpt>
      <trkpt lat="44.87713" lon="6.68572">
        <ele>1423.4</ele>
        <time>2022-07-17T14:05:55Z</time>
      </trkpt>
      <trkpt lat="44.87713" lon="6.68575">
        <ele>1423.6</ele>
        <time>2022-07-17T14:05:56Z</time>
      </trkpt>
      <trkpt lat="44.87713" lon="6.68578">
        <ele>1423.6</ele>
        <time>2022-07-17T14:05:57Z</time>
      </trkpt>
      <trkpt lat="44.87713" lon="6.68581">
        <ele>1424</ele>
        <time>2022-07-17T14:05:58Z</time>
      </trkpt>
      <trkpt lat="44.87713" lon="6.68584">
        <ele>1424</ele>
        <time>2022-07-17T14:05:59Z</time>
      </trkpt>
      <trkpt lat="44.87713" lon="6.68587">
        <ele>1424</ele>
        <time>2022-07-17T14:06:00Z</time>
      </trkpt>
      <trkpt lat="44.87713" lon="6.6859">
        <ele>1424.4</ele>
        <time>2022-07-17T14:06:01Z</time>
      </trkpt>
      <trkpt lat="44.87714" lon="6.68593">
        <ele>1424.6</ele>
        <time>2022-07-17T14:06:02Z</time>
      </trkpt>
      <trkpt lat="44.87714" lon="6.68596">
        <ele>1424.6</ele>
        <time>2022-07-17T14:06:03Z</time>
      </trkpt>
      <trkpt lat="44.87714" lon="6.68599">
        <ele>1425</ele>
        <time>2022-07-17T14:06:04Z</time>
      </trkpt>
      <trkpt lat="44.87714" lon="6.68602">
        <ele>1425</ele>
        <time>2022-07-17T14:06:05Z</time>
      </trkpt>
      <trkpt lat="44.87714" lon="6.68605">
        <ele>1425.2</ele>
        <time>2022-07-17T14:06:06Z</time>
      </trkpt>
      <trkpt lat="44.87714" lon="6.68608">
        <ele>1425.6</ele>
        <time>2022-07-17T14:06:07Z</time>
      </trkpt>
      <trkpt lat="44.87714" lon="6.6861">
        <ele>1425.8</ele>
        <time>2022-07-17T14:06:08Z</time>
      </trkpt>
      <trkpt lat="44.87714" lon="6.68613">
        <ele>1425.8</ele>
        <time>2022-07-17T14:06:09Z</time>
      </trkpt>
      <trkpt lat="44.87714" lon="6.68616">
        <ele>1426.2</ele>
        <time>2022-07-17T14:06:10Z</time>
      </trkpt>
      <trkpt lat="44.87714" lon="6.68619">
        <ele>1426.2</ele>
        <time>2022-07-17T14:06:11Z</time>
      </trkpt>
      <trkpt lat="44.87714" lon="6.68622">
        <ele>1426.4</ele>
        <time>2022-07-17T14:06:12Z</time>
      </trkpt>
      <trkpt lat="44.87714" lon="6.68625">
        <ele>1426.8</ele>
        <time>2022-07-17T14:06:13Z</time>
      </trkpt>
      <trkpt lat="44.87714" lon="6.68627">
        <ele>1427</ele>
        <time>2022-07-17T14:06:14Z</time>
      </trkpt>
      <trkpt lat="44.87714" lon="6.6863">
        <ele>1427</ele>
        <time>2022-07-17T14:06:15Z</time>
      </trkpt>
      <trkpt lat="44.87714" lon="6.68633">
        <ele>1427.2</ele>
        <time>2022-07-17T14:06:16Z</time>
      </trkpt>
      <trkpt lat="44.87714" lon="6.68636">
        <ele>1427.2</ele>
        <time>2022-07-17T14:06:17Z</time>
      </trkpt>
      <trkpt lat="44.87713" lon="6.68639">
        <ele>1427.4</ele>
        <time>2022-07-17T14:06:18Z</time>
      </trkpt>
      <trkpt lat="44.87713" lon="6.68641">
        <ele>1427.4</ele>
        <time>2022-07-17T14:06:19Z</time>
      </trkpt>
      <trkpt lat="44.87713" lon="6.68644">
        <ele>1427.8</ele>
        <time>2022-07-17T14:06:20Z</time>
      </trkpt>
      <trkpt lat="44.87713" lon="6.68647">
        <ele>1427.8</ele>
        <time>2022-07-17T14:06:21Z</time>
      </trkpt>
      <trkpt lat="44.87713" lon="6.6865">
        <ele>1427.8</ele>
        <time>2022-07-17T14:06:22Z</time>
      </trkpt>
      <trkpt lat="44.87713" lon="6.68653">
        <ele>1428.2</ele>
        <time>2022-07-17T14:06:23Z</time>
      </trkpt>
      <trkpt lat="44.87712" lon="6.68656">
        <ele>1428.4</ele>
        <time>2022-07-17T14:06:24Z</time>
      </trkpt>
      <trkpt lat="44.87712" lon="6.68659">
        <ele>1428.4</ele>
        <time>2022-07-17T14:06:25Z</time>
      </trkpt>
      <trkpt lat="44.87712" lon="6.68662">
        <ele>1428.8</ele>
        <time>2022-07-17T14:06:26Z</time>
      </trkpt>
      <trkpt lat="44.87712" lon="6.68666">
        <ele>1428.8</ele>
        <time>2022-07-17T14:06:27Z</time>
      </trkpt>
      <trkpt lat="44.87712" lon="6.68669">
        <ele>1429.2</ele>
        <time>2022-07-17T14:06:28Z</time>
      </trkpt>
      <trkpt lat="44.87712" lon="6.68672">
        <ele>1429.2</ele>
        <time>2022-07-17T14:06:29Z</time>
      </trkpt>
      <trkpt lat="44.87712" lon="6.68675">
        <ele>1429.8</ele>
        <time>2022-07-17T14:06:30Z</time>
      </trkpt>
      <trkpt lat="44.87712" lon="6.68678">
        <ele>1429.8</ele>
        <time>2022-07-17T14:06:31Z</time>
      </trkpt>
      <trkpt lat="44.87712" lon="6.68681">
        <ele>1429.8</ele>
        <time>2022-07-17T14:06:32Z</time>
      </trkpt>
      <trkpt lat="44.87712" lon="6.68684">
        <ele>1430</ele>
        <time>2022-07-17T14:06:33Z</time>
      </trkpt>
      <trkpt lat="44.87712" lon="6.68686">
        <ele>1430</ele>
        <time>2022-07-17T14:06:34Z</time>
      </trkpt>
      <trkpt lat="44.87711" lon="6.68689">
        <ele>1430</ele>
        <time>2022-07-17T14:06:35Z</time>
      </trkpt>
      <trkpt lat="44.87711" lon="6.68692">
        <ele>1430.4</ele>
        <time>2022-07-17T14:06:36Z</time>
      </trkpt>
      <trkpt lat="44.87711" lon="6.68694">
        <ele>1430.4</ele>
        <time>2022-07-17T14:06:37Z</time>
      </trkpt>
      <trkpt lat="44.87711" lon="6.68697">
        <ele>1430.8</ele>
        <time>2022-07-17T14:06:38Z</time>
      </trkpt>
      <trkpt lat="44.87711" lon="6.687">
        <ele>1431</ele>
        <time>2022-07-17T14:06:39Z</time>
      </trkpt>
      <trkpt lat="44.87711" lon="6.68702">
        <ele>1431</ele>
        <time>2022-07-17T14:06:40Z</time>
      </trkpt>
      <trkpt lat="44.87711" lon="6.68705">
        <ele>1431.2</ele>
        <time>2022-07-17T14:06:41Z</time>
      </trkpt>
      <trkpt lat="44.8771" lon="6.68707">
        <ele>1431.2</ele>
        <time>2022-07-17T14:06:42Z</time>
      </trkpt>
      <trkpt lat="44.8771" lon="6.6871">
        <ele>1431.6</ele>
        <time>2022-07-17T14:06:43Z</time>
      </trkpt>
      <trkpt lat="44.8771" lon="6.68713">
        <ele>1431.6</ele>
        <time>2022-07-17T14:06:44Z</time>
      </trkpt>
      <trkpt lat="44.8771" lon="6.68716">
        <ele>1432</ele>
        <time>2022-07-17T14:06:45Z</time>
      </trkpt>
      <trkpt lat="44.8771" lon="6.68719">
        <ele>1432</ele>
        <time>2022-07-17T14:06:46Z</time>
      </trkpt>
      <trkpt lat="44.8771" lon="6.68722">
        <ele>1432.2</ele>
        <time>2022-07-17T14:06:47Z</time>
      </trkpt>
      <trkpt lat="44.8771" lon="6.68725">
        <ele>1432.2</ele>
        <time>2022-07-17T14:06:48Z</time>
      </trkpt>
      <trkpt lat="44.8771" lon="6.68727">
        <ele>1432.2</ele>
        <time>2022-07-17T14:06:49Z</time>
      </trkpt>
      <trkpt lat="44.87709" lon="6.6873">
        <ele>1432.4</ele>
        <time>2022-07-17T14:06:50Z</time>
      </trkpt>
      <trkpt lat="44.87709" lon="6.68732">
        <ele>1432.4</ele>
        <time>2022-07-17T14:06:51Z</time>
      </trkpt>
      <trkpt lat="44.87709" lon="6.68735">
        <ele>1432.8</ele>
        <time>2022-07-17T14:06:52Z</time>
      </trkpt>
      <trkpt lat="44.87709" lon="6.68738">
        <ele>1432.8</ele>
        <time>2022-07-17T14:06:53Z</time>
      </trkpt>
      <trkpt lat="44.87709" lon="6.68741">
        <ele>1432.8</ele>
        <time>2022-07-17T14:06:54Z</time>
      </trkpt>
      <trkpt lat="44.87709" lon="6.68744">
        <ele>1433.2</ele>
        <time>2022-07-17T14:06:55Z</time>
      </trkpt>
      <trkpt lat="44.87708" lon="6.68747">
        <ele>1433.6</ele>
        <time>2022-07-17T14:06:56Z</time>
      </trkpt>
      <trkpt lat="44.87708" lon="6.68749">
        <ele>1433.8</ele>
        <time>2022-07-17T14:06:57Z</time>
      </trkpt>
      <trkpt lat="44.87708" lon="6.68752">
        <ele>1433.8</ele>
        <time>2022-07-17T14:06:58Z</time>
      </trkpt>
      <trkpt lat="44.87707" lon="6.68755">
        <ele>1434.2</ele>
        <time>2022-07-17T14:06:59Z</time>
      </trkpt>
      <trkpt lat="44.87707" lon="6.68758">
        <ele>1434.2</ele>
        <time>2022-07-17T14:07:00Z</time>
      </trkpt>
      <trkpt lat="44.87707" lon="6.68761">
        <ele>1434.4</ele>
        <time>2022-07-17T14:07:01Z</time>
      </trkpt>
      <trkpt lat="44.87707" lon="6.68763">
        <ele>1434.4</ele>
        <time>2022-07-17T14:07:02Z</time>
      </trkpt>
      <trkpt lat="44.87707" lon="6.68766">
        <ele>1434.4</ele>
        <time>2022-07-17T14:07:03Z</time>
      </trkpt>
      <trkpt lat="44.87706" lon="6.68769">
        <ele>1434.8</ele>
        <time>2022-07-17T14:07:04Z</time>
      </trkpt>
      <trkpt lat="44.87706" lon="6.68772">
        <ele>1435</ele>
        <time>2022-07-17T14:07:05Z</time>
      </trkpt>
      <trkpt lat="44.87706" lon="6.68774">
        <ele>1435</ele>
        <time>2022-07-17T14:07:06Z</time>
      </trkpt>
      <trkpt lat="44.87706" lon="6.68777">
        <ele>1435.4</ele>
        <time>2022-07-17T14:07:07Z</time>
      </trkpt>
      <trkpt lat="44.87705" lon="6.6878">
        <ele>1435.4</ele>
        <time>2022-07-17T14:07:08Z</time>
      </trkpt>
      <trkpt lat="44.87705" lon="6.68782">
        <ele>1435.4</ele>
        <time>2022-07-17T14:07:09Z</time>
      </trkpt>
      <trkpt lat="44.87705" lon="6.68785">
        <ele>1435.6</ele>
        <time>2022-07-17T14:07:10Z</time>
      </trkpt>
      <trkpt lat="44.87704" lon="6.68788">
        <ele>1435.6</ele>
        <time>2022-07-17T14:07:11Z</time>
      </trkpt>
      <trkpt lat="44.87703" lon="6.68791">
        <ele>1435.8</ele>
        <time>2022-07-17T14:07:12Z</time>
      </trkpt>
      <trkpt lat="44.87703" lon="6.68793">
        <ele>1435.8</ele>
        <time>2022-07-17T14:07:13Z</time>
      </trkpt>
      <trkpt lat="44.87702" lon="6.68796">
        <ele>1435.8</ele>
        <time>2022-07-17T14:07:14Z</time>
      </trkpt>
      <trkpt lat="44.87702" lon="6.68799">
        <ele>1436.2</ele>
        <time>2022-07-17T14:07:15Z</time>
      </trkpt>
      <trkpt lat="44.87702" lon="6.68801">
        <ele>1436.2</ele>
        <time>2022-07-17T14:07:16Z</time>
      </trkpt>
      <trkpt lat="44.87701" lon="6.68804">
        <ele>1436.4</ele>
        <time>2022-07-17T14:07:17Z</time>
      </trkpt>
      <trkpt lat="44.87701" lon="6.68806">
        <ele>1436.4</ele>
        <time>2022-07-17T14:07:18Z</time>
      </trkpt>
      <trkpt lat="44.877" lon="6.68809">
        <ele>1436.8</ele>
        <time>2022-07-17T14:07:19Z</time>
      </trkpt>
      <trkpt lat="44.877" lon="6.68812">
        <ele>1436.8</ele>
        <time>2022-07-17T14:07:20Z</time>
      </trkpt>
      <trkpt lat="44.87699" lon="6.68814">
        <ele>1437</ele>
        <time>2022-07-17T14:07:21Z</time>
      </trkpt>
      <trkpt lat="44.87699" lon="6.68817">
        <ele>1437.2</ele>
        <time>2022-07-17T14:07:22Z</time>
      </trkpt>
      <trkpt lat="44.87698" lon="6.6882">
        <ele>1437.6</ele>
        <time>2022-07-17T14:07:23Z</time>
      </trkpt>
      <trkpt lat="44.87698" lon="6.68823">
        <ele>1437.6</ele>
        <time>2022-07-17T14:07:24Z</time>
      </trkpt>
      <trkpt lat="44.87697" lon="6.68825">
        <ele>1438</ele>
        <time>2022-07-17T14:07:25Z</time>
      </trkpt>
      <trkpt lat="44.87696" lon="6.68828">
        <ele>1438.4</ele>
        <time>2022-07-17T14:07:26Z</time>
      </trkpt>
      <trkpt lat="44.87695" lon="6.6883">
        <ele>1438.8</ele>
        <time>2022-07-17T14:07:27Z</time>
      </trkpt>
      <trkpt lat="44.87694" lon="6.68833">
        <ele>1438.8</ele>
        <time>2022-07-17T14:07:28Z</time>
      </trkpt>
      <trkpt lat="44.87693" lon="6.68835">
        <ele>1438.8</ele>
        <time>2022-07-17T14:07:29Z</time>
      </trkpt>
      <trkpt lat="44.87693" lon="6.68837">
        <ele>1439</ele>
        <time>2022-07-17T14:07:30Z</time>
      </trkpt>
      <trkpt lat="44.87692" lon="6.6884">
        <ele>1439</ele>
        <time>2022-07-17T14:07:31Z</time>
      </trkpt>
      <trkpt lat="44.87691" lon="6.68842">
        <ele>1439.4</ele>
        <time>2022-07-17T14:07:32Z</time>
      </trkpt>
      <trkpt lat="44.87691" lon="6.68845">
        <ele>1439.4</ele>
        <time>2022-07-17T14:07:33Z</time>
      </trkpt>
      <trkpt lat="44.8769" lon="6.68847">
        <ele>1439.8</ele>
        <time>2022-07-17T14:07:34Z</time>
      </trkpt>
      <trkpt lat="44.87689" lon="6.68849">
        <ele>1439.8</ele>
        <time>2022-07-17T14:07:35Z</time>
      </trkpt>
      <trkpt lat="44.87688" lon="6.68852">
        <ele>1440</ele>
        <time>2022-07-17T14:07:36Z</time>
      </trkpt>
      <trkpt lat="44.87688" lon="6.68854">
        <ele>1440</ele>
        <time>2022-07-17T14:07:37Z</time>
      </trkpt>
      <trkpt lat="44.87687" lon="6.68857">
        <ele>1440</ele>
        <time>2022-07-17T14:07:38Z</time>
      </trkpt>
      <trkpt lat="44.87687" lon="6.6886">
        <ele>1440.4</ele>
        <time>2022-07-17T14:07:39Z</time>
      </trkpt>
      <trkpt lat="44.87686" lon="6.68862">
        <ele>1440.4</ele>
        <time>2022-07-17T14:07:40Z</time>
      </trkpt>
      <trkpt lat="44.87686" lon="6.68865">
        <ele>1440.6</ele>
        <time>2022-07-17T14:07:41Z</time>
      </trkpt>
      <trkpt lat="44.87685" lon="6.68868">
        <ele>1440.6</ele>
        <time>2022-07-17T14:07:42Z</time>
      </trkpt>
      <trkpt lat="44.87684" lon="6.6887">
        <ele>1440.8</ele>
        <time>2022-07-17T14:07:43Z</time>
      </trkpt>
      <trkpt lat="44.87683" lon="6.68873">
        <ele>1441</ele>
        <time>2022-07-17T14:07:44Z</time>
      </trkpt>
      <trkpt lat="44.87683" lon="6.68875">
        <ele>1441</ele>
        <time>2022-07-17T14:07:45Z</time>
      </trkpt>
      <trkpt lat="44.87682" lon="6.68877">
        <ele>1441.4</ele>
        <time>2022-07-17T14:07:46Z</time>
      </trkpt>
      <trkpt lat="44.87681" lon="6.6888">
        <ele>1441.4</ele>
        <time>2022-07-17T14:07:47Z</time>
      </trkpt>
      <trkpt lat="44.8768" lon="6.68882">
        <ele>1441.6</ele>
        <time>2022-07-17T14:07:48Z</time>
      </trkpt>
      <trkpt lat="44.87679" lon="6.68885">
        <ele>1441.6</ele>
        <time>2022-07-17T14:07:49Z</time>
      </trkpt>
      <trkpt lat="44.87678" lon="6.68888">
        <ele>1442</ele>
        <time>2022-07-17T14:07:50Z</time>
      </trkpt>
      <trkpt lat="44.87677" lon="6.6889">
        <ele>1442</ele>
        <time>2022-07-17T14:07:51Z</time>
      </trkpt>
      <trkpt lat="44.87676" lon="6.68893">
        <ele>1442.4</ele>
        <time>2022-07-17T14:07:52Z</time>
      </trkpt>
      <trkpt lat="44.87675" lon="6.68896">
        <ele>1442.4</ele>
        <time>2022-07-17T14:07:53Z</time>
      </trkpt>
      <trkpt lat="44.87674" lon="6.68898">
        <ele>1442.6</ele>
        <time>2022-07-17T14:07:54Z</time>
      </trkpt>
      <trkpt lat="44.87672" lon="6.68901">
        <ele>1442.6</ele>
        <time>2022-07-17T14:07:55Z</time>
      </trkpt>
      <trkpt lat="44.87671" lon="6.68903">
        <ele>1442.6</ele>
        <time>2022-07-17T14:07:56Z</time>
      </trkpt>
      <trkpt lat="44.87671" lon="6.68906">
        <ele>1442.8</ele>
        <time>2022-07-17T14:07:57Z</time>
      </trkpt>
      <trkpt lat="44.8767" lon="6.68909">
        <ele>1443</ele>
        <time>2022-07-17T14:07:58Z</time>
      </trkpt>
      <trkpt lat="44.87669" lon="6.68912">
        <ele>1443</ele>
        <time>2022-07-17T14:07:59Z</time>
      </trkpt>
      <trkpt lat="44.87668" lon="6.68914">
        <ele>1443.4</ele>
        <time>2022-07-17T14:08:00Z</time>
      </trkpt>
      <trkpt lat="44.87667" lon="6.68917">
        <ele>1443.6</ele>
        <time>2022-07-17T14:08:01Z</time>
      </trkpt>
      <trkpt lat="44.87666" lon="6.68919">
        <ele>1444</ele>
        <time>2022-07-17T14:08:02Z</time>
      </trkpt>
      <trkpt lat="44.87665" lon="6.68922">
        <ele>1444.2</ele>
        <time>2022-07-17T14:08:03Z</time>
      </trkpt>
      <trkpt lat="44.87664" lon="6.68924">
        <ele>1444.4</ele>
        <time>2022-07-17T14:08:04Z</time>
      </trkpt>
      <trkpt lat="44.87663" lon="6.68926">
        <ele>1444.6</ele>
        <time>2022-07-17T14:08:05Z</time>
      </trkpt>
      <trkpt lat="44.87662" lon="6.68929">
        <ele>1444.6</ele>
        <time>2022-07-17T14:08:06Z</time>
      </trkpt>
      <trkpt lat="44.87662" lon="6.68931">
        <ele>1444.6</ele>
        <time>2022-07-17T14:08:07Z</time>
      </trkpt>
      <trkpt lat="44.87661" lon="6.68934">
        <ele>1444.6</ele>
        <time>2022-07-17T14:08:08Z</time>
      </trkpt>
      <trkpt lat="44.8766" lon="6.68937">
        <ele>1445</ele>
        <time>2022-07-17T14:08:09Z</time>
      </trkpt>
      <trkpt lat="44.87659" lon="6.68939">
        <ele>1445.2</ele>
        <time>2022-07-17T14:08:10Z</time>
      </trkpt>
      <trkpt lat="44.87657" lon="6.68941">
        <ele>1445.4</ele>
        <time>2022-07-17T14:08:11Z</time>
      </trkpt>
      <trkpt lat="44.87656" lon="6.68944">
        <ele>1445.6</ele>
        <time>2022-07-17T14:08:12Z</time>
      </trkpt>
      <trkpt lat="44.87655" lon="6.68946">
        <ele>1445.6</ele>
        <time>2022-07-17T14:08:13Z</time>
      </trkpt>
      <trkpt lat="44.87654" lon="6.68949">
        <ele>1445.6</ele>
        <time>2022-07-17T14:08:14Z</time>
      </trkpt>
      <trkpt lat="44.87653" lon="6.68952">
        <ele>1446</ele>
        <time>2022-07-17T14:08:15Z</time>
      </trkpt>
      <trkpt lat="44.87652" lon="6.68954">
        <ele>1446</ele>
        <time>2022-07-17T14:08:16Z</time>
      </trkpt>
      <trkpt lat="44.87651" lon="6.68956">
        <ele>1446</ele>
        <time>2022-07-17T14:08:17Z</time>
      </trkpt>
      <trkpt lat="44.87649" lon="6.68958">
        <ele>1446.2</ele>
        <time>2022-07-17T14:08:18Z</time>
      </trkpt>
      <trkpt lat="44.87648" lon="6.68961">
        <ele>1446.2</ele>
        <time>2022-07-17T14:08:19Z</time>
      </trkpt>
      <trkpt lat="44.87647" lon="6.68963">
        <ele>1446.8</ele>
        <time>2022-07-17T14:08:20Z</time>
      </trkpt>
      <trkpt lat="44.87646" lon="6.68965">
        <ele>1447</ele>
        <time>2022-07-17T14:08:21Z</time>
      </trkpt>
      <trkpt lat="44.87645" lon="6.68967">
        <ele>1447</ele>
        <time>2022-07-17T14:08:22Z</time>
      </trkpt>
      <trkpt lat="44.87644" lon="6.6897">
        <ele>1447.2</ele>
        <time>2022-07-17T14:08:23Z</time>
      </trkpt>
      <trkpt lat="44.87643" lon="6.68972">
        <ele>1447.2</ele>
        <time>2022-07-17T14:08:24Z</time>
      </trkpt>
      <trkpt lat="44.87641" lon="6.68974">
        <ele>1447.6</ele>
        <time>2022-07-17T14:08:25Z</time>
      </trkpt>
      <trkpt lat="44.8764" lon="6.68976">
        <ele>1447.6</ele>
        <time>2022-07-17T14:08:26Z</time>
      </trkpt>
      <trkpt lat="44.87639" lon="6.68978">
        <ele>1447.6</ele>
        <time>2022-07-17T14:08:27Z</time>
      </trkpt>
      <trkpt lat="44.87637" lon="6.68981">
        <ele>1447.8</ele>
        <time>2022-07-17T14:08:28Z</time>
      </trkpt>
      <trkpt lat="44.87636" lon="6.68983">
        <ele>1448.2</ele>
        <time>2022-07-17T14:08:29Z</time>
      </trkpt>
      <trkpt lat="44.87635" lon="6.68985">
        <ele>1448.4</ele>
        <time>2022-07-17T14:08:30Z</time>
      </trkpt>
      <trkpt lat="44.87633" lon="6.68988">
        <ele>1448.4</ele>
        <time>2022-07-17T14:08:31Z</time>
      </trkpt>
      <trkpt lat="44.87632" lon="6.6899">
        <ele>1448.6</ele>
        <time>2022-07-17T14:08:32Z</time>
      </trkpt>
      <trkpt lat="44.87629" lon="6.68995">
        <ele>1448.8</ele>
        <time>2022-07-17T14:08:34Z</time>
      </trkpt>
      <trkpt lat="44.87628" lon="6.68998">
        <ele>1448.8</ele>
        <time>2022-07-17T14:08:35Z</time>
      </trkpt>
      <trkpt lat="44.87626" lon="6.69">
        <ele>1448.8</ele>
        <time>2022-07-17T14:08:36Z</time>
      </trkpt>
      <trkpt lat="44.87625" lon="6.69002">
        <ele>1449.2</ele>
        <time>2022-07-17T14:08:37Z</time>
      </trkpt>
      <trkpt lat="44.87624" lon="6.69004">
        <ele>1449.2</ele>
        <time>2022-07-17T14:08:38Z</time>
      </trkpt>
      <trkpt lat="44.87622" lon="6.69006">
        <ele>1449.8</ele>
        <time>2022-07-17T14:08:39Z</time>
      </trkpt>
      <trkpt lat="44.87621" lon="6.69008">
        <ele>1449.8</ele>
        <time>2022-07-17T14:08:40Z</time>
      </trkpt>
      <trkpt lat="44.87619" lon="6.69011">
        <ele>1450</ele>
        <time>2022-07-17T14:08:41Z</time>
      </trkpt>
      <trkpt lat="44.87618" lon="6.69013">
        <ele>1450</ele>
        <time>2022-07-17T14:08:42Z</time>
      </trkpt>
      <trkpt lat="44.87616" lon="6.69015">
        <ele>1450.2</ele>
        <time>2022-07-17T14:08:43Z</time>
      </trkpt>
      <trkpt lat="44.87614" lon="6.69018">
        <ele>1450.6</ele>
        <time>2022-07-17T14:08:44Z</time>
      </trkpt>
      <trkpt lat="44.87613" lon="6.6902">
        <ele>1450.6</ele>
        <time>2022-07-17T14:08:45Z</time>
      </trkpt>
      <trkpt lat="44.87611" lon="6.69022">
        <ele>1450.8</ele>
        <time>2022-07-17T14:08:46Z</time>
      </trkpt>
      <trkpt lat="44.8761" lon="6.69025">
        <ele>1450.8</ele>
        <time>2022-07-17T14:08:47Z</time>
      </trkpt>
      <trkpt lat="44.87609" lon="6.69027">
        <ele>1451</ele>
        <time>2022-07-17T14:08:48Z</time>
      </trkpt>
      <trkpt lat="44.87607" lon="6.69029">
        <ele>1451</ele>
        <time>2022-07-17T14:08:49Z</time>
      </trkpt>
      <trkpt lat="44.87606" lon="6.69031">
        <ele>1451.2</ele>
        <time>2022-07-17T14:08:50Z</time>
      </trkpt>
      <trkpt lat="44.87605" lon="6.69033">
        <ele>1451.4</ele>
        <time>2022-07-17T14:08:51Z</time>
      </trkpt>
      <trkpt lat="44.87604" lon="6.69035">
        <ele>1451.6</ele>
        <time>2022-07-17T14:08:52Z</time>
      </trkpt>
      <trkpt lat="44.87602" lon="6.69037">
        <ele>1451.6</ele>
        <time>2022-07-17T14:08:53Z</time>
      </trkpt>
      <trkpt lat="44.87601" lon="6.69039">
        <ele>1452</ele>
        <time>2022-07-17T14:08:54Z</time>
      </trkpt>
      <trkpt lat="44.876" lon="6.69041">
        <ele>1452.2</ele>
        <time>2022-07-17T14:08:55Z</time>
      </trkpt>
      <trkpt lat="44.87598" lon="6.69044">
        <ele>1452.4</ele>
        <time>2022-07-17T14:08:56Z</time>
      </trkpt>
      <trkpt lat="44.87597" lon="6.69046">
        <ele>1452.4</ele>
        <time>2022-07-17T14:08:57Z</time>
      </trkpt>
      <trkpt lat="44.87596" lon="6.69048">
        <ele>1452.4</ele>
        <time>2022-07-17T14:08:58Z</time>
      </trkpt>
      <trkpt lat="44.87595" lon="6.6905">
        <ele>1452.6</ele>
        <time>2022-07-17T14:08:59Z</time>
      </trkpt>
      <trkpt lat="44.87594" lon="6.69053">
        <ele>1452.6</ele>
        <time>2022-07-17T14:09:00Z</time>
      </trkpt>
      <trkpt lat="44.87592" lon="6.69055">
        <ele>1452.6</ele>
        <time>2022-07-17T14:09:01Z</time>
      </trkpt>
      <trkpt lat="44.87591" lon="6.69057">
        <ele>1453</ele>
        <time>2022-07-17T14:09:02Z</time>
      </trkpt>
      <trkpt lat="44.8759" lon="6.6906">
        <ele>1453.2</ele>
        <time>2022-07-17T14:09:03Z</time>
      </trkpt>
      <trkpt lat="44.87588" lon="6.69062">
        <ele>1453.2</ele>
        <time>2022-07-17T14:09:04Z</time>
      </trkpt>
      <trkpt lat="44.87587" lon="6.69064">
        <ele>1453.4</ele>
        <time>2022-07-17T14:09:05Z</time>
      </trkpt>
      <trkpt lat="44.87586" lon="6.69065">
        <ele>1453.4</ele>
        <time>2022-07-17T14:09:06Z</time>
      </trkpt>
      <trkpt lat="44.87584" lon="6.69067">
        <ele>1453.6</ele>
        <time>2022-07-17T14:09:07Z</time>
      </trkpt>
      <trkpt lat="44.87583" lon="6.6907">
        <ele>1453.6</ele>
        <time>2022-07-17T14:09:08Z</time>
      </trkpt>
      <trkpt lat="44.87582" lon="6.69073">
        <ele>1453.6</ele>
        <time>2022-07-17T14:09:09Z</time>
      </trkpt>
      <trkpt lat="44.8758" lon="6.69075">
        <ele>1454</ele>
        <time>2022-07-17T14:09:10Z</time>
      </trkpt>
      <trkpt lat="44.87579" lon="6.69077">
        <ele>1454</ele>
        <time>2022-07-17T14:09:11Z</time>
      </trkpt>
      <trkpt lat="44.87578" lon="6.6908">
        <ele>1454.2</ele>
        <time>2022-07-17T14:09:12Z</time>
      </trkpt>
      <trkpt lat="44.87576" lon="6.69082">
        <ele>1454.2</ele>
        <time>2022-07-17T14:09:13Z</time>
      </trkpt>
      <trkpt lat="44.87575" lon="6.69084">
        <ele>1454.6</ele>
        <time>2022-07-17T14:09:14Z</time>
      </trkpt>
      <trkpt lat="44.87574" lon="6.69086">
        <ele>1454.6</ele>
        <time>2022-07-17T14:09:15Z</time>
      </trkpt>
      <trkpt lat="44.87572" lon="6.69088">
        <ele>1454.8</ele>
        <time>2022-07-17T14:09:16Z</time>
      </trkpt>
      <trkpt lat="44.87571" lon="6.69091">
        <ele>1454.8</ele>
        <time>2022-07-17T14:09:17Z</time>
      </trkpt>
      <trkpt lat="44.8757" lon="6.69093">
        <ele>1455.2</ele>
        <time>2022-07-17T14:09:18Z</time>
      </trkpt>
      <trkpt lat="44.87569" lon="6.69095">
        <ele>1455.2</ele>
        <time>2022-07-17T14:09:19Z</time>
      </trkpt>
      <trkpt lat="44.87567" lon="6.69097">
        <ele>1455.4</ele>
        <time>2022-07-17T14:09:20Z</time>
      </trkpt>
      <trkpt lat="44.87566" lon="6.691">
        <ele>1455.4</ele>
        <time>2022-07-17T14:09:21Z</time>
      </trkpt>
      <trkpt lat="44.87565" lon="6.69102">
        <ele>1455.6</ele>
        <time>2022-07-17T14:09:22Z</time>
      </trkpt>
      <trkpt lat="44.87563" lon="6.69104">
        <ele>1455.6</ele>
        <time>2022-07-17T14:09:23Z</time>
      </trkpt>
      <trkpt lat="44.87562" lon="6.69106">
        <ele>1455.8</ele>
        <time>2022-07-17T14:09:24Z</time>
      </trkpt>
      <trkpt lat="44.87561" lon="6.69108">
        <ele>1455.8</ele>
        <time>2022-07-17T14:09:25Z</time>
      </trkpt>
      <trkpt lat="44.8756" lon="6.6911">
        <ele>1456.2</ele>
        <time>2022-07-17T14:09:26Z</time>
      </trkpt>
      <trkpt lat="44.87558" lon="6.69112">
        <ele>1456.2</ele>
        <time>2022-07-17T14:09:27Z</time>
      </trkpt>
      <trkpt lat="44.87557" lon="6.69114">
        <ele>1456.6</ele>
        <time>2022-07-17T14:09:28Z</time>
      </trkpt>
      <trkpt lat="44.87555" lon="6.69117">
        <ele>1456.8</ele>
        <time>2022-07-17T14:09:29Z</time>
      </trkpt>
      <trkpt lat="44.87553" lon="6.69119">
        <ele>1457.2</ele>
        <time>2022-07-17T14:09:30Z</time>
      </trkpt>
      <trkpt lat="44.87552" lon="6.69122">
        <ele>1457.2</ele>
        <time>2022-07-17T14:09:31Z</time>
      </trkpt>
      <trkpt lat="44.87551" lon="6.69124">
        <ele>1457.2</ele>
        <time>2022-07-17T14:09:32Z</time>
      </trkpt>
      <trkpt lat="44.87549" lon="6.69126">
        <ele>1457.4</ele>
        <time>2022-07-17T14:09:33Z</time>
      </trkpt>
      <trkpt lat="44.87548" lon="6.69128">
        <ele>1457.4</ele>
        <time>2022-07-17T14:09:34Z</time>
      </trkpt>
      <trkpt lat="44.87546" lon="6.69131">
        <ele>1457.4</ele>
        <time>2022-07-17T14:09:35Z</time>
      </trkpt>
      <trkpt lat="44.87545" lon="6.69133">
        <ele>1457.8</ele>
        <time>2022-07-17T14:09:36Z</time>
      </trkpt>
      <trkpt lat="44.87544" lon="6.69136">
        <ele>1457.8</ele>
        <time>2022-07-17T14:09:37Z</time>
      </trkpt>
      <trkpt lat="44.87542" lon="6.69138">
        <ele>1458.2</ele>
        <time>2022-07-17T14:09:38Z</time>
      </trkpt>
      <trkpt lat="44.8754" lon="6.6914">
        <ele>1458.2</ele>
        <time>2022-07-17T14:09:39Z</time>
      </trkpt>
      <trkpt lat="44.87539" lon="6.69142">
        <ele>1458.6</ele>
        <time>2022-07-17T14:09:40Z</time>
      </trkpt>
      <trkpt lat="44.87537" lon="6.69145">
        <ele>1458.6</ele>
        <time>2022-07-17T14:09:41Z</time>
      </trkpt>
      <trkpt lat="44.87535" lon="6.69147">
        <ele>1458.8</ele>
        <time>2022-07-17T14:09:42Z</time>
      </trkpt>
      <trkpt lat="44.87534" lon="6.69149">
        <ele>1458.8</ele>
        <time>2022-07-17T14:09:43Z</time>
      </trkpt>
      <trkpt lat="44.87533" lon="6.69151">
        <ele>1458.8</ele>
        <time>2022-07-17T14:09:44Z</time>
      </trkpt>
      <trkpt lat="44.87531" lon="6.69154">
        <ele>1459.2</ele>
        <time>2022-07-17T14:09:45Z</time>
      </trkpt>
      <trkpt lat="44.8753" lon="6.69156">
        <ele>1459.2</ele>
        <time>2022-07-17T14:09:46Z</time>
      </trkpt>
      <trkpt lat="44.87529" lon="6.69158">
        <ele>1459.4</ele>
        <time>2022-07-17T14:09:47Z</time>
      </trkpt>
      <trkpt lat="44.87527" lon="6.6916">
        <ele>1459.4</ele>
        <time>2022-07-17T14:09:48Z</time>
      </trkpt>
      <trkpt lat="44.87526" lon="6.69162">
        <ele>1459.8</ele>
        <time>2022-07-17T14:09:49Z</time>
      </trkpt>
      <trkpt lat="44.87525" lon="6.69165">
        <ele>1460</ele>
        <time>2022-07-17T14:09:50Z</time>
      </trkpt>
      <trkpt lat="44.87523" lon="6.69168">
        <ele>1460.2</ele>
        <time>2022-07-17T14:09:51Z</time>
      </trkpt>
      <trkpt lat="44.87522" lon="6.6917">
        <ele>1460.2</ele>
        <time>2022-07-17T14:09:52Z</time>
      </trkpt>
      <trkpt lat="44.8752" lon="6.69172">
        <ele>1460.6</ele>
        <time>2022-07-17T14:09:53Z</time>
      </trkpt>
      <trkpt lat="44.87519" lon="6.69175">
        <ele>1460.8</ele>
        <time>2022-07-17T14:09:54Z</time>
      </trkpt>
      <trkpt lat="44.87518" lon="6.69177">
        <ele>1460.8</ele>
        <time>2022-07-17T14:09:55Z</time>
      </trkpt>
      <trkpt lat="44.87516" lon="6.69179">
        <ele>1460.8</ele>
        <time>2022-07-17T14:09:56Z</time>
      </trkpt>
      <trkpt lat="44.87515" lon="6.69181">
        <ele>1461</ele>
        <time>2022-07-17T14:09:57Z</time>
      </trkpt>
      <trkpt lat="44.87513" lon="6.69183">
        <ele>1461</ele>
        <time>2022-07-17T14:09:58Z</time>
      </trkpt>
      <trkpt lat="44.87512" lon="6.69186">
        <ele>1461</ele>
        <time>2022-07-17T14:09:59Z</time>
      </trkpt>
      <trkpt lat="44.8751" lon="6.69188">
        <ele>1461</ele>
        <time>2022-07-17T14:10:00Z</time>
      </trkpt>
      <trkpt lat="44.87509" lon="6.6919">
        <ele>1461.4</ele>
        <time>2022-07-17T14:10:01Z</time>
      </trkpt>
      <trkpt lat="44.87507" lon="6.69193">
        <ele>1461.4</ele>
        <time>2022-07-17T14:10:02Z</time>
      </trkpt>
      <trkpt lat="44.87506" lon="6.69196">
        <ele>1461.6</ele>
        <time>2022-07-17T14:10:03Z</time>
      </trkpt>
      <trkpt lat="44.87504" lon="6.69198">
        <ele>1461.6</ele>
        <time>2022-07-17T14:10:04Z</time>
      </trkpt>
      <trkpt lat="44.87503" lon="6.69201">
        <ele>1462</ele>
        <time>2022-07-17T14:10:05Z</time>
      </trkpt>
      <trkpt lat="44.87502" lon="6.69203">
        <ele>1462</ele>
        <time>2022-07-17T14:10:06Z</time>
      </trkpt>
      <trkpt lat="44.875" lon="6.69205">
        <ele>1462.2</ele>
        <time>2022-07-17T14:10:07Z</time>
      </trkpt>
      <trkpt lat="44.87499" lon="6.69207">
        <ele>1462.2</ele>
        <time>2022-07-17T14:10:08Z</time>
      </trkpt>
      <trkpt lat="44.87497" lon="6.6921">
        <ele>1462.4</ele>
        <time>2022-07-17T14:10:09Z</time>
      </trkpt>
      <trkpt lat="44.87496" lon="6.69212">
        <ele>1462.4</ele>
        <time>2022-07-17T14:10:10Z</time>
      </trkpt>
      <trkpt lat="44.87494" lon="6.69214">
        <ele>1462.8</ele>
        <time>2022-07-17T14:10:11Z</time>
      </trkpt>
      <trkpt lat="44.87493" lon="6.69216">
        <ele>1462.8</ele>
        <time>2022-07-17T14:10:12Z</time>
      </trkpt>
      <trkpt lat="44.87492" lon="6.69218">
        <ele>1462.8</ele>
        <time>2022-07-17T14:10:13Z</time>
      </trkpt>
      <trkpt lat="44.8749" lon="6.6922">
        <ele>1462.8</ele>
        <time>2022-07-17T14:10:14Z</time>
      </trkpt>
      <trkpt lat="44.87489" lon="6.69223">
        <ele>1462.8</ele>
        <time>2022-07-17T14:10:15Z</time>
      </trkpt>
      <trkpt lat="44.87487" lon="6.69225">
        <ele>1462.8</ele>
        <time>2022-07-17T14:10:16Z</time>
      </trkpt>
      <trkpt lat="44.87486" lon="6.69227">
        <ele>1463</ele>
        <time>2022-07-17T14:10:17Z</time>
      </trkpt>
      <trkpt lat="44.87485" lon="6.69229">
        <ele>1463</ele>
        <time>2022-07-17T14:10:18Z</time>
      </trkpt>
      <trkpt lat="44.87484" lon="6.69231">
        <ele>1463.2</ele>
        <time>2022-07-17T14:10:19Z</time>
      </trkpt>
      <trkpt lat="44.87482" lon="6.69233">
        <ele>1463.2</ele>
        <time>2022-07-17T14:10:20Z</time>
      </trkpt>
      <trkpt lat="44.87481" lon="6.69235">
        <ele>1463.6</ele>
        <time>2022-07-17T14:10:21Z</time>
      </trkpt>
      <trkpt lat="44.87479" lon="6.69237">
        <ele>1463.6</ele>
        <time>2022-07-17T14:10:22Z</time>
      </trkpt>
      <trkpt lat="44.87478" lon="6.6924">
        <ele>1463.8</ele>
        <time>2022-07-17T14:10:23Z</time>
      </trkpt>
      <trkpt lat="44.87476" lon="6.69242">
        <ele>1463.8</ele>
        <time>2022-07-17T14:10:24Z</time>
      </trkpt>
      <trkpt lat="44.87475" lon="6.69244">
        <ele>1464</ele>
        <time>2022-07-17T14:10:25Z</time>
      </trkpt>
      <trkpt lat="44.87474" lon="6.69246">
        <ele>1464</ele>
        <time>2022-07-17T14:10:26Z</time>
      </trkpt>
      <trkpt lat="44.87472" lon="6.69248">
        <ele>1464</ele>
        <time>2022-07-17T14:10:27Z</time>
      </trkpt>
      <trkpt lat="44.87471" lon="6.6925">
        <ele>1464.4</ele>
        <time>2022-07-17T14:10:28Z</time>
      </trkpt>
      <trkpt lat="44.87469" lon="6.69253">
        <ele>1464.4</ele>
        <time>2022-07-17T14:10:29Z</time>
      </trkpt>
      <trkpt lat="44.87468" lon="6.69255">
        <ele>1464.8</ele>
        <time>2022-07-17T14:10:30Z</time>
      </trkpt>
      <trkpt lat="44.87467" lon="6.69257">
        <ele>1464.8</ele>
        <time>2022-07-17T14:10:31Z</time>
      </trkpt>
      <trkpt lat="44.87465" lon="6.69259">
        <ele>1465.2</ele>
        <time>2022-07-17T14:10:32Z</time>
      </trkpt>
      <trkpt lat="44.87464" lon="6.69261">
        <ele>1465.2</ele>
        <time>2022-07-17T14:10:33Z</time>
      </trkpt>
      <trkpt lat="44.87463" lon="6.69263">
        <ele>1465.2</ele>
        <time>2022-07-17T14:10:34Z</time>
      </trkpt>
      <trkpt lat="44.87461" lon="6.69265">
        <ele>1465.4</ele>
        <time>2022-07-17T14:10:35Z</time>
      </trkpt>
      <trkpt lat="44.8746" lon="6.69268">
        <ele>1465.4</ele>
        <time>2022-07-17T14:10:36Z</time>
      </trkpt>
      <trkpt lat="44.87458" lon="6.6927">
        <ele>1465.8</ele>
        <time>2022-07-17T14:10:37Z</time>
      </trkpt>
      <trkpt lat="44.87457" lon="6.69272">
        <ele>1465.8</ele>
        <time>2022-07-17T14:10:38Z</time>
      </trkpt>
      <trkpt lat="44.87455" lon="6.69274">
        <ele>1466.2</ele>
        <time>2022-07-17T14:10:39Z</time>
      </trkpt>
      <trkpt lat="44.87454" lon="6.69277">
        <ele>1466.2</ele>
        <time>2022-07-17T14:10:40Z</time>
      </trkpt>
      <trkpt lat="44.87452" lon="6.69279">
        <ele>1466.4</ele>
        <time>2022-07-17T14:10:41Z</time>
      </trkpt>
      <trkpt lat="44.8745" lon="6.69281">
        <ele>1466.4</ele>
        <time>2022-07-17T14:10:42Z</time>
      </trkpt>
      <trkpt lat="44.87449" lon="6.69282">
        <ele>1466.6</ele>
        <time>2022-07-17T14:10:43Z</time>
      </trkpt>
      <trkpt lat="44.87447" lon="6.69284">
        <ele>1466.6</ele>
        <time>2022-07-17T14:10:44Z</time>
      </trkpt>
      <trkpt lat="44.87445" lon="6.69286">
        <ele>1466.8</ele>
        <time>2022-07-17T14:10:45Z</time>
      </trkpt>
      <trkpt lat="44.87444" lon="6.69288">
        <ele>1466.8</ele>
        <time>2022-07-17T14:10:46Z</time>
      </trkpt>
      <trkpt lat="44.87442" lon="6.6929">
        <ele>1466.8</ele>
        <time>2022-07-17T14:10:47Z</time>
      </trkpt>
      <trkpt lat="44.8744" lon="6.69292">
        <ele>1467.2</ele>
        <time>2022-07-17T14:10:48Z</time>
      </trkpt>
      <trkpt lat="44.87439" lon="6.69294">
        <ele>1467.2</ele>
        <time>2022-07-17T14:10:49Z</time>
      </trkpt>
      <trkpt lat="44.87437" lon="6.69295">
        <ele>1467.4</ele>
        <time>2022-07-17T14:10:50Z</time>
      </trkpt>
      <trkpt lat="44.87435" lon="6.69297">
        <ele>1467.4</ele>
        <time>2022-07-17T14:10:51Z</time>
      </trkpt>
      <trkpt lat="44.87434" lon="6.69299">
        <ele>1467.6</ele>
        <time>2022-07-17T14:10:52Z</time>
      </trkpt>
      <trkpt lat="44.87432" lon="6.69301">
        <ele>1467.6</ele>
        <time>2022-07-17T14:10:53Z</time>
      </trkpt>
      <trkpt lat="44.87431" lon="6.69303">
        <ele>1467.6</ele>
        <time>2022-07-17T14:10:54Z</time>
      </trkpt>
      <trkpt lat="44.87429" lon="6.69305">
        <ele>1468</ele>
        <time>2022-07-17T14:10:55Z</time>
      </trkpt>
      <trkpt lat="44.87427" lon="6.69307">
        <ele>1468</ele>
        <time>2022-07-17T14:10:56Z</time>
      </trkpt>
      <trkpt lat="44.87426" lon="6.69309">
        <ele>1468.2</ele>
        <time>2022-07-17T14:10:57Z</time>
      </trkpt>
      <trkpt lat="44.87424" lon="6.6931">
        <ele>1468.2</ele>
        <time>2022-07-17T14:10:58Z</time>
      </trkpt>
      <trkpt lat="44.87422" lon="6.69312">
        <ele>1468.6</ele>
        <time>2022-07-17T14:10:59Z</time>
      </trkpt>
      <trkpt lat="44.87421" lon="6.69314">
        <ele>1468.6</ele>
        <time>2022-07-17T14:11:00Z</time>
      </trkpt>
      <trkpt lat="44.87419" lon="6.69316">
        <ele>1469</ele>
        <time>2022-07-17T14:11:01Z</time>
      </trkpt>
      <trkpt lat="44.87417" lon="6.69317">
        <ele>1469</ele>
        <time>2022-07-17T14:11:02Z</time>
      </trkpt>
      <trkpt lat="44.87415" lon="6.69319">
        <ele>1469.4</ele>
        <time>2022-07-17T14:11:03Z</time>
      </trkpt>
      <trkpt lat="44.87413" lon="6.6932">
        <ele>1469.4</ele>
        <time>2022-07-17T14:11:04Z</time>
      </trkpt>
      <trkpt lat="44.87411" lon="6.69322">
        <ele>1469.8</ele>
        <time>2022-07-17T14:11:05Z</time>
      </trkpt>
      <trkpt lat="44.87409" lon="6.69324">
        <ele>1470</ele>
        <time>2022-07-17T14:11:06Z</time>
      </trkpt>
      <trkpt lat="44.87407" lon="6.69326">
        <ele>1470</ele>
        <time>2022-07-17T14:11:07Z</time>
      </trkpt>
      <trkpt lat="44.87405" lon="6.69327">
        <ele>1470.4</ele>
        <time>2022-07-17T14:11:08Z</time>
      </trkpt>
      <trkpt lat="44.87403" lon="6.69329">
        <ele>1470.6</ele>
        <time>2022-07-17T14:11:09Z</time>
      </trkpt>
      <trkpt lat="44.87401" lon="6.6933">
        <ele>1470.6</ele>
        <time>2022-07-17T14:11:10Z</time>
      </trkpt>
      <trkpt lat="44.87399" lon="6.69332">
        <ele>1470.8</ele>
        <time>2022-07-17T14:11:11Z</time>
      </trkpt>
      <trkpt lat="44.87397" lon="6.69333">
        <ele>1470.8</ele>
        <time>2022-07-17T14:11:12Z</time>
      </trkpt>
      <trkpt lat="44.87395" lon="6.69335">
        <ele>1471.2</ele>
        <time>2022-07-17T14:11:13Z</time>
      </trkpt>
      <trkpt lat="44.87393" lon="6.69336">
        <ele>1471.4</ele>
        <time>2022-07-17T14:11:14Z</time>
      </trkpt>
      <trkpt lat="44.87391" lon="6.69338">
        <ele>1471.4</ele>
        <time>2022-07-17T14:11:15Z</time>
      </trkpt>
      <trkpt lat="44.87389" lon="6.69339">
        <ele>1471.6</ele>
        <time>2022-07-17T14:11:16Z</time>
      </trkpt>
      <trkpt lat="44.87387" lon="6.69341">
        <ele>1471.6</ele>
        <time>2022-07-17T14:11:17Z</time>
      </trkpt>
      <trkpt lat="44.87385" lon="6.69342">
        <ele>1471.8</ele>
        <time>2022-07-17T14:11:18Z</time>
      </trkpt>
      <trkpt lat="44.87384" lon="6.69343">
        <ele>1471.8</ele>
        <time>2022-07-17T14:11:19Z</time>
      </trkpt>
      <trkpt lat="44.87382" lon="6.69345">
        <ele>1472.2</ele>
        <time>2022-07-17T14:11:20Z</time>
      </trkpt>
      <trkpt lat="44.8738" lon="6.69346">
        <ele>1472.2</ele>
        <time>2022-07-17T14:11:21Z</time>
      </trkpt>
      <trkpt lat="44.87378" lon="6.69348">
        <ele>1472.6</ele>
        <time>2022-07-17T14:11:22Z</time>
      </trkpt>
      <trkpt lat="44.87377" lon="6.69349">
        <ele>1472.6</ele>
        <time>2022-07-17T14:11:23Z</time>
      </trkpt>
      <trkpt lat="44.87375" lon="6.69351">
        <ele>1472.8</ele>
        <time>2022-07-17T14:11:24Z</time>
      </trkpt>
      <trkpt lat="44.87373" lon="6.69352">
        <ele>1472.8</ele>
        <time>2022-07-17T14:11:25Z</time>
      </trkpt>
      <trkpt lat="44.87371" lon="6.69353">
        <ele>1473.2</ele>
        <time>2022-07-17T14:11:26Z</time>
      </trkpt>
      <trkpt lat="44.87369" lon="6.69355">
        <ele>1473.2</ele>
        <time>2022-07-17T14:11:27Z</time>
      </trkpt>
      <trkpt lat="44.87367" lon="6.69356">
        <ele>1473.2</ele>
        <time>2022-07-17T14:11:28Z</time>
      </trkpt>
      <trkpt lat="44.87365" lon="6.69357">
        <ele>1473.6</ele>
        <time>2022-07-17T14:11:29Z</time>
      </trkpt>
      <trkpt lat="44.87364" lon="6.69359">
        <ele>1473.6</ele>
        <time>2022-07-17T14:11:30Z</time>
      </trkpt>
      <trkpt lat="44.87362" lon="6.6936">
        <ele>1473.8</ele>
        <time>2022-07-17T14:11:31Z</time>
      </trkpt>
      <trkpt lat="44.8736" lon="6.69362">
        <ele>1473.8</ele>
        <time>2022-07-17T14:11:32Z</time>
      </trkpt>
      <trkpt lat="44.87358" lon="6.69363">
        <ele>1474</ele>
        <time>2022-07-17T14:11:33Z</time>
      </trkpt>
      <trkpt lat="44.87357" lon="6.69365">
        <ele>1474</ele>
        <time>2022-07-17T14:11:34Z</time>
      </trkpt>
      <trkpt lat="44.87355" lon="6.69366">
        <ele>1474.4</ele>
        <time>2022-07-17T14:11:35Z</time>
      </trkpt>
      <trkpt lat="44.87353" lon="6.69367">
        <ele>1474.4</ele>
        <time>2022-07-17T14:11:36Z</time>
      </trkpt>
      <trkpt lat="44.87351" lon="6.69369">
        <ele>1474.6</ele>
        <time>2022-07-17T14:11:37Z</time>
      </trkpt>
      <trkpt lat="44.8735" lon="6.6937">
        <ele>1475.2</ele>
        <time>2022-07-17T14:11:38Z</time>
      </trkpt>
      <trkpt lat="44.87348" lon="6.69371">
        <ele>1475.4</ele>
        <time>2022-07-17T14:11:39Z</time>
      </trkpt>
      <trkpt lat="44.87346" lon="6.69373">
        <ele>1475.8</ele>
        <time>2022-07-17T14:11:40Z</time>
      </trkpt>
      <trkpt lat="44.87344" lon="6.69374">
        <ele>1475.8</ele>
        <time>2022-07-17T14:11:41Z</time>
      </trkpt>
      <trkpt lat="44.87343" lon="6.69375">
        <ele>1476</ele>
        <time>2022-07-17T14:11:42Z</time>
      </trkpt>
      <trkpt lat="44.87341" lon="6.69377">
        <ele>1476</ele>
        <time>2022-07-17T14:11:43Z</time>
      </trkpt>
      <trkpt lat="44.87339" lon="6.69378">
        <ele>1476.4</ele>
        <time>2022-07-17T14:11:44Z</time>
      </trkpt>
      <trkpt lat="44.87338" lon="6.6938">
        <ele>1476.4</ele>
        <time>2022-07-17T14:11:45Z</time>
      </trkpt>
      <trkpt lat="44.87336" lon="6.69381">
        <ele>1476.6</ele>
        <time>2022-07-17T14:11:46Z</time>
      </trkpt>
      <trkpt lat="44.87335" lon="6.69383">
        <ele>1476.6</ele>
        <time>2022-07-17T14:11:47Z</time>
      </trkpt>
      <trkpt lat="44.87333" lon="6.69384">
        <ele>1476.8</ele>
        <time>2022-07-17T14:11:48Z</time>
      </trkpt>
      <trkpt lat="44.87331" lon="6.69386">
        <ele>1476.8</ele>
        <time>2022-07-17T14:11:49Z</time>
      </trkpt>
      <trkpt lat="44.8733" lon="6.69388">
        <ele>1476.8</ele>
        <time>2022-07-17T14:11:50Z</time>
      </trkpt>
      <trkpt lat="44.87328" lon="6.6939">
        <ele>1477.2</ele>
        <time>2022-07-17T14:11:51Z</time>
      </trkpt>
      <trkpt lat="44.87327" lon="6.69392">
        <ele>1477.2</ele>
        <time>2022-07-17T14:11:52Z</time>
      </trkpt>
      <trkpt lat="44.87325" lon="6.69394">
        <ele>1477.4</ele>
        <time>2022-07-17T14:11:53Z</time>
      </trkpt>
      <trkpt lat="44.87324" lon="6.69395">
        <ele>1477.4</ele>
        <time>2022-07-17T14:11:54Z</time>
      </trkpt>
      <trkpt lat="44.87322" lon="6.69397">
        <ele>1477.8</ele>
        <time>2022-07-17T14:11:55Z</time>
      </trkpt>
      <trkpt lat="44.87321" lon="6.69399">
        <ele>1477.8</ele>
        <time>2022-07-17T14:11:56Z</time>
      </trkpt>
      <trkpt lat="44.87319" lon="6.69401">
        <ele>1478</ele>
        <time>2022-07-17T14:11:57Z</time>
      </trkpt>
      <trkpt lat="44.87318" lon="6.69403">
        <ele>1478</ele>
        <time>2022-07-17T14:11:58Z</time>
      </trkpt>
      <trkpt lat="44.87316" lon="6.69405">
        <ele>1478.2</ele>
        <time>2022-07-17T14:11:59Z</time>
      </trkpt>
      <trkpt lat="44.87315" lon="6.69407">
        <ele>1478.2</ele>
        <time>2022-07-17T14:12:00Z</time>
      </trkpt>
      <trkpt lat="44.87314" lon="6.69409">
        <ele>1478.8</ele>
        <time>2022-07-17T14:12:01Z</time>
      </trkpt>
      <trkpt lat="44.87312" lon="6.69411">
        <ele>1478.8</ele>
        <time>2022-07-17T14:12:02Z</time>
      </trkpt>
      <trkpt lat="44.8731" lon="6.69413">
        <ele>1478.8</ele>
        <time>2022-07-17T14:12:03Z</time>
      </trkpt>
      <trkpt lat="44.87309" lon="6.69416">
        <ele>1478.8</ele>
        <time>2022-07-17T14:12:04Z</time>
      </trkpt>
      <trkpt lat="44.87308" lon="6.69418">
        <ele>1479</ele>
        <time>2022-07-17T14:12:05Z</time>
      </trkpt>
      <trkpt lat="44.87306" lon="6.6942">
        <ele>1479</ele>
        <time>2022-07-17T14:12:06Z</time>
      </trkpt>
      <trkpt lat="44.87305" lon="6.69423">
        <ele>1479.2</ele>
        <time>2022-07-17T14:12:07Z</time>
      </trkpt>
      <trkpt lat="44.87303" lon="6.69425">
        <ele>1479.2</ele>
        <time>2022-07-17T14:12:08Z</time>
      </trkpt>
      <trkpt lat="44.87302" lon="6.69428">
        <ele>1479.6</ele>
        <time>2022-07-17T14:12:09Z</time>
      </trkpt>
      <trkpt lat="44.87301" lon="6.6943">
        <ele>1479.6</ele>
        <time>2022-07-17T14:12:10Z</time>
      </trkpt>
      <trkpt lat="44.873" lon="6.69433">
        <ele>1480</ele>
        <time>2022-07-17T14:12:11Z</time>
      </trkpt>
      <trkpt lat="44.87299" lon="6.69436">
        <ele>1480</ele>
        <time>2022-07-17T14:12:12Z</time>
      </trkpt>
      <trkpt lat="44.87297" lon="6.69439">
        <ele>1480.2</ele>
        <time>2022-07-17T14:12:13Z</time>
      </trkpt>
      <trkpt lat="44.87296" lon="6.69441">
        <ele>1480.6</ele>
        <time>2022-07-17T14:12:14Z</time>
      </trkpt>
      <trkpt lat="44.87295" lon="6.69444">
        <ele>1480.6</ele>
        <time>2022-07-17T14:12:15Z</time>
      </trkpt>
      <trkpt lat="44.87294" lon="6.69447">
        <ele>1480.6</ele>
        <time>2022-07-17T14:12:16Z</time>
      </trkpt>
      <trkpt lat="44.87293" lon="6.69451">
        <ele>1480.6</ele>
        <time>2022-07-17T14:12:17Z</time>
      </trkpt>
      <trkpt lat="44.87291" lon="6.69454">
        <ele>1480.8</ele>
        <time>2022-07-17T14:12:18Z</time>
      </trkpt>
      <trkpt lat="44.8729" lon="6.69457">
        <ele>1481</ele>
        <time>2022-07-17T14:12:19Z</time>
      </trkpt>
      <trkpt lat="44.87289" lon="6.6946">
        <ele>1481</ele>
        <time>2022-07-17T14:12:20Z</time>
      </trkpt>
      <trkpt lat="44.87288" lon="6.69464">
        <ele>1481.2</ele>
        <time>2022-07-17T14:12:21Z</time>
      </trkpt>
      <trkpt lat="44.87288" lon="6.69467">
        <ele>1481.2</ele>
        <time>2022-07-17T14:12:22Z</time>
      </trkpt>
      <trkpt lat="44.87287" lon="6.69471">
        <ele>1481.6</ele>
        <time>2022-07-17T14:12:23Z</time>
      </trkpt>
      <trkpt lat="44.87286" lon="6.69474">
        <ele>1481.6</ele>
        <time>2022-07-17T14:12:24Z</time>
      </trkpt>
      <trkpt lat="44.87285" lon="6.69478">
        <ele>1482</ele>
        <time>2022-07-17T14:12:25Z</time>
      </trkpt>
      <trkpt lat="44.87285" lon="6.69481">
        <ele>1482</ele>
        <time>2022-07-17T14:12:26Z</time>
      </trkpt>
      <trkpt lat="44.87284" lon="6.69485">
        <ele>1482.2</ele>
        <time>2022-07-17T14:12:27Z</time>
      </trkpt>
      <trkpt lat="44.87284" lon="6.69488">
        <ele>1482.2</ele>
        <time>2022-07-17T14:12:28Z</time>
      </trkpt>
      <trkpt lat="44.87284" lon="6.69492">
        <ele>1482.6</ele>
        <time>2022-07-17T14:12:29Z</time>
      </trkpt>
      <trkpt lat="44.87283" lon="6.69495">
        <ele>1482.6</ele>
        <time>2022-07-17T14:12:30Z</time>
      </trkpt>
      <trkpt lat="44.87283" lon="6.69499">
        <ele>1483</ele>
        <time>2022-07-17T14:12:31Z</time>
      </trkpt>
      <trkpt lat="44.87283" lon="6.69502">
        <ele>1483</ele>
        <time>2022-07-17T14:12:32Z</time>
      </trkpt>
      <trkpt lat="44.87283" lon="6.69506">
        <ele>1483.2</ele>
        <time>2022-07-17T14:12:33Z</time>
      </trkpt>
      <trkpt lat="44.87283" lon="6.69509">
        <ele>1483.4</ele>
        <time>2022-07-17T14:12:34Z</time>
      </trkpt>
      <trkpt lat="44.87283" lon="6.69513">
        <ele>1483.4</ele>
        <time>2022-07-17T14:12:35Z</time>
      </trkpt>
      <trkpt lat="44.87283" lon="6.69517">
        <ele>1483.4</ele>
        <time>2022-07-17T14:12:36Z</time>
      </trkpt>
      <trkpt lat="44.87283" lon="6.6952">
        <ele>1483.8</ele>
        <time>2022-07-17T14:12:37Z</time>
      </trkpt>
      <trkpt lat="44.87282" lon="6.69524">
        <ele>1483.8</ele>
        <time>2022-07-17T14:12:38Z</time>
      </trkpt>
      <trkpt lat="44.87282" lon="6.69527">
        <ele>1484</ele>
        <time>2022-07-17T14:12:39Z</time>
      </trkpt>
      <trkpt lat="44.87282" lon="6.69531">
        <ele>1484</ele>
        <time>2022-07-17T14:12:40Z</time>
      </trkpt>
      <trkpt lat="44.87282" lon="6.69534">
        <ele>1484</ele>
        <time>2022-07-17T14:12:41Z</time>
      </trkpt>
      <trkpt lat="44.87282" lon="6.69537">
        <ele>1484.4</ele>
        <time>2022-07-17T14:12:42Z</time>
      </trkpt>
      <trkpt lat="44.87282" lon="6.6954">
        <ele>1484.4</ele>
        <time>2022-07-17T14:12:43Z</time>
      </trkpt>
      <trkpt lat="44.87283" lon="6.69544">
        <ele>1484.6</ele>
        <time>2022-07-17T14:12:44Z</time>
      </trkpt>
      <trkpt lat="44.87283" lon="6.69547">
        <ele>1484.6</ele>
        <time>2022-07-17T14:12:45Z</time>
      </trkpt>
      <trkpt lat="44.87283" lon="6.6955">
        <ele>1484.8</ele>
        <time>2022-07-17T14:12:46Z</time>
      </trkpt>
      <trkpt lat="44.87283" lon="6.69554">
        <ele>1484.8</ele>
        <time>2022-07-17T14:12:47Z</time>
      </trkpt>
      <trkpt lat="44.87283" lon="6.69557">
        <ele>1484.8</ele>
        <time>2022-07-17T14:12:48Z</time>
      </trkpt>
      <trkpt lat="44.87283" lon="6.69561">
        <ele>1485</ele>
        <time>2022-07-17T14:12:49Z</time>
      </trkpt>
      <trkpt lat="44.87283" lon="6.69565">
        <ele>1485</ele>
        <time>2022-07-17T14:12:50Z</time>
      </trkpt>
      <trkpt lat="44.87283" lon="6.69569">
        <ele>1485</ele>
        <time>2022-07-17T14:12:51Z</time>
      </trkpt>
      <trkpt lat="44.87283" lon="6.69572">
        <ele>1485.2</ele>
        <time>2022-07-17T14:12:52Z</time>
      </trkpt>
      <trkpt lat="44.87283" lon="6.69576">
        <ele>1485.2</ele>
        <time>2022-07-17T14:12:53Z</time>
      </trkpt>
      <trkpt lat="44.87283" lon="6.69579">
        <ele>1485.2</ele>
        <time>2022-07-17T14:12:54Z</time>
      </trkpt>
      <trkpt lat="44.87283" lon="6.69583">
        <ele>1485.2</ele>
        <time>2022-07-17T14:12:55Z</time>
      </trkpt>
      <trkpt lat="44.87283" lon="6.69587">
        <ele>1485.6</ele>
        <time>2022-07-17T14:12:56Z</time>
      </trkpt>
      <trkpt lat="44.87283" lon="6.69591">
        <ele>1485.6</ele>
        <time>2022-07-17T14:12:57Z</time>
      </trkpt>
      <trkpt lat="44.87283" lon="6.69596">
        <ele>1485.8</ele>
        <time>2022-07-17T14:12:58Z</time>
      </trkpt>
      <trkpt lat="44.87283" lon="6.696">
        <ele>1485.8</ele>
        <time>2022-07-17T14:12:59Z</time>
      </trkpt>
      <trkpt lat="44.87283" lon="6.69604">
        <ele>1486</ele>
        <time>2022-07-17T14:13:00Z</time>
      </trkpt>
      <trkpt lat="44.87283" lon="6.69608">
        <ele>1486.4</ele>
        <time>2022-07-17T14:13:01Z</time>
      </trkpt>
      <trkpt lat="44.87283" lon="6.69612">
        <ele>1486.4</ele>
        <time>2022-07-17T14:13:02Z</time>
      </trkpt>
      <trkpt lat="44.87282" lon="6.69616">
        <ele>1486.4</ele>
        <time>2022-07-17T14:13:03Z</time>
      </trkpt>
      <trkpt lat="44.87282" lon="6.69619">
        <ele>1486.6</ele>
        <time>2022-07-17T14:13:04Z</time>
      </trkpt>
      <trkpt lat="44.87282" lon="6.69623">
        <ele>1487</ele>
        <time>2022-07-17T14:13:05Z</time>
      </trkpt>
      <trkpt lat="44.87282" lon="6.69627">
        <ele>1487</ele>
        <time>2022-07-17T14:13:06Z</time>
      </trkpt>
      <trkpt lat="44.87282" lon="6.69631">
        <ele>1487.2</ele>
        <time>2022-07-17T14:13:07Z</time>
      </trkpt>
      <trkpt lat="44.87282" lon="6.69635">
        <ele>1487.2</ele>
        <time>2022-07-17T14:13:08Z</time>
      </trkpt>
      <trkpt lat="44.87282" lon="6.69638">
        <ele>1487.2</ele>
        <time>2022-07-17T14:13:09Z</time>
      </trkpt>
      <trkpt lat="44.87282" lon="6.69642">
        <ele>1487.2</ele>
        <time>2022-07-17T14:13:10Z</time>
      </trkpt>
      <trkpt lat="44.87282" lon="6.69645">
        <ele>1487.2</ele>
        <time>2022-07-17T14:13:11Z</time>
      </trkpt>
      <trkpt lat="44.87282" lon="6.69649">
        <ele>1487.2</ele>
        <time>2022-07-17T14:13:12Z</time>
      </trkpt>
      <trkpt lat="44.87282" lon="6.69652">
        <ele>1487</ele>
        <time>2022-07-17T14:13:13Z</time>
      </trkpt>
      <trkpt lat="44.87282" lon="6.69656">
        <ele>1487</ele>
        <time>2022-07-17T14:13:14Z</time>
      </trkpt>
      <trkpt lat="44.87282" lon="6.69659">
        <ele>1487</ele>
        <time>2022-07-17T14:13:15Z</time>
      </trkpt>
      <trkpt lat="44.87282" lon="6.69663">
        <ele>1487</ele>
        <time>2022-07-17T14:13:16Z</time>
      </trkpt>
      <trkpt lat="44.87282" lon="6.69666">
        <ele>1487</ele>
        <time>2022-07-17T14:13:17Z</time>
      </trkpt>
      <trkpt lat="44.87281" lon="6.6967">
        <ele>1487.4</ele>
        <time>2022-07-17T14:13:18Z</time>
      </trkpt>
      <trkpt lat="44.87281" lon="6.69674">
        <ele>1487.4</ele>
        <time>2022-07-17T14:13:19Z</time>
      </trkpt>
      <trkpt lat="44.87281" lon="6.69677">
        <ele>1487.4</ele>
        <time>2022-07-17T14:13:20Z</time>
      </trkpt>
      <trkpt lat="44.87281" lon="6.69681">
        <ele>1487.4</ele>
        <time>2022-07-17T14:13:21Z</time>
      </trkpt>
      <trkpt lat="44.8728" lon="6.69685">
        <ele>1487.4</ele>
        <time>2022-07-17T14:13:22Z</time>
      </trkpt>
      <trkpt lat="44.8728" lon="6.69689">
        <ele>1487.6</ele>
        <time>2022-07-17T14:13:23Z</time>
      </trkpt>
      <trkpt lat="44.8728" lon="6.69693">
        <ele>1487.6</ele>
        <time>2022-07-17T14:13:24Z</time>
      </trkpt>
      <trkpt lat="44.87279" lon="6.69697">
        <ele>1487.6</ele>
        <time>2022-07-17T14:13:25Z</time>
      </trkpt>
      <trkpt lat="44.87279" lon="6.697">
        <ele>1488</ele>
        <time>2022-07-17T14:13:26Z</time>
      </trkpt>
      <trkpt lat="44.87278" lon="6.69704">
        <ele>1488</ele>
        <time>2022-07-17T14:13:27Z</time>
      </trkpt>
      <trkpt lat="44.87278" lon="6.69708">
        <ele>1488</ele>
        <time>2022-07-17T14:13:28Z</time>
      </trkpt>
      <trkpt lat="44.87278" lon="6.69712">
        <ele>1488</ele>
        <time>2022-07-17T14:13:29Z</time>
      </trkpt>
      <trkpt lat="44.87277" lon="6.69716">
        <ele>1488.2</ele>
        <time>2022-07-17T14:13:30Z</time>
      </trkpt>
      <trkpt lat="44.87277" lon="6.6972">
        <ele>1488.2</ele>
        <time>2022-07-17T14:13:31Z</time>
      </trkpt>
      <trkpt lat="44.87277" lon="6.69724">
        <ele>1488.2</ele>
        <time>2022-07-17T14:13:32Z</time>
      </trkpt>
      <trkpt lat="44.87276" lon="6.69728">
        <ele>1488.2</ele>
        <time>2022-07-17T14:13:33Z</time>
      </trkpt>
      <trkpt lat="44.87276" lon="6.69732">
        <ele>1488.2</ele>
        <time>2022-07-17T14:13:34Z</time>
      </trkpt>
      <trkpt lat="44.87275" lon="6.69735">
        <ele>1488.2</ele>
        <time>2022-07-17T14:13:35Z</time>
      </trkpt>
      <trkpt lat="44.87275" lon="6.69739">
        <ele>1488.4</ele>
        <time>2022-07-17T14:13:36Z</time>
      </trkpt>
      <trkpt lat="44.87274" lon="6.69743">
        <ele>1488.4</ele>
        <time>2022-07-17T14:13:37Z</time>
      </trkpt>
      <trkpt lat="44.87274" lon="6.69746">
        <ele>1488.4</ele>
        <time>2022-07-17T14:13:38Z</time>
      </trkpt>
      <trkpt lat="44.87273" lon="6.6975">
        <ele>1488.8</ele>
        <time>2022-07-17T14:13:39Z</time>
      </trkpt>
      <trkpt lat="44.87273" lon="6.69754">
        <ele>1488.8</ele>
        <time>2022-07-17T14:13:40Z</time>
      </trkpt>
      <trkpt lat="44.87272" lon="6.69758">
        <ele>1489.2</ele>
        <time>2022-07-17T14:13:41Z</time>
      </trkpt>
      <trkpt lat="44.87272" lon="6.69761">
        <ele>1489.2</ele>
        <time>2022-07-17T14:13:42Z</time>
      </trkpt>
      <trkpt lat="44.87271" lon="6.69765">
        <ele>1489.4</ele>
        <time>2022-07-17T14:13:43Z</time>
      </trkpt>
      <trkpt lat="44.8727" lon="6.69769">
        <ele>1489.6</ele>
        <time>2022-07-17T14:13:44Z</time>
      </trkpt>
      <trkpt lat="44.87269" lon="6.69773">
        <ele>1490</ele>
        <time>2022-07-17T14:13:45Z</time>
      </trkpt>
      <trkpt lat="44.87269" lon="6.69777">
        <ele>1490</ele>
        <time>2022-07-17T14:13:46Z</time>
      </trkpt>
      <trkpt lat="44.87268" lon="6.6978">
        <ele>1490</ele>
        <time>2022-07-17T14:13:47Z</time>
      </trkpt>
      <trkpt lat="44.87267" lon="6.69784">
        <ele>1490</ele>
        <time>2022-07-17T14:13:48Z</time>
      </trkpt>
      <trkpt lat="44.87267" lon="6.69788">
        <ele>1490</ele>
        <time>2022-07-17T14:13:49Z</time>
      </trkpt>
      <trkpt lat="44.87266" lon="6.69791">
        <ele>1490.4</ele>
        <time>2022-07-17T14:13:50Z</time>
      </trkpt>
      <trkpt lat="44.87265" lon="6.69795">
        <ele>1490.6</ele>
        <time>2022-07-17T14:13:51Z</time>
      </trkpt>
      <trkpt lat="44.87264" lon="6.69799">
        <ele>1490.6</ele>
        <time>2022-07-17T14:13:52Z</time>
      </trkpt>
      <trkpt lat="44.87263" lon="6.69803">
        <ele>1490.8</ele>
        <time>2022-07-17T14:13:53Z</time>
      </trkpt>
      <trkpt lat="44.87263" lon="6.69806">
        <ele>1490.8</ele>
        <time>2022-07-17T14:13:54Z</time>
      </trkpt>
      <trkpt lat="44.87262" lon="6.6981">
        <ele>1491</ele>
        <time>2022-07-17T14:13:55Z</time>
      </trkpt>
      <trkpt lat="44.87261" lon="6.69814">
        <ele>1491.2</ele>
        <time>2022-07-17T14:13:56Z</time>
      </trkpt>
      <trkpt lat="44.8726" lon="6.69817">
        <ele>1491.6</ele>
        <time>2022-07-17T14:13:57Z</time>
      </trkpt>
      <trkpt lat="44.8726" lon="6.69821">
        <ele>1491.6</ele>
        <time>2022-07-17T14:13:58Z</time>
      </trkpt>
      <trkpt lat="44.87259" lon="6.69825">
        <ele>1491.8</ele>
        <time>2022-07-17T14:13:59Z</time>
      </trkpt>
      <trkpt lat="44.87258" lon="6.69828">
        <ele>1492</ele>
        <time>2022-07-17T14:14:00Z</time>
      </trkpt>
      <trkpt lat="44.87257" lon="6.69832">
        <ele>1492</ele>
        <time>2022-07-17T14:14:01Z</time>
      </trkpt>
      <trkpt lat="44.87256" lon="6.69835">
        <ele>1492.4</ele>
        <time>2022-07-17T14:14:02Z</time>
      </trkpt>
      <trkpt lat="44.87256" lon="6.69839">
        <ele>1492.4</ele>
        <time>2022-07-17T14:14:03Z</time>
      </trkpt>
      <trkpt lat="44.87255" lon="6.69842">
        <ele>1492.8</ele>
        <time>2022-07-17T14:14:04Z</time>
      </trkpt>
      <trkpt lat="44.87255" lon="6.69846">
        <ele>1492.8</ele>
        <time>2022-07-17T14:14:05Z</time>
      </trkpt>
      <trkpt lat="44.87254" lon="6.69849">
        <ele>1492.8</ele>
        <time>2022-07-17T14:14:06Z</time>
      </trkpt>
      <trkpt lat="44.87253" lon="6.69853">
        <ele>1493</ele>
        <time>2022-07-17T14:14:07Z</time>
      </trkpt>
      <trkpt lat="44.87253" lon="6.69857">
        <ele>1493</ele>
        <time>2022-07-17T14:14:08Z</time>
      </trkpt>
      <trkpt lat="44.87252" lon="6.6986">
        <ele>1493</ele>
        <time>2022-07-17T14:14:09Z</time>
      </trkpt>
      <trkpt lat="44.87251" lon="6.69864">
        <ele>1493.4</ele>
        <time>2022-07-17T14:14:10Z</time>
      </trkpt>
      <trkpt lat="44.8725" lon="6.69868">
        <ele>1493.4</ele>
        <time>2022-07-17T14:14:11Z</time>
      </trkpt>
      <trkpt lat="44.87249" lon="6.69872">
        <ele>1493.4</ele>
        <time>2022-07-17T14:14:12Z</time>
      </trkpt>
      <trkpt lat="44.87248" lon="6.69876">
        <ele>1493.6</ele>
        <time>2022-07-17T14:14:13Z</time>
      </trkpt>
      <trkpt lat="44.87247" lon="6.69879">
        <ele>1493.6</ele>
        <time>2022-07-17T14:14:14Z</time>
      </trkpt>
      <trkpt lat="44.87246" lon="6.69883">
        <ele>1493.8</ele>
        <time>2022-07-17T14:14:15Z</time>
      </trkpt>
      <trkpt lat="44.87246" lon="6.69887">
        <ele>1493.8</ele>
        <time>2022-07-17T14:14:16Z</time>
      </trkpt>
      <trkpt lat="44.87245" lon="6.6989">
        <ele>1494.2</ele>
        <time>2022-07-17T14:14:17Z</time>
      </trkpt>
      <trkpt lat="44.87244" lon="6.69894">
        <ele>1494.4</ele>
        <time>2022-07-17T14:14:18Z</time>
      </trkpt>
      <trkpt lat="44.87243" lon="6.69898">
        <ele>1494.4</ele>
        <time>2022-07-17T14:14:19Z</time>
      </trkpt>
      <trkpt lat="44.87243" lon="6.69902">
        <ele>1494.4</ele>
        <time>2022-07-17T14:14:20Z</time>
      </trkpt>
      <trkpt lat="44.87242" lon="6.69905">
        <ele>1494.8</ele>
        <time>2022-07-17T14:14:21Z</time>
      </trkpt>
      <trkpt lat="44.87241" lon="6.69909">
        <ele>1495</ele>
        <time>2022-07-17T14:14:22Z</time>
      </trkpt>
      <trkpt lat="44.8724" lon="6.69912">
        <ele>1495</ele>
        <time>2022-07-17T14:14:23Z</time>
      </trkpt>
      <trkpt lat="44.8724" lon="6.69915">
        <ele>1495.2</ele>
        <time>2022-07-17T14:14:24Z</time>
      </trkpt>
      <trkpt lat="44.87239" lon="6.69919">
        <ele>1495.2</ele>
        <time>2022-07-17T14:14:25Z</time>
      </trkpt>
      <trkpt lat="44.87239" lon="6.69922">
        <ele>1495.2</ele>
        <time>2022-07-17T14:14:26Z</time>
      </trkpt>
      <trkpt lat="44.87238" lon="6.69926">
        <ele>1495.4</ele>
        <time>2022-07-17T14:14:27Z</time>
      </trkpt>
      <trkpt lat="44.87238" lon="6.69929">
        <ele>1495.4</ele>
        <time>2022-07-17T14:14:28Z</time>
      </trkpt>
      <trkpt lat="44.87237" lon="6.69932">
        <ele>1495.4</ele>
        <time>2022-07-17T14:14:29Z</time>
      </trkpt>
      <trkpt lat="44.87237" lon="6.69936">
        <ele>1495.8</ele>
        <time>2022-07-17T14:14:30Z</time>
      </trkpt>
      <trkpt lat="44.87236" lon="6.69939">
        <ele>1495.8</ele>
        <time>2022-07-17T14:14:31Z</time>
      </trkpt>
      <trkpt lat="44.87236" lon="6.69942">
        <ele>1495.8</ele>
        <time>2022-07-17T14:14:32Z</time>
      </trkpt>
      <trkpt lat="44.87235" lon="6.69945">
        <ele>1495.8</ele>
        <time>2022-07-17T14:14:33Z</time>
      </trkpt>
      <trkpt lat="44.87234" lon="6.69948">
        <ele>1495.8</ele>
        <time>2022-07-17T14:14:34Z</time>
      </trkpt>
      <trkpt lat="44.87234" lon="6.69952">
        <ele>1495.8</ele>
        <time>2022-07-17T14:14:35Z</time>
      </trkpt>
      <trkpt lat="44.87234" lon="6.69955">
        <ele>1495.8</ele>
        <time>2022-07-17T14:14:36Z</time>
      </trkpt>
      <trkpt lat="44.87233" lon="6.69959">
        <ele>1495.8</ele>
        <time>2022-07-17T14:14:37Z</time>
      </trkpt>
      <trkpt lat="44.87233" lon="6.69963">
        <ele>1495.8</ele>
        <time>2022-07-17T14:14:39Z</time>
      </trkpt>
      <trkpt lat="44.87232" lon="6.69967">
        <ele>1495.8</ele>
        <time>2022-07-17T14:14:40Z</time>
      </trkpt>
      <trkpt lat="44.87232" lon="6.69971">
        <ele>1495.8</ele>
        <time>2022-07-17T14:14:41Z</time>
      </trkpt>
      <trkpt lat="44.87231" lon="6.69975">
        <ele>1495.8</ele>
        <time>2022-07-17T14:14:42Z</time>
      </trkpt>
      <trkpt lat="44.8723" lon="6.69979">
        <ele>1496</ele>
        <time>2022-07-17T14:14:43Z</time>
      </trkpt>
      <trkpt lat="44.87229" lon="6.69982">
        <ele>1496</ele>
        <time>2022-07-17T14:14:44Z</time>
      </trkpt>
      <trkpt lat="44.87229" lon="6.69986">
        <ele>1496</ele>
        <time>2022-07-17T14:14:45Z</time>
      </trkpt>
      <trkpt lat="44.87228" lon="6.69991">
        <ele>1496.4</ele>
        <time>2022-07-17T14:14:46Z</time>
      </trkpt>
      <trkpt lat="44.87228" lon="6.69995">
        <ele>1496.4</ele>
        <time>2022-07-17T14:14:47Z</time>
      </trkpt>
      <trkpt lat="44.87227" lon="6.69999">
        <ele>1496.8</ele>
        <time>2022-07-17T14:14:48Z</time>
      </trkpt>
      <trkpt lat="44.87226" lon="6.70003">
        <ele>1496.8</ele>
        <time>2022-07-17T14:14:49Z</time>
      </trkpt>
      <trkpt lat="44.87225" lon="6.70008">
        <ele>1497.2</ele>
        <time>2022-07-17T14:14:50Z</time>
      </trkpt>
      <trkpt lat="44.87224" lon="6.70012">
        <ele>1497.4</ele>
        <time>2022-07-17T14:14:51Z</time>
      </trkpt>
      <trkpt lat="44.87223" lon="6.70016">
        <ele>1497.4</ele>
        <time>2022-07-17T14:14:52Z</time>
      </trkpt>
      <trkpt lat="44.87222" lon="6.70021">
        <ele>1497.8</ele>
        <time>2022-07-17T14:14:53Z</time>
      </trkpt>
      <trkpt lat="44.87221" lon="6.70025">
        <ele>1497.8</ele>
        <time>2022-07-17T14:14:54Z</time>
      </trkpt>
      <trkpt lat="44.8722" lon="6.7003">
        <ele>1498.2</ele>
        <time>2022-07-17T14:14:55Z</time>
      </trkpt>
      <trkpt lat="44.87218" lon="6.7004">
        <ele>1498.4</ele>
        <time>2022-07-17T14:14:56Z</time>
      </trkpt>
      <trkpt lat="44.87217" lon="6.70045">
        <ele>1498.6</ele>
        <time>2022-07-17T14:14:57Z</time>
      </trkpt>
      <trkpt lat="44.87216" lon="6.70049">
        <ele>1498.8</ele>
        <time>2022-07-17T14:14:58Z</time>
      </trkpt>
      <trkpt lat="44.87215" lon="6.70054">
        <ele>1499.2</ele>
        <time>2022-07-17T14:14:59Z</time>
      </trkpt>
      <trkpt lat="44.87214" lon="6.70059">
        <ele>1499.4</ele>
        <time>2022-07-17T14:15:00Z</time>
      </trkpt>
      <trkpt lat="44.87213" lon="6.70064">
        <ele>1499.6</ele>
        <time>2022-07-17T14:15:01Z</time>
      </trkpt>
      <trkpt lat="44.87211" lon="6.70069">
        <ele>1499.6</ele>
        <time>2022-07-17T14:15:02Z</time>
      </trkpt>
      <trkpt lat="44.8721" lon="6.70073">
        <ele>1499.8</ele>
        <time>2022-07-17T14:15:03Z</time>
      </trkpt>
      <trkpt lat="44.87208" lon="6.70078">
        <ele>1499.8</ele>
        <time>2022-07-17T14:15:04Z</time>
      </trkpt>
      <trkpt lat="44.87206" lon="6.70083">
        <ele>1500.2</ele>
        <time>2022-07-17T14:15:05Z</time>
      </trkpt>
      <trkpt lat="44.87204" lon="6.70088">
        <ele>1500.2</ele>
        <time>2022-07-17T14:15:06Z</time>
      </trkpt>
      <trkpt lat="44.87202" lon="6.70093">
        <ele>1500.2</ele>
        <time>2022-07-17T14:15:07Z</time>
      </trkpt>
      <trkpt lat="44.872" lon="6.70098">
        <ele>1500.4</ele>
        <time>2022-07-17T14:15:08Z</time>
      </trkpt>
      <trkpt lat="44.87197" lon="6.70103">
        <ele>1500.4</ele>
        <time>2022-07-17T14:15:09Z</time>
      </trkpt>
      <trkpt lat="44.87195" lon="6.70108">
        <ele>1500.4</ele>
        <time>2022-07-17T14:15:10Z</time>
      </trkpt>
      <trkpt lat="44.87193" lon="6.70112">
        <ele>1500.4</ele>
        <time>2022-07-17T14:15:11Z</time>
      </trkpt>
      <trkpt lat="44.8719" lon="6.70117">
        <ele>1500.6</ele>
        <time>2022-07-17T14:15:12Z</time>
      </trkpt>
      <trkpt lat="44.87186" lon="6.70121">
        <ele>1500.6</ele>
        <time>2022-07-17T14:15:13Z</time>
      </trkpt>
      <trkpt lat="44.87183" lon="6.70126">
        <ele>1500.6</ele>
        <time>2022-07-17T14:15:14Z</time>
      </trkpt>
      <trkpt lat="44.8718" lon="6.7013">
        <ele>1500.6</ele>
        <time>2022-07-17T14:15:15Z</time>
      </trkpt>
      <trkpt lat="44.87176" lon="6.70135">
        <ele>1500.6</ele>
        <time>2022-07-17T14:15:16Z</time>
      </trkpt>
      <trkpt lat="44.87172" lon="6.70139">
        <ele>1500.8</ele>
        <time>2022-07-17T14:15:17Z</time>
      </trkpt>
      <trkpt lat="44.87169" lon="6.70143">
        <ele>1500.8</ele>
        <time>2022-07-17T14:15:18Z</time>
      </trkpt>
      <trkpt lat="44.87165" lon="6.70147">
        <ele>1500.8</ele>
        <time>2022-07-17T14:15:19Z</time>
      </trkpt>
      <trkpt lat="44.87161" lon="6.7015">
        <ele>1501.2</ele>
        <time>2022-07-17T14:15:20Z</time>
      </trkpt>
      <trkpt lat="44.87156" lon="6.70153">
        <ele>1501.2</ele>
        <time>2022-07-17T14:15:21Z</time>
      </trkpt>
      <trkpt lat="44.87152" lon="6.70156">
        <ele>1501.2</ele>
        <time>2022-07-17T14:15:22Z</time>
      </trkpt>
      <trkpt lat="44.87148" lon="6.70159">
        <ele>1501.4</ele>
        <time>2022-07-17T14:15:23Z</time>
      </trkpt>
      <trkpt lat="44.87143" lon="6.70162">
        <ele>1501.4</ele>
        <time>2022-07-17T14:15:24Z</time>
      </trkpt>
      <trkpt lat="44.87139" lon="6.70164">
        <ele>1501.4</ele>
        <time>2022-07-17T14:15:25Z</time>
      </trkpt>
      <trkpt lat="44.87135" lon="6.70167">
        <ele>1501.4</ele>
        <time>2022-07-17T14:15:26Z</time>
      </trkpt>
      <trkpt lat="44.8713" lon="6.70169">
        <ele>1501.6</ele>
        <time>2022-07-17T14:15:27Z</time>
      </trkpt>
      <trkpt lat="44.87126" lon="6.70171">
        <ele>1501.6</ele>
        <time>2022-07-17T14:15:28Z</time>
      </trkpt>
      <trkpt lat="44.87121" lon="6.70173">
        <ele>1501.6</ele>
        <time>2022-07-17T14:15:29Z</time>
      </trkpt>
      <trkpt lat="44.87117" lon="6.70174">
        <ele>1501.6</ele>
        <time>2022-07-17T14:15:30Z</time>
      </trkpt>
      <trkpt lat="44.87112" lon="6.70175">
        <ele>1501.6</ele>
        <time>2022-07-17T14:15:31Z</time>
      </trkpt>
      <trkpt lat="44.87108" lon="6.70177">
        <ele>1501.6</ele>
        <time>2022-07-17T14:15:32Z</time>
      </trkpt>
      <trkpt lat="44.87104" lon="6.70178">
        <ele>1501.8</ele>
        <time>2022-07-17T14:15:33Z</time>
      </trkpt>
      <trkpt lat="44.87099" lon="6.7018">
        <ele>1501.8</ele>
        <time>2022-07-17T14:15:34Z</time>
      </trkpt>
      <trkpt lat="44.87094" lon="6.70181">
        <ele>1501.8</ele>
        <time>2022-07-17T14:15:35Z</time>
      </trkpt>
      <trkpt lat="44.8709" lon="6.70182">
        <ele>1501.8</ele>
        <time>2022-07-17T14:15:36Z</time>
      </trkpt>
      <trkpt lat="44.87086" lon="6.70183">
        <ele>1502.2</ele>
        <time>2022-07-17T14:15:37Z</time>
      </trkpt>
      <trkpt lat="44.87082" lon="6.70184">
        <ele>1502.2</ele>
        <time>2022-07-17T14:15:38Z</time>
      </trkpt>
      <trkpt lat="44.87077" lon="6.70186">
        <ele>1502.2</ele>
        <time>2022-07-17T14:15:39Z</time>
      </trkpt>
      <trkpt lat="44.87073" lon="6.70187">
        <ele>1502.2</ele>
        <time>2022-07-17T14:15:40Z</time>
      </trkpt>
      <trkpt lat="44.87069" lon="6.70188">
        <ele>1502.2</ele>
        <time>2022-07-17T14:15:41Z</time>
      </trkpt>
      <trkpt lat="44.87065" lon="6.70189">
        <ele>1502.2</ele>
        <time>2022-07-17T14:15:42Z</time>
      </trkpt>
      <trkpt lat="44.87062" lon="6.7019">
        <ele>1502.2</ele>
        <time>2022-07-17T14:15:43Z</time>
      </trkpt>
      <trkpt lat="44.87058" lon="6.70191">
        <ele>1502.2</ele>
        <time>2022-07-17T14:15:44Z</time>
      </trkpt>
      <trkpt lat="44.87054" lon="6.70192">
        <ele>1502.4</ele>
        <time>2022-07-17T14:15:45Z</time>
      </trkpt>
      <trkpt lat="44.8705" lon="6.70193">
        <ele>1502.4</ele>
        <time>2022-07-17T14:15:46Z</time>
      </trkpt>
      <trkpt lat="44.87046" lon="6.70194">
        <ele>1502.6</ele>
        <time>2022-07-17T14:15:47Z</time>
      </trkpt>
      <trkpt lat="44.87043" lon="6.70195">
        <ele>1502.6</ele>
        <time>2022-07-17T14:15:48Z</time>
      </trkpt>
      <trkpt lat="44.87039" lon="6.70196">
        <ele>1502.6</ele>
        <time>2022-07-17T14:15:49Z</time>
      </trkpt>
      <trkpt lat="44.87035" lon="6.70198">
        <ele>1502.8</ele>
        <time>2022-07-17T14:15:50Z</time>
      </trkpt>
      <trkpt lat="44.87031" lon="6.70199">
        <ele>1502.8</ele>
        <time>2022-07-17T14:15:51Z</time>
      </trkpt>
      <trkpt lat="44.87027" lon="6.702">
        <ele>1503.2</ele>
        <time>2022-07-17T14:15:52Z</time>
      </trkpt>
      <trkpt lat="44.87024" lon="6.70201">
        <ele>1503.2</ele>
        <time>2022-07-17T14:15:53Z</time>
      </trkpt>
      <trkpt lat="44.8702" lon="6.70203">
        <ele>1503.6</ele>
        <time>2022-07-17T14:15:54Z</time>
      </trkpt>
      <trkpt lat="44.87017" lon="6.70205">
        <ele>1503.6</ele>
        <time>2022-07-17T14:15:55Z</time>
      </trkpt>
      <trkpt lat="44.87014" lon="6.70206">
        <ele>1503.8</ele>
        <time>2022-07-17T14:15:56Z</time>
      </trkpt>
      <trkpt lat="44.8701" lon="6.70208">
        <ele>1504.2</ele>
        <time>2022-07-17T14:15:57Z</time>
      </trkpt>
      <trkpt lat="44.87007" lon="6.7021">
        <ele>1504.2</ele>
        <time>2022-07-17T14:15:58Z</time>
      </trkpt>
      <trkpt lat="44.87004" lon="6.70212">
        <ele>1504.2</ele>
        <time>2022-07-17T14:15:59Z</time>
      </trkpt>
      <trkpt lat="44.87001" lon="6.70214">
        <ele>1504.4</ele>
        <time>2022-07-17T14:16:00Z</time>
      </trkpt>
      <trkpt lat="44.86997" lon="6.70216">
        <ele>1504.4</ele>
        <time>2022-07-17T14:16:01Z</time>
      </trkpt>
      <trkpt lat="44.86994" lon="6.70218">
        <ele>1504.4</ele>
        <time>2022-07-17T14:16:02Z</time>
      </trkpt>
      <trkpt lat="44.86992" lon="6.7022">
        <ele>1504.8</ele>
        <time>2022-07-17T14:16:03Z</time>
      </trkpt>
      <trkpt lat="44.86989" lon="6.70223">
        <ele>1505.2</ele>
        <time>2022-07-17T14:16:04Z</time>
      </trkpt>
      <trkpt lat="44.86986" lon="6.70225">
        <ele>1505.4</ele>
        <time>2022-07-17T14:16:05Z</time>
      </trkpt>
      <trkpt lat="44.86983" lon="6.70228">
        <ele>1505.8</ele>
        <time>2022-07-17T14:16:06Z</time>
      </trkpt>
      <trkpt lat="44.86981" lon="6.7023">
        <ele>1506</ele>
        <time>2022-07-17T14:16:07Z</time>
      </trkpt>
      <trkpt lat="44.86978" lon="6.70232">
        <ele>1506</ele>
        <time>2022-07-17T14:16:08Z</time>
      </trkpt>
      <trkpt lat="44.86976" lon="6.70235">
        <ele>1506.4</ele>
        <time>2022-07-17T14:16:09Z</time>
      </trkpt>
      <trkpt lat="44.86974" lon="6.70237">
        <ele>1506.4</ele>
        <time>2022-07-17T14:16:10Z</time>
      </trkpt>
      <trkpt lat="44.86971" lon="6.7024">
        <ele>1506.8</ele>
        <time>2022-07-17T14:16:11Z</time>
      </trkpt>
      <trkpt lat="44.86969" lon="6.70243">
        <ele>1506.8</ele>
        <time>2022-07-17T14:16:12Z</time>
      </trkpt>
      <trkpt lat="44.86967" lon="6.70245">
        <ele>1507</ele>
        <time>2022-07-17T14:16:13Z</time>
      </trkpt>
      <trkpt lat="44.86965" lon="6.70248">
        <ele>1507</ele>
        <time>2022-07-17T14:16:14Z</time>
      </trkpt>
      <trkpt lat="44.86963" lon="6.70251">
        <ele>1507.4</ele>
        <time>2022-07-17T14:16:15Z</time>
      </trkpt>
      <trkpt lat="44.86961" lon="6.70254">
        <ele>1507.6</ele>
        <time>2022-07-17T14:16:16Z</time>
      </trkpt>
      <trkpt lat="44.86959" lon="6.70256">
        <ele>1507.8</ele>
        <time>2022-07-17T14:16:17Z</time>
      </trkpt>
      <trkpt lat="44.86957" lon="6.70259">
        <ele>1508.2</ele>
        <time>2022-07-17T14:16:18Z</time>
      </trkpt>
      <trkpt lat="44.86955" lon="6.70261">
        <ele>1508.4</ele>
        <time>2022-07-17T14:16:19Z</time>
      </trkpt>
      <trkpt lat="44.86953" lon="6.70264">
        <ele>1508.6</ele>
        <time>2022-07-17T14:16:20Z</time>
      </trkpt>
      <trkpt lat="44.86951" lon="6.70267">
        <ele>1509</ele>
        <time>2022-07-17T14:16:21Z</time>
      </trkpt>
      <trkpt lat="44.86949" lon="6.7027">
        <ele>1509</ele>
        <time>2022-07-17T14:16:22Z</time>
      </trkpt>
      <trkpt lat="44.86948" lon="6.70272">
        <ele>1509.4</ele>
        <time>2022-07-17T14:16:23Z</time>
      </trkpt>
      <trkpt lat="44.86946" lon="6.70275">
        <ele>1509.4</ele>
        <time>2022-07-17T14:16:24Z</time>
      </trkpt>
      <trkpt lat="44.86944" lon="6.70277">
        <ele>1509.4</ele>
        <time>2022-07-17T14:16:25Z</time>
      </trkpt>
      <trkpt lat="44.86942" lon="6.7028">
        <ele>1509.6</ele>
        <time>2022-07-17T14:16:26Z</time>
      </trkpt>
      <trkpt lat="44.8694" lon="6.70283">
        <ele>1509.8</ele>
        <time>2022-07-17T14:16:27Z</time>
      </trkpt>
      <trkpt lat="44.86939" lon="6.70285">
        <ele>1509.8</ele>
        <time>2022-07-17T14:16:28Z</time>
      </trkpt>
      <trkpt lat="44.86937" lon="6.70287">
        <ele>1510.2</ele>
        <time>2022-07-17T14:16:29Z</time>
      </trkpt>
      <trkpt lat="44.86936" lon="6.7029">
        <ele>1510.4</ele>
        <time>2022-07-17T14:16:30Z</time>
      </trkpt>
      <trkpt lat="44.86934" lon="6.70294">
        <ele>1510.6</ele>
        <time>2022-07-17T14:16:31Z</time>
      </trkpt>
      <trkpt lat="44.86933" lon="6.70297">
        <ele>1511</ele>
        <time>2022-07-17T14:16:32Z</time>
      </trkpt>
      <trkpt lat="44.86931" lon="6.703">
        <ele>1511.2</ele>
        <time>2022-07-17T14:16:33Z</time>
      </trkpt>
      <trkpt lat="44.8693" lon="6.70303">
        <ele>1511.6</ele>
        <time>2022-07-17T14:16:34Z</time>
      </trkpt>
      <trkpt lat="44.86928" lon="6.70306">
        <ele>1511.8</ele>
        <time>2022-07-17T14:16:35Z</time>
      </trkpt>
      <trkpt lat="44.86927" lon="6.70309">
        <ele>1512.2</ele>
        <time>2022-07-17T14:16:36Z</time>
      </trkpt>
      <trkpt lat="44.86926" lon="6.70312">
        <ele>1512.4</ele>
        <time>2022-07-17T14:16:37Z</time>
      </trkpt>
      <trkpt lat="44.86925" lon="6.70316">
        <ele>1512.6</ele>
        <time>2022-07-17T14:16:38Z</time>
      </trkpt>
      <trkpt lat="44.86924" lon="6.70319">
        <ele>1512.8</ele>
        <time>2022-07-17T14:16:39Z</time>
      </trkpt>
      <trkpt lat="44.86922" lon="6.70322">
        <ele>1512.8</ele>
        <time>2022-07-17T14:16:40Z</time>
      </trkpt>
      <trkpt lat="44.86921" lon="6.70325">
        <ele>1513.2</ele>
        <time>2022-07-17T14:16:41Z</time>
      </trkpt>
      <trkpt lat="44.8692" lon="6.70328">
        <ele>1513.2</ele>
        <time>2022-07-17T14:16:42Z</time>
      </trkpt>
      <trkpt lat="44.86919" lon="6.70332">
        <ele>1513.6</ele>
        <time>2022-07-17T14:16:43Z</time>
      </trkpt>
      <trkpt lat="44.86919" lon="6.70335">
        <ele>1513.6</ele>
        <time>2022-07-17T14:16:44Z</time>
      </trkpt>
      <trkpt lat="44.86918" lon="6.70339">
        <ele>1513.8</ele>
        <time>2022-07-17T14:16:45Z</time>
      </trkpt>
      <trkpt lat="44.86917" lon="6.70342">
        <ele>1513.8</ele>
        <time>2022-07-17T14:16:46Z</time>
      </trkpt>
      <trkpt lat="44.86916" lon="6.70346">
        <ele>1514</ele>
        <time>2022-07-17T14:16:47Z</time>
      </trkpt>
      <trkpt lat="44.86916" lon="6.70348">
        <ele>1514</ele>
        <time>2022-07-17T14:16:48Z</time>
      </trkpt>
      <trkpt lat="44.86915" lon="6.70352">
        <ele>1514</ele>
        <time>2022-07-17T14:16:49Z</time>
      </trkpt>
      <trkpt lat="44.86914" lon="6.70354">
        <ele>1514</ele>
        <time>2022-07-17T14:16:50Z</time>
      </trkpt>
      <trkpt lat="44.86913" lon="6.70358">
        <ele>1514</ele>
        <time>2022-07-17T14:16:51Z</time>
      </trkpt>
      <trkpt lat="44.86913" lon="6.7036">
        <ele>1514</ele>
        <time>2022-07-17T14:16:52Z</time>
      </trkpt>
      <trkpt lat="44.86913" lon="6.70363">
        <ele>1514.4</ele>
        <time>2022-07-17T14:16:53Z</time>
      </trkpt>
      <trkpt lat="44.86912" lon="6.70367">
        <ele>1514.4</ele>
        <time>2022-07-17T14:16:54Z</time>
      </trkpt>
      <trkpt lat="44.86912" lon="6.7037">
        <ele>1514.4</ele>
        <time>2022-07-17T14:16:55Z</time>
      </trkpt>
      <trkpt lat="44.86912" lon="6.70374">
        <ele>1514.4</ele>
        <time>2022-07-17T14:16:56Z</time>
      </trkpt>
      <trkpt lat="44.86912" lon="6.70377">
        <ele>1514.4</ele>
        <time>2022-07-17T14:16:57Z</time>
      </trkpt>
      <trkpt lat="44.86911" lon="6.70381">
        <ele>1514.4</ele>
        <time>2022-07-17T14:16:58Z</time>
      </trkpt>
      <trkpt lat="44.86911" lon="6.70384">
        <ele>1514.6</ele>
        <time>2022-07-17T14:16:59Z</time>
      </trkpt>
      <trkpt lat="44.8691" lon="6.70388">
        <ele>1514.6</ele>
        <time>2022-07-17T14:17:00Z</time>
      </trkpt>
      <trkpt lat="44.8691" lon="6.7039">
        <ele>1514.8</ele>
        <time>2022-07-17T14:17:01Z</time>
      </trkpt>
      <trkpt lat="44.86909" lon="6.70393">
        <ele>1515</ele>
        <time>2022-07-17T14:17:02Z</time>
      </trkpt>
      <trkpt lat="44.86909" lon="6.70396">
        <ele>1515.4</ele>
        <time>2022-07-17T14:17:03Z</time>
      </trkpt>
      <trkpt lat="44.86908" lon="6.70399">
        <ele>1515.4</ele>
        <time>2022-07-17T14:17:04Z</time>
      </trkpt>
      <trkpt lat="44.86908" lon="6.70402">
        <ele>1515.4</ele>
        <time>2022-07-17T14:17:05Z</time>
      </trkpt>
      <trkpt lat="44.86908" lon="6.70406">
        <ele>1515.4</ele>
        <time>2022-07-17T14:17:06Z</time>
      </trkpt>
      <trkpt lat="44.86908" lon="6.70409">
        <ele>1515.4</ele>
        <time>2022-07-17T14:17:07Z</time>
      </trkpt>
      <trkpt lat="44.86908" lon="6.70413">
        <ele>1515.6</ele>
        <time>2022-07-17T14:17:08Z</time>
      </trkpt>
      <trkpt lat="44.86908" lon="6.70416">
        <ele>1515.6</ele>
        <time>2022-07-17T14:17:09Z</time>
      </trkpt>
      <trkpt lat="44.86908" lon="6.70419">
        <ele>1515.6</ele>
        <time>2022-07-17T14:17:10Z</time>
      </trkpt>
      <trkpt lat="44.86907" lon="6.70422">
        <ele>1515.6</ele>
        <time>2022-07-17T14:17:11Z</time>
      </trkpt>
      <trkpt lat="44.86907" lon="6.70425">
        <ele>1515.8</ele>
        <time>2022-07-17T14:17:12Z</time>
      </trkpt>
      <trkpt lat="44.86907" lon="6.70431">
        <ele>1515.8</ele>
        <time>2022-07-17T14:17:13Z</time>
      </trkpt>
      <trkpt lat="44.86907" lon="6.70435">
        <ele>1515.8</ele>
        <time>2022-07-17T14:17:14Z</time>
      </trkpt>
      <trkpt lat="44.86907" lon="6.70444">
        <ele>1516</ele>
        <time>2022-07-17T14:17:15Z</time>
      </trkpt>
      <trkpt lat="44.86907" lon="6.70448">
        <ele>1516</ele>
        <time>2022-07-17T14:17:16Z</time>
      </trkpt>
      <trkpt lat="44.86907" lon="6.70452">
        <ele>1516</ele>
        <time>2022-07-17T14:17:17Z</time>
      </trkpt>
      <trkpt lat="44.86907" lon="6.70456">
        <ele>1516</ele>
        <time>2022-07-17T14:17:18Z</time>
      </trkpt>
      <trkpt lat="44.86906" lon="6.7046">
        <ele>1516.4</ele>
        <time>2022-07-17T14:17:19Z</time>
      </trkpt>
      <trkpt lat="44.86905" lon="6.70464">
        <ele>1516.4</ele>
        <time>2022-07-17T14:17:20Z</time>
      </trkpt>
      <trkpt lat="44.86905" lon="6.70468">
        <ele>1516.8</ele>
        <time>2022-07-17T14:17:21Z</time>
      </trkpt>
      <trkpt lat="44.86904" lon="6.70472">
        <ele>1516.8</ele>
        <time>2022-07-17T14:17:22Z</time>
      </trkpt>
      <trkpt lat="44.86904" lon="6.70476">
        <ele>1517</ele>
        <time>2022-07-17T14:17:23Z</time>
      </trkpt>
      <trkpt lat="44.86904" lon="6.7048">
        <ele>1517</ele>
        <time>2022-07-17T14:17:24Z</time>
      </trkpt>
      <trkpt lat="44.86903" lon="6.70484">
        <ele>1517.4</ele>
        <time>2022-07-17T14:17:25Z</time>
      </trkpt>
      <trkpt lat="44.86902" lon="6.70488">
        <ele>1517.4</ele>
        <time>2022-07-17T14:17:26Z</time>
      </trkpt>
      <trkpt lat="44.86902" lon="6.70491">
        <ele>1517.6</ele>
        <time>2022-07-17T14:17:27Z</time>
      </trkpt>
      <trkpt lat="44.86901" lon="6.70494">
        <ele>1517.6</ele>
        <time>2022-07-17T14:17:28Z</time>
      </trkpt>
      <trkpt lat="44.86901" lon="6.70498">
        <ele>1518</ele>
        <time>2022-07-17T14:17:29Z</time>
      </trkpt>
      <trkpt lat="44.869" lon="6.70501">
        <ele>1518</ele>
        <time>2022-07-17T14:17:30Z</time>
      </trkpt>
      <trkpt lat="44.86899" lon="6.70505">
        <ele>1518.2</ele>
        <time>2022-07-17T14:17:31Z</time>
      </trkpt>
      <trkpt lat="44.86898" lon="6.70509">
        <ele>1518.2</ele>
        <time>2022-07-17T14:17:32Z</time>
      </trkpt>
      <trkpt lat="44.86897" lon="6.70513">
        <ele>1518.4</ele>
        <time>2022-07-17T14:17:33Z</time>
      </trkpt>
      <trkpt lat="44.86896" lon="6.70516">
        <ele>1518.6</ele>
        <time>2022-07-17T14:17:34Z</time>
      </trkpt>
      <trkpt lat="44.86895" lon="6.7052">
        <ele>1518.6</ele>
        <time>2022-07-17T14:17:35Z</time>
      </trkpt>
      <trkpt lat="44.86894" lon="6.70523">
        <ele>1519</ele>
        <time>2022-07-17T14:17:36Z</time>
      </trkpt>
      <trkpt lat="44.86893" lon="6.70526">
        <ele>1519</ele>
        <time>2022-07-17T14:17:37Z</time>
      </trkpt>
      <trkpt lat="44.86892" lon="6.7053">
        <ele>1519.2</ele>
        <time>2022-07-17T14:17:38Z</time>
      </trkpt>
      <trkpt lat="44.86891" lon="6.70534">
        <ele>1519.2</ele>
        <time>2022-07-17T14:17:39Z</time>
      </trkpt>
      <trkpt lat="44.8689" lon="6.70538">
        <ele>1519.6</ele>
        <time>2022-07-17T14:17:40Z</time>
      </trkpt>
      <trkpt lat="44.86889" lon="6.70541">
        <ele>1519.6</ele>
        <time>2022-07-17T14:17:41Z</time>
      </trkpt>
      <trkpt lat="44.86888" lon="6.70544">
        <ele>1520</ele>
        <time>2022-07-17T14:17:42Z</time>
      </trkpt>
      <trkpt lat="44.86887" lon="6.70548">
        <ele>1520</ele>
        <time>2022-07-17T14:17:43Z</time>
      </trkpt>
      <trkpt lat="44.86886" lon="6.70552">
        <ele>1520.2</ele>
        <time>2022-07-17T14:17:44Z</time>
      </trkpt>
      <trkpt lat="44.86885" lon="6.70555">
        <ele>1520.2</ele>
        <time>2022-07-17T14:17:45Z</time>
      </trkpt>
      <trkpt lat="44.86884" lon="6.70559">
        <ele>1520.6</ele>
        <time>2022-07-17T14:17:46Z</time>
      </trkpt>
      <trkpt lat="44.86884" lon="6.70562">
        <ele>1520.6</ele>
        <time>2022-07-17T14:17:47Z</time>
      </trkpt>
      <trkpt lat="44.86883" lon="6.70565">
        <ele>1520.6</ele>
        <time>2022-07-17T14:17:48Z</time>
      </trkpt>
      <trkpt lat="44.86882" lon="6.70568">
        <ele>1520.8</ele>
        <time>2022-07-17T14:17:49Z</time>
      </trkpt>
      <trkpt lat="44.86881" lon="6.70571">
        <ele>1520.8</ele>
        <time>2022-07-17T14:17:50Z</time>
      </trkpt>
      <trkpt lat="44.8688" lon="6.70574">
        <ele>1521</ele>
        <time>2022-07-17T14:17:51Z</time>
      </trkpt>
      <trkpt lat="44.86878" lon="6.70577">
        <ele>1521</ele>
        <time>2022-07-17T14:17:52Z</time>
      </trkpt>
      <trkpt lat="44.86877" lon="6.70581">
        <ele>1521.4</ele>
        <time>2022-07-17T14:17:53Z</time>
      </trkpt>
      <trkpt lat="44.86876" lon="6.70584">
        <ele>1521.6</ele>
        <time>2022-07-17T14:17:54Z</time>
      </trkpt>
      <trkpt lat="44.86875" lon="6.70588">
        <ele>1521.6</ele>
        <time>2022-07-17T14:17:55Z</time>
      </trkpt>
      <trkpt lat="44.86874" lon="6.70592">
        <ele>1521.8</ele>
        <time>2022-07-17T14:17:56Z</time>
      </trkpt>
      <trkpt lat="44.86874" lon="6.70596">
        <ele>1521.8</ele>
        <time>2022-07-17T14:17:57Z</time>
      </trkpt>
      <trkpt lat="44.86873" lon="6.706">
        <ele>1522.4</ele>
        <time>2022-07-17T14:17:58Z</time>
      </trkpt>
      <trkpt lat="44.86872" lon="6.70603">
        <ele>1522.8</ele>
        <time>2022-07-17T14:17:59Z</time>
      </trkpt>
      <trkpt lat="44.86871" lon="6.70607">
        <ele>1523.2</ele>
        <time>2022-07-17T14:18:00Z</time>
      </trkpt>
      <trkpt lat="44.8687" lon="6.7061">
        <ele>1523.2</ele>
        <time>2022-07-17T14:18:01Z</time>
      </trkpt>
      <trkpt lat="44.86869" lon="6.70614">
        <ele>1523.2</ele>
        <time>2022-07-17T14:18:02Z</time>
      </trkpt>
      <trkpt lat="44.86868" lon="6.70617">
        <ele>1523.2</ele>
        <time>2022-07-17T14:18:03Z</time>
      </trkpt>
      <trkpt lat="44.86867" lon="6.70621">
        <ele>1523.2</ele>
        <time>2022-07-17T14:18:04Z</time>
      </trkpt>
      <trkpt lat="44.86866" lon="6.70624">
        <ele>1523.2</ele>
        <time>2022-07-17T14:18:05Z</time>
      </trkpt>
      <trkpt lat="44.86866" lon="6.70628">
        <ele>1523.2</ele>
        <time>2022-07-17T14:18:07Z</time>
      </trkpt>
      <trkpt lat="44.86865" lon="6.70632">
        <ele>1523.6</ele>
        <time>2022-07-17T14:18:08Z</time>
      </trkpt>
      <trkpt lat="44.86864" lon="6.70636">
        <ele>1523.6</ele>
        <time>2022-07-17T14:18:09Z</time>
      </trkpt>
      <trkpt lat="44.86863" lon="6.70639">
        <ele>1523.6</ele>
        <time>2022-07-17T14:18:10Z</time>
      </trkpt>
      <trkpt lat="44.86862" lon="6.70643">
        <ele>1523.6</ele>
        <time>2022-07-17T14:18:11Z</time>
      </trkpt>
      <trkpt lat="44.86861" lon="6.70646">
        <ele>1523.8</ele>
        <time>2022-07-17T14:18:12Z</time>
      </trkpt>
      <trkpt lat="44.8686" lon="6.7065">
        <ele>1523.8</ele>
        <time>2022-07-17T14:18:13Z</time>
      </trkpt>
      <trkpt lat="44.86858" lon="6.70654">
        <ele>1524.2</ele>
        <time>2022-07-17T14:18:14Z</time>
      </trkpt>
      <trkpt lat="44.86857" lon="6.70658">
        <ele>1524.2</ele>
        <time>2022-07-17T14:18:15Z</time>
      </trkpt>
      <trkpt lat="44.86856" lon="6.70662">
        <ele>1524.4</ele>
        <time>2022-07-17T14:18:16Z</time>
      </trkpt>
      <trkpt lat="44.86855" lon="6.70666">
        <ele>1524.4</ele>
        <time>2022-07-17T14:18:17Z</time>
      </trkpt>
      <trkpt lat="44.86854" lon="6.7067">
        <ele>1524</ele>
        <time>2022-07-17T14:18:18Z</time>
      </trkpt>
      <trkpt lat="44.86852" lon="6.70674">
        <ele>1524</ele>
        <time>2022-07-17T14:18:19Z</time>
      </trkpt>
      <trkpt lat="44.86851" lon="6.70679">
        <ele>1523.8</ele>
        <time>2022-07-17T14:18:20Z</time>
      </trkpt>
      <trkpt lat="44.8685" lon="6.70683">
        <ele>1523.8</ele>
        <time>2022-07-17T14:18:21Z</time>
      </trkpt>
      <trkpt lat="44.86848" lon="6.70688">
        <ele>1523.8</ele>
        <time>2022-07-17T14:18:22Z</time>
      </trkpt>
      <trkpt lat="44.86846" lon="6.70693">
        <ele>1523.8</ele>
        <time>2022-07-17T14:18:23Z</time>
      </trkpt>
      <trkpt lat="44.86845" lon="6.70697">
        <ele>1524</ele>
        <time>2022-07-17T14:18:24Z</time>
      </trkpt>
      <trkpt lat="44.86843" lon="6.70703">
        <ele>1524</ele>
        <time>2022-07-17T14:18:25Z</time>
      </trkpt>
      <trkpt lat="44.86841" lon="6.70707">
        <ele>1524.2</ele>
        <time>2022-07-17T14:18:26Z</time>
      </trkpt>
      <trkpt lat="44.8684" lon="6.70712">
        <ele>1524.2</ele>
        <time>2022-07-17T14:18:27Z</time>
      </trkpt>
      <trkpt lat="44.86838" lon="6.70717">
        <ele>1524.2</ele>
        <time>2022-07-17T14:18:28Z</time>
      </trkpt>
      <trkpt lat="44.86837" lon="6.70723">
        <ele>1524.2</ele>
        <time>2022-07-17T14:18:29Z</time>
      </trkpt>
      <trkpt lat="44.86835" lon="6.70728">
        <ele>1524</ele>
        <time>2022-07-17T14:18:30Z</time>
      </trkpt>
      <trkpt lat="44.86834" lon="6.70733">
        <ele>1524</ele>
        <time>2022-07-17T14:18:31Z</time>
      </trkpt>
      <trkpt lat="44.86832" lon="6.70738">
        <ele>1524</ele>
        <time>2022-07-17T14:18:32Z</time>
      </trkpt>
      <trkpt lat="44.86831" lon="6.70743">
        <ele>1523.6</ele>
        <time>2022-07-17T14:18:33Z</time>
      </trkpt>
      <trkpt lat="44.86829" lon="6.70748">
        <ele>1523.6</ele>
        <time>2022-07-17T14:18:34Z</time>
      </trkpt>
      <trkpt lat="44.86827" lon="6.70754">
        <ele>1523.6</ele>
        <time>2022-07-17T14:18:35Z</time>
      </trkpt>
      <trkpt lat="44.86826" lon="6.70759">
        <ele>1523.4</ele>
        <time>2022-07-17T14:18:36Z</time>
      </trkpt>
      <trkpt lat="44.86824" lon="6.70765">
        <ele>1523.4</ele>
        <time>2022-07-17T14:18:37Z</time>
      </trkpt>
      <trkpt lat="44.86822" lon="6.70771">
        <ele>1523</ele>
        <time>2022-07-17T14:18:38Z</time>
      </trkpt>
      <trkpt lat="44.86821" lon="6.70777">
        <ele>1523</ele>
        <time>2022-07-17T14:18:39Z</time>
      </trkpt>
      <trkpt lat="44.86819" lon="6.70783">
        <ele>1522.8</ele>
        <time>2022-07-17T14:18:40Z</time>
      </trkpt>
      <trkpt lat="44.86817" lon="6.7079">
        <ele>1522.8</ele>
        <time>2022-07-17T14:18:41Z</time>
      </trkpt>
      <trkpt lat="44.86815" lon="6.70797">
        <ele>1522.4</ele>
        <time>2022-07-17T14:18:42Z</time>
      </trkpt>
      <trkpt lat="44.86813" lon="6.70804">
        <ele>1522.4</ele>
        <time>2022-07-17T14:18:43Z</time>
      </trkpt>
      <trkpt lat="44.86811" lon="6.70811">
        <ele>1522.2</ele>
        <time>2022-07-17T14:18:44Z</time>
      </trkpt>
      <trkpt lat="44.86809" lon="6.7082">
        <ele>1521.8</ele>
        <time>2022-07-17T14:18:45Z</time>
      </trkpt>
      <trkpt lat="44.86807" lon="6.70828">
        <ele>1521.8</ele>
        <time>2022-07-17T14:18:46Z</time>
      </trkpt>
      <trkpt lat="44.86805" lon="6.70837">
        <ele>1521.6</ele>
        <time>2022-07-17T14:18:47Z</time>
      </trkpt>
      <trkpt lat="44.86803" lon="6.70846">
        <ele>1521.6</ele>
        <time>2022-07-17T14:18:48Z</time>
      </trkpt>
      <trkpt lat="44.868" lon="6.70855">
        <ele>1521.4</ele>
        <time>2022-07-17T14:18:49Z</time>
      </trkpt>
      <trkpt lat="44.86798" lon="6.70865">
        <ele>1521.4</ele>
        <time>2022-07-17T14:18:50Z</time>
      </trkpt>
      <trkpt lat="44.86795" lon="6.70874">
        <ele>1521</ele>
        <time>2022-07-17T14:18:51Z</time>
      </trkpt>
      <trkpt lat="44.86792" lon="6.70884">
        <ele>1521</ele>
        <time>2022-07-17T14:18:52Z</time>
      </trkpt>
      <trkpt lat="44.8679" lon="6.70894">
        <ele>1520.8</ele>
        <time>2022-07-17T14:18:53Z</time>
      </trkpt>
      <trkpt lat="44.86786" lon="6.70904">
        <ele>1520.8</ele>
        <time>2022-07-17T14:18:54Z</time>
      </trkpt>
      <trkpt lat="44.86783" lon="6.70913">
        <ele>1520.2</ele>
        <time>2022-07-17T14:18:55Z</time>
      </trkpt>
      <trkpt lat="44.86778" lon="6.70922">
        <ele>1520.2</ele>
        <time>2022-07-17T14:18:56Z</time>
      </trkpt>
      <trkpt lat="44.86772" lon="6.7093">
        <ele>1519.8</ele>
        <time>2022-07-17T14:18:57Z</time>
      </trkpt>
      <trkpt lat="44.86767" lon="6.70936">
        <ele>1519.6</ele>
        <time>2022-07-17T14:18:58Z</time>
      </trkpt>
      <trkpt lat="44.86762" lon="6.70943">
        <ele>1519.6</ele>
        <time>2022-07-17T14:18:59Z</time>
      </trkpt>
      <trkpt lat="44.86757" lon="6.7095">
        <ele>1519.6</ele>
        <time>2022-07-17T14:19:00Z</time>
      </trkpt>
      <trkpt lat="44.86752" lon="6.70956">
        <ele>1519.6</ele>
        <time>2022-07-17T14:19:01Z</time>
      </trkpt>
      <trkpt lat="44.86748" lon="6.70963">
        <ele>1519.6</ele>
        <time>2022-07-17T14:19:02Z</time>
      </trkpt>
      <trkpt lat="44.86745" lon="6.7097">
        <ele>1519.8</ele>
        <time>2022-07-17T14:19:03Z</time>
      </trkpt>
      <trkpt lat="44.86743" lon="6.70976">
        <ele>1519.8</ele>
        <time>2022-07-17T14:19:04Z</time>
      </trkpt>
      <trkpt lat="44.8674" lon="6.70983">
        <ele>1520.2</ele>
        <time>2022-07-17T14:19:05Z</time>
      </trkpt>
      <trkpt lat="44.86739" lon="6.70989">
        <ele>1520.2</ele>
        <time>2022-07-17T14:19:06Z</time>
      </trkpt>
      <trkpt lat="44.86737" lon="6.70995">
        <ele>1520.6</ele>
        <time>2022-07-17T14:19:07Z</time>
      </trkpt>
      <trkpt lat="44.86736" lon="6.71">
        <ele>1520.6</ele>
        <time>2022-07-17T14:19:08Z</time>
      </trkpt>
      <trkpt lat="44.86736" lon="6.71006">
        <ele>1520.8</ele>
        <time>2022-07-17T14:19:09Z</time>
      </trkpt>
      <trkpt lat="44.86735" lon="6.71011">
        <ele>1520.8</ele>
        <time>2022-07-17T14:19:10Z</time>
      </trkpt>
      <trkpt lat="44.86735" lon="6.71017">
        <ele>1521.2</ele>
        <time>2022-07-17T14:19:11Z</time>
      </trkpt>
      <trkpt lat="44.86735" lon="6.71022">
        <ele>1521.2</ele>
        <time>2022-07-17T14:19:12Z</time>
      </trkpt>
      <trkpt lat="44.86735" lon="6.71027">
        <ele>1521.4</ele>
        <time>2022-07-17T14:19:13Z</time>
      </trkpt>
      <trkpt lat="44.86736" lon="6.71032">
        <ele>1521.6</ele>
        <time>2022-07-17T14:19:14Z</time>
      </trkpt>
      <trkpt lat="44.86736" lon="6.71037">
        <ele>1522</ele>
        <time>2022-07-17T14:19:15Z</time>
      </trkpt>
      <trkpt lat="44.86736" lon="6.71042">
        <ele>1522</ele>
        <time>2022-07-17T14:19:16Z</time>
      </trkpt>
      <trkpt lat="44.86737" lon="6.71046">
        <ele>1522.2</ele>
        <time>2022-07-17T14:19:17Z</time>
      </trkpt>
      <trkpt lat="44.86738" lon="6.71051">
        <ele>1522.2</ele>
        <time>2022-07-17T14:19:18Z</time>
      </trkpt>
      <trkpt lat="44.86739" lon="6.71055">
        <ele>1522.6</ele>
        <time>2022-07-17T14:19:19Z</time>
      </trkpt>
      <trkpt lat="44.86741" lon="6.7106">
        <ele>1522.8</ele>
        <time>2022-07-17T14:19:20Z</time>
      </trkpt>
      <trkpt lat="44.86742" lon="6.71064">
        <ele>1522.8</ele>
        <time>2022-07-17T14:19:21Z</time>
      </trkpt>
      <trkpt lat="44.86742" lon="6.71068">
        <ele>1523.2</ele>
        <time>2022-07-17T14:19:22Z</time>
      </trkpt>
      <trkpt lat="44.86743" lon="6.71073">
        <ele>1523.4</ele>
        <time>2022-07-17T14:19:23Z</time>
      </trkpt>
      <trkpt lat="44.86745" lon="6.71077">
        <ele>1523.4</ele>
        <time>2022-07-17T14:19:24Z</time>
      </trkpt>
      <trkpt lat="44.86746" lon="6.71082">
        <ele>1523.6</ele>
        <time>2022-07-17T14:19:25Z</time>
      </trkpt>
      <trkpt lat="44.86747" lon="6.71086">
        <ele>1523.8</ele>
        <time>2022-07-17T14:19:26Z</time>
      </trkpt>
      <trkpt lat="44.86748" lon="6.71091">
        <ele>1524.2</ele>
        <time>2022-07-17T14:19:27Z</time>
      </trkpt>
      <trkpt lat="44.86749" lon="6.71095">
        <ele>1524.2</ele>
        <time>2022-07-17T14:19:28Z</time>
      </trkpt>
      <trkpt lat="44.8675" lon="6.711">
        <ele>1524.6</ele>
        <time>2022-07-17T14:19:29Z</time>
      </trkpt>
      <trkpt lat="44.8675" lon="6.71105">
        <ele>1524.6</ele>
        <time>2022-07-17T14:19:30Z</time>
      </trkpt>
      <trkpt lat="44.86751" lon="6.71109">
        <ele>1525</ele>
        <time>2022-07-17T14:19:31Z</time>
      </trkpt>
      <trkpt lat="44.86752" lon="6.71114">
        <ele>1525.2</ele>
        <time>2022-07-17T14:19:32Z</time>
      </trkpt>
      <trkpt lat="44.86753" lon="6.71118">
        <ele>1525.2</ele>
        <time>2022-07-17T14:19:33Z</time>
      </trkpt>
      <trkpt lat="44.86754" lon="6.71122">
        <ele>1525.2</ele>
        <time>2022-07-17T14:19:34Z</time>
      </trkpt>
      <trkpt lat="44.86755" lon="6.71127">
        <ele>1525.6</ele>
        <time>2022-07-17T14:19:35Z</time>
      </trkpt>
      <trkpt lat="44.86756" lon="6.71131">
        <ele>1525.6</ele>
        <time>2022-07-17T14:19:36Z</time>
      </trkpt>
      <trkpt lat="44.86757" lon="6.71135">
        <ele>1525.6</ele>
        <time>2022-07-17T14:19:37Z</time>
      </trkpt>
      <trkpt lat="44.86757" lon="6.7114">
        <ele>1525.8</ele>
        <time>2022-07-17T14:19:38Z</time>
      </trkpt>
      <trkpt lat="44.86758" lon="6.71144">
        <ele>1525.8</ele>
        <time>2022-07-17T14:19:39Z</time>
      </trkpt>
      <trkpt lat="44.86759" lon="6.71148">
        <ele>1526.2</ele>
        <time>2022-07-17T14:19:40Z</time>
      </trkpt>
      <trkpt lat="44.8676" lon="6.71152">
        <ele>1526.2</ele>
        <time>2022-07-17T14:19:41Z</time>
      </trkpt>
      <trkpt lat="44.86761" lon="6.71157">
        <ele>1526.6</ele>
        <time>2022-07-17T14:19:42Z</time>
      </trkpt>
      <trkpt lat="44.86761" lon="6.71161">
        <ele>1526.6</ele>
        <time>2022-07-17T14:19:43Z</time>
      </trkpt>
      <trkpt lat="44.86762" lon="6.71165">
        <ele>1526.8</ele>
        <time>2022-07-17T14:19:44Z</time>
      </trkpt>
      <trkpt lat="44.86763" lon="6.71169">
        <ele>1527.2</ele>
        <time>2022-07-17T14:19:45Z</time>
      </trkpt>
      <trkpt lat="44.86764" lon="6.71173">
        <ele>1527.4</ele>
        <time>2022-07-17T14:19:46Z</time>
      </trkpt>
      <trkpt lat="44.86766" lon="6.71177">
        <ele>1527.4</ele>
        <time>2022-07-17T14:19:47Z</time>
      </trkpt>
      <trkpt lat="44.86767" lon="6.71181">
        <ele>1528</ele>
        <time>2022-07-17T14:19:48Z</time>
      </trkpt>
      <trkpt lat="44.86768" lon="6.71184">
        <ele>1528.2</ele>
        <time>2022-07-17T14:19:49Z</time>
      </trkpt>
      <trkpt lat="44.86769" lon="6.71188">
        <ele>1528.2</ele>
        <time>2022-07-17T14:19:50Z</time>
      </trkpt>
      <trkpt lat="44.86769" lon="6.71192">
        <ele>1528.6</ele>
        <time>2022-07-17T14:19:51Z</time>
      </trkpt>
      <trkpt lat="44.8677" lon="6.71195">
        <ele>1528.6</ele>
        <time>2022-07-17T14:19:52Z</time>
      </trkpt>
      <trkpt lat="44.86771" lon="6.71199">
        <ele>1528.8</ele>
        <time>2022-07-17T14:19:53Z</time>
      </trkpt>
      <trkpt lat="44.86772" lon="6.71203">
        <ele>1528.8</ele>
        <time>2022-07-17T14:19:54Z</time>
      </trkpt>
      <trkpt lat="44.86773" lon="6.71206">
        <ele>1528.8</ele>
        <time>2022-07-17T14:19:55Z</time>
      </trkpt>
      <trkpt lat="44.86774" lon="6.7121">
        <ele>1529.2</ele>
        <time>2022-07-17T14:19:56Z</time>
      </trkpt>
      <trkpt lat="44.86775" lon="6.71213">
        <ele>1529.2</ele>
        <time>2022-07-17T14:19:57Z</time>
      </trkpt>
      <trkpt lat="44.86776" lon="6.71216">
        <ele>1529.6</ele>
        <time>2022-07-17T14:19:58Z</time>
      </trkpt>
      <trkpt lat="44.86778" lon="6.71219">
        <ele>1529.6</ele>
        <time>2022-07-17T14:19:59Z</time>
      </trkpt>
      <trkpt lat="44.86778" lon="6.71222">
        <ele>1529.8</ele>
        <time>2022-07-17T14:20:00Z</time>
      </trkpt>
      <trkpt lat="44.86779" lon="6.71226">
        <ele>1529.8</ele>
        <time>2022-07-17T14:20:01Z</time>
      </trkpt>
      <trkpt lat="44.8678" lon="6.71229">
        <ele>1530.2</ele>
        <time>2022-07-17T14:20:02Z</time>
      </trkpt>
      <trkpt lat="44.86781" lon="6.71231">
        <ele>1530.2</ele>
        <time>2022-07-17T14:20:03Z</time>
      </trkpt>
      <trkpt lat="44.86783" lon="6.71235">
        <ele>1530.6</ele>
        <time>2022-07-17T14:20:04Z</time>
      </trkpt>
      <trkpt lat="44.86784" lon="6.71237">
        <ele>1530.6</ele>
        <time>2022-07-17T14:20:05Z</time>
      </trkpt>
      <trkpt lat="44.86785" lon="6.7124">
        <ele>1530.8</ele>
        <time>2022-07-17T14:20:06Z</time>
      </trkpt>
      <trkpt lat="44.86786" lon="6.71243">
        <ele>1530.8</ele>
        <time>2022-07-17T14:20:07Z</time>
      </trkpt>
      <trkpt lat="44.86787" lon="6.71246">
        <ele>1531</ele>
        <time>2022-07-17T14:20:08Z</time>
      </trkpt>
      <trkpt lat="44.86788" lon="6.71249">
        <ele>1531.4</ele>
        <time>2022-07-17T14:20:09Z</time>
      </trkpt>
      <trkpt lat="44.86789" lon="6.71252">
        <ele>1531.4</ele>
        <time>2022-07-17T14:20:10Z</time>
      </trkpt>
      <trkpt lat="44.8679" lon="6.71256">
        <ele>1531.8</ele>
        <time>2022-07-17T14:20:11Z</time>
      </trkpt>
      <trkpt lat="44.86791" lon="6.71259">
        <ele>1531.8</ele>
        <time>2022-07-17T14:20:12Z</time>
      </trkpt>
      <trkpt lat="44.86791" lon="6.71262">
        <ele>1531.8</ele>
        <time>2022-07-17T14:20:13Z</time>
      </trkpt>
      <trkpt lat="44.86792" lon="6.71265">
        <ele>1532</ele>
        <time>2022-07-17T14:20:14Z</time>
      </trkpt>
      <trkpt lat="44.86792" lon="6.71268">
        <ele>1532</ele>
        <time>2022-07-17T14:20:15Z</time>
      </trkpt>
      <trkpt lat="44.86793" lon="6.71272">
        <ele>1532.4</ele>
        <time>2022-07-17T14:20:16Z</time>
      </trkpt>
      <trkpt lat="44.86793" lon="6.71276">
        <ele>1532.6</ele>
        <time>2022-07-17T14:20:17Z</time>
      </trkpt>
      <trkpt lat="44.86794" lon="6.71279">
        <ele>1532.6</ele>
        <time>2022-07-17T14:20:18Z</time>
      </trkpt>
      <trkpt lat="44.86794" lon="6.71283">
        <ele>1533</ele>
        <time>2022-07-17T14:20:19Z</time>
      </trkpt>
      <trkpt lat="44.86795" lon="6.71286">
        <ele>1533.2</ele>
        <time>2022-07-17T14:20:20Z</time>
      </trkpt>
      <trkpt lat="44.86796" lon="6.7129">
        <ele>1533.6</ele>
        <time>2022-07-17T14:20:21Z</time>
      </trkpt>
      <trkpt lat="44.86797" lon="6.71293">
        <ele>1533.6</ele>
        <time>2022-07-17T14:20:22Z</time>
      </trkpt>
      <trkpt lat="44.86797" lon="6.71297">
        <ele>1533.8</ele>
        <time>2022-07-17T14:20:23Z</time>
      </trkpt>
      <trkpt lat="44.86798" lon="6.713">
        <ele>1534.2</ele>
        <time>2022-07-17T14:20:24Z</time>
      </trkpt>
      <trkpt lat="44.86798" lon="6.71303">
        <ele>1534.2</ele>
        <time>2022-07-17T14:20:25Z</time>
      </trkpt>
      <trkpt lat="44.86799" lon="6.71307">
        <ele>1534.4</ele>
        <time>2022-07-17T14:20:26Z</time>
      </trkpt>
      <trkpt lat="44.86799" lon="6.7131">
        <ele>1534.4</ele>
        <time>2022-07-17T14:20:27Z</time>
      </trkpt>
      <trkpt lat="44.868" lon="6.71313">
        <ele>1534.8</ele>
        <time>2022-07-17T14:20:28Z</time>
      </trkpt>
      <trkpt lat="44.868" lon="6.71317">
        <ele>1534.8</ele>
        <time>2022-07-17T14:20:29Z</time>
      </trkpt>
      <trkpt lat="44.86801" lon="6.7132">
        <ele>1535</ele>
        <time>2022-07-17T14:20:30Z</time>
      </trkpt>
      <trkpt lat="44.86802" lon="6.71324">
        <ele>1535</ele>
        <time>2022-07-17T14:20:31Z</time>
      </trkpt>
      <trkpt lat="44.86802" lon="6.71327">
        <ele>1535</ele>
        <time>2022-07-17T14:20:32Z</time>
      </trkpt>
      <trkpt lat="44.86803" lon="6.71331">
        <ele>1535.2</ele>
        <time>2022-07-17T14:20:33Z</time>
      </trkpt>
      <trkpt lat="44.86804" lon="6.71335">
        <ele>1535.2</ele>
        <time>2022-07-17T14:20:34Z</time>
      </trkpt>
      <trkpt lat="44.86804" lon="6.71338">
        <ele>1535.4</ele>
        <time>2022-07-17T14:20:35Z</time>
      </trkpt>
      <trkpt lat="44.86804" lon="6.71342">
        <ele>1535.4</ele>
        <time>2022-07-17T14:20:36Z</time>
      </trkpt>
      <trkpt lat="44.86805" lon="6.71346">
        <ele>1535.4</ele>
        <time>2022-07-17T14:20:37Z</time>
      </trkpt>
      <trkpt lat="44.86805" lon="6.7135">
        <ele>1535.6</ele>
        <time>2022-07-17T14:20:38Z</time>
      </trkpt>
      <trkpt lat="44.86805" lon="6.71354">
        <ele>1535.6</ele>
        <time>2022-07-17T14:20:39Z</time>
      </trkpt>
      <trkpt lat="44.86805" lon="6.71358">
        <ele>1535.6</ele>
        <time>2022-07-17T14:20:40Z</time>
      </trkpt>
      <trkpt lat="44.86805" lon="6.71362">
        <ele>1536</ele>
        <time>2022-07-17T14:20:41Z</time>
      </trkpt>
      <trkpt lat="44.86805" lon="6.71365">
        <ele>1536</ele>
        <time>2022-07-17T14:20:42Z</time>
      </trkpt>
      <trkpt lat="44.86805" lon="6.71369">
        <ele>1536.2</ele>
        <time>2022-07-17T14:20:43Z</time>
      </trkpt>
      <trkpt lat="44.86804" lon="6.71372">
        <ele>1536.2</ele>
        <time>2022-07-17T14:20:44Z</time>
      </trkpt>
      <trkpt lat="44.86804" lon="6.71376">
        <ele>1536.4</ele>
        <time>2022-07-17T14:20:45Z</time>
      </trkpt>
      <trkpt lat="44.86804" lon="6.7138">
        <ele>1536.4</ele>
        <time>2022-07-17T14:20:46Z</time>
      </trkpt>
      <trkpt lat="44.86803" lon="6.71383">
        <ele>1536.4</ele>
        <time>2022-07-17T14:20:47Z</time>
      </trkpt>
      <trkpt lat="44.86802" lon="6.71387">
        <ele>1536.4</ele>
        <time>2022-07-17T14:20:48Z</time>
      </trkpt>
      <trkpt lat="44.86802" lon="6.7139">
        <ele>1536.4</ele>
        <time>2022-07-17T14:20:49Z</time>
      </trkpt>
      <trkpt lat="44.86801" lon="6.71394">
        <ele>1536.8</ele>
        <time>2022-07-17T14:20:50Z</time>
      </trkpt>
      <trkpt lat="44.868" lon="6.71398">
        <ele>1536.8</ele>
        <time>2022-07-17T14:20:51Z</time>
      </trkpt>
      <trkpt lat="44.86799" lon="6.71402">
        <ele>1537</ele>
        <time>2022-07-17T14:20:52Z</time>
      </trkpt>
      <trkpt lat="44.86798" lon="6.71406">
        <ele>1537</ele>
        <time>2022-07-17T14:20:53Z</time>
      </trkpt>
      <trkpt lat="44.86797" lon="6.71409">
        <ele>1537.2</ele>
        <time>2022-07-17T14:20:54Z</time>
      </trkpt>
      <trkpt lat="44.86796" lon="6.71413">
        <ele>1537.2</ele>
        <time>2022-07-17T14:20:55Z</time>
      </trkpt>
      <trkpt lat="44.86795" lon="6.71416">
        <ele>1537.6</ele>
        <time>2022-07-17T14:20:56Z</time>
      </trkpt>
      <trkpt lat="44.86794" lon="6.71419">
        <ele>1537.6</ele>
        <time>2022-07-17T14:20:57Z</time>
      </trkpt>
      <trkpt lat="44.86793" lon="6.71423">
        <ele>1537.6</ele>
        <time>2022-07-17T14:20:58Z</time>
      </trkpt>
      <trkpt lat="44.86792" lon="6.71426">
        <ele>1537.8</ele>
        <time>2022-07-17T14:20:59Z</time>
      </trkpt>
      <trkpt lat="44.86791" lon="6.71429">
        <ele>1537.8</ele>
        <time>2022-07-17T14:21:00Z</time>
      </trkpt>
      <trkpt lat="44.8679" lon="6.71432">
        <ele>1538</ele>
        <time>2022-07-17T14:21:01Z</time>
      </trkpt>
      <trkpt lat="44.86789" lon="6.71436">
        <ele>1538</ele>
        <time>2022-07-17T14:21:02Z</time>
      </trkpt>
      <trkpt lat="44.86788" lon="6.71439">
        <ele>1538.4</ele>
        <time>2022-07-17T14:21:03Z</time>
      </trkpt>
      <trkpt lat="44.86787" lon="6.71443">
        <ele>1538.4</ele>
        <time>2022-07-17T14:21:04Z</time>
      </trkpt>
      <trkpt lat="44.86786" lon="6.71446">
        <ele>1538.8</ele>
        <time>2022-07-17T14:21:05Z</time>
      </trkpt>
      <trkpt lat="44.86785" lon="6.7145">
        <ele>1539</ele>
        <time>2022-07-17T14:21:06Z</time>
      </trkpt>
      <trkpt lat="44.86784" lon="6.71453">
        <ele>1539.2</ele>
        <time>2022-07-17T14:21:07Z</time>
      </trkpt>
      <trkpt lat="44.86783" lon="6.71456">
        <ele>1539.2</ele>
        <time>2022-07-17T14:21:08Z</time>
      </trkpt>
      <trkpt lat="44.86782" lon="6.71459">
        <ele>1539.2</ele>
        <time>2022-07-17T14:21:09Z</time>
      </trkpt>
      <trkpt lat="44.86781" lon="6.71463">
        <ele>1539.4</ele>
        <time>2022-07-17T14:21:10Z</time>
      </trkpt>
      <trkpt lat="44.8678" lon="6.71466">
        <ele>1539.4</ele>
        <time>2022-07-17T14:21:11Z</time>
      </trkpt>
      <trkpt lat="44.86779" lon="6.7147">
        <ele>1539.6</ele>
        <time>2022-07-17T14:21:12Z</time>
      </trkpt>
      <trkpt lat="44.86778" lon="6.71473">
        <ele>1539.6</ele>
        <time>2022-07-17T14:21:13Z</time>
      </trkpt>
      <trkpt lat="44.86777" lon="6.71476">
        <ele>1540</ele>
        <time>2022-07-17T14:21:14Z</time>
      </trkpt>
      <trkpt lat="44.86776" lon="6.71479">
        <ele>1540</ele>
        <time>2022-07-17T14:21:15Z</time>
      </trkpt>
      <trkpt lat="44.86775" lon="6.71483">
        <ele>1540</ele>
        <time>2022-07-17T14:21:16Z</time>
      </trkpt>
      <trkpt lat="44.86774" lon="6.71486">
        <ele>1540.2</ele>
        <time>2022-07-17T14:21:17Z</time>
      </trkpt>
      <trkpt lat="44.86773" lon="6.71489">
        <ele>1540.2</ele>
        <time>2022-07-17T14:21:18Z</time>
      </trkpt>
      <trkpt lat="44.86772" lon="6.71492">
        <ele>1540.2</ele>
        <time>2022-07-17T14:21:19Z</time>
      </trkpt>
      <trkpt lat="44.86771" lon="6.71496">
        <ele>1540.2</ele>
        <time>2022-07-17T14:21:20Z</time>
      </trkpt>
      <trkpt lat="44.86771" lon="6.71499">
        <ele>1540.6</ele>
        <time>2022-07-17T14:21:21Z</time>
      </trkpt>
      <trkpt lat="44.8677" lon="6.71503">
        <ele>1540.6</ele>
        <time>2022-07-17T14:21:22Z</time>
      </trkpt>
      <trkpt lat="44.86769" lon="6.71507">
        <ele>1540.6</ele>
        <time>2022-07-17T14:21:23Z</time>
      </trkpt>
      <trkpt lat="44.86768" lon="6.7151">
        <ele>1540.6</ele>
        <time>2022-07-17T14:21:24Z</time>
      </trkpt>
      <trkpt lat="44.86768" lon="6.71514">
        <ele>1540.8</ele>
        <time>2022-07-17T14:21:25Z</time>
      </trkpt>
      <trkpt lat="44.86767" lon="6.71518">
        <ele>1540.8</ele>
        <time>2022-07-17T14:21:26Z</time>
      </trkpt>
      <trkpt lat="44.86767" lon="6.71521">
        <ele>1540.8</ele>
        <time>2022-07-17T14:21:27Z</time>
      </trkpt>
      <trkpt lat="44.86766" lon="6.71525">
        <ele>1540.8</ele>
        <time>2022-07-17T14:21:28Z</time>
      </trkpt>
      <trkpt lat="44.86765" lon="6.71529">
        <ele>1540.8</ele>
        <time>2022-07-17T14:21:29Z</time>
      </trkpt>
      <trkpt lat="44.86765" lon="6.71533">
        <ele>1540.8</ele>
        <time>2022-07-17T14:21:30Z</time>
      </trkpt>
      <trkpt lat="44.86765" lon="6.71536">
        <ele>1541.2</ele>
        <time>2022-07-17T14:21:31Z</time>
      </trkpt>
      <trkpt lat="44.86764" lon="6.7154">
        <ele>1541.2</ele>
        <time>2022-07-17T14:21:32Z</time>
      </trkpt>
      <trkpt lat="44.86764" lon="6.71544">
        <ele>1541.4</ele>
        <time>2022-07-17T14:21:33Z</time>
      </trkpt>
      <trkpt lat="44.86764" lon="6.71547">
        <ele>1541.4</ele>
        <time>2022-07-17T14:21:34Z</time>
      </trkpt>
      <trkpt lat="44.86763" lon="6.71551">
        <ele>1541.4</ele>
        <time>2022-07-17T14:21:35Z</time>
      </trkpt>
      <trkpt lat="44.86763" lon="6.71555">
        <ele>1541.4</ele>
        <time>2022-07-17T14:21:36Z</time>
      </trkpt>
      <trkpt lat="44.86763" lon="6.71558">
        <ele>1541.8</ele>
        <time>2022-07-17T14:21:37Z</time>
      </trkpt>
      <trkpt lat="44.86763" lon="6.71562">
        <ele>1541.8</ele>
        <time>2022-07-17T14:21:38Z</time>
      </trkpt>
      <trkpt lat="44.86763" lon="6.71566">
        <ele>1542</ele>
        <time>2022-07-17T14:21:39Z</time>
      </trkpt>
      <trkpt lat="44.86762" lon="6.71569">
        <ele>1542</ele>
        <time>2022-07-17T14:21:40Z</time>
      </trkpt>
      <trkpt lat="44.86762" lon="6.71573">
        <ele>1542.2</ele>
        <time>2022-07-17T14:21:41Z</time>
      </trkpt>
      <trkpt lat="44.86763" lon="6.71576">
        <ele>1542.2</ele>
        <time>2022-07-17T14:21:42Z</time>
      </trkpt>
      <trkpt lat="44.86763" lon="6.7158">
        <ele>1542.2</ele>
        <time>2022-07-17T14:21:43Z</time>
      </trkpt>
      <trkpt lat="44.86763" lon="6.71584">
        <ele>1542.4</ele>
        <time>2022-07-17T14:21:44Z</time>
      </trkpt>
      <trkpt lat="44.86763" lon="6.71588">
        <ele>1542.4</ele>
        <time>2022-07-17T14:21:45Z</time>
      </trkpt>
      <trkpt lat="44.86764" lon="6.71591">
        <ele>1542.6</ele>
        <time>2022-07-17T14:21:46Z</time>
      </trkpt>
      <trkpt lat="44.86764" lon="6.71595">
        <ele>1542.6</ele>
        <time>2022-07-17T14:21:47Z</time>
      </trkpt>
      <trkpt lat="44.86764" lon="6.71599">
        <ele>1542.6</ele>
        <time>2022-07-17T14:21:48Z</time>
      </trkpt>
      <trkpt lat="44.86764" lon="6.71603">
        <ele>1543</ele>
        <time>2022-07-17T14:21:49Z</time>
      </trkpt>
      <trkpt lat="44.86765" lon="6.71607">
        <ele>1543</ele>
        <time>2022-07-17T14:21:50Z</time>
      </trkpt>
      <trkpt lat="44.86765" lon="6.71611">
        <ele>1543.2</ele>
        <time>2022-07-17T14:21:51Z</time>
      </trkpt>
      <trkpt lat="44.86765" lon="6.71614">
        <ele>1543.2</ele>
        <time>2022-07-17T14:21:52Z</time>
      </trkpt>
      <trkpt lat="44.86766" lon="6.71618">
        <ele>1543.4</ele>
        <time>2022-07-17T14:21:53Z</time>
      </trkpt>
      <trkpt lat="44.86766" lon="6.71622">
        <ele>1543.6</ele>
        <time>2022-07-17T14:21:54Z</time>
      </trkpt>
      <trkpt lat="44.86766" lon="6.71626">
        <ele>1543.6</ele>
        <time>2022-07-17T14:21:55Z</time>
      </trkpt>
      <trkpt lat="44.86767" lon="6.7163">
        <ele>1544</ele>
        <time>2022-07-17T14:21:56Z</time>
      </trkpt>
      <trkpt lat="44.86767" lon="6.71633">
        <ele>1544</ele>
        <time>2022-07-17T14:21:57Z</time>
      </trkpt>
      <trkpt lat="44.86768" lon="6.71637">
        <ele>1544.2</ele>
        <time>2022-07-17T14:21:58Z</time>
      </trkpt>
      <trkpt lat="44.86768" lon="6.71641">
        <ele>1544.2</ele>
        <time>2022-07-17T14:21:59Z</time>
      </trkpt>
      <trkpt lat="44.86768" lon="6.71645">
        <ele>1544.2</ele>
        <time>2022-07-17T14:22:00Z</time>
      </trkpt>
      <trkpt lat="44.86769" lon="6.71649">
        <ele>1544.6</ele>
        <time>2022-07-17T14:22:01Z</time>
      </trkpt>
      <trkpt lat="44.86769" lon="6.71652">
        <ele>1544.6</ele>
        <time>2022-07-17T14:22:02Z</time>
      </trkpt>
      <trkpt lat="44.8677" lon="6.71656">
        <ele>1545</ele>
        <time>2022-07-17T14:22:03Z</time>
      </trkpt>
      <trkpt lat="44.8677" lon="6.7166">
        <ele>1545</ele>
        <time>2022-07-17T14:22:04Z</time>
      </trkpt>
      <trkpt lat="44.86771" lon="6.71664">
        <ele>1545.2</ele>
        <time>2022-07-17T14:22:05Z</time>
      </trkpt>
      <trkpt lat="44.86772" lon="6.71667">
        <ele>1545.2</ele>
        <time>2022-07-17T14:22:06Z</time>
      </trkpt>
      <trkpt lat="44.86772" lon="6.71671">
        <ele>1545.6</ele>
        <time>2022-07-17T14:22:07Z</time>
      </trkpt>
      <trkpt lat="44.86773" lon="6.71675">
        <ele>1545.6</ele>
        <time>2022-07-17T14:22:08Z</time>
      </trkpt>
      <trkpt lat="44.86774" lon="6.71679">
        <ele>1545.6</ele>
        <time>2022-07-17T14:22:09Z</time>
      </trkpt>
      <trkpt lat="44.86774" lon="6.71683">
        <ele>1545.8</ele>
        <time>2022-07-17T14:22:10Z</time>
      </trkpt>
      <trkpt lat="44.86775" lon="6.71686">
        <ele>1546</ele>
        <time>2022-07-17T14:22:11Z</time>
      </trkpt>
      <trkpt lat="44.86776" lon="6.7169">
        <ele>1546</ele>
        <time>2022-07-17T14:22:12Z</time>
      </trkpt>
      <trkpt lat="44.86777" lon="6.71694">
        <ele>1546.4</ele>
        <time>2022-07-17T14:22:13Z</time>
      </trkpt>
      <trkpt lat="44.86778" lon="6.71698">
        <ele>1546.4</ele>
        <time>2022-07-17T14:22:14Z</time>
      </trkpt>
      <trkpt lat="44.86778" lon="6.71701">
        <ele>1546.4</ele>
        <time>2022-07-17T14:22:15Z</time>
      </trkpt>
      <trkpt lat="44.86779" lon="6.71705">
        <ele>1546.8</ele>
        <time>2022-07-17T14:22:16Z</time>
      </trkpt>
      <trkpt lat="44.8678" lon="6.71709">
        <ele>1546.8</ele>
        <time>2022-07-17T14:22:17Z</time>
      </trkpt>
      <trkpt lat="44.86781" lon="6.71713">
        <ele>1547</ele>
        <time>2022-07-17T14:22:18Z</time>
      </trkpt>
      <trkpt lat="44.86782" lon="6.71716">
        <ele>1547</ele>
        <time>2022-07-17T14:22:19Z</time>
      </trkpt>
      <trkpt lat="44.86783" lon="6.7172">
        <ele>1547.2</ele>
        <time>2022-07-17T14:22:20Z</time>
      </trkpt>
      <trkpt lat="44.86784" lon="6.71724">
        <ele>1547.4</ele>
        <time>2022-07-17T14:22:21Z</time>
      </trkpt>
      <trkpt lat="44.86785" lon="6.71727">
        <ele>1547.4</ele>
        <time>2022-07-17T14:22:22Z</time>
      </trkpt>
      <trkpt lat="44.86786" lon="6.71731">
        <ele>1547.8</ele>
        <time>2022-07-17T14:22:23Z</time>
      </trkpt>
      <trkpt lat="44.86787" lon="6.71735">
        <ele>1547.8</ele>
        <time>2022-07-17T14:22:24Z</time>
      </trkpt>
      <trkpt lat="44.86789" lon="6.71739">
        <ele>1547.8</ele>
        <time>2022-07-17T14:22:25Z</time>
      </trkpt>
      <trkpt lat="44.8679" lon="6.71742">
        <ele>1548</ele>
        <time>2022-07-17T14:22:26Z</time>
      </trkpt>
      <trkpt lat="44.86791" lon="6.71746">
        <ele>1548.4</ele>
        <time>2022-07-17T14:22:27Z</time>
      </trkpt>
      <trkpt lat="44.86792" lon="6.71749">
        <ele>1548.4</ele>
        <time>2022-07-17T14:22:28Z</time>
      </trkpt>
      <trkpt lat="44.86793" lon="6.71753">
        <ele>1548.4</ele>
        <time>2022-07-17T14:22:29Z</time>
      </trkpt>
      <trkpt lat="44.86795" lon="6.71756">
        <ele>1548.4</ele>
        <time>2022-07-17T14:22:30Z</time>
      </trkpt>
      <trkpt lat="44.86796" lon="6.71759">
        <ele>1548.8</ele>
        <time>2022-07-17T14:22:31Z</time>
      </trkpt>
      <trkpt lat="44.86797" lon="6.71763">
        <ele>1548.8</ele>
        <time>2022-07-17T14:22:32Z</time>
      </trkpt>
      <trkpt lat="44.86798" lon="6.71766">
        <ele>1549</ele>
        <time>2022-07-17T14:22:33Z</time>
      </trkpt>
      <trkpt lat="44.86798" lon="6.7177">
        <ele>1549</ele>
        <time>2022-07-17T14:22:34Z</time>
      </trkpt>
      <trkpt lat="44.868" lon="6.71774">
        <ele>1549.6</ele>
        <time>2022-07-17T14:22:35Z</time>
      </trkpt>
      <trkpt lat="44.86801" lon="6.71777">
        <ele>1549.8</ele>
        <time>2022-07-17T14:22:36Z</time>
      </trkpt>
      <trkpt lat="44.86802" lon="6.71781">
        <ele>1549.8</ele>
        <time>2022-07-17T14:22:37Z</time>
      </trkpt>
      <trkpt lat="44.86803" lon="6.71784">
        <ele>1549.8</ele>
        <time>2022-07-17T14:22:38Z</time>
      </trkpt>
      <trkpt lat="44.86804" lon="6.71788">
        <ele>1550</ele>
        <time>2022-07-17T14:22:39Z</time>
      </trkpt>
      <trkpt lat="44.86805" lon="6.71791">
        <ele>1550.2</ele>
        <time>2022-07-17T14:22:40Z</time>
      </trkpt>
      <trkpt lat="44.86806" lon="6.71795">
        <ele>1550.2</ele>
        <time>2022-07-17T14:22:41Z</time>
      </trkpt>
      <trkpt lat="44.86807" lon="6.71799">
        <ele>1550.6</ele>
        <time>2022-07-17T14:22:42Z</time>
      </trkpt>
      <trkpt lat="44.86808" lon="6.71802">
        <ele>1550.8</ele>
        <time>2022-07-17T14:22:43Z</time>
      </trkpt>
      <trkpt lat="44.86809" lon="6.71805">
        <ele>1551</ele>
        <time>2022-07-17T14:22:44Z</time>
      </trkpt>
      <trkpt lat="44.8681" lon="6.71809">
        <ele>1551.2</ele>
        <time>2022-07-17T14:22:45Z</time>
      </trkpt>
      <trkpt lat="44.86811" lon="6.71812">
        <ele>1551.2</ele>
        <time>2022-07-17T14:22:46Z</time>
      </trkpt>
      <trkpt lat="44.86812" lon="6.71816">
        <ele>1551.6</ele>
        <time>2022-07-17T14:22:47Z</time>
      </trkpt>
      <trkpt lat="44.86814" lon="6.71819">
        <ele>1551.8</ele>
        <time>2022-07-17T14:22:48Z</time>
      </trkpt>
      <trkpt lat="44.86815" lon="6.71823">
        <ele>1551.8</ele>
        <time>2022-07-17T14:22:49Z</time>
      </trkpt>
      <trkpt lat="44.86816" lon="6.71826">
        <ele>1552.2</ele>
        <time>2022-07-17T14:22:50Z</time>
      </trkpt>
      <trkpt lat="44.86816" lon="6.7183">
        <ele>1552.2</ele>
        <time>2022-07-17T14:22:51Z</time>
      </trkpt>
      <trkpt lat="44.86817" lon="6.71833">
        <ele>1552.6</ele>
        <time>2022-07-17T14:22:52Z</time>
      </trkpt>
      <trkpt lat="44.86819" lon="6.71836">
        <ele>1552.6</ele>
        <time>2022-07-17T14:22:53Z</time>
      </trkpt>
      <trkpt lat="44.8682" lon="6.7184">
        <ele>1552.8</ele>
        <time>2022-07-17T14:22:54Z</time>
      </trkpt>
      <trkpt lat="44.86821" lon="6.71843">
        <ele>1553</ele>
        <time>2022-07-17T14:22:55Z</time>
      </trkpt>
      <trkpt lat="44.86822" lon="6.71847">
        <ele>1553</ele>
        <time>2022-07-17T14:22:56Z</time>
      </trkpt>
      <trkpt lat="44.86825" lon="6.71853">
        <ele>1553.2</ele>
        <time>2022-07-17T14:22:57Z</time>
      </trkpt>
      <trkpt lat="44.86826" lon="6.71857">
        <ele>1553.2</ele>
        <time>2022-07-17T14:22:58Z</time>
      </trkpt>
      <trkpt lat="44.86827" lon="6.7186">
        <ele>1553.4</ele>
        <time>2022-07-17T14:22:59Z</time>
      </trkpt>
      <trkpt lat="44.86828" lon="6.71864">
        <ele>1553.4</ele>
        <time>2022-07-17T14:23:00Z</time>
      </trkpt>
      <trkpt lat="44.86829" lon="6.71867">
        <ele>1553.8</ele>
        <time>2022-07-17T14:23:01Z</time>
      </trkpt>
      <trkpt lat="44.8683" lon="6.7187">
        <ele>1554</ele>
        <time>2022-07-17T14:23:02Z</time>
      </trkpt>
      <trkpt lat="44.86832" lon="6.71874">
        <ele>1554</ele>
        <time>2022-07-17T14:23:03Z</time>
      </trkpt>
      <trkpt lat="44.86833" lon="6.71877">
        <ele>1554</ele>
        <time>2022-07-17T14:23:04Z</time>
      </trkpt>
      <trkpt lat="44.86835" lon="6.7188">
        <ele>1554.2</ele>
        <time>2022-07-17T14:23:05Z</time>
      </trkpt>
      <trkpt lat="44.86836" lon="6.71884">
        <ele>1554.2</ele>
        <time>2022-07-17T14:23:06Z</time>
      </trkpt>
      <trkpt lat="44.86837" lon="6.71887">
        <ele>1554.6</ele>
        <time>2022-07-17T14:23:07Z</time>
      </trkpt>
      <trkpt lat="44.86839" lon="6.71891">
        <ele>1554.8</ele>
        <time>2022-07-17T14:23:08Z</time>
      </trkpt>
      <trkpt lat="44.8684" lon="6.71894">
        <ele>1554.8</ele>
        <time>2022-07-17T14:23:09Z</time>
      </trkpt>
      <trkpt lat="44.86842" lon="6.71898">
        <ele>1555</ele>
        <time>2022-07-17T14:23:10Z</time>
      </trkpt>
      <trkpt lat="44.86843" lon="6.71901">
        <ele>1555</ele>
        <time>2022-07-17T14:23:11Z</time>
      </trkpt>
      <trkpt lat="44.86845" lon="6.71904">
        <ele>1555.2</ele>
        <time>2022-07-17T14:23:12Z</time>
      </trkpt>
      <trkpt lat="44.86846" lon="6.71908">
        <ele>1555.2</ele>
        <time>2022-07-17T14:23:13Z</time>
      </trkpt>
      <trkpt lat="44.86848" lon="6.71911">
        <ele>1555.6</ele>
        <time>2022-07-17T14:23:14Z</time>
      </trkpt>
      <trkpt lat="44.86849" lon="6.71914">
        <ele>1555.8</ele>
        <time>2022-07-17T14:23:15Z</time>
      </trkpt>
      <trkpt lat="44.8685" lon="6.71917">
        <ele>1556</ele>
        <time>2022-07-17T14:23:16Z</time>
      </trkpt>
      <trkpt lat="44.86851" lon="6.71921">
        <ele>1556</ele>
        <time>2022-07-17T14:23:17Z</time>
      </trkpt>
      <trkpt lat="44.86852" lon="6.71924">
        <ele>1556.4</ele>
        <time>2022-07-17T14:23:18Z</time>
      </trkpt>
      <trkpt lat="44.86854" lon="6.71926">
        <ele>1556.4</ele>
        <time>2022-07-17T14:23:19Z</time>
      </trkpt>
      <trkpt lat="44.86855" lon="6.71929">
        <ele>1556.8</ele>
        <time>2022-07-17T14:23:20Z</time>
      </trkpt>
      <trkpt lat="44.86856" lon="6.71933">
        <ele>1556.8</ele>
        <time>2022-07-17T14:23:21Z</time>
      </trkpt>
      <trkpt lat="44.86857" lon="6.71936">
        <ele>1557</ele>
        <time>2022-07-17T14:23:23Z</time>
      </trkpt>
      <trkpt lat="44.86858" lon="6.7194">
        <ele>1557</ele>
        <time>2022-07-17T14:23:24Z</time>
      </trkpt>
      <trkpt lat="44.8686" lon="6.71944">
        <ele>1557.2</ele>
        <time>2022-07-17T14:23:25Z</time>
      </trkpt>
      <trkpt lat="44.86861" lon="6.71948">
        <ele>1557.2</ele>
        <time>2022-07-17T14:23:26Z</time>
      </trkpt>
      <trkpt lat="44.86862" lon="6.71952">
        <ele>1557.4</ele>
        <time>2022-07-17T14:23:27Z</time>
      </trkpt>
      <trkpt lat="44.86862" lon="6.71956">
        <ele>1557.4</ele>
        <time>2022-07-17T14:23:28Z</time>
      </trkpt>
      <trkpt lat="44.86862" lon="6.71961">
        <ele>1557.4</ele>
        <time>2022-07-17T14:23:29Z</time>
      </trkpt>
      <trkpt lat="44.86862" lon="6.71966">
        <ele>1557.4</ele>
        <time>2022-07-17T14:23:30Z</time>
      </trkpt>
      <trkpt lat="44.86861" lon="6.71971">
        <ele>1557.4</ele>
        <time>2022-07-17T14:23:31Z</time>
      </trkpt>
      <trkpt lat="44.8686" lon="6.71975">
        <ele>1557.2</ele>
        <time>2022-07-17T14:23:32Z</time>
      </trkpt>
      <trkpt lat="44.86858" lon="6.71979">
        <ele>1557.2</ele>
        <time>2022-07-17T14:23:33Z</time>
      </trkpt>
      <trkpt lat="44.86856" lon="6.71982">
        <ele>1557.2</ele>
        <time>2022-07-17T14:23:34Z</time>
      </trkpt>
      <trkpt lat="44.86853" lon="6.71985">
        <ele>1556.8</ele>
        <time>2022-07-17T14:23:35Z</time>
      </trkpt>
      <trkpt lat="44.86851" lon="6.71989">
        <ele>1556.8</ele>
        <time>2022-07-17T14:23:36Z</time>
      </trkpt>
      <trkpt lat="44.86848" lon="6.71992">
        <ele>1556.8</ele>
        <time>2022-07-17T14:23:37Z</time>
      </trkpt>
      <trkpt lat="44.86846" lon="6.71996">
        <ele>1557</ele>
        <time>2022-07-17T14:23:38Z</time>
      </trkpt>
      <trkpt lat="44.86843" lon="6.72">
        <ele>1557</ele>
        <time>2022-07-17T14:23:39Z</time>
      </trkpt>
      <trkpt lat="44.86841" lon="6.72004">
        <ele>1557.4</ele>
        <time>2022-07-17T14:23:40Z</time>
      </trkpt>
      <trkpt lat="44.86838" lon="6.72008">
        <ele>1557.4</ele>
        <time>2022-07-17T14:23:41Z</time>
      </trkpt>
      <trkpt lat="44.86836" lon="6.72013">
        <ele>1557.4</ele>
        <time>2022-07-17T14:23:42Z</time>
      </trkpt>
      <trkpt lat="44.86834" lon="6.72017">
        <ele>1557.4</ele>
        <time>2022-07-17T14:23:43Z</time>
      </trkpt>
      <trkpt lat="44.86833" lon="6.72022">
        <ele>1557.4</ele>
        <time>2022-07-17T14:23:44Z</time>
      </trkpt>
      <trkpt lat="44.86832" lon="6.72028">
        <ele>1557.4</ele>
        <time>2022-07-17T14:23:45Z</time>
      </trkpt>
      <trkpt lat="44.86831" lon="6.72033">
        <ele>1557.4</ele>
        <time>2022-07-17T14:23:46Z</time>
      </trkpt>
      <trkpt lat="44.86831" lon="6.72038">
        <ele>1557.4</ele>
        <time>2022-07-17T14:23:47Z</time>
      </trkpt>
      <trkpt lat="44.8683" lon="6.72043">
        <ele>1557.4</ele>
        <time>2022-07-17T14:23:48Z</time>
      </trkpt>
      <trkpt lat="44.86831" lon="6.72048">
        <ele>1557.4</ele>
        <time>2022-07-17T14:23:49Z</time>
      </trkpt>
      <trkpt lat="44.86831" lon="6.72052">
        <ele>1557.8</ele>
        <time>2022-07-17T14:23:50Z</time>
      </trkpt>
      <trkpt lat="44.86833" lon="6.72056">
        <ele>1557.8</ele>
        <time>2022-07-17T14:23:51Z</time>
      </trkpt>
      <trkpt lat="44.86834" lon="6.7206">
        <ele>1558.2</ele>
        <time>2022-07-17T14:23:52Z</time>
      </trkpt>
      <trkpt lat="44.86835" lon="6.72064">
        <ele>1558.2</ele>
        <time>2022-07-17T14:23:53Z</time>
      </trkpt>
      <trkpt lat="44.86837" lon="6.72067">
        <ele>1558.2</ele>
        <time>2022-07-17T14:23:54Z</time>
      </trkpt>
      <trkpt lat="44.86838" lon="6.72071">
        <ele>1558.2</ele>
        <time>2022-07-17T14:23:55Z</time>
      </trkpt>
      <trkpt lat="44.86839" lon="6.72074">
        <ele>1558.4</ele>
        <time>2022-07-17T14:23:56Z</time>
      </trkpt>
      <trkpt lat="44.8684" lon="6.72077">
        <ele>1558.4</ele>
        <time>2022-07-17T14:23:57Z</time>
      </trkpt>
      <trkpt lat="44.86842" lon="6.7208">
        <ele>1558.6</ele>
        <time>2022-07-17T14:23:58Z</time>
      </trkpt>
      <trkpt lat="44.86843" lon="6.72083">
        <ele>1558.8</ele>
        <time>2022-07-17T14:23:59Z</time>
      </trkpt>
      <trkpt lat="44.86845" lon="6.72086">
        <ele>1558.8</ele>
        <time>2022-07-17T14:24:00Z</time>
      </trkpt>
      <trkpt lat="44.86846" lon="6.7209">
        <ele>1558.8</ele>
        <time>2022-07-17T14:24:01Z</time>
      </trkpt>
      <trkpt lat="44.86848" lon="6.72093">
        <ele>1558.8</ele>
        <time>2022-07-17T14:24:02Z</time>
      </trkpt>
      <trkpt lat="44.86849" lon="6.72097">
        <ele>1558.8</ele>
        <time>2022-07-17T14:24:03Z</time>
      </trkpt>
      <trkpt lat="44.8685" lon="6.721">
        <ele>1558.8</ele>
        <time>2022-07-17T14:24:04Z</time>
      </trkpt>
      <trkpt lat="44.86852" lon="6.72104">
        <ele>1558.8</ele>
        <time>2022-07-17T14:24:05Z</time>
      </trkpt>
      <trkpt lat="44.86853" lon="6.72107">
        <ele>1558.8</ele>
        <time>2022-07-17T14:24:06Z</time>
      </trkpt>
      <trkpt lat="44.86855" lon="6.7211">
        <ele>1558.8</ele>
        <time>2022-07-17T14:24:07Z</time>
      </trkpt>
      <trkpt lat="44.86856" lon="6.72112">
        <ele>1558.8</ele>
        <time>2022-07-17T14:24:08Z</time>
      </trkpt>
      <trkpt lat="44.86858" lon="6.72114">
        <ele>1558.8</ele>
        <time>2022-07-17T14:24:09Z</time>
      </trkpt>
      <trkpt lat="44.86859" lon="6.72116">
        <ele>1558.8</ele>
        <time>2022-07-17T14:24:10Z</time>
      </trkpt>
      <trkpt lat="44.8686" lon="6.72116">
        <ele>1558.8</ele>
        <time>2022-07-17T14:24:11Z</time>
      </trkpt>
      <trkpt lat="44.8686" lon="6.72117">
        <ele>1558.8</ele>
        <time>2022-07-17T14:24:12Z</time>
      </trkpt>
      <trkpt lat="44.86861" lon="6.72117">
        <ele>1558.8</ele>
        <time>2022-07-17T14:24:13Z</time>
      </trkpt>
    </trkseg>
  </trk>
</gpx>